ftp/pub/mcmurdo/arrivalheights/2006/0306AHWX.TXT

Download

		Temp	Hi	Low	Out	Dew	Wind	Wind	Wind	Hi	Wind	Heat	THW		Heat	Cool	In 	In	Arc.
Date	Time	Out	Temp	Temp	Hum	Pt.	Speed	Dir	Run	Speed	Chill	Index	Index	Bar  	D-D 	D-D 	Temp	Hum	Int.
03/01/06	12:01 a	-20.1	-20.1	-20.1	---	---	25.2	ESE	0.42	27.0	-35.1	---	---	733.9	0.027	0.000	18.1	5	1
03/01/06	12:02 a	-20.1	-20.1	-20.1	---	---	24.3	ESE	0.41	25.2	-34.8	---	---	733.9	0.027	0.000	18.1	5	1
03/01/06	12:03 a	-20.1	-20.1	-20.1	---	---	22.6	E	0.38	26.1	-34.4	---	---	733.9	0.027	0.000	18.1	5	1
03/01/06	12:04 a	-20.0	-20.0	-20.1	---	---	22.6	ESE	0.38	26.1	-34.3	---	---	734.0	0.027	0.000	18.0	5	1
03/01/06	12:05 a	-20.0	-20.0	-20.1	---	---	21.7	E	0.36	25.2	-34.1	---	---	734.0	0.027	0.000	18.0	5	1
03/01/06	12:06 a	-20.0	-20.0	-20.0	---	---	25.2	E	0.42	28.7	-34.9	---	---	734.0	0.027	0.000	17.9	5	1
03/01/06	12:07 a	-20.0	-19.9	-20.0	---	---	24.3	ESE	0.41	26.1	-34.7	---	---	733.9	0.027	0.000	17.9	5	1
03/01/06	12:08 a	-19.9	-19.9	-20.0	---	---	23.5	E	0.39	26.1	-34.4	---	---	734.0	0.027	0.000	17.9	5	1
03/01/06	12:09 a	-19.9	-19.9	-19.9	---	---	22.6	ESE	0.38	27.0	-34.2	---	---	734.1	0.027	0.000	17.9	5	1
03/01/06	12:10 a	-19.9	-19.9	-19.9	---	---	25.2	ESE	0.42	28.7	-34.8	---	---	734.1	0.027	0.000	17.9	5	1
03/01/06	12:11 a	-19.9	-19.9	-19.9	---	---	22.6	ESE	0.38	25.2	-34.2	---	---	734.1	0.027	0.000	17.9	5	1
03/01/06	12:12 a	-19.9	-19.8	-19.9	---	---	23.5	ESE	0.39	25.2	-34.3	---	---	734.1	0.027	0.000	17.9	5	1
03/01/06	12:13 a	-19.8	-19.8	-19.9	---	---	22.6	E	0.38	26.1	-34.1	---	---	734.1	0.027	0.000	17.8	5	1
03/01/06	12:14 a	-19.8	-19.8	-19.8	---	---	21.7	E	0.36	26.1	-33.8	---	---	734.0	0.027	0.000	17.8	5	1
03/01/06	12:15 a	-19.8	-19.8	-19.8	---	---	22.6	E	0.38	25.2	-34.1	---	---	734.0	0.027	0.000	17.8	5	1
03/01/06	12:16 a	-19.8	-19.8	-19.8	---	---	20.9	E	0.35	27.0	-33.6	---	---	734.0	0.026	0.000	17.8	5	1
03/01/06	12:17 a	-19.8	-19.8	-19.8	---	---	23.5	E	0.39	26.1	-34.2	---	---	734.0	0.026	0.000	17.8	5	1
03/01/06	12:18 a	-19.8	-19.8	-19.8	---	---	23.5	E	0.39	27.0	-34.2	---	---	734.1	0.026	0.000	17.8	5	1
03/01/06	12:19 a	-19.7	-19.7	-19.7	---	---	20.9	E	0.35	24.3	-33.5	---	---	734.2	0.026	0.000	17.8	5	1
03/01/06	12:20 a	-19.7	-19.7	-19.7	---	---	21.7	E	0.36	25.2	-33.7	---	---	734.2	0.026	0.000	17.8	5	1
03/01/06	12:21 a	-19.7	-19.7	-19.7	---	---	21.7	ESE	0.36	24.3	-33.7	---	---	734.1	0.026	0.000	17.8	5	1
03/01/06	12:22 a	-19.7	-19.7	-19.7	---	---	20.0	E	0.33	21.7	-33.2	---	---	734.1	0.026	0.000	17.8	5	1
03/01/06	12:23 a	-19.7	-19.7	-19.7	---	---	21.7	E	0.36	25.2	-33.6	---	---	734.0	0.026	0.000	17.8	5	1
03/01/06	12:24 a	-19.7	-19.6	-19.7	---	---	23.5	E	0.39	25.2	-34.1	---	---	734.0	0.026	0.000	17.7	5	1
03/01/06	12:25 a	-19.6	-19.6	-19.6	---	---	20.9	E	0.35	23.5	-33.3	---	---	734.0	0.026	0.000	17.8	5	1
03/01/06	12:26 a	-19.6	-19.6	-19.6	---	---	20.0	ESE	0.33	24.3	-33.1	---	---	734.2	0.026	0.000	17.8	5	1
03/01/06	12:27 a	-19.6	-19.6	-19.6	---	---	21.7	E	0.36	28.7	-33.6	---	---	734.2	0.026	0.000	17.8	5	1
03/01/06	12:28 a	-19.6	-19.6	-19.6	---	---	21.7	E	0.36	26.1	-33.6	---	---	734.1	0.026	0.000	17.8	5	1
03/01/06	12:29 a	-19.6	-19.6	-19.6	---	---	20.9	E	0.35	24.3	-33.3	---	---	734.0	0.026	0.000	17.8	5	1
03/01/06	12:30 a	-19.6	-19.6	-19.6	---	---	20.9	E	0.35	23.5	-33.3	---	---	733.9	0.026	0.000	17.9	6	1
03/01/06	12:31 a	-19.6	-19.6	-19.6	---	---	19.1	E	0.32	24.3	-32.8	---	---	733.9	0.026	0.000	18.0	6	1
03/01/06	12:32 a	-19.6	-19.6	-19.6	---	---	20.9	E	0.35	27.0	-33.3	---	---	733.9	0.026	0.000	18.0	6	1
03/01/06	12:33 a	-19.6	-19.5	-19.6	---	---	20.9	E	0.35	25.2	-33.3	---	---	734.0	0.026	0.000	18.0	6	1
03/01/06	12:34 a	-19.5	-19.5	-19.6	---	---	18.3	ESE	0.30	21.7	-32.4	---	---	734.1	0.026	0.000	18.1	6	1
03/01/06	12:35 a	-19.5	-19.5	-19.5	---	---	21.7	E	0.36	26.1	-33.4	---	---	734.0	0.026	0.000	18.1	6	1
03/01/06	12:36 a	-19.5	-19.5	-19.5	---	---	21.7	E	0.36	24.3	-33.4	---	---	734.1	0.026	0.000	18.1	6	1
03/01/06	12:37 a	-19.5	-19.5	-19.5	---	---	20.0	E	0.33	22.6	-32.9	---	---	734.1	0.026	0.000	18.1	6	1
03/01/06	12:38 a	-19.5	-19.5	-19.5	---	---	20.0	E	0.33	27.0	-32.9	---	---	734.1	0.026	0.000	18.1	6	1
03/01/06	12:39 a	-19.5	-19.5	-19.5	---	---	22.6	ESE	0.38	25.2	-33.6	---	---	734.1	0.026	0.000	18.1	6	1
03/01/06	12:40 a	-19.5	-19.5	-19.5	---	---	21.7	ESE	0.36	26.1	-33.4	---	---	734.2	0.026	0.000	18.1	6	1
03/01/06	12:41 a	-19.5	-19.5	-19.5	---	---	20.9	E	0.35	26.1	-33.2	---	---	734.1	0.026	0.000	18.0	6	1
03/01/06	12:42 a	-19.4	-19.4	-19.5	---	---	20.0	E	0.33	24.3	-32.9	---	---	734.2	0.026	0.000	18.0	6	1
03/01/06	12:43 a	-19.4	-19.4	-19.4	---	---	20.9	E	0.35	24.3	-33.1	---	---	734.2	0.026	0.000	18.0	6	1
03/01/06	12:44 a	-19.4	-19.4	-19.4	---	---	24.3	ESE	0.41	30.4	-33.9	---	---	734.1	0.026	0.000	17.9	6	1
03/01/06	12:45 a	-19.4	-19.4	-19.4	---	---	21.7	E	0.36	26.1	-33.3	---	---	734.2	0.026	0.000	17.9	6	1
03/01/06	12:46 a	-19.4	-19.4	-19.4	---	---	21.7	ESE	0.36	25.2	-33.3	---	---	734.3	0.026	0.000	17.9	6	1
03/01/06	12:47 a	-19.4	-19.4	-19.4	---	---	22.6	E	0.38	25.2	-33.5	---	---	734.2	0.026	0.000	17.9	6	1
03/01/06	12:48 a	-19.4	-19.4	-19.4	---	---	22.6	E	0.38	25.2	-33.5	---	---	734.2	0.026	0.000	17.9	6	1
03/01/06	12:49 a	-19.4	-19.3	-19.4	---	---	22.6	ESE	0.38	24.3	-33.5	---	---	734.3	0.026	0.000	17.9	6	1
03/01/06	12:50 a	-19.3	-19.3	-19.3	---	---	23.5	ESE	0.39	27.0	-33.6	---	---	734.1	0.026	0.000	17.9	6	1
03/01/06	12:51 a	-19.3	-19.3	-19.3	---	---	25.2	ESE	0.42	27.8	-34.0	---	---	734.1	0.026	0.000	17.9	6	1
03/01/06	12:52 a	-19.3	-19.3	-19.3	---	---	20.9	ESE	0.35	23.5	-32.9	---	---	734.2	0.026	0.000	17.9	6	1
03/01/06	12:53 a	-19.3	-19.3	-19.3	---	---	22.6	ESE	0.38	25.2	-33.4	---	---	734.2	0.026	0.000	17.9	6	1
03/01/06	12:54 a	-19.3	-19.3	-19.3	---	---	20.9	ESE	0.35	22.6	-32.9	---	---	734.3	0.026	0.000	17.9	6	1
03/01/06	12:55 a	-19.3	-19.3	-19.3	---	---	20.0	ESE	0.33	23.5	-32.7	---	---	734.3	0.026	0.000	17.9	6	1
03/01/06	12:56 a	-19.3	-19.3	-19.3	---	---	22.6	ESE	0.38	24.3	-33.3	---	---	734.3	0.026	0.000	17.9	6	1
03/01/06	12:57 a	-19.3	-19.3	-19.3	---	---	21.7	E	0.36	25.2	-33.1	---	---	734.3	0.026	0.000	17.9	6	1
03/01/06	12:58 a	-19.3	-19.2	-19.3	---	---	21.7	E	0.36	25.2	-33.1	---	---	734.4	0.026	0.000	17.9	6	1
03/01/06	12:59 a	-19.2	-19.2	-19.3	---	---	19.1	E	0.32	27.0	-32.3	---	---	734.9	0.026	0.000	17.9	6	1
03/01/06	1:00 a	-19.2	-19.2	-19.2	---	---	23.5	E	0.39	25.2	-33.4	---	---	734.4	0.026	0.000	17.9	6	1
03/01/06	1:01 a	-19.2	-19.2	-19.2	---	---	22.6	ESE	0.38	27.8	-33.3	---	---	734.2	0.026	0.000	17.8	6	1
03/01/06	1:02 a	-19.2	-19.2	-19.2	---	---	22.6	ESE	0.38	27.0	-33.3	---	---	734.4	0.026	0.000	17.8	6	1
03/01/06	1:03 a	-19.2	-19.2	-19.2	---	---	20.9	ESE	0.35	25.2	-32.7	---	---	734.4	0.026	0.000	17.8	6	1
03/01/06	1:04 a	-19.2	-19.2	-19.2	---	---	20.0	E	0.33	23.5	-32.5	---	---	734.3	0.026	0.000	17.8	6	1
03/01/06	1:05 a	-19.1	-19.1	-19.2	---	---	22.6	E	0.38	27.0	-33.1	---	---	734.4	0.026	0.000	17.8	6	1
03/01/06	1:06 a	-19.1	-19.1	-19.2	---	---	22.6	ESE	0.38	27.0	-33.1	---	---	734.5	0.026	0.000	17.9	6	1
03/01/06	1:07 a	-19.1	-19.1	-19.1	---	---	20.0	ESE	0.33	24.3	-32.4	---	---	734.5	0.026	0.000	17.9	6	1
03/01/06	1:08 a	-19.1	-19.1	-19.1	---	---	20.9	ESE	0.35	24.3	-32.7	---	---	734.4	0.026	0.000	18.0	6	1
03/01/06	1:09 a	-19.1	-19.1	-19.1	---	---	20.9	E	0.35	24.3	-32.7	---	---	734.5	0.026	0.000	18.0	6	1
03/01/06	1:10 a	-19.1	-19.1	-19.1	---	---	22.6	ESE	0.38	26.1	-33.1	---	---	734.5	0.026	0.000	18.1	6	1
03/01/06	1:11 a	-19.1	-19.1	-19.1	---	---	20.9	ESE	0.35	26.1	-32.7	---	---	734.4	0.026	0.000	18.1	7	1
03/01/06	1:12 a	-19.1	-19.1	-19.1	---	---	19.1	E	0.32	23.5	-32.1	---	---	734.4	0.026	0.000	18.1	7	1
03/01/06	1:13 a	-19.1	-19.1	-19.1	---	---	20.0	E	0.33	24.3	-32.4	---	---	734.4	0.026	0.000	18.2	7	1
03/01/06	1:14 a	-19.1	-19.0	-19.1	---	---	20.9	E	0.35	24.3	-32.6	---	---	734.5	0.026	0.000	18.2	7	1
03/01/06	1:15 a	-19.1	-19.0	-19.1	---	---	22.6	ESE	0.38	26.1	-33.1	---	---	734.4	0.026	0.000	18.2	7	1
03/01/06	1:16 a	-19.0	-19.0	-19.1	---	---	20.9	ESE	0.35	27.0	-32.5	---	---	734.6	0.026	0.000	18.2	7	1
03/01/06	1:17 a	-19.0	-19.0	-19.1	---	---	20.0	ESE	0.33	26.1	-32.3	---	---	734.5	0.026	0.000	18.2	7	1
03/01/06	1:18 a	-19.0	-19.0	-19.0	---	---	20.9	ESE	0.35	22.6	-32.5	---	---	734.5	0.026	0.000	18.3	7	1
03/01/06	1:19 a	-19.0	-19.0	-19.0	---	---	23.5	ESE	0.39	28.7	-33.2	---	---	734.5	0.026	0.000	18.3	7	1
03/01/06	1:20 a	-19.0	-18.9	-19.0	---	---	21.7	ESE	0.36	23.5	-32.7	---	---	734.6	0.026	0.000	18.3	7	1
03/01/06	1:21 a	-18.9	-18.9	-19.0	---	---	19.1	ESE	0.32	21.7	-32.0	---	---	734.6	0.026	0.000	18.3	7	1
03/01/06	1:22 a	-18.9	-18.9	-19.0	---	---	19.1	ESE	0.32	20.9	-32.0	---	---	734.7	0.026	0.000	18.2	7	1
03/01/06	1:23 a	-18.9	-18.9	-19.0	---	---	20.9	ESE	0.35	21.7	-32.4	---	---	734.6	0.026	0.000	18.2	7	1
03/01/06	1:24 a	-18.9	-18.9	-18.9	---	---	20.0	ESE	0.33	22.6	-32.2	---	---	734.7	0.026	0.000	18.2	7	1
03/01/06	1:25 a	-18.9	-18.9	-18.9	---	---	20.9	ESE	0.35	23.5	-32.4	---	---	734.7	0.026	0.000	18.2	7	1
03/01/06	1:26 a	-18.9	-18.9	-18.9	---	---	22.6	ESE	0.38	24.3	-32.9	---	---	734.5	0.026	0.000	18.2	7	1
03/01/06	1:27 a	-18.9	-18.9	-18.9	---	---	20.9	ESE	0.35	23.5	-32.4	---	---	734.7	0.026	0.000	18.2	7	1
03/01/06	1:28 a	-18.9	-18.9	-18.9	---	---	20.9	ESE	0.35	22.6	-32.4	---	---	734.7	0.026	0.000	18.2	7	1
03/01/06	1:29 a	-18.9	-18.9	-18.9	---	---	21.7	ESE	0.36	25.2	-32.6	---	---	734.6	0.026	0.000	18.2	7	1
03/01/06	1:30 a	-18.9	-18.9	-18.9	---	---	20.9	ESE	0.35	21.7	-32.4	---	---	734.7	0.026	0.000	18.2	7	1
03/01/06	1:31 a	-18.9	-18.9	-18.9	---	---	19.1	ESE	0.32	24.3	-31.9	---	---	734.6	0.026	0.000	18.2	7	1
03/01/06	1:32 a	-18.9	-18.9	-18.9	---	---	20.9	ESE	0.35	21.7	-32.4	---	---	734.6	0.026	0.000	18.2	7	1
03/01/06	1:33 a	-18.8	-18.8	-18.9	---	---	21.7	ESE	0.36	24.3	-32.5	---	---	734.7	0.026	0.000	18.3	7	1
03/01/06	1:34 a	-18.8	-18.8	-18.9	---	---	20.9	ESE	0.35	23.5	-32.3	---	---	734.6	0.026	0.000	18.3	7	1
03/01/06	1:35 a	-18.8	-18.8	-18.8	---	---	21.7	ESE	0.36	23.5	-32.5	---	---	734.7	0.026	0.000	18.3	7	1
03/01/06	1:36 a	-18.8	-18.8	-18.8	---	---	22.6	ESE	0.38	23.5	-32.7	---	---	734.6	0.026	0.000	18.3	7	1
03/01/06	1:37 a	-18.8	-18.8	-18.8	---	---	20.9	ESE	0.35	23.5	-32.3	---	---	734.7	0.026	0.000	18.3	7	1
03/01/06	1:38 a	-18.8	-18.8	-18.8	---	---	20.0	ESE	0.33	24.3	-32.1	---	---	734.7	0.026	0.000	18.3	7	1
03/01/06	1:39 a	-18.8	-18.8	-18.8	---	---	19.1	ESE	0.32	20.0	-31.8	---	---	734.7	0.026	0.000	18.3	7	1
03/01/06	1:40 a	-18.8	-18.8	-18.8	---	---	20.9	ESE	0.35	22.6	-32.2	---	---	734.7	0.026	0.000	18.3	7	1
03/01/06	1:41 a	-18.8	-18.8	-18.8	---	---	20.9	ESE	0.35	23.5	-32.2	---	---	734.6	0.026	0.000	18.3	7	1
03/01/06	1:42 a	-18.8	-18.8	-18.8	---	---	21.7	ESE	0.36	23.5	-32.4	---	---	734.7	0.026	0.000	18.3	7	1
03/01/06	1:43 a	-18.8	-18.8	-18.8	---	---	20.9	ESE	0.35	23.5	-32.2	---	---	734.7	0.026	0.000	18.3	7	1
03/01/06	1:44 a	-18.8	-18.8	-18.8	---	---	22.6	ESE	0.38	24.3	-32.7	---	---	734.7	0.026	0.000	18.3	7	1
03/01/06	1:45 a	-18.8	-18.8	-18.8	---	---	21.7	ESE	0.36	23.5	-32.4	---	---	734.7	0.026	0.000	18.3	7	1
03/01/06	1:46 a	-18.8	-18.8	-18.8	---	---	21.7	ESE	0.36	25.2	-32.4	---	---	734.7	0.026	0.000	18.3	7	1
03/01/06	1:47 a	-18.8	-18.8	-18.8	---	---	20.0	ESE	0.33	22.6	-32.0	---	---	734.8	0.026	0.000	18.3	7	1
03/01/06	1:48 a	-18.8	-18.7	-18.8	---	---	21.7	ESE	0.36	26.1	-32.4	---	---	734.7	0.026	0.000	18.3	7	1
03/01/06	1:49 a	-18.7	-18.7	-18.8	---	---	21.7	ESE	0.36	23.5	-32.4	---	---	734.7	0.026	0.000	18.3	7	1
03/01/06	1:50 a	-18.7	-18.7	-18.7	---	---	21.7	ESE	0.36	24.3	-32.4	---	---	734.8	0.026	0.000	18.4	7	1
03/01/06	1:51 a	-18.7	-18.7	-18.7	---	---	20.9	ESE	0.35	23.5	-32.2	---	---	734.8	0.026	0.000	18.4	7	1
03/01/06	1:52 a	-18.7	-18.7	-18.7	---	---	20.9	ESE	0.35	22.6	-32.2	---	---	734.8	0.026	0.000	18.4	6	1
03/01/06	1:53 a	-18.7	-18.7	-18.7	---	---	22.6	ESE	0.38	24.3	-32.6	---	---	734.8	0.026	0.000	18.4	7	1
03/01/06	1:54 a	-18.7	-18.7	-18.7	---	---	21.7	ESE	0.36	23.5	-32.4	---	---	734.8	0.026	0.000	18.4	7	1
03/01/06	1:55 a	-18.7	-18.7	-18.7	---	---	20.9	ESE	0.35	23.5	-32.2	---	---	734.8	0.026	0.000	18.4	6	1
03/01/06	1:56 a	-18.7	-18.7	-18.7	---	---	21.7	ESE	0.36	23.5	-32.4	---	---	734.9	0.026	0.000	18.4	7	1
03/01/06	1:57 a	-18.7	-18.7	-18.7	---	---	22.6	ESE	0.38	24.3	-32.6	---	---	734.8	0.026	0.000	18.4	6	1
03/01/06	1:58 a	-18.7	-18.7	-18.7	---	---	21.7	ESE	0.36	24.3	-32.4	---	---	734.9	0.026	0.000	18.4	6	1
03/01/06	1:59 a	-18.7	-18.7	-18.7	---	---	20.9	ESE	0.35	23.5	-32.2	---	---	734.9	0.026	0.000	18.4	6	1
03/01/06	2:00 a	-18.7	-18.7	-18.8	---	---	20.9	ESE	0.35	24.3	-32.2	---	---	735.1	0.026	0.000	18.4	6	1
03/01/06	2:01 a	-18.8	-18.7	-18.8	---	---	19.1	ESE	0.32	21.7	-31.8	---	---	735.1	0.026	0.000	18.4	6	1
03/01/06	2:02 a	-18.7	-18.7	-18.7	---	---	18.3	ESE	0.30	21.7	-31.4	---	---	735.1	0.026	0.000	18.4	6	1
03/01/06	2:03 a	-18.7	-18.7	-18.8	---	---	20.0	ESE	0.33	21.7	-31.9	---	---	735.1	0.026	0.000	18.4	6	1
03/01/06	2:04 a	-18.7	-18.7	-18.8	---	---	18.3	SE	0.30	21.7	-31.4	---	---	735.1	0.026	0.000	18.4	6	1
03/01/06	2:05 a	-18.7	-18.7	-18.8	---	---	20.0	SE	0.33	23.5	-31.9	---	---	735.0	0.026	0.000	18.4	6	1
03/01/06	2:06 a	-18.7	-18.7	-18.8	---	---	20.9	ESE	0.35	23.5	-32.2	---	---	734.9	0.026	0.000	18.4	6	1
03/01/06	2:07 a	-18.7	-18.7	-18.8	---	---	20.0	ESE	0.33	22.6	-31.9	---	---	735.0	0.026	0.000	18.4	6	1
03/01/06	2:08 a	-18.7	-18.7	-18.8	---	---	18.3	ESE	0.30	20.0	-31.4	---	---	735.1	0.026	0.000	18.4	6	1
03/01/06	2:09 a	-18.7	-18.7	-18.8	---	---	19.1	ESE	0.32	21.7	-31.6	---	---	735.1	0.026	0.000	18.4	6	1
03/01/06	2:10 a	-18.7	-18.7	-18.8	---	---	19.1	ESE	0.32	21.7	-31.7	---	---	734.9	0.026	0.000	18.4	6	1
03/01/06	2:11 a	-18.7	-18.7	-18.7	---	---	20.9	ESE	0.35	21.7	-32.1	---	---	735.0	0.026	0.000	18.4	6	1
03/01/06	2:12 a	-18.7	-18.7	-18.7	---	---	19.1	ESE	0.32	21.7	-31.7	---	---	734.9	0.026	0.000	18.5	6	1
03/01/06	2:13 a	-18.7	-18.7	-18.8	---	---	20.9	ESE	0.35	22.6	-32.2	---	---	735.0	0.026	0.000	18.5	6	1
03/01/06	2:14 a	-18.7	-18.7	-18.7	---	---	20.0	ESE	0.33	21.7	-31.8	---	---	734.9	0.026	0.000	18.5	6	1
03/01/06	2:15 a	-18.7	-18.7	-18.7	---	---	20.9	ESE	0.35	23.5	-32.2	---	---	735.0	0.026	0.000	18.5	6	1
03/01/06	2:16 a	-18.7	-18.7	-18.7	---	---	22.6	ESE	0.38	25.2	-32.5	---	---	734.8	0.026	0.000	18.5	6	1
03/01/06	2:17 a	-18.7	-18.7	-18.7	---	---	21.7	ESE	0.36	23.5	-32.4	---	---	734.9	0.026	0.000	18.6	6	1
03/01/06	2:18 a	-18.7	-18.7	-18.7	---	---	21.7	ESE	0.36	23.5	-32.3	---	---	734.9	0.026	0.000	18.6	6	1
03/01/06	2:19 a	-18.7	-18.6	-18.7	---	---	20.0	ESE	0.33	21.7	-31.8	---	---	735.0	0.026	0.000	18.5	6	1
03/01/06	2:20 a	-18.7	-18.6	-18.7	---	---	20.9	ESE	0.35	22.6	-32.1	---	---	735.1	0.026	0.000	18.5	6	1
03/01/06	2:21 a	-18.7	-18.6	-18.7	---	---	20.9	ESE	0.35	22.6	-32.1	---	---	734.9	0.026	0.000	18.5	6	1
03/01/06	2:22 a	-18.7	-18.6	-18.7	---	---	21.7	ESE	0.36	23.5	-32.3	---	---	735.0	0.026	0.000	18.5	6	1
03/01/06	2:23 a	-18.7	-18.6	-18.7	---	---	22.6	ESE	0.38	24.3	-32.5	---	---	735.0	0.026	0.000	18.5	6	1
03/01/06	2:24 a	-18.7	-18.6	-18.7	---	---	21.7	ESE	0.36	24.3	-32.3	---	---	735.0	0.026	0.000	18.5	6	1
03/01/06	2:25 a	-18.7	-18.7	-18.7	---	---	21.7	ESE	0.36	23.5	-32.3	---	---	735.0	0.026	0.000	18.5	6	1
03/01/06	2:26 a	-18.7	-18.6	-18.7	---	---	20.9	ESE	0.35	21.7	-32.1	---	---	735.2	0.026	0.000	18.5	6	1
03/01/06	2:27 a	-18.7	-18.6	-18.7	---	---	20.0	ESE	0.33	21.7	-31.8	---	---	735.1	0.026	0.000	18.5	6	1
03/01/06	2:28 a	-18.6	-18.6	-18.7	---	---	20.0	ESE	0.33	22.6	-31.8	---	---	735.1	0.026	0.000	18.5	6	1
03/01/06	2:29 a	-18.7	-18.6	-18.7	---	---	20.0	ESE	0.33	23.5	-31.8	---	---	735.0	0.026	0.000	18.5	6	1
03/01/06	2:30 a	-18.7	-18.6	-18.7	---	---	19.1	ESE	0.32	20.0	-31.6	---	---	735.2	0.026	0.000	18.4	6	1
03/01/06	2:31 a	-18.7	-18.6	-18.7	---	---	19.1	ESE	0.32	20.9	-31.6	---	---	735.2	0.026	0.000	18.5	6	1
03/01/06	2:32 a	-18.7	-18.6	-18.7	---	---	20.0	ESE	0.33	20.9	-31.8	---	---	735.2	0.026	0.000	18.4	6	1
03/01/06	2:33 a	-18.6	-18.6	-18.7	---	---	20.0	ESE	0.33	22.6	-31.8	---	---	735.1	0.026	0.000	18.5	6	1
03/01/06	2:34 a	-18.6	-18.6	-18.7	---	---	19.1	E	0.32	20.9	-31.6	---	---	735.2	0.026	0.000	18.4	6	1
03/01/06	2:35 a	-18.6	-18.6	-18.7	---	---	19.1	E	0.32	20.9	-31.6	---	---	735.1	0.026	0.000	18.4	6	1
03/01/06	2:36 a	-18.6	-18.6	-18.6	---	---	18.3	E	0.30	20.0	-31.3	---	---	735.2	0.026	0.000	18.4	6	1
03/01/06	2:37 a	-18.6	-18.6	-18.7	---	---	17.4	ESE	0.29	19.1	-31.1	---	---	735.2	0.026	0.000	18.5	6	1
03/01/06	2:38 a	-18.6	-18.6	-18.6	---	---	17.4	ESE	0.29	19.1	-31.1	---	---	735.3	0.026	0.000	18.5	6	1
03/01/06	2:39 a	-18.6	-18.6	-18.6	---	---	19.1	ESE	0.32	20.0	-31.6	---	---	735.3	0.026	0.000	18.5	6	1
03/01/06	2:40 a	-18.6	-18.6	-18.6	---	---	20.9	ESE	0.35	21.7	-32.0	---	---	735.2	0.026	0.000	18.4	6	1
03/01/06	2:41 a	-18.6	-18.6	-18.7	---	---	20.9	ESE	0.35	21.7	-32.0	---	---	735.3	0.026	0.000	18.4	6	1
03/01/06	2:42 a	-18.6	-18.6	-18.7	---	---	19.1	ESE	0.32	21.7	-31.6	---	---	735.3	0.026	0.000	18.4	6	1
03/01/06	2:43 a	-18.6	-18.6	-18.6	---	---	18.3	ESE	0.30	19.1	-31.3	---	---	735.4	0.026	0.000	18.4	6	1
03/01/06	2:44 a	-18.6	-18.6	-18.6	---	---	17.4	ESE	0.29	19.1	-31.1	---	---	735.4	0.026	0.000	18.4	6	1
03/01/06	2:45 a	-18.6	-18.6	-18.6	---	---	18.3	ESE	0.30	20.0	-31.3	---	---	735.4	0.026	0.000	18.4	6	1
03/01/06	2:46 a	-18.6	-18.6	-18.6	---	---	18.3	ESE	0.30	20.0	-31.3	---	---	735.4	0.026	0.000	18.4	6	1
03/01/06	2:47 a	-18.6	-18.6	-18.6	---	---	17.4	SE	0.29	20.9	-31.1	---	---	735.4	0.026	0.000	18.4	6	1
03/01/06	2:48 a	-18.6	-18.6	-18.6	---	---	16.5	SE	0.28	20.0	-30.8	---	---	735.5	0.026	0.000	18.4	6	1
03/01/06	2:49 a	-18.6	-18.6	-18.6	---	---	17.4	SE	0.29	19.1	-31.1	---	---	735.5	0.026	0.000	18.4	6	1
03/01/06	2:50 a	-18.6	-18.6	-18.6	---	---	17.4	SE	0.29	19.1	-30.9	---	---	735.5	0.026	0.000	18.4	6	1
03/01/06	2:51 a	-18.6	-18.6	-18.6	---	---	16.5	SE	0.28	18.3	-30.7	---	---	735.4	0.026	0.000	18.4	6	1
03/01/06	2:52 a	-18.6	-18.5	-18.6	---	---	17.4	SE	0.29	20.9	-30.9	---	---	735.5	0.026	0.000	18.4	6	1
03/01/06	2:53 a	-18.6	-18.6	-18.6	---	---	18.3	SE	0.30	20.0	-31.2	---	---	735.5	0.026	0.000	18.4	6	1
03/01/06	2:54 a	-18.6	-18.5	-18.6	---	---	17.4	SE	0.29	19.1	-30.9	---	---	735.5	0.026	0.000	18.4	6	1
03/01/06	2:55 a	-18.6	-18.5	-18.6	---	---	16.5	SE	0.28	18.3	-30.7	---	---	735.5	0.026	0.000	18.3	6	1
03/01/06	2:56 a	-18.5	-18.4	-18.5	---	---	15.7	SE	0.26	16.5	-30.3	---	---	735.5	0.026	0.000	18.3	5	1
03/01/06	2:57 a	-18.4	-18.4	-18.5	---	---	15.7	SE	0.26	16.5	-30.3	---	---	735.5	0.026	0.000	18.3	5	1
03/01/06	2:58 a	-18.4	-18.4	-18.5	---	---	13.9	SE	0.23	14.8	-29.7	---	---	735.5	0.026	0.000	18.3	6	1
03/01/06	2:59 a	-18.4	-18.4	-18.5	---	---	11.3	SE	0.19	12.2	-28.7	---	---	735.6	0.026	0.000	18.3	6	1
03/01/06	3:00 a	-18.4	-18.4	-18.4	---	---	11.3	SE	0.19	13.0	-28.6	---	---	735.5	0.026	0.000	18.3	6	1
03/01/06	3:01 a	-18.4	-18.4	-18.4	---	---	13.0	SE	0.22	16.5	-29.3	---	---	735.5	0.026	0.000	18.3	6	1
03/01/06	3:02 a	-18.4	-18.3	-18.4	---	---	16.5	ESE	0.28	17.4	-30.5	---	---	735.6	0.026	0.000	18.3	6	1
03/01/06	3:03 a	-18.3	-18.3	-18.4	---	---	17.4	ESE	0.29	18.3	-30.7	---	---	735.5	0.025	0.000	18.3	6	1
03/01/06	3:04 a	-18.3	-18.3	-18.3	---	---	16.5	ESE	0.28	17.4	-30.4	---	---	735.4	0.025	0.000	18.3	5	1
03/01/06	3:05 a	-18.3	-18.3	-18.3	---	---	16.5	ESE	0.28	18.3	-30.4	---	---	735.6	0.025	0.000	18.3	6	1
03/01/06	3:06 a	-18.3	-18.3	-18.3	---	---	16.5	ESE	0.28	20.0	-30.4	---	---	735.4	0.025	0.000	18.4	6	1
03/01/06	3:07 a	-18.3	-18.3	-18.3	---	---	17.4	ESE	0.29	19.1	-30.6	---	---	735.3	0.025	0.000	18.4	6	1
03/01/06	3:08 a	-18.3	-18.3	-18.3	---	---	17.4	ESE	0.29	19.1	-30.6	---	---	735.3	0.025	0.000	18.4	5	1
03/01/06	3:09 a	-18.3	-18.3	-18.3	---	---	18.3	E	0.30	20.9	-30.8	---	---	735.2	0.025	0.000	18.4	6	1
03/01/06	3:10 a	-18.3	-18.3	-18.3	---	---	18.3	ESE	0.30	20.9	-30.8	---	---	735.3	0.025	0.000	18.4	5	1
03/01/06	3:11 a	-18.3	-18.3	-18.3	---	---	15.7	E	0.26	18.3	-30.1	---	---	735.2	0.025	0.000	18.4	5	1
03/01/06	3:12 a	-18.2	-18.2	-18.3	---	---	17.4	ESE	0.29	20.0	-30.5	---	---	735.2	0.025	0.000	18.4	5	1
03/01/06	3:13 a	-18.2	-18.2	-18.2	---	---	17.4	E	0.29	20.0	-30.5	---	---	735.2	0.025	0.000	18.4	5	1
03/01/06	3:14 a	-18.2	-18.2	-18.2	---	---	21.7	ESE	0.36	24.3	-31.7	---	---	735.1	0.025	0.000	18.4	5	1
03/01/06	3:15 a	-18.2	-18.2	-18.2	---	---	20.9	ESE	0.35	22.6	-31.5	---	---	735.2	0.025	0.000	18.4	5	1
03/01/06	3:16 a	-18.3	-18.2	-18.3	---	---	20.9	ESE	0.35	23.5	-31.6	---	---	735.1	0.025	0.000	18.4	5	1
03/01/06	3:17 a	-18.2	-18.2	-18.2	---	---	19.1	ESE	0.32	21.7	-31.0	---	---	735.2	0.025	0.000	18.4	5	1
03/01/06	3:18 a	-18.2	-18.2	-18.2	---	---	20.9	ESE	0.35	23.5	-31.4	---	---	735.2	0.025	0.000	18.4	5	1
03/01/06	3:19 a	-18.2	-18.2	-18.2	---	---	20.0	ESE	0.33	20.9	-31.3	---	---	735.3	0.025	0.000	18.4	5	1
03/01/06	3:20 a	-18.2	-18.2	-18.2	---	---	18.3	ESE	0.30	20.0	-30.8	---	---	735.3	0.025	0.000	18.4	5	1
03/01/06	3:21 a	-18.2	-18.2	-18.2	---	---	20.0	ESE	0.33	22.6	-31.3	---	---	735.2	0.025	0.000	18.4	5	1
03/01/06	3:22 a	-18.2	-18.2	-18.2	---	---	18.3	ESE	0.30	20.0	-30.7	---	---	735.3	0.025	0.000	18.4	5	1
03/01/06	3:23 a	-18.2	-18.2	-18.2	---	---	19.1	ESE	0.32	20.0	-30.9	---	---	735.3	0.025	0.000	18.4	5	1
03/01/06	3:24 a	-18.2	-18.2	-18.2	---	---	17.4	ESE	0.29	19.1	-30.4	---	---	735.3	0.025	0.000	18.4	5	1
03/01/06	3:25 a	-18.2	-18.2	-18.2	---	---	15.7	ESE	0.26	16.5	-29.9	---	---	735.4	0.025	0.000	18.4	5	1
03/01/06	3:26 a	-18.2	-18.2	-18.2	---	---	15.7	ESE	0.26	18.3	-30.0	---	---	735.5	0.025	0.000	18.4	5	1
03/01/06	3:27 a	-18.2	-18.2	-18.2	---	---	13.9	E	0.23	15.7	-29.3	---	---	735.4	0.025	0.000	18.4	5	1
03/01/06	3:28 a	-18.2	-18.2	-18.2	---	---	15.7	E	0.26	17.4	-29.9	---	---	735.4	0.025	0.000	18.4	5	1
03/01/06	3:29 a	-18.2	-18.2	-18.2	---	---	16.5	ESE	0.28	17.4	-30.2	---	---	735.4	0.025	0.000	18.4	5	1
03/01/06	3:30 a	-18.2	-18.2	-18.2	---	---	16.5	ESE	0.28	18.3	-30.2	---	---	735.4	0.025	0.000	18.4	5	1
03/01/06	3:31 a	-18.2	-18.2	-18.2	---	---	15.7	ESE	0.26	17.4	-29.9	---	---	735.4	0.025	0.000	18.4	5	1
03/01/06	3:32 a	-18.2	-18.1	-18.2	---	---	15.7	ESE	0.26	16.5	-29.9	---	---	735.6	0.025	0.000	18.4	5	1
03/01/06	3:33 a	-18.1	-18.1	-18.2	---	---	14.8	SE	0.25	15.7	-29.6	---	---	735.5	0.025	0.000	18.5	5	1
03/01/06	3:34 a	-18.1	-18.1	-18.1	---	---	13.9	ESE	0.23	14.8	-29.2	---	---	735.6	0.025	0.000	18.5	5	1
03/01/06	3:35 a	-18.1	-18.1	-18.2	---	---	14.8	ESE	0.25	15.7	-29.6	---	---	735.7	0.025	0.000	18.5	5	1
03/01/06	3:36 a	-18.1	-18.1	-18.1	---	---	13.0	SE	0.22	14.8	-28.9	---	---	735.8	0.025	0.000	18.5	5	1
03/01/06	3:37 a	-18.1	-18.1	-18.1	---	---	12.2	SSE	0.20	13.9	-28.6	---	---	735.9	0.025	0.000	18.5	5	1
03/01/06	3:38 a	-18.1	-18.1	-18.1	---	---	11.3	SSE	0.19	13.0	-28.2	---	---	735.9	0.025	0.000	18.5	5	1
03/01/06	3:39 a	-18.1	-18.1	-18.1	---	---	10.4	SSE	0.17	12.2	-27.8	---	---	735.9	0.025	0.000	18.5	5	1
03/01/06	3:40 a	-18.1	-18.1	-18.1	---	---	8.7	SSE	0.14	12.2	-27.0	---	---	736.0	0.025	0.000	18.5	5	1
03/01/06	3:41 a	-18.1	-18.1	-18.1	---	---	6.1	SSE	0.10	8.7	-25.3	---	---	736.0	0.025	0.000	18.5	5	1
03/01/06	3:42 a	-18.1	-18.1	-18.1	---	---	4.3	SSE	0.07	7.0	-23.9	---	---	736.0	0.025	0.000	18.5	5	1
03/01/06	3:43 a	-18.1	-18.1	-18.1	---	---	8.7	SSW	0.14	12.2	-26.9	---	---	735.9	0.025	0.000	18.5	5	1
03/01/06	3:44 a	-18.1	-18.0	-18.1	---	---	10.4	SSW	0.17	14.8	-27.8	---	---	736.0	0.025	0.000	18.5	5	1
03/01/06	3:45 a	-18.0	-18.0	-18.1	---	---	10.4	SW	0.17	15.7	-27.7	---	---	736.0	0.025	0.000	18.6	5	1
03/01/06	3:46 a	-18.1	-18.0	-18.1	---	---	14.8	SSW	0.25	19.1	-29.5	---	---	735.9	0.025	0.000	18.6	5	1
03/01/06	3:47 a	-18.0	-18.0	-18.1	---	---	12.2	SSW	0.20	14.8	-28.4	---	---	736.0	0.025	0.000	18.6	5	1
03/01/06	3:48 a	-18.0	-18.0	-18.1	---	---	12.2	SSW	0.20	13.9	-28.4	---	---	735.9	0.025	0.000	18.6	5	1
03/01/06	3:49 a	-18.0	-18.0	-18.1	---	---	7.0	SSW	0.12	13.0	-25.8	---	---	735.8	0.025	0.000	18.6	5	1
03/01/06	3:50 a	-18.1	-18.0	-18.1	---	---	8.7	SSW	0.14	12.2	-26.9	---	---	735.9	0.025	0.000	18.6	5	1
03/01/06	3:51 a	-18.1	-18.1	-18.1	---	---	7.0	SSW	0.12	13.9	-25.9	---	---	735.7	0.025	0.000	18.6	5	1
03/01/06	3:52 a	-18.1	-18.1	-18.1	---	---	8.7	SSE	0.14	12.2	-26.9	---	---	735.6	0.025	0.000	18.6	5	1
03/01/06	3:53 a	-18.1	-18.1	-18.1	---	---	10.4	SSE	0.17	13.0	-27.8	---	---	735.7	0.025	0.000	18.6	5	1
03/01/06	3:54 a	-18.1	-18.1	-18.1	---	---	8.7	SSE	0.14	13.0	-26.9	---	---	735.6	0.025	0.000	18.6	5	1
03/01/06	3:55 a	-18.1	-18.1	-18.1	---	---	13.9	S	0.23	18.3	-29.2	---	---	735.7	0.025	0.000	18.6	5	1
03/01/06	3:56 a	-18.1	-18.0	-18.1	---	---	19.1	S	0.32	22.6	-30.8	---	---	735.5	0.025	0.000	18.6	5	1
03/01/06	3:57 a	-18.1	-18.1	-18.1	---	---	16.5	S	0.28	22.6	-30.1	---	---	735.5	0.025	0.000	18.6	5	1
03/01/06	3:58 a	-18.1	-18.1	-18.1	---	---	20.9	S	0.35	27.0	-31.3	---	---	735.6	0.025	0.000	18.6	5	1
03/01/06	3:59 a	-18.1	-18.1	-18.1	---	---	23.5	S	0.39	28.7	-31.9	---	---	735.5	0.025	0.000	18.6	5	1
03/01/06	4:00 a	-18.1	-18.1	-18.1	---	---	25.2	S	0.42	30.4	-32.3	---	---	735.5	0.025	0.000	18.6	5	1
03/01/06	4:01 a	-18.1	-18.1	-18.1	---	---	21.7	S	0.36	28.7	-31.5	---	---	735.5	0.025	0.000	18.6	5	1
03/01/06	4:02 a	-18.1	-18.1	-18.1	---	---	22.6	S	0.38	27.8	-31.7	---	---	735.4	0.025	0.000	18.6	5	1
03/01/06	4:03 a	-18.1	-18.1	-18.1	---	---	21.7	S	0.36	27.8	-31.5	---	---	735.5	0.025	0.000	18.6	5	1
03/01/06	4:04 a	-18.1	-18.1	-18.1	---	---	25.2	S	0.42	31.3	-32.3	---	---	735.6	0.025	0.000	18.6	5	1
03/01/06	4:05 a	-18.1	-18.1	-18.1	---	---	20.0	S	0.33	23.5	-31.1	---	---	735.6	0.025	0.000	18.6	5	1
03/01/06	4:06 a	-18.1	-18.1	-18.1	---	---	16.5	S	0.28	19.1	-30.1	---	---	735.5	0.025	0.000	18.6	5	1
03/01/06	4:07 a	-18.1	-18.1	-18.1	---	---	18.3	S	0.30	23.5	-30.6	---	---	735.6	0.025	0.000	18.6	5	1
03/01/06	4:08 a	-18.1	-18.1	-18.1	---	---	20.0	S	0.33	22.6	-31.1	---	---	735.5	0.025	0.000	18.6	5	1
03/01/06	4:09 a	-18.1	-18.1	-18.1	---	---	20.0	S	0.33	22.6	-31.1	---	---	735.6	0.025	0.000	18.6	5	1
03/01/06	4:10 a	-18.1	-18.1	-18.1	---	---	21.7	SSE	0.36	27.8	-31.6	---	---	735.5	0.025	0.000	18.6	5	1
03/01/06	4:11 a	-18.1	-18.1	-18.2	---	---	25.2	SSE	0.42	27.0	-32.3	---	---	735.3	0.025	0.000	18.6	5	1
03/01/06	4:12 a	-18.1	-18.1	-18.1	---	---	25.2	SSE	0.42	27.0	-32.3	---	---	735.5	0.025	0.000	18.6	5	1
03/01/06	4:13 a	-18.1	-18.1	-18.1	---	---	24.3	SE	0.41	25.2	-32.2	---	---	735.6	0.025	0.000	18.6	5	1
03/01/06	4:14 a	-18.1	-18.1	-18.1	---	---	22.6	SSE	0.38	24.3	-31.8	---	---	735.8	0.025	0.000	18.6	5	1
03/01/06	4:15 a	-18.1	-18.1	-18.1	---	---	19.1	SSE	0.32	20.9	-30.8	---	---	735.9	0.025	0.000	18.6	5	1
03/01/06	4:16 a	-18.1	-18.1	-18.1	---	---	17.4	SSE	0.29	18.3	-30.3	---	---	735.9	0.025	0.000	18.6	5	1
03/01/06	4:17 a	-18.1	-18.1	-18.1	---	---	18.3	SSE	0.30	20.9	-30.6	---	---	735.9	0.025	0.000	18.6	5	1
03/01/06	4:18 a	-18.1	-18.1	-18.1	---	---	18.3	SE	0.30	20.0	-30.6	---	---	735.9	0.025	0.000	18.6	5	1
03/01/06	4:19 a	-18.1	-18.0	-18.1	---	---	16.5	SE	0.28	18.3	-30.1	---	---	736.0	0.025	0.000	18.6	5	1
03/01/06	4:20 a	-18.1	-18.1	-18.1	---	---	15.7	SE	0.26	17.4	-29.8	---	---	735.9	0.025	0.000	18.6	5	1
03/01/06	4:21 a	-18.1	-18.1	-18.1	---	---	16.5	SE	0.28	17.4	-30.1	---	---	736.0	0.025	0.000	18.6	5	1
03/01/06	4:22 a	-18.1	-18.1	-18.1	---	---	14.8	SE	0.25	16.5	-29.5	---	---	736.0	0.025	0.000	18.6	5	1
03/01/06	4:23 a	-18.1	-18.0	-18.1	---	---	13.9	SE	0.23	14.8	-29.2	---	---	736.0	0.025	0.000	18.6	5	1
03/01/06	4:24 a	-18.1	-18.1	-18.1	---	---	14.8	SE	0.25	15.7	-29.5	---	---	736.0	0.025	0.000	18.6	5	1
03/01/06	4:25 a	-18.1	-18.1	-18.1	---	---	14.8	SE	0.25	15.7	-29.5	---	---	736.0	0.025	0.000	18.6	5	1
03/01/06	4:26 a	-18.1	-18.1	-18.1	---	---	13.9	SE	0.23	14.8	-29.2	---	---	736.1	0.025	0.000	18.6	5	1
03/01/06	4:27 a	-18.1	-18.1	-18.1	---	---	13.0	SE	0.22	14.8	-28.8	---	---	736.2	0.025	0.000	18.6	5	1
03/01/06	4:28 a	-18.1	-18.1	-18.1	---	---	13.9	SE	0.23	14.8	-29.2	---	---	736.2	0.025	0.000	18.6	5	1
03/01/06	4:29 a	-18.1	-18.1	-18.1	---	---	12.2	SE	0.20	13.0	-28.5	---	---	736.3	0.025	0.000	18.6	5	1
03/01/06	4:30 a	-18.1	-18.1	-18.1	---	---	10.4	SE	0.17	11.3	-27.8	---	---	736.2	0.025	0.000	18.6	5	1
03/01/06	4:31 a	-18.1	-18.1	-18.1	---	---	12.2	SE	0.20	13.9	-28.6	---	---	736.3	0.025	0.000	18.6	5	1
03/01/06	4:32 a	-18.1	-18.1	-18.1	---	---	12.2	SE	0.20	13.0	-28.6	---	---	736.1	0.025	0.000	18.6	5	1
03/01/06	4:33 a	-18.1	-18.1	-18.1	---	---	13.0	ESE	0.22	13.9	-28.8	---	---	736.1	0.025	0.000	18.6	5	1
03/01/06	4:34 a	-18.1	-18.1	-18.1	---	---	12.2	ESE	0.20	13.9	-28.5	---	---	735.9	0.025	0.000	18.6	5	1
03/01/06	4:35 a	-18.1	-18.1	-18.1	---	---	11.3	E	0.19	13.9	-28.2	---	---	736.1	0.025	0.000	18.6	5	1
03/01/06	4:36 a	-18.1	-18.1	-18.1	---	---	12.2	ESE	0.20	13.9	-28.6	---	---	736.1	0.025	0.000	18.6	5	1
03/01/06	4:37 a	-18.1	-18.1	-18.1	---	---	11.3	ESE	0.19	13.9	-28.2	---	---	736.1	0.025	0.000	18.6	5	1
03/01/06	4:38 a	-18.1	-18.1	-18.1	---	---	9.6	ESE	0.16	12.2	-27.4	---	---	736.1	0.025	0.000	18.6	5	1
03/01/06	4:39 a	-18.1	-18.1	-18.1	---	---	10.4	SE	0.17	13.0	-27.8	---	---	736.2	0.025	0.000	18.6	5	1
03/01/06	4:40 a	-18.1	-18.1	-18.1	---	---	8.7	SSE	0.14	12.2	-27.0	---	---	736.2	0.025	0.000	18.6	5	1
03/01/06	4:41 a	-18.1	-18.1	-18.1	---	---	12.2	ESE	0.20	13.9	-28.6	---	---	736.2	0.025	0.000	18.6	5	1
03/01/06	4:42 a	-18.1	-18.1	-18.1	---	---	12.2	ESE	0.20	14.8	-28.6	---	---	736.1	0.025	0.000	18.6	5	1
03/01/06	4:43 a	-18.1	-18.1	-18.1	---	---	9.6	ESE	0.16	15.7	-27.4	---	---	736.3	0.025	0.000	18.7	5	1
03/01/06	4:44 a	-18.1	-18.1	-18.1	---	---	7.0	ESE	0.12	10.4	-26.0	---	---	736.3	0.025	0.000	18.7	5	1
03/01/06	4:45 a	-18.1	-18.1	-18.1	---	---	3.5	S	0.06	7.0	-23.1	---	---	736.2	0.025	0.000	18.7	5	1
03/01/06	4:46 a	-18.1	-18.1	-18.1	---	---	3.5	S	0.06	7.0	-23.0	---	---	736.2	0.025	0.000	18.7	5	1
03/01/06	4:47 a	-18.1	-18.1	-18.1	---	---	5.2	E	0.09	7.0	-24.7	---	---	736.2	0.025	0.000	18.7	5	1
03/01/06	4:48 a	-18.1	-18.0	-18.1	---	---	3.5	SE	0.06	5.2	-23.0	---	---	736.1	0.025	0.000	18.7	5	1
03/01/06	4:49 a	-18.0	-18.0	-18.1	---	---	10.4	SE	0.17	15.7	-27.7	---	---	736.2	0.025	0.000	18.7	5	1
03/01/06	4:50 a	-18.0	-18.0	-18.1	---	---	7.0	SSE	0.12	13.0	-25.8	---	---	736.2	0.025	0.000	18.7	5	1
03/01/06	4:51 a	-18.0	-18.0	-18.1	---	---	11.3	SSE	0.19	16.5	-28.1	---	---	736.2	0.025	0.000	18.7	5	1
03/01/06	4:52 a	-18.0	-18.0	-18.0	---	---	14.8	S	0.25	22.6	-29.4	---	---	736.0	0.025	0.000	18.7	5	1
03/01/06	4:53 a	-18.0	-18.0	-18.0	---	---	14.8	SSE	0.25	20.0	-29.4	---	---	736.0	0.025	0.000	18.7	5	1
03/01/06	4:54 a	-17.9	-17.9	-18.0	---	---	11.3	SSW	0.19	15.7	-28.0	---	---	736.1	0.025	0.000	18.7	5	1
03/01/06	4:55 a	-17.9	-17.9	-17.9	---	---	8.7	S	0.14	12.2	-26.8	---	---	736.0	0.025	0.000	18.7	5	1
03/01/06	4:56 a	-17.9	-17.9	-17.9	---	---	9.6	S	0.16	13.0	-27.2	---	---	736.0	0.025	0.000	18.7	5	1
03/01/06	4:57 a	-17.9	-17.9	-17.9	---	---	10.4	S	0.17	15.7	-27.6	---	---	735.9	0.025	0.000	18.7	5	1
03/01/06	4:58 a	-17.9	-17.9	-17.9	---	---	8.7	SSW	0.14	12.2	-26.8	---	---	735.9	0.025	0.000	18.7	5	1
03/01/06	4:59 a	-17.9	-17.9	-17.9	---	---	8.7	SSW	0.14	11.3	-26.8	---	---	735.9	0.025	0.000	18.7	5	1
03/01/06	5:00 a	-17.9	-17.9	-17.9	---	---	7.0	SSW	0.12	10.4	-25.7	---	---	735.9	0.025	0.000	18.7	5	1
03/01/06	5:01 a	-17.9	-17.9	-17.9	---	---	11.3	SSW	0.19	13.9	-27.9	---	---	735.9	0.025	0.000	18.7	5	1
03/01/06	5:02 a	-17.9	-17.9	-17.9	---	---	7.0	SSW	0.12	8.7	-25.7	---	---	735.8	0.025	0.000	18.7	5	1
03/01/06	5:03 a	-17.9	-17.8	-17.9	---	---	7.0	SSW	0.12	9.6	-25.7	---	---	735.8	0.025	0.000	18.8	5	1
03/01/06	5:04 a	-17.8	-17.8	-17.9	---	---	7.0	SSW	0.12	9.6	-25.6	---	---	735.8	0.025	0.000	18.8	5	1
03/01/06	5:05 a	-17.8	-17.8	-17.8	---	---	5.2	S	0.09	7.8	-24.4	---	---	735.9	0.025	0.000	18.8	5	1
03/01/06	5:06 a	-17.8	-17.8	-17.8	---	---	3.5	SSW	0.06	5.2	-22.7	---	---	735.8	0.025	0.000	18.8	5	1
03/01/06	5:07 a	-17.8	-17.8	-17.8	---	---	5.2	SSW	0.09	6.1	-24.3	---	---	735.8	0.025	0.000	18.8	5	1
03/01/06	5:08 a	-17.8	-17.8	-17.8	---	---	5.2	S	0.09	6.1	-24.3	---	---	735.9	0.025	0.000	18.8	5	1
03/01/06	5:09 a	-17.8	-17.7	-17.8	---	---	5.2	SSE	0.09	7.8	-24.3	---	---	735.8	0.025	0.000	18.8	5	1
03/01/06	5:10 a	-17.7	-17.7	-17.7	---	---	7.8	SSE	0.13	9.6	-26.0	---	---	735.9	0.025	0.000	18.8	5	1
03/01/06	5:11 a	-17.7	-17.7	-17.7	---	---	8.7	E	0.14	10.4	-26.5	---	---	735.9	0.025	0.000	18.8	5	1
03/01/06	5:12 a	-17.7	-17.7	-17.7	---	---	17.4	E	0.29	23.5	-29.9	---	---	735.7	0.025	0.000	18.8	5	1
03/01/06	5:13 a	-17.7	-17.7	-17.7	---	---	18.3	E	0.30	20.9	-30.1	---	---	735.7	0.025	0.000	18.8	5	1
03/01/06	5:14 a	-17.7	-17.7	-17.7	---	---	20.9	E	0.35	25.2	-30.7	---	---	735.8	0.025	0.000	18.8	5	1
03/01/06	5:15 a	-17.7	-17.7	-17.7	---	---	18.3	E	0.30	22.6	-30.1	---	---	735.9	0.025	0.000	18.8	5	1
03/01/06	5:16 a	-17.7	-17.7	-17.7	---	---	19.1	E	0.32	22.6	-30.3	---	---	736.0	0.025	0.000	18.8	5	1
03/01/06	5:17 a	-17.7	-17.7	-17.7	---	---	16.5	E	0.28	20.0	-29.6	---	---	736.2	0.025	0.000	18.8	5	1
03/01/06	5:18 a	-17.8	-17.7	-17.8	---	---	12.2	E	0.20	14.8	-28.2	---	---	736.4	0.025	0.000	18.8	5	1
03/01/06	5:19 a	-17.8	-17.7	-17.8	---	---	13.0	E	0.22	14.8	-28.5	---	---	736.4	0.025	0.000	18.8	5	1
03/01/06	5:20 a	-17.8	-17.8	-17.8	---	---	14.8	ESE	0.25	16.5	-29.1	---	---	736.5	0.025	0.000	18.8	5	1
03/01/06	5:21 a	-17.8	-17.8	-17.8	---	---	13.0	E	0.22	14.8	-28.5	---	---	736.5	0.025	0.000	18.8	5	1
03/01/06	5:22 a	-17.8	-17.8	-17.9	---	---	9.6	ESE	0.16	11.3	-27.1	---	---	736.5	0.025	0.000	18.8	5	1
03/01/06	5:23 a	-17.9	-17.9	-17.9	---	---	10.4	E	0.17	13.0	-27.6	---	---	736.5	0.025	0.000	18.8	5	1
03/01/06	5:24 a	-17.9	-17.9	-17.9	---	---	7.0	ESE	0.12	9.6	-25.7	---	---	736.4	0.025	0.000	18.8	5	1
03/01/06	5:25 a	-17.9	-17.9	-17.9	---	---	9.6	ENE	0.16	13.0	-27.2	---	---	736.5	0.025	0.000	18.8	5	1
03/01/06	5:26 a	-17.9	-17.9	-17.9	---	---	7.8	ENE	0.13	9.6	-26.3	---	---	736.4	0.025	0.000	18.8	5	1
03/01/06	5:27 a	-18.0	-17.9	-18.0	---	---	7.8	ENE	0.13	9.6	-26.4	---	---	736.3	0.025	0.000	18.8	5	1
03/01/06	5:28 a	-18.0	-17.9	-18.0	---	---	7.0	ENE	0.12	8.7	-25.8	---	---	736.3	0.025	0.000	18.8	5	1
03/01/06	5:29 a	-18.0	-18.0	-18.0	---	---	5.2	ENE	0.09	7.0	-24.6	---	---	736.4	0.025	0.000	18.8	5	1
03/01/06	5:30 a	-18.1	-18.0	-18.1	---	---	4.3	E	0.07	6.1	-23.9	---	---	736.3	0.025	0.000	18.8	5	1
03/01/06	5:31 a	-18.0	-18.0	-18.0	---	---	4.3	E	0.07	4.3	-23.8	---	---	736.3	0.025	0.000	18.8	5	1
03/01/06	5:32 a	-18.0	-18.0	-18.1	---	---	5.2	ENE	0.09	6.1	-24.6	---	---	736.4	0.025	0.000	18.8	5	1
03/01/06	5:33 a	-18.1	-18.0	-18.1	---	---	6.1	ENE	0.10	7.0	-25.3	---	---	736.3	0.025	0.000	18.8	5	1
03/01/06	5:34 a	-18.1	-18.1	-18.1	---	---	6.1	NE	0.10	6.1	-25.3	---	---	736.4	0.025	0.000	18.8	5	1
03/01/06	5:35 a	-18.1	-18.0	-18.1	---	---	6.1	NE	0.10	7.0	-25.3	---	---	736.3	0.025	0.000	18.8	5	1
03/01/06	5:36 a	-18.1	-18.1	-18.1	---	---	6.1	NE	0.10	6.1	-25.3	---	---	736.3	0.025	0.000	18.8	5	1
03/01/06	5:37 a	-18.1	-18.1	-18.1	---	---	7.8	NE	0.13	7.8	-26.4	---	---	736.3	0.025	0.000	18.8	5	1
03/01/06	5:38 a	-18.1	-18.1	-18.1	---	---	4.3	NE	0.07	7.0	-23.9	---	---	736.4	0.025	0.000	18.8	5	1
03/01/06	5:39 a	-18.1	-18.0	-18.1	---	---	3.5	NE	0.06	5.2	-23.0	---	---	736.3	0.025	0.000	18.8	5	1
03/01/06	5:40 a	-18.0	-18.0	-18.1	---	---	5.2	NE	0.09	6.1	-24.6	---	---	736.3	0.025	0.000	18.8	5	1
03/01/06	5:41 a	-18.1	-18.0	-18.1	---	---	6.1	NNE	0.10	7.8	-25.3	---	---	736.4	0.025	0.000	18.8	5	1
03/01/06	5:42 a	-18.0	-18.0	-18.0	---	---	8.7	NE	0.14	9.6	-26.8	---	---	736.2	0.025	0.000	18.8	5	1
03/01/06	5:43 a	-18.1	-18.0	-18.1	---	---	7.0	NE	0.12	9.6	-25.9	---	---	736.2	0.025	0.000	18.8	5	1
03/01/06	5:44 a	-18.0	-18.0	-18.0	---	---	5.2	NE	0.09	6.1	-24.6	---	---	736.3	0.025	0.000	18.8	5	1
03/01/06	5:45 a	-18.0	-18.0	-18.0	---	---	7.0	NE	0.12	7.8	-25.8	---	---	736.3	0.025	0.000	18.8	5	1
03/01/06	5:46 a	-18.0	-18.0	-18.1	---	---	8.7	NE	0.14	9.6	-26.8	---	---	736.3	0.025	0.000	18.8	5	1
03/01/06	5:47 a	-18.0	-18.0	-18.0	---	---	8.7	NE	0.14	9.6	-26.8	---	---	736.4	0.025	0.000	18.8	5	1
03/01/06	5:48 a	-18.0	-18.0	-18.0	---	---	7.8	NE	0.13	8.7	-26.4	---	---	736.4	0.025	0.000	18.8	5	1
03/01/06	5:49 a	-18.0	-17.9	-18.0	---	---	8.7	NE	0.14	11.3	-26.8	---	---	736.3	0.025	0.000	18.8	5	1
03/01/06	5:50 a	-17.9	-17.9	-17.9	---	---	7.0	NE	0.12	7.8	-25.8	---	---	736.4	0.025	0.000	18.8	5	1
03/01/06	5:51 a	-17.9	-17.9	-17.9	---	---	6.1	NNE	0.10	7.8	-25.2	---	---	736.4	0.025	0.000	18.8	5	1
03/01/06	5:52 a	-17.9	-17.9	-17.9	---	---	6.1	NNE	0.10	7.0	-25.2	---	---	736.5	0.025	0.000	18.9	5	1
03/01/06	5:53 a	-17.9	-17.9	-17.9	---	---	6.1	NNE	0.10	7.8	-25.2	---	---	736.6	0.025	0.000	18.9	5	1
03/01/06	5:54 a	-17.9	-17.9	-17.9	---	---	7.0	NE	0.12	7.8	-25.7	---	---	736.5	0.025	0.000	18.9	5	1
03/01/06	5:55 a	-17.9	-17.9	-17.9	---	---	5.2	NE	0.09	6.1	-24.4	---	---	736.5	0.025	0.000	18.9	5	1
03/01/06	5:56 a	-17.9	-17.8	-17.9	---	---	7.0	ENE	0.12	7.8	-25.7	---	---	736.6	0.025	0.000	18.9	5	1
03/01/06	5:57 a	-17.9	-17.9	-17.9	---	---	7.8	ENE	0.13	8.7	-26.2	---	---	736.5	0.025	0.000	18.9	5	1
03/01/06	5:58 a	-17.9	-17.8	-17.9	---	---	7.8	NE	0.13	8.7	-26.2	---	---	736.6	0.025	0.000	18.9	5	1
03/01/06	5:59 a	-17.9	-17.8	-17.9	---	---	6.1	NE	0.10	7.8	-25.1	---	---	736.6	0.025	0.000	18.9	5	1
03/01/06	6:00 a	-17.9	-17.8	-17.9	---	---	5.2	NE	0.09	6.1	-24.4	---	---	736.7	0.025	0.000	18.9	5	1
03/01/06	6:01 a	-17.9	-17.8	-17.9	---	---	5.2	NE	0.09	6.1	-24.4	---	---	736.7	0.025	0.000	18.9	5	1
03/01/06	6:02 a	-17.8	-17.8	-17.9	---	---	4.3	NE	0.07	5.2	-23.6	---	---	736.6	0.025	0.000	18.9	5	1
03/01/06	6:03 a	-17.9	-17.8	-17.9	---	---	4.3	NE	0.07	5.2	-23.7	---	---	736.7	0.025	0.000	18.9	5	1
03/01/06	6:04 a	-17.8	-17.8	-17.9	---	---	5.2	NE	0.09	6.1	-24.4	---	---	736.7	0.025	0.000	18.9	5	1
03/01/06	6:05 a	-17.8	-17.8	-17.9	---	---	5.2	NE	0.09	6.1	-24.4	---	---	736.7	0.025	0.000	18.9	5	1
03/01/06	6:06 a	-17.8	-17.8	-17.9	---	---	5.2	NE	0.09	6.1	-24.4	---	---	736.7	0.025	0.000	18.9	5	1
03/01/06	6:07 a	-17.8	-17.8	-17.9	---	---	7.0	NE	0.12	7.0	-25.6	---	---	736.6	0.025	0.000	18.9	5	1
03/01/06	6:08 a	-17.8	-17.8	-17.9	---	---	5.2	ENE	0.09	7.0	-24.4	---	---	736.7	0.025	0.000	19.0	5	1
03/01/06	6:09 a	-17.8	-17.8	-17.9	---	---	5.2	ENE	0.09	5.2	-24.4	---	---	736.7	0.025	0.000	19.0	5	1
03/01/06	6:10 a	-17.8	-17.8	-17.9	---	---	4.3	ENE	0.07	5.2	-23.6	---	---	736.6	0.025	0.000	19.0	5	1
03/01/06	6:11 a	-17.8	-17.8	-17.9	---	---	5.2	ENE	0.09	6.1	-24.4	---	---	736.6	0.025	0.000	19.0	5	1
03/01/06	6:12 a	-17.9	-17.8	-17.9	---	---	5.2	NE	0.09	6.1	-24.4	---	---	736.5	0.025	0.000	19.0	5	1
03/01/06	6:13 a	-17.8	-17.8	-17.9	---	---	5.2	NE	0.09	6.1	-24.4	---	---	736.6	0.025	0.000	19.0	5	1
03/01/06	6:14 a	-17.8	-17.8	-17.9	---	---	3.5	NE	0.06	4.3	-22.7	---	---	736.5	0.025	0.000	19.0	5	1
03/01/06	6:15 a	-17.8	-17.8	-17.9	---	---	3.5	NE	0.06	4.3	-22.7	---	---	736.5	0.025	0.000	19.0	5	1
03/01/06	6:16 a	-17.8	-17.8	-17.8	---	---	5.2	NE	0.09	6.1	-24.4	---	---	736.4	0.025	0.000	19.0	5	1
03/01/06	6:17 a	-17.8	-17.8	-17.9	---	---	4.3	NE	0.07	5.2	-23.6	---	---	736.5	0.025	0.000	19.1	5	1
03/01/06	6:18 a	-17.8	-17.8	-17.8	---	---	3.5	NE	0.06	4.3	-22.7	---	---	736.5	0.025	0.000	19.1	5	1
03/01/06	6:19 a	-17.8	-17.8	-17.8	---	---	3.5	NE	0.06	5.2	-22.7	---	---	736.5	0.025	0.000	19.1	5	1
03/01/06	6:20 a	-17.8	-17.8	-17.8	---	---	4.3	NE	0.07	6.1	-23.6	---	---	736.5	0.025	0.000	19.1	5	1
03/01/06	6:21 a	-17.8	-17.8	-17.8	---	---	5.2	NE	0.09	7.0	-24.4	---	---	736.5	0.025	0.000	19.1	5	1
03/01/06	6:22 a	-17.8	-17.8	-17.8	---	---	6.1	NNE	0.10	7.8	-25.0	---	---	736.4	0.025	0.000	19.1	5	1
03/01/06	6:23 a	-17.8	-17.8	-17.8	---	---	7.0	N	0.12	8.7	-25.6	---	---	736.4	0.025	0.000	19.1	5	1
03/01/06	6:24 a	-17.8	-17.8	-17.8	---	---	7.0	N	0.12	8.7	-25.6	---	---	736.4	0.025	0.000	19.1	5	1
03/01/06	6:25 a	-17.8	-17.8	-17.8	---	---	4.3	NW	0.07	7.8	-23.6	---	---	736.5	0.025	0.000	19.1	5	1
03/01/06	6:26 a	-17.8	-17.8	-17.8	---	---	6.1	WNW	0.10	7.8	-25.0	---	---	736.4	0.025	0.000	19.1	5	1
03/01/06	6:27 a	-17.8	-17.7	-17.8	---	---	8.7	WNW	0.14	9.6	-26.6	---	---	736.4	0.025	0.000	19.1	5	1
03/01/06	6:28 a	-17.8	-17.7	-17.8	---	---	8.7	NW	0.14	10.4	-26.6	---	---	736.4	0.025	0.000	19.1	5	1
03/01/06	6:29 a	-17.8	-17.8	-17.8	---	---	9.6	NW	0.16	11.3	-27.0	---	---	736.3	0.025	0.000	19.1	5	1
03/01/06	6:30 a	-17.8	-17.7	-17.8	---	---	10.4	NNW	0.17	13.0	-27.4	---	---	736.4	0.025	0.000	19.1	5	1
03/01/06	6:31 a	-17.7	-17.7	-17.7	---	---	7.0	NNW	0.12	7.8	-25.5	---	---	736.3	0.025	0.000	19.1	5	1
03/01/06	6:32 a	-17.7	-17.7	-17.8	---	---	7.8	NNW	0.13	9.6	-26.0	---	---	736.3	0.025	0.000	19.1	5	1
03/01/06	6:33 a	-17.7	-17.7	-17.8	---	---	7.8	NW	0.13	9.6	-26.0	---	---	736.4	0.025	0.000	19.1	5	1
03/01/06	6:34 a	-17.7	-17.7	-17.8	---	---	6.1	N	0.10	8.7	-24.9	---	---	736.4	0.025	0.000	19.1	5	1
03/01/06	6:35 a	-17.8	-17.7	-17.8	---	---	7.0	N	0.12	7.8	-25.6	---	---	736.4	0.025	0.000	19.0	5	1
03/01/06	6:36 a	-17.8	-17.7	-17.8	---	---	6.1	N	0.10	10.4	-25.0	---	---	736.4	0.025	0.000	19.0	5	1
03/01/06	6:37 a	-17.8	-17.8	-17.8	---	---	6.1	N	0.10	7.8	-25.0	---	---	736.5	0.025	0.000	19.0	5	1
03/01/06	6:38 a	-17.8	-17.8	-17.8	---	---	7.8	N	0.13	10.4	-26.1	---	---	736.4	0.025	0.000	19.0	5	1
03/01/06	6:39 a	-17.8	-17.8	-17.8	---	---	6.1	N	0.10	7.8	-25.0	---	---	736.4	0.025	0.000	19.0	5	1
03/01/06	6:40 a	-17.8	-17.8	-17.8	---	---	4.3	N	0.07	7.0	-23.6	---	---	736.6	0.025	0.000	19.0	5	1
03/01/06	6:41 a	-17.8	-17.8	-17.8	---	---	4.3	N	0.07	6.1	-23.6	---	---	736.6	0.025	0.000	19.0	5	1
03/01/06	6:42 a	-17.8	-17.8	-17.8	---	---	7.8	N	0.13	8.7	-26.2	---	---	736.5	0.025	0.000	19.0	5	1
03/01/06	6:43 a	-17.8	-17.8	-17.8	---	---	6.1	NNE	0.10	7.8	-25.1	---	---	736.6	0.025	0.000	19.0	5	1
03/01/06	6:44 a	-17.8	-17.8	-17.8	---	---	5.2	NNE	0.09	7.0	-24.4	---	---	736.7	0.025	0.000	19.0	5	1
03/01/06	6:45 a	-17.8	-17.8	-17.8	---	---	6.1	NNE	0.10	7.8	-25.1	---	---	736.7	0.025	0.000	19.0	5	1
03/01/06	6:46 a	-17.8	-17.8	-17.8	---	---	6.1	NNE	0.10	7.0	-25.1	---	---	736.7	0.025	0.000	19.0	5	1
03/01/06	6:47 a	-17.8	-17.8	-17.8	---	---	7.0	N	0.12	8.7	-25.6	---	---	736.6	0.025	0.000	19.0	5	1
03/01/06	6:48 a	-17.8	-17.8	-17.8	---	---	6.1	N	0.10	7.0	-25.1	---	---	736.6	0.025	0.000	19.0	5	1
03/01/06	6:49 a	-17.8	-17.8	-17.8	---	---	6.1	N	0.10	7.0	-25.0	---	---	736.6	0.025	0.000	19.0	5	1
03/01/06	6:50 a	-17.8	-17.8	-17.8	---	---	5.2	N	0.09	7.0	-24.3	---	---	736.7	0.025	0.000	19.0	5	1
03/01/06	6:51 a	-17.8	-17.8	-17.8	---	---	4.3	N	0.07	5.2	-23.6	---	---	736.8	0.025	0.000	19.1	5	1
03/01/06	6:52 a	-17.8	-17.8	-17.8	---	---	2.6	N	0.04	3.5	-21.6	---	---	736.8	0.025	0.000	19.1	5	1
03/01/06	6:53 a	-17.8	-17.8	-17.8	---	---	3.5	N	0.06	3.5	-22.7	---	---	736.8	0.025	0.000	19.1	5	1
03/01/06	6:54 a	-17.8	-17.8	-17.8	---	---	2.6	N	0.04	3.5	-21.6	---	---	736.9	0.025	0.000	19.1	5	1
03/01/06	6:55 a	-17.8	-17.8	-17.8	---	---	4.3	N	0.07	6.1	-23.6	---	---	736.8	0.025	0.000	19.1	5	1
03/01/06	6:56 a	-17.8	-17.8	-17.8	---	---	5.2	E	0.09	7.8	-24.3	---	---	736.8	0.025	0.000	19.1	5	1
03/01/06	6:57 a	-17.8	-17.8	-17.8	---	---	4.3	E	0.07	6.1	-23.6	---	---	736.8	0.025	0.000	19.1	5	1
03/01/06	6:58 a	-17.8	-17.8	-17.8	---	---	7.0	E	0.12	9.6	-25.6	---	---	736.6	0.025	0.000	19.1	5	1
03/01/06	6:59 a	-17.8	-17.8	-17.8	---	---	9.6	E	0.16	13.0	-27.0	---	---	736.7	0.025	0.000	19.1	5	1
03/01/06	7:00 a	-17.8	-17.8	-17.8	---	---	11.3	ENE	0.19	12.2	-27.8	---	---	736.6	0.025	0.000	19.1	5	1
03/01/06	7:01 a	-17.8	-17.8	-17.8	---	---	8.7	NE	0.14	10.4	-26.6	---	---	736.8	0.025	0.000	19.1	5	1
03/01/06	7:02 a	-17.8	-17.8	-17.8	---	---	7.8	NE	0.13	8.7	-26.1	---	---	736.8	0.025	0.000	19.1	5	1
03/01/06	7:03 a	-17.8	-17.8	-17.8	---	---	7.0	ENE	0.12	7.8	-25.6	---	---	736.7	0.025	0.000	19.1	5	1
03/01/06	7:04 a	-17.8	-17.8	-17.8	---	---	6.1	ENE	0.10	7.8	-25.0	---	---	736.9	0.025	0.000	19.1	5	1
03/01/06	7:05 a	-17.8	-17.8	-17.8	---	---	7.8	NE	0.13	9.6	-26.1	---	---	736.8	0.025	0.000	19.1	5	1
03/01/06	7:06 a	-17.8	-17.8	-17.8	---	---	8.7	NE	0.14	10.4	-26.7	---	---	736.9	0.025	0.000	19.1	5	1
03/01/06	7:07 a	-17.8	-17.8	-17.8	---	---	6.1	NNE	0.10	7.8	-25.1	---	---	736.7	0.025	0.000	19.1	5	1
03/01/06	7:08 a	-17.8	-17.8	-17.9	---	---	8.7	NE	0.14	10.4	-26.7	---	---	736.8	0.025	0.000	19.2	5	1
03/01/06	7:09 a	-17.8	-17.8	-17.9	---	---	8.7	NE	0.14	9.6	-26.7	---	---	736.8	0.025	0.000	19.2	5	1
03/01/06	7:10 a	-17.8	-17.8	-17.8	---	---	7.8	NE	0.13	8.7	-26.2	---	---	736.9	0.025	0.000	19.2	5	1
03/01/06	7:11 a	-17.8	-17.8	-17.9	---	---	8.7	NE	0.14	9.6	-26.7	---	---	736.9	0.025	0.000	19.2	5	1
03/01/06	7:12 a	-17.9	-17.9	-17.9	---	---	7.8	NE	0.13	8.7	-26.2	---	---	736.8	0.025	0.000	19.2	5	1
03/01/06	7:13 a	-17.9	-17.8	-17.9	---	---	6.1	NE	0.10	7.8	-25.1	---	---	736.9	0.025	0.000	19.2	5	1
03/01/06	7:14 a	-17.9	-17.9	-17.9	---	---	6.1	NE	0.10	7.8	-25.1	---	---	736.9	0.025	0.000	19.2	5	1
03/01/06	7:15 a	-17.9	-17.9	-17.9	---	---	8.7	ENE	0.14	9.6	-26.7	---	---	736.8	0.025	0.000	19.2	5	1
03/01/06	7:16 a	-17.9	-17.9	-17.9	---	---	9.6	ENE	0.16	10.4	-27.2	---	---	736.9	0.025	0.000	19.2	5	1
03/01/06	7:17 a	-17.9	-17.9	-17.9	---	---	9.6	ENE	0.16	10.4	-27.2	---	---	736.9	0.025	0.000	19.2	5	1
03/01/06	7:18 a	-17.9	-17.9	-17.9	---	---	11.3	NE	0.19	12.2	-28.0	---	---	736.9	0.025	0.000	19.2	5	1
03/01/06	7:19 a	-17.9	-17.9	-17.9	---	---	9.6	NE	0.16	11.3	-27.2	---	---	736.9	0.025	0.000	19.2	5	1
03/01/06	7:20 a	-17.9	-17.9	-17.9	---	---	7.8	NE	0.13	8.7	-26.3	---	---	736.9	0.025	0.000	19.2	5	1
03/01/06	7:21 a	-17.9	-17.9	-18.0	---	---	9.6	NE	0.16	12.2	-27.2	---	---	736.8	0.025	0.000	19.2	5	1
03/01/06	7:22 a	-18.0	-18.0	-18.0	---	---	9.6	NE	0.16	11.3	-27.3	---	---	736.9	0.025	0.000	19.2	5	1
03/01/06	7:23 a	-18.0	-18.0	-18.1	---	---	9.6	NE	0.16	10.4	-27.3	---	---	736.9	0.025	0.000	19.2	5	1
03/01/06	7:24 a	-18.0	-18.0	-18.1	---	---	8.7	ENE	0.14	10.4	-26.8	---	---	736.9	0.025	0.000	19.2	5	1
03/01/06	7:25 a	-18.0	-18.0	-18.0	---	---	7.8	ENE	0.13	8.7	-26.4	---	---	737.0	0.025	0.000	19.2	5	1
03/01/06	7:26 a	-18.1	-18.0	-18.1	---	---	7.8	ENE	0.13	8.7	-26.4	---	---	736.9	0.025	0.000	19.2	5	1
03/01/06	7:27 a	-18.1	-18.0	-18.1	---	---	7.0	ENE	0.12	8.7	-25.9	---	---	736.9	0.025	0.000	19.2	5	1
03/01/06	7:28 a	-18.1	-18.1	-18.1	---	---	6.1	ENE	0.10	7.8	-25.3	---	---	737.0	0.025	0.000	19.2	5	1
03/01/06	7:29 a	-18.1	-18.1	-18.1	---	---	5.2	NE	0.09	8.7	-24.7	---	---	736.9	0.025	0.000	19.2	5	1
03/01/06	7:30 a	-18.1	-18.1	-18.1	---	---	7.8	E	0.13	10.4	-26.4	---	---	736.9	0.025	0.000	19.2	5	1
03/01/06	7:31 a	-18.1	-18.1	-18.1	---	---	8.7	ENE	0.14	10.4	-26.9	---	---	737.0	0.025	0.000	19.2	5	1
03/01/06	7:32 a	-18.1	-18.1	-18.1	---	---	7.0	ENE	0.12	7.8	-25.9	---	---	737.0	0.025	0.000	19.2	5	1
03/01/06	7:33 a	-18.1	-18.1	-18.1	---	---	5.2	E	0.09	7.0	-24.7	---	---	737.0	0.025	0.000	19.2	5	1
03/01/06	7:34 a	-18.1	-18.1	-18.1	---	---	5.2	SE	0.09	7.0	-24.7	---	---	737.0	0.025	0.000	19.2	5	1
03/01/06	7:35 a	-18.1	-18.1	-18.1	---	---	7.0	E	0.12	10.4	-26.0	---	---	736.9	0.025	0.000	19.2	5	1
03/01/06	7:36 a	-18.1	-18.1	-18.1	---	---	6.1	E	0.10	8.7	-25.4	---	---	736.9	0.025	0.000	19.2	5	1
03/01/06	7:37 a	-18.1	-18.1	-18.1	---	---	7.0	ENE	0.12	7.8	-26.0	---	---	736.9	0.025	0.000	19.2	5	1
03/01/06	7:38 a	-18.1	-18.1	-18.1	---	---	6.1	ENE	0.10	7.0	-25.4	---	---	736.9	0.025	0.000	19.2	5	1
03/01/06	7:39 a	-18.1	-18.1	-18.2	---	---	6.1	E	0.10	8.7	-25.4	---	---	736.8	0.025	0.000	19.2	5	1
03/01/06	7:40 a	-18.1	-18.1	-18.2	---	---	5.2	ENE	0.09	7.0	-24.7	---	---	736.9	0.025	0.000	19.2	5	1
03/01/06	7:41 a	-18.1	-18.1	-18.1	---	---	5.2	ESE	0.09	7.0	-24.7	---	---	736.9	0.025	0.000	19.2	5	1
03/01/06	7:42 a	-18.1	-18.1	-18.1	---	---	6.1	SE	0.10	7.8	-25.4	---	---	736.8	0.025	0.000	19.2	5	1
03/01/06	7:43 a	-18.1	-18.1	-18.1	---	---	7.0	SE	0.12	7.8	-26.0	---	---	736.9	0.025	0.000	19.2	5	1
03/01/06	7:44 a	-18.1	-18.1	-18.1	---	---	6.1	SE	0.10	7.0	-25.4	---	---	736.8	0.025	0.000	19.2	5	1
03/01/06	7:45 a	-18.1	-18.1	-18.1	---	---	7.8	ESE	0.13	9.6	-26.5	---	---	736.9	0.025	0.000	19.2	5	1
03/01/06	7:46 a	-18.1	-18.1	-18.1	---	---	7.0	ESE	0.12	8.7	-26.0	---	---	737.0	0.025	0.000	19.2	5	1
03/01/06	7:47 a	-18.1	-18.1	-18.1	---	---	7.8	SE	0.13	10.4	-26.4	---	---	736.9	0.025	0.000	19.2	5	1
03/01/06	7:48 a	-18.1	-18.1	-18.1	---	---	9.6	SE	0.16	11.3	-27.4	---	---	736.9	0.025	0.000	19.2	5	1
03/01/06	7:49 a	-18.1	-18.1	-18.1	---	---	7.8	SSE	0.13	9.6	-26.4	---	---	736.9	0.025	0.000	19.2	5	1
03/01/06	7:50 a	-18.1	-18.1	-18.1	---	---	11.3	SSE	0.19	15.7	-28.2	---	---	736.9	0.025	0.000	19.2	5	1
03/01/06	7:51 a	-18.1	-18.1	-18.1	---	---	12.2	S	0.20	16.5	-28.5	---	---	736.8	0.025	0.000	19.2	5	1
03/01/06	7:52 a	-18.0	-18.0	-18.1	---	---	12.2	S	0.20	16.5	-28.4	---	---	736.8	0.025	0.000	19.2	5	1
03/01/06	7:53 a	-18.0	-18.0	-18.0	---	---	11.3	S	0.19	16.5	-28.1	---	---	736.9	0.025	0.000	19.2	5	1
03/01/06	7:54 a	-18.0	-18.0	-18.0	---	---	9.6	SSE	0.16	11.3	-27.3	---	---	736.7	0.025	0.000	19.2	5	1
03/01/06	7:55 a	-17.9	-17.9	-18.0	---	---	13.9	SSE	0.23	17.4	-29.1	---	---	736.7	0.025	0.000	19.2	5	1
03/01/06	7:56 a	-17.9	-17.9	-18.0	---	---	15.7	SSE	0.26	20.0	-29.6	---	---	736.7	0.025	0.000	19.2	5	1
03/01/06	7:57 a	-17.9	-17.9	-18.0	---	---	13.9	S	0.23	18.3	-29.1	---	---	736.8	0.025	0.000	19.2	5	1
03/01/06	7:58 a	-17.9	-17.9	-17.9	---	---	11.3	SSE	0.19	16.5	-28.0	---	---	736.7	0.025	0.000	19.3	5	1
03/01/06	7:59 a	-17.9	-17.9	-17.9	---	---	15.7	SE	0.26	18.3	-29.6	---	---	736.6	0.025	0.000	19.3	5	1
03/01/06	8:00 a	-17.9	-17.9	-17.9	---	---	18.3	SSE	0.30	24.3	-30.3	---	---	736.5	0.025	0.000	19.3	5	1
03/01/06	8:01 a	-17.9	-17.9	-17.9	---	---	20.0	SSE	0.33	25.2	-30.8	---	---	736.5	0.025	0.000	19.3	5	1
03/01/06	8:02 a	-17.9	-17.9	-17.9	---	---	17.4	S	0.29	20.9	-30.1	---	---	736.6	0.025	0.000	19.3	5	1
03/01/06	8:03 a	-17.9	-17.9	-17.9	---	---	19.1	SSE	0.32	21.7	-30.6	---	---	736.6	0.025	0.000	19.3	5	1
03/01/06	8:04 a	-17.9	-17.8	-17.9	---	---	20.0	SSE	0.33	23.5	-30.8	---	---	736.6	0.025	0.000	19.3	5	1
03/01/06	8:05 a	-17.8	-17.8	-17.9	---	---	20.9	SSE	0.35	25.2	-30.9	---	---	736.5	0.025	0.000	19.3	5	1
03/01/06	8:06 a	-17.8	-17.8	-17.8	---	---	21.7	SSE	0.36	26.1	-31.2	---	---	736.4	0.025	0.000	19.3	5	1
03/01/06	8:07 a	-17.8	-17.8	-17.9	---	---	20.0	SSE	0.33	21.7	-30.7	---	---	736.4	0.025	0.000	19.3	5	1
03/01/06	8:08 a	-17.8	-17.8	-17.8	---	---	18.3	SSE	0.30	20.0	-30.3	---	---	736.5	0.025	0.000	19.3	5	1
03/01/06	8:09 a	-17.8	-17.8	-17.9	---	---	19.1	SSE	0.32	20.9	-30.5	---	---	736.5	0.025	0.000	19.3	5	1
03/01/06	8:10 a	-17.8	-17.8	-17.8	---	---	19.1	SSE	0.32	20.9	-30.4	---	---	736.5	0.025	0.000	19.3	5	1
03/01/06	8:11 a	-17.8	-17.8	-17.8	---	---	22.6	SSE	0.38	26.1	-31.3	---	---	736.3	0.025	0.000	19.3	5	1
03/01/06	8:12 a	-17.8	-17.8	-17.8	---	---	21.7	SSE	0.36	25.2	-31.1	---	---	736.4	0.025	0.000	19.3	5	1
03/01/06	8:13 a	-17.8	-17.8	-17.8	---	---	22.6	SSE	0.38	25.2	-31.3	---	---	736.4	0.025	0.000	19.3	5	1
03/01/06	8:14 a	-17.8	-17.8	-17.8	---	---	19.1	SE	0.32	20.0	-30.4	---	---	736.4	0.025	0.000	19.3	5	1
03/01/06	8:15 a	-17.8	-17.8	-17.8	---	---	24.3	SE	0.41	29.6	-31.7	---	---	736.1	0.025	0.000	19.3	5	1
03/01/06	8:16 a	-17.8	-17.7	-17.8	---	---	26.1	SE	0.43	28.7	-32.1	---	---	736.2	0.025	0.000	19.3	5	1
03/01/06	8:17 a	-17.8	-17.7	-17.8	---	---	26.1	SE	0.43	29.6	-32.1	---	---	736.2	0.025	0.000	19.3	5	1
03/01/06	8:18 a	-17.8	-17.8	-17.8	---	---	28.7	SE	0.48	30.4	-32.6	---	---	736.1	0.025	0.000	19.3	5	1
03/01/06	8:19 a	-17.8	-17.7	-17.8	---	---	26.1	SE	0.43	28.7	-32.1	---	---	736.2	0.025	0.000	19.3	5	1
03/01/06	8:20 a	-17.8	-17.7	-17.8	---	---	27.8	SE	0.46	30.4	-32.4	---	---	736.1	0.025	0.000	19.3	5	1
03/01/06	8:21 a	-17.8	-17.7	-17.8	---	---	26.1	SE	0.43	32.2	-32.1	---	---	736.2	0.025	0.000	19.3	5	1
03/01/06	8:22 a	-17.8	-17.8	-17.8	---	---	25.2	SE	0.42	27.0	-31.9	---	---	736.3	0.025	0.000	19.3	5	1
03/01/06	8:23 a	-17.8	-17.7	-17.8	---	---	25.2	SE	0.42	28.7	-31.9	---	---	736.1	0.025	0.000	19.3	5	1
03/01/06	8:24 a	-17.8	-17.7	-17.8	---	---	20.9	ESE	0.35	22.6	-30.9	---	---	736.3	0.025	0.000	19.3	5	1
03/01/06	8:25 a	-17.7	-17.7	-17.8	---	---	20.0	ESE	0.33	23.5	-30.6	---	---	736.4	0.025	0.000	19.3	5	1
03/01/06	8:26 a	-17.7	-17.7	-17.8	---	---	22.6	ESE	0.38	25.2	-31.2	---	---	736.4	0.025	0.000	19.3	5	1
03/01/06	8:27 a	-17.7	-17.7	-17.7	---	---	21.7	ESE	0.36	26.1	-31.1	---	---	736.2	0.025	0.000	19.3	5	1
03/01/06	8:28 a	-17.7	-17.7	-17.7	---	---	20.0	E	0.33	23.5	-30.5	---	---	736.2	0.025	0.000	19.3	5	1
03/01/06	8:29 a	-17.7	-17.6	-17.7	---	---	22.6	E	0.38	27.0	-31.2	---	---	736.1	0.025	0.000	19.2	5	1
03/01/06	8:30 a	-17.6	-17.6	-17.6	---	---	23.5	ESE	0.39	27.8	-31.3	---	---	736.2	0.025	0.000	19.2	5	1
03/01/06	8:31 a	-17.6	-17.5	-17.6	---	---	23.5	ESE	0.39	27.8	-31.2	---	---	736.2	0.025	0.000	19.2	5	1
03/01/06	8:32 a	-17.5	-17.5	-17.5	---	---	25.2	ESE	0.42	27.8	-31.6	---	---	736.1	0.025	0.000	19.2	5	1
03/01/06	8:33 a	-17.5	-17.4	-17.5	---	---	23.5	ESE	0.39	27.8	-31.2	---	---	736.2	0.025	0.000	19.2	5	1
03/01/06	8:34 a	-17.4	-17.4	-17.4	---	---	23.5	E	0.39	28.7	-31.0	---	---	736.3	0.025	0.000	19.2	5	1
03/01/06	8:35 a	-17.4	-17.3	-17.4	---	---	22.6	ESE	0.38	27.8	-30.8	---	---	736.3	0.025	0.000	19.2	5	1
03/01/06	8:36 a	-17.3	-17.3	-17.3	---	---	22.6	E	0.38	25.2	-30.7	---	---	736.3	0.025	0.000	19.2	5	1
03/01/06	8:37 a	-17.3	-17.2	-17.3	---	---	20.0	E	0.33	23.5	-30.0	---	---	736.3	0.025	0.000	19.2	5	1
03/01/06	8:38 a	-17.2	-17.2	-17.3	---	---	17.4	E	0.29	22.6	-29.2	---	---	736.3	0.025	0.000	19.2	5	1
03/01/06	8:39 a	-17.2	-17.2	-17.2	---	---	19.1	E	0.32	21.7	-29.7	---	---	736.3	0.025	0.000	19.2	5	1
03/01/06	8:40 a	-17.2	-17.2	-17.2	---	---	18.3	E	0.30	21.7	-29.4	---	---	736.4	0.025	0.000	19.2	5	1
03/01/06	8:41 a	-17.1	-17.1	-17.1	---	---	17.4	E	0.29	24.3	-29.1	---	---	736.3	0.025	0.000	19.2	5	1
03/01/06	8:42 a	-17.1	-17.1	-17.1	---	---	15.7	E	0.26	20.0	-28.4	---	---	736.3	0.025	0.000	19.2	4	1
03/01/06	8:43 a	-17.1	-17.1	-17.1	---	---	17.4	E	0.29	21.7	-29.0	---	---	736.4	0.025	0.000	19.3	4	1
03/01/06	8:44 a	-17.0	-17.0	-17.1	---	---	18.3	E	0.30	21.7	-29.2	---	---	736.5	0.025	0.000	19.3	4	1
03/01/06	8:45 a	-17.0	-16.9	-17.0	---	---	18.3	E	0.30	20.9	-29.2	---	---	736.4	0.025	0.000	19.3	4	1
03/01/06	8:46 a	-16.9	-16.9	-17.0	---	---	17.4	E	0.29	21.7	-28.8	---	---	736.5	0.024	0.000	19.3	5	1
03/01/06	8:47 a	-16.9	-16.9	-16.9	---	---	16.5	E	0.28	21.7	-28.6	---	---	736.5	0.024	0.000	19.3	5	1
03/01/06	8:48 a	-16.9	-16.9	-16.9	---	---	15.7	E	0.26	21.7	-28.3	---	---	736.4	0.024	0.000	19.3	5	1
03/01/06	8:49 a	-16.9	-16.9	-16.9	---	---	15.7	E	0.26	21.7	-28.3	---	---	736.4	0.024	0.000	19.3	5	1
03/01/06	8:50 a	-16.9	-16.9	-16.9	---	---	17.4	E	0.29	23.5	-28.8	---	---	736.5	0.024	0.000	19.3	4	1
03/01/06	8:51 a	-16.9	-16.9	-16.9	---	---	17.4	E	0.29	21.7	-28.8	---	---	736.5	0.024	0.000	19.3	4	1
03/01/06	8:52 a	-16.9	-16.9	-16.9	---	---	17.4	E	0.29	20.0	-28.8	---	---	736.5	0.024	0.000	19.3	5	1
03/01/06	8:53 a	-16.9	-16.9	-16.9	---	---	17.4	ENE	0.29	20.9	-28.8	---	---	736.6	0.024	0.000	19.3	4	1
03/01/06	8:54 a	-16.9	-16.9	-16.9	---	---	15.7	E	0.26	18.3	-28.2	---	---	736.4	0.024	0.000	19.3	4	1
03/01/06	8:55 a	-16.9	-16.9	-16.9	---	---	14.8	E	0.25	18.3	-27.9	---	---	736.4	0.024	0.000	19.4	4	1
03/01/06	8:56 a	-16.9	-16.9	-16.9	---	---	15.7	E	0.26	20.0	-28.2	---	---	736.5	0.024	0.000	19.4	4	1
03/01/06	8:57 a	-16.9	-16.8	-16.9	---	---	16.5	E	0.28	20.0	-28.5	---	---	736.5	0.024	0.000	19.4	4	1
03/01/06	8:58 a	-16.8	-16.8	-16.9	---	---	14.8	E	0.25	17.4	-27.9	---	---	736.5	0.024	0.000	19.4	4	1
03/01/06	8:59 a	-16.9	-16.8	-16.9	---	---	15.7	E	0.26	18.3	-28.2	---	---	736.4	0.024	0.000	19.4	4	1
03/01/06	9:00 a	-16.9	-16.8	-16.9	---	---	14.8	E	0.25	20.0	-27.9	---	---	736.5	0.024	0.000	19.4	4	1
03/01/06	9:01 a	-16.9	-16.8	-16.9	---	---	15.7	E	0.26	17.4	-28.2	---	---	736.4	0.024	0.000	19.4	4	1
03/01/06	9:02 a	-16.9	-16.9	-16.9	---	---	15.7	E	0.26	20.0	-28.2	---	---	736.5	0.024	0.000	19.4	4	1
03/01/06	9:03 a	-16.9	-16.8	-16.9	---	---	16.5	E	0.28	20.0	-28.5	---	---	736.5	0.024	0.000	19.4	4	1
03/01/06	9:04 a	-16.8	-16.8	-16.9	---	---	16.5	E	0.28	19.1	-28.4	---	---	736.4	0.024	0.000	19.4	4	1
03/01/06	9:05 a	-16.9	-16.9	-16.9	---	---	15.7	E	0.26	18.3	-28.2	---	---	736.3	0.024	0.000	19.4	4	1
03/01/06	9:06 a	-16.9	-16.9	-16.9	---	---	15.7	E	0.26	18.3	-28.2	---	---	736.4	0.024	0.000	19.4	4	1
03/01/06	9:07 a	-16.9	-16.9	-16.9	---	---	15.7	E	0.26	19.1	-28.2	---	---	736.5	0.024	0.000	19.4	4	1
03/01/06	9:08 a	-16.9	-16.9	-16.9	---	---	16.5	E	0.28	20.0	-28.6	---	---	736.4	0.024	0.000	19.4	4	1
03/01/06	9:09 a	-16.9	-16.9	-16.9	---	---	14.8	E	0.25	18.3	-27.9	---	---	736.5	0.024	0.000	19.4	4	1
03/01/06	9:10 a	-16.9	-16.9	-16.9	---	---	15.7	E	0.26	18.3	-28.3	---	---	736.4	0.024	0.000	19.4	4	1
03/01/06	9:11 a	-16.9	-16.9	-16.9	---	---	13.9	E	0.23	17.4	-27.7	---	---	736.3	0.024	0.000	19.4	4	1
03/01/06	9:12 a	-16.9	-16.9	-17.0	---	---	15.7	E	0.26	18.3	-28.3	---	---	736.3	0.024	0.000	19.4	4	1
03/01/06	9:13 a	-17.0	-16.9	-17.0	---	---	16.5	E	0.28	18.3	-28.7	---	---	736.4	0.025	0.000	19.4	4	1
03/01/06	9:14 a	-17.0	-17.0	-17.0	---	---	16.5	E	0.28	19.1	-28.7	---	---	736.5	0.025	0.000	19.4	4	1
03/01/06	9:15 a	-17.0	-17.0	-17.1	---	---	15.7	E	0.26	20.0	-28.4	---	---	736.4	0.025	0.000	19.4	4	1
03/01/06	9:16 a	-17.1	-17.0	-17.1	---	---	15.7	E	0.26	18.3	-28.4	---	---	736.5	0.025	0.000	19.4	4	1
03/01/06	9:17 a	-17.1	-17.1	-17.1	---	---	15.7	E	0.26	18.3	-28.6	---	---	736.6	0.025	0.000	19.4	4	1
03/01/06	9:18 a	-17.1	-17.1	-17.2	---	---	15.7	E	0.26	18.3	-28.6	---	---	736.5	0.025	0.000	19.4	4	1
03/01/06	9:19 a	-17.2	-17.2	-17.2	---	---	15.7	E	0.26	17.4	-28.6	---	---	736.6	0.025	0.000	19.4	4	1
03/01/06	9:20 a	-17.2	-17.2	-17.2	---	---	16.5	E	0.28	19.1	-28.9	---	---	736.5	0.025	0.000	19.4	4	1
03/01/06	9:21 a	-17.2	-17.2	-17.3	---	---	15.7	E	0.26	18.3	-28.7	---	---	736.6	0.025	0.000	19.4	4	1
03/01/06	9:22 a	-17.3	-17.3	-17.3	---	---	16.5	E	0.28	20.0	-29.0	---	---	736.4	0.025	0.000	19.4	4	1
03/01/06	9:23 a	-17.3	-17.3	-17.3	---	---	16.5	E	0.28	19.1	-29.1	---	---	736.5	0.025	0.000	19.4	4	1
03/01/06	9:24 a	-17.4	-17.3	-17.4	---	---	14.8	E	0.25	18.3	-28.6	---	---	736.4	0.025	0.000	19.4	4	1
03/01/06	9:25 a	-17.4	-17.4	-17.5	---	---	14.8	E	0.25	18.3	-28.7	---	---	736.4	0.025	0.000	19.4	4	1
03/01/06	9:26 a	-17.5	-17.4	-17.5	---	---	17.4	E	0.29	20.9	-29.6	---	---	736.5	0.025	0.000	19.4	4	1
03/01/06	9:27 a	-17.6	-17.6	-17.6	---	---	14.8	E	0.25	18.3	-28.8	---	---	736.5	0.025	0.000	19.4	4	1
03/01/06	9:28 a	-17.6	-17.6	-17.7	---	---	15.7	E	0.26	17.4	-29.2	---	---	736.4	0.025	0.000	19.4	4	1
03/01/06	9:29 a	-17.7	-17.7	-17.7	---	---	14.8	E	0.25	17.4	-29.0	---	---	736.4	0.025	0.000	19.4	4	1
03/01/06	9:30 a	-17.8	-17.7	-17.8	---	---	15.7	E	0.26	18.3	-29.4	---	---	736.5	0.025	0.000	19.3	4	1
03/01/06	9:31 a	-17.8	-17.8	-17.8	---	---	14.8	E	0.25	19.1	-29.1	---	---	736.5	0.025	0.000	19.3	4	1
03/01/06	9:32 a	-17.9	-17.9	-17.9	---	---	13.9	E	0.23	18.3	-28.9	---	---	736.5	0.025	0.000	19.3	4	1
03/01/06	9:33 a	-17.9	-17.9	-18.0	---	---	15.7	E	0.26	18.3	-29.6	---	---	736.5	0.025	0.000	19.4	4	1
03/01/06	9:34 a	-18.0	-18.0	-18.1	---	---	14.8	E	0.25	17.4	-29.4	---	---	736.5	0.025	0.000	19.3	4	1
03/01/06	9:35 a	-18.1	-18.1	-18.1	---	---	14.8	E	0.25	16.5	-29.6	---	---	736.6	0.025	0.000	19.3	4	1
03/01/06	9:36 a	-18.2	-18.1	-18.2	---	---	13.9	E	0.23	18.3	-29.3	---	---	736.6	0.025	0.000	19.4	4	1
03/01/06	9:37 a	-18.2	-18.2	-18.3	---	---	13.0	E	0.22	16.5	-29.1	---	---	736.6	0.025	0.000	19.4	4	1
03/01/06	9:38 a	-18.3	-18.3	-18.3	---	---	14.8	E	0.25	17.4	-29.8	---	---	736.5	0.025	0.000	19.4	4	1
03/01/06	9:39 a	-18.4	-18.3	-18.4	---	---	14.8	E	0.25	17.4	-29.9	---	---	736.6	0.026	0.000	19.4	4	1
03/01/06	9:40 a	-18.4	-18.4	-18.5	---	---	15.7	E	0.26	18.3	-30.3	---	---	736.5	0.026	0.000	19.4	4	1
03/01/06	9:41 a	-18.5	-18.5	-18.5	---	---	13.9	E	0.23	17.4	-29.7	---	---	736.7	0.026	0.000	19.4	4	1
03/01/06	9:42 a	-18.6	-18.6	-18.6	---	---	14.8	E	0.25	18.3	-30.2	---	---	736.6	0.026	0.000	19.4	4	1
03/01/06	9:43 a	-18.7	-18.6	-18.7	---	---	13.9	E	0.23	16.5	-29.9	---	---	736.7	0.026	0.000	19.4	4	1
03/01/06	9:44 a	-18.7	-18.7	-18.7	---	---	15.7	E	0.26	18.3	-30.6	---	---	736.6	0.026	0.000	19.4	4	1
03/01/06	9:45 a	-18.8	-18.7	-18.8	---	---	14.8	E	0.25	19.1	-30.4	---	---	736.7	0.026	0.000	19.4	4	1
03/01/06	9:46 a	-18.8	-18.8	-18.9	---	---	13.9	E	0.23	16.5	-30.2	---	---	736.7	0.026	0.000	19.4	4	1
03/01/06	9:47 a	-18.9	-18.9	-18.9	---	---	16.5	E	0.28	18.3	-31.1	---	---	736.7	0.026	0.000	19.4	4	1
03/01/06	9:48 a	-18.9	-18.9	-18.9	---	---	15.7	E	0.26	17.4	-30.9	---	---	736.7	0.026	0.000	19.4	4	1
03/01/06	9:49 a	-18.9	-18.9	-19.0	---	---	15.7	E	0.26	17.4	-30.9	---	---	736.7	0.026	0.000	19.4	4	1
03/01/06	9:50 a	-19.0	-19.0	-19.1	---	---	14.8	E	0.25	17.4	-30.7	---	---	736.7	0.026	0.000	19.4	4	1
03/01/06	9:51 a	-19.1	-19.1	-19.1	---	---	15.7	E	0.26	17.4	-31.1	---	---	736.7	0.026	0.000	19.4	4	1
03/01/06	9:52 a	-19.1	-19.1	-19.1	---	---	15.7	E	0.26	18.3	-31.2	---	---	736.6	0.026	0.000	19.4	4	1
03/01/06	9:53 a	-19.2	-19.1	-19.2	---	---	15.7	E	0.26	18.3	-31.2	---	---	736.8	0.026	0.000	19.5	4	1
03/01/06	9:54 a	-19.2	-19.2	-19.2	---	---	14.8	E	0.25	17.4	-31.0	---	---	736.7	0.026	0.000	19.5	4	1
03/01/06	9:55 a	-19.2	-19.2	-19.3	---	---	14.8	E	0.25	16.5	-31.0	---	---	736.7	0.026	0.000	19.5	4	1
03/01/06	9:56 a	-19.3	-19.3	-19.3	---	---	14.8	E	0.25	16.5	-31.1	---	---	736.7	0.026	0.000	19.5	4	1
03/01/06	9:57 a	-19.3	-19.3	-19.3	---	---	13.9	E	0.23	15.7	-30.8	---	---	736.7	0.026	0.000	19.5	4	1
03/01/06	9:58 a	-19.3	-19.3	-19.3	---	---	15.7	E	0.26	17.4	-31.4	---	---	736.7	0.026	0.000	19.5	4	1
03/01/06	9:59 a	-19.4	-19.3	-19.4	---	---	13.9	E	0.23	15.7	-30.9	---	---	736.7	0.026	0.000	19.5	4	1
03/01/06	10:00 a	-19.4	-19.4	-19.4	---	---	13.0	E	0.22	15.7	-30.6	---	---	736.8	0.026	0.000	19.5	4	1
03/01/06	10:01 a	-19.4	-19.4	-19.4	---	---	11.3	E	0.19	13.0	-29.9	---	---	736.8	0.026	0.000	19.5	4	1
03/01/06	10:02 a	-19.5	-19.4	-19.5	---	---	12.2	E	0.20	13.9	-30.3	---	---	736.8	0.026	0.000	19.5	4	1
03/01/06	10:03 a	-19.5	-19.5	-19.5	---	---	12.2	E	0.20	13.9	-30.3	---	---	736.8	0.026	0.000	19.5	4	1
03/01/06	10:04 a	-19.5	-19.5	-19.6	---	---	10.4	E	0.17	13.9	-29.6	---	---	736.8	0.026	0.000	19.5	4	1
03/01/06	10:05 a	-19.6	-19.5	-19.6	---	---	12.2	E	0.20	13.9	-30.4	---	---	736.8	0.026	0.000	19.4	4	1
03/01/06	10:06 a	-19.6	-19.6	-19.6	---	---	12.2	E	0.20	13.9	-30.4	---	---	736.9	0.026	0.000	19.4	4	1
03/01/06	10:07 a	-19.6	-19.6	-19.6	---	---	13.9	E	0.23	16.5	-31.1	---	---	736.8	0.026	0.000	19.4	4	1
03/01/06	10:08 a	-19.6	-19.6	-19.6	---	---	16.5	ENE	0.28	19.1	-32.1	---	---	736.8	0.026	0.000	19.4	4	1
03/01/06	10:09 a	-19.6	-19.6	-19.7	---	---	15.7	ENE	0.26	18.3	-31.8	---	---	737.0	0.026	0.000	19.4	4	1
03/01/06	10:10 a	-19.7	-19.7	-19.7	---	---	11.3	E	0.19	13.9	-30.2	---	---	737.0	0.026	0.000	19.4	4	1
03/01/06	10:11 a	-19.7	-19.7	-19.7	---	---	7.8	E	0.13	11.3	-28.4	---	---	736.9	0.026	0.000	19.4	4	1
03/01/06	10:12 a	-19.7	-19.7	-19.7	---	---	13.9	E	0.23	16.5	-31.2	---	---	736.9	0.026	0.000	19.4	4	1
03/01/06	10:13 a	-19.7	-19.7	-19.7	---	---	16.5	ENE	0.28	18.3	-32.2	---	---	736.9	0.026	0.000	19.4	3	1
03/01/06	10:14 a	-19.7	-19.7	-19.8	---	---	15.7	ENE	0.26	17.4	-31.9	---	---	737.0	0.026	0.000	19.4	3	1
03/01/06	10:15 a	-19.8	-19.7	-19.8	---	---	13.9	ENE	0.23	15.7	-31.4	---	---	736.9	0.026	0.000	19.4	4	1
03/01/06	10:16 a	-19.8	-19.8	-19.8	---	---	12.2	ENE	0.20	13.0	-30.7	---	---	736.9	0.026	0.000	19.4	4	1
03/01/06	10:17 a	-19.8	-19.8	-19.8	---	---	10.4	E	0.17	13.0	-29.9	---	---	736.9	0.026	0.000	19.4	4	1
03/01/06	10:18 a	-19.8	-19.8	-19.8	---	---	7.8	E	0.13	9.6	-28.6	---	---	736.9	0.027	0.000	19.4	4	1
03/01/06	10:19 a	-19.8	-19.8	-19.8	---	---	12.2	ENE	0.20	16.5	-30.8	---	---	736.9	0.027	0.000	19.4	4	1
03/01/06	10:20 a	-19.9	-19.8	-19.9	---	---	14.8	ENE	0.25	16.5	-31.8	---	---	736.9	0.027	0.000	19.4	4	1
03/01/06	10:21 a	-19.9	-19.8	-19.9	---	---	13.9	ENE	0.23	17.4	-31.6	---	---	736.9	0.027	0.000	19.4	3	1
03/01/06	10:22 a	-19.9	-19.9	-19.9	---	---	13.0	E	0.22	14.8	-31.2	---	---	736.9	0.027	0.000	19.4	4	1
03/01/06	10:23 a	-19.9	-19.9	-19.9	---	---	13.0	ENE	0.22	15.7	-31.3	---	---	737.0	0.027	0.000	19.4	4	1
03/01/06	10:24 a	-19.9	-19.9	-20.0	---	---	13.0	ENE	0.22	13.9	-31.3	---	---	736.9	0.027	0.000	19.4	4	1
03/01/06	10:25 a	-20.0	-19.9	-20.0	---	---	13.0	ENE	0.22	13.9	-31.3	---	---	736.9	0.027	0.000	19.4	4	1
03/01/06	10:26 a	-20.0	-20.0	-20.0	---	---	10.4	ENE	0.17	11.3	-30.2	---	---	737.0	0.027	0.000	19.4	4	1
03/01/06	10:27 a	-20.0	-20.0	-20.0	---	---	9.6	ENE	0.16	10.4	-29.8	---	---	736.9	0.027	0.000	19.4	3	1
03/01/06	10:28 a	-20.1	-20.0	-20.1	---	---	9.6	E	0.16	16.5	-29.8	---	---	736.9	0.027	0.000	19.4	4	1
03/01/06	10:29 a	-20.1	-20.1	-20.1	---	---	15.7	ENE	0.26	18.3	-32.4	---	---	736.8	0.027	0.000	19.4	4	1
03/01/06	10:30 a	-20.1	-20.1	-20.1	---	---	13.9	ENE	0.23	14.8	-31.8	---	---	736.9	0.027	0.000	19.4	4	1
03/01/06	10:31 a	-20.1	-20.1	-20.2	---	---	13.0	ENE	0.22	13.9	-31.5	---	---	737.0	0.027	0.000	19.4	4	1
03/01/06	10:32 a	-20.2	-20.1	-20.2	---	---	12.2	ENE	0.20	13.0	-31.2	---	---	736.8	0.027	0.000	19.4	4	1
03/01/06	10:33 a	-20.2	-20.2	-20.2	---	---	11.3	ENE	0.19	13.0	-30.8	---	---	736.9	0.027	0.000	19.4	4	1
03/01/06	10:34 a	-20.2	-20.2	-20.2	---	---	7.8	ENE	0.13	9.6	-29.1	---	---	736.9	0.027	0.000	19.5	4	1
03/01/06	10:35 a	-20.2	-20.2	-20.3	---	---	11.3	ENE	0.19	13.0	-30.9	---	---	736.8	0.027	0.000	19.5	4	1
03/01/06	10:36 a	-20.3	-20.2	-20.3	---	---	13.9	ENE	0.23	15.7	-32.1	---	---	736.7	0.027	0.000	19.5	4	1
03/01/06	10:37 a	-20.3	-20.2	-20.3	---	---	12.2	ENE	0.20	13.9	-31.3	---	---	736.8	0.027	0.000	19.5	4	1
03/01/06	10:38 a	-20.3	-20.3	-20.3	---	---	12.2	ENE	0.20	13.9	-31.3	---	---	736.8	0.027	0.000	19.5	4	1
03/01/06	10:39 a	-20.3	-20.3	-20.3	---	---	10.4	ENE	0.17	12.2	-30.6	---	---	736.8	0.027	0.000	19.5	4	1
03/01/06	10:40 a	-20.3	-20.3	-20.3	---	---	11.3	ENE	0.19	13.9	-31.1	---	---	736.8	0.027	0.000	19.5	3	1
03/01/06	10:41 a	-20.3	-20.3	-20.4	---	---	13.0	ENE	0.22	13.9	-31.8	---	---	736.7	0.027	0.000	19.5	4	1
03/01/06	10:42 a	-20.4	-20.3	-20.4	---	---	13.0	ENE	0.22	13.0	-31.8	---	---	736.8	0.027	0.000	19.5	3	1
03/01/06	10:43 a	-20.4	-20.4	-20.4	---	---	13.0	ENE	0.22	13.9	-31.8	---	---	736.8	0.027	0.000	19.6	4	1
03/01/06	10:44 a	-20.4	-20.4	-20.4	---	---	12.2	ENE	0.20	13.0	-31.5	---	---	736.8	0.027	0.000	19.6	4	1
03/01/06	10:45 a	-20.4	-20.4	-20.4	---	---	9.6	ENE	0.16	11.3	-30.3	---	---	736.7	0.027	0.000	19.6	3	1
03/01/06	10:46 a	-20.4	-20.4	-20.4	---	---	10.4	ENE	0.17	11.3	-30.7	---	---	736.7	0.027	0.000	19.6	4	1
03/01/06	10:47 a	-20.4	-20.4	-20.4	---	---	13.0	ENE	0.22	14.8	-31.9	---	---	736.6	0.027	0.000	19.6	3	1
03/01/06	10:48 a	-20.4	-20.4	-20.4	---	---	13.0	ENE	0.22	13.9	-31.9	---	---	736.7	0.027	0.000	19.6	4	1
03/01/06	10:49 a	-20.4	-20.4	-20.4	---	---	12.2	ENE	0.20	13.0	-31.6	---	---	736.7	0.027	0.000	19.6	4	1
03/01/06	10:50 a	-20.4	-20.4	-20.5	---	---	9.6	ENE	0.16	12.2	-30.3	---	---	736.7	0.027	0.000	19.6	4	1
03/01/06	10:51 a	-20.4	-20.4	-20.4	---	---	12.2	ENE	0.20	13.9	-31.6	---	---	736.7	0.027	0.000	19.6	3	1
03/01/06	10:52 a	-20.4	-20.4	-20.5	---	---	13.0	ENE	0.22	13.9	-31.9	---	---	736.7	0.027	0.000	19.6	4	1
03/01/06	10:53 a	-20.4	-20.4	-20.5	---	---	11.3	ENE	0.19	12.2	-31.2	---	---	736.8	0.027	0.000	19.6	4	1
03/01/06	10:54 a	-20.4	-20.4	-20.5	---	---	11.3	ENE	0.19	12.2	-31.2	---	---	736.7	0.027	0.000	19.6	3	1
03/01/06	10:55 a	-20.5	-20.4	-20.5	---	---	10.4	ENE	0.17	11.3	-30.8	---	---	736.8	0.027	0.000	19.6	4	1
03/01/06	10:56 a	-20.5	-20.4	-20.5	---	---	10.4	ENE	0.17	11.3	-30.8	---	---	736.8	0.027	0.000	19.6	3	1
03/01/06	10:57 a	-20.5	-20.5	-20.6	---	---	10.4	ENE	0.17	13.0	-30.8	---	---	736.7	0.027	0.000	19.6	3	1
03/01/06	10:58 a	-20.6	-20.5	-20.6	---	---	12.2	ENE	0.20	13.0	-31.7	---	---	736.8	0.027	0.000	19.5	4	1
03/01/06	10:59 a	-20.6	-20.5	-20.6	---	---	11.3	ENE	0.19	12.2	-31.3	---	---	736.8	0.027	0.000	19.5	4	1
03/01/06	11:00 a	-20.6	-20.6	-20.6	---	---	9.6	ENE	0.16	10.4	-30.5	---	---	736.8	0.027	0.000	19.5	3	1
03/01/06	11:01 a	-20.6	-20.5	-20.6	---	---	10.4	ENE	0.17	13.0	-30.9	---	---	736.7	0.027	0.000	19.5	4	1
03/01/06	11:02 a	-20.6	-20.6	-20.6	---	---	11.3	ENE	0.19	13.0	-31.3	---	---	736.6	0.027	0.000	19.5	3	1
03/01/06	11:03 a	-20.6	-20.6	-20.6	---	---	10.4	NE	0.17	11.3	-30.9	---	---	736.7	0.027	0.000	19.5	3	1
03/01/06	11:04 a	-20.6	-20.6	-20.6	---	---	12.2	ENE	0.20	13.0	-31.7	---	---	736.7	0.027	0.000	19.5	3	1
03/01/06	11:05 a	-20.6	-20.5	-20.6	---	---	9.6	ENE	0.16	12.2	-30.5	---	---	736.7	0.027	0.000	19.5	3	1
03/01/06	11:06 a	-20.6	-20.5	-20.6	---	---	9.6	ENE	0.16	10.4	-30.5	---	---	736.7	0.027	0.000	19.5	4	1
03/01/06	11:07 a	-20.6	-20.5	-20.6	---	---	11.3	NE	0.19	13.0	-31.3	---	---	736.7	0.027	0.000	19.5	4	1
03/01/06	11:08 a	-20.5	-20.5	-20.5	---	---	12.2	NE	0.20	13.9	-31.6	---	---	736.6	0.027	0.000	19.5	3	1
03/01/06	11:09 a	-20.5	-20.5	-20.5	---	---	11.3	NE	0.19	13.9	-31.3	---	---	736.7	0.027	0.000	19.5	3	1
03/01/06	11:10 a	-20.5	-20.4	-20.5	---	---	11.3	NE	0.19	13.0	-31.3	---	---	736.7	0.027	0.000	19.5	4	1
03/01/06	11:11 a	-20.4	-20.4	-20.5	---	---	11.3	ENE	0.19	13.0	-31.2	---	---	736.8	0.027	0.000	19.5	4	1
03/01/06	11:12 a	-20.4	-20.4	-20.4	---	---	11.3	NE	0.19	13.9	-31.2	---	---	736.6	0.027	0.000	19.5	3	1
03/01/06	11:13 a	-20.4	-20.4	-20.4	---	---	9.6	NE	0.16	11.3	-30.3	---	---	736.7	0.027	0.000	19.4	3	1
03/01/06	11:14 a	-20.4	-20.4	-20.4	---	---	10.4	NE	0.17	13.0	-30.8	---	---	736.6	0.027	0.000	19.4	3	1
03/01/06	11:15 a	-20.4	-20.4	-20.4	---	---	9.6	ENE	0.16	10.4	-30.3	---	---	736.6	0.027	0.000	19.4	3	1
03/01/06	11:16 a	-20.4	-20.4	-20.4	---	---	8.7	ENE	0.14	10.4	-29.8	---	---	736.6	0.027	0.000	19.4	3	1
03/01/06	11:17 a	-20.4	-20.4	-20.4	---	---	7.0	E	0.12	7.8	-28.7	---	---	736.6	0.027	0.000	19.5	3	1
03/01/06	11:18 a	-20.4	-20.4	-20.4	---	---	7.8	ENE	0.13	9.6	-29.3	---	---	736.7	0.027	0.000	19.5	3	1
03/01/06	11:19 a	-20.4	-20.4	-20.4	---	---	8.7	ENE	0.14	9.6	-29.8	---	---	736.7	0.027	0.000	19.5	3	1
03/01/06	11:20 a	-20.4	-20.4	-20.4	---	---	7.8	ENE	0.13	8.7	-29.3	---	---	736.7	0.027	0.000	19.5	3	1
03/01/06	11:21 a	-20.4	-20.3	-20.4	---	---	9.6	ENE	0.16	10.4	-30.3	---	---	736.6	0.027	0.000	19.5	3	1
03/01/06	11:22 a	-20.4	-20.4	-20.4	---	---	9.6	ENE	0.16	10.4	-30.3	---	---	736.6	0.027	0.000	19.5	3	1
03/01/06	11:23 a	-20.4	-20.4	-20.4	---	---	9.6	ENE	0.16	10.4	-30.3	---	---	736.6	0.027	0.000	19.5	3	1
03/01/06	11:24 a	-20.4	-20.4	-20.4	---	---	9.6	ENE	0.16	12.2	-30.3	---	---	736.6	0.027	0.000	19.5	3	1
03/01/06	11:25 a	-20.4	-20.4	-20.4	---	---	11.3	ENE	0.19	12.2	-31.1	---	---	736.7	0.027	0.000	19.5	3	1
03/01/06	11:26 a	-20.4	-20.4	-20.4	---	---	9.6	ENE	0.16	11.3	-30.3	---	---	736.6	0.027	0.000	19.6	3	1
03/01/06	11:27 a	-20.4	-20.4	-20.4	---	---	8.7	NE	0.14	10.4	-29.8	---	---	736.6	0.027	0.000	19.6	3	1
03/01/06	11:28 a	-20.4	-20.4	-20.4	---	---	8.7	NE	0.14	10.4	-29.8	---	---	736.7	0.027	0.000	19.6	4	1
03/01/06	11:29 a	-20.4	-20.3	-20.4	---	---	8.7	NE	0.14	10.4	-29.8	---	---	736.7	0.027	0.000	19.6	3	1
03/01/06	11:30 a	-20.4	-20.3	-20.4	---	---	7.0	ENE	0.12	7.8	-28.7	---	---	736.7	0.027	0.000	19.6	3	1
03/01/06	11:31 a	-20.4	-20.4	-20.4	---	---	7.0	ENE	0.12	7.8	-28.7	---	---	736.7	0.027	0.000	19.6	3	1
03/01/06	11:32 a	-20.3	-20.3	-20.4	---	---	7.0	ENE	0.12	7.8	-28.7	---	---	736.7	0.027	0.000	19.6	3	1
03/01/06	11:33 a	-20.3	-20.3	-20.4	---	---	7.8	ENE	0.13	8.7	-29.2	---	---	736.7	0.027	0.000	19.6	3	1
03/01/06	11:34 a	-20.4	-20.3	-20.4	---	---	8.7	ENE	0.14	8.7	-29.8	---	---	736.7	0.027	0.000	19.6	3	1
03/01/06	11:35 a	-20.3	-20.3	-20.3	---	---	8.7	ENE	0.14	9.6	-29.7	---	---	736.7	0.027	0.000	19.6	3	1
03/01/06	11:36 a	-20.3	-20.3	-20.4	---	---	7.8	ENE	0.13	8.7	-29.2	---	---	736.7	0.027	0.000	19.6	3	1
03/01/06	11:37 a	-20.3	-20.3	-20.3	---	---	7.0	ENE	0.12	7.8	-28.7	---	---	736.6	0.027	0.000	19.6	3	1
03/01/06	11:38 a	-20.3	-20.3	-20.3	---	---	7.0	ENE	0.12	8.7	-28.6	---	---	736.6	0.027	0.000	19.6	3	1
03/01/06	11:39 a	-20.3	-20.3	-20.3	---	---	7.0	ENE	0.12	7.8	-28.7	---	---	736.6	0.027	0.000	19.6	4	1
03/01/06	11:40 a	-20.3	-20.3	-20.3	---	---	6.1	ENE	0.10	7.0	-28.1	---	---	736.6	0.027	0.000	19.6	3	1
03/01/06	11:41 a	-20.3	-20.3	-20.3	---	---	7.0	ENE	0.12	7.8	-28.6	---	---	736.7	0.027	0.000	19.6	3	1
03/01/06	11:42 a	-20.3	-20.3	-20.3	---	---	7.0	NE	0.12	7.8	-28.6	---	---	736.7	0.027	0.000	19.7	4	1
03/01/06	11:43 a	-20.3	-20.3	-20.3	---	---	7.0	NE	0.12	8.7	-28.6	---	---	736.7	0.027	0.000	19.7	3	1
03/01/06	11:44 a	-20.3	-20.3	-20.3	---	---	8.7	NE	0.14	10.4	-29.7	---	---	736.7	0.027	0.000	19.7	3	1
03/01/06	11:45 a	-20.2	-20.2	-20.3	---	---	9.6	NE	0.16	10.4	-30.1	---	---	736.7	0.027	0.000	19.7	3	1
03/01/06	11:46 a	-20.2	-20.2	-20.2	---	---	9.6	NE	0.16	10.4	-30.1	---	---	736.6	0.027	0.000	19.6	3	1
03/01/06	11:47 a	-20.2	-20.2	-20.2	---	---	7.0	ENE	0.12	8.7	-28.6	---	---	736.6	0.027	0.000	19.6	3	1
03/01/06	11:48 a	-20.2	-20.2	-20.2	---	---	7.8	ENE	0.13	8.7	-29.1	---	---	736.5	0.027	0.000	19.6	3	1
03/01/06	11:49 a	-20.2	-20.1	-20.2	---	---	7.0	ENE	0.12	8.7	-28.5	---	---	736.6	0.027	0.000	19.6	3	1
03/01/06	11:50 a	-20.2	-20.1	-20.2	---	---	7.0	ENE	0.12	7.8	-28.5	---	---	736.6	0.027	0.000	19.6	3	1
03/01/06	11:51 a	-20.1	-20.1	-20.1	---	---	6.1	ENE	0.10	7.0	-27.8	---	---	736.6	0.027	0.000	19.6	3	1
03/01/06	11:52 a	-20.1	-20.1	-20.1	---	---	5.2	ENE	0.09	6.1	-27.1	---	---	736.6	0.027	0.000	19.6	3	1
03/01/06	11:53 a	-20.1	-20.1	-20.1	---	---	6.1	ENE	0.10	7.8	-27.7	---	---	736.6	0.027	0.000	19.6	3	1
03/01/06	11:54 a	-20.0	-20.0	-20.1	---	---	7.8	NE	0.13	8.7	-28.8	---	---	736.5	0.027	0.000	19.6	3	1
03/01/06	11:55 a	-20.0	-20.0	-20.0	---	---	7.8	ENE	0.13	7.8	-28.8	---	---	736.6	0.027	0.000	19.6	3	1
03/01/06	11:56 a	-20.0	-19.9	-20.0	---	---	6.1	ENE	0.10	7.8	-27.7	---	---	736.7	0.027	0.000	19.5	3	1
03/01/06	11:57 a	-20.0	-19.9	-20.0	---	---	8.7	NE	0.14	9.6	-29.3	---	---	736.7	0.027	0.000	19.5	3	1
03/01/06	11:58 a	-19.9	-19.9	-19.9	---	---	8.7	NE	0.14	9.6	-29.3	---	---	736.5	0.027	0.000	19.5	3	1
03/01/06	11:59 a	-19.9	-19.9	-19.9	---	---	7.8	NE	0.13	8.7	-28.8	---	---	736.6	0.027	0.000	19.5	3	1
03/01/06	12:00 p	-19.9	-19.9	-19.9	---	---	7.8	NE	0.13	8.7	-28.7	---	---	736.6	0.027	0.000	19.5	3	1
03/01/06	12:01 p	-19.9	-19.8	-19.9	---	---	7.8	NE	0.13	8.7	-28.7	---	---	736.6	0.027	0.000	19.5	3	1
03/01/06	12:02 p	-19.8	-19.8	-19.8	---	---	8.7	NE	0.14	10.4	-29.1	---	---	736.6	0.027	0.000	19.5	3	1
03/01/06	12:03 p	-19.8	-19.8	-19.8	---	---	9.6	NE	0.16	10.4	-29.6	---	---	736.6	0.027	0.000	19.5	3	1
03/01/06	12:04 p	-19.8	-19.8	-19.8	---	---	8.7	NE	0.14	9.6	-29.1	---	---	736.7	0.026	0.000	19.5	3	1
03/01/06	12:05 p	-19.8	-19.7	-19.8	---	---	7.8	NE	0.13	8.7	-28.6	---	---	736.6	0.026	0.000	19.5	3	1
03/01/06	12:06 p	-19.7	-19.7	-19.7	---	---	6.1	NE	0.10	7.0	-27.3	---	---	736.7	0.026	0.000	19.5	3	1
03/01/06	12:07 p	-19.7	-19.7	-19.7	---	---	7.0	NE	0.12	7.8	-27.9	---	---	736.6	0.026	0.000	19.5	3	1
03/01/06	12:08 p	-19.7	-19.7	-19.7	---	---	6.1	NE	0.10	6.1	-27.3	---	---	736.6	0.026	0.000	19.5	3	1
03/01/06	12:09 p	-19.7	-19.7	-19.7	---	---	7.0	NE	0.12	7.8	-27.9	---	---	736.6	0.026	0.000	19.5	3	1
03/01/06	12:10 p	-19.7	-19.7	-19.7	---	---	7.0	NE	0.12	7.8	-27.9	---	---	736.7	0.026	0.000	19.5	3	1
03/01/06	12:11 p	-19.7	-19.7	-19.7	---	---	7.0	NE	0.12	7.8	-27.9	---	---	736.6	0.026	0.000	19.5	3	1
03/01/06	12:12 p	-19.7	-19.6	-19.7	---	---	7.8	NE	0.13	9.6	-28.4	---	---	736.7	0.026	0.000	19.5	3	1
03/01/06	12:13 p	-19.6	-19.6	-19.7	---	---	7.0	NE	0.12	7.8	-27.8	---	---	736.6	0.026	0.000	19.6	3	1
03/01/06	12:14 p	-19.6	-19.6	-19.6	---	---	6.1	NE	0.10	7.8	-27.2	---	---	736.6	0.026	0.000	19.6	3	1
03/01/06	12:15 p	-19.6	-19.6	-19.6	---	---	7.8	NE	0.13	8.7	-28.3	---	---	736.6	0.026	0.000	19.6	3	1
03/01/06	12:16 p	-19.6	-19.6	-19.6	---	---	7.8	NE	0.13	7.8	-28.3	---	---	736.6	0.026	0.000	19.6	3	1
03/01/06	12:17 p	-19.6	-19.5	-19.6	---	---	7.0	NE	0.12	7.8	-27.7	---	---	736.6	0.026	0.000	19.6	3	1
03/01/06	12:18 p	-19.5	-19.5	-19.6	---	---	7.0	NE	0.12	7.8	-27.7	---	---	736.6	0.026	0.000	19.6	3	1
03/01/06	12:19 p	-19.5	-19.5	-19.6	---	---	7.0	NE	0.12	7.0	-27.7	---	---	736.6	0.026	0.000	19.6	3	1
03/01/06	12:20 p	-19.5	-19.5	-19.5	---	---	7.0	NE	0.12	7.8	-27.7	---	---	736.6	0.026	0.000	19.6	3	1
03/01/06	12:21 p	-19.5	-19.5	-19.5	---	---	7.0	NE	0.12	7.8	-27.7	---	---	736.7	0.026	0.000	19.6	3	1
03/01/06	12:22 p	-19.5	-19.4	-19.5	---	---	7.8	NE	0.13	7.8	-28.2	---	---	736.7	0.026	0.000	19.6	3	1
03/01/06	12:23 p	-19.4	-19.4	-19.4	---	---	7.0	NE	0.12	7.8	-27.6	---	---	736.6	0.026	0.000	19.6	3	1
03/01/06	12:24 p	-19.4	-19.4	-19.4	---	---	6.1	NE	0.10	7.0	-27.0	---	---	736.8	0.026	0.000	19.6	3	1
03/01/06	12:25 p	-19.4	-19.4	-19.4	---	---	6.1	NE	0.10	7.0	-27.0	---	---	736.6	0.026	0.000	19.6	3	1
03/01/06	12:26 p	-19.4	-19.4	-19.4	---	---	7.0	ENE	0.12	7.8	-27.6	---	---	736.7	0.026	0.000	19.6	3	1
03/01/06	12:27 p	-19.4	-19.4	-19.4	---	---	6.1	ENE	0.10	7.0	-26.9	---	---	736.6	0.026	0.000	19.6	3	1
03/01/06	12:28 p	-19.4	-19.4	-19.4	---	---	5.2	ENE	0.09	6.1	-26.2	---	---	736.7	0.026	0.000	19.6	3	1
03/01/06	12:29 p	-19.4	-19.4	-19.4	---	---	3.5	ENE	0.06	4.3	-24.5	---	---	736.7	0.026	0.000	19.6	3	1
03/01/06	12:30 p	-19.3	-19.3	-19.4	---	---	3.5	ENE	0.06	3.5	-24.4	---	---	736.6	0.026	0.000	19.7	3	1
03/01/06	12:31 p	-19.3	-19.3	-19.3	---	---	3.5	ENE	0.06	4.3	-24.4	---	---	736.7	0.026	0.000	19.7	3	1
03/01/06	12:32 p	-19.3	-19.3	-19.3	---	---	3.5	ENE	0.06	4.3	-24.4	---	---	736.8	0.026	0.000	19.7	3	1
03/01/06	12:33 p	-19.3	-19.3	-19.3	---	---	2.6	ENE	0.04	3.5	-23.3	---	---	736.7	0.026	0.000	19.7	3	1
03/01/06	12:34 p	-19.3	-19.3	-19.3	---	---	1.7	ENE	0.03	2.6	-21.8	---	---	736.8	0.026	0.000	19.7	3	1
03/01/06	12:35 p	-19.3	-19.3	-19.3	---	---	3.5	ENE	0.06	4.3	-24.4	---	---	736.7	0.026	0.000	19.7	3	1
03/01/06	12:36 p	-19.3	-19.3	-19.3	---	---	3.5	ENE	0.06	5.2	-24.4	---	---	736.7	0.026	0.000	19.7	3	1
03/01/06	12:37 p	-19.3	-19.3	-19.3	---	---	4.3	NE	0.07	5.2	-25.3	---	---	736.6	0.026	0.000	19.7	3	1
03/01/06	12:38 p	-19.3	-19.3	-19.3	---	---	4.3	NE	0.07	6.1	-25.3	---	---	736.7	0.026	0.000	19.7	3	1
03/01/06	12:39 p	-19.3	-19.3	-19.3	---	---	4.3	NE	0.07	5.2	-25.3	---	---	736.7	0.026	0.000	19.7	3	1
03/01/06	12:40 p	-19.3	-19.3	-19.3	---	---	3.5	NE	0.06	5.2	-24.4	---	---	736.7	0.026	0.000	19.7	3	1
03/01/06	12:41 p	-19.3	-19.2	-19.3	---	---	2.6	NE	0.04	3.5	-23.2	---	---	736.7	0.026	0.000	19.7	3	1
03/01/06	12:42 p	-19.2	-19.2	-19.3	---	---	4.3	NE	0.07	5.2	-25.3	---	---	736.7	0.026	0.000	19.6	3	1
03/01/06	12:43 p	-19.2	-19.2	-19.2	---	---	4.3	NE	0.07	5.2	-25.3	---	---	736.7	0.026	0.000	19.6	3	1
03/01/06	12:44 p	-19.2	-19.2	-19.2	---	---	4.3	NE	0.07	5.2	-25.3	---	---	736.6	0.026	0.000	19.6	3	1
03/01/06	12:45 p	-19.2	-19.2	-19.2	---	---	3.5	NE	0.06	4.3	-24.3	---	---	736.7	0.026	0.000	19.6	3	1
03/01/06	12:46 p	-19.2	-19.2	-19.2	---	---	4.3	NE	0.07	5.2	-25.2	---	---	736.6	0.026	0.000	19.6	3	1
03/01/06	12:47 p	-19.2	-19.1	-19.2	---	---	3.5	NE	0.06	4.3	-24.3	---	---	736.7	0.026	0.000	19.6	3	1
03/01/06	12:48 p	-19.1	-19.1	-19.1	---	---	3.5	NE	0.06	3.5	-24.2	---	---	736.7	0.026	0.000	19.6	3	1
03/01/06	12:49 p	-19.1	-19.1	-19.1	---	---	4.3	NE	0.07	5.2	-25.1	---	---	736.7	0.026	0.000	19.6	3	1
03/01/06	12:50 p	-19.1	-19.1	-19.1	---	---	3.5	NE	0.06	4.3	-24.1	---	---	736.7	0.026	0.000	19.6	3	1
03/01/06	12:51 p	-19.1	-19.1	-19.1	---	---	2.6	NE	0.04	4.3	-23.0	---	---	736.7	0.026	0.000	19.6	3	1
03/01/06	12:52 p	-19.1	-19.1	-19.1	---	---	4.3	NE	0.07	5.2	-25.1	---	---	736.7	0.026	0.000	19.6	3	1
03/01/06	12:53 p	-19.1	-19.0	-19.1	---	---	3.5	NE	0.06	4.3	-24.1	---	---	736.7	0.026	0.000	19.6	3	1
03/01/06	12:54 p	-19.0	-19.0	-19.0	---	---	4.3	NE	0.07	5.2	-25.0	---	---	736.7	0.026	0.000	19.6	3	1
03/01/06	12:55 p	-19.0	-19.0	-19.0	---	---	3.5	NE	0.06	4.3	-24.1	---	---	736.6	0.026	0.000	19.6	3	1
03/01/06	12:56 p	-19.0	-18.9	-19.0	---	---	3.5	NE	0.06	4.3	-24.1	---	---	736.7	0.026	0.000	19.6	3	1
03/01/06	12:57 p	-18.9	-18.9	-19.0	---	---	3.5	NE	0.06	3.5	-24.0	---	---	736.7	0.026	0.000	19.6	3	1
03/01/06	12:58 p	-18.9	-18.9	-18.9	---	---	2.6	NE	0.04	3.5	-22.9	---	---	736.7	0.026	0.000	19.6	3	1
03/01/06	12:59 p	-18.9	-18.9	-18.9	---	---	2.6	NE	0.04	3.5	-22.9	---	---	736.6	0.026	0.000	19.6	3	1
03/01/06	1:00 p	-18.9	-18.9	-18.9	---	---	2.6	NE	0.04	2.6	-22.9	---	---	736.6	0.026	0.000	19.6	3	1
03/01/06	1:01 p	-18.9	-18.9	-18.9	---	---	1.7	NE	0.03	2.6	-21.3	---	---	736.7	0.026	0.000	19.6	3	1
03/01/06	1:02 p	-18.9	-18.9	-18.9	---	---	1.7	NE	0.03	2.6	-21.3	---	---	736.7	0.026	0.000	19.6	3	1
03/01/06	1:03 p	-18.9	-18.9	-18.9	---	---	1.7	NE	0.03	2.6	-21.3	---	---	736.6	0.026	0.000	19.6	3	1
03/01/06	1:04 p	-18.9	-18.8	-18.9	---	---	1.7	NE	0.03	2.6	-21.3	---	---	736.6	0.026	0.000	19.6	3	1
03/01/06	1:05 p	-18.8	-18.8	-18.8	---	---	1.7	NE	0.03	2.6	-21.2	---	---	736.7	0.026	0.000	19.6	3	1
03/01/06	1:06 p	-18.8	-18.8	-18.8	---	---	1.7	NE	0.03	2.6	-21.2	---	---	736.6	0.026	0.000	19.6	3	1
03/01/06	1:07 p	-18.8	-18.8	-18.8	---	---	2.6	NE	0.04	2.6	-22.7	---	---	736.6	0.026	0.000	19.6	3	1
03/01/06	1:08 p	-18.8	-18.8	-18.8	---	---	2.6	NE	0.04	4.3	-22.7	---	---	736.6	0.026	0.000	19.6	3	1
03/01/06	1:09 p	-18.8	-18.8	-18.8	---	---	3.5	NE	0.06	4.3	-23.8	---	---	736.5	0.026	0.000	19.6	3	1
03/01/06	1:10 p	-18.8	-18.7	-18.8	---	---	3.5	NE	0.06	3.5	-23.8	---	---	736.6	0.026	0.000	19.6	3	1
03/01/06	1:11 p	-18.8	-18.7	-18.8	---	---	3.5	NE	0.06	4.3	-23.8	---	---	736.7	0.026	0.000	19.6	3	1
03/01/06	1:12 p	-18.7	-18.7	-18.7	---	---	3.5	NE	0.06	4.3	-23.8	---	---	736.7	0.026	0.000	19.6	3	1
03/01/06	1:13 p	-18.7	-18.7	-18.7	---	---	2.6	NE	0.04	3.5	-22.6	---	---	736.7	0.026	0.000	19.7	3	1
03/01/06	1:14 p	-18.7	-18.7	-18.7	---	---	2.6	NE	0.04	3.5	-22.6	---	---	736.6	0.026	0.000	19.7	3	1
03/01/06	1:15 p	-18.7	-18.7	-18.7	---	---	3.5	NE	0.06	4.3	-23.7	---	---	736.5	0.026	0.000	19.7	3	1
03/01/06	1:16 p	-18.7	-18.6	-18.7	---	---	3.5	NE	0.06	4.3	-23.7	---	---	736.5	0.026	0.000	19.7	3	1
03/01/06	1:17 p	-18.6	-18.6	-18.6	---	---	2.6	NE	0.04	3.5	-22.5	---	---	736.6	0.026	0.000	19.7	3	1
03/01/06	1:18 p	-18.6	-18.6	-18.7	---	---	3.5	NE	0.06	3.5	-23.6	---	---	736.6	0.026	0.000	19.7	3	1
03/01/06	1:19 p	-18.6	-18.6	-18.6	---	---	2.6	NE	0.04	3.5	-22.5	---	---	736.6	0.026	0.000	19.7	3	1
03/01/06	1:20 p	-18.6	-18.6	-18.6	---	---	3.5	NE	0.06	3.5	-23.6	---	---	736.6	0.026	0.000	19.8	3	1
03/01/06	1:21 p	-18.6	-18.6	-18.6	---	---	2.6	NE	0.04	3.5	-22.4	---	---	736.5	0.026	0.000	19.8	3	1
03/01/06	1:22 p	-18.6	-18.6	-18.6	---	---	2.6	NE	0.04	3.5	-22.4	---	---	736.5	0.026	0.000	19.8	3	1
03/01/06	1:23 p	-18.6	-18.6	-18.6	---	---	3.5	NE	0.06	3.5	-23.6	---	---	736.5	0.026	0.000	19.8	3	1
03/01/06	1:24 p	-18.5	-18.5	-18.6	---	---	3.5	NE	0.06	3.5	-23.5	---	---	736.4	0.026	0.000	19.8	3	1
03/01/06	1:25 p	-18.4	-18.4	-18.5	---	---	3.5	NE	0.06	4.3	-23.4	---	---	736.4	0.026	0.000	19.8	3	1
03/01/06	1:26 p	-18.4	-18.4	-18.4	---	---	3.5	NE	0.06	4.3	-23.4	---	---	736.5	0.026	0.000	19.8	3	1
03/01/06	1:27 p	-18.4	-18.4	-18.4	---	---	4.3	NE	0.07	4.3	-24.3	---	---	736.4	0.026	0.000	19.8	3	1
03/01/06	1:28 p	-18.4	-18.3	-18.4	---	---	4.3	NNE	0.07	5.2	-24.3	---	---	736.4	0.026	0.000	19.8	3	1
03/01/06	1:29 p	-18.3	-18.3	-18.3	---	---	4.3	NNE	0.07	5.2	-24.2	---	---	736.4	0.025	0.000	19.8	3	1
03/01/06	1:30 p	-18.3	-18.3	-18.3	---	---	4.3	NNE	0.07	5.2	-24.2	---	---	736.4	0.025	0.000	19.9	3	1
03/01/06	1:31 p	-18.3	-18.3	-18.3	---	---	5.2	NNE	0.09	6.1	-24.9	---	---	736.3	0.025	0.000	19.8	3	1
03/01/06	1:32 p	-18.3	-18.3	-18.3	---	---	4.3	NNE	0.07	5.2	-24.2	---	---	736.4	0.025	0.000	19.8	3	1
03/01/06	1:33 p	-18.2	-18.2	-18.3	---	---	5.2	NNE	0.09	6.1	-24.8	---	---	736.4	0.025	0.000	19.8	3	1
03/01/06	1:34 p	-18.2	-18.2	-18.2	---	---	5.2	NNE	0.09	5.2	-24.8	---	---	736.4	0.025	0.000	19.8	3	1
03/01/06	1:35 p	-18.2	-18.1	-18.2	---	---	6.1	NNE	0.10	7.0	-25.4	---	---	736.4	0.025	0.000	19.8	3	1
03/01/06	1:36 p	-18.2	-18.2	-18.2	---	---	6.1	NNE	0.10	7.0	-25.4	---	---	736.4	0.025	0.000	19.8	3	1
03/01/06	1:37 p	-18.1	-18.1	-18.1	---	---	6.1	NNE	0.10	7.0	-25.4	---	---	736.3	0.025	0.000	19.8	3	1
03/01/06	1:38 p	-18.1	-18.1	-18.1	---	---	6.1	NNE	0.10	7.0	-25.4	---	---	736.3	0.025	0.000	19.8	3	1
03/01/06	1:39 p	-18.1	-18.1	-18.1	---	---	6.1	NNE	0.10	7.0	-25.3	---	---	736.3	0.025	0.000	19.8	3	1
03/01/06	1:40 p	-18.1	-18.1	-18.1	---	---	6.1	N	0.10	6.1	-25.3	---	---	736.4	0.025	0.000	19.8	3	1
03/01/06	1:41 p	-18.0	-18.0	-18.1	---	---	6.1	N	0.10	6.1	-25.3	---	---	736.3	0.025	0.000	19.8	3	1
03/01/06	1:42 p	-18.0	-18.0	-18.0	---	---	5.2	N	0.09	6.1	-24.6	---	---	736.4	0.025	0.000	19.8	3	1
03/01/06	1:43 p	-17.9	-17.9	-17.9	---	---	5.2	N	0.09	5.2	-24.5	---	---	736.4	0.025	0.000	19.8	3	1
03/01/06	1:44 p	-17.9	-17.9	-17.9	---	---	5.2	N	0.09	6.1	-24.5	---	---	736.3	0.025	0.000	19.8	3	1
03/01/06	1:45 p	-17.9	-17.9	-17.9	---	---	5.2	N	0.09	6.1	-24.4	---	---	736.4	0.025	0.000	19.8	3	1
03/01/06	1:46 p	-17.9	-17.9	-17.9	---	---	6.1	N	0.10	6.1	-25.1	---	---	736.2	0.025	0.000	19.8	3	1
03/01/06	1:47 p	-17.9	-17.9	-17.9	---	---	6.1	N	0.10	6.1	-25.1	---	---	736.2	0.025	0.000	19.8	3	1
03/01/06	1:48 p	-17.9	-17.8	-17.9	---	---	5.2	N	0.09	5.2	-24.4	---	---	736.2	0.025	0.000	19.8	3	1
03/01/06	1:49 p	-17.8	-17.8	-17.8	---	---	5.2	N	0.09	5.2	-24.4	---	---	736.3	0.025	0.000	19.8	3	1
03/01/06	1:50 p	-17.8	-17.8	-17.8	---	---	5.2	N	0.09	6.1	-24.4	---	---	736.3	0.025	0.000	19.8	3	1
03/01/06	1:51 p	-17.8	-17.8	-17.8	---	---	6.1	N	0.10	6.1	-25.1	---	---	736.3	0.025	0.000	19.8	3	1
03/01/06	1:52 p	-17.8	-17.8	-17.8	---	---	5.2	N	0.09	5.2	-24.3	---	---	736.4	0.025	0.000	19.8	3	1
03/01/06	1:53 p	-17.8	-17.8	-17.8	---	---	5.2	N	0.09	5.2	-24.3	---	---	736.3	0.025	0.000	19.8	3	1
03/01/06	1:54 p	-17.8	-17.8	-17.8	---	---	4.3	N	0.07	5.2	-23.6	---	---	736.3	0.025	0.000	19.8	3	1
03/01/06	1:55 p	-17.8	-17.7	-17.8	---	---	4.3	N	0.07	5.2	-23.6	---	---	736.4	0.025	0.000	19.8	3	1
03/01/06	1:56 p	-17.7	-17.7	-17.7	---	---	3.5	N	0.06	4.3	-22.6	---	---	736.3	0.025	0.000	19.8	3	1
03/01/06	1:57 p	-17.7	-17.7	-17.7	---	---	2.6	N	0.04	3.5	-21.5	---	---	736.3	0.025	0.000	19.8	3	1
03/01/06	1:58 p	-17.7	-17.7	-17.7	---	---	2.6	N	0.04	3.5	-21.5	---	---	736.3	0.025	0.000	19.8	3	1
03/01/06	1:59 p	-17.7	-17.7	-17.7	---	---	3.5	N	0.06	4.3	-22.6	---	---	736.3	0.025	0.000	19.8	3	1
03/01/06	2:00 p	-17.7	-17.7	-17.7	---	---	3.5	N	0.06	3.5	-22.6	---	---	736.3	0.025	0.000	19.8	3	1
03/01/06	2:01 p	-17.7	-17.7	-17.7	---	---	3.5	N	0.06	3.5	-22.6	---	---	736.3	0.025	0.000	19.8	3	1
03/01/06	2:02 p	-17.7	-17.6	-17.7	---	---	2.6	N	0.04	3.5	-21.4	---	---	736.3	0.025	0.000	19.8	3	1
03/01/06	2:03 p	-17.6	-17.6	-17.6	---	---	2.6	N	0.04	2.6	-21.3	---	---	736.3	0.025	0.000	19.8	3	1
03/01/06	2:04 p	-17.6	-17.6	-17.6	---	---	2.6	N	0.04	2.6	-21.3	---	---	736.3	0.025	0.000	19.8	3	1
03/01/06	2:05 p	-17.6	-17.6	-17.6	---	---	3.5	N	0.06	3.5	-22.4	---	---	736.3	0.025	0.000	19.8	3	1
03/01/06	2:06 p	-17.6	-17.6	-17.6	---	---	4.3	N	0.07	4.3	-23.4	---	---	736.3	0.025	0.000	19.8	3	1
03/01/06	2:07 p	-17.6	-17.6	-17.6	---	---	3.5	N	0.06	3.5	-22.4	---	---	736.4	0.025	0.000	19.8	3	1
03/01/06	2:08 p	-17.6	-17.6	-17.6	---	---	2.6	N	0.04	3.5	-21.3	---	---	736.4	0.025	0.000	19.8	3	1
03/01/06	2:09 p	-17.6	-17.6	-17.6	---	---	2.6	N	0.04	2.6	-21.3	---	---	736.4	0.025	0.000	19.8	3	1
03/01/06	2:10 p	-17.6	-17.6	-17.6	---	---	2.6	N	0.04	2.6	-21.3	---	---	736.3	0.025	0.000	19.8	3	1
03/01/06	2:11 p	-17.6	-17.6	-17.6	---	---	2.6	N	0.04	3.5	-21.3	---	---	736.4	0.025	0.000	19.8	3	1
03/01/06	2:12 p	-17.5	-17.5	-17.6	---	---	2.6	N	0.04	3.5	-21.2	---	---	736.3	0.025	0.000	19.8	3	1
03/01/06	2:13 p	-17.5	-17.5	-17.6	---	---	2.6	N	0.04	2.6	-21.2	---	---	736.5	0.025	0.000	19.8	3	1
03/01/06	2:14 p	-17.5	-17.5	-17.5	---	---	2.6	N	0.04	2.6	-21.2	---	---	736.3	0.025	0.000	19.8	3	1
03/01/06	2:15 p	-17.5	-17.4	-17.5	---	---	2.6	N	0.04	2.6	-21.2	---	---	736.4	0.025	0.000	19.8	3	1
03/01/06	2:16 p	-17.5	-17.5	-17.5	---	---	2.6	N	0.04	2.6	-21.2	---	---	736.4	0.025	0.000	19.8	3	1
03/01/06	2:17 p	-17.4	-17.4	-17.5	---	---	1.7	N	0.03	2.6	-19.7	---	---	736.3	0.025	0.000	19.8	3	1
03/01/06	2:18 p	-17.4	-17.4	-17.4	---	---	1.7	N	0.03	1.7	-19.7	---	---	736.3	0.025	0.000	19.8	3	1
03/01/06	2:19 p	-17.4	-17.4	-17.4	---	---	1.7	N	0.03	2.6	-19.7	---	---	736.4	0.025	0.000	19.8	3	1
03/01/06	2:20 p	-17.4	-17.4	-17.4	---	---	1.7	N	0.03	2.6	-19.7	---	---	736.4	0.025	0.000	19.8	3	1
03/01/06	2:21 p	-17.4	-17.4	-17.4	---	---	2.6	N	0.04	3.5	-21.2	---	---	736.4	0.025	0.000	19.8	3	1
03/01/06	2:22 p	-17.4	-17.4	-17.4	---	---	3.5	N	0.06	3.5	-22.2	---	---	736.4	0.025	0.000	19.8	3	1
03/01/06	2:23 p	-17.4	-17.4	-17.4	---	---	3.5	N	0.06	3.5	-22.3	---	---	736.3	0.025	0.000	19.7	3	1
03/01/06	2:24 p	-17.4	-17.4	-17.4	---	---	3.5	N	0.06	3.5	-22.2	---	---	736.4	0.025	0.000	19.7	3	1
03/01/06	2:25 p	-17.4	-17.4	-17.4	---	---	3.5	N	0.06	4.3	-22.2	---	---	736.3	0.025	0.000	19.7	3	1
03/01/06	2:26 p	-17.4	-17.4	-17.4	---	---	3.5	N	0.06	4.3	-22.2	---	---	736.4	0.025	0.000	19.7	3	1
03/01/06	2:27 p	-17.4	-17.4	-17.4	---	---	3.5	N	0.06	3.5	-22.2	---	---	736.5	0.025	0.000	19.7	3	1
03/01/06	2:28 p	-17.4	-17.4	-17.4	---	---	2.6	N	0.04	3.5	-21.1	---	---	736.4	0.025	0.000	19.7	3	1
03/01/06	2:29 p	-17.4	-17.3	-17.4	---	---	2.6	N	0.04	3.5	-21.1	---	---	736.3	0.025	0.000	19.7	3	1
03/01/06	2:30 p	-17.4	-17.3	-17.4	---	---	2.6	N	0.04	3.5	-21.1	---	---	736.3	0.025	0.000	19.7	3	1
03/01/06	2:31 p	-17.4	-17.3	-17.4	---	---	2.6	N	0.04	2.6	-21.1	---	---	736.3	0.025	0.000	19.7	3	1
03/01/06	2:32 p	-17.4	-17.4	-17.4	---	---	2.6	N	0.04	2.6	-21.1	---	---	736.3	0.025	0.000	19.7	3	1
03/01/06	2:33 p	-17.4	-17.3	-17.4	---	---	2.6	N	0.04	2.6	-21.1	---	---	736.3	0.025	0.000	19.7	3	1
03/01/06	2:34 p	-17.4	-17.4	-17.4	---	---	2.6	N	0.04	2.6	-21.1	---	---	736.3	0.025	0.000	19.7	3	1
03/01/06	2:35 p	-17.4	-17.3	-17.4	---	---	1.7	N	0.03	2.6	-19.6	---	---	736.3	0.025	0.000	19.7	3	1
03/01/06	2:36 p	-17.4	-17.3	-17.4	---	---	2.6	N	0.04	2.6	-21.1	---	---	736.2	0.025	0.000	19.7	3	1
03/01/06	2:37 p	-17.4	-17.4	-17.4	---	---	1.7	N	0.03	2.6	-19.6	---	---	736.3	0.025	0.000	19.7	3	1
03/01/06	2:38 p	-17.4	-17.3	-17.4	---	---	1.7	N	0.03	2.6	-19.6	---	---	736.3	0.025	0.000	19.7	3	1
03/01/06	2:39 p	-17.4	-17.4	-17.4	---	---	1.7	N	0.03	2.6	-19.6	---	---	736.3	0.025	0.000	19.7	3	1
03/01/06	2:40 p	-17.4	-17.4	-17.4	---	---	1.7	N	0.03	1.7	-19.6	---	---	736.3	0.025	0.000	19.7	3	1
03/01/06	2:41 p	-17.4	-17.3	-17.4	---	---	1.7	N	0.03	3.5	-19.6	---	---	736.2	0.025	0.000	19.7	3	1
03/01/06	2:42 p	-17.4	-17.4	-17.4	---	---	1.7	N	0.03	2.6	-19.6	---	---	736.2	0.025	0.000	19.7	3	1
03/01/06	2:43 p	-17.4	-17.4	-17.4	---	---	1.7	N	0.03	2.6	-19.6	---	---	736.3	0.025	0.000	19.7	3	1
03/01/06	2:44 p	-17.4	-17.3	-17.4	---	---	1.7	N	0.03	2.6	-19.6	---	---	736.3	0.025	0.000	19.7	3	1
03/01/06	2:45 p	-17.4	-17.4	-17.4	---	---	1.7	N	0.03	2.6	-19.6	---	---	736.3	0.025	0.000	19.7	3	1
03/01/06	2:46 p	-17.4	-17.3	-17.4	---	---	1.7	N	0.03	2.6	-19.6	---	---	736.3	0.025	0.000	19.7	3	1
03/01/06	2:47 p	-17.4	-17.4	-17.4	---	---	1.7	N	0.03	1.7	-19.6	---	---	736.3	0.025	0.000	19.7	3	1
03/01/06	2:48 p	-17.4	-17.3	-17.4	---	---	1.7	N	0.03	2.6	-19.6	---	---	736.3	0.025	0.000	19.8	3	1
03/01/06	2:49 p	-17.4	-17.4	-17.4	---	---	1.7	N	0.03	2.6	-19.6	---	---	736.3	0.025	0.000	19.8	3	1
03/01/06	2:50 p	-17.3	-17.3	-17.4	---	---	1.7	N	0.03	1.7	-19.6	---	---	736.3	0.025	0.000	19.8	3	1
03/01/06	2:51 p	-17.4	-17.3	-17.4	---	---	1.7	N	0.03	1.7	-19.6	---	---	736.4	0.025	0.000	19.8	3	1
03/01/06	2:52 p	-17.4	-17.3	-17.4	---	---	1.7	N	0.03	1.7	-19.6	---	---	736.3	0.025	0.000	19.8	3	1
03/01/06	2:53 p	-17.3	-17.3	-17.4	---	---	0.9	N	0.01	1.7	-17.3	---	---	736.3	0.025	0.000	19.8	3	1
03/01/06	2:54 p	-17.4	-17.3	-17.4	---	---	0.9	N	0.01	1.7	-17.4	---	---	736.3	0.025	0.000	19.8	3	1
03/01/06	2:55 p	-17.4	-17.3	-17.4	---	---	0.9	N	0.01	1.7	-17.4	---	---	736.3	0.025	0.000	19.8	3	1
03/01/06	2:56 p	-17.4	-17.3	-17.4	---	---	0.9	N	0.01	1.7	-17.4	---	---	736.3	0.025	0.000	19.8	3	1
03/01/06	2:57 p	-17.4	-17.4	-17.4	---	---	0.9	N	0.01	1.7	-17.4	---	---	736.3	0.025	0.000	19.8	3	1
03/01/06	2:58 p	-17.4	-17.4	-17.4	---	---	1.7	N	0.03	1.7	-19.6	---	---	736.2	0.025	0.000	19.8	3	1
03/01/06	2:59 p	-17.4	-17.4	-17.4	---	---	0.9	N	0.01	1.7	-17.4	---	---	736.2	0.025	0.000	19.8	3	1
03/01/06	3:00 p	-17.4	-17.4	-17.4	---	---	0.9	N	0.01	1.7	-17.4	---	---	736.1	0.025	0.000	19.8	3	1
03/01/06	3:01 p	-17.4	-17.4	-17.4	---	---	0.9	N	0.01	1.7	-17.4	---	---	736.3	0.025	0.000	19.8	3	1
03/01/06	3:02 p	-17.4	-17.4	-17.4	---	---	0.9	N	0.01	1.7	-17.4	---	---	736.1	0.025	0.000	19.8	3	1
03/01/06	3:03 p	-17.4	-17.4	-17.4	---	---	1.7	N	0.03	1.7	-19.7	---	---	736.2	0.025	0.000	19.8	3	1
03/01/06	3:04 p	-17.4	-17.4	-17.5	---	---	0.9	N	0.01	1.7	-17.4	---	---	736.2	0.025	0.000	19.8	3	1
03/01/06	3:05 p	-17.5	-17.5	-17.5	---	---	1.7	N	0.03	2.6	-19.8	---	---	736.2	0.025	0.000	19.8	3	1
03/01/06	3:06 p	-17.5	-17.5	-17.5	---	---	0.9	N	0.01	1.7	-17.5	---	---	736.2	0.025	0.000	19.8	3	1
03/01/06	3:07 p	-17.5	-17.5	-17.6	---	---	0.0	N	0.00	0.9	-17.5	---	---	736.1	0.025	0.000	19.8	3	1
03/01/06	3:08 p	-17.6	-17.5	-17.6	---	---	0.9	N	0.01	0.9	-17.6	---	---	736.2	0.025	0.000	19.8	3	1
03/01/06	3:09 p	-17.6	-17.6	-17.6	---	---	0.9	N	0.01	1.7	-17.6	---	---	736.2	0.025	0.000	19.8	3	1
03/01/06	3:10 p	-17.6	-17.6	-17.6	---	---	1.7	N	0.03	1.7	-19.8	---	---	736.2	0.025	0.000	19.7	3	1
03/01/06	3:11 p	-17.6	-17.6	-17.6	---	---	1.7	N	0.03	1.7	-19.8	---	---	736.1	0.025	0.000	19.7	3	1
03/01/06	3:12 p	-17.6	-17.6	-17.6	---	---	1.7	N	0.03	3.5	-19.9	---	---	736.2	0.025	0.000	19.7	3	1
03/01/06	3:13 p	-17.6	-17.6	-17.7	---	---	7.0	WSW	0.12	8.7	-25.4	---	---	736.3	0.025	0.000	19.7	3	1
03/01/06	3:14 p	-17.7	-17.7	-17.7	---	---	5.2	WSW	0.09	7.0	-24.2	---	---	736.3	0.025	0.000	19.7	3	1
03/01/06	3:15 p	-17.8	-17.7	-17.8	---	---	3.5	WSW	0.06	5.2	-22.7	---	---	736.3	0.025	0.000	19.7	3	1
03/01/06	3:16 p	-17.9	-17.8	-17.9	---	---	2.6	WSW	0.04	2.6	-21.7	---	---	736.3	0.025	0.000	19.7	3	1
03/01/06	3:17 p	-17.9	-17.9	-18.0	---	---	2.6	WSW	0.04	3.5	-21.7	---	---	736.2	0.025	0.000	19.7	3	1
03/01/06	3:18 p	-18.1	-18.0	-18.1	---	---	1.7	WSW	0.03	2.6	-20.4	---	---	736.4	0.025	0.000	19.7	3	1
03/01/06	3:19 p	-18.1	-18.1	-18.2	---	---	1.7	WSW	0.03	2.6	-20.4	---	---	736.2	0.025	0.000	19.7	3	1
03/01/06	3:20 p	-18.2	-18.2	-18.3	---	---	3.5	WSW	0.06	3.5	-23.2	---	---	736.3	0.025	0.000	19.7	3	1
03/01/06	3:21 p	-18.3	-18.3	-18.3	---	---	3.5	WSW	0.06	4.3	-23.2	---	---	736.3	0.025	0.000	19.7	3	1
03/01/06	3:22 p	-18.3	-18.3	-18.4	---	---	4.3	WSW	0.07	5.2	-24.2	---	---	736.3	0.025	0.000	19.7	3	1
03/01/06	3:23 p	-18.4	-18.4	-18.5	---	---	4.3	SW	0.07	5.2	-24.3	---	---	736.4	0.026	0.000	19.7	3	1
03/01/06	3:24 p	-18.5	-18.5	-18.6	---	---	2.6	SW	0.04	3.5	-22.4	---	---	736.4	0.026	0.000	19.7	3	1
03/01/06	3:25 p	-18.6	-18.6	-18.6	---	---	3.5	E	0.06	4.3	-23.6	---	---	736.3	0.026	0.000	19.7	3	1
03/01/06	3:26 p	-18.7	-18.7	-18.7	---	---	3.5	E	0.06	4.3	-23.7	---	---	736.4	0.026	0.000	19.7	3	1
03/01/06	3:27 p	-18.8	-18.7	-18.8	---	---	2.6	E	0.04	3.5	-22.7	---	---	736.3	0.026	0.000	19.7	3	1
03/01/06	3:28 p	-18.8	-18.8	-18.9	---	---	2.6	E	0.04	2.6	-22.7	---	---	736.4	0.026	0.000	19.7	3	1
03/01/06	3:29 p	-18.9	-18.9	-18.9	---	---	2.6	E	0.04	3.5	-22.8	---	---	736.4	0.026	0.000	19.7	3	1
03/01/06	3:30 p	-19.0	-18.9	-19.0	---	---	3.5	E	0.06	4.3	-24.1	---	---	736.5	0.026	0.000	19.7	3	1
03/01/06	3:31 p	-19.1	-19.0	-19.1	---	---	3.5	E	0.06	3.5	-24.1	---	---	736.4	0.026	0.000	19.7	3	1
03/01/06	3:32 p	-19.1	-19.1	-19.2	---	---	2.6	E	0.04	3.5	-23.1	---	---	736.3	0.026	0.000	19.7	3	1
03/01/06	3:33 p	-19.2	-19.2	-19.3	---	---	2.6	E	0.04	3.5	-23.2	---	---	736.3	0.026	0.000	19.8	3	1
03/01/06	3:34 p	-19.3	-19.3	-19.3	---	---	1.7	E	0.03	2.6	-21.7	---	---	736.3	0.026	0.000	19.7	3	1
03/01/06	3:35 p	-19.3	-19.3	-19.4	---	---	0.9	E	0.01	1.7	-19.3	---	---	736.3	0.026	0.000	19.8	3	1
03/01/06	3:36 p	-19.4	-19.4	-19.4	---	---	0.9	E	0.01	1.7	-19.4	---	---	736.4	0.026	0.000	19.8	3	1
03/01/06	3:37 p	-19.5	-19.4	-19.5	---	---	0.0	---	0.00	0.0	-19.4	---	---	736.4	0.026	0.000	19.8	3	1
03/01/06	3:38 p	-19.5	-19.5	-19.6	---	---	0.0	---	0.00	0.0	-19.4	---	---	736.3	0.026	0.000	19.8	3	1
03/01/06	3:39 p	-19.6	-19.5	-19.6	---	---	0.0	---	0.00	0.0	-19.5	---	---	736.3	0.026	0.000	19.8	3	1
03/01/06	3:40 p	-19.6	-19.6	-19.6	---	---	0.0	---	0.00	0.0	-19.6	---	---	736.2	0.026	0.000	19.8	3	1
03/01/06	3:41 p	-19.6	-19.6	-19.7	---	---	0.0	---	0.00	0.0	-19.6	---	---	736.3	0.026	0.000	19.8	3	1
03/01/06	3:42 p	-19.6	-19.6	-19.7	---	---	0.0	---	0.00	0.0	-19.6	---	---	736.4	0.026	0.000	19.8	3	1
03/01/06	3:43 p	-19.7	-19.7	-19.7	---	---	0.0	---	0.00	0.0	-19.6	---	---	736.3	0.026	0.000	19.8	3	1
03/01/06	3:44 p	-19.7	-19.7	-19.8	---	---	0.0	---	0.00	0.0	-19.7	---	---	736.1	0.026	0.000	19.8	3	1
03/01/06	3:45 p	-19.8	-19.8	-19.8	---	---	0.0	---	0.00	0.0	-19.7	---	---	736.2	0.026	0.000	19.8	3	1
03/01/06	3:46 p	-19.8	-19.8	-19.8	---	---	0.0	---	0.00	0.0	-19.8	---	---	736.2	0.027	0.000	19.8	3	1
03/01/06	3:47 p	-19.8	-19.8	-19.8	---	---	0.0	---	0.00	0.0	-19.8	---	---	736.3	0.027	0.000	19.8	3	1
03/01/06	3:48 p	-19.8	-19.8	-19.8	---	---	0.0	---	0.00	0.0	-19.8	---	---	736.3	0.027	0.000	19.8	3	1
03/01/06	3:49 p	-19.8	-19.8	-19.9	---	---	0.0	---	0.00	0.0	-19.8	---	---	736.2	0.027	0.000	19.8	3	1
03/01/06	3:50 p	-19.9	-19.8	-19.9	---	---	0.0	---	0.00	0.0	-19.8	---	---	736.3	0.027	0.000	19.8	3	1
03/01/06	3:51 p	-19.9	-19.8	-19.9	---	---	0.9	E	0.01	0.9	-19.9	---	---	736.2	0.027	0.000	19.8	3	1
03/01/06	3:52 p	-19.9	-19.9	-19.9	---	---	0.9	E	0.01	0.9	-19.9	---	---	736.2	0.027	0.000	19.8	3	1
03/01/06	3:53 p	-19.9	-19.9	-19.9	---	---	0.0	---	0.00	0.0	-19.8	---	---	736.2	0.027	0.000	19.8	3	1
03/01/06	3:54 p	-19.9	-19.9	-19.9	---	---	0.0	---	0.00	0.0	-19.9	---	---	736.2	0.027	0.000	19.8	3	1
03/01/06	3:55 p	-19.9	-19.9	-19.9	---	---	0.0	---	0.00	0.0	-19.9	---	---	736.3	0.027	0.000	19.8	3	1
03/01/06	3:56 p	-19.9	-19.9	-19.9	---	---	0.0	---	0.00	0.0	-19.9	---	---	736.3	0.027	0.000	19.8	3	1
03/01/06	3:57 p	-19.9	-19.9	-19.9	---	---	0.0	---	0.00	0.0	-19.9	---	---	736.2	0.027	0.000	19.8	3	1
03/01/06	3:58 p	-19.9	-19.9	-19.9	---	---	0.0	---	0.00	0.0	-19.9	---	---	736.3	0.027	0.000	19.8	3	1
03/01/06	3:59 p	-19.9	-19.9	-19.9	---	---	0.0	---	0.00	0.0	-19.9	---	---	736.3	0.027	0.000	19.8	3	1
03/01/06	4:00 p	-19.9	-19.9	-19.9	---	---	0.0	---	0.00	0.0	-19.9	---	---	736.3	0.027	0.000	19.8	3	1
03/01/06	4:01 p	-19.9	-19.9	-19.9	---	---	0.0	E	0.00	0.9	-19.9	---	---	736.3	0.027	0.000	19.8	3	1
03/01/06	4:02 p	-19.9	-19.9	-19.9	---	---	0.0	---	0.00	0.0	-19.8	---	---	736.3	0.027	0.000	19.8	3	1
03/01/06	4:03 p	-19.9	-19.8	-19.9	---	---	0.0	---	0.00	0.0	-19.8	---	---	736.3	0.027	0.000	19.8	3	1
03/01/06	4:04 p	-19.9	-19.9	-19.9	---	---	0.0	---	0.00	0.0	-19.8	---	---	736.3	0.027	0.000	19.8	3	1
03/01/06	4:05 p	-19.9	-19.8	-19.9	---	---	0.0	---	0.00	0.0	-19.8	---	---	736.3	0.027	0.000	19.8	3	1
03/01/06	4:06 p	-19.8	-19.8	-19.8	---	---	0.0	---	0.00	0.0	-19.8	---	---	736.3	0.027	0.000	19.7	3	1
03/01/06	4:07 p	-19.8	-19.8	-19.8	---	---	0.0	---	0.00	0.0	-19.8	---	---	736.3	0.027	0.000	19.7	3	1
03/01/06	4:08 p	-19.8	-19.8	-19.8	---	---	0.0	---	0.00	0.0	-19.8	---	---	736.3	0.027	0.000	19.7	3	1
03/01/06	4:09 p	-19.8	-19.7	-19.8	---	---	0.9	E	0.01	0.9	-19.8	---	---	736.4	0.026	0.000	19.7	3	1
03/01/06	4:10 p	-19.7	-19.7	-19.8	---	---	0.0	E	0.00	0.9	-19.7	---	---	736.4	0.026	0.000	19.7	3	1
03/01/06	4:11 p	-19.7	-19.7	-19.7	---	---	0.0	E	0.00	0.9	-19.7	---	---	736.3	0.026	0.000	19.7	3	1
03/01/06	4:12 p	-19.7	-19.7	-19.7	---	---	0.0	---	0.00	0.9	-19.6	---	---	736.3	0.026	0.000	19.7	3	1
03/01/06	4:13 p	-19.7	-19.6	-19.7	---	---	0.0	---	0.00	0.0	-19.6	---	---	736.3	0.026	0.000	19.7	3	1
03/01/06	4:14 p	-19.6	-19.6	-19.7	---	---	0.0	E	0.00	0.9	-19.6	---	---	736.4	0.026	0.000	19.7	3	1
03/01/06	4:15 p	-19.6	-19.6	-19.6	---	---	0.9	E	0.01	0.9	-19.7	---	---	736.3	0.026	0.000	19.7	3	1
03/01/06	4:16 p	-19.6	-19.6	-19.6	---	---	0.0	E	0.00	0.9	-19.6	---	---	736.3	0.026	0.000	19.7	3	1
03/01/06	4:17 p	-19.6	-19.6	-19.6	---	---	0.0	---	0.00	0.0	-19.6	---	---	736.3	0.026	0.000	19.7	3	1
03/01/06	4:18 p	-19.6	-19.5	-19.6	---	---	0.9	E	0.01	0.9	-19.6	---	---	736.4	0.026	0.000	19.7	3	1
03/01/06	4:19 p	-19.5	-19.5	-19.5	---	---	0.9	E	0.01	1.7	-19.6	---	---	736.3	0.026	0.000	19.8	3	1
03/01/06	4:20 p	-19.5	-19.5	-19.5	---	---	0.9	E	0.01	1.7	-19.6	---	---	736.3	0.026	0.000	19.8	3	1
03/01/06	4:21 p	-19.5	-19.4	-19.5	---	---	0.9	E	0.01	1.7	-19.6	---	---	736.4	0.026	0.000	19.8	3	1
03/01/06	4:22 p	-19.4	-19.4	-19.4	---	---	0.9	E	0.01	1.7	-19.5	---	---	736.3	0.026	0.000	19.8	3	1
03/01/06	4:23 p	-19.4	-19.4	-19.4	---	---	0.9	E	0.01	0.9	-19.4	---	---	736.4	0.026	0.000	19.8	3	1
03/01/06	4:24 p	-19.3	-19.3	-19.4	---	---	0.9	E	0.01	1.7	-19.3	---	---	736.3	0.026	0.000	19.8	3	1
03/01/06	4:25 p	-19.3	-19.3	-19.3	---	---	0.9	E	0.01	0.9	-19.3	---	---	736.3	0.026	0.000	19.8	3	1
03/01/06	4:26 p	-19.3	-19.3	-19.3	---	---	0.9	E	0.01	1.7	-19.3	---	---	736.3	0.026	0.000	19.8	3	1
03/01/06	4:27 p	-19.3	-19.3	-19.3	---	---	0.9	E	0.01	1.7	-19.3	---	---	736.3	0.026	0.000	19.8	3	1
03/01/06	4:28 p	-19.3	-19.2	-19.3	---	---	1.7	E	0.03	1.7	-21.7	---	---	736.3	0.026	0.000	19.8	3	1
03/01/06	4:29 p	-19.2	-19.2	-19.2	---	---	1.7	E	0.03	1.7	-21.7	---	---	736.3	0.026	0.000	19.8	3	1
03/01/06	4:30 p	-19.2	-19.2	-19.2	---	---	1.7	E	0.03	2.6	-21.6	---	---	736.3	0.026	0.000	19.8	3	1
03/01/06	4:31 p	-19.1	-19.1	-19.1	---	---	2.6	E	0.04	3.5	-23.1	---	---	736.1	0.026	0.000	19.8	3	1
03/01/06	4:32 p	-19.1	-19.1	-19.1	---	---	3.5	E	0.06	3.5	-24.1	---	---	736.2	0.026	0.000	19.8	3	1
03/01/06	4:33 p	-19.1	-19.0	-19.1	---	---	3.5	ENE	0.06	4.3	-24.1	---	---	736.2	0.026	0.000	19.8	3	1
03/01/06	4:34 p	-19.0	-18.9	-19.0	---	---	4.3	ENE	0.07	4.3	-25.0	---	---	736.2	0.026	0.000	19.8	3	1
03/01/06	4:35 p	-18.9	-18.9	-19.0	---	---	3.5	NE	0.06	4.3	-24.0	---	---	736.2	0.026	0.000	19.8	3	1
03/01/06	4:36 p	-18.9	-18.9	-18.9	---	---	3.5	NE	0.06	4.3	-24.0	---	---	736.2	0.026	0.000	19.8	3	1
03/01/06	4:37 p	-18.9	-18.9	-18.9	---	---	3.5	NE	0.06	4.3	-23.9	---	---	736.2	0.026	0.000	19.8	3	1
03/01/06	4:38 p	-18.8	-18.8	-18.9	---	---	3.5	NNE	0.06	4.3	-23.9	---	---	736.1	0.026	0.000	19.8	3	1
03/01/06	4:39 p	-18.8	-18.8	-18.8	---	---	4.3	NNE	0.07	5.2	-24.7	---	---	736.2	0.026	0.000	19.8	3	1
03/01/06	4:40 p	-18.8	-18.7	-18.8	---	---	4.3	N	0.07	6.1	-24.7	---	---	736.0	0.026	0.000	19.8	3	1
03/01/06	4:41 p	-18.7	-18.7	-18.7	---	---	4.3	NNW	0.07	6.1	-24.7	---	---	736.1	0.026	0.000	19.8	3	1
03/01/06	4:42 p	-18.7	-18.7	-18.7	---	---	2.6	NNW	0.04	3.5	-22.6	---	---	736.1	0.026	0.000	19.8	3	1
03/01/06	4:43 p	-18.6	-18.6	-18.7	---	---	3.5	NNW	0.06	4.3	-23.6	---	---	736.2	0.026	0.000	19.8	3	1
03/01/06	4:44 p	-18.6	-18.6	-18.6	---	---	4.3	NNW	0.07	5.2	-24.6	---	---	736.1	0.026	0.000	19.8	3	1
03/01/06	4:45 p	-18.6	-18.6	-18.6	---	---	4.3	NNW	0.07	5.2	-24.6	---	---	736.2	0.026	0.000	19.8	3	1
03/01/06	4:46 p	-18.6	-18.5	-18.6	---	---	4.3	NNW	0.07	5.2	-24.5	---	---	736.2	0.026	0.000	19.8	3	1
03/01/06	4:47 p	-18.5	-18.4	-18.5	---	---	5.2	NNW	0.09	6.1	-25.2	---	---	736.1	0.026	0.000	19.8	3	1
03/01/06	4:48 p	-18.4	-18.4	-18.4	---	---	5.2	NNW	0.09	6.1	-25.1	---	---	736.3	0.026	0.000	19.8	3	1
03/01/06	4:49 p	-18.4	-18.4	-18.4	---	---	6.1	NNW	0.10	7.0	-25.7	---	---	736.2	0.026	0.000	19.8	3	1
03/01/06	4:50 p	-18.4	-18.4	-18.4	---	---	5.2	NNW	0.09	6.1	-25.1	---	---	736.2	0.026	0.000	19.8	3	1
03/01/06	4:51 p	-18.4	-18.3	-18.4	---	---	6.1	NNW	0.10	7.0	-25.7	---	---	736.2	0.026	0.000	19.8	3	1
03/01/06	4:52 p	-18.3	-18.3	-18.3	---	---	7.0	NNW	0.12	7.8	-26.2	---	---	736.2	0.025	0.000	19.8	3	1
03/01/06	4:53 p	-18.3	-18.3	-18.3	---	---	7.0	NNW	0.12	7.8	-26.2	---	---	736.2	0.025	0.000	19.8	3	1
03/01/06	4:54 p	-18.3	-18.3	-18.3	---	---	7.0	NNW	0.12	7.8	-26.2	---	---	736.1	0.025	0.000	19.7	3	1
03/01/06	4:55 p	-18.3	-18.3	-18.3	---	---	7.0	NNW	0.12	7.8	-26.2	---	---	736.1	0.025	0.000	19.8	3	1
03/01/06	4:56 p	-18.3	-18.2	-18.3	---	---	7.0	NNW	0.12	7.8	-26.2	---	---	736.2	0.025	0.000	19.8	3	1
03/01/06	4:57 p	-18.2	-18.2	-18.3	---	---	7.0	NNW	0.12	7.8	-26.1	---	---	736.0	0.025	0.000	19.7	3	1
03/01/06	4:58 p	-18.2	-18.2	-18.2	---	---	7.0	NNW	0.12	7.8	-26.1	---	---	736.1	0.025	0.000	19.7	3	1
03/01/06	4:59 p	-18.2	-18.2	-18.2	---	---	7.0	NNW	0.12	7.8	-26.1	---	---	736.1	0.025	0.000	19.7	3	1
03/01/06	5:00 p	-18.2	-18.2	-18.2	---	---	7.0	NNW	0.12	7.0	-26.1	---	---	736.1	0.025	0.000	19.7	3	1
03/01/06	5:01 p	-18.2	-18.2	-18.2	---	---	7.0	NNW	0.12	7.0	-26.1	---	---	736.1	0.025	0.000	19.7	3	1
03/01/06	5:02 p	-18.2	-18.2	-18.2	---	---	7.0	NNW	0.12	7.0	-26.1	---	---	736.1	0.025	0.000	19.7	3	1
03/01/06	5:03 p	-18.2	-18.2	-18.2	---	---	7.0	NNW	0.12	7.0	-26.1	---	---	736.1	0.025	0.000	19.7	3	1
03/01/06	5:04 p	-18.2	-18.2	-18.2	---	---	6.1	NNW	0.10	7.0	-25.4	---	---	736.1	0.025	0.000	19.7	3	1
03/01/06	5:05 p	-18.2	-18.2	-18.2	---	---	6.1	NNW	0.10	7.0	-25.5	---	---	736.1	0.025	0.000	19.7	3	1
03/01/06	5:06 p	-18.2	-18.2	-18.2	---	---	6.1	NNW	0.10	6.1	-25.4	---	---	736.1	0.025	0.000	19.7	3	1
03/01/06	5:07 p	-18.2	-18.2	-18.2	---	---	6.1	NNW	0.10	7.0	-25.4	---	---	736.1	0.025	0.000	19.7	3	1
03/01/06	5:08 p	-18.2	-18.2	-18.2	---	---	5.2	NNW	0.09	6.1	-24.8	---	---	736.2	0.025	0.000	19.8	3	1
03/01/06	5:09 p	-18.2	-18.2	-18.2	---	---	5.2	NNW	0.09	6.1	-24.8	---	---	736.3	0.025	0.000	19.8	3	1
03/01/06	5:10 p	-18.2	-18.2	-18.2	---	---	4.3	NNW	0.07	5.2	-24.0	---	---	736.2	0.025	0.000	19.8	3	1
03/01/06	5:11 p	-18.2	-18.2	-18.2	---	---	3.5	NNW	0.06	4.3	-23.1	---	---	736.3	0.025	0.000	19.7	3	1
03/01/06	5:12 p	-18.2	-18.2	-18.2	---	---	4.3	NNW	0.07	4.3	-24.0	---	---	736.2	0.025	0.000	19.8	3	1
03/01/06	5:13 p	-18.2	-18.2	-18.2	---	---	3.5	NNW	0.06	4.3	-23.1	---	---	736.3	0.025	0.000	19.7	3	1
03/01/06	5:14 p	-18.2	-18.2	-18.2	---	---	3.5	NNW	0.06	4.3	-23.1	---	---	736.3	0.025	0.000	19.8	3	1
03/01/06	5:15 p	-18.2	-18.2	-18.2	---	---	3.5	NNW	0.06	4.3	-23.2	---	---	736.4	0.025	0.000	19.7	3	1
03/01/06	5:16 p	-18.2	-18.2	-18.2	---	---	3.5	NNW	0.06	4.3	-23.2	---	---	736.3	0.025	0.000	19.8	3	1
03/01/06	5:17 p	-18.2	-18.2	-18.2	---	---	3.5	NNW	0.06	4.3	-23.2	---	---	736.3	0.025	0.000	19.8	3	1
03/01/06	5:18 p	-18.2	-18.2	-18.2	---	---	4.3	NNW	0.07	5.2	-24.1	---	---	736.3	0.025	0.000	19.8	3	1
03/01/06	5:19 p	-18.2	-18.2	-18.2	---	---	4.3	NNW	0.07	5.2	-24.1	---	---	736.3	0.025	0.000	19.8	3	1
03/01/06	5:20 p	-18.3	-18.2	-18.3	---	---	4.3	NNW	0.07	5.2	-24.2	---	---	736.3	0.025	0.000	19.8	3	1
03/01/06	5:21 p	-18.3	-18.2	-18.3	---	---	4.3	NNW	0.07	5.2	-24.2	---	---	736.3	0.025	0.000	19.8	3	1
03/01/06	5:22 p	-18.3	-18.3	-18.3	---	---	5.2	NNW	0.09	6.1	-24.9	---	---	736.3	0.025	0.000	19.8	3	1
03/01/06	5:23 p	-18.3	-18.3	-18.3	---	---	4.3	NNW	0.07	5.2	-24.2	---	---	736.4	0.025	0.000	19.8	3	1
03/01/06	5:24 p	-18.3	-18.3	-18.3	---	---	4.3	NNW	0.07	5.2	-24.2	---	---	736.3	0.025	0.000	19.8	3	1
03/01/06	5:25 p	-18.3	-18.3	-18.3	---	---	5.2	NNW	0.09	7.0	-24.9	---	---	736.1	0.025	0.000	19.8	3	1
03/01/06	5:26 p	-18.3	-18.3	-18.3	---	---	5.2	NNW	0.09	6.1	-24.9	---	---	736.2	0.025	0.000	19.8	3	1
03/01/06	5:27 p	-18.3	-18.3	-18.3	---	---	5.2	NNW	0.09	5.2	-24.9	---	---	736.1	0.025	0.000	19.8	3	1
03/01/06	5:28 p	-18.3	-18.3	-18.3	---	---	5.2	NNW	0.09	6.1	-25.0	---	---	736.2	0.025	0.000	19.8	3	1
03/01/06	5:29 p	-18.3	-18.3	-18.3	---	---	6.1	NNW	0.10	7.0	-25.7	---	---	736.2	0.025	0.000	19.8	3	1
03/01/06	5:30 p	-18.3	-18.3	-18.3	---	---	6.1	NNW	0.10	7.0	-25.7	---	---	736.2	0.025	0.000	19.8	3	1
03/01/06	5:31 p	-18.3	-18.3	-18.3	---	---	6.1	NNW	0.10	7.0	-25.7	---	---	736.2	0.025	0.000	19.8	3	1
03/01/06	5:32 p	-18.3	-18.3	-18.3	---	---	7.0	NNW	0.12	7.8	-26.2	---	---	736.1	0.025	0.000	19.7	3	1
03/01/06	5:33 p	-18.3	-18.3	-18.3	---	---	6.1	NNW	0.10	7.8	-25.7	---	---	736.2	0.025	0.000	19.7	3	1
03/01/06	5:34 p	-18.3	-18.3	-18.3	---	---	6.1	NNW	0.10	7.0	-25.7	---	---	736.2	0.025	0.000	19.7	3	1
03/01/06	5:35 p	-18.3	-18.3	-18.3	---	---	6.1	NNW	0.10	7.0	-25.6	---	---	736.3	0.025	0.000	19.7	3	1
03/01/06	5:36 p	-18.3	-18.3	-18.3	---	---	6.1	NNW	0.10	7.0	-25.6	---	---	736.1	0.025	0.000	19.7	3	1
03/01/06	5:37 p	-18.3	-18.3	-18.3	---	---	6.1	NNW	0.10	7.0	-25.6	---	---	736.2	0.025	0.000	19.7	3	1
03/01/06	5:38 p	-18.3	-18.2	-18.3	---	---	6.1	NNW	0.10	6.1	-25.6	---	---	736.2	0.025	0.000	19.7	3	1
03/01/06	5:39 p	-18.3	-18.2	-18.3	---	---	6.1	NNW	0.10	7.0	-25.6	---	---	736.1	0.025	0.000	19.7	3	1
03/01/06	5:40 p	-18.2	-18.2	-18.3	---	---	4.3	N	0.07	6.1	-24.1	---	---	736.2	0.025	0.000	19.7	3	1
03/01/06	5:41 p	-18.2	-18.2	-18.2	---	---	4.3	N	0.07	6.1	-24.1	---	---	736.2	0.025	0.000	19.7	3	1
03/01/06	5:42 p	-18.2	-18.2	-18.2	---	---	4.3	N	0.07	5.2	-24.0	---	---	736.2	0.025	0.000	19.7	3	1
03/01/06	5:43 p	-18.2	-18.2	-18.2	---	---	4.3	N	0.07	5.2	-24.0	---	---	736.1	0.025	0.000	19.7	3	1
03/01/06	5:44 p	-18.2	-18.1	-18.2	---	---	3.5	N	0.06	4.3	-23.1	---	---	736.2	0.025	0.000	19.7	3	1
03/01/06	5:45 p	-18.1	-18.1	-18.1	---	---	5.2	N	0.09	6.1	-24.7	---	---	736.2	0.025	0.000	19.7	3	1
03/01/06	5:46 p	-18.1	-18.1	-18.1	---	---	6.1	N	0.10	6.1	-25.4	---	---	736.2	0.025	0.000	19.7	3	1
03/01/06	5:47 p	-18.1	-18.1	-18.1	---	---	5.2	N	0.09	7.0	-24.7	---	---	736.2	0.025	0.000	19.7	3	1
03/01/06	5:48 p	-18.1	-18.1	-18.1	---	---	5.2	NNW	0.09	7.0	-24.7	---	---	736.2	0.025	0.000	19.6	3	1
03/01/06	5:49 p	-18.1	-18.1	-18.1	---	---	6.1	NNW	0.10	7.0	-25.3	---	---	736.2	0.025	0.000	19.6	3	1
03/01/06	5:50 p	-18.1	-18.0	-18.1	---	---	6.1	NNW	0.10	7.8	-25.3	---	---	736.2	0.025	0.000	19.6	3	1
03/01/06	5:51 p	-18.1	-18.0	-18.1	---	---	6.1	NNW	0.10	7.0	-25.3	---	---	736.3	0.025	0.000	19.7	3	1
03/01/06	5:52 p	-18.1	-18.0	-18.1	---	---	5.2	NNW	0.09	6.1	-24.7	---	---	736.3	0.025	0.000	19.6	3	1
03/01/06	5:53 p	-18.1	-18.0	-18.1	---	---	5.2	NNW	0.09	7.0	-24.7	---	---	736.2	0.025	0.000	19.7	3	1
03/01/06	5:54 p	-18.0	-18.0	-18.1	---	---	6.1	NNW	0.10	7.0	-25.3	---	---	736.3	0.025	0.000	19.7	3	1
03/01/06	5:55 p	-18.0	-18.0	-18.0	---	---	6.1	NNW	0.10	7.0	-25.3	---	---	736.2	0.025	0.000	19.7	3	1
03/01/06	5:56 p	-18.0	-18.0	-18.0	---	---	5.2	NNW	0.09	7.0	-24.6	---	---	736.2	0.025	0.000	19.7	3	1
03/01/06	5:57 p	-18.0	-18.0	-18.0	---	---	6.1	NNW	0.10	7.8	-25.3	---	---	736.2	0.025	0.000	19.7	3	1
03/01/06	5:58 p	-18.0	-18.0	-18.0	---	---	5.2	NNW	0.09	6.1	-24.6	---	---	736.2	0.025	0.000	19.7	3	1
03/01/06	5:59 p	-18.0	-18.0	-18.1	---	---	5.2	NNW	0.09	6.1	-24.6	---	---	736.2	0.025	0.000	19.7	3	1
03/01/06	6:00 p	-18.0	-18.0	-18.0	---	---	4.3	N	0.07	6.1	-23.8	---	---	736.2	0.025	0.000	19.7	3	1
03/01/06	6:01 p	-18.1	-18.0	-18.1	---	---	4.3	N	0.07	5.2	-23.9	---	---	736.2	0.025	0.000	19.7	3	1
03/01/06	6:02 p	-18.1	-18.1	-18.1	---	---	4.3	N	0.07	6.1	-23.9	---	---	736.2	0.025	0.000	19.7	3	1
03/01/06	6:03 p	-18.1	-18.1	-18.1	---	---	3.5	N	0.06	5.2	-23.0	---	---	736.1	0.025	0.000	19.7	3	1
03/01/06	6:04 p	-18.1	-18.1	-18.1	---	---	4.3	N	0.07	4.3	-23.9	---	---	736.2	0.025	0.000	19.7	3	1
03/01/06	6:05 p	-18.1	-18.1	-18.1	---	---	4.3	N	0.07	5.2	-23.9	---	---	736.2	0.025	0.000	19.7	3	1
03/01/06	6:06 p	-18.1	-18.1	-18.1	---	---	5.2	N	0.09	7.0	-24.7	---	---	736.2	0.025	0.000	19.7	3	1
03/01/06	6:07 p	-18.1	-18.1	-18.1	---	---	5.2	N	0.09	6.1	-24.7	---	---	736.1	0.025	0.000	19.7	3	1
03/01/06	6:08 p	-18.1	-18.1	-18.1	---	---	4.3	N	0.07	6.1	-23.9	---	---	736.2	0.025	0.000	19.7	3	1
03/01/06	6:09 p	-18.1	-18.1	-18.1	---	---	4.3	N	0.07	5.2	-23.9	---	---	736.0	0.025	0.000	19.7	3	1
03/01/06	6:10 p	-18.1	-18.1	-18.1	---	---	5.2	N	0.09	7.0	-24.7	---	---	736.2	0.025	0.000	19.7	3	1
03/01/06	6:11 p	-18.1	-18.1	-18.1	---	---	6.1	NNW	0.10	7.0	-25.3	---	---	736.2	0.025	0.000	19.7	3	1
03/01/06	6:12 p	-18.1	-18.1	-18.1	---	---	6.1	NNW	0.10	7.0	-25.3	---	---	736.1	0.025	0.000	19.7	3	1
03/01/06	6:13 p	-18.1	-18.1	-18.1	---	---	7.0	NNW	0.12	7.8	-25.9	---	---	736.1	0.025	0.000	19.7	3	1
03/01/06	6:14 p	-18.1	-18.1	-18.1	---	---	7.0	NNW	0.12	7.8	-25.9	---	---	736.0	0.025	0.000	19.7	3	1
03/01/06	6:15 p	-18.0	-18.0	-18.1	---	---	7.0	NNW	0.12	7.8	-25.8	---	---	736.1	0.025	0.000	19.7	3	1
03/01/06	6:16 p	-18.0	-18.0	-18.0	---	---	7.0	NNW	0.12	7.8	-25.8	---	---	736.1	0.025	0.000	19.7	3	1
03/01/06	6:17 p	-18.0	-18.0	-18.0	---	---	6.1	NNW	0.10	7.8	-25.3	---	---	736.1	0.025	0.000	19.7	3	1
03/01/06	6:18 p	-17.9	-17.9	-18.0	---	---	6.1	N	0.10	7.0	-25.2	---	---	736.1	0.025	0.000	19.7	3	1
03/01/06	6:19 p	-17.9	-17.9	-17.9	---	---	6.1	N	0.10	7.0	-25.2	---	---	736.1	0.025	0.000	19.7	3	1
03/01/06	6:20 p	-17.9	-17.9	-17.9	---	---	5.2	N	0.09	6.1	-24.5	---	---	736.1	0.025	0.000	19.7	3	1
03/01/06	6:21 p	-17.9	-17.9	-17.9	---	---	5.2	N	0.09	6.1	-24.5	---	---	736.0	0.025	0.000	19.7	3	1
03/01/06	6:22 p	-17.9	-17.9	-17.9	---	---	6.1	N	0.10	7.8	-25.2	---	---	736.0	0.025	0.000	19.7	3	1
03/01/06	6:23 p	-17.9	-17.9	-17.9	---	---	6.1	N	0.10	7.8	-25.1	---	---	736.1	0.025	0.000	19.7	3	1
03/01/06	6:24 p	-17.9	-17.9	-17.9	---	---	7.0	NNW	0.12	8.7	-25.7	---	---	736.1	0.025	0.000	19.7	3	1
03/01/06	6:25 p	-17.9	-17.9	-17.9	---	---	7.0	NNW	0.12	8.7	-25.7	---	---	736.1	0.025	0.000	19.7	3	1
03/01/06	6:26 p	-17.9	-17.9	-17.9	---	---	6.1	N	0.10	7.0	-25.1	---	---	736.0	0.025	0.000	19.7	3	1
03/01/06	6:27 p	-17.9	-17.9	-17.9	---	---	5.2	N	0.09	6.1	-24.4	---	---	736.1	0.025	0.000	19.6	3	1
03/01/06	6:28 p	-17.9	-17.8	-17.9	---	---	6.1	N	0.10	6.1	-25.1	---	---	736.2	0.025	0.000	19.6	3	1
03/01/06	6:29 p	-17.9	-17.9	-17.9	---	---	7.0	N	0.12	8.7	-25.7	---	---	736.2	0.025	0.000	19.6	3	1
03/01/06	6:30 p	-17.9	-17.9	-17.9	---	---	7.8	N	0.13	8.7	-26.2	---	---	736.1	0.025	0.000	19.6	3	1
03/01/06	6:31 p	-17.9	-17.9	-17.9	---	---	7.8	N	0.13	8.7	-26.2	---	---	736.1	0.025	0.000	19.6	3	1
03/01/06	6:32 p	-17.9	-17.9	-17.9	---	---	7.0	N	0.12	7.8	-25.7	---	---	736.2	0.025	0.000	19.6	3	1
03/01/06	6:33 p	-17.9	-17.9	-17.9	---	---	7.0	N	0.12	8.7	-25.7	---	---	736.1	0.025	0.000	19.6	3	1
03/01/06	6:34 p	-17.9	-17.9	-17.9	---	---	7.0	N	0.12	7.8	-25.7	---	---	736.1	0.025	0.000	19.6	3	1
03/01/06	6:35 p	-17.8	-17.8	-17.9	---	---	7.0	N	0.12	8.7	-25.6	---	---	736.1	0.025	0.000	19.6	3	1
03/01/06	6:36 p	-17.9	-17.8	-17.9	---	---	7.0	N	0.12	7.8	-25.7	---	---	736.1	0.025	0.000	19.6	3	1
03/01/06	6:37 p	-17.8	-17.8	-17.9	---	---	6.1	N	0.10	7.0	-25.1	---	---	736.1	0.025	0.000	19.6	3	1
03/01/06	6:38 p	-17.8	-17.8	-17.8	---	---	6.1	N	0.10	7.0	-25.1	---	---	736.0	0.025	0.000	19.6	3	1
03/01/06	6:39 p	-17.8	-17.8	-17.8	---	---	5.2	N	0.09	6.1	-24.4	---	---	736.1	0.025	0.000	19.6	3	1
03/01/06	6:40 p	-17.8	-17.8	-17.8	---	---	5.2	N	0.09	7.0	-24.3	---	---	736.1	0.025	0.000	19.6	3	1
03/01/06	6:41 p	-17.8	-17.7	-17.8	---	---	7.0	NNW	0.12	8.7	-25.6	---	---	736.1	0.025	0.000	19.6	3	1
03/01/06	6:42 p	-17.7	-17.7	-17.8	---	---	6.1	NNW	0.10	8.7	-24.9	---	---	736.1	0.025	0.000	19.6	3	1
03/01/06	6:43 p	-17.7	-17.7	-17.7	---	---	4.3	N	0.07	5.2	-23.5	---	---	736.2	0.025	0.000	19.7	3	1
03/01/06	6:44 p	-17.7	-17.7	-17.7	---	---	6.1	N	0.10	7.8	-24.8	---	---	736.1	0.025	0.000	19.7	3	1
03/01/06	6:45 p	-17.6	-17.6	-17.7	---	---	6.1	NNW	0.10	7.8	-24.8	---	---	736.1	0.025	0.000	19.7	3	1
03/01/06	6:46 p	-17.6	-17.6	-17.7	---	---	5.2	N	0.09	7.0	-24.1	---	---	736.2	0.025	0.000	19.7	3	1
03/01/06	6:47 p	-17.6	-17.6	-17.6	---	---	6.1	N	0.10	9.6	-24.8	---	---	736.1	0.025	0.000	19.7	3	1
03/01/06	6:48 p	-17.6	-17.5	-17.6	---	---	7.8	NNW	0.13	9.6	-25.8	---	---	736.1	0.025	0.000	19.7	3	1
03/01/06	6:49 p	-17.5	-17.5	-17.5	---	---	5.2	NNW	0.09	7.0	-24.0	---	---	736.1	0.025	0.000	19.7	3	1
03/01/06	6:50 p	-17.4	-17.4	-17.5	---	---	5.2	N	0.09	6.1	-23.9	---	---	736.2	0.025	0.000	19.7	3	1
03/01/06	6:51 p	-17.4	-17.4	-17.4	---	---	3.5	N	0.06	5.2	-22.3	---	---	736.2	0.025	0.000	19.7	3	1
03/01/06	6:52 p	-17.3	-17.3	-17.4	---	---	4.3	N	0.07	5.2	-23.1	---	---	736.2	0.025	0.000	19.7	3	1
03/01/06	6:53 p	-17.3	-17.3	-17.3	---	---	4.3	N	0.07	6.1	-23.1	---	---	736.2	0.025	0.000	19.7	3	1
03/01/06	6:54 p	-17.3	-17.3	-17.3	---	---	3.5	N	0.06	4.3	-22.1	---	---	736.2	0.025	0.000	19.7	3	1
03/01/06	6:55 p	-17.3	-17.2	-17.3	---	---	4.3	N	0.07	6.1	-23.0	---	---	736.2	0.025	0.000	19.7	3	1
03/01/06	6:56 p	-17.2	-17.2	-17.2	---	---	4.3	N	0.07	5.2	-22.9	---	---	736.2	0.025	0.000	19.7	3	1
03/01/06	6:57 p	-17.2	-17.2	-17.2	---	---	3.5	N	0.06	4.3	-22.0	---	---	736.2	0.025	0.000	19.8	3	1
03/01/06	6:58 p	-17.2	-17.2	-17.2	---	---	3.5	N	0.06	4.3	-21.9	---	---	736.2	0.025	0.000	19.8	3	1
03/01/06	6:59 p	-17.2	-17.2	-17.2	---	---	3.5	N	0.06	5.2	-21.9	---	---	736.1	0.025	0.000	19.8	3	1
03/01/06	7:00 p	-17.1	-17.1	-17.1	---	---	5.2	N	0.09	7.0	-23.5	---	---	736.2	0.025	0.000	19.8	3	1
03/01/06	7:01 p	-17.1	-17.1	-17.1	---	---	4.3	N	0.07	5.2	-22.8	---	---	736.1	0.025	0.000	19.8	3	1
03/01/06	7:02 p	-17.1	-17.1	-17.1	---	---	5.2	N	0.09	7.0	-23.4	---	---	736.1	0.025	0.000	19.8	3	1
03/01/06	7:03 p	-17.1	-17.1	-17.1	---	---	4.3	N	0.07	6.1	-22.7	---	---	736.2	0.025	0.000	19.8	3	1
03/01/06	7:04 p	-17.1	-17.1	-17.1	---	---	5.2	NNW	0.09	7.0	-23.4	---	---	736.1	0.025	0.000	19.8	3	1
03/01/06	7:05 p	-17.0	-17.0	-17.1	---	---	4.3	N	0.07	5.2	-22.7	---	---	736.2	0.025	0.000	19.8	3	1
03/01/06	7:06 p	-17.0	-17.0	-17.1	---	---	5.2	N	0.09	7.0	-23.4	---	---	736.1	0.025	0.000	19.8	3	1
03/01/06	7:07 p	-17.0	-16.9	-17.0	---	---	5.2	N	0.09	6.1	-23.4	---	---	736.1	0.025	0.000	19.8	3	1
03/01/06	7:08 p	-17.0	-16.9	-17.0	---	---	7.8	N	0.13	8.7	-25.1	---	---	736.0	0.025	0.000	19.8	3	1
03/01/06	7:09 p	-17.0	-16.9	-17.0	---	---	6.1	N	0.10	7.0	-24.1	---	---	736.0	0.025	0.000	19.8	3	1
03/01/06	7:10 p	-16.9	-16.9	-16.9	---	---	6.1	N	0.10	7.0	-24.0	---	---	736.0	0.024	0.000	19.8	3	1
03/01/06	7:11 p	-16.9	-16.9	-17.0	---	---	6.1	N	0.10	7.0	-24.0	---	---	736.1	0.024	0.000	19.8	3	1
03/01/06	7:12 p	-16.9	-16.9	-16.9	---	---	5.2	N	0.09	7.0	-23.3	---	---	736.1	0.024	0.000	19.8	3	1
03/01/06	7:13 p	-17.0	-16.9	-17.0	---	---	5.2	N	0.09	6.1	-23.4	---	---	736.1	0.025	0.000	19.8	3	1
03/01/06	7:14 p	-17.0	-17.0	-17.0	---	---	5.2	N	0.09	6.1	-23.4	---	---	736.0	0.025	0.000	19.8	3	1
03/01/06	7:15 p	-17.0	-17.0	-17.0	---	---	5.2	N	0.09	5.2	-23.4	---	---	736.0	0.025	0.000	19.8	3	1
03/01/06	7:16 p	-17.0	-16.9	-17.0	---	---	4.3	N	0.07	6.1	-22.7	---	---	736.1	0.025	0.000	19.8	3	1
03/01/06	7:17 p	-17.0	-16.9	-17.0	---	---	5.2	N	0.09	7.0	-23.4	---	---	736.1	0.025	0.000	19.8	3	1
03/01/06	7:18 p	-17.0	-17.0	-17.0	---	---	5.2	N	0.09	6.1	-23.4	---	---	736.2	0.025	0.000	19.8	3	1
03/01/06	7:19 p	-17.0	-16.9	-17.0	---	---	4.3	N	0.07	6.1	-22.7	---	---	736.1	0.025	0.000	19.8	3	1
03/01/06	7:20 p	-17.0	-17.0	-17.0	---	---	5.2	N	0.09	5.2	-23.4	---	---	736.1	0.025	0.000	19.7	3	1
03/01/06	7:21 p	-17.0	-17.0	-17.1	---	---	5.2	N	0.09	6.1	-23.4	---	---	736.0	0.025	0.000	19.7	3	1
03/01/06	7:22 p	-17.0	-17.0	-17.1	---	---	5.2	N	0.09	6.1	-23.4	---	---	736.2	0.025	0.000	19.7	3	1
03/01/06	7:23 p	-17.1	-17.0	-17.1	---	---	5.2	N	0.09	7.0	-23.4	---	---	736.1	0.025	0.000	19.7	3	1
03/01/06	7:24 p	-17.1	-17.1	-17.1	---	---	6.1	N	0.10	7.0	-24.1	---	---	736.0	0.025	0.000	19.7	3	1
03/01/06	7:25 p	-17.1	-17.1	-17.1	---	---	5.2	N	0.09	7.0	-23.5	---	---	736.1	0.025	0.000	19.7	3	1
03/01/06	7:26 p	-17.1	-17.1	-17.1	---	---	4.3	N	0.07	5.2	-22.8	---	---	736.1	0.025	0.000	19.7	3	1
03/01/06	7:27 p	-17.1	-17.1	-17.1	---	---	4.3	N	0.07	6.1	-22.8	---	---	736.0	0.025	0.000	19.7	3	1
03/01/06	7:28 p	-17.1	-17.1	-17.1	---	---	5.2	N	0.09	6.1	-23.5	---	---	736.0	0.025	0.000	19.7	3	1
03/01/06	7:29 p	-17.1	-17.1	-17.1	---	---	5.2	N	0.09	6.1	-23.4	---	---	736.1	0.025	0.000	19.7	3	1
03/01/06	7:30 p	-17.1	-17.1	-17.1	---	---	5.2	N	0.09	7.0	-23.5	---	---	736.0	0.025	0.000	19.7	3	1
03/01/06	7:31 p	-17.1	-17.1	-17.1	---	---	6.1	N	0.10	7.0	-24.2	---	---	736.0	0.025	0.000	19.7	3	1
03/01/06	7:32 p	-17.1	-17.1	-17.1	---	---	6.1	N	0.10	7.0	-24.2	---	---	736.1	0.025	0.000	19.7	3	1
03/01/06	7:33 p	-17.1	-17.1	-17.1	---	---	4.3	N	0.07	5.2	-22.7	---	---	736.1	0.025	0.000	19.7	3	1
03/01/06	7:34 p	-17.1	-17.1	-17.1	---	---	4.3	N	0.07	5.2	-22.7	---	---	736.1	0.025	0.000	19.7	3	1
03/01/06	7:35 p	-17.1	-17.1	-17.1	---	---	5.2	N	0.09	6.1	-23.4	---	---	736.2	0.025	0.000	19.7	3	1
03/01/06	7:36 p	-17.1	-17.1	-17.1	---	---	5.2	N	0.09	6.1	-23.4	---	---	736.1	0.025	0.000	19.8	3	1
03/01/06	7:37 p	-17.1	-17.1	-17.1	---	---	4.3	N	0.07	5.2	-22.7	---	---	736.2	0.025	0.000	19.8	3	1
03/01/06	7:38 p	-17.1	-17.0	-17.1	---	---	4.3	N	0.07	6.1	-22.7	---	---	736.1	0.025	0.000	19.8	3	1
03/01/06	7:39 p	-17.0	-17.0	-17.1	---	---	4.3	N	0.07	6.1	-22.7	---	---	736.1	0.025	0.000	19.8	3	1
03/01/06	7:40 p	-17.0	-17.0	-17.1	---	---	5.2	N	0.09	7.0	-23.4	---	---	736.1	0.025	0.000	19.8	3	1
03/01/06	7:41 p	-17.0	-17.0	-17.0	---	---	5.2	N	0.09	7.0	-23.4	---	---	736.1	0.025	0.000	19.8	3	1
03/01/06	7:42 p	-17.0	-17.0	-17.0	---	---	5.2	N	0.09	6.1	-23.4	---	---	736.1	0.025	0.000	19.8	3	1
03/01/06	7:43 p	-17.0	-17.0	-17.0	---	---	5.2	N	0.09	6.1	-23.4	---	---	736.1	0.025	0.000	19.8	3	1
03/01/06	7:44 p	-17.0	-17.0	-17.0	---	---	6.1	N	0.10	7.0	-24.1	---	---	736.1	0.025	0.000	19.8	3	1
03/01/06	7:45 p	-16.9	-16.9	-17.0	---	---	5.2	N	0.09	7.0	-23.3	---	---	736.0	0.024	0.000	19.8	3	1
03/01/06	7:46 p	-16.9	-16.9	-17.0	---	---	5.2	N	0.09	6.1	-23.3	---	---	736.0	0.024	0.000	19.8	3	1
03/01/06	7:47 p	-16.9	-16.9	-17.0	---	---	6.1	N	0.10	6.1	-24.0	---	---	736.0	0.024	0.000	19.8	3	1
03/01/06	7:48 p	-16.9	-16.9	-17.0	---	---	5.2	N	0.09	6.1	-23.3	---	---	736.1	0.024	0.000	19.8	3	1
03/01/06	7:49 p	-16.9	-16.9	-16.9	---	---	5.2	N	0.09	6.1	-23.3	---	---	736.1	0.024	0.000	19.8	3	1
03/01/06	7:50 p	-16.9	-16.9	-16.9	---	---	6.1	N	0.10	7.0	-24.0	---	---	736.0	0.024	0.000	19.8	3	1
03/01/06	7:51 p	-16.9	-16.9	-16.9	---	---	4.3	N	0.07	5.2	-22.5	---	---	736.0	0.024	0.000	19.8	3	1
03/01/06	7:52 p	-16.9	-16.9	-16.9	---	---	5.2	N	0.09	6.1	-23.3	---	---	736.1	0.024	0.000	19.8	3	1
03/01/06	7:53 p	-16.9	-16.9	-16.9	---	---	5.2	N	0.09	6.1	-23.3	---	---	736.1	0.024	0.000	19.8	3	1
03/01/06	7:54 p	-16.9	-16.9	-16.9	---	---	5.2	N	0.09	6.1	-23.3	---	---	736.0	0.024	0.000	19.8	3	1
03/01/06	7:55 p	-16.9	-16.9	-16.9	---	---	6.1	N	0.10	7.0	-23.9	---	---	736.0	0.024	0.000	19.8	3	1
03/01/06	7:56 p	-16.9	-16.8	-16.9	---	---	6.1	N	0.10	7.0	-23.9	---	---	735.9	0.024	0.000	19.8	3	1
03/01/06	7:57 p	-16.8	-16.8	-16.9	---	---	6.1	N	0.10	7.0	-23.8	---	---	736.0	0.024	0.000	19.8	3	1
03/01/06	7:58 p	-16.8	-16.8	-16.9	---	---	6.1	N	0.10	7.0	-23.8	---	---	736.0	0.024	0.000	19.8	3	1
03/01/06	7:59 p	-16.8	-16.8	-16.8	---	---	6.1	N	0.10	7.8	-23.8	---	---	735.9	0.024	0.000	19.8	3	1
03/01/06	8:00 p	-16.8	-16.8	-16.8	---	---	6.1	N	0.10	7.0	-23.8	---	---	736.0	0.024	0.000	19.8	3	1
03/01/06	8:01 p	-16.8	-16.8	-16.8	---	---	6.1	N	0.10	7.0	-23.8	---	---	735.9	0.024	0.000	19.8	3	1
03/01/06	8:02 p	-16.8	-16.8	-16.8	---	---	5.2	N	0.09	6.1	-23.1	---	---	736.0	0.024	0.000	19.8	3	1
03/01/06	8:03 p	-16.8	-16.7	-16.8	---	---	5.2	N	0.09	6.1	-23.1	---	---	735.9	0.024	0.000	19.8	3	1
03/01/06	8:04 p	-16.7	-16.7	-16.7	---	---	5.2	N	0.09	6.1	-23.1	---	---	736.0	0.024	0.000	19.8	3	1
03/01/06	8:05 p	-16.7	-16.7	-16.7	---	---	5.2	N	0.09	6.1	-23.1	---	---	736.0	0.024	0.000	19.8	3	1
03/01/06	8:06 p	-16.7	-16.7	-16.7	---	---	5.2	N	0.09	5.2	-23.0	---	---	736.0	0.024	0.000	19.8	3	1
03/01/06	8:07 p	-16.7	-16.7	-16.7	---	---	5.2	N	0.09	6.1	-23.0	---	---	736.1	0.024	0.000	19.8	3	1
03/01/06	8:08 p	-16.7	-16.6	-16.7	---	---	4.3	N	0.07	5.2	-22.3	---	---	736.0	0.024	0.000	19.8	3	1
03/01/06	8:09 p	-16.6	-16.6	-16.7	---	---	4.3	N	0.07	5.2	-22.2	---	---	735.9	0.024	0.000	19.8	3	1
03/01/06	8:10 p	-16.6	-16.6	-16.6	---	---	5.2	N	0.09	6.1	-22.9	---	---	736.0	0.024	0.000	19.8	3	1
03/01/06	8:11 p	-16.6	-16.6	-16.6	---	---	5.2	N	0.09	5.2	-22.9	---	---	736.0	0.024	0.000	19.8	3	1
03/01/06	8:12 p	-16.6	-16.6	-16.6	---	---	4.3	N	0.07	5.2	-22.2	---	---	736.0	0.024	0.000	19.8	3	1
03/01/06	8:13 p	-16.6	-16.6	-16.6	---	---	4.3	N	0.07	5.2	-22.1	---	---	736.0	0.024	0.000	19.8	3	1
03/01/06	8:14 p	-16.5	-16.5	-16.6	---	---	5.2	N	0.09	5.2	-22.8	---	---	736.0	0.024	0.000	19.8	3	1
03/01/06	8:15 p	-16.5	-16.4	-16.5	---	---	4.3	N	0.07	5.2	-22.1	---	---	736.1	0.024	0.000	19.8	3	1
03/01/06	8:16 p	-16.4	-16.4	-16.4	---	---	4.3	N	0.07	4.3	-22.0	---	---	736.0	0.024	0.000	19.8	3	1
03/01/06	8:17 p	-16.4	-16.4	-16.4	---	---	4.3	N	0.07	4.3	-22.0	---	---	736.1	0.024	0.000	19.8	3	1
03/01/06	8:18 p	-16.4	-16.4	-16.4	---	---	3.5	N	0.06	4.3	-21.1	---	---	736.0	0.024	0.000	19.8	3	1
03/01/06	8:19 p	-16.4	-16.4	-16.4	---	---	3.5	N	0.06	4.3	-21.1	---	---	736.0	0.024	0.000	19.8	3	1
03/01/06	8:20 p	-16.3	-16.3	-16.4	---	---	3.5	N	0.06	4.3	-21.0	---	---	736.0	0.024	0.000	19.8	3	1
03/01/06	8:21 p	-16.3	-16.3	-16.3	---	---	3.5	N	0.06	4.3	-21.0	---	---	735.9	0.024	0.000	19.8	3	1
03/01/06	8:22 p	-16.3	-16.3	-16.3	---	---	4.3	N	0.07	4.3	-21.8	---	---	736.0	0.024	0.000	19.8	3	1
03/01/06	8:23 p	-16.3	-16.2	-16.3	---	---	4.3	N	0.07	4.3	-21.8	---	---	736.1	0.024	0.000	19.9	3	1
03/01/06	8:24 p	-16.2	-16.2	-16.2	---	---	3.5	N	0.06	4.3	-20.9	---	---	736.1	0.024	0.000	19.9	3	1
03/01/06	8:25 p	-16.2	-16.2	-16.2	---	---	3.5	N	0.06	4.3	-20.8	---	---	736.1	0.024	0.000	19.9	3	1
03/01/06	8:26 p	-16.2	-16.2	-16.2	---	---	4.3	N	0.07	4.3	-21.7	---	---	736.1	0.024	0.000	19.9	3	1
03/01/06	8:27 p	-16.1	-16.1	-16.2	---	---	4.3	N	0.07	5.2	-21.6	---	---	736.0	0.024	0.000	19.9	3	1
03/01/06	8:28 p	-16.1	-16.1	-16.1	---	---	4.3	N	0.07	5.2	-21.6	---	---	736.1	0.024	0.000	19.9	3	1
03/01/06	8:29 p	-16.1	-16.1	-16.1	---	---	3.5	N	0.06	4.3	-20.7	---	---	736.1	0.024	0.000	19.9	3	1
03/01/06	8:30 p	-16.1	-16.0	-16.1	---	---	4.3	N	0.07	4.3	-21.6	---	---	736.0	0.024	0.000	19.9	3	1
03/01/06	8:31 p	-16.0	-16.0	-16.1	---	---	3.5	N	0.06	4.3	-20.6	---	---	736.0	0.024	0.000	19.9	3	1
03/01/06	8:32 p	-16.0	-15.9	-16.0	---	---	3.5	N	0.06	4.3	-20.6	---	---	736.1	0.024	0.000	19.9	3	1
03/01/06	8:33 p	-15.9	-15.9	-15.9	---	---	2.6	N	0.04	3.5	-19.4	---	---	736.1	0.024	0.000	19.9	3	1
03/01/06	8:34 p	-15.9	-15.9	-15.9	---	---	3.5	N	0.06	4.3	-20.6	---	---	736.1	0.024	0.000	19.9	3	1
03/01/06	8:35 p	-15.9	-15.9	-15.9	---	---	3.5	N	0.06	5.2	-20.5	---	---	736.0	0.024	0.000	19.9	3	1
03/01/06	8:36 p	-15.9	-15.9	-15.9	---	---	5.2	N	0.09	5.2	-22.1	---	---	736.0	0.024	0.000	19.9	3	1
03/01/06	8:37 p	-15.9	-15.9	-15.9	---	---	5.2	N	0.09	6.1	-22.1	---	---	736.0	0.024	0.000	19.9	3	1
03/01/06	8:38 p	-15.9	-15.8	-15.9	---	---	5.2	N	0.09	6.1	-22.1	---	---	736.0	0.024	0.000	19.9	3	1
03/01/06	8:39 p	-15.9	-15.8	-15.9	---	---	5.2	N	0.09	6.1	-22.1	---	---	736.0	0.024	0.000	19.9	3	1
03/01/06	8:40 p	-15.9	-15.8	-15.9	---	---	4.3	N	0.07	5.2	-21.3	---	---	736.0	0.024	0.000	19.9	3	1
03/01/06	8:41 p	-15.9	-15.8	-15.9	---	---	4.3	N	0.07	5.2	-21.3	---	---	736.1	0.024	0.000	19.9	3	1
03/01/06	8:42 p	-15.8	-15.8	-15.9	---	---	4.3	N	0.07	5.2	-21.3	---	---	736.1	0.024	0.000	20.0	3	1
03/01/06	8:43 p	-15.8	-15.8	-15.8	---	---	3.5	N	0.06	4.3	-20.4	---	---	736.1	0.024	0.000	20.0	3	1
03/01/06	8:44 p	-15.8	-15.8	-15.8	---	---	3.5	N	0.06	3.5	-20.4	---	---	735.9	0.024	0.000	19.9	3	1
03/01/06	8:45 p	-15.8	-15.8	-15.8	---	---	2.6	N	0.04	2.6	-19.3	---	---	736.0	0.024	0.000	19.9	3	1
03/01/06	8:46 p	-15.8	-15.8	-15.8	---	---	1.7	N	0.03	2.6	-17.9	---	---	736.1	0.024	0.000	19.9	3	1
03/01/06	8:47 p	-15.8	-15.8	-15.8	---	---	1.7	N	0.03	2.6	-17.9	---	---	736.1	0.024	0.000	19.9	3	1
03/01/06	8:48 p	-15.8	-15.8	-15.8	---	---	1.7	N	0.03	1.7	-17.8	---	---	736.0	0.024	0.000	20.0	3	1
03/01/06	8:49 p	-15.8	-15.8	-15.8	---	---	1.7	N	0.03	1.7	-17.8	---	---	736.1	0.024	0.000	19.9	3	1
03/01/06	8:50 p	-15.8	-15.7	-15.8	---	---	0.9	N	0.01	1.7	-15.8	---	---	736.1	0.024	0.000	19.9	3	1
03/01/06	8:51 p	-15.7	-15.7	-15.8	---	---	0.9	N	0.01	1.7	-15.7	---	---	736.1	0.024	0.000	19.9	3	1
03/01/06	8:52 p	-15.7	-15.7	-15.7	---	---	1.7	N	0.03	1.7	-17.8	---	---	736.0	0.024	0.000	19.9	3	1
03/01/06	8:53 p	-15.7	-15.7	-15.7	---	---	0.9	N	0.01	1.7	-15.7	---	---	736.0	0.024	0.000	19.9	3	1
03/01/06	8:54 p	-15.7	-15.7	-15.7	---	---	0.0	N	0.00	0.9	-15.7	---	---	736.1	0.024	0.000	19.9	3	1
03/01/06	8:55 p	-15.7	-15.6	-15.7	---	---	0.9	N	0.01	1.7	-15.7	---	---	736.1	0.024	0.000	19.9	3	1
03/01/06	8:56 p	-15.6	-15.6	-15.7	---	---	0.9	N	0.01	1.7	-15.6	---	---	736.1	0.024	0.000	19.9	3	1
03/01/06	8:57 p	-15.6	-15.6	-15.6	---	---	1.7	N	0.03	1.7	-17.7	---	---	736.0	0.024	0.000	19.9	3	1
03/01/06	8:58 p	-15.6	-15.6	-15.6	---	---	0.9	N	0.01	1.7	-15.6	---	---	736.0	0.024	0.000	19.9	3	1
03/01/06	8:59 p	-15.6	-15.5	-15.6	---	---	0.9	N	0.01	1.7	-15.6	---	---	736.0	0.024	0.000	19.9	3	1
03/01/06	9:00 p	-15.5	-15.5	-15.6	---	---	0.9	N	0.01	1.7	-15.5	---	---	736.1	0.023	0.000	20.0	3	1
03/01/06	9:01 p	-15.5	-15.5	-15.5	---	---	0.9	N	0.01	1.7	-15.5	---	---	736.0	0.023	0.000	20.0	3	1
03/01/06	9:02 p	-15.5	-15.4	-15.5	---	---	1.7	N	0.03	1.7	-17.6	---	---	736.1	0.023	0.000	20.0	3	1
03/01/06	9:03 p	-15.4	-15.4	-15.4	---	---	1.7	N	0.03	2.6	-17.6	---	---	736.0	0.023	0.000	20.0	3	1
03/01/06	9:04 p	-15.4	-15.4	-15.4	---	---	1.7	N	0.03	2.6	-17.6	---	---	736.0	0.023	0.000	20.0	3	1
03/01/06	9:05 p	-15.4	-15.4	-15.4	---	---	1.7	N	0.03	2.6	-17.5	---	---	736.0	0.023	0.000	20.0	3	1
03/01/06	9:06 p	-15.3	-15.3	-15.4	---	---	1.7	N	0.03	2.6	-17.4	---	---	735.9	0.023	0.000	20.1	3	1
03/01/06	9:07 p	-15.3	-15.3	-15.3	---	---	1.7	N	0.03	2.6	-17.4	---	---	736.0	0.023	0.000	20.1	3	1
03/01/06	9:08 p	-15.3	-15.3	-15.3	---	---	0.9	N	0.01	1.7	-15.3	---	---	736.0	0.023	0.000	20.1	4	1
03/01/06	9:09 p	-15.3	-15.3	-15.3	---	---	1.7	N	0.03	1.7	-17.4	---	---	736.0	0.023	0.000	20.1	4	1
03/01/06	9:10 p	-15.2	-15.2	-15.2	---	---	0.9	N	0.01	1.7	-15.2	---	---	736.0	0.023	0.000	20.1	4	1
03/01/06	9:11 p	-15.2	-15.2	-15.2	---	---	0.9	N	0.01	1.7	-15.2	---	---	736.0	0.023	0.000	20.1	4	1
03/01/06	9:12 p	-15.2	-15.2	-15.2	---	---	0.9	N	0.01	1.7	-15.2	---	---	736.0	0.023	0.000	20.1	4	1
03/01/06	9:13 p	-15.2	-15.2	-15.2	---	---	0.9	N	0.01	1.7	-15.2	---	---	735.9	0.023	0.000	20.1	4	1
03/01/06	9:14 p	-15.1	-15.1	-15.2	---	---	0.0	N	0.00	0.9	-15.1	---	---	735.9	0.023	0.000	20.1	4	1
03/01/06	9:15 p	-15.1	-15.1	-15.1	---	---	0.9	N	0.01	1.7	-15.1	---	---	736.0	0.023	0.000	20.1	4	1
03/01/06	9:16 p	-15.1	-15.1	-15.1	---	---	0.0	N	0.00	0.9	-15.1	---	---	736.0	0.023	0.000	20.1	4	1
03/01/06	9:17 p	-15.0	-15.0	-15.1	---	---	0.9	N	0.01	1.7	-15.0	---	---	736.0	0.023	0.000	20.1	4	1
03/01/06	9:18 p	-15.0	-14.9	-15.0	---	---	0.0	N	0.00	0.9	-15.0	---	---	735.9	0.023	0.000	20.2	4	1
03/01/06	9:19 p	-14.9	-14.9	-14.9	---	---	0.0	---	0.00	0.9	-14.9	---	---	736.0	0.023	0.000	20.2	4	1
03/01/06	9:20 p	-14.9	-14.9	-14.9	---	---	0.0	N	0.00	0.9	-14.9	---	---	735.9	0.023	0.000	20.2	4	1
03/01/06	9:21 p	-14.9	-14.9	-14.9	---	---	0.0	N	0.00	0.9	-14.9	---	---	735.9	0.023	0.000	20.2	4	1
03/01/06	9:22 p	-14.9	-14.8	-14.9	---	---	0.0	N	0.00	0.9	-14.9	---	---	735.9	0.023	0.000	20.2	4	1
03/01/06	9:23 p	-14.8	-14.8	-14.8	---	---	0.0	---	0.00	0.0	-14.8	---	---	735.9	0.023	0.000	20.2	4	1
03/01/06	9:24 p	-14.8	-14.8	-14.8	---	---	0.0	---	0.00	0.0	-14.8	---	---	735.9	0.023	0.000	20.2	4	1
03/01/06	9:25 p	-14.8	-14.8	-14.8	---	---	0.0	---	0.00	0.0	-14.8	---	---	735.9	0.023	0.000	20.2	4	1
03/01/06	9:26 p	-14.7	-14.7	-14.7	---	---	0.0	---	0.00	0.0	-14.7	---	---	735.9	0.023	0.000	20.2	4	1
03/01/06	9:27 p	-14.7	-14.6	-14.7	---	---	0.0	---	0.00	0.0	-14.7	---	---	735.8	0.023	0.000	20.2	4	1
03/01/06	9:28 p	-14.6	-14.6	-14.6	---	---	0.0	---	0.00	0.0	-14.6	---	---	735.8	0.023	0.000	20.2	4	1
03/01/06	9:29 p	-14.6	-14.6	-14.6	---	---	0.0	---	0.00	0.0	-14.6	---	---	735.9	0.023	0.000	20.2	4	1
03/01/06	9:30 p	-14.6	-14.6	-14.6	---	---	0.0	---	0.00	0.0	-14.6	---	---	735.9	0.023	0.000	20.2	4	1
03/01/06	9:31 p	-14.5	-14.5	-14.6	---	---	0.0	---	0.00	0.0	-14.5	---	---	735.9	0.023	0.000	20.2	4	1
03/01/06	9:32 p	-14.5	-14.5	-14.5	---	---	0.0	---	0.00	0.0	-14.5	---	---	735.9	0.023	0.000	20.2	4	1
03/01/06	9:33 p	-14.4	-14.4	-14.4	---	---	0.0	---	0.00	0.0	-14.4	---	---	735.9	0.023	0.000	20.2	4	1
03/01/06	9:34 p	-14.4	-14.4	-14.4	---	---	0.0	---	0.00	0.0	-14.4	---	---	735.9	0.023	0.000	20.2	4	1
03/01/06	9:35 p	-14.4	-14.3	-14.4	---	---	0.0	---	0.00	0.0	-14.4	---	---	735.9	0.023	0.000	20.2	4	1
03/01/06	9:36 p	-14.3	-14.3	-14.3	---	---	0.0	---	0.00	0.0	-14.3	---	---	735.9	0.023	0.000	20.2	4	1
03/01/06	9:37 p	-14.3	-14.3	-14.3	---	---	0.0	---	0.00	0.0	-14.3	---	---	735.9	0.023	0.000	20.2	4	1
03/01/06	9:38 p	-14.3	-14.3	-14.3	---	---	0.0	---	0.00	0.0	-14.3	---	---	735.9	0.023	0.000	20.2	4	1
03/01/06	9:39 p	-14.2	-14.2	-14.3	---	---	0.0	---	0.00	0.0	-14.2	---	---	735.9	0.023	0.000	20.2	4	1
03/01/06	9:40 p	-14.2	-14.2	-14.2	---	---	0.0	---	0.00	0.0	-14.2	---	---	735.9	0.023	0.000	20.2	3	1
03/01/06	9:41 p	-14.2	-14.2	-14.2	---	---	0.0	---	0.00	0.0	-14.2	---	---	735.9	0.023	0.000	20.2	3	1
03/01/06	9:42 p	-14.2	-14.1	-14.2	---	---	0.0	---	0.00	0.0	-14.2	---	---	735.9	0.023	0.000	20.2	3	1
03/01/06	9:43 p	-14.1	-14.1	-14.2	---	---	0.0	---	0.00	0.0	-14.1	---	---	735.9	0.023	0.000	20.2	4	1
03/01/06	9:44 p	-14.1	-14.1	-14.1	---	---	0.0	---	0.00	0.0	-14.1	---	---	735.9	0.022	0.000	20.2	4	1
03/01/06	9:45 p	-14.1	-14.0	-14.1	---	---	0.0	---	0.00	0.0	-14.1	---	---	735.9	0.022	0.000	20.2	4	1
03/01/06	9:46 p	-14.0	-14.0	-14.0	---	---	0.0	---	0.00	0.0	-14.0	---	---	735.9	0.022	0.000	20.2	4	1
03/01/06	9:47 p	-13.9	-13.9	-13.9	---	---	0.0	---	0.00	0.0	-13.9	---	---	735.8	0.022	0.000	20.2	4	1
03/01/06	9:48 p	-13.9	-13.9	-13.9	---	---	0.0	---	0.00	0.0	-13.9	---	---	735.9	0.022	0.000	20.2	4	1
03/01/06	9:49 p	-13.9	-13.9	-13.9	---	---	0.0	---	0.00	0.0	-13.9	---	---	735.8	0.022	0.000	20.2	4	1
03/01/06	9:50 p	-13.9	-13.8	-13.9	---	---	0.0	---	0.00	0.0	-13.9	---	---	735.9	0.022	0.000	20.2	4	1
03/01/06	9:51 p	-13.8	-13.8	-13.8	---	---	0.0	---	0.00	0.0	-13.8	---	---	735.8	0.022	0.000	20.2	4	1
03/01/06	9:52 p	-13.8	-13.8	-13.8	---	---	0.0	---	0.00	0.0	-13.8	---	---	735.8	0.022	0.000	20.2	4	1
03/01/06	9:53 p	-13.8	-13.7	-13.8	---	---	0.0	---	0.00	0.0	-13.8	---	---	735.9	0.022	0.000	20.3	4	1
03/01/06	9:54 p	-13.7	-13.7	-13.7	---	---	0.0	---	0.00	0.0	-13.7	---	---	735.8	0.022	0.000	20.3	4	1
03/01/06	9:55 p	-13.7	-13.7	-13.7	---	---	0.0	---	0.00	0.0	-13.7	---	---	735.8	0.022	0.000	20.3	4	1
03/01/06	9:56 p	-13.7	-13.6	-13.7	---	---	0.0	---	0.00	0.0	-13.7	---	---	735.8	0.022	0.000	20.3	4	1
03/01/06	9:57 p	-13.6	-13.6	-13.6	---	---	0.0	---	0.00	0.0	-13.6	---	---	735.7	0.022	0.000	20.3	4	1
03/01/06	9:58 p	-13.6	-13.6	-13.6	---	---	0.0	---	0.00	0.0	-13.6	---	---	735.8	0.022	0.000	20.3	4	1
03/01/06	9:59 p	-13.6	-13.5	-13.6	---	---	0.0	---	0.00	0.0	-13.6	---	---	735.8	0.022	0.000	20.3	4	1
03/01/06	10:00 p	-13.4	-13.4	-13.5	---	---	0.0	---	0.00	0.0	-13.4	---	---	735.9	0.022	0.000	20.3	4	1
03/01/06	10:01 p	-13.4	-13.4	-13.4	---	---	0.0	---	0.00	0.0	-13.4	---	---	736.0	0.022	0.000	20.4	4	1
03/01/06	10:02 p	-13.4	-13.4	-13.4	---	---	0.0	---	0.00	0.0	-13.4	---	---	735.9	0.022	0.000	20.4	4	1
03/01/06	10:03 p	-13.4	-13.3	-13.4	---	---	0.0	---	0.00	0.0	-13.4	---	---	735.9	0.022	0.000	20.4	4	1
03/01/06	10:04 p	-13.3	-13.3	-13.3	---	---	0.0	---	0.00	0.0	-13.3	---	---	735.9	0.022	0.000	20.4	4	1
03/01/06	10:05 p	-13.3	-13.3	-13.3	---	---	0.0	---	0.00	0.0	-13.3	---	---	735.9	0.022	0.000	20.4	4	1
03/01/06	10:06 p	-13.2	-13.2	-13.2	---	---	0.9	N	0.01	1.7	-13.2	---	---	735.9	0.022	0.000	20.4	4	1
03/01/06	10:07 p	-13.2	-13.2	-13.2	---	---	0.9	N	0.01	2.6	-13.2	---	---	735.8	0.022	0.000	20.4	4	1
03/01/06	10:08 p	-13.2	-13.2	-13.2	---	---	1.7	N	0.03	3.5	-15.1	---	---	735.8	0.022	0.000	20.4	4	1
03/01/06	10:09 p	-13.1	-13.1	-13.2	---	---	3.5	NNE	0.06	3.5	-17.3	---	---	735.8	0.022	0.000	20.4	4	1
03/01/06	10:10 p	-13.1	-13.1	-13.1	---	---	3.5	NE	0.06	3.5	-17.3	---	---	735.8	0.022	0.000	20.4	4	1
03/01/06	10:11 p	-13.1	-13.1	-13.1	---	---	2.6	NE	0.04	3.5	-16.3	---	---	735.8	0.022	0.000	20.4	4	1
03/01/06	10:12 p	-13.1	-13.1	-13.1	---	---	2.6	NE	0.04	3.5	-16.3	---	---	735.8	0.022	0.000	20.3	4	1
03/01/06	10:13 p	-13.1	-13.1	-13.1	---	---	2.6	NE	0.04	2.6	-16.3	---	---	735.8	0.022	0.000	20.3	4	1
03/01/06	10:14 p	-13.1	-13.1	-13.1	---	---	1.7	NE	0.03	2.6	-14.9	---	---	735.8	0.022	0.000	20.3	4	1
03/01/06	10:15 p	-13.1	-13.1	-13.1	---	---	1.7	NE	0.03	2.6	-14.9	---	---	735.8	0.022	0.000	20.3	4	1
03/01/06	10:16 p	-13.1	-13.0	-13.1	---	---	2.6	NE	0.04	2.6	-16.3	---	---	735.8	0.022	0.000	20.3	4	1
03/01/06	10:17 p	-13.0	-13.0	-13.1	---	---	1.7	NE	0.03	2.6	-14.9	---	---	735.8	0.022	0.000	20.3	4	1
03/01/06	10:18 p	-13.0	-13.0	-13.1	---	---	1.7	NE	0.03	2.6	-14.9	---	---	735.9	0.022	0.000	20.3	4	1
03/01/06	10:19 p	-13.1	-13.0	-13.1	---	---	0.9	NE	0.01	1.7	-13.1	---	---	735.8	0.022	0.000	20.3	4	1
03/01/06	10:20 p	-13.0	-13.0	-13.0	---	---	0.0	NE	0.00	0.9	-13.0	---	---	735.8	0.022	0.000	20.3	4	1
03/01/06	10:21 p	-13.0	-12.9	-13.0	---	---	0.0	NE	0.00	0.9	-13.0	---	---	735.8	0.022	0.000	20.3	4	1
03/01/06	10:22 p	-12.9	-12.9	-12.9	---	---	0.0	NE	0.00	0.9	-12.9	---	---	735.8	0.022	0.000	20.3	4	1
03/01/06	10:23 p	-13.0	-12.9	-13.0	---	---	0.0	NE	0.00	0.9	-13.0	---	---	735.9	0.022	0.000	20.3	4	1
03/01/06	10:24 p	-12.9	-12.9	-12.9	---	---	0.0	---	0.00	0.0	-12.9	---	---	735.8	0.022	0.000	20.3	4	1
03/01/06	10:25 p	-12.9	-12.9	-12.9	---	---	0.0	---	0.00	0.9	-12.9	---	---	735.8	0.022	0.000	20.3	4	1
03/01/06	10:26 p	-12.9	-12.9	-12.9	---	---	0.0	---	0.00	0.0	-12.9	---	---	735.8	0.022	0.000	20.3	4	1
03/01/06	10:27 p	-12.9	-12.9	-12.9	---	---	0.0	---	0.00	0.0	-12.9	---	---	735.9	0.022	0.000	20.3	4	1
03/01/06	10:28 p	-12.9	-12.9	-12.9	---	---	0.0	---	0.00	0.0	-12.9	---	---	735.9	0.022	0.000	20.3	4	1
03/01/06	10:29 p	-12.9	-12.8	-12.9	---	---	0.0	---	0.00	0.0	-12.9	---	---	735.9	0.022	0.000	20.3	4	1
03/01/06	10:30 p	-12.9	-12.9	-12.9	---	---	0.0	---	0.00	0.0	-12.9	---	---	735.9	0.022	0.000	20.3	4	1
03/01/06	10:31 p	-12.8	-12.8	-12.9	---	---	0.0	---	0.00	0.0	-12.8	---	---	735.8	0.022	0.000	20.3	4	1
03/01/06	10:32 p	-12.8	-12.8	-12.8	---	---	0.0	NE	0.00	0.9	-12.8	---	---	735.8	0.022	0.000	20.3	4	1
03/01/06	10:33 p	-12.9	-12.8	-12.9	---	---	1.7	NE	0.03	3.5	-14.7	---	---	735.9	0.022	0.000	20.3	4	1
03/01/06	10:34 p	-12.9	-12.8	-12.9	---	---	1.7	ENE	0.03	3.5	-14.7	---	---	735.9	0.022	0.000	20.3	4	1
03/01/06	10:35 p	-12.8	-12.8	-12.9	---	---	2.6	ENE	0.04	4.3	-16.0	---	---	735.9	0.022	0.000	20.3	4	1
03/01/06	10:36 p	-12.8	-12.8	-12.8	---	---	3.5	E	0.06	4.3	-17.0	---	---	735.9	0.022	0.000	20.3	4	1
03/01/06	10:37 p	-12.8	-12.8	-12.9	---	---	2.6	ESE	0.04	4.3	-16.0	---	---	735.8	0.022	0.000	20.3	4	1
03/01/06	10:38 p	-12.9	-12.8	-12.9	---	---	2.6	ESE	0.04	3.5	-16.1	---	---	735.8	0.022	0.000	20.3	4	1
03/01/06	10:39 p	-12.9	-12.9	-12.9	---	---	2.6	ESE	0.04	5.2	-16.1	---	---	735.8	0.022	0.000	20.3	4	1
03/01/06	10:40 p	-12.9	-12.9	-12.9	---	---	5.2	E	0.09	6.1	-18.6	---	---	735.7	0.022	0.000	20.3	4	1
03/01/06	10:41 p	-12.9	-12.9	-13.0	---	---	4.3	E	0.07	5.2	-17.9	---	---	735.7	0.022	0.000	20.3	4	1
03/01/06	10:42 p	-13.0	-13.0	-13.1	---	---	4.3	E	0.07	5.2	-17.9	---	---	735.7	0.022	0.000	20.3	4	1
03/01/06	10:43 p	-13.1	-13.1	-13.1	---	---	4.3	E	0.07	5.2	-18.0	---	---	735.7	0.022	0.000	20.3	4	1
03/01/06	10:44 p	-13.1	-13.1	-13.1	---	---	4.3	E	0.07	5.2	-18.1	---	---	735.7	0.022	0.000	20.3	4	1
03/01/06	10:45 p	-13.2	-13.2	-13.2	---	---	4.3	E	0.07	5.2	-18.2	---	---	735.7	0.022	0.000	20.3	4	1
03/01/06	10:46 p	-13.2	-13.2	-13.2	---	---	5.2	E	0.09	6.1	-18.8	---	---	735.7	0.022	0.000	20.3	4	1
03/01/06	10:47 p	-13.2	-13.2	-13.3	---	---	4.3	E	0.07	6.1	-18.2	---	---	735.7	0.022	0.000	20.3	4	1
03/01/06	10:48 p	-13.3	-13.3	-13.3	---	---	4.3	E	0.07	5.2	-18.3	---	---	735.7	0.022	0.000	20.3	4	1
03/01/06	10:49 p	-13.3	-13.3	-13.3	---	---	5.2	E	0.09	6.1	-19.1	---	---	735.6	0.022	0.000	20.3	4	1
03/01/06	10:50 p	-13.4	-13.3	-13.4	---	---	3.5	E	0.06	4.3	-17.7	---	---	735.7	0.022	0.000	20.3	4	1
03/01/06	10:51 p	-13.4	-13.4	-13.4	---	---	5.2	E	0.09	7.8	-19.1	---	---	735.6	0.022	0.000	20.3	4	1
03/01/06	10:52 p	-13.4	-13.4	-13.4	---	---	5.2	E	0.09	7.0	-19.1	---	---	735.6	0.022	0.000	20.4	4	1
03/01/06	10:53 p	-13.4	-13.4	-13.4	---	---	7.0	E	0.12	7.8	-20.3	---	---	735.6	0.022	0.000	20.4	4	1
03/01/06	10:54 p	-13.5	-13.4	-13.5	---	---	6.1	ENE	0.10	7.8	-19.8	---	---	735.6	0.022	0.000	20.4	4	1
03/01/06	10:55 p	-13.4	-13.4	-13.5	---	---	7.0	ENE	0.12	7.8	-20.3	---	---	735.6	0.022	0.000	20.4	4	1
03/01/06	10:56 p	-13.4	-13.4	-13.4	---	---	7.8	ENE	0.13	8.7	-20.8	---	---	735.7	0.022	0.000	20.4	4	1
03/01/06	10:57 p	-13.4	-13.4	-13.4	---	---	7.8	ENE	0.13	8.7	-20.7	---	---	735.5	0.022	0.000	20.4	4	1
03/01/06	10:58 p	-13.4	-13.3	-13.4	---	---	7.0	ENE	0.12	7.8	-20.2	---	---	735.6	0.022	0.000	20.4	4	1
03/01/06	10:59 p	-13.3	-13.3	-13.3	---	---	7.0	ENE	0.12	7.8	-20.1	---	---	735.6	0.022	0.000	20.4	4	1
03/01/06	11:00 p	-13.3	-13.2	-13.3	---	---	7.0	ENE	0.12	7.0	-20.1	---	---	735.6	0.022	0.000	20.4	4	1
03/01/06	11:01 p	-13.2	-13.2	-13.2	---	---	6.1	ENE	0.10	7.0	-19.5	---	---	735.6	0.022	0.000	20.4	4	1
03/01/06	11:02 p	-13.2	-13.1	-13.2	---	---	6.1	ENE	0.10	7.0	-19.4	---	---	735.6	0.022	0.000	20.4	4	1
03/01/06	11:03 p	-13.1	-13.1	-13.1	---	---	5.2	ENE	0.09	6.1	-18.8	---	---	735.6	0.022	0.000	20.4	4	1
03/01/06	11:04 p	-13.1	-13.0	-13.1	---	---	6.1	ENE	0.10	7.0	-19.3	---	---	735.6	0.022	0.000	20.4	4	1
03/01/06	11:05 p	-13.0	-12.9	-13.0	---	---	6.1	ENE	0.10	7.0	-19.2	---	---	735.6	0.022	0.000	20.4	4	1
03/01/06	11:06 p	-12.9	-12.8	-12.9	---	---	7.0	ENE	0.12	7.8	-19.6	---	---	735.6	0.022	0.000	20.4	4	1
03/01/06	11:07 p	-12.8	-12.8	-12.8	---	---	7.8	ENE	0.13	8.7	-20.0	---	---	735.6	0.022	0.000	20.4	4	1
03/01/06	11:08 p	-12.8	-12.7	-12.8	---	---	7.8	ENE	0.13	8.7	-19.9	---	---	735.7	0.022	0.000	20.3	4	1
03/01/06	11:09 p	-12.7	-12.7	-12.7	---	---	7.8	ENE	0.13	8.7	-19.9	---	---	735.6	0.022	0.000	20.3	4	1
03/01/06	11:10 p	-12.7	-12.7	-12.7	---	---	7.0	ENE	0.12	8.7	-19.3	---	---	735.7	0.022	0.000	20.3	4	1
03/01/06	11:11 p	-12.6	-12.6	-12.6	---	---	7.0	ENE	0.12	7.8	-19.3	---	---	735.7	0.021	0.000	20.4	4	1
03/01/06	11:12 p	-12.6	-12.5	-12.6	---	---	6.1	ENE	0.10	7.8	-18.7	---	---	735.7	0.021	0.000	20.3	4	1
03/01/06	11:13 p	-12.5	-12.5	-12.5	---	---	6.1	ENE	0.10	7.0	-18.6	---	---	735.7	0.021	0.000	20.3	4	1
03/01/06	11:14 p	-12.4	-12.4	-12.4	---	---	6.1	E	0.10	7.8	-18.5	---	---	735.8	0.021	0.000	20.4	4	1
03/01/06	11:15 p	-12.3	-12.3	-12.3	---	---	5.2	E	0.09	6.1	-17.8	---	---	735.7	0.021	0.000	20.4	4	1
03/01/06	11:16 p	-12.2	-12.2	-12.3	---	---	5.2	E	0.09	6.1	-17.8	---	---	735.8	0.021	0.000	20.4	4	1
03/01/06	11:17 p	-12.2	-12.2	-12.2	---	---	6.1	ENE	0.10	7.0	-18.2	---	---	735.7	0.021	0.000	20.4	4	1
03/01/06	11:18 p	-12.1	-12.1	-12.1	---	---	6.1	ENE	0.10	7.0	-18.1	---	---	735.7	0.021	0.000	20.4	4	1
03/01/06	11:19 p	-12.0	-12.0	-12.0	---	---	5.2	ENE	0.09	6.1	-17.5	---	---	735.7	0.021	0.000	20.4	4	1
03/01/06	11:20 p	-11.9	-11.9	-11.9	---	---	5.2	ENE	0.09	6.1	-17.4	---	---	735.7	0.021	0.000	20.4	4	1
03/01/06	11:21 p	-11.9	-11.8	-11.9	---	---	7.0	ENE	0.12	7.8	-18.4	---	---	735.7	0.021	0.000	20.4	4	1
03/01/06	11:22 p	-11.8	-11.8	-11.8	---	---	8.7	ENE	0.14	10.4	-19.1	---	---	735.7	0.021	0.000	20.3	4	1
03/01/06	11:23 p	-11.8	-11.7	-11.8	---	---	8.7	ENE	0.14	9.6	-19.1	---	---	735.6	0.021	0.000	20.3	4	1
03/01/06	11:24 p	-11.7	-11.7	-11.7	---	---	8.7	ENE	0.14	9.6	-19.1	---	---	735.7	0.021	0.000	20.3	4	1
03/01/06	11:25 p	-11.7	-11.7	-11.7	---	---	7.8	ENE	0.13	8.7	-18.6	---	---	735.7	0.021	0.000	20.3	4	1
03/01/06	11:26 p	-11.6	-11.6	-11.6	---	---	7.0	ENE	0.12	7.8	-18.1	---	---	735.7	0.021	0.000	20.3	4	1
03/01/06	11:27 p	-11.6	-11.6	-11.6	---	---	7.0	ENE	0.12	7.8	-18.0	---	---	735.7	0.021	0.000	20.4	4	1
03/01/06	11:28 p	-11.5	-11.4	-11.6	---	---	7.8	ENE	0.13	8.7	-18.4	---	---	735.7	0.021	0.000	20.4	4	1
03/01/06	11:29 p	-11.4	-11.4	-11.4	---	---	7.8	ENE	0.13	7.8	-18.3	---	---	735.7	0.021	0.000	20.4	4	1
03/01/06	11:30 p	-11.4	-11.4	-11.4	---	---	7.0	ENE	0.12	7.8	-17.8	---	---	735.7	0.021	0.000	20.4	4	1
03/01/06	11:31 p	-11.3	-11.3	-11.4	---	---	7.0	ENE	0.12	7.8	-17.8	---	---	735.7	0.021	0.000	20.4	4	1
03/01/06	11:32 p	-11.3	-11.3	-11.3	---	---	7.8	ENE	0.13	8.7	-18.2	---	---	735.7	0.021	0.000	20.4	4	1
03/01/06	11:33 p	-11.3	-11.3	-11.3	---	---	7.0	ENE	0.12	7.8	-17.7	---	---	735.6	0.021	0.000	20.4	4	1
03/01/06	11:34 p	-11.3	-11.3	-11.3	---	---	7.0	ENE	0.12	8.7	-17.7	---	---	735.6	0.021	0.000	20.4	4	1
03/01/06	11:35 p	-11.3	-11.2	-11.3	---	---	7.0	E	0.12	8.7	-17.7	---	---	735.6	0.021	0.000	20.4	4	1
03/01/06	11:36 p	-11.2	-11.2	-11.3	---	---	7.0	E	0.12	8.7	-17.7	---	---	735.6	0.021	0.000	20.4	4	1
03/01/06	11:37 p	-11.2	-11.2	-11.3	---	---	7.8	ENE	0.13	9.6	-18.1	---	---	735.5	0.021	0.000	20.4	4	1
03/01/06	11:38 p	-11.2	-11.2	-11.3	---	---	8.7	ENE	0.14	9.6	-18.4	---	---	735.6	0.021	0.000	20.4	4	1
03/01/06	11:39 p	-11.2	-11.2	-11.2	---	---	8.7	ENE	0.14	9.6	-18.4	---	---	735.5	0.021	0.000	20.4	4	1
03/01/06	11:40 p	-11.2	-11.2	-11.3	---	---	8.7	ENE	0.14	9.6	-18.4	---	---	735.6	0.021	0.000	20.4	4	1
03/01/06	11:41 p	-11.2	-11.2	-11.3	---	---	7.8	ENE	0.13	8.7	-18.1	---	---	735.4	0.021	0.000	20.4	4	1
03/01/06	11:42 p	-11.2	-11.2	-11.2	---	---	7.8	NE	0.13	8.7	-18.1	---	---	735.5	0.021	0.000	20.4	4	1
03/01/06	11:43 p	-11.2	-11.2	-11.3	---	---	7.8	NE	0.13	8.7	-18.1	---	---	735.6	0.021	0.000	20.4	4	1
03/01/06	11:44 p	-11.3	-11.3	-11.3	---	---	7.8	NE	0.13	8.7	-18.1	---	---	735.5	0.021	0.000	20.4	4	1
03/01/06	11:45 p	-11.3	-11.3	-11.3	---	---	7.8	ENE	0.13	8.7	-18.1	---	---	735.5	0.021	0.000	20.4	4	1
03/01/06	11:46 p	-11.3	-11.2	-11.3	---	---	7.0	ENE	0.12	7.8	-17.7	---	---	735.6	0.021	0.000	20.4	4	1
03/01/06	11:47 p	-11.2	-11.2	-11.2	---	---	6.1	NE	0.10	7.0	-17.1	---	---	735.5	0.021	0.000	20.4	4	1
03/01/06	11:48 p	-11.2	-11.2	-11.2	---	---	6.1	ENE	0.10	8.7	-17.1	---	---	735.6	0.021	0.000	20.4	4	1
03/01/06	11:49 p	-11.2	-11.2	-11.2	---	---	7.8	ENE	0.13	8.7	-18.1	---	---	735.5	0.021	0.000	20.4	4	1
03/01/06	11:50 p	-11.2	-11.2	-11.2	---	---	7.8	ENE	0.13	8.7	-18.1	---	---	735.6	0.021	0.000	20.4	4	1
03/01/06	11:51 p	-11.2	-11.2	-11.2	---	---	7.0	ENE	0.12	7.8	-17.6	---	---	735.6	0.020	0.000	20.4	4	1
03/01/06	11:52 p	-11.2	-11.2	-11.2	---	---	7.0	ENE	0.12	7.8	-17.6	---	---	735.6	0.020	0.000	20.4	4	1
03/01/06	11:53 p	-11.2	-11.2	-11.2	---	---	6.1	ENE	0.10	7.8	-17.1	---	---	735.5	0.020	0.000	20.4	4	1
03/01/06	11:54 p	-11.2	-11.2	-11.2	---	---	7.0	NE	0.12	7.8	-17.6	---	---	735.6	0.020	0.000	20.4	4	1
03/01/06	11:55 p	-11.2	-11.2	-11.2	---	---	7.0	NE	0.12	7.8	-17.6	---	---	735.6	0.020	0.000	20.4	4	1
03/01/06	11:56 p	-11.2	-11.2	-11.2	---	---	7.0	NE	0.12	7.8	-17.6	---	---	735.6	0.020	0.000	20.4	4	1
03/01/06	11:57 p	-11.2	-11.2	-11.2	---	---	7.0	NE	0.12	8.7	-17.6	---	---	735.5	0.020	0.000	20.4	4	1
03/01/06	11:58 p	-11.2	-11.2	-11.2	---	---	8.7	NE	0.14	8.7	-18.4	---	---	735.6	0.020	0.000	20.4	4	1
03/01/06	11:59 p	-11.2	-11.2	-11.2	---	---	7.8	NE	0.13	8.7	-17.9	---	---	735.5	0.020	0.000	20.4	4	1
03/02/06	12:00 a	-11.2	-11.2	-11.2	---	---	7.0	NE	0.12	7.8	-17.6	---	---	735.6	0.020	0.000	20.4	4	1
03/02/06	12:01 a	-11.2	-11.2	-11.2	---	---	7.0	NE	0.12	7.8	-17.7	---	---	735.6	0.021	0.000	20.4	4	1
03/02/06	12:02 a	-11.2	-11.2	-11.2	---	---	6.1	NE	0.10	7.0	-17.1	---	---	735.5	0.020	0.000	20.4	4	1
03/02/06	12:03 a	-11.2	-11.2	-11.2	---	---	6.1	NE	0.10	7.0	-17.1	---	---	735.5	0.020	0.000	20.4	4	1
03/02/06	12:04 a	-11.2	-11.2	-11.2	---	---	4.3	NE	0.07	6.1	-15.9	---	---	735.4	0.021	0.000	20.4	4	1
03/02/06	12:05 a	-11.2	-11.2	-11.2	---	---	4.3	NE	0.07	6.1	-15.8	---	---	735.4	0.020	0.000	20.4	4	1
03/02/06	12:06 a	-11.2	-11.1	-11.2	---	---	7.0	NE	0.12	7.8	-17.6	---	---	735.4	0.020	0.000	20.4	4	1
03/02/06	12:07 a	-11.2	-11.2	-11.2	---	---	5.2	NE	0.09	6.1	-16.5	---	---	735.5	0.020	0.000	20.4	4	1
03/02/06	12:08 a	-11.1	-11.1	-11.1	---	---	6.1	NE	0.10	7.0	-17.0	---	---	735.4	0.020	0.000	20.4	4	1
03/02/06	12:09 a	-11.1	-11.1	-11.1	---	---	6.1	NE	0.10	7.0	-17.0	---	---	735.5	0.020	0.000	20.4	4	1
03/02/06	12:10 a	-11.1	-11.1	-11.1	---	---	4.3	NE	0.07	6.1	-15.8	---	---	735.4	0.020	0.000	20.4	4	1
03/02/06	12:11 a	-11.1	-11.1	-11.1	---	---	6.1	NE	0.10	6.1	-16.9	---	---	735.4	0.020	0.000	20.4	4	1
03/02/06	12:12 a	-11.1	-11.1	-11.1	---	---	5.2	NE	0.09	6.1	-16.4	---	---	735.4	0.020	0.000	20.4	4	1
03/02/06	12:13 a	-11.1	-11.0	-11.1	---	---	5.2	NE	0.09	6.1	-16.4	---	---	735.3	0.020	0.000	20.4	4	1
03/02/06	12:14 a	-11.0	-11.0	-11.0	---	---	4.3	NE	0.07	6.1	-15.7	---	---	735.4	0.020	0.000	20.5	4	1
03/02/06	12:15 a	-11.0	-10.9	-11.0	---	---	5.2	NE	0.09	6.1	-16.3	---	---	735.4	0.020	0.000	20.5	4	1
03/02/06	12:16 a	-10.9	-10.9	-11.0	---	---	5.2	NE	0.09	7.0	-16.2	---	---	735.4	0.020	0.000	20.5	4	1
03/02/06	12:17 a	-10.9	-10.9	-10.9	---	---	6.1	NE	0.10	7.0	-16.8	---	---	735.4	0.020	0.000	20.5	4	1
03/02/06	12:18 a	-10.9	-10.9	-10.9	---	---	6.1	NE	0.10	7.8	-16.7	---	---	735.4	0.020	0.000	20.5	4	1
03/02/06	12:19 a	-10.8	-10.8	-10.9	---	---	6.1	NE	0.10	7.8	-16.7	---	---	735.5	0.020	0.000	20.5	4	1
03/02/06	12:20 a	-10.8	-10.8	-10.8	---	---	7.0	NE	0.12	7.8	-17.2	---	---	735.4	0.020	0.000	20.5	4	1
03/02/06	12:21 a	-10.8	-10.8	-10.8	---	---	7.0	NE	0.12	7.8	-17.2	---	---	735.4	0.020	0.000	20.5	4	1
03/02/06	12:22 a	-10.8	-10.8	-10.8	---	---	7.0	NE	0.12	7.8	-17.2	---	---	735.4	0.020	0.000	20.5	4	1
03/02/06	12:23 a	-10.8	-10.8	-10.8	---	---	7.0	NE	0.12	7.8	-17.2	---	---	735.4	0.020	0.000	20.5	4	1
03/02/06	12:24 a	-10.8	-10.8	-10.8	---	---	7.8	ENE	0.13	8.7	-17.6	---	---	735.4	0.020	0.000	20.5	4	1
03/02/06	12:25 a	-10.8	-10.8	-10.8	---	---	9.6	ENE	0.16	11.3	-18.3	---	---	735.4	0.020	0.000	20.5	4	1
03/02/06	12:26 a	-10.8	-10.8	-10.9	---	---	8.7	NE	0.14	9.6	-17.9	---	---	735.3	0.020	0.000	20.5	4	1
03/02/06	12:27 a	-10.9	-10.9	-10.9	---	---	9.6	NE	0.16	10.4	-18.4	---	---	735.4	0.020	0.000	20.5	4	1
03/02/06	12:28 a	-10.9	-10.9	-11.0	---	---	8.7	NE	0.14	9.6	-18.1	---	---	735.4	0.020	0.000	20.6	4	1
03/02/06	12:29 a	-11.0	-11.0	-11.0	---	---	8.7	NE	0.14	10.4	-18.2	---	---	735.3	0.020	0.000	20.6	4	1
03/02/06	12:30 a	-11.1	-11.0	-11.1	---	---	7.8	NE	0.13	8.7	-17.8	---	---	735.4	0.020	0.000	20.6	4	1
03/02/06	12:31 a	-11.1	-11.1	-11.1	---	---	7.8	NE	0.13	10.4	-17.8	---	---	735.4	0.020	0.000	20.6	4	1
03/02/06	12:32 a	-11.1	-11.1	-11.1	---	---	7.8	NNE	0.13	8.7	-17.9	---	---	735.3	0.020	0.000	20.6	4	1
03/02/06	12:33 a	-11.1	-11.1	-11.2	---	---	7.8	NE	0.13	8.7	-17.9	---	---	735.3	0.020	0.000	20.6	4	1
03/02/06	12:34 a	-11.2	-11.1	-11.2	---	---	6.1	NE	0.10	7.8	-17.1	---	---	735.5	0.020	0.000	20.6	4	1
03/02/06	12:35 a	-11.1	-11.1	-11.2	---	---	8.7	NNE	0.14	10.4	-18.3	---	---	735.3	0.020	0.000	20.6	4	1
03/02/06	12:36 a	-11.1	-11.0	-11.1	---	---	8.7	NE	0.14	10.4	-18.2	---	---	735.3	0.020	0.000	20.6	4	1
03/02/06	12:37 a	-11.0	-11.0	-11.1	---	---	9.6	NE	0.16	10.4	-18.6	---	---	735.4	0.020	0.000	20.6	4	1
03/02/06	12:38 a	-11.1	-11.1	-11.1	---	---	7.8	NE	0.13	8.7	-17.8	---	---	735.4	0.020	0.000	20.6	4	1
03/02/06	12:39 a	-11.2	-11.1	-11.2	---	---	7.8	NE	0.13	8.7	-17.9	---	---	735.4	0.020	0.000	20.6	4	1
03/02/06	12:40 a	-11.2	-11.1	-11.2	---	---	8.7	NE	0.14	10.4	-18.4	---	---	735.3	0.020	0.000	20.6	4	1
03/02/06	12:41 a	-11.2	-11.2	-11.3	---	---	10.4	NE	0.17	11.3	-19.2	---	---	735.3	0.021	0.000	20.6	4	1
03/02/06	12:42 a	-11.3	-11.3	-11.3	---	---	7.8	NE	0.13	9.6	-18.1	---	---	735.3	0.021	0.000	20.6	4	1
03/02/06	12:43 a	-11.4	-11.3	-11.4	---	---	7.8	NE	0.13	9.6	-18.2	---	---	735.2	0.021	0.000	20.6	4	1
03/02/06	12:44 a	-11.4	-11.4	-11.4	---	---	7.8	NE	0.13	9.6	-18.2	---	---	735.3	0.021	0.000	20.6	4	1
03/02/06	12:45 a	-11.4	-11.4	-11.4	---	---	7.0	NE	0.12	9.6	-17.8	---	---	735.3	0.021	0.000	20.6	4	1
03/02/06	12:46 a	-11.4	-11.4	-11.4	---	---	8.7	ENE	0.14	9.6	-18.7	---	---	735.4	0.021	0.000	20.7	4	1
03/02/06	12:47 a	-11.5	-11.4	-11.5	---	---	8.7	NE	0.14	10.4	-18.8	---	---	735.2	0.021	0.000	20.7	4	1
03/02/06	12:48 a	-11.5	-11.5	-11.5	---	---	7.8	NE	0.13	9.6	-18.4	---	---	735.3	0.021	0.000	20.7	4	1
03/02/06	12:49 a	-11.5	-11.5	-11.6	---	---	8.7	ENE	0.14	10.4	-18.8	---	---	735.3	0.021	0.000	20.7	4	1
03/02/06	12:50 a	-11.6	-11.6	-11.6	---	---	7.0	ENE	0.12	8.7	-18.0	---	---	735.4	0.021	0.000	20.7	4	1
03/02/06	12:51 a	-11.6	-11.6	-11.6	---	---	8.7	ENE	0.14	9.6	-18.9	---	---	735.4	0.021	0.000	20.7	4	1
03/02/06	12:52 a	-11.6	-11.6	-11.6	---	---	7.0	ENE	0.12	8.7	-18.0	---	---	735.3	0.021	0.000	20.7	4	1
03/02/06	12:53 a	-11.6	-11.6	-11.6	---	---	6.1	NE	0.10	7.8	-17.6	---	---	735.3	0.021	0.000	20.7	4	1
03/02/06	12:54 a	-11.6	-11.6	-11.6	---	---	7.8	NE	0.13	8.7	-18.4	---	---	735.4	0.021	0.000	20.7	4	1
03/02/06	12:55 a	-11.6	-11.6	-11.6	---	---	7.8	NE	0.13	8.7	-18.4	---	---	735.3	0.021	0.000	20.7	4	1
03/02/06	12:56 a	-11.6	-11.5	-11.6	---	---	7.0	NE	0.12	8.7	-18.0	---	---	735.2	0.021	0.000	20.7	4	1
03/02/06	12:57 a	-11.5	-11.5	-11.6	---	---	7.0	NNE	0.12	7.8	-17.9	---	---	735.2	0.021	0.000	20.7	4	1
03/02/06	12:58 a	-11.5	-11.4	-11.5	---	---	7.8	NE	0.13	8.7	-18.4	---	---	735.2	0.021	0.000	20.7	5	1
03/02/06	12:59 a	-11.4	-11.4	-11.4	---	---	7.0	NE	0.12	7.8	-17.8	---	---	735.1	0.021	0.000	20.7	4	1
03/02/06	1:00 a	-11.4	-11.4	-11.4	---	---	7.0	NE	0.12	7.8	-17.8	---	---	735.2	0.021	0.000	20.7	4	1
03/02/06	1:01 a	-11.3	-11.3	-11.3	---	---	6.1	NE	0.10	7.0	-17.3	---	---	735.2	0.021	0.000	20.7	4	1
03/02/06	1:02 a	-11.3	-11.2	-11.3	---	---	5.2	NE	0.09	5.2	-16.6	---	---	735.2	0.021	0.000	20.7	4	1
03/02/06	1:03 a	-11.2	-11.2	-11.2	---	---	5.2	NE	0.09	6.1	-16.6	---	---	735.1	0.021	0.000	20.7	5	1
03/02/06	1:04 a	-11.1	-11.1	-11.2	---	---	4.3	NE	0.07	5.2	-15.8	---	---	735.0	0.020	0.000	20.7	5	1
03/02/06	1:05 a	-11.1	-11.0	-11.1	---	---	4.3	NE	0.07	5.2	-15.7	---	---	735.1	0.020	0.000	20.7	5	1
03/02/06	1:06 a	-10.9	-10.9	-10.9	---	---	4.3	NNE	0.07	5.2	-15.6	---	---	735.1	0.020	0.000	20.7	5	1
03/02/06	1:07 a	-10.8	-10.8	-10.8	---	---	4.3	NNE	0.07	5.2	-15.4	---	---	735.1	0.020	0.000	20.7	4	1
03/02/06	1:08 a	-10.6	-10.6	-10.7	---	---	4.3	NNE	0.07	5.2	-15.2	---	---	735.2	0.020	0.000	20.7	5	1
03/02/06	1:09 a	-10.5	-10.4	-10.6	---	---	4.3	NNE	0.07	5.2	-15.1	---	---	735.1	0.020	0.000	20.7	5	1
03/02/06	1:10 a	-10.3	-10.3	-10.4	---	---	4.3	N	0.07	5.2	-14.9	---	---	735.1	0.020	0.000	20.7	5	1
03/02/06	1:11 a	-10.2	-10.2	-10.3	---	---	5.2	N	0.09	5.2	-15.4	---	---	735.1	0.020	0.000	20.7	4	1
03/02/06	1:12 a	-10.2	-10.2	-10.2	---	---	4.3	N	0.07	5.2	-14.7	---	---	735.2	0.020	0.000	20.7	5	1
03/02/06	1:13 a	-10.1	-10.1	-10.2	---	---	3.5	NNE	0.06	5.2	-13.8	---	---	735.1	0.020	0.000	20.8	5	1
03/02/06	1:14 a	-10.1	-10.1	-10.1	---	---	7.0	NE	0.12	8.7	-16.3	---	---	735.1	0.020	0.000	20.7	5	1
03/02/06	1:15 a	-10.1	-10.1	-10.1	---	---	6.1	NE	0.10	8.7	-15.8	---	---	735.1	0.020	0.000	20.7	5	1
03/02/06	1:16 a	-10.1	-10.1	-10.1	---	---	9.6	NE	0.16	10.4	-17.5	---	---	735.1	0.020	0.000	20.7	5	1
03/02/06	1:17 a	-10.1	-10.1	-10.1	---	---	7.8	NE	0.13	9.6	-16.7	---	---	735.2	0.020	0.000	20.7	4	1
03/02/06	1:18 a	-10.1	-10.1	-10.1	---	---	6.1	NE	0.10	7.8	-15.8	---	---	735.2	0.020	0.000	20.7	5	1
03/02/06	1:19 a	-10.1	-10.1	-10.1	---	---	7.0	NE	0.12	8.7	-16.2	---	---	735.1	0.020	0.000	20.7	5	1
03/02/06	1:20 a	-10.1	-10.1	-10.1	---	---	7.8	NE	0.13	9.6	-16.7	---	---	735.2	0.020	0.000	20.7	5	1
03/02/06	1:21 a	-10.1	-10.1	-10.1	---	---	7.8	NE	0.13	8.7	-16.7	---	---	735.2	0.020	0.000	20.7	5	1
03/02/06	1:22 a	-10.1	-10.1	-10.1	---	---	8.7	NE	0.14	10.4	-17.1	---	---	735.1	0.020	0.000	20.7	5	1
03/02/06	1:23 a	-10.1	-10.1	-10.1	---	---	8.7	NE	0.14	9.6	-17.1	---	---	735.2	0.020	0.000	20.7	5	1
03/02/06	1:24 a	-10.2	-10.2	-10.2	---	---	8.7	NE	0.14	9.6	-17.2	---	---	735.2	0.020	0.000	20.7	4	1
03/02/06	1:25 a	-10.2	-10.2	-10.2	---	---	8.7	NE	0.14	9.6	-17.2	---	---	735.1	0.020	0.000	20.7	5	1
03/02/06	1:26 a	-10.2	-10.2	-10.2	---	---	8.7	NE	0.14	9.6	-17.3	---	---	735.2	0.020	0.000	20.7	5	1
03/02/06	1:27 a	-10.2	-10.2	-10.3	---	---	7.8	NE	0.13	9.6	-16.9	---	---	735.1	0.020	0.000	20.7	5	1
03/02/06	1:28 a	-10.3	-10.3	-10.3	---	---	7.8	NE	0.13	8.7	-16.9	---	---	735.1	0.020	0.000	20.7	5	1
03/02/06	1:29 a	-10.3	-10.3	-10.3	---	---	8.7	NE	0.14	9.6	-17.3	---	---	735.1	0.020	0.000	20.7	5	1
03/02/06	1:30 a	-10.4	-10.3	-10.4	---	---	8.7	NE	0.14	9.6	-17.5	---	---	735.1	0.020	0.000	20.7	5	1
03/02/06	1:31 a	-10.4	-10.4	-10.4	---	---	8.7	NE	0.14	9.6	-17.5	---	---	735.1	0.020	0.000	20.7	5	1
03/02/06	1:32 a	-10.4	-10.4	-10.4	---	---	8.7	NE	0.14	9.6	-17.5	---	---	735.1	0.020	0.000	20.8	5	1
03/02/06	1:33 a	-10.4	-10.4	-10.4	---	---	7.8	NE	0.13	9.6	-17.1	---	---	735.1	0.020	0.000	20.8	5	1
03/02/06	1:34 a	-10.5	-10.4	-10.5	---	---	8.7	NE	0.14	9.6	-17.6	---	---	735.1	0.020	0.000	20.8	5	1
03/02/06	1:35 a	-10.4	-10.4	-10.5	---	---	8.7	NE	0.14	10.4	-17.6	---	---	735.1	0.020	0.000	20.8	5	1
03/02/06	1:36 a	-10.5	-10.5	-10.5	---	---	7.8	NE	0.13	9.6	-17.2	---	---	735.1	0.020	0.000	20.8	5	1
03/02/06	1:37 a	-10.5	-10.5	-10.5	---	---	7.8	NE	0.13	8.7	-17.2	---	---	735.1	0.020	0.000	20.8	5	1
03/02/06	1:38 a	-10.5	-10.5	-10.5	---	---	7.0	NE	0.12	7.8	-16.8	---	---	735.1	0.020	0.000	20.8	4	1
03/02/06	1:39 a	-10.5	-10.5	-10.5	---	---	7.0	NE	0.12	8.7	-16.8	---	---	735.2	0.020	0.000	20.8	5	1
03/02/06	1:40 a	-10.5	-10.5	-10.5	---	---	8.7	NE	0.14	8.7	-17.6	---	---	735.2	0.020	0.000	20.8	5	1
03/02/06	1:41 a	-10.5	-10.5	-10.5	---	---	7.8	NE	0.13	9.6	-17.2	---	---	735.3	0.020	0.000	20.8	5	1
03/02/06	1:42 a	-10.5	-10.5	-10.5	---	---	8.7	NE	0.14	9.6	-17.6	---	---	735.2	0.020	0.000	20.8	5	1
03/02/06	1:43 a	-10.5	-10.5	-10.5	---	---	7.8	NE	0.13	8.7	-17.2	---	---	735.1	0.020	0.000	20.8	5	1
03/02/06	1:44 a	-10.5	-10.4	-10.5	---	---	7.0	NE	0.12	7.8	-16.8	---	---	735.2	0.020	0.000	20.8	4	1
03/02/06	1:45 a	-10.4	-10.4	-10.4	---	---	5.2	NE	0.09	7.0	-15.7	---	---	735.1	0.020	0.000	20.8	4	1
03/02/06	1:46 a	-10.4	-10.4	-10.4	---	---	5.2	NE	0.09	7.0	-15.7	---	---	735.3	0.020	0.000	20.8	4	1
03/02/06	1:47 a	-10.4	-10.3	-10.4	---	---	5.2	NNE	0.09	6.1	-15.6	---	---	735.1	0.020	0.000	20.8	5	1
03/02/06	1:48 a	-10.3	-10.3	-10.3	---	---	4.3	NNE	0.07	6.1	-14.8	---	---	735.1	0.020	0.000	20.8	5	1
03/02/06	1:49 a	-10.2	-10.2	-10.2	---	---	3.5	NNE	0.06	5.2	-14.0	---	---	735.1	0.020	0.000	20.8	5	1
03/02/06	1:50 a	-10.1	-10.1	-10.2	---	---	3.5	NNE	0.06	5.2	-13.8	---	---	735.1	0.020	0.000	20.8	5	1
03/02/06	1:51 a	-10.0	-9.9	-10.0	---	---	3.5	NNE	0.06	5.2	-13.7	---	---	735.1	0.020	0.000	20.8	5	1
03/02/06	1:52 a	-9.9	-9.8	-9.9	---	---	2.6	N	0.04	5.2	-12.7	---	---	735.1	0.020	0.000	20.8	4	1
03/02/06	1:53 a	-9.8	-9.7	-9.8	---	---	5.2	NNW	0.09	6.1	-14.8	---	---	735.1	0.020	0.000	20.8	5	1
03/02/06	1:54 a	-9.7	-9.6	-9.7	---	---	3.5	NNW	0.06	4.3	-13.3	---	---	735.1	0.019	0.000	20.8	5	1
03/02/06	1:55 a	-9.6	-9.6	-9.6	---	---	5.2	NNW	0.09	6.1	-14.7	---	---	735.1	0.019	0.000	20.8	5	1
03/02/06	1:56 a	-9.6	-9.5	-9.6	---	---	4.3	N	0.07	6.1	-13.9	---	---	735.2	0.019	0.000	20.8	4	1
03/02/06	1:57 a	-9.5	-9.5	-9.5	---	---	2.6	N	0.04	4.3	-12.2	---	---	735.0	0.019	0.000	20.8	4	1
03/02/06	1:58 a	-9.5	-9.5	-9.6	---	---	4.3	N	0.07	5.2	-13.9	---	---	735.1	0.019	0.000	20.8	5	1
03/02/06	1:59 a	-9.6	-9.6	-9.6	---	---	5.2	N	0.09	6.1	-14.6	---	---	735.1	0.019	0.000	20.8	4	1
03/02/06	2:00 a	-9.7	-9.6	-9.7	---	---	5.2	N	0.09	6.1	-14.7	---	---	735.0	0.019	0.000	20.8	5	1
03/02/06	2:01 a	-9.7	-9.7	-9.8	---	---	5.2	N	0.09	7.0	-14.8	---	---	735.0	0.019	0.000	20.8	4	1
03/02/06	2:02 a	-9.8	-9.8	-9.8	---	---	4.3	NNW	0.07	6.1	-14.2	---	---	735.0	0.020	0.000	20.8	4	1
03/02/06	2:03 a	-9.9	-9.8	-10.0	---	---	5.2	NNW	0.09	6.1	-15.0	---	---	735.0	0.020	0.000	20.8	4	1
03/02/06	2:04 a	-10.1	-10.0	-10.1	---	---	4.3	N	0.07	6.1	-14.6	---	---	735.0	0.020	0.000	20.8	4	1
03/02/06	2:05 a	-10.2	-10.1	-10.2	---	---	5.2	N	0.09	6.1	-15.3	---	---	735.0	0.020	0.000	20.8	5	1
03/02/06	2:06 a	-10.2	-10.2	-10.3	---	---	5.2	N	0.09	7.0	-15.4	---	---	735.0	0.020	0.000	20.8	4	1
03/02/06	2:07 a	-10.4	-10.3	-10.6	---	---	5.2	N	0.09	7.0	-15.6	---	---	735.1	0.020	0.000	20.8	4	1
03/02/06	2:08 a	-10.7	-10.6	-10.8	---	---	4.3	N	0.07	6.1	-15.3	---	---	735.1	0.020	0.000	20.8	4	1
03/02/06	2:09 a	-10.9	-10.8	-11.1	---	---	3.5	N	0.06	6.1	-14.8	---	---	735.1	0.020	0.000	20.8	5	1
03/02/06	2:10 a	-11.1	-11.1	-11.1	---	---	3.5	N	0.06	5.2	-15.0	---	---	735.1	0.020	0.000	20.8	4	1
03/02/06	2:11 a	-11.2	-11.1	-11.3	---	---	3.5	N	0.06	4.3	-15.1	---	---	735.0	0.020	0.000	20.8	4	1
03/02/06	2:12 a	-11.3	-11.3	-11.3	---	---	4.3	N	0.07	6.1	-16.0	---	---	735.0	0.021	0.000	20.8	4	1
03/02/06	2:13 a	-11.4	-11.3	-11.4	---	---	4.3	N	0.07	5.2	-16.1	---	---	735.0	0.021	0.000	20.8	4	1
03/02/06	2:14 a	-11.4	-11.4	-11.4	---	---	4.3	N	0.07	6.1	-16.2	---	---	735.0	0.021	0.000	20.8	4	1
03/02/06	2:15 a	-11.4	-11.3	-11.4	---	---	4.3	N	0.07	5.2	-16.1	---	---	735.1	0.021	0.000	20.8	4	1
03/02/06	2:16 a	-11.3	-11.3	-11.3	---	---	4.3	N	0.07	6.1	-16.1	---	---	735.0	0.021	0.000	20.8	4	1
03/02/06	2:17 a	-11.4	-11.3	-11.4	---	---	6.1	N	0.10	7.0	-17.3	---	---	734.9	0.021	0.000	20.8	4	1
03/02/06	2:18 a	-11.5	-11.5	-11.6	---	---	7.0	NNW	0.12	9.6	-17.9	---	---	734.9	0.021	0.000	20.8	4	1
03/02/06	2:19 a	-11.6	-11.5	-11.6	---	---	7.0	NNW	0.12	7.8	-18.0	---	---	734.9	0.021	0.000	20.8	4	1
03/02/06	2:20 a	-11.4	-11.4	-11.5	---	---	5.2	NW	0.09	7.0	-16.8	---	---	734.9	0.021	0.000	20.8	4	1
03/02/06	2:21 a	-11.3	-11.3	-11.4	---	---	5.2	NW	0.09	6.1	-16.7	---	---	734.9	0.021	0.000	20.8	4	1
03/02/06	2:22 a	-11.2	-11.1	-11.2	---	---	6.1	NW	0.10	7.0	-17.1	---	---	735.0	0.021	0.000	20.8	4	1
03/02/06	2:23 a	-11.1	-11.1	-11.1	---	---	6.1	NNW	0.10	7.8	-17.0	---	---	734.9	0.020	0.000	20.8	4	1
03/02/06	2:24 a	-11.1	-11.1	-11.1	---	---	6.1	NNW	0.10	6.1	-16.9	---	---	734.9	0.020	0.000	20.8	4	1
03/02/06	2:25 a	-11.1	-11.0	-11.1	---	---	5.2	NNW	0.09	7.0	-16.4	---	---	734.9	0.020	0.000	20.9	4	1
03/02/06	2:26 a	-10.9	-10.9	-10.9	---	---	5.2	NW	0.09	6.1	-16.2	---	---	734.9	0.020	0.000	20.8	4	1
03/02/06	2:27 a	-10.8	-10.8	-10.8	---	---	5.2	NW	0.09	7.0	-16.1	---	---	734.9	0.020	0.000	20.9	4	1
03/02/06	2:28 a	-10.7	-10.7	-10.8	---	---	5.2	NW	0.09	7.0	-16.0	---	---	734.9	0.020	0.000	20.8	4	1
03/02/06	2:29 a	-10.7	-10.6	-10.7	---	---	5.2	NW	0.09	7.0	-15.9	---	---	734.9	0.020	0.000	20.8	4	1
03/02/06	2:30 a	-10.6	-10.6	-10.6	---	---	6.1	NW	0.10	7.0	-16.3	---	---	734.9	0.020	0.000	20.8	4	1
03/02/06	2:31 a	-10.5	-10.5	-10.5	---	---	5.2	NW	0.09	6.1	-15.7	---	---	734.9	0.020	0.000	20.8	4	1
03/02/06	2:32 a	-10.4	-10.3	-10.4	---	---	5.2	NW	0.09	6.1	-15.6	---	---	734.9	0.020	0.000	20.8	4	1
03/02/06	2:33 a	-10.3	-10.3	-10.3	---	---	4.3	NW	0.07	5.2	-14.8	---	---	734.8	0.020	0.000	20.8	4	1
03/02/06	2:34 a	-10.2	-10.2	-10.2	---	---	4.3	NW	0.07	5.2	-14.7	---	---	734.9	0.020	0.000	20.9	4	1
03/02/06	2:35 a	-10.2	-10.1	-10.2	---	---	4.3	NW	0.07	5.2	-14.7	---	---	734.9	0.020	0.000	20.9	4	1
03/02/06	2:36 a	-10.1	-10.0	-10.1	---	---	4.3	NW	0.07	5.2	-14.6	---	---	735.0	0.020	0.000	20.9	4	1
03/02/06	2:37 a	-10.0	-9.9	-10.0	---	---	4.3	NW	0.07	5.2	-14.5	---	---	734.9	0.020	0.000	20.9	4	1
03/02/06	2:38 a	-9.9	-9.9	-9.9	---	---	3.5	NW	0.06	4.3	-13.7	---	---	735.0	0.020	0.000	20.9	4	1
03/02/06	2:39 a	-9.8	-9.8	-9.9	---	---	3.5	NW	0.06	4.3	-13.6	---	---	734.9	0.020	0.000	20.9	4	1
03/02/06	2:40 a	-9.8	-9.8	-9.8	---	---	4.3	NW	0.07	5.2	-14.2	---	---	734.9	0.020	0.000	20.9	4	1
03/02/06	2:41 a	-9.7	-9.7	-9.7	---	---	4.3	NW	0.07	5.2	-14.2	---	---	734.9	0.019	0.000	20.9	4	1
03/02/06	2:42 a	-9.6	-9.6	-9.7	---	---	4.3	NW	0.07	5.2	-14.0	---	---	735.0	0.019	0.000	20.9	4	1
03/02/06	2:43 a	-9.6	-9.6	-9.6	---	---	3.5	NW	0.06	4.3	-13.3	---	---	734.9	0.019	0.000	20.9	4	1
03/02/06	2:44 a	-9.5	-9.4	-9.5	---	---	3.5	NW	0.06	4.3	-13.2	---	---	734.9	0.019	0.000	20.9	4	1
03/02/06	2:45 a	-9.4	-9.3	-9.4	---	---	3.5	NW	0.06	4.3	-13.0	---	---	734.9	0.019	0.000	20.9	4	1
03/02/06	2:46 a	-9.3	-9.3	-9.3	---	---	2.6	NW	0.04	3.5	-12.1	---	---	734.9	0.019	0.000	20.9	4	1
03/02/06	2:47 a	-9.2	-9.2	-9.3	---	---	3.5	NW	0.06	3.5	-12.8	---	---	734.9	0.019	0.000	20.9	4	1
03/02/06	2:48 a	-9.1	-9.1	-9.2	---	---	4.3	NW	0.07	5.2	-13.4	---	---	734.9	0.019	0.000	20.9	4	1
03/02/06	2:49 a	-9.1	-9.1	-9.1	---	---	4.3	NW	0.07	5.2	-13.4	---	---	734.9	0.019	0.000	20.9	4	1
03/02/06	2:50 a	-9.0	-9.0	-9.0	---	---	3.5	NW	0.06	4.3	-12.6	---	---	734.9	0.019	0.000	20.9	4	1
03/02/06	2:51 a	-8.9	-8.9	-9.0	---	---	3.5	NW	0.06	4.3	-12.5	---	---	734.8	0.019	0.000	20.9	4	1
03/02/06	2:52 a	-8.9	-8.8	-8.9	---	---	3.5	NW	0.06	3.5	-12.4	---	---	734.9	0.019	0.000	20.9	4	1
03/02/06	2:53 a	-8.8	-8.8	-8.8	---	---	3.5	NW	0.06	4.3	-12.4	---	---	734.8	0.019	0.000	20.9	4	1
03/02/06	2:54 a	-8.7	-8.7	-8.8	---	---	3.5	NW	0.06	4.3	-12.3	---	---	734.8	0.019	0.000	20.9	4	1
03/02/06	2:55 a	-8.7	-8.6	-8.7	---	---	3.5	NW	0.06	5.2	-12.2	---	---	734.9	0.019	0.000	20.9	4	1
03/02/06	2:56 a	-8.6	-8.5	-8.6	---	---	3.5	NW	0.06	4.3	-12.1	---	---	734.8	0.019	0.000	20.9	4	1
03/02/06	2:57 a	-8.5	-8.5	-8.5	---	---	3.5	NW	0.06	3.5	-12.0	---	---	734.8	0.019	0.000	20.9	4	1
03/02/06	2:58 a	-8.4	-8.4	-8.4	---	---	3.5	NW	0.06	4.3	-11.9	---	---	734.8	0.019	0.000	20.9	4	1
03/02/06	2:59 a	-8.4	-8.4	-8.4	---	---	4.3	NW	0.07	5.2	-12.6	---	---	734.8	0.019	0.000	20.9	4	1
03/02/06	3:00 a	-8.3	-8.3	-8.4	---	---	4.3	NW	0.07	4.3	-12.5	---	---	734.8	0.019	0.000	20.9	4	1
03/02/06	3:01 a	-8.3	-8.3	-8.3	---	---	3.5	NW	0.06	4.3	-11.8	---	---	734.8	0.019	0.000	20.9	4	1
03/02/06	3:02 a	-8.3	-8.3	-8.3	---	---	3.5	NW	0.06	4.3	-11.7	---	---	734.8	0.018	0.000	20.9	4	1
03/02/06	3:03 a	-8.2	-8.2	-8.3	---	---	2.6	NW	0.04	3.5	-10.8	---	---	734.8	0.018	0.000	20.9	4	1
03/02/06	3:04 a	-8.1	-8.1	-8.2	---	---	2.6	NW	0.04	3.5	-10.7	---	---	734.8	0.018	0.000	20.9	4	1
03/02/06	3:05 a	-8.1	-8.1	-8.1	---	---	2.6	NW	0.04	3.5	-10.6	---	---	734.8	0.018	0.000	20.9	4	1
03/02/06	3:06 a	-8.0	-7.9	-8.0	---	---	2.6	NW	0.04	2.6	-10.6	---	---	734.8	0.018	0.000	20.9	4	1
03/02/06	3:07 a	-7.9	-7.9	-7.9	---	---	1.7	NW	0.03	2.6	-9.3	---	---	734.7	0.018	0.000	20.9	4	1
03/02/06	3:08 a	-7.9	-7.9	-7.9	---	---	1.7	NW	0.03	2.6	-9.3	---	---	734.8	0.018	0.000	20.9	4	1
03/02/06	3:09 a	-7.9	-7.9	-7.9	---	---	0.9	NW	0.01	1.7	-7.9	---	---	734.8	0.018	0.000	20.9	4	1
03/02/06	3:10 a	-7.9	-7.9	-7.9	---	---	1.7	NW	0.03	2.6	-9.2	---	---	734.7	0.018	0.000	20.9	4	1
03/02/06	3:11 a	-7.9	-7.9	-7.9	---	---	0.9	NW	0.01	2.6	-7.9	---	---	734.8	0.018	0.000	20.9	4	1
03/02/06	3:12 a	-7.9	-7.9	-7.9	---	---	0.9	NW	0.01	1.7	-7.9	---	---	734.7	0.018	0.000	20.9	4	1
03/02/06	3:13 a	-7.9	-7.9	-7.9	---	---	1.7	NW	0.03	2.6	-9.2	---	---	734.8	0.018	0.000	20.9	4	1
03/02/06	3:14 a	-7.9	-7.9	-7.9	---	---	0.0	NW	0.00	1.7	-7.9	---	---	734.8	0.018	0.000	21.0	4	1
03/02/06	3:15 a	-7.9	-7.9	-7.9	---	---	0.9	NW	0.01	1.7	-7.9	---	---	734.8	0.018	0.000	21.0	4	1
03/02/06	3:16 a	-7.9	-7.9	-7.9	---	---	0.9	NW	0.01	1.7	-7.9	---	---	734.7	0.018	0.000	21.0	4	1
03/02/06	3:17 a	-7.8	-7.8	-7.9	---	---	2.6	E	0.04	4.3	-10.3	---	---	734.7	0.018	0.000	21.0	4	1
03/02/06	3:18 a	-7.8	-7.7	-7.8	---	---	3.5	E	0.06	6.1	-11.2	---	---	734.7	0.018	0.000	21.0	4	1
03/02/06	3:19 a	-7.7	-7.7	-7.7	---	---	3.5	NE	0.06	6.1	-11.1	---	---	734.7	0.018	0.000	21.0	4	1
03/02/06	3:20 a	-7.7	-7.7	-7.7	---	---	4.3	NE	0.07	6.1	-11.7	---	---	734.7	0.018	0.000	21.0	4	1
03/02/06	3:21 a	-7.6	-7.6	-7.7	---	---	3.5	ENE	0.06	4.3	-10.9	---	---	734.7	0.018	0.000	21.1	4	1
03/02/06	3:22 a	-7.6	-7.5	-7.6	---	---	4.3	ENE	0.07	5.2	-11.6	---	---	734.7	0.018	0.000	21.1	4	1
03/02/06	3:23 a	-7.5	-7.4	-7.5	---	---	3.5	ENE	0.06	4.3	-10.8	---	---	734.6	0.018	0.000	21.1	4	1
03/02/06	3:24 a	-7.4	-7.4	-7.4	---	---	3.5	ENE	0.06	3.5	-10.8	---	---	734.7	0.018	0.000	21.1	4	1
03/02/06	3:25 a	-7.3	-7.3	-7.4	---	---	2.6	ENE	0.04	3.5	-9.8	---	---	734.6	0.018	0.000	21.1	4	1
03/02/06	3:26 a	-7.3	-7.2	-7.3	---	---	1.7	ENE	0.03	2.6	-8.6	---	---	734.7	0.018	0.000	21.1	4	1
03/02/06	3:27 a	-7.1	-7.1	-7.2	---	---	2.6	ENE	0.04	3.5	-9.6	---	---	734.7	0.018	0.000	21.1	4	1
03/02/06	3:28 a	-7.1	-7.0	-7.1	---	---	2.6	ENE	0.04	2.6	-9.4	---	---	734.6	0.018	0.000	21.1	4	1
03/02/06	3:29 a	-7.0	-6.9	-7.0	---	---	2.6	ENE	0.04	3.5	-9.4	---	---	734.7	0.018	0.000	21.1	4	1
03/02/06	3:30 a	-6.9	-6.8	-6.9	---	---	1.7	ENE	0.03	2.6	-8.2	---	---	734.6	0.018	0.000	21.1	4	1
03/02/06	3:31 a	-6.8	-6.8	-6.8	---	---	1.7	ENE	0.03	2.6	-8.1	---	---	734.6	0.017	0.000	21.2	4	1
03/02/06	3:32 a	-6.7	-6.7	-6.8	---	---	1.7	ENE	0.03	2.6	-7.9	---	---	734.6	0.017	0.000	21.2	4	1
03/02/06	3:33 a	-6.6	-6.6	-6.7	---	---	1.7	ENE	0.03	2.6	-7.8	---	---	734.6	0.017	0.000	21.2	4	1
03/02/06	3:34 a	-6.5	-6.4	-6.6	---	---	0.9	ENE	0.01	1.7	-6.5	---	---	734.7	0.017	0.000	21.2	4	1
03/02/06	3:35 a	-6.4	-6.3	-6.4	---	---	0.9	ENE	0.01	1.7	-6.4	---	---	734.5	0.017	0.000	21.2	4	1
03/02/06	3:36 a	-6.3	-6.2	-6.3	---	---	0.9	ENE	0.01	1.7	-6.3	---	---	734.6	0.017	0.000	21.2	4	1
03/02/06	3:37 a	-6.2	-6.1	-6.2	---	---	0.9	ENE	0.01	1.7	-6.2	---	---	734.5	0.017	0.000	21.2	4	1
03/02/06	3:38 a	-6.0	-5.9	-6.1	---	---	0.9	ENE	0.01	1.7	-6.0	---	---	734.6	0.017	0.000	21.2	4	1
03/02/06	3:39 a	-5.9	-5.8	-5.9	---	---	0.9	ENE	0.01	1.7	-5.9	---	---	734.6	0.017	0.000	21.2	4	1
03/02/06	3:40 a	-5.8	-5.7	-5.8	---	---	0.9	ENE	0.01	1.7	-5.8	---	---	734.5	0.017	0.000	21.2	4	1
03/02/06	3:41 a	-5.7	-5.6	-5.7	---	---	0.9	ENE	0.01	1.7	-5.7	---	---	734.6	0.017	0.000	21.2	4	1
03/02/06	3:42 a	-5.6	-5.5	-5.6	---	---	0.9	ENE	0.01	1.7	-5.6	---	---	734.5	0.017	0.000	21.3	4	1
03/02/06	3:43 a	-5.4	-5.4	-5.5	---	---	0.9	ENE	0.01	1.7	-5.4	---	---	734.6	0.017	0.000	21.3	4	1
03/02/06	3:44 a	-5.3	-5.3	-5.4	---	---	0.9	ENE	0.01	1.7	-5.3	---	---	734.6	0.016	0.000	21.3	4	1
03/02/06	3:45 a	-5.2	-5.1	-5.3	---	---	0.9	ENE	0.01	1.7	-5.2	---	---	734.6	0.016	0.000	21.3	4	1
03/02/06	3:46 a	-5.1	-5.0	-5.1	---	---	2.6	ENE	0.04	3.5	-7.2	---	---	734.6	0.016	0.000	21.3	4	1
03/02/06	3:47 a	-4.9	-4.9	-5.0	---	---	5.2	ENE	0.09	7.0	-9.1	---	---	734.6	0.016	0.000	21.3	4	1
03/02/06	3:48 a	-4.8	-4.8	-4.9	---	---	6.1	ENE	0.10	7.0	-9.4	---	---	734.6	0.016	0.000	21.3	4	1
03/02/06	3:49 a	-4.7	-4.7	-4.8	---	---	5.2	ENE	0.09	7.0	-8.8	---	---	734.6	0.016	0.000	21.3	4	1
03/02/06	3:50 a	-4.7	-4.7	-4.7	---	---	5.2	ENE	0.09	6.1	-8.8	---	---	734.6	0.016	0.000	21.3	4	1
03/02/06	3:51 a	-4.7	-4.7	-4.7	---	---	6.1	ENE	0.10	6.1	-9.3	---	---	734.6	0.016	0.000	21.3	4	1
03/02/06	3:52 a	-4.7	-4.7	-4.8	---	---	5.2	ENE	0.09	6.1	-8.8	---	---	734.6	0.016	0.000	21.3	4	1
03/02/06	3:53 a	-4.8	-4.7	-4.8	---	---	4.3	ENE	0.07	6.1	-8.3	---	---	734.5	0.016	0.000	21.3	4	1
03/02/06	3:54 a	-4.8	-4.8	-4.8	---	---	2.6	ENE	0.04	3.5	-6.9	---	---	734.6	0.016	0.000	21.3	4	1
03/02/06	3:55 a	-4.8	-4.8	-4.8	---	---	3.5	ENE	0.06	4.3	-7.8	---	---	734.7	0.016	0.000	21.3	4	1
03/02/06	3:56 a	-4.8	-4.8	-4.8	---	---	2.6	ENE	0.04	2.6	-6.9	---	---	734.6	0.016	0.000	21.3	4	1
03/02/06	3:57 a	-4.8	-4.8	-4.8	---	---	1.7	ENE	0.03	2.6	-5.9	---	---	734.6	0.016	0.000	21.3	4	1
03/02/06	3:58 a	-4.8	-4.8	-4.8	---	---	1.7	ENE	0.03	2.6	-5.9	---	---	734.6	0.016	0.000	21.3	4	1
03/02/06	3:59 a	-4.8	-4.8	-4.8	---	---	2.6	ENE	0.04	3.5	-6.9	---	---	734.6	0.016	0.000	21.3	4	1
03/02/06	4:00 a	-4.8	-4.8	-4.8	---	---	4.3	ENE	0.07	5.2	-8.4	---	---	734.5	0.016	0.000	21.4	4	1
03/02/06	4:01 a	-4.8	-4.8	-4.8	---	---	6.1	ENE	0.10	6.1	-9.4	---	---	734.5	0.016	0.000	21.4	4	1
03/02/06	4:02 a	-4.8	-4.8	-4.8	---	---	7.0	ENE	0.12	7.8	-9.8	---	---	734.6	0.016	0.000	21.4	4	1
03/02/06	4:03 a	-4.8	-4.8	-4.9	---	---	7.0	ENE	0.12	7.8	-9.8	---	---	734.5	0.016	0.000	21.4	4	1
03/02/06	4:04 a	-4.9	-4.9	-4.9	---	---	7.0	ENE	0.12	7.8	-9.9	---	---	734.6	0.016	0.000	21.4	4	1
03/02/06	4:05 a	-4.9	-4.9	-4.9	---	---	7.0	ENE	0.12	7.8	-10.0	---	---	734.5	0.016	0.000	21.4	4	1
03/02/06	4:06 a	-5.0	-5.0	-5.1	---	---	6.1	NE	0.10	7.8	-9.6	---	---	734.6	0.016	0.000	21.4	5	1
03/02/06	4:07 a	-5.1	-5.1	-5.2	---	---	6.1	NE	0.10	7.0	-9.8	---	---	734.5	0.016	0.000	21.4	4	1
03/02/06	4:08 a	-5.2	-5.2	-5.3	---	---	5.2	NE	0.09	7.0	-9.4	---	---	734.5	0.016	0.000	21.4	4	1
03/02/06	4:09 a	-5.3	-5.3	-5.3	---	---	4.3	NE	0.07	4.3	-8.9	---	---	734.5	0.016	0.000	21.4	4	1
03/02/06	4:10 a	-5.4	-5.3	-5.4	---	---	2.6	NE	0.04	3.5	-7.6	---	---	734.5	0.016	0.000	21.4	4	1
03/02/06	4:11 a	-5.4	-5.4	-5.4	---	---	3.5	NE	0.06	5.2	-8.4	---	---	734.5	0.016	0.000	21.4	4	1
03/02/06	4:12 a	-5.4	-5.4	-5.5	---	---	3.5	NE	0.06	5.2	-8.4	---	---	734.5	0.017	0.000	21.4	4	1
03/02/06	4:13 a	-5.4	-5.4	-5.5	---	---	2.6	NE	0.04	3.5	-7.7	---	---	734.5	0.017	0.000	21.4	4	1
03/02/06	4:14 a	-5.4	-5.4	-5.5	---	---	3.5	NE	0.06	3.5	-8.4	---	---	734.5	0.017	0.000	21.4	4	1
03/02/06	4:15 a	-5.5	-5.5	-5.5	---	---	2.6	NE	0.04	4.3	-7.7	---	---	734.5	0.017	0.000	21.4	4	1
03/02/06	4:16 a	-5.5	-5.5	-5.6	---	---	2.6	NE	0.04	4.3	-7.7	---	---	734.5	0.017	0.000	21.4	5	1
03/02/06	4:17 a	-5.6	-5.6	-5.6	---	---	3.5	NNE	0.06	4.3	-8.6	---	---	734.5	0.017	0.000	21.4	4	1
03/02/06	4:18 a	-5.7	-5.6	-5.7	---	---	2.6	NNE	0.04	3.5	-7.9	---	---	734.5	0.017	0.000	21.4	4	1
03/02/06	4:19 a	-5.7	-5.7	-5.8	---	---	2.6	NNE	0.04	2.6	-7.9	---	---	734.4	0.017	0.000	21.5	5	1
03/02/06	4:20 a	-5.8	-5.8	-5.9	---	---	1.7	NNE	0.03	2.6	-6.9	---	---	734.5	0.017	0.000	21.5	4	1
03/02/06	4:21 a	-5.9	-5.9	-6.0	---	---	1.7	NNE	0.03	1.7	-7.1	---	---	734.5	0.017	0.000	21.5	4	1
03/02/06	4:22 a	-6.0	-6.0	-6.1	---	---	0.9	NNE	0.01	1.7	-6.0	---	---	734.4	0.017	0.000	21.5	5	1
03/02/06	4:23 a	-6.1	-6.1	-6.2	---	---	0.9	NNE	0.01	1.7	-6.1	---	---	734.4	0.017	0.000	21.5	4	1
03/02/06	4:24 a	-6.2	-6.2	-6.2	---	---	0.9	NNE	0.01	2.6	-6.2	---	---	734.5	0.017	0.000	21.5	4	1
03/02/06	4:25 a	-6.3	-6.2	-6.4	---	---	0.9	NNE	0.01	1.7	-6.3	---	---	734.4	0.017	0.000	21.5	5	1
03/02/06	4:26 a	-6.4	-6.4	-6.4	---	---	0.0	NNE	0.00	0.9	-6.4	---	---	734.5	0.017	0.000	21.6	5	1
03/02/06	4:27 a	-6.5	-6.4	-6.5	---	---	0.9	NNE	0.01	1.7	-6.5	---	---	734.5	0.017	0.000	21.6	4	1
03/02/06	4:28 a	-6.6	-6.5	-6.6	---	---	0.9	NNE	0.01	1.7	-6.6	---	---	734.4	0.017	0.000	21.6	4	1
03/02/06	4:29 a	-6.6	-6.6	-6.6	---	---	1.7	NNE	0.03	2.6	-7.8	---	---	734.4	0.017	0.000	21.6	4	1
03/02/06	4:30 a	-6.6	-6.6	-6.7	---	---	0.9	NNE	0.01	1.7	-6.6	---	---	734.4	0.017	0.000	21.6	4	1
03/02/06	4:31 a	-6.7	-6.7	-6.7	---	---	0.9	NNE	0.01	1.7	-6.7	---	---	734.5	0.017	0.000	21.6	4	1
03/02/06	4:32 a	-6.7	-6.7	-6.8	---	---	1.7	NNE	0.03	1.7	-7.9	---	---	734.4	0.017	0.000	21.6	4	1
03/02/06	4:33 a	-6.8	-6.8	-6.8	---	---	0.9	NNE	0.01	1.7	-6.8	---	---	734.4	0.017	0.000	21.6	5	1
03/02/06	4:34 a	-6.8	-6.8	-6.8	---	---	0.0	NNE	0.00	1.7	-6.8	---	---	734.5	0.017	0.000	21.6	4	1
03/02/06	4:35 a	-6.8	-6.8	-6.9	---	---	0.9	NNE	0.01	2.6	-6.8	---	---	734.4	0.017	0.000	21.6	4	1
03/02/06	4:36 a	-6.8	-6.8	-6.8	---	---	2.6	NNE	0.04	5.2	-9.2	---	---	734.4	0.017	0.000	21.7	4	1
03/02/06	4:37 a	-6.8	-6.8	-6.8	---	---	3.5	ENE	0.06	5.2	-10.1	---	---	734.5	0.017	0.000	21.7	4	1
03/02/06	4:38 a	-6.8	-6.8	-6.8	---	---	3.5	ENE	0.06	4.3	-10.0	---	---	734.4	0.017	0.000	21.7	4	1
03/02/06	4:39 a	-6.7	-6.7	-6.8	---	---	3.5	ENE	0.06	5.2	-9.9	---	---	734.4	0.017	0.000	21.7	4	1
03/02/06	4:40 a	-6.7	-6.7	-6.7	---	---	4.3	ENE	0.07	4.3	-10.6	---	---	734.4	0.017	0.000	21.7	4	1
03/02/06	4:41 a	-6.7	-6.7	-6.7	---	---	3.5	ENE	0.06	4.3	-9.9	---	---	734.3	0.017	0.000	21.7	4	1
03/02/06	4:42 a	-6.6	-6.6	-6.7	---	---	3.5	ENE	0.06	4.3	-9.8	---	---	734.3	0.017	0.000	21.7	5	1
03/02/06	4:43 a	-6.6	-6.6	-6.6	---	---	3.5	ENE	0.06	4.3	-9.8	---	---	734.3	0.017	0.000	21.7	4	1
03/02/06	4:44 a	-6.6	-6.6	-6.6	---	---	3.5	ENE	0.06	4.3	-9.8	---	---	734.3	0.017	0.000	21.7	4	1
03/02/06	4:45 a	-6.6	-6.5	-6.6	---	---	6.1	ENE	0.10	7.0	-11.5	---	---	734.4	0.017	0.000	21.8	5	1
03/02/06	4:46 a	-6.5	-6.5	-6.5	---	---	7.0	ENE	0.12	7.8	-11.9	---	---	734.3	0.017	0.000	21.8	4	1
03/02/06	4:47 a	-6.4	-6.4	-6.5	---	---	7.8	ENE	0.13	7.8	-12.2	---	---	734.4	0.017	0.000	21.8	5	1
03/02/06	4:48 a	-6.5	-6.5	-6.5	---	---	7.8	ENE	0.13	7.8	-12.3	---	---	734.3	0.017	0.000	21.8	4	1
03/02/06	4:49 a	-6.5	-6.5	-6.6	---	---	7.0	ENE	0.12	7.8	-11.9	---	---	734.3	0.017	0.000	21.8	4	1
03/02/06	4:50 a	-6.6	-6.6	-6.6	---	---	7.8	ENE	0.13	8.7	-12.3	---	---	734.3	0.017	0.000	21.8	4	1
03/02/06	4:51 a	-6.6	-6.6	-6.7	---	---	7.8	ENE	0.13	8.7	-12.4	---	---	734.3	0.017	0.000	21.8	4	1
03/02/06	4:52 a	-6.7	-6.7	-6.7	---	---	7.0	NE	0.12	7.8	-12.1	---	---	734.3	0.017	0.000	21.9	5	1
03/02/06	4:53 a	-6.7	-6.7	-6.8	---	---	7.0	NE	0.12	7.8	-12.2	---	---	734.3	0.017	0.000	21.9	4	1
03/02/06	4:54 a	-6.8	-6.8	-6.9	---	---	7.0	NE	0.12	7.8	-12.3	---	---	734.3	0.017	0.000	21.9	4	1
03/02/06	4:55 a	-6.9	-6.9	-7.0	---	---	7.0	NE	0.12	7.8	-12.4	---	---	734.3	0.018	0.000	21.9	5	1
03/02/06	4:56 a	-7.0	-7.0	-7.1	---	---	6.1	NE	0.10	7.0	-12.1	---	---	734.3	0.018	0.000	21.9	4	1
03/02/06	4:57 a	-7.1	-7.1	-7.1	---	---	7.0	NE	0.12	7.0	-12.6	---	---	734.3	0.018	0.000	21.9	4	1
03/02/06	4:58 a	-7.2	-7.1	-7.2	---	---	6.1	NE	0.10	7.0	-12.2	---	---	734.3	0.018	0.000	21.9	4	1
03/02/06	4:59 a	-7.2	-7.2	-7.3	---	---	7.0	NE	0.12	7.8	-12.8	---	---	734.4	0.018	0.000	22.0	4	1
03/02/06	5:00 a	-7.3	-7.3	-7.4	---	---	6.1	NE	0.10	7.0	-12.4	---	---	734.3	0.018	0.000	22.0	5	1
03/02/06	5:01 a	-7.4	-7.4	-7.4	---	---	7.0	NE	0.12	7.8	-13.0	---	---	734.3	0.018	0.000	22.0	4	1
03/02/06	5:02 a	-7.5	-7.4	-7.5	---	---	7.0	NE	0.12	7.0	-13.1	---	---	734.2	0.018	0.000	22.0	4	1
03/02/06	5:03 a	-7.6	-7.5	-7.6	---	---	7.8	NE	0.13	8.7	-13.6	---	---	734.3	0.018	0.000	22.1	4	1
03/02/06	5:04 a	-7.7	-7.6	-7.7	---	---	7.0	NE	0.12	7.8	-13.3	---	---	734.3	0.018	0.000	22.1	4	1
03/02/06	5:05 a	-7.7	-7.7	-7.8	---	---	7.0	NE	0.12	7.8	-13.4	---	---	734.2	0.018	0.000	22.1	5	1
03/02/06	5:06 a	-7.8	-7.8	-7.8	---	---	7.8	NE	0.13	7.8	-13.8	---	---	734.3	0.018	0.000	22.1	5	1
03/02/06	5:07 a	-7.9	-7.9	-7.9	---	---	7.0	NE	0.12	7.8	-13.6	---	---	734.2	0.018	0.000	22.1	4	1
03/02/06	5:08 a	-7.9	-7.9	-8.0	---	---	7.0	NE	0.12	7.8	-13.7	---	---	734.2	0.018	0.000	22.1	4	1
03/02/06	5:09 a	-8.1	-8.0	-8.1	---	---	7.0	NE	0.12	7.8	-13.8	---	---	734.3	0.018	0.000	22.1	4	1
03/02/06	5:10 a	-8.2	-8.1	-8.2	---	---	7.8	NE	0.13	8.7	-14.3	---	---	734.2	0.018	0.000	22.1	5	1
03/02/06	5:11 a	-8.2	-8.2	-8.3	---	---	7.8	NE	0.13	8.7	-14.4	---	---	734.3	0.018	0.000	22.1	5	1
03/02/06	5:12 a	-8.3	-8.3	-8.3	---	---	6.1	NE	0.10	7.8	-13.6	---	---	734.2	0.018	0.000	22.1	4	1
03/02/06	5:13 a	-8.4	-8.3	-8.4	---	---	8.7	NE	0.14	9.6	-15.0	---	---	734.2	0.019	0.000	22.1	4	1
03/02/06	5:14 a	-8.4	-8.4	-8.4	---	---	8.7	ENE	0.14	9.6	-15.1	---	---	734.3	0.019	0.000	22.1	4	1
03/02/06	5:15 a	-8.5	-8.4	-8.6	---	---	7.0	ENE	0.12	7.8	-14.3	---	---	734.3	0.019	0.000	22.1	4	1
03/02/06	5:16 a	-8.6	-8.6	-8.6	---	---	7.8	NE	0.13	8.7	-14.8	---	---	734.2	0.019	0.000	22.1	5	1
03/02/06	5:17 a	-8.6	-8.6	-8.7	---	---	7.8	NE	0.13	8.7	-14.9	---	---	734.3	0.019	0.000	22.1	5	1
03/02/06	5:18 a	-8.7	-8.7	-8.7	---	---	8.7	NE	0.14	8.7	-15.4	---	---	734.3	0.019	0.000	22.1	4	1
03/02/06	5:19 a	-8.8	-8.7	-8.8	---	---	7.8	NE	0.13	8.7	-15.1	---	---	734.3	0.019	0.000	22.1	4	1
03/02/06	5:20 a	-8.8	-8.8	-8.8	---	---	8.7	NE	0.14	8.7	-15.6	---	---	734.3	0.019	0.000	22.1	4	1
03/02/06	5:21 a	-8.9	-8.8	-8.9	---	---	8.7	NE	0.14	8.7	-15.6	---	---	734.2	0.019	0.000	22.1	5	1
03/02/06	5:22 a	-8.9	-8.9	-8.9	---	---	7.8	ENE	0.13	8.7	-15.2	---	---	734.3	0.019	0.000	22.1	4	1
03/02/06	5:23 a	-8.9	-8.9	-9.0	---	---	7.0	NE	0.12	8.7	-14.9	---	---	734.3	0.019	0.000	22.1	5	1
03/02/06	5:24 a	-9.1	-9.0	-9.1	---	---	8.7	NE	0.14	8.7	-15.8	---	---	734.3	0.019	0.000	22.1	4	1
03/02/06	5:25 a	-9.1	-9.1	-9.1	---	---	7.8	ENE	0.13	8.7	-15.4	---	---	734.3	0.019	0.000	22.1	4	1
03/02/06	5:26 a	-9.1	-9.1	-9.1	---	---	7.8	ENE	0.13	8.7	-15.5	---	---	734.3	0.019	0.000	22.1	4	1
03/02/06	5:27 a	-9.2	-9.1	-9.2	---	---	8.7	ENE	0.14	9.6	-15.9	---	---	734.2	0.019	0.000	22.1	4	1
03/02/06	5:28 a	-9.2	-9.2	-9.2	---	---	7.8	ENE	0.13	8.7	-15.6	---	---	734.4	0.019	0.000	22.1	4	1
03/02/06	5:29 a	-9.2	-9.2	-9.3	---	---	7.0	NE	0.12	8.7	-15.2	---	---	734.4	0.019	0.000	22.1	4	1
03/02/06	5:30 a	-9.3	-9.3	-9.3	---	---	8.7	NE	0.14	9.6	-16.1	---	---	734.4	0.019	0.000	22.1	5	1
03/02/06	5:31 a	-9.3	-9.3	-9.4	---	---	7.8	NE	0.13	9.6	-15.8	---	---	734.4	0.019	0.000	22.1	5	1
03/02/06	5:32 a	-9.4	-9.4	-9.4	---	---	7.8	NE	0.13	8.7	-15.8	---	---	734.4	0.019	0.000	22.1	4	1
03/02/06	5:33 a	-9.4	-9.4	-9.5	---	---	7.8	NE	0.13	9.6	-15.9	---	---	734.4	0.019	0.000	22.0	4	1
03/02/06	5:34 a	-9.6	-9.5	-9.6	---	---	7.8	NE	0.13	8.7	-16.1	---	---	734.4	0.019	0.000	21.9	5	1
03/02/06	5:35 a	-9.6	-9.6	-9.6	---	---	7.8	ENE	0.13	8.7	-16.1	---	---	734.4	0.019	0.000	21.9	4	1
03/02/06	5:36 a	-9.7	-9.7	-9.7	---	---	8.7	NE	0.14	9.6	-16.6	---	---	734.5	0.019	0.000	21.9	4	1
03/02/06	5:37 a	-9.8	-9.7	-9.8	---	---	8.7	NE	0.14	10.4	-16.7	---	---	734.4	0.020	0.000	21.9	4	1
03/02/06	5:38 a	-9.9	-9.8	-9.9	---	---	8.7	ENE	0.14	10.4	-16.8	---	---	734.4	0.020	0.000	21.8	4	1
03/02/06	5:39 a	-9.9	-9.9	-9.9	---	---	8.7	ENE	0.14	10.4	-16.9	---	---	734.4	0.020	0.000	21.8	4	1
03/02/06	5:40 a	-10.0	-9.9	-10.0	---	---	9.6	ENE	0.16	11.3	-17.3	---	---	734.4	0.020	0.000	21.8	4	1
03/02/06	5:41 a	-10.0	-10.0	-10.1	---	---	11.3	ENE	0.19	12.2	-17.9	---	---	734.4	0.020	0.000	21.8	4	1
03/02/06	5:42 a	-10.1	-10.1	-10.2	---	---	9.6	ENE	0.16	10.4	-17.5	---	---	734.3	0.020	0.000	21.8	4	1
03/02/06	5:43 a	-10.2	-10.2	-10.3	---	---	9.6	NE	0.16	11.3	-17.6	---	---	734.4	0.020	0.000	21.8	4	1
03/02/06	5:44 a	-10.3	-10.3	-10.3	---	---	9.6	NE	0.16	10.4	-17.7	---	---	734.4	0.020	0.000	21.7	4	1
03/02/06	5:45 a	-10.3	-10.3	-10.4	---	---	9.6	NE	0.16	10.4	-17.8	---	---	734.3	0.020	0.000	21.7	4	1
03/02/06	5:46 a	-10.4	-10.4	-10.5	---	---	9.6	NE	0.16	11.3	-17.8	---	---	734.3	0.020	0.000	21.7	4	1
03/02/06	5:47 a	-10.6	-10.6	-10.6	---	---	10.4	NE	0.17	10.4	-18.3	---	---	734.3	0.020	0.000	21.7	4	1
03/02/06	5:48 a	-10.7	-10.6	-10.7	---	---	9.6	NE	0.16	9.6	-18.1	---	---	734.5	0.020	0.000	21.7	4	1
03/02/06	5:49 a	-10.7	-10.7	-10.8	---	---	9.6	NE	0.16	10.4	-18.2	---	---	734.4	0.020	0.000	21.7	4	1
03/02/06	5:50 a	-10.8	-10.8	-10.9	---	---	9.6	NE	0.16	10.4	-18.3	---	---	734.4	0.020	0.000	21.7	4	1
03/02/06	5:51 a	-10.9	-10.9	-10.9	---	---	8.7	NE	0.14	10.4	-18.1	---	---	734.4	0.020	0.000	21.7	4	1
03/02/06	5:52 a	-10.9	-10.9	-11.0	---	---	9.6	ENE	0.16	11.3	-18.5	---	---	734.4	0.020	0.000	21.7	4	1
03/02/06	5:53 a	-11.0	-11.0	-11.1	---	---	10.4	ENE	0.17	11.3	-18.9	---	---	734.3	0.020	0.000	21.7	4	1
03/02/06	5:54 a	-11.1	-11.1	-11.1	---	---	9.6	ENE	0.16	10.4	-18.6	---	---	734.4	0.020	0.000	21.7	4	1
03/02/06	5:55 a	-11.1	-11.1	-11.2	---	---	8.7	ENE	0.14	10.4	-18.3	---	---	734.4	0.020	0.000	21.7	4	1
03/02/06	5:56 a	-11.2	-11.2	-11.2	---	---	8.7	ENE	0.14	9.6	-18.4	---	---	734.3	0.020	0.000	21.7	4	1
03/02/06	5:57 a	-11.2	-11.2	-11.2	---	---	9.6	ENE	0.16	11.3	-18.8	---	---	734.4	0.021	0.000	21.7	4	1
03/02/06	5:58 a	-11.2	-11.2	-11.2	---	---	8.7	ENE	0.14	10.4	-18.4	---	---	734.4	0.021	0.000	21.7	4	1
03/02/06	5:59 a	-11.2	-11.2	-11.2	---	---	9.6	ENE	0.16	11.3	-18.8	---	---	734.4	0.020	0.000	21.7	4	1
03/02/06	6:00 a	-11.2	-11.2	-11.2	---	---	9.6	ENE	0.16	10.4	-18.8	---	---	734.5	0.021	0.000	21.7	4	1
03/02/06	6:01 a	-11.2	-11.2	-11.2	---	---	7.8	ENE	0.13	8.7	-17.9	---	---	734.4	0.020	0.000	21.7	3	1
03/02/06	6:02 a	-11.2	-11.2	-11.2	---	---	7.8	ENE	0.13	8.7	-17.9	---	---	734.4	0.020	0.000	21.7	3	1
03/02/06	6:03 a	-11.1	-11.1	-11.2	---	---	7.8	ENE	0.13	8.7	-17.9	---	---	734.4	0.020	0.000	21.8	3	1
03/02/06	6:04 a	-11.1	-11.1	-11.1	---	---	7.8	ENE	0.13	8.7	-17.9	---	---	734.2	0.020	0.000	21.8	3	1
03/02/06	6:05 a	-11.1	-11.1	-11.1	---	---	8.7	ENE	0.14	9.6	-18.2	---	---	734.2	0.020	0.000	21.8	3	1
03/02/06	6:06 a	-11.1	-11.1	-11.1	---	---	8.7	ENE	0.14	9.6	-18.2	---	---	734.3	0.020	0.000	21.8	3	1
03/02/06	6:07 a	-11.1	-11.0	-11.1	---	---	7.8	ENE	0.13	9.6	-17.8	---	---	734.3	0.020	0.000	21.8	3	1
03/02/06	6:08 a	-11.0	-11.0	-11.0	---	---	8.7	ENE	0.14	9.6	-18.2	---	---	734.3	0.020	0.000	21.9	3	1
03/02/06	6:09 a	-11.0	-11.0	-11.0	---	---	9.6	ENE	0.16	9.6	-18.6	---	---	734.3	0.020	0.000	21.9	3	1
03/02/06	6:10 a	-11.0	-11.0	-11.0	---	---	9.6	ENE	0.16	10.4	-18.6	---	---	734.3	0.020	0.000	22.0	3	1
03/02/06	6:11 a	-11.0	-11.0	-11.0	---	---	9.6	ENE	0.16	10.4	-18.6	---	---	734.2	0.020	0.000	22.1	3	1
03/02/06	6:12 a	-11.1	-11.1	-11.1	---	---	9.6	ENE	0.16	10.4	-18.6	---	---	734.3	0.020	0.000	22.1	3	1
03/02/06	6:13 a	-11.1	-11.1	-11.1	---	---	9.6	ENE	0.16	10.4	-18.6	---	---	734.2	0.020	0.000	22.1	3	1
03/02/06	6:14 a	-11.1	-11.1	-11.1	---	---	9.6	ENE	0.16	10.4	-18.6	---	---	734.3	0.020	0.000	22.1	3	1
03/02/06	6:15 a	-11.1	-11.1	-11.1	---	---	9.6	NE	0.16	10.4	-18.7	---	---	734.2	0.020	0.000	22.2	3	1
03/02/06	6:16 a	-11.2	-11.1	-11.2	---	---	7.8	NE	0.13	9.6	-17.9	---	---	734.1	0.020	0.000	22.2	3	1
03/02/06	6:17 a	-11.2	-11.2	-11.2	---	---	7.8	NE	0.13	8.7	-17.9	---	---	734.2	0.020	0.000	22.2	3	1
03/02/06	6:18 a	-11.2	-11.2	-11.2	---	---	8.7	NE	0.14	10.4	-18.4	---	---	734.2	0.021	0.000	22.2	3	1
03/02/06	6:19 a	-11.3	-11.3	-11.3	---	---	8.7	NE	0.14	10.4	-18.5	---	---	734.2	0.021	0.000	22.3	3	1
03/02/06	6:20 a	-11.3	-11.3	-11.4	---	---	9.6	NE	0.16	10.4	-18.9	---	---	734.2	0.021	0.000	22.3	3	1
03/02/06	6:21 a	-11.4	-11.4	-11.4	---	---	8.7	NE	0.14	9.6	-18.7	---	---	734.3	0.021	0.000	22.3	3	1
03/02/06	6:22 a	-11.5	-11.4	-11.5	---	---	9.6	NE	0.16	9.6	-19.2	---	---	734.2	0.021	0.000	22.3	3	1
03/02/06	6:23 a	-11.6	-11.6	-11.6	---	---	9.6	NE	0.16	10.4	-19.2	---	---	734.2	0.021	0.000	22.3	3	1
03/02/06	6:24 a	-11.7	-11.6	-11.7	---	---	8.7	NE	0.14	11.3	-19.0	---	---	734.1	0.021	0.000	22.3	3	1
03/02/06	6:25 a	-11.7	-11.7	-11.7	---	---	9.6	NE	0.16	11.3	-19.4	---	---	734.2	0.021	0.000	22.4	4	1
03/02/06	6:26 a	-11.8	-11.7	-11.8	---	---	9.6	NE	0.16	10.4	-19.5	---	---	734.2	0.021	0.000	22.4	3	1
03/02/06	6:27 a	-11.8	-11.8	-11.9	---	---	10.4	NE	0.17	11.3	-19.9	---	---	734.2	0.021	0.000	22.4	3	1
03/02/06	6:28 a	-11.9	-11.9	-11.9	---	---	10.4	NE	0.17	11.3	-20.0	---	---	734.2	0.021	0.000	22.4	4	1
03/02/06	6:29 a	-11.9	-11.9	-12.0	---	---	11.3	ENE	0.19	12.2	-20.4	---	---	734.3	0.021	0.000	22.4	4	1
03/02/06	6:30 a	-12.0	-12.0	-12.1	---	---	9.6	NE	0.16	11.3	-19.8	---	---	734.3	0.021	0.000	22.4	3	1
03/02/06	6:31 a	-12.1	-12.1	-12.1	---	---	11.3	ENE	0.19	12.2	-20.6	---	---	734.2	0.021	0.000	22.5	4	1
03/02/06	6:32 a	-12.2	-12.1	-12.2	---	---	13.0	ENE	0.22	13.0	-21.3	---	---	734.1	0.021	0.000	22.5	4	1
03/02/06	6:33 a	-12.2	-12.2	-12.3	---	---	11.3	NE	0.19	13.0	-20.8	---	---	734.2	0.021	0.000	22.5	3	1
03/02/06	6:34 a	-12.3	-12.3	-12.3	---	---	12.2	ENE	0.20	13.9	-21.2	---	---	734.2	0.021	0.000	22.5	3	1
03/02/06	6:35 a	-12.4	-12.4	-12.4	---	---	13.0	ENE	0.22	13.9	-21.6	---	---	734.2	0.021	0.000	22.6	4	1
03/02/06	6:36 a	-12.5	-12.4	-12.6	---	---	13.0	NE	0.22	13.9	-21.7	---	---	734.2	0.021	0.000	22.6	3	1
03/02/06	6:37 a	-12.7	-12.6	-12.7	---	---	10.4	NE	0.17	12.2	-21.0	---	---	734.3	0.022	0.000	22.6	4	1
03/02/06	6:38 a	-12.8	-12.7	-12.8	---	---	12.2	ENE	0.20	13.9	-21.8	---	---	734.2	0.022	0.000	22.6	4	1
03/02/06	6:39 a	-12.8	-12.8	-12.8	---	---	13.9	ENE	0.23	14.8	-22.4	---	---	734.2	0.022	0.000	22.6	4	1
03/02/06	6:40 a	-12.9	-12.9	-12.9	---	---	13.0	NE	0.22	13.9	-22.2	---	---	734.2	0.022	0.000	22.6	4	1
03/02/06	6:41 a	-13.0	-12.9	-13.1	---	---	12.2	NE	0.20	13.0	-22.1	---	---	734.2	0.022	0.000	22.7	4	1
03/02/06	6:42 a	-13.1	-13.1	-13.2	---	---	12.2	ENE	0.20	14.8	-22.2	---	---	734.2	0.022	0.000	22.6	4	1
03/02/06	6:43 a	-13.2	-13.2	-13.2	---	---	13.9	ENE	0.23	14.8	-22.9	---	---	734.2	0.022	0.000	22.7	4	1
03/02/06	6:44 a	-13.3	-13.3	-13.3	---	---	13.0	NE	0.22	13.9	-22.7	---	---	734.2	0.022	0.000	22.7	4	1
03/02/06	6:45 a	-13.4	-13.3	-13.4	---	---	11.3	NE	0.19	12.2	-22.2	---	---	734.1	0.022	0.000	22.7	3	1
03/02/06	6:46 a	-13.4	-13.4	-13.5	---	---	9.6	NE	0.16	11.3	-21.6	---	---	734.1	0.022	0.000	22.7	4	1
03/02/06	6:47 a	-13.6	-13.5	-13.6	---	---	13.0	NE	0.22	13.9	-23.1	---	---	734.1	0.022	0.000	22.7	4	1
03/02/06	6:48 a	-13.7	-13.6	-13.7	---	---	12.2	NE	0.20	13.9	-22.9	---	---	734.1	0.022	0.000	22.8	4	1
03/02/06	6:49 a	-13.8	-13.8	-13.8	---	---	11.3	NE	0.19	12.2	-22.7	---	---	734.2	0.022	0.000	22.8	4	1
03/02/06	6:50 a	-13.9	-13.9	-14.1	---	---	13.0	ENE	0.22	14.8	-23.6	---	---	734.1	0.022	0.000	22.8	3	1
03/02/06	6:51 a	-14.1	-14.1	-14.2	---	---	13.9	ENE	0.23	14.8	-24.1	---	---	734.2	0.023	0.000	22.8	4	1
03/02/06	6:52 a	-14.3	-14.2	-14.4	---	---	13.9	ENE	0.23	15.7	-24.3	---	---	734.2	0.023	0.000	22.8	4	1
03/02/06	6:53 a	-14.4	-14.4	-14.4	---	---	13.9	ENE	0.23	14.8	-24.5	---	---	734.3	0.023	0.000	22.8	4	1
03/02/06	6:54 a	-14.6	-14.6	-14.7	---	---	11.3	NE	0.19	14.8	-23.8	---	---	734.2	0.023	0.000	22.8	4	1
03/02/06	6:55 a	-14.7	-14.7	-14.8	---	---	14.8	ENE	0.25	16.5	-25.2	---	---	734.2	0.023	0.000	22.8	4	1
03/02/06	6:56 a	-14.9	-14.8	-14.9	---	---	13.9	NE	0.23	15.7	-25.1	---	---	734.2	0.023	0.000	22.8	4	1
03/02/06	6:57 a	-15.0	-15.0	-15.1	---	---	11.3	NE	0.19	12.2	-24.3	---	---	734.2	0.023	0.000	22.8	4	1
03/02/06	6:58 a	-15.1	-15.1	-15.2	---	---	12.2	NE	0.20	14.8	-24.8	---	---	734.1	0.023	0.000	22.8	4	1
03/02/06	6:59 a	-15.2	-15.2	-15.3	---	---	16.5	ENE	0.28	17.4	-26.3	---	---	734.2	0.023	0.000	22.8	4	1
03/02/06	7:00 a	-15.3	-15.3	-15.4	---	---	16.5	NE	0.28	17.4	-26.5	---	---	734.1	0.023	0.000	22.8	4	1
03/02/06	7:01 a	-15.5	-15.4	-15.6	---	---	14.8	NE	0.25	15.7	-26.2	---	---	734.2	0.023	0.000	22.8	4	1
03/02/06	7:02 a	-15.6	-15.6	-15.6	---	---	13.9	NE	0.23	15.7	-26.0	---	---	734.1	0.024	0.000	22.8	4	1
03/02/06	7:03 a	-15.7	-15.6	-15.8	---	---	15.7	ENE	0.26	17.4	-26.7	---	---	734.1	0.024	0.000	22.8	4	1
03/02/06	7:04 a	-15.8	-15.8	-15.9	---	---	18.3	ENE	0.30	20.0	-27.6	---	---	734.1	0.024	0.000	22.8	4	1
03/02/06	7:05 a	-15.9	-15.9	-16.1	---	---	17.4	NE	0.29	19.1	-27.6	---	---	734.0	0.024	0.000	22.8	4	1
03/02/06	7:06 a	-16.1	-16.1	-16.1	---	---	16.5	NE	0.28	18.3	-27.4	---	---	734.0	0.024	0.000	22.8	4	1
03/02/06	7:07 a	-16.2	-16.1	-16.2	---	---	15.7	ENE	0.26	17.4	-27.3	---	---	734.1	0.024	0.000	22.8	4	1
03/02/06	7:08 a	-16.3	-16.3	-16.4	---	---	17.4	ENE	0.29	18.3	-28.1	---	---	734.1	0.024	0.000	22.8	4	1
03/02/06	7:09 a	-16.4	-16.4	-16.4	---	---	16.5	NE	0.28	17.4	-27.9	---	---	734.1	0.024	0.000	22.8	4	1
03/02/06	7:10 a	-16.5	-16.5	-16.5	---	---	16.5	NE	0.28	17.4	-28.0	---	---	734.1	0.024	0.000	22.7	4	1
03/02/06	7:11 a	-16.6	-16.5	-16.6	---	---	16.5	ENE	0.28	17.4	-28.1	---	---	734.2	0.024	0.000	22.7	4	1
03/02/06	7:12 a	-16.6	-16.6	-16.6	---	---	17.4	ENE	0.29	18.3	-28.4	---	---	734.1	0.024	0.000	22.7	4	1
03/02/06	7:13 a	-16.7	-16.6	-16.7	---	---	17.4	ENE	0.29	19.1	-28.5	---	---	734.2	0.024	0.000	22.7	4	1
03/02/06	7:14 a	-16.7	-16.7	-16.8	---	---	16.5	NE	0.28	17.4	-28.3	---	---	734.1	0.024	0.000	22.7	4	1
03/02/06	7:15 a	-16.8	-16.8	-16.8	---	---	16.5	ENE	0.28	19.1	-28.4	---	---	734.1	0.024	0.000	22.7	4	1
03/02/06	7:16 a	-16.8	-16.8	-16.8	---	---	15.7	NE	0.26	16.5	-28.2	---	---	734.1	0.024	0.000	22.6	4	1
03/02/06	7:17 a	-16.9	-16.8	-16.9	---	---	18.3	ENE	0.30	19.1	-29.0	---	---	734.1	0.024	0.000	22.6	4	1
03/02/06	7:18 a	-16.9	-16.9	-17.0	---	---	18.3	ENE	0.30	20.0	-29.1	---	---	734.1	0.024	0.000	22.6	4	1
03/02/06	7:19 a	-17.1	-17.0	-17.1	---	---	16.5	NE	0.28	17.4	-28.7	---	---	734.1	0.025	0.000	22.6	4	1
03/02/06	7:20 a	-17.1	-17.1	-17.1	---	---	16.5	NE	0.28	17.4	-28.8	---	---	734.1	0.025	0.000	22.6	4	1
03/02/06	7:21 a	-17.2	-17.1	-17.2	---	---	16.5	NE	0.28	18.3	-28.9	---	---	734.1	0.025	0.000	22.6	4	1
03/02/06	7:22 a	-17.3	-17.2	-17.3	---	---	17.4	ENE	0.29	19.1	-29.3	---	---	734.1	0.025	0.000	22.5	4	1
03/02/06	7:23 a	-17.3	-17.2	-17.3	---	---	16.5	NE	0.28	18.3	-29.0	---	---	734.1	0.025	0.000	22.5	4	1
03/02/06	7:24 a	-17.3	-17.3	-17.4	---	---	16.5	ENE	0.28	17.4	-29.1	---	---	734.1	0.025	0.000	22.5	4	1
03/02/06	7:25 a	-17.4	-17.4	-17.4	---	---	16.5	ENE	0.28	18.3	-29.2	---	---	734.0	0.025	0.000	22.5	4	1
03/02/06	7:26 a	-17.4	-17.4	-17.4	---	---	18.3	ENE	0.30	20.0	-29.7	---	---	734.1	0.025	0.000	22.4	4	1
03/02/06	7:27 a	-17.4	-17.4	-17.4	---	---	15.7	NE	0.26	17.4	-28.9	---	---	734.1	0.025	0.000	22.4	4	1
03/02/06	7:28 a	-17.5	-17.5	-17.5	---	---	16.5	ENE	0.28	18.3	-29.3	---	---	734.0	0.025	0.000	22.4	4	1
03/02/06	7:29 a	-17.6	-17.5	-17.6	---	---	17.4	ENE	0.29	18.3	-29.7	---	---	734.1	0.025	0.000	22.4	4	1
03/02/06	7:30 a	-17.6	-17.6	-17.6	---	---	15.7	ENE	0.26	17.4	-29.1	---	---	734.1	0.025	0.000	22.4	4	1
03/02/06	7:31 a	-17.6	-17.6	-17.6	---	---	18.3	ENE	0.30	19.1	-29.9	---	---	734.0	0.025	0.000	22.4	4	1
03/02/06	7:32 a	-17.6	-17.6	-17.6	---	---	19.1	ENE	0.32	20.9	-30.2	---	---	734.0	0.025	0.000	22.3	4	1
03/02/06	7:33 a	-17.7	-17.7	-17.7	---	---	19.1	ENE	0.32	20.9	-30.3	---	---	734.0	0.025	0.000	22.3	4	1
03/02/06	7:34 a	-17.7	-17.7	-17.7	---	---	19.1	ENE	0.32	21.7	-30.3	---	---	733.9	0.025	0.000	22.3	4	1
03/02/06	7:35 a	-17.8	-17.8	-17.8	---	---	19.1	ENE	0.32	20.9	-30.4	---	---	734.1	0.025	0.000	22.3	4	1
03/02/06	7:36 a	-17.8	-17.8	-17.8	---	---	14.8	NE	0.25	18.3	-29.2	---	---	734.0	0.025	0.000	22.3	4	1
03/02/06	7:37 a	-17.8	-17.8	-17.8	---	---	17.4	NE	0.29	19.1	-29.9	---	---	734.0	0.025	0.000	22.3	4	1
03/02/06	7:38 a	-17.8	-17.8	-17.8	---	---	20.0	ENE	0.33	20.9	-30.7	---	---	734.0	0.025	0.000	22.3	4	1
03/02/06	7:39 a	-17.8	-17.8	-17.9	---	---	17.4	ENE	0.29	20.0	-30.0	---	---	734.1	0.025	0.000	22.3	4	1
03/02/06	7:40 a	-17.9	-17.9	-17.9	---	---	14.8	NE	0.25	18.3	-29.3	---	---	733.9	0.025	0.000	22.3	4	1
03/02/06	7:41 a	-17.9	-17.9	-17.9	---	---	20.9	ENE	0.35	22.6	-31.1	---	---	734.0	0.025	0.000	22.2	4	1
03/02/06	7:42 a	-17.9	-17.9	-18.0	---	---	17.4	ENE	0.29	20.9	-30.2	---	---	734.1	0.025	0.000	22.2	4	1
03/02/06	7:43 a	-18.0	-18.0	-18.0	---	---	17.4	ENE	0.29	19.1	-30.2	---	---	734.0	0.025	0.000	22.2	4	1
03/02/06	7:44 a	-18.1	-18.0	-18.1	---	---	15.7	NE	0.26	18.3	-29.8	---	---	734.0	0.025	0.000	22.2	4	1
03/02/06	7:45 a	-18.1	-18.1	-18.1	---	---	18.3	NE	0.30	20.9	-30.6	---	---	733.9	0.025	0.000	22.2	4	1
03/02/06	7:46 a	-18.1	-18.1	-18.2	---	---	16.5	NE	0.28	20.0	-30.1	---	---	734.0	0.025	0.000	22.2	4	1
03/02/06	7:47 a	-18.2	-18.2	-18.2	---	---	18.3	ENE	0.30	20.9	-30.7	---	---	734.0	0.025	0.000	22.2	4	1
03/02/06	7:48 a	-18.2	-18.2	-18.3	---	---	17.4	NE	0.29	19.1	-30.5	---	---	734.1	0.025	0.000	22.2	4	1
03/02/06	7:49 a	-18.3	-18.3	-18.3	---	---	18.3	ENE	0.30	20.0	-30.9	---	---	734.0	0.025	0.000	22.2	4	1
03/02/06	7:50 a	-18.4	-18.3	-18.4	---	---	16.5	NE	0.28	20.0	-30.5	---	---	733.9	0.026	0.000	22.2	4	1
03/02/06	7:51 a	-18.4	-18.4	-18.4	---	---	19.1	ENE	0.32	21.7	-31.3	---	---	734.1	0.026	0.000	22.1	4	1
03/02/06	7:52 a	-18.5	-18.5	-18.5	---	---	16.5	NE	0.28	20.9	-30.6	---	---	734.0	0.026	0.000	22.1	4	1
03/02/06	7:53 a	-18.5	-18.5	-18.6	---	---	19.1	NE	0.32	21.7	-31.4	---	---	734.1	0.026	0.000	22.1	4	1
03/02/06	7:54 a	-18.6	-18.6	-18.6	---	---	16.5	ENE	0.28	20.9	-30.7	---	---	733.9	0.026	0.000	22.1	4	1
03/02/06	7:55 a	-18.6	-18.6	-18.6	---	---	18.3	ENE	0.30	20.0	-31.3	---	---	734.0	0.026	0.000	22.1	4	1
03/02/06	7:56 a	-18.6	-18.6	-18.6	---	---	15.7	NE	0.26	17.4	-30.5	---	---	734.0	0.026	0.000	22.1	3	1
03/02/06	7:57 a	-18.6	-18.6	-18.6	---	---	18.3	ENE	0.30	20.9	-31.3	---	---	733.9	0.026	0.000	22.1	4	1
03/02/06	7:58 a	-18.7	-18.6	-18.7	---	---	15.7	NE	0.26	20.0	-30.6	---	---	733.9	0.026	0.000	22.1	4	1
03/02/06	7:59 a	-18.6	-18.6	-18.6	---	---	17.4	ENE	0.29	22.6	-31.1	---	---	733.9	0.026	0.000	22.1	4	1
03/02/06	8:00 a	-18.6	-18.6	-18.6	---	---	20.0	ENE	0.33	22.6	-31.8	---	---	734.0	0.026	0.000	22.1	4	1
03/02/06	8:01 a	-18.6	-18.6	-18.6	---	---	16.5	NE	0.28	19.1	-30.8	---	---	734.0	0.026	0.000	22.1	4	1
03/02/06	8:02 a	-18.6	-18.6	-18.6	---	---	17.4	ENE	0.29	19.1	-31.1	---	---	734.0	0.026	0.000	22.1	3	1
03/02/06	8:03 a	-18.6	-18.6	-18.6	---	---	19.1	ENE	0.32	20.9	-31.6	---	---	734.0	0.026	0.000	22.1	4	1
03/02/06	8:04 a	-18.6	-18.6	-18.6	---	---	17.4	NE	0.29	20.9	-31.1	---	---	734.0	0.026	0.000	22.0	4	1
03/02/06	8:05 a	-18.6	-18.6	-18.7	---	---	20.0	ENE	0.33	22.6	-31.8	---	---	734.0	0.026	0.000	22.0	4	1
03/02/06	8:06 a	-18.7	-18.7	-18.7	---	---	17.4	ENE	0.29	20.0	-31.1	---	---	734.0	0.026	0.000	22.0	4	1
03/02/06	8:07 a	-18.7	-18.7	-18.7	---	---	17.4	NE	0.29	20.0	-31.2	---	---	734.0	0.026	0.000	22.0	4	1
03/02/06	8:08 a	-18.8	-18.7	-18.8	---	---	18.3	NE	0.30	20.0	-31.5	---	---	734.0	0.026	0.000	22.0	4	1
03/02/06	8:09 a	-18.8	-18.8	-18.8	---	---	19.1	ENE	0.32	20.0	-31.8	---	---	734.1	0.026	0.000	22.0	3	1
03/02/06	8:10 a	-18.8	-18.8	-18.8	---	---	16.5	NE	0.28	20.9	-31.1	---	---	733.9	0.026	0.000	22.0	3	1
03/02/06	8:11 a	-18.8	-18.8	-18.9	---	---	20.9	NE	0.35	23.5	-32.3	---	---	734.0	0.026	0.000	21.9	3	1
03/02/06	8:12 a	-18.9	-18.9	-18.9	---	---	16.5	ENE	0.28	19.1	-31.1	---	---	734.1	0.026	0.000	21.9	4	1
03/02/06	8:13 a	-18.9	-18.9	-18.9	---	---	19.1	NE	0.32	21.7	-31.9	---	---	734.0	0.026	0.000	21.9	3	1
03/02/06	8:14 a	-18.9	-18.9	-18.9	---	---	19.1	ENE	0.32	21.7	-31.9	---	---	734.0	0.026	0.000	21.9	3	1
03/02/06	8:15 a	-18.9	-18.9	-18.9	---	---	18.3	NE	0.30	21.7	-31.7	---	---	734.1	0.026	0.000	21.9	3	1
03/02/06	8:16 a	-18.9	-18.9	-18.9	---	---	18.3	ENE	0.30	21.7	-31.7	---	---	733.9	0.026	0.000	21.9	3	1
03/02/06	8:17 a	-18.9	-18.9	-18.9	---	---	17.4	NE	0.29	20.9	-31.5	---	---	734.1	0.026	0.000	21.9	3	1
03/02/06	8:18 a	-18.9	-18.9	-19.0	---	---	19.1	ENE	0.32	22.6	-32.0	---	---	733.9	0.026	0.000	21.9	3	1
03/02/06	8:19 a	-19.0	-19.0	-19.0	---	---	21.7	ENE	0.36	22.6	-32.7	---	---	733.9	0.026	0.000	21.9	3	1
03/02/06	8:20 a	-19.0	-18.9	-19.0	---	---	18.3	NE	0.30	20.0	-31.8	---	---	734.1	0.026	0.000	21.9	3	1
03/02/06	8:21 a	-18.9	-18.9	-18.9	---	---	16.5	NE	0.28	18.3	-31.2	---	---	734.0	0.026	0.000	21.9	3	1
03/02/06	8:22 a	-18.9	-18.9	-18.9	---	---	18.3	ENE	0.30	20.9	-31.7	---	---	733.9	0.026	0.000	21.9	3	1
03/02/06	8:23 a	-18.9	-18.9	-19.0	---	---	20.9	ENE	0.35	22.6	-32.4	---	---	733.9	0.026	0.000	21.9	4	1
03/02/06	8:24 a	-19.0	-19.0	-19.0	---	---	20.0	NE	0.33	21.7	-32.3	---	---	734.0	0.026	0.000	21.8	3	1
03/02/06	8:25 a	-19.0	-19.0	-19.1	---	---	14.8	NE	0.25	22.6	-30.7	---	---	733.9	0.026	0.000	21.8	4	1
03/02/06	8:26 a	-19.0	-19.0	-19.0	---	---	21.7	ENE	0.36	22.6	-32.7	---	---	733.9	0.026	0.000	21.8	3	1
03/02/06	8:27 a	-19.0	-19.0	-19.0	---	---	20.9	ENE	0.35	22.6	-32.5	---	---	733.9	0.026	0.000	21.8	3	1
03/02/06	8:28 a	-19.1	-19.0	-19.1	---	---	17.4	NE	0.29	19.1	-31.6	---	---	734.0	0.026	0.000	21.8	4	1
03/02/06	8:29 a	-19.1	-19.1	-19.1	---	---	17.4	NE	0.29	19.1	-31.6	---	---	733.9	0.026	0.000	21.8	3	1
03/02/06	8:30 a	-19.1	-19.1	-19.1	---	---	17.4	NE	0.29	19.1	-31.6	---	---	734.0	0.026	0.000	21.8	3	1
03/02/06	8:31 a	-19.1	-19.1	-19.1	---	---	19.1	ENE	0.32	20.9	-32.2	---	---	733.9	0.026	0.000	21.8	4	1
03/02/06	8:32 a	-19.2	-19.1	-19.2	---	---	19.1	ENE	0.32	20.9	-32.3	---	---	734.0	0.026	0.000	21.8	3	1
03/02/06	8:33 a	-19.2	-19.2	-19.3	---	---	18.3	NE	0.30	20.9	-32.1	---	---	733.9	0.026	0.000	21.8	3	1
03/02/06	8:34 a	-19.3	-19.3	-19.3	---	---	18.3	NE	0.30	20.0	-32.2	---	---	733.9	0.026	0.000	21.8	3	1
03/02/06	8:35 a	-19.3	-19.3	-19.4	---	---	16.5	ENE	0.28	19.1	-31.7	---	---	734.0	0.026	0.000	21.8	3	1
03/02/06	8:36 a	-19.4	-19.4	-19.4	---	---	17.4	ENE	0.29	18.3	-32.1	---	---	733.9	0.026	0.000	21.8	3	1
03/02/06	8:37 a	-19.4	-19.4	-19.4	---	---	17.4	NE	0.29	20.0	-32.1	---	---	733.9	0.026	0.000	21.8	3	1
03/02/06	8:38 a	-19.4	-19.4	-19.4	---	---	17.4	NE	0.29	20.9	-32.1	---	---	733.9	0.026	0.000	21.7	3	1
03/02/06	8:39 a	-19.4	-19.4	-19.5	---	---	20.0	NE	0.33	21.7	-32.9	---	---	733.9	0.026	0.000	21.7	3	1
03/02/06	8:40 a	-19.5	-19.5	-19.6	---	---	19.1	NE	0.32	20.9	-32.7	---	---	733.9	0.026	0.000	21.7	3	1
03/02/06	8:41 a	-19.6	-19.6	-19.6	---	---	18.3	ENE	0.30	20.0	-32.6	---	---	733.8	0.026	0.000	21.7	3	1
03/02/06	8:42 a	-19.6	-19.6	-19.6	---	---	20.0	ENE	0.33	20.9	-33.0	---	---	733.9	0.026	0.000	21.7	3	1
03/02/06	8:43 a	-19.6	-19.6	-19.6	---	---	17.4	NE	0.29	19.1	-32.3	---	---	733.9	0.026	0.000	21.7	3	1
03/02/06	8:44 a	-19.6	-19.6	-19.6	---	---	18.3	NE	0.30	20.9	-32.6	---	---	733.9	0.026	0.000	21.7	3	1
03/02/06	8:45 a	-19.6	-19.6	-19.6	---	---	17.4	NE	0.29	20.0	-32.3	---	---	733.9	0.026	0.000	21.7	3	1
03/02/06	8:46 a	-19.7	-19.6	-19.7	---	---	19.1	ENE	0.32	21.7	-32.9	---	---	733.8	0.026	0.000	21.7	3	1
03/02/06	8:47 a	-19.7	-19.6	-19.7	---	---	18.3	NE	0.30	20.0	-32.7	---	---	733.9	0.026	0.000	21.7	3	1
03/02/06	8:48 a	-19.7	-19.7	-19.7	---	---	16.5	NE	0.28	18.3	-32.2	---	---	733.8	0.026	0.000	21.7	3	1
03/02/06	8:49 a	-19.7	-19.7	-19.7	---	---	20.0	ENE	0.33	21.7	-33.2	---	---	733.8	0.026	0.000	21.7	3	1
03/02/06	8:50 a	-19.7	-19.7	-19.7	---	---	19.1	NE	0.32	20.9	-33.0	---	---	734.0	0.026	0.000	21.7	3	1
03/02/06	8:51 a	-19.8	-19.7	-19.8	---	---	19.1	NE	0.32	20.0	-33.1	---	---	733.9	0.026	0.000	21.7	3	1
03/02/06	8:52 a	-19.8	-19.8	-19.8	---	---	16.5	NE	0.28	19.1	-32.4	---	---	733.9	0.027	0.000	21.7	3	1
03/02/06	8:53 a	-19.9	-19.8	-19.9	---	---	19.1	NE	0.32	21.7	-33.2	---	---	733.8	0.027	0.000	21.7	3	1
03/02/06	8:54 a	-19.9	-19.9	-20.0	---	---	18.3	NE	0.30	20.9	-33.1	---	---	734.0	0.027	0.000	21.7	3	1
03/02/06	8:55 a	-20.0	-20.0	-20.1	---	---	16.5	ENE	0.28	21.7	-32.6	---	---	733.9	0.027	0.000	21.7	3	1
03/02/06	8:56 a	-20.1	-20.0	-20.1	---	---	20.0	ENE	0.33	20.9	-33.7	---	---	733.8	0.027	0.000	21.7	3	1
03/02/06	8:57 a	-20.1	-20.1	-20.1	---	---	17.4	NE	0.29	19.1	-32.9	---	---	733.8	0.027	0.000	21.7	3	1
03/02/06	8:58 a	-20.1	-20.1	-20.1	---	---	17.4	ENE	0.29	19.1	-32.9	---	---	733.9	0.027	0.000	21.7	3	1
03/02/06	8:59 a	-20.1	-20.1	-20.1	---	---	18.3	ENE	0.30	20.0	-33.2	---	---	733.9	0.027	0.000	21.6	3	1
03/02/06	9:00 a	-20.1	-20.1	-20.1	---	---	17.4	ENE	0.29	19.1	-33.0	---	---	733.9	0.027	0.000	21.6	3	1
03/02/06	9:01 a	-20.1	-20.1	-20.2	---	---	19.1	ENE	0.32	21.7	-33.5	---	---	733.8	0.027	0.000	21.6	3	1
03/02/06	9:02 a	-20.2	-20.2	-20.2	---	---	19.1	NE	0.32	20.9	-33.6	---	---	733.8	0.027	0.000	21.6	3	1
03/02/06	9:03 a	-20.2	-20.2	-20.2	---	---	18.3	NE	0.30	20.9	-33.3	---	---	733.8	0.027	0.000	21.6	3	1
03/02/06	9:04 a	-20.2	-20.2	-20.3	---	---	19.1	NE	0.32	20.9	-33.7	---	---	733.8	0.027	0.000	21.6	4	1
03/02/06	9:05 a	-20.3	-20.2	-20.3	---	---	18.3	ENE	0.30	21.7	-33.5	---	---	733.8	0.027	0.000	21.6	3	1
03/02/06	9:06 a	-20.3	-20.3	-20.3	---	---	20.9	ENE	0.35	21.7	-34.2	---	---	733.8	0.027	0.000	21.6	3	1
03/02/06	9:07 a	-20.3	-20.3	-20.3	---	---	20.0	ENE	0.33	21.7	-34.1	---	---	733.9	0.027	0.000	21.6	3	1
03/02/06	9:08 a	-20.3	-20.3	-20.3	---	---	17.4	NE	0.29	19.1	-33.3	---	---	733.9	0.027	0.000	21.6	3	1
03/02/06	9:09 a	-20.3	-20.3	-20.3	---	---	18.3	NE	0.30	19.1	-33.6	---	---	733.8	0.027	0.000	21.6	3	1
03/02/06	9:10 a	-20.3	-20.3	-20.3	---	---	20.9	NE	0.35	22.6	-34.3	---	---	733.8	0.027	0.000	21.6	3	1
03/02/06	9:11 a	-20.3	-20.3	-20.3	---	---	20.9	NE	0.35	20.9	-34.3	---	---	733.9	0.027	0.000	21.6	3	1
03/02/06	9:12 a	-20.4	-20.3	-20.4	---	---	19.1	NE	0.32	20.9	-33.9	---	---	733.8	0.027	0.000	21.6	3	1
03/02/06	9:13 a	-20.4	-20.4	-20.4	---	---	17.4	NE	0.29	18.3	-33.4	---	---	734.0	0.027	0.000	21.6	3	1
03/02/06	9:14 a	-20.4	-20.4	-20.4	---	---	16.5	NE	0.28	19.1	-33.1	---	---	733.8	0.027	0.000	21.6	3	1
03/02/06	9:15 a	-20.4	-20.4	-20.4	---	---	20.9	ENE	0.35	21.7	-34.4	---	---	733.8	0.027	0.000	21.6	3	1
03/02/06	9:16 a	-20.4	-20.4	-20.5	---	---	19.1	NE	0.32	20.9	-33.9	---	---	734.0	0.027	0.000	21.5	3	1
03/02/06	9:17 a	-20.5	-20.5	-20.5	---	---	17.4	NE	0.29	19.1	-33.5	---	---	733.8	0.027	0.000	21.5	3	1
03/02/06	9:18 a	-20.6	-20.6	-20.6	---	---	19.1	NE	0.32	20.9	-34.2	---	---	733.9	0.027	0.000	21.5	3	1
03/02/06	9:19 a	-20.6	-20.6	-20.7	---	---	18.3	NE	0.30	20.9	-33.9	---	---	733.9	0.027	0.000	21.5	3	1
03/02/06	9:20 a	-20.7	-20.7	-20.7	---	---	17.4	NE	0.29	20.0	-33.7	---	---	733.9	0.027	0.000	21.5	3	1
03/02/06	9:21 a	-20.7	-20.7	-20.7	---	---	16.5	NE	0.28	20.0	-33.4	---	---	733.9	0.027	0.000	21.5	3	1
03/02/06	9:22 a	-20.8	-20.7	-20.8	---	---	20.0	NE	0.33	21.7	-34.7	---	---	733.9	0.027	0.000	21.5	3	1
03/02/06	9:23 a	-20.8	-20.8	-20.8	---	---	16.5	NE	0.28	19.1	-33.7	---	---	733.9	0.027	0.000	21.5	3	1
03/02/06	9:24 a	-20.9	-20.8	-20.9	---	---	15.7	NE	0.26	20.9	-33.4	---	---	733.7	0.027	0.000	21.4	3	1
03/02/06	9:25 a	-20.9	-20.9	-20.9	---	---	20.9	NE	0.35	22.6	-35.1	---	---	733.9	0.027	0.000	21.4	3	1
03/02/06	9:26 a	-20.9	-20.9	-20.9	---	---	20.0	NE	0.33	21.7	-34.9	---	---	733.9	0.027	0.000	21.4	3	1
03/02/06	9:27 a	-20.9	-20.9	-21.0	---	---	17.4	NE	0.29	18.3	-34.1	---	---	733.9	0.027	0.000	21.4	3	1
03/02/06	9:28 a	-21.0	-20.9	-21.0	---	---	17.4	NE	0.29	18.3	-34.2	---	---	733.9	0.027	0.000	21.4	3	1
03/02/06	9:29 a	-21.1	-21.0	-21.1	---	---	16.5	NE	0.28	22.6	-33.9	---	---	733.8	0.027	0.000	21.4	3	1
03/02/06	9:30 a	-21.1	-21.1	-21.1	---	---	20.9	NE	0.35	22.6	-35.3	---	---	733.8	0.027	0.000	21.4	3	1
03/02/06	9:31 a	-21.1	-21.1	-21.1	---	---	18.3	NE	0.30	20.9	-34.5	---	---	733.9	0.027	0.000	21.4	3	1
03/02/06	9:32 a	-21.1	-21.1	-21.1	---	---	18.3	NE	0.30	19.1	-34.5	---	---	733.9	0.027	0.000	21.4	3	1
03/02/06	9:33 a	-21.1	-21.1	-21.1	---	---	19.1	NE	0.32	20.0	-34.8	---	---	733.8	0.027	0.000	21.4	3	1
03/02/06	9:34 a	-21.1	-21.0	-21.1	---	---	18.3	NE	0.30	20.0	-34.5	---	---	733.9	0.027	0.000	21.4	3	1
03/02/06	9:35 a	-21.0	-21.0	-21.0	---	---	18.3	NE	0.30	20.0	-34.4	---	---	733.8	0.027	0.000	21.4	3	1
03/02/06	9:36 a	-21.0	-21.0	-21.0	---	---	17.4	NE	0.29	20.0	-34.2	---	---	733.8	0.027	0.000	21.4	3	1
03/02/06	9:37 a	-21.0	-21.0	-21.0	---	---	18.3	NE	0.30	19.1	-34.4	---	---	733.8	0.027	0.000	21.4	3	1
03/02/06	9:38 a	-21.0	-20.9	-21.0	---	---	16.5	NE	0.28	19.1	-33.9	---	---	733.7	0.027	0.000	21.4	3	1
03/02/06	9:39 a	-20.9	-20.9	-21.0	---	---	20.0	NE	0.33	20.9	-34.9	---	---	733.8	0.027	0.000	21.4	3	1
03/02/06	9:40 a	-20.9	-20.9	-21.0	---	---	16.5	NE	0.28	19.1	-33.8	---	---	733.9	0.027	0.000	21.4	3	1
03/02/06	9:41 a	-20.9	-20.9	-20.9	---	---	16.5	NE	0.28	19.1	-33.8	---	---	733.8	0.027	0.000	21.4	3	1
03/02/06	9:42 a	-21.0	-20.9	-21.0	---	---	15.7	NE	0.26	19.1	-33.6	---	---	733.9	0.027	0.000	21.3	3	1
03/02/06	9:43 a	-20.9	-20.9	-20.9	---	---	16.5	NE	0.28	18.3	-33.8	---	---	733.8	0.027	0.000	21.3	3	1
03/02/06	9:44 a	-20.9	-20.9	-20.9	---	---	18.3	NE	0.30	20.0	-34.3	---	---	733.8	0.027	0.000	21.3	3	1
03/02/06	9:45 a	-20.9	-20.9	-20.9	---	---	17.4	NE	0.29	19.1	-34.0	---	---	733.8	0.027	0.000	21.3	3	1
03/02/06	9:46 a	-20.9	-20.8	-20.9	---	---	16.5	NE	0.28	18.3	-33.7	---	---	733.8	0.027	0.000	21.3	3	1
03/02/06	9:47 a	-20.9	-20.9	-20.9	---	---	16.5	NE	0.28	18.3	-33.7	---	---	733.8	0.027	0.000	21.3	3	1
03/02/06	9:48 a	-20.9	-20.9	-20.9	---	---	17.4	ENE	0.29	18.3	-34.0	---	---	733.7	0.027	0.000	21.3	3	1
03/02/06	9:49 a	-20.9	-20.9	-20.9	---	---	18.3	NE	0.30	19.1	-34.3	---	---	733.7	0.027	0.000	21.3	3	1
03/02/06	9:50 a	-20.9	-20.9	-21.0	---	---	17.4	NE	0.29	19.1	-34.1	---	---	733.7	0.027	0.000	21.3	3	1
03/02/06	9:51 a	-21.0	-21.0	-21.0	---	---	17.4	NE	0.29	18.3	-34.2	---	---	733.8	0.027	0.000	21.3	3	1
03/02/06	9:52 a	-21.1	-21.0	-21.1	---	---	18.3	NE	0.30	19.1	-34.5	---	---	733.8	0.027	0.000	21.3	3	1
03/02/06	9:53 a	-21.1	-21.1	-21.1	---	---	17.4	NE	0.29	19.1	-34.2	---	---	733.7	0.027	0.000	21.3	3	1
03/02/06	9:54 a	-21.1	-21.1	-21.1	---	---	17.4	NE	0.29	19.1	-34.2	---	---	733.8	0.027	0.000	21.3	3	1
03/02/06	9:55 a	-21.1	-21.1	-21.1	---	---	17.4	NE	0.29	18.3	-34.3	---	---	733.8	0.027	0.000	21.3	3	1
03/02/06	9:56 a	-21.1	-21.1	-21.1	---	---	17.4	NE	0.29	18.3	-34.3	---	---	733.7	0.027	0.000	21.3	3	1
03/02/06	9:57 a	-21.1	-21.1	-21.1	---	---	17.4	NE	0.29	17.4	-34.3	---	---	733.7	0.027	0.000	21.3	3	1
03/02/06	9:58 a	-21.1	-21.1	-21.1	---	---	17.4	NE	0.29	19.1	-34.3	---	---	733.7	0.027	0.000	21.3	3	1
03/02/06	9:59 a	-21.1	-21.1	-21.1	---	---	18.3	NE	0.30	19.1	-34.6	---	---	733.8	0.027	0.000	21.3	3	1
03/02/06	10:00 a	-21.1	-21.1	-21.1	---	---	18.3	NE	0.30	19.1	-34.6	---	---	733.8	0.027	0.000	21.3	3	1
03/02/06	10:01 a	-21.2	-21.1	-21.2	---	---	16.5	NE	0.28	17.4	-34.1	---	---	733.7	0.027	0.000	21.2	3	1
03/02/06	10:02 a	-21.1	-21.1	-21.1	---	---	18.3	ENE	0.30	20.9	-34.6	---	---	733.7	0.027	0.000	21.2	3	1
03/02/06	10:03 a	-21.1	-21.1	-21.1	---	---	18.3	NE	0.30	19.1	-34.6	---	---	733.8	0.027	0.000	21.2	3	1
03/02/06	10:04 a	-21.1	-21.1	-21.1	---	---	17.4	NE	0.29	19.1	-34.2	---	---	733.7	0.027	0.000	21.2	3	1
03/02/06	10:05 a	-21.1	-21.1	-21.1	---	---	17.4	NE	0.29	18.3	-34.2	---	---	733.7	0.027	0.000	21.2	3	1
03/02/06	10:06 a	-21.1	-21.0	-21.1	---	---	16.5	NE	0.28	17.4	-33.9	---	---	733.7	0.027	0.000	21.2	3	1
03/02/06	10:07 a	-21.1	-21.0	-21.1	---	---	15.7	NE	0.26	17.4	-33.7	---	---	733.7	0.027	0.000	21.2	3	1
03/02/06	10:08 a	-21.1	-21.1	-21.1	---	---	15.7	NE	0.26	16.5	-33.7	---	---	733.7	0.027	0.000	21.2	3	1
03/02/06	10:09 a	-21.1	-21.1	-21.1	---	---	16.5	NE	0.28	18.3	-33.9	---	---	733.8	0.027	0.000	21.2	3	1
03/02/06	10:10 a	-21.2	-21.1	-21.2	---	---	16.5	ENE	0.28	17.4	-34.1	---	---	733.7	0.027	0.000	21.2	3	1
03/02/06	10:11 a	-21.2	-21.2	-21.2	---	---	17.4	ENE	0.29	18.3	-34.4	---	---	733.6	0.027	0.000	21.2	3	1
03/02/06	10:12 a	-21.2	-21.2	-21.2	---	---	16.5	NE	0.28	18.3	-34.2	---	---	733.7	0.027	0.000	21.2	3	1
03/02/06	10:13 a	-21.2	-21.2	-21.3	---	---	16.5	NE	0.28	18.3	-34.2	---	---	733.7	0.027	0.000	21.2	3	1
03/02/06	10:14 a	-21.3	-21.2	-21.3	---	---	16.5	NE	0.28	18.3	-34.3	---	---	733.7	0.028	0.000	21.2	3	1
03/02/06	10:15 a	-21.3	-21.3	-21.3	---	---	16.5	NE	0.28	18.3	-34.3	---	---	733.7	0.028	0.000	21.2	3	1
03/02/06	10:16 a	-21.3	-21.3	-21.3	---	---	17.4	ENE	0.29	18.3	-34.6	---	---	733.7	0.028	0.000	21.2	3	1
03/02/06	10:17 a	-21.3	-21.3	-21.3	---	---	16.5	NE	0.28	17.4	-34.3	---	---	733.7	0.028	0.000	21.2	3	1
03/02/06	10:18 a	-21.3	-21.3	-21.3	---	---	17.4	NE	0.29	20.0	-34.6	---	---	733.6	0.028	0.000	21.2	3	1
03/02/06	10:19 a	-21.3	-21.2	-21.3	---	---	18.3	NE	0.30	19.1	-34.8	---	---	733.6	0.028	0.000	21.2	3	1
03/02/06	10:20 a	-21.2	-21.2	-21.3	---	---	16.5	NE	0.28	18.3	-34.2	---	---	733.6	0.027	0.000	21.1	3	1
03/02/06	10:21 a	-21.2	-21.2	-21.2	---	---	17.4	NE	0.29	18.3	-34.4	---	---	733.7	0.027	0.000	21.1	3	1
03/02/06	10:22 a	-21.2	-21.2	-21.2	---	---	17.4	NE	0.29	19.1	-34.4	---	---	733.7	0.027	0.000	21.1	3	1
03/02/06	10:23 a	-21.2	-21.2	-21.2	---	---	15.7	NE	0.26	17.4	-33.8	---	---	733.7	0.027	0.000	21.1	3	1
03/02/06	10:24 a	-21.1	-21.1	-21.2	---	---	17.4	NE	0.29	18.3	-34.3	---	---	733.7	0.027	0.000	21.1	3	1
03/02/06	10:25 a	-21.1	-21.1	-21.1	---	---	16.5	NE	0.28	18.3	-34.1	---	---	733.7	0.027	0.000	21.1	3	1
03/02/06	10:26 a	-21.1	-21.1	-21.1	---	---	16.5	NE	0.28	18.3	-33.9	---	---	733.7	0.027	0.000	21.1	3	1
03/02/06	10:27 a	-21.1	-21.1	-21.1	---	---	16.5	NE	0.28	18.3	-33.9	---	---	733.8	0.027	0.000	21.1	3	1
03/02/06	10:28 a	-21.1	-21.0	-21.1	---	---	16.5	NE	0.28	18.3	-33.9	---	---	733.7	0.027	0.000	21.1	3	1
03/02/06	10:29 a	-21.0	-21.0	-21.1	---	---	15.7	NE	0.26	18.3	-33.6	---	---	733.6	0.027	0.000	21.1	3	1
03/02/06	10:30 a	-21.0	-21.0	-21.0	---	---	17.4	NE	0.29	19.1	-34.2	---	---	733.6	0.027	0.000	21.1	3	1
03/02/06	10:31 a	-21.0	-21.0	-21.0	---	---	15.7	NE	0.26	17.4	-33.6	---	---	733.7	0.027	0.000	21.1	3	1
03/02/06	10:32 a	-21.0	-20.9	-21.0	---	---	17.4	NE	0.29	18.3	-34.2	---	---	733.6	0.027	0.000	21.1	3	1
03/02/06	10:33 a	-20.9	-20.9	-20.9	---	---	17.4	NE	0.29	19.1	-34.1	---	---	733.7	0.027	0.000	21.1	3	1
03/02/06	10:34 a	-20.9	-20.9	-20.9	---	---	15.7	NE	0.26	17.4	-33.5	---	---	733.7	0.027	0.000	21.1	3	1
03/02/06	10:35 a	-20.9	-20.9	-20.9	---	---	15.7	NE	0.26	17.4	-33.4	---	---	733.7	0.027	0.000	21.1	3	1
03/02/06	10:36 a	-20.9	-20.9	-20.9	---	---	16.5	NE	0.28	18.3	-33.7	---	---	733.7	0.027	0.000	21.1	3	1
03/02/06	10:37 a	-20.9	-20.9	-20.9	---	---	15.7	NE	0.26	16.5	-33.4	---	---	733.7	0.027	0.000	21.1	3	1
03/02/06	10:38 a	-20.9	-20.9	-20.9	---	---	16.5	NE	0.28	18.3	-33.7	---	---	733.7	0.027	0.000	21.1	3	1
03/02/06	10:39 a	-20.9	-20.9	-20.9	---	---	15.7	NE	0.26	17.4	-33.5	---	---	733.6	0.027	0.000	21.0	3	1
03/02/06	10:40 a	-20.9	-20.9	-20.9	---	---	16.5	NE	0.28	18.3	-33.7	---	---	733.7	0.027	0.000	21.0	3	1
03/02/06	10:41 a	-20.9	-20.9	-20.9	---	---	14.8	NE	0.25	17.4	-33.2	---	---	733.7	0.027	0.000	21.0	3	1
03/02/06	10:42 a	-20.9	-20.9	-20.9	---	---	14.8	NE	0.25	16.5	-33.2	---	---	733.6	0.027	0.000	21.0	3	1
03/02/06	10:43 a	-20.9	-20.9	-20.9	---	---	15.7	NE	0.26	16.5	-33.4	---	---	733.7	0.027	0.000	21.0	3	1
03/02/06	10:44 a	-20.9	-20.9	-20.9	---	---	15.7	NE	0.26	17.4	-33.4	---	---	733.6	0.027	0.000	21.0	3	1
03/02/06	10:45 a	-20.9	-20.9	-20.9	---	---	14.8	NE	0.25	17.4	-33.2	---	---	733.7	0.027	0.000	21.0	3	1
03/02/06	10:46 a	-20.9	-20.9	-20.9	---	---	15.7	NE	0.26	17.4	-33.4	---	---	733.7	0.027	0.000	21.0	3	1
03/02/06	10:47 a	-20.9	-20.9	-20.9	---	---	13.9	NE	0.23	15.7	-32.8	---	---	733.6	0.027	0.000	20.9	3	1
03/02/06	10:48 a	-20.9	-20.9	-20.9	---	---	15.7	NE	0.26	18.3	-33.5	---	---	733.7	0.027	0.000	20.9	3	1
03/02/06	10:49 a	-20.9	-20.9	-20.9	---	---	15.7	NE	0.26	17.4	-33.5	---	---	733.7	0.027	0.000	21.0	3	1
03/02/06	10:50 a	-20.9	-20.9	-20.9	---	---	15.7	NE	0.26	17.4	-33.5	---	---	733.7	0.027	0.000	20.9	3	1
03/02/06	10:51 a	-20.9	-20.9	-20.9	---	---	16.5	NE	0.28	17.4	-33.8	---	---	733.7	0.027	0.000	20.9	3	1
03/02/06	10:52 a	-20.9	-20.9	-20.9	---	---	15.7	NE	0.26	16.5	-33.4	---	---	733.6	0.027	0.000	20.9	3	1
03/02/06	10:53 a	-20.9	-20.9	-20.9	---	---	15.7	NE	0.26	17.4	-33.4	---	---	733.8	0.027	0.000	20.9	3	1
03/02/06	10:54 a	-20.9	-20.8	-20.9	---	---	15.7	NE	0.26	17.4	-33.4	---	---	733.7	0.027	0.000	20.9	3	1
03/02/06	10:55 a	-20.8	-20.8	-20.9	---	---	15.7	NE	0.26	15.7	-33.4	---	---	733.7	0.027	0.000	20.9	3	1
03/02/06	10:56 a	-20.9	-20.8	-20.9	---	---	15.7	NE	0.26	18.3	-33.4	---	---	733.7	0.027	0.000	20.9	3	1
03/02/06	10:57 a	-20.8	-20.8	-20.9	---	---	15.7	NE	0.26	17.4	-33.4	---	---	733.6	0.027	0.000	20.9	3	1
03/02/06	10:58 a	-20.9	-20.9	-20.9	---	---	15.7	NE	0.26	16.5	-33.4	---	---	733.7	0.027	0.000	20.9	3	1
03/02/06	10:59 a	-20.9	-20.9	-20.9	---	---	14.8	NE	0.25	16.5	-33.2	---	---	733.7	0.027	0.000	20.9	3	1
03/02/06	11:00 a	-20.9	-20.9	-20.9	---	---	13.9	NE	0.23	16.5	-32.8	---	---	733.6	0.027	0.000	20.9	3	1
03/02/06	11:01 a	-20.9	-20.9	-20.9	---	---	15.7	NE	0.26	18.3	-33.5	---	---	733.7	0.027	0.000	20.9	3	1
03/02/06	11:02 a	-20.9	-20.9	-21.0	---	---	16.5	NE	0.28	19.1	-33.8	---	---	733.6	0.027	0.000	20.9	3	1
03/02/06	11:03 a	-21.0	-21.0	-21.0	---	---	14.8	NE	0.25	18.3	-33.3	---	---	733.7	0.027	0.000	20.9	3	1
03/02/06	11:04 a	-21.0	-21.0	-21.1	---	---	16.5	NE	0.28	18.3	-33.9	---	---	733.6	0.027	0.000	20.9	3	1
03/02/06	11:05 a	-21.1	-21.1	-21.1	---	---	16.5	NE	0.28	17.4	-33.9	---	---	733.7	0.027	0.000	20.9	3	1
03/02/06	11:06 a	-21.1	-21.1	-21.1	---	---	16.5	NE	0.28	17.4	-33.9	---	---	733.6	0.027	0.000	20.9	3	1
03/02/06	11:07 a	-21.1	-21.1	-21.1	---	---	16.5	NE	0.28	18.3	-34.1	---	---	733.6	0.027	0.000	20.9	3	1
03/02/06	11:08 a	-21.1	-21.1	-21.1	---	---	16.5	NE	0.28	18.3	-34.1	---	---	733.6	0.027	0.000	20.9	3	1
03/02/06	11:09 a	-21.1	-21.1	-21.1	---	---	15.7	NE	0.26	17.4	-33.7	---	---	733.7	0.027	0.000	20.9	3	1
03/02/06	11:10 a	-21.1	-21.1	-21.1	---	---	16.5	NE	0.28	18.3	-34.1	---	---	733.6	0.027	0.000	20.9	3	1
03/02/06	11:11 a	-21.1	-21.1	-21.1	---	---	16.5	NE	0.28	18.3	-34.1	---	---	733.6	0.027	0.000	20.9	3	1
03/02/06	11:12 a	-21.1	-21.1	-21.1	---	---	15.7	NE	0.26	16.5	-33.7	---	---	733.7	0.027	0.000	20.9	3	1
03/02/06	11:13 a	-21.1	-21.1	-21.2	---	---	15.7	NE	0.26	17.4	-33.7	---	---	733.6	0.027	0.000	20.9	3	1
03/02/06	11:14 a	-21.2	-21.1	-21.2	---	---	15.7	NE	0.26	17.4	-33.8	---	---	733.7	0.027	0.000	20.9	3	1
03/02/06	11:15 a	-21.2	-21.2	-21.2	---	---	16.5	NE	0.28	17.4	-34.1	---	---	733.7	0.027	0.000	20.9	3	1
03/02/06	11:16 a	-21.2	-21.2	-21.2	---	---	16.5	NE	0.28	17.4	-34.1	---	---	733.7	0.027	0.000	20.9	3	1
03/02/06	11:17 a	-21.2	-21.2	-21.2	---	---	15.7	NE	0.26	17.4	-33.8	---	---	733.7	0.027	0.000	20.9	3	1
03/02/06	11:18 a	-21.2	-21.2	-21.2	---	---	16.5	NE	0.28	17.4	-34.1	---	---	733.7	0.027	0.000	20.9	3	1
03/02/06	11:19 a	-21.2	-21.2	-21.2	---	---	14.8	NE	0.25	17.4	-33.6	---	---	733.7	0.027	0.000	20.8	3	1
03/02/06	11:20 a	-21.2	-21.2	-21.2	---	---	14.8	NE	0.25	16.5	-33.6	---	---	733.7	0.027	0.000	20.8	3	1
03/02/06	11:21 a	-21.2	-21.2	-21.2	---	---	13.9	NE	0.23	15.7	-33.3	---	---	733.7	0.027	0.000	20.8	3	1
03/02/06	11:22 a	-21.2	-21.2	-21.2	---	---	15.7	NE	0.26	17.4	-33.8	---	---	733.7	0.027	0.000	20.8	3	1
03/02/06	11:23 a	-21.2	-21.2	-21.2	---	---	15.7	NE	0.26	17.4	-33.8	---	---	733.6	0.027	0.000	20.8	3	1
03/02/06	11:24 a	-21.2	-21.1	-21.2	---	---	15.7	NE	0.26	16.5	-33.8	---	---	733.7	0.027	0.000	20.8	3	1
03/02/06	11:25 a	-21.1	-21.1	-21.2	---	---	14.8	NE	0.25	16.5	-33.4	---	---	733.6	0.027	0.000	20.8	3	1
03/02/06	11:26 a	-21.1	-21.1	-21.1	---	---	14.8	NE	0.25	17.4	-33.4	---	---	733.7	0.027	0.000	20.8	3	1
03/02/06	11:27 a	-21.1	-21.1	-21.1	---	---	14.8	NE	0.25	15.7	-33.3	---	---	733.7	0.027	0.000	20.8	3	1
03/02/06	11:28 a	-21.0	-21.0	-21.1	---	---	14.8	NE	0.25	17.4	-33.3	---	---	733.7	0.027	0.000	20.8	3	1
03/02/06	11:29 a	-21.0	-21.0	-21.0	---	---	15.7	NE	0.26	17.4	-33.6	---	---	733.7	0.027	0.000	20.8	3	1
03/02/06	11:30 a	-21.0	-21.0	-21.0	---	---	15.7	NE	0.26	17.4	-33.6	---	---	733.7	0.027	0.000	20.8	3	1
03/02/06	11:31 a	-21.0	-21.0	-21.0	---	---	14.8	NE	0.25	16.5	-33.3	---	---	733.6	0.027	0.000	20.8	3	1
03/02/06	11:32 a	-21.1	-21.0	-21.1	---	---	14.8	NE	0.25	16.5	-33.3	---	---	733.7	0.027	0.000	20.8	3	1
03/02/06	11:33 a	-21.1	-21.0	-21.1	---	---	15.7	NE	0.26	18.3	-33.7	---	---	733.6	0.027	0.000	20.8	3	1
03/02/06	11:34 a	-21.1	-21.1	-21.1	---	---	15.7	NE	0.26	17.4	-33.7	---	---	733.6	0.027	0.000	20.8	3	1
03/02/06	11:35 a	-21.2	-21.1	-21.2	---	---	14.8	NE	0.25	16.5	-33.5	---	---	733.5	0.027	0.000	20.8	3	1
03/02/06	11:36 a	-21.2	-21.2	-21.2	---	---	15.7	NE	0.26	16.5	-33.8	---	---	733.6	0.027	0.000	20.8	3	1
03/02/06	11:37 a	-21.2	-21.2	-21.2	---	---	14.8	NE	0.25	16.5	-33.6	---	---	733.6	0.027	0.000	20.8	3	1
03/02/06	11:38 a	-21.2	-21.2	-21.3	---	---	15.7	NE	0.26	17.4	-33.9	---	---	733.7	0.027	0.000	20.8	3	1
03/02/06	11:39 a	-21.3	-21.3	-21.3	---	---	14.8	NE	0.25	16.5	-33.7	---	---	733.7	0.028	0.000	20.7	3	1
03/02/06	11:40 a	-21.4	-21.3	-21.4	---	---	14.8	NE	0.25	17.4	-33.8	---	---	733.6	0.028	0.000	20.7	3	1
03/02/06	11:41 a	-21.4	-21.4	-21.4	---	---	14.8	NE	0.25	16.5	-33.8	---	---	733.6	0.028	0.000	20.7	3	1
03/02/06	11:42 a	-21.5	-21.4	-21.5	---	---	14.8	NE	0.25	16.5	-33.9	---	---	733.6	0.028	0.000	20.7	3	1
03/02/06	11:43 a	-21.6	-21.5	-21.6	---	---	13.9	NE	0.23	15.7	-33.7	---	---	733.7	0.028	0.000	20.7	3	1
03/02/06	11:44 a	-21.6	-21.6	-21.7	---	---	15.7	NE	0.26	15.7	-34.4	---	---	733.7	0.028	0.000	20.7	3	1
03/02/06	11:45 a	-21.7	-21.7	-21.7	---	---	13.0	NE	0.22	15.7	-33.5	---	---	733.7	0.028	0.000	20.7	3	1
03/02/06	11:46 a	-21.7	-21.7	-21.7	---	---	13.9	NE	0.23	16.5	-33.8	---	---	733.6	0.028	0.000	20.7	3	1
03/02/06	11:47 a	-21.7	-21.7	-21.7	---	---	13.9	NE	0.23	15.7	-33.9	---	---	733.6	0.028	0.000	20.7	3	1
03/02/06	11:48 a	-21.7	-21.7	-21.7	---	---	14.8	NE	0.25	15.7	-34.2	---	---	733.6	0.028	0.000	20.7	3	1
03/02/06	11:49 a	-21.7	-21.7	-21.7	---	---	14.8	NE	0.25	15.7	-34.2	---	---	733.6	0.028	0.000	20.7	3	1
03/02/06	11:50 a	-21.7	-21.7	-21.8	---	---	15.7	NE	0.26	17.4	-34.6	---	---	733.6	0.028	0.000	20.7	3	1
03/02/06	11:51 a	-21.7	-21.7	-21.7	---	---	14.8	NE	0.25	15.7	-34.2	---	---	733.6	0.028	0.000	20.7	3	1
03/02/06	11:52 a	-21.7	-21.7	-21.7	---	---	13.9	NE	0.23	15.7	-33.9	---	---	733.6	0.028	0.000	20.7	3	1
03/02/06	11:53 a	-21.7	-21.7	-21.7	---	---	14.8	NE	0.25	16.5	-34.2	---	---	733.6	0.028	0.000	20.7	3	1
03/02/06	11:54 a	-21.7	-21.7	-21.7	---	---	14.8	NE	0.25	16.5	-34.2	---	---	733.6	0.028	0.000	20.7	3	1
03/02/06	11:55 a	-21.7	-21.7	-21.7	---	---	14.8	NE	0.25	16.5	-34.2	---	---	733.6	0.028	0.000	20.7	3	1
03/02/06	11:56 a	-21.7	-21.7	-21.7	---	---	13.9	NE	0.23	15.7	-33.8	---	---	733.5	0.028	0.000	20.7	3	1
03/02/06	11:57 a	-21.7	-21.7	-21.7	---	---	13.9	NE	0.23	14.8	-33.8	---	---	733.5	0.028	0.000	20.7	3	1
03/02/06	11:58 a	-21.7	-21.7	-21.7	---	---	13.9	NE	0.23	15.7	-33.8	---	---	733.5	0.028	0.000	20.7	3	1
03/02/06	11:59 a	-21.7	-21.7	-21.7	---	---	13.9	NE	0.23	15.7	-33.9	---	---	733.6	0.028	0.000	20.7	3	1
03/02/06	12:00 p	-21.7	-21.7	-21.8	---	---	13.9	NE	0.23	15.7	-33.9	---	---	733.6	0.028	0.000	20.7	3	1
03/02/06	12:01 p	-21.8	-21.8	-21.8	---	---	14.8	NE	0.25	16.5	-34.3	---	---	733.6	0.028	0.000	20.7	3	1
03/02/06	12:02 p	-21.8	-21.8	-21.8	---	---	14.8	NE	0.25	16.5	-34.4	---	---	733.5	0.028	0.000	20.7	3	1
03/02/06	12:03 p	-21.8	-21.8	-21.8	---	---	14.8	NE	0.25	15.7	-34.4	---	---	733.6	0.028	0.000	20.7	3	1
03/02/06	12:04 p	-21.8	-21.8	-21.8	---	---	15.7	NE	0.26	16.5	-34.7	---	---	733.6	0.028	0.000	20.7	2	1
03/02/06	12:05 p	-21.8	-21.8	-21.9	---	---	14.8	NE	0.25	16.5	-34.4	---	---	733.5	0.028	0.000	20.7	3	1
03/02/06	12:06 p	-21.9	-21.9	-21.9	---	---	13.9	NE	0.23	15.7	-34.1	---	---	733.5	0.028	0.000	20.7	3	1
03/02/06	12:07 p	-21.9	-21.9	-21.9	---	---	14.8	NE	0.25	16.5	-34.4	---	---	733.5	0.028	0.000	20.6	3	1
03/02/06	12:08 p	-21.9	-21.9	-21.9	---	---	15.7	NE	0.26	17.4	-34.8	---	---	733.5	0.028	0.000	20.6	3	1
03/02/06	12:09 p	-21.9	-21.9	-21.9	---	---	14.8	NE	0.25	16.5	-34.4	---	---	733.5	0.028	0.000	20.6	3	1
03/02/06	12:10 p	-21.9	-21.9	-22.0	---	---	15.7	NE	0.26	17.4	-34.8	---	---	733.5	0.028	0.000	20.6	3	1
03/02/06	12:11 p	-22.0	-22.0	-22.0	---	---	15.7	NE	0.26	17.4	-34.9	---	---	733.4	0.028	0.000	20.6	3	1
03/02/06	12:12 p	-22.1	-22.1	-22.1	---	---	16.5	NE	0.28	18.3	-35.3	---	---	733.5	0.028	0.000	20.6	3	1
03/02/06	12:13 p	-22.1	-22.1	-22.2	---	---	15.7	NE	0.26	17.4	-35.1	---	---	733.5	0.028	0.000	20.6	3	1
03/02/06	12:14 p	-22.2	-22.2	-22.2	---	---	16.5	NE	0.28	18.3	-35.4	---	---	733.5	0.028	0.000	20.6	3	1
03/02/06	12:15 p	-22.2	-22.2	-22.2	---	---	16.5	NE	0.28	17.4	-35.5	---	---	733.5	0.028	0.000	20.6	3	1
03/02/06	12:16 p	-22.3	-22.2	-22.3	---	---	16.5	NE	0.28	17.4	-35.6	---	---	733.5	0.028	0.000	20.6	3	1
03/02/06	12:17 p	-22.3	-22.3	-22.3	---	---	15.7	NE	0.26	17.4	-35.3	---	---	733.4	0.028	0.000	20.6	3	1
03/02/06	12:18 p	-22.3	-22.3	-22.4	---	---	16.5	NE	0.28	17.4	-35.6	---	---	733.5	0.028	0.000	20.6	3	1
03/02/06	12:19 p	-22.4	-22.4	-22.4	---	---	16.5	NE	0.28	18.3	-35.7	---	---	733.4	0.028	0.000	20.6	3	1
03/02/06	12:20 p	-22.4	-22.4	-22.4	---	---	15.7	NE	0.26	17.4	-35.4	---	---	733.4	0.028	0.000	20.6	2	1
03/02/06	12:21 p	-22.4	-22.4	-22.4	---	---	15.7	NE	0.26	17.4	-35.5	---	---	733.4	0.028	0.000	20.6	3	1
03/02/06	12:22 p	-22.5	-22.4	-22.5	---	---	16.5	NE	0.28	18.3	-35.8	---	---	733.4	0.028	0.000	20.6	3	1
03/02/06	12:23 p	-22.5	-22.5	-22.5	---	---	15.7	NE	0.26	17.4	-35.6	---	---	733.4	0.028	0.000	20.6	3	1
03/02/06	12:24 p	-22.6	-22.6	-22.6	---	---	16.5	NE	0.28	18.3	-35.9	---	---	733.5	0.028	0.000	20.6	3	1
03/02/06	12:25 p	-22.6	-22.6	-22.6	---	---	16.5	NE	0.28	18.3	-35.9	---	---	733.4	0.028	0.000	20.5	3	1
03/02/06	12:26 p	-22.6	-22.6	-22.6	---	---	17.4	NE	0.29	19.1	-36.3	---	---	733.3	0.028	0.000	20.6	3	1
03/02/06	12:27 p	-22.7	-22.6	-22.7	---	---	16.5	NE	0.28	20.0	-36.1	---	---	733.4	0.028	0.000	20.5	2	1
03/02/06	12:28 p	-22.7	-22.7	-22.7	---	---	17.4	NE	0.29	18.3	-36.3	---	---	733.3	0.028	0.000	20.5	2	1
03/02/06	12:29 p	-22.7	-22.7	-22.7	---	---	19.1	NE	0.32	20.0	-37.0	---	---	733.4	0.029	0.000	20.5	3	1
03/02/06	12:30 p	-22.7	-22.7	-22.7	---	---	18.3	NE	0.30	19.1	-36.7	---	---	733.3	0.029	0.000	20.5	3	1
03/02/06	12:31 p	-22.7	-22.7	-22.7	---	---	18.3	NE	0.30	20.0	-36.7	---	---	733.4	0.029	0.000	20.5	3	1
03/02/06	12:32 p	-22.7	-22.7	-22.7	---	---	18.3	NE	0.30	19.1	-36.7	---	---	733.4	0.029	0.000	20.5	3	1
03/02/06	12:33 p	-22.7	-22.7	-22.7	---	---	16.5	NE	0.28	18.3	-36.1	---	---	733.4	0.028	0.000	20.5	2	1
03/02/06	12:34 p	-22.7	-22.6	-22.7	---	---	18.3	NE	0.30	18.3	-36.6	---	---	733.4	0.028	0.000	20.5	2	1
03/02/06	12:35 p	-22.6	-22.6	-22.6	---	---	17.4	NE	0.29	19.1	-36.3	---	---	733.5	0.028	0.000	20.4	2	1
03/02/06	12:36 p	-22.6	-22.6	-22.6	---	---	17.4	NE	0.29	18.3	-36.2	---	---	733.5	0.028	0.000	20.4	2	1
03/02/06	12:37 p	-22.6	-22.6	-22.6	---	---	17.4	NE	0.29	19.1	-36.2	---	---	733.5	0.028	0.000	20.4	2	1
03/02/06	12:38 p	-22.6	-22.5	-22.6	---	---	16.5	NE	0.28	19.1	-35.9	---	---	733.4	0.028	0.000	20.4	2	1
03/02/06	12:39 p	-22.5	-22.5	-22.5	---	---	16.5	NE	0.28	19.1	-35.8	---	---	733.5	0.028	0.000	20.4	2	1
03/02/06	12:40 p	-22.5	-22.4	-22.5	---	---	17.4	NE	0.29	20.0	-36.1	---	---	733.4	0.028	0.000	20.4	3	1
03/02/06	12:41 p	-22.4	-22.4	-22.4	---	---	16.5	NE	0.28	19.1	-35.8	---	---	733.4	0.028	0.000	20.4	3	1
03/02/06	12:42 p	-22.4	-22.4	-22.4	---	---	16.5	NE	0.28	18.3	-35.8	---	---	733.5	0.028	0.000	20.4	2	1
03/02/06	12:43 p	-22.4	-22.4	-22.4	---	---	17.4	NE	0.29	20.0	-36.1	---	---	733.4	0.028	0.000	20.4	2	1
03/02/06	12:44 p	-22.4	-22.4	-22.4	---	---	16.5	NE	0.28	20.0	-35.7	---	---	733.5	0.028	0.000	20.4	2	1
03/02/06	12:45 p	-22.4	-22.3	-22.4	---	---	18.3	NE	0.30	20.0	-36.3	---	---	733.4	0.028	0.000	20.4	2	1
03/02/06	12:46 p	-22.3	-22.3	-22.3	---	---	16.5	NE	0.28	19.1	-35.6	---	---	733.5	0.028	0.000	20.4	2	1
03/02/06	12:47 p	-22.3	-22.3	-22.3	---	---	18.3	NE	0.30	20.0	-36.2	---	---	733.4	0.028	0.000	20.4	2	1
03/02/06	12:48 p	-22.3	-22.3	-22.3	---	---	16.5	NE	0.28	19.1	-35.6	---	---	733.5	0.028	0.000	20.4	2	1
03/02/06	12:49 p	-22.3	-22.3	-22.3	---	---	19.1	NE	0.32	20.9	-36.4	---	---	733.4	0.028	0.000	20.4	3	1
03/02/06	12:50 p	-22.2	-22.2	-22.2	---	---	17.4	NE	0.29	22.6	-35.8	---	---	733.3	0.028	0.000	20.4	2	1
03/02/06	12:51 p	-22.2	-22.2	-22.2	---	---	17.4	NE	0.29	21.7	-35.8	---	---	733.5	0.028	0.000	20.4	2	1
03/02/06	12:52 p	-22.2	-22.2	-22.2	---	---	17.4	NE	0.29	20.9	-35.7	---	---	733.4	0.028	0.000	20.4	2	1
03/02/06	12:53 p	-22.2	-22.2	-22.2	---	---	17.4	NE	0.29	20.9	-35.7	---	---	733.5	0.028	0.000	20.4	2	1
03/02/06	12:54 p	-22.2	-22.1	-22.2	---	---	17.4	NE	0.29	20.9	-35.7	---	---	733.5	0.028	0.000	20.4	2	1
03/02/06	12:55 p	-22.2	-22.2	-22.2	---	---	18.3	NE	0.30	20.9	-36.0	---	---	733.4	0.028	0.000	20.4	2	1
03/02/06	12:56 p	-22.2	-22.2	-22.2	---	---	18.3	NE	0.30	20.0	-36.0	---	---	733.4	0.028	0.000	20.4	2	1
03/02/06	12:57 p	-22.2	-22.1	-22.2	---	---	18.3	NE	0.30	21.7	-36.0	---	---	733.5	0.028	0.000	20.4	2	1
03/02/06	12:58 p	-22.2	-22.2	-22.2	---	---	18.3	NE	0.30	21.7	-36.0	---	---	733.6	0.028	0.000	20.4	2	1
03/02/06	12:59 p	-22.2	-22.2	-22.2	---	---	17.4	NE	0.29	20.9	-35.7	---	---	733.4	0.028	0.000	20.4	2	1
03/02/06	1:00 p	-22.2	-22.2	-22.2	---	---	17.4	NE	0.29	20.9	-35.7	---	---	733.5	0.028	0.000	20.4	2	1
03/02/06	1:01 p	-22.2	-22.2	-22.2	---	---	17.4	NE	0.29	22.6	-35.7	---	---	733.5	0.028	0.000	20.4	2	1
03/02/06	1:02 p	-22.2	-22.1	-22.2	---	---	20.0	NE	0.33	21.7	-36.5	---	---	733.4	0.028	0.000	20.4	2	1
03/02/06	1:03 p	-22.1	-22.1	-22.1	---	---	19.1	NE	0.32	23.5	-36.2	---	---	733.4	0.028	0.000	20.4	2	1
03/02/06	1:04 p	-22.1	-22.1	-22.1	---	---	15.7	NE	0.26	23.5	-34.9	---	---	733.4	0.028	0.000	20.4	2	1
03/02/06	1:05 p	-22.0	-22.0	-22.1	---	---	17.4	NE	0.29	23.5	-35.5	---	---	733.5	0.028	0.000	20.4	2	1
03/02/06	1:06 p	-21.9	-21.9	-22.0	---	---	16.5	NE	0.28	21.7	-35.1	---	---	733.5	0.028	0.000	20.3	2	1
03/02/06	1:07 p	-21.9	-21.9	-21.9	---	---	18.3	NE	0.30	22.6	-35.6	---	---	733.5	0.028	0.000	20.3	2	1
03/02/06	1:08 p	-21.9	-21.8	-21.9	---	---	18.3	NE	0.30	22.6	-35.6	---	---	733.5	0.028	0.000	20.3	2	1
03/02/06	1:09 p	-21.8	-21.8	-21.8	---	---	13.0	NE	0.22	23.5	-33.7	---	---	733.3	0.028	0.000	20.3	2	1
03/02/06	1:10 p	-21.8	-21.8	-21.8	---	---	18.3	NE	0.30	21.7	-35.4	---	---	733.5	0.028	0.000	20.3	2	1
03/02/06	1:11 p	-21.8	-21.8	-21.8	---	---	18.3	NE	0.30	20.9	-35.4	---	---	733.4	0.028	0.000	20.3	2	1
03/02/06	1:12 p	-21.8	-21.7	-21.8	---	---	19.1	NE	0.32	22.6	-35.7	---	---	733.5	0.028	0.000	20.4	2	1
03/02/06	1:13 p	-21.7	-21.7	-21.8	---	---	17.4	ENE	0.29	21.7	-35.1	---	---	733.4	0.028	0.000	20.4	2	1
03/02/06	1:14 p	-21.7	-21.7	-21.8	---	---	14.8	NE	0.25	22.6	-34.2	---	---	733.4	0.028	0.000	20.4	2	1
03/02/06	1:15 p	-21.7	-21.7	-21.7	---	---	16.5	NE	0.28	21.7	-34.8	---	---	733.4	0.028	0.000	20.4	2	1
03/02/06	1:16 p	-21.7	-21.7	-21.7	---	---	16.5	NE	0.28	22.6	-34.8	---	---	733.3	0.028	0.000	20.4	2	1
03/02/06	1:17 p	-21.7	-21.7	-21.7	---	---	18.3	NE	0.30	20.9	-35.3	---	---	733.4	0.028	0.000	20.4	2	1
03/02/06	1:18 p	-21.7	-21.7	-21.7	---	---	17.4	NE	0.29	22.6	-35.1	---	---	733.4	0.028	0.000	20.4	2	1
03/02/06	1:19 p	-21.6	-21.6	-21.7	---	---	17.4	NE	0.29	21.7	-34.9	---	---	733.3	0.028	0.000	20.4	2	1
03/02/06	1:20 p	-21.7	-21.7	-21.7	---	---	19.1	NE	0.32	21.7	-35.6	---	---	733.2	0.028	0.000	20.4	2	1
03/02/06	1:21 p	-21.7	-21.7	-21.7	---	---	18.3	NE	0.30	23.5	-35.3	---	---	733.4	0.028	0.000	20.4	2	1
03/02/06	1:22 p	-21.7	-21.7	-21.7	---	---	18.3	NE	0.30	20.9	-35.3	---	---	733.3	0.028	0.000	20.4	2	1
03/02/06	1:23 p	-21.7	-21.7	-21.7	---	---	19.1	NE	0.32	22.6	-35.6	---	---	733.5	0.028	0.000	20.4	2	1
03/02/06	1:24 p	-21.7	-21.7	-21.7	---	---	18.3	ENE	0.30	24.3	-35.4	---	---	733.4	0.028	0.000	20.4	2	1
03/02/06	1:25 p	-21.7	-21.7	-21.7	---	---	19.1	NE	0.32	24.3	-35.7	---	---	733.3	0.028	0.000	20.4	2	1
03/02/06	1:26 p	-21.8	-21.7	-21.8	---	---	16.5	NE	0.28	20.0	-34.9	---	---	733.3	0.028	0.000	20.4	2	1
03/02/06	1:27 p	-21.8	-21.8	-21.8	---	---	20.9	NE	0.35	22.6	-36.2	---	---	733.4	0.028	0.000	20.4	2	1
03/02/06	1:28 p	-21.8	-21.8	-21.8	---	---	14.8	NE	0.25	24.3	-34.4	---	---	733.4	0.028	0.000	20.4	2	1
03/02/06	1:29 p	-21.9	-21.8	-21.9	---	---	20.0	NE	0.33	24.3	-36.1	---	---	733.4	0.028	0.000	20.4	2	1
03/02/06	1:30 p	-21.9	-21.9	-21.9	---	---	18.3	NE	0.30	21.7	-35.6	---	---	733.4	0.028	0.000	20.4	2	1
03/02/06	1:31 p	-21.9	-21.9	-22.0	---	---	18.3	NE	0.30	22.6	-35.7	---	---	733.4	0.028	0.000	20.4	2	1
03/02/06	1:32 p	-22.1	-22.0	-22.1	---	---	15.7	NNE	0.26	19.1	-34.9	---	---	733.6	0.028	0.000	20.4	2	1
03/02/06	1:33 p	-22.1	-22.0	-22.1	---	---	13.9	NE	0.23	18.3	-34.3	---	---	733.4	0.028	0.000	20.4	2	1
03/02/06	1:34 p	-22.1	-22.0	-22.1	---	---	16.5	NE	0.28	20.9	-35.3	---	---	733.4	0.028	0.000	20.4	2	1
03/02/06	1:35 p	-22.1	-22.1	-22.1	---	---	17.4	NE	0.29	20.9	-35.6	---	---	733.4	0.028	0.000	20.4	2	1
03/02/06	1:36 p	-22.1	-22.1	-22.2	---	---	20.0	NE	0.33	21.7	-36.4	---	---	733.4	0.028	0.000	20.4	2	1
03/02/06	1:37 p	-22.2	-22.2	-22.2	---	---	17.4	NE	0.29	21.7	-35.7	---	---	733.4	0.028	0.000	20.4	2	1
03/02/06	1:38 p	-22.3	-22.2	-22.3	---	---	18.3	NE	0.30	20.9	-36.1	---	---	733.4	0.028	0.000	20.4	2	1
03/02/06	1:39 p	-22.3	-22.3	-22.4	---	---	16.5	NE	0.28	21.7	-35.6	---	---	733.5	0.028	0.000	20.4	2	1
03/02/06	1:40 p	-22.4	-22.4	-22.4	---	---	20.9	NE	0.35	23.5	-37.1	---	---	733.3	0.028	0.000	20.4	2	1
03/02/06	1:41 p	-22.4	-22.4	-22.4	---	---	18.3	NE	0.30	24.3	-36.3	---	---	733.5	0.028	0.000	20.4	2	1
03/02/06	1:42 p	-22.4	-22.4	-22.4	---	---	15.7	NE	0.26	20.9	-35.5	---	---	733.4	0.028	0.000	20.4	2	1
03/02/06	1:43 p	-22.5	-22.4	-22.5	---	---	18.3	NE	0.30	21.7	-36.4	---	---	733.5	0.028	0.000	20.4	2	1
03/02/06	1:44 p	-22.5	-22.5	-22.5	---	---	18.3	NE	0.30	21.7	-36.4	---	---	733.4	0.028	0.000	20.4	2	1
03/02/06	1:45 p	-22.6	-22.5	-22.6	---	---	19.1	NE	0.32	21.7	-36.8	---	---	733.5	0.028	0.000	20.3	2	1
03/02/06	1:46 p	-22.6	-22.6	-22.6	---	---	16.5	NE	0.28	20.9	-36.0	---	---	733.4	0.028	0.000	20.3	2	1
03/02/06	1:47 p	-22.6	-22.6	-22.6	---	---	20.0	NE	0.33	22.6	-37.1	---	---	733.4	0.028	0.000	20.3	2	1
03/02/06	1:48 p	-22.6	-22.6	-22.6	---	---	16.5	NE	0.28	19.1	-36.0	---	---	733.5	0.028	0.000	20.3	2	1
03/02/06	1:49 p	-22.7	-22.6	-22.7	---	---	20.0	NE	0.33	22.6	-37.2	---	---	733.4	0.028	0.000	20.3	2	1
03/02/06	1:50 p	-22.7	-22.7	-22.7	---	---	19.1	NE	0.32	20.0	-37.0	---	---	733.4	0.029	0.000	20.3	2	1
03/02/06	1:51 p	-22.7	-22.7	-22.7	---	---	20.0	NE	0.33	23.5	-37.2	---	---	733.3	0.029	0.000	20.3	2	1
03/02/06	1:52 p	-22.7	-22.7	-22.8	---	---	20.0	NE	0.33	20.9	-37.2	---	---	733.4	0.029	0.000	20.3	2	1
03/02/06	1:53 p	-22.8	-22.7	-22.8	---	---	19.1	NE	0.32	21.7	-37.1	---	---	733.4	0.029	0.000	20.3	2	1
03/02/06	1:54 p	-22.7	-22.7	-22.8	---	---	20.0	NE	0.33	22.6	-37.2	---	---	733.3	0.029	0.000	20.3	2	1
03/02/06	1:55 p	-22.8	-22.8	-22.8	---	---	20.9	NE	0.35	23.5	-37.6	---	---	733.4	0.029	0.000	20.3	2	1
03/02/06	1:56 p	-22.8	-22.8	-22.8	---	---	20.0	NE	0.33	20.9	-37.3	---	---	733.3	0.029	0.000	20.3	2	1
03/02/06	1:57 p	-22.7	-22.7	-22.7	---	---	20.0	NE	0.33	20.9	-37.2	---	---	733.3	0.029	0.000	20.3	2	1
03/02/06	1:58 p	-22.7	-22.7	-22.7	---	---	20.0	NE	0.33	22.6	-37.2	---	---	733.3	0.029	0.000	20.2	2	1
03/02/06	1:59 p	-22.7	-22.7	-22.7	---	---	18.3	NE	0.30	21.7	-36.7	---	---	733.3	0.029	0.000	20.2	2	1
03/02/06	2:00 p	-22.7	-22.7	-22.8	---	---	20.9	NE	0.35	24.3	-37.5	---	---	733.3	0.029	0.000	20.2	2	1
03/02/06	2:01 p	-22.8	-22.8	-22.8	---	---	19.1	NE	0.32	20.0	-37.1	---	---	733.3	0.029	0.000	20.2	2	1
03/02/06	2:02 p	-22.8	-22.8	-22.8	---	---	18.3	NE	0.30	20.9	-36.8	---	---	733.3	0.029	0.000	20.2	2	1
03/02/06	2:03 p	-22.8	-22.8	-22.8	---	---	19.1	NE	0.32	21.7	-37.1	---	---	733.3	0.029	0.000	20.2	2	1
03/02/06	2:04 p	-22.8	-22.8	-22.8	---	---	19.1	NE	0.32	23.5	-37.1	---	---	733.3	0.029	0.000	20.2	2	1
03/02/06	2:05 p	-22.8	-22.8	-22.8	---	---	20.0	NE	0.33	24.3	-37.3	---	---	733.3	0.029	0.000	20.2	2	1
03/02/06	2:06 p	-22.8	-22.8	-22.8	---	---	20.9	NE	0.35	24.3	-37.6	---	---	733.2	0.029	0.000	20.2	2	1
03/02/06	2:07 p	-22.8	-22.8	-22.8	---	---	20.0	NE	0.33	23.5	-37.3	---	---	733.3	0.029	0.000	20.2	2	1
03/02/06	2:08 p	-22.8	-22.7	-22.8	---	---	18.3	NE	0.30	20.9	-36.8	---	---	733.3	0.029	0.000	20.2	2	1
03/02/06	2:09 p	-22.8	-22.8	-22.8	---	---	20.0	NE	0.33	21.7	-37.3	---	---	733.2	0.029	0.000	20.2	2	1
03/02/06	2:10 p	-22.8	-22.8	-22.8	---	---	18.3	NE	0.30	21.7	-36.8	---	---	733.2	0.029	0.000	20.2	2	1
03/02/06	2:11 p	-22.8	-22.8	-22.8	---	---	19.1	NE	0.32	21.7	-37.1	---	---	733.4	0.029	0.000	20.2	2	1
03/02/06	2:12 p	-22.8	-22.7	-22.8	---	---	19.1	NE	0.32	21.7	-37.1	---	---	733.2	0.029	0.000	20.2	2	1
03/02/06	2:13 p	-22.8	-22.8	-22.8	---	---	20.0	NE	0.33	21.7	-37.3	---	---	733.3	0.029	0.000	20.2	2	1
03/02/06	2:14 p	-22.8	-22.8	-22.8	---	---	20.0	NE	0.33	22.6	-37.3	---	---	733.3	0.029	0.000	20.2	2	1
03/02/06	2:15 p	-22.8	-22.8	-22.8	---	---	19.1	NE	0.32	21.7	-37.1	---	---	733.3	0.029	0.000	20.2	2	1
03/02/06	2:16 p	-22.8	-22.8	-22.8	---	---	20.0	NE	0.33	21.7	-37.3	---	---	733.2	0.029	0.000	20.2	2	1
03/02/06	2:17 p	-22.8	-22.8	-22.8	---	---	21.7	NE	0.36	23.5	-37.9	---	---	733.3	0.029	0.000	20.2	2	1
03/02/06	2:18 p	-22.8	-22.8	-22.8	---	---	19.1	NE	0.32	22.6	-37.1	---	---	733.4	0.029	0.000	20.2	2	1
03/02/06	2:19 p	-22.8	-22.8	-22.8	---	---	20.9	NE	0.35	22.6	-37.6	---	---	733.3	0.029	0.000	20.2	2	1
03/02/06	2:20 p	-22.8	-22.8	-22.8	---	---	20.0	ENE	0.33	22.6	-37.3	---	---	733.3	0.029	0.000	20.2	2	1
03/02/06	2:21 p	-22.8	-22.8	-22.8	---	---	19.1	ENE	0.32	21.7	-37.1	---	---	733.3	0.029	0.000	20.2	2	1
03/02/06	2:22 p	-22.8	-22.8	-22.8	---	---	17.4	ENE	0.29	20.0	-36.5	---	---	733.4	0.029	0.000	20.1	2	1
03/02/06	2:23 p	-22.8	-22.8	-22.8	---	---	18.3	ENE	0.30	20.0	-36.8	---	---	733.4	0.029	0.000	20.1	2	1
03/02/06	2:24 p	-22.8	-22.8	-22.8	---	---	17.4	NE	0.29	20.0	-36.5	---	---	733.4	0.029	0.000	20.1	2	1
03/02/06	2:25 p	-22.8	-22.8	-22.8	---	---	18.3	NE	0.30	20.9	-36.8	---	---	733.3	0.029	0.000	20.1	2	1
03/02/06	2:26 p	-22.8	-22.8	-22.9	---	---	18.3	NE	0.30	20.0	-36.8	---	---	733.4	0.029	0.000	20.1	2	1
03/02/06	2:27 p	-22.9	-22.9	-22.9	---	---	18.3	NE	0.30	20.0	-36.9	---	---	733.3	0.029	0.000	20.1	2	1
03/02/06	2:28 p	-22.9	-22.9	-22.9	---	---	20.9	NE	0.35	22.6	-37.8	---	---	733.3	0.029	0.000	20.1	2	1
03/02/06	2:29 p	-22.9	-22.9	-22.9	---	---	20.0	ENE	0.33	20.9	-37.5	---	---	733.2	0.029	0.000	20.1	2	1
03/02/06	2:30 p	-23.0	-22.9	-23.0	---	---	20.0	ENE	0.33	22.6	-37.6	---	---	733.3	0.029	0.000	20.1	2	1
03/02/06	2:31 p	-23.0	-23.0	-23.0	---	---	19.1	NE	0.32	22.6	-37.3	---	---	733.3	0.029	0.000	20.1	2	1
03/02/06	2:32 p	-23.0	-22.9	-23.0	---	---	20.0	ENE	0.33	22.6	-37.6	---	---	733.3	0.029	0.000	20.1	2	1
03/02/06	2:33 p	-22.9	-22.9	-22.9	---	---	19.1	NE	0.32	20.9	-37.3	---	---	733.4	0.029	0.000	20.1	2	1
03/02/06	2:34 p	-22.9	-22.9	-22.9	---	---	20.0	NE	0.33	22.6	-37.4	---	---	733.3	0.029	0.000	20.1	2	1
03/02/06	2:35 p	-22.9	-22.9	-22.9	---	---	18.3	NE	0.30	20.9	-36.9	---	---	733.4	0.029	0.000	20.1	2	1
03/02/06	2:36 p	-22.9	-22.9	-22.9	---	---	20.9	NE	0.35	24.3	-37.7	---	---	733.4	0.029	0.000	20.1	2	1
03/02/06	2:37 p	-22.9	-22.9	-22.9	---	---	18.3	NE	0.30	20.9	-36.9	---	---	733.4	0.029	0.000	20.0	2	1
03/02/06	2:38 p	-22.9	-22.8	-22.9	---	---	20.0	NE	0.33	22.6	-37.4	---	---	733.4	0.029	0.000	20.0	2	1
03/02/06	2:39 p	-22.8	-22.8	-22.8	---	---	19.1	NE	0.32	22.6	-37.1	---	---	733.2	0.029	0.000	20.0	2	1
03/02/06	2:40 p	-22.8	-22.8	-22.8	---	---	21.7	ENE	0.36	23.5	-37.9	---	---	733.3	0.029	0.000	20.0	2	1
03/02/06	2:41 p	-22.8	-22.8	-22.8	---	---	20.0	NE	0.33	21.7	-37.4	---	---	733.3	0.029	0.000	20.0	2	1
03/02/06	2:42 p	-22.8	-22.8	-22.8	---	---	19.1	NE	0.32	20.9	-37.1	---	---	733.4	0.029	0.000	20.0	2	1
03/02/06	2:43 p	-22.8	-22.8	-22.8	---	---	17.4	NE	0.29	19.1	-36.6	---	---	733.4	0.029	0.000	20.0	2	1
03/02/06	2:44 p	-22.8	-22.8	-22.8	---	---	20.0	ENE	0.33	22.6	-37.4	---	---	733.3	0.029	0.000	20.0	2	1
03/02/06	2:45 p	-22.8	-22.8	-22.8	---	---	18.3	NE	0.30	22.6	-36.8	---	---	733.3	0.029	0.000	20.0	2	1
03/02/06	2:46 p	-22.8	-22.8	-22.8	---	---	19.1	NE	0.32	22.6	-37.1	---	---	733.3	0.029	0.000	20.0	2	1
03/02/06	2:47 p	-22.8	-22.8	-22.8	---	---	20.0	NE	0.33	22.6	-37.3	---	---	733.3	0.029	0.000	20.0	2	1
03/02/06	2:48 p	-22.7	-22.7	-22.7	---	---	17.4	NE	0.29	19.1	-36.4	---	---	733.4	0.029	0.000	20.0	2	1
03/02/06	2:49 p	-22.7	-22.7	-22.7	---	---	17.4	NE	0.29	21.7	-36.4	---	---	733.3	0.029	0.000	20.0	2	1
03/02/06	2:50 p	-22.7	-22.7	-22.7	---	---	19.1	NE	0.32	20.9	-37.0	---	---	733.3	0.029	0.000	20.0	2	1
03/02/06	2:51 p	-22.7	-22.7	-22.7	---	---	19.1	NE	0.32	22.6	-37.0	---	---	733.3	0.029	0.000	20.0	2	1
03/02/06	2:52 p	-22.7	-22.7	-22.7	---	---	19.1	NE	0.32	22.6	-37.0	---	---	733.2	0.029	0.000	20.0	2	1
03/02/06	2:53 p	-22.7	-22.7	-22.7	---	---	20.0	NE	0.33	21.7	-37.2	---	---	733.2	0.029	0.000	20.0	2	1
03/02/06	2:54 p	-22.7	-22.7	-22.7	---	---	20.9	ENE	0.35	23.5	-37.5	---	---	733.2	0.029	0.000	20.0	2	1
03/02/06	2:55 p	-22.7	-22.7	-22.7	---	---	17.4	NE	0.29	20.9	-36.4	---	---	733.2	0.029	0.000	20.0	2	1
03/02/06	2:56 p	-22.8	-22.8	-22.8	---	---	19.1	NE	0.32	21.7	-37.1	---	---	733.3	0.029	0.000	20.0	2	1
03/02/06	2:57 p	-22.8	-22.8	-22.8	---	---	18.3	NE	0.30	20.0	-36.8	---	---	733.3	0.029	0.000	19.9	2	1
03/02/06	2:58 p	-22.8	-22.8	-22.8	---	---	17.4	NE	0.29	21.7	-36.5	---	---	733.3	0.029	0.000	19.9	2	1
03/02/06	2:59 p	-22.8	-22.8	-22.8	---	---	19.1	NE	0.32	20.9	-37.1	---	---	733.3	0.029	0.000	19.9	2	1
03/02/06	3:00 p	-22.8	-22.8	-22.8	---	---	19.1	NE	0.32	21.7	-37.1	---	---	733.3	0.029	0.000	19.9	2	1
03/02/06	3:01 p	-22.8	-22.8	-22.8	---	---	20.0	ENE	0.33	22.6	-37.3	---	---	733.3	0.029	0.000	19.9	2	1
03/02/06	3:02 p	-22.8	-22.8	-22.8	---	---	20.0	NE	0.33	21.7	-37.3	---	---	733.3	0.029	0.000	19.9	2	1
03/02/06	3:03 p	-22.8	-22.7	-22.8	---	---	20.0	NE	0.33	22.6	-37.3	---	---	733.3	0.029	0.000	19.9	2	1
03/02/06	3:04 p	-22.7	-22.7	-22.8	---	---	18.3	NE	0.30	20.9	-36.7	---	---	733.3	0.029	0.000	19.9	2	1
03/02/06	3:05 p	-22.7	-22.7	-22.7	---	---	20.0	NE	0.33	22.6	-37.2	---	---	733.3	0.029	0.000	19.9	2	1
03/02/06	3:06 p	-22.7	-22.7	-22.7	---	---	20.0	NE	0.33	21.7	-37.2	---	---	733.2	0.028	0.000	19.9	2	1
03/02/06	3:07 p	-22.7	-22.7	-22.7	---	---	20.9	NE	0.35	21.7	-37.4	---	---	733.3	0.028	0.000	19.9	2	1
03/02/06	3:08 p	-22.7	-22.6	-22.7	---	---	19.1	NE	0.32	22.6	-36.9	---	---	733.4	0.028	0.000	19.9	2	1
03/02/06	3:09 p	-22.7	-22.7	-22.7	---	---	19.1	NE	0.32	20.0	-36.9	---	---	733.3	0.028	0.000	19.9	2	1
03/02/06	3:10 p	-22.6	-22.6	-22.6	---	---	19.1	NE	0.32	21.7	-36.8	---	---	733.3	0.028	0.000	19.9	2	1
03/02/06	3:11 p	-22.7	-22.7	-22.7	---	---	19.1	NE	0.32	20.9	-36.9	---	---	733.3	0.028	0.000	19.9	2	1
03/02/06	3:12 p	-22.7	-22.7	-22.7	---	---	18.3	NE	0.30	20.9	-36.6	---	---	733.3	0.028	0.000	19.9	2	1
03/02/06	3:13 p	-22.7	-22.7	-22.7	---	---	18.3	NE	0.30	21.7	-36.7	---	---	733.3	0.029	0.000	19.8	2	1
03/02/06	3:14 p	-22.7	-22.7	-22.7	---	---	19.1	NE	0.32	20.9	-37.0	---	---	733.3	0.029	0.000	19.8	2	1
03/02/06	3:15 p	-22.7	-22.7	-22.7	---	---	18.3	NE	0.30	21.7	-36.7	---	---	733.3	0.029	0.000	19.8	2	1
03/02/06	3:16 p	-22.7	-22.7	-22.7	---	---	16.5	NE	0.28	17.4	-36.1	---	---	733.3	0.029	0.000	19.8	2	1
03/02/06	3:17 p	-22.7	-22.7	-22.7	---	---	19.1	NE	0.32	21.7	-37.0	---	---	733.3	0.029	0.000	19.8	2	1
03/02/06	3:18 p	-22.7	-22.7	-22.7	---	---	16.5	NE	0.28	19.1	-36.1	---	---	733.3	0.029	0.000	19.8	2	1
03/02/06	3:19 p	-22.7	-22.7	-22.7	---	---	17.4	NE	0.29	19.1	-36.4	---	---	733.5	0.029	0.000	19.8	2	1
03/02/06	3:20 p	-22.7	-22.7	-22.7	---	---	16.5	NE	0.28	18.3	-36.1	---	---	733.4	0.029	0.000	19.8	2	1
03/02/06	3:21 p	-22.7	-22.7	-22.7	---	---	20.0	NE	0.33	21.7	-37.2	---	---	733.3	0.028	0.000	19.8	2	1
03/02/06	3:22 p	-22.7	-22.7	-22.7	---	---	18.3	NE	0.30	20.9	-36.6	---	---	733.4	0.028	0.000	19.8	2	1
03/02/06	3:23 p	-22.7	-22.7	-22.7	---	---	17.4	NE	0.29	19.1	-36.3	---	---	733.4	0.028	0.000	19.8	2	1
03/02/06	3:24 p	-22.7	-22.7	-22.7	---	---	14.8	NE	0.25	17.4	-35.4	---	---	733.3	0.028	0.000	19.8	2	1
03/02/06	3:25 p	-22.7	-22.7	-22.7	---	---	13.9	NE	0.23	16.5	-35.1	---	---	733.4	0.028	0.000	19.8	2	1
03/02/06	3:26 p	-22.7	-22.7	-22.7	---	---	12.2	NNE	0.20	14.8	-34.4	---	---	733.4	0.028	0.000	19.8	2	1
03/02/06	3:27 p	-22.7	-22.7	-22.7	---	---	13.0	NNE	0.22	18.3	-34.8	---	---	733.3	0.028	0.000	19.8	2	1
03/02/06	3:28 p	-22.7	-22.7	-22.7	---	---	15.7	NNE	0.26	17.4	-35.8	---	---	733.4	0.028	0.000	19.8	2	1
03/02/06	3:29 p	-22.7	-22.7	-22.7	---	---	16.5	NE	0.28	19.1	-36.1	---	---	733.5	0.028	0.000	19.8	2	1
03/02/06	3:30 p	-22.7	-22.7	-22.7	---	---	15.7	NE	0.26	17.4	-35.8	---	---	733.3	0.028	0.000	19.8	2	1
03/02/06	3:31 p	-22.7	-22.7	-22.7	---	---	17.4	NE	0.29	19.1	-36.3	---	---	733.3	0.028	0.000	19.8	2	1
03/02/06	3:32 p	-22.7	-22.7	-22.7	---	---	17.4	NE	0.29	19.1	-36.3	---	---	733.3	0.028	0.000	19.8	2	1
03/02/06	3:33 p	-22.7	-22.7	-22.7	---	---	16.5	NE	0.28	20.0	-36.1	---	---	733.2	0.028	0.000	19.8	2	1
03/02/06	3:34 p	-22.7	-22.7	-22.7	---	---	16.5	NE	0.28	18.3	-36.1	---	---	733.1	0.028	0.000	19.8	2	1
03/02/06	3:35 p	-22.7	-22.7	-22.7	---	---	18.3	NE	0.30	20.9	-36.6	---	---	733.3	0.028	0.000	19.8	2	1
03/02/06	3:36 p	-22.7	-22.7	-22.7	---	---	15.7	NE	0.26	17.4	-35.8	---	---	733.3	0.028	0.000	19.8	2	1
03/02/06	3:37 p	-22.7	-22.7	-22.7	---	---	13.9	NNE	0.23	18.3	-35.1	---	---	733.4	0.028	0.000	19.8	2	1
03/02/06	3:38 p	-22.7	-22.7	-22.7	---	---	12.2	NNE	0.20	14.8	-34.4	---	---	733.3	0.028	0.000	19.8	2	1
03/02/06	3:39 p	-22.7	-22.7	-22.7	---	---	18.3	NNE	0.30	21.7	-36.6	---	---	733.2	0.028	0.000	19.8	2	1
03/02/06	3:40 p	-22.7	-22.6	-22.7	---	---	17.4	NNE	0.29	20.0	-36.3	---	---	733.4	0.028	0.000	19.8	2	1
03/02/06	3:41 p	-22.6	-22.5	-22.6	---	---	15.7	N	0.26	20.0	-35.6	---	---	733.3	0.028	0.000	19.8	2	1
03/02/06	3:42 p	-22.4	-22.3	-22.4	---	---	17.4	N	0.29	20.9	-36.0	---	---	733.2	0.028	0.000	19.8	2	1
03/02/06	3:43 p	-22.2	-22.1	-22.3	---	---	14.8	N	0.25	25.2	-34.9	---	---	733.2	0.028	0.000	19.8	2	1
03/02/06	3:44 p	-21.9	-21.7	-22.1	---	---	19.1	N	0.32	25.2	-35.9	---	---	733.3	0.028	0.000	19.8	2	1
03/02/06	3:45 p	-21.6	-21.5	-21.7	---	---	17.4	NNE	0.29	21.7	-34.9	---	---	733.3	0.028	0.000	19.7	2	1
03/02/06	3:46 p	-21.4	-21.4	-21.5	---	---	15.7	NE	0.26	19.1	-34.2	---	---	733.3	0.028	0.000	19.7	2	1
03/02/06	3:47 p	-21.4	-21.4	-21.5	---	---	18.3	NNE	0.30	22.6	-35.0	---	---	733.2	0.028	0.000	19.7	2	1
03/02/06	3:48 p	-21.4	-21.4	-21.4	---	---	16.5	NE	0.28	20.0	-34.4	---	---	733.2	0.028	0.000	19.7	2	1
03/02/06	3:49 p	-21.4	-21.4	-21.4	---	---	16.5	NNE	0.28	20.9	-34.4	---	---	733.3	0.028	0.000	19.7	2	1
03/02/06	3:50 p	-21.4	-21.4	-21.4	---	---	15.7	NE	0.26	21.7	-34.2	---	---	733.3	0.028	0.000	19.7	2	1
03/02/06	3:51 p	-21.5	-21.4	-21.5	---	---	19.1	NE	0.32	24.3	-35.3	---	---	733.3	0.028	0.000	19.7	2	1
03/02/06	3:52 p	-21.4	-21.4	-21.5	---	---	18.3	NE	0.30	21.7	-35.0	---	---	733.3	0.028	0.000	19.7	2	1
03/02/06	3:53 p	-21.4	-21.4	-21.4	---	---	16.5	NE	0.28	20.9	-34.4	---	---	733.3	0.028	0.000	19.7	2	1
03/02/06	3:54 p	-21.4	-21.4	-21.4	---	---	16.5	NE	0.28	22.6	-34.4	---	---	733.4	0.028	0.000	19.7	2	1
03/02/06	3:55 p	-21.4	-21.4	-21.4	---	---	13.0	N	0.22	18.3	-33.2	---	---	733.3	0.028	0.000	19.7	2	1
03/02/06	3:56 p	-21.4	-21.4	-21.4	---	---	14.8	NNE	0.25	18.3	-33.8	---	---	733.3	0.028	0.000	19.7	2	1
03/02/06	3:57 p	-21.4	-21.4	-21.4	---	---	14.8	NE	0.25	18.3	-33.8	---	---	733.3	0.028	0.000	19.7	2	1
03/02/06	3:58 p	-21.4	-21.4	-21.4	---	---	14.8	NE	0.25	17.4	-33.9	---	---	733.2	0.028	0.000	19.7	2	1
03/02/06	3:59 p	-21.4	-21.4	-21.5	---	---	16.5	NE	0.28	19.1	-34.4	---	---	733.3	0.028	0.000	19.7	2	1
03/02/06	4:00 p	-21.5	-21.5	-21.6	---	---	13.0	NE	0.22	18.3	-33.3	---	---	733.2	0.028	0.000	19.6	2	1
03/02/06	4:01 p	-21.6	-21.6	-21.6	---	---	14.8	NE	0.25	18.3	-34.0	---	---	733.2	0.028	0.000	19.6	2	1
03/02/06	4:02 p	-21.6	-21.6	-21.7	---	---	17.4	ENE	0.29	19.1	-34.9	---	---	733.3	0.028	0.000	19.6	2	1
03/02/06	4:03 p	-21.7	-21.7	-21.8	---	---	14.8	NE	0.25	17.4	-34.2	---	---	733.2	0.028	0.000	19.6	2	1
03/02/06	4:04 p	-21.8	-21.8	-21.8	---	---	16.5	NE	0.28	18.3	-34.9	---	---	733.3	0.028	0.000	19.6	2	1
03/02/06	4:05 p	-21.9	-21.8	-21.9	---	---	14.8	NE	0.25	21.7	-34.4	---	---	733.1	0.028	0.000	19.6	2	1
03/02/06	4:06 p	-21.9	-21.9	-21.9	---	---	18.3	NE	0.30	20.9	-35.7	---	---	733.2	0.028	0.000	19.6	2	1
03/02/06	4:07 p	-22.0	-21.9	-22.0	---	---	16.5	NE	0.28	19.1	-35.2	---	---	733.1	0.028	0.000	19.6	2	1
03/02/06	4:08 p	-22.1	-22.1	-22.1	---	---	17.4	NE	0.29	21.7	-35.6	---	---	733.1	0.028	0.000	19.6	2	1
03/02/06	4:09 p	-22.1	-22.1	-22.1	---	---	17.4	NE	0.29	20.0	-35.6	---	---	733.1	0.028	0.000	19.6	2	1
03/02/06	4:10 p	-22.2	-22.2	-22.2	---	---	15.7	NE	0.26	19.1	-35.1	---	---	733.2	0.028	0.000	19.6	2	1
03/02/06	4:11 p	-22.2	-22.2	-22.3	---	---	14.8	NE	0.25	18.3	-34.9	---	---	733.2	0.028	0.000	19.6	2	1
03/02/06	4:12 p	-22.3	-22.2	-22.3	---	---	16.5	NE	0.28	20.0	-35.6	---	---	733.2	0.028	0.000	19.6	2	1
03/02/06	4:13 p	-22.3	-22.2	-22.3	---	---	9.6	N	0.16	13.9	-32.6	---	---	733.2	0.028	0.000	19.6	2	1
03/02/06	4:14 p	-22.2	-22.2	-22.2	---	---	17.4	NE	0.29	21.7	-35.8	---	---	733.3	0.028	0.000	19.6	2	1
03/02/06	4:15 p	-22.2	-22.2	-22.2	---	---	16.5	NE	0.28	19.1	-35.5	---	---	733.1	0.028	0.000	19.6	2	1
03/02/06	4:16 p	-22.2	-22.2	-22.3	---	---	17.4	NE	0.29	20.0	-35.8	---	---	733.3	0.028	0.000	19.6	2	1
03/02/06	4:17 p	-22.3	-22.3	-22.3	---	---	14.8	NE	0.25	20.0	-34.9	---	---	733.1	0.028	0.000	19.6	2	1
03/02/06	4:18 p	-22.3	-22.3	-22.3	---	---	17.4	NE	0.29	18.3	-35.8	---	---	733.1	0.028	0.000	19.6	2	1
03/02/06	4:19 p	-22.3	-22.3	-22.3	---	---	16.5	NE	0.28	19.1	-35.6	---	---	733.2	0.028	0.000	19.6	2	1
03/02/06	4:20 p	-22.3	-22.3	-22.3	---	---	16.5	NE	0.28	20.0	-35.6	---	---	733.2	0.028	0.000	19.6	2	1
03/02/06	4:21 p	-22.3	-22.3	-22.3	---	---	14.8	NE	0.25	17.4	-35.0	---	---	733.1	0.028	0.000	19.6	2	1
03/02/06	4:22 p	-22.3	-22.3	-22.3	---	---	15.7	NE	0.26	20.0	-35.3	---	---	733.1	0.028	0.000	19.6	2	1
03/02/06	4:23 p	-22.3	-22.3	-22.4	---	---	15.7	NE	0.26	17.4	-35.3	---	---	733.1	0.028	0.000	19.6	2	1
03/02/06	4:24 p	-22.3	-22.3	-22.4	---	---	13.9	NE	0.23	17.4	-34.7	---	---	733.2	0.028	0.000	19.6	2	1
03/02/06	4:25 p	-22.3	-22.3	-22.3	---	---	14.8	NE	0.25	16.5	-35.0	---	---	733.1	0.028	0.000	19.6	2	1
03/02/06	4:26 p	-22.3	-22.3	-22.4	---	---	14.8	NE	0.25	17.4	-35.0	---	---	733.1	0.028	0.000	19.6	2	1
03/02/06	4:27 p	-22.3	-22.3	-22.3	---	---	15.7	NNE	0.26	20.0	-35.3	---	---	733.1	0.028	0.000	19.6	2	1
03/02/06	4:28 p	-22.3	-22.3	-22.3	---	---	12.2	NNE	0.20	19.1	-33.9	---	---	733.1	0.028	0.000	19.6	2	1
03/02/06	4:29 p	-22.3	-22.3	-22.3	---	---	15.7	NNE	0.26	18.3	-35.3	---	---	733.1	0.028	0.000	19.6	2	1
03/02/06	4:30 p	-22.3	-22.2	-22.3	---	---	15.7	NE	0.26	17.4	-35.3	---	---	733.2	0.028	0.000	19.6	2	1
03/02/06	4:31 p	-22.3	-22.2	-22.3	---	---	13.0	NE	0.22	14.8	-34.3	---	---	733.2	0.028	0.000	19.6	2	1
03/02/06	4:32 p	-22.2	-22.2	-22.2	---	---	13.0	NE	0.22	17.4	-34.2	---	---	733.1	0.028	0.000	19.6	2	1
03/02/06	4:33 p	-22.2	-22.2	-22.2	---	---	16.5	NE	0.28	23.5	-35.5	---	---	732.9	0.028	0.000	19.6	2	1
03/02/06	4:34 p	-22.2	-22.1	-22.2	---	---	17.4	NE	0.29	21.7	-35.7	---	---	733.1	0.028	0.000	19.6	2	1
03/02/06	4:35 p	-22.1	-22.0	-22.1	---	---	16.5	NE	0.28	23.5	-35.3	---	---	733.1	0.028	0.000	19.6	2	1
03/02/06	4:36 p	-21.9	-21.9	-22.0	---	---	16.5	NE	0.28	19.1	-35.1	---	---	733.0	0.028	0.000	19.6	2	1
03/02/06	4:37 p	-21.8	-21.7	-21.8	---	---	17.4	NE	0.29	21.7	-35.3	---	---	733.0	0.028	0.000	19.6	2	1
03/02/06	4:38 p	-21.7	-21.6	-21.7	---	---	13.9	NE	0.23	18.3	-33.8	---	---	733.1	0.028	0.000	19.6	2	1
03/02/06	4:39 p	-21.6	-21.5	-21.6	---	---	18.3	NE	0.30	22.6	-35.2	---	---	732.9	0.028	0.000	19.6	2	1
03/02/06	4:40 p	-21.4	-21.4	-21.5	---	---	16.5	NE	0.28	20.0	-34.4	---	---	733.0	0.028	0.000	19.6	2	1
03/02/06	4:41 p	-21.4	-21.3	-21.4	---	---	14.8	ENE	0.25	18.3	-33.8	---	---	732.9	0.028	0.000	19.5	2	1
03/02/06	4:42 p	-21.3	-21.3	-21.3	---	---	15.7	NE	0.26	18.3	-33.9	---	---	733.0	0.028	0.000	19.5	2	1
03/02/06	4:43 p	-21.2	-21.2	-21.3	---	---	12.2	NE	0.20	17.4	-32.6	---	---	733.0	0.027	0.000	19.5	2	1
03/02/06	4:44 p	-21.2	-21.2	-21.2	---	---	17.4	NE	0.29	20.9	-34.4	---	---	732.9	0.027	0.000	19.5	2	1
03/02/06	4:45 p	-21.2	-21.1	-21.2	---	---	18.3	NE	0.30	24.3	-34.7	---	---	733.0	0.027	0.000	19.5	2	1
03/02/06	4:46 p	-21.1	-21.1	-21.2	---	---	13.9	NNE	0.23	19.1	-33.1	---	---	733.1	0.027	0.000	19.5	2	1
03/02/06	4:47 p	-21.2	-21.1	-21.2	---	---	15.7	NE	0.26	23.5	-33.8	---	---	733.0	0.027	0.000	19.5	2	1
03/02/06	4:48 p	-21.2	-21.2	-21.2	---	---	15.7	NE	0.26	19.1	-33.8	---	---	732.9	0.027	0.000	19.5	2	1
03/02/06	4:49 p	-21.2	-21.2	-21.2	---	---	13.0	NE	0.22	19.1	-32.8	---	---	733.1	0.027	0.000	19.4	2	1
03/02/06	4:50 p	-21.1	-21.1	-21.2	---	---	11.3	NE	0.19	16.5	-32.0	---	---	733.1	0.027	0.000	19.4	2	1
03/02/06	4:51 p	-21.1	-21.1	-21.1	---	---	17.4	NE	0.29	20.0	-34.3	---	---	732.9	0.027	0.000	19.4	2	1
03/02/06	4:52 p	-21.1	-21.1	-21.1	---	---	15.7	NE	0.26	19.1	-33.7	---	---	732.9	0.027	0.000	19.4	2	1
03/02/06	4:53 p	-21.1	-21.0	-21.1	---	---	13.9	NE	0.23	16.5	-33.1	---	---	733.1	0.027	0.000	19.4	2	1
03/02/06	4:54 p	-21.0	-21.0	-21.1	---	---	15.7	NE	0.26	20.9	-33.6	---	---	733.0	0.027	0.000	19.4	2	1
03/02/06	4:55 p	-21.0	-21.0	-21.0	---	---	14.8	NE	0.25	20.9	-33.3	---	---	732.9	0.027	0.000	19.4	2	1
03/02/06	4:56 p	-20.9	-20.9	-21.0	---	---	15.7	NE	0.26	20.9	-33.5	---	---	733.0	0.027	0.000	19.4	2	1
03/02/06	4:57 p	-20.9	-20.9	-20.9	---	---	13.0	NNE	0.22	17.4	-32.6	---	---	733.0	0.027	0.000	19.4	2	1
03/02/06	4:58 p	-20.9	-20.9	-20.9	---	---	14.8	NE	0.25	18.3	-33.2	---	---	733.1	0.027	0.000	19.4	2	1
03/02/06	4:59 p	-20.9	-20.8	-20.9	---	---	13.0	NE	0.22	17.4	-32.5	---	---	733.0	0.027	0.000	19.4	2	1
03/02/06	5:00 p	-20.8	-20.8	-20.9	---	---	13.9	NE	0.23	20.0	-32.8	---	---	733.1	0.027	0.000	19.4	2	1
03/02/06	5:01 p	-20.9	-20.8	-20.9	---	---	12.2	NNE	0.20	16.5	-32.1	---	---	733.1	0.027	0.000	19.4	2	1
03/02/06	5:02 p	-20.8	-20.8	-20.9	---	---	12.2	NNE	0.20	15.7	-32.1	---	---	732.9	0.027	0.000	19.4	2	1
03/02/06	5:03 p	-20.9	-20.9	-20.9	---	---	16.5	NE	0.28	21.7	-33.7	---	---	732.9	0.027	0.000	19.4	2	1
03/02/06	5:04 p	-20.9	-20.8	-20.9	---	---	11.3	NNE	0.19	17.4	-31.7	---	---	733.0	0.027	0.000	19.4	2	1
03/02/06	5:05 p	-20.9	-20.9	-20.9	---	---	13.9	NNE	0.23	20.0	-32.8	---	---	733.0	0.027	0.000	19.4	2	1
03/02/06	5:06 p	-20.9	-20.9	-20.9	---	---	8.7	NNE	0.14	15.7	-30.4	---	---	733.0	0.027	0.000	19.4	2	1
03/02/06	5:07 p	-20.9	-20.9	-20.9	---	---	15.7	NNE	0.26	19.1	-33.5	---	---	733.0	0.027	0.000	19.4	2	1
03/02/06	5:08 p	-20.9	-20.9	-20.9	---	---	17.4	NE	0.29	21.7	-34.1	---	---	732.9	0.027	0.000	19.4	2	1
03/02/06	5:09 p	-21.0	-20.9	-21.0	---	---	13.9	NE	0.23	19.1	-32.9	---	---	733.0	0.027	0.000	19.4	2	1
03/02/06	5:10 p	-21.0	-21.0	-21.0	---	---	13.9	NNE	0.23	18.3	-32.9	---	---	733.0	0.027	0.000	19.4	2	1
03/02/06	5:11 p	-21.0	-21.0	-21.0	---	---	13.9	NE	0.23	18.3	-32.9	---	---	732.9	0.027	0.000	19.4	2	1
03/02/06	5:12 p	-21.0	-21.0	-21.1	---	---	14.8	NE	0.25	20.0	-33.3	---	---	733.0	0.027	0.000	19.4	2	1
03/02/06	5:13 p	-21.1	-21.0	-21.1	---	---	17.4	NE	0.29	19.1	-34.2	---	---	732.9	0.027	0.000	19.4	2	1
03/02/06	5:14 p	-21.1	-21.1	-21.1	---	---	13.9	NE	0.23	21.7	-33.1	---	---	732.9	0.027	0.000	19.4	2	1
03/02/06	5:15 p	-21.1	-21.1	-21.1	---	---	14.8	NE	0.25	20.0	-33.4	---	---	732.8	0.027	0.000	19.4	2	1
03/02/06	5:16 p	-21.2	-21.1	-21.2	---	---	13.9	NE	0.23	19.1	-33.2	---	---	733.0	0.027	0.000	19.4	2	1
03/02/06	5:17 p	-21.2	-21.2	-21.2	---	---	16.5	NE	0.28	23.5	-34.1	---	---	732.8	0.027	0.000	19.4	2	1
03/02/06	5:18 p	-21.2	-21.2	-21.2	---	---	13.0	NE	0.22	20.0	-32.8	---	---	733.0	0.027	0.000	19.4	2	1
03/02/06	5:19 p	-21.2	-21.2	-21.2	---	---	18.3	NE	0.30	20.9	-34.7	---	---	732.8	0.027	0.000	19.4	2	1
03/02/06	5:20 p	-21.2	-21.2	-21.2	---	---	13.9	NE	0.23	17.4	-33.2	---	---	732.9	0.027	0.000	19.4	2	1
03/02/06	5:21 p	-21.2	-21.2	-21.2	---	---	15.7	NE	0.26	20.9	-33.8	---	---	732.8	0.027	0.000	19.4	2	1
03/02/06	5:22 p	-21.2	-21.2	-21.2	---	---	10.4	NNE	0.17	15.7	-31.8	---	---	732.9	0.027	0.000	19.4	2	1
03/02/06	5:23 p	-21.2	-21.2	-21.2	---	---	14.8	NE	0.25	21.7	-33.6	---	---	732.9	0.027	0.000	19.4	2	1
03/02/06	5:24 p	-21.3	-21.2	-21.3	---	---	12.2	NNE	0.20	16.5	-32.6	---	---	733.0	0.028	0.000	19.4	2	1
03/02/06	5:25 p	-21.3	-21.3	-21.3	---	---	14.8	NE	0.25	16.5	-33.7	---	---	732.9	0.028	0.000	19.4	2	1
03/02/06	5:26 p	-21.4	-21.3	-21.4	---	---	13.0	NE	0.22	16.5	-33.1	---	---	732.9	0.028	0.000	19.4	2	1
03/02/06	5:27 p	-21.4	-21.4	-21.5	---	---	13.0	NE	0.22	15.7	-33.2	---	---	732.9	0.028	0.000	19.4	2	1
03/02/06	5:28 p	-21.6	-21.5	-21.6	---	---	12.2	NNE	0.20	14.8	-33.0	---	---	732.8	0.028	0.000	19.4	2	1
03/02/06	5:29 p	-21.6	-21.6	-21.6	---	---	15.7	NE	0.26	18.3	-34.4	---	---	732.9	0.028	0.000	19.4	2	1
03/02/06	5:30 p	-21.7	-21.6	-21.7	---	---	18.3	NE	0.30	19.1	-35.3	---	---	732.8	0.028	0.000	19.4	2	1
03/02/06	5:31 p	-21.7	-21.7	-21.8	---	---	17.4	NE	0.29	20.0	-35.1	---	---	732.8	0.028	0.000	19.4	1	1
03/02/06	5:32 p	-21.9	-21.8	-21.9	---	---	13.0	NE	0.22	19.1	-33.8	---	---	732.9	0.028	0.000	19.4	2	1
03/02/06	5:33 p	-21.9	-21.9	-21.9	---	---	16.5	NE	0.28	18.3	-35.1	---	---	732.9	0.028	0.000	19.4	2	1
03/02/06	5:34 p	-22.0	-21.9	-22.0	---	---	13.0	NE	0.22	15.7	-33.9	---	---	732.9	0.028	0.000	19.4	2	1
03/02/06	5:35 p	-22.1	-22.0	-22.1	---	---	15.7	NE	0.26	19.1	-34.9	---	---	732.8	0.028	0.000	19.4	2	1
03/02/06	5:36 p	-22.2	-22.1	-22.2	---	---	17.4	NE	0.29	20.0	-35.7	---	---	732.8	0.028	0.000	19.4	2	1
03/02/06	5:37 p	-22.2	-22.2	-22.2	---	---	14.8	NE	0.25	17.4	-34.9	---	---	732.8	0.028	0.000	19.4	2	1
03/02/06	5:38 p	-22.3	-22.2	-22.3	---	---	15.7	NE	0.26	17.4	-35.3	---	---	732.8	0.028	0.000	19.4	2	1
03/02/06	5:39 p	-22.3	-22.3	-22.3	---	---	14.8	NE	0.25	16.5	-34.9	---	---	732.8	0.028	0.000	19.4	2	1
03/02/06	5:40 p	-22.3	-22.3	-22.4	---	---	16.5	NE	0.28	19.1	-35.6	---	---	732.8	0.028	0.000	19.4	2	1
03/02/06	5:41 p	-22.4	-22.4	-22.4	---	---	14.8	NE	0.25	19.1	-35.2	---	---	732.7	0.028	0.000	19.4	2	1
03/02/06	5:42 p	-22.4	-22.4	-22.5	---	---	14.8	NE	0.25	18.3	-35.2	---	---	732.9	0.028	0.000	19.4	2	1
03/02/06	5:43 p	-22.5	-22.4	-22.5	---	---	13.0	NE	0.22	16.5	-34.6	---	---	732.8	0.028	0.000	19.3	2	1
03/02/06	5:44 p	-22.4	-22.4	-22.5	---	---	16.5	NE	0.28	18.3	-35.8	---	---	732.7	0.028	0.000	19.3	2	1
03/02/06	5:45 p	-22.5	-22.4	-22.5	---	---	16.5	NE	0.28	19.1	-35.8	---	---	732.7	0.028	0.000	19.3	2	1
03/02/06	5:46 p	-22.5	-22.5	-22.5	---	---	15.7	NE	0.26	17.4	-35.6	---	---	732.8	0.028	0.000	19.3	2	1
03/02/06	5:47 p	-22.6	-22.5	-22.6	---	---	15.7	NE	0.26	19.1	-35.6	---	---	732.7	0.028	0.000	19.3	2	1
03/02/06	5:48 p	-22.6	-22.6	-22.6	---	---	13.0	NE	0.22	17.4	-34.6	---	---	732.8	0.028	0.000	19.3	2	1
03/02/06	5:49 p	-22.6	-22.6	-22.6	---	---	15.7	NE	0.26	19.1	-35.6	---	---	732.7	0.028	0.000	19.3	2	1
03/02/06	5:50 p	-22.6	-22.6	-22.6	---	---	17.4	NE	0.29	19.1	-36.2	---	---	732.7	0.028	0.000	19.3	1	1
03/02/06	5:51 p	-22.6	-22.6	-22.6	---	---	16.5	NE	0.28	19.1	-35.9	---	---	732.8	0.028	0.000	19.3	1	1
03/02/06	5:52 p	-22.6	-22.6	-22.6	---	---	14.8	NNE	0.25	18.3	-35.4	---	---	732.8	0.028	0.000	19.3	2	1
03/02/06	5:53 p	-22.6	-22.6	-22.6	---	---	14.8	NNE	0.25	21.7	-35.4	---	---	732.7	0.028	0.000	19.3	2	1
03/02/06	5:54 p	-22.6	-22.6	-22.6	---	---	14.8	NE	0.25	17.4	-35.4	---	---	732.6	0.028	0.000	19.3	2	1
03/02/06	5:55 p	-22.6	-22.6	-22.6	---	---	16.5	NE	0.28	19.1	-36.0	---	---	732.7	0.028	0.000	19.3	2	1
03/02/06	5:56 p	-22.7	-22.7	-22.7	---	---	16.5	NE	0.28	19.1	-36.1	---	---	732.7	0.028	0.000	19.3	1	1
03/02/06	5:57 p	-22.7	-22.7	-22.7	---	---	15.7	NE	0.26	18.3	-35.8	---	---	732.8	0.028	0.000	19.3	2	1
03/02/06	5:58 p	-22.7	-22.7	-22.7	---	---	14.8	NE	0.25	20.0	-35.5	---	---	732.7	0.029	0.000	19.3	1	1
03/02/06	5:59 p	-22.7	-22.7	-22.7	---	---	16.5	NE	0.28	18.3	-36.1	---	---	732.8	0.029	0.000	19.3	1	1
03/02/06	6:00 p	-22.7	-22.7	-22.7	---	---	13.9	NNE	0.23	18.3	-35.2	---	---	732.7	0.029	0.000	19.3	2	1
03/02/06	6:01 p	-22.7	-22.7	-22.7	---	---	15.7	NE	0.26	18.3	-35.8	---	---	732.6	0.029	0.000	19.3	2	1
03/02/06	6:02 p	-22.7	-22.7	-22.7	---	---	13.0	NE	0.22	17.4	-34.8	---	---	732.8	0.029	0.000	19.3	2	1
03/02/06	6:03 p	-22.8	-22.7	-22.8	---	---	16.5	NE	0.28	18.3	-36.2	---	---	732.7	0.029	0.000	19.3	2	1
03/02/06	6:04 p	-22.8	-22.7	-22.8	---	---	16.5	NE	0.28	20.0	-36.2	---	---	732.6	0.029	0.000	19.3	1	1
03/02/06	6:05 p	-22.8	-22.8	-22.8	---	---	14.8	NE	0.25	18.3	-35.7	---	---	732.6	0.029	0.000	19.3	2	1
03/02/06	6:06 p	-22.8	-22.8	-22.9	---	---	14.8	NE	0.25	18.3	-35.7	---	---	732.6	0.029	0.000	19.3	2	1
03/02/06	6:07 p	-22.9	-22.8	-22.9	---	---	14.8	NE	0.25	19.1	-35.7	---	---	732.6	0.029	0.000	19.3	2	1
03/02/06	6:08 p	-22.9	-22.9	-22.9	---	---	17.4	NE	0.29	20.0	-36.7	---	---	732.6	0.029	0.000	19.3	2	1
03/02/06	6:09 p	-22.9	-22.9	-22.9	---	---	15.7	NE	0.26	20.0	-36.1	---	---	732.6	0.029	0.000	19.3	2	1
03/02/06	6:10 p	-22.9	-22.9	-22.9	---	---	15.7	NE	0.26	19.1	-36.1	---	---	732.6	0.029	0.000	19.3	1	1
03/02/06	6:11 p	-22.9	-22.9	-23.0	---	---	15.7	NE	0.26	19.1	-36.1	---	---	732.6	0.029	0.000	19.3	1	1
03/02/06	6:12 p	-23.0	-22.9	-23.0	---	---	17.4	NE	0.29	20.9	-36.8	---	---	732.5	0.029	0.000	19.3	1	1
03/02/06	6:13 p	-22.9	-22.9	-23.0	---	---	14.8	NE	0.25	18.3	-35.8	---	---	732.5	0.029	0.000	19.3	1	1
03/02/06	6:14 p	-22.9	-22.9	-23.0	---	---	17.4	NE	0.29	20.9	-36.7	---	---	732.5	0.029	0.000	19.3	2	1
03/02/06	6:15 p	-23.0	-22.9	-23.0	---	---	14.8	NE	0.25	19.1	-35.9	---	---	732.5	0.029	0.000	19.3	2	1
03/02/06	6:16 p	-23.0	-23.0	-23.0	---	---	13.9	NE	0.23	18.3	-35.6	---	---	732.4	0.029	0.000	19.3	2	1
03/02/06	6:17 p	-23.0	-23.0	-23.0	---	---	15.7	NE	0.26	19.1	-36.2	---	---	732.5	0.029	0.000	19.3	1	1
03/02/06	6:18 p	-23.0	-22.9	-23.0	---	---	14.8	NE	0.25	18.3	-35.9	---	---	732.5	0.029	0.000	19.3	2	1
03/02/06	6:19 p	-23.0	-23.0	-23.0	---	---	16.5	NE	0.28	21.7	-36.5	---	---	732.6	0.029	0.000	19.3	2	1
03/02/06	6:20 p	-23.0	-23.0	-23.0	---	---	18.3	NE	0.30	20.9	-37.1	---	---	732.4	0.029	0.000	19.3	1	1
03/02/06	6:21 p	-23.0	-23.0	-23.1	---	---	16.5	NE	0.28	19.1	-36.5	---	---	732.5	0.029	0.000	19.3	1	1
03/02/06	6:22 p	-23.0	-23.0	-23.1	---	---	16.5	NE	0.28	20.9	-36.5	---	---	732.4	0.029	0.000	19.3	2	1
03/02/06	6:23 p	-23.0	-23.0	-23.1	---	---	18.3	NE	0.30	21.7	-37.1	---	---	732.5	0.029	0.000	19.3	1	1
03/02/06	6:24 p	-23.0	-23.0	-23.0	---	---	17.4	NE	0.29	19.1	-36.8	---	---	732.4	0.029	0.000	19.3	2	1
03/02/06	6:25 p	-23.0	-23.0	-23.0	---	---	14.8	NE	0.25	19.1	-35.9	---	---	732.5	0.029	0.000	19.3	1	1
03/02/06	6:26 p	-22.9	-22.9	-23.0	---	---	16.5	NE	0.28	20.0	-36.4	---	---	732.5	0.029	0.000	19.3	2	1
03/02/06	6:27 p	-22.9	-22.9	-22.9	---	---	18.3	NE	0.30	21.7	-37.0	---	---	732.3	0.029	0.000	19.3	1	1
03/02/06	6:28 p	-22.9	-22.9	-22.9	---	---	13.9	NE	0.23	17.4	-35.4	---	---	732.5	0.029	0.000	19.3	2	1
03/02/06	6:29 p	-22.9	-22.9	-22.9	---	---	15.7	NE	0.26	21.7	-36.1	---	---	732.4	0.029	0.000	19.3	1	1
03/02/06	6:30 p	-22.9	-22.9	-22.9	---	---	16.5	NE	0.28	19.1	-36.4	---	---	732.5	0.029	0.000	19.3	1	1
03/02/06	6:31 p	-22.9	-22.9	-23.0	---	---	16.5	NE	0.28	20.9	-36.4	---	---	732.3	0.029	0.000	19.3	1	1
03/02/06	6:32 p	-23.0	-22.9	-23.0	---	---	18.3	NE	0.30	20.0	-37.1	---	---	732.4	0.029	0.000	19.3	1	1
03/02/06	6:33 p	-23.0	-22.9	-23.0	---	---	16.5	NE	0.28	20.0	-36.5	---	---	732.2	0.029	0.000	19.3	1	1
03/02/06	6:34 p	-22.9	-22.9	-22.9	---	---	18.3	NE	0.30	20.9	-37.0	---	---	732.3	0.029	0.000	19.3	1	1
03/02/06	6:35 p	-22.9	-22.9	-22.9	---	---	16.5	NE	0.28	19.1	-36.3	---	---	732.4	0.029	0.000	19.3	1	1
03/02/06	6:36 p	-22.9	-22.9	-22.9	---	---	16.5	NE	0.28	18.3	-36.3	---	---	732.3	0.029	0.000	19.3	2	1
03/02/06	6:37 p	-22.9	-22.9	-22.9	---	---	15.7	NE	0.26	19.1	-36.1	---	---	732.2	0.029	0.000	19.3	2	1
03/02/06	6:38 p	-22.8	-22.8	-22.9	---	---	16.5	NE	0.28	19.1	-36.3	---	---	732.3	0.029	0.000	19.3	1	1
03/02/06	6:39 p	-22.8	-22.8	-22.9	---	---	15.7	NE	0.26	17.4	-36.0	---	---	732.3	0.029	0.000	19.3	1	1
03/02/06	6:40 p	-22.8	-22.8	-22.8	---	---	14.8	NE	0.25	15.7	-35.6	---	---	732.4	0.029	0.000	19.3	1	1
03/02/06	6:41 p	-22.8	-22.7	-22.8	---	---	15.7	NE	0.26	19.1	-35.9	---	---	732.4	0.029	0.000	19.2	2	1
03/02/06	6:42 p	-22.7	-22.6	-22.7	---	---	15.7	NE	0.26	18.3	-35.8	---	---	732.3	0.028	0.000	19.2	1	1
03/02/06	6:43 p	-22.6	-22.6	-22.6	---	---	14.8	NE	0.25	17.4	-35.3	---	---	732.3	0.028	0.000	19.2	2	1
03/02/06	6:44 p	-22.5	-22.4	-22.6	---	---	14.8	NE	0.25	18.3	-35.2	---	---	732.3	0.028	0.000	19.2	1	1
03/02/06	6:45 p	-22.4	-22.4	-22.4	---	---	18.3	NE	0.30	22.6	-36.3	---	---	732.3	0.028	0.000	19.2	1	1
03/02/06	6:46 p	-22.3	-22.3	-22.3	---	---	20.0	NE	0.33	22.6	-36.7	---	---	732.3	0.028	0.000	19.2	1	1
03/02/06	6:47 p	-22.3	-22.3	-22.3	---	---	17.4	NE	0.29	19.1	-35.8	---	---	732.4	0.028	0.000	19.2	1	1
03/02/06	6:48 p	-22.3	-22.2	-22.3	---	---	15.7	NE	0.26	18.3	-35.3	---	---	732.3	0.028	0.000	19.2	1	1
03/02/06	6:49 p	-22.2	-22.2	-22.2	---	---	17.4	NE	0.29	20.9	-35.8	---	---	732.3	0.028	0.000	19.2	1	1
03/02/06	6:50 p	-22.2	-22.2	-22.2	---	---	16.5	NE	0.28	20.9	-35.5	---	---	732.2	0.028	0.000	19.2	1	1
03/02/06	6:51 p	-22.2	-22.2	-22.2	---	---	16.5	NE	0.28	22.6	-35.5	---	---	732.2	0.028	0.000	19.2	1	1
03/02/06	6:52 p	-22.2	-22.2	-22.2	---	---	19.1	NE	0.32	21.7	-36.2	---	---	732.1	0.028	0.000	19.2	1	1
03/02/06	6:53 p	-22.2	-22.1	-22.2	---	---	12.2	NNE	0.20	19.1	-33.8	---	---	732.4	0.028	0.000	19.2	1	1
03/02/06	6:54 p	-22.2	-22.1	-22.2	---	---	13.0	NE	0.22	17.4	-34.1	---	---	732.3	0.028	0.000	19.2	1	1
03/02/06	6:55 p	-22.1	-22.1	-22.2	---	---	15.7	NE	0.26	18.3	-35.1	---	---	732.2	0.028	0.000	19.2	1	1
03/02/06	6:56 p	-22.2	-22.1	-22.2	---	---	15.7	NE	0.26	20.0	-35.1	---	---	732.3	0.028	0.000	19.2	1	1
03/02/06	6:57 p	-22.1	-22.1	-22.2	---	---	19.1	NE	0.32	22.6	-36.2	---	---	732.2	0.028	0.000	19.2	1	1
03/02/06	6:58 p	-22.2	-22.2	-22.2	---	---	15.7	NNE	0.26	20.0	-35.1	---	---	732.2	0.028	0.000	19.2	1	1
03/02/06	6:59 p	-22.2	-22.2	-22.2	---	---	16.5	NE	0.28	20.0	-35.4	---	---	732.2	0.028	0.000	19.2	1	1
03/02/06	7:00 p	-22.2	-22.2	-22.2	---	---	15.7	NE	0.26	20.0	-35.2	---	---	732.3	0.028	0.000	19.2	1	1
03/02/06	7:01 p	-22.3	-22.3	-22.3	---	---	15.7	NE	0.26	20.0	-35.3	---	---	732.2	0.028	0.000	19.2	1	1
03/02/06	7:02 p	-22.3	-22.3	-22.3	---	---	18.3	NE	0.30	21.7	-36.1	---	---	732.3	0.028	0.000	19.2	1	1
03/02/06	7:03 p	-22.3	-22.3	-22.3	---	---	17.4	NE	0.29	20.9	-35.8	---	---	732.1	0.028	0.000	19.2	1	1
03/02/06	7:04 p	-22.3	-22.3	-22.3	---	---	18.3	NE	0.30	21.7	-36.2	---	---	732.2	0.028	0.000	19.2	1	1
03/02/06	7:05 p	-22.3	-22.3	-22.3	---	---	19.1	NE	0.32	22.6	-36.4	---	---	732.3	0.028	0.000	19.2	1	1
03/02/06	7:06 p	-22.3	-22.3	-22.3	---	---	15.7	NE	0.26	22.6	-35.3	---	---	732.1	0.028	0.000	19.2	1	1
03/02/06	7:07 p	-22.3	-22.3	-22.3	---	---	21.7	NE	0.36	24.3	-37.2	---	---	732.1	0.028	0.000	19.2	1	1
03/02/06	7:08 p	-22.3	-22.3	-22.4	---	---	18.3	NE	0.30	20.9	-36.2	---	---	732.1	0.028	0.000	19.2	1	1
03/02/06	7:09 p	-22.4	-22.3	-22.4	---	---	15.7	NE	0.26	20.0	-35.4	---	---	732.2	0.028	0.000	19.2	1	1
03/02/06	7:10 p	-22.3	-22.3	-22.3	---	---	19.1	NE	0.32	22.6	-36.4	---	---	732.1	0.028	0.000	19.2	1	1
03/02/06	7:11 p	-22.4	-22.3	-22.4	---	---	18.3	NE	0.30	26.1	-36.3	---	---	732.0	0.028	0.000	19.2	1	1
03/02/06	7:12 p	-22.4	-22.4	-22.4	---	---	20.9	ENE	0.35	23.5	-37.1	---	---	732.1	0.028	0.000	19.2	1	1
03/02/06	7:13 p	-22.4	-22.4	-22.4	---	---	13.0	NE	0.22	21.7	-34.4	---	---	732.1	0.028	0.000	19.2	1	1
03/02/06	7:14 p	-22.4	-22.3	-22.4	---	---	19.1	NE	0.32	23.5	-36.6	---	---	732.1	0.028	0.000	19.2	1	1
03/02/06	7:15 p	-22.4	-22.3	-22.4	---	---	17.4	NE	0.29	23.5	-36.0	---	---	732.0	0.028	0.000	19.2	1	1
03/02/06	7:16 p	-22.4	-22.4	-22.4	---	---	17.4	NE	0.29	20.0	-36.0	---	---	732.1	0.028	0.000	19.2	1	1
03/02/06	7:17 p	-22.4	-22.4	-22.4	---	---	17.4	NE	0.29	21.7	-36.1	---	---	732.1	0.028	0.000	19.2	1	1
03/02/06	7:18 p	-22.4	-22.4	-22.4	---	---	19.1	NE	0.32	22.6	-36.6	---	---	732.1	0.028	0.000	19.2	1	1
03/02/06	7:19 p	-22.4	-22.4	-22.5	---	---	18.3	NE	0.30	20.9	-36.3	---	---	732.1	0.028	0.000	19.2	1	1
03/02/06	7:20 p	-22.4	-22.4	-22.5	---	---	18.3	NE	0.30	23.5	-36.3	---	---	732.0	0.028	0.000	19.2	1	1
03/02/06	7:21 p	-22.5	-22.5	-22.5	---	---	18.3	NE	0.30	21.7	-36.4	---	---	732.0	0.028	0.000	19.2	1	1
03/02/06	7:22 p	-22.5	-22.5	-22.5	---	---	15.7	NE	0.26	18.3	-35.6	---	---	732.1	0.028	0.000	19.2	1	1
03/02/06	7:23 p	-22.5	-22.5	-22.5	---	---	18.3	NE	0.30	24.3	-36.4	---	---	732.1	0.028	0.000	19.2	1	1
03/02/06	7:24 p	-22.4	-22.4	-22.5	---	---	20.0	NE	0.33	25.2	-36.9	---	---	732.1	0.028	0.000	19.2	1	1
03/02/06	7:25 p	-22.5	-22.5	-22.5	---	---	19.1	NE	0.32	21.7	-36.7	---	---	732.1	0.028	0.000	19.2	1	1
03/02/06	7:26 p	-22.4	-22.4	-22.4	---	---	18.3	NE	0.30	19.1	-36.3	---	---	732.2	0.028	0.000	19.2	1	1
03/02/06	7:27 p	-22.4	-22.4	-22.4	---	---	14.8	NE	0.25	18.3	-35.1	---	---	732.1	0.028	0.000	19.2	1	1
03/02/06	7:28 p	-22.4	-22.4	-22.4	---	---	17.4	NE	0.29	20.9	-36.0	---	---	732.0	0.028	0.000	19.2	1	1
03/02/06	7:29 p	-22.4	-22.4	-22.4	---	---	18.3	NE	0.30	21.7	-36.3	---	---	732.1	0.028	0.000	19.2	1	1
03/02/06	7:30 p	-22.4	-22.4	-22.5	---	---	17.4	NE	0.29	21.7	-36.1	---	---	732.1	0.028	0.000	19.2	1	1
03/02/06	7:31 p	-22.5	-22.4	-22.5	---	---	18.3	NE	0.30	24.3	-36.4	---	---	732.2	0.028	0.000	19.2	1	1
03/02/06	7:32 p	-22.5	-22.4	-22.5	---	---	17.4	NE	0.29	20.0	-36.1	---	---	732.2	0.028	0.000	19.2	1	1
03/02/06	7:33 p	-22.4	-22.4	-22.5	---	---	16.5	NE	0.28	23.5	-35.8	---	---	732.1	0.028	0.000	19.2	1	1
03/02/06	7:34 p	-22.4	-22.4	-22.4	---	---	19.1	NE	0.32	23.5	-36.6	---	---	732.0	0.028	0.000	19.2	1	1
03/02/06	7:35 p	-22.4	-22.4	-22.4	---	---	13.9	NE	0.23	22.6	-34.8	---	---	732.1	0.028	0.000	19.2	1	1
03/02/06	7:36 p	-22.4	-22.4	-22.4	---	---	20.9	NE	0.35	22.6	-37.1	---	---	732.0	0.028	0.000	19.2	1	1
03/02/06	7:37 p	-22.4	-22.4	-22.4	---	---	19.1	NE	0.32	21.7	-36.6	---	---	732.1	0.028	0.000	19.2	1	1
03/02/06	7:38 p	-22.3	-22.3	-22.4	---	---	16.5	NE	0.28	19.1	-35.6	---	---	732.0	0.028	0.000	19.2	1	1
03/02/06	7:39 p	-22.3	-22.3	-22.3	---	---	13.9	NNE	0.23	23.5	-34.6	---	---	732.0	0.028	0.000	19.2	1	1
03/02/06	7:40 p	-22.3	-22.3	-22.3	---	---	20.0	NE	0.33	23.5	-36.7	---	---	732.1	0.028	0.000	19.2	1	1
03/02/06	7:41 p	-22.3	-22.2	-22.3	---	---	20.0	NE	0.33	22.6	-36.7	---	---	732.0	0.028	0.000	19.2	1	1
03/02/06	7:42 p	-22.2	-22.2	-22.3	---	---	19.1	NE	0.32	22.6	-36.3	---	---	732.0	0.028	0.000	19.2	1	1
03/02/06	7:43 p	-22.3	-22.2	-22.3	---	---	18.3	ENE	0.30	20.0	-36.1	---	---	732.1	0.028	0.000	19.2	1	1
03/02/06	7:44 p	-22.2	-22.2	-22.2	---	---	18.3	NE	0.30	20.9	-36.1	---	---	732.1	0.028	0.000	19.2	1	1
03/02/06	7:45 p	-22.2	-22.2	-22.2	---	---	16.5	NE	0.28	20.9	-35.4	---	---	732.0	0.028	0.000	19.2	1	1
03/02/06	7:46 p	-22.2	-22.2	-22.2	---	---	20.9	ENE	0.35	23.5	-36.7	---	---	732.1	0.028	0.000	19.1	1	1
03/02/06	7:47 p	-22.1	-22.1	-22.1	---	---	17.4	ENE	0.29	22.6	-35.6	---	---	731.9	0.028	0.000	19.1	1	1
03/02/06	7:48 p	-22.1	-22.1	-22.1	---	---	19.1	NE	0.32	21.7	-36.2	---	---	731.9	0.028	0.000	19.1	1	1
03/02/06	7:49 p	-22.1	-22.1	-22.1	---	---	17.4	NE	0.29	21.7	-35.6	---	---	732.2	0.028	0.000	19.1	1	1
03/02/06	7:50 p	-22.0	-22.0	-22.0	---	---	16.5	NE	0.28	19.1	-35.2	---	---	732.0	0.028	0.000	19.1	1	1
03/02/06	7:51 p	-22.0	-21.9	-22.0	---	---	20.0	NE	0.33	22.6	-36.3	---	---	732.0	0.028	0.000	19.1	1	1
03/02/06	7:52 p	-21.9	-21.9	-21.9	---	---	18.3	NE	0.30	20.0	-35.7	---	---	732.1	0.028	0.000	19.1	1	1
03/02/06	7:53 p	-21.9	-21.9	-22.0	---	---	19.1	NE	0.32	23.5	-35.9	---	---	732.0	0.028	0.000	19.1	1	1
03/02/06	7:54 p	-21.9	-21.9	-21.9	---	---	19.1	ENE	0.32	21.7	-35.9	---	---	731.9	0.028	0.000	19.1	1	1
03/02/06	7:55 p	-21.9	-21.9	-21.9	---	---	18.3	NE	0.30	21.7	-35.7	---	---	732.0	0.028	0.000	19.1	1	1
03/02/06	7:56 p	-21.9	-21.8	-21.9	---	---	17.4	NE	0.29	20.0	-35.3	---	---	731.9	0.028	0.000	19.1	1	1
03/02/06	7:57 p	-21.8	-21.8	-21.8	---	---	19.1	ENE	0.32	20.9	-35.8	---	---	732.0	0.028	0.000	19.1	1	1
03/02/06	7:58 p	-21.8	-21.8	-21.8	---	---	18.3	ENE	0.30	22.6	-35.4	---	---	731.9	0.028	0.000	19.1	1	1
03/02/06	7:59 p	-21.8	-21.8	-21.8	---	---	21.7	NE	0.36	25.2	-36.4	---	---	732.0	0.028	0.000	19.1	1	1
03/02/06	8:00 p	-21.7	-21.7	-21.8	---	---	20.9	ENE	0.35	22.6	-36.2	---	---	731.9	0.028	0.000	19.1	1	1
03/02/06	8:01 p	-21.7	-21.7	-21.7	---	---	19.1	NE	0.32	22.6	-35.7	---	---	731.9	0.028	0.000	19.1	1	1
03/02/06	8:02 p	-21.7	-21.7	-21.7	---	---	20.9	NE	0.35	23.5	-36.1	---	---	732.0	0.028	0.000	19.1	1	1
03/02/06	8:03 p	-21.7	-21.7	-21.7	---	---	16.5	NE	0.28	20.0	-34.8	---	---	732.0	0.028	0.000	19.1	1	1
03/02/06	8:04 p	-21.7	-21.7	-21.7	---	---	16.5	NE	0.28	20.0	-34.8	---	---	732.0	0.028	0.000	19.1	1	1
03/02/06	8:05 p	-21.7	-21.7	-21.7	---	---	19.1	ENE	0.32	21.7	-35.6	---	---	732.0	0.028	0.000	19.1	1	1
03/02/06	8:06 p	-21.7	-21.7	-21.7	---	---	20.0	NE	0.33	25.2	-35.8	---	---	732.0	0.028	0.000	19.1	1	1
03/02/06	8:07 p	-21.7	-21.7	-21.7	---	---	21.7	NE	0.36	22.6	-36.3	---	---	731.9	0.028	0.000	19.1	1	1
03/02/06	8:08 p	-21.7	-21.7	-21.7	---	---	20.0	NE	0.33	21.7	-35.9	---	---	731.9	0.028	0.000	19.1	1	1
03/02/06	8:09 p	-21.8	-21.7	-21.8	---	---	20.0	ENE	0.33	22.6	-36.0	---	---	731.8	0.028	0.000	19.1	1	1
03/02/06	8:10 p	-21.8	-21.8	-21.8	---	---	22.6	ENE	0.38	25.2	-36.8	---	---	732.0	0.028	0.000	19.1	1	1
03/02/06	8:11 p	-21.8	-21.8	-21.8	---	---	17.4	NE	0.29	21.7	-35.3	---	---	731.9	0.028	0.000	19.1	1	1
03/02/06	8:12 p	-21.9	-21.8	-21.9	---	---	20.9	ENE	0.35	23.5	-36.4	---	---	731.9	0.028	0.000	19.1	1	1
03/02/06	8:13 p	-21.9	-21.9	-21.9	---	---	19.1	NE	0.32	20.9	-35.9	---	---	731.9	0.028	0.000	19.1	1	1
03/02/06	8:14 p	-21.9	-21.9	-21.9	---	---	20.0	ENE	0.33	24.3	-36.2	---	---	731.9	0.028	0.000	19.1	1	1
03/02/06	8:15 p	-21.9	-21.9	-21.9	---	---	21.7	ENE	0.36	24.3	-36.7	---	---	731.9	0.028	0.000	19.1	1	1
03/02/06	8:16 p	-21.9	-21.9	-21.9	---	---	14.8	ENE	0.25	20.0	-34.5	---	---	731.7	0.028	0.000	19.1	1	1
03/02/06	8:17 p	-21.9	-21.9	-21.9	---	---	22.6	ENE	0.38	25.2	-36.8	---	---	731.8	0.028	0.000	19.1	1	1
03/02/06	8:18 p	-21.9	-21.9	-21.9	---	---	23.5	ENE	0.39	27.8	-37.1	---	---	731.8	0.028	0.000	19.1	1	1
03/02/06	8:19 p	-21.9	-21.9	-21.9	---	---	18.3	ENE	0.30	21.7	-35.6	---	---	732.0	0.028	0.000	19.1	1	1
03/02/06	8:20 p	-21.9	-21.9	-21.9	---	---	15.7	ENE	0.26	19.1	-34.8	---	---	731.9	0.028	0.000	19.1	1	1
03/02/06	8:21 p	-21.9	-21.9	-21.9	---	---	19.1	ENE	0.32	22.6	-35.9	---	---	731.8	0.028	0.000	19.2	1	1
03/02/06	8:22 p	-21.9	-21.9	-21.9	---	---	20.9	NE	0.35	23.5	-36.4	---	---	731.9	0.028	0.000	19.2	1	1
03/02/06	8:23 p	-21.9	-21.8	-21.9	---	---	17.4	ENE	0.29	19.1	-35.3	---	---	731.9	0.028	0.000	19.1	1	1
03/02/06	8:24 p	-21.9	-21.8	-21.9	---	---	16.5	ENE	0.28	23.5	-35.1	---	---	731.7	0.028	0.000	19.2	1	1
03/02/06	8:25 p	-21.9	-21.8	-21.9	---	---	23.5	ENE	0.39	26.1	-37.1	---	---	731.9	0.028	0.000	19.2	1	1
03/02/06	8:26 p	-21.8	-21.8	-21.9	---	---	21.7	ENE	0.36	23.5	-36.6	---	---	731.9	0.028	0.000	19.2	1	1
03/02/06	8:27 p	-21.8	-21.8	-21.8	---	---	19.1	ENE	0.32	20.9	-35.8	---	---	731.9	0.028	0.000	19.1	1	1
03/02/06	8:28 p	-21.8	-21.7	-21.8	---	---	16.5	ENE	0.28	21.7	-34.9	---	---	731.8	0.028	0.000	19.1	1	1
03/02/06	8:29 p	-21.7	-21.7	-21.7	---	---	20.0	ENE	0.33	23.5	-35.9	---	---	731.8	0.028	0.000	19.1	1	1
03/02/06	8:30 p	-21.8	-21.8	-21.8	---	---	23.5	ENE	0.39	27.0	-36.9	---	---	731.9	0.028	0.000	19.1	1	1
03/02/06	8:31 p	-21.8	-21.8	-21.8	---	---	18.3	ENE	0.30	20.9	-35.4	---	---	731.9	0.028	0.000	19.1	1	1
03/02/06	8:32 p	-21.8	-21.8	-21.8	---	---	14.8	ENE	0.25	17.4	-34.3	---	---	731.8	0.028	0.000	19.1	1	1
03/02/06	8:33 p	-21.8	-21.8	-21.8	---	---	20.9	ENE	0.35	23.5	-36.3	---	---	731.8	0.028	0.000	19.1	1	1
03/02/06	8:34 p	-21.8	-21.8	-21.8	---	---	20.9	NE	0.35	22.6	-36.3	---	---	731.9	0.028	0.000	19.1	1	1
03/02/06	8:35 p	-21.8	-21.8	-21.9	---	---	20.9	ENE	0.35	23.5	-36.3	---	---	731.9	0.028	0.000	19.1	1	1
03/02/06	8:36 p	-21.9	-21.9	-21.9	---	---	20.9	ENE	0.35	23.5	-36.4	---	---	731.7	0.028	0.000	19.1	1	1
03/02/06	8:37 p	-21.9	-21.9	-21.9	---	---	20.0	NE	0.33	24.3	-36.1	---	---	731.9	0.028	0.000	19.1	1	1
03/02/06	8:38 p	-21.9	-21.9	-21.9	---	---	18.3	ENE	0.30	21.7	-35.6	---	---	731.9	0.028	0.000	19.1	1	1
03/02/06	8:39 p	-21.9	-21.9	-21.9	---	---	20.9	ENE	0.35	25.2	-36.4	---	---	731.9	0.028	0.000	19.1	1	1
03/02/06	8:40 p	-21.9	-21.9	-21.9	---	---	19.1	ENE	0.32	22.6	-35.9	---	---	731.9	0.028	0.000	19.1	1	1
03/02/06	8:41 p	-21.9	-21.9	-21.9	---	---	21.7	ENE	0.36	25.2	-36.7	---	---	731.7	0.028	0.000	19.1	1	1
03/02/06	8:42 p	-21.9	-21.9	-21.9	---	---	17.4	ENE	0.29	21.7	-35.4	---	---	731.9	0.028	0.000	19.1	1	1
03/02/06	8:43 p	-21.9	-21.9	-21.9	---	---	21.7	ENE	0.36	23.5	-36.7	---	---	731.7	0.028	0.000	19.1	1	1
03/02/06	8:44 p	-21.9	-21.9	-21.9	---	---	20.9	ENE	0.35	23.5	-36.4	---	---	731.8	0.028	0.000	19.0	1	1
03/02/06	8:45 p	-21.9	-21.9	-21.9	---	---	18.3	ENE	0.30	24.3	-35.7	---	---	731.8	0.028	0.000	18.9	1	1
03/02/06	8:46 p	-21.9	-21.9	-21.9	---	---	20.9	ENE	0.35	23.5	-36.4	---	---	732.0	0.028	0.000	18.9	1	1
03/02/06	8:47 p	-21.9	-21.9	-21.9	---	---	19.1	ENE	0.32	20.9	-35.9	---	---	731.9	0.028	0.000	18.9	1	1
03/02/06	8:48 p	-21.9	-21.9	-21.9	---	---	20.0	ENE	0.33	22.6	-36.1	---	---	731.7	0.028	0.000	18.9	2	1
03/02/06	8:49 p	-21.9	-21.9	-21.9	---	---	20.0	ENE	0.33	22.6	-36.1	---	---	731.8	0.028	0.000	18.9	2	1
03/02/06	8:50 p	-21.9	-21.9	-21.9	---	---	23.5	ENE	0.39	27.8	-37.1	---	---	731.8	0.028	0.000	18.9	2	1
03/02/06	8:51 p	-21.9	-21.9	-21.9	---	---	20.9	NE	0.35	23.5	-36.4	---	---	731.9	0.028	0.000	18.9	2	1
03/02/06	8:52 p	-21.9	-21.9	-21.9	---	---	19.1	ENE	0.32	22.6	-35.9	---	---	731.9	0.028	0.000	18.9	2	1
03/02/06	8:53 p	-21.9	-21.9	-21.9	---	---	21.7	ENE	0.36	24.3	-36.7	---	---	731.7	0.028	0.000	18.9	2	1
03/02/06	8:54 p	-21.9	-21.9	-21.9	---	---	18.3	ENE	0.30	22.6	-35.7	---	---	731.9	0.028	0.000	18.9	2	1
03/02/06	8:55 p	-21.9	-21.9	-21.9	---	---	17.4	ENE	0.29	22.6	-35.4	---	---	731.7	0.028	0.000	18.9	2	1
03/02/06	8:56 p	-21.9	-21.9	-22.0	---	---	24.3	NE	0.41	27.0	-37.3	---	---	731.6	0.028	0.000	18.9	2	1
03/02/06	8:57 p	-21.9	-21.9	-21.9	---	---	20.0	ENE	0.33	25.2	-36.2	---	---	732.0	0.028	0.000	18.9	2	1
03/02/06	8:58 p	-21.9	-21.9	-21.9	---	---	14.8	ENE	0.25	22.6	-34.4	---	---	731.8	0.028	0.000	18.9	2	1
03/02/06	8:59 p	-21.9	-21.9	-21.9	---	---	24.3	ENE	0.41	27.0	-37.3	---	---	731.8	0.028	0.000	18.9	2	1
03/02/06	9:00 p	-21.9	-21.9	-21.9	---	---	21.7	ENE	0.36	25.2	-36.6	---	---	731.8	0.028	0.000	19.0	2	1
03/02/06	9:01 p	-21.9	-21.9	-21.9	---	---	19.1	ENE	0.32	21.7	-35.9	---	---	731.7	0.028	0.000	19.0	2	1
03/02/06	9:02 p	-21.9	-21.9	-21.9	---	---	19.1	ENE	0.32	21.7	-35.9	---	---	731.8	0.028	0.000	19.0	2	1
03/02/06	9:03 p	-21.9	-21.8	-21.9	---	---	20.0	NE	0.33	23.5	-36.1	---	---	731.7	0.028	0.000	19.0	2	1
03/02/06	9:04 p	-21.9	-21.9	-21.9	---	---	18.3	ENE	0.30	21.7	-35.6	---	---	731.7	0.028	0.000	19.0	2	1
03/02/06	9:05 p	-21.9	-21.9	-21.9	---	---	22.6	ENE	0.38	24.3	-36.8	---	---	731.7	0.028	0.000	19.0	2	1
03/02/06	9:06 p	-21.9	-21.9	-21.9	---	---	20.0	NE	0.33	24.3	-36.1	---	---	732.0	0.028	0.000	19.0	2	1
03/02/06	9:07 p	-21.9	-21.8	-21.9	---	---	14.8	NE	0.25	18.3	-34.4	---	---	731.9	0.028	0.000	19.1	2	1
03/02/06	9:08 p	-21.8	-21.8	-21.9	---	---	16.5	NE	0.28	23.5	-35.0	---	---	731.7	0.028	0.000	19.1	2	1
03/02/06	9:09 p	-21.8	-21.8	-21.9	---	---	21.7	ENE	0.36	25.2	-36.6	---	---	731.7	0.028	0.000	19.1	2	1
03/02/06	9:10 p	-21.8	-21.8	-21.9	---	---	21.7	ENE	0.36	24.3	-36.6	---	---	731.8	0.028	0.000	19.1	2	1
03/02/06	9:11 p	-21.8	-21.8	-21.9	---	---	17.4	ENE	0.29	21.7	-35.3	---	---	731.7	0.028	0.000	19.1	2	1
03/02/06	9:12 p	-21.9	-21.9	-21.9	---	---	20.9	ENE	0.35	23.5	-36.4	---	---	731.8	0.028	0.000	19.1	2	1
03/02/06	9:13 p	-21.9	-21.9	-21.9	---	---	20.9	ENE	0.35	25.2	-36.4	---	---	731.8	0.028	0.000	19.1	2	1
03/02/06	9:14 p	-21.9	-21.9	-21.9	---	---	20.9	ENE	0.35	23.5	-36.4	---	---	731.7	0.028	0.000	19.1	2	1
03/02/06	9:15 p	-21.9	-21.9	-21.9	---	---	20.9	ENE	0.35	21.7	-36.4	---	---	731.7	0.028	0.000	19.1	2	1
03/02/06	9:16 p	-21.9	-21.9	-21.9	---	---	18.3	ENE	0.30	20.0	-35.7	---	---	731.7	0.028	0.000	19.1	2	1
03/02/06	9:17 p	-21.9	-21.9	-21.9	---	---	22.6	ENE	0.38	24.3	-36.9	---	---	731.7	0.028	0.000	19.1	2	1
03/02/06	9:18 p	-21.9	-21.9	-21.9	---	---	17.4	ENE	0.29	23.5	-35.4	---	---	731.9	0.028	0.000	19.1	2	1
03/02/06	9:19 p	-21.9	-21.9	-21.9	---	---	21.7	ENE	0.36	27.0	-36.7	---	---	731.6	0.028	0.000	19.1	2	1
03/02/06	9:20 p	-21.9	-21.9	-21.9	---	---	22.6	ENE	0.38	27.0	-36.9	---	---	731.7	0.028	0.000	19.1	2	1
03/02/06	9:21 p	-21.9	-21.9	-22.0	---	---	19.1	ENE	0.32	21.7	-35.9	---	---	731.8	0.028	0.000	19.1	2	1
03/02/06	9:22 p	-21.9	-21.9	-21.9	---	---	17.4	NE	0.29	24.3	-35.4	---	---	731.9	0.028	0.000	19.1	2	1
03/02/06	9:23 p	-21.9	-21.9	-21.9	---	---	1.7	N	0.03	9.6	-24.6	---	---	731.9	0.028	0.000	19.1	2	1
03/02/06	9:24 p	-21.9	-21.9	-21.9	---	---	21.7	ENE	0.36	27.8	-36.6	---	---	731.5	0.028	0.000	19.1	2	1
03/02/06	9:25 p	-21.9	-21.9	-21.9	---	---	25.2	ENE	0.42	27.8	-37.5	---	---	731.6	0.028	0.000	19.1	2	1
03/02/06	9:26 p	-21.9	-21.8	-21.9	---	---	19.1	ENE	0.32	22.6	-35.9	---	---	731.9	0.028	0.000	19.1	2	1
03/02/06	9:27 p	-21.9	-21.8	-21.9	---	---	7.8	ENE	0.13	14.8	-31.2	---	---	731.8	0.028	0.000	19.1	2	1
03/02/06	9:28 p	-21.9	-21.8	-21.9	---	---	20.9	ENE	0.35	29.6	-36.4	---	---	731.5	0.028	0.000	19.1	2	1
03/02/06	9:29 p	-21.9	-21.9	-21.9	---	---	21.7	ENE	0.36	28.7	-36.6	---	---	732.0	0.028	0.000	19.1	2	1
03/02/06	9:30 p	-21.9	-21.9	-21.9	---	---	8.7	ENE	0.14	13.9	-31.7	---	---	732.0	0.028	0.000	19.2	2	1
03/02/06	9:31 p	-21.9	-21.9	-21.9	---	---	15.7	ENE	0.26	25.2	-34.8	---	---	731.6	0.028	0.000	19.2	2	1
03/02/06	9:32 p	-21.9	-21.9	-21.9	---	---	21.7	ENE	0.36	25.2	-36.7	---	---	731.6	0.028	0.000	19.2	2	1
03/02/06	9:33 p	-21.9	-21.9	-21.9	---	---	16.5	ENE	0.28	20.0	-35.1	---	---	731.7	0.028	0.000	19.2	2	1
03/02/06	9:34 p	-21.9	-21.9	-22.0	---	---	19.1	ENE	0.32	23.5	-35.9	---	---	731.7	0.028	0.000	19.2	2	1
03/02/06	9:35 p	-22.0	-22.0	-22.0	---	---	19.1	ENE	0.32	21.7	-36.0	---	---	731.6	0.028	0.000	19.2	2	1
03/02/06	9:36 p	-22.0	-22.0	-22.1	---	---	22.6	ENE	0.38	26.1	-37.0	---	---	731.5	0.028	0.000	19.2	2	1
03/02/06	9:37 p	-22.1	-22.1	-22.1	---	---	22.6	ENE	0.38	25.2	-37.1	---	---	731.6	0.028	0.000	19.1	2	1
03/02/06	9:38 p	-22.1	-22.1	-22.1	---	---	20.0	NE	0.33	24.3	-36.3	---	---	732.0	0.028	0.000	19.1	2	1
03/02/06	9:39 p	-22.1	-22.1	-22.1	---	---	14.8	NE	0.25	16.5	-34.7	---	---	731.7	0.028	0.000	19.1	2	1
03/02/06	9:40 p	-22.0	-22.0	-22.1	---	---	18.3	ENE	0.30	27.8	-35.8	---	---	731.4	0.028	0.000	19.1	2	1
03/02/06	9:41 p	-22.0	-22.0	-22.1	---	---	27.0	ENE	0.45	27.8	-38.0	---	---	731.5	0.028	0.000	19.1	2	1
03/02/06	9:42 p	-22.0	-22.0	-22.1	---	---	21.7	ENE	0.36	27.0	-36.8	---	---	731.9	0.028	0.000	19.1	2	1
03/02/06	9:43 p	-22.0	-21.9	-22.1	---	---	12.2	ENE	0.20	15.7	-33.6	---	---	731.9	0.028	0.000	19.1	2	1
03/02/06	9:44 p	-21.9	-21.9	-21.9	---	---	9.6	ENE	0.16	13.0	-32.2	---	---	731.7	0.028	0.000	19.1	2	1
03/02/06	9:45 p	-21.9	-21.9	-21.9	---	---	23.5	ENE	0.39	27.0	-37.1	---	---	731.5	0.028	0.000	19.1	2	1
03/02/06	9:46 p	-21.9	-21.9	-21.9	---	---	18.3	ENE	0.30	25.2	-35.6	---	---	731.8	0.028	0.000	19.1	2	1
03/02/06	9:47 p	-21.9	-21.9	-21.9	---	---	16.5	ENE	0.28	19.1	-35.1	---	---	731.7	0.028	0.000	19.1	3	1
03/02/06	9:48 p	-21.9	-21.9	-21.9	---	---	20.9	ENE	0.35	21.7	-36.4	---	---	731.7	0.028	0.000	19.1	2	1
03/02/06	9:49 p	-21.9	-21.9	-21.9	---	---	17.4	NE	0.29	20.9	-35.3	---	---	731.9	0.028	0.000	19.1	3	1
03/02/06	9:50 p	-21.9	-21.9	-21.9	---	---	17.4	E	0.29	22.6	-35.3	---	---	731.6	0.028	0.000	19.1	3	1
03/02/06	9:51 p	-21.9	-21.9	-21.9	---	---	23.5	ENE	0.39	27.0	-37.1	---	---	731.4	0.028	0.000	19.1	3	1
03/02/06	9:52 p	-21.9	-21.9	-22.0	---	---	25.2	ENE	0.42	28.7	-37.6	---	---	731.5	0.028	0.000	19.1	3	1
03/02/06	9:53 p	-21.9	-21.9	-22.0	---	---	19.1	E	0.32	23.5	-35.9	---	---	731.7	0.028	0.000	19.1	3	1
03/02/06	9:54 p	-21.9	-21.9	-21.9	---	---	18.3	E	0.30	26.1	-35.7	---	---	731.5	0.028	0.000	19.1	3	1
03/02/06	9:55 p	-21.9	-21.9	-22.0	---	---	23.5	ENE	0.39	27.8	-37.1	---	---	731.7	0.028	0.000	19.1	3	1
03/02/06	9:56 p	-21.9	-21.9	-21.9	---	---	14.8	ENE	0.25	17.4	-34.5	---	---	731.8	0.028	0.000	19.1	3	1
03/02/06	9:57 p	-21.9	-21.9	-21.9	---	---	23.5	ENE	0.39	26.1	-37.1	---	---	731.5	0.028	0.000	19.1	3	1
03/02/06	9:58 p	-21.9	-21.9	-22.0	---	---	17.4	ENE	0.29	22.6	-35.4	---	---	731.8	0.028	0.000	19.1	3	1
03/02/06	9:59 p	-21.9	-21.9	-22.0	---	---	19.1	ENE	0.32	23.5	-35.9	---	---	731.6	0.028	0.000	19.1	3	1
03/02/06	10:00 p	-22.0	-22.0	-22.1	---	---	21.7	ENE	0.36	23.5	-36.8	---	---	731.6	0.028	0.000	19.1	3	1
03/02/06	10:01 p	-22.0	-22.0	-22.1	---	---	17.4	ENE	0.29	21.7	-35.5	---	---	731.6	0.028	0.000	19.1	3	1
03/02/06	10:02 p	-22.0	-22.0	-22.1	---	---	18.3	ENE	0.30	23.5	-35.8	---	---	731.6	0.028	0.000	19.1	3	1
03/02/06	10:03 p	-22.1	-22.0	-22.1	---	---	22.6	ENE	0.38	25.2	-37.1	---	---	731.4	0.028	0.000	19.2	3	1
03/02/06	10:04 p	-22.1	-22.1	-22.1	---	---	25.2	ENE	0.42	27.8	-37.8	---	---	731.4	0.028	0.000	19.2	4	1
03/02/06	10:05 p	-22.2	-22.1	-22.2	---	---	22.6	ENE	0.38	26.1	-37.2	---	---	731.5	0.028	0.000	19.2	4	1
03/02/06	10:06 p	-22.2	-22.2	-22.2	---	---	18.3	ENE	0.30	20.9	-36.0	---	---	731.6	0.028	0.000	19.2	4	1
03/02/06	10:07 p	-22.2	-22.2	-22.2	---	---	21.7	ENE	0.36	26.1	-37.1	---	---	731.4	0.028	0.000	19.2	4	1
03/02/06	10:08 p	-22.3	-22.2	-22.3	---	---	25.2	ENE	0.42	27.0	-38.0	---	---	731.3	0.028	0.000	19.2	4	1
03/02/06	10:09 p	-22.3	-22.3	-22.3	---	---	20.0	ENE	0.33	24.3	-36.7	---	---	731.7	0.028	0.000	19.2	4	1
03/02/06	10:10 p	-22.3	-22.3	-22.3	---	---	17.4	ENE	0.29	19.1	-35.8	---	---	731.6	0.028	0.000	19.2	4	1
03/02/06	10:11 p	-22.3	-22.3	-22.3	---	---	19.1	ENE	0.32	22.6	-36.4	---	---	731.4	0.028	0.000	19.2	4	1
03/02/06	10:12 p	-22.3	-22.2	-22.3	---	---	21.7	ENE	0.36	24.3	-37.1	---	---	731.5	0.028	0.000	19.2	4	1
03/02/06	10:13 p	-22.2	-22.2	-22.2	---	---	23.5	ENE	0.39	27.8	-37.5	---	---	731.5	0.028	0.000	19.2	4	1
03/02/06	10:14 p	-22.2	-22.2	-22.2	---	---	24.3	ENE	0.41	25.2	-37.7	---	---	731.5	0.028	0.000	19.2	4	1
03/02/06	10:15 p	-22.1	-22.1	-22.2	---	---	23.5	ENE	0.39	25.2	-37.3	---	---	731.5	0.028	0.000	19.2	4	1
03/02/06	10:16 p	-22.1	-22.1	-22.1	---	---	20.0	ENE	0.33	21.7	-36.4	---	---	731.6	0.028	0.000	19.2	4	1
03/02/06	10:17 p	-22.1	-22.1	-22.1	---	---	15.7	ENE	0.26	20.0	-34.9	---	---	731.5	0.028	0.000	19.2	4	1
03/02/06	10:18 p	-22.1	-22.0	-22.1	---	---	27.0	ENE	0.45	30.4	-38.1	---	---	731.3	0.028	0.000	19.2	4	1
03/02/06	10:19 p	-22.1	-22.1	-22.1	---	---	26.1	ENE	0.43	31.3	-37.9	---	---	731.6	0.028	0.000	19.2	4	1
03/02/06	10:20 p	-22.0	-21.9	-22.0	---	---	18.3	ENE	0.30	20.9	-35.8	---	---	731.7	0.028	0.000	19.2	4	1
03/02/06	10:21 p	-21.9	-21.9	-22.0	---	---	20.0	ENE	0.33	23.5	-36.2	---	---	731.5	0.028	0.000	19.2	4	1
03/02/06	10:22 p	-21.9	-21.9	-22.0	---	---	17.4	ENE	0.29	21.7	-35.4	---	---	731.6	0.028	0.000	19.2	4	1
03/02/06	10:23 p	-21.9	-21.9	-21.9	---	---	18.3	ENE	0.30	22.6	-35.6	---	---	731.6	0.028	0.000	19.3	4	1
03/02/06	10:24 p	-21.9	-21.9	-21.9	---	---	23.5	ENE	0.39	27.0	-37.1	---	---	731.6	0.028	0.000	19.3	4	1
03/02/06	10:25 p	-21.9	-21.9	-21.9	---	---	19.1	ENE	0.32	20.9	-35.9	---	---	731.6	0.028	0.000	19.3	4	1
03/02/06	10:26 p	-21.9	-21.9	-21.9	---	---	18.3	ENE	0.30	20.9	-35.6	---	---	731.6	0.028	0.000	19.3	4	1
03/02/06	10:27 p	-21.9	-21.9	-21.9	---	---	23.5	ENE	0.39	26.1	-37.1	---	---	731.6	0.028	0.000	19.2	4	1
03/02/06	10:28 p	-21.9	-21.9	-21.9	---	---	22.6	ENE	0.38	24.3	-36.8	---	---	731.6	0.028	0.000	19.2	4	1
03/02/06	10:29 p	-21.9	-21.9	-21.9	---	---	16.5	ENE	0.28	20.0	-35.1	---	---	731.5	0.028	0.000	19.2	4	1
03/02/06	10:30 p	-21.9	-21.8	-21.9	---	---	21.7	ENE	0.36	27.8	-36.6	---	---	731.4	0.028	0.000	19.2	4	1
03/02/06	10:31 p	-21.8	-21.8	-21.8	---	---	25.2	NE	0.42	30.4	-37.4	---	---	731.6	0.028	0.000	19.2	4	1
03/02/06	10:32 p	-21.8	-21.8	-21.8	---	---	18.3	ENE	0.30	20.9	-35.6	---	---	731.7	0.028	0.000	19.2	4	1
03/02/06	10:33 p	-21.8	-21.8	-21.8	---	---	15.7	E	0.26	21.7	-34.7	---	---	731.4	0.028	0.000	19.2	4	1
03/02/06	10:34 p	-21.8	-21.8	-21.8	---	---	26.1	ENE	0.43	28.7	-37.5	---	---	731.3	0.028	0.000	19.2	4	1
03/02/06	10:35 p	-21.8	-21.8	-21.8	---	---	21.7	ENE	0.36	24.3	-36.4	---	---	731.6	0.028	0.000	19.2	4	1
03/02/06	10:36 p	-21.8	-21.7	-21.8	---	---	20.0	ENE	0.33	24.3	-36.0	---	---	731.5	0.028	0.000	19.2	4	1
03/02/06	10:37 p	-21.8	-21.7	-21.8	---	---	25.2	ENE	0.42	27.8	-37.3	---	---	731.4	0.028	0.000	19.2	4	1
03/02/06	10:38 p	-21.8	-21.7	-21.8	---	---	19.1	ENE	0.32	22.6	-35.7	---	---	731.8	0.028	0.000	19.2	4	1
03/02/06	10:39 p	-21.7	-21.7	-21.7	---	---	12.2	E	0.20	24.3	-33.2	---	---	731.5	0.028	0.000	19.2	4	1
03/02/06	10:40 p	-21.7	-21.7	-21.7	---	---	26.1	ENE	0.43	29.6	-37.4	---	---	731.5	0.028	0.000	19.2	4	1
03/02/06	10:41 p	-21.7	-21.7	-21.7	---	---	22.6	ENE	0.38	24.3	-36.6	---	---	731.5	0.028	0.000	19.2	4	1
03/02/06	10:42 p	-21.7	-21.7	-21.7	---	---	19.1	ENE	0.32	23.5	-35.6	---	---	731.7	0.028	0.000	19.2	4	1
03/02/06	10:43 p	-21.7	-21.6	-21.7	---	---	13.9	E	0.23	24.3	-33.8	---	---	731.5	0.028	0.000	19.2	4	1
03/02/06	10:44 p	-21.6	-21.6	-21.7	---	---	27.0	ENE	0.45	30.4	-37.5	---	---	731.4	0.028	0.000	19.2	4	1
03/02/06	10:45 p	-21.7	-21.6	-21.7	---	---	22.6	ENE	0.38	27.0	-36.6	---	---	731.6	0.028	0.000	19.2	4	1
03/02/06	10:46 p	-21.6	-21.6	-21.6	---	---	12.2	E	0.20	17.4	-33.1	---	---	731.5	0.028	0.000	19.2	3	1
03/02/06	10:47 p	-21.6	-21.6	-21.6	---	---	24.3	ENE	0.41	30.4	-36.9	---	---	731.4	0.028	0.000	19.2	4	1
03/02/06	10:48 p	-21.6	-21.5	-21.6	---	---	24.3	ENE	0.41	28.7	-36.8	---	---	731.5	0.028	0.000	19.2	4	1
03/02/06	10:49 p	-21.5	-21.5	-21.6	---	---	21.7	ENE	0.36	24.3	-36.1	---	---	731.7	0.028	0.000	19.2	4	1
03/02/06	10:50 p	-21.5	-21.4	-21.5	---	---	17.4	ENE	0.29	20.0	-34.8	---	---	731.6	0.028	0.000	19.2	3	1
03/02/06	10:51 p	-21.4	-21.4	-21.4	---	---	18.3	E	0.30	25.2	-35.0	---	---	731.5	0.028	0.000	19.2	3	1
03/02/06	10:52 p	-21.4	-21.4	-21.5	---	---	27.0	ENE	0.45	32.2	-37.3	---	---	731.4	0.028	0.000	19.2	3	1
03/02/06	10:53 p	-21.5	-21.5	-21.5	---	---	21.7	ENE	0.36	26.1	-36.1	---	---	731.7	0.028	0.000	19.2	3	1
03/02/06	10:54 p	-21.4	-21.4	-21.5	---	---	18.3	ENE	0.30	22.6	-35.0	---	---	731.6	0.028	0.000	19.2	3	1
03/02/06	10:55 p	-21.4	-21.4	-21.4	---	---	23.5	ENE	0.39	26.1	-36.4	---	---	731.6	0.028	0.000	19.2	3	1
03/02/06	10:56 p	-21.4	-21.4	-21.4	---	---	19.1	ENE	0.32	23.5	-35.2	---	---	731.5	0.028	0.000	19.2	3	1
03/02/06	10:57 p	-21.3	-21.3	-21.3	---	---	23.5	ENE	0.39	26.1	-36.3	---	---	731.5	0.028	0.000	19.2	3	1
03/02/06	10:58 p	-21.3	-21.3	-21.3	---	---	21.7	ENE	0.36	25.2	-35.8	---	---	731.6	0.028	0.000	19.2	3	1
03/02/06	10:59 p	-21.3	-21.3	-21.3	---	---	18.3	ENE	0.30	20.9	-34.8	---	---	731.5	0.028	0.000	19.2	3	1
03/02/06	11:00 p	-21.3	-21.3	-21.4	---	---	24.3	ENE	0.41	30.4	-36.5	---	---	731.4	0.028	0.000	19.2	3	1
03/02/06	11:01 p	-21.4	-21.3	-21.4	---	---	25.2	ENE	0.42	32.2	-36.8	---	---	731.6	0.028	0.000	19.2	3	1
03/02/06	11:02 p	-21.4	-21.3	-21.4	---	---	18.3	ENE	0.30	21.7	-34.9	---	---	731.6	0.028	0.000	19.2	3	1
03/02/06	11:03 p	-21.3	-21.3	-21.4	---	---	20.0	ENE	0.33	22.6	-35.4	---	---	731.5	0.028	0.000	19.2	3	1
03/02/06	11:04 p	-21.4	-21.4	-21.4	---	---	23.5	ENE	0.39	26.1	-36.4	---	---	731.5	0.028	0.000	19.2	3	1
03/02/06	11:05 p	-21.4	-21.4	-21.4	---	---	21.7	ENE	0.36	25.2	-35.9	---	---	731.5	0.028	0.000	19.2	3	1
03/02/06	11:06 p	-21.4	-21.4	-21.4	---	---	20.9	ENE	0.35	24.3	-35.7	---	---	731.5	0.028	0.000	19.2	3	1
03/02/06	11:07 p	-21.4	-21.3	-21.4	---	---	22.6	ENE	0.38	25.2	-36.2	---	---	731.4	0.028	0.000	19.2	3	1
03/02/06	11:08 p	-21.4	-21.4	-21.5	---	---	23.5	ENE	0.39	25.2	-36.4	---	---	731.5	0.028	0.000	19.2	3	1
03/02/06	11:09 p	-21.5	-21.5	-21.6	---	---	23.5	ENE	0.39	25.2	-36.6	---	---	731.3	0.028	0.000	19.2	3	1
03/02/06	11:10 p	-21.6	-21.6	-21.7	---	---	22.6	ENE	0.38	26.1	-36.4	---	---	731.4	0.028	0.000	19.2	3	1
03/02/06	11:11 p	-21.7	-21.7	-21.7	---	---	24.3	ENE	0.41	25.2	-36.9	---	---	731.4	0.028	0.000	19.2	3	1
03/02/06	11:12 p	-21.7	-21.7	-21.8	---	---	19.1	ENE	0.32	23.5	-35.7	---	---	731.3	0.028	0.000	19.2	3	1
03/02/06	11:13 p	-21.8	-21.8	-21.8	---	---	21.7	ENE	0.36	25.2	-36.6	---	---	731.2	0.028	0.000	19.2	3	1
03/02/06	11:14 p	-21.9	-21.9	-21.9	---	---	26.1	ENE	0.43	27.8	-37.7	---	---	731.2	0.028	0.000	19.2	3	1
03/02/06	11:15 p	-21.9	-21.9	-21.9	---	---	22.6	ENE	0.38	27.0	-36.8	---	---	731.4	0.028	0.000	19.2	3	1
03/02/06	11:16 p	-21.9	-21.9	-21.9	---	---	22.6	ENE	0.38	27.0	-36.9	---	---	731.3	0.028	0.000	19.2	3	1
03/02/06	11:17 p	-21.9	-21.9	-21.9	---	---	23.5	ENE	0.39	25.2	-37.1	---	---	731.3	0.028	0.000	19.2	3	1
03/02/06	11:18 p	-21.9	-21.9	-22.0	---	---	23.5	ENE	0.39	27.0	-37.1	---	---	731.3	0.028	0.000	19.2	3	1
03/02/06	11:19 p	-22.0	-22.0	-22.0	---	---	23.5	ENE	0.39	25.2	-37.2	---	---	731.3	0.028	0.000	19.2	3	1
03/02/06	11:20 p	-22.0	-22.0	-22.1	---	---	20.9	ENE	0.35	25.2	-36.5	---	---	731.3	0.028	0.000	19.2	2	1
03/02/06	11:21 p	-22.0	-22.0	-22.0	---	---	25.2	ENE	0.42	27.0	-37.6	---	---	731.2	0.028	0.000	19.2	3	1
03/02/06	11:22 p	-22.0	-21.9	-22.0	---	---	21.7	ENE	0.36	24.3	-36.8	---	---	731.4	0.028	0.000	19.2	3	1
03/02/06	11:23 p	-21.9	-21.9	-21.9	---	---	22.6	ENE	0.38	25.2	-36.9	---	---	731.3	0.028	0.000	19.2	3	1
03/02/06	11:24 p	-21.9	-21.9	-21.9	---	---	22.6	ENE	0.38	26.1	-36.8	---	---	731.2	0.028	0.000	19.2	3	1
03/02/06	11:25 p	-21.9	-21.9	-21.9	---	---	20.9	ENE	0.35	22.6	-36.4	---	---	731.3	0.028	0.000	19.2	2	1
03/02/06	11:26 p	-21.9	-21.8	-21.9	---	---	21.7	ENE	0.36	26.1	-36.6	---	---	730.9	0.028	0.000	19.2	2	1
03/02/06	11:27 p	-21.8	-21.8	-21.9	---	---	31.3	ENE	0.52	33.0	-38.7	---	---	731.1	0.028	0.000	19.2	2	1
03/02/06	11:28 p	-21.8	-21.8	-21.9	---	---	23.5	ENE	0.39	29.6	-37.0	---	---	731.6	0.028	0.000	19.2	2	1
03/02/06	11:29 p	-21.8	-21.8	-21.8	---	---	16.5	ENE	0.28	20.0	-35.0	---	---	731.5	0.028	0.000	19.2	2	1
03/02/06	11:30 p	-21.8	-21.8	-21.8	---	---	20.0	ENE	0.33	30.4	-36.0	---	---	731.0	0.028	0.000	19.2	2	1
03/02/06	11:31 p	-21.8	-21.8	-21.8	---	---	28.7	ENE	0.48	32.2	-38.1	---	---	731.2	0.028	0.000	19.2	2	1
03/02/06	11:32 p	-21.8	-21.8	-21.8	---	---	23.5	ENE	0.39	28.7	-36.9	---	---	731.5	0.028	0.000	19.2	2	1
03/02/06	11:33 p	-21.8	-21.7	-21.8	---	---	19.1	ENE	0.32	21.7	-35.7	---	---	731.4	0.028	0.000	19.2	2	1
03/02/06	11:34 p	-21.7	-21.7	-21.7	---	---	24.3	ENE	0.41	29.6	-37.1	---	---	731.1	0.028	0.000	19.2	2	1
03/02/06	11:35 p	-21.7	-21.7	-21.8	---	---	26.1	ENE	0.43	29.6	-37.4	---	---	731.4	0.028	0.000	19.2	2	1
03/02/06	11:36 p	-21.7	-21.7	-21.7	---	---	19.1	ENE	0.32	22.6	-35.7	---	---	731.5	0.028	0.000	19.2	2	1
03/02/06	11:37 p	-21.7	-21.7	-21.7	---	---	20.9	ENE	0.35	26.1	-36.2	---	---	731.2	0.028	0.000	19.2	2	1
03/02/06	11:38 p	-21.7	-21.7	-21.7	---	---	24.3	ENE	0.41	27.8	-37.1	---	---	731.3	0.028	0.000	19.2	2	1
03/02/06	11:39 p	-21.7	-21.6	-21.7	---	---	24.3	ENE	0.41	27.0	-36.9	---	---	731.1	0.028	0.000	19.2	2	1
03/02/06	11:40 p	-21.7	-21.7	-21.7	---	---	27.0	ENE	0.45	31.3	-37.6	---	---	731.5	0.028	0.000	19.2	2	1
03/02/06	11:41 p	-21.7	-21.7	-21.7	---	---	20.9	ENE	0.35	23.5	-36.2	---	---	731.5	0.028	0.000	19.1	2	1
03/02/06	11:42 p	-21.7	-21.6	-21.7	---	---	15.7	ENE	0.26	26.1	-34.4	---	---	731.3	0.028	0.000	19.1	2	1
03/02/06	11:43 p	-21.6	-21.6	-21.7	---	---	25.2	ENE	0.42	28.7	-37.1	---	---	731.1	0.028	0.000	19.1	2	1
03/02/06	11:44 p	-21.6	-21.6	-21.7	---	---	27.8	ENE	0.46	30.4	-37.7	---	---	731.3	0.028	0.000	19.1	2	1
03/02/06	11:45 p	-21.6	-21.6	-21.6	---	---	20.0	ENE	0.33	26.1	-35.8	---	---	731.6	0.028	0.000	19.1	2	1
03/02/06	11:46 p	-21.6	-21.5	-21.6	---	---	12.2	ENE	0.20	16.5	-33.0	---	---	731.5	0.028	0.000	19.1	2	1
03/02/06	11:47 p	-21.5	-21.4	-21.5	---	---	23.5	ENE	0.39	31.3	-36.6	---	---	731.2	0.028	0.000	19.1	2	1
03/02/06	11:48 p	-21.5	-21.4	-21.5	---	---	30.4	ENE	0.51	33.0	-38.1	---	---	731.2	0.028	0.000	19.1	2	1
03/02/06	11:49 p	-21.5	-21.5	-21.5	---	---	21.7	ENE	0.36	30.4	-36.1	---	---	731.6	0.028	0.000	19.1	2	1
03/02/06	11:50 p	-21.4	-21.4	-21.5	---	---	14.8	E	0.25	20.0	-33.9	---	---	731.6	0.028	0.000	19.1	2	1
03/02/06	11:51 p	-21.4	-21.4	-21.4	---	---	24.3	ENE	0.41	30.4	-36.7	---	---	731.3	0.028	0.000	19.1	2	1
03/02/06	11:52 p	-21.4	-21.4	-21.4	---	---	24.3	ENE	0.41	27.0	-36.6	---	---	731.4	0.028	0.000	19.1	2	1
03/02/06	11:53 p	-21.4	-21.4	-21.4	---	---	23.5	ENE	0.39	27.0	-36.4	---	---	731.3	0.028	0.000	19.1	2	1
03/02/06	11:54 p	-21.4	-21.4	-21.4	---	---	23.5	ENE	0.39	25.2	-36.4	---	---	731.4	0.028	0.000	19.1	2	1
03/02/06	11:55 p	-21.4	-21.4	-21.4	---	---	19.1	E	0.32	23.5	-35.2	---	---	731.3	0.028	0.000	19.1	2	1
03/02/06	11:56 p	-21.4	-21.4	-21.4	---	---	27.8	ENE	0.46	33.9	-37.4	---	---	731.2	0.028	0.000	19.1	2	1
03/02/06	11:57 p	-21.4	-21.4	-21.4	---	---	27.0	ENE	0.45	30.4	-37.3	---	---	731.3	0.028	0.000	19.1	2	1
03/02/06	11:58 p	-21.4	-21.3	-21.4	---	---	19.1	ENE	0.32	25.2	-35.2	---	---	731.6	0.028	0.000	19.1	2	1
03/02/06	11:59 p	-21.3	-21.3	-21.3	---	---	13.0	E	0.22	16.5	-33.1	---	---	731.4	0.028	0.000	19.1	2	1
03/03/06	12:00 a	-21.3	-21.3	-21.3	---	---	26.1	ENE	0.43	30.4	-36.8	---	---	731.1	0.028	0.000	19.1	2	1
03/03/06	12:01 a	-21.2	-21.2	-21.3	---	---	24.3	ENE	0.41	29.6	-36.4	---	---	731.4	0.027	0.000	19.1	2	1
03/03/06	12:02 a	-21.1	-21.1	-21.2	---	---	17.4	E	0.29	24.3	-34.3	---	---	731.2	0.027	0.000	19.1	2	1
03/03/06	12:03 a	-21.1	-21.0	-21.1	---	---	26.1	ENE	0.43	27.8	-36.6	---	---	731.4	0.027	0.000	19.1	2	1
03/03/06	12:04 a	-21.0	-20.9	-21.0	---	---	20.0	ENE	0.33	24.3	-34.9	---	---	731.3	0.027	0.000	19.2	2	1
03/03/06	12:05 a	-20.9	-20.9	-20.9	---	---	26.1	E	0.43	31.3	-36.4	---	---	730.9	0.027	0.000	19.2	2	1
03/03/06	12:06 a	-20.9	-20.9	-20.9	---	---	26.1	ENE	0.43	31.3	-36.4	---	---	731.5	0.027	0.000	19.1	2	1
03/03/06	12:07 a	-20.9	-20.9	-20.9	---	---	17.4	E	0.29	20.0	-34.1	---	---	731.4	0.027	0.000	19.2	2	1
03/03/06	12:08 a	-20.9	-20.9	-20.9	---	---	23.5	E	0.39	29.6	-35.7	---	---	731.0	0.027	0.000	19.2	2	1
03/03/06	12:09 a	-20.9	-20.9	-21.0	---	---	25.2	ENE	0.42	29.6	-36.2	---	---	731.4	0.027	0.000	19.2	2	1
03/03/06	12:10 a	-21.0	-21.0	-21.0	---	---	20.0	E	0.33	22.6	-34.9	---	---	731.2	0.027	0.000	19.2	2	1
03/03/06	12:11 a	-21.0	-21.0	-21.1	---	---	27.0	ENE	0.45	31.3	-36.7	---	---	731.2	0.027	0.000	19.2	2	1
03/03/06	12:12 a	-21.1	-21.1	-21.1	---	---	22.6	ENE	0.38	25.2	-35.8	---	---	731.4	0.027	0.000	19.2	2	1
03/03/06	12:13 a	-21.1	-21.1	-21.1	---	---	25.2	ENE	0.42	27.8	-36.4	---	---	731.2	0.027	0.000	19.2	2	1
03/03/06	12:14 a	-21.2	-21.1	-21.2	---	---	21.7	ENE	0.36	25.2	-35.6	---	---	731.4	0.027	0.000	19.2	2	1
03/03/06	12:15 a	-21.1	-21.1	-21.2	---	---	27.0	ENE	0.45	33.0	-36.8	---	---	731.0	0.027	0.000	19.2	2	1
03/03/06	12:16 a	-21.2	-21.2	-21.2	---	---	27.8	ENE	0.46	30.4	-37.1	---	---	731.4	0.027	0.000	19.2	2	1
03/03/06	12:17 a	-21.2	-21.2	-21.2	---	---	24.3	ENE	0.41	27.0	-36.4	---	---	731.3	0.027	0.000	19.2	2	1
03/03/06	12:18 a	-21.2	-21.2	-21.2	---	---	24.3	ENE	0.41	26.1	-36.4	---	---	731.2	0.027	0.000	19.2	2	1
03/03/06	12:19 a	-21.2	-21.2	-21.2	---	---	25.2	ENE	0.42	27.8	-36.6	---	---	731.2	0.027	0.000	19.2	2	1
03/03/06	12:20 a	-21.2	-21.2	-21.2	---	---	23.5	ENE	0.39	26.1	-36.2	---	---	731.2	0.027	0.000	19.2	2	1
03/03/06	12:21 a	-21.2	-21.2	-21.2	---	---	26.1	ENE	0.43	30.4	-36.8	---	---	731.0	0.027	0.000	19.2	2	1
03/03/06	12:22 a	-21.2	-21.2	-21.2	---	---	25.2	ENE	0.42	27.8	-36.6	---	---	731.1	0.027	0.000	19.2	2	1
03/03/06	12:23 a	-21.2	-21.2	-21.2	---	---	27.8	ENE	0.46	30.4	-37.2	---	---	731.1	0.027	0.000	19.2	2	1
03/03/06	12:24 a	-21.2	-21.2	-21.2	---	---	27.0	ENE	0.45	28.7	-36.9	---	---	731.1	0.027	0.000	19.2	2	1
03/03/06	12:25 a	-21.2	-21.2	-21.2	---	---	22.6	ENE	0.38	25.2	-35.9	---	---	731.4	0.027	0.000	19.2	2	1
03/03/06	12:26 a	-21.2	-21.2	-21.2	---	---	20.9	ENE	0.35	23.5	-35.5	---	---	731.1	0.027	0.000	19.2	2	1
03/03/06	12:27 a	-21.2	-21.2	-21.3	---	---	28.7	ENE	0.48	33.0	-37.3	---	---	730.9	0.027	0.000	19.2	2	1
03/03/06	12:28 a	-21.3	-21.2	-21.3	---	---	24.3	ENE	0.41	29.6	-36.4	---	---	731.2	0.028	0.000	19.2	2	1
03/03/06	12:29 a	-21.2	-21.2	-21.2	---	---	26.1	ENE	0.43	29.6	-36.8	---	---	731.0	0.027	0.000	19.2	2	1
03/03/06	12:30 a	-21.2	-21.2	-21.2	---	---	26.1	ENE	0.43	28.7	-36.8	---	---	731.0	0.027	0.000	19.2	2	1
03/03/06	12:31 a	-21.2	-21.2	-21.2	---	---	26.1	E	0.43	29.6	-36.7	---	---	730.9	0.027	0.000	19.2	2	1
03/03/06	12:32 a	-21.2	-21.2	-21.2	---	---	25.2	ENE	0.42	27.8	-36.5	---	---	731.1	0.027	0.000	19.2	2	1
03/03/06	12:33 a	-21.1	-21.1	-21.2	---	---	22.6	E	0.38	27.0	-35.8	---	---	731.0	0.027	0.000	19.2	2	1
03/03/06	12:34 a	-21.1	-21.1	-21.1	---	---	31.3	ENE	0.52	34.8	-37.7	---	---	730.6	0.027	0.000	19.2	2	1
03/03/06	12:35 a	-21.2	-21.2	-21.2	---	---	25.2	ENE	0.42	32.2	-36.5	---	---	731.3	0.027	0.000	19.2	2	1
03/03/06	12:36 a	-21.2	-21.2	-21.2	---	---	19.1	ENE	0.32	24.3	-34.9	---	---	731.1	0.027	0.000	19.2	2	1
03/03/06	12:37 a	-21.2	-21.2	-21.2	---	---	25.2	E	0.42	30.4	-36.5	---	---	730.6	0.027	0.000	19.2	2	1
03/03/06	12:38 a	-21.2	-21.2	-21.2	---	---	30.4	ENE	0.51	33.9	-37.7	---	---	731.0	0.027	0.000	19.2	2	1
03/03/06	12:39 a	-21.3	-21.2	-21.3	---	---	24.3	ENE	0.41	29.6	-36.4	---	---	731.3	0.028	0.000	19.2	2	1
03/03/06	12:40 a	-21.2	-21.2	-21.2	---	---	20.9	ENE	0.35	25.2	-35.5	---	---	730.8	0.027	0.000	19.2	2	1
03/03/06	12:41 a	-21.2	-21.2	-21.2	---	---	30.4	E	0.51	35.7	-37.7	---	---	730.6	0.027	0.000	19.2	2	1
03/03/06	12:42 a	-21.3	-21.2	-21.3	---	---	27.8	ENE	0.46	33.9	-37.2	---	---	731.0	0.028	0.000	19.2	2	1
03/03/06	12:43 a	-21.3	-21.3	-21.3	---	---	23.5	ENE	0.39	25.2	-36.2	---	---	731.0	0.028	0.000	19.2	2	1
03/03/06	12:44 a	-21.3	-21.3	-21.3	---	---	27.0	E	0.45	32.2	-37.1	---	---	730.8	0.028	0.000	19.2	2	1
03/03/06	12:45 a	-21.3	-21.3	-21.3	---	---	28.7	ENE	0.48	31.3	-37.5	---	---	731.0	0.028	0.000	19.2	2	1
03/03/06	12:46 a	-21.3	-21.3	-21.4	---	---	26.1	ENE	0.43	29.6	-36.9	---	---	730.9	0.028	0.000	19.2	2	1
03/03/06	12:47 a	-21.4	-21.4	-21.4	---	---	27.0	ENE	0.45	27.8	-37.2	---	---	731.0	0.028	0.000	19.2	2	1
03/03/06	12:48 a	-21.4	-21.4	-21.4	---	---	26.1	ENE	0.43	27.8	-37.0	---	---	730.9	0.028	0.000	19.2	2	1
03/03/06	12:49 a	-21.4	-21.4	-21.4	---	---	26.1	ENE	0.43	28.7	-37.0	---	---	730.9	0.028	0.000	19.2	2	1
03/03/06	12:50 a	-21.4	-21.4	-21.4	---	---	25.2	E	0.42	28.7	-36.9	---	---	731.0	0.028	0.000	19.2	2	1
03/03/06	12:51 a	-21.5	-21.4	-21.5	---	---	26.1	E	0.43	29.6	-37.2	---	---	730.9	0.028	0.000	19.1	2	1
03/03/06	12:52 a	-21.4	-21.4	-21.5	---	---	27.0	ENE	0.45	29.6	-37.3	---	---	730.9	0.028	0.000	19.2	2	1
03/03/06	12:53 a	-21.6	-21.5	-21.6	---	---	27.0	E	0.45	32.2	-37.4	---	---	730.7	0.028	0.000	19.2	1	1
03/03/06	12:54 a	-21.6	-21.6	-21.6	---	---	27.0	ENE	0.45	31.3	-37.4	---	---	731.0	0.028	0.000	19.2	1	1
03/03/06	12:55 a	-21.6	-21.6	-21.6	---	---	22.6	ENE	0.38	27.0	-36.4	---	---	730.9	0.028	0.000	19.2	1	1
03/03/06	12:56 a	-21.6	-21.6	-21.6	---	---	27.8	E	0.46	29.6	-37.6	---	---	730.8	0.028	0.000	19.2	1	1
03/03/06	12:57 a	-21.6	-21.6	-21.6	---	---	29.6	ENE	0.49	32.2	-38.1	---	---	731.1	0.028	0.000	19.2	1	1
03/03/06	12:58 a	-21.7	-21.6	-21.7	---	---	27.0	ENE	0.45	29.6	-37.6	---	---	731.0	0.028	0.000	19.2	1	1
03/03/06	12:59 a	-21.7	-21.6	-21.7	---	---	26.1	ENE	0.43	27.8	-37.4	---	---	731.0	0.028	0.000	19.2	1	1
03/03/06	1:00 a	-21.7	-21.7	-21.7	---	---	26.1	ENE	0.43	28.7	-37.4	---	---	731.1	0.028	0.000	19.2	1	1
03/03/06	1:01 a	-21.6	-21.6	-21.7	---	---	24.3	ENE	0.41	27.8	-36.9	---	---	731.3	0.028	0.000	19.2	1	1
03/03/06	1:02 a	-21.6	-21.6	-21.6	---	---	27.8	ENE	0.46	29.6	-37.6	---	---	730.9	0.028	0.000	19.2	1	1
03/03/06	1:03 a	-21.6	-21.6	-21.6	---	---	27.0	ENE	0.45	28.7	-37.5	---	---	731.0	0.028	0.000	19.2	1	1
03/03/06	1:04 a	-21.6	-21.6	-21.6	---	---	26.1	ENE	0.43	27.8	-37.3	---	---	731.0	0.028	0.000	19.2	1	1
03/03/06	1:05 a	-21.6	-21.6	-21.6	---	---	26.1	ENE	0.43	28.7	-37.2	---	---	730.8	0.028	0.000	19.2	1	1
03/03/06	1:06 a	-21.6	-21.6	-21.6	---	---	27.0	ENE	0.45	28.7	-37.5	---	---	730.8	0.028	0.000	19.2	1	1
03/03/06	1:07 a	-21.6	-21.6	-21.6	---	---	27.8	ENE	0.46	31.3	-37.7	---	---	730.9	0.028	0.000	19.2	1	1
03/03/06	1:08 a	-21.7	-21.6	-21.7	---	---	25.2	ENE	0.42	28.7	-37.2	---	---	730.9	0.028	0.000	19.2	1	1
03/03/06	1:09 a	-21.7	-21.6	-21.7	---	---	27.8	ENE	0.46	30.4	-37.8	---	---	730.8	0.028	0.000	19.2	1	1
03/03/06	1:10 a	-21.7	-21.6	-21.7	---	---	26.1	ENE	0.43	27.8	-37.4	---	---	730.9	0.028	0.000	19.2	1	1
03/03/06	1:11 a	-21.7	-21.6	-21.7	---	---	27.0	ENE	0.45	28.7	-37.6	---	---	731.0	0.028	0.000	19.2	1	1
03/03/06	1:12 a	-21.6	-21.6	-21.6	---	---	24.3	ENE	0.41	27.8	-36.9	---	---	731.0	0.028	0.000	19.2	1	1
03/03/06	1:13 a	-21.6	-21.5	-21.6	---	---	20.0	ENE	0.33	26.1	-35.7	---	---	730.8	0.028	0.000	19.2	1	1
03/03/06	1:14 a	-21.5	-21.5	-21.6	---	---	32.2	ENE	0.54	35.7	-38.4	---	---	730.7	0.028	0.000	19.2	1	1
03/03/06	1:15 a	-21.6	-21.6	-21.6	---	---	28.7	ENE	0.48	33.9	-37.8	---	---	731.0	0.028	0.000	19.2	1	1
03/03/06	1:16 a	-21.6	-21.6	-21.6	---	---	21.7	ENE	0.36	25.2	-36.2	---	---	730.7	0.028	0.000	19.2	1	1
03/03/06	1:17 a	-21.5	-21.5	-21.6	---	---	30.4	E	0.51	33.9	-38.1	---	---	730.7	0.028	0.000	19.2	1	1
03/03/06	1:18 a	-21.6	-21.6	-21.6	---	---	28.7	ENE	0.48	32.2	-37.8	---	---	730.9	0.028	0.000	19.2	1	1
03/03/06	1:19 a	-21.6	-21.5	-21.6	---	---	25.2	ENE	0.42	27.8	-37.0	---	---	730.8	0.028	0.000	19.2	1	1
03/03/06	1:20 a	-21.6	-21.6	-21.7	---	---	27.0	ENE	0.45	29.6	-37.5	---	---	730.8	0.028	0.000	19.2	1	1
03/03/06	1:21 a	-21.7	-21.7	-21.7	---	---	26.1	ENE	0.43	27.8	-37.4	---	---	731.1	0.028	0.000	19.2	1	1
03/03/06	1:22 a	-21.7	-21.6	-21.7	---	---	20.9	ENE	0.35	29.6	-36.1	---	---	730.8	0.028	0.000	19.2	1	1
03/03/06	1:23 a	-21.6	-21.6	-21.6	---	---	29.6	ENE	0.49	31.3	-38.1	---	---	730.9	0.028	0.000	19.2	1	1
03/03/06	1:24 a	-21.7	-21.7	-21.7	---	---	27.0	ENE	0.45	29.6	-37.6	---	---	730.8	0.028	0.000	19.2	1	1
03/03/06	1:25 a	-21.7	-21.7	-21.8	---	---	28.7	ENE	0.48	30.4	-38.0	---	---	730.7	0.028	0.000	19.2	1	1
03/03/06	1:26 a	-21.8	-21.7	-21.8	---	---	27.8	ENE	0.46	29.6	-37.9	---	---	730.8	0.028	0.000	19.2	1	1
03/03/06	1:27 a	-21.7	-21.7	-21.7	---	---	27.0	ENE	0.45	29.6	-37.7	---	---	730.7	0.028	0.000	19.2	1	1
03/03/06	1:28 a	-21.7	-21.7	-21.8	---	---	29.6	ENE	0.49	31.3	-38.2	---	---	730.7	0.028	0.000	19.2	1	1
03/03/06	1:29 a	-21.8	-21.8	-21.8	---	---	27.0	ENE	0.45	29.6	-37.7	---	---	730.9	0.028	0.000	19.2	1	1
03/03/06	1:30 a	-21.9	-21.8	-21.9	---	---	30.4	ENE	0.51	34.8	-38.6	---	---	730.7	0.028	0.000	19.2	1	1
03/03/06	1:31 a	-21.8	-21.8	-21.9	---	---	31.3	ENE	0.52	33.0	-38.7	---	---	730.7	0.028	0.000	19.2	1	1
03/03/06	1:32 a	-21.7	-21.7	-21.8	---	---	30.4	ENE	0.51	32.2	-38.4	---	---	730.7	0.028	0.000	19.2	1	1
03/03/06	1:33 a	-21.7	-21.7	-21.8	---	---	28.7	ENE	0.48	31.3	-38.0	---	---	730.8	0.028	0.000	19.2	1	1
03/03/06	1:34 a	-21.7	-21.7	-21.7	---	---	27.8	ENE	0.46	30.4	-37.8	---	---	730.7	0.028	0.000	19.2	1	1
03/03/06	1:35 a	-21.7	-21.7	-21.7	---	---	29.6	ENE	0.49	33.0	-38.1	---	---	730.6	0.028	0.000	19.2	1	1
03/03/06	1:36 a	-21.7	-21.6	-21.7	---	---	28.7	ENE	0.48	31.3	-37.9	---	---	730.7	0.028	0.000	19.2	1	1
03/03/06	1:37 a	-21.7	-21.6	-21.7	---	---	27.0	ENE	0.45	30.4	-37.6	---	---	730.6	0.028	0.000	19.2	1	1
03/03/06	1:38 a	-21.7	-21.6	-21.7	---	---	30.4	ENE	0.51	33.0	-38.3	---	---	730.9	0.028	0.000	19.2	1	1
03/03/06	1:39 a	-21.7	-21.6	-21.7	---	---	26.1	ENE	0.43	29.6	-37.4	---	---	730.8	0.028	0.000	19.1	1	1
03/03/06	1:40 a	-21.7	-21.7	-21.7	---	---	29.6	ENE	0.49	35.7	-38.1	---	---	730.6	0.028	0.000	19.1	1	1
03/03/06	1:41 a	-21.7	-21.6	-21.7	---	---	32.2	ENE	0.54	33.9	-38.7	---	---	730.9	0.028	0.000	19.1	1	1
03/03/06	1:42 a	-21.6	-21.6	-21.7	---	---	27.0	ENE	0.45	31.3	-37.5	---	---	730.8	0.028	0.000	19.1	1	1
03/03/06	1:43 a	-21.5	-21.4	-21.6	---	---	26.1	ENE	0.43	30.4	-37.2	---	---	730.5	0.028	0.000	19.1	1	1
03/03/06	1:44 a	-21.4	-21.3	-21.4	---	---	30.4	E	0.51	33.0	-37.9	---	---	730.7	0.028	0.000	19.1	1	1
03/03/06	1:45 a	-21.3	-21.3	-21.3	---	---	27.0	ENE	0.45	28.7	-37.1	---	---	730.8	0.028	0.000	19.1	1	1
03/03/06	1:46 a	-21.2	-21.2	-21.2	---	---	27.0	ENE	0.45	30.4	-36.9	---	---	730.7	0.027	0.000	19.1	1	1
03/03/06	1:47 a	-21.1	-21.1	-21.1	---	---	31.3	ENE	0.52	35.7	-37.7	---	---	730.5	0.027	0.000	19.1	1	1
03/03/06	1:48 a	-21.1	-21.1	-21.1	---	---	28.7	ENE	0.48	35.7	-37.2	---	---	730.9	0.027	0.000	19.1	1	1
03/03/06	1:49 a	-21.1	-21.1	-21.1	---	---	27.0	ENE	0.45	29.6	-36.8	---	---	730.8	0.027	0.000	19.1	1	1
03/03/06	1:50 a	-21.2	-21.2	-21.2	---	---	29.6	ENE	0.49	32.2	-37.4	---	---	730.6	0.027	0.000	19.1	1	1
03/03/06	1:51 a	-21.3	-21.2	-21.3	---	---	30.4	ENE	0.51	33.0	-37.8	---	---	730.8	0.028	0.000	19.1	1	1
03/03/06	1:52 a	-21.4	-21.3	-21.4	---	---	26.1	ENE	0.43	30.4	-37.0	---	---	730.7	0.028	0.000	19.1	1	1
03/03/06	1:53 a	-21.4	-21.4	-21.4	---	---	28.7	ENE	0.48	32.2	-37.7	---	---	730.8	0.028	0.000	19.2	1	1
03/03/06	1:54 a	-21.4	-21.3	-21.4	---	---	26.1	ENE	0.43	30.4	-37.0	---	---	730.6	0.028	0.000	19.1	1	1
03/03/06	1:55 a	-21.3	-21.3	-21.3	---	---	32.2	E	0.54	35.7	-38.2	---	---	730.5	0.028	0.000	19.1	1	1
03/03/06	1:56 a	-21.3	-21.2	-21.3	---	---	28.7	ENE	0.48	35.7	-37.4	---	---	731.1	0.028	0.000	19.1	1	1
03/03/06	1:57 a	-21.2	-21.1	-21.2	---	---	19.1	ENE	0.32	21.7	-34.9	---	---	730.8	0.027	0.000	19.1	1	1
03/03/06	1:58 a	-21.0	-20.9	-21.1	---	---	24.3	E	0.41	28.7	-36.1	---	---	730.7	0.027	0.000	19.1	1	1
03/03/06	1:59 a	-20.9	-20.9	-20.9	---	---	29.6	E	0.49	34.8	-37.1	---	---	730.6	0.027	0.000	19.1	1	1
03/03/06	2:00 a	-20.9	-20.8	-20.9	---	---	27.0	E	0.45	32.2	-36.5	---	---	730.8	0.027	0.000	19.1	1	1
03/03/06	2:01 a	-20.8	-20.8	-20.8	---	---	24.3	ENE	0.41	28.7	-35.8	---	---	730.9	0.027	0.000	19.1	1	1
03/03/06	2:02 a	-20.8	-20.7	-20.8	---	---	26.1	ENE	0.43	32.2	-36.2	---	---	730.8	0.027	0.000	19.2	1	1
03/03/06	2:03 a	-20.8	-20.8	-20.8	---	---	29.6	ENE	0.49	32.2	-37.0	---	---	730.9	0.027	0.000	19.2	1	1
03/03/06	2:04 a	-20.9	-20.9	-20.9	---	---	21.7	E	0.36	27.8	-35.3	---	---	730.8	0.027	0.000	19.2	1	1
03/03/06	2:05 a	-21.0	-20.9	-21.1	---	---	25.2	E	0.42	28.7	-36.3	---	---	730.7	0.027	0.000	19.2	1	1
03/03/06	2:06 a	-21.2	-21.1	-21.3	---	---	33.9	E	0.57	37.4	-38.3	---	---	730.9	0.027	0.000	19.2	1	1
03/03/06	2:07 a	-21.3	-21.3	-21.4	---	---	21.7	ENE	0.36	27.8	-35.9	---	---	731.1	0.028	0.000	19.2	1	1
03/03/06	2:08 a	-21.3	-21.3	-21.3	---	---	24.3	E	0.41	31.3	-36.5	---	---	730.7	0.028	0.000	19.2	1	1
03/03/06	2:09 a	-21.3	-21.3	-21.4	---	---	32.2	E	0.54	36.5	-38.2	---	---	730.7	0.028	0.000	19.2	1	1
03/03/06	2:10 a	-21.4	-21.3	-21.4	---	---	25.2	E	0.42	27.8	-36.8	---	---	731.0	0.028	0.000	19.2	1	1
03/03/06	2:11 a	-21.3	-21.3	-21.4	---	---	21.7	E	0.36	28.7	-35.9	---	---	730.7	0.028	0.000	19.2	1	1
03/03/06	2:12 a	-21.3	-21.3	-21.3	---	---	35.7	E	0.59	41.7	-38.7	---	---	730.4	0.028	0.000	19.2	1	1
03/03/06	2:13 a	-21.3	-21.3	-21.3	---	---	24.3	E	0.41	34.8	-36.5	---	---	731.0	0.028	0.000	19.2	1	1
03/03/06	2:14 a	-21.2	-21.2	-21.3	---	---	27.0	E	0.45	31.3	-36.9	---	---	730.9	0.027	0.000	19.2	1	1
03/03/06	2:15 a	-21.2	-21.1	-21.2	---	---	27.0	ENE	0.45	30.4	-36.9	---	---	730.7	0.027	0.000	19.2	1	1
03/03/06	2:16 a	-21.0	-20.9	-21.1	---	---	29.6	E	0.49	33.0	-37.2	---	---	730.9	0.027	0.000	19.2	1	1
03/03/06	2:17 a	-20.9	-20.9	-20.9	---	---	25.2	E	0.42	28.7	-36.1	---	---	731.0	0.027	0.000	19.2	1	1
03/03/06	2:18 a	-20.9	-20.8	-20.9	---	---	25.2	ENE	0.42	28.7	-36.1	---	---	731.1	0.027	0.000	19.2	1	1
03/03/06	2:19 a	-20.9	-20.9	-20.9	---	---	26.1	E	0.43	33.9	-36.3	---	---	730.5	0.027	0.000	19.2	1	1
03/03/06	2:20 a	-21.0	-20.9	-21.1	---	---	32.2	ENE	0.54	37.4	-37.7	---	---	731.1	0.027	0.000	19.2	1	1
03/03/06	2:21 a	-21.2	-21.1	-21.2	---	---	22.6	ENE	0.38	27.0	-35.9	---	---	731.2	0.027	0.000	19.2	1	1
03/03/06	2:22 a	-21.2	-21.2	-21.2	---	---	25.2	E	0.42	32.2	-36.6	---	---	730.8	0.027	0.000	19.2	1	1
03/03/06	2:23 a	-21.1	-21.1	-21.2	---	---	27.8	E	0.46	31.3	-37.0	---	---	730.8	0.027	0.000	19.2	1	1
03/03/06	2:24 a	-21.1	-21.1	-21.2	---	---	27.8	E	0.46	30.4	-37.0	---	---	730.8	0.027	0.000	19.2	1	1
03/03/06	2:25 a	-21.1	-21.1	-21.1	---	---	26.1	E	0.43	30.4	-36.6	---	---	730.9	0.027	0.000	19.2	2	1
03/03/06	2:26 a	-21.1	-21.0	-21.1	---	---	27.8	E	0.46	32.2	-36.9	---	---	730.7	0.027	0.000	19.2	2	1
03/03/06	2:27 a	-21.0	-20.9	-21.1	---	---	30.4	ENE	0.51	32.2	-37.4	---	---	730.8	0.027	0.000	19.2	1	1
03/03/06	2:28 a	-20.9	-20.8	-20.9	---	---	28.7	ENE	0.48	32.2	-36.9	---	---	731.0	0.027	0.000	19.2	1	1
03/03/06	2:29 a	-20.7	-20.7	-20.8	---	---	23.5	ENE	0.39	26.1	-35.5	---	---	731.0	0.027	0.000	19.2	1	1
03/03/06	2:30 a	-20.6	-20.6	-20.7	---	---	22.6	E	0.38	28.7	-35.1	---	---	730.7	0.027	0.000	19.2	2	1
03/03/06	2:31 a	-20.5	-20.5	-20.5	---	---	29.6	E	0.49	33.0	-36.5	---	---	730.6	0.027	0.000	19.2	1	1
03/03/06	2:32 a	-20.6	-20.5	-20.6	---	---	27.8	ENE	0.46	32.2	-36.2	---	---	730.9	0.027	0.000	19.2	2	1
03/03/06	2:33 a	-20.6	-20.5	-20.6	---	---	27.0	E	0.45	31.3	-36.1	---	---	730.8	0.027	0.000	19.2	1	1
03/03/06	2:34 a	-20.5	-20.5	-20.5	---	---	32.2	E	0.54	37.4	-37.0	---	---	730.7	0.027	0.000	19.2	2	1
03/03/06	2:35 a	-20.5	-20.5	-20.5	---	---	28.7	E	0.48	34.8	-36.3	---	---	731.1	0.027	0.000	19.2	2	1
03/03/06	2:36 a	-20.5	-20.4	-20.5	---	---	21.7	ENE	0.36	25.2	-34.7	---	---	731.1	0.027	0.000	19.2	2	1
03/03/06	2:37 a	-20.4	-20.4	-20.5	---	---	26.1	E	0.43	28.7	-35.7	---	---	730.8	0.027	0.000	19.2	1	1
03/03/06	2:38 a	-20.4	-20.4	-20.4	---	---	33.0	E	0.55	39.1	-37.1	---	---	730.3	0.027	0.000	19.2	1	1
03/03/06	2:39 a	-20.5	-20.5	-20.6	---	---	35.7	ENE	0.59	39.1	-37.7	---	---	730.8	0.027	0.000	19.2	1	1
03/03/06	2:40 a	-20.6	-20.6	-20.6	---	---	25.2	ENE	0.42	30.4	-35.7	---	---	731.2	0.027	0.000	19.2	1	1
03/03/06	2:41 a	-20.6	-20.6	-20.6	---	---	20.9	ENE	0.35	24.3	-34.7	---	---	731.1	0.027	0.000	19.2	1	1
03/03/06	2:42 a	-20.6	-20.6	-20.6	---	---	25.2	E	0.42	29.6	-35.7	---	---	730.7	0.027	0.000	19.2	1	1
03/03/06	2:43 a	-20.6	-20.6	-20.6	---	---	32.2	E	0.54	37.4	-37.1	---	---	730.5	0.027	0.000	19.2	1	1
03/03/06	2:44 a	-20.7	-20.6	-20.7	---	---	31.3	ENE	0.52	35.7	-37.1	---	---	730.9	0.027	0.000	19.2	1	1
03/03/06	2:45 a	-20.7	-20.7	-20.7	---	---	25.2	ENE	0.42	29.6	-35.8	---	---	731.0	0.027	0.000	19.2	1	1
03/03/06	2:46 a	-20.7	-20.7	-20.7	---	---	27.8	E	0.46	35.7	-36.4	---	---	730.5	0.027	0.000	19.2	1	1
03/03/06	2:47 a	-20.7	-20.7	-20.8	---	---	30.4	E	0.51	35.7	-37.0	---	---	730.6	0.027	0.000	19.2	1	1
03/03/06	2:48 a	-20.8	-20.7	-20.8	---	---	32.2	ENE	0.54	35.7	-37.4	---	---	731.1	0.027	0.000	19.2	1	1
03/03/06	2:49 a	-20.8	-20.7	-20.8	---	---	25.2	ENE	0.42	27.8	-35.9	---	---	731.2	0.027	0.000	19.2	1	1
03/03/06	2:50 a	-20.8	-20.7	-20.8	---	---	25.2	ENE	0.42	27.0	-35.9	---	---	731.0	0.027	0.000	19.2	1	1
03/03/06	2:51 a	-20.9	-20.9	-20.9	---	---	26.1	ENE	0.43	27.8	-36.3	---	---	731.0	0.027	0.000	19.2	1	1
03/03/06	2:52 a	-21.0	-20.9	-21.1	---	---	27.0	ENE	0.45	30.4	-36.7	---	---	730.8	0.027	0.000	19.2	1	1
03/03/06	2:53 a	-21.1	-21.1	-21.1	---	---	28.7	ENE	0.48	32.2	-37.1	---	---	730.9	0.027	0.000	19.2	1	1
03/03/06	2:54 a	-21.2	-21.1	-21.2	---	---	28.7	E	0.48	31.3	-37.3	---	---	730.9	0.027	0.000	19.2	1	1
03/03/06	2:55 a	-21.1	-21.1	-21.1	---	---	28.7	ENE	0.48	31.3	-37.2	---	---	730.8	0.027	0.000	19.2	1	1
03/03/06	2:56 a	-21.1	-21.0	-21.1	---	---	28.7	ENE	0.48	31.3	-37.1	---	---	730.7	0.027	0.000	19.2	1	1
03/03/06	2:57 a	-21.0	-21.0	-21.1	---	---	31.3	ENE	0.52	34.8	-37.6	---	---	730.9	0.027	0.000	19.2	1	1
03/03/06	2:58 a	-21.1	-21.0	-21.1	---	---	26.1	E	0.43	31.3	-36.6	---	---	731.0	0.027	0.000	19.2	1	1
03/03/06	2:59 a	-21.1	-21.1	-21.1	---	---	31.3	E	0.52	35.7	-37.7	---	---	730.6	0.027	0.000	19.2	1	1
03/03/06	3:00 a	-21.1	-21.1	-21.2	---	---	27.8	E	0.46	32.2	-37.0	---	---	730.8	0.027	0.000	19.2	1	1
03/03/06	3:01 a	-21.1	-21.1	-21.2	---	---	32.2	ENE	0.54	34.8	-37.9	---	---	730.8	0.027	0.000	19.2	1	1
03/03/06	3:02 a	-21.1	-21.0	-21.1	---	---	26.1	ENE	0.43	29.6	-36.6	---	---	731.2	0.027	0.000	19.2	1	1
03/03/06	3:03 a	-21.0	-20.9	-21.0	---	---	27.0	ENE	0.45	28.7	-36.7	---	---	731.0	0.027	0.000	19.2	1	1
03/03/06	3:04 a	-20.9	-20.8	-20.9	---	---	30.4	E	0.51	34.8	-37.2	---	---	730.6	0.027	0.000	19.2	1	1
03/03/06	3:05 a	-20.8	-20.7	-20.8	---	---	34.8	ENE	0.58	37.4	-37.9	---	---	730.7	0.027	0.000	19.2	1	1
03/03/06	3:06 a	-20.8	-20.8	-20.8	---	---	26.1	E	0.43	33.9	-36.2	---	---	731.1	0.027	0.000	19.2	1	1
03/03/06	3:07 a	-20.7	-20.6	-20.7	---	---	21.7	E	0.36	28.7	-34.9	---	---	730.8	0.027	0.000	19.2	1	1
03/03/06	3:08 a	-20.6	-20.4	-20.6	---	---	32.2	E	0.54	36.5	-37.1	---	---	730.6	0.027	0.000	19.2	1	1
03/03/06	3:09 a	-20.5	-20.5	-20.5	---	---	29.6	E	0.49	36.5	-36.5	---	---	731.1	0.027	0.000	19.2	1	1
03/03/06	3:10 a	-20.5	-20.4	-20.5	---	---	23.5	E	0.39	29.6	-35.2	---	---	730.9	0.027	0.000	19.2	1	1
03/03/06	3:11 a	-20.6	-20.4	-20.7	---	---	30.4	ENE	0.51	33.9	-36.8	---	---	730.7	0.027	0.000	19.2	1	1
03/03/06	3:12 a	-20.7	-20.7	-20.7	---	---	27.0	E	0.45	31.3	-36.2	---	---	731.0	0.027	0.000	19.2	1	1
03/03/06	3:13 a	-20.7	-20.6	-20.7	---	---	23.5	E	0.39	32.2	-35.4	---	---	730.8	0.027	0.000	19.2	1	1
03/03/06	3:14 a	-20.7	-20.6	-20.7	---	---	32.2	E	0.54	33.9	-37.3	---	---	730.7	0.027	0.000	19.1	1	1
03/03/06	3:15 a	-20.7	-20.7	-20.7	---	---	33.9	E	0.57	35.7	-37.7	---	---	730.8	0.027	0.000	19.2	1	1
03/03/06	3:16 a	-20.8	-20.7	-20.8	---	---	26.1	E	0.43	30.4	-36.2	---	---	731.2	0.027	0.000	19.2	1	1
03/03/06	3:17 a	-20.7	-20.6	-20.7	---	---	21.7	E	0.36	27.0	-34.9	---	---	730.9	0.027	0.000	19.2	1	1
03/03/06	3:18 a	-20.6	-20.5	-20.6	---	---	29.6	E	0.49	37.4	-36.6	---	---	730.5	0.027	0.000	19.2	1	1
03/03/06	3:19 a	-20.6	-20.5	-20.6	---	---	33.0	ENE	0.55	38.3	-37.3	---	---	731.0	0.027	0.000	19.2	1	1
03/03/06	3:20 a	-20.6	-20.6	-20.6	---	---	25.2	ENE	0.42	27.8	-35.7	---	---	731.2	0.027	0.000	19.2	1	1
03/03/06	3:21 a	-20.5	-20.5	-20.5	---	---	21.7	ENE	0.36	24.3	-34.7	---	---	731.1	0.027	0.000	19.2	1	1
03/03/06	3:22 a	-20.5	-20.4	-20.5	---	---	22.6	ENE	0.38	28.7	-34.9	---	---	730.9	0.027	0.000	19.2	1	1
03/03/06	3:23 a	-20.5	-20.5	-20.6	---	---	30.4	E	0.51	35.7	-36.7	---	---	730.7	0.027	0.000	19.2	1	1
03/03/06	3:24 a	-20.6	-20.6	-20.7	---	---	30.4	E	0.51	33.9	-36.8	---	---	730.7	0.027	0.000	19.2	1	1
03/03/06	3:25 a	-20.8	-20.7	-20.8	---	---	28.7	E	0.48	33.0	-36.7	---	---	731.0	0.027	0.000	19.2	1	1
03/03/06	3:26 a	-20.9	-20.8	-20.9	---	---	20.0	E	0.33	26.1	-34.8	---	---	731.1	0.027	0.000	19.2	1	1
03/03/06	3:27 a	-21.0	-21.0	-21.0	---	---	33.9	E	0.57	39.1	-38.1	---	---	730.8	0.027	0.000	19.2	1	1
03/03/06	3:28 a	-21.0	-21.0	-21.1	---	---	33.9	ENE	0.57	37.4	-38.1	---	---	730.9	0.027	0.000	19.2	1	1
03/03/06	3:29 a	-21.1	-21.1	-21.2	---	---	29.6	ENE	0.49	33.9	-37.3	---	---	731.2	0.027	0.000	19.2	1	1
03/03/06	3:30 a	-21.2	-21.2	-21.2	---	---	21.7	ENE	0.36	26.1	-35.7	---	---	731.4	0.027	0.000	19.2	1	1
03/03/06	3:31 a	-21.1	-21.1	-21.1	---	---	24.3	E	0.41	35.7	-36.2	---	---	730.7	0.027	0.000	19.2	1	1
03/03/06	3:32 a	-21.0	-20.9	-21.1	---	---	37.4	E	0.62	41.7	-38.6	---	---	730.5	0.027	0.000	19.2	1	1
03/03/06	3:33 a	-20.9	-20.9	-20.9	---	---	33.0	ENE	0.55	38.3	-37.7	---	---	731.0	0.027	0.000	19.2	1	1
03/03/06	3:34 a	-20.9	-20.8	-20.9	---	---	25.2	ENE	0.42	31.3	-36.1	---	---	731.4	0.027	0.000	19.2	1	1
03/03/06	3:35 a	-20.8	-20.8	-20.8	---	---	20.0	ENE	0.33	24.3	-34.7	---	---	731.2	0.027	0.000	19.2	1	1
03/03/06	3:36 a	-20.8	-20.8	-20.9	---	---	26.1	E	0.43	33.0	-36.2	---	---	730.7	0.027	0.000	19.2	1	1
03/03/06	3:37 a	-21.0	-20.9	-21.1	---	---	29.6	E	0.49	34.8	-37.2	---	---	730.7	0.027	0.000	19.1	1	1
03/03/06	3:38 a	-21.1	-21.0	-21.1	---	---	25.2	E	0.42	30.4	-36.3	---	---	730.9	0.027	0.000	19.1	1	1
03/03/06	3:39 a	-21.1	-21.1	-21.2	---	---	30.4	E	0.51	34.8	-37.6	---	---	731.1	0.027	0.000	19.1	1	1
03/03/06	3:40 a	-21.2	-21.2	-21.3	---	---	27.0	ENE	0.45	29.6	-36.9	---	---	731.1	0.027	0.000	19.1	1	1
03/03/06	3:41 a	-21.3	-21.3	-21.4	---	---	24.3	E	0.41	35.7	-36.5	---	---	730.9	0.028	0.000	19.1	1	1
03/03/06	3:42 a	-21.4	-21.4	-21.6	---	---	33.9	E	0.57	37.4	-38.7	---	---	730.8	0.028	0.000	19.1	1	1
03/03/06	3:43 a	-21.6	-21.6	-21.7	---	---	32.2	E	0.54	34.8	-38.6	---	---	731.0	0.028	0.000	19.1	1	1
03/03/06	3:44 a	-21.7	-21.7	-21.8	---	---	29.6	ENE	0.49	32.2	-38.2	---	---	731.1	0.028	0.000	19.1	1	1
03/03/06	3:45 a	-21.7	-21.6	-21.8	---	---	23.5	ENE	0.39	27.8	-36.8	---	---	731.3	0.028	0.000	19.0	1	1
03/03/06	3:46 a	-21.5	-21.4	-21.6	---	---	23.5	E	0.39	28.7	-36.6	---	---	730.9	0.028	0.000	19.0	1	1
03/03/06	3:47 a	-21.3	-21.2	-21.3	---	---	34.8	E	0.58	40.0	-38.7	---	---	730.8	0.028	0.000	19.1	1	1
03/03/06	3:48 a	-21.2	-21.1	-21.2	---	---	33.0	ENE	0.55	34.8	-38.1	---	---	731.0	0.027	0.000	19.1	1	1
03/03/06	3:49 a	-21.2	-21.1	-21.2	---	---	28.7	ENE	0.48	32.2	-37.3	---	---	731.1	0.027	0.000	19.1	1	1
03/03/06	3:50 a	-21.3	-21.3	-21.3	---	---	28.7	ENE	0.48	30.4	-37.4	---	---	731.1	0.028	0.000	19.1	1	1
03/03/06	3:51 a	-21.4	-21.4	-21.4	---	---	24.3	E	0.41	28.7	-36.6	---	---	731.1	0.028	0.000	19.1	1	1
03/03/06	3:52 a	-21.4	-21.4	-21.4	---	---	28.7	E	0.48	33.9	-37.7	---	---	730.7	0.028	0.000	19.1	1	1
03/03/06	3:53 a	-21.3	-21.2	-21.4	---	---	33.0	E	0.55	35.7	-38.3	---	---	730.9	0.028	0.000	19.1	1	1
03/03/06	3:54 a	-21.3	-21.3	-21.3	---	---	29.6	ENE	0.49	32.2	-37.6	---	---	731.0	0.028	0.000	19.1	1	1
03/03/06	3:55 a	-21.3	-21.3	-21.3	---	---	24.3	ENE	0.41	28.7	-36.4	---	---	731.1	0.028	0.000	19.1	1	1
03/03/06	3:56 a	-21.2	-21.2	-21.3	---	---	29.6	E	0.49	40.0	-37.5	---	---	730.6	0.027	0.000	19.1	1	1
03/03/06	3:57 a	-21.4	-21.3	-21.5	---	---	34.8	ENE	0.58	37.4	-38.7	---	---	730.7	0.028	0.000	19.1	1	1
03/03/06	3:58 a	-21.6	-21.6	-21.7	---	---	33.0	ENE	0.55	34.8	-38.7	---	---	730.8	0.028	0.000	19.1	1	1
03/03/06	3:59 a	-21.8	-21.8	-21.9	---	---	27.0	ENE	0.45	33.0	-37.8	---	---	731.2	0.028	0.000	19.1	1	1
03/03/06	4:00 a	-21.9	-21.9	-22.0	---	---	24.3	E	0.41	33.0	-37.3	---	---	731.0	0.028	0.000	19.1	1	1
03/03/06	4:01 a	-22.1	-22.0	-22.1	---	---	27.8	ENE	0.46	31.3	-38.3	---	---	731.0	0.028	0.000	19.0	1	1
03/03/06	4:02 a	-22.1	-22.1	-22.2	---	---	28.7	E	0.48	33.0	-38.6	---	---	730.9	0.028	0.000	19.0	1	1
03/03/06	4:03 a	-22.3	-22.2	-22.3	---	---	33.0	E	0.55	35.7	-39.7	---	---	730.8	0.028	0.000	19.0	1	1
03/03/06	4:04 a	-22.3	-22.3	-22.4	---	---	30.4	E	0.51	33.0	-39.2	---	---	730.9	0.028	0.000	19.0	1	1
03/03/06	4:05 a	-22.4	-22.4	-22.5	---	---	32.2	ENE	0.54	34.8	-39.7	---	---	730.9	0.028	0.000	19.0	1	1
03/03/06	4:06 a	-22.6	-22.5	-22.6	---	---	29.6	E	0.49	34.8	-39.3	---	---	731.1	0.028	0.000	18.9	1	1
03/03/06	4:07 a	-22.6	-22.6	-22.6	---	---	26.1	E	0.43	29.6	-38.6	---	---	731.1	0.028	0.000	18.9	1	1
03/03/06	4:08 a	-22.7	-22.6	-22.7	---	---	29.6	E	0.49	37.4	-39.5	---	---	730.6	0.028	0.000	18.9	1	1
03/03/06	4:09 a	-22.7	-22.7	-22.7	---	---	35.7	ENE	0.59	39.1	-40.7	---	---	730.8	0.029	0.000	18.9	1	1
03/03/06	4:10 a	-22.8	-22.7	-22.8	---	---	29.6	ENE	0.49	33.9	-39.7	---	---	731.1	0.029	0.000	18.9	1	1
03/03/06	4:11 a	-22.8	-22.7	-22.8	---	---	24.3	ENE	0.41	28.7	-38.4	---	---	731.3	0.029	0.000	18.9	1	1
03/03/06	4:12 a	-22.8	-22.7	-22.8	---	---	20.0	ENE	0.33	23.5	-37.3	---	---	731.1	0.029	0.000	18.9	1	1
03/03/06	4:13 a	-22.8	-22.7	-22.8	---	---	29.6	E	0.49	40.9	-39.7	---	---	730.4	0.029	0.000	18.9	1	1
03/03/06	4:14 a	-22.7	-22.7	-22.8	---	---	36.5	ENE	0.61	41.7	-40.9	---	---	730.4	0.029	0.000	18.9	1	1
03/03/06	4:15 a	-22.7	-22.7	-22.8	---	---	34.8	ENE	0.58	38.3	-40.6	---	---	730.7	0.029	0.000	18.9	1	1
03/03/06	4:16 a	-22.7	-22.7	-22.7	---	---	32.2	E	0.54	34.8	-40.1	---	---	731.0	0.029	0.000	18.9	1	1
03/03/06	4:17 a	-22.7	-22.6	-22.7	---	---	30.4	ENE	0.51	32.2	-39.7	---	---	731.3	0.028	0.000	18.9	1	1
03/03/06	4:18 a	-22.6	-22.6	-22.7	---	---	20.0	ENE	0.33	27.0	-37.1	---	---	731.5	0.028	0.000	18.9	1	1
03/03/06	4:19 a	-22.6	-22.5	-22.6	---	---	11.3	E	0.19	25.2	-33.8	---	---	730.8	0.028	0.000	18.9	1	1
03/03/06	4:20 a	-22.5	-22.4	-22.5	---	---	34.8	ENE	0.58	44.3	-40.3	---	---	731.2	0.028	0.000	18.9	1	1
03/03/06	4:21 a	-22.4	-22.4	-22.4	---	---	30.4	E	0.51	32.2	-39.4	---	---	731.1	0.028	0.000	18.9	1	1
03/03/06	4:22 a	-22.4	-22.4	-22.4	---	---	28.7	ENE	0.48	30.4	-38.9	---	---	731.2	0.028	0.000	18.9	1	1
03/03/06	4:23 a	-22.4	-22.3	-22.4	---	---	21.7	ENE	0.36	25.2	-37.3	---	---	731.2	0.028	0.000	18.9	1	1
03/03/06	4:24 a	-22.3	-22.3	-22.3	---	---	26.1	E	0.43	35.7	-38.3	---	---	730.8	0.028	0.000	18.9	1	1
03/03/06	4:25 a	-22.3	-22.3	-22.4	---	---	29.6	E	0.49	33.9	-39.1	---	---	730.8	0.028	0.000	18.9	1	1
03/03/06	4:26 a	-22.4	-22.3	-22.4	---	---	33.0	ENE	0.55	36.5	-39.8	---	---	731.1	0.028	0.000	18.9	1	1
03/03/06	4:27 a	-22.4	-22.3	-22.4	---	---	29.6	ENE	0.49	32.2	-39.1	---	---	731.2	0.028	0.000	18.9	1	1
03/03/06	4:28 a	-22.3	-22.3	-22.4	---	---	26.1	ENE	0.43	28.7	-38.3	---	---	731.2	0.028	0.000	18.9	1	1
03/03/06	4:29 a	-22.3	-22.3	-22.4	---	---	22.6	ENE	0.38	32.2	-37.4	---	---	731.0	0.028	0.000	18.9	1	1
03/03/06	4:30 a	-22.3	-22.3	-22.3	---	---	31.3	E	0.52	33.9	-39.4	---	---	730.7	0.028	0.000	18.9	1	1
03/03/06	4:31 a	-22.3	-22.3	-22.3	---	---	35.7	ENE	0.59	39.1	-40.2	---	---	731.1	0.028	0.000	18.9	1	1
03/03/06	4:32 a	-22.3	-22.3	-22.4	---	---	26.1	ENE	0.43	33.0	-38.3	---	---	731.5	0.028	0.000	18.9	1	1
03/03/06	4:33 a	-22.3	-22.3	-22.3	---	---	19.1	E	0.32	27.0	-36.4	---	---	731.1	0.028	0.000	18.9	1	1
03/03/06	4:34 a	-22.3	-22.2	-22.3	---	---	33.0	E	0.55	41.7	-39.7	---	---	730.4	0.028	0.000	18.9	1	1
03/03/06	4:35 a	-22.2	-22.1	-22.2	---	---	38.3	ENE	0.64	41.7	-40.4	---	---	730.7	0.028	0.000	18.9	1	1
03/03/06	4:36 a	-22.0	-21.9	-22.1	---	---	31.3	ENE	0.52	36.5	-38.9	---	---	731.3	0.028	0.000	18.9	1	1
03/03/06	4:37 a	-21.8	-21.7	-21.8	---	---	26.1	ENE	0.43	29.6	-37.5	---	---	731.4	0.028	0.000	18.9	1	1
03/03/06	4:38 a	-21.7	-21.6	-21.7	---	---	20.0	ENE	0.33	22.6	-35.8	---	---	731.4	0.028	0.000	18.9	1	1
03/03/06	4:39 a	-21.5	-21.4	-21.6	---	---	18.3	E	0.30	26.1	-35.1	---	---	731.0	0.028	0.000	18.9	1	1
03/03/06	4:40 a	-21.3	-21.2	-21.4	---	---	30.4	E	0.51	36.5	-37.8	---	---	730.6	0.028	0.000	18.9	1	1
03/03/06	4:41 a	-21.2	-21.2	-21.2	---	---	33.9	E	0.57	38.3	-38.3	---	---	730.9	0.027	0.000	18.9	1	1
03/03/06	4:42 a	-21.2	-21.1	-21.2	---	---	28.7	E	0.48	33.0	-37.3	---	---	731.2	0.027	0.000	18.9	1	1
03/03/06	4:43 a	-21.1	-20.9	-21.1	---	---	20.0	E	0.33	24.3	-35.0	---	---	731.1	0.027	0.000	18.9	1	1
03/03/06	4:44 a	-20.9	-20.8	-20.9	---	---	30.4	E	0.51	33.9	-37.2	---	---	730.8	0.027	0.000	18.9	1	1
03/03/06	4:45 a	-20.8	-20.8	-20.8	---	---	30.4	ENE	0.51	33.9	-37.1	---	---	731.0	0.027	0.000	19.0	1	1
03/03/06	4:46 a	-20.7	-20.7	-20.8	---	---	25.2	E	0.42	28.7	-35.9	---	---	730.9	0.027	0.000	18.9	1	1
03/03/06	4:47 a	-20.7	-20.6	-20.7	---	---	28.7	E	0.48	31.3	-36.6	---	---	730.9	0.027	0.000	19.0	1	1
03/03/06	4:48 a	-20.7	-20.6	-20.7	---	---	32.2	E	0.54	34.8	-37.3	---	---	730.8	0.027	0.000	19.0	1	1
03/03/06	4:49 a	-20.7	-20.7	-20.8	---	---	31.3	ENE	0.52	33.9	-37.2	---	---	731.0	0.027	0.000	19.0	1	1
03/03/06	4:50 a	-20.9	-20.8	-21.1	---	---	29.6	ENE	0.49	33.0	-37.1	---	---	731.3	0.027	0.000	19.0	1	1
03/03/06	4:51 a	-21.2	-21.1	-21.2	---	---	25.2	ENE	0.42	26.1	-36.5	---	---	731.4	0.027	0.000	19.0	1	1
03/03/06	4:52 a	-21.3	-21.3	-21.3	---	---	22.6	E	0.38	32.2	-36.1	---	---	730.9	0.028	0.000	18.9	1	1
03/03/06	4:53 a	-21.3	-21.3	-21.3	---	---	33.0	E	0.55	36.5	-38.3	---	---	730.9	0.028	0.000	18.9	1	1
03/03/06	4:54 a	-21.3	-21.3	-21.3	---	---	33.0	ENE	0.55	35.7	-38.3	---	---	731.0	0.028	0.000	18.9	1	1
03/03/06	4:55 a	-21.3	-21.3	-21.3	---	---	32.2	E	0.54	35.7	-38.1	---	---	731.0	0.028	0.000	18.9	1	1
03/03/06	4:56 a	-21.2	-21.1	-21.2	---	---	26.1	E	0.43	30.4	-36.7	---	---	731.0	0.027	0.000	19.0	1	1
03/03/06	4:57 a	-21.2	-21.1	-21.2	---	---	26.1	E	0.43	29.6	-36.7	---	---	731.0	0.027	0.000	19.0	1	1
03/03/06	4:58 a	-21.3	-21.2	-21.3	---	---	27.0	E	0.45	33.9	-37.1	---	---	730.8	0.028	0.000	19.0	1	1
03/03/06	4:59 a	-21.4	-21.3	-21.5	---	---	32.2	E	0.54	34.8	-38.3	---	---	731.1	0.028	0.000	19.0	1	1
03/03/06	5:00 a	-21.6	-21.5	-21.7	---	---	30.4	ENE	0.51	33.9	-38.2	---	---	731.0	0.028	0.000	18.9	1	1
03/03/06	5:01 a	-21.8	-21.8	-21.9	---	---	30.4	E	0.51	35.7	-38.6	---	---	731.0	0.028	0.000	18.9	1	1
03/03/06	5:02 a	-22.1	-21.9	-22.1	---	---	30.4	ENE	0.51	33.0	-38.8	---	---	731.2	0.028	0.000	18.9	1	1
03/03/06	5:03 a	-22.2	-22.2	-22.2	---	---	29.6	ENE	0.49	30.4	-38.8	---	---	731.1	0.028	0.000	18.8	1	1
03/03/06	5:04 a	-22.3	-22.2	-22.3	---	---	30.4	E	0.51	33.9	-39.2	---	---	730.9	0.028	0.000	18.8	1	1
03/03/06	5:05 a	-22.3	-22.3	-22.4	---	---	33.9	ENE	0.57	36.5	-39.9	---	---	731.0	0.028	0.000	18.8	1	1
03/03/06	5:06 a	-22.4	-22.4	-22.4	---	---	30.4	ENE	0.51	32.2	-39.3	---	---	731.1	0.028	0.000	18.8	1	1
03/03/06	5:07 a	-22.4	-22.4	-22.5	---	---	27.0	ENE	0.45	29.6	-38.6	---	---	731.2	0.028	0.000	18.8	1	1
03/03/06	5:08 a	-22.5	-22.4	-22.5	---	---	27.0	E	0.45	31.3	-38.7	---	---	731.0	0.028	0.000	18.8	1	1
03/03/06	5:09 a	-22.4	-22.4	-22.4	---	---	29.6	E	0.49	32.2	-39.2	---	---	731.1	0.028	0.000	18.8	1	1
03/03/06	5:10 a	-22.3	-22.3	-22.4	---	---	27.0	E	0.45	30.4	-38.5	---	---	731.2	0.028	0.000	18.8	1	1
03/03/06	5:11 a	-22.2	-22.2	-22.3	---	---	27.8	ENE	0.46	30.4	-38.5	---	---	731.1	0.028	0.000	18.8	1	1
03/03/06	5:12 a	-22.0	-21.9	-22.1	---	---	28.7	ENE	0.48	32.2	-38.4	---	---	731.1	0.028	0.000	18.8	1	1
03/03/06	5:13 a	-21.9	-21.9	-21.9	---	---	27.8	ENE	0.46	28.7	-38.1	---	---	731.1	0.028	0.000	18.9	1	1
03/03/06	5:14 a	-22.0	-21.9	-22.1	---	---	29.6	ENE	0.49	38.3	-38.6	---	---	730.7	0.028	0.000	18.8	1	1
03/03/06	5:15 a	-22.1	-22.1	-22.2	---	---	35.7	ENE	0.59	38.3	-39.9	---	---	731.0	0.028	0.000	18.8	1	1
03/03/06	5:16 a	-22.2	-22.2	-22.3	---	---	28.7	E	0.48	32.2	-38.7	---	---	731.3	0.028	0.000	18.8	1	1
03/03/06	5:17 a	-22.2	-22.1	-22.2	---	---	25.2	E	0.42	27.0	-37.8	---	---	731.4	0.028	0.000	18.8	1	1
03/03/06	5:18 a	-22.0	-21.9	-22.1	---	---	16.5	E	0.28	22.6	-35.2	---	---	731.4	0.028	0.000	18.8	1	1
03/03/06	5:19 a	-21.9	-21.9	-21.9	---	---	24.3	E	0.41	34.8	-37.3	---	---	730.8	0.028	0.000	18.8	1	1
03/03/06	5:20 a	-21.9	-21.9	-22.0	---	---	34.8	ENE	0.58	36.5	-39.5	---	---	731.0	0.028	0.000	18.8	1	1
03/03/06	5:21 a	-22.0	-21.9	-22.1	---	---	27.0	ENE	0.45	32.2	-38.0	---	---	731.6	0.028	0.000	18.8	1	1
03/03/06	5:22 a	-21.9	-21.8	-21.9	---	---	14.8	E	0.25	22.6	-34.4	---	---	731.5	0.028	0.000	18.8	1	1
03/03/06	5:23 a	-21.7	-21.6	-21.7	---	---	20.0	E	0.33	29.6	-35.8	---	---	731.0	0.028	0.000	18.8	1	1
03/03/06	5:24 a	-21.5	-21.4	-21.6	---	---	31.3	ENE	0.52	33.0	-38.2	---	---	731.0	0.028	0.000	18.9	1	1
03/03/06	5:25 a	-21.3	-21.3	-21.3	---	---	30.4	ENE	0.51	32.2	-37.8	---	---	731.2	0.028	0.000	18.9	1	1
03/03/06	5:26 a	-21.2	-21.2	-21.3	---	---	25.2	E	0.42	27.8	-36.6	---	---	731.4	0.027	0.000	18.9	1	1
03/03/06	5:27 a	-21.1	-21.0	-21.2	---	---	20.0	E	0.33	24.3	-35.1	---	---	731.3	0.027	0.000	18.9	1	1
03/03/06	5:28 a	-20.9	-20.8	-21.0	---	---	19.1	E	0.32	24.3	-34.6	---	---	731.3	0.027	0.000	18.9	1	1
03/03/06	5:29 a	-20.8	-20.7	-20.8	---	---	27.0	E	0.45	33.0	-36.3	---	---	731.0	0.027	0.000	18.9	1	1
03/03/06	5:30 a	-20.7	-20.7	-20.7	---	---	29.6	ENE	0.49	33.9	-36.8	---	---	731.1	0.027	0.000	18.9	1	1
03/03/06	5:31 a	-20.6	-20.6	-20.7	---	---	25.2	E	0.42	28.7	-35.7	---	---	731.1	0.027	0.000	18.9	1	1
03/03/06	5:32 a	-20.6	-20.6	-20.6	---	---	27.8	E	0.46	33.0	-36.3	---	---	730.9	0.027	0.000	19.0	1	1
03/03/06	5:33 a	-20.6	-20.6	-20.7	---	---	28.7	ENE	0.48	31.3	-36.5	---	---	731.0	0.027	0.000	19.0	1	1
03/03/06	5:34 a	-20.7	-20.7	-20.7	---	---	30.4	ENE	0.51	32.2	-36.9	---	---	731.2	0.027	0.000	19.0	1	1
03/03/06	5:35 a	-20.8	-20.8	-20.8	---	---	26.1	ENE	0.43	28.7	-36.2	---	---	731.2	0.027	0.000	19.0	1	1
03/03/06	5:36 a	-20.8	-20.8	-20.8	---	---	25.2	ENE	0.42	27.0	-35.9	---	---	731.2	0.027	0.000	19.0	1	1
03/03/06	5:37 a	-20.7	-20.7	-20.7	---	---	24.3	ENE	0.41	27.0	-35.7	---	---	731.2	0.027	0.000	19.0	1	1
03/03/06	5:38 a	-20.7	-20.7	-20.7	---	---	27.8	ENE	0.46	29.6	-36.4	---	---	731.1	0.027	0.000	19.0	1	1
03/03/06	5:39 a	-20.7	-20.6	-20.7	---	---	24.3	ENE	0.41	27.8	-35.6	---	---	731.3	0.027	0.000	19.0	1	1
03/03/06	5:40 a	-20.6	-20.6	-20.6	---	---	25.2	ENE	0.42	30.4	-35.7	---	---	731.0	0.027	0.000	19.0	1	1
03/03/06	5:41 a	-20.6	-20.6	-20.7	---	---	28.7	E	0.48	32.2	-36.5	---	---	731.1	0.027	0.000	19.0	1	1
03/03/06	5:42 a	-20.7	-20.6	-20.7	---	---	23.5	E	0.39	25.2	-35.4	---	---	731.2	0.027	0.000	19.0	1	1
03/03/06	5:43 a	-20.6	-20.6	-20.6	---	---	26.1	E	0.43	29.6	-35.9	---	---	731.0	0.027	0.000	18.9	1	1
03/03/06	5:44 a	-20.7	-20.6	-20.7	---	---	28.7	ENE	0.48	31.3	-36.6	---	---	731.1	0.027	0.000	18.9	1	1
03/03/06	5:45 a	-20.7	-20.7	-20.7	---	---	25.2	ENE	0.42	31.3	-35.8	---	---	731.3	0.027	0.000	18.9	1	1
03/03/06	5:46 a	-20.7	-20.7	-20.7	---	---	24.3	E	0.41	29.6	-35.6	---	---	731.0	0.027	0.000	18.9	1	1
03/03/06	5:47 a	-20.7	-20.7	-20.7	---	---	29.6	ENE	0.49	32.2	-36.8	---	---	731.1	0.027	0.000	18.9	1	1
03/03/06	5:48 a	-20.7	-20.7	-20.7	---	---	27.0	ENE	0.45	30.4	-36.3	---	---	731.3	0.027	0.000	18.9	1	1
03/03/06	5:49 a	-20.7	-20.6	-20.7	---	---	18.3	ENE	0.30	22.6	-34.0	---	---	731.3	0.027	0.000	18.9	1	1
03/03/06	5:50 a	-20.6	-20.5	-20.6	---	---	17.4	E	0.29	24.3	-33.6	---	---	731.3	0.027	0.000	18.9	1	1
03/03/06	5:51 a	-20.4	-20.4	-20.4	---	---	30.4	ENE	0.51	33.9	-36.6	---	---	731.0	0.027	0.000	18.9	1	1
03/03/06	5:52 a	-20.5	-20.4	-20.5	---	---	31.3	ENE	0.52	33.9	-36.9	---	---	731.2	0.027	0.000	18.9	1	1
03/03/06	5:53 a	-20.5	-20.5	-20.5	---	---	22.6	ENE	0.38	27.0	-34.9	---	---	731.5	0.027	0.000	18.9	1	1
03/03/06	5:54 a	-20.4	-20.4	-20.5	---	---	15.7	E	0.26	18.3	-32.9	---	---	731.5	0.027	0.000	18.9	1	1
03/03/06	5:55 a	-20.3	-20.3	-20.4	---	---	16.5	E	0.28	27.8	-33.0	---	---	731.3	0.027	0.000	18.9	1	1
03/03/06	5:56 a	-20.3	-20.3	-20.3	---	---	29.6	ENE	0.49	32.2	-36.2	---	---	731.0	0.027	0.000	18.9	1	1
03/03/06	5:57 a	-20.3	-20.3	-20.3	---	---	29.6	ENE	0.49	32.2	-36.3	---	---	731.3	0.027	0.000	19.1	1	1
03/03/06	5:58 a	-20.3	-20.3	-20.4	---	---	24.3	ENE	0.41	27.0	-35.2	---	---	731.5	0.027	0.000	19.1	1	1
03/03/06	5:59 a	-20.3	-20.3	-20.3	---	---	16.5	E	0.28	21.7	-33.0	---	---	731.7	0.027	0.000	19.1	1	1
03/03/06	6:00 a	-20.2	-20.2	-20.2	---	---	11.3	E	0.19	14.8	-30.9	---	---	731.6	0.027	0.000	19.2	1	1
03/03/06	6:01 a	-20.1	-20.0	-20.1	---	---	22.6	E	0.38	31.3	-34.4	---	---	731.1	0.027	0.000	19.2	1	1
03/03/06	6:02 a	-20.0	-20.0	-20.0	---	---	29.6	ENE	0.49	32.2	-35.8	---	---	731.2	0.027	0.000	19.3	1	1
03/03/06	6:03 a	-20.0	-19.9	-20.0	---	---	28.7	ENE	0.48	31.3	-35.7	---	---	731.2	0.027	0.000	19.3	1	1
03/03/06	6:04 a	-19.9	-19.9	-20.0	---	---	24.3	ENE	0.41	28.7	-34.7	---	---	731.5	0.027	0.000	19.3	1	1
03/03/06	6:05 a	-19.9	-19.9	-19.9	---	---	20.9	ENE	0.35	22.6	-33.8	---	---	731.5	0.027	0.000	19.4	1	1
03/03/06	6:06 a	-19.9	-19.8	-19.9	---	---	17.4	ENE	0.29	23.5	-32.7	---	---	731.2	0.027	0.000	19.4	1	1
03/03/06	6:07 a	-19.9	-19.8	-19.9	---	---	27.0	ENE	0.45	30.4	-35.2	---	---	731.0	0.027	0.000	19.4	1	1
03/03/06	6:08 a	-20.0	-19.9	-20.0	---	---	29.6	ENE	0.49	31.3	-35.8	---	---	731.2	0.027	0.000	19.5	1	1
03/03/06	6:09 a	-20.1	-20.0	-20.1	---	---	26.1	ENE	0.43	28.7	-35.2	---	---	731.3	0.027	0.000	19.5	1	1
03/03/06	6:10 a	-20.1	-20.1	-20.1	---	---	19.1	ENE	0.32	25.2	-33.5	---	---	731.5	0.027	0.000	19.5	1	1
03/03/06	6:11 a	-20.1	-20.1	-20.1	---	---	16.5	ENE	0.28	27.0	-32.7	---	---	731.4	0.027	0.000	19.6	1	1
03/03/06	6:12 a	-20.0	-20.0	-20.1	---	---	23.5	ENE	0.39	33.9	-34.5	---	---	731.4	0.027	0.000	19.6	1	1
03/03/06	6:13 a	-20.0	-20.0	-20.0	---	---	27.0	ENE	0.45	30.4	-35.3	---	---	731.3	0.027	0.000	19.6	1	1
03/03/06	6:14 a	-20.0	-20.0	-20.0	---	---	23.5	ENE	0.39	26.1	-34.5	---	---	731.3	0.027	0.000	19.6	1	1
03/03/06	6:15 a	-20.0	-20.0	-20.0	---	---	23.5	ENE	0.39	24.3	-34.5	---	---	731.3	0.027	0.000	19.7	1	1
03/03/06	6:16 a	-20.0	-20.0	-20.1	---	---	20.0	ENE	0.33	22.6	-33.6	---	---	731.4	0.027	0.000	19.7	1	1
03/03/06	6:17 a	-20.0	-20.0	-20.1	---	---	19.1	ENE	0.32	26.1	-33.4	---	---	731.3	0.027	0.000	19.7	1	1
03/03/06	6:18 a	-20.0	-20.0	-20.1	---	---	21.7	ENE	0.36	25.2	-34.1	---	---	731.2	0.027	0.000	19.7	1	1
03/03/06	6:19 a	-20.1	-20.1	-20.1	---	---	25.2	ENE	0.42	27.8	-35.0	---	---	731.1	0.027	0.000	19.7	1	1
03/03/06	6:20 a	-20.1	-20.1	-20.1	---	---	24.3	ENE	0.41	27.0	-34.9	---	---	731.2	0.027	0.000	19.7	1	1
03/03/06	6:21 a	-20.1	-20.1	-20.1	---	---	24.3	ENE	0.41	26.1	-34.9	---	---	731.1	0.027	0.000	19.8	1	1
03/03/06	6:22 a	-20.2	-20.1	-20.2	---	---	24.3	ENE	0.41	26.1	-34.9	---	---	731.3	0.027	0.000	19.8	1	1
03/03/06	6:23 a	-20.2	-20.2	-20.2	---	---	22.6	ENE	0.38	24.3	-34.5	---	---	731.3	0.027	0.000	19.8	1	1
03/03/06	6:24 a	-20.2	-20.2	-20.2	---	---	24.3	ENE	0.41	26.1	-35.0	---	---	731.2	0.027	0.000	19.8	1	1
03/03/06	6:25 a	-20.2	-20.2	-20.2	---	---	24.3	ENE	0.41	27.8	-35.0	---	---	731.0	0.027	0.000	19.8	1	1
03/03/06	6:26 a	-20.2	-20.2	-20.2	---	---	26.1	ENE	0.43	28.7	-35.4	---	---	731.3	0.027	0.000	19.8	1	1
03/03/06	6:27 a	-20.2	-20.2	-20.2	---	---	20.9	ENE	0.35	23.5	-34.2	---	---	731.3	0.027	0.000	19.8	1	1
03/03/06	6:28 a	-20.3	-20.2	-20.3	---	---	23.5	ENE	0.39	26.1	-34.9	---	---	731.2	0.027	0.000	19.8	1	1
03/03/06	6:29 a	-20.4	-20.4	-20.6	---	---	24.3	ENE	0.41	27.0	-35.3	---	---	731.4	0.027	0.000	19.8	1	1
03/03/06	6:30 a	-20.6	-20.6	-20.7	---	---	22.6	ENE	0.38	23.5	-35.1	---	---	731.5	0.027	0.000	19.8	1	1
03/03/06	6:31 a	-20.7	-20.7	-20.7	---	---	18.3	ENE	0.30	20.9	-34.1	---	---	731.5	0.027	0.000	19.8	1	1
03/03/06	6:32 a	-20.7	-20.6	-20.7	---	---	20.0	ENE	0.33	23.5	-34.5	---	---	731.4	0.027	0.000	19.8	1	1
03/03/06	6:33 a	-20.6	-20.5	-20.6	---	---	22.6	ENE	0.38	24.3	-35.1	---	---	731.6	0.027	0.000	19.8	1	1
03/03/06	6:34 a	-20.4	-20.4	-20.4	---	---	18.3	ENE	0.30	20.0	-33.7	---	---	731.6	0.027	0.000	19.8	1	1
03/03/06	6:35 a	-20.3	-20.3	-20.4	---	---	15.7	ENE	0.26	18.3	-32.7	---	---	731.7	0.027	0.000	19.8	1	1
03/03/06	6:36 a	-20.2	-20.1	-20.2	---	---	13.0	ENE	0.22	16.5	-31.6	---	---	731.6	0.027	0.000	19.8	1	1
03/03/06	6:37 a	-20.1	-19.9	-20.1	---	---	17.4	ENE	0.29	20.9	-32.9	---	---	731.5	0.027	0.000	19.9	1	1
03/03/06	6:38 a	-19.9	-19.9	-19.9	---	---	21.7	ENE	0.36	25.2	-34.0	---	---	731.4	0.027	0.000	19.9	1	1
03/03/06	6:39 a	-19.8	-19.8	-19.9	---	---	19.1	ENE	0.32	23.5	-33.2	---	---	731.8	0.027	0.000	19.9	1	1
03/03/06	6:40 a	-19.8	-19.8	-19.8	---	---	13.9	ENE	0.23	16.5	-31.4	---	---	731.8	0.026	0.000	19.9	1	1
03/03/06	6:41 a	-19.7	-19.6	-19.7	---	---	13.0	ENE	0.22	14.8	-30.9	---	---	731.8	0.026	0.000	19.9	1	1
03/03/06	6:42 a	-19.7	-19.7	-19.7	---	---	11.3	ENE	0.19	15.7	-30.3	---	---	731.9	0.026	0.000	19.9	1	1
03/03/06	6:43 a	-19.7	-19.7	-19.8	---	---	13.0	ENE	0.22	20.9	-31.0	---	---	731.7	0.026	0.000	19.9	1	1
03/03/06	6:44 a	-19.7	-19.7	-19.7	---	---	24.3	ENE	0.41	29.6	-34.3	---	---	731.7	0.026	0.000	19.9	1	1
03/03/06	6:45 a	-19.7	-19.7	-19.7	---	---	19.1	ENE	0.32	20.9	-32.9	---	---	731.9	0.026	0.000	19.9	1	1
03/03/06	6:46 a	-19.6	-19.6	-19.6	---	---	15.7	ENE	0.26	17.4	-31.8	---	---	731.7	0.026	0.000	19.9	1	1
03/03/06	6:47 a	-19.6	-19.6	-19.6	---	---	17.4	ENE	0.29	18.3	-32.3	---	---	731.6	0.026	0.000	19.9	1	1
03/03/06	6:48 a	-19.6	-19.6	-19.6	---	---	17.4	ENE	0.29	18.3	-32.3	---	---	731.7	0.026	0.000	19.9	1	1
03/03/06	6:49 a	-19.6	-19.6	-19.6	---	---	15.7	ENE	0.26	17.4	-31.7	---	---	731.7	0.026	0.000	19.9	1	1
03/03/06	6:50 a	-19.5	-19.5	-19.6	---	---	14.8	ENE	0.25	16.5	-31.3	---	---	731.7	0.026	0.000	19.9	1	1
03/03/06	6:51 a	-19.5	-19.5	-19.5	---	---	16.5	ENE	0.28	20.0	-31.9	---	---	731.8	0.026	0.000	19.9	1	1
03/03/06	6:52 a	-19.5	-19.5	-19.5	---	---	20.0	ENE	0.33	22.6	-32.9	---	---	731.6	0.026	0.000	19.9	1	1
03/03/06	6:53 a	-19.5	-19.4	-19.5	---	---	18.3	ENE	0.30	21.7	-32.4	---	---	732.0	0.026	0.000	20.0	1	1
03/03/06	6:54 a	-19.4	-19.4	-19.4	---	---	13.9	ENE	0.23	20.0	-30.9	---	---	731.8	0.026	0.000	20.0	1	1
03/03/06	6:55 a	-19.4	-19.4	-19.4	---	---	18.3	ENE	0.30	22.6	-32.4	---	---	732.0	0.026	0.000	20.0	1	1
03/03/06	6:56 a	-19.4	-19.3	-19.4	---	---	13.9	NE	0.23	15.7	-30.9	---	---	731.9	0.026	0.000	20.0	1	1
03/03/06	6:57 a	-19.3	-19.3	-19.3	---	---	16.5	NE	0.28	18.3	-31.7	---	---	732.0	0.026	0.000	20.0	1	1
03/03/06	6:58 a	-19.3	-19.3	-19.3	---	---	15.7	NE	0.26	18.3	-31.4	---	---	731.8	0.026	0.000	20.0	1	1
03/03/06	6:59 a	-19.3	-19.3	-19.3	---	---	15.7	ENE	0.26	19.1	-31.3	---	---	731.8	0.026	0.000	20.0	1	1
03/03/06	7:00 a	-19.3	-19.3	-19.3	---	---	13.9	ENE	0.23	17.4	-30.7	---	---	731.8	0.026	0.000	19.9	1	1
03/03/06	7:01 a	-19.3	-19.3	-19.3	---	---	16.5	ENE	0.28	19.1	-31.7	---	---	731.9	0.026	0.000	19.9	1	1
03/03/06	7:02 a	-19.3	-19.3	-19.3	---	---	14.8	ENE	0.25	20.9	-31.1	---	---	731.6	0.026	0.000	19.9	1	1
03/03/06	7:03 a	-19.3	-19.3	-19.3	---	---	19.1	ENE	0.32	21.7	-32.5	---	---	731.8	0.026	0.000	19.9	1	1
03/03/06	7:04 a	-19.3	-19.3	-19.3	---	---	12.2	ENE	0.20	15.7	-30.2	---	---	731.9	0.026	0.000	19.9	1	1
03/03/06	7:05 a	-19.3	-19.3	-19.3	---	---	11.3	ENE	0.19	16.5	-29.7	---	---	731.8	0.026	0.000	19.8	1	1
03/03/06	7:06 a	-19.2	-19.2	-19.3	---	---	18.3	ENE	0.30	19.1	-32.1	---	---	731.6	0.026	0.000	19.8	1	1
03/03/06	7:07 a	-19.3	-19.3	-19.3	---	---	18.3	ENE	0.30	20.9	-32.2	---	---	731.7	0.026	0.000	19.8	1	1
03/03/06	7:08 a	-19.3	-19.3	-19.3	---	---	12.2	ENE	0.20	15.7	-30.1	---	---	731.6	0.026	0.000	19.8	1	1
03/03/06	7:09 a	-19.3	-19.2	-19.3	---	---	18.3	ENE	0.30	20.9	-32.2	---	---	731.6	0.026	0.000	19.8	1	1
03/03/06	7:10 a	-19.3	-19.3	-19.3	---	---	18.3	ENE	0.30	21.7	-32.2	---	---	731.5	0.026	0.000	19.8	1	1
03/03/06	7:11 a	-19.3	-19.3	-19.4	---	---	17.4	ENE	0.29	19.1	-32.0	---	---	731.6	0.026	0.000	19.7	1	1
03/03/06	7:12 a	-19.4	-19.3	-19.4	---	---	15.7	ENE	0.26	17.4	-31.5	---	---	731.6	0.026	0.000	19.7	1	1
03/03/06	7:13 a	-19.4	-19.4	-19.4	---	---	17.4	ENE	0.29	18.3	-32.1	---	---	731.6	0.026	0.000	19.7	1	1
03/03/06	7:14 a	-19.4	-19.4	-19.4	---	---	16.5	ENE	0.28	18.3	-31.8	---	---	731.6	0.026	0.000	19.7	1	1
03/03/06	7:15 a	-19.4	-19.4	-19.4	---	---	19.1	ENE	0.32	21.7	-32.6	---	---	731.5	0.026	0.000	19.7	1	1
03/03/06	7:16 a	-19.4	-19.4	-19.4	---	---	15.7	ENE	0.26	19.1	-31.6	---	---	731.6	0.026	0.000	19.6	1	1
03/03/06	7:17 a	-19.4	-19.4	-19.4	---	---	17.4	ENE	0.29	19.1	-32.1	---	---	731.7	0.026	0.000	19.6	1	1
03/03/06	7:18 a	-19.4	-19.4	-19.4	---	---	13.9	ENE	0.23	17.4	-30.9	---	---	731.7	0.026	0.000	19.6	1	1
03/03/06	7:19 a	-19.4	-19.3	-19.4	---	---	13.9	ENE	0.23	15.7	-30.9	---	---	731.5	0.026	0.000	19.6	1	1
03/03/06	7:20 a	-19.3	-19.3	-19.4	---	---	19.1	ENE	0.32	23.5	-32.5	---	---	731.7	0.026	0.000	19.5	1	1
03/03/06	7:21 a	-19.3	-19.3	-19.3	---	---	14.8	ENE	0.25	17.4	-31.1	---	---	731.7	0.026	0.000	19.5	1	1
03/03/06	7:22 a	-19.3	-19.3	-19.3	---	---	13.9	ENE	0.23	15.7	-30.7	---	---	731.6	0.026	0.000	19.5	1	1
03/03/06	7:23 a	-19.2	-19.2	-19.3	---	---	9.6	NE	0.16	13.9	-28.8	---	---	731.7	0.026	0.000	19.5	1	1
03/03/06	7:24 a	-19.2	-19.2	-19.2	---	---	18.3	ENE	0.30	22.6	-32.0	---	---	731.6	0.026	0.000	19.5	1	1
03/03/06	7:25 a	-19.2	-19.2	-19.2	---	---	16.5	ENE	0.28	20.0	-31.6	---	---	731.7	0.026	0.000	19.5	1	1
03/03/06	7:26 a	-19.2	-19.2	-19.2	---	---	12.2	ENE	0.20	14.8	-29.9	---	---	731.6	0.026	0.000	19.4	1	1
03/03/06	7:27 a	-19.2	-19.2	-19.2	---	---	17.4	ENE	0.29	20.9	-31.8	---	---	731.6	0.026	0.000	19.4	1	1
03/03/06	7:28 a	-19.2	-19.2	-19.2	---	---	15.7	ENE	0.26	17.4	-31.2	---	---	731.6	0.026	0.000	19.4	1	1
03/03/06	7:29 a	-19.2	-19.2	-19.3	---	---	15.7	ENE	0.26	16.5	-31.3	---	---	731.7	0.026	0.000	19.4	1	1
03/03/06	7:30 a	-19.2	-19.2	-19.3	---	---	7.0	NE	0.12	13.9	-27.3	---	---	731.8	0.026	0.000	19.4	1	1
03/03/06	7:31 a	-19.2	-19.2	-19.2	---	---	9.6	NNE	0.16	11.3	-28.8	---	---	731.7	0.026	0.000	19.4	1	1
03/03/06	7:32 a	-19.1	-19.1	-19.2	---	---	13.0	NE	0.22	20.0	-30.2	---	---	731.7	0.026	0.000	19.4	1	1
03/03/06	7:33 a	-19.1	-19.1	-19.1	---	---	17.4	NE	0.29	22.6	-31.6	---	---	731.8	0.026	0.000	19.4	1	1
03/03/06	7:34 a	-19.1	-19.1	-19.1	---	---	12.2	NE	0.20	16.5	-29.8	---	---	731.9	0.026	0.000	19.3	1	1
03/03/06	7:35 a	-19.1	-19.1	-19.1	---	---	15.7	ENE	0.26	17.4	-31.1	---	---	731.8	0.026	0.000	19.3	1	1
03/03/06	7:36 a	-19.1	-19.1	-19.1	---	---	13.9	ENE	0.23	15.7	-30.6	---	---	731.9	0.026	0.000	19.3	1	1
03/03/06	7:37 a	-19.1	-19.1	-19.1	---	---	14.8	ENE	0.25	18.3	-30.8	---	---	731.9	0.026	0.000	19.2	1	1
03/03/06	7:38 a	-19.1	-19.1	-19.1	---	---	9.6	ENE	0.16	14.8	-28.7	---	---	731.9	0.026	0.000	19.2	1	1
03/03/06	7:39 a	-19.0	-18.9	-19.1	---	---	5.2	NE	0.09	8.7	-25.8	---	---	732.0	0.026	0.000	19.2	1	1
03/03/06	7:40 a	-18.9	-18.8	-18.9	---	---	6.1	ENE	0.10	13.0	-26.3	---	---	731.8	0.026	0.000	19.2	1	1
03/03/06	7:41 a	-18.8	-18.7	-18.8	---	---	8.7	E	0.14	12.2	-27.8	---	---	731.9	0.026	0.000	19.2	1	1
03/03/06	7:42 a	-18.6	-18.6	-18.7	---	---	7.8	ENE	0.13	13.0	-27.1	---	---	731.7	0.026	0.000	19.1	1	1
03/03/06	7:43 a	-18.6	-18.4	-18.6	---	---	13.0	ENE	0.22	14.8	-29.5	---	---	731.9	0.026	0.000	19.1	1	1
03/03/06	7:44 a	-18.4	-18.4	-18.4	---	---	7.8	NE	0.13	11.3	-26.9	---	---	731.8	0.026	0.000	19.1	1	1
03/03/06	7:45 a	-18.3	-18.3	-18.4	---	---	9.6	ENE	0.16	13.0	-27.7	---	---	731.8	0.025	0.000	19.1	1	1
03/03/06	7:46 a	-18.3	-18.3	-18.3	---	---	9.6	NE	0.16	11.3	-27.7	---	---	731.9	0.025	0.000	19.1	1	1
03/03/06	7:47 a	-18.3	-18.3	-18.3	---	---	9.6	NE	0.16	12.2	-27.7	---	---	731.9	0.025	0.000	19.1	1	1
03/03/06	7:48 a	-18.3	-18.3	-18.3	---	---	12.2	NE	0.20	13.9	-28.9	---	---	731.8	0.025	0.000	19.1	1	1
03/03/06	7:49 a	-18.3	-18.3	-18.4	---	---	13.9	NE	0.23	15.7	-29.6	---	---	732.0	0.025	0.000	19.0	1	1
03/03/06	7:50 a	-18.4	-18.3	-18.4	---	---	9.6	NE	0.16	11.3	-27.8	---	---	731.9	0.026	0.000	19.0	1	1
03/03/06	7:51 a	-18.4	-18.4	-18.4	---	---	6.1	NE	0.10	9.6	-25.8	---	---	732.0	0.026	0.000	19.0	1	1
03/03/06	7:52 a	-18.4	-18.4	-18.4	---	---	3.5	NE	0.06	11.3	-23.4	---	---	732.0	0.026	0.000	19.0	1	1
03/03/06	7:53 a	-18.4	-18.4	-18.4	---	---	14.8	NE	0.25	17.4	-29.9	---	---	731.9	0.026	0.000	19.0	1	1
03/03/06	7:54 a	-18.4	-18.4	-18.5	---	---	15.7	NE	0.26	17.4	-30.3	---	---	731.9	0.026	0.000	19.0	1	1
03/03/06	7:55 a	-18.6	-18.6	-18.6	---	---	14.8	ENE	0.25	16.5	-30.1	---	---	732.0	0.026	0.000	19.1	1	1
03/03/06	7:56 a	-18.7	-18.6	-18.7	---	---	11.3	ENE	0.19	13.0	-28.9	---	---	731.9	0.026	0.000	19.1	1	1
03/03/06	7:57 a	-18.7	-18.7	-18.7	---	---	12.2	ENE	0.20	14.8	-29.4	---	---	731.9	0.026	0.000	19.1	1	1
03/03/06	7:58 a	-18.8	-18.7	-18.8	---	---	13.0	ENE	0.22	17.4	-29.8	---	---	731.9	0.026	0.000	19.1	1	1
03/03/06	7:59 a	-18.8	-18.8	-18.8	---	---	10.4	NE	0.17	11.3	-28.7	---	---	732.0	0.026	0.000	19.1	1	1
03/03/06	8:00 a	-18.8	-18.7	-18.8	---	---	6.1	ENE	0.10	13.0	-26.2	---	---	732.0	0.026	0.000	19.1	1	1
03/03/06	8:01 a	-18.7	-18.7	-18.7	---	---	3.5	ENE	0.06	10.4	-23.8	---	---	731.9	0.026	0.000	19.1	1	1
03/03/06	8:02 a	-18.7	-18.7	-18.7	---	---	13.9	ENE	0.23	15.7	-29.9	---	---	731.9	0.026	0.000	19.1	1	1
03/03/06	8:03 a	-18.7	-18.7	-18.7	---	---	13.0	ENE	0.22	13.9	-29.7	---	---	731.9	0.026	0.000	19.1	1	1
03/03/06	8:04 a	-18.7	-18.7	-18.7	---	---	12.2	NE	0.20	13.9	-29.4	---	---	732.0	0.026	0.000	19.1	1	1
03/03/06	8:05 a	-18.7	-18.7	-18.7	---	---	8.7	NE	0.14	12.2	-27.7	---	---	732.0	0.026	0.000	19.1	1	1
03/03/06	8:06 a	-18.7	-18.7	-18.7	---	---	5.2	E	0.09	8.7	-25.4	---	---	731.9	0.026	0.000	19.1	1	1
03/03/06	8:07 a	-18.7	-18.6	-18.7	---	---	10.4	NE	0.17	13.0	-28.6	---	---	732.0	0.026	0.000	19.1	1	1
03/03/06	8:08 a	-18.7	-18.6	-18.7	---	---	13.0	ENE	0.22	14.8	-29.6	---	---	732.0	0.026	0.000	19.1	1	1
03/03/06	8:09 a	-18.7	-18.7	-18.7	---	---	7.8	ENE	0.13	11.3	-27.2	---	---	732.0	0.026	0.000	19.1	1	1
03/03/06	8:10 a	-18.7	-18.6	-18.7	---	---	9.6	ENE	0.16	13.0	-28.1	---	---	731.9	0.026	0.000	19.1	1	1
03/03/06	8:11 a	-18.6	-18.6	-18.7	---	---	13.0	NE	0.22	15.7	-29.6	---	---	731.8	0.026	0.000	19.1	1	1
03/03/06	8:12 a	-18.7	-18.7	-18.7	---	---	11.3	NE	0.19	13.0	-28.9	---	---	731.9	0.026	0.000	19.1	1	1
03/03/06	8:13 a	-18.7	-18.7	-18.7	---	---	10.4	NE	0.17	13.9	-28.6	---	---	731.8	0.026	0.000	19.1	1	1
03/03/06	8:14 a	-18.7	-18.7	-18.7	---	---	12.2	NE	0.20	13.9	-29.4	---	---	731.9	0.026	0.000	19.0	1	1
03/03/06	8:15 a	-18.8	-18.7	-18.8	---	---	9.6	ENE	0.16	12.2	-28.3	---	---	731.9	0.026	0.000	19.0	1	1
03/03/06	8:16 a	-18.8	-18.8	-18.8	---	---	13.0	ENE	0.22	15.7	-29.8	---	---	731.8	0.026	0.000	19.0	1	1
03/03/06	8:17 a	-18.9	-18.8	-18.9	---	---	10.4	ENE	0.17	13.9	-28.8	---	---	731.9	0.026	0.000	19.0	1	1
03/03/06	8:18 a	-18.9	-18.9	-18.9	---	---	7.0	NE	0.12	9.6	-27.0	---	---	731.9	0.026	0.000	19.0	1	1
03/03/06	8:19 a	-18.9	-18.9	-18.9	---	---	13.0	NE	0.22	13.9	-30.0	---	---	731.8	0.026	0.000	19.0	1	1
03/03/06	8:20 a	-18.9	-18.9	-19.0	---	---	12.2	NE	0.20	14.8	-29.7	---	---	731.8	0.026	0.000	19.0	1	1
03/03/06	8:21 a	-19.0	-19.0	-19.0	---	---	7.8	NE	0.13	9.6	-27.6	---	---	731.8	0.026	0.000	19.0	1	1
03/03/06	8:22 a	-19.0	-19.0	-19.0	---	---	12.2	NE	0.20	13.9	-29.7	---	---	731.8	0.026	0.000	19.0	1	1
03/03/06	8:23 a	-19.1	-19.0	-19.1	---	---	11.3	NE	0.19	13.9	-29.4	---	---	731.9	0.026	0.000	19.1	1	1
03/03/06	8:24 a	-19.1	-19.1	-19.1	---	---	11.3	NE	0.19	13.9	-29.4	---	---	731.9	0.026	0.000	19.0	1	1
03/03/06	8:25 a	-19.1	-19.1	-19.2	---	---	8.7	NE	0.14	12.2	-28.2	---	---	732.0	0.026	0.000	19.0	1	1
03/03/06	8:26 a	-19.2	-19.1	-19.2	---	---	8.7	NE	0.14	13.0	-28.3	---	---	731.8	0.026	0.000	19.0	1	1
03/03/06	8:27 a	-19.2	-19.2	-19.2	---	---	10.4	NE	0.17	14.8	-29.2	---	---	731.9	0.026	0.000	19.0	1	1
03/03/06	8:28 a	-19.2	-19.2	-19.2	---	---	7.8	NE	0.13	11.3	-27.9	---	---	732.0	0.026	0.000	19.0	1	1
03/03/06	8:29 a	-19.2	-19.2	-19.2	---	---	8.7	NE	0.14	12.2	-28.3	---	---	731.9	0.026	0.000	19.0	1	1
03/03/06	8:30 a	-19.2	-19.2	-19.2	---	---	9.6	NE	0.16	11.3	-28.8	---	---	731.9	0.026	0.000	19.0	1	1
03/03/06	8:31 a	-19.2	-19.2	-19.2	---	---	8.7	NE	0.14	12.2	-28.3	---	---	732.0	0.026	0.000	19.0	1	1
03/03/06	8:32 a	-19.2	-19.1	-19.2	---	---	7.8	NE	0.13	11.3	-27.8	---	---	731.9	0.026	0.000	19.0	1	1
03/03/06	8:33 a	-19.1	-19.1	-19.2	---	---	11.3	NE	0.19	13.9	-29.5	---	---	731.9	0.026	0.000	19.0	1	1
03/03/06	8:34 a	-19.1	-19.1	-19.1	---	---	8.7	NE	0.14	10.4	-28.2	---	---	731.9	0.026	0.000	19.0	1	1
03/03/06	8:35 a	-19.1	-19.1	-19.1	---	---	10.4	NE	0.17	12.2	-29.1	---	---	731.9	0.026	0.000	19.0	1	1
03/03/06	8:36 a	-19.1	-19.1	-19.1	---	---	13.0	NE	0.22	14.8	-30.1	---	---	731.8	0.026	0.000	18.9	1	1
03/03/06	8:37 a	-19.1	-19.1	-19.1	---	---	13.0	NE	0.22	14.8	-30.1	---	---	731.8	0.026	0.000	18.9	1	1
03/03/06	8:38 a	-19.1	-19.1	-19.1	---	---	11.3	NE	0.19	13.9	-29.5	---	---	731.9	0.026	0.000	18.9	1	1
03/03/06	8:39 a	-19.1	-19.1	-19.2	---	---	11.3	NE	0.19	14.8	-29.5	---	---	731.8	0.026	0.000	18.9	1	1
03/03/06	8:40 a	-19.2	-19.2	-19.2	---	---	13.0	NE	0.22	14.8	-30.3	---	---	731.8	0.026	0.000	18.9	1	1
03/03/06	8:41 a	-19.3	-19.2	-19.3	---	---	13.0	NE	0.22	14.8	-30.4	---	---	731.8	0.026	0.000	18.9	1	1
03/03/06	8:42 a	-19.3	-19.3	-19.3	---	---	10.4	NE	0.17	13.9	-29.4	---	---	731.9	0.026	0.000	18.9	1	1
03/03/06	8:43 a	-19.3	-19.3	-19.4	---	---	12.2	NE	0.20	13.0	-30.2	---	---	731.8	0.026	0.000	18.9	1	1
03/03/06	8:44 a	-19.4	-19.4	-19.4	---	---	11.3	NE	0.19	11.3	-29.8	---	---	731.8	0.026	0.000	18.9	1	1
03/03/06	8:45 a	-19.4	-19.4	-19.4	---	---	11.3	NE	0.19	13.0	-29.8	---	---	731.9	0.026	0.000	18.9	1	1
03/03/06	8:46 a	-19.4	-19.4	-19.4	---	---	10.4	NE	0.17	13.0	-29.4	---	---	731.8	0.026	0.000	18.9	1	1
03/03/06	8:47 a	-19.4	-19.4	-19.4	---	---	11.3	NE	0.19	13.9	-29.8	---	---	731.7	0.026	0.000	18.9	1	1
03/03/06	8:48 a	-19.4	-19.4	-19.4	---	---	9.6	NE	0.16	11.3	-29.1	---	---	731.8	0.026	0.000	18.9	1	1
03/03/06	8:49 a	-19.4	-19.4	-19.4	---	---	9.6	NE	0.16	12.2	-29.1	---	---	731.7	0.026	0.000	18.8	1	1
03/03/06	8:50 a	-19.4	-19.4	-19.4	---	---	10.4	NE	0.17	12.2	-29.4	---	---	731.6	0.026	0.000	18.8	1	1
03/03/06	8:51 a	-19.4	-19.4	-19.4	---	---	9.6	NE	0.16	12.2	-29.1	---	---	731.6	0.026	0.000	18.8	1	1
03/03/06	8:52 a	-19.4	-19.4	-19.4	---	---	7.8	NE	0.13	9.6	-28.1	---	---	731.6	0.026	0.000	18.8	1	1
03/03/06	8:53 a	-19.4	-19.3	-19.4	---	---	7.8	NE	0.13	8.7	-28.1	---	---	731.7	0.026	0.000	18.8	1	1
03/03/06	8:54 a	-19.3	-19.3	-19.3	---	---	7.8	NE	0.13	9.6	-28.0	---	---	731.7	0.026	0.000	18.8	1	1
03/03/06	8:55 a	-19.3	-19.3	-19.3	---	---	8.7	NE	0.14	10.4	-28.4	---	---	731.7	0.026	0.000	18.8	1	1
03/03/06	8:56 a	-19.3	-19.2	-19.3	---	---	8.7	NE	0.14	9.6	-28.4	---	---	731.6	0.026	0.000	18.8	1	1
03/03/06	8:57 a	-19.2	-19.2	-19.2	---	---	8.7	NE	0.14	9.6	-28.4	---	---	731.6	0.026	0.000	18.8	1	1
03/03/06	8:58 a	-19.2	-19.2	-19.3	---	---	7.0	NE	0.12	7.8	-27.3	---	---	731.5	0.026	0.000	18.8	1	1
03/03/06	8:59 a	-19.3	-19.2	-19.3	---	---	6.1	NE	0.10	7.8	-26.8	---	---	731.7	0.026	0.000	18.8	1	1
03/03/06	9:00 a	-19.3	-19.2	-19.3	---	---	7.0	NE	0.12	7.8	-27.4	---	---	731.6	0.026	0.000	18.8	1	1
03/03/06	9:01 a	-19.3	-19.3	-19.3	---	---	6.1	NE	0.10	7.8	-26.8	---	---	731.6	0.026	0.000	18.8	1	1
03/03/06	9:02 a	-19.4	-19.3	-19.4	---	---	5.2	NE	0.09	7.8	-26.2	---	---	731.6	0.026	0.000	18.8	1	1
03/03/06	9:03 a	-19.5	-19.4	-19.5	---	---	7.0	NE	0.12	10.4	-27.7	---	---	731.5	0.026	0.000	18.8	1	1
03/03/06	9:04 a	-19.6	-19.5	-19.6	---	---	9.6	NE	0.16	10.4	-29.2	---	---	731.6	0.026	0.000	18.8	1	1
03/03/06	9:05 a	-19.7	-19.6	-19.7	---	---	9.6	NE	0.16	11.3	-29.4	---	---	731.6	0.026	0.000	18.8	1	1
03/03/06	9:06 a	-19.8	-19.7	-19.8	---	---	8.7	NE	0.14	9.6	-29.1	---	---	731.6	0.026	0.000	18.8	1	1
03/03/06	9:07 a	-19.8	-19.8	-19.9	---	---	7.0	NE	0.12	7.8	-28.1	---	---	731.6	0.027	0.000	18.8	1	1
03/03/06	9:08 a	-19.9	-19.9	-19.9	---	---	3.5	NE	0.06	6.1	-25.2	---	---	731.7	0.027	0.000	18.8	1	1
03/03/06	9:09 a	-20.0	-19.9	-20.0	---	---	1.7	NE	0.03	4.3	-22.5	---	---	731.7	0.027	0.000	18.8	1	1
03/03/06	9:10 a	-20.1	-20.0	-20.1	---	---	7.0	W	0.12	8.7	-28.3	---	---	731.8	0.027	0.000	18.8	1	1
03/03/06	9:11 a	-20.1	-20.0	-20.1	---	---	5.2	WNW	0.09	6.1	-27.1	---	---	731.7	0.027	0.000	18.8	1	1
03/03/06	9:12 a	-20.0	-19.9	-20.1	---	---	4.3	NW	0.07	5.2	-26.2	---	---	731.7	0.027	0.000	18.8	1	1
03/03/06	9:13 a	-20.0	-20.0	-20.0	---	---	4.3	NW	0.07	5.2	-26.2	---	---	731.6	0.027	0.000	18.8	1	1
03/03/06	9:14 a	-20.0	-19.9	-20.0	---	---	2.6	NNW	0.04	4.3	-24.1	---	---	731.5	0.027	0.000	18.8	1	1
03/03/06	9:15 a	-20.0	-19.9	-20.0	---	---	6.1	N	0.10	7.0	-27.7	---	---	731.5	0.027	0.000	18.8	1	1
03/03/06	9:16 a	-20.0	-19.9	-20.0	---	---	6.1	N	0.10	6.1	-27.7	---	---	731.6	0.027	0.000	18.8	1	1
03/03/06	9:17 a	-19.9	-19.9	-19.9	---	---	4.3	N	0.07	6.1	-26.1	---	---	731.6	0.027	0.000	18.8	1	1
03/03/06	9:18 a	-19.8	-19.7	-19.9	---	---	5.2	N	0.09	7.8	-26.8	---	---	731.7	0.027	0.000	18.8	1	1
03/03/06	9:19 a	-19.7	-19.6	-19.7	---	---	6.1	NW	0.10	7.0	-27.3	---	---	731.7	0.026	0.000	18.8	1	1
03/03/06	9:20 a	-19.6	-19.5	-19.6	---	---	3.5	NNW	0.06	5.2	-24.7	---	---	731.7	0.026	0.000	18.8	1	1
03/03/06	9:21 a	-19.4	-19.4	-19.5	---	---	2.6	NNW	0.04	3.5	-23.4	---	---	731.6	0.026	0.000	18.8	1	1
03/03/06	9:22 a	-19.4	-19.3	-19.4	---	---	2.6	NNW	0.04	4.3	-23.4	---	---	731.7	0.026	0.000	18.8	1	1
03/03/06	9:23 a	-19.3	-19.2	-19.3	---	---	3.5	N	0.06	4.3	-24.4	---	---	731.6	0.026	0.000	18.8	1	1
03/03/06	9:24 a	-19.2	-19.1	-19.2	---	---	4.3	N	0.07	6.1	-25.2	---	---	731.6	0.026	0.000	18.8	1	1
03/03/06	9:25 a	-19.1	-19.0	-19.1	---	---	4.3	N	0.07	5.2	-25.1	---	---	731.7	0.026	0.000	18.8	1	1
03/03/06	9:26 a	-18.9	-18.9	-19.0	---	---	2.6	N	0.04	3.5	-22.9	---	---	731.7	0.026	0.000	18.8	1	1
03/03/06	9:27 a	-18.8	-18.8	-18.8	---	---	2.6	N	0.04	3.5	-22.7	---	---	731.6	0.026	0.000	18.8	1	1
03/03/06	9:28 a	-18.7	-18.7	-18.7	---	---	3.5	N	0.06	3.5	-23.8	---	---	731.6	0.026	0.000	18.8	1	1
03/03/06	9:29 a	-18.6	-18.5	-18.7	---	---	3.5	N	0.06	4.3	-23.6	---	---	731.6	0.026	0.000	18.8	1	1
03/03/06	9:30 a	-18.4	-18.4	-18.5	---	---	2.6	N	0.04	3.5	-22.3	---	---	731.6	0.026	0.000	18.8	1	1
03/03/06	9:31 a	-18.3	-18.2	-18.4	---	---	3.5	N	0.06	4.3	-23.3	---	---	731.7	0.025	0.000	18.8	1	1
03/03/06	9:32 a	-18.2	-18.2	-18.2	---	---	4.3	N	0.07	4.3	-24.1	---	---	731.7	0.025	0.000	18.8	1	1
03/03/06	9:33 a	-18.1	-18.1	-18.2	---	---	5.2	NNW	0.09	7.0	-24.7	---	---	731.8	0.025	0.000	18.8	1	1
03/03/06	9:34 a	-18.1	-18.1	-18.1	---	---	6.1	NW	0.10	7.0	-25.4	---	---	731.9	0.025	0.000	18.8	1	1
03/03/06	9:35 a	-18.1	-18.1	-18.1	---	---	5.2	WNW	0.09	6.1	-24.7	---	---	731.9	0.025	0.000	18.8	1	1
03/03/06	9:36 a	-18.2	-18.2	-18.2	---	---	3.5	WNW	0.06	4.3	-23.1	---	---	731.9	0.025	0.000	18.8	1	1
03/03/06	9:37 a	-18.3	-18.2	-18.4	---	---	3.5	WNW	0.06	4.3	-23.2	---	---	731.8	0.025	0.000	18.8	1	1
03/03/06	9:38 a	-18.4	-18.4	-18.5	---	---	3.5	WNW	0.06	3.5	-23.4	---	---	731.8	0.026	0.000	18.8	1	1
03/03/06	9:39 a	-18.6	-18.5	-18.7	---	---	3.5	WNW	0.06	3.5	-23.6	---	---	731.7	0.026	0.000	18.8	1	1
03/03/06	9:40 a	-18.7	-18.7	-18.7	---	---	2.6	WNW	0.04	2.6	-22.6	---	---	731.8	0.026	0.000	18.8	1	1
03/03/06	9:41 a	-18.8	-18.7	-18.8	---	---	2.6	WNW	0.04	3.5	-22.7	---	---	731.9	0.026	0.000	18.8	1	1
03/03/06	9:42 a	-18.9	-18.9	-18.9	---	---	3.5	WNW	0.06	4.3	-23.9	---	---	731.9	0.026	0.000	18.8	1	1
03/03/06	9:43 a	-19.0	-18.9	-19.1	---	---	2.6	WNW	0.04	3.5	-22.9	---	---	731.8	0.026	0.000	18.8	1	1
03/03/06	9:44 a	-19.1	-19.1	-19.1	---	---	2.6	WNW	0.04	3.5	-23.1	---	---	731.8	0.026	0.000	18.8	1	1
03/03/06	9:45 a	-19.2	-19.1	-19.2	---	---	2.6	WNW	0.04	3.5	-23.1	---	---	731.7	0.026	0.000	18.8	1	1
03/03/06	9:46 a	-19.2	-19.2	-19.2	---	---	3.5	WNW	0.06	4.3	-24.3	---	---	731.7	0.026	0.000	18.8	1	1
03/03/06	9:47 a	-19.2	-19.2	-19.2	---	---	3.5	NW	0.06	4.3	-24.3	---	---	731.7	0.026	0.000	18.8	1	1
03/03/06	9:48 a	-19.2	-19.2	-19.3	---	---	3.5	NW	0.06	4.3	-24.3	---	---	731.6	0.026	0.000	18.8	1	1
03/03/06	9:49 a	-19.2	-19.2	-19.3	---	---	3.5	NW	0.06	5.2	-24.3	---	---	731.7	0.026	0.000	18.8	1	1
03/03/06	9:50 a	-19.3	-19.3	-19.3	---	---	4.3	NW	0.07	4.3	-25.3	---	---	731.7	0.026	0.000	18.8	1	1
03/03/06	9:51 a	-19.3	-19.3	-19.3	---	---	3.5	NW	0.06	4.3	-24.4	---	---	731.5	0.026	0.000	18.8	1	1
03/03/06	9:52 a	-19.3	-19.3	-19.3	---	---	3.5	NW	0.06	4.3	-24.4	---	---	731.6	0.026	0.000	18.8	1	1
03/03/06	9:53 a	-19.3	-19.3	-19.4	---	---	2.6	NW	0.04	3.5	-23.3	---	---	731.6	0.026	0.000	18.8	1	1
03/03/06	9:54 a	-19.3	-19.3	-19.3	---	---	2.6	NW	0.04	3.5	-23.3	---	---	731.6	0.026	0.000	18.8	1	1
03/03/06	9:55 a	-19.4	-19.3	-19.4	---	---	2.6	NW	0.04	3.5	-23.4	---	---	731.6	0.026	0.000	18.8	1	1
03/03/06	9:56 a	-19.3	-19.3	-19.3	---	---	3.5	NW	0.06	3.5	-24.4	---	---	731.7	0.026	0.000	18.8	1	1
03/03/06	9:57 a	-19.3	-19.3	-19.4	---	---	3.5	NW	0.06	3.5	-24.4	---	---	731.6	0.026	0.000	18.8	1	1
03/03/06	9:58 a	-19.3	-19.3	-19.4	---	---	2.6	NW	0.04	3.5	-23.3	---	---	731.5	0.026	0.000	18.8	1	1
03/03/06	9:59 a	-19.4	-19.3	-19.4	---	---	2.6	NW	0.04	2.6	-23.4	---	---	731.5	0.026	0.000	18.8	1	1
03/03/06	10:00 a	-19.3	-19.3	-19.3	---	---	1.7	NW	0.03	2.6	-21.8	---	---	731.6	0.026	0.000	18.8	1	1
03/03/06	10:01 a	-19.3	-19.3	-19.3	---	---	1.7	NW	0.03	2.6	-21.8	---	---	731.4	0.026	0.000	18.8	1	1
03/03/06	10:02 a	-19.3	-19.3	-19.3	---	---	1.7	NW	0.03	2.6	-21.7	---	---	731.6	0.026	0.000	18.8	1	1
03/03/06	10:03 a	-19.3	-19.3	-19.3	---	---	2.6	NW	0.04	2.6	-23.3	---	---	731.5	0.026	0.000	18.8	1	1
03/03/06	10:04 a	-19.3	-19.3	-19.3	---	---	2.6	NW	0.04	4.3	-23.2	---	---	731.5	0.026	0.000	18.8	1	1
03/03/06	10:05 a	-19.2	-19.2	-19.3	---	---	2.6	NW	0.04	3.5	-23.2	---	---	731.3	0.026	0.000	18.7	1	1
03/03/06	10:06 a	-19.2	-19.2	-19.3	---	---	2.6	NW	0.04	3.5	-23.2	---	---	731.4	0.026	0.000	18.7	1	1
03/03/06	10:07 a	-19.2	-19.2	-19.2	---	---	3.5	NW	0.06	4.3	-24.3	---	---	731.3	0.026	0.000	18.7	1	1
03/03/06	10:08 a	-19.2	-19.1	-19.2	---	---	3.5	NW	0.06	4.3	-24.3	---	---	731.3	0.026	0.000	18.7	1	1
03/03/06	10:09 a	-19.1	-19.1	-19.1	---	---	4.3	NW	0.07	4.3	-25.1	---	---	731.3	0.026	0.000	18.7	1	1
03/03/06	10:10 a	-19.1	-19.1	-19.1	---	---	3.5	NW	0.06	4.3	-24.1	---	---	731.3	0.026	0.000	18.7	1	1
03/03/06	10:11 a	-19.1	-19.0	-19.1	---	---	3.5	NW	0.06	3.5	-24.1	---	---	731.3	0.026	0.000	18.7	1	1
03/03/06	10:12 a	-19.0	-18.9	-19.0	---	---	3.5	NW	0.06	4.3	-24.1	---	---	731.3	0.026	0.000	18.7	1	1
03/03/06	10:13 a	-18.9	-18.9	-19.0	---	---	3.5	NW	0.06	4.3	-24.0	---	---	731.4	0.026	0.000	18.7	1	1
03/03/06	10:14 a	-18.9	-18.9	-18.9	---	---	4.3	NW	0.07	5.2	-24.9	---	---	731.4	0.026	0.000	18.7	1	1
03/03/06	10:15 a	-18.9	-18.9	-18.9	---	---	5.2	NW	0.09	5.2	-25.7	---	---	731.5	0.026	0.000	18.7	1	1
03/03/06	10:16 a	-18.9	-18.9	-18.9	---	---	5.2	NW	0.09	6.1	-25.7	---	---	731.4	0.026	0.000	18.7	1	1
03/03/06	10:17 a	-18.9	-18.9	-18.9	---	---	4.3	NW	0.07	5.2	-24.9	---	---	731.4	0.026	0.000	18.7	1	1
03/03/06	10:18 a	-18.9	-18.9	-18.9	---	---	5.2	NW	0.09	6.1	-25.7	---	---	731.5	0.026	0.000	18.7	1	1
03/03/06	10:19 a	-18.9	-18.9	-18.9	---	---	5.2	NW	0.09	6.1	-25.7	---	---	731.5	0.026	0.000	18.7	1	1
03/03/06	10:20 a	-18.9	-18.9	-18.9	---	---	5.2	NW	0.09	6.1	-25.7	---	---	731.5	0.026	0.000	18.7	1	1
03/03/06	10:21 a	-18.9	-18.9	-18.9	---	---	4.3	NW	0.07	5.2	-24.9	---	---	731.4	0.026	0.000	18.7	1	1
03/03/06	10:22 a	-18.9	-18.9	-18.9	---	---	4.3	NW	0.07	5.2	-24.9	---	---	731.6	0.026	0.000	18.7	1	1
03/03/06	10:23 a	-18.9	-18.9	-18.9	---	---	5.2	NW	0.09	7.0	-25.7	---	---	731.5	0.026	0.000	18.7	1	1
03/03/06	10:24 a	-18.9	-18.9	-19.0	---	---	5.2	NW	0.09	6.1	-25.7	---	---	731.4	0.026	0.000	18.7	1	1
03/03/06	10:25 a	-19.0	-18.9	-19.0	---	---	6.1	NW	0.10	7.0	-26.4	---	---	731.5	0.026	0.000	18.7	1	1
03/03/06	10:26 a	-18.9	-18.9	-18.9	---	---	6.1	NW	0.10	7.0	-26.4	---	---	731.5	0.026	0.000	18.7	1	1
03/03/06	10:27 a	-18.9	-18.9	-18.9	---	---	6.1	NW	0.10	7.0	-26.4	---	---	731.5	0.026	0.000	18.7	1	1
03/03/06	10:28 a	-18.9	-18.9	-18.9	---	---	5.2	NW	0.09	6.1	-25.7	---	---	731.5	0.026	0.000	18.7	1	1
03/03/06	10:29 a	-18.9	-18.9	-18.9	---	---	5.2	NW	0.09	6.1	-25.7	---	---	731.6	0.026	0.000	18.7	1	1
03/03/06	10:30 a	-19.0	-18.9	-19.0	---	---	5.2	NW	0.09	6.1	-25.8	---	---	731.6	0.026	0.000	18.7	1	1
03/03/06	10:31 a	-19.0	-19.0	-19.1	---	---	5.2	WNW	0.09	6.1	-25.8	---	---	731.6	0.026	0.000	18.7	1	1
03/03/06	10:32 a	-19.1	-19.1	-19.1	---	---	5.2	WNW	0.09	6.1	-25.9	---	---	731.6	0.026	0.000	18.7	1	1
03/03/06	10:33 a	-19.2	-19.1	-19.2	---	---	5.2	WNW	0.09	6.1	-26.0	---	---	731.7	0.026	0.000	18.7	1	1
03/03/06	10:34 a	-19.2	-19.2	-19.2	---	---	5.2	WNW	0.09	6.1	-26.1	---	---	731.7	0.026	0.000	18.7	1	1
03/03/06	10:35 a	-19.3	-19.3	-19.3	---	---	4.3	WNW	0.07	4.3	-25.3	---	---	731.7	0.026	0.000	18.7	1	1
03/03/06	10:36 a	-19.3	-19.3	-19.3	---	---	3.5	WNW	0.06	3.5	-24.4	---	---	731.6	0.026	0.000	18.7	1	1
03/03/06	10:37 a	-19.4	-19.4	-19.4	---	---	2.6	WNW	0.04	3.5	-23.4	---	---	731.6	0.026	0.000	18.7	1	1
03/03/06	10:38 a	-19.4	-19.4	-19.4	---	---	2.6	WNW	0.04	3.5	-23.4	---	---	731.6	0.026	0.000	18.7	1	1
03/03/06	10:39 a	-19.4	-19.4	-19.5	---	---	2.6	WNW	0.04	3.5	-23.4	---	---	731.6	0.026	0.000	18.7	1	1
03/03/06	10:40 a	-19.5	-19.5	-19.5	---	---	2.6	WNW	0.04	3.5	-23.5	---	---	731.7	0.026	0.000	18.7	1	1
03/03/06	10:41 a	-19.5	-19.5	-19.6	---	---	2.6	WNW	0.04	3.5	-23.5	---	---	731.6	0.026	0.000	18.8	1	1
03/03/06	10:42 a	-19.5	-19.5	-19.6	---	---	2.6	WNW	0.04	3.5	-23.5	---	---	731.7	0.026	0.000	18.7	1	1
03/03/06	10:43 a	-19.6	-19.6	-19.6	---	---	3.5	WNW	0.06	3.5	-24.7	---	---	731.5	0.026	0.000	18.8	1	1
03/03/06	10:44 a	-19.6	-19.6	-19.6	---	---	3.5	WNW	0.06	4.3	-24.7	---	---	731.6	0.026	0.000	18.8	1	1
03/03/06	10:45 a	-19.6	-19.6	-19.6	---	---	3.5	WNW	0.06	4.3	-24.7	---	---	731.5	0.026	0.000	18.8	1	1
03/03/06	10:46 a	-19.6	-19.6	-19.6	---	---	2.6	WNW	0.04	3.5	-23.6	---	---	731.4	0.026	0.000	18.8	1	1
03/03/06	10:47 a	-19.7	-19.6	-19.7	---	---	2.6	WNW	0.04	2.6	-23.7	---	---	731.5	0.026	0.000	18.7	1	1
03/03/06	10:48 a	-19.7	-19.6	-19.7	---	---	1.7	WNW	0.03	2.6	-22.1	---	---	731.4	0.026	0.000	18.7	1	1
03/03/06	10:49 a	-19.6	-19.6	-19.7	---	---	1.7	WNW	0.03	2.6	-22.1	---	---	731.3	0.026	0.000	18.7	1	1
03/03/06	10:50 a	-19.6	-19.6	-19.7	---	---	3.5	WNW	0.06	4.3	-24.8	---	---	731.3	0.026	0.000	18.8	1	1
03/03/06	10:51 a	-19.7	-19.6	-19.7	---	---	3.5	WNW	0.06	4.3	-24.8	---	---	731.2	0.026	0.000	18.8	1	1
03/03/06	10:52 a	-19.7	-19.6	-19.7	---	---	4.3	WNW	0.07	5.2	-25.8	---	---	731.3	0.026	0.000	18.8	1	1
03/03/06	10:53 a	-19.7	-19.6	-19.7	---	---	4.3	WNW	0.07	5.2	-25.8	---	---	731.3	0.026	0.000	18.8	1	1
03/03/06	10:54 a	-19.7	-19.7	-19.7	---	---	5.2	NW	0.09	5.2	-26.6	---	---	731.3	0.026	0.000	18.8	1	1
03/03/06	10:55 a	-19.7	-19.7	-19.7	---	---	5.2	NW	0.09	6.1	-26.6	---	---	731.3	0.026	0.000	18.8	1	1
03/03/06	10:56 a	-19.7	-19.7	-19.7	---	---	4.3	NW	0.07	5.2	-25.8	---	---	731.3	0.026	0.000	18.8	1	1
03/03/06	10:57 a	-19.7	-19.7	-19.7	---	---	4.3	WNW	0.07	6.1	-25.8	---	---	731.3	0.026	0.000	18.8	1	1
03/03/06	10:58 a	-19.7	-19.6	-19.7	---	---	5.2	WNW	0.09	6.1	-26.6	---	---	731.4	0.026	0.000	18.8	1	1
03/03/06	10:59 a	-19.6	-19.6	-19.6	---	---	5.2	WNW	0.09	7.0	-26.5	---	---	731.4	0.026	0.000	18.8	1	1
03/03/06	11:00 a	-19.7	-19.6	-19.7	---	---	6.1	WNW	0.10	7.0	-27.3	---	---	731.4	0.026	0.000	18.8	1	1
03/03/06	11:01 a	-19.6	-19.6	-19.6	---	---	5.2	WNW	0.09	6.1	-26.5	---	---	731.4	0.026	0.000	18.8	1	1
03/03/06	11:02 a	-19.6	-19.6	-19.6	---	---	5.2	WNW	0.09	6.1	-26.5	---	---	731.3	0.026	0.000	18.8	1	1
03/03/06	11:03 a	-19.6	-19.6	-19.6	---	---	4.3	WNW	0.07	5.2	-25.7	---	---	731.4	0.026	0.000	18.8	1	1
03/03/06	11:04 a	-19.6	-19.5	-19.6	---	---	2.6	WNW	0.04	3.5	-23.6	---	---	731.3	0.026	0.000	18.8	1	1
03/03/06	11:05 a	-19.6	-19.6	-19.6	---	---	4.3	WNW	0.07	5.2	-25.7	---	---	731.4	0.026	0.000	18.8	1	1
03/03/06	11:06 a	-19.6	-19.6	-19.6	---	---	4.3	WNW	0.07	6.1	-25.7	---	---	731.4	0.026	0.000	18.8	1	1
03/03/06	11:07 a	-19.6	-19.5	-19.6	---	---	6.1	NW	0.10	7.0	-27.1	---	---	731.3	0.026	0.000	18.8	1	1
03/03/06	11:08 a	-19.6	-19.6	-19.6	---	---	5.2	NW	0.09	6.1	-26.4	---	---	731.2	0.026	0.000	18.8	1	1
03/03/06	11:09 a	-19.6	-19.6	-19.6	---	---	6.1	NW	0.10	7.0	-27.1	---	---	731.2	0.026	0.000	18.8	1	1
03/03/06	11:10 a	-19.6	-19.6	-19.6	---	---	5.2	NW	0.09	7.0	-26.4	---	---	731.2	0.026	0.000	18.8	1	1
03/03/06	11:11 a	-19.6	-19.6	-19.6	---	---	5.2	NW	0.09	7.0	-26.4	---	---	731.3	0.026	0.000	18.7	1	1
03/03/06	11:12 a	-19.6	-19.6	-19.6	---	---	5.2	NW	0.09	7.0	-26.5	---	---	731.2	0.026	0.000	18.7	1	1
03/03/06	11:13 a	-19.6	-19.6	-19.6	---	---	5.2	NW	0.09	6.1	-26.5	---	---	731.2	0.026	0.000	18.7	1	1
03/03/06	11:14 a	-19.6	-19.6	-19.6	---	---	4.3	NW	0.07	7.0	-25.7	---	---	731.2	0.026	0.000	18.7	1	1
03/03/06	11:15 a	-19.6	-19.6	-19.7	---	---	7.0	NW	0.12	7.8	-27.8	---	---	731.2	0.026	0.000	18.7	1	1
03/03/06	11:16 a	-19.6	-19.6	-19.6	---	---	6.1	WNW	0.10	7.8	-27.2	---	---	731.3	0.026	0.000	18.7	1	1
03/03/06	11:17 a	-19.7	-19.6	-19.7	---	---	7.0	WNW	0.12	10.4	-27.9	---	---	731.2	0.026	0.000	18.7	1	1
03/03/06	11:18 a	-19.6	-19.6	-19.6	---	---	6.1	NW	0.10	9.6	-27.2	---	---	731.3	0.026	0.000	18.7	1	1
03/03/06	11:19 a	-19.6	-19.5	-19.6	---	---	5.2	WNW	0.09	6.1	-26.4	---	---	731.3	0.026	0.000	18.7	1	1
03/03/06	11:20 a	-19.6	-19.5	-19.6	---	---	5.2	WNW	0.09	6.1	-26.4	---	---	731.2	0.026	0.000	18.7	1	1
03/03/06	11:21 a	-19.5	-19.5	-19.6	---	---	6.1	NW	0.10	7.0	-27.1	---	---	731.2	0.026	0.000	18.7	1	1
03/03/06	11:22 a	-19.5	-19.5	-19.5	---	---	6.1	WNW	0.10	7.0	-27.1	---	---	731.0	0.026	0.000	18.7	1	1
03/03/06	11:23 a	-19.5	-19.5	-19.5	---	---	7.0	WNW	0.12	8.7	-27.7	---	---	731.1	0.026	0.000	18.7	1	1
03/03/06	11:24 a	-19.5	-19.5	-19.5	---	---	7.8	NW	0.13	8.7	-28.2	---	---	731.1	0.026	0.000	18.7	1	1
03/03/06	11:25 a	-19.5	-19.5	-19.6	---	---	7.8	WNW	0.13	8.7	-28.2	---	---	731.2	0.026	0.000	18.7	1	1
03/03/06	11:26 a	-19.5	-19.4	-19.5	---	---	7.0	WNW	0.12	7.8	-27.7	---	---	731.1	0.026	0.000	18.7	1	1
03/03/06	11:27 a	-19.4	-19.4	-19.5	---	---	5.2	WNW	0.09	6.1	-26.3	---	---	731.1	0.026	0.000	18.7	1	1
03/03/06	11:28 a	-19.4	-19.4	-19.5	---	---	4.3	WNW	0.07	5.2	-25.5	---	---	731.1	0.026	0.000	18.7	1	1
03/03/06	11:29 a	-19.4	-19.4	-19.4	---	---	5.2	WNW	0.09	7.0	-26.2	---	---	731.1	0.026	0.000	18.7	1	1
03/03/06	11:30 a	-19.4	-19.3	-19.4	---	---	7.0	WNW	0.12	7.8	-27.6	---	---	731.1	0.026	0.000	18.7	1	1
03/03/06	11:31 a	-19.3	-19.3	-19.4	---	---	6.1	W	0.10	7.0	-26.8	---	---	731.1	0.026	0.000	18.7	1	1
03/03/06	11:32 a	-19.3	-19.3	-19.3	---	---	7.0	WNW	0.12	7.8	-27.4	---	---	731.0	0.026	0.000	18.7	1	1
03/03/06	11:33 a	-19.3	-19.3	-19.3	---	---	7.8	WNW	0.13	8.7	-28.0	---	---	731.0	0.026	0.000	18.7	1	1
03/03/06	11:34 a	-19.3	-19.3	-19.3	---	---	8.7	WNW	0.14	10.4	-28.5	---	---	730.9	0.026	0.000	18.6	1	1
03/03/06	11:35 a	-19.3	-19.3	-19.3	---	---	7.8	WNW	0.13	8.7	-27.9	---	---	730.9	0.026	0.000	18.7	1	1
03/03/06	11:36 a	-19.3	-19.2	-19.3	---	---	7.8	WNW	0.13	9.6	-27.9	---	---	730.8	0.026	0.000	18.6	1	1
03/03/06	11:37 a	-19.2	-19.2	-19.3	---	---	8.7	WNW	0.14	8.7	-28.4	---	---	730.8	0.026	0.000	18.6	1	1
03/03/06	11:38 a	-19.3	-19.2	-19.3	---	---	8.7	NW	0.14	10.4	-28.4	---	---	730.7	0.026	0.000	18.6	1	1
03/03/06	11:39 a	-19.2	-19.2	-19.3	---	---	11.3	NW	0.19	13.0	-29.6	---	---	730.7	0.026	0.000	18.6	1	1
03/03/06	11:40 a	-19.2	-19.1	-19.2	---	---	11.3	WNW	0.19	13.9	-29.6	---	---	730.8	0.026	0.000	18.6	1	1
03/03/06	11:41 a	-19.1	-19.1	-19.2	---	---	8.7	WNW	0.14	9.6	-28.2	---	---	730.8	0.026	0.000	18.6	1	1
03/03/06	11:42 a	-19.0	-18.9	-19.1	---	---	8.7	WNW	0.14	9.6	-28.1	---	---	730.8	0.026	0.000	18.6	1	1
03/03/06	11:43 a	-19.0	-18.9	-19.0	---	---	9.6	WNW	0.16	10.4	-28.6	---	---	730.7	0.026	0.000	18.6	1	1
03/03/06	11:44 a	-18.9	-18.9	-19.0	---	---	8.7	WNW	0.14	9.6	-28.0	---	---	730.7	0.026	0.000	18.6	1	1
03/03/06	11:45 a	-18.9	-18.9	-18.9	---	---	8.7	WNW	0.14	9.6	-28.0	---	---	730.8	0.026	0.000	18.6	1	1
03/03/06	11:46 a	-19.0	-18.9	-19.0	---	---	9.6	WNW	0.16	11.3	-28.6	---	---	730.8	0.026	0.000	18.6	1	1
03/03/06	11:47 a	-18.9	-18.9	-19.0	---	---	8.7	WNW	0.14	9.6	-28.0	---	---	730.9	0.026	0.000	18.6	1	1
03/03/06	11:48 a	-18.9	-18.8	-18.9	---	---	7.8	WNW	0.13	10.4	-27.4	---	---	730.8	0.026	0.000	18.6	1	1
03/03/06	11:49 a	-18.8	-18.8	-18.8	---	---	8.7	WNW	0.14	13.9	-27.8	---	---	730.9	0.026	0.000	18.6	1	1
03/03/06	11:50 a	-18.8	-18.7	-18.8	---	---	9.6	NW	0.16	13.9	-28.3	---	---	730.9	0.026	0.000	18.6	1	1
03/03/06	11:51 a	-18.7	-18.6	-18.7	---	---	10.4	WNW	0.17	12.2	-28.6	---	---	730.8	0.026	0.000	18.6	1	1
03/03/06	11:52 a	-18.4	-18.4	-18.6	---	---	11.3	WNW	0.19	14.8	-28.7	---	---	730.9	0.026	0.000	18.6	1	1
03/03/06	11:53 a	-18.4	-18.4	-18.4	---	---	9.6	NW	0.16	10.4	-27.8	---	---	730.9	0.026	0.000	18.6	1	1
03/03/06	11:54 a	-18.4	-18.4	-18.4	---	---	9.6	NW	0.16	10.4	-27.8	---	---	730.8	0.026	0.000	18.6	1	1
03/03/06	11:55 a	-18.4	-18.4	-18.4	---	---	11.3	NW	0.19	14.8	-28.6	---	---	730.8	0.026	0.000	18.6	1	1
03/03/06	11:56 a	-18.3	-18.3	-18.4	---	---	11.3	NW	0.19	13.9	-28.5	---	---	730.8	0.025	0.000	18.6	1	1
03/03/06	11:57 a	-18.3	-18.3	-18.3	---	---	12.2	NW	0.20	13.9	-28.9	---	---	730.8	0.025	0.000	18.6	1	1
03/03/06	11:58 a	-18.3	-18.3	-18.3	---	---	9.6	NW	0.16	10.4	-27.7	---	---	730.9	0.025	0.000	18.6	1	1
03/03/06	11:59 a	-18.3	-18.3	-18.3	---	---	9.6	NW	0.16	11.3	-27.7	---	---	730.8	0.025	0.000	18.6	1	1
03/03/06	12:00 p	-18.3	-18.3	-18.3	---	---	7.8	NW	0.13	9.6	-26.8	---	---	730.8	0.025	0.000	18.6	1	1
03/03/06	12:01 p	-18.3	-18.3	-18.3	---	---	7.8	NW	0.13	10.4	-26.8	---	---	730.9	0.025	0.000	18.6	1	1
03/03/06	12:02 p	-18.3	-18.3	-18.3	---	---	7.8	NW	0.13	8.7	-26.8	---	---	730.9	0.025	0.000	18.6	1	1
03/03/06	12:03 p	-18.4	-18.3	-18.4	---	---	7.8	NW	0.13	9.6	-26.8	---	---	730.9	0.026	0.000	18.6	1	1
03/03/06	12:04 p	-18.4	-18.4	-18.4	---	---	8.7	NW	0.14	10.4	-27.3	---	---	730.9	0.026	0.000	18.6	1	1
03/03/06	12:05 p	-18.4	-18.4	-18.5	---	---	9.6	NW	0.16	10.4	-27.8	---	---	730.9	0.026	0.000	18.6	1	1
03/03/06	12:06 p	-18.4	-18.4	-18.4	---	---	7.0	WNW	0.12	8.7	-26.4	---	---	730.9	0.026	0.000	18.6	1	1
03/03/06	12:07 p	-18.4	-18.4	-18.4	---	---	7.8	NW	0.13	10.4	-26.9	---	---	730.8	0.026	0.000	18.6	1	1
03/03/06	12:08 p	-18.4	-18.4	-18.4	---	---	7.8	NW	0.13	9.6	-26.9	---	---	730.9	0.026	0.000	18.6	1	1
03/03/06	12:09 p	-18.4	-18.4	-18.5	---	---	8.7	NW	0.14	10.4	-27.4	---	---	731.0	0.026	0.000	18.6	1	1
03/03/06	12:10 p	-18.4	-18.4	-18.4	---	---	9.6	NW	0.16	11.3	-27.8	---	---	730.8	0.026	0.000	18.6	1	1
03/03/06	12:11 p	-18.4	-18.4	-18.4	---	---	9.6	NW	0.16	13.0	-27.8	---	---	730.8	0.026	0.000	18.6	1	1
03/03/06	12:12 p	-18.4	-18.4	-18.4	---	---	8.7	NW	0.14	9.6	-27.4	---	---	730.9	0.026	0.000	18.6	1	1
03/03/06	12:13 p	-18.4	-18.4	-18.4	---	---	8.7	NW	0.14	11.3	-27.3	---	---	730.8	0.026	0.000	18.6	1	1
03/03/06	12:14 p	-18.4	-18.4	-18.4	---	---	11.3	NW	0.19	14.8	-28.6	---	---	730.8	0.026	0.000	18.6	1	1
03/03/06	12:15 p	-18.4	-18.4	-18.4	---	---	11.3	NW	0.19	13.0	-28.6	---	---	730.7	0.026	0.000	18.6	1	1
03/03/06	12:16 p	-18.3	-18.3	-18.3	---	---	10.4	WNW	0.17	13.0	-28.1	---	---	730.8	0.025	0.000	18.6	1	1
03/03/06	12:17 p	-18.3	-18.3	-18.3	---	---	9.6	NW	0.16	11.3	-27.7	---	---	730.7	0.025	0.000	18.6	1	1
03/03/06	12:18 p	-18.2	-18.2	-18.3	---	---	9.6	NW	0.16	10.4	-27.6	---	---	730.8	0.025	0.000	18.6	1	1
03/03/06	12:19 p	-18.2	-18.2	-18.3	---	---	9.6	NW	0.16	11.3	-27.6	---	---	730.8	0.025	0.000	18.6	1	1
03/03/06	12:20 p	-18.2	-18.2	-18.3	---	---	10.4	NW	0.17	11.3	-28.0	---	---	730.8	0.025	0.000	18.6	1	1
03/03/06	12:21 p	-18.2	-18.2	-18.2	---	---	9.6	NW	0.16	10.4	-27.6	---	---	730.9	0.025	0.000	18.6	1	1
03/03/06	12:22 p	-18.2	-18.2	-18.3	---	---	8.7	NW	0.14	9.6	-27.1	---	---	730.9	0.025	0.000	18.6	1	1
03/03/06	12:23 p	-18.2	-18.2	-18.3	---	---	7.8	NW	0.13	8.7	-26.7	---	---	730.9	0.025	0.000	18.5	1	1
03/03/06	12:24 p	-18.3	-18.3	-18.3	---	---	8.7	NW	0.14	9.6	-27.2	---	---	730.9	0.025	0.000	18.5	1	1
03/03/06	12:25 p	-18.3	-18.3	-18.3	---	---	8.7	NW	0.14	11.3	-27.2	---	---	730.8	0.025	0.000	18.5	1	1
03/03/06	12:26 p	-18.3	-18.3	-18.3	---	---	9.6	NW	0.16	10.4	-27.7	---	---	730.8	0.025	0.000	18.5	1	1
03/03/06	12:27 p	-18.3	-18.3	-18.3	---	---	7.0	NW	0.12	8.7	-26.2	---	---	730.8	0.025	0.000	18.5	1	1
03/03/06	12:28 p	-18.3	-18.3	-18.3	---	---	6.1	NW	0.10	7.8	-25.6	---	---	730.8	0.025	0.000	18.4	1	1
03/03/06	12:29 p	-18.3	-18.3	-18.3	---	---	5.2	WNW	0.09	7.0	-24.9	---	---	730.9	0.025	0.000	18.4	1	1
03/03/06	12:30 p	-18.3	-18.3	-18.3	---	---	7.0	NW	0.12	8.7	-26.2	---	---	730.8	0.025	0.000	18.4	1	1
03/03/06	12:31 p	-18.3	-18.3	-18.3	---	---	7.8	NW	0.13	10.4	-26.7	---	---	730.7	0.025	0.000	18.4	1	1
03/03/06	12:32 p	-18.3	-18.3	-18.3	---	---	9.6	NW	0.16	12.2	-27.7	---	---	730.7	0.025	0.000	18.4	1	1
03/03/06	12:33 p	-18.3	-18.3	-18.3	---	---	11.3	NW	0.19	13.0	-28.4	---	---	730.8	0.025	0.000	18.4	1	1
03/03/06	12:34 p	-18.3	-18.3	-18.3	---	---	8.7	NW	0.14	11.3	-27.2	---	---	730.7	0.025	0.000	18.4	1	1
03/03/06	12:35 p	-18.3	-18.2	-18.3	---	---	8.7	WNW	0.14	10.4	-27.2	---	---	730.7	0.025	0.000	18.4	1	1
03/03/06	12:36 p	-18.2	-18.2	-18.2	---	---	10.4	NW	0.17	13.0	-28.0	---	---	730.8	0.025	0.000	18.4	1	1
03/03/06	12:37 p	-18.2	-18.2	-18.3	---	---	11.3	NW	0.19	13.9	-28.4	---	---	730.7	0.025	0.000	18.4	1	1
03/03/06	12:38 p	-18.1	-18.1	-18.2	---	---	13.0	NW	0.22	17.4	-28.9	---	---	730.5	0.025	0.000	18.4	1	1
03/03/06	12:39 p	-18.1	-18.1	-18.1	---	---	14.8	NW	0.25	20.0	-29.6	---	---	730.6	0.025	0.000	18.4	1	1
03/03/06	12:40 p	-18.0	-17.9	-18.1	---	---	12.2	NW	0.20	16.5	-28.4	---	---	730.6	0.025	0.000	18.3	1	1
03/03/06	12:41 p	-17.9	-17.8	-17.9	---	---	14.8	NW	0.25	17.4	-29.3	---	---	730.6	0.025	0.000	18.3	1	1
03/03/06	12:42 p	-17.8	-17.8	-17.8	---	---	12.2	NW	0.20	13.9	-28.2	---	---	730.6	0.025	0.000	18.3	1	1
03/03/06	12:43 p	-17.7	-17.7	-17.7	---	---	11.3	NW	0.19	14.8	-27.7	---	---	730.6	0.025	0.000	18.3	1	1
03/03/06	12:44 p	-17.7	-17.6	-17.7	---	---	8.7	NW	0.14	11.3	-26.4	---	---	730.6	0.025	0.000	18.3	1	1
03/03/06	12:45 p	-17.6	-17.6	-17.6	---	---	8.7	NW	0.14	10.4	-26.4	---	---	730.7	0.025	0.000	18.3	1	1
03/03/06	12:46 p	-17.6	-17.6	-17.6	---	---	7.8	NW	0.13	8.7	-25.9	---	---	730.7	0.025	0.000	18.3	1	1
03/03/06	12:47 p	-17.7	-17.6	-17.7	---	---	9.6	NW	0.16	12.2	-26.9	---	---	730.7	0.025	0.000	18.3	1	1
03/03/06	12:48 p	-17.6	-17.6	-17.6	---	---	8.7	NW	0.14	11.3	-26.4	---	---	730.6	0.025	0.000	18.4	1	1
03/03/06	12:49 p	-17.7	-17.6	-17.7	---	---	10.4	NW	0.17	12.2	-27.3	---	---	730.6	0.025	0.000	18.3	1	1
03/03/06	12:50 p	-17.6	-17.6	-17.7	---	---	11.3	NW	0.19	13.0	-27.6	---	---	730.6	0.025	0.000	18.3	1	1
03/03/06	12:51 p	-17.6	-17.6	-17.7	---	---	11.3	NW	0.19	13.0	-27.6	---	---	730.6	0.025	0.000	18.3	1	1
03/03/06	12:52 p	-17.6	-17.6	-17.6	---	---	12.2	NW	0.20	13.9	-27.9	---	---	730.6	0.025	0.000	18.3	1	1
03/03/06	12:53 p	-17.6	-17.6	-17.6	---	---	9.6	NW	0.16	12.2	-26.8	---	---	730.7	0.025	0.000	18.3	1	1
03/03/06	12:54 p	-17.5	-17.4	-17.6	---	---	9.6	WNW	0.16	13.0	-26.7	---	---	730.7	0.025	0.000	18.3	1	1
03/03/06	12:55 p	-17.4	-17.3	-17.4	---	---	10.4	WNW	0.17	13.0	-26.9	---	---	730.6	0.025	0.000	18.3	1	1
03/03/06	12:56 p	-17.3	-17.3	-17.3	---	---	12.2	NW	0.20	15.7	-27.6	---	---	730.6	0.025	0.000	18.3	1	1
03/03/06	12:57 p	-17.3	-17.3	-17.3	---	---	11.3	NW	0.19	13.9	-27.2	---	---	730.6	0.025	0.000	18.3	1	1
03/03/06	12:58 p	-17.3	-17.3	-17.3	---	---	11.3	NW	0.19	13.9	-27.2	---	---	730.6	0.025	0.000	18.3	1	1
03/03/06	12:59 p	-17.3	-17.3	-17.3	---	---	9.6	NW	0.16	11.3	-26.4	---	---	730.6	0.025	0.000	18.3	1	1
03/03/06	1:00 p	-17.3	-17.3	-17.3	---	---	10.4	NW	0.17	13.0	-26.8	---	---	730.5	0.025	0.000	18.3	1	1
03/03/06	1:01 p	-17.3	-17.3	-17.3	---	---	12.2	NW	0.20	14.8	-27.5	---	---	730.6	0.025	0.000	18.3	1	1
03/03/06	1:02 p	-17.3	-17.3	-17.3	---	---	13.0	NW	0.22	13.9	-27.8	---	---	730.5	0.025	0.000	18.3	1	1
03/03/06	1:03 p	-17.3	-17.2	-17.3	---	---	13.0	NNW	0.22	18.3	-27.8	---	---	730.5	0.025	0.000	18.3	1	1
03/03/06	1:04 p	-17.2	-17.2	-17.2	---	---	15.7	NW	0.26	18.3	-28.7	---	---	730.6	0.025	0.000	18.3	1	1
03/03/06	1:05 p	-17.2	-17.1	-17.2	---	---	12.2	NW	0.20	16.5	-27.4	---	---	730.5	0.025	0.000	18.3	1	1
03/03/06	1:06 p	-17.1	-17.0	-17.1	---	---	9.6	NNW	0.16	13.9	-26.1	---	---	730.6	0.025	0.000	18.3	1	1
03/03/06	1:07 p	-16.9	-16.9	-16.9	---	---	11.3	NW	0.19	14.8	-26.8	---	---	730.5	0.024	0.000	18.3	1	1
03/03/06	1:08 p	-16.9	-16.8	-16.9	---	---	13.0	NW	0.22	19.1	-27.3	---	---	730.4	0.024	0.000	18.3	1	1
03/03/06	1:09 p	-16.7	-16.7	-16.8	---	---	12.2	NW	0.20	16.5	-26.8	---	---	730.5	0.024	0.000	18.3	1	1
03/03/06	1:10 p	-16.7	-16.6	-16.7	---	---	12.2	NW	0.20	18.3	-26.7	---	---	730.5	0.024	0.000	18.3	1	1
03/03/06	1:11 p	-16.6	-16.6	-16.7	---	---	10.4	NW	0.17	13.0	-25.9	---	---	730.6	0.024	0.000	18.3	1	1
03/03/06	1:12 p	-16.6	-16.6	-16.6	---	---	9.6	NW	0.16	11.3	-25.6	---	---	730.5	0.024	0.000	18.3	1	1
03/03/06	1:13 p	-16.6	-16.6	-16.6	---	---	9.6	NW	0.16	10.4	-25.6	---	---	730.5	0.024	0.000	18.3	1	1
03/03/06	1:14 p	-16.6	-16.6	-16.6	---	---	8.7	NW	0.14	9.6	-25.1	---	---	730.6	0.024	0.000	18.3	1	1
03/03/06	1:15 p	-16.6	-16.6	-16.7	---	---	8.7	NNW	0.14	9.6	-25.1	---	---	730.5	0.024	0.000	18.3	1	1
03/03/06	1:16 p	-16.7	-16.6	-16.7	---	---	11.3	NNW	0.19	14.8	-26.4	---	---	730.5	0.024	0.000	18.3	1	1
03/03/06	1:17 p	-16.7	-16.7	-16.7	---	---	9.6	NW	0.16	11.3	-25.6	---	---	730.5	0.024	0.000	18.3	1	1
03/03/06	1:18 p	-16.7	-16.7	-16.7	---	---	12.2	NW	0.20	14.8	-26.8	---	---	730.6	0.024	0.000	18.3	1	1
03/03/06	1:19 p	-16.8	-16.7	-16.8	---	---	11.3	NW	0.19	13.0	-26.6	---	---	730.5	0.024	0.000	18.3	1	1
03/03/06	1:20 p	-16.8	-16.8	-16.8	---	---	11.3	NW	0.19	13.9	-26.6	---	---	730.5	0.024	0.000	18.3	1	1
03/03/06	1:21 p	-16.8	-16.8	-16.8	---	---	9.6	NW	0.16	10.4	-25.8	---	---	730.5	0.024	0.000	18.3	1	1
03/03/06	1:22 p	-16.8	-16.8	-16.9	---	---	8.7	NW	0.14	10.4	-25.4	---	---	730.6	0.024	0.000	18.3	1	1
03/03/06	1:23 p	-16.9	-16.8	-16.9	---	---	8.7	NW	0.14	11.3	-25.5	---	---	730.6	0.024	0.000	18.3	1	1
03/03/06	1:24 p	-16.9	-16.8	-16.9	---	---	7.8	NW	0.13	8.7	-25.0	---	---	730.5	0.024	0.000	18.3	1	1
03/03/06	1:25 p	-16.9	-16.9	-16.9	---	---	7.0	NW	0.12	7.8	-24.5	---	---	730.5	0.024	0.000	18.3	1	1
03/03/06	1:26 p	-16.9	-16.9	-16.9	---	---	6.1	NW	0.10	7.0	-23.9	---	---	730.4	0.024	0.000	18.3	1	1
03/03/06	1:27 p	-16.9	-16.9	-16.9	---	---	6.1	NW	0.10	7.0	-24.0	---	---	730.4	0.024	0.000	18.3	1	1
03/03/06	1:28 p	-16.9	-16.9	-16.9	---	---	8.7	NNW	0.14	12.2	-25.6	---	---	730.4	0.024	0.000	18.3	1	1
03/03/06	1:29 p	-16.9	-16.9	-17.0	---	---	9.6	NNW	0.16	11.3	-26.0	---	---	730.4	0.024	0.000	18.3	1	1
03/03/06	1:30 p	-16.9	-16.9	-17.0	---	---	8.7	NNW	0.14	9.6	-25.6	---	---	730.4	0.024	0.000	18.4	1	1
03/03/06	1:31 p	-16.9	-16.9	-17.0	---	---	8.7	NW	0.14	10.4	-25.6	---	---	730.4	0.024	0.000	18.4	1	1
03/03/06	1:32 p	-16.9	-16.9	-17.0	---	---	7.8	NW	0.13	9.6	-25.1	---	---	730.4	0.024	0.000	18.4	1	1
03/03/06	1:33 p	-16.9	-16.9	-16.9	---	---	6.1	NW	0.10	8.7	-24.0	---	---	730.4	0.024	0.000	18.4	1	1
03/03/06	1:34 p	-16.9	-16.9	-16.9	---	---	5.2	NW	0.09	6.1	-23.3	---	---	730.4	0.024	0.000	18.4	1	1
03/03/06	1:35 p	-16.9	-16.9	-16.9	---	---	5.2	NW	0.09	7.8	-23.3	---	---	730.4	0.024	0.000	18.4	1	1
03/03/06	1:36 p	-16.9	-16.9	-16.9	---	---	7.8	NW	0.13	8.7	-25.1	---	---	730.4	0.024	0.000	18.4	1	1
03/03/06	1:37 p	-16.9	-16.9	-16.9	---	---	7.0	NW	0.12	8.7	-24.6	---	---	730.5	0.024	0.000	18.4	1	1
03/03/06	1:38 p	-16.9	-16.9	-16.9	---	---	6.1	NW	0.10	7.0	-24.0	---	---	730.4	0.024	0.000	18.4	1	1
03/03/06	1:39 p	-16.9	-16.9	-16.9	---	---	5.2	N	0.09	7.8	-23.3	---	---	730.4	0.024	0.000	18.4	1	1
03/03/06	1:40 p	-16.9	-16.9	-16.9	---	---	6.1	NNW	0.10	7.8	-24.0	---	---	730.4	0.024	0.000	18.4	1	1
03/03/06	1:41 p	-16.9	-16.9	-16.9	---	---	7.8	NNW	0.13	10.4	-25.1	---	---	730.3	0.024	0.000	18.4	1	1
03/03/06	1:42 p	-16.9	-16.9	-16.9	---	---	8.7	NNW	0.14	9.6	-25.6	---	---	730.4	0.024	0.000	18.4	1	1
03/03/06	1:43 p	-16.9	-16.9	-16.9	---	---	7.8	NW	0.13	9.6	-25.0	---	---	730.4	0.024	0.000	18.4	1	1
03/03/06	1:44 p	-16.9	-16.8	-16.9	---	---	7.8	NNW	0.13	8.7	-25.0	---	---	730.4	0.024	0.000	18.4	1	1
03/03/06	1:45 p	-16.8	-16.8	-16.8	---	---	7.0	NNW	0.12	8.7	-24.4	---	---	730.3	0.024	0.000	18.4	1	1
03/03/06	1:46 p	-16.8	-16.8	-16.8	---	---	7.0	NNW	0.12	7.8	-24.3	---	---	730.3	0.024	0.000	18.4	1	1
03/03/06	1:47 p	-16.8	-16.7	-16.8	---	---	7.0	NNW	0.12	8.7	-24.3	---	---	730.3	0.024	0.000	18.4	1	1
03/03/06	1:48 p	-16.7	-16.7	-16.7	---	---	7.0	NW	0.12	8.7	-24.3	---	---	730.3	0.024	0.000	18.4	1	1
03/03/06	1:49 p	-16.7	-16.7	-16.7	---	---	6.1	NW	0.10	8.7	-23.7	---	---	730.4	0.024	0.000	18.4	1	1
03/03/06	1:50 p	-16.7	-16.7	-16.7	---	---	7.8	NNW	0.13	8.7	-24.7	---	---	730.4	0.024	0.000	18.4	1	1
03/03/06	1:51 p	-16.7	-16.7	-16.7	---	---	7.0	NW	0.12	7.8	-24.2	---	---	730.4	0.024	0.000	18.4	1	1
03/03/06	1:52 p	-16.7	-16.6	-16.7	---	---	3.5	NW	0.06	4.3	-21.4	---	---	730.4	0.024	0.000	18.4	1	1
03/03/06	1:53 p	-16.6	-16.6	-16.7	---	---	6.1	NNW	0.10	7.0	-23.6	---	---	730.5	0.024	0.000	18.4	1	1
03/03/06	1:54 p	-16.6	-16.6	-16.6	---	---	7.8	NNW	0.13	9.6	-24.7	---	---	730.4	0.024	0.000	18.4	1	1
03/03/06	1:55 p	-16.6	-16.5	-16.6	---	---	7.8	NNW	0.13	8.7	-24.6	---	---	730.5	0.024	0.000	18.4	1	1
03/03/06	1:56 p	-16.4	-16.4	-16.5	---	---	5.2	NNW	0.09	8.7	-22.7	---	---	730.4	0.024	0.000	18.4	1	1
03/03/06	1:57 p	-16.4	-16.4	-16.4	---	---	5.2	NNW	0.09	6.1	-22.7	---	---	730.4	0.024	0.000	18.4	1	1
03/03/06	1:58 p	-16.4	-16.4	-16.4	---	---	7.0	NNW	0.12	7.8	-23.9	---	---	730.3	0.024	0.000	18.4	1	1
03/03/06	1:59 p	-16.3	-16.3	-16.3	---	---	7.8	NNW	0.13	10.4	-24.3	---	---	730.3	0.024	0.000	18.4	1	1
03/03/06	2:00 p	-16.3	-16.3	-16.3	---	---	9.6	NNW	0.16	12.2	-25.2	---	---	730.3	0.024	0.000	18.3	1	1
03/03/06	2:01 p	-16.2	-16.2	-16.3	---	---	7.0	NNW	0.12	8.7	-23.7	---	---	730.3	0.024	0.000	18.4	1	1
03/03/06	2:02 p	-16.1	-16.1	-16.2	---	---	7.0	NNW	0.12	9.6	-23.6	---	---	730.3	0.024	0.000	18.3	1	1
03/03/06	2:03 p	-16.1	-16.0	-16.1	---	---	10.4	NW	0.17	12.2	-25.3	---	---	730.3	0.024	0.000	18.3	1	1
03/03/06	2:04 p	-16.0	-15.9	-16.0	---	---	7.8	NW	0.13	9.6	-23.9	---	---	730.2	0.024	0.000	18.3	1	1
03/03/06	2:05 p	-15.9	-15.9	-15.9	---	---	7.0	NW	0.12	7.8	-23.3	---	---	730.3	0.024	0.000	18.3	1	1
03/03/06	2:06 p	-15.8	-15.8	-15.9	---	---	6.1	NNW	0.10	7.8	-22.7	---	---	730.3	0.024	0.000	18.3	1	1
03/03/06	2:07 p	-15.8	-15.8	-15.8	---	---	6.1	NNW	0.10	7.8	-22.6	---	---	730.3	0.024	0.000	18.3	1	1
03/03/06	2:08 p	-15.8	-15.7	-15.8	---	---	7.8	NNW	0.13	9.6	-23.6	---	---	730.4	0.024	0.000	18.4	1	1
03/03/06	2:09 p	-15.7	-15.7	-15.7	---	---	4.3	NNW	0.07	6.1	-21.1	---	---	730.3	0.024	0.000	18.4	1	1
03/03/06	2:10 p	-15.7	-15.7	-15.7	---	---	5.2	NNW	0.09	7.0	-21.8	---	---	730.4	0.024	0.000	18.4	1	1
03/03/06	2:11 p	-15.6	-15.6	-15.7	---	---	5.2	NNW	0.09	7.0	-21.7	---	---	730.4	0.024	0.000	18.4	1	1
03/03/06	2:12 p	-15.6	-15.6	-15.6	---	---	2.6	NNW	0.04	3.5	-19.1	---	---	730.4	0.024	0.000	18.4	1	1
03/03/06	2:13 p	-15.6	-15.6	-15.6	---	---	1.7	N	0.03	3.5	-17.7	---	---	730.4	0.024	0.000	18.4	1	1
03/03/06	2:14 p	-15.6	-15.5	-15.6	---	---	2.6	N	0.04	3.5	-19.1	---	---	730.4	0.024	0.000	18.4	1	1
03/03/06	2:15 p	-15.5	-15.5	-15.5	---	---	0.9	N	0.01	2.6	-15.5	---	---	730.4	0.023	0.000	18.4	1	1
03/03/06	2:16 p	-15.5	-15.5	-15.5	---	---	3.5	NNW	0.06	5.2	-20.1	---	---	730.3	0.023	0.000	18.4	1	1
03/03/06	2:17 p	-15.5	-15.4	-15.5	---	---	2.6	NNW	0.04	4.3	-18.9	---	---	730.3	0.023	0.000	18.4	1	1
03/03/06	2:18 p	-15.4	-15.4	-15.4	---	---	3.5	NNW	0.06	6.1	-19.9	---	---	730.3	0.023	0.000	18.4	1	1
03/03/06	2:19 p	-15.4	-15.4	-15.5	---	---	6.1	NNW	0.10	7.0	-22.2	---	---	730.3	0.023	0.000	18.4	1	1
03/03/06	2:20 p	-15.4	-15.4	-15.4	---	---	5.2	NNW	0.09	7.0	-21.6	---	---	730.3	0.023	0.000	18.4	1	1
03/03/06	2:21 p	-15.4	-15.4	-15.4	---	---	5.2	NNW	0.09	6.1	-21.6	---	---	730.3	0.023	0.000	18.4	1	1
03/03/06	2:22 p	-15.4	-15.4	-15.4	---	---	3.5	NNW	0.06	5.2	-19.9	---	---	730.3	0.023	0.000	18.4	1	1
03/03/06	2:23 p	-15.4	-15.4	-15.5	---	---	3.5	NNW	0.06	6.1	-19.9	---	---	730.3	0.023	0.000	18.4	1	1
03/03/06	2:24 p	-15.4	-15.4	-15.5	---	---	5.2	NNW	0.09	10.4	-21.6	---	---	730.3	0.023	0.000	18.4	1	1
03/03/06	2:25 p	-15.4	-15.4	-15.5	---	---	3.5	NNW	0.06	5.2	-19.9	---	---	730.3	0.023	0.000	18.4	1	1
03/03/06	2:26 p	-15.5	-15.4	-15.5	---	---	2.6	N	0.04	4.3	-18.9	---	---	730.3	0.023	0.000	18.4	1	1
03/03/06	2:27 p	-15.4	-15.4	-15.4	---	---	7.0	NNW	0.12	7.8	-22.7	---	---	730.3	0.023	0.000	18.5	1	1
03/03/06	2:28 p	-15.4	-15.4	-15.4	---	---	5.2	N	0.09	7.0	-21.5	---	---	730.2	0.023	0.000	18.4	1	1
03/03/06	2:29 p	-15.4	-15.4	-15.4	---	---	6.1	N	0.10	7.8	-22.1	---	---	730.1	0.023	0.000	18.4	1	1
03/03/06	2:30 p	-15.4	-15.3	-15.4	---	---	6.1	N	0.10	7.8	-22.1	---	---	730.2	0.023	0.000	18.4	1	1
03/03/06	2:31 p	-15.3	-15.3	-15.4	---	---	7.0	N	0.12	8.7	-22.6	---	---	730.1	0.023	0.000	18.5	1	1
03/03/06	2:32 p	-15.3	-15.3	-15.4	---	---	7.8	N	0.13	9.6	-23.1	---	---	730.2	0.023	0.000	18.5	1	1
03/03/06	2:33 p	-15.3	-15.3	-15.3	---	---	5.2	N	0.09	7.0	-21.4	---	---	730.1	0.023	0.000	18.5	1	1
03/03/06	2:34 p	-15.3	-15.3	-15.3	---	---	5.2	N	0.09	8.7	-21.3	---	---	730.1	0.023	0.000	18.5	1	1
03/03/06	2:35 p	-15.3	-15.3	-15.3	---	---	4.3	N	0.07	6.1	-20.6	---	---	730.2	0.023	0.000	18.5	1	1
03/03/06	2:36 p	-15.2	-15.2	-15.3	---	---	5.2	N	0.09	9.6	-21.3	---	---	730.1	0.023	0.000	18.6	1	1
03/03/06	2:37 p	-15.2	-15.2	-15.2	---	---	8.7	ENE	0.14	12.2	-23.4	---	---	730.0	0.023	0.000	18.6	1	1
03/03/06	2:38 p	-15.3	-15.2	-15.3	---	---	12.2	NE	0.20	15.7	-25.0	---	---	730.2	0.023	0.000	18.6	1	1
03/03/06	2:39 p	-15.4	-15.4	-15.5	---	---	13.9	NE	0.23	17.4	-25.8	---	---	730.2	0.023	0.000	18.6	1	1
03/03/06	2:40 p	-15.7	-15.6	-15.8	---	---	13.0	NE	0.22	15.7	-25.8	---	---	730.1	0.024	0.000	18.6	1	1
03/03/06	2:41 p	-15.9	-15.8	-16.1	---	---	11.3	NE	0.19	13.0	-25.5	---	---	730.2	0.024	0.000	18.6	1	1
03/03/06	2:42 p	-16.3	-16.2	-16.5	---	---	12.2	NE	0.20	13.0	-26.3	---	---	730.1	0.024	0.000	18.6	1	1
03/03/06	2:43 p	-16.6	-16.6	-16.7	---	---	13.9	NE	0.23	15.7	-27.3	---	---	730.0	0.024	0.000	18.6	1	1
03/03/06	2:44 p	-16.9	-16.8	-17.2	---	---	13.9	NE	0.23	17.4	-27.7	---	---	730.1	0.024	0.000	18.6	1	1
03/03/06	2:45 p	-17.3	-17.2	-17.4	---	---	11.3	NE	0.19	13.0	-27.2	---	---	730.1	0.025	0.000	18.6	1	1
03/03/06	2:46 p	-17.6	-17.5	-17.7	---	---	11.3	NE	0.19	13.9	-27.5	---	---	730.0	0.025	0.000	18.6	1	1
03/03/06	2:47 p	-17.8	-17.8	-17.8	---	---	12.2	NE	0.20	14.8	-28.2	---	---	730.2	0.025	0.000	18.6	1	1
03/03/06	2:48 p	-17.9	-17.8	-18.1	---	---	12.2	NE	0.20	13.9	-28.4	---	---	730.1	0.025	0.000	18.6	1	1
03/03/06	2:49 p	-18.2	-18.1	-18.3	---	---	13.0	NE	0.22	13.9	-29.1	---	---	730.2	0.025	0.000	18.6	1	1
03/03/06	2:50 p	-18.4	-18.4	-18.6	---	---	13.0	NE	0.22	14.8	-29.3	---	---	730.1	0.026	0.000	18.7	1	1
03/03/06	2:51 p	-18.7	-18.6	-18.8	---	---	13.0	NE	0.22	13.9	-29.6	---	---	730.1	0.026	0.000	18.7	1	1
03/03/06	2:52 p	-18.9	-18.8	-19.0	---	---	13.9	NE	0.23	15.7	-30.2	---	---	730.1	0.026	0.000	18.7	1	1
03/03/06	2:53 p	-19.1	-19.0	-19.1	---	---	12.2	NE	0.20	13.9	-29.8	---	---	730.1	0.026	0.000	18.7	1	1
03/03/06	2:54 p	-19.2	-19.2	-19.2	---	---	12.2	NE	0.20	14.8	-29.9	---	---	730.1	0.026	0.000	18.7	1	1
03/03/06	2:55 p	-19.3	-19.3	-19.4	---	---	12.2	NE	0.20	13.9	-30.2	---	---	730.1	0.026	0.000	18.7	1	1
03/03/06	2:56 p	-19.4	-19.4	-19.4	---	---	12.2	NE	0.20	14.8	-30.2	---	---	730.1	0.026	0.000	18.7	1	1
03/03/06	2:57 p	-19.5	-19.4	-19.5	---	---	13.0	NE	0.22	14.8	-30.7	---	---	730.0	0.026	0.000	18.7	1	1
03/03/06	2:58 p	-19.6	-19.5	-19.6	---	---	11.3	NE	0.19	13.9	-30.1	---	---	730.1	0.026	0.000	18.7	1	1
03/03/06	2:59 p	-19.6	-19.6	-19.7	---	---	10.4	NNE	0.17	13.0	-29.7	---	---	730.1	0.026	0.000	18.7	1	1
03/03/06	3:00 p	-19.7	-19.6	-19.7	---	---	11.3	NE	0.19	14.8	-30.2	---	---	730.0	0.026	0.000	18.7	1	1
03/03/06	3:01 p	-19.8	-19.7	-19.8	---	---	13.9	NE	0.23	14.8	-31.4	---	---	730.1	0.026	0.000	18.7	1	1
03/03/06	3:02 p	-19.9	-19.8	-19.9	---	---	12.2	NE	0.20	14.8	-30.8	---	---	730.0	0.027	0.000	18.7	1	1
03/03/06	3:03 p	-20.0	-20.0	-20.1	---	---	11.3	NE	0.19	14.8	-30.6	---	---	730.1	0.027	0.000	18.7	1	1
03/03/06	3:04 p	-20.2	-20.1	-20.2	---	---	13.0	NE	0.22	14.8	-31.6	---	---	730.0	0.027	0.000	18.7	1	1
03/03/06	3:05 p	-20.3	-20.3	-20.4	---	---	12.2	NE	0.20	14.8	-31.4	---	---	730.0	0.027	0.000	18.7	1	1
03/03/06	3:06 p	-20.6	-20.4	-20.7	---	---	14.8	ENE	0.25	16.5	-32.7	---	---	730.0	0.027	0.000	18.7	1	1
03/03/06	3:07 p	-20.7	-20.7	-20.8	---	---	12.2	ENE	0.20	14.8	-31.9	---	---	730.0	0.027	0.000	18.7	1	1
03/03/06	3:08 p	-20.8	-20.8	-20.9	---	---	15.7	ENE	0.26	18.3	-33.4	---	---	730.1	0.027	0.000	18.7	1	1
03/03/06	3:09 p	-21.0	-20.9	-21.1	---	---	14.8	ENE	0.25	16.5	-33.3	---	---	730.1	0.027	0.000	18.7	1	1
03/03/06	3:10 p	-21.1	-21.1	-21.2	---	---	15.7	ENE	0.26	18.3	-33.7	---	---	730.0	0.027	0.000	18.7	1	1
03/03/06	3:11 p	-21.2	-21.2	-21.3	---	---	17.4	ENE	0.29	19.1	-34.4	---	---	730.0	0.027	0.000	18.7	1	1
03/03/06	3:12 p	-21.3	-21.3	-21.3	---	---	15.7	ENE	0.26	21.7	-33.9	---	---	730.0	0.028	0.000	18.7	1	1
03/03/06	3:13 p	-21.4	-21.3	-21.4	---	---	16.5	ENE	0.28	20.0	-34.4	---	---	730.0	0.028	0.000	18.7	1	1
03/03/06	3:14 p	-21.4	-21.4	-21.4	---	---	13.9	NE	0.23	16.5	-33.6	---	---	730.0	0.028	0.000	18.7	1	1
03/03/06	3:15 p	-21.4	-21.4	-21.4	---	---	15.7	ENE	0.26	19.1	-34.2	---	---	729.9	0.028	0.000	18.7	1	1
03/03/06	3:16 p	-21.4	-21.4	-21.5	---	---	14.8	ENE	0.25	16.5	-33.9	---	---	729.9	0.028	0.000	18.7	1	1
03/03/06	3:17 p	-21.5	-21.5	-21.6	---	---	15.7	ENE	0.26	17.4	-34.2	---	---	730.0	0.028	0.000	18.7	1	1
03/03/06	3:18 p	-21.6	-21.6	-21.6	---	---	18.3	ENE	0.30	20.0	-35.2	---	---	729.8	0.028	0.000	18.7	1	1
03/03/06	3:19 p	-21.6	-21.6	-21.7	---	---	14.8	ENE	0.25	17.4	-34.1	---	---	729.8	0.028	0.000	18.7	1	1
03/03/06	3:20 p	-21.6	-21.6	-21.7	---	---	16.5	ENE	0.28	19.1	-34.7	---	---	729.8	0.028	0.000	18.7	1	1
03/03/06	3:21 p	-21.6	-21.6	-21.7	---	---	15.7	ENE	0.26	18.3	-34.4	---	---	729.8	0.028	0.000	18.7	1	1
03/03/06	3:22 p	-21.7	-21.7	-21.7	---	---	15.7	ENE	0.26	18.3	-34.4	---	---	729.8	0.028	0.000	18.7	1	1
03/03/06	3:23 p	-21.7	-21.7	-21.7	---	---	13.9	ENE	0.23	19.1	-33.8	---	---	729.6	0.028	0.000	18.7	1	1
03/03/06	3:24 p	-21.7	-21.7	-21.7	---	---	16.5	ENE	0.28	20.0	-34.8	---	---	729.9	0.028	0.000	18.7	1	1
03/03/06	3:25 p	-21.7	-21.7	-21.8	---	---	13.9	ENE	0.23	17.4	-33.9	---	---	729.9	0.028	0.000	18.7	1	1
03/03/06	3:26 p	-21.8	-21.7	-21.9	---	---	19.1	ENE	0.32	20.9	-35.7	---	---	729.8	0.028	0.000	18.8	1	1
03/03/06	3:27 p	-21.8	-21.8	-21.9	---	---	16.5	ENE	0.28	20.0	-35.0	---	---	729.8	0.028	0.000	18.8	1	1
03/03/06	3:28 p	-21.8	-21.8	-21.8	---	---	18.3	ENE	0.30	20.9	-35.6	---	---	729.9	0.028	0.000	18.8	1	1
03/03/06	3:29 p	-21.8	-21.8	-21.8	---	---	14.8	ENE	0.25	16.5	-34.4	---	---	729.8	0.028	0.000	18.8	1	1
03/03/06	3:30 p	-21.8	-21.7	-21.8	---	---	18.3	E	0.30	22.6	-35.4	---	---	730.0	0.028	0.000	18.8	1	1
03/03/06	3:31 p	-21.7	-21.7	-21.8	---	---	15.7	ENE	0.26	18.3	-34.6	---	---	729.9	0.028	0.000	18.8	1	1
03/03/06	3:32 p	-21.7	-21.7	-21.7	---	---	13.9	E	0.23	20.0	-33.9	---	---	729.6	0.028	0.000	18.8	1	1
03/03/06	3:33 p	-21.7	-21.7	-21.7	---	---	20.9	E	0.35	23.5	-36.1	---	---	729.9	0.028	0.000	18.8	1	1
03/03/06	3:34 p	-21.6	-21.6	-21.7	---	---	16.5	E	0.28	20.9	-34.7	---	---	729.8	0.028	0.000	18.8	1	1
03/03/06	3:35 p	-21.6	-21.5	-21.6	---	---	20.0	ENE	0.33	22.6	-35.7	---	---	729.9	0.028	0.000	18.8	1	1
03/03/06	3:36 p	-21.5	-21.4	-21.6	---	---	18.3	E	0.30	20.9	-35.1	---	---	729.8	0.028	0.000	18.8	1	1
03/03/06	3:37 p	-21.4	-21.4	-21.5	---	---	19.1	E	0.32	22.6	-35.3	---	---	729.7	0.028	0.000	18.8	1	1
03/03/06	3:38 p	-21.4	-21.4	-21.4	---	---	19.1	E	0.32	22.6	-35.2	---	---	729.8	0.028	0.000	18.8	1	1
03/03/06	3:39 p	-21.3	-21.3	-21.4	---	---	20.0	E	0.33	23.5	-35.4	---	---	729.7	0.028	0.000	18.8	1	1
03/03/06	3:40 p	-21.3	-21.2	-21.3	---	---	20.9	E	0.35	24.3	-35.6	---	---	729.7	0.028	0.000	18.8	1	1
03/03/06	3:41 p	-21.2	-21.2	-21.2	---	---	20.9	E	0.35	25.2	-35.5	---	---	729.7	0.027	0.000	18.8	1	1
03/03/06	3:42 p	-21.1	-21.0	-21.1	---	---	19.1	E	0.32	22.6	-34.8	---	---	729.7	0.027	0.000	18.8	1	1
03/03/06	3:43 p	-21.0	-20.9	-21.0	---	---	19.1	E	0.32	22.6	-34.7	---	---	729.7	0.027	0.000	18.8	1	1
03/03/06	3:44 p	-20.9	-20.9	-20.9	---	---	20.9	E	0.35	24.3	-35.1	---	---	729.4	0.027	0.000	18.8	1	1
03/03/06	3:45 p	-20.9	-20.9	-20.9	---	---	21.7	E	0.36	27.0	-35.3	---	---	729.4	0.027	0.000	18.9	1	1
03/03/06	3:46 p	-20.9	-20.9	-20.9	---	---	20.9	E	0.35	27.0	-35.1	---	---	729.5	0.027	0.000	18.9	1	1
03/03/06	3:47 p	-20.9	-20.9	-20.9	---	---	20.9	E	0.35	23.5	-35.1	---	---	729.7	0.027	0.000	18.9	1	1
03/03/06	3:48 p	-20.9	-20.9	-20.9	---	---	19.1	E	0.32	22.6	-34.6	---	---	729.4	0.027	0.000	18.9	1	1
03/03/06	3:49 p	-20.9	-20.9	-20.9	---	---	22.6	E	0.38	25.2	-35.5	---	---	729.5	0.027	0.000	18.9	1	1
03/03/06	3:50 p	-20.9	-20.9	-20.9	---	---	21.7	E	0.36	24.3	-35.3	---	---	729.7	0.027	0.000	18.9	1	1
03/03/06	3:51 p	-20.9	-20.9	-20.9	---	---	19.1	E	0.32	21.7	-34.6	---	---	729.5	0.027	0.000	18.9	1	1
03/03/06	3:52 p	-20.9	-20.9	-20.9	---	---	20.9	E	0.35	26.1	-35.1	---	---	729.5	0.027	0.000	18.9	1	1
03/03/06	3:53 p	-20.9	-20.9	-20.9	---	---	20.9	E	0.35	23.5	-35.1	---	---	729.5	0.027	0.000	18.9	1	1
03/03/06	3:54 p	-20.9	-20.9	-20.9	---	---	22.6	E	0.38	27.8	-35.5	---	---	729.6	0.027	0.000	18.9	1	1
03/03/06	3:55 p	-20.9	-20.9	-20.9	---	---	24.3	E	0.41	29.6	-35.9	---	---	729.6	0.027	0.000	18.9	1	1
03/03/06	3:56 p	-20.9	-20.9	-20.9	---	---	22.6	E	0.38	26.1	-35.6	---	---	729.6	0.027	0.000	18.9	1	1
03/03/06	3:57 p	-20.9	-20.9	-20.9	---	---	19.1	E	0.32	24.3	-34.6	---	---	729.5	0.027	0.000	18.9	1	1
03/03/06	3:58 p	-20.9	-20.9	-20.9	---	---	27.0	E	0.45	30.4	-36.6	---	---	729.4	0.027	0.000	18.9	1	1
03/03/06	3:59 p	-20.9	-20.9	-21.0	---	---	23.5	E	0.39	27.0	-35.8	---	---	729.6	0.027	0.000	18.9	1	1
03/03/06	4:00 p	-20.9	-20.9	-21.0	---	---	24.3	E	0.41	28.7	-36.0	---	---	729.4	0.027	0.000	18.9	1	1
03/03/06	4:01 p	-20.9	-20.9	-20.9	---	---	23.5	E	0.39	27.8	-35.8	---	---	729.5	0.027	0.000	18.9	1	1
03/03/06	4:02 p	-20.9	-20.9	-20.9	---	---	24.3	E	0.41	27.8	-36.0	---	---	729.5	0.027	0.000	18.9	1	1
03/03/06	4:03 p	-20.9	-20.9	-20.9	---	---	21.7	E	0.36	24.3	-35.3	---	---	729.6	0.027	0.000	18.9	1	1
03/03/06	4:04 p	-20.9	-20.9	-20.9	---	---	21.7	E	0.36	26.1	-35.3	---	---	729.4	0.027	0.000	18.9	1	1
03/03/06	4:05 p	-20.9	-20.9	-20.9	---	---	26.1	E	0.43	28.7	-36.4	---	---	729.5	0.027	0.000	18.9	1	1
03/03/06	4:06 p	-20.9	-20.9	-21.0	---	---	27.0	E	0.45	29.6	-36.6	---	---	729.6	0.027	0.000	18.9	1	1
03/03/06	4:07 p	-20.9	-20.9	-21.0	---	---	24.3	E	0.41	27.8	-36.0	---	---	729.4	0.027	0.000	18.9	1	1
03/03/06	4:08 p	-20.9	-20.9	-20.9	---	---	26.1	E	0.43	31.3	-36.4	---	---	729.1	0.027	0.000	18.9	1	1
03/03/06	4:09 p	-20.9	-20.9	-20.9	---	---	32.2	E	0.54	38.3	-37.6	---	---	729.5	0.027	0.000	18.9	1	1
03/03/06	4:10 p	-20.9	-20.8	-20.9	---	---	20.9	ENE	0.35	26.1	-35.1	---	---	729.9	0.027	0.000	18.9	1	1
03/03/06	4:11 p	-20.8	-20.8	-20.9	---	---	15.7	ENE	0.26	19.1	-33.4	---	---	729.7	0.027	0.000	18.9	1	1
03/03/06	4:12 p	-20.8	-20.8	-20.9	---	---	27.8	E	0.46	32.2	-36.6	---	---	729.3	0.027	0.000	18.9	1	1
03/03/06	4:13 p	-20.8	-20.8	-20.8	---	---	27.8	E	0.46	33.0	-36.6	---	---	729.8	0.027	0.000	18.9	1	1
03/03/06	4:14 p	-20.9	-20.8	-20.9	---	---	22.6	ENE	0.38	24.3	-35.5	---	---	729.9	0.027	0.000	18.9	1	1
03/03/06	4:15 p	-20.9	-20.9	-20.9	---	---	19.1	E	0.32	22.6	-34.6	---	---	729.5	0.027	0.000	18.9	1	1
03/03/06	4:16 p	-20.9	-20.9	-20.9	---	---	24.3	E	0.41	31.3	-35.9	---	---	729.5	0.027	0.000	18.9	1	1
03/03/06	4:17 p	-20.9	-20.9	-20.9	---	---	25.2	E	0.42	28.7	-36.2	---	---	729.7	0.027	0.000	18.9	1	1
03/03/06	4:18 p	-21.0	-20.9	-21.0	---	---	24.3	E	0.41	27.8	-36.1	---	---	729.6	0.027	0.000	18.9	1	1
03/03/06	4:19 p	-21.1	-21.0	-21.1	---	---	25.2	E	0.42	30.4	-36.3	---	---	729.5	0.027	0.000	18.9	1	1
03/03/06	4:20 p	-21.1	-21.1	-21.1	---	---	27.8	E	0.46	31.3	-37.0	---	---	729.7	0.027	0.000	18.9	1	1
03/03/06	4:21 p	-21.2	-21.1	-21.2	---	---	24.3	E	0.41	27.0	-36.3	---	---	729.6	0.027	0.000	18.9	1	1
03/03/06	4:22 p	-21.2	-21.2	-21.2	---	---	25.2	E	0.42	27.0	-36.5	---	---	729.6	0.027	0.000	18.9	1	1
03/03/06	4:23 p	-21.2	-21.2	-21.3	---	---	23.5	E	0.39	28.7	-36.2	---	---	729.5	0.027	0.000	18.9	1	1
03/03/06	4:24 p	-21.2	-21.2	-21.3	---	---	25.2	E	0.42	29.6	-36.6	---	---	729.7	0.027	0.000	18.9	1	1
03/03/06	4:25 p	-21.3	-21.3	-21.3	---	---	22.6	E	0.38	25.2	-36.0	---	---	729.6	0.028	0.000	18.9	1	1
03/03/06	4:26 p	-21.3	-21.3	-21.3	---	---	24.3	E	0.41	27.0	-36.5	---	---	729.6	0.028	0.000	18.9	1	1
03/03/06	4:27 p	-21.3	-21.3	-21.3	---	---	26.1	E	0.43	29.6	-36.9	---	---	729.6	0.028	0.000	18.9	1	1
03/03/06	4:28 p	-21.3	-21.3	-21.4	---	---	23.5	E	0.39	26.1	-36.3	---	---	729.6	0.028	0.000	18.9	1	1
03/03/06	4:29 p	-21.3	-21.3	-21.4	---	---	24.3	E	0.41	29.6	-36.5	---	---	729.4	0.028	0.000	18.9	1	1
03/03/06	4:30 p	-21.4	-21.4	-21.4	---	---	27.0	E	0.45	31.3	-37.2	---	---	729.6	0.028	0.000	18.9	1	1
03/03/06	4:31 p	-21.4	-21.4	-21.4	---	---	20.0	E	0.33	25.2	-35.4	---	---	729.6	0.028	0.000	18.9	1	1
03/03/06	4:32 p	-21.4	-21.4	-21.4	---	---	26.1	E	0.43	32.2	-37.1	---	---	729.4	0.028	0.000	18.9	1	1
03/03/06	4:33 p	-21.5	-21.4	-21.5	---	---	27.8	E	0.46	32.2	-37.6	---	---	729.6	0.028	0.000	18.9	1	1
03/03/06	4:34 p	-21.5	-21.5	-21.6	---	---	20.0	E	0.33	24.3	-35.6	---	---	729.6	0.028	0.000	18.9	1	1
03/03/06	4:35 p	-21.6	-21.5	-21.6	---	---	22.6	E	0.38	32.2	-36.4	---	---	729.2	0.028	0.000	18.9	1	1
03/03/06	4:36 p	-21.6	-21.6	-21.6	---	---	30.4	E	0.51	33.9	-38.2	---	---	729.6	0.028	0.000	18.9	1	1
03/03/06	4:37 p	-21.6	-21.6	-21.6	---	---	20.0	E	0.33	26.1	-35.8	---	---	729.6	0.028	0.000	18.9	1	1
03/03/06	4:38 p	-21.6	-21.6	-21.7	---	---	27.0	E	0.45	32.2	-37.5	---	---	729.6	0.028	0.000	18.9	1	1
03/03/06	4:39 p	-21.6	-21.6	-21.7	---	---	25.2	E	0.42	28.7	-37.1	---	---	729.8	0.028	0.000	18.9	1	1
03/03/06	4:40 p	-21.7	-21.6	-21.7	---	---	21.7	E	0.36	26.1	-36.3	---	---	729.6	0.028	0.000	18.9	1	1
03/03/06	4:41 p	-21.7	-21.6	-21.7	---	---	26.1	E	0.43	29.6	-37.4	---	---	729.7	0.028	0.000	18.9	1	1
03/03/06	4:42 p	-21.7	-21.7	-21.7	---	---	21.7	E	0.36	25.2	-36.4	---	---	729.8	0.028	0.000	18.9	1	1
03/03/06	4:43 p	-21.7	-21.7	-21.7	---	---	26.1	E	0.43	31.3	-37.4	---	---	729.7	0.028	0.000	18.9	1	1
03/03/06	4:44 p	-21.7	-21.7	-21.7	---	---	24.3	E	0.41	27.0	-37.1	---	---	729.9	0.028	0.000	18.9	1	1
03/03/06	4:45 p	-21.7	-21.7	-21.7	---	---	24.3	E	0.41	28.7	-36.9	---	---	729.7	0.028	0.000	18.9	1	1
03/03/06	4:46 p	-21.7	-21.7	-21.7	---	---	23.5	E	0.39	27.0	-36.8	---	---	729.7	0.028	0.000	18.9	1	1
03/03/06	4:47 p	-21.7	-21.7	-21.7	---	---	23.5	E	0.39	28.7	-36.8	---	---	729.7	0.028	0.000	18.9	1	1
03/03/06	4:48 p	-21.7	-21.7	-21.7	---	---	26.1	E	0.43	29.6	-37.4	---	---	729.8	0.028	0.000	18.9	1	1
03/03/06	4:49 p	-21.7	-21.7	-21.8	---	---	24.3	E	0.41	29.6	-37.1	---	---	729.6	0.028	0.000	18.9	1	1
03/03/06	4:50 p	-21.8	-21.8	-21.8	---	---	24.3	E	0.41	27.8	-37.1	---	---	729.8	0.028	0.000	18.9	1	1
03/03/06	4:51 p	-21.8	-21.8	-21.8	---	---	25.2	E	0.42	27.8	-37.4	---	---	729.7	0.028	0.000	18.9	1	1
03/03/06	4:52 p	-21.8	-21.8	-21.9	---	---	26.1	E	0.43	30.4	-37.6	---	---	729.7	0.028	0.000	18.9	1	1
03/03/06	4:53 p	-21.9	-21.9	-21.9	---	---	26.1	E	0.43	29.6	-37.7	---	---	729.6	0.028	0.000	18.9	1	1
03/03/06	4:54 p	-21.9	-21.9	-21.9	---	---	27.0	E	0.45	29.6	-37.9	---	---	729.7	0.028	0.000	19.0	1	1
03/03/06	4:55 p	-21.9	-21.9	-21.9	---	---	23.5	E	0.39	27.8	-37.1	---	---	729.6	0.028	0.000	19.0	1	1
03/03/06	4:56 p	-21.9	-21.9	-22.0	---	---	25.2	E	0.42	30.4	-37.6	---	---	729.5	0.028	0.000	19.0	1	1
03/03/06	4:57 p	-22.1	-22.0	-22.1	---	---	27.8	E	0.46	33.0	-38.3	---	---	729.7	0.028	0.000	19.0	1	1
03/03/06	4:58 p	-22.1	-22.1	-22.1	---	---	22.6	E	0.38	28.7	-37.1	---	---	729.7	0.028	0.000	18.9	1	1
03/03/06	4:59 p	-22.1	-22.1	-22.1	---	---	23.5	E	0.39	29.6	-37.3	---	---	729.5	0.028	0.000	18.9	1	1
03/03/06	5:00 p	-22.1	-22.1	-22.1	---	---	29.6	E	0.49	33.0	-38.7	---	---	729.7	0.028	0.000	18.9	1	1
03/03/06	5:01 p	-22.1	-22.1	-22.1	---	---	26.1	E	0.43	30.4	-38.0	---	---	729.7	0.028	0.000	18.9	1	1
03/03/06	5:02 p	-22.1	-22.1	-22.1	---	---	26.1	E	0.43	28.7	-37.9	---	---	729.6	0.028	0.000	18.9	1	1
03/03/06	5:03 p	-22.1	-22.1	-22.1	---	---	25.2	E	0.42	29.6	-37.7	---	---	729.6	0.028	0.000	18.9	1	1
03/03/06	5:04 p	-22.1	-22.0	-22.1	---	---	26.1	E	0.43	31.3	-37.9	---	---	729.6	0.028	0.000	18.9	1	1
03/03/06	5:05 p	-22.1	-22.0	-22.1	---	---	27.0	E	0.45	30.4	-38.1	---	---	729.5	0.028	0.000	19.0	1	1
03/03/06	5:06 p	-22.1	-22.0	-22.1	---	---	26.1	E	0.43	30.4	-37.9	---	---	729.6	0.028	0.000	18.9	1	1
03/03/06	5:07 p	-22.1	-22.0	-22.1	---	---	27.8	E	0.46	32.2	-38.3	---	---	729.5	0.028	0.000	18.9	1	1
03/03/06	5:08 p	-22.1	-22.1	-22.1	---	---	29.6	E	0.49	33.0	-38.7	---	---	729.4	0.028	0.000	18.9	1	1
03/03/06	5:09 p	-22.1	-22.0	-22.1	---	---	28.7	E	0.48	33.0	-38.5	---	---	729.5	0.028	0.000	18.9	1	1
03/03/06	5:10 p	-22.0	-21.9	-22.0	---	---	28.7	E	0.48	32.2	-38.4	---	---	729.5	0.028	0.000	18.9	1	1
03/03/06	5:11 p	-21.9	-21.9	-21.9	---	---	28.7	E	0.48	33.0	-38.3	---	---	729.5	0.028	0.000	18.9	1	1
03/03/06	5:12 p	-21.9	-21.9	-21.9	---	---	27.8	E	0.46	31.3	-38.1	---	---	729.5	0.028	0.000	18.9	1	1
03/03/06	5:13 p	-21.9	-21.9	-22.0	---	---	28.7	E	0.48	31.3	-38.3	---	---	729.5	0.028	0.000	18.9	1	1
03/03/06	5:14 p	-21.9	-21.9	-22.0	---	---	26.1	E	0.43	28.7	-37.8	---	---	729.5	0.028	0.000	18.9	1	1
03/03/06	5:15 p	-21.9	-21.9	-22.0	---	---	28.7	E	0.48	31.3	-38.3	---	---	729.5	0.028	0.000	18.9	1	1
03/03/06	5:16 p	-22.0	-22.0	-22.1	---	---	27.8	E	0.46	29.6	-38.2	---	---	729.5	0.028	0.000	18.9	1	1
03/03/06	5:17 p	-22.1	-22.0	-22.1	---	---	27.8	E	0.46	29.6	-38.3	---	---	729.6	0.028	0.000	18.9	1	1
03/03/06	5:18 p	-22.1	-22.1	-22.1	---	---	26.1	E	0.43	27.8	-38.0	---	---	729.6	0.028	0.000	18.9	1	1
03/03/06	5:19 p	-22.1	-22.1	-22.1	---	---	26.1	ENE	0.43	27.8	-38.0	---	---	729.6	0.028	0.000	18.9	1	1
03/03/06	5:20 p	-22.1	-22.1	-22.2	---	---	26.1	ENE	0.43	28.7	-38.0	---	---	729.7	0.028	0.000	18.9	1	1
03/03/06	5:21 p	-22.1	-22.1	-22.1	---	---	27.0	E	0.45	28.7	-38.2	---	---	729.7	0.028	0.000	18.9	1	1
03/03/06	5:22 p	-22.1	-22.1	-22.1	---	---	27.0	E	0.45	27.8	-38.2	---	---	729.7	0.028	0.000	18.9	1	1
03/03/06	5:23 p	-22.1	-22.1	-22.1	---	---	26.1	E	0.43	29.6	-37.9	---	---	729.7	0.028	0.000	18.9	1	1
03/03/06	5:24 p	-22.1	-22.0	-22.1	---	---	27.0	E	0.45	28.7	-38.1	---	---	729.7	0.028	0.000	18.9	1	1
03/03/06	5:25 p	-21.9	-21.9	-21.9	---	---	25.2	E	0.42	27.8	-37.6	---	---	729.7	0.028	0.000	18.9	1	1
03/03/06	5:26 p	-21.9	-21.9	-21.9	---	---	25.2	E	0.42	27.8	-37.5	---	---	729.7	0.028	0.000	18.9	1	1
03/03/06	5:27 p	-21.8	-21.8	-21.8	---	---	24.3	E	0.41	27.8	-37.2	---	---	729.8	0.028	0.000	18.9	1	1
03/03/06	5:28 p	-21.8	-21.7	-21.8	---	---	26.1	E	0.43	28.7	-37.5	---	---	729.8	0.028	0.000	18.9	1	1
03/03/06	5:29 p	-21.7	-21.7	-21.8	---	---	23.5	E	0.39	27.8	-36.8	---	---	729.8	0.028	0.000	18.9	1	1
03/03/06	5:30 p	-21.7	-21.7	-21.7	---	---	25.2	E	0.42	28.7	-37.2	---	---	729.9	0.028	0.000	18.9	1	1
03/03/06	5:31 p	-21.7	-21.7	-21.7	---	---	24.3	E	0.41	28.7	-37.1	---	---	729.9	0.028	0.000	18.9	1	1
03/03/06	5:32 p	-21.7	-21.7	-21.7	---	---	26.1	E	0.43	28.7	-37.4	---	---	729.9	0.028	0.000	18.9	1	1
03/03/06	5:33 p	-21.7	-21.7	-21.7	---	---	24.3	E	0.41	27.0	-36.9	---	---	730.0	0.028	0.000	18.9	1	1
03/03/06	5:34 p	-21.7	-21.7	-21.7	---	---	25.2	E	0.42	27.8	-37.2	---	---	729.9	0.028	0.000	18.9	1	1
03/03/06	5:35 p	-21.7	-21.7	-21.7	---	---	24.3	E	0.41	26.1	-36.9	---	---	730.0	0.028	0.000	18.9	1	1
03/03/06	5:36 p	-21.7	-21.7	-21.7	---	---	24.3	E	0.41	27.8	-37.1	---	---	729.9	0.028	0.000	18.9	1	1
03/03/06	5:37 p	-21.7	-21.7	-21.7	---	---	27.0	E	0.45	29.6	-37.7	---	---	729.9	0.028	0.000	18.9	1	1
03/03/06	5:38 p	-21.7	-21.7	-21.7	---	---	27.8	E	0.46	29.6	-37.8	---	---	729.9	0.028	0.000	18.9	1	1
03/03/06	5:39 p	-21.7	-21.7	-21.7	---	---	27.0	E	0.45	30.4	-37.7	---	---	729.9	0.028	0.000	18.9	1	1
03/03/06	5:40 p	-21.7	-21.7	-21.8	---	---	26.1	E	0.43	28.7	-37.4	---	---	729.8	0.028	0.000	18.9	1	1
03/03/06	5:41 p	-21.8	-21.7	-21.8	---	---	27.8	E	0.46	33.0	-37.9	---	---	729.6	0.028	0.000	18.9	1	1
03/03/06	5:42 p	-21.8	-21.7	-21.8	---	---	30.4	E	0.51	33.0	-38.4	---	---	729.7	0.028	0.000	18.9	1	1
03/03/06	5:43 p	-21.8	-21.8	-21.8	---	---	29.6	E	0.49	31.3	-38.3	---	---	729.6	0.028	0.000	18.9	1	1
03/03/06	5:44 p	-21.8	-21.8	-21.8	---	---	30.4	E	0.51	32.2	-38.4	---	---	729.6	0.028	0.000	18.9	1	1
03/03/06	5:45 p	-21.8	-21.8	-21.8	---	---	30.4	E	0.51	33.0	-38.6	---	---	729.7	0.028	0.000	18.9	1	1
03/03/06	5:46 p	-21.8	-21.8	-21.8	---	---	29.6	ENE	0.49	32.2	-38.3	---	---	729.6	0.028	0.000	18.9	1	1
03/03/06	5:47 p	-21.8	-21.7	-21.8	---	---	30.4	ENE	0.51	32.2	-38.4	---	---	729.7	0.028	0.000	18.9	1	1
03/03/06	5:48 p	-21.7	-21.7	-21.8	---	---	27.0	ENE	0.45	28.7	-37.7	---	---	729.8	0.028	0.000	18.9	1	1
03/03/06	5:49 p	-21.7	-21.7	-21.7	---	---	28.7	ENE	0.48	30.4	-37.9	---	---	729.7	0.028	0.000	18.9	1	1
03/03/06	5:50 p	-21.6	-21.6	-21.7	---	---	28.7	ENE	0.48	31.3	-37.9	---	---	729.6	0.028	0.000	18.9	1	1
03/03/06	5:51 p	-21.6	-21.6	-21.6	---	---	28.7	E	0.48	32.2	-37.9	---	---	729.5	0.028	0.000	18.9	1	1
03/03/06	5:52 p	-21.6	-21.5	-21.6	---	---	30.4	E	0.51	33.0	-38.2	---	---	729.5	0.028	0.000	18.9	1	1
03/03/06	5:53 p	-21.5	-21.5	-21.6	---	---	31.3	ENE	0.52	33.9	-38.2	---	---	729.7	0.028	0.000	18.9	1	1
03/03/06	5:54 p	-21.5	-21.5	-21.5	---	---	32.2	E	0.54	38.3	-38.4	---	---	729.4	0.028	0.000	18.9	1	1
03/03/06	5:55 p	-21.4	-21.4	-21.5	---	---	33.9	E	0.57	36.5	-38.7	---	---	729.6	0.028	0.000	18.9	1	1
03/03/06	5:56 p	-21.4	-21.4	-21.4	---	---	28.7	E	0.48	32.2	-37.7	---	---	729.7	0.028	0.000	18.9	1	1
03/03/06	5:57 p	-21.4	-21.4	-21.4	---	---	23.5	E	0.39	27.8	-36.4	---	---	729.5	0.028	0.000	18.9	1	1
03/03/06	5:58 p	-21.4	-21.4	-21.4	---	---	28.7	E	0.48	34.8	-37.7	---	---	729.3	0.028	0.000	18.9	1	1
03/03/06	5:59 p	-21.5	-21.4	-21.5	---	---	32.2	E	0.54	35.7	-38.4	---	---	729.5	0.028	0.000	18.9	1	1
03/03/06	6:00 p	-21.6	-21.6	-21.6	---	---	28.7	E	0.48	32.2	-37.8	---	---	729.7	0.028	0.000	18.9	1	1
03/03/06	6:01 p	-21.7	-21.6	-21.7	---	---	31.3	E	0.52	33.9	-38.4	---	---	729.6	0.028	0.000	18.9	1	1
03/03/06	6:02 p	-21.7	-21.7	-21.7	---	---	29.6	E	0.49	33.0	-38.1	---	---	729.2	0.028	0.000	18.9	1	1
03/03/06	6:03 p	-21.7	-21.7	-21.7	---	---	36.5	E	0.61	39.1	-39.5	---	---	729.4	0.028	0.000	18.9	1	1
03/03/06	6:04 p	-21.7	-21.7	-21.7	---	---	33.0	E	0.55	34.8	-38.9	---	---	729.6	0.028	0.000	18.9	1	1
03/03/06	6:05 p	-21.7	-21.7	-21.7	---	---	32.2	ENE	0.54	33.9	-38.7	---	---	729.4	0.028	0.000	18.9	1	1
03/03/06	6:06 p	-21.7	-21.6	-21.7	---	---	30.4	E	0.51	34.8	-38.3	---	---	729.5	0.028	0.000	18.9	1	1
03/03/06	6:07 p	-21.6	-21.6	-21.6	---	---	33.0	E	0.55	39.1	-38.7	---	---	729.2	0.028	0.000	18.9	1	1
03/03/06	6:08 p	-21.7	-21.6	-21.7	---	---	36.5	E	0.61	38.3	-39.4	---	---	729.3	0.028	0.000	18.9	1	1
03/03/06	6:09 p	-21.7	-21.7	-21.8	---	---	33.9	E	0.57	38.3	-39.1	---	---	729.4	0.028	0.000	18.9	1	1
03/03/06	6:10 p	-21.8	-21.8	-21.8	---	---	33.0	E	0.55	36.5	-38.9	---	---	729.5	0.028	0.000	18.9	1	1
03/03/06	6:11 p	-21.8	-21.8	-21.8	---	---	27.8	E	0.46	31.3	-38.0	---	---	729.6	0.028	0.000	18.9	1	1
03/03/06	6:12 p	-21.8	-21.8	-21.8	---	---	33.0	E	0.55	42.6	-39.1	---	---	729.0	0.028	0.000	18.9	1	1
03/03/06	6:13 p	-21.8	-21.8	-21.8	---	---	36.5	ENE	0.61	40.9	-39.7	---	---	729.5	0.028	0.000	18.9	1	1
03/03/06	6:14 p	-21.8	-21.8	-21.8	---	---	30.4	ENE	0.51	34.8	-38.6	---	---	729.7	0.028	0.000	18.9	1	1
03/03/06	6:15 p	-21.8	-21.8	-21.9	---	---	28.7	E	0.48	34.8	-38.2	---	---	729.3	0.028	0.000	18.9	1	1
03/03/06	6:16 p	-21.9	-21.8	-21.9	---	---	34.8	ENE	0.58	37.4	-39.4	---	---	729.4	0.028	0.000	18.9	1	1
03/03/06	6:17 p	-21.9	-21.9	-21.9	---	---	32.2	ENE	0.54	33.9	-38.9	---	---	729.4	0.028	0.000	18.9	1	1
03/03/06	6:18 p	-21.9	-21.9	-21.9	---	---	27.8	E	0.46	31.3	-38.1	---	---	729.3	0.028	0.000	18.9	1	1
03/03/06	6:19 p	-21.9	-21.9	-21.9	---	---	27.8	E	0.46	32.2	-38.1	---	---	729.2	0.028	0.000	18.9	1	1
03/03/06	6:20 p	-21.9	-21.9	-22.0	---	---	34.8	E	0.58	38.3	-39.5	---	---	729.0	0.028	0.000	18.8	1	1
03/03/06	6:21 p	-22.1	-22.0	-22.1	---	---	33.9	ENE	0.57	37.4	-39.5	---	---	729.4	0.028	0.000	18.8	1	1
03/03/06	6:22 p	-22.1	-22.1	-22.1	---	---	30.4	ENE	0.51	32.2	-38.8	---	---	729.4	0.028	0.000	18.8	1	1
03/03/06	6:23 p	-22.1	-22.0	-22.1	---	---	28.7	E	0.48	32.2	-38.5	---	---	729.4	0.028	0.000	18.8	1	1
03/03/06	6:24 p	-22.0	-22.0	-22.0	---	---	27.8	E	0.46	32.2	-38.2	---	---	729.4	0.028	0.000	18.9	1	1
03/03/06	6:25 p	-21.9	-21.9	-22.0	---	---	34.8	ENE	0.58	39.1	-39.5	---	---	729.3	0.028	0.000	18.8	1	1
03/03/06	6:26 p	-21.9	-21.9	-21.9	---	---	33.0	E	0.55	35.7	-39.2	---	---	729.4	0.028	0.000	18.8	1	1
03/03/06	6:27 p	-21.9	-21.9	-22.0	---	---	29.6	E	0.49	33.9	-38.5	---	---	729.2	0.028	0.000	18.8	1	1
03/03/06	6:28 p	-21.9	-21.9	-21.9	---	---	33.9	E	0.57	37.4	-39.3	---	---	729.2	0.028	0.000	18.8	1	1
03/03/06	6:29 p	-22.0	-21.9	-22.0	---	---	31.3	E	0.52	36.5	-38.9	---	---	729.4	0.028	0.000	18.8	1	1
03/03/06	6:30 p	-22.0	-22.0	-22.0	---	---	32.2	E	0.54	34.8	-39.1	---	---	729.4	0.028	0.000	18.8	1	1
03/03/06	6:31 p	-22.1	-22.1	-22.1	---	---	29.6	E	0.49	32.2	-38.7	---	---	729.3	0.028	0.000	18.8	1	1
03/03/06	6:32 p	-22.1	-22.1	-22.1	---	---	30.4	E	0.51	33.9	-38.8	---	---	729.4	0.028	0.000	18.8	1	1
03/03/06	6:33 p	-22.1	-22.1	-22.1	---	---	27.0	E	0.45	34.8	-38.2	---	---	729.2	0.028	0.000	18.8	1	1
03/03/06	6:34 p	-22.2	-22.1	-22.2	---	---	33.9	E	0.57	37.4	-39.7	---	---	729.2	0.028	0.000	18.8	1	1
03/03/06	6:35 p	-22.2	-22.2	-22.2	---	---	30.4	E	0.51	34.8	-39.0	---	---	729.2	0.028	0.000	18.8	1	1
03/03/06	6:36 p	-22.2	-22.2	-22.3	---	---	33.0	E	0.55	36.5	-39.6	---	---	729.4	0.028	0.000	18.8	1	1
03/03/06	6:37 p	-22.3	-22.3	-22.3	---	---	27.0	E	0.45	32.2	-38.4	---	---	729.5	0.028	0.000	18.8	1	1
03/03/06	6:38 p	-22.3	-22.3	-22.3	---	---	27.8	E	0.46	30.4	-38.6	---	---	729.5	0.028	0.000	18.8	1	1
03/03/06	6:39 p	-22.3	-22.3	-22.4	---	---	27.8	E	0.46	37.4	-38.7	---	---	729.0	0.028	0.000	18.8	1	1
03/03/06	6:40 p	-22.4	-22.3	-22.4	---	---	36.5	E	0.61	38.3	-40.4	---	---	729.1	0.028	0.000	18.8	1	1
03/03/06	6:41 p	-22.4	-22.4	-22.5	---	---	35.7	E	0.59	40.0	-40.3	---	---	729.3	0.028	0.000	18.8	1	1
03/03/06	6:42 p	-22.5	-22.4	-22.5	---	---	28.7	E	0.48	31.3	-39.1	---	---	729.6	0.028	0.000	18.8	1	1
03/03/06	6:43 p	-22.5	-22.5	-22.6	---	---	27.8	E	0.46	32.2	-38.9	---	---	729.4	0.028	0.000	18.8	1	1
03/03/06	6:44 p	-22.6	-22.5	-22.6	---	---	32.2	ENE	0.54	36.5	-39.9	---	---	729.3	0.028	0.000	18.8	1	1
03/03/06	6:45 p	-22.6	-22.6	-22.6	---	---	33.0	ENE	0.55	38.3	-40.1	---	---	729.3	0.028	0.000	18.8	1	1
03/03/06	6:46 p	-22.6	-22.6	-22.6	---	---	32.2	ENE	0.54	34.8	-39.9	---	---	729.3	0.028	0.000	18.8	1	1
03/03/06	6:47 p	-22.5	-22.5	-22.5	---	---	33.9	E	0.57	37.4	-40.1	---	---	729.3	0.028	0.000	18.8	1	1
03/03/06	6:48 p	-22.5	-22.4	-22.6	---	---	29.6	E	0.49	31.3	-39.3	---	---	729.4	0.028	0.000	18.8	1	1
03/03/06	6:49 p	-22.5	-22.4	-22.5	---	---	27.8	E	0.46	32.2	-38.9	---	---	729.5	0.028	0.000	18.8	1	1
03/03/06	6:50 p	-22.4	-22.4	-22.4	---	---	31.3	ENE	0.52	34.8	-39.6	---	---	729.5	0.028	0.000	18.8	1	1
03/03/06	6:51 p	-22.4	-22.4	-22.5	---	---	30.4	ENE	0.51	33.9	-39.4	---	---	729.5	0.028	0.000	18.8	1	1
03/03/06	6:52 p	-22.4	-22.4	-22.4	---	---	27.8	ENE	0.46	32.2	-38.8	---	---	729.6	0.028	0.000	18.8	1	1
03/03/06	6:53 p	-22.4	-22.3	-22.4	---	---	30.4	ENE	0.51	33.0	-39.3	---	---	729.6	0.028	0.000	18.8	1	1
03/03/06	6:54 p	-22.3	-22.2	-22.3	---	---	23.5	ENE	0.39	26.1	-37.6	---	---	729.6	0.028	0.000	18.8	1	1
03/03/06	6:55 p	-22.2	-22.2	-22.2	---	---	29.6	ENE	0.49	36.5	-38.9	---	---	729.7	0.028	0.000	18.8	1	1
03/03/06	6:56 p	-22.2	-22.2	-22.2	---	---	30.4	ENE	0.51	33.0	-39.1	---	---	729.7	0.028	0.000	18.8	1	1
03/03/06	6:57 p	-22.2	-22.2	-22.2	---	---	27.0	ENE	0.45	35.7	-38.2	---	---	729.7	0.028	0.000	18.8	1	1
03/03/06	6:58 p	-22.2	-22.2	-22.2	---	---	29.6	ENE	0.49	34.8	-38.8	---	---	729.6	0.028	0.000	18.8	1	1
03/03/06	6:59 p	-22.1	-22.1	-22.1	---	---	27.8	ENE	0.46	32.2	-38.4	---	---	729.6	0.028	0.000	18.8	1	1
03/03/06	7:00 p	-22.1	-22.1	-22.2	---	---	28.7	ENE	0.48	32.2	-38.6	---	---	729.5	0.028	0.000	18.8	1	1
03/03/06	7:01 p	-22.1	-22.1	-22.1	---	---	27.8	ENE	0.46	31.3	-38.4	---	---	729.6	0.028	0.000	18.8	1	1
03/03/06	7:02 p	-22.1	-22.1	-22.1	---	---	27.8	ENE	0.46	31.3	-38.3	---	---	729.6	0.028	0.000	18.8	1	1
03/03/06	7:03 p	-22.1	-22.1	-22.1	---	---	29.6	ENE	0.49	32.2	-38.7	---	---	729.6	0.028	0.000	18.8	1	1
03/03/06	7:04 p	-22.1	-22.1	-22.1	---	---	26.1	ENE	0.43	29.6	-37.9	---	---	729.7	0.028	0.000	18.8	1	1
03/03/06	7:05 p	-22.1	-22.1	-22.1	---	---	27.0	E	0.45	31.3	-38.1	---	---	729.7	0.028	0.000	18.8	1	1
03/03/06	7:06 p	-22.1	-22.0	-22.1	---	---	25.2	ENE	0.42	35.7	-37.7	---	---	729.6	0.028	0.000	18.8	1	1
03/03/06	7:07 p	-22.0	-22.0	-22.0	---	---	28.7	ENE	0.48	33.9	-38.4	---	---	729.7	0.028	0.000	18.8	1	1
03/03/06	7:08 p	-22.0	-21.9	-22.0	---	---	26.1	ENE	0.43	29.6	-37.8	---	---	729.8	0.028	0.000	18.8	1	1
03/03/06	7:09 p	-21.9	-21.9	-21.9	---	---	26.1	ENE	0.43	27.8	-37.8	---	---	729.8	0.028	0.000	18.8	1	1
03/03/06	7:10 p	-21.9	-21.9	-21.9	---	---	27.8	ENE	0.46	31.3	-38.1	---	---	729.8	0.028	0.000	18.8	1	1
03/03/06	7:11 p	-22.0	-21.9	-22.0	---	---	27.8	ENE	0.46	28.7	-38.2	---	---	729.8	0.028	0.000	18.8	1	1
03/03/06	7:12 p	-22.0	-22.0	-22.1	---	---	26.1	ENE	0.43	30.4	-37.8	---	---	729.7	0.028	0.000	18.8	1	1
03/03/06	7:13 p	-22.0	-22.0	-22.0	---	---	27.8	ENE	0.46	29.6	-38.2	---	---	729.8	0.028	0.000	18.8	1	1
03/03/06	7:14 p	-22.1	-22.0	-22.1	---	---	25.2	ENE	0.42	29.6	-37.7	---	---	729.8	0.028	0.000	18.8	1	1
03/03/06	7:15 p	-22.1	-22.0	-22.1	---	---	26.1	ENE	0.43	28.7	-37.9	---	---	729.7	0.028	0.000	18.8	1	1
03/03/06	7:16 p	-22.1	-22.1	-22.1	---	---	26.1	ENE	0.43	27.8	-37.9	---	---	729.7	0.028	0.000	18.8	1	1
03/03/06	7:17 p	-22.1	-22.1	-22.1	---	---	27.0	ENE	0.45	29.6	-38.2	---	---	729.7	0.028	0.000	18.8	1	1
03/03/06	7:18 p	-22.1	-22.1	-22.2	---	---	26.1	ENE	0.43	28.7	-38.0	---	---	729.8	0.028	0.000	18.8	1	1
03/03/06	7:19 p	-22.2	-22.1	-22.2	---	---	26.1	ENE	0.43	27.8	-38.1	---	---	729.8	0.028	0.000	18.8	1	1
03/03/06	7:20 p	-22.1	-22.1	-22.2	---	---	24.3	ENE	0.41	27.0	-37.6	---	---	729.9	0.028	0.000	18.8	1	1
03/03/06	7:21 p	-22.2	-22.1	-22.2	---	---	26.1	ENE	0.43	27.8	-38.1	---	---	729.9	0.028	0.000	18.8	1	1
03/03/06	7:22 p	-22.2	-22.2	-22.2	---	---	24.3	ENE	0.41	27.0	-37.7	---	---	730.0	0.028	0.000	18.8	1	1
03/03/06	7:23 p	-22.2	-22.2	-22.2	---	---	25.2	ENE	0.42	27.0	-37.8	---	---	729.9	0.028	0.000	18.8	1	1
03/03/06	7:24 p	-22.2	-22.2	-22.2	---	---	25.2	ENE	0.42	27.0	-37.9	---	---	729.9	0.028	0.000	18.8	1	1
03/03/06	7:25 p	-22.2	-22.2	-22.2	---	---	25.2	ENE	0.42	27.0	-37.9	---	---	730.0	0.028	0.000	18.8	1	1
03/03/06	7:26 p	-22.2	-22.2	-22.2	---	---	23.5	ENE	0.39	25.2	-37.5	---	---	730.0	0.028	0.000	18.8	1	1
03/03/06	7:27 p	-22.2	-22.2	-22.2	---	---	23.5	ENE	0.39	26.1	-37.5	---	---	730.2	0.028	0.000	18.8	1	1
03/03/06	7:28 p	-22.2	-22.2	-22.3	---	---	22.6	ENE	0.38	24.3	-37.3	---	---	730.2	0.028	0.000	18.8	1	1
03/03/06	7:29 p	-22.3	-22.2	-22.3	---	---	20.9	ENE	0.35	22.6	-36.9	---	---	730.4	0.028	0.000	18.8	1	1
03/03/06	7:30 p	-22.3	-22.3	-22.3	---	---	20.0	ENE	0.33	23.5	-36.7	---	---	730.5	0.028	0.000	18.8	1	1
03/03/06	7:31 p	-22.3	-22.2	-22.3	---	---	19.1	ENE	0.32	20.9	-36.4	---	---	730.6	0.028	0.000	18.7	1	1
03/03/06	7:32 p	-22.2	-22.2	-22.3	---	---	19.1	ENE	0.32	20.9	-36.3	---	---	730.6	0.028	0.000	18.7	1	1
03/03/06	7:33 p	-22.2	-22.2	-22.2	---	---	20.0	ENE	0.33	21.7	-36.6	---	---	730.7	0.028	0.000	18.7	1	1
03/03/06	7:34 p	-22.2	-22.2	-22.2	---	---	17.4	ENE	0.29	19.1	-35.8	---	---	730.8	0.028	0.000	18.7	1	1
03/03/06	7:35 p	-22.2	-22.2	-22.2	---	---	18.3	ENE	0.30	19.1	-36.1	---	---	730.7	0.028	0.000	18.7	1	1
03/03/06	7:36 p	-22.2	-22.2	-22.2	---	---	20.9	ENE	0.35	22.6	-36.8	---	---	730.7	0.028	0.000	18.7	1	1
03/03/06	7:37 p	-22.2	-22.2	-22.2	---	---	20.0	ENE	0.33	20.9	-36.6	---	---	730.8	0.028	0.000	18.7	1	1
03/03/06	7:38 p	-22.2	-22.2	-22.2	---	---	18.3	ENE	0.30	20.0	-36.0	---	---	730.7	0.028	0.000	18.7	1	1
03/03/06	7:39 p	-22.2	-22.2	-22.2	---	---	19.1	NE	0.32	20.9	-36.3	---	---	730.7	0.028	0.000	18.7	1	1
03/03/06	7:40 p	-22.2	-22.2	-22.2	---	---	20.9	NE	0.35	22.6	-36.7	---	---	730.7	0.028	0.000	18.7	1	1
03/03/06	7:41 p	-22.2	-22.1	-22.2	---	---	20.9	NE	0.35	23.5	-36.7	---	---	730.7	0.028	0.000	18.7	1	1
03/03/06	7:42 p	-22.1	-22.1	-22.1	---	---	19.1	NE	0.32	22.6	-36.2	---	---	730.8	0.028	0.000	18.7	1	1
03/03/06	7:43 p	-22.1	-22.1	-22.1	---	---	18.3	ENE	0.30	20.0	-35.9	---	---	730.8	0.028	0.000	18.7	1	1
03/03/06	7:44 p	-22.1	-22.1	-22.1	---	---	18.3	ENE	0.30	20.0	-35.9	---	---	730.8	0.028	0.000	18.7	1	1
03/03/06	7:45 p	-22.1	-22.1	-22.1	---	---	20.0	ENE	0.33	20.9	-36.4	---	---	730.8	0.028	0.000	18.7	1	1
03/03/06	7:46 p	-22.1	-22.1	-22.1	---	---	19.1	ENE	0.32	20.9	-36.1	---	---	730.7	0.028	0.000	18.7	1	1
03/03/06	7:47 p	-22.1	-22.1	-22.1	---	---	20.0	ENE	0.33	20.9	-36.4	---	---	730.8	0.028	0.000	18.7	1	1
03/03/06	7:48 p	-22.1	-22.1	-22.2	---	---	20.9	ENE	0.35	22.6	-36.7	---	---	730.6	0.028	0.000	18.7	1	1
03/03/06	7:49 p	-22.2	-22.1	-22.2	---	---	21.7	ENE	0.36	22.6	-37.0	---	---	730.6	0.028	0.000	18.7	1	1
03/03/06	7:50 p	-22.2	-22.2	-22.2	---	---	20.9	ENE	0.35	23.5	-36.7	---	---	730.6	0.028	0.000	18.7	1	1
03/03/06	7:51 p	-22.2	-22.2	-22.2	---	---	20.9	ENE	0.35	22.6	-36.8	---	---	730.7	0.028	0.000	18.7	1	1
03/03/06	7:52 p	-22.2	-22.2	-22.3	---	---	20.9	ENE	0.35	23.5	-36.8	---	---	730.6	0.028	0.000	18.7	1	1
03/03/06	7:53 p	-22.3	-22.3	-22.3	---	---	20.9	ENE	0.35	23.5	-36.9	---	---	730.6	0.028	0.000	18.7	1	1
03/03/06	7:54 p	-22.3	-22.3	-22.3	---	---	20.9	ENE	0.35	23.5	-36.9	---	---	730.7	0.028	0.000	18.7	1	1
03/03/06	7:55 p	-22.3	-22.3	-22.3	---	---	19.1	ENE	0.32	20.9	-36.4	---	---	730.7	0.028	0.000	18.7	1	1
03/03/06	7:56 p	-22.3	-22.3	-22.3	---	---	19.1	ENE	0.32	20.9	-36.4	---	---	730.7	0.028	0.000	18.7	1	1
03/03/06	7:57 p	-22.3	-22.3	-22.3	---	---	20.0	ENE	0.33	21.7	-36.7	---	---	730.7	0.028	0.000	18.7	1	1
03/03/06	7:58 p	-22.3	-22.3	-22.4	---	---	19.1	ENE	0.32	20.9	-36.4	---	---	730.7	0.028	0.000	18.7	1	1
03/03/06	7:59 p	-22.4	-22.3	-22.4	---	---	19.1	ENE	0.32	20.9	-36.6	---	---	730.7	0.028	0.000	18.7	1	1
03/03/06	8:00 p	-22.3	-22.3	-22.4	---	---	19.1	ENE	0.32	21.7	-36.4	---	---	730.7	0.028	0.000	18.7	1	1
03/03/06	8:01 p	-22.4	-22.3	-22.4	---	---	19.1	ENE	0.32	20.9	-36.6	---	---	730.6	0.028	0.000	18.7	1	1
03/03/06	8:02 p	-22.4	-22.3	-22.4	---	---	19.1	ENE	0.32	21.7	-36.6	---	---	730.5	0.028	0.000	18.7	1	1
03/03/06	8:03 p	-22.4	-22.3	-22.4	---	---	20.0	ENE	0.33	22.6	-36.8	---	---	730.7	0.028	0.000	18.7	1	1
03/03/06	8:04 p	-22.3	-22.3	-22.3	---	---	20.0	ENE	0.33	21.7	-36.7	---	---	730.6	0.028	0.000	18.7	1	1
03/03/06	8:05 p	-22.3	-22.3	-22.3	---	---	20.9	ENE	0.35	23.5	-36.9	---	---	730.5	0.028	0.000	18.7	1	1
03/03/06	8:06 p	-22.3	-22.3	-22.3	---	---	20.0	ENE	0.33	21.7	-36.7	---	---	730.5	0.028	0.000	18.7	1	1
03/03/06	8:07 p	-22.3	-22.3	-22.3	---	---	21.7	ENE	0.36	25.2	-37.2	---	---	730.4	0.028	0.000	18.7	1	1
03/03/06	8:08 p	-22.3	-22.3	-22.3	---	---	22.6	ENE	0.38	25.2	-37.3	---	---	730.5	0.028	0.000	18.8	1	1
03/03/06	8:09 p	-22.3	-22.2	-22.3	---	---	20.9	ENE	0.35	24.3	-36.9	---	---	730.5	0.028	0.000	18.7	1	1
03/03/06	8:10 p	-22.2	-22.2	-22.3	---	---	21.7	ENE	0.36	23.5	-37.1	---	---	730.5	0.028	0.000	18.7	1	1
03/03/06	8:11 p	-22.2	-22.2	-22.2	---	---	22.6	ENE	0.38	24.3	-37.3	---	---	730.4	0.028	0.000	18.7	1	1
03/03/06	8:12 p	-22.2	-22.2	-22.2	---	---	22.6	ENE	0.38	25.2	-37.3	---	---	730.5	0.028	0.000	18.7	1	1
03/03/06	8:13 p	-22.2	-22.2	-22.2	---	---	22.6	ENE	0.38	24.3	-37.2	---	---	730.6	0.028	0.000	18.7	1	1
03/03/06	8:14 p	-22.2	-22.2	-22.2	---	---	22.6	ENE	0.38	25.2	-37.2	---	---	730.6	0.028	0.000	18.7	1	1
03/03/06	8:15 p	-22.2	-22.2	-22.2	---	---	21.7	ENE	0.36	23.5	-37.0	---	---	730.5	0.028	0.000	18.7	1	1
03/03/06	8:16 p	-22.2	-22.1	-22.2	---	---	21.7	ENE	0.36	22.6	-37.0	---	---	730.6	0.028	0.000	18.7	1	1
03/03/06	8:17 p	-22.2	-22.1	-22.2	---	---	20.9	ENE	0.35	22.6	-36.7	---	---	730.6	0.028	0.000	18.7	1	1
03/03/06	8:18 p	-22.2	-22.1	-22.2	---	---	20.0	NE	0.33	21.7	-36.5	---	---	730.6	0.028	0.000	18.7	1	1
03/03/06	8:19 p	-22.2	-22.1	-22.2	---	---	20.0	ENE	0.33	21.7	-36.5	---	---	730.8	0.028	0.000	18.7	1	1
03/03/06	8:20 p	-22.1	-22.1	-22.2	---	---	20.0	ENE	0.33	20.9	-36.4	---	---	730.7	0.028	0.000	18.7	1	1
03/03/06	8:21 p	-22.1	-22.1	-22.1	---	---	20.0	NE	0.33	21.7	-36.4	---	---	730.8	0.028	0.000	18.7	1	1
03/03/06	8:22 p	-22.1	-22.1	-22.1	---	---	20.9	ENE	0.35	22.6	-36.7	---	---	730.8	0.028	0.000	18.7	1	1
03/03/06	8:23 p	-22.1	-22.1	-22.1	---	---	19.1	NE	0.32	20.9	-36.1	---	---	730.7	0.028	0.000	18.7	1	1
03/03/06	8:24 p	-22.1	-22.1	-22.1	---	---	19.1	NE	0.32	21.7	-36.2	---	---	730.8	0.028	0.000	18.7	1	1
03/03/06	8:25 p	-22.1	-22.1	-22.1	---	---	19.1	NE	0.32	20.9	-36.2	---	---	730.9	0.028	0.000	18.7	1	1
03/03/06	8:26 p	-22.1	-22.1	-22.1	---	---	18.3	NE	0.30	20.0	-35.8	---	---	730.9	0.028	0.000	18.8	1	1
03/03/06	8:27 p	-22.1	-22.0	-22.1	---	---	17.4	NE	0.29	20.0	-35.6	---	---	730.9	0.028	0.000	18.8	1	1
03/03/06	8:28 p	-22.0	-21.9	-22.0	---	---	19.1	NE	0.32	20.9	-36.0	---	---	730.8	0.028	0.000	18.8	1	1
03/03/06	8:29 p	-21.9	-21.9	-21.9	---	---	20.9	NE	0.35	21.7	-36.4	---	---	730.8	0.028	0.000	18.8	1	1
03/03/06	8:30 p	-21.9	-21.9	-21.9	---	---	20.9	NE	0.35	22.6	-36.4	---	---	730.8	0.028	0.000	18.8	1	1
03/03/06	8:31 p	-21.9	-21.9	-21.9	---	---	20.9	NE	0.35	22.6	-36.4	---	---	730.8	0.028	0.000	18.8	1	1
03/03/06	8:32 p	-21.8	-21.8	-21.9	---	---	20.9	NE	0.35	22.6	-36.3	---	---	730.8	0.028	0.000	18.8	1	1
03/03/06	8:33 p	-21.8	-21.8	-21.8	---	---	20.9	NE	0.35	22.6	-36.3	---	---	730.8	0.028	0.000	18.8	1	1
03/03/06	8:34 p	-21.8	-21.8	-21.8	---	---	20.9	NE	0.35	23.5	-36.3	---	---	730.8	0.028	0.000	18.8	1	1
03/03/06	8:35 p	-21.8	-21.8	-21.8	---	---	20.0	NE	0.33	21.7	-36.0	---	---	730.8	0.028	0.000	18.8	1	1
03/03/06	8:36 p	-21.8	-21.7	-21.8	---	---	20.0	ENE	0.33	21.7	-36.0	---	---	730.9	0.028	0.000	18.8	1	1
03/03/06	8:37 p	-21.7	-21.7	-21.7	---	---	19.1	NE	0.32	20.9	-35.7	---	---	730.9	0.028	0.000	18.8	1	1
03/03/06	8:38 p	-21.7	-21.7	-21.7	---	---	18.3	NE	0.30	20.9	-35.4	---	---	730.9	0.028	0.000	18.8	1	1
03/03/06	8:39 p	-21.7	-21.7	-21.7	---	---	18.3	NE	0.30	20.0	-35.4	---	---	730.9	0.028	0.000	18.8	1	1
03/03/06	8:40 p	-21.7	-21.7	-21.7	---	---	18.3	NE	0.30	20.0	-35.3	---	---	731.0	0.028	0.000	18.8	1	1
03/03/06	8:41 p	-21.7	-21.7	-21.7	---	---	17.4	NE	0.29	19.1	-35.1	---	---	731.0	0.028	0.000	18.8	1	1
03/03/06	8:42 p	-21.7	-21.7	-21.7	---	---	18.3	NE	0.30	20.9	-35.4	---	---	730.9	0.028	0.000	18.8	1	1
03/03/06	8:43 p	-21.7	-21.7	-21.7	---	---	19.1	NE	0.32	21.7	-35.7	---	---	731.0	0.028	0.000	18.8	1	1
03/03/06	8:44 p	-21.7	-21.7	-21.7	---	---	18.3	NE	0.30	20.9	-35.3	---	---	731.0	0.028	0.000	18.8	1	1
03/03/06	8:45 p	-21.7	-21.7	-21.7	---	---	17.4	NE	0.29	19.1	-35.1	---	---	731.1	0.028	0.000	18.8	1	1
03/03/06	8:46 p	-21.7	-21.7	-21.7	---	---	16.5	NE	0.28	18.3	-34.8	---	---	731.0	0.028	0.000	18.8	1	1
03/03/06	8:47 p	-21.7	-21.7	-21.7	---	---	16.5	NE	0.28	18.3	-34.8	---	---	731.0	0.028	0.000	18.8	1	1
03/03/06	8:48 p	-21.7	-21.7	-21.7	---	---	17.4	NE	0.29	19.1	-35.1	---	---	731.1	0.028	0.000	18.7	1	1
03/03/06	8:49 p	-21.7	-21.7	-21.7	---	---	18.3	NE	0.30	21.7	-35.4	---	---	731.1	0.028	0.000	18.7	1	1
03/03/06	8:50 p	-21.7	-21.7	-21.7	---	---	17.4	NE	0.29	20.0	-35.1	---	---	731.1	0.028	0.000	18.7	1	1
03/03/06	8:51 p	-21.7	-21.7	-21.7	---	---	17.4	NE	0.29	20.9	-35.1	---	---	731.2	0.028	0.000	18.7	1	1
03/03/06	8:52 p	-21.7	-21.7	-21.7	---	---	17.4	NE	0.29	20.9	-35.1	---	---	731.2	0.028	0.000	18.7	1	1
03/03/06	8:53 p	-21.7	-21.7	-21.7	---	---	17.4	NE	0.29	19.1	-35.1	---	---	731.1	0.028	0.000	18.7	1	1
03/03/06	8:54 p	-21.7	-21.7	-21.7	---	---	18.3	NE	0.30	22.6	-35.3	---	---	731.0	0.028	0.000	18.7	1	1
03/03/06	8:55 p	-21.7	-21.7	-21.7	---	---	18.3	NE	0.30	23.5	-35.3	---	---	730.9	0.028	0.000	18.7	1	1
03/03/06	8:56 p	-21.7	-21.7	-21.7	---	---	16.5	NE	0.28	19.1	-34.8	---	---	731.0	0.028	0.000	18.7	1	1
03/03/06	8:57 p	-21.7	-21.7	-21.7	---	---	16.5	NE	0.28	23.5	-34.8	---	---	731.0	0.028	0.000	18.7	1	1
03/03/06	8:58 p	-21.7	-21.6	-21.7	---	---	17.4	NE	0.29	20.9	-35.1	---	---	730.9	0.028	0.000	18.7	1	1
03/03/06	8:59 p	-21.7	-21.7	-21.7	---	---	17.4	NE	0.29	21.7	-35.1	---	---	730.9	0.028	0.000	18.7	1	1
03/03/06	9:00 p	-21.6	-21.6	-21.7	---	---	16.5	NE	0.28	19.1	-34.7	---	---	731.0	0.028	0.000	18.7	1	1
03/03/06	9:01 p	-21.6	-21.6	-21.6	---	---	14.8	NE	0.25	16.5	-34.1	---	---	731.0	0.028	0.000	18.7	1	1
03/03/06	9:02 p	-21.6	-21.6	-21.6	---	---	15.7	NE	0.26	18.3	-34.4	---	---	731.1	0.028	0.000	18.7	1	1
03/03/06	9:03 p	-21.6	-21.6	-21.6	---	---	14.8	NE	0.25	18.3	-34.1	---	---	731.1	0.028	0.000	18.7	1	1
03/03/06	9:04 p	-21.6	-21.6	-21.6	---	---	16.5	NE	0.28	19.1	-34.6	---	---	731.2	0.028	0.000	18.7	1	1
03/03/06	9:05 p	-21.6	-21.6	-21.6	---	---	16.5	NE	0.28	18.3	-34.6	---	---	731.1	0.028	0.000	18.7	1	1
03/03/06	9:06 p	-21.6	-21.5	-21.6	---	---	17.4	NE	0.29	20.9	-34.9	---	---	731.1	0.028	0.000	18.7	1	1
03/03/06	9:07 p	-21.5	-21.4	-21.5	---	---	16.5	NE	0.28	19.1	-34.6	---	---	731.0	0.028	0.000	18.7	1	1
03/03/06	9:08 p	-21.4	-21.4	-21.5	---	---	16.5	NE	0.28	19.1	-34.4	---	---	731.1	0.028	0.000	18.7	1	1
03/03/06	9:09 p	-21.4	-21.3	-21.4	---	---	13.9	NE	0.23	16.5	-33.4	---	---	731.2	0.028	0.000	18.7	1	1
03/03/06	9:10 p	-21.3	-21.3	-21.4	---	---	14.8	NE	0.25	19.1	-33.7	---	---	731.1	0.028	0.000	18.7	1	1
03/03/06	9:11 p	-21.3	-21.3	-21.3	---	---	13.9	NE	0.23	18.3	-33.3	---	---	731.0	0.028	0.000	18.7	1	1
03/03/06	9:12 p	-21.2	-21.2	-21.3	---	---	14.8	NE	0.25	17.4	-33.6	---	---	731.0	0.027	0.000	18.7	1	1
03/03/06	9:13 p	-21.2	-21.2	-21.2	---	---	16.5	NE	0.28	19.1	-34.1	---	---	731.0	0.027	0.000	18.7	1	1
03/03/06	9:14 p	-21.2	-21.1	-21.2	---	---	16.5	NE	0.28	19.1	-34.1	---	---	731.0	0.027	0.000	18.7	1	1
03/03/06	9:15 p	-21.1	-21.0	-21.1	---	---	15.7	NE	0.26	17.4	-33.7	---	---	730.9	0.027	0.000	18.7	1	1
03/03/06	9:16 p	-21.0	-20.9	-21.0	---	---	13.9	NE	0.23	17.4	-32.9	---	---	730.9	0.027	0.000	18.7	1	1
03/03/06	9:17 p	-20.9	-20.8	-20.9	---	---	12.2	NE	0.20	13.9	-32.1	---	---	730.9	0.027	0.000	18.7	1	1
03/03/06	9:18 p	-20.8	-20.7	-20.8	---	---	9.6	NE	0.16	11.3	-30.8	---	---	731.0	0.027	0.000	18.7	1	1
03/03/06	9:19 p	-20.7	-20.6	-20.7	---	---	8.7	NE	0.14	11.3	-30.2	---	---	731.0	0.027	0.000	18.7	1	1
03/03/06	9:20 p	-20.6	-20.5	-20.6	---	---	7.8	NE	0.13	9.6	-29.5	---	---	731.0	0.027	0.000	18.7	1	1
03/03/06	9:21 p	-20.4	-20.3	-20.4	---	---	7.0	NE	0.12	8.7	-28.7	---	---	730.9	0.027	0.000	18.7	1	1
03/03/06	9:22 p	-20.2	-20.2	-20.2	---	---	3.5	NE	0.06	5.2	-25.5	---	---	730.9	0.027	0.000	18.7	1	1
03/03/06	9:23 p	-20.1	-20.0	-20.1	---	---	2.6	NNE	0.04	3.5	-24.1	---	---	730.9	0.027	0.000	18.7	1	1
03/03/06	9:24 p	-19.9	-19.8	-19.9	---	---	2.6	N	0.04	3.5	-24.0	---	---	731.0	0.027	0.000	18.7	1	1
03/03/06	9:25 p	-19.8	-19.7	-19.9	---	---	3.5	N	0.06	4.3	-24.9	---	---	731.0	0.026	0.000	18.7	1	1
03/03/06	9:26 p	-19.6	-19.5	-19.6	---	---	4.3	N	0.07	5.2	-25.7	---	---	731.0	0.026	0.000	18.7	1	1
03/03/06	9:27 p	-19.4	-19.3	-19.5	---	---	3.5	NNW	0.06	4.3	-24.6	---	---	730.9	0.026	0.000	18.7	1	1
03/03/06	9:28 p	-19.2	-19.1	-19.3	---	---	1.7	NNW	0.03	2.6	-21.7	---	---	731.0	0.026	0.000	18.7	1	1
03/03/06	9:29 p	-18.9	-18.8	-19.1	---	---	0.0	NNW	0.00	1.7	-18.9	---	---	730.9	0.026	0.000	18.7	1	1
03/03/06	9:30 p	-18.8	-18.7	-18.8	---	---	0.0	---	0.00	0.0	-18.7	---	---	730.9	0.026	0.000	18.7	1	1
03/03/06	9:31 p	-18.6	-18.4	-18.6	---	---	0.0	---	0.00	0.0	-18.5	---	---	730.9	0.026	0.000	18.7	1	1
03/03/06	9:32 p	-18.4	-18.3	-18.4	---	---	0.0	NNW	0.00	0.9	-18.3	---	---	730.9	0.026	0.000	18.7	1	1
03/03/06	9:33 p	-18.2	-18.1	-18.2	---	---	0.9	NNW	0.01	1.7	-18.1	---	---	730.9	0.025	0.000	18.7	1	1
03/03/06	9:34 p	-18.0	-17.9	-18.1	---	---	1.7	NNW	0.03	2.6	-20.3	---	---	730.8	0.025	0.000	18.7	1	1
03/03/06	9:35 p	-17.8	-17.8	-17.9	---	---	2.6	NNW	0.04	2.6	-21.6	---	---	730.7	0.025	0.000	18.7	1	1
03/03/06	9:36 p	-17.7	-17.6	-17.7	---	---	3.5	ENE	0.06	6.1	-22.6	---	---	730.7	0.025	0.000	18.7	1	1
03/03/06	9:37 p	-17.6	-17.5	-17.6	---	---	6.1	ENE	0.10	7.0	-24.7	---	---	730.6	0.025	0.000	18.8	1	1
03/03/06	9:38 p	-17.4	-17.3	-17.4	---	---	8.7	NE	0.14	10.4	-26.1	---	---	730.7	0.025	0.000	18.8	1	1
03/03/06	9:39 p	-17.3	-17.2	-17.3	---	---	10.4	NE	0.17	11.3	-26.8	---	---	730.6	0.025	0.000	18.8	1	1
03/03/06	9:40 p	-17.2	-17.2	-17.2	---	---	11.3	NE	0.19	12.2	-27.1	---	---	730.6	0.025	0.000	18.7	1	1
03/03/06	9:41 p	-17.2	-17.2	-17.2	---	---	13.9	NE	0.23	14.8	-28.1	---	---	730.6	0.025	0.000	18.7	1	1
03/03/06	9:42 p	-17.2	-17.2	-17.3	---	---	13.0	NE	0.22	13.9	-27.8	---	---	730.5	0.025	0.000	18.7	1	1
03/03/06	9:43 p	-17.3	-17.3	-17.3	---	---	13.0	NE	0.22	13.9	-27.9	---	---	730.4	0.025	0.000	18.8	1	1
03/03/06	9:44 p	-17.4	-17.3	-17.5	---	---	14.8	NE	0.25	15.7	-28.7	---	---	730.4	0.025	0.000	18.8	1	1
03/03/06	9:45 p	-17.6	-17.5	-17.7	---	---	14.8	NE	0.25	16.5	-28.8	---	---	730.4	0.025	0.000	18.8	1	1
03/03/06	9:46 p	-17.7	-17.7	-17.8	---	---	16.5	NE	0.28	19.1	-29.6	---	---	730.5	0.025	0.000	18.8	1	1
03/03/06	9:47 p	-17.9	-17.9	-18.1	---	---	15.7	NE	0.26	17.4	-29.6	---	---	730.4	0.025	0.000	18.8	1	1
03/03/06	9:48 p	-18.3	-18.2	-18.4	---	---	14.8	NE	0.25	16.5	-29.8	---	---	730.4	0.025	0.000	18.8	1	1
03/03/06	9:49 p	-18.6	-18.4	-18.7	---	---	13.9	NE	0.23	15.7	-29.8	---	---	730.3	0.026	0.000	18.8	1	1
03/03/06	9:50 p	-18.8	-18.7	-18.9	---	---	13.9	NE	0.23	15.7	-30.2	---	---	730.3	0.026	0.000	18.8	1	1
03/03/06	9:51 p	-19.1	-19.0	-19.1	---	---	13.9	NE	0.23	14.8	-30.4	---	---	730.2	0.026	0.000	18.8	1	1
03/03/06	9:52 p	-19.2	-19.1	-19.3	---	---	13.9	NE	0.23	14.8	-30.7	---	---	730.3	0.026	0.000	18.8	1	1
03/03/06	9:53 p	-19.4	-19.3	-19.4	---	---	14.8	NE	0.25	15.7	-31.2	---	---	730.2	0.026	0.000	18.8	1	1
03/03/06	9:54 p	-19.5	-19.4	-19.5	---	---	14.8	NE	0.25	15.7	-31.3	---	---	730.2	0.026	0.000	18.8	1	1
03/03/06	9:55 p	-19.6	-19.6	-19.6	---	---	13.9	NE	0.23	15.7	-31.1	---	---	730.1	0.026	0.000	18.8	1	1
03/03/06	9:56 p	-19.6	-19.6	-19.7	---	---	13.0	NE	0.22	13.9	-30.8	---	---	730.1	0.026	0.000	18.8	1	1
03/03/06	9:57 p	-19.7	-19.6	-19.7	---	---	12.2	NE	0.20	13.0	-30.6	---	---	730.2	0.026	0.000	18.8	1	1
03/03/06	9:58 p	-19.6	-19.6	-19.6	---	---	13.0	NE	0.22	13.9	-30.8	---	---	730.1	0.026	0.000	18.8	1	1
03/03/06	9:59 p	-19.6	-19.5	-19.6	---	---	13.0	NE	0.22	14.8	-30.8	---	---	730.0	0.026	0.000	18.8	1	1
03/03/06	10:00 p	-19.5	-19.4	-19.5	---	---	12.2	NE	0.20	13.0	-30.3	---	---	730.1	0.026	0.000	18.8	1	1
03/03/06	10:01 p	-19.4	-19.4	-19.4	---	---	9.6	ENE	0.16	12.2	-29.1	---	---	730.1	0.026	0.000	18.8	1	1
03/03/06	10:02 p	-19.4	-19.4	-19.4	---	---	10.4	NE	0.17	11.3	-29.4	---	---	730.1	0.026	0.000	18.8	1	1
03/03/06	10:03 p	-19.3	-19.3	-19.3	---	---	10.4	NE	0.17	12.2	-29.4	---	---	730.0	0.026	0.000	18.8	1	1
03/03/06	10:04 p	-19.2	-19.2	-19.3	---	---	11.3	NE	0.19	13.0	-29.6	---	---	730.0	0.026	0.000	18.8	1	1
03/03/06	10:05 p	-19.2	-19.1	-19.2	---	---	11.3	NE	0.19	12.2	-29.6	---	---	730.0	0.026	0.000	18.8	1	1
03/03/06	10:06 p	-19.1	-19.0	-19.1	---	---	13.0	NE	0.22	13.9	-30.1	---	---	730.0	0.026	0.000	18.8	1	1
03/03/06	10:07 p	-19.0	-18.9	-19.0	---	---	12.2	NE	0.20	13.9	-29.7	---	---	730.0	0.026	0.000	18.8	1	1
03/03/06	10:08 p	-18.9	-18.8	-18.9	---	---	12.2	NE	0.20	13.0	-29.6	---	---	730.1	0.026	0.000	18.8	1	1
03/03/06	10:09 p	-18.8	-18.8	-18.9	---	---	13.0	NE	0.22	14.8	-29.8	---	---	730.1	0.026	0.000	18.8	1	1
03/03/06	10:10 p	-18.8	-18.8	-18.8	---	---	14.8	NE	0.25	16.5	-30.5	---	---	730.1	0.026	0.000	18.8	1	1
03/03/06	10:11 p	-18.8	-18.8	-18.9	---	---	15.7	NE	0.26	16.5	-30.8	---	---	730.1	0.026	0.000	18.7	1	1
03/03/06	10:12 p	-18.9	-18.9	-18.9	---	---	15.7	NE	0.26	16.5	-30.8	---	---	730.1	0.026	0.000	18.7	1	1
03/03/06	10:13 p	-19.0	-18.9	-19.1	---	---	14.8	NE	0.25	15.7	-30.7	---	---	730.1	0.026	0.000	18.8	1	1
03/03/06	10:14 p	-19.1	-19.1	-19.2	---	---	14.8	NE	0.25	16.5	-30.8	---	---	730.1	0.026	0.000	18.8	1	1
03/03/06	10:15 p	-19.3	-19.2	-19.3	---	---	15.7	NE	0.26	16.5	-31.3	---	---	730.1	0.026	0.000	18.7	1	1
03/03/06	10:16 p	-19.4	-19.3	-19.5	---	---	15.7	NE	0.26	16.5	-31.6	---	---	730.1	0.026	0.000	18.7	1	1
03/03/06	10:17 p	-19.5	-19.5	-19.5	---	---	15.7	NE	0.26	17.4	-31.7	---	---	730.0	0.026	0.000	18.7	1	1
03/03/06	10:18 p	-19.6	-19.6	-19.7	---	---	16.5	NE	0.28	17.4	-32.1	---	---	730.1	0.026	0.000	18.7	1	1
03/03/06	10:19 p	-19.7	-19.7	-19.7	---	---	16.5	NE	0.28	18.3	-32.2	---	---	730.0	0.026	0.000	18.7	1	1
03/03/06	10:20 p	-19.8	-19.8	-19.8	---	---	16.5	NE	0.28	17.4	-32.4	---	---	730.0	0.027	0.000	18.7	1	1
03/03/06	10:21 p	-19.9	-19.9	-19.9	---	---	16.5	NE	0.28	17.4	-32.4	---	---	730.1	0.027	0.000	18.7	1	1
03/03/06	10:22 p	-20.0	-19.9	-20.1	---	---	14.8	NE	0.25	16.5	-32.0	---	---	730.0	0.027	0.000	18.7	1	1
03/03/06	10:23 p	-20.1	-20.1	-20.1	---	---	15.7	NE	0.26	16.5	-32.4	---	---	730.1	0.027	0.000	18.7	1	1
03/03/06	10:24 p	-20.1	-20.1	-20.1	---	---	14.8	NE	0.25	17.4	-32.1	---	---	730.0	0.027	0.000	18.7	1	1
03/03/06	10:25 p	-20.1	-20.1	-20.1	---	---	15.7	NE	0.26	18.3	-32.4	---	---	730.0	0.027	0.000	18.7	1	1
03/03/06	10:26 p	-20.1	-20.1	-20.1	---	---	16.5	NE	0.28	18.3	-32.7	---	---	730.0	0.027	0.000	18.7	1	1
03/03/06	10:27 p	-20.1	-20.1	-20.1	---	---	16.5	NE	0.28	18.3	-32.7	---	---	730.0	0.027	0.000	18.8	1	1
03/03/06	10:28 p	-20.1	-20.1	-20.1	---	---	16.5	NE	0.28	18.3	-32.7	---	---	729.9	0.027	0.000	18.8	1	1
03/03/06	10:29 p	-20.1	-20.1	-20.1	---	---	15.7	NE	0.26	17.4	-32.4	---	---	730.1	0.027	0.000	18.7	1	1
03/03/06	10:30 p	-20.1	-20.0	-20.1	---	---	16.5	NE	0.28	17.4	-32.7	---	---	730.0	0.027	0.000	18.7	1	1
03/03/06	10:31 p	-20.0	-20.0	-20.1	---	---	15.7	NE	0.26	17.4	-32.3	---	---	730.0	0.027	0.000	18.7	1	1
03/03/06	10:32 p	-20.0	-20.0	-20.0	---	---	16.5	NE	0.28	18.3	-32.6	---	---	730.0	0.027	0.000	18.8	1	1
03/03/06	10:33 p	-20.0	-20.0	-20.0	---	---	16.5	NE	0.28	18.3	-32.6	---	---	730.0	0.027	0.000	18.8	1	1
03/03/06	10:34 p	-20.0	-19.9	-20.0	---	---	16.5	NE	0.28	17.4	-32.6	---	---	730.0	0.027	0.000	18.8	1	1
03/03/06	10:35 p	-19.9	-19.9	-19.9	---	---	15.7	NE	0.26	16.5	-32.2	---	---	730.0	0.027	0.000	18.8	1	1
03/03/06	10:36 p	-19.9	-19.9	-19.9	---	---	14.8	NE	0.25	15.7	-31.9	---	---	729.9	0.027	0.000	18.8	1	1
03/03/06	10:37 p	-19.9	-19.8	-19.9	---	---	14.8	NE	0.25	15.7	-31.8	---	---	729.8	0.027	0.000	18.8	1	1
03/03/06	10:38 p	-19.8	-19.8	-19.9	---	---	14.8	NE	0.25	16.5	-31.8	---	---	729.9	0.027	0.000	18.8	1	1
03/03/06	10:39 p	-19.8	-19.7	-19.8	---	---	16.5	NE	0.28	19.1	-32.3	---	---	729.8	0.026	0.000	18.8	1	1
03/03/06	10:40 p	-19.7	-19.7	-19.7	---	---	16.5	NE	0.28	19.1	-32.2	---	---	729.8	0.026	0.000	18.8	1	1
03/03/06	10:41 p	-19.7	-19.6	-19.7	---	---	17.4	NE	0.29	19.1	-32.4	---	---	729.7	0.026	0.000	18.8	1	1
03/03/06	10:42 p	-19.6	-19.6	-19.7	---	---	17.4	NE	0.29	19.1	-32.3	---	---	729.7	0.026	0.000	18.8	1	1
03/03/06	10:43 p	-19.6	-19.6	-19.7	---	---	16.5	NE	0.28	18.3	-32.1	---	---	729.8	0.026	0.000	18.8	1	1
03/03/06	10:44 p	-19.6	-19.6	-19.7	---	---	17.4	NE	0.29	18.3	-32.3	---	---	729.8	0.026	0.000	18.8	1	1
03/03/06	10:45 p	-19.6	-19.6	-19.7	---	---	15.7	NE	0.26	17.4	-31.8	---	---	729.8	0.026	0.000	18.8	1	1
03/03/06	10:46 p	-19.6	-19.6	-19.7	---	---	13.9	NE	0.23	15.7	-31.2	---	---	729.8	0.026	0.000	18.8	1	1
03/03/06	10:47 p	-19.6	-19.6	-19.6	---	---	13.9	NE	0.23	16.5	-31.2	---	---	729.9	0.026	0.000	18.8	1	1
03/03/06	10:48 p	-19.6	-19.6	-19.6	---	---	14.8	NE	0.25	17.4	-31.5	---	---	729.8	0.026	0.000	18.8	1	1
03/03/06	10:49 p	-19.6	-19.6	-19.6	---	---	17.4	NE	0.29	18.3	-32.3	---	---	730.1	0.026	0.000	18.8	1	1
03/03/06	10:50 p	-19.6	-19.6	-19.7	---	---	15.7	NE	0.26	18.3	-31.8	---	---	730.1	0.026	0.000	18.8	1	1
03/03/06	10:51 p	-19.7	-19.6	-19.7	---	---	15.7	NE	0.26	16.5	-31.9	---	---	730.1	0.026	0.000	18.8	1	1
03/03/06	10:52 p	-19.7	-19.6	-19.7	---	---	16.5	NE	0.28	19.1	-32.2	---	---	730.0	0.026	0.000	18.8	1	1
03/03/06	10:53 p	-19.7	-19.6	-19.7	---	---	16.5	NE	0.28	17.4	-32.2	---	---	730.1	0.026	0.000	18.8	1	1
03/03/06	10:54 p	-19.6	-19.6	-19.7	---	---	16.5	NE	0.28	18.3	-32.1	---	---	730.0	0.026	0.000	18.8	1	1
03/03/06	10:55 p	-19.6	-19.5	-19.6	---	---	16.5	NE	0.28	19.1	-32.0	---	---	730.0	0.026	0.000	18.8	1	1
03/03/06	10:56 p	-19.5	-19.5	-19.6	---	---	16.5	NE	0.28	18.3	-31.9	---	---	729.9	0.026	0.000	18.8	1	1
03/03/06	10:57 p	-19.4	-19.4	-19.4	---	---	16.5	NE	0.28	18.3	-31.8	---	---	729.9	0.026	0.000	18.8	1	1
03/03/06	10:58 p	-19.3	-19.3	-19.4	---	---	15.7	NE	0.26	18.3	-31.4	---	---	730.0	0.026	0.000	18.8	1	1
03/03/06	10:59 p	-19.2	-19.2	-19.3	---	---	15.7	NE	0.26	19.1	-31.3	---	---	730.0	0.026	0.000	18.8	1	1
03/03/06	11:00 p	-19.2	-19.1	-19.2	---	---	15.7	NE	0.26	18.3	-31.2	---	---	729.9	0.026	0.000	18.8	1	1
03/03/06	11:01 p	-19.1	-19.1	-19.1	---	---	13.9	NE	0.23	17.4	-30.4	---	---	730.1	0.026	0.000	18.8	1	1
03/03/06	11:02 p	-19.0	-18.9	-19.0	---	---	15.7	NE	0.26	19.1	-31.0	---	---	730.1	0.026	0.000	18.8	1	1
03/03/06	11:03 p	-18.9	-18.8	-18.9	---	---	15.7	NE	0.26	17.4	-30.8	---	---	730.0	0.026	0.000	18.8	1	1
03/03/06	11:04 p	-18.8	-18.8	-18.8	---	---	16.5	NE	0.28	20.0	-31.0	---	---	730.1	0.026	0.000	18.8	1	1
03/03/06	11:05 p	-18.7	-18.7	-18.7	---	---	14.8	NE	0.25	17.4	-30.3	---	---	730.0	0.026	0.000	18.8	1	1
03/03/06	11:06 p	-18.6	-18.6	-18.6	---	---	14.8	NE	0.25	17.4	-30.2	---	---	730.0	0.026	0.000	18.8	1	1
03/03/06	11:07 p	-18.5	-18.4	-18.6	---	---	13.0	NE	0.22	15.7	-29.4	---	---	730.0	0.026	0.000	18.8	1	1
03/03/06	11:08 p	-18.4	-18.3	-18.4	---	---	13.0	NE	0.22	16.5	-29.3	---	---	730.0	0.026	0.000	18.8	1	1
03/03/06	11:09 p	-18.2	-18.2	-18.3	---	---	12.2	NNE	0.20	14.8	-28.7	---	---	730.0	0.025	0.000	18.8	1	1
03/03/06	11:10 p	-18.1	-18.0	-18.1	---	---	12.2	NE	0.20	15.7	-28.5	---	---	729.9	0.025	0.000	18.8	1	1
03/03/06	11:11 p	-17.9	-17.9	-18.0	---	---	13.9	NE	0.23	16.5	-29.1	---	---	730.0	0.025	0.000	18.8	1	1
03/03/06	11:12 p	-17.8	-17.8	-17.8	---	---	13.9	NE	0.23	18.3	-28.9	---	---	730.0	0.025	0.000	18.9	1	1
03/03/06	11:13 p	-17.7	-17.7	-17.8	---	---	12.2	NE	0.20	14.8	-28.1	---	---	730.0	0.025	0.000	18.8	1	1
03/03/06	11:14 p	-17.7	-17.6	-17.7	---	---	11.3	NE	0.19	14.8	-27.7	---	---	729.9	0.025	0.000	18.8	1	1
03/03/06	11:15 p	-17.6	-17.6	-17.6	---	---	13.9	NE	0.23	17.4	-28.6	---	---	730.0	0.025	0.000	18.8	1	1
03/03/06	11:16 p	-17.6	-17.6	-17.6	---	---	11.3	NE	0.19	15.7	-27.5	---	---	730.1	0.025	0.000	18.8	1	1
03/03/06	11:17 p	-17.6	-17.5	-17.6	---	---	14.8	NE	0.25	19.1	-28.8	---	---	730.0	0.025	0.000	18.8	1	1
03/03/06	11:18 p	-17.6	-17.5	-17.6	---	---	13.9	NE	0.23	20.9	-28.6	---	---	730.0	0.025	0.000	18.8	1	1
03/03/06	11:19 p	-17.6	-17.6	-17.6	---	---	13.0	NE	0.22	15.7	-28.2	---	---	730.0	0.025	0.000	18.8	1	1
03/03/06	11:20 p	-17.7	-17.7	-17.7	---	---	15.7	NE	0.26	20.0	-29.3	---	---	729.9	0.025	0.000	18.8	1	1
03/03/06	11:21 p	-17.8	-17.7	-17.8	---	---	15.7	NE	0.26	19.1	-29.4	---	---	730.0	0.025	0.000	18.8	1	1
03/03/06	11:22 p	-17.8	-17.8	-17.9	---	---	15.7	NE	0.26	20.9	-29.5	---	---	729.9	0.025	0.000	18.8	1	1
03/03/06	11:23 p	-17.9	-17.9	-17.9	---	---	15.7	NE	0.26	19.1	-29.6	---	---	729.9	0.025	0.000	18.8	1	1
03/03/06	11:24 p	-17.9	-17.9	-17.9	---	---	14.8	NE	0.25	20.0	-29.3	---	---	729.8	0.025	0.000	18.8	1	1
03/03/06	11:25 p	-17.9	-17.9	-17.9	---	---	15.7	NE	0.26	20.0	-29.6	---	---	729.8	0.025	0.000	18.8	1	1
03/03/06	11:26 p	-17.8	-17.8	-17.9	---	---	14.8	NE	0.25	19.1	-29.2	---	---	729.8	0.025	0.000	18.8	1	1
03/03/06	11:27 p	-17.8	-17.8	-17.8	---	---	15.7	NE	0.26	19.1	-29.4	---	---	729.8	0.025	0.000	18.8	1	1
03/03/06	11:28 p	-17.8	-17.7	-17.8	---	---	17.4	NE	0.29	20.0	-29.9	---	---	729.8	0.025	0.000	18.8	1	1
03/03/06	11:29 p	-17.8	-17.8	-17.8	---	---	17.4	NE	0.29	20.0	-29.9	---	---	729.9	0.025	0.000	18.8	1	1
03/03/06	11:30 p	-17.8	-17.8	-17.8	---	---	16.5	NE	0.28	20.9	-29.7	---	---	729.9	0.025	0.000	18.8	1	1
03/03/06	11:31 p	-17.8	-17.8	-17.8	---	---	15.7	NE	0.26	18.3	-29.4	---	---	729.8	0.025	0.000	18.8	1	1
03/03/06	11:32 p	-17.8	-17.8	-17.8	---	---	14.8	NE	0.25	17.4	-29.1	---	---	729.9	0.025	0.000	18.8	1	1
03/03/06	11:33 p	-17.8	-17.8	-17.8	---	---	13.0	NE	0.22	16.5	-28.5	---	---	729.8	0.025	0.000	18.8	1	1
03/03/06	11:34 p	-17.7	-17.7	-17.7	---	---	11.3	NE	0.19	13.9	-27.7	---	---	729.9	0.025	0.000	18.8	1	1
03/03/06	11:35 p	-17.7	-17.6	-17.7	---	---	12.2	NE	0.20	13.9	-28.0	---	---	729.8	0.025	0.000	18.8	1	1
03/03/06	11:36 p	-17.6	-17.5	-17.6	---	---	10.4	NE	0.17	13.9	-27.2	---	---	729.9	0.025	0.000	18.8	1	1
03/03/06	11:37 p	-17.5	-17.4	-17.5	---	---	11.3	NE	0.19	13.9	-27.4	---	---	729.9	0.025	0.000	18.8	1	1
03/03/06	11:38 p	-17.4	-17.3	-17.4	---	---	10.4	NE	0.17	13.9	-26.9	---	---	729.8	0.025	0.000	18.8	1	1
03/03/06	11:39 p	-17.3	-17.3	-17.3	---	---	11.3	NNE	0.19	13.9	-27.2	---	---	729.8	0.025	0.000	18.8	1	1
03/03/06	11:40 p	-17.2	-17.2	-17.3	---	---	11.3	NE	0.19	13.0	-27.1	---	---	729.9	0.025	0.000	18.8	1	1
03/03/06	11:41 p	-17.2	-17.1	-17.2	---	---	11.3	NE	0.19	13.0	-27.1	---	---	729.8	0.025	0.000	18.8	1	1
03/03/06	11:42 p	-17.1	-17.1	-17.1	---	---	13.9	NE	0.23	17.4	-27.9	---	---	729.8	0.025	0.000	18.8	1	1
03/03/06	11:43 p	-17.1	-17.1	-17.1	---	---	12.2	NE	0.20	15.7	-27.2	---	---	729.9	0.025	0.000	18.8	1	1
03/03/06	11:44 p	-17.0	-17.0	-17.1	---	---	12.2	NE	0.20	14.8	-27.2	---	---	729.9	0.025	0.000	18.8	1	1
03/03/06	11:45 p	-17.0	-17.0	-17.0	---	---	13.9	NE	0.23	15.7	-27.8	---	---	729.9	0.025	0.000	18.8	1	1
03/03/06	11:46 p	-17.0	-17.0	-17.0	---	---	13.0	NE	0.22	15.7	-27.5	---	---	729.8	0.025	0.000	18.8	1	1
03/03/06	11:47 p	-17.0	-17.0	-17.0	---	---	14.8	NE	0.25	17.4	-28.1	---	---	729.9	0.025	0.000	18.8	1	1
03/03/06	11:48 p	-17.0	-17.0	-17.0	---	---	11.3	NE	0.19	13.9	-26.8	---	---	729.9	0.025	0.000	18.8	1	1
03/03/06	11:49 p	-16.9	-16.9	-16.9	---	---	11.3	NE	0.19	13.9	-26.8	---	---	729.9	0.024	0.000	18.8	1	1
03/03/06	11:50 p	-16.9	-16.9	-16.9	---	---	12.2	NE	0.20	14.8	-27.1	---	---	729.9	0.024	0.000	18.8	1	1
03/03/06	11:51 p	-16.9	-16.9	-16.9	---	---	11.3	NE	0.19	13.9	-26.7	---	---	729.8	0.024	0.000	18.8	1	1
03/03/06	11:52 p	-16.9	-16.9	-16.9	---	---	10.4	NE	0.17	13.9	-26.3	---	---	729.9	0.024	0.000	18.9	1	1
03/03/06	11:53 p	-16.8	-16.8	-16.9	---	---	13.0	NE	0.22	17.4	-27.3	---	---	729.9	0.024	0.000	18.9	1	1
03/03/06	11:54 p	-16.9	-16.8	-16.9	---	---	13.0	ENE	0.22	15.7	-27.3	---	---	729.9	0.024	0.000	18.9	1	1
03/03/06	11:55 p	-16.9	-16.8	-16.9	---	---	15.7	ENE	0.26	19.1	-28.2	---	---	729.9	0.024	0.000	18.9	1	1
03/03/06	11:56 p	-16.9	-16.9	-16.9	---	---	17.4	ENE	0.29	19.1	-28.8	---	---	729.9	0.024	0.000	18.9	1	1
03/03/06	11:57 p	-16.9	-16.9	-16.9	---	---	14.8	ENE	0.25	19.1	-28.1	---	---	730.0	0.024	0.000	18.9	1	1
03/03/06	11:58 p	-16.9	-16.9	-16.9	---	---	13.0	ENE	0.22	18.3	-27.4	---	---	730.0	0.024	0.000	18.9	1	1
03/03/06	11:59 p	-17.0	-16.9	-17.0	---	---	14.8	ENE	0.25	19.1	-28.1	---	---	730.0	0.025	0.000	18.9	1	1
03/04/06	12:00 a	-17.0	-17.0	-17.1	---	---	13.0	NE	0.22	16.5	-27.5	---	---	730.1	0.025	0.000	18.9	1	1
03/04/06	12:01 a	-17.2	-17.1	-17.2	---	---	13.0	NE	0.22	17.4	-27.7	---	---	730.1	0.025	0.000	18.9	1	1
03/04/06	12:02 a	-17.2	-17.2	-17.2	---	---	15.7	ENE	0.26	18.3	-28.6	---	---	730.0	0.025	0.000	18.9	1	1
03/04/06	12:03 a	-17.2	-17.2	-17.3	---	---	15.7	ENE	0.26	16.5	-28.7	---	---	730.1	0.025	0.000	18.9	1	1
03/04/06	12:04 a	-17.4	-17.3	-17.4	---	---	14.8	ENE	0.25	17.4	-28.6	---	---	730.1	0.025	0.000	18.9	1	1
03/04/06	12:05 a	-17.6	-17.4	-17.7	---	---	13.9	NE	0.23	18.3	-28.6	---	---	730.2	0.025	0.000	18.9	1	1
03/04/06	12:06 a	-17.7	-17.7	-17.8	---	---	17.4	ENE	0.29	20.0	-29.9	---	---	730.1	0.025	0.000	18.9	1	1
03/04/06	12:07 a	-17.9	-17.8	-17.9	---	---	14.8	ENE	0.25	20.0	-29.3	---	---	730.2	0.025	0.000	18.9	1	1
03/04/06	12:08 a	-18.0	-18.0	-18.1	---	---	17.4	ENE	0.29	20.0	-30.2	---	---	730.1	0.025	0.000	18.9	1	1
03/04/06	12:09 a	-18.1	-18.1	-18.2	---	---	16.5	NE	0.28	19.1	-30.1	---	---	730.2	0.025	0.000	18.9	1	1
03/04/06	12:10 a	-18.2	-18.2	-18.3	---	---	17.4	NE	0.29	20.0	-30.5	---	---	730.3	0.025	0.000	18.9	1	1
03/04/06	12:11 a	-18.3	-18.3	-18.3	---	---	13.9	NE	0.23	15.7	-29.4	---	---	730.3	0.025	0.000	18.9	1	1
03/04/06	12:12 a	-18.3	-18.3	-18.4	---	---	14.8	ENE	0.25	19.1	-29.8	---	---	730.1	0.025	0.000	19.0	1	1
03/04/06	12:13 a	-18.4	-18.4	-18.4	---	---	14.8	NE	0.25	17.4	-30.0	---	---	730.2	0.026	0.000	19.0	1	1
03/04/06	12:14 a	-18.4	-18.4	-18.5	---	---	15.7	ENE	0.26	18.3	-30.3	---	---	730.1	0.026	0.000	19.0	1	1
03/04/06	12:15 a	-18.5	-18.5	-18.5	---	---	16.5	ENE	0.28	21.7	-30.6	---	---	730.1	0.026	0.000	19.1	1	1
03/04/06	12:16 a	-18.6	-18.5	-18.6	---	---	17.4	ENE	0.29	20.9	-30.9	---	---	730.2	0.026	0.000	19.0	1	1
03/04/06	12:17 a	-18.6	-18.6	-18.6	---	---	17.4	ENE	0.29	20.0	-30.9	---	---	730.4	0.026	0.000	19.0	1	1
03/04/06	12:18 a	-18.6	-18.6	-18.6	---	---	10.4	ENE	0.17	14.8	-28.4	---	---	730.5	0.026	0.000	19.0	1	1
03/04/06	12:19 a	-18.6	-18.6	-18.6	---	---	11.3	ENE	0.19	16.5	-28.8	---	---	730.4	0.026	0.000	19.0	1	1
03/04/06	12:20 a	-18.6	-18.6	-18.6	---	---	15.7	ENE	0.26	17.4	-30.4	---	---	730.4	0.026	0.000	19.0	1	1
03/04/06	12:21 a	-18.6	-18.6	-18.6	---	---	13.0	NE	0.22	14.8	-29.6	---	---	730.4	0.026	0.000	19.0	1	1
03/04/06	12:22 a	-18.6	-18.6	-18.6	---	---	11.3	ENE	0.19	14.8	-28.8	---	---	730.3	0.026	0.000	19.0	1	1
03/04/06	12:23 a	-18.6	-18.6	-18.7	---	---	15.7	ENE	0.26	19.1	-30.5	---	---	730.3	0.026	0.000	19.0	1	1
03/04/06	12:24 a	-18.7	-18.7	-18.7	---	---	18.3	NE	0.30	22.6	-31.4	---	---	730.4	0.026	0.000	19.0	1	1
03/04/06	12:25 a	-18.7	-18.7	-18.7	---	---	10.4	NE	0.17	13.0	-28.6	---	---	730.3	0.026	0.000	19.0	1	1
03/04/06	12:26 a	-18.7	-18.7	-18.8	---	---	14.8	NE	0.25	18.3	-30.3	---	---	730.2	0.026	0.000	18.9	1	1
03/04/06	12:27 a	-18.8	-18.8	-18.8	---	---	11.3	NE	0.19	14.8	-29.1	---	---	730.4	0.026	0.000	18.9	1	1
03/04/06	12:28 a	-18.8	-18.7	-18.8	---	---	13.0	NE	0.22	20.9	-29.8	---	---	730.3	0.026	0.000	18.9	1	1
03/04/06	12:29 a	-18.8	-18.8	-18.8	---	---	11.3	NNE	0.19	14.8	-29.1	---	---	730.3	0.026	0.000	18.9	1	1
03/04/06	12:30 a	-18.8	-18.7	-18.8	---	---	12.2	NE	0.20	16.5	-29.4	---	---	730.5	0.026	0.000	18.9	1	1
03/04/06	12:31 a	-18.8	-18.8	-18.8	---	---	10.4	NE	0.17	12.2	-28.7	---	---	730.4	0.026	0.000	18.9	1	1
03/04/06	12:32 a	-18.8	-18.8	-18.8	---	---	13.0	NE	0.22	17.4	-29.8	---	---	730.4	0.026	0.000	18.9	2	1
03/04/06	12:33 a	-18.9	-18.9	-18.9	---	---	11.3	NE	0.19	17.4	-29.2	---	---	730.4	0.026	0.000	18.9	2	1
03/04/06	12:34 a	-18.9	-18.9	-18.9	---	---	13.0	NE	0.22	16.5	-29.9	---	---	730.4	0.026	0.000	18.9	2	1
03/04/06	12:35 a	-18.9	-18.9	-18.9	---	---	12.2	NNE	0.20	15.7	-29.7	---	---	730.3	0.026	0.000	18.9	2	1
03/04/06	12:36 a	-18.9	-18.9	-18.9	---	---	14.8	NE	0.25	16.5	-30.6	---	---	730.4	0.026	0.000	18.9	2	1
03/04/06	12:37 a	-18.9	-18.9	-18.9	---	---	12.2	NE	0.20	14.8	-29.7	---	---	730.4	0.026	0.000	18.9	2	1
03/04/06	12:38 a	-19.0	-18.9	-19.0	---	---	11.3	NNE	0.19	13.9	-29.3	---	---	730.3	0.026	0.000	18.9	1	1
03/04/06	12:39 a	-19.0	-19.0	-19.0	---	---	13.0	NE	0.22	15.7	-30.1	---	---	730.4	0.026	0.000	18.9	2	1
03/04/06	12:40 a	-19.0	-19.0	-19.1	---	---	16.5	NE	0.28	19.1	-31.3	---	---	730.4	0.026	0.000	18.8	2	1
03/04/06	12:41 a	-19.1	-19.1	-19.1	---	---	15.7	NE	0.26	18.3	-31.1	---	---	730.4	0.026	0.000	18.8	2	1
03/04/06	12:42 a	-19.1	-19.1	-19.1	---	---	14.8	ENE	0.25	20.0	-30.8	---	---	730.4	0.026	0.000	18.8	2	1
03/04/06	12:43 a	-19.1	-19.1	-19.1	---	---	17.4	ENE	0.29	20.0	-31.7	---	---	730.4	0.026	0.000	18.8	2	1
03/04/06	12:44 a	-19.2	-19.1	-19.2	---	---	16.5	ENE	0.28	20.9	-31.5	---	---	730.5	0.026	0.000	18.8	2	1
03/04/06	12:45 a	-19.2	-19.2	-19.2	---	---	17.4	ENE	0.29	19.1	-31.8	---	---	730.5	0.026	0.000	18.8	1	1
03/04/06	12:46 a	-19.2	-19.2	-19.2	---	---	17.4	ENE	0.29	20.0	-31.8	---	---	730.4	0.026	0.000	18.8	1	1
03/04/06	12:47 a	-19.2	-19.2	-19.2	---	---	16.5	ENE	0.28	19.1	-31.6	---	---	730.4	0.026	0.000	18.8	1	1
03/04/06	12:48 a	-19.3	-19.2	-19.3	---	---	16.5	NE	0.28	18.3	-31.7	---	---	730.5	0.026	0.000	18.8	1	1
03/04/06	12:49 a	-19.3	-19.3	-19.3	---	---	16.5	NE	0.28	20.0	-31.7	---	---	730.4	0.026	0.000	18.8	1	1
03/04/06	12:50 a	-19.3	-19.3	-19.3	---	---	17.4	NE	0.29	20.9	-32.0	---	---	730.4	0.026	0.000	18.8	1	1
03/04/06	12:51 a	-19.4	-19.4	-19.4	---	---	16.5	NE	0.28	19.1	-31.8	---	---	730.5	0.026	0.000	18.8	2	1
03/04/06	12:52 a	-19.4	-19.4	-19.4	---	---	18.3	NE	0.30	20.9	-32.3	---	---	730.5	0.026	0.000	18.8	2	1
03/04/06	12:53 a	-19.4	-19.4	-19.4	---	---	18.3	ENE	0.30	21.7	-32.4	---	---	730.5	0.026	0.000	18.8	1	1
03/04/06	12:54 a	-19.5	-19.4	-19.5	---	---	17.4	ENE	0.29	20.0	-32.2	---	---	730.5	0.026	0.000	18.8	2	1
03/04/06	12:55 a	-19.5	-19.5	-19.5	---	---	18.3	ENE	0.30	21.7	-32.4	---	---	730.6	0.026	0.000	18.8	1	1
03/04/06	12:56 a	-19.5	-19.5	-19.5	---	---	20.0	ENE	0.33	23.5	-32.9	---	---	730.5	0.026	0.000	18.8	1	1
03/04/06	12:57 a	-19.5	-19.5	-19.6	---	---	20.9	ENE	0.35	24.3	-33.2	---	---	730.5	0.026	0.000	18.8	2	1
03/04/06	12:58 a	-19.6	-19.6	-19.6	---	---	20.0	ENE	0.33	22.6	-33.0	---	---	730.4	0.026	0.000	18.8	1	1
03/04/06	12:59 a	-19.6	-19.6	-19.7	---	---	20.0	ENE	0.33	23.5	-33.1	---	---	730.4	0.026	0.000	18.8	1	1
03/04/06	1:00 a	-19.7	-19.7	-19.7	---	---	20.0	ENE	0.33	21.7	-33.2	---	---	730.4	0.026	0.000	18.8	2	1
03/04/06	1:01 a	-19.7	-19.7	-19.7	---	---	20.0	ENE	0.33	22.6	-33.2	---	---	730.5	0.026	0.000	18.8	1	1
03/04/06	1:02 a	-19.7	-19.7	-19.8	---	---	15.7	NE	0.26	18.3	-31.9	---	---	730.5	0.026	0.000	18.8	1	1
03/04/06	1:03 a	-19.8	-19.8	-19.8	---	---	16.5	NE	0.28	20.9	-32.3	---	---	730.5	0.026	0.000	18.8	1	1
03/04/06	1:04 a	-19.8	-19.8	-19.8	---	---	19.1	NE	0.32	22.6	-33.2	---	---	730.4	0.027	0.000	18.8	1	1
03/04/06	1:05 a	-19.9	-19.8	-19.9	---	---	16.5	NE	0.28	19.1	-32.4	---	---	730.5	0.027	0.000	18.8	1	1
03/04/06	1:06 a	-19.9	-19.9	-19.9	---	---	19.1	NE	0.32	21.7	-33.3	---	---	730.4	0.027	0.000	18.8	1	1
03/04/06	1:07 a	-19.9	-19.9	-19.9	---	---	18.3	NE	0.30	20.9	-33.1	---	---	730.4	0.027	0.000	18.8	1	1
03/04/06	1:08 a	-20.0	-20.0	-20.0	---	---	16.5	NE	0.28	19.1	-32.6	---	---	730.4	0.027	0.000	18.8	1	1
03/04/06	1:09 a	-20.0	-20.0	-20.0	---	---	19.1	NE	0.32	21.7	-33.4	---	---	730.4	0.027	0.000	18.8	1	1
03/04/06	1:10 a	-20.1	-20.0	-20.1	---	---	17.4	NE	0.29	20.0	-32.9	---	---	730.4	0.027	0.000	18.8	1	1
03/04/06	1:11 a	-20.1	-20.1	-20.1	---	---	19.1	NE	0.32	21.7	-33.4	---	---	730.4	0.027	0.000	18.8	1	1
03/04/06	1:12 a	-20.1	-20.1	-20.1	---	---	16.5	NE	0.28	20.9	-32.7	---	---	730.4	0.027	0.000	18.8	1	1
03/04/06	1:13 a	-20.1	-20.1	-20.1	---	---	18.3	NE	0.30	20.9	-33.2	---	---	730.5	0.027	0.000	18.8	1	1
03/04/06	1:14 a	-20.1	-20.1	-20.1	---	---	14.8	NE	0.25	20.0	-32.1	---	---	730.4	0.027	0.000	18.8	1	1
03/04/06	1:15 a	-20.1	-20.1	-20.1	---	---	17.4	NE	0.29	19.1	-32.9	---	---	730.4	0.027	0.000	18.9	1	1
03/04/06	1:16 a	-20.1	-20.1	-20.1	---	---	17.4	NE	0.29	19.1	-32.9	---	---	730.4	0.027	0.000	18.8	1	1
03/04/06	1:17 a	-20.1	-20.1	-20.1	---	---	16.5	NE	0.28	18.3	-32.7	---	---	730.4	0.027	0.000	18.8	1	1
03/04/06	1:18 a	-20.1	-20.1	-20.1	---	---	14.8	NE	0.25	17.4	-32.1	---	---	730.4	0.027	0.000	18.8	1	1
03/04/06	1:19 a	-20.1	-20.1	-20.1	---	---	15.7	NE	0.26	20.0	-32.4	---	---	730.4	0.027	0.000	18.9	1	1
03/04/06	1:20 a	-20.1	-20.0	-20.1	---	---	18.3	NE	0.30	22.6	-33.2	---	---	730.3	0.027	0.000	18.9	1	1
03/04/06	1:21 a	-20.0	-20.0	-20.0	---	---	17.4	NE	0.29	22.6	-32.8	---	---	730.3	0.027	0.000	18.9	1	1
03/04/06	1:22 a	-19.9	-19.9	-19.9	---	---	18.3	ENE	0.30	21.7	-33.1	---	---	730.3	0.027	0.000	18.9	1	1
03/04/06	1:23 a	-19.9	-19.9	-19.9	---	---	17.4	NE	0.29	20.9	-32.7	---	---	730.4	0.027	0.000	18.9	1	1
03/04/06	1:24 a	-19.9	-19.9	-19.9	---	---	17.4	NE	0.29	21.7	-32.7	---	---	730.4	0.027	0.000	18.9	1	1
03/04/06	1:25 a	-19.9	-19.9	-19.9	---	---	15.7	NE	0.26	18.3	-32.2	---	---	730.4	0.027	0.000	18.9	1	1
03/04/06	1:26 a	-19.9	-19.9	-19.9	---	---	18.3	ENE	0.30	20.0	-33.0	---	---	730.4	0.027	0.000	18.9	1	1
03/04/06	1:27 a	-19.9	-19.9	-19.9	---	---	19.1	ENE	0.32	21.7	-33.2	---	---	730.3	0.027	0.000	18.9	1	1
03/04/06	1:28 a	-19.8	-19.8	-19.8	---	---	16.5	ENE	0.28	19.1	-32.4	---	---	730.3	0.027	0.000	18.9	1	1
03/04/06	1:29 a	-19.8	-19.8	-19.8	---	---	19.1	ENE	0.32	22.6	-33.2	---	---	730.2	0.027	0.000	18.9	1	1
03/04/06	1:30 a	-19.7	-19.7	-19.8	---	---	20.0	ENE	0.33	23.5	-33.2	---	---	730.2	0.026	0.000	18.9	1	1
03/04/06	1:31 a	-19.7	-19.6	-19.7	---	---	22.6	ENE	0.38	26.1	-33.8	---	---	730.3	0.026	0.000	18.9	1	1
03/04/06	1:32 a	-19.4	-19.3	-19.5	---	---	17.4	ENE	0.29	20.9	-32.1	---	---	730.3	0.026	0.000	18.9	1	1
03/04/06	1:33 a	-19.2	-19.1	-19.3	---	---	20.0	ENE	0.33	22.6	-32.6	---	---	730.3	0.026	0.000	18.9	1	1
03/04/06	1:34 a	-19.1	-19.1	-19.1	---	---	20.0	ENE	0.33	22.6	-32.4	---	---	730.3	0.026	0.000	18.9	1	1
03/04/06	1:35 a	-19.1	-19.1	-19.1	---	---	19.1	NE	0.32	23.5	-32.2	---	---	730.3	0.026	0.000	18.9	1	1
03/04/06	1:36 a	-19.1	-19.0	-19.1	---	---	17.4	ENE	0.29	20.0	-31.6	---	---	730.5	0.026	0.000	18.9	1	1
03/04/06	1:37 a	-19.0	-19.0	-19.0	---	---	17.4	ENE	0.29	20.9	-31.6	---	---	730.4	0.026	0.000	18.9	1	1
03/04/06	1:38 a	-19.1	-19.1	-19.2	---	---	19.1	ENE	0.32	21.7	-32.2	---	---	730.5	0.026	0.000	18.9	1	1
03/04/06	1:39 a	-19.2	-19.2	-19.2	---	---	19.1	ENE	0.32	21.7	-32.3	---	---	730.4	0.026	0.000	18.9	1	1
03/04/06	1:40 a	-19.2	-19.2	-19.2	---	---	18.3	NE	0.30	22.6	-32.1	---	---	730.3	0.026	0.000	18.9	1	1
03/04/06	1:41 a	-19.2	-19.2	-19.2	---	---	20.9	NE	0.35	22.6	-32.8	---	---	730.3	0.026	0.000	18.9	1	1
03/04/06	1:42 a	-19.2	-19.2	-19.3	---	---	13.9	NE	0.23	18.3	-30.7	---	---	730.4	0.026	0.000	18.9	1	1
03/04/06	1:43 a	-19.3	-19.3	-19.3	---	---	16.5	NE	0.28	20.9	-31.7	---	---	730.3	0.026	0.000	18.9	1	1
03/04/06	1:44 a	-19.4	-19.3	-19.4	---	---	16.5	NE	0.28	19.1	-31.8	---	---	730.3	0.026	0.000	18.9	1	1
03/04/06	1:45 a	-19.3	-19.3	-19.4	---	---	13.9	NE	0.23	17.4	-30.8	---	---	730.5	0.026	0.000	18.9	1	1
03/04/06	1:46 a	-19.2	-19.1	-19.3	---	---	14.8	ENE	0.25	20.9	-31.0	---	---	730.3	0.026	0.000	18.9	1	1
03/04/06	1:47 a	-19.1	-19.0	-19.1	---	---	18.3	ENE	0.30	21.7	-31.9	---	---	730.6	0.026	0.000	18.9	1	1
03/04/06	1:48 a	-19.0	-18.9	-19.0	---	---	18.3	ENE	0.30	21.7	-31.8	---	---	730.5	0.026	0.000	18.9	1	1
03/04/06	1:49 a	-18.9	-18.8	-18.9	---	---	20.0	ENE	0.33	24.3	-32.2	---	---	730.3	0.026	0.000	18.9	1	1
03/04/06	1:50 a	-18.8	-18.8	-18.8	---	---	20.0	ENE	0.33	22.6	-32.1	---	---	730.4	0.026	0.000	18.9	1	1
03/04/06	1:51 a	-18.8	-18.8	-18.8	---	---	20.0	ENE	0.33	23.5	-32.0	---	---	730.5	0.026	0.000	18.9	1	1
03/04/06	1:52 a	-18.7	-18.7	-18.8	---	---	20.9	ENE	0.35	21.7	-32.2	---	---	730.4	0.026	0.000	18.9	1	1
03/04/06	1:53 a	-18.7	-18.7	-18.7	---	---	19.1	ENE	0.32	21.7	-31.7	---	---	730.5	0.026	0.000	18.9	1	1
03/04/06	1:54 a	-18.8	-18.7	-18.8	---	---	18.3	ENE	0.30	21.7	-31.5	---	---	730.5	0.026	0.000	18.9	1	1
03/04/06	1:55 a	-18.8	-18.8	-18.8	---	---	19.1	ENE	0.32	20.9	-31.8	---	---	730.6	0.026	0.000	18.9	1	1
03/04/06	1:56 a	-18.9	-18.8	-18.9	---	---	20.0	ENE	0.33	21.7	-32.2	---	---	730.5	0.026	0.000	18.9	1	1
03/04/06	1:57 a	-18.8	-18.8	-18.8	---	---	21.7	ENE	0.36	23.5	-32.5	---	---	730.5	0.026	0.000	18.9	1	1
03/04/06	1:58 a	-18.7	-18.7	-18.8	---	---	20.9	ENE	0.35	22.6	-32.2	---	---	730.5	0.026	0.000	19.0	1	1
03/04/06	1:59 a	-18.6	-18.6	-18.7	---	---	20.0	ENE	0.33	24.3	-31.8	---	---	730.5	0.026	0.000	19.0	1	1
03/04/06	2:00 a	-18.6	-18.6	-18.6	---	---	21.7	ENE	0.36	24.3	-32.2	---	---	730.5	0.026	0.000	19.0	1	1
03/04/06	2:01 a	-18.5	-18.4	-18.6	---	---	20.0	ENE	0.33	21.7	-31.6	---	---	730.6	0.026	0.000	19.0	1	1
03/04/06	2:02 a	-18.4	-18.4	-18.4	---	---	19.1	ENE	0.32	20.9	-31.3	---	---	730.6	0.026	0.000	19.0	1	1
03/04/06	2:03 a	-18.3	-18.3	-18.4	---	---	21.7	ENE	0.36	25.2	-31.8	---	---	730.4	0.025	0.000	19.0	1	1
03/04/06	2:04 a	-18.3	-18.3	-18.3	---	---	22.6	ENE	0.38	24.3	-32.1	---	---	730.5	0.025	0.000	19.0	1	1
03/04/06	2:05 a	-18.3	-18.3	-18.3	---	---	20.9	ENE	0.35	23.5	-31.6	---	---	730.6	0.025	0.000	19.1	1	1
03/04/06	2:06 a	-18.3	-18.3	-18.3	---	---	17.4	ENE	0.29	20.0	-30.6	---	---	730.8	0.025	0.000	19.1	1	1
03/04/06	2:07 a	-18.3	-18.3	-18.3	---	---	17.4	ENE	0.29	22.6	-30.6	---	---	730.5	0.025	0.000	19.1	1	1
03/04/06	2:08 a	-18.3	-18.3	-18.3	---	---	20.9	ENE	0.35	25.2	-31.6	---	---	730.6	0.025	0.000	19.1	1	1
03/04/06	2:09 a	-18.3	-18.3	-18.3	---	---	19.1	NE	0.32	20.9	-31.2	---	---	730.7	0.025	0.000	19.1	1	1
03/04/06	2:10 a	-18.3	-18.3	-18.3	---	---	20.0	ENE	0.33	23.5	-31.4	---	---	730.7	0.025	0.000	19.1	1	1
03/04/06	2:11 a	-18.4	-18.3	-18.4	---	---	16.5	ENE	0.28	18.3	-30.5	---	---	730.6	0.026	0.000	19.1	1	1
03/04/06	2:12 a	-18.4	-18.4	-18.4	---	---	17.4	NE	0.29	23.5	-30.7	---	---	730.5	0.026	0.000	19.1	1	1
03/04/06	2:13 a	-18.4	-18.4	-18.4	---	---	20.9	NE	0.35	24.3	-31.7	---	---	730.6	0.026	0.000	19.1	1	1
03/04/06	2:14 a	-18.4	-18.4	-18.4	---	---	19.1	NE	0.32	21.7	-31.3	---	---	730.5	0.026	0.000	19.1	1	1
03/04/06	2:15 a	-18.5	-18.4	-18.5	---	---	11.3	NE	0.19	20.0	-28.7	---	---	730.7	0.026	0.000	19.1	1	1
03/04/06	2:16 a	-18.4	-18.3	-18.4	---	---	8.7	NE	0.14	21.7	-27.3	---	---	730.4	0.026	0.000	19.1	1	1
03/04/06	2:17 a	-18.3	-18.3	-18.3	---	---	20.0	ENE	0.33	23.5	-31.3	---	---	730.6	0.025	0.000	19.1	1	1
03/04/06	2:18 a	-18.3	-18.2	-18.3	---	---	16.5	ENE	0.28	20.0	-30.3	---	---	730.7	0.025	0.000	19.1	1	1
03/04/06	2:19 a	-18.2	-18.1	-18.2	---	---	13.0	ENE	0.22	16.5	-29.0	---	---	730.6	0.025	0.000	19.1	1	1
03/04/06	2:20 a	-18.1	-18.1	-18.1	---	---	17.4	NE	0.29	20.0	-30.3	---	---	730.5	0.025	0.000	19.1	1	1
03/04/06	2:21 a	-18.1	-18.1	-18.1	---	---	16.5	NE	0.28	18.3	-30.1	---	---	730.5	0.025	0.000	19.1	1	1
03/04/06	2:22 a	-18.1	-18.1	-18.1	---	---	16.5	NE	0.28	19.1	-30.1	---	---	730.6	0.025	0.000	19.1	1	1
03/04/06	2:23 a	-18.1	-18.1	-18.2	---	---	17.4	ENE	0.29	20.0	-30.4	---	---	730.6	0.025	0.000	19.1	1	1
03/04/06	2:24 a	-18.2	-18.2	-18.2	---	---	18.3	ENE	0.30	20.0	-30.7	---	---	730.6	0.025	0.000	19.1	1	1
03/04/06	2:25 a	-18.2	-18.2	-18.2	---	---	18.3	ENE	0.30	20.0	-30.8	---	---	730.7	0.025	0.000	19.1	1	1
03/04/06	2:26 a	-18.2	-18.2	-18.2	---	---	17.4	ENE	0.29	20.0	-30.4	---	---	730.6	0.025	0.000	19.1	1	1
03/04/06	2:27 a	-18.1	-18.1	-18.1	---	---	16.5	ENE	0.28	20.9	-30.1	---	---	730.8	0.025	0.000	19.1	1	1
03/04/06	2:28 a	-18.1	-18.0	-18.1	---	---	15.7	ENE	0.26	20.9	-29.8	---	---	730.7	0.025	0.000	19.1	1	1
03/04/06	2:29 a	-17.9	-17.9	-17.9	---	---	18.3	ENE	0.30	20.0	-30.4	---	---	730.7	0.025	0.000	19.1	1	1
03/04/06	2:30 a	-17.9	-17.9	-17.9	---	---	16.5	NE	0.28	20.0	-29.8	---	---	730.7	0.025	0.000	19.1	1	1
03/04/06	2:31 a	-17.9	-17.8	-17.9	---	---	14.8	ENE	0.25	18.3	-29.3	---	---	730.9	0.025	0.000	19.1	1	1
03/04/06	2:32 a	-17.8	-17.8	-17.8	---	---	15.7	ENE	0.26	18.3	-29.4	---	---	730.7	0.025	0.000	19.1	1	1
03/04/06	2:33 a	-17.8	-17.8	-17.8	---	---	16.5	ENE	0.28	18.3	-29.7	---	---	730.8	0.025	0.000	19.1	1	1
03/04/06	2:34 a	-17.8	-17.7	-17.8	---	---	13.9	ENE	0.23	20.9	-28.8	---	---	730.6	0.025	0.000	19.1	1	1
03/04/06	2:35 a	-17.7	-17.7	-17.8	---	---	19.1	NE	0.32	20.9	-30.4	---	---	730.7	0.025	0.000	19.1	1	1
03/04/06	2:36 a	-17.8	-17.8	-17.8	---	---	17.4	ENE	0.29	19.1	-29.9	---	---	730.6	0.025	0.000	19.1	1	1
03/04/06	2:37 a	-17.8	-17.8	-17.8	---	---	14.8	ENE	0.25	21.7	-29.1	---	---	730.7	0.025	0.000	19.1	1	1
03/04/06	2:38 a	-17.7	-17.6	-17.8	---	---	11.3	ENE	0.19	21.7	-27.7	---	---	730.6	0.025	0.000	19.1	1	1
03/04/06	2:39 a	-17.6	-17.6	-17.6	---	---	20.0	ENE	0.33	22.6	-30.4	---	---	730.7	0.025	0.000	19.1	1	1
03/04/06	2:40 a	-17.6	-17.6	-17.6	---	---	13.9	ENE	0.23	17.4	-28.6	---	---	730.8	0.025	0.000	19.1	1	1
03/04/06	2:41 a	-17.6	-17.6	-17.6	---	---	18.3	NE	0.30	20.0	-30.0	---	---	730.7	0.025	0.000	19.1	1	1
03/04/06	2:42 a	-17.7	-17.6	-17.7	---	---	15.7	NE	0.26	19.1	-29.3	---	---	730.7	0.025	0.000	19.1	1	1
03/04/06	2:43 a	-17.7	-17.7	-17.7	---	---	10.4	E	0.17	14.8	-27.3	---	---	730.8	0.025	0.000	19.1	1	1
03/04/06	2:44 a	-17.7	-17.7	-17.7	---	---	19.1	ENE	0.32	22.6	-30.3	---	---	730.7	0.025	0.000	19.1	1	1
03/04/06	2:45 a	-17.7	-17.7	-17.8	---	---	16.5	ENE	0.28	21.7	-29.6	---	---	730.8	0.025	0.000	19.1	1	1
03/04/06	2:46 a	-17.8	-17.8	-17.8	---	---	15.7	ENE	0.26	21.7	-29.4	---	---	730.7	0.025	0.000	19.1	1	1
03/04/06	2:47 a	-17.8	-17.8	-17.8	---	---	17.4	ENE	0.29	20.9	-29.9	---	---	730.8	0.025	0.000	19.1	1	1
03/04/06	2:48 a	-17.8	-17.8	-17.8	---	---	16.5	ENE	0.28	20.9	-29.8	---	---	730.8	0.025	0.000	19.1	1	1
03/04/06	2:49 a	-17.8	-17.8	-17.8	---	---	16.5	ENE	0.28	19.1	-29.8	---	---	730.8	0.025	0.000	19.1	1	1
03/04/06	2:50 a	-17.9	-17.9	-17.9	---	---	13.0	E	0.22	19.1	-28.7	---	---	730.9	0.025	0.000	19.1	1	1
03/04/06	2:51 a	-17.9	-17.9	-17.9	---	---	17.4	NE	0.29	20.9	-30.1	---	---	730.8	0.025	0.000	19.2	1	1
03/04/06	2:52 a	-17.9	-17.9	-17.9	---	---	18.3	ENE	0.30	22.6	-30.3	---	---	730.9	0.025	0.000	19.2	1	1
03/04/06	2:53 a	-17.9	-17.9	-17.9	---	---	19.1	ENE	0.32	20.9	-30.6	---	---	730.8	0.025	0.000	19.2	1	1
03/04/06	2:54 a	-17.9	-17.9	-17.9	---	---	13.9	ENE	0.23	16.5	-28.9	---	---	730.9	0.025	0.000	19.2	1	1
03/04/06	2:55 a	-17.8	-17.8	-17.8	---	---	12.2	E	0.20	19.1	-28.2	---	---	730.8	0.025	0.000	19.2	1	1
03/04/06	2:56 a	-17.7	-17.7	-17.8	---	---	17.4	NE	0.29	20.0	-29.9	---	---	730.8	0.025	0.000	19.2	1	1
03/04/06	2:57 a	-17.7	-17.7	-17.7	---	---	17.4	ENE	0.29	19.1	-29.9	---	---	730.9	0.025	0.000	19.2	1	1
03/04/06	2:58 a	-17.7	-17.7	-17.7	---	---	16.5	ENE	0.28	20.0	-29.6	---	---	730.9	0.025	0.000	19.2	1	1
03/04/06	2:59 a	-17.7	-17.7	-17.8	---	---	16.5	NE	0.28	18.3	-29.6	---	---	730.9	0.025	0.000	19.2	1	1
03/04/06	3:00 a	-17.8	-17.7	-17.8	---	---	14.8	ENE	0.25	19.1	-29.1	---	---	730.8	0.025	0.000	19.2	1	1
03/04/06	3:01 a	-17.8	-17.8	-17.8	---	---	19.1	ENE	0.32	21.7	-30.4	---	---	730.8	0.025	0.000	19.2	1	1
03/04/06	3:02 a	-17.8	-17.8	-17.8	---	---	17.4	ENE	0.29	20.9	-30.0	---	---	730.8	0.025	0.000	19.2	1	1
03/04/06	3:03 a	-17.8	-17.8	-17.9	---	---	18.3	ENE	0.30	20.0	-30.3	---	---	730.9	0.025	0.000	19.2	1	1
03/04/06	3:04 a	-17.9	-17.9	-17.9	---	---	19.1	ENE	0.32	20.9	-30.6	---	---	730.9	0.025	0.000	19.2	1	1
03/04/06	3:05 a	-17.9	-17.9	-17.9	---	---	17.4	ENE	0.29	20.0	-30.1	---	---	730.9	0.025	0.000	19.2	1	1
03/04/06	3:06 a	-17.9	-17.9	-17.9	---	---	13.0	ENE	0.22	18.3	-28.7	---	---	730.9	0.025	0.000	19.2	1	1
03/04/06	3:07 a	-17.9	-17.9	-17.9	---	---	17.4	ENE	0.29	23.5	-30.1	---	---	730.8	0.025	0.000	19.2	1	1
03/04/06	3:08 a	-17.9	-17.9	-17.9	---	---	21.7	ENE	0.36	24.3	-31.3	---	---	730.8	0.025	0.000	19.2	1	1
03/04/06	3:09 a	-17.9	-17.9	-17.9	---	---	20.9	ENE	0.35	22.6	-31.1	---	---	730.7	0.025	0.000	19.2	1	1
03/04/06	3:10 a	-18.0	-17.9	-18.0	---	---	9.6	ENE	0.16	17.4	-27.3	---	---	731.0	0.025	0.000	19.2	1	1
03/04/06	3:11 a	-18.0	-18.0	-18.1	---	---	19.1	ENE	0.32	21.7	-30.7	---	---	730.8	0.025	0.000	19.3	1	1
03/04/06	3:12 a	-18.1	-18.1	-18.1	---	---	19.1	ENE	0.32	21.7	-30.8	---	---	731.0	0.025	0.000	19.3	1	1
03/04/06	3:13 a	-18.1	-18.1	-18.1	---	---	15.7	ENE	0.26	20.0	-29.8	---	---	730.8	0.025	0.000	19.3	1	1
03/04/06	3:14 a	-18.1	-18.1	-18.1	---	---	17.4	ENE	0.29	23.5	-30.4	---	---	730.9	0.025	0.000	19.3	1	1
03/04/06	3:15 a	-18.1	-18.1	-18.1	---	---	18.3	ENE	0.30	23.5	-30.6	---	---	730.9	0.025	0.000	19.3	1	1
03/04/06	3:16 a	-18.1	-18.1	-18.2	---	---	19.1	ENE	0.32	22.6	-30.9	---	---	730.8	0.025	0.000	19.3	1	1
03/04/06	3:17 a	-18.2	-18.2	-18.2	---	---	17.4	NE	0.29	20.0	-30.4	---	---	730.8	0.025	0.000	19.3	1	1
03/04/06	3:18 a	-18.2	-18.2	-18.3	---	---	17.4	NE	0.29	20.0	-30.5	---	---	730.8	0.025	0.000	19.3	1	1
03/04/06	3:19 a	-18.3	-18.3	-18.3	---	---	18.3	NE	0.30	20.9	-30.8	---	---	730.8	0.025	0.000	19.3	1	1
03/04/06	3:20 a	-18.3	-18.3	-18.3	---	---	17.4	NE	0.29	20.9	-30.7	---	---	730.8	0.025	0.000	19.3	1	1
03/04/06	3:21 a	-18.3	-18.3	-18.3	---	---	17.4	NE	0.29	19.1	-30.7	---	---	730.8	0.025	0.000	19.3	1	1
03/04/06	3:22 a	-18.3	-18.3	-18.3	---	---	17.4	NE	0.29	20.0	-30.7	---	---	730.8	0.025	0.000	19.3	1	1
03/04/06	3:23 a	-18.3	-18.3	-18.4	---	---	18.3	NE	0.30	20.0	-30.9	---	---	730.7	0.025	0.000	19.3	1	1
03/04/06	3:24 a	-18.4	-18.4	-18.4	---	---	17.4	NE	0.29	19.1	-30.7	---	---	730.8	0.026	0.000	19.3	1	1
03/04/06	3:25 a	-18.4	-18.4	-18.4	---	---	16.5	NE	0.28	18.3	-30.5	---	---	730.7	0.026	0.000	19.3	1	1
03/04/06	3:26 a	-18.3	-18.3	-18.4	---	---	16.5	NE	0.28	20.0	-30.4	---	---	730.7	0.025	0.000	19.3	1	1
03/04/06	3:27 a	-18.3	-18.3	-18.3	---	---	15.7	NE	0.26	19.1	-30.1	---	---	730.7	0.025	0.000	19.3	1	1
03/04/06	3:28 a	-18.3	-18.3	-18.3	---	---	16.5	NE	0.28	17.4	-30.3	---	---	730.7	0.025	0.000	19.3	1	1
03/04/06	3:29 a	-18.3	-18.3	-18.3	---	---	16.5	NE	0.28	18.3	-30.3	---	---	730.6	0.025	0.000	19.3	1	1
03/04/06	3:30 a	-18.2	-18.2	-18.3	---	---	14.8	NE	0.25	17.4	-29.7	---	---	730.6	0.025	0.000	19.3	1	1
03/04/06	3:31 a	-18.2	-18.2	-18.2	---	---	16.5	NE	0.28	17.4	-30.3	---	---	730.7	0.025	0.000	19.3	1	1
03/04/06	3:32 a	-18.1	-18.1	-18.2	---	---	14.8	NE	0.25	16.5	-29.6	---	---	730.7	0.025	0.000	19.3	1	1
03/04/06	3:33 a	-18.1	-18.1	-18.1	---	---	13.9	NE	0.23	16.5	-29.2	---	---	730.7	0.025	0.000	19.4	1	1
03/04/06	3:34 a	-18.0	-18.0	-18.1	---	---	14.8	NE	0.25	16.5	-29.4	---	---	730.8	0.025	0.000	19.4	1	1
03/04/06	3:35 a	-17.9	-17.9	-17.9	---	---	12.2	NE	0.20	15.7	-28.4	---	---	730.8	0.025	0.000	19.4	1	1
03/04/06	3:36 a	-17.8	-17.8	-17.8	---	---	10.4	NE	0.17	13.0	-27.5	---	---	730.7	0.025	0.000	19.4	1	1
03/04/06	3:37 a	-17.7	-17.6	-17.8	---	---	13.9	NE	0.23	13.9	-28.7	---	---	730.7	0.025	0.000	19.4	1	1
03/04/06	3:38 a	-17.6	-17.5	-17.6	---	---	13.0	NE	0.22	13.9	-28.2	---	---	730.7	0.025	0.000	19.4	1	1
03/04/06	3:39 a	-17.4	-17.3	-17.4	---	---	12.2	NE	0.20	14.8	-27.7	---	---	730.7	0.025	0.000	19.4	1	1
03/04/06	3:40 a	-17.2	-17.2	-17.3	---	---	12.2	NE	0.20	13.0	-27.4	---	---	730.6	0.025	0.000	19.4	1	1
03/04/06	3:41 a	-17.1	-17.0	-17.1	---	---	13.0	NE	0.22	14.8	-27.6	---	---	730.7	0.025	0.000	19.4	1	1
03/04/06	3:42 a	-16.9	-16.8	-16.9	---	---	13.0	NE	0.22	13.9	-27.3	---	---	730.6	0.024	0.000	19.4	1	1
03/04/06	3:43 a	-16.7	-16.7	-16.7	---	---	11.3	NE	0.19	13.9	-26.4	---	---	730.7	0.024	0.000	19.4	1	1
03/04/06	3:44 a	-16.6	-16.6	-16.6	---	---	13.0	NE	0.22	13.9	-27.0	---	---	730.7	0.024	0.000	19.4	1	1
03/04/06	3:45 a	-16.5	-16.4	-16.5	---	---	13.0	NE	0.22	14.8	-26.9	---	---	730.7	0.024	0.000	19.4	1	1
03/04/06	3:46 a	-16.4	-16.4	-16.4	---	---	13.9	NE	0.23	14.8	-27.1	---	---	730.7	0.024	0.000	19.4	1	1
03/04/06	3:47 a	-16.3	-16.3	-16.3	---	---	13.9	NE	0.23	15.7	-26.9	---	---	730.7	0.024	0.000	19.4	1	1
03/04/06	3:48 a	-16.3	-16.3	-16.3	---	---	13.0	NE	0.22	14.8	-26.7	---	---	730.7	0.024	0.000	19.4	1	1
03/04/06	3:49 a	-16.3	-16.3	-16.3	---	---	13.0	NE	0.22	14.8	-26.6	---	---	730.6	0.024	0.000	19.4	1	1
03/04/06	3:50 a	-16.2	-16.2	-16.2	---	---	13.0	NE	0.22	14.8	-26.5	---	---	730.7	0.024	0.000	19.4	1	1
03/04/06	3:51 a	-16.2	-16.2	-16.2	---	---	13.0	NE	0.22	14.8	-26.4	---	---	730.7	0.024	0.000	19.4	1	1
03/04/06	3:52 a	-16.2	-16.2	-16.2	---	---	12.2	NE	0.20	13.9	-26.1	---	---	730.7	0.024	0.000	19.4	1	1
03/04/06	3:53 a	-16.1	-16.1	-16.1	---	---	12.2	NE	0.20	13.9	-26.1	---	---	730.6	0.024	0.000	19.4	1	1
03/04/06	3:54 a	-16.1	-16.1	-16.1	---	---	12.2	NE	0.20	13.9	-25.9	---	---	730.7	0.024	0.000	19.4	1	1
03/04/06	3:55 a	-16.1	-16.1	-16.1	---	---	13.9	NE	0.23	15.7	-26.6	---	---	730.6	0.024	0.000	19.4	1	1
03/04/06	3:56 a	-16.1	-16.1	-16.1	---	---	13.9	NE	0.23	14.8	-26.6	---	---	730.6	0.024	0.000	19.4	1	1
03/04/06	3:57 a	-16.2	-16.1	-16.2	---	---	13.9	NE	0.23	15.7	-26.7	---	---	730.7	0.024	0.000	19.4	1	1
03/04/06	3:58 a	-16.2	-16.2	-16.2	---	---	13.9	NE	0.23	14.8	-26.7	---	---	730.7	0.024	0.000	19.4	1	1
03/04/06	3:59 a	-16.2	-16.2	-16.2	---	---	13.9	NE	0.23	14.8	-26.8	---	---	730.7	0.024	0.000	19.4	1	1
03/04/06	4:00 a	-16.3	-16.3	-16.3	---	---	13.9	NE	0.23	15.7	-26.9	---	---	730.7	0.024	0.000	19.4	1	1
03/04/06	4:01 a	-16.3	-16.3	-16.3	---	---	13.9	NE	0.23	14.8	-26.9	---	---	730.7	0.024	0.000	19.4	1	1
03/04/06	4:02 a	-16.3	-16.3	-16.3	---	---	13.9	NE	0.23	14.8	-26.9	---	---	730.6	0.024	0.000	19.4	1	1
03/04/06	4:03 a	-16.3	-16.3	-16.3	---	---	13.9	NE	0.23	14.8	-26.9	---	---	730.6	0.024	0.000	19.4	1	1
03/04/06	4:04 a	-16.3	-16.3	-16.4	---	---	13.9	NE	0.23	14.8	-26.9	---	---	730.6	0.024	0.000	19.4	1	1
03/04/06	4:05 a	-16.4	-16.4	-16.4	---	---	13.0	NE	0.22	14.8	-26.8	---	---	730.6	0.024	0.000	19.4	1	1
03/04/06	4:06 a	-16.4	-16.4	-16.4	---	---	13.9	NE	0.23	15.7	-27.1	---	---	730.5	0.024	0.000	19.4	1	1
03/04/06	4:07 a	-16.4	-16.4	-16.5	---	---	13.9	NE	0.23	14.8	-27.1	---	---	730.5	0.024	0.000	19.4	1	1
03/04/06	4:08 a	-16.5	-16.5	-16.5	---	---	13.9	NE	0.23	15.7	-27.2	---	---	730.5	0.024	0.000	19.4	1	1
03/04/06	4:09 a	-16.4	-16.4	-16.4	---	---	13.0	NE	0.22	15.7	-26.8	---	---	730.5	0.024	0.000	19.4	1	1
03/04/06	4:10 a	-16.4	-16.4	-16.4	---	---	12.2	NE	0.20	13.0	-26.4	---	---	730.5	0.024	0.000	19.4	1	1
03/04/06	4:11 a	-16.4	-16.3	-16.4	---	---	10.4	NE	0.17	11.3	-25.7	---	---	730.5	0.024	0.000	19.4	1	1
03/04/06	4:12 a	-16.2	-16.2	-16.3	---	---	10.4	NE	0.17	11.3	-25.4	---	---	730.5	0.024	0.000	19.4	1	1
03/04/06	4:13 a	-16.1	-16.1	-16.1	---	---	7.8	NE	0.13	9.6	-24.1	---	---	730.5	0.024	0.000	19.4	1	1
03/04/06	4:14 a	-15.8	-15.7	-15.9	---	---	7.8	NE	0.13	8.7	-23.7	---	---	730.5	0.024	0.000	19.4	1	1
03/04/06	4:15 a	-15.6	-15.4	-15.6	---	---	7.8	NE	0.13	7.8	-23.4	---	---	730.5	0.024	0.000	19.4	1	1
03/04/06	4:16 a	-15.2	-15.1	-15.3	---	---	7.8	NE	0.13	8.7	-22.9	---	---	730.5	0.023	0.000	19.4	1	1
03/04/06	4:17 a	-14.9	-14.8	-14.9	---	---	7.8	NE	0.13	7.8	-22.6	---	---	730.6	0.023	0.000	19.4	1	1
03/04/06	4:18 a	-14.6	-14.4	-14.7	---	---	7.8	NE	0.13	8.7	-22.2	---	---	730.5	0.023	0.000	19.5	1	1
03/04/06	4:19 a	-14.3	-14.2	-14.3	---	---	7.8	NE	0.13	8.7	-21.8	---	---	730.4	0.023	0.000	19.5	1	1
03/04/06	4:20 a	-14.0	-13.9	-14.1	---	---	7.8	NE	0.13	7.8	-21.4	---	---	730.5	0.022	0.000	19.5	1	1
03/04/06	4:21 a	-13.8	-13.7	-13.8	---	---	7.8	NE	0.13	8.7	-21.2	---	---	730.5	0.022	0.000	19.5	1	1
03/04/06	4:22 a	-13.6	-13.5	-13.7	---	---	7.8	NE	0.13	8.7	-21.0	---	---	730.5	0.022	0.000	19.5	1	1
03/04/06	4:23 a	-13.4	-13.3	-13.4	---	---	7.0	NE	0.12	7.8	-20.2	---	---	730.5	0.022	0.000	19.5	1	1
03/04/06	4:24 a	-13.2	-13.1	-13.2	---	---	7.0	NE	0.12	7.0	-19.9	---	---	730.5	0.022	0.000	19.5	1	1
03/04/06	4:25 a	-12.9	-12.9	-12.9	---	---	6.1	NE	0.10	6.1	-19.2	---	---	730.4	0.022	0.000	19.5	1	1
03/04/06	4:26 a	-12.7	-12.6	-12.8	---	---	6.1	NE	0.10	6.1	-18.9	---	---	730.4	0.022	0.000	19.6	1	1
03/04/06	4:27 a	-12.4	-12.4	-12.5	---	---	5.2	NE	0.09	6.1	-17.9	---	---	730.4	0.021	0.000	19.6	1	1
03/04/06	4:28 a	-12.3	-12.2	-12.3	---	---	4.3	NE	0.07	5.2	-17.2	---	---	730.5	0.021	0.000	19.6	1	1
03/04/06	4:29 a	-12.1	-12.1	-12.1	---	---	6.1	NE	0.10	7.0	-18.1	---	---	730.5	0.021	0.000	19.6	1	1
03/04/06	4:30 a	-11.9	-11.8	-11.9	---	---	6.1	NE	0.10	7.0	-17.9	---	---	730.4	0.021	0.000	19.6	1	1
03/04/06	4:31 a	-11.7	-11.7	-11.7	---	---	7.0	NE	0.12	7.8	-18.2	---	---	730.3	0.021	0.000	19.6	1	1
03/04/06	4:32 a	-11.6	-11.6	-11.6	---	---	7.0	NE	0.12	8.7	-18.0	---	---	730.4	0.021	0.000	19.6	1	1
03/04/06	4:33 a	-11.5	-11.4	-11.5	---	---	6.1	NE	0.10	8.7	-17.4	---	---	730.5	0.021	0.000	19.6	1	1
03/04/06	4:34 a	-11.4	-11.4	-11.5	---	---	4.3	NE	0.07	6.1	-16.2	---	---	730.4	0.021	0.000	19.6	1	1
03/04/06	4:35 a	-11.4	-11.4	-11.4	---	---	2.6	NE	0.04	3.5	-14.4	---	---	730.4	0.021	0.000	19.6	1	1
03/04/06	4:36 a	-11.3	-11.3	-11.4	---	---	0.9	NE	0.01	2.6	-11.3	---	---	730.5	0.021	0.000	19.7	1	1
03/04/06	4:37 a	-11.2	-11.1	-11.2	---	---	0.0	NE	0.00	0.9	-11.2	---	---	730.5	0.021	0.000	19.7	1	1
03/04/06	4:38 a	-11.0	-10.8	-11.1	---	---	0.0	NE	0.00	0.9	-11.0	---	---	730.4	0.020	0.000	19.7	1	1
03/04/06	4:39 a	-10.7	-10.6	-10.8	---	---	0.9	NE	0.01	1.7	-10.7	---	---	730.4	0.020	0.000	19.7	1	1
03/04/06	4:40 a	-10.4	-10.2	-10.5	---	---	0.0	NE	0.00	1.7	-10.4	---	---	730.5	0.020	0.000	19.7	1	1
03/04/06	4:41 a	-10.0	-9.9	-10.1	---	---	0.9	NE	0.01	1.7	-10.0	---	---	730.5	0.020	0.000	19.7	1	1
03/04/06	4:42 a	-9.7	-9.4	-9.7	---	---	0.0	NE	0.00	0.9	-9.7	---	---	730.5	0.019	0.000	19.7	1	1
03/04/06	4:43 a	-9.2	-9.0	-9.4	---	---	0.9	NE	0.01	0.9	-9.2	---	---	730.5	0.019	0.000	19.7	1	1
03/04/06	4:44 a	-8.9	-8.8	-9.0	---	---	0.9	NE	0.01	1.7	-8.9	---	---	730.5	0.019	0.000	19.7	1	1
03/04/06	4:45 a	-8.7	-8.6	-8.7	---	---	0.9	NE	0.01	1.7	-8.7	---	---	730.5	0.019	0.000	19.7	1	1
03/04/06	4:46 a	-8.4	-8.4	-8.5	---	---	0.9	NE	0.01	2.6	-8.4	---	---	730.5	0.019	0.000	19.8	1	1
03/04/06	4:47 a	-8.3	-8.3	-8.3	---	---	2.6	NE	0.04	3.5	-10.9	---	---	730.5	0.019	0.000	19.8	1	1
03/04/06	4:48 a	-8.2	-8.2	-8.3	---	---	3.5	NE	0.06	4.3	-11.7	---	---	730.6	0.018	0.000	19.8	1	1
03/04/06	4:49 a	-8.2	-8.2	-8.3	---	---	3.5	WNW	0.06	4.3	-11.7	---	---	730.5	0.018	0.000	19.8	1	1
03/04/06	4:50 a	-8.5	-8.4	-8.7	---	---	3.5	WNW	0.06	3.5	-12.0	---	---	730.6	0.019	0.000	19.8	1	1
03/04/06	4:51 a	-8.9	-8.8	-8.9	---	---	2.6	WNW	0.04	3.5	-11.6	---	---	730.6	0.019	0.000	19.8	1	1
03/04/06	4:52 a	-9.2	-9.1	-9.3	---	---	1.7	WNW	0.03	2.6	-10.7	---	---	730.5	0.019	0.000	19.8	1	1
03/04/06	4:53 a	-9.3	-9.3	-9.4	---	---	1.7	WNW	0.03	2.6	-10.8	---	---	730.5	0.019	0.000	19.8	1	1
03/04/06	4:54 a	-9.4	-9.4	-9.5	---	---	1.7	WNW	0.03	1.7	-10.9	---	---	730.6	0.019	0.000	19.8	1	1
03/04/06	4:55 a	-9.6	-9.6	-9.6	---	---	1.7	WNW	0.03	1.7	-11.1	---	---	730.6	0.019	0.000	19.8	1	1
03/04/06	4:56 a	-9.6	-9.5	-9.6	---	---	0.9	WNW	0.01	1.7	-9.6	---	---	730.5	0.019	0.000	19.9	1	1
03/04/06	4:57 a	-9.5	-9.5	-9.6	---	---	0.9	WNW	0.01	1.7	-9.5	---	---	730.6	0.019	0.000	19.9	1	1
03/04/06	4:58 a	-9.4	-9.4	-9.5	---	---	1.7	WNW	0.03	2.6	-10.9	---	---	730.6	0.019	0.000	19.9	1	1
03/04/06	4:59 a	-9.3	-9.3	-9.3	---	---	1.7	WNW	0.03	1.7	-10.8	---	---	730.6	0.019	0.000	19.9	1	1
03/04/06	5:00 a	-9.3	-9.3	-9.3	---	---	1.7	WNW	0.03	1.7	-10.8	---	---	730.7	0.019	0.000	19.9	1	1
03/04/06	5:01 a	-9.4	-9.4	-9.4	---	---	0.0	WNW	0.00	1.7	-9.4	---	---	730.7	0.019	0.000	19.9	2	1
03/04/06	5:02 a	-9.4	-9.3	-9.4	---	---	0.9	WNW	0.01	1.7	-9.4	---	---	730.6	0.019	0.000	19.9	1	1
03/04/06	5:03 a	-9.3	-9.3	-9.3	---	---	0.9	WNW	0.01	1.7	-9.3	---	---	730.7	0.019	0.000	19.9	1	1
03/04/06	5:04 a	-9.4	-9.3	-9.4	---	---	0.9	WNW	0.01	2.6	-9.4	---	---	730.7	0.019	0.000	19.9	1	1
03/04/06	5:05 a	-9.4	-9.4	-9.4	---	---	1.7	WNW	0.03	2.6	-10.9	---	---	730.7	0.019	0.000	19.9	2	1
03/04/06	5:06 a	-9.4	-9.4	-9.5	---	---	1.7	WNW	0.03	2.6	-10.9	---	---	730.7	0.019	0.000	19.9	1	1
03/04/06	5:07 a	-9.6	-9.5	-9.6	---	---	0.9	WNW	0.01	2.6	-9.6	---	---	730.6	0.019	0.000	19.9	1	1
03/04/06	5:08 a	-9.6	-9.6	-9.7	---	---	0.9	WNW	0.01	0.9	-9.6	---	---	730.7	0.019	0.000	19.9	1	1
03/04/06	5:09 a	-9.7	-9.7	-9.7	---	---	0.9	WNW	0.01	1.7	-9.7	---	---	730.7	0.019	0.000	19.9	2	1
03/04/06	5:10 a	-9.7	-9.6	-9.7	---	---	2.6	WNW	0.04	3.5	-12.4	---	---	730.7	0.019	0.000	19.9	2	1
03/04/06	5:11 a	-9.7	-9.7	-9.7	---	---	2.6	WNW	0.04	3.5	-12.4	---	---	730.7	0.019	0.000	19.9	2	1
03/04/06	5:12 a	-9.8	-9.7	-9.8	---	---	2.6	WNW	0.04	3.5	-12.6	---	---	730.8	0.020	0.000	19.9	2	1
03/04/06	5:13 a	-9.9	-9.8	-9.9	---	---	3.5	WNW	0.06	3.5	-13.6	---	---	730.8	0.020	0.000	19.9	2	1
03/04/06	5:14 a	-10.1	-10.1	-10.2	---	---	2.6	WNW	0.04	3.5	-12.9	---	---	730.8	0.020	0.000	19.9	2	1
03/04/06	5:15 a	-10.2	-10.2	-10.3	---	---	1.7	WNW	0.03	1.7	-11.8	---	---	730.8	0.020	0.000	19.9	1	1
03/04/06	5:16 a	-10.3	-10.3	-10.3	---	---	0.9	WNW	0.01	2.6	-10.3	---	---	730.8	0.020	0.000	19.9	2	1
03/04/06	5:17 a	-10.3	-10.3	-10.3	---	---	1.7	WNW	0.03	2.6	-11.9	---	---	730.7	0.020	0.000	19.9	1	1
03/04/06	5:18 a	-10.3	-10.3	-10.3	---	---	1.7	WNW	0.03	2.6	-11.9	---	---	730.7	0.020	0.000	19.9	2	1
03/04/06	5:19 a	-10.3	-10.2	-10.3	---	---	1.7	WNW	0.03	1.7	-11.9	---	---	730.8	0.020	0.000	19.9	1	1
03/04/06	5:20 a	-10.1	-10.0	-10.2	---	---	1.7	WNW	0.03	2.6	-11.7	---	---	730.7	0.020	0.000	19.9	2	1
03/04/06	5:21 a	-9.9	-9.9	-9.9	---	---	1.7	WNW	0.03	2.6	-11.5	---	---	730.7	0.020	0.000	19.9	2	1
03/04/06	5:22 a	-9.8	-9.8	-9.9	---	---	0.9	WNW	0.01	1.7	-9.8	---	---	730.7	0.020	0.000	19.9	1	1
03/04/06	5:23 a	-9.8	-9.7	-9.8	---	---	0.0	---	0.00	0.0	-9.8	---	---	730.7	0.020	0.000	19.9	2	1
03/04/06	5:24 a	-9.7	-9.6	-9.7	---	---	0.0	---	0.00	0.0	-9.7	---	---	730.7	0.019	0.000	19.9	2	1
03/04/06	5:25 a	-9.6	-9.6	-9.6	---	---	0.0	WNW	0.00	0.9	-9.6	---	---	730.7	0.019	0.000	19.9	2	1
03/04/06	5:26 a	-9.4	-9.4	-9.5	---	---	0.0	WNW	0.00	0.9	-9.4	---	---	730.7	0.019	0.000	19.9	2	1
03/04/06	5:27 a	-9.3	-9.3	-9.3	---	---	0.0	---	0.00	0.0	-9.3	---	---	730.7	0.019	0.000	19.9	2	1
03/04/06	5:28 a	-9.1	-9.1	-9.2	---	---	0.0	WNW	0.00	1.7	-9.1	---	---	730.7	0.019	0.000	19.9	2	1
03/04/06	5:29 a	-8.9	-8.8	-8.9	---	---	1.7	WNW	0.03	2.6	-10.4	---	---	730.7	0.019	0.000	19.9	2	1
03/04/06	5:30 a	-8.7	-8.6	-8.8	---	---	2.6	WNW	0.04	3.5	-11.3	---	---	730.6	0.019	0.000	19.9	2	1
03/04/06	5:31 a	-8.4	-8.3	-8.4	---	---	3.5	SW	0.06	4.3	-11.9	---	---	730.6	0.019	0.000	19.9	2	1
03/04/06	5:32 a	-8.2	-8.1	-8.3	---	---	3.5	SSE	0.06	4.3	-11.6	---	---	730.7	0.018	0.000	19.9	2	1
03/04/06	5:33 a	-7.9	-7.8	-7.9	---	---	3.5	SSE	0.06	4.3	-11.3	---	---	730.7	0.018	0.000	19.9	2	1
03/04/06	5:34 a	-7.6	-7.5	-7.7	---	---	2.6	SSE	0.04	3.5	-10.1	---	---	730.7	0.018	0.000	19.9	2	1
03/04/06	5:35 a	-7.3	-7.1	-7.3	---	---	3.5	SSE	0.06	3.5	-10.6	---	---	730.7	0.018	0.000	19.9	2	1
03/04/06	5:36 a	-7.1	-6.9	-7.1	---	---	2.6	SSE	0.04	3.5	-9.4	---	---	730.6	0.018	0.000	19.9	2	1
03/04/06	5:37 a	-6.8	-6.7	-6.9	---	---	2.6	SSE	0.04	3.5	-9.2	---	---	730.6	0.017	0.000	19.9	2	1
03/04/06	5:38 a	-6.6	-6.6	-6.7	---	---	2.6	SSE	0.04	3.5	-8.9	---	---	730.6	0.017	0.000	19.9	2	1
03/04/06	5:39 a	-6.5	-6.4	-6.5	---	---	2.6	SSE	0.04	2.6	-8.8	---	---	730.6	0.017	0.000	19.9	2	1
03/04/06	5:40 a	-6.4	-6.4	-6.4	---	---	2.6	SSE	0.04	3.5	-8.7	---	---	730.6	0.017	0.000	19.9	2	1
03/04/06	5:41 a	-6.4	-6.4	-6.4	---	---	2.6	SSE	0.04	3.5	-8.7	---	---	730.6	0.017	0.000	19.9	2	1
03/04/06	5:42 a	-6.4	-6.3	-6.4	---	---	3.5	SSE	0.06	3.5	-9.6	---	---	730.6	0.017	0.000	19.9	2	1
03/04/06	5:43 a	-6.4	-6.4	-6.4	---	---	2.6	SSE	0.04	3.5	-8.7	---	---	730.6	0.017	0.000	19.9	2	1
03/04/06	5:44 a	-6.4	-6.4	-6.4	---	---	1.7	SSE	0.03	2.6	-7.6	---	---	730.5	0.017	0.000	19.9	2	1
03/04/06	5:45 a	-6.4	-6.4	-6.5	---	---	1.7	SSE	0.03	2.6	-7.7	---	---	730.6	0.017	0.000	20.0	2	1
03/04/06	5:46 a	-6.5	-6.5	-6.6	---	---	1.7	SSE	0.03	2.6	-7.7	---	---	730.6	0.017	0.000	19.9	2	1
03/04/06	5:47 a	-6.6	-6.5	-6.6	---	---	1.7	SSE	0.03	2.6	-7.8	---	---	730.6	0.017	0.000	19.9	2	1
03/04/06	5:48 a	-6.5	-6.5	-6.6	---	---	0.9	SSE	0.01	1.7	-6.5	---	---	730.7	0.017	0.000	19.9	2	1
03/04/06	5:49 a	-6.5	-6.5	-6.6	---	---	0.9	SSE	0.01	1.7	-6.5	---	---	730.6	0.017	0.000	19.9	2	1
03/04/06	5:50 a	-6.5	-6.5	-6.5	---	---	0.0	SSE	0.00	0.9	-6.5	---	---	730.6	0.017	0.000	19.9	2	1
03/04/06	5:51 a	-6.5	-6.5	-6.5	---	---	0.0	SSE	0.00	0.9	-6.5	---	---	730.7	0.017	0.000	20.0	2	1
03/04/06	5:52 a	-6.5	-6.4	-6.5	---	---	0.0	SSE	0.00	0.9	-6.5	---	---	730.6	0.017	0.000	20.0	2	1
03/04/06	5:53 a	-6.4	-6.3	-6.4	---	---	0.0	SSE	0.00	0.9	-6.4	---	---	730.6	0.017	0.000	20.0	2	1
03/04/06	5:54 a	-6.3	-6.3	-6.3	---	---	0.0	---	0.00	0.0	-6.3	---	---	730.7	0.017	0.000	20.0	2	1
03/04/06	5:55 a	-6.2	-6.2	-6.3	---	---	0.0	SSE	0.00	0.9	-6.2	---	---	730.6	0.017	0.000	20.0	2	1
03/04/06	5:56 a	-6.2	-6.1	-6.2	---	---	0.9	SSE	0.01	1.7	-6.2	---	---	730.6	0.017	0.000	20.0	2	1
03/04/06	5:57 a	-6.1	-6.1	-6.1	---	---	0.9	SSE	0.01	1.7	-6.1	---	---	730.6	0.017	0.000	20.0	2	1
03/04/06	5:58 a	-6.1	-6.1	-6.1	---	---	0.0	---	0.00	0.0	-6.1	---	---	730.5	0.017	0.000	20.1	2	1
03/04/06	5:59 a	-6.1	-6.1	-6.1	---	---	0.0	---	0.00	0.0	-6.1	---	---	730.6	0.017	0.000	20.1	2	1
03/04/06	6:00 a	-6.1	-6.1	-6.1	---	---	0.0	---	0.00	0.0	-6.1	---	---	730.6	0.017	0.000	20.1	2	1
03/04/06	6:01 a	-6.0	-5.9	-6.1	---	---	0.0	---	0.00	0.0	-6.0	---	---	730.5	0.017	0.000	20.1	2	1
03/04/06	6:02 a	-5.8	-5.8	-5.9	---	---	0.9	SSE	0.01	1.7	-5.8	---	---	730.5	0.017	0.000	20.2	2	1
03/04/06	6:03 a	-5.7	-5.6	-5.8	---	---	0.9	SSE	0.01	1.7	-5.7	---	---	730.6	0.017	0.000	20.2	2	1
03/04/06	6:04 a	-5.6	-5.5	-5.6	---	---	0.9	SSE	0.01	1.7	-5.6	---	---	730.5	0.017	0.000	20.2	2	1
03/04/06	6:05 a	-5.4	-5.3	-5.5	---	---	1.7	SSE	0.03	1.7	-6.6	---	---	730.5	0.017	0.000	20.3	2	1
03/04/06	6:06 a	-5.3	-5.2	-5.3	---	---	1.7	SSE	0.03	2.6	-6.4	---	---	730.6	0.016	0.000	20.3	2	1
03/04/06	6:07 a	-5.1	-5.0	-5.2	---	---	1.7	SSE	0.03	2.6	-6.1	---	---	730.5	0.016	0.000	20.3	2	1
03/04/06	6:08 a	-4.8	-4.8	-4.9	---	---	1.7	SSE	0.03	2.6	-5.9	---	---	730.5	0.016	0.000	20.3	2	1
03/04/06	6:09 a	-4.6	-4.5	-4.8	---	---	1.7	SSE	0.03	2.6	-5.7	---	---	730.5	0.016	0.000	20.3	2	1
03/04/06	6:10 a	-4.4	-4.3	-4.5	---	---	1.7	SSE	0.03	2.6	-5.4	---	---	730.5	0.016	0.000	20.4	2	1
03/04/06	6:11 a	-4.2	-4.1	-4.3	---	---	2.6	SSE	0.04	2.6	-6.3	---	---	730.5	0.016	0.000	20.4	2	1
03/04/06	6:12 a	-4.1	-3.9	-4.1	---	---	2.6	SSE	0.04	3.5	-6.1	---	---	730.5	0.016	0.000	20.4	2	1
03/04/06	6:13 a	-3.9	-3.9	-3.9	---	---	2.6	SSE	0.04	2.6	-5.9	---	---	730.5	0.015	0.000	20.4	2	1
03/04/06	6:14 a	-3.9	-3.9	-3.9	---	---	2.6	SSE	0.04	3.5	-5.9	---	---	730.6	0.015	0.000	20.4	2	1
03/04/06	6:15 a	-3.9	-3.9	-3.9	---	---	2.6	SSE	0.04	3.5	-5.9	---	---	730.5	0.015	0.000	20.5	2	1
03/04/06	6:16 a	-4.0	-3.9	-4.1	---	---	2.6	SSE	0.04	3.5	-6.0	---	---	730.4	0.016	0.000	20.5	2	1
03/04/06	6:17 a	-4.1	-4.1	-4.2	---	---	2.6	SSE	0.04	3.5	-6.2	---	---	730.6	0.016	0.000	20.6	2	1
03/04/06	6:18 a	-4.3	-4.2	-4.4	---	---	2.6	SSE	0.04	3.5	-6.4	---	---	730.5	0.016	0.000	20.6	2	1
03/04/06	6:19 a	-4.6	-4.5	-4.7	---	---	2.6	SSE	0.04	3.5	-6.7	---	---	730.5	0.016	0.000	20.6	2	1
03/04/06	6:20 a	-4.7	-4.7	-4.8	---	---	3.5	SSE	0.06	4.3	-7.6	---	---	730.5	0.016	0.000	20.6	2	1
03/04/06	6:21 a	-4.9	-4.8	-5.1	---	---	4.3	SSE	0.07	4.3	-8.6	---	---	730.5	0.016	0.000	20.6	2	1
03/04/06	6:22 a	-5.2	-5.1	-5.2	---	---	4.3	ESE	0.07	4.3	-8.8	---	---	730.5	0.016	0.000	20.7	2	1
03/04/06	6:23 a	-5.3	-5.2	-5.4	---	---	3.5	ESE	0.06	4.3	-8.3	---	---	730.5	0.016	0.000	20.7	2	1
03/04/06	6:24 a	-5.6	-5.5	-5.7	---	---	3.5	ESE	0.06	4.3	-8.6	---	---	730.5	0.017	0.000	20.7	2	1
03/04/06	6:25 a	-5.8	-5.7	-5.8	---	---	3.5	ESE	0.06	3.5	-8.8	---	---	730.5	0.017	0.000	20.7	2	1
03/04/06	6:26 a	-5.9	-5.9	-6.0	---	---	3.5	ESE	0.06	3.5	-9.1	---	---	730.5	0.017	0.000	20.7	2	1
03/04/06	6:27 a	-6.1	-6.0	-6.1	---	---	3.5	ESE	0.06	4.3	-9.2	---	---	730.4	0.017	0.000	20.7	2	1
03/04/06	6:28 a	-6.2	-6.2	-6.2	---	---	3.5	ESE	0.06	4.3	-9.3	---	---	730.4	0.017	0.000	20.8	2	1
03/04/06	6:29 a	-6.3	-6.3	-6.3	---	---	3.5	ESE	0.06	4.3	-9.4	---	---	730.4	0.017	0.000	20.8	2	1
03/04/06	6:30 a	-6.3	-6.3	-6.4	---	---	3.5	ESE	0.06	4.3	-9.5	---	---	730.5	0.017	0.000	20.8	2	1
03/04/06	6:31 a	-6.4	-6.4	-6.4	---	---	3.5	ESE	0.06	4.3	-9.6	---	---	730.3	0.017	0.000	20.8	2	1
03/04/06	6:32 a	-6.6	-6.5	-6.6	---	---	3.5	ESE	0.06	4.3	-9.8	---	---	730.4	0.017	0.000	20.8	2	1
03/04/06	6:33 a	-6.6	-6.6	-6.7	---	---	3.5	ESE	0.06	4.3	-9.8	---	---	730.3	0.017	0.000	20.8	2	1
03/04/06	6:34 a	-6.7	-6.7	-6.8	---	---	3.5	ESE	0.06	4.3	-9.9	---	---	730.3	0.017	0.000	20.8	2	1
03/04/06	6:35 a	-6.8	-6.8	-6.8	---	---	3.5	ESE	0.06	3.5	-10.1	---	---	730.3	0.017	0.000	20.8	2	1
03/04/06	6:36 a	-6.9	-6.9	-6.9	---	---	3.5	ESE	0.06	3.5	-10.2	---	---	730.3	0.018	0.000	20.8	2	1
03/04/06	6:37 a	-7.0	-7.0	-7.0	---	---	3.5	ESE	0.06	3.5	-10.3	---	---	730.3	0.018	0.000	20.9	2	1
03/04/06	6:38 a	-7.1	-7.1	-7.1	---	---	2.6	ESE	0.04	3.5	-9.4	---	---	730.4	0.018	0.000	20.9	2	1
03/04/06	6:39 a	-7.1	-7.1	-7.2	---	---	2.6	ESE	0.04	3.5	-9.6	---	---	730.3	0.018	0.000	20.9	2	1
03/04/06	6:40 a	-7.2	-7.2	-7.2	---	---	2.6	ESE	0.04	3.5	-9.6	---	---	730.3	0.018	0.000	20.9	2	1
03/04/06	6:41 a	-7.2	-7.2	-7.2	---	---	2.6	ESE	0.04	2.6	-9.7	---	---	730.4	0.018	0.000	20.9	2	1
03/04/06	6:42 a	-7.3	-7.3	-7.3	---	---	1.7	ESE	0.03	2.6	-8.6	---	---	730.3	0.018	0.000	20.9	2	1
03/04/06	6:43 a	-7.3	-7.3	-7.3	---	---	1.7	ESE	0.03	1.7	-8.6	---	---	730.3	0.018	0.000	20.9	2	1
03/04/06	6:44 a	-7.3	-7.3	-7.3	---	---	1.7	ESE	0.03	1.7	-8.6	---	---	730.4	0.018	0.000	20.9	2	1
03/04/06	6:45 a	-7.3	-7.3	-7.3	---	---	0.9	ESE	0.01	1.7	-7.3	---	---	730.3	0.018	0.000	21.0	2	1
03/04/06	6:46 a	-7.3	-7.3	-7.3	---	---	0.9	ESE	0.01	1.7	-7.3	---	---	730.3	0.018	0.000	21.0	2	1
03/04/06	6:47 a	-7.3	-7.3	-7.3	---	---	0.9	ESE	0.01	1.7	-7.3	---	---	730.4	0.018	0.000	21.0	2	1
03/04/06	6:48 a	-7.2	-7.2	-7.3	---	---	0.9	ESE	0.01	1.7	-7.2	---	---	730.4	0.018	0.000	21.1	2	1
03/04/06	6:49 a	-7.1	-7.1	-7.1	---	---	0.9	ESE	0.01	0.9	-7.1	---	---	730.4	0.018	0.000	21.1	2	1
03/04/06	6:50 a	-7.0	-7.0	-7.1	---	---	0.9	ESE	0.01	1.7	-7.0	---	---	730.5	0.018	0.000	21.1	2	1
03/04/06	6:51 a	-6.9	-6.9	-6.9	---	---	1.7	ESE	0.03	1.7	-8.2	---	---	730.4	0.018	0.000	21.1	2	1
03/04/06	6:52 a	-6.8	-6.7	-6.8	---	---	0.9	ESE	0.01	1.7	-6.8	---	---	730.3	0.017	0.000	21.1	2	1
03/04/06	6:53 a	-6.7	-6.6	-6.7	---	---	0.9	ESE	0.01	1.7	-6.7	---	---	730.3	0.017	0.000	21.1	2	1
03/04/06	6:54 a	-6.5	-6.4	-6.6	---	---	0.9	ESE	0.01	1.7	-6.5	---	---	730.3	0.017	0.000	21.1	2	1
03/04/06	6:55 a	-6.3	-6.3	-6.4	---	---	0.9	ESE	0.01	0.9	-6.3	---	---	730.4	0.017	0.000	21.1	2	1
03/04/06	6:56 a	-6.2	-6.1	-6.2	---	---	0.0	ESE	0.00	0.9	-6.2	---	---	730.3	0.017	0.000	21.1	2	1
03/04/06	6:57 a	-6.0	-5.9	-6.1	---	---	0.0	ESE	0.00	0.9	-6.0	---	---	730.3	0.017	0.000	21.1	2	1
03/04/06	6:58 a	-5.8	-5.7	-5.9	---	---	0.0	---	0.00	0.0	-5.8	---	---	730.3	0.017	0.000	21.1	2	1
03/04/06	6:59 a	-5.7	-5.6	-5.7	---	---	0.0	---	0.00	0.0	-5.7	---	---	730.3	0.017	0.000	21.1	2	1
03/04/06	7:00 a	-5.5	-5.4	-5.6	---	---	0.0	---	0.00	0.0	-5.5	---	---	730.3	0.017	0.000	21.1	2	1
03/04/06	7:01 a	-5.4	-5.3	-5.4	---	---	0.0	---	0.00	0.0	-5.4	---	---	730.3	0.016	0.000	21.1	2	1
03/04/06	7:02 a	-5.3	-5.2	-5.3	---	---	0.0	---	0.00	0.0	-5.3	---	---	730.3	0.016	0.000	21.1	2	1
03/04/06	7:03 a	-5.2	-5.1	-5.2	---	---	0.0	---	0.00	0.0	-5.2	---	---	730.3	0.016	0.000	21.1	2	1
03/04/06	7:04 a	-5.0	-4.9	-5.1	---	---	0.0	---	0.00	0.0	-5.0	---	---	730.2	0.016	0.000	21.1	2	1
03/04/06	7:05 a	-4.9	-4.8	-4.9	---	---	0.0	ESE	0.00	0.9	-4.9	---	---	730.2	0.016	0.000	21.1	2	1
03/04/06	7:06 a	-4.7	-4.6	-4.7	---	---	0.9	ESE	0.01	1.7	-4.7	---	---	730.2	0.016	0.000	21.1	2	1
03/04/06	7:07 a	-4.6	-4.4	-4.6	---	---	0.9	ESE	0.01	1.7	-4.6	---	---	730.3	0.016	0.000	21.1	2	1
03/04/06	7:08 a	-4.4	-4.4	-4.4	---	---	0.9	ESE	0.01	1.7	-4.4	---	---	730.2	0.016	0.000	21.1	2	1
03/04/06	7:09 a	-4.3	-4.3	-4.4	---	---	0.9	ESE	0.01	1.7	-4.3	---	---	730.2	0.016	0.000	21.1	2	1
03/04/06	7:10 a	-4.2	-4.1	-4.2	---	---	0.9	ESE	0.01	1.7	-4.2	---	---	730.2	0.016	0.000	21.1	2	1
03/04/06	7:11 a	-4.1	-4.1	-4.1	---	---	0.9	ESE	0.01	1.7	-4.1	---	---	730.3	0.016	0.000	21.0	2	1
03/04/06	7:12 a	-4.0	-3.9	-4.0	---	---	0.9	ESE	0.01	1.7	-4.0	---	---	730.2	0.016	0.000	21.0	2	1
03/04/06	7:13 a	-3.9	-3.9	-3.9	---	---	0.9	ESE	0.01	1.7	-3.9	---	---	730.2	0.015	0.000	21.0	2	1
03/04/06	7:14 a	-3.9	-3.9	-3.9	---	---	0.9	ESE	0.01	1.7	-3.9	---	---	730.2	0.015	0.000	20.9	2	1
03/04/06	7:15 a	-3.9	-3.9	-3.9	---	---	0.9	ESE	0.01	1.7	-3.9	---	---	730.3	0.015	0.000	20.9	2	1
03/04/06	7:16 a	-4.0	-3.9	-4.0	---	---	1.7	ESE	0.03	2.6	-4.9	---	---	730.2	0.016	0.000	20.9	2	1
03/04/06	7:17 a	-4.1	-4.0	-4.2	---	---	3.5	ESE	0.06	3.5	-6.9	---	---	730.1	0.016	0.000	20.9	2	1
03/04/06	7:18 a	-4.2	-4.2	-4.3	---	---	3.5	ESE	0.06	3.5	-7.1	---	---	730.1	0.016	0.000	20.9	2	1
03/04/06	7:19 a	-4.4	-4.3	-4.5	---	---	2.6	ESE	0.04	3.5	-6.4	---	---	730.1	0.016	0.000	20.8	2	1
03/04/06	7:20 a	-4.6	-4.5	-4.7	---	---	2.6	ESE	0.04	3.5	-6.7	---	---	730.1	0.016	0.000	20.8	2	1
03/04/06	7:21 a	-4.8	-4.7	-4.9	---	---	2.6	ESE	0.04	2.6	-6.9	---	---	730.2	0.016	0.000	20.8	2	1
03/04/06	7:22 a	-4.9	-4.9	-5.1	---	---	1.7	ESE	0.03	2.6	-6.0	---	---	730.1	0.016	0.000	20.8	2	1
03/04/06	7:23 a	-5.2	-5.1	-5.3	---	---	1.7	ESE	0.03	2.6	-6.3	---	---	730.2	0.016	0.000	20.8	2	1
03/04/06	7:24 a	-5.3	-5.3	-5.4	---	---	1.7	ESE	0.03	1.7	-6.4	---	---	730.2	0.016	0.000	20.8	2	1
03/04/06	7:25 a	-5.4	-5.4	-5.4	---	---	1.7	ESE	0.03	1.7	-6.6	---	---	730.2	0.017	0.000	20.8	2	1
03/04/06	7:26 a	-5.5	-5.4	-5.5	---	---	1.7	ESE	0.03	1.7	-6.6	---	---	730.1	0.017	0.000	20.8	2	1
03/04/06	7:27 a	-5.5	-5.5	-5.6	---	---	1.7	ESE	0.03	2.6	-6.6	---	---	730.1	0.017	0.000	20.7	2	1
03/04/06	7:28 a	-5.6	-5.6	-5.6	---	---	2.6	ESE	0.04	3.5	-7.8	---	---	730.1	0.017	0.000	20.7	2	1
03/04/06	7:29 a	-5.6	-5.6	-5.7	---	---	2.6	ESE	0.04	3.5	-7.8	---	---	730.1	0.017	0.000	20.7	2	1
03/04/06	7:30 a	-5.8	-5.7	-5.8	---	---	2.6	ESE	0.04	3.5	-8.0	---	---	730.1	0.017	0.000	20.7	2	1
03/04/06	7:31 a	-5.9	-5.8	-6.1	---	---	3.5	ESE	0.06	3.5	-9.1	---	---	730.0	0.017	0.000	20.7	2	1
03/04/06	7:32 a	-6.2	-6.1	-6.3	---	---	3.5	ESE	0.06	3.5	-9.4	---	---	730.1	0.017	0.000	20.7	2	1
03/04/06	7:33 a	-6.4	-6.3	-6.6	---	---	3.5	ESE	0.06	3.5	-9.6	---	---	730.1	0.017	0.000	20.7	2	1
03/04/06	7:34 a	-6.6	-6.6	-6.7	---	---	2.6	ESE	0.04	3.5	-8.9	---	---	730.1	0.017	0.000	20.7	2	1
03/04/06	7:35 a	-6.9	-6.7	-7.0	---	---	1.7	ESE	0.03	2.6	-8.2	---	---	730.1	0.018	0.000	20.7	2	1
03/04/06	7:36 a	-7.1	-7.0	-7.2	---	---	0.9	ESE	0.01	1.7	-7.1	---	---	730.1	0.018	0.000	20.7	2	1
03/04/06	7:37 a	-7.3	-7.2	-7.4	---	---	0.0	ESE	0.00	1.7	-7.3	---	---	730.0	0.018	0.000	20.7	2	1
03/04/06	7:38 a	-7.5	-7.4	-7.6	---	---	0.9	ESE	0.01	2.6	-7.5	---	---	730.0	0.018	0.000	20.7	2	1
03/04/06	7:39 a	-7.6	-7.6	-7.7	---	---	0.9	ESE	0.01	1.7	-7.6	---	---	730.0	0.018	0.000	20.7	2	1
03/04/06	7:40 a	-7.7	-7.7	-7.7	---	---	0.9	ESE	0.01	1.7	-7.7	---	---	730.0	0.018	0.000	20.6	2	1
03/04/06	7:41 a	-7.8	-7.7	-7.8	---	---	1.7	ESE	0.03	2.6	-9.1	---	---	729.9	0.018	0.000	20.6	2	1
03/04/06	7:42 a	-7.8	-7.8	-7.8	---	---	1.7	ESE	0.03	2.6	-9.2	---	---	729.9	0.018	0.000	20.6	2	1
03/04/06	7:43 a	-7.8	-7.8	-7.8	---	---	2.6	ESE	0.04	3.5	-10.3	---	---	729.9	0.018	0.000	20.6	2	1
03/04/06	7:44 a	-7.8	-7.8	-7.8	---	---	3.5	ESE	0.06	4.3	-11.2	---	---	729.9	0.018	0.000	20.6	2	1
03/04/06	7:45 a	-7.8	-7.8	-7.8	---	---	4.3	ESE	0.07	5.2	-11.9	---	---	729.9	0.018	0.000	20.6	2	1
03/04/06	7:46 a	-7.8	-7.8	-7.8	---	---	4.3	ESE	0.07	5.2	-11.9	---	---	729.9	0.018	0.000	20.6	2	1
03/04/06	7:47 a	-7.8	-7.8	-7.9	---	---	4.3	NNW	0.07	5.2	-11.9	---	---	730.0	0.018	0.000	20.6	2	1
03/04/06	7:48 a	-7.9	-7.9	-8.0	---	---	4.3	NNW	0.07	5.2	-12.1	---	---	730.0	0.018	0.000	20.6	2	1
03/04/06	7:49 a	-8.1	-8.0	-8.1	---	---	3.5	NNW	0.06	4.3	-11.5	---	---	730.0	0.018	0.000	20.6	2	1
03/04/06	7:50 a	-8.2	-8.1	-8.2	---	---	2.6	NNW	0.04	3.5	-10.7	---	---	730.0	0.018	0.000	20.6	2	1
03/04/06	7:51 a	-8.2	-8.2	-8.3	---	---	2.6	NNW	0.04	3.5	-10.8	---	---	730.1	0.018	0.000	20.6	2	1
03/04/06	7:52 a	-8.3	-8.3	-8.4	---	---	2.6	NNW	0.04	3.5	-10.9	---	---	730.1	0.019	0.000	20.6	2	1
03/04/06	7:53 a	-8.4	-8.4	-8.4	---	---	2.6	NNW	0.04	3.5	-11.0	---	---	730.0	0.019	0.000	20.6	2	1
03/04/06	7:54 a	-8.5	-8.5	-8.5	---	---	3.5	NNW	0.06	4.3	-12.0	---	---	730.0	0.019	0.000	20.6	2	1
03/04/06	7:55 a	-8.6	-8.6	-8.6	---	---	4.3	NNW	0.07	5.2	-12.8	---	---	730.1	0.019	0.000	20.5	2	1
03/04/06	7:56 a	-8.7	-8.6	-8.7	---	---	4.3	NNW	0.07	5.2	-12.9	---	---	730.1	0.019	0.000	20.5	2	1
03/04/06	7:57 a	-8.8	-8.7	-8.8	---	---	3.5	NNW	0.06	3.5	-12.3	---	---	730.0	0.019	0.000	20.5	2	1
03/04/06	7:58 a	-8.9	-8.9	-9.0	---	---	1.7	NNW	0.03	3.5	-10.4	---	---	730.1	0.019	0.000	20.5	2	1
03/04/06	7:59 a	-9.1	-9.1	-9.2	---	---	2.6	NNW	0.04	2.6	-11.8	---	---	730.0	0.019	0.000	20.5	2	1
03/04/06	8:00 a	-9.3	-9.2	-9.4	---	---	3.5	NNW	0.06	3.5	-12.9	---	---	730.1	0.019	0.000	20.5	2	1
03/04/06	8:01 a	-9.6	-9.4	-9.7	---	---	3.5	NNW	0.06	3.5	-13.2	---	---	730.0	0.019	0.000	20.4	2	1
03/04/06	8:02 a	-9.8	-9.7	-9.8	---	---	2.6	NNW	0.04	3.5	-12.6	---	---	730.0	0.020	0.000	20.4	2	1
03/04/06	8:03 a	-9.9	-9.8	-9.9	---	---	0.9	NNW	0.01	2.6	-9.9	---	---	730.0	0.020	0.000	20.4	2	1
03/04/06	8:04 a	-10.1	-10.0	-10.1	---	---	0.0	NNW	0.00	0.9	-10.1	---	---	730.0	0.020	0.000	20.4	2	1
03/04/06	8:05 a	-10.1	-10.1	-10.1	---	---	0.9	NNW	0.01	1.7	-10.1	---	---	730.0	0.020	0.000	20.4	2	1
03/04/06	8:06 a	-10.2	-10.1	-10.2	---	---	0.9	NNW	0.01	1.7	-10.2	---	---	730.0	0.020	0.000	20.4	2	1
03/04/06	8:07 a	-10.2	-10.2	-10.2	---	---	2.6	NNW	0.04	4.3	-13.1	---	---	730.0	0.020	0.000	20.4	2	1
03/04/06	8:08 a	-10.3	-10.2	-10.3	---	---	3.5	NNW	0.06	4.3	-14.1	---	---	730.0	0.020	0.000	20.4	2	1
03/04/06	8:09 a	-10.3	-10.3	-10.3	---	---	2.6	NNW	0.04	3.5	-13.1	---	---	730.0	0.020	0.000	20.4	2	1
03/04/06	8:10 a	-10.3	-10.3	-10.3	---	---	1.7	NNW	0.03	2.6	-11.9	---	---	730.0	0.020	0.000	20.4	2	1
03/04/06	8:11 a	-10.3	-10.3	-10.4	---	---	1.7	NNW	0.03	1.7	-11.9	---	---	730.0	0.020	0.000	20.4	2	1
03/04/06	8:12 a	-10.4	-10.4	-10.5	---	---	0.0	NNW	0.00	0.9	-10.4	---	---	729.9	0.020	0.000	20.4	2	1
03/04/06	8:13 a	-10.6	-10.5	-10.6	---	---	0.0	---	0.00	0.0	-10.6	---	---	729.9	0.020	0.000	20.4	2	1
03/04/06	8:14 a	-10.6	-10.6	-10.7	---	---	0.0	---	0.00	0.0	-10.6	---	---	729.9	0.020	0.000	20.4	2	1
03/04/06	8:15 a	-10.7	-10.7	-10.7	---	---	0.0	---	0.00	0.0	-10.7	---	---	729.9	0.020	0.000	20.4	2	1
03/04/06	8:16 a	-10.7	-10.7	-10.7	---	---	0.0	NNW	0.00	0.9	-10.7	---	---	729.9	0.020	0.000	20.4	2	1
03/04/06	8:17 a	-10.7	-10.7	-10.7	---	---	1.7	NNW	0.03	2.6	-12.3	---	---	729.9	0.020	0.000	20.4	2	1
03/04/06	8:18 a	-10.6	-10.6	-10.6	---	---	2.6	E	0.04	4.3	-13.5	---	---	729.9	0.020	0.000	20.4	2	1
03/04/06	8:19 a	-10.6	-10.6	-10.6	---	---	1.7	ESE	0.03	2.6	-12.2	---	---	729.9	0.020	0.000	20.4	2	1
03/04/06	8:20 a	-10.6	-10.5	-10.6	---	---	1.7	ESE	0.03	1.7	-12.2	---	---	729.9	0.020	0.000	20.4	2	1
03/04/06	8:21 a	-10.5	-10.5	-10.5	---	---	1.7	ESE	0.03	1.7	-12.1	---	---	729.9	0.020	0.000	20.4	2	1
03/04/06	8:22 a	-10.6	-10.5	-10.6	---	---	1.7	ESE	0.03	1.7	-12.2	---	---	729.9	0.020	0.000	20.4	2	1
03/04/06	8:23 a	-10.6	-10.6	-10.6	---	---	0.9	ESE	0.01	2.6	-10.6	---	---	730.0	0.020	0.000	20.4	2	1
03/04/06	8:24 a	-10.6	-10.6	-10.6	---	---	1.7	ESE	0.03	2.6	-12.2	---	---	730.0	0.020	0.000	20.3	2	1
03/04/06	8:25 a	-10.6	-10.6	-10.7	---	---	2.6	ESE	0.04	3.5	-13.5	---	---	729.9	0.020	0.000	20.3	2	1
03/04/06	8:26 a	-10.7	-10.7	-10.8	---	---	3.5	ENE	0.06	5.2	-14.6	---	---	729.9	0.020	0.000	20.3	2	1
03/04/06	8:27 a	-10.8	-10.8	-10.8	---	---	4.3	N	0.07	5.2	-15.4	---	---	729.9	0.020	0.000	20.3	2	1
03/04/06	8:28 a	-11.0	-10.9	-11.1	---	---	4.3	N	0.07	5.2	-15.7	---	---	729.9	0.020	0.000	20.3	2	1
03/04/06	8:29 a	-11.2	-11.2	-11.3	---	---	5.2	N	0.09	5.2	-16.6	---	---	729.9	0.021	0.000	20.3	2	1
03/04/06	8:30 a	-11.4	-11.3	-11.5	---	---	5.2	N	0.09	6.1	-16.8	---	---	730.0	0.021	0.000	20.3	2	1
03/04/06	8:31 a	-11.6	-11.6	-11.7	---	---	4.3	NNW	0.07	6.1	-16.4	---	---	729.9	0.021	0.000	20.3	2	1
03/04/06	8:32 a	-11.7	-11.7	-11.8	---	---	6.1	NNW	0.10	7.0	-17.7	---	---	729.9	0.021	0.000	20.3	2	1
03/04/06	8:33 a	-11.8	-11.8	-11.9	---	---	7.0	NW	0.12	8.7	-18.3	---	---	730.0	0.021	0.000	20.3	2	1
03/04/06	8:34 a	-12.0	-11.9	-12.1	---	---	7.8	NW	0.13	8.7	-19.0	---	---	730.0	0.021	0.000	20.3	2	1
03/04/06	8:35 a	-12.2	-12.1	-12.2	---	---	5.2	NW	0.09	7.8	-17.7	---	---	729.9	0.021	0.000	20.3	2	1
03/04/06	8:36 a	-12.4	-12.3	-12.4	---	---	3.5	NW	0.06	4.3	-16.5	---	---	730.0	0.021	0.000	20.3	2	1
03/04/06	8:37 a	-12.6	-12.4	-12.7	---	---	3.5	NNW	0.06	5.2	-16.7	---	---	729.9	0.021	0.000	20.3	2	1
03/04/06	8:38 a	-12.7	-12.7	-12.8	---	---	3.5	NNW	0.06	5.2	-16.9	---	---	729.9	0.022	0.000	20.3	2	1
03/04/06	8:39 a	-12.9	-12.8	-13.3	---	---	6.1	N	0.10	7.0	-19.2	---	---	729.9	0.022	0.000	20.3	2	1
03/04/06	8:40 a	-13.4	-13.3	-13.7	---	---	6.1	N	0.10	7.8	-19.8	---	---	729.9	0.022	0.000	20.3	2	1
03/04/06	8:41 a	-13.9	-13.7	-14.1	---	---	7.0	N	0.12	8.7	-20.8	---	---	729.9	0.022	0.000	20.3	2	1
03/04/06	8:42 a	-14.2	-14.1	-14.4	---	---	7.0	N	0.12	7.8	-21.2	---	---	729.9	0.023	0.000	20.3	2	1
03/04/06	8:43 a	-14.6	-14.4	-14.7	---	---	8.7	N	0.14	10.4	-22.6	---	---	729.9	0.023	0.000	20.3	2	1
03/04/06	8:44 a	-14.8	-14.7	-14.9	---	---	9.6	N	0.16	10.4	-23.3	---	---	730.0	0.023	0.000	20.3	2	1
03/04/06	8:45 a	-15.1	-14.9	-15.3	---	---	7.8	N	0.13	10.4	-22.8	---	---	729.9	0.023	0.000	20.3	2	1
03/04/06	8:46 a	-15.4	-15.3	-15.6	---	---	7.8	N	0.13	9.6	-23.2	---	---	729.9	0.023	0.000	20.3	2	1
03/04/06	8:47 a	-15.6	-15.6	-15.7	---	---	9.6	NNW	0.16	11.3	-24.3	---	---	729.9	0.024	0.000	20.3	2	1
03/04/06	8:48 a	-15.8	-15.7	-15.8	---	---	9.6	NNW	0.16	11.3	-24.5	---	---	729.9	0.024	0.000	20.3	2	1
03/04/06	8:49 a	-15.9	-15.8	-16.1	---	---	7.8	N	0.13	8.7	-23.8	---	---	730.0	0.024	0.000	20.3	2	1
03/04/06	8:50 a	-16.2	-16.1	-16.2	---	---	8.7	N	0.14	10.4	-24.6	---	---	729.9	0.024	0.000	20.3	2	1
03/04/06	8:51 a	-16.3	-16.2	-16.4	---	---	9.6	NNW	0.16	11.3	-25.2	---	---	729.9	0.024	0.000	20.3	2	1
03/04/06	8:52 a	-16.4	-16.4	-16.4	---	---	10.4	NNW	0.17	12.2	-25.7	---	---	729.9	0.024	0.000	20.3	2	1
03/04/06	8:53 a	-16.4	-16.4	-16.4	---	---	11.3	NNW	0.19	12.2	-26.1	---	---	730.0	0.024	0.000	20.2	2	1
03/04/06	8:54 a	-16.3	-16.3	-16.4	---	---	10.4	NNW	0.17	12.2	-25.6	---	---	729.9	0.024	0.000	20.2	2	1
03/04/06	8:55 a	-16.2	-16.2	-16.3	---	---	8.7	NNW	0.14	10.4	-24.7	---	---	729.9	0.024	0.000	20.2	2	1
03/04/06	8:56 a	-16.1	-16.1	-16.2	---	---	6.1	N	0.10	7.8	-23.0	---	---	730.0	0.024	0.000	20.2	2	1
03/04/06	8:57 a	-16.0	-15.9	-16.1	---	---	7.0	NNW	0.12	8.7	-23.4	---	---	730.0	0.024	0.000	20.2	2	1
03/04/06	8:58 a	-15.8	-15.8	-15.9	---	---	7.0	NNW	0.12	7.8	-23.2	---	---	730.0	0.024	0.000	20.2	2	1
03/04/06	8:59 a	-15.8	-15.8	-15.8	---	---	7.8	NNW	0.13	8.7	-23.6	---	---	730.0	0.024	0.000	20.2	2	1
03/04/06	9:00 a	-15.8	-15.8	-15.8	---	---	8.7	NNW	0.14	9.6	-24.1	---	---	729.9	0.024	0.000	20.2	2	1
03/04/06	9:01 a	-15.8	-15.8	-15.8	---	---	8.7	NNW	0.14	8.7	-24.1	---	---	729.9	0.024	0.000	20.2	2	1
03/04/06	9:02 a	-15.8	-15.8	-15.8	---	---	8.7	NNW	0.14	8.7	-24.1	---	---	730.0	0.024	0.000	20.2	2	1
03/04/06	9:03 a	-15.7	-15.7	-15.8	---	---	7.8	NNW	0.13	8.7	-23.6	---	---	729.9	0.024	0.000	20.2	2	1
03/04/06	9:04 a	-15.7	-15.7	-15.7	---	---	7.8	NNW	0.13	7.8	-23.5	---	---	730.0	0.024	0.000	20.1	2	1
03/04/06	9:05 a	-15.7	-15.6	-15.7	---	---	7.8	NNW	0.13	7.8	-23.5	---	---	729.9	0.024	0.000	20.1	2	1
03/04/06	9:06 a	-15.6	-15.6	-15.6	---	---	7.8	NNW	0.13	7.8	-23.4	---	---	729.9	0.024	0.000	20.1	2	1
03/04/06	9:07 a	-15.6	-15.6	-15.6	---	---	7.0	NNW	0.12	7.8	-22.9	---	---	729.9	0.024	0.000	20.1	2	1
03/04/06	9:08 a	-15.6	-15.6	-15.6	---	---	6.1	NNW	0.10	7.0	-22.3	---	---	729.9	0.024	0.000	20.1	2	1
03/04/06	9:09 a	-15.6	-15.6	-15.6	---	---	7.0	NNW	0.12	7.8	-22.9	---	---	729.9	0.024	0.000	20.1	2	1
03/04/06	9:10 a	-15.6	-15.6	-15.6	---	---	7.0	NNW	0.12	7.8	-22.9	---	---	729.8	0.024	0.000	20.1	2	1
03/04/06	9:11 a	-15.6	-15.6	-15.6	---	---	7.0	NNW	0.12	7.8	-22.9	---	---	729.9	0.024	0.000	20.1	2	1
03/04/06	9:12 a	-15.6	-15.6	-15.6	---	---	7.8	NNW	0.13	8.7	-23.4	---	---	729.8	0.024	0.000	20.1	2	1
03/04/06	9:13 a	-15.5	-15.5	-15.6	---	---	8.7	NNW	0.14	9.6	-23.8	---	---	729.9	0.023	0.000	20.1	2	1
03/04/06	9:14 a	-15.4	-15.4	-15.5	---	---	7.8	NNW	0.13	8.7	-23.2	---	---	729.9	0.023	0.000	20.1	2	1
03/04/06	9:15 a	-15.4	-15.4	-15.4	---	---	7.8	NNW	0.13	8.7	-23.2	---	---	730.0	0.023	0.000	20.1	2	1
03/04/06	9:16 a	-15.3	-15.3	-15.3	---	---	7.8	NNW	0.13	8.7	-23.0	---	---	729.9	0.023	0.000	20.1	2	1
03/04/06	9:17 a	-15.2	-15.2	-15.2	---	---	7.0	NW	0.12	7.8	-22.4	---	---	729.9	0.023	0.000	20.1	2	1
03/04/06	9:18 a	-15.2	-15.2	-15.2	---	---	6.1	NW	0.10	7.0	-21.8	---	---	729.9	0.023	0.000	20.1	2	1
03/04/06	9:19 a	-15.2	-15.2	-15.2	---	---	5.2	NW	0.09	6.1	-21.2	---	---	729.9	0.023	0.000	20.1	2	1
03/04/06	9:20 a	-15.2	-15.1	-15.2	---	---	6.1	NW	0.10	7.0	-21.8	---	---	729.9	0.023	0.000	20.0	2	1
03/04/06	9:21 a	-15.2	-15.2	-15.2	---	---	6.1	NW	0.10	7.0	-21.8	---	---	729.9	0.023	0.000	20.0	2	1
03/04/06	9:22 a	-15.2	-15.2	-15.2	---	---	6.1	NW	0.10	7.0	-21.8	---	---	729.9	0.023	0.000	20.0	2	1
03/04/06	9:23 a	-15.2	-15.2	-15.2	---	---	6.1	NW	0.10	7.0	-21.8	---	---	729.9	0.023	0.000	20.0	2	1
03/04/06	9:24 a	-15.2	-15.2	-15.2	---	---	6.1	NW	0.10	7.0	-21.8	---	---	729.9	0.023	0.000	20.0	2	1
03/04/06	9:25 a	-15.2	-15.2	-15.2	---	---	7.0	NW	0.12	7.8	-22.4	---	---	729.9	0.023	0.000	20.0	2	1
03/04/06	9:26 a	-15.3	-15.2	-15.3	---	---	7.8	NW	0.13	8.7	-23.0	---	---	729.9	0.023	0.000	20.0	2	1
03/04/06	9:27 a	-15.3	-15.3	-15.3	---	---	8.7	NNW	0.14	8.7	-23.5	---	---	730.0	0.023	0.000	20.0	2	1
03/04/06	9:28 a	-15.3	-15.3	-15.3	---	---	7.8	NNW	0.13	8.7	-23.1	---	---	729.9	0.023	0.000	20.0	2	1
03/04/06	9:29 a	-15.4	-15.3	-15.4	---	---	7.8	NW	0.13	7.8	-23.2	---	---	729.9	0.023	0.000	20.0	2	1
03/04/06	9:30 a	-15.4	-15.4	-15.4	---	---	7.0	NW	0.12	7.0	-22.7	---	---	729.9	0.023	0.000	20.1	2	1
03/04/06	9:31 a	-15.4	-15.4	-15.5	---	---	7.0	NW	0.12	7.8	-22.7	---	---	729.9	0.023	0.000	20.1	2	1
03/04/06	9:32 a	-15.6	-15.6	-15.6	---	---	7.0	NW	0.12	7.8	-22.9	---	---	730.0	0.024	0.000	20.1	2	1
03/04/06	9:33 a	-15.7	-15.6	-15.7	---	---	7.8	NW	0.13	8.7	-23.5	---	---	729.9	0.024	0.000	20.1	2	1
03/04/06	9:34 a	-15.8	-15.7	-15.8	---	---	7.8	NNW	0.13	8.7	-23.6	---	---	729.9	0.024	0.000	20.0	2	1
03/04/06	9:35 a	-15.9	-15.8	-16.0	---	---	8.7	NNW	0.14	8.7	-24.2	---	---	729.9	0.024	0.000	20.1	2	1
03/04/06	9:36 a	-16.1	-16.0	-16.1	---	---	8.7	NNW	0.14	9.6	-24.4	---	---	729.9	0.024	0.000	20.0	2	1
03/04/06	9:37 a	-16.2	-16.1	-16.2	---	---	7.8	NNW	0.13	8.7	-24.1	---	---	729.9	0.024	0.000	20.0	2	1
03/04/06	9:38 a	-16.3	-16.2	-16.3	---	---	7.8	NNW	0.13	8.7	-24.3	---	---	730.0	0.024	0.000	20.0	2	1
03/04/06	9:39 a	-16.3	-16.3	-16.3	---	---	8.7	NNW	0.14	8.7	-24.7	---	---	730.0	0.024	0.000	20.0	2	1
03/04/06	9:40 a	-16.3	-16.3	-16.3	---	---	7.8	NNW	0.13	8.7	-24.3	---	---	730.0	0.024	0.000	20.0	2	1
03/04/06	9:41 a	-16.3	-16.3	-16.3	---	---	7.8	NNW	0.13	8.7	-24.3	---	---	729.9	0.024	0.000	20.0	2	1
03/04/06	9:42 a	-16.2	-16.2	-16.2	---	---	8.7	NNW	0.14	9.6	-24.7	---	---	730.0	0.024	0.000	20.0	2	1
03/04/06	9:43 a	-16.1	-16.1	-16.2	---	---	8.7	NNW	0.14	9.6	-24.5	---	---	729.9	0.024	0.000	20.0	2	1
03/04/06	9:44 a	-16.0	-15.9	-16.1	---	---	8.7	NNW	0.14	9.6	-24.4	---	---	729.9	0.024	0.000	20.0	2	1
03/04/06	9:45 a	-15.9	-15.8	-15.9	---	---	8.7	NNW	0.14	9.6	-24.2	---	---	730.0	0.024	0.000	20.0	2	1
03/04/06	9:46 a	-15.8	-15.7	-15.8	---	---	9.6	NNW	0.16	11.3	-24.5	---	---	730.0	0.024	0.000	19.9	2	1
03/04/06	9:47 a	-15.7	-15.6	-15.7	---	---	9.6	NNW	0.16	10.4	-24.4	---	---	730.0	0.024	0.000	19.9	2	1
03/04/06	9:48 a	-15.5	-15.4	-15.6	---	---	8.7	NNW	0.14	9.6	-23.8	---	---	730.0	0.023	0.000	19.9	2	1
03/04/06	9:49 a	-15.3	-15.3	-15.4	---	---	8.7	NNW	0.14	12.2	-23.6	---	---	730.1	0.023	0.000	19.9	2	1
03/04/06	9:50 a	-15.2	-15.2	-15.3	---	---	8.7	NNW	0.14	11.3	-23.4	---	---	730.0	0.023	0.000	19.9	2	1
03/04/06	9:51 a	-15.1	-15.0	-15.2	---	---	9.6	NNW	0.16	10.4	-23.7	---	---	730.0	0.023	0.000	19.9	2	1
03/04/06	9:52 a	-14.9	-14.9	-15.0	---	---	8.7	NNW	0.14	10.4	-23.1	---	---	730.0	0.023	0.000	19.9	2	1
03/04/06	9:53 a	-14.8	-14.8	-14.9	---	---	9.6	NNW	0.16	11.3	-23.3	---	---	730.0	0.023	0.000	19.9	2	1
03/04/06	9:54 a	-14.7	-14.7	-14.8	---	---	8.7	NW	0.14	12.2	-22.8	---	---	730.0	0.023	0.000	19.9	2	1
03/04/06	9:55 a	-14.6	-14.6	-14.7	---	---	8.7	NNW	0.14	9.6	-22.7	---	---	730.0	0.023	0.000	19.9	2	1
03/04/06	9:56 a	-14.5	-14.5	-14.6	---	---	9.6	NW	0.16	11.3	-22.9	---	---	730.0	0.023	0.000	19.9	2	1
03/04/06	9:57 a	-14.4	-14.4	-14.5	---	---	8.7	NNW	0.14	10.4	-22.4	---	---	730.1	0.023	0.000	19.9	2	1
03/04/06	9:58 a	-14.4	-14.4	-14.4	---	---	7.8	NNW	0.13	9.6	-22.0	---	---	730.0	0.023	0.000	19.9	2	1
03/04/06	9:59 a	-14.4	-14.3	-14.4	---	---	8.7	NNW	0.14	10.4	-22.4	---	---	730.0	0.023	0.000	19.9	2	1
03/04/06	10:00 a	-14.3	-14.3	-14.3	---	---	8.7	NW	0.14	10.4	-22.3	---	---	730.0	0.023	0.000	19.9	2	1
03/04/06	10:01 a	-14.3	-14.3	-14.3	---	---	9.6	NW	0.16	10.4	-22.7	---	---	729.9	0.023	0.000	19.8	2	1
03/04/06	10:02 a	-14.3	-14.2	-14.3	---	---	7.8	NW	0.13	8.7	-21.8	---	---	730.0	0.023	0.000	19.8	2	1
03/04/06	10:03 a	-14.2	-14.2	-14.2	---	---	7.0	NW	0.12	8.7	-21.2	---	---	730.1	0.023	0.000	19.8	2	1
03/04/06	10:04 a	-14.2	-14.2	-14.2	---	---	7.8	NNW	0.13	9.6	-21.7	---	---	730.1	0.023	0.000	19.8	2	1
03/04/06	10:05 a	-14.2	-14.2	-14.2	---	---	8.7	NW	0.14	9.6	-22.2	---	---	730.0	0.023	0.000	19.8	2	1
03/04/06	10:06 a	-14.2	-14.2	-14.2	---	---	7.8	NW	0.13	9.6	-21.7	---	---	729.9	0.023	0.000	19.8	2	1
03/04/06	10:07 a	-14.2	-14.2	-14.3	---	---	9.6	NW	0.16	10.4	-22.6	---	---	729.9	0.023	0.000	19.8	2	1
03/04/06	10:08 a	-14.2	-14.2	-14.2	---	---	8.7	NW	0.14	10.4	-22.2	---	---	730.0	0.023	0.000	19.8	2	1
03/04/06	10:09 a	-14.2	-14.2	-14.2	---	---	7.8	NNW	0.13	9.6	-21.7	---	---	729.9	0.023	0.000	19.8	2	1
03/04/06	10:10 a	-14.2	-14.2	-14.2	---	---	9.6	NNW	0.16	11.3	-22.6	---	---	729.8	0.023	0.000	19.8	2	1
03/04/06	10:11 a	-14.2	-14.2	-14.2	---	---	9.6	NNW	0.16	11.3	-22.6	---	---	729.9	0.023	0.000	19.8	2	1
03/04/06	10:12 a	-14.2	-14.2	-14.2	---	---	9.6	NNW	0.16	11.3	-22.5	---	---	729.9	0.023	0.000	19.8	2	1
03/04/06	10:13 a	-14.2	-14.1	-14.2	---	---	7.8	NW	0.13	13.0	-21.7	---	---	729.8	0.023	0.000	19.8	2	1
03/04/06	10:14 a	-14.1	-14.1	-14.1	---	---	10.4	NW	0.17	12.2	-22.8	---	---	729.9	0.023	0.000	19.8	2	1
03/04/06	10:15 a	-14.1	-14.1	-14.1	---	---	9.6	NW	0.16	11.3	-22.4	---	---	729.9	0.022	0.000	19.8	2	1
03/04/06	10:16 a	-14.0	-14.0	-14.0	---	---	8.7	NNW	0.14	10.4	-21.9	---	---	729.8	0.022	0.000	19.8	2	1
03/04/06	10:17 a	-14.0	-13.9	-14.0	---	---	7.8	NNW	0.13	9.6	-21.4	---	---	729.8	0.022	0.000	19.8	2	1
03/04/06	10:18 a	-13.9	-13.9	-13.9	---	---	10.4	NW	0.17	11.3	-22.6	---	---	729.7	0.022	0.000	19.8	2	1
03/04/06	10:19 a	-13.9	-13.9	-13.9	---	---	11.3	NNW	0.19	13.9	-22.9	---	---	729.9	0.022	0.000	19.8	2	1
03/04/06	10:20 a	-13.9	-13.9	-14.0	---	---	10.4	NW	0.17	12.2	-22.6	---	---	729.8	0.022	0.000	19.8	2	1
03/04/06	10:21 a	-13.9	-13.9	-14.0	---	---	9.6	NW	0.16	12.2	-22.2	---	---	729.9	0.022	0.000	19.8	2	1
03/04/06	10:22 a	-13.9	-13.9	-14.0	---	---	9.6	NNW	0.16	11.3	-22.2	---	---	729.8	0.022	0.000	19.8	2	1
03/04/06	10:23 a	-14.0	-13.9	-14.0	---	---	8.7	NNW	0.14	11.3	-21.9	---	---	729.8	0.022	0.000	19.8	2	1
03/04/06	10:24 a	-13.9	-13.9	-13.9	---	---	8.7	NNW	0.14	10.4	-21.8	---	---	729.8	0.022	0.000	19.8	2	1
03/04/06	10:25 a	-13.9	-13.9	-13.9	---	---	8.7	NNW	0.14	9.6	-21.8	---	---	729.9	0.022	0.000	19.8	2	1
03/04/06	10:26 a	-13.9	-13.9	-13.9	---	---	9.6	NNW	0.16	10.4	-22.2	---	---	729.9	0.022	0.000	19.8	2	1
03/04/06	10:27 a	-13.9	-13.9	-13.9	---	---	8.7	NW	0.14	10.4	-21.8	---	---	729.9	0.022	0.000	19.8	2	1
03/04/06	10:28 a	-13.9	-13.9	-13.9	---	---	7.8	NNW	0.13	8.7	-21.4	---	---	729.9	0.022	0.000	19.8	2	1
03/04/06	10:29 a	-14.0	-13.9	-14.0	---	---	9.6	NNW	0.16	12.2	-22.3	---	---	729.9	0.022	0.000	19.8	2	1
03/04/06	10:30 a	-14.0	-13.9	-14.0	---	---	8.7	NNW	0.14	10.4	-21.9	---	---	729.9	0.022	0.000	19.8	2	1
03/04/06	10:31 a	-14.0	-13.9	-14.0	---	---	9.6	NNW	0.16	11.3	-22.3	---	---	729.8	0.022	0.000	19.8	2	1
03/04/06	10:32 a	-13.9	-13.9	-13.9	---	---	9.6	NNW	0.16	10.4	-22.2	---	---	729.7	0.022	0.000	19.8	2	1
03/04/06	10:33 a	-13.9	-13.9	-13.9	---	---	9.6	NNW	0.16	11.3	-22.2	---	---	729.9	0.022	0.000	19.8	2	1
03/04/06	10:34 a	-13.9	-13.9	-13.9	---	---	8.7	NNW	0.14	10.4	-21.8	---	---	729.8	0.022	0.000	19.8	3	1
03/04/06	10:35 a	-13.9	-13.9	-13.9	---	---	8.7	NNW	0.14	9.6	-21.8	---	---	729.8	0.022	0.000	19.8	2	1
03/04/06	10:36 a	-13.9	-13.9	-13.9	---	---	8.7	NNW	0.14	9.6	-21.8	---	---	729.9	0.022	0.000	19.8	2	1
03/04/06	10:37 a	-13.8	-13.8	-13.9	---	---	7.8	NW	0.13	9.6	-21.2	---	---	729.9	0.022	0.000	19.8	2	1
03/04/06	10:38 a	-13.9	-13.9	-13.9	---	---	8.7	NNW	0.14	11.3	-21.8	---	---	729.8	0.022	0.000	19.8	2	1
03/04/06	10:39 a	-13.9	-13.8	-13.9	---	---	8.7	NNW	0.14	10.4	-21.8	---	---	729.8	0.022	0.000	19.8	2	1
03/04/06	10:40 a	-13.8	-13.8	-13.9	---	---	8.7	NNW	0.14	10.4	-21.7	---	---	729.9	0.022	0.000	19.8	2	1
03/04/06	10:41 a	-13.8	-13.8	-13.8	---	---	9.6	NNW	0.16	13.0	-22.1	---	---	729.8	0.022	0.000	19.8	2	1
03/04/06	10:42 a	-13.8	-13.8	-13.8	---	---	9.6	NNW	0.16	12.2	-22.0	---	---	729.8	0.022	0.000	19.8	3	1
03/04/06	10:43 a	-13.8	-13.8	-13.8	---	---	11.3	NNW	0.19	13.0	-22.7	---	---	729.9	0.022	0.000	19.7	2	1
03/04/06	10:44 a	-13.7	-13.7	-13.7	---	---	10.4	NNW	0.17	12.2	-22.3	---	---	729.9	0.022	0.000	19.8	2	1
03/04/06	10:45 a	-13.7	-13.7	-13.7	---	---	10.4	NNW	0.17	12.2	-22.3	---	---	729.8	0.022	0.000	19.7	2	1
03/04/06	10:46 a	-13.6	-13.6	-13.7	---	---	11.3	NNW	0.19	13.0	-22.6	---	---	729.8	0.022	0.000	19.7	2	1
03/04/06	10:47 a	-13.6	-13.6	-13.6	---	---	10.4	NW	0.17	13.0	-22.2	---	---	729.8	0.022	0.000	19.7	2	1
03/04/06	10:48 a	-13.6	-13.6	-13.6	---	---	10.4	NNW	0.17	12.2	-22.2	---	---	729.8	0.022	0.000	19.7	2	1
03/04/06	10:49 a	-13.6	-13.6	-13.6	---	---	8.7	NNW	0.14	9.6	-21.3	---	---	729.9	0.022	0.000	19.7	2	1
03/04/06	10:50 a	-13.6	-13.6	-13.6	---	---	8.7	NNW	0.14	11.3	-21.4	---	---	729.9	0.022	0.000	19.7	2	1
03/04/06	10:51 a	-13.6	-13.6	-13.6	---	---	8.7	NNW	0.14	10.4	-21.4	---	---	729.8	0.022	0.000	19.7	3	1
03/04/06	10:52 a	-13.7	-13.7	-13.7	---	---	8.7	NNW	0.14	11.3	-21.5	---	---	729.9	0.022	0.000	19.7	2	1
03/04/06	10:53 a	-13.7	-13.7	-13.7	---	---	9.6	NNW	0.16	12.2	-21.9	---	---	729.8	0.022	0.000	19.7	2	1
03/04/06	10:54 a	-13.8	-13.8	-13.8	---	---	9.6	NNW	0.16	12.2	-22.0	---	---	729.9	0.022	0.000	19.7	2	1
03/04/06	10:55 a	-13.8	-13.8	-13.8	---	---	11.3	NW	0.19	13.0	-22.8	---	---	729.9	0.022	0.000	19.7	2	1
03/04/06	10:56 a	-13.8	-13.8	-13.8	---	---	8.7	NNW	0.14	12.2	-21.7	---	---	729.8	0.022	0.000	19.7	2	1
03/04/06	10:57 a	-13.8	-13.8	-13.8	---	---	10.4	NNW	0.17	11.3	-22.4	---	---	729.9	0.022	0.000	19.7	2	1
03/04/06	10:58 a	-13.8	-13.8	-13.8	---	---	7.8	NNW	0.13	9.6	-21.2	---	---	729.8	0.022	0.000	19.7	2	1
03/04/06	10:59 a	-13.8	-13.8	-13.8	---	---	8.7	NNW	0.14	9.6	-21.6	---	---	729.8	0.022	0.000	19.7	2	1
03/04/06	11:00 a	-13.8	-13.8	-13.8	---	---	8.7	NNW	0.14	9.6	-21.6	---	---	729.9	0.022	0.000	19.7	3	1
03/04/06	11:01 a	-13.8	-13.8	-13.8	---	---	8.7	NNW	0.14	10.4	-21.6	---	---	729.8	0.022	0.000	19.7	3	1
03/04/06	11:02 a	-13.8	-13.8	-13.8	---	---	8.7	NW	0.14	10.4	-21.6	---	---	729.8	0.022	0.000	19.7	2	1
03/04/06	11:03 a	-13.8	-13.8	-13.8	---	---	7.0	NW	0.12	7.8	-20.7	---	---	729.8	0.022	0.000	19.7	2	1
03/04/06	11:04 a	-13.8	-13.8	-13.8	---	---	8.7	NNW	0.14	9.6	-21.6	---	---	729.9	0.022	0.000	19.7	2	1
03/04/06	11:05 a	-13.8	-13.8	-13.8	---	---	8.7	NNW	0.14	9.6	-21.7	---	---	729.9	0.022	0.000	19.7	2	1
03/04/06	11:06 a	-13.8	-13.8	-13.9	---	---	8.7	NW	0.14	11.3	-21.7	---	---	729.8	0.022	0.000	19.7	3	1
03/04/06	11:07 a	-13.9	-13.8	-13.9	---	---	7.8	NNW	0.13	9.6	-21.3	---	---	729.8	0.022	0.000	19.7	2	1
03/04/06	11:08 a	-13.9	-13.9	-13.9	---	---	9.6	NNW	0.16	11.3	-22.2	---	---	729.8	0.022	0.000	19.7	2	1
03/04/06	11:09 a	-13.9	-13.9	-13.9	---	---	8.7	NNW	0.14	11.3	-21.8	---	---	729.8	0.022	0.000	19.7	3	1
03/04/06	11:10 a	-13.9	-13.9	-13.9	---	---	9.6	NNW	0.16	12.2	-22.2	---	---	729.8	0.022	0.000	19.7	3	1
03/04/06	11:11 a	-13.9	-13.9	-13.9	---	---	10.4	NW	0.17	11.3	-22.6	---	---	729.8	0.022	0.000	19.7	2	1
03/04/06	11:12 a	-13.9	-13.9	-13.9	---	---	11.3	NW	0.19	12.2	-22.9	---	---	729.8	0.022	0.000	19.7	2	1
03/04/06	11:13 a	-13.9	-13.9	-13.9	---	---	10.4	NW	0.17	13.0	-22.6	---	---	729.9	0.022	0.000	19.7	2	1
03/04/06	11:14 a	-13.9	-13.9	-13.9	---	---	9.6	NW	0.16	12.2	-22.2	---	---	729.8	0.022	0.000	19.7	3	1
03/04/06	11:15 a	-13.9	-13.9	-13.9	---	---	10.4	NW	0.17	12.2	-22.6	---	---	729.8	0.022	0.000	19.7	3	1
03/04/06	11:16 a	-13.9	-13.9	-13.9	---	---	11.3	NNW	0.19	13.9	-22.9	---	---	729.8	0.022	0.000	19.7	2	1
03/04/06	11:17 a	-13.9	-13.9	-13.9	---	---	10.4	NW	0.17	13.0	-22.6	---	---	729.9	0.022	0.000	19.7	3	1
03/04/06	11:18 a	-13.9	-13.9	-13.9	---	---	10.4	NNW	0.17	12.2	-22.6	---	---	729.8	0.022	0.000	19.7	2	1
03/04/06	11:19 a	-13.9	-13.9	-13.9	---	---	10.4	NW	0.17	12.2	-22.6	---	---	729.9	0.022	0.000	19.7	2	1
03/04/06	11:20 a	-13.9	-13.9	-13.9	---	---	11.3	NW	0.19	12.2	-22.9	---	---	729.9	0.022	0.000	19.7	3	1
03/04/06	11:21 a	-13.9	-13.9	-13.9	---	---	10.4	NW	0.17	12.2	-22.6	---	---	729.9	0.022	0.000	19.7	2	1
03/04/06	11:22 a	-13.9	-13.9	-13.9	---	---	10.4	NW	0.17	12.2	-22.6	---	---	729.9	0.022	0.000	19.7	3	1
03/04/06	11:23 a	-14.0	-13.9	-14.0	---	---	11.3	NW	0.19	13.0	-23.0	---	---	730.0	0.022	0.000	19.7	2	1
03/04/06	11:24 a	-14.1	-14.0	-14.1	---	---	9.6	NW	0.16	11.3	-22.4	---	---	729.9	0.022	0.000	19.7	3	1
03/04/06	11:25 a	-14.1	-14.1	-14.1	---	---	8.7	NW	0.14	10.4	-21.9	---	---	730.0	0.022	0.000	19.7	2	1
03/04/06	11:26 a	-14.1	-14.1	-14.1	---	---	9.6	NW	0.16	10.4	-22.4	---	---	730.0	0.023	0.000	19.7	2	1
03/04/06	11:27 a	-14.2	-14.1	-14.2	---	---	8.7	NW	0.14	10.4	-22.1	---	---	729.9	0.023	0.000	19.7	2	1
03/04/06	11:28 a	-14.2	-14.2	-14.2	---	---	9.6	NW	0.16	11.3	-22.6	---	---	729.9	0.023	0.000	19.7	2	1
03/04/06	11:29 a	-14.3	-14.2	-14.3	---	---	8.7	NW	0.14	9.6	-22.2	---	---	729.9	0.023	0.000	19.7	3	1
03/04/06	11:30 a	-14.3	-14.3	-14.4	---	---	8.7	NW	0.14	9.6	-22.3	---	---	730.0	0.023	0.000	19.6	2	1
03/04/06	11:31 a	-14.4	-14.4	-14.4	---	---	8.7	NW	0.14	10.4	-22.4	---	---	730.0	0.023	0.000	19.6	3	1
03/04/06	11:32 a	-14.5	-14.4	-14.5	---	---	8.7	NW	0.14	9.6	-22.5	---	---	729.9	0.023	0.000	19.6	3	1
03/04/06	11:33 a	-14.5	-14.5	-14.6	---	---	9.6	NW	0.16	11.3	-22.9	---	---	730.0	0.023	0.000	19.6	3	1
03/04/06	11:34 a	-14.6	-14.6	-14.6	---	---	8.7	NW	0.14	9.6	-22.6	---	---	730.0	0.023	0.000	19.6	2	1
03/04/06	11:35 a	-14.6	-14.6	-14.6	---	---	7.8	NW	0.13	9.6	-22.1	---	---	730.0	0.023	0.000	19.6	3	1
03/04/06	11:36 a	-14.6	-14.6	-14.6	---	---	9.6	NW	0.16	10.4	-23.1	---	---	730.0	0.023	0.000	19.6	3	1
03/04/06	11:37 a	-14.6	-14.6	-14.6	---	---	7.8	NW	0.13	9.6	-22.2	---	---	729.9	0.023	0.000	19.6	2	1
03/04/06	11:38 a	-14.6	-14.6	-14.6	---	---	8.7	NW	0.14	12.2	-22.7	---	---	730.0	0.023	0.000	19.6	2	1
03/04/06	11:39 a	-14.6	-14.6	-14.6	---	---	10.4	NW	0.17	12.2	-23.4	---	---	730.0	0.023	0.000	19.6	3	1
03/04/06	11:40 a	-14.6	-14.6	-14.6	---	---	9.6	NW	0.16	10.4	-23.1	---	---	729.9	0.023	0.000	19.6	3	1
03/04/06	11:41 a	-14.6	-14.6	-14.6	---	---	10.4	NW	0.17	10.4	-23.4	---	---	730.0	0.023	0.000	19.6	3	1
03/04/06	11:42 a	-14.6	-14.6	-14.6	---	---	7.8	NW	0.13	10.4	-22.1	---	---	730.0	0.023	0.000	19.6	3	1
03/04/06	11:43 a	-14.5	-14.5	-14.6	---	---	9.6	NW	0.16	11.3	-22.9	---	---	729.9	0.023	0.000	19.6	3	1
03/04/06	11:44 a	-14.4	-14.4	-14.5	---	---	8.7	NW	0.14	9.6	-22.4	---	---	729.9	0.023	0.000	19.6	3	1
03/04/06	11:45 a	-14.4	-14.4	-14.4	---	---	8.7	NW	0.14	9.6	-22.4	---	---	730.0	0.023	0.000	19.6	2	1
03/04/06	11:46 a	-14.4	-14.4	-14.4	---	---	7.8	NW	0.13	9.6	-21.9	---	---	730.0	0.023	0.000	19.6	3	1
03/04/06	11:47 a	-14.3	-14.3	-14.3	---	---	7.8	NW	0.13	8.7	-21.9	---	---	730.0	0.023	0.000	19.6	3	1
03/04/06	11:48 a	-14.3	-14.3	-14.3	---	---	8.7	NW	0.14	10.4	-22.3	---	---	730.0	0.023	0.000	19.6	2	1
03/04/06	11:49 a	-14.3	-14.3	-14.3	---	---	8.7	NW	0.14	10.4	-22.3	---	---	729.9	0.023	0.000	19.6	2	1
03/04/06	11:50 a	-14.3	-14.3	-14.3	---	---	10.4	NW	0.17	13.0	-23.1	---	---	729.9	0.023	0.000	19.6	2	1
03/04/06	11:51 a	-14.3	-14.3	-14.3	---	---	9.6	NW	0.16	10.4	-22.7	---	---	729.9	0.023	0.000	19.6	2	1
03/04/06	11:52 a	-14.4	-14.4	-14.4	---	---	9.6	NW	0.16	10.4	-22.8	---	---	730.0	0.023	0.000	19.6	3	1
03/04/06	11:53 a	-14.4	-14.4	-14.4	---	---	8.7	NW	0.14	10.4	-22.4	---	---	729.9	0.023	0.000	19.6	2	1
03/04/06	11:54 a	-14.4	-14.4	-14.4	---	---	9.6	NW	0.16	10.4	-22.8	---	---	729.9	0.023	0.000	19.6	3	1
03/04/06	11:55 a	-14.4	-14.4	-14.4	---	---	8.7	NW	0.14	9.6	-22.4	---	---	729.9	0.023	0.000	19.6	3	1
03/04/06	11:56 a	-14.4	-14.4	-14.4	---	---	7.8	NW	0.13	8.7	-22.0	---	---	730.0	0.023	0.000	19.6	2	1
03/04/06	11:57 a	-14.4	-14.4	-14.5	---	---	7.8	NW	0.13	9.6	-22.0	---	---	729.9	0.023	0.000	19.6	3	1
03/04/06	11:58 a	-14.6	-14.6	-14.6	---	---	7.8	NW	0.13	9.6	-22.1	---	---	729.8	0.023	0.000	19.6	3	1
03/04/06	11:59 a	-14.6	-14.6	-14.6	---	---	7.0	NW	0.12	7.8	-21.7	---	---	729.9	0.023	0.000	19.6	3	1
03/04/06	12:00 p	-14.7	-14.6	-14.7	---	---	7.8	NW	0.13	8.7	-22.3	---	---	729.9	0.023	0.000	19.6	3	1
03/04/06	12:01 p	-14.7	-14.7	-14.7	---	---	7.8	NW	0.13	8.7	-22.3	---	---	729.9	0.023	0.000	19.6	3	1
03/04/06	12:02 p	-14.8	-14.8	-14.8	---	---	7.0	NW	0.12	7.8	-21.9	---	---	730.0	0.023	0.000	19.6	3	1
03/04/06	12:03 p	-14.8	-14.8	-14.8	---	---	7.8	NW	0.13	7.8	-22.5	---	---	729.9	0.023	0.000	19.6	3	1
03/04/06	12:04 p	-14.9	-14.8	-14.9	---	---	7.0	NW	0.12	7.8	-22.1	---	---	729.9	0.023	0.000	19.6	2	1
03/04/06	12:05 p	-14.9	-14.9	-14.9	---	---	7.0	NW	0.12	7.8	-22.1	---	---	730.0	0.023	0.000	19.6	3	1
03/04/06	12:06 p	-14.9	-14.9	-15.0	---	---	7.8	NW	0.13	8.7	-22.6	---	---	729.9	0.023	0.000	19.6	2	1
03/04/06	12:07 p	-15.0	-15.0	-15.0	---	---	7.0	NW	0.12	7.8	-22.2	---	---	729.8	0.023	0.000	19.6	3	1
03/04/06	12:08 p	-15.1	-15.0	-15.1	---	---	7.8	NW	0.13	8.7	-22.7	---	---	729.9	0.023	0.000	19.6	3	1
03/04/06	12:09 p	-15.1	-15.1	-15.1	---	---	8.7	NW	0.14	10.4	-23.3	---	---	729.9	0.023	0.000	19.6	3	1
03/04/06	12:10 p	-15.2	-15.1	-15.2	---	---	8.7	NW	0.14	9.6	-23.3	---	---	729.9	0.023	0.000	19.6	3	1
03/04/06	12:11 p	-15.2	-15.2	-15.2	---	---	8.7	NW	0.14	9.6	-23.3	---	---	729.9	0.023	0.000	19.6	3	1
03/04/06	12:12 p	-15.2	-15.2	-15.2	---	---	7.0	NW	0.12	7.8	-22.4	---	---	729.9	0.023	0.000	19.6	3	1
03/04/06	12:13 p	-15.2	-15.2	-15.2	---	---	7.0	NW	0.12	7.8	-22.4	---	---	729.9	0.023	0.000	19.6	3	1
03/04/06	12:14 p	-15.2	-15.2	-15.2	---	---	6.1	NW	0.10	7.0	-21.9	---	---	729.8	0.023	0.000	19.6	3	1
03/04/06	12:15 p	-15.2	-15.2	-15.2	---	---	6.1	NW	0.10	7.0	-21.9	---	---	729.9	0.023	0.000	19.6	3	1
03/04/06	12:16 p	-15.2	-15.2	-15.2	---	---	6.1	NW	0.10	6.1	-21.9	---	---	730.0	0.023	0.000	19.6	3	1
03/04/06	12:17 p	-15.3	-15.2	-15.3	---	---	6.1	NW	0.10	6.1	-21.9	---	---	729.9	0.023	0.000	19.6	3	1
03/04/06	12:18 p	-15.3	-15.3	-15.3	---	---	6.1	NW	0.10	7.0	-21.9	---	---	729.9	0.023	0.000	19.6	2	1
03/04/06	12:19 p	-15.3	-15.3	-15.3	---	---	6.1	NW	0.10	7.0	-21.9	---	---	729.9	0.023	0.000	19.6	3	1
03/04/06	12:20 p	-15.3	-15.3	-15.3	---	---	6.1	NW	0.10	7.8	-21.9	---	---	729.9	0.023	0.000	19.6	3	1
03/04/06	12:21 p	-15.3	-15.3	-15.3	---	---	6.1	NW	0.10	7.0	-22.1	---	---	729.7	0.023	0.000	19.6	3	1
03/04/06	12:22 p	-15.3	-15.3	-15.3	---	---	5.2	NW	0.09	5.2	-21.4	---	---	729.9	0.023	0.000	19.6	3	1
03/04/06	12:23 p	-15.3	-15.3	-15.4	---	---	5.2	NW	0.09	6.1	-21.4	---	---	729.8	0.023	0.000	19.6	3	1
03/04/06	12:24 p	-15.4	-15.3	-15.4	---	---	4.3	NW	0.07	5.2	-20.8	---	---	729.9	0.023	0.000	19.6	3	1
03/04/06	12:25 p	-15.4	-15.4	-15.4	---	---	6.1	NW	0.10	7.0	-22.1	---	---	729.9	0.023	0.000	19.6	3	1
03/04/06	12:26 p	-15.4	-15.4	-15.4	---	---	6.1	NW	0.10	7.0	-22.1	---	---	729.9	0.023	0.000	19.6	2	1
03/04/06	12:27 p	-15.4	-15.4	-15.4	---	---	7.0	NW	0.12	7.8	-22.7	---	---	729.9	0.023	0.000	19.6	3	1
03/04/06	12:28 p	-15.4	-15.4	-15.4	---	---	7.0	NW	0.12	7.8	-22.7	---	---	729.8	0.023	0.000	19.6	3	1
03/04/06	12:29 p	-15.4	-15.4	-15.4	---	---	7.0	NW	0.12	7.8	-22.7	---	---	729.8	0.023	0.000	19.6	3	1
03/04/06	12:30 p	-15.4	-15.4	-15.4	---	---	7.8	NW	0.13	7.8	-23.2	---	---	729.8	0.023	0.000	19.6	3	1
03/04/06	12:31 p	-15.3	-15.3	-15.4	---	---	7.8	NW	0.13	8.7	-23.1	---	---	729.8	0.023	0.000	19.6	3	1
03/04/06	12:32 p	-15.3	-15.3	-15.3	---	---	7.8	NW	0.13	8.7	-23.1	---	---	729.8	0.023	0.000	19.6	2	1
03/04/06	12:33 p	-15.3	-15.3	-15.3	---	---	7.8	NW	0.13	8.7	-23.0	---	---	729.8	0.023	0.000	19.6	2	1
03/04/06	12:34 p	-15.2	-15.2	-15.3	---	---	7.8	NW	0.13	9.6	-22.9	---	---	729.7	0.023	0.000	19.6	3	1
03/04/06	12:35 p	-15.2	-15.2	-15.2	---	---	8.7	NW	0.14	9.6	-23.4	---	---	729.8	0.023	0.000	19.6	3	1
03/04/06	12:36 p	-15.1	-15.1	-15.2	---	---	8.7	NW	0.14	10.4	-23.3	---	---	729.8	0.023	0.000	19.6	3	1
03/04/06	12:37 p	-15.1	-15.1	-15.1	---	---	8.7	NW	0.14	10.4	-23.2	---	---	729.8	0.023	0.000	19.6	3	1
03/04/06	12:38 p	-15.1	-15.1	-15.1	---	---	7.8	NW	0.13	9.6	-22.7	---	---	729.8	0.023	0.000	19.6	3	1
03/04/06	12:39 p	-15.0	-15.0	-15.1	---	---	7.0	NW	0.12	7.8	-22.2	---	---	729.8	0.023	0.000	19.6	3	1
03/04/06	12:40 p	-15.0	-14.9	-15.0	---	---	7.8	NW	0.13	8.7	-22.7	---	---	729.9	0.023	0.000	19.6	3	1
03/04/06	12:41 p	-14.9	-14.9	-15.0	---	---	7.8	NW	0.13	8.7	-22.6	---	---	729.8	0.023	0.000	19.6	3	1
03/04/06	12:42 p	-14.9	-14.9	-14.9	---	---	7.8	NW	0.13	8.7	-22.6	---	---	729.8	0.023	0.000	19.6	3	1
03/04/06	12:43 p	-14.9	-14.9	-14.9	---	---	6.1	NW	0.10	7.0	-21.6	---	---	729.9	0.023	0.000	19.6	3	1
03/04/06	12:44 p	-14.9	-14.9	-14.9	---	---	6.1	NW	0.10	7.0	-21.5	---	---	729.9	0.023	0.000	19.6	3	1
03/04/06	12:45 p	-14.9	-14.9	-14.9	---	---	6.1	NW	0.10	7.0	-21.5	---	---	729.9	0.023	0.000	19.6	3	1
03/04/06	12:46 p	-14.9	-14.9	-14.9	---	---	5.2	NW	0.09	6.1	-20.9	---	---	729.8	0.023	0.000	19.6	3	1
03/04/06	12:47 p	-14.9	-14.9	-14.9	---	---	6.1	NW	0.10	7.0	-21.5	---	---	729.7	0.023	0.000	19.6	3	1
03/04/06	12:48 p	-14.9	-14.9	-14.9	---	---	6.1	NW	0.10	7.0	-21.5	---	---	729.9	0.023	0.000	19.6	3	1
03/04/06	12:49 p	-14.9	-14.9	-14.9	---	---	5.2	NW	0.09	6.1	-20.9	---	---	729.9	0.023	0.000	19.6	3	1
03/04/06	12:50 p	-14.9	-14.9	-14.9	---	---	5.2	NW	0.09	6.1	-20.9	---	---	729.9	0.023	0.000	19.6	3	1
03/04/06	12:51 p	-14.9	-14.9	-14.9	---	---	4.3	NW	0.07	5.2	-20.2	---	---	729.8	0.023	0.000	19.6	3	1
03/04/06	12:52 p	-14.9	-14.9	-14.9	---	---	5.2	NW	0.09	5.2	-20.9	---	---	729.9	0.023	0.000	19.6	3	1
03/04/06	12:53 p	-14.9	-14.9	-14.9	---	---	5.2	NW	0.09	6.1	-20.9	---	---	729.9	0.023	0.000	19.7	3	1
03/04/06	12:54 p	-14.9	-14.9	-15.0	---	---	4.3	NW	0.07	5.2	-20.2	---	---	729.8	0.023	0.000	19.7	3	1
03/04/06	12:55 p	-15.0	-15.0	-15.0	---	---	4.3	NW	0.07	5.2	-20.3	---	---	729.9	0.023	0.000	19.7	3	1
03/04/06	12:56 p	-15.0	-15.0	-15.0	---	---	4.3	NW	0.07	4.3	-20.3	---	---	729.9	0.023	0.000	19.7	3	1
03/04/06	12:57 p	-15.0	-15.0	-15.0	---	---	4.3	NW	0.07	5.2	-20.3	---	---	729.9	0.023	0.000	19.7	3	1
03/04/06	12:58 p	-15.0	-15.0	-15.0	---	---	5.2	NW	0.09	5.2	-21.0	---	---	729.9	0.023	0.000	19.7	3	1
03/04/06	12:59 p	-15.1	-15.0	-15.1	---	---	4.3	NW	0.07	5.2	-20.4	---	---	730.0	0.023	0.000	19.7	3	1
03/04/06	1:00 p	-15.1	-15.1	-15.1	---	---	4.3	NW	0.07	5.2	-20.4	---	---	730.0	0.023	0.000	19.7	3	1
03/04/06	1:01 p	-15.1	-15.1	-15.1	---	---	3.5	NW	0.06	4.3	-19.5	---	---	730.0	0.023	0.000	19.7	3	1
03/04/06	1:02 p	-15.1	-15.1	-15.1	---	---	3.5	NW	0.06	4.3	-19.6	---	---	729.9	0.023	0.000	19.7	3	1
03/04/06	1:03 p	-15.1	-15.1	-15.1	---	---	2.6	NW	0.04	3.5	-18.6	---	---	730.0	0.023	0.000	19.7	3	1
03/04/06	1:04 p	-15.2	-15.2	-15.2	---	---	3.5	NW	0.06	3.5	-19.7	---	---	729.9	0.023	0.000	19.7	3	1
03/04/06	1:05 p	-15.2	-15.2	-15.2	---	---	2.6	NW	0.04	3.5	-18.7	---	---	730.0	0.023	0.000	19.7	3	1
03/04/06	1:06 p	-15.2	-15.2	-15.2	---	---	3.5	NW	0.06	4.3	-19.7	---	---	729.9	0.023	0.000	19.7	3	1
03/04/06	1:07 p	-15.2	-15.2	-15.2	---	---	3.5	NW	0.06	4.3	-19.7	---	---	730.0	0.023	0.000	19.7	3	1
03/04/06	1:08 p	-15.2	-15.2	-15.2	---	---	3.5	NW	0.06	3.5	-19.7	---	---	729.9	0.023	0.000	19.7	3	1
03/04/06	1:09 p	-15.2	-15.2	-15.2	---	---	2.6	NW	0.04	3.5	-18.6	---	---	730.0	0.023	0.000	19.7	3	1
03/04/06	1:10 p	-15.2	-15.2	-15.2	---	---	2.6	NW	0.04	3.5	-18.6	---	---	729.9	0.023	0.000	19.7	3	1
03/04/06	1:11 p	-15.2	-15.1	-15.2	---	---	2.6	NW	0.04	2.6	-18.6	---	---	729.9	0.023	0.000	19.7	3	1
03/04/06	1:12 p	-15.1	-15.1	-15.1	---	---	1.7	NW	0.03	2.6	-17.2	---	---	729.9	0.023	0.000	19.7	3	1
03/04/06	1:13 p	-15.1	-15.1	-15.1	---	---	0.9	NW	0.01	1.7	-15.1	---	---	729.9	0.023	0.000	19.7	3	1
03/04/06	1:14 p	-15.1	-15.1	-15.1	---	---	0.0	NW	0.00	0.9	-15.1	---	---	729.9	0.023	0.000	19.8	3	1
03/04/06	1:15 p	-15.1	-15.1	-15.1	---	---	0.0	NW	0.00	0.9	-15.1	---	---	729.9	0.023	0.000	19.8	3	1
03/04/06	1:16 p	-15.1	-15.1	-15.1	---	---	1.7	NW	0.03	1.7	-17.1	---	---	729.9	0.023	0.000	19.8	3	1
03/04/06	1:17 p	-15.1	-15.1	-15.1	---	---	0.9	NW	0.01	1.7	-15.1	---	---	730.0	0.023	0.000	19.8	3	1
03/04/06	1:18 p	-15.1	-15.0	-15.1	---	---	0.0	---	0.00	0.0	-15.1	---	---	730.0	0.023	0.000	19.8	3	1
03/04/06	1:19 p	-15.0	-15.0	-15.0	---	---	0.9	NW	0.01	1.7	-15.0	---	---	729.9	0.023	0.000	19.8	3	1
03/04/06	1:20 p	-15.0	-15.0	-15.0	---	---	0.9	NW	0.01	1.7	-15.0	---	---	729.9	0.023	0.000	19.8	3	1
03/04/06	1:21 p	-15.0	-15.0	-15.0	---	---	1.7	NW	0.03	2.6	-17.1	---	---	729.9	0.023	0.000	19.8	3	1
03/04/06	1:22 p	-15.0	-15.0	-15.0	---	---	1.7	NW	0.03	3.5	-17.1	---	---	730.0	0.023	0.000	19.8	3	1
03/04/06	1:23 p	-14.9	-14.9	-15.0	---	---	5.2	WNW	0.09	5.2	-20.9	---	---	730.0	0.023	0.000	19.8	3	1
03/04/06	1:24 p	-14.9	-14.9	-14.9	---	---	3.5	WNW	0.06	4.3	-19.3	---	---	729.9	0.023	0.000	19.8	3	1
03/04/06	1:25 p	-14.8	-14.8	-14.9	---	---	1.7	WNW	0.03	2.6	-16.9	---	---	729.9	0.023	0.000	19.8	3	1
03/04/06	1:26 p	-14.8	-14.8	-14.8	---	---	0.9	WNW	0.01	1.7	-14.8	---	---	730.0	0.023	0.000	19.8	3	1
03/04/06	1:27 p	-14.7	-14.7	-14.8	---	---	0.9	WNW	0.01	1.7	-14.7	---	---	729.9	0.023	0.000	19.9	3	1
03/04/06	1:28 p	-14.7	-14.7	-14.7	---	---	1.7	WNW	0.03	1.7	-16.8	---	---	729.9	0.023	0.000	19.9	3	1
03/04/06	1:29 p	-14.7	-14.7	-14.7	---	---	1.7	WNW	0.03	1.7	-16.8	---	---	730.0	0.023	0.000	19.9	3	1
03/04/06	1:30 p	-14.8	-14.8	-14.8	---	---	1.7	WNW	0.03	2.6	-16.8	---	---	729.9	0.023	0.000	19.9	3	1
03/04/06	1:31 p	-14.8	-14.8	-14.8	---	---	0.9	WNW	0.01	2.6	-14.8	---	---	730.0	0.023	0.000	19.9	3	1
03/04/06	1:32 p	-14.8	-14.8	-14.8	---	---	0.9	WNW	0.01	1.7	-14.8	---	---	730.0	0.023	0.000	19.9	3	1
03/04/06	1:33 p	-14.8	-14.8	-14.8	---	---	0.0	WNW	0.00	0.9	-14.8	---	---	730.0	0.023	0.000	19.9	3	1
03/04/06	1:34 p	-14.8	-14.8	-14.8	---	---	0.9	WNW	0.01	1.7	-14.8	---	---	730.0	0.023	0.000	19.9	3	1
03/04/06	1:35 p	-14.8	-14.8	-14.9	---	---	0.9	WNW	0.01	1.7	-14.8	---	---	729.9	0.023	0.000	19.9	3	1
03/04/06	1:36 p	-14.9	-14.9	-14.9	---	---	0.9	WNW	0.01	1.7	-14.9	---	---	729.9	0.023	0.000	19.9	3	1
03/04/06	1:37 p	-15.0	-14.9	-15.0	---	---	0.9	WNW	0.01	1.7	-15.0	---	---	729.9	0.023	0.000	19.9	3	1
03/04/06	1:38 p	-15.1	-15.0	-15.1	---	---	0.9	WNW	0.01	1.7	-15.1	---	---	729.8	0.023	0.000	19.9	3	1
03/04/06	1:39 p	-15.1	-15.1	-15.2	---	---	0.9	WNW	0.01	1.7	-15.1	---	---	729.9	0.023	0.000	19.9	3	1
03/04/06	1:40 p	-15.2	-15.2	-15.2	---	---	0.0	WNW	0.00	0.9	-15.2	---	---	729.9	0.023	0.000	19.9	3	1
03/04/06	1:41 p	-15.2	-15.2	-15.3	---	---	0.0	---	0.00	0.0	-15.2	---	---	729.8	0.023	0.000	20.0	3	1
03/04/06	1:42 p	-15.3	-15.3	-15.3	---	---	0.0	WNW	0.00	0.9	-15.3	---	---	729.9	0.023	0.000	20.0	3	1
03/04/06	1:43 p	-15.3	-15.3	-15.4	---	---	0.0	---	0.00	0.0	-15.3	---	---	730.0	0.023	0.000	20.0	3	1
03/04/06	1:44 p	-15.4	-15.4	-15.4	---	---	0.0	WNW	0.00	0.9	-15.4	---	---	730.0	0.023	0.000	20.0	3	1
03/04/06	1:45 p	-15.4	-15.4	-15.4	---	---	0.9	WNW	0.01	1.7	-15.4	---	---	729.9	0.023	0.000	20.0	3	1
03/04/06	1:46 p	-15.4	-15.4	-15.4	---	---	1.7	WNW	0.03	1.7	-17.5	---	---	730.0	0.023	0.000	20.0	3	1
03/04/06	1:47 p	-15.4	-15.4	-15.4	---	---	1.7	WNW	0.03	2.6	-17.5	---	---	730.0	0.023	0.000	20.0	3	1
03/04/06	1:48 p	-15.4	-15.4	-15.4	---	---	1.7	WNW	0.03	2.6	-17.6	---	---	730.0	0.023	0.000	20.0	3	1
03/04/06	1:49 p	-15.4	-15.4	-15.5	---	---	1.7	WNW	0.03	2.6	-17.6	---	---	730.0	0.023	0.000	20.0	3	1
03/04/06	1:50 p	-15.5	-15.5	-15.5	---	---	2.6	WNW	0.04	2.6	-18.9	---	---	730.0	0.023	0.000	20.1	3	1
03/04/06	1:51 p	-15.5	-15.5	-15.6	---	---	2.6	WNW	0.04	2.6	-18.9	---	---	730.0	0.023	0.000	20.1	3	1
03/04/06	1:52 p	-15.6	-15.6	-15.6	---	---	2.6	WNW	0.04	3.5	-19.1	---	---	730.0	0.024	0.000	20.1	3	1
03/04/06	1:53 p	-15.6	-15.6	-15.7	---	---	2.6	WNW	0.04	3.5	-19.1	---	---	730.0	0.024	0.000	20.1	3	1
03/04/06	1:54 p	-15.7	-15.7	-15.7	---	---	3.5	WNW	0.06	3.5	-20.2	---	---	730.1	0.024	0.000	20.1	3	1
03/04/06	1:55 p	-15.7	-15.7	-15.7	---	---	3.5	ENE	0.06	4.3	-20.2	---	---	730.1	0.024	0.000	20.1	3	1
03/04/06	1:56 p	-15.7	-15.7	-15.8	---	---	3.5	E	0.06	4.3	-20.3	---	---	730.1	0.024	0.000	20.1	3	1
03/04/06	1:57 p	-15.8	-15.8	-15.8	---	---	2.6	E	0.04	3.5	-19.3	---	---	730.0	0.024	0.000	20.1	3	1
03/04/06	1:58 p	-15.8	-15.8	-15.9	---	---	2.6	E	0.04	3.5	-19.3	---	---	730.1	0.024	0.000	20.1	3	1
03/04/06	1:59 p	-15.9	-15.9	-15.9	---	---	2.6	E	0.04	3.5	-19.4	---	---	729.9	0.024	0.000	20.1	3	1
03/04/06	2:00 p	-15.9	-15.9	-16.0	---	---	2.6	E	0.04	3.5	-19.4	---	---	730.0	0.024	0.000	20.1	3	1
03/04/06	2:01 p	-16.0	-16.0	-16.0	---	---	2.6	E	0.04	2.6	-19.6	---	---	730.0	0.024	0.000	20.1	3	1
03/04/06	2:02 p	-16.1	-16.0	-16.1	---	---	2.6	E	0.04	2.6	-19.6	---	---	730.0	0.024	0.000	20.1	3	1
03/04/06	2:03 p	-16.1	-16.1	-16.1	---	---	2.6	ENE	0.04	3.5	-19.6	---	---	730.0	0.024	0.000	20.1	3	1
03/04/06	2:04 p	-16.1	-16.1	-16.1	---	---	2.6	ENE	0.04	3.5	-19.6	---	---	730.0	0.024	0.000	20.1	3	1
03/04/06	2:05 p	-16.1	-16.1	-16.1	---	---	3.5	ENE	0.06	5.2	-20.7	---	---	729.9	0.024	0.000	20.1	3	1
03/04/06	2:06 p	-16.1	-16.1	-16.1	---	---	3.5	N	0.06	6.1	-20.7	---	---	730.0	0.024	0.000	20.1	3	1
03/04/06	2:07 p	-16.0	-16.0	-16.1	---	---	3.5	NNW	0.06	4.3	-20.6	---	---	729.9	0.024	0.000	20.1	3	1
03/04/06	2:08 p	-15.9	-15.8	-15.9	---	---	3.5	N	0.06	5.2	-20.5	---	---	729.9	0.024	0.000	20.1	3	1
03/04/06	2:09 p	-15.7	-15.7	-15.8	---	---	4.3	N	0.07	5.2	-21.2	---	---	729.9	0.024	0.000	20.1	3	1
03/04/06	2:10 p	-15.4	-15.3	-15.6	---	---	4.3	N	0.07	5.2	-20.8	---	---	730.0	0.023	0.000	20.1	3	1
03/04/06	2:11 p	-15.2	-15.1	-15.2	---	---	5.2	N	0.09	5.2	-21.2	---	---	730.1	0.023	0.000	20.1	3	1
03/04/06	2:12 p	-14.9	-14.8	-14.9	---	---	4.3	N	0.07	5.2	-20.2	---	---	730.0	0.023	0.000	20.1	3	1
03/04/06	2:13 p	-14.7	-14.6	-14.7	---	---	3.5	N	0.06	5.2	-19.1	---	---	730.0	0.023	0.000	20.1	3	1
03/04/06	2:14 p	-14.4	-14.4	-14.5	---	---	2.6	N	0.04	4.3	-17.8	---	---	730.0	0.023	0.000	20.1	3	1
03/04/06	2:15 p	-14.3	-14.2	-14.4	---	---	2.6	N	0.04	4.3	-17.7	---	---	730.0	0.023	0.000	20.1	3	1
03/04/06	2:16 p	-14.2	-14.1	-14.2	---	---	2.6	N	0.04	3.5	-17.5	---	---	730.0	0.023	0.000	20.1	3	1
03/04/06	2:17 p	-14.1	-14.1	-14.1	---	---	1.7	N	0.03	2.6	-16.1	---	---	730.1	0.023	0.000	20.1	3	1
03/04/06	2:18 p	-14.0	-14.0	-14.1	---	---	0.9	N	0.01	1.7	-14.0	---	---	730.0	0.022	0.000	20.1	3	1
03/04/06	2:19 p	-13.9	-13.9	-13.9	---	---	0.0	N	0.00	3.5	-13.9	---	---	730.1	0.022	0.000	20.1	3	1
03/04/06	2:20 p	-13.9	-13.9	-13.9	---	---	6.1	NE	0.10	7.8	-20.4	---	---	730.1	0.022	0.000	20.1	3	1
03/04/06	2:21 p	-14.0	-14.0	-14.1	---	---	9.6	NE	0.16	11.3	-22.3	---	---	730.0	0.022	0.000	20.1	3	1
03/04/06	2:22 p	-14.2	-14.1	-14.3	---	---	10.4	NE	0.17	13.9	-22.9	---	---	730.0	0.023	0.000	20.1	3	1
03/04/06	2:23 p	-14.6	-14.5	-14.7	---	---	12.2	NE	0.20	13.9	-24.1	---	---	730.1	0.023	0.000	20.1	3	1
03/04/06	2:24 p	-15.1	-14.9	-15.3	---	---	11.3	NE	0.19	13.9	-24.3	---	---	730.0	0.023	0.000	20.1	3	1
03/04/06	2:25 p	-15.7	-15.6	-15.8	---	---	12.2	NE	0.20	13.9	-25.5	---	---	730.1	0.024	0.000	20.1	3	1
03/04/06	2:26 p	-16.2	-16.1	-16.5	---	---	13.0	NE	0.22	14.8	-26.5	---	---	730.1	0.024	0.000	20.1	3	1
03/04/06	2:27 p	-16.8	-16.7	-16.9	---	---	13.9	NE	0.23	15.7	-27.6	---	---	730.0	0.024	0.000	20.1	3	1
03/04/06	2:28 p	-17.2	-17.1	-17.4	---	---	13.0	NE	0.22	14.8	-27.8	---	---	730.0	0.025	0.000	20.1	3	1
03/04/06	2:29 p	-17.7	-17.6	-17.8	---	---	12.2	NE	0.20	13.9	-28.0	---	---	730.0	0.025	0.000	20.1	3	1
03/04/06	2:30 p	-18.1	-17.9	-18.2	---	---	13.0	NE	0.22	13.9	-28.8	---	---	730.0	0.025	0.000	20.1	3	1
03/04/06	2:31 p	-18.4	-18.2	-18.6	---	---	12.2	NE	0.20	13.9	-28.9	---	---	730.0	0.026	0.000	20.1	3	1
03/04/06	2:32 p	-18.7	-18.6	-18.8	---	---	13.0	NE	0.22	13.9	-29.6	---	---	729.9	0.026	0.000	20.1	3	1
03/04/06	2:33 p	-18.9	-18.8	-19.0	---	---	12.2	NE	0.20	14.8	-29.6	---	---	730.0	0.026	0.000	20.1	3	1
03/04/06	2:34 p	-19.1	-19.0	-19.2	---	---	13.0	NE	0.22	15.7	-30.2	---	---	730.0	0.026	0.000	20.1	3	1
03/04/06	2:35 p	-19.2	-19.2	-19.3	---	---	12.2	NE	0.20	14.8	-30.0	---	---	729.9	0.026	0.000	20.1	3	1
03/04/06	2:36 p	-19.4	-19.3	-19.4	---	---	12.2	NE	0.20	13.0	-30.2	---	---	730.1	0.026	0.000	20.1	3	1
03/04/06	2:37 p	-19.4	-19.4	-19.4	---	---	12.2	NE	0.20	13.9	-30.3	---	---	730.0	0.026	0.000	20.1	3	1
03/04/06	2:38 p	-19.5	-19.5	-19.5	---	---	12.2	NE	0.20	13.9	-30.3	---	---	729.9	0.026	0.000	20.1	3	1
03/04/06	2:39 p	-19.6	-19.6	-19.6	---	---	13.9	NE	0.23	14.8	-31.1	---	---	729.9	0.026	0.000	20.1	3	1
03/04/06	2:40 p	-19.6	-19.6	-19.7	---	---	13.0	NE	0.22	13.9	-30.8	---	---	730.0	0.026	0.000	20.1	3	1
03/04/06	2:41 p	-19.7	-19.7	-19.7	---	---	12.2	NE	0.20	13.0	-30.6	---	---	730.0	0.026	0.000	20.1	3	1
03/04/06	2:42 p	-19.8	-19.7	-19.8	---	---	12.2	NE	0.20	13.9	-30.7	---	---	730.0	0.026	0.000	20.1	3	1
03/04/06	2:43 p	-19.8	-19.8	-19.8	---	---	11.3	NE	0.19	12.2	-30.3	---	---	730.0	0.026	0.000	20.1	3	1
03/04/06	2:44 p	-19.8	-19.8	-19.8	---	---	10.4	NE	0.17	11.3	-30.0	---	---	729.9	0.027	0.000	20.1	3	1
03/04/06	2:45 p	-19.8	-19.8	-19.8	---	---	9.6	NE	0.16	11.3	-29.6	---	---	730.0	0.027	0.000	20.1	3	1
03/04/06	2:46 p	-19.7	-19.7	-19.8	---	---	7.8	NE	0.13	10.4	-28.5	---	---	730.0	0.026	0.000	20.1	3	1
03/04/06	2:47 p	-19.6	-19.5	-19.7	---	---	7.8	NE	0.13	9.6	-28.3	---	---	730.0	0.026	0.000	20.1	3	1
03/04/06	2:48 p	-19.4	-19.4	-19.5	---	---	7.8	NE	0.13	9.6	-28.2	---	---	729.9	0.026	0.000	20.1	3	1
03/04/06	2:49 p	-19.3	-19.2	-19.4	---	---	5.2	NE	0.09	8.7	-26.2	---	---	729.9	0.026	0.000	20.1	3	1
03/04/06	2:50 p	-19.2	-19.1	-19.2	---	---	4.3	NE	0.07	7.0	-25.2	---	---	730.0	0.026	0.000	20.1	3	1
03/04/06	2:51 p	-19.1	-18.9	-19.1	---	---	4.3	NNE	0.07	6.1	-25.1	---	---	729.9	0.026	0.000	20.1	3	1
03/04/06	2:52 p	-18.9	-18.8	-18.9	---	---	2.6	NNE	0.04	3.5	-22.8	---	---	729.9	0.026	0.000	20.1	3	1
03/04/06	2:53 p	-18.8	-18.7	-18.8	---	---	1.7	NNE	0.03	2.6	-21.2	---	---	730.0	0.026	0.000	20.1	3	1
03/04/06	2:54 p	-18.6	-18.6	-18.7	---	---	1.7	NNE	0.03	3.5	-21.0	---	---	730.0	0.026	0.000	20.1	3	1
03/04/06	2:55 p	-18.6	-18.5	-18.6	---	---	2.6	N	0.04	3.5	-22.4	---	---	729.9	0.026	0.000	20.1	3	1
03/04/06	2:56 p	-18.3	-18.2	-18.4	---	---	1.7	N	0.03	2.6	-20.7	---	---	729.9	0.025	0.000	20.1	3	1
03/04/06	2:57 p	-18.1	-17.9	-18.2	---	---	1.7	N	0.03	1.7	-20.4	---	---	730.0	0.025	0.000	20.1	3	1
03/04/06	2:58 p	-17.8	-17.7	-17.9	---	---	1.7	N	0.03	2.6	-20.1	---	---	730.0	0.025	0.000	20.1	3	1
03/04/06	2:59 p	-17.5	-17.3	-17.7	---	---	1.7	N	0.03	1.7	-19.8	---	---	730.0	0.025	0.000	20.1	3	1
03/04/06	3:00 p	-17.2	-17.1	-17.3	---	---	0.9	N	0.01	1.7	-17.2	---	---	730.0	0.025	0.000	20.1	3	1
03/04/06	3:01 p	-16.9	-16.8	-17.1	---	---	0.9	N	0.01	1.7	-16.9	---	---	729.9	0.024	0.000	20.1	3	1
03/04/06	3:02 p	-16.7	-16.5	-16.7	---	---	0.9	N	0.01	1.7	-16.7	---	---	730.0	0.024	0.000	20.1	3	1
03/04/06	3:03 p	-16.3	-16.2	-16.5	---	---	0.0	N	0.00	0.9	-16.3	---	---	730.0	0.024	0.000	20.1	3	1
03/04/06	3:04 p	-16.1	-16.0	-16.2	---	---	0.9	N	0.01	1.7	-16.1	---	---	730.0	0.024	0.000	20.1	3	1
03/04/06	3:05 p	-15.9	-15.8	-16.0	---	---	1.7	N	0.03	2.6	-18.1	---	---	730.0	0.024	0.000	20.1	3	1
03/04/06	3:06 p	-15.8	-15.7	-15.8	---	---	2.6	NNE	0.04	3.5	-19.3	---	---	730.0	0.024	0.000	20.1	3	1
03/04/06	3:07 p	-15.7	-15.7	-15.7	---	---	0.9	NE	0.01	2.6	-15.7	---	---	730.0	0.024	0.000	20.1	3	1
03/04/06	3:08 p	-15.7	-15.7	-15.7	---	---	2.6	NE	0.04	3.5	-19.2	---	---	729.9	0.024	0.000	20.1	3	1
03/04/06	3:09 p	-15.7	-15.7	-15.7	---	---	2.6	NE	0.04	3.5	-19.2	---	---	729.9	0.024	0.000	20.1	3	1
03/04/06	3:10 p	-15.7	-15.7	-15.7	---	---	2.6	NE	0.04	3.5	-19.2	---	---	729.9	0.024	0.000	20.1	3	1
03/04/06	3:11 p	-15.7	-15.7	-15.8	---	---	2.6	NE	0.04	3.5	-19.2	---	---	729.9	0.024	0.000	20.1	3	1
03/04/06	3:12 p	-15.8	-15.8	-15.8	---	---	2.6	NE	0.04	3.5	-19.3	---	---	729.9	0.024	0.000	20.1	3	1
03/04/06	3:13 p	-15.8	-15.8	-15.9	---	---	3.5	ENE	0.06	4.3	-20.4	---	---	730.0	0.024	0.000	20.1	3	1
03/04/06	3:14 p	-15.9	-15.9	-15.9	---	---	4.3	ENE	0.07	5.2	-21.3	---	---	730.0	0.024	0.000	20.1	3	1
03/04/06	3:15 p	-15.9	-15.9	-16.0	---	---	5.2	ENE	0.09	7.0	-22.1	---	---	729.9	0.024	0.000	20.1	3	1
03/04/06	3:16 p	-16.1	-16.0	-16.1	---	---	7.8	NE	0.13	10.4	-24.0	---	---	730.0	0.024	0.000	20.1	3	1
03/04/06	3:17 p	-16.1	-16.1	-16.2	---	---	10.4	NE	0.17	11.3	-25.3	---	---	729.9	0.024	0.000	20.1	3	1
03/04/06	3:18 p	-16.2	-16.2	-16.3	---	---	11.3	NE	0.19	12.2	-25.8	---	---	730.0	0.024	0.000	20.1	3	1
03/04/06	3:19 p	-16.5	-16.3	-16.7	---	---	11.3	NE	0.19	12.2	-26.2	---	---	729.9	0.024	0.000	20.1	3	1
03/04/06	3:20 p	-16.7	-16.7	-16.8	---	---	10.4	NE	0.17	11.3	-26.1	---	---	730.0	0.024	0.000	20.1	3	1
03/04/06	3:21 p	-16.9	-16.8	-17.1	---	---	9.6	NE	0.16	11.3	-26.0	---	---	730.0	0.024	0.000	20.2	3	1
03/04/06	3:22 p	-17.1	-17.1	-17.2	---	---	9.6	NE	0.16	10.4	-26.2	---	---	729.9	0.025	0.000	20.2	3	1
03/04/06	3:23 p	-17.2	-17.2	-17.3	---	---	8.7	NE	0.14	9.6	-25.9	---	---	729.9	0.025	0.000	20.1	3	1
03/04/06	3:24 p	-17.3	-17.3	-17.3	---	---	6.1	NE	0.10	7.8	-24.4	---	---	729.9	0.025	0.000	20.1	3	1
03/04/06	3:25 p	-17.3	-17.3	-17.3	---	---	6.1	NE	0.10	7.8	-24.4	---	---	729.9	0.025	0.000	20.2	3	1
03/04/06	3:26 p	-17.3	-17.3	-17.3	---	---	3.5	NE	0.06	4.3	-22.1	---	---	730.0	0.025	0.000	20.2	3	1
03/04/06	3:27 p	-17.3	-17.2	-17.3	---	---	3.5	NE	0.06	4.3	-22.1	---	---	730.0	0.025	0.000	20.2	3	1
03/04/06	3:28 p	-17.2	-17.2	-17.3	---	---	6.1	NE	0.10	7.0	-24.3	---	---	729.9	0.025	0.000	20.2	3	1
03/04/06	3:29 p	-17.2	-17.2	-17.2	---	---	2.6	NE	0.04	4.3	-20.8	---	---	729.9	0.025	0.000	20.2	3	1
03/04/06	3:30 p	-17.1	-17.1	-17.2	---	---	1.7	NE	0.03	2.6	-19.3	---	---	729.9	0.025	0.000	20.2	3	1
03/04/06	3:31 p	-17.1	-17.1	-17.1	---	---	0.9	NE	0.01	1.7	-17.1	---	---	729.9	0.025	0.000	20.2	3	1
03/04/06	3:32 p	-17.1	-17.0	-17.1	---	---	0.9	NE	0.01	1.7	-17.1	---	---	729.9	0.025	0.000	20.2	3	1
03/04/06	3:33 p	-17.0	-16.9	-17.0	---	---	1.7	NE	0.03	2.6	-19.2	---	---	729.9	0.025	0.000	20.2	3	1
03/04/06	3:34 p	-16.9	-16.8	-16.9	---	---	1.7	NE	0.03	1.7	-19.1	---	---	729.9	0.024	0.000	20.2	3	1
03/04/06	3:35 p	-16.8	-16.8	-16.8	---	---	0.9	NE	0.01	1.7	-16.8	---	---	729.9	0.024	0.000	20.2	3	1
03/04/06	3:36 p	-16.7	-16.6	-16.7	---	---	0.9	NE	0.01	0.9	-16.7	---	---	729.9	0.024	0.000	20.2	3	1
03/04/06	3:37 p	-16.6	-16.5	-16.6	---	---	0.0	---	0.00	0.9	-16.6	---	---	729.9	0.024	0.000	20.2	3	1
03/04/06	3:38 p	-16.4	-16.4	-16.5	---	---	0.0	NE	0.00	0.9	-16.4	---	---	729.9	0.024	0.000	20.2	3	1
03/04/06	3:39 p	-16.3	-16.2	-16.4	---	---	0.0	---	0.00	0.0	-16.3	---	---	729.9	0.024	0.000	20.2	3	1
03/04/06	3:40 p	-16.2	-16.1	-16.2	---	---	0.0	---	0.00	0.0	-16.2	---	---	729.9	0.024	0.000	20.2	3	1
03/04/06	3:41 p	-16.1	-15.9	-16.1	---	---	0.0	---	0.00	0.0	-16.1	---	---	729.9	0.024	0.000	20.2	3	1
03/04/06	3:42 p	-15.9	-15.9	-15.9	---	---	0.9	NE	0.01	1.7	-15.9	---	---	729.9	0.024	0.000	20.2	3	1
03/04/06	3:43 p	-15.8	-15.8	-15.9	---	---	0.9	NE	0.01	1.7	-15.8	---	---	729.9	0.024	0.000	20.2	3	1
03/04/06	3:44 p	-15.8	-15.8	-15.8	---	---	2.6	NE	0.04	3.5	-19.3	---	---	730.0	0.024	0.000	20.2	3	1
03/04/06	3:45 p	-15.7	-15.7	-15.8	---	---	5.2	NE	0.09	7.0	-21.9	---	---	730.0	0.024	0.000	20.2	3	1
03/04/06	3:46 p	-15.7	-15.7	-15.7	---	---	9.6	NE	0.16	11.3	-24.4	---	---	730.0	0.024	0.000	20.2	3	1
03/04/06	3:47 p	-15.7	-15.7	-15.8	---	---	8.7	NE	0.14	10.4	-24.0	---	---	730.0	0.024	0.000	20.2	3	1
03/04/06	3:48 p	-15.9	-15.8	-15.9	---	---	7.8	NE	0.13	8.7	-23.8	---	---	730.0	0.024	0.000	20.2	3	1
03/04/06	3:49 p	-16.0	-16.0	-16.1	---	---	7.0	NE	0.12	8.7	-23.4	---	---	730.0	0.024	0.000	20.2	3	1
03/04/06	3:50 p	-16.1	-16.1	-16.2	---	---	5.2	NE	0.09	6.1	-22.3	---	---	729.9	0.024	0.000	20.2	3	1
03/04/06	3:51 p	-16.2	-16.2	-16.2	---	---	5.2	NE	0.09	7.0	-22.4	---	---	730.0	0.024	0.000	20.2	3	1
03/04/06	3:52 p	-16.2	-16.2	-16.2	---	---	5.2	NE	0.09	6.1	-22.4	---	---	729.9	0.024	0.000	20.2	3	1
03/04/06	3:53 p	-16.2	-16.2	-16.2	---	---	3.5	NE	0.06	5.2	-20.9	---	---	729.9	0.024	0.000	20.1	3	1
03/04/06	3:54 p	-16.2	-16.2	-16.2	---	---	3.5	NE	0.06	5.2	-20.9	---	---	729.9	0.024	0.000	20.2	3	1
03/04/06	3:55 p	-16.2	-16.1	-16.2	---	---	5.2	NE	0.09	6.1	-22.4	---	---	730.0	0.024	0.000	20.2	3	1
03/04/06	3:56 p	-16.1	-16.1	-16.1	---	---	4.3	NE	0.07	4.3	-21.6	---	---	729.9	0.024	0.000	20.1	3	1
03/04/06	3:57 p	-16.1	-16.1	-16.1	---	---	3.5	NE	0.06	5.2	-20.7	---	---	729.9	0.024	0.000	20.2	3	1
03/04/06	3:58 p	-16.1	-16.1	-16.1	---	---	2.6	NE	0.04	3.5	-19.6	---	---	729.9	0.024	0.000	20.2	3	1
03/04/06	3:59 p	-16.1	-16.0	-16.1	---	---	1.7	NE	0.03	2.6	-18.2	---	---	729.9	0.024	0.000	20.2	3	1
03/04/06	4:00 p	-15.9	-15.9	-16.0	---	---	0.9	NE	0.01	1.7	-15.9	---	---	729.9	0.024	0.000	20.2	3	1
03/04/06	4:01 p	-15.9	-15.9	-15.9	---	---	0.9	NE	0.01	0.9	-15.9	---	---	729.9	0.024	0.000	20.2	3	1
03/04/06	4:02 p	-15.8	-15.8	-15.9	---	---	0.9	NE	0.01	0.9	-15.8	---	---	729.9	0.024	0.000	20.2	3	1
03/04/06	4:03 p	-15.8	-15.8	-15.8	---	---	0.9	NE	0.01	1.7	-15.8	---	---	729.8	0.024	0.000	20.2	3	1
03/04/06	4:04 p	-15.7	-15.7	-15.8	---	---	0.9	NE	0.01	1.7	-15.7	---	---	729.8	0.024	0.000	20.2	3	1
03/04/06	4:05 p	-15.7	-15.6	-15.7	---	---	1.7	NE	0.03	2.6	-17.8	---	---	729.8	0.024	0.000	20.2	3	1
03/04/06	4:06 p	-15.6	-15.5	-15.6	---	---	1.7	NE	0.03	2.6	-17.7	---	---	729.7	0.024	0.000	20.2	3	1
03/04/06	4:07 p	-15.4	-15.4	-15.5	---	---	1.7	NE	0.03	2.6	-17.6	---	---	729.8	0.023	0.000	20.2	3	1
03/04/06	4:08 p	-15.2	-15.1	-15.3	---	---	1.7	NE	0.03	1.7	-17.3	---	---	729.8	0.023	0.000	20.2	3	1
03/04/06	4:09 p	-15.0	-14.9	-15.0	---	---	1.7	NE	0.03	1.7	-17.1	---	---	729.8	0.023	0.000	20.2	3	1
03/04/06	4:10 p	-14.8	-14.7	-14.8	---	---	1.7	NE	0.03	2.6	-16.8	---	---	729.8	0.023	0.000	20.2	3	1
03/04/06	4:11 p	-14.6	-14.4	-14.6	---	---	1.7	NE	0.03	2.6	-16.6	---	---	729.8	0.023	0.000	20.2	3	1
03/04/06	4:12 p	-14.3	-14.3	-14.4	---	---	1.7	NE	0.03	2.6	-16.3	---	---	729.8	0.023	0.000	20.2	3	1
03/04/06	4:13 p	-14.2	-14.1	-14.2	---	---	1.7	NE	0.03	1.7	-16.2	---	---	729.8	0.023	0.000	20.2	3	1
03/04/06	4:14 p	-14.0	-13.9	-14.1	---	---	2.6	NE	0.04	2.6	-17.3	---	---	729.8	0.022	0.000	20.2	3	1
03/04/06	4:15 p	-13.9	-13.8	-13.9	---	---	2.6	NE	0.04	2.6	-17.2	---	---	729.8	0.022	0.000	20.2	3	1
03/04/06	4:16 p	-13.7	-13.7	-13.8	---	---	2.6	NE	0.04	3.5	-17.0	---	---	729.7	0.022	0.000	20.2	3	1
03/04/06	4:17 p	-13.6	-13.6	-13.6	---	---	3.5	NE	0.06	3.5	-17.8	---	---	729.8	0.022	0.000	20.2	3	1
03/04/06	4:18 p	-13.4	-13.4	-13.5	---	---	3.5	NNE	0.06	3.5	-17.7	---	---	729.8	0.022	0.000	20.2	3	1
03/04/06	4:19 p	-13.4	-13.3	-13.4	---	---	3.5	NNE	0.06	4.3	-17.7	---	---	729.8	0.022	0.000	20.2	3	1
03/04/06	4:20 p	-13.2	-13.2	-13.3	---	---	3.5	N	0.06	4.3	-17.4	---	---	729.8	0.022	0.000	20.2	3	1
03/04/06	4:21 p	-13.2	-13.1	-13.2	---	---	3.5	N	0.06	4.3	-17.4	---	---	729.8	0.022	0.000	20.2	3	1
03/04/06	4:22 p	-13.1	-13.0	-13.1	---	---	3.5	N	0.06	3.5	-17.3	---	---	729.7	0.022	0.000	20.2	3	1
03/04/06	4:23 p	-13.0	-12.9	-13.0	---	---	3.5	N	0.06	3.5	-17.2	---	---	729.8	0.022	0.000	20.2	3	1
03/04/06	4:24 p	-12.9	-12.9	-12.9	---	---	2.6	N	0.04	3.5	-16.1	---	---	729.7	0.022	0.000	20.2	3	1
03/04/06	4:25 p	-12.9	-12.9	-12.9	---	---	1.7	N	0.03	2.6	-14.7	---	---	729.7	0.022	0.000	20.2	3	1
03/04/06	4:26 p	-12.8	-12.8	-12.9	---	---	1.7	N	0.03	2.6	-14.7	---	---	729.8	0.022	0.000	20.2	3	1
03/04/06	4:27 p	-12.8	-12.8	-12.8	---	---	1.7	N	0.03	2.6	-14.7	---	---	729.8	0.022	0.000	20.2	3	1
03/04/06	4:28 p	-12.8	-12.8	-12.8	---	---	2.6	N	0.04	3.5	-16.0	---	---	729.8	0.022	0.000	20.2	3	1
03/04/06	4:29 p	-12.8	-12.8	-12.8	---	---	2.6	N	0.04	3.5	-16.0	---	---	729.7	0.022	0.000	20.2	3	1
03/04/06	4:30 p	-12.8	-12.8	-12.8	---	---	3.5	N	0.06	3.5	-17.0	---	---	729.7	0.022	0.000	20.2	3	1
03/04/06	4:31 p	-12.8	-12.8	-12.8	---	---	3.5	N	0.06	3.5	-16.9	---	---	729.6	0.022	0.000	20.2	3	1
03/04/06	4:32 p	-12.8	-12.8	-12.8	---	---	3.5	N	0.06	4.3	-16.9	---	---	729.7	0.022	0.000	20.2	3	1
03/04/06	4:33 p	-12.8	-12.8	-12.8	---	---	3.5	N	0.06	3.5	-16.9	---	---	729.6	0.022	0.000	20.2	3	1
03/04/06	4:34 p	-12.8	-12.8	-12.8	---	---	2.6	N	0.04	3.5	-15.9	---	---	729.7	0.022	0.000	20.2	3	1
03/04/06	4:35 p	-12.8	-12.8	-12.8	---	---	2.6	N	0.04	2.6	-15.9	---	---	729.7	0.022	0.000	20.2	3	1
03/04/06	4:36 p	-12.8	-12.8	-12.8	---	---	1.7	N	0.03	2.6	-14.6	---	---	729.7	0.022	0.000	20.2	3	1
03/04/06	4:37 p	-12.8	-12.8	-12.8	---	---	1.7	N	0.03	1.7	-14.6	---	---	729.7	0.022	0.000	20.2	3	1
03/04/06	4:38 p	-12.8	-12.8	-12.8	---	---	1.7	N	0.03	1.7	-14.7	---	---	729.7	0.022	0.000	20.2	3	1
03/04/06	4:39 p	-12.8	-12.8	-12.8	---	---	2.6	N	0.04	3.5	-16.0	---	---	729.7	0.022	0.000	20.2	3	1
03/04/06	4:40 p	-12.8	-12.8	-12.9	---	---	3.5	N	0.06	3.5	-17.0	---	---	729.7	0.022	0.000	20.2	3	1
03/04/06	4:41 p	-12.9	-12.9	-12.9	---	---	3.5	N	0.06	4.3	-17.1	---	---	729.7	0.022	0.000	20.2	3	1
03/04/06	4:42 p	-12.9	-12.9	-12.9	---	---	4.3	N	0.07	4.3	-17.8	---	---	729.7	0.022	0.000	20.2	3	1
03/04/06	4:43 p	-12.9	-12.9	-12.9	---	---	4.3	NNW	0.07	4.3	-17.8	---	---	729.6	0.022	0.000	20.2	3	1
03/04/06	4:44 p	-12.9	-12.9	-13.0	---	---	3.5	NNW	0.06	4.3	-17.1	---	---	729.6	0.022	0.000	20.2	3	1
03/04/06	4:45 p	-13.1	-13.0	-13.1	---	---	3.5	NNW	0.06	4.3	-17.3	---	---	729.6	0.022	0.000	20.2	3	1
03/04/06	4:46 p	-13.1	-13.1	-13.1	---	---	3.5	NNW	0.06	4.3	-17.3	---	---	729.6	0.022	0.000	20.2	3	1
03/04/06	4:47 p	-13.1	-13.1	-13.2	---	---	2.6	NNW	0.04	2.6	-16.3	---	---	729.6	0.022	0.000	20.2	3	1
03/04/06	4:48 p	-13.2	-13.2	-13.2	---	---	1.7	NNW	0.03	2.6	-15.1	---	---	729.6	0.022	0.000	20.2	3	1
03/04/06	4:49 p	-13.2	-13.2	-13.2	---	---	0.9	NNW	0.01	1.7	-13.2	---	---	729.7	0.022	0.000	20.2	3	1
03/04/06	4:50 p	-13.2	-13.2	-13.3	---	---	0.9	NNW	0.01	0.9	-13.2	---	---	729.6	0.022	0.000	20.2	3	1
03/04/06	4:51 p	-13.3	-13.3	-13.3	---	---	0.0	---	0.00	0.0	-13.3	---	---	729.6	0.022	0.000	20.2	3	1
03/04/06	4:52 p	-13.3	-13.3	-13.3	---	---	0.0	---	0.00	0.0	-13.3	---	---	729.6	0.022	0.000	20.2	3	1
03/04/06	4:53 p	-13.3	-13.3	-13.4	---	---	0.0	NNW	0.00	0.9	-13.3	---	---	729.6	0.022	0.000	20.2	3	1
03/04/06	4:54 p	-13.4	-13.4	-13.4	---	---	0.9	NNW	0.01	1.7	-13.4	---	---	729.7	0.022	0.000	20.2	3	1
03/04/06	4:55 p	-13.4	-13.4	-13.4	---	---	0.9	NNW	0.01	0.9	-13.4	---	---	729.6	0.022	0.000	20.2	3	1
03/04/06	4:56 p	-13.4	-13.4	-13.4	---	---	0.9	NNW	0.01	0.9	-13.4	---	---	729.5	0.022	0.000	20.2	3	1
03/04/06	4:57 p	-13.4	-13.4	-13.4	---	---	0.9	NNW	0.01	1.7	-13.4	---	---	729.6	0.022	0.000	20.2	3	1
03/04/06	4:58 p	-13.4	-13.4	-13.4	---	---	1.7	NNW	0.03	1.7	-15.3	---	---	729.6	0.022	0.000	20.2	3	1
03/04/06	4:59 p	-13.4	-13.4	-13.4	---	---	1.7	NNW	0.03	2.6	-15.3	---	---	729.6	0.022	0.000	20.2	3	1
03/04/06	5:00 p	-13.4	-13.4	-13.4	---	---	2.6	NNW	0.04	3.5	-16.7	---	---	729.6	0.022	0.000	20.2	3	1
03/04/06	5:01 p	-13.5	-13.4	-13.5	---	---	2.6	NNW	0.04	3.5	-16.8	---	---	729.6	0.022	0.000	20.2	3	1
03/04/06	5:02 p	-13.5	-13.5	-13.5	---	---	2.6	NNW	0.04	3.5	-16.8	---	---	729.6	0.022	0.000	20.2	3	1
03/04/06	5:03 p	-13.5	-13.5	-13.5	---	---	2.6	NNW	0.04	3.5	-16.8	---	---	729.6	0.022	0.000	20.2	3	1
03/04/06	5:04 p	-13.6	-13.5	-13.6	---	---	2.6	NNW	0.04	3.5	-16.8	---	---	729.6	0.022	0.000	20.2	3	1
03/04/06	5:05 p	-13.6	-13.6	-13.6	---	---	2.6	NNW	0.04	3.5	-16.8	---	---	729.6	0.022	0.000	20.2	3	1
03/04/06	5:06 p	-13.6	-13.6	-13.6	---	---	2.6	NNW	0.04	2.6	-16.8	---	---	729.7	0.022	0.000	20.2	3	1
03/04/06	5:07 p	-13.6	-13.6	-13.6	---	---	2.6	NNW	0.04	2.6	-16.9	---	---	729.7	0.022	0.000	20.2	3	1
03/04/06	5:08 p	-13.6	-13.6	-13.6	---	---	2.6	NNW	0.04	3.5	-16.9	---	---	729.6	0.022	0.000	20.2	3	1
03/04/06	5:09 p	-13.6	-13.6	-13.7	---	---	2.6	NNW	0.04	3.5	-16.9	---	---	729.6	0.022	0.000	20.2	3	1
03/04/06	5:10 p	-13.7	-13.6	-13.7	---	---	3.5	NNW	0.06	4.3	-17.9	---	---	729.7	0.022	0.000	20.2	3	1
03/04/06	5:11 p	-13.6	-13.6	-13.6	---	---	4.3	NNW	0.07	5.2	-18.7	---	---	729.6	0.022	0.000	20.2	3	1
03/04/06	5:12 p	-13.6	-13.6	-13.6	---	---	5.2	NNW	0.09	6.1	-19.3	---	---	729.6	0.022	0.000	20.2	3	1
03/04/06	5:13 p	-13.6	-13.6	-13.6	---	---	6.1	NNW	0.10	7.0	-19.9	---	---	729.6	0.022	0.000	20.2	3	1
03/04/06	5:14 p	-13.6	-13.6	-13.6	---	---	7.0	NNW	0.12	7.0	-20.4	---	---	729.6	0.022	0.000	20.2	3	1
03/04/06	5:15 p	-13.6	-13.5	-13.6	---	---	7.0	NNW	0.12	7.0	-20.4	---	---	729.6	0.022	0.000	20.2	3	1
03/04/06	5:16 p	-13.5	-13.5	-13.5	---	---	7.0	NNW	0.12	7.0	-20.3	---	---	729.5	0.022	0.000	20.2	3	1
03/04/06	5:17 p	-13.5	-13.4	-13.5	---	---	6.1	NNW	0.10	7.0	-19.8	---	---	729.6	0.022	0.000	20.2	3	1
03/04/06	5:18 p	-13.4	-13.4	-13.4	---	---	6.1	NNW	0.10	6.1	-19.8	---	---	729.5	0.022	0.000	20.2	3	1
03/04/06	5:19 p	-13.4	-13.4	-13.4	---	---	6.1	NNW	0.10	6.1	-19.8	---	---	729.6	0.022	0.000	20.2	3	1
03/04/06	5:20 p	-13.4	-13.4	-13.4	---	---	6.1	NNW	0.10	7.0	-19.8	---	---	729.6	0.022	0.000	20.2	3	1
03/04/06	5:21 p	-13.4	-13.4	-13.4	---	---	7.8	NNW	0.13	7.8	-20.8	---	---	729.6	0.022	0.000	20.2	3	1
03/04/06	5:22 p	-13.4	-13.4	-13.4	---	---	7.8	NNW	0.13	8.7	-20.8	---	---	729.6	0.022	0.000	20.2	3	1
03/04/06	5:23 p	-13.4	-13.4	-13.5	---	---	7.8	NNW	0.13	8.7	-20.8	---	---	729.5	0.022	0.000	20.2	3	1
03/04/06	5:24 p	-13.5	-13.5	-13.6	---	---	7.8	NNW	0.13	8.7	-20.8	---	---	729.4	0.022	0.000	20.2	3	1
03/04/06	5:25 p	-13.6	-13.6	-13.6	---	---	7.8	NNW	0.13	8.7	-21.0	---	---	729.6	0.022	0.000	20.2	3	1
03/04/06	5:26 p	-13.6	-13.6	-13.6	---	---	7.8	NNW	0.13	8.7	-21.0	---	---	729.6	0.022	0.000	20.2	3	1
03/04/06	5:27 p	-13.6	-13.6	-13.7	---	---	7.8	NNW	0.13	8.7	-21.0	---	---	729.6	0.022	0.000	20.2	3	1
03/04/06	5:28 p	-13.7	-13.7	-13.7	---	---	7.0	NNW	0.12	8.7	-20.6	---	---	729.6	0.022	0.000	20.2	3	1
03/04/06	5:29 p	-13.7	-13.7	-13.7	---	---	7.0	NNW	0.12	7.8	-20.6	---	---	729.5	0.022	0.000	20.2	3	1
03/04/06	5:30 p	-13.7	-13.6	-13.7	---	---	6.1	NNW	0.10	7.0	-20.0	---	---	729.5	0.022	0.000	20.1	3	1
03/04/06	5:31 p	-13.6	-13.6	-13.6	---	---	6.1	NNW	0.10	7.0	-19.9	---	---	729.6	0.022	0.000	20.1	3	1
03/04/06	5:32 p	-13.6	-13.6	-13.6	---	---	6.1	NNW	0.10	6.1	-19.9	---	---	729.5	0.022	0.000	20.1	3	1
03/04/06	5:33 p	-13.6	-13.6	-13.6	---	---	6.1	NNW	0.10	6.1	-19.9	---	---	729.6	0.022	0.000	20.1	3	1
03/04/06	5:34 p	-13.7	-13.6	-13.7	---	---	5.2	NNW	0.09	6.1	-19.4	---	---	729.6	0.022	0.000	20.1	3	1
03/04/06	5:35 p	-13.6	-13.6	-13.7	---	---	5.2	NNW	0.09	6.1	-19.3	---	---	729.6	0.022	0.000	20.1	3	1
03/04/06	5:36 p	-13.6	-13.6	-13.7	---	---	6.1	NNW	0.10	7.8	-19.9	---	---	729.7	0.022	0.000	20.1	3	1
03/04/06	5:37 p	-13.6	-13.6	-13.6	---	---	7.0	NNW	0.12	7.8	-20.5	---	---	729.6	0.022	0.000	20.1	3	1
03/04/06	5:38 p	-13.6	-13.6	-13.6	---	---	6.1	NNW	0.10	7.0	-19.9	---	---	729.6	0.022	0.000	20.1	3	1
03/04/06	5:39 p	-13.6	-13.6	-13.6	---	---	6.1	NNW	0.10	7.8	-19.9	---	---	729.6	0.022	0.000	20.1	3	1
03/04/06	5:40 p	-13.6	-13.6	-13.6	---	---	7.0	NNW	0.12	7.8	-20.4	---	---	729.6	0.022	0.000	20.1	3	1
03/04/06	5:41 p	-13.6	-13.6	-13.6	---	---	7.0	NNW	0.12	7.8	-20.4	---	---	729.5	0.022	0.000	20.1	3	1
03/04/06	5:42 p	-13.6	-13.5	-13.6	---	---	7.0	NNW	0.12	7.8	-20.4	---	---	729.6	0.022	0.000	20.1	3	1
03/04/06	5:43 p	-13.5	-13.5	-13.5	---	---	7.0	NNW	0.12	7.8	-20.3	---	---	729.5	0.022	0.000	20.1	3	1
03/04/06	5:44 p	-13.5	-13.5	-13.5	---	---	7.0	NNW	0.12	7.8	-20.3	---	---	729.6	0.022	0.000	20.1	3	1
03/04/06	5:45 p	-13.5	-13.5	-13.5	---	---	7.8	NNW	0.13	7.8	-20.8	---	---	729.5	0.022	0.000	20.1	3	1
03/04/06	5:46 p	-13.5	-13.5	-13.5	---	---	7.8	NNW	0.13	7.8	-20.8	---	---	729.5	0.022	0.000	20.1	3	1
03/04/06	5:47 p	-13.5	-13.5	-13.5	---	---	7.8	NNW	0.13	8.7	-20.8	---	---	729.5	0.022	0.000	20.1	3	1
03/04/06	5:48 p	-13.5	-13.5	-13.5	---	---	7.0	NNW	0.12	7.8	-20.3	---	---	729.5	0.022	0.000	20.1	3	1
03/04/06	5:49 p	-13.5	-13.5	-13.5	---	---	6.1	NNW	0.10	7.0	-19.8	---	---	729.5	0.022	0.000	20.1	3	1
03/04/06	5:50 p	-13.5	-13.5	-13.5	---	---	5.2	NNW	0.09	6.1	-19.2	---	---	729.5	0.022	0.000	20.1	3	1
03/04/06	5:51 p	-13.5	-13.5	-13.5	---	---	5.2	NNW	0.09	6.1	-19.2	---	---	729.5	0.022	0.000	20.1	3	1
03/04/06	5:52 p	-13.5	-13.5	-13.5	---	---	7.0	NNW	0.12	7.8	-20.3	---	---	729.5	0.022	0.000	20.1	3	1
03/04/06	5:53 p	-13.5	-13.5	-13.5	---	---	7.8	NNW	0.13	8.7	-20.8	---	---	729.5	0.022	0.000	20.1	3	1
03/04/06	5:54 p	-13.5	-13.5	-13.5	---	---	7.8	NNW	0.13	8.7	-20.8	---	---	729.4	0.022	0.000	20.1	3	1
03/04/06	5:55 p	-13.5	-13.4	-13.5	---	---	7.0	NNW	0.12	7.8	-20.3	---	---	729.4	0.022	0.000	20.1	3	1
03/04/06	5:56 p	-13.4	-13.4	-13.4	---	---	6.1	NNW	0.10	7.0	-19.7	---	---	729.5	0.022	0.000	20.1	3	1
03/04/06	5:57 p	-13.4	-13.3	-13.4	---	---	6.1	NNW	0.10	7.0	-19.7	---	---	729.5	0.022	0.000	20.1	3	1
03/04/06	5:58 p	-13.3	-13.2	-13.3	---	---	6.1	NNW	0.10	7.0	-19.6	---	---	729.5	0.022	0.000	20.1	3	1
03/04/06	5:59 p	-13.2	-13.2	-13.2	---	---	6.1	NNW	0.10	7.0	-19.5	---	---	729.4	0.022	0.000	20.1	3	1
03/04/06	6:00 p	-13.2	-13.2	-13.2	---	---	5.2	NNW	0.09	6.1	-18.8	---	---	729.5	0.022	0.000	20.1	3	1
03/04/06	6:01 p	-13.2	-13.2	-13.2	---	---	4.3	NNW	0.07	5.2	-18.2	---	---	729.4	0.022	0.000	20.1	3	1
03/04/06	6:02 p	-13.2	-13.2	-13.2	---	---	4.3	NNW	0.07	5.2	-18.2	---	---	729.4	0.022	0.000	20.1	3	1
03/04/06	6:03 p	-13.2	-13.2	-13.2	---	---	4.3	NNW	0.07	5.2	-18.2	---	---	729.4	0.022	0.000	20.1	3	1
03/04/06	6:04 p	-13.2	-13.2	-13.2	---	---	5.2	NNW	0.09	7.0	-18.8	---	---	729.4	0.022	0.000	20.1	3	1
03/04/06	6:05 p	-13.2	-13.1	-13.2	---	---	5.2	NNW	0.09	6.1	-18.8	---	---	729.4	0.022	0.000	20.1	3	1
03/04/06	6:06 p	-13.1	-13.1	-13.1	---	---	4.3	NNW	0.07	5.2	-18.1	---	---	729.4	0.022	0.000	20.1	3	1
03/04/06	6:07 p	-13.2	-13.1	-13.2	---	---	3.5	NNW	0.06	4.3	-17.4	---	---	729.4	0.022	0.000	20.1	3	1
03/04/06	6:08 p	-13.2	-13.2	-13.2	---	---	4.3	NNW	0.07	5.2	-18.2	---	---	729.4	0.022	0.000	20.1	3	1
03/04/06	6:09 p	-13.2	-13.2	-13.2	---	---	4.3	NNW	0.07	6.1	-18.2	---	---	729.4	0.022	0.000	20.1	3	1
03/04/06	6:10 p	-13.2	-13.2	-13.2	---	---	5.2	NNW	0.09	6.1	-18.8	---	---	729.4	0.022	0.000	20.1	3	1
03/04/06	6:11 p	-13.2	-13.2	-13.2	---	---	5.2	NNW	0.09	7.0	-18.8	---	---	729.5	0.022	0.000	20.1	3	1
03/04/06	6:12 p	-13.2	-13.2	-13.2	---	---	4.3	NNW	0.07	6.1	-18.2	---	---	729.5	0.022	0.000	20.1	3	1
03/04/06	6:13 p	-13.2	-13.2	-13.2	---	---	3.5	NNW	0.06	4.3	-17.4	---	---	729.5	0.022	0.000	20.1	3	1
03/04/06	6:14 p	-13.2	-13.2	-13.2	---	---	3.5	NNW	0.06	4.3	-17.4	---	---	729.4	0.022	0.000	20.1	3	1
03/04/06	6:15 p	-13.3	-13.3	-13.3	---	---	4.3	NNW	0.07	4.3	-18.3	---	---	729.4	0.022	0.000	20.1	3	1
03/04/06	6:16 p	-13.3	-13.3	-13.3	---	---	4.3	NNW	0.07	5.2	-18.3	---	---	729.4	0.022	0.000	20.1	3	1
03/04/06	6:17 p	-13.4	-13.3	-13.4	---	---	4.3	NNW	0.07	5.2	-18.4	---	---	729.5	0.022	0.000	20.1	3	1
03/04/06	6:18 p	-13.4	-13.4	-13.4	---	---	5.2	NNW	0.09	5.2	-19.2	---	---	729.6	0.022	0.000	20.1	3	1
03/04/06	6:19 p	-13.4	-13.4	-13.4	---	---	4.3	NNW	0.07	5.2	-18.4	---	---	729.5	0.022	0.000	20.1	3	1
03/04/06	6:20 p	-13.5	-13.4	-13.5	---	---	5.2	NNW	0.09	6.1	-19.2	---	---	729.5	0.022	0.000	20.1	3	1
03/04/06	6:21 p	-13.5	-13.5	-13.6	---	---	6.1	NNW	0.10	6.1	-19.8	---	---	729.5	0.022	0.000	20.1	3	1
03/04/06	6:22 p	-13.6	-13.6	-13.6	---	---	6.1	NNW	0.10	6.1	-19.9	---	---	729.4	0.022	0.000	20.1	3	1
03/04/06	6:23 p	-13.6	-13.6	-13.6	---	---	5.2	NNW	0.09	6.1	-19.3	---	---	729.5	0.022	0.000	20.1	3	1
03/04/06	6:24 p	-13.6	-13.6	-13.6	---	---	5.2	NNW	0.09	5.2	-19.3	---	---	729.5	0.022	0.000	20.1	3	1
03/04/06	6:25 p	-13.7	-13.7	-13.7	---	---	5.2	NNW	0.09	5.2	-19.4	---	---	729.4	0.022	0.000	20.1	3	1
03/04/06	6:26 p	-13.7	-13.7	-13.7	---	---	5.2	NNW	0.09	6.1	-19.5	---	---	729.4	0.022	0.000	20.1	3	1
03/04/06	6:27 p	-13.7	-13.7	-13.8	---	---	5.2	NNW	0.09	6.1	-19.5	---	---	729.5	0.022	0.000	20.1	3	1
03/04/06	6:28 p	-13.8	-13.8	-13.9	---	---	5.2	NNW	0.09	5.2	-19.6	---	---	729.4	0.022	0.000	20.1	3	1
03/04/06	6:29 p	-13.9	-13.9	-13.9	---	---	5.2	NNW	0.09	5.2	-19.7	---	---	729.4	0.022	0.000	20.1	3	1
03/04/06	6:30 p	-14.0	-13.9	-14.1	---	---	4.3	NNW	0.07	5.2	-19.1	---	---	729.4	0.022	0.000	20.1	3	1
03/04/06	6:31 p	-14.1	-14.1	-14.2	---	---	5.2	NNW	0.09	5.2	-19.9	---	---	729.4	0.023	0.000	20.1	3	1
03/04/06	6:32 p	-14.2	-14.2	-14.2	---	---	5.2	NNW	0.09	6.1	-20.1	---	---	729.4	0.023	0.000	20.1	3	1
03/04/06	6:33 p	-14.3	-14.2	-14.3	---	---	5.2	NNW	0.09	6.1	-20.2	---	---	729.4	0.023	0.000	20.1	3	1
03/04/06	6:34 p	-14.3	-14.3	-14.3	---	---	6.1	NNW	0.10	7.0	-20.8	---	---	729.3	0.023	0.000	20.1	3	1
03/04/06	6:35 p	-14.3	-14.3	-14.3	---	---	6.1	NNW	0.10	6.1	-20.8	---	---	729.4	0.023	0.000	20.1	3	1
03/04/06	6:36 p	-14.2	-14.2	-14.3	---	---	6.1	NNW	0.10	6.1	-20.7	---	---	729.4	0.023	0.000	20.1	3	1
03/04/06	6:37 p	-14.2	-14.2	-14.2	---	---	6.1	NNW	0.10	6.1	-20.7	---	---	729.4	0.023	0.000	20.1	3	1
03/04/06	6:38 p	-14.2	-14.2	-14.2	---	---	6.1	NNW	0.10	6.1	-20.6	---	---	729.4	0.023	0.000	20.1	3	1
03/04/06	6:39 p	-14.2	-14.1	-14.2	---	---	5.2	NNW	0.09	6.1	-20.0	---	---	729.4	0.023	0.000	20.1	3	1
03/04/06	6:40 p	-14.1	-14.1	-14.1	---	---	6.1	NNW	0.10	7.0	-20.6	---	---	729.4	0.023	0.000	20.2	3	1
03/04/06	6:41 p	-14.1	-14.1	-14.1	---	---	5.2	NNW	0.09	6.1	-19.9	---	---	729.5	0.023	0.000	20.2	3	1
03/04/06	6:42 p	-14.1	-14.1	-14.1	---	---	6.1	NNW	0.10	7.0	-20.6	---	---	729.5	0.023	0.000	20.2	3	1
03/04/06	6:43 p	-14.1	-14.1	-14.1	---	---	6.1	NNW	0.10	7.0	-20.6	---	---	729.4	0.023	0.000	20.2	3	1
03/04/06	6:44 p	-14.1	-14.1	-14.1	---	---	6.1	NNW	0.10	7.0	-20.6	---	---	729.4	0.023	0.000	20.2	3	1
03/04/06	6:45 p	-14.1	-14.1	-14.2	---	---	6.1	NNW	0.10	6.1	-20.6	---	---	729.3	0.023	0.000	20.2	3	1
03/04/06	6:46 p	-14.2	-14.2	-14.2	---	---	6.1	NNW	0.10	6.1	-20.6	---	---	729.3	0.023	0.000	20.2	3	1
03/04/06	6:47 p	-14.2	-14.2	-14.2	---	---	6.1	NNW	0.10	6.1	-20.6	---	---	729.4	0.023	0.000	20.2	3	1
03/04/06	6:48 p	-14.2	-14.2	-14.2	---	---	5.2	NNW	0.09	6.1	-20.0	---	---	729.3	0.023	0.000	20.2	3	1
03/04/06	6:49 p	-14.2	-14.2	-14.2	---	---	5.2	NNW	0.09	6.1	-20.1	---	---	729.4	0.023	0.000	20.1	3	1
03/04/06	6:50 p	-14.2	-14.2	-14.2	---	---	5.2	NNW	0.09	6.1	-20.1	---	---	729.4	0.023	0.000	20.1	3	1
03/04/06	6:51 p	-14.2	-14.2	-14.2	---	---	5.2	NNW	0.09	6.1	-20.1	---	---	729.4	0.023	0.000	20.2	3	1
03/04/06	6:52 p	-14.2	-14.2	-14.2	---	---	5.2	NNW	0.09	5.2	-20.1	---	---	729.5	0.023	0.000	20.2	3	1
03/04/06	6:53 p	-14.2	-14.2	-14.2	---	---	5.2	NNW	0.09	5.2	-20.0	---	---	729.4	0.023	0.000	20.2	3	1
03/04/06	6:54 p	-14.2	-14.2	-14.2	---	---	5.2	NNW	0.09	5.2	-20.0	---	---	729.4	0.023	0.000	20.2	3	1
03/04/06	6:55 p	-14.2	-14.2	-14.2	---	---	4.3	NNW	0.07	5.2	-19.4	---	---	729.5	0.023	0.000	20.1	3	1
03/04/06	6:56 p	-14.2	-14.2	-14.2	---	---	3.5	NNW	0.06	4.3	-18.6	---	---	729.4	0.023	0.000	20.2	3	1
03/04/06	6:57 p	-14.2	-14.2	-14.2	---	---	3.5	NNW	0.06	4.3	-18.6	---	---	729.4	0.023	0.000	20.2	3	1
03/04/06	6:58 p	-14.2	-14.2	-14.2	---	---	2.6	NNW	0.04	3.5	-17.6	---	---	729.4	0.023	0.000	20.2	3	1
03/04/06	6:59 p	-14.2	-14.2	-14.3	---	---	2.6	NNW	0.04	2.6	-17.6	---	---	729.4	0.023	0.000	20.2	3	1
03/04/06	7:00 p	-14.3	-14.3	-14.3	---	---	1.7	NNW	0.03	1.7	-16.3	---	---	729.4	0.023	0.000	20.2	3	1
03/04/06	7:01 p	-14.3	-14.3	-14.3	---	---	1.7	NNW	0.03	2.6	-16.3	---	---	729.4	0.023	0.000	20.2	3	1
03/04/06	7:02 p	-14.3	-14.3	-14.3	---	---	1.7	NNW	0.03	1.7	-16.3	---	---	729.4	0.023	0.000	20.2	3	1
03/04/06	7:03 p	-14.3	-14.3	-14.3	---	---	1.7	NNW	0.03	2.6	-16.3	---	---	729.3	0.023	0.000	20.2	3	1
03/04/06	7:04 p	-14.3	-14.3	-14.3	---	---	1.7	NNW	0.03	2.6	-16.3	---	---	729.4	0.023	0.000	20.2	3	1
03/04/06	7:05 p	-14.3	-14.3	-14.3	---	---	2.6	NNW	0.04	4.3	-17.7	---	---	729.3	0.023	0.000	20.2	3	1
03/04/06	7:06 p	-14.2	-14.2	-14.3	---	---	2.6	NNW	0.04	4.3	-17.6	---	---	729.4	0.023	0.000	20.2	3	1
03/04/06	7:07 p	-14.2	-14.2	-14.2	---	---	2.6	NNW	0.04	3.5	-17.6	---	---	729.4	0.023	0.000	20.2	3	1
03/04/06	7:08 p	-14.2	-14.2	-14.2	---	---	2.6	NNW	0.04	3.5	-17.5	---	---	729.4	0.023	0.000	20.2	3	1
03/04/06	7:09 p	-14.1	-14.1	-14.2	---	---	2.6	NNW	0.04	4.3	-17.4	---	---	729.4	0.023	0.000	20.2	3	1
03/04/06	7:10 p	-14.1	-14.0	-14.1	---	---	2.6	NNW	0.04	4.3	-17.4	---	---	729.3	0.022	0.000	20.2	3	1
03/04/06	7:11 p	-14.0	-13.9	-14.0	---	---	2.6	NNW	0.04	3.5	-17.3	---	---	729.4	0.022	0.000	20.2	3	1
03/04/06	7:12 p	-13.9	-13.8	-13.9	---	---	1.7	NNW	0.03	2.6	-15.8	---	---	729.4	0.022	0.000	20.2	3	1
03/04/06	7:13 p	-13.8	-13.8	-13.8	---	---	0.0	NNW	0.00	1.7	-13.8	---	---	729.4	0.022	0.000	20.2	3	1
03/04/06	7:14 p	-13.7	-13.7	-13.7	---	---	1.7	NNW	0.03	3.5	-15.7	---	---	729.4	0.022	0.000	20.2	3	1
03/04/06	7:15 p	-13.7	-13.7	-13.7	---	---	2.6	NNW	0.04	3.5	-16.9	---	---	729.4	0.022	0.000	20.2	3	1
03/04/06	7:16 p	-13.6	-13.6	-13.6	---	---	3.5	NNW	0.06	4.3	-17.8	---	---	729.3	0.022	0.000	20.2	3	1
03/04/06	7:17 p	-13.6	-13.6	-13.6	---	---	2.6	NNW	0.04	3.5	-16.9	---	---	729.3	0.022	0.000	20.2	3	1
03/04/06	7:18 p	-13.6	-13.6	-13.6	---	---	4.3	NNW	0.07	8.7	-18.7	---	---	729.3	0.022	0.000	20.2	3	1
03/04/06	7:19 p	-13.6	-13.6	-13.6	---	---	6.1	ENE	0.10	7.0	-19.9	---	---	729.3	0.022	0.000	20.2	3	1
03/04/06	7:20 p	-13.6	-13.6	-13.7	---	---	7.0	NE	0.12	8.7	-20.5	---	---	729.4	0.022	0.000	20.2	3	1
03/04/06	7:21 p	-13.7	-13.7	-13.8	---	---	6.1	ENE	0.10	7.8	-20.1	---	---	729.3	0.022	0.000	20.2	3	1
03/04/06	7:22 p	-13.8	-13.8	-13.9	---	---	4.3	NE	0.07	6.1	-18.9	---	---	729.3	0.022	0.000	20.2	3	1
03/04/06	7:23 p	-13.9	-13.9	-14.0	---	---	6.1	NE	0.10	7.0	-20.4	---	---	729.3	0.022	0.000	20.2	3	1
03/04/06	7:24 p	-14.1	-14.1	-14.1	---	---	7.0	NE	0.12	9.6	-21.1	---	---	729.2	0.022	0.000	20.2	3	1
03/04/06	7:25 p	-14.2	-14.1	-14.2	---	---	8.7	NE	0.14	12.2	-22.1	---	---	729.2	0.023	0.000	20.2	3	1
03/04/06	7:26 p	-14.3	-14.2	-14.4	---	---	9.6	NE	0.16	11.3	-22.7	---	---	729.2	0.023	0.000	20.2	3	1
03/04/06	7:27 p	-14.6	-14.6	-14.7	---	---	9.6	NE	0.16	10.4	-23.1	---	---	729.2	0.023	0.000	20.2	3	1
03/04/06	7:28 p	-14.9	-14.8	-15.1	---	---	12.2	NE	0.20	16.5	-24.6	---	---	729.2	0.023	0.000	20.2	3	1
03/04/06	7:29 p	-15.2	-15.2	-15.3	---	---	14.8	NE	0.25	18.3	-25.8	---	---	729.1	0.023	0.000	20.3	3	1
03/04/06	7:30 p	-15.6	-15.5	-15.8	---	---	9.6	NE	0.16	13.0	-24.3	---	---	729.2	0.024	0.000	20.3	3	1
03/04/06	7:31 p	-15.9	-15.9	-16.0	---	---	8.7	NE	0.14	10.4	-24.3	---	---	729.2	0.024	0.000	20.3	3	1
03/04/06	7:32 p	-16.1	-16.1	-16.2	---	---	7.8	NE	0.13	8.7	-24.1	---	---	729.2	0.024	0.000	20.3	3	1
03/04/06	7:33 p	-16.3	-16.3	-16.3	---	---	7.0	NE	0.12	8.7	-23.7	---	---	729.1	0.024	0.000	20.3	3	1
03/04/06	7:34 p	-16.3	-16.3	-16.3	---	---	12.2	NE	0.20	13.9	-26.3	---	---	729.2	0.024	0.000	20.3	3	1
03/04/06	7:35 p	-16.3	-16.3	-16.3	---	---	12.2	NE	0.20	13.9	-26.3	---	---	729.1	0.024	0.000	20.3	3	1
03/04/06	7:36 p	-16.4	-16.4	-16.4	---	---	13.0	NE	0.22	14.8	-26.7	---	---	729.1	0.024	0.000	20.3	3	1
03/04/06	7:37 p	-16.6	-16.6	-16.6	---	---	15.7	NE	0.26	17.4	-27.8	---	---	729.1	0.024	0.000	20.3	3	1
03/04/06	7:38 p	-16.8	-16.7	-16.9	---	---	14.8	NE	0.25	16.5	-27.9	---	---	729.2	0.024	0.000	20.3	3	1
03/04/06	7:39 p	-17.1	-17.1	-17.2	---	---	14.8	NE	0.25	17.4	-28.3	---	---	729.2	0.025	0.000	20.3	3	1
03/04/06	7:40 p	-17.5	-17.4	-17.6	---	---	13.9	NE	0.23	16.5	-28.4	---	---	729.1	0.025	0.000	20.3	3	1
03/04/06	7:41 p	-17.7	-17.7	-17.9	---	---	14.8	NE	0.25	15.7	-29.1	---	---	729.1	0.025	0.000	20.3	3	1
03/04/06	7:42 p	-18.0	-17.9	-18.2	---	---	13.0	NE	0.22	14.8	-28.8	---	---	729.2	0.025	0.000	20.3	3	1
03/04/06	7:43 p	-18.2	-18.2	-18.3	---	---	12.2	NE	0.20	13.0	-28.7	---	---	729.1	0.025	0.000	20.3	3	1
03/04/06	7:44 p	-18.3	-18.3	-18.4	---	---	12.2	NE	0.20	13.0	-28.9	---	---	729.1	0.025	0.000	20.3	3	1
03/04/06	7:45 p	-18.4	-18.3	-18.4	---	---	13.0	NE	0.22	14.8	-29.3	---	---	729.1	0.026	0.000	20.3	3	1
03/04/06	7:46 p	-18.4	-18.4	-18.4	---	---	14.8	NE	0.25	16.5	-29.9	---	---	729.1	0.026	0.000	20.3	3	1
03/04/06	7:47 p	-18.3	-18.3	-18.4	---	---	14.8	NE	0.25	16.5	-29.8	---	---	729.1	0.025	0.000	20.3	3	1
03/04/06	7:48 p	-18.4	-18.4	-18.4	---	---	13.9	NE	0.23	15.7	-29.6	---	---	729.2	0.026	0.000	20.3	3	1
03/04/06	7:49 p	-18.4	-18.4	-18.4	---	---	15.7	NE	0.26	17.4	-30.2	---	---	729.1	0.026	0.000	20.3	3	1
03/04/06	7:50 p	-18.4	-18.4	-18.4	---	---	14.8	NE	0.25	17.4	-29.9	---	---	729.3	0.026	0.000	20.3	3	1
03/04/06	7:51 p	-18.4	-18.4	-18.4	---	---	13.9	NE	0.23	15.7	-29.6	---	---	729.1	0.026	0.000	20.3	3	1
03/04/06	7:52 p	-18.4	-18.4	-18.4	---	---	14.8	NE	0.25	16.5	-29.9	---	---	729.2	0.026	0.000	20.3	3	1
03/04/06	7:53 p	-18.3	-18.3	-18.4	---	---	13.9	NE	0.23	15.7	-29.6	---	---	729.1	0.025	0.000	20.3	3	1
03/04/06	7:54 p	-18.3	-18.3	-18.4	---	---	13.9	NE	0.23	15.7	-29.6	---	---	729.1	0.025	0.000	20.3	3	1
03/04/06	7:55 p	-18.3	-18.3	-18.3	---	---	13.9	NE	0.23	14.8	-29.6	---	---	729.1	0.025	0.000	20.3	3	1
03/04/06	7:56 p	-18.3	-18.3	-18.3	---	---	14.8	NE	0.25	16.5	-29.8	---	---	729.1	0.025	0.000	20.3	3	1
03/04/06	7:57 p	-18.3	-18.3	-18.3	---	---	13.0	NE	0.22	14.8	-29.2	---	---	729.2	0.025	0.000	20.3	3	1
03/04/06	7:58 p	-18.3	-18.2	-18.3	---	---	14.8	NE	0.25	17.4	-29.8	---	---	729.1	0.025	0.000	20.3	3	1
03/04/06	7:59 p	-18.2	-18.2	-18.2	---	---	13.9	NE	0.23	16.5	-29.4	---	---	729.0	0.025	0.000	20.3	3	1
03/04/06	8:00 p	-18.2	-18.2	-18.2	---	---	13.9	NE	0.23	16.5	-29.3	---	---	729.1	0.025	0.000	20.3	3	1
03/04/06	8:01 p	-18.2	-18.1	-18.2	---	---	14.8	NE	0.25	15.7	-29.6	---	---	729.1	0.025	0.000	20.4	3	1
03/04/06	8:02 p	-18.1	-18.1	-18.1	---	---	13.0	NE	0.22	14.8	-28.9	---	---	729.1	0.025	0.000	20.4	3	1
03/04/06	8:03 p	-18.1	-18.0	-18.1	---	---	13.9	NE	0.23	15.7	-29.2	---	---	729.1	0.025	0.000	20.4	3	1
03/04/06	8:04 p	-18.0	-18.0	-18.0	---	---	13.9	NE	0.23	15.7	-29.1	---	---	729.1	0.025	0.000	20.4	3	1
03/04/06	8:05 p	-18.0	-17.9	-18.0	---	---	13.9	NE	0.23	16.5	-29.1	---	---	729.1	0.025	0.000	20.4	3	1
03/04/06	8:06 p	-17.9	-17.9	-17.9	---	---	13.9	NE	0.23	16.5	-29.1	---	---	729.1	0.025	0.000	20.4	3	1
03/04/06	8:07 p	-17.9	-17.9	-17.9	---	---	13.9	NE	0.23	15.7	-28.9	---	---	729.1	0.025	0.000	20.4	3	1
03/04/06	8:08 p	-17.9	-17.8	-17.9	---	---	13.9	NE	0.23	16.5	-28.9	---	---	729.0	0.025	0.000	20.4	3	1
03/04/06	8:09 p	-17.8	-17.8	-17.8	---	---	14.8	NE	0.25	16.5	-29.2	---	---	729.1	0.025	0.000	20.4	3	1
03/04/06	8:10 p	-17.8	-17.8	-17.8	---	---	13.0	NE	0.22	14.8	-28.5	---	---	729.1	0.025	0.000	20.4	3	1
03/04/06	8:11 p	-17.8	-17.8	-17.8	---	---	13.9	NE	0.23	14.8	-28.8	---	---	729.0	0.025	0.000	20.4	3	1
03/04/06	8:12 p	-17.8	-17.7	-17.8	---	---	14.8	NE	0.25	16.5	-29.1	---	---	729.0	0.025	0.000	20.4	3	1
03/04/06	8:13 p	-17.7	-17.7	-17.7	---	---	14.8	NE	0.25	15.7	-29.1	---	---	729.0	0.025	0.000	20.4	3	1
03/04/06	8:14 p	-17.7	-17.7	-17.7	---	---	13.9	NE	0.23	16.5	-28.7	---	---	729.0	0.025	0.000	20.4	3	1
03/04/06	8:15 p	-17.7	-17.7	-17.7	---	---	14.8	NE	0.25	15.7	-29.0	---	---	729.0	0.025	0.000	20.4	3	1
03/04/06	8:16 p	-17.7	-17.7	-17.7	---	---	12.2	NE	0.20	14.8	-28.1	---	---	729.0	0.025	0.000	20.4	3	1
03/04/06	8:17 p	-17.7	-17.7	-17.7	---	---	15.7	NE	0.26	16.5	-29.3	---	---	729.1	0.025	0.000	20.4	3	1
03/04/06	8:18 p	-17.8	-17.7	-17.8	---	---	13.9	NE	0.23	15.7	-28.8	---	---	729.0	0.025	0.000	20.4	3	1
03/04/06	8:19 p	-17.8	-17.8	-17.9	---	---	13.9	NE	0.23	17.4	-28.9	---	---	729.1	0.025	0.000	20.4	3	1
03/04/06	8:20 p	-17.9	-17.9	-18.0	---	---	13.9	NE	0.23	16.5	-29.1	---	---	729.0	0.025	0.000	20.4	3	1
03/04/06	8:21 p	-18.0	-18.0	-18.1	---	---	13.9	NE	0.23	17.4	-29.1	---	---	729.1	0.025	0.000	20.4	3	1
03/04/06	8:22 p	-18.1	-18.1	-18.1	---	---	14.8	NE	0.25	17.4	-29.6	---	---	728.9	0.025	0.000	20.4	3	1
03/04/06	8:23 p	-18.2	-18.2	-18.2	---	---	17.4	NE	0.29	20.0	-30.4	---	---	729.0	0.025	0.000	20.4	3	1
03/04/06	8:24 p	-18.3	-18.3	-18.3	---	---	16.5	NE	0.28	18.3	-30.3	---	---	729.0	0.025	0.000	20.4	3	1
03/04/06	8:25 p	-18.4	-18.3	-18.4	---	---	15.7	NE	0.26	18.3	-30.2	---	---	729.0	0.026	0.000	20.4	3	1
03/04/06	8:26 p	-18.5	-18.4	-18.5	---	---	15.7	NE	0.26	20.0	-30.3	---	---	728.9	0.026	0.000	20.4	3	1
03/04/06	8:27 p	-18.6	-18.6	-18.6	---	---	15.7	NE	0.26	19.1	-30.4	---	---	729.0	0.026	0.000	20.4	3	1
03/04/06	8:28 p	-18.6	-18.6	-18.7	---	---	17.4	NE	0.29	19.1	-31.1	---	---	729.0	0.026	0.000	20.4	3	1
03/04/06	8:29 p	-18.7	-18.7	-18.7	---	---	16.5	NE	0.28	19.1	-30.8	---	---	729.0	0.026	0.000	20.4	3	1
03/04/06	8:30 p	-18.7	-18.7	-18.7	---	---	15.7	NE	0.26	19.1	-30.6	---	---	728.9	0.026	0.000	20.4	3	1
03/04/06	8:31 p	-18.7	-18.7	-18.7	---	---	15.7	NE	0.26	18.3	-30.6	---	---	729.0	0.026	0.000	20.4	3	1
03/04/06	8:32 p	-18.7	-18.7	-18.8	---	---	15.7	NE	0.26	17.4	-30.6	---	---	729.0	0.026	0.000	20.4	3	1
03/04/06	8:33 p	-18.8	-18.7	-18.8	---	---	15.7	NE	0.26	18.3	-30.7	---	---	729.0	0.026	0.000	20.4	3	1
03/04/06	8:34 p	-18.8	-18.8	-18.8	---	---	15.7	NE	0.26	19.1	-30.7	---	---	729.0	0.026	0.000	20.4	3	1
03/04/06	8:35 p	-18.8	-18.8	-18.8	---	---	14.8	NE	0.25	18.3	-30.5	---	---	728.9	0.026	0.000	20.4	3	1
03/04/06	8:36 p	-18.8	-18.8	-18.9	---	---	14.8	NE	0.25	18.3	-30.5	---	---	729.0	0.026	0.000	20.4	3	1
03/04/06	8:37 p	-18.9	-18.9	-18.9	---	---	16.5	NE	0.28	20.0	-31.1	---	---	728.9	0.026	0.000	20.4	3	1
03/04/06	8:38 p	-18.9	-18.9	-18.9	---	---	13.9	NE	0.23	18.3	-30.2	---	---	728.9	0.026	0.000	20.4	3	1
03/04/06	8:39 p	-18.9	-18.9	-18.9	---	---	14.8	NE	0.25	16.5	-30.6	---	---	728.9	0.026	0.000	20.4	3	1
03/04/06	8:40 p	-18.9	-18.9	-18.9	---	---	15.7	NE	0.26	18.3	-30.9	---	---	729.0	0.026	0.000	20.4	3	1
03/04/06	8:41 p	-19.0	-19.0	-19.0	---	---	18.3	NE	0.30	20.0	-31.8	---	---	728.9	0.026	0.000	20.4	3	1
03/04/06	8:42 p	-19.0	-19.0	-19.0	---	---	14.8	NE	0.25	18.3	-30.7	---	---	729.0	0.026	0.000	20.4	3	1
03/04/06	8:43 p	-19.0	-19.0	-19.0	---	---	16.5	NE	0.28	20.0	-31.3	---	---	728.9	0.026	0.000	20.4	3	1
03/04/06	8:44 p	-19.1	-19.0	-19.1	---	---	15.7	ENE	0.26	20.0	-31.1	---	---	729.0	0.026	0.000	20.4	3	1
03/04/06	8:45 p	-19.1	-19.1	-19.1	---	---	13.0	NE	0.22	17.4	-30.1	---	---	728.9	0.026	0.000	20.4	3	1
03/04/06	8:46 p	-19.1	-19.0	-19.1	---	---	17.4	NE	0.29	20.0	-31.6	---	---	728.9	0.026	0.000	20.4	3	1
03/04/06	8:47 p	-19.1	-19.1	-19.1	---	---	12.2	NE	0.20	18.3	-29.8	---	---	729.0	0.026	0.000	20.4	3	1
03/04/06	8:48 p	-19.1	-19.0	-19.1	---	---	14.8	NE	0.25	17.4	-30.8	---	---	728.9	0.026	0.000	20.4	3	1
03/04/06	8:49 p	-19.1	-19.1	-19.1	---	---	14.8	NE	0.25	17.4	-30.8	---	---	728.9	0.026	0.000	20.4	3	1
03/04/06	8:50 p	-19.1	-19.1	-19.1	---	---	17.4	NE	0.29	19.1	-31.6	---	---	728.9	0.026	0.000	20.4	3	1
03/04/06	8:51 p	-19.1	-19.1	-19.1	---	---	14.8	NE	0.25	17.4	-30.8	---	---	728.9	0.026	0.000	20.4	3	1
03/04/06	8:52 p	-19.2	-19.2	-19.2	---	---	15.7	NE	0.26	19.1	-31.3	---	---	728.9	0.026	0.000	20.4	3	1
03/04/06	8:53 p	-19.2	-19.2	-19.2	---	---	14.8	NE	0.25	16.5	-31.0	---	---	728.8	0.026	0.000	20.4	3	1
03/04/06	8:54 p	-19.2	-19.2	-19.3	---	---	15.7	NE	0.26	19.1	-31.3	---	---	728.9	0.026	0.000	20.4	3	1
03/04/06	8:55 p	-19.3	-19.3	-19.3	---	---	15.7	NE	0.26	19.1	-31.3	---	---	728.8	0.026	0.000	20.4	3	1
03/04/06	8:56 p	-19.3	-19.3	-19.3	---	---	16.5	NE	0.28	19.1	-31.7	---	---	728.8	0.026	0.000	20.4	3	1
03/04/06	8:57 p	-19.3	-19.3	-19.3	---	---	13.9	NE	0.23	16.5	-30.8	---	---	728.9	0.026	0.000	20.4	3	1
03/04/06	8:58 p	-19.3	-19.3	-19.3	---	---	15.7	NE	0.26	18.3	-31.4	---	---	728.8	0.026	0.000	20.4	3	1
03/04/06	8:59 p	-19.3	-19.3	-19.3	---	---	17.4	NE	0.29	21.7	-31.9	---	---	728.7	0.026	0.000	20.4	3	1
03/04/06	9:00 p	-19.3	-19.3	-19.3	---	---	16.5	NE	0.28	20.0	-31.7	---	---	728.8	0.026	0.000	20.4	3	1
03/04/06	9:01 p	-19.3	-19.3	-19.3	---	---	18.3	NE	0.30	20.9	-32.2	---	---	728.8	0.026	0.000	20.4	3	1
03/04/06	9:02 p	-19.3	-19.3	-19.3	---	---	18.3	NE	0.30	20.9	-32.2	---	---	728.7	0.026	0.000	20.4	3	1
03/04/06	9:03 p	-19.3	-19.3	-19.3	---	---	17.4	NE	0.29	20.0	-32.0	---	---	728.8	0.026	0.000	20.4	3	1
03/04/06	9:04 p	-19.4	-19.3	-19.4	---	---	17.4	NE	0.29	20.9	-32.1	---	---	728.8	0.026	0.000	20.4	3	1
03/04/06	9:05 p	-19.4	-19.4	-19.4	---	---	15.7	NE	0.26	18.3	-31.5	---	---	728.9	0.026	0.000	20.4	3	1
03/04/06	9:06 p	-19.4	-19.4	-19.5	---	---	18.3	NE	0.30	20.9	-32.4	---	---	728.8	0.026	0.000	20.4	3	1
03/04/06	9:07 p	-19.5	-19.5	-19.5	---	---	16.5	NE	0.28	20.0	-31.9	---	---	728.9	0.026	0.000	20.4	3	1
03/04/06	9:08 p	-19.6	-19.5	-19.6	---	---	18.3	NE	0.30	20.0	-32.6	---	---	728.7	0.026	0.000	20.4	3	1
03/04/06	9:09 p	-19.6	-19.6	-19.6	---	---	16.5	NE	0.28	20.0	-32.0	---	---	728.8	0.026	0.000	20.4	3	1
03/04/06	9:10 p	-19.6	-19.6	-19.6	---	---	16.5	NE	0.28	21.7	-32.1	---	---	728.8	0.026	0.000	20.4	3	1
03/04/06	9:11 p	-19.6	-19.6	-19.6	---	---	15.7	NE	0.26	20.0	-31.8	---	---	728.6	0.026	0.000	20.4	3	1
03/04/06	9:12 p	-19.6	-19.6	-19.6	---	---	16.5	NE	0.28	20.0	-32.1	---	---	728.7	0.026	0.000	20.4	3	1
03/04/06	9:13 p	-19.6	-19.6	-19.6	---	---	16.5	NE	0.28	20.0	-32.0	---	---	728.8	0.026	0.000	20.4	3	1
03/04/06	9:14 p	-19.6	-19.6	-19.6	---	---	16.5	NNE	0.28	19.1	-32.0	---	---	728.8	0.026	0.000	20.4	3	1
03/04/06	9:15 p	-19.6	-19.5	-19.6	---	---	13.9	NE	0.23	20.9	-31.1	---	---	728.7	0.026	0.000	20.4	3	1
03/04/06	9:16 p	-19.5	-19.4	-19.5	---	---	16.5	NE	0.28	20.0	-31.9	---	---	728.7	0.026	0.000	20.4	3	1
03/04/06	9:17 p	-19.4	-19.4	-19.4	---	---	14.8	NE	0.25	20.0	-31.3	---	---	728.7	0.026	0.000	20.4	3	1
03/04/06	9:18 p	-19.4	-19.4	-19.4	---	---	18.3	NE	0.30	20.0	-32.3	---	---	728.7	0.026	0.000	20.4	3	1
03/04/06	9:19 p	-19.4	-19.3	-19.4	---	---	16.5	NE	0.28	22.6	-31.8	---	---	728.6	0.026	0.000	20.4	3	1
03/04/06	9:20 p	-19.3	-19.3	-19.3	---	---	17.4	NE	0.29	21.7	-32.0	---	---	728.6	0.026	0.000	20.5	3	1
03/04/06	9:21 p	-19.3	-19.3	-19.3	---	---	19.1	NE	0.32	22.6	-32.4	---	---	728.6	0.026	0.000	20.5	3	1
03/04/06	9:22 p	-19.3	-19.2	-19.3	---	---	18.3	NE	0.30	22.6	-32.2	---	---	728.7	0.026	0.000	20.5	3	1
03/04/06	9:23 p	-19.2	-19.2	-19.2	---	---	17.4	NE	0.29	20.9	-31.8	---	---	728.8	0.026	0.000	20.5	3	1
03/04/06	9:24 p	-19.2	-19.2	-19.2	---	---	15.7	NE	0.26	20.9	-31.2	---	---	728.6	0.026	0.000	20.5	3	1
03/04/06	9:25 p	-19.2	-19.2	-19.2	---	---	18.3	NE	0.30	21.7	-32.0	---	---	728.6	0.026	0.000	20.5	3	1
03/04/06	9:26 p	-19.1	-19.1	-19.2	---	---	17.4	NE	0.29	20.0	-31.7	---	---	728.7	0.026	0.000	20.5	3	1
03/04/06	9:27 p	-19.1	-19.1	-19.1	---	---	18.3	NE	0.30	20.9	-31.9	---	---	728.7	0.026	0.000	20.5	3	1
03/04/06	9:28 p	-19.1	-19.1	-19.2	---	---	19.1	NE	0.32	24.3	-32.2	---	---	728.7	0.026	0.000	20.5	3	1
03/04/06	9:29 p	-19.1	-19.1	-19.1	---	---	15.7	NE	0.26	20.9	-31.2	---	---	728.6	0.026	0.000	20.5	3	1
03/04/06	9:30 p	-19.1	-19.1	-19.1	---	---	19.1	ENE	0.32	22.6	-32.2	---	---	728.6	0.026	0.000	20.5	3	1
03/04/06	9:31 p	-19.1	-19.0	-19.1	---	---	18.3	NE	0.30	21.7	-31.9	---	---	728.8	0.026	0.000	20.5	3	1
03/04/06	9:32 p	-19.0	-19.0	-19.0	---	---	14.8	NE	0.25	19.1	-30.7	---	---	728.6	0.026	0.000	20.5	3	1
03/04/06	9:33 p	-18.9	-18.9	-18.9	---	---	15.7	NE	0.26	23.5	-30.9	---	---	728.6	0.026	0.000	20.5	3	1
03/04/06	9:34 p	-18.9	-18.9	-18.9	---	---	19.1	NE	0.32	23.5	-32.0	---	---	728.7	0.026	0.000	20.5	3	1
03/04/06	9:35 p	-18.9	-18.9	-18.9	---	---	13.0	NE	0.22	19.1	-30.0	---	---	728.7	0.026	0.000	20.5	3	1
03/04/06	9:36 p	-18.9	-18.9	-18.9	---	---	16.5	NE	0.28	21.7	-31.2	---	---	728.5	0.026	0.000	20.5	3	1
03/04/06	9:37 p	-18.9	-18.9	-18.9	---	---	20.0	NE	0.33	23.5	-32.2	---	---	728.5	0.026	0.000	20.5	3	1
03/04/06	9:38 p	-18.9	-18.9	-18.9	---	---	15.7	NE	0.26	20.9	-30.9	---	---	728.6	0.026	0.000	20.5	3	1
03/04/06	9:39 p	-18.9	-18.9	-18.9	---	---	18.3	NE	0.30	20.9	-31.7	---	---	728.6	0.026	0.000	20.5	3	1
03/04/06	9:40 p	-18.9	-18.9	-19.0	---	---	14.8	NE	0.25	20.9	-30.6	---	---	728.6	0.026	0.000	20.5	3	1
03/04/06	9:41 p	-18.9	-18.9	-18.9	---	---	16.5	NE	0.28	20.0	-31.2	---	---	728.5	0.026	0.000	20.5	3	1
03/04/06	9:42 p	-18.9	-18.9	-18.9	---	---	16.5	NE	0.28	20.0	-31.2	---	---	728.5	0.026	0.000	20.5	3	1
03/04/06	9:43 p	-18.9	-18.9	-18.9	---	---	17.4	NE	0.29	21.7	-31.5	---	---	728.5	0.026	0.000	20.5	3	1
03/04/06	9:44 p	-18.9	-18.9	-18.9	---	---	17.4	NE	0.29	20.9	-31.5	---	---	728.5	0.026	0.000	20.5	3	1
03/04/06	9:45 p	-18.9	-18.9	-18.9	---	---	18.3	NE	0.30	21.7	-31.7	---	---	728.5	0.026	0.000	20.5	3	1
03/04/06	9:46 p	-19.0	-18.9	-19.0	---	---	19.1	NE	0.32	21.7	-32.1	---	---	728.5	0.026	0.000	20.5	3	1
03/04/06	9:47 p	-19.0	-19.0	-19.0	---	---	15.7	NE	0.26	20.9	-31.0	---	---	728.5	0.026	0.000	20.5	3	1
03/04/06	9:48 p	-19.0	-19.0	-19.0	---	---	18.3	NE	0.30	20.0	-31.8	---	---	728.5	0.026	0.000	20.5	3	1
03/04/06	9:49 p	-19.0	-19.0	-19.1	---	---	15.7	NE	0.26	22.6	-31.0	---	---	728.4	0.026	0.000	20.4	3	1
03/04/06	9:50 p	-19.1	-19.1	-19.1	---	---	16.5	NE	0.28	21.7	-31.3	---	---	728.5	0.026	0.000	20.4	3	1
03/04/06	9:51 p	-19.1	-19.0	-19.1	---	---	19.1	NE	0.32	21.7	-32.1	---	---	728.5	0.026	0.000	20.5	3	1
03/04/06	9:52 p	-19.1	-19.1	-19.1	---	---	19.1	NE	0.32	21.7	-32.1	---	---	728.4	0.026	0.000	20.5	3	1
03/04/06	9:53 p	-19.1	-19.1	-19.1	---	---	18.3	NE	0.30	20.9	-31.9	---	---	728.4	0.026	0.000	20.5	3	1
03/04/06	9:54 p	-19.1	-19.1	-19.1	---	---	14.8	NE	0.25	18.3	-30.8	---	---	728.5	0.026	0.000	20.5	3	1
03/04/06	9:55 p	-19.1	-19.1	-19.1	---	---	15.7	NE	0.26	22.6	-31.1	---	---	728.4	0.026	0.000	20.5	3	1
03/04/06	9:56 p	-19.0	-19.0	-19.1	---	---	20.0	ENE	0.33	22.6	-32.3	---	---	728.3	0.026	0.000	20.5	3	1
03/04/06	9:57 p	-19.0	-19.0	-19.0	---	---	19.1	NE	0.32	22.6	-32.1	---	---	728.3	0.026	0.000	20.5	3	1
03/04/06	9:58 p	-19.0	-19.0	-19.0	---	---	16.5	NE	0.28	21.7	-31.3	---	---	728.4	0.026	0.000	20.5	3	1
03/04/06	9:59 p	-19.0	-19.0	-19.0	---	---	17.4	NE	0.29	21.7	-31.6	---	---	728.4	0.026	0.000	20.4	3	1
03/04/06	10:00 p	-19.0	-19.0	-19.0	---	---	16.5	NE	0.28	19.1	-31.3	---	---	728.4	0.026	0.000	20.5	3	1
03/04/06	10:01 p	-19.0	-19.0	-19.1	---	---	15.7	NE	0.26	21.7	-31.0	---	---	728.4	0.026	0.000	20.4	3	1
03/04/06	10:02 p	-19.0	-19.0	-19.0	---	---	19.1	ENE	0.32	25.2	-32.1	---	---	728.3	0.026	0.000	20.4	3	1
03/04/06	10:03 p	-19.0	-19.0	-19.0	---	---	19.1	NE	0.32	27.0	-32.1	---	---	728.3	0.026	0.000	20.4	3	1
03/04/06	10:04 p	-19.0	-19.0	-19.0	---	---	17.4	NE	0.29	20.0	-31.6	---	---	728.3	0.026	0.000	20.4	3	1
03/04/06	10:05 p	-19.0	-19.0	-19.0	---	---	17.4	NE	0.29	22.6	-31.6	---	---	728.4	0.026	0.000	20.4	3	1
03/04/06	10:06 p	-19.0	-19.0	-19.0	---	---	19.1	NE	0.32	22.6	-32.1	---	---	728.3	0.026	0.000	20.4	3	1
03/04/06	10:07 p	-19.0	-19.0	-19.0	---	---	17.4	NE	0.29	21.7	-31.6	---	---	728.4	0.026	0.000	20.5	3	1
03/04/06	10:08 p	-19.0	-19.0	-19.0	---	---	19.1	NE	0.32	23.5	-32.1	---	---	728.4	0.026	0.000	20.4	3	1
03/04/06	10:09 p	-19.0	-19.0	-19.0	---	---	18.3	NE	0.30	22.6	-31.8	---	---	728.3	0.026	0.000	20.4	3	1
03/04/06	10:10 p	-18.9	-18.9	-19.0	---	---	16.5	NNE	0.28	26.1	-31.2	---	---	728.5	0.026	0.000	20.5	3	1
03/04/06	10:11 p	-18.9	-18.9	-18.9	---	---	13.9	NE	0.23	20.9	-30.2	---	---	728.3	0.026	0.000	20.5	3	1
03/04/06	10:12 p	-18.8	-18.8	-18.8	---	---	16.5	NE	0.28	20.9	-31.1	---	---	728.4	0.026	0.000	20.5	3	1
03/04/06	10:13 p	-18.8	-18.8	-18.8	---	---	18.3	NE	0.30	20.0	-31.5	---	---	728.4	0.026	0.000	20.5	3	1
03/04/06	10:14 p	-18.8	-18.8	-18.8	---	---	15.7	NE	0.26	20.0	-30.7	---	---	728.4	0.026	0.000	20.5	3	1
03/04/06	10:15 p	-18.8	-18.8	-18.8	---	---	11.3	NNE	0.19	18.3	-29.1	---	---	728.4	0.026	0.000	20.5	3	1
03/04/06	10:16 p	-18.8	-18.8	-18.8	---	---	15.7	NE	0.26	23.5	-30.7	---	---	728.3	0.026	0.000	20.5	3	1
03/04/06	10:17 p	-18.8	-18.7	-18.8	---	---	18.3	NE	0.30	20.0	-31.5	---	---	728.5	0.026	0.000	20.5	3	1
03/04/06	10:18 p	-18.8	-18.8	-18.8	---	---	13.0	NE	0.22	19.1	-29.8	---	---	728.4	0.026	0.000	20.5	3	1
03/04/06	10:19 p	-18.8	-18.8	-18.8	---	---	17.4	NNE	0.29	20.0	-31.3	---	---	728.4	0.026	0.000	20.5	3	1
03/04/06	10:20 p	-18.8	-18.8	-18.9	---	---	13.9	NE	0.23	18.3	-30.2	---	---	728.4	0.026	0.000	20.5	3	1
03/04/06	10:21 p	-18.8	-18.8	-18.8	---	---	14.8	NE	0.25	20.0	-30.5	---	---	728.3	0.026	0.000	20.5	3	1
03/04/06	10:22 p	-18.8	-18.8	-18.8	---	---	17.4	NE	0.29	23.5	-31.3	---	---	728.3	0.026	0.000	20.5	3	1
03/04/06	10:23 p	-18.8	-18.8	-18.8	---	---	14.8	NNE	0.25	21.7	-30.5	---	---	728.3	0.026	0.000	20.5	3	1
03/04/06	10:24 p	-18.8	-18.8	-18.8	---	---	16.5	NNE	0.28	20.9	-31.1	---	---	728.4	0.026	0.000	20.5	2	1
03/04/06	10:25 p	-18.8	-18.8	-18.8	---	---	14.8	NE	0.25	19.1	-30.5	---	---	728.4	0.026	0.000	20.5	3	1
03/04/06	10:26 p	-18.9	-18.8	-18.9	---	---	14.8	NE	0.25	20.9	-30.6	---	---	728.3	0.026	0.000	20.5	3	1
03/04/06	10:27 p	-18.9	-18.9	-18.9	---	---	15.7	NE	0.26	19.1	-30.8	---	---	728.4	0.026	0.000	20.5	3	1
03/04/06	10:28 p	-18.9	-18.8	-18.9	---	---	16.5	NE	0.28	19.1	-31.1	---	---	728.4	0.026	0.000	20.5	3	1
03/04/06	10:29 p	-18.9	-18.9	-18.9	---	---	17.4	NE	0.29	21.7	-31.4	---	---	728.4	0.026	0.000	20.5	3	1
03/04/06	10:30 p	-18.9	-18.9	-18.9	---	---	15.7	NE	0.26	19.1	-30.8	---	---	728.4	0.026	0.000	20.5	2	1
03/04/06	10:31 p	-18.9	-18.9	-18.9	---	---	14.8	NNE	0.25	19.1	-30.6	---	---	728.4	0.026	0.000	20.5	3	1
03/04/06	10:32 p	-18.9	-18.9	-18.9	---	---	15.7	NNE	0.26	19.1	-30.8	---	---	728.4	0.026	0.000	20.5	2	1
03/04/06	10:33 p	-18.9	-18.9	-18.9	---	---	16.5	NE	0.28	21.7	-31.1	---	---	728.4	0.026	0.000	20.5	2	1
03/04/06	10:34 p	-18.9	-18.9	-18.9	---	---	14.8	NNE	0.25	17.4	-30.6	---	---	728.3	0.026	0.000	20.5	3	1
03/04/06	10:35 p	-18.9	-18.9	-18.9	---	---	17.4	NE	0.29	21.7	-31.5	---	---	728.3	0.026	0.000	20.4	2	1
03/04/06	10:36 p	-19.0	-18.9	-19.0	---	---	16.5	NNE	0.28	20.9	-31.3	---	---	728.5	0.026	0.000	20.4	3	1
03/04/06	10:37 p	-19.0	-19.0	-19.1	---	---	17.4	NNE	0.29	20.9	-31.6	---	---	728.4	0.026	0.000	20.4	3	1
03/04/06	10:38 p	-19.1	-19.0	-19.1	---	---	18.3	NE	0.30	21.7	-31.9	---	---	728.4	0.026	0.000	20.4	3	1
03/04/06	10:39 p	-19.1	-19.1	-19.1	---	---	17.4	NE	0.29	23.5	-31.6	---	---	728.5	0.026	0.000	20.4	2	1
03/04/06	10:40 p	-19.1	-19.1	-19.1	---	---	16.5	NNE	0.28	19.1	-31.3	---	---	728.5	0.026	0.000	20.5	2	1
03/04/06	10:41 p	-19.0	-19.0	-19.0	---	---	17.4	NE	0.29	20.9	-31.6	---	---	728.4	0.026	0.000	20.4	3	1
03/04/06	10:42 p	-19.0	-19.0	-19.0	---	---	16.5	NE	0.28	20.0	-31.3	---	---	728.4	0.026	0.000	20.4	3	1
03/04/06	10:43 p	-18.9	-18.9	-19.0	---	---	15.7	NE	0.26	19.1	-30.9	---	---	728.4	0.026	0.000	20.4	3	1
03/04/06	10:44 p	-18.9	-18.9	-18.9	---	---	13.9	NNE	0.23	16.5	-30.3	---	---	728.4	0.026	0.000	20.4	3	1
03/04/06	10:45 p	-18.9	-18.9	-18.9	---	---	17.4	NE	0.29	21.7	-31.5	---	---	728.3	0.026	0.000	20.4	3	1
03/04/06	10:46 p	-18.9	-18.9	-18.9	---	---	16.5	NE	0.28	19.1	-31.2	---	---	728.4	0.026	0.000	20.4	2	1
03/04/06	10:47 p	-19.0	-18.9	-19.0	---	---	17.4	NE	0.29	20.0	-31.6	---	---	728.3	0.026	0.000	20.4	3	1
03/04/06	10:48 p	-19.1	-19.1	-19.1	---	---	18.3	NE	0.30	20.9	-31.9	---	---	728.4	0.026	0.000	20.4	2	1
03/04/06	10:49 p	-19.1	-19.1	-19.1	---	---	16.5	NNE	0.28	18.3	-31.4	---	---	728.3	0.026	0.000	20.4	2	1
03/04/06	10:50 p	-19.1	-19.1	-19.1	---	---	13.9	NNE	0.23	18.3	-30.4	---	---	728.3	0.026	0.000	20.4	3	1
03/04/06	10:51 p	-19.1	-19.1	-19.1	---	---	15.7	NE	0.26	19.1	-31.1	---	---	728.4	0.026	0.000	20.4	3	1
03/04/06	10:52 p	-19.0	-19.0	-19.0	---	---	13.9	NNE	0.23	19.1	-30.4	---	---	728.4	0.026	0.000	20.4	2	1
03/04/06	10:53 p	-19.0	-19.0	-19.0	---	---	13.9	NE	0.23	20.0	-30.4	---	---	728.3	0.026	0.000	20.4	3	1
03/04/06	10:54 p	-18.9	-18.9	-18.9	---	---	14.8	NNE	0.25	20.0	-30.6	---	---	728.4	0.026	0.000	20.4	2	1
03/04/06	10:55 p	-18.9	-18.9	-18.9	---	---	13.9	NNE	0.23	17.4	-30.3	---	---	728.4	0.026	0.000	20.4	3	1
03/04/06	10:56 p	-18.9	-18.9	-18.9	---	---	15.7	NE	0.26	21.7	-30.9	---	---	728.4	0.026	0.000	20.4	3	1
03/04/06	10:57 p	-18.9	-18.8	-18.9	---	---	15.7	NE	0.26	21.7	-30.8	---	---	728.3	0.026	0.000	20.4	2	1
03/04/06	10:58 p	-18.8	-18.8	-18.8	---	---	15.7	NE	0.26	19.1	-30.7	---	---	728.4	0.026	0.000	20.4	2	1
03/04/06	10:59 p	-18.7	-18.7	-18.8	---	---	13.9	NE	0.23	18.3	-30.1	---	---	728.4	0.026	0.000	20.4	3	1
03/04/06	11:00 p	-18.6	-18.6	-18.7	---	---	15.7	NNE	0.26	21.7	-30.5	---	---	728.4	0.026	0.000	20.4	3	1
03/04/06	11:01 p	-18.6	-18.6	-18.6	---	---	15.7	NE	0.26	20.9	-30.4	---	---	728.3	0.026	0.000	20.4	2	1
03/04/06	11:02 p	-18.5	-18.4	-18.5	---	---	15.7	NE	0.26	18.3	-30.3	---	---	728.3	0.026	0.000	20.4	2	1
03/04/06	11:03 p	-18.4	-18.4	-18.4	---	---	13.9	NE	0.23	16.5	-29.7	---	---	728.2	0.026	0.000	20.4	2	1
03/04/06	11:04 p	-18.4	-18.4	-18.4	---	---	13.9	NNE	0.23	18.3	-29.6	---	---	728.2	0.026	0.000	20.4	2	1
03/04/06	11:05 p	-18.3	-18.3	-18.4	---	---	15.7	NE	0.26	19.1	-30.1	---	---	728.2	0.025	0.000	20.4	3	1
03/04/06	11:06 p	-18.3	-18.3	-18.3	---	---	17.4	NE	0.29	20.0	-30.7	---	---	728.3	0.025	0.000	20.4	2	1
03/04/06	11:07 p	-18.3	-18.3	-18.3	---	---	13.9	NE	0.23	17.4	-29.6	---	---	728.3	0.025	0.000	20.4	2	1
03/04/06	11:08 p	-18.3	-18.3	-18.3	---	---	13.9	NE	0.23	19.1	-29.6	---	---	728.2	0.025	0.000	20.4	2	1
03/04/06	11:09 p	-18.3	-18.3	-18.3	---	---	14.8	NE	0.25	17.4	-29.8	---	---	728.2	0.025	0.000	20.4	3	1
03/04/06	11:10 p	-18.2	-18.2	-18.3	---	---	13.9	NE	0.23	18.3	-29.4	---	---	728.3	0.025	0.000	20.4	2	1
03/04/06	11:11 p	-18.2	-18.2	-18.2	---	---	14.8	NE	0.25	16.5	-29.7	---	---	728.2	0.025	0.000	20.4	2	1
03/04/06	11:12 p	-18.2	-18.2	-18.2	---	---	15.7	NE	0.26	19.1	-29.9	---	---	728.2	0.025	0.000	20.4	2	1
03/04/06	11:13 p	-18.2	-18.2	-18.2	---	---	16.5	NE	0.28	17.4	-30.2	---	---	728.2	0.025	0.000	20.4	2	1
03/04/06	11:14 p	-18.3	-18.2	-18.3	---	---	13.0	NE	0.22	16.5	-29.2	---	---	728.3	0.025	0.000	20.4	2	1
03/04/06	11:15 p	-18.2	-18.2	-18.2	---	---	13.9	NE	0.23	16.5	-29.4	---	---	728.2	0.025	0.000	20.4	2	1
03/04/06	11:16 p	-18.2	-18.2	-18.2	---	---	15.7	NE	0.26	17.4	-30.0	---	---	728.1	0.025	0.000	20.4	2	1
03/04/06	11:17 p	-18.2	-18.2	-18.2	---	---	13.0	NE	0.22	17.4	-29.1	---	---	728.2	0.025	0.000	20.4	2	1
03/04/06	11:18 p	-18.1	-18.1	-18.2	---	---	11.3	NE	0.19	16.5	-28.2	---	---	728.2	0.025	0.000	20.4	3	1
03/04/06	11:19 p	-18.1	-18.0	-18.1	---	---	16.5	NE	0.28	17.4	-30.1	---	---	728.2	0.025	0.000	20.4	2	1
03/04/06	11:20 p	-17.9	-17.9	-17.9	---	---	15.7	NE	0.26	18.3	-29.6	---	---	728.1	0.025	0.000	20.4	2	1
03/04/06	11:21 p	-17.9	-17.8	-17.9	---	---	15.7	NE	0.26	18.3	-29.6	---	---	728.2	0.025	0.000	20.4	2	1
03/04/06	11:22 p	-17.8	-17.8	-17.8	---	---	14.8	NE	0.25	17.4	-29.2	---	---	728.2	0.025	0.000	20.4	3	1
03/04/06	11:23 p	-17.8	-17.8	-17.8	---	---	15.7	NE	0.26	20.0	-29.4	---	---	728.1	0.025	0.000	20.4	2	1
03/04/06	11:24 p	-17.7	-17.7	-17.8	---	---	14.8	NE	0.25	17.4	-29.1	---	---	728.1	0.025	0.000	20.4	2	1
03/04/06	11:25 p	-17.7	-17.6	-17.7	---	---	12.2	NNE	0.20	17.4	-28.0	---	---	728.1	0.025	0.000	20.4	2	1
03/04/06	11:26 p	-17.6	-17.5	-17.6	---	---	16.5	NE	0.28	21.7	-29.4	---	---	728.1	0.025	0.000	20.4	2	1
03/04/06	11:27 p	-17.4	-17.4	-17.5	---	---	13.9	NE	0.23	17.4	-28.4	---	---	728.1	0.025	0.000	20.4	3	1
03/04/06	11:28 p	-17.4	-17.4	-17.4	---	---	13.9	NE	0.23	16.5	-28.3	---	---	728.1	0.025	0.000	20.4	2	1
03/04/06	11:29 p	-17.3	-17.3	-17.4	---	---	13.0	NE	0.22	17.4	-27.9	---	---	728.2	0.025	0.000	20.4	2	1
03/04/06	11:30 p	-17.2	-17.2	-17.3	---	---	15.7	NE	0.26	18.3	-28.7	---	---	728.2	0.025	0.000	20.4	2	1
03/04/06	11:31 p	-17.3	-17.3	-17.3	---	---	12.2	NE	0.20	15.7	-27.5	---	---	728.2	0.025	0.000	20.4	2	1
03/04/06	11:32 p	-17.2	-17.2	-17.2	---	---	15.7	NE	0.26	19.1	-28.7	---	---	728.1	0.025	0.000	20.4	2	1
03/04/06	11:33 p	-17.2	-17.2	-17.2	---	---	13.0	NE	0.22	17.4	-27.7	---	---	728.2	0.025	0.000	20.4	2	1
03/04/06	11:34 p	-17.1	-17.1	-17.2	---	---	13.0	NE	0.22	19.1	-27.7	---	---	728.1	0.025	0.000	20.4	2	1
03/04/06	11:35 p	-17.1	-17.1	-17.1	---	---	14.8	NE	0.25	18.3	-28.2	---	---	728.1	0.025	0.000	20.4	2	1
03/04/06	11:36 p	-17.0	-17.0	-17.1	---	---	14.8	NE	0.25	17.4	-28.1	---	---	728.1	0.025	0.000	20.4	2	1
03/04/06	11:37 p	-17.0	-17.0	-17.1	---	---	13.0	NE	0.22	19.1	-27.5	---	---	728.2	0.025	0.000	20.4	2	1
03/04/06	11:38 p	-17.1	-17.0	-17.1	---	---	12.2	NE	0.20	16.5	-27.2	---	---	728.1	0.025	0.000	20.4	2	1
03/04/06	11:39 p	-17.0	-17.0	-17.0	---	---	15.7	NE	0.26	19.1	-28.4	---	---	728.0	0.025	0.000	20.4	2	1
03/04/06	11:40 p	-17.0	-17.0	-17.0	---	---	15.7	NE	0.26	18.3	-28.4	---	---	728.1	0.025	0.000	20.4	2	1
03/04/06	11:41 p	-17.0	-17.0	-17.0	---	---	14.8	NE	0.25	18.3	-28.1	---	---	728.0	0.025	0.000	20.4	2	1
03/04/06	11:42 p	-17.0	-17.0	-17.0	---	---	16.5	NE	0.28	18.3	-28.7	---	---	728.0	0.025	0.000	20.4	2	1
03/04/06	11:43 p	-16.9	-16.9	-17.0	---	---	14.8	NE	0.25	16.5	-28.1	---	---	728.1	0.024	0.000	20.4	2	1
03/04/06	11:44 p	-16.9	-16.9	-16.9	---	---	15.7	NE	0.26	17.4	-28.3	---	---	728.0	0.024	0.000	20.4	2	1
03/04/06	11:45 p	-16.9	-16.9	-16.9	---	---	13.9	NE	0.23	16.5	-27.7	---	---	728.1	0.024	0.000	20.4	2	1
03/04/06	11:46 p	-16.9	-16.9	-16.9	---	---	15.7	NE	0.26	18.3	-28.3	---	---	728.1	0.024	0.000	20.4	2	1
03/04/06	11:47 p	-16.9	-16.9	-16.9	---	---	14.8	NE	0.25	19.1	-28.1	---	---	728.1	0.024	0.000	20.4	2	1
03/04/06	11:48 p	-16.9	-16.9	-16.9	---	---	14.8	NE	0.25	20.0	-27.9	---	---	727.9	0.024	0.000	20.4	2	1
03/04/06	11:49 p	-16.9	-16.9	-16.9	---	---	13.9	NE	0.23	20.9	-27.7	---	---	728.1	0.024	0.000	20.4	2	1
03/04/06	11:50 p	-16.9	-16.9	-16.9	---	---	14.8	NE	0.25	18.3	-27.9	---	---	728.0	0.024	0.000	20.4	2	1
03/04/06	11:51 p	-16.9	-16.9	-16.9	---	---	13.9	NE	0.23	16.5	-27.7	---	---	728.1	0.024	0.000	20.4	2	1
03/04/06	11:52 p	-16.9	-16.8	-16.9	---	---	15.7	NE	0.26	19.1	-28.2	---	---	728.0	0.024	0.000	20.4	2	1
03/04/06	11:53 p	-16.9	-16.9	-16.9	---	---	15.7	NE	0.26	17.4	-28.2	---	---	728.0	0.024	0.000	20.4	2	1
03/04/06	11:54 p	-17.0	-16.9	-17.0	---	---	15.7	NE	0.26	19.1	-28.4	---	---	728.0	0.025	0.000	20.4	2	1
03/04/06	11:55 p	-17.0	-17.0	-17.1	---	---	13.9	NE	0.23	18.3	-27.8	---	---	728.0	0.025	0.000	20.4	2	1
03/04/06	11:56 p	-17.0	-16.9	-17.0	---	---	14.8	NE	0.25	19.1	-28.1	---	---	728.0	0.025	0.000	20.4	2	1
03/04/06	11:57 p	-16.9	-16.9	-16.9	---	---	15.7	NE	0.26	20.0	-28.3	---	---	727.9	0.024	0.000	20.4	2	1
03/04/06	11:58 p	-16.9	-16.9	-16.9	---	---	13.9	NE	0.23	18.3	-27.7	---	---	728.0	0.024	0.000	20.4	3	1
03/04/06	11:59 p	-16.9	-16.9	-16.9	---	---	13.9	NNE	0.23	17.4	-27.7	---	---	728.0	0.024	0.000	20.4	2	1
03/05/06	12:00 a	-16.8	-16.8	-16.8	---	---	13.0	NNE	0.22	17.4	-27.3	---	---	728.0	0.024	0.000	20.4	2	1
03/05/06	12:01 a	-16.8	-16.7	-16.8	---	---	15.7	NE	0.26	17.4	-28.1	---	---	727.9	0.024	0.000	20.4	2	1
03/05/06	12:02 a	-16.8	-16.8	-16.9	---	---	16.5	NE	0.28	17.4	-28.4	---	---	727.9	0.024	0.000	20.4	2	1
03/05/06	12:03 a	-16.9	-16.9	-16.9	---	---	14.8	NE	0.25	17.4	-27.9	---	---	728.0	0.024	0.000	20.4	2	1
03/05/06	12:04 a	-16.9	-16.9	-16.9	---	---	13.9	NE	0.23	17.4	-27.7	---	---	727.9	0.024	0.000	20.4	2	1
03/05/06	12:05 a	-16.9	-16.9	-16.9	---	---	14.8	NE	0.25	16.5	-28.1	---	---	727.9	0.024	0.000	20.4	2	1
03/05/06	12:06 a	-16.9	-16.9	-16.9	---	---	14.8	NE	0.25	18.3	-28.1	---	---	727.8	0.024	0.000	20.4	2	1
03/05/06	12:07 a	-16.9	-16.9	-17.0	---	---	12.2	NE	0.20	16.5	-27.1	---	---	727.9	0.024	0.000	20.4	2	1
03/05/06	12:08 a	-16.9	-16.9	-16.9	---	---	17.4	NE	0.29	21.7	-28.8	---	---	727.8	0.024	0.000	20.4	2	1
03/05/06	12:09 a	-16.9	-16.9	-16.9	---	---	14.8	NE	0.25	18.3	-28.1	---	---	727.9	0.024	0.000	20.4	2	1
03/05/06	12:10 a	-16.8	-16.8	-16.9	---	---	15.7	NE	0.26	18.3	-28.2	---	---	727.9	0.024	0.000	20.4	2	1
03/05/06	12:11 a	-16.8	-16.8	-16.8	---	---	14.8	NE	0.25	17.4	-27.9	---	---	727.9	0.024	0.000	20.4	2	1
03/05/06	12:12 a	-16.8	-16.8	-16.8	---	---	16.5	NE	0.28	18.3	-28.4	---	---	727.9	0.024	0.000	20.4	2	1
03/05/06	12:13 a	-16.9	-16.9	-16.9	---	---	13.9	NE	0.23	17.4	-27.7	---	---	727.9	0.024	0.000	20.4	2	1
03/05/06	12:14 a	-16.9	-16.8	-16.9	---	---	11.3	NE	0.19	15.7	-26.7	---	---	727.9	0.024	0.000	20.4	2	1
03/05/06	12:15 a	-16.8	-16.7	-16.8	---	---	15.7	NE	0.26	18.3	-28.1	---	---	727.8	0.024	0.000	20.4	2	1
03/05/06	12:16 a	-16.7	-16.7	-16.8	---	---	14.8	NE	0.25	20.0	-27.8	---	---	727.9	0.024	0.000	20.4	2	1
03/05/06	12:17 a	-16.7	-16.7	-16.7	---	---	13.9	NE	0.23	15.7	-27.4	---	---	727.9	0.024	0.000	20.4	2	1
03/05/06	12:18 a	-16.7	-16.6	-16.7	---	---	14.8	NE	0.25	19.1	-27.7	---	---	727.9	0.024	0.000	20.4	2	1
03/05/06	12:19 a	-16.6	-16.6	-16.6	---	---	15.7	NE	0.26	18.3	-27.9	---	---	727.8	0.024	0.000	20.4	2	1
03/05/06	12:20 a	-16.6	-16.6	-16.6	---	---	16.5	NE	0.28	21.7	-28.1	---	---	727.8	0.024	0.000	20.4	2	1
03/05/06	12:21 a	-16.6	-16.5	-16.6	---	---	11.3	NNE	0.19	19.1	-26.3	---	---	728.0	0.024	0.000	20.4	2	1
03/05/06	12:22 a	-16.4	-16.3	-16.4	---	---	14.8	NE	0.25	20.0	-27.3	---	---	727.9	0.024	0.000	20.4	2	1
03/05/06	12:23 a	-16.3	-16.3	-16.3	---	---	13.9	NE	0.23	17.4	-26.9	---	---	727.9	0.024	0.000	20.4	2	1
03/05/06	12:24 a	-16.3	-16.3	-16.3	---	---	13.0	NE	0.22	14.8	-26.7	---	---	728.0	0.024	0.000	20.4	2	1
03/05/06	12:25 a	-16.3	-16.3	-16.3	---	---	12.2	NE	0.20	14.8	-26.3	---	---	727.9	0.024	0.000	20.4	2	1
03/05/06	12:26 a	-16.3	-16.3	-16.3	---	---	13.0	NE	0.22	16.5	-26.6	---	---	727.9	0.024	0.000	20.4	2	1
03/05/06	12:27 a	-16.3	-16.2	-16.3	---	---	13.9	NE	0.23	16.5	-26.9	---	---	727.9	0.024	0.000	20.4	2	1
03/05/06	12:28 a	-16.3	-16.3	-16.3	---	---	13.0	NE	0.22	17.4	-26.6	---	---	727.9	0.024	0.000	20.4	2	1
03/05/06	12:29 a	-16.3	-16.3	-16.3	---	---	15.7	NE	0.26	19.1	-27.4	---	---	727.9	0.024	0.000	20.4	2	1
03/05/06	12:30 a	-16.4	-16.3	-16.4	---	---	16.5	NE	0.28	20.0	-27.9	---	---	727.9	0.024	0.000	20.4	2	1
03/05/06	12:31 a	-16.5	-16.5	-16.6	---	---	14.8	NE	0.25	20.0	-27.4	---	---	728.0	0.024	0.000	20.4	2	1
03/05/06	12:32 a	-16.5	-16.4	-16.5	---	---	12.2	NNE	0.20	17.4	-26.6	---	---	727.9	0.024	0.000	20.4	2	1
03/05/06	12:33 a	-16.3	-16.3	-16.4	---	---	13.0	NNE	0.22	17.4	-26.7	---	---	728.0	0.024	0.000	20.4	2	1
03/05/06	12:34 a	-16.2	-16.2	-16.3	---	---	13.0	NE	0.22	19.1	-26.5	---	---	727.9	0.024	0.000	20.4	2	1
03/05/06	12:35 a	-16.2	-16.2	-16.2	---	---	12.2	NNE	0.20	16.5	-26.1	---	---	727.8	0.024	0.000	20.4	2	1
03/05/06	12:36 a	-16.2	-16.2	-16.2	---	---	13.9	NE	0.23	17.4	-26.7	---	---	727.8	0.024	0.000	20.4	2	1
03/05/06	12:37 a	-16.2	-16.1	-16.2	---	---	13.9	NE	0.23	16.5	-26.7	---	---	727.9	0.024	0.000	20.4	2	1
03/05/06	12:38 a	-16.1	-16.1	-16.1	---	---	13.9	NE	0.23	16.5	-26.7	---	---	727.8	0.024	0.000	20.4	2	1
03/05/06	12:39 a	-16.1	-16.1	-16.1	---	---	12.2	NE	0.20	17.4	-26.1	---	---	727.7	0.024	0.000	20.4	2	1
03/05/06	12:40 a	-16.1	-16.1	-16.1	---	---	12.2	NE	0.20	14.8	-25.9	---	---	727.8	0.024	0.000	20.4	2	1
03/05/06	12:41 a	-16.0	-15.9	-16.1	---	---	12.2	NE	0.20	14.8	-25.9	---	---	727.8	0.024	0.000	20.4	2	1
03/05/06	12:42 a	-15.9	-15.9	-15.9	---	---	13.9	NE	0.23	16.5	-26.4	---	---	727.7	0.024	0.000	20.4	2	1
03/05/06	12:43 a	-15.9	-15.9	-15.9	---	---	15.7	NE	0.26	17.4	-26.9	---	---	727.8	0.024	0.000	20.5	2	1
03/05/06	12:44 a	-15.9	-15.9	-15.9	---	---	10.4	NNE	0.17	14.8	-25.1	---	---	727.7	0.024	0.000	20.5	2	1
03/05/06	12:45 a	-15.9	-15.8	-15.9	---	---	13.9	NE	0.23	17.4	-26.4	---	---	727.7	0.024	0.000	20.5	2	1
03/05/06	12:46 a	-15.9	-15.9	-15.9	---	---	14.8	NE	0.25	17.4	-26.7	---	---	727.7	0.024	0.000	20.5	2	1
03/05/06	12:47 a	-15.9	-15.9	-16.0	---	---	13.0	NE	0.22	14.8	-26.2	---	---	727.7	0.024	0.000	20.5	2	1
03/05/06	12:48 a	-16.1	-16.0	-16.1	---	---	13.0	NE	0.22	17.4	-26.3	---	---	727.6	0.024	0.000	20.5	2	1
03/05/06	12:49 a	-16.1	-16.1	-16.2	---	---	14.8	NE	0.25	19.1	-26.9	---	---	727.6	0.024	0.000	20.5	2	1
03/05/06	12:50 a	-16.1	-16.1	-16.2	---	---	13.0	NE	0.22	16.5	-26.4	---	---	727.6	0.024	0.000	20.5	2	1
03/05/06	12:51 a	-16.1	-16.1	-16.1	---	---	13.0	NE	0.22	18.3	-26.4	---	---	727.7	0.024	0.000	20.5	2	1
03/05/06	12:52 a	-15.9	-15.9	-16.1	---	---	12.2	NE	0.20	14.8	-25.8	---	---	727.7	0.024	0.000	20.5	2	1
03/05/06	12:53 a	-15.9	-15.8	-15.9	---	---	13.9	NE	0.23	18.3	-26.4	---	---	727.7	0.024	0.000	20.5	2	1
03/05/06	12:54 a	-15.9	-15.8	-15.9	---	---	14.8	NE	0.25	19.1	-26.7	---	---	727.6	0.024	0.000	20.5	2	1
03/05/06	12:55 a	-15.9	-15.9	-16.0	---	---	15.7	NE	0.26	19.1	-27.0	---	---	727.6	0.024	0.000	20.5	2	1
03/05/06	12:56 a	-16.0	-16.0	-16.1	---	---	15.7	NE	0.26	20.0	-27.1	---	---	727.7	0.024	0.000	20.5	2	1
03/05/06	12:57 a	-16.2	-16.1	-16.2	---	---	16.5	NE	0.28	19.1	-27.6	---	---	727.6	0.024	0.000	20.6	2	1
03/05/06	12:58 a	-16.2	-16.2	-16.3	---	---	14.8	NE	0.25	16.5	-27.1	---	---	727.7	0.024	0.000	20.6	2	1
03/05/06	12:59 a	-16.3	-16.2	-16.3	---	---	13.9	NE	0.23	16.5	-26.9	---	---	727.6	0.024	0.000	20.5	2	1
03/05/06	1:00 a	-16.2	-16.1	-16.2	---	---	9.6	NNE	0.16	13.9	-25.0	---	---	727.7	0.024	0.000	20.6	2	1
03/05/06	1:01 a	-16.1	-16.1	-16.1	---	---	14.8	NE	0.25	20.0	-26.9	---	---	727.6	0.024	0.000	20.5	2	1
03/05/06	1:02 a	-16.1	-16.1	-16.1	---	---	15.7	NE	0.26	18.3	-27.2	---	---	727.6	0.024	0.000	20.5	2	1
03/05/06	1:03 a	-16.2	-16.2	-16.3	---	---	13.9	NE	0.23	16.5	-26.7	---	---	727.5	0.024	0.000	20.5	2	1
03/05/06	1:04 a	-16.3	-16.3	-16.4	---	---	9.6	NE	0.16	12.2	-25.2	---	---	727.6	0.024	0.000	20.5	2	1
03/05/06	1:05 a	-16.3	-16.3	-16.3	---	---	13.0	NE	0.22	16.5	-26.7	---	---	727.5	0.024	0.000	20.5	2	1
03/05/06	1:06 a	-16.3	-16.3	-16.3	---	---	17.4	NE	0.29	19.1	-28.1	---	---	727.6	0.024	0.000	20.5	2	1
03/05/06	1:07 a	-16.3	-16.3	-16.3	---	---	13.0	NE	0.22	14.8	-26.7	---	---	727.5	0.024	0.000	20.5	2	1
03/05/06	1:08 a	-16.3	-16.3	-16.3	---	---	14.8	NE	0.25	18.3	-27.2	---	---	727.5	0.024	0.000	20.5	2	1
03/05/06	1:09 a	-16.2	-16.2	-16.2	---	---	13.0	NE	0.22	16.5	-26.5	---	---	727.4	0.024	0.000	20.5	2	1
03/05/06	1:10 a	-16.2	-16.2	-16.2	---	---	13.9	NE	0.23	17.4	-26.8	---	---	727.5	0.024	0.000	20.5	2	1
03/05/06	1:11 a	-16.3	-16.3	-16.3	---	---	14.8	NE	0.25	19.1	-27.2	---	---	727.4	0.024	0.000	20.5	2	1
03/05/06	1:12 a	-16.2	-16.2	-16.2	---	---	15.7	NE	0.26	20.9	-27.3	---	---	727.5	0.024	0.000	20.5	2	1
03/05/06	1:13 a	-16.1	-16.1	-16.1	---	---	13.9	NNE	0.23	16.5	-26.7	---	---	727.5	0.024	0.000	20.5	2	1
03/05/06	1:14 a	-16.1	-16.0	-16.1	---	---	14.8	NNE	0.25	18.3	-26.9	---	---	727.5	0.024	0.000	20.5	2	1
03/05/06	1:15 a	-16.0	-16.0	-16.0	---	---	11.3	NE	0.19	16.5	-25.6	---	---	727.4	0.024	0.000	20.5	2	1
03/05/06	1:16 a	-16.0	-16.0	-16.1	---	---	14.8	NE	0.25	16.5	-26.8	---	---	727.4	0.024	0.000	20.5	2	1
03/05/06	1:17 a	-16.1	-16.1	-16.1	---	---	13.9	NE	0.23	15.7	-26.7	---	---	727.4	0.024	0.000	20.5	2	1
03/05/06	1:18 a	-16.1	-16.1	-16.1	---	---	13.9	NE	0.23	15.7	-26.7	---	---	727.4	0.024	0.000	20.5	2	1
03/05/06	1:19 a	-16.1	-16.1	-16.1	---	---	13.9	NNE	0.23	18.3	-26.7	---	---	727.6	0.024	0.000	20.5	2	1
03/05/06	1:20 a	-16.0	-15.9	-16.1	---	---	9.6	N	0.16	13.0	-24.8	---	---	727.5	0.024	0.000	20.5	2	1
03/05/06	1:21 a	-15.9	-15.9	-15.9	---	---	12.2	NNE	0.20	16.5	-25.8	---	---	727.5	0.024	0.000	20.5	2	1
03/05/06	1:22 a	-16.1	-16.1	-16.1	---	---	11.3	NE	0.19	14.8	-25.6	---	---	727.4	0.024	0.000	20.5	2	1
03/05/06	1:23 a	-16.1	-16.1	-16.1	---	---	15.7	NE	0.26	17.4	-27.2	---	---	727.4	0.024	0.000	20.5	2	1
03/05/06	1:24 a	-16.0	-16.0	-16.1	---	---	13.0	NE	0.22	15.7	-26.2	---	---	727.5	0.024	0.000	20.5	2	1
03/05/06	1:25 a	-16.0	-16.0	-16.0	---	---	13.0	NE	0.22	16.5	-26.2	---	---	727.4	0.024	0.000	20.5	2	1
03/05/06	1:26 a	-15.9	-15.9	-16.0	---	---	13.0	NNE	0.22	18.3	-26.2	---	---	727.4	0.024	0.000	20.5	2	1
03/05/06	1:27 a	-16.0	-16.0	-16.1	---	---	13.0	NE	0.22	13.9	-26.2	---	---	727.3	0.024	0.000	20.5	2	1
03/05/06	1:28 a	-15.9	-15.9	-15.9	---	---	13.9	NE	0.23	16.5	-26.4	---	---	727.4	0.024	0.000	20.5	2	1
03/05/06	1:29 a	-15.8	-15.8	-15.8	---	---	12.2	NE	0.20	13.9	-25.7	---	---	727.4	0.024	0.000	20.5	2	1
03/05/06	1:30 a	-15.8	-15.8	-15.8	---	---	10.4	NE	0.17	14.8	-24.9	---	---	727.3	0.024	0.000	20.5	2	1
03/05/06	1:31 a	-15.7	-15.7	-15.7	---	---	13.9	NE	0.23	14.8	-26.2	---	---	727.3	0.024	0.000	20.5	2	1
03/05/06	1:32 a	-15.7	-15.7	-15.7	---	---	12.2	NNE	0.20	13.9	-25.6	---	---	727.3	0.024	0.000	20.5	2	1
03/05/06	1:33 a	-15.7	-15.6	-15.7	---	---	11.3	N	0.19	15.7	-25.1	---	---	727.4	0.024	0.000	20.5	2	1
03/05/06	1:34 a	-15.6	-15.6	-15.6	---	---	11.3	NNE	0.19	15.7	-25.0	---	---	727.4	0.024	0.000	20.5	2	1
03/05/06	1:35 a	-15.6	-15.6	-15.6	---	---	9.6	NNE	0.16	11.3	-24.2	---	---	727.4	0.024	0.000	20.5	2	1
03/05/06	1:36 a	-15.5	-15.5	-15.6	---	---	11.3	NE	0.19	13.9	-24.9	---	---	727.4	0.023	0.000	20.5	2	1
03/05/06	1:37 a	-15.6	-15.6	-15.6	---	---	10.4	NE	0.17	12.2	-24.6	---	---	727.4	0.024	0.000	20.5	2	1
03/05/06	1:38 a	-15.7	-15.6	-15.7	---	---	10.4	NNE	0.17	13.9	-24.8	---	---	727.3	0.024	0.000	20.5	2	1
03/05/06	1:39 a	-15.6	-15.6	-15.6	---	---	13.0	NNE	0.22	14.8	-25.7	---	---	727.3	0.024	0.000	20.5	2	1
03/05/06	1:40 a	-15.6	-15.6	-15.6	---	---	12.2	NNE	0.20	16.5	-25.3	---	---	727.3	0.024	0.000	20.5	2	1
03/05/06	1:41 a	-15.6	-15.6	-15.6	---	---	10.4	NNE	0.17	13.0	-24.7	---	---	727.2	0.024	0.000	20.5	2	1
03/05/06	1:42 a	-15.5	-15.5	-15.6	---	---	11.3	NNE	0.19	14.8	-24.9	---	---	727.2	0.023	0.000	20.5	2	1
03/05/06	1:43 a	-15.6	-15.6	-15.6	---	---	10.4	NNE	0.17	11.3	-24.6	---	---	727.3	0.024	0.000	20.5	2	1
03/05/06	1:44 a	-15.6	-15.6	-15.6	---	---	11.3	NE	0.19	13.9	-25.0	---	---	727.2	0.024	0.000	20.5	2	1
03/05/06	1:45 a	-15.6	-15.5	-15.6	---	---	11.3	NE	0.19	16.5	-25.0	---	---	727.3	0.024	0.000	20.5	2	1
03/05/06	1:46 a	-15.4	-15.4	-15.5	---	---	13.0	NE	0.22	14.8	-25.5	---	---	727.2	0.023	0.000	20.5	2	1
03/05/06	1:47 a	-15.4	-15.4	-15.4	---	---	12.2	NE	0.20	13.0	-25.1	---	---	727.3	0.023	0.000	20.5	2	1
03/05/06	1:48 a	-15.5	-15.5	-15.5	---	---	11.3	NE	0.19	13.0	-24.9	---	---	727.2	0.023	0.000	20.5	2	1
03/05/06	1:49 a	-15.5	-15.5	-15.6	---	---	10.4	NE	0.17	13.9	-24.6	---	---	727.2	0.023	0.000	20.5	2	1
03/05/06	1:50 a	-15.6	-15.6	-15.6	---	---	9.6	NE	0.16	14.8	-24.2	---	---	727.1	0.024	0.000	20.6	2	1
03/05/06	1:51 a	-15.5	-15.5	-15.5	---	---	13.9	NE	0.23	17.4	-25.9	---	---	727.2	0.023	0.000	20.6	2	1
03/05/06	1:52 a	-15.4	-15.3	-15.4	---	---	8.7	NE	0.14	12.2	-23.6	---	---	727.1	0.023	0.000	20.5	2	1
03/05/06	1:53 a	-15.3	-15.2	-15.3	---	---	10.4	NE	0.17	13.0	-24.3	---	---	727.2	0.023	0.000	20.6	2	1
03/05/06	1:54 a	-15.2	-15.1	-15.2	---	---	11.3	NE	0.19	16.5	-24.5	---	---	727.0	0.023	0.000	20.6	2	1
03/05/06	1:55 a	-15.1	-15.1	-15.1	---	---	12.2	ENE	0.20	14.8	-24.8	---	---	727.1	0.023	0.000	20.6	2	1
03/05/06	1:56 a	-15.0	-15.0	-15.1	---	---	12.2	NE	0.20	17.4	-24.6	---	---	727.2	0.023	0.000	20.6	2	1
03/05/06	1:57 a	-14.9	-14.9	-14.9	---	---	6.1	NE	0.10	8.7	-21.6	---	---	727.2	0.023	0.000	20.6	2	1
03/05/06	1:58 a	-14.8	-14.7	-14.8	---	---	7.0	NE	0.12	8.7	-21.9	---	---	727.0	0.023	0.000	20.6	2	1
03/05/06	1:59 a	-14.6	-14.6	-14.7	---	---	12.2	NE	0.20	14.8	-24.1	---	---	727.0	0.023	0.000	20.6	2	1
03/05/06	2:00 a	-14.5	-14.5	-14.6	---	---	9.6	NE	0.16	12.2	-22.9	---	---	727.1	0.023	0.000	20.6	2	1
03/05/06	2:01 a	-14.5	-14.5	-14.6	---	---	7.8	ENE	0.13	10.4	-22.1	---	---	727.1	0.023	0.000	20.6	2	1
03/05/06	2:02 a	-14.6	-14.6	-14.6	---	---	10.4	NE	0.17	13.0	-23.4	---	---	727.0	0.023	0.000	20.6	2	1
03/05/06	2:03 a	-14.6	-14.6	-14.6	---	---	8.7	NE	0.14	10.4	-22.6	---	---	727.0	0.023	0.000	20.6	2	1
03/05/06	2:04 a	-14.5	-14.5	-14.6	---	---	10.4	NE	0.17	12.2	-23.3	---	---	727.0	0.023	0.000	20.6	2	1
03/05/06	2:05 a	-14.6	-14.6	-14.6	---	---	10.4	NE	0.17	13.0	-23.4	---	---	727.0	0.023	0.000	20.6	2	1
03/05/06	2:06 a	-14.5	-14.5	-14.6	---	---	9.6	NE	0.16	12.2	-22.9	---	---	727.0	0.023	0.000	20.6	2	1
03/05/06	2:07 a	-14.4	-14.4	-14.5	---	---	9.6	NE	0.16	13.0	-22.8	---	---	726.9	0.023	0.000	20.6	2	1
03/05/06	2:08 a	-14.4	-14.4	-14.4	---	---	11.3	NE	0.19	13.9	-23.5	---	---	726.9	0.023	0.000	20.6	2	1
03/05/06	2:09 a	-14.4	-14.3	-14.4	---	---	7.0	NE	0.12	8.7	-21.4	---	---	726.9	0.023	0.000	20.6	2	1
03/05/06	2:10 a	-14.2	-14.2	-14.3	---	---	8.7	NE	0.14	11.3	-22.2	---	---	726.9	0.023	0.000	20.6	2	1
03/05/06	2:11 a	-14.2	-14.1	-14.2	---	---	9.6	NE	0.16	11.3	-22.5	---	---	726.8	0.023	0.000	20.6	2	1
03/05/06	2:12 a	-14.2	-14.2	-14.2	---	---	9.6	NE	0.16	12.2	-22.5	---	---	726.9	0.023	0.000	20.6	2	1
03/05/06	2:13 a	-14.2	-14.1	-14.2	---	---	10.4	NE	0.17	12.2	-22.9	---	---	726.9	0.023	0.000	20.6	2	1
03/05/06	2:14 a	-13.9	-13.8	-14.0	---	---	10.4	NE	0.17	12.2	-22.6	---	---	726.9	0.022	0.000	20.6	2	1
03/05/06	2:15 a	-13.8	-13.8	-13.8	---	---	9.6	NE	0.16	11.3	-22.1	---	---	726.8	0.022	0.000	20.6	2	1
03/05/06	2:16 a	-13.8	-13.8	-13.9	---	---	10.4	NE	0.17	12.2	-22.4	---	---	726.8	0.022	0.000	20.6	2	1
03/05/06	2:17 a	-13.9	-13.9	-14.0	---	---	8.7	NE	0.14	10.4	-21.8	---	---	726.9	0.022	0.000	20.6	2	1
03/05/06	2:18 a	-14.0	-14.0	-14.1	---	---	8.7	NE	0.14	10.4	-21.9	---	---	726.8	0.022	0.000	20.6	2	1
03/05/06	2:19 a	-14.1	-14.1	-14.1	---	---	10.4	NE	0.17	12.2	-22.8	---	---	726.8	0.023	0.000	20.6	2	1
03/05/06	2:20 a	-14.1	-14.1	-14.2	---	---	9.6	ENE	0.16	11.3	-22.4	---	---	726.8	0.023	0.000	20.6	2	1
03/05/06	2:21 a	-14.1	-14.1	-14.1	---	---	9.6	NE	0.16	12.2	-22.4	---	---	726.8	0.023	0.000	20.6	2	1
03/05/06	2:22 a	-14.1	-14.1	-14.1	---	---	8.7	NE	0.14	10.4	-22.1	---	---	726.9	0.023	0.000	20.6	2	1
03/05/06	2:23 a	-14.0	-13.9	-14.0	---	---	5.2	NE	0.09	7.0	-19.8	---	---	726.8	0.022	0.000	20.6	2	1
03/05/06	2:24 a	-13.8	-13.8	-13.9	---	---	6.1	ENE	0.10	8.7	-20.2	---	---	726.8	0.022	0.000	20.6	2	1
03/05/06	2:25 a	-13.7	-13.7	-13.8	---	---	7.0	NE	0.12	9.6	-20.6	---	---	726.7	0.022	0.000	20.6	2	1
03/05/06	2:26 a	-13.6	-13.6	-13.6	---	---	6.1	NNE	0.10	7.8	-19.9	---	---	726.8	0.022	0.000	20.6	2	1
03/05/06	2:27 a	-13.5	-13.4	-13.6	---	---	8.7	ENE	0.14	10.4	-21.3	---	---	726.7	0.022	0.000	20.6	2	1
03/05/06	2:28 a	-13.4	-13.4	-13.4	---	---	9.6	NE	0.16	11.3	-21.6	---	---	726.6	0.022	0.000	20.6	2	1
03/05/06	2:29 a	-13.5	-13.4	-13.6	---	---	11.3	NE	0.19	13.0	-22.4	---	---	726.7	0.022	0.000	20.6	2	1
03/05/06	2:30 a	-13.7	-13.6	-13.7	---	---	11.3	ENE	0.19	13.0	-22.6	---	---	726.7	0.022	0.000	20.6	2	1
03/05/06	2:31 a	-13.8	-13.7	-13.9	---	---	10.4	NE	0.17	13.0	-22.4	---	---	726.7	0.022	0.000	20.6	2	1
03/05/06	2:32 a	-14.0	-13.9	-14.1	---	---	9.6	NE	0.16	12.2	-22.3	---	---	726.6	0.022	0.000	20.6	2	1
03/05/06	2:33 a	-14.1	-14.1	-14.3	---	---	13.0	ENE	0.22	14.8	-23.8	---	---	726.7	0.023	0.000	20.6	2	1
03/05/06	2:34 a	-14.3	-14.3	-14.4	---	---	10.4	ENE	0.17	14.8	-23.1	---	---	726.6	0.023	0.000	20.6	2	1
03/05/06	2:35 a	-14.4	-14.4	-14.4	---	---	8.7	NE	0.14	11.3	-22.4	---	---	726.7	0.023	0.000	20.6	2	1
03/05/06	2:36 a	-14.4	-14.4	-14.4	---	---	9.6	NE	0.16	10.4	-22.8	---	---	726.7	0.023	0.000	20.6	2	1
03/05/06	2:37 a	-14.5	-14.4	-14.5	---	---	9.6	NE	0.16	12.2	-22.9	---	---	726.6	0.023	0.000	20.6	2	1
03/05/06	2:38 a	-14.5	-14.5	-14.6	---	---	10.4	NE	0.17	12.2	-23.3	---	---	726.6	0.023	0.000	20.5	2	1
03/05/06	2:39 a	-14.6	-14.6	-14.6	---	---	10.4	NE	0.17	11.3	-23.4	---	---	726.6	0.023	0.000	20.5	2	1
03/05/06	2:40 a	-14.4	-14.4	-14.5	---	---	7.0	NE	0.12	10.4	-21.5	---	---	726.6	0.023	0.000	20.6	2	1
03/05/06	2:41 a	-14.3	-14.2	-14.4	---	---	10.4	NE	0.17	12.2	-23.1	---	---	726.7	0.023	0.000	20.6	2	1
03/05/06	2:42 a	-14.2	-14.1	-14.2	---	---	9.6	NE	0.16	11.3	-22.5	---	---	726.6	0.023	0.000	20.6	2	1
03/05/06	2:43 a	-14.1	-14.1	-14.1	---	---	10.4	NE	0.17	13.0	-22.7	---	---	726.7	0.022	0.000	20.6	2	1
03/05/06	2:44 a	-14.1	-14.0	-14.1	---	---	9.6	NE	0.16	12.2	-22.4	---	---	726.6	0.022	0.000	20.6	2	1
03/05/06	2:45 a	-13.9	-13.8	-13.9	---	---	10.4	NE	0.17	13.0	-22.6	---	---	726.6	0.022	0.000	20.6	2	1
03/05/06	2:46 a	-13.8	-13.8	-13.8	---	---	7.8	NE	0.13	9.6	-21.2	---	---	726.6	0.022	0.000	20.6	2	1
03/05/06	2:47 a	-13.8	-13.8	-13.8	---	---	11.3	NE	0.19	13.0	-22.8	---	---	726.6	0.022	0.000	20.6	2	1
03/05/06	2:48 a	-13.9	-13.9	-13.9	---	---	10.4	NE	0.17	13.0	-22.6	---	---	726.6	0.022	0.000	20.6	2	1
03/05/06	2:49 a	-13.9	-13.9	-13.9	---	---	10.4	NE	0.17	11.3	-22.6	---	---	726.6	0.022	0.000	20.6	2	1
03/05/06	2:50 a	-13.9	-13.8	-13.9	---	---	7.8	NE	0.13	10.4	-21.3	---	---	726.6	0.022	0.000	20.6	2	1
03/05/06	2:51 a	-13.8	-13.8	-13.8	---	---	9.6	NE	0.16	13.0	-22.1	---	---	726.6	0.022	0.000	20.6	2	1
03/05/06	2:52 a	-13.9	-13.9	-14.0	---	---	10.4	NE	0.17	13.9	-22.6	---	---	726.6	0.022	0.000	20.6	2	1
03/05/06	2:53 a	-14.1	-14.1	-14.1	---	---	7.8	NE	0.13	10.4	-21.5	---	---	726.5	0.022	0.000	20.6	2	1
03/05/06	2:54 a	-14.1	-14.1	-14.1	---	---	7.8	NE	0.13	11.3	-21.5	---	---	726.5	0.022	0.000	20.6	2	1
03/05/06	2:55 a	-14.1	-14.1	-14.1	---	---	8.7	NE	0.14	11.3	-22.1	---	---	726.5	0.023	0.000	20.6	2	1
03/05/06	2:56 a	-14.1	-14.1	-14.1	---	---	8.7	NE	0.14	10.4	-22.1	---	---	726.5	0.023	0.000	20.6	2	1
03/05/06	2:57 a	-14.1	-14.1	-14.2	---	---	7.0	NE	0.12	9.6	-21.1	---	---	726.5	0.023	0.000	20.6	2	1
03/05/06	2:58 a	-14.1	-14.0	-14.1	---	---	8.7	NE	0.14	11.3	-22.1	---	---	726.4	0.023	0.000	20.6	2	1
03/05/06	2:59 a	-13.8	-13.7	-13.8	---	---	8.7	NE	0.14	12.2	-21.6	---	---	726.4	0.022	0.000	20.6	2	1
03/05/06	3:00 a	-13.6	-13.6	-13.6	---	---	7.8	NE	0.13	9.6	-20.9	---	---	726.5	0.022	0.000	20.6	2	1
03/05/06	3:01 a	-13.6	-13.6	-13.6	---	---	7.8	NE	0.13	8.7	-20.9	---	---	726.5	0.022	0.000	20.6	2	1
03/05/06	3:02 a	-13.4	-13.2	-13.4	---	---	7.0	NE	0.12	7.8	-20.2	---	---	726.4	0.022	0.000	20.6	2	1
03/05/06	3:03 a	-13.0	-12.9	-13.1	---	---	7.8	NE	0.13	9.6	-20.2	---	---	726.4	0.022	0.000	20.6	2	1
03/05/06	3:04 a	-13.0	-13.0	-13.1	---	---	7.8	ENE	0.13	8.7	-20.2	---	---	726.4	0.022	0.000	20.6	2	1
03/05/06	3:05 a	-13.1	-13.1	-13.2	---	---	7.8	NE	0.13	8.7	-20.3	---	---	726.4	0.022	0.000	20.6	2	1
03/05/06	3:06 a	-13.2	-13.2	-13.3	---	---	9.6	NE	0.16	12.2	-21.3	---	---	726.3	0.022	0.000	20.6	2	1
03/05/06	3:07 a	-13.3	-13.3	-13.4	---	---	8.7	NE	0.14	10.4	-21.1	---	---	726.3	0.022	0.000	20.6	2	1
03/05/06	3:08 a	-13.5	-13.4	-13.5	---	---	8.7	NE	0.14	9.6	-21.3	---	---	726.4	0.022	0.000	20.6	2	1
03/05/06	3:09 a	-13.6	-13.5	-13.6	---	---	8.7	NE	0.14	10.4	-21.3	---	---	726.4	0.022	0.000	20.6	2	1
03/05/06	3:10 a	-13.7	-13.7	-13.8	---	---	7.8	NE	0.13	9.6	-21.1	---	---	726.4	0.022	0.000	20.6	2	1
03/05/06	3:11 a	-13.9	-13.8	-13.9	---	---	7.0	NE	0.12	8.7	-20.8	---	---	726.3	0.022	0.000	20.6	2	1
03/05/06	3:12 a	-13.9	-13.8	-13.9	---	---	7.0	NE	0.12	7.8	-20.8	---	---	726.4	0.022	0.000	20.6	2	1
03/05/06	3:13 a	-13.8	-13.8	-13.8	---	---	7.0	NE	0.12	7.8	-20.8	---	---	726.3	0.022	0.000	20.6	2	1
03/05/06	3:14 a	-13.8	-13.8	-13.8	---	---	7.8	NE	0.13	8.7	-21.2	---	---	726.3	0.022	0.000	20.6	2	1
03/05/06	3:15 a	-13.8	-13.8	-13.8	---	---	7.0	NE	0.12	7.8	-20.8	---	---	726.3	0.022	0.000	20.6	2	1
03/05/06	3:16 a	-13.8	-13.8	-13.8	---	---	7.8	NE	0.13	9.6	-21.2	---	---	726.4	0.022	0.000	20.6	2	1
03/05/06	3:17 a	-13.7	-13.7	-13.8	---	---	7.0	NE	0.12	8.7	-20.6	---	---	726.4	0.022	0.000	20.6	2	1
03/05/06	3:18 a	-13.7	-13.6	-13.7	---	---	4.3	NNE	0.07	6.1	-18.7	---	---	726.3	0.022	0.000	20.6	2	1
03/05/06	3:19 a	-13.6	-13.4	-13.6	---	---	3.5	NE	0.06	5.2	-17.8	---	---	726.3	0.022	0.000	20.6	2	1
03/05/06	3:20 a	-13.4	-13.3	-13.4	---	---	5.2	ENE	0.09	7.0	-19.1	---	---	726.3	0.022	0.000	20.6	2	1
03/05/06	3:21 a	-13.2	-13.1	-13.3	---	---	7.0	ENE	0.12	8.7	-19.9	---	---	726.3	0.022	0.000	20.6	2	1
03/05/06	3:22 a	-12.9	-12.8	-13.1	---	---	5.2	ENE	0.09	7.0	-18.5	---	---	726.3	0.022	0.000	20.6	2	1
03/05/06	3:23 a	-12.7	-12.7	-12.7	---	---	4.3	ENE	0.07	6.1	-17.7	---	---	726.3	0.022	0.000	20.6	2	1
03/05/06	3:24 a	-12.6	-12.6	-12.7	---	---	6.1	ENE	0.10	7.0	-18.8	---	---	726.4	0.021	0.000	20.6	2	1
03/05/06	3:25 a	-12.6	-12.6	-12.7	---	---	6.1	NE	0.10	8.7	-18.8	---	---	726.3	0.021	0.000	20.6	2	1
03/05/06	3:26 a	-12.7	-12.7	-12.7	---	---	7.8	NE	0.13	8.7	-19.8	---	---	726.4	0.022	0.000	20.6	2	1
03/05/06	3:27 a	-12.7	-12.7	-12.7	---	---	6.1	NNE	0.10	8.7	-18.9	---	---	726.3	0.022	0.000	20.6	2	1
03/05/06	3:28 a	-12.7	-12.6	-12.7	---	---	7.8	NE	0.13	9.6	-19.8	---	---	726.3	0.022	0.000	20.6	2	1
03/05/06	3:29 a	-12.6	-12.6	-12.6	---	---	7.0	NE	0.12	8.7	-19.3	---	---	726.4	0.021	0.000	20.6	2	1
03/05/06	3:30 a	-12.4	-12.3	-12.6	---	---	7.0	NE	0.12	8.7	-19.1	---	---	726.3	0.021	0.000	20.7	2	1
03/05/06	3:31 a	-12.1	-11.9	-12.2	---	---	7.0	NE	0.12	11.3	-18.7	---	---	726.3	0.021	0.000	20.7	2	1
03/05/06	3:32 a	-11.9	-11.9	-12.0	---	---	7.8	NE	0.13	9.6	-18.9	---	---	726.3	0.021	0.000	20.7	2	1
03/05/06	3:33 a	-12.0	-12.0	-12.1	---	---	7.0	NE	0.12	10.4	-18.6	---	---	726.3	0.021	0.000	20.7	2	1
03/05/06	3:34 a	-12.1	-12.1	-12.1	---	---	7.8	NE	0.13	9.6	-19.1	---	---	726.3	0.021	0.000	20.7	2	1
03/05/06	3:35 a	-12.2	-12.1	-12.2	---	---	7.0	NE	0.12	9.6	-18.7	---	---	726.3	0.021	0.000	20.7	2	1
03/05/06	3:36 a	-12.2	-12.2	-12.2	---	---	7.8	NE	0.13	9.6	-19.2	---	---	726.3	0.021	0.000	20.7	2	1
03/05/06	3:37 a	-12.2	-12.2	-12.2	---	---	7.8	NE	0.13	9.6	-19.2	---	---	726.3	0.021	0.000	20.7	2	1
03/05/06	3:38 a	-12.2	-12.2	-12.2	---	---	7.8	NE	0.13	8.7	-19.2	---	---	726.2	0.021	0.000	20.7	2	1
03/05/06	3:39 a	-12.2	-12.2	-12.2	---	---	7.0	NE	0.12	8.7	-18.7	---	---	726.2	0.021	0.000	20.7	2	1
03/05/06	3:40 a	-12.2	-12.2	-12.2	---	---	7.8	NE	0.13	8.7	-19.3	---	---	726.2	0.021	0.000	20.7	2	1
03/05/06	3:41 a	-12.3	-12.2	-12.3	---	---	7.0	NE	0.12	8.7	-18.9	---	---	726.3	0.021	0.000	20.7	2	1
03/05/06	3:42 a	-12.3	-12.3	-12.3	---	---	7.0	NE	0.12	8.7	-18.9	---	---	726.2	0.021	0.000	20.7	2	1
03/05/06	3:43 a	-12.3	-12.2	-12.3	---	---	7.0	NE	0.12	8.7	-18.9	---	---	726.2	0.021	0.000	20.7	2	1
03/05/06	3:44 a	-12.2	-12.2	-12.2	---	---	8.7	NE	0.14	9.6	-19.7	---	---	726.2	0.021	0.000	20.7	2	1
03/05/06	3:45 a	-12.1	-12.0	-12.2	---	---	7.0	NE	0.12	7.8	-18.6	---	---	726.3	0.021	0.000	20.7	2	1
03/05/06	3:46 a	-12.0	-12.0	-12.1	---	---	7.0	NE	0.12	7.8	-18.6	---	---	726.2	0.021	0.000	20.7	3	1
03/05/06	3:47 a	-12.1	-12.1	-12.2	---	---	7.0	NE	0.12	8.7	-18.7	---	---	726.3	0.021	0.000	20.7	2	1
03/05/06	3:48 a	-12.2	-12.1	-12.2	---	---	7.0	ENE	0.12	8.7	-18.7	---	---	726.2	0.021	0.000	20.7	2	1
03/05/06	3:49 a	-12.1	-12.0	-12.1	---	---	7.0	NE	0.12	8.7	-18.6	---	---	726.2	0.021	0.000	20.7	3	1
03/05/06	3:50 a	-12.1	-12.1	-12.1	---	---	7.0	NE	0.12	8.7	-18.7	---	---	726.2	0.021	0.000	20.7	3	1
03/05/06	3:51 a	-12.2	-12.1	-12.2	---	---	7.8	ENE	0.13	9.6	-19.2	---	---	726.2	0.021	0.000	20.7	2	1
03/05/06	3:52 a	-12.3	-12.2	-12.3	---	---	5.2	NE	0.09	6.1	-17.8	---	---	726.1	0.021	0.000	20.7	2	1
03/05/06	3:53 a	-12.2	-12.1	-12.3	---	---	5.2	NE	0.09	7.8	-17.8	---	---	726.2	0.021	0.000	20.7	2	1
03/05/06	3:54 a	-12.1	-12.1	-12.1	---	---	6.1	NE	0.10	7.8	-18.2	---	---	726.1	0.021	0.000	20.7	2	1
03/05/06	3:55 a	-12.1	-12.0	-12.1	---	---	5.2	NE	0.09	7.0	-17.6	---	---	726.2	0.021	0.000	20.7	2	1
03/05/06	3:56 a	-11.9	-11.8	-12.0	---	---	6.1	ENE	0.10	7.0	-17.9	---	---	726.1	0.021	0.000	20.7	2	1
03/05/06	3:57 a	-11.6	-11.4	-11.8	---	---	6.1	ENE	0.10	7.8	-17.6	---	---	726.1	0.021	0.000	20.7	2	1
03/05/06	3:58 a	-11.3	-11.2	-11.4	---	---	4.3	ENE	0.07	7.0	-16.0	---	---	726.1	0.021	0.000	20.7	2	1
03/05/06	3:59 a	-11.1	-11.1	-11.2	---	---	5.2	ENE	0.09	7.8	-16.4	---	---	726.1	0.020	0.000	20.7	2	1
03/05/06	4:00 a	-11.0	-11.0	-11.1	---	---	4.3	ENE	0.07	5.2	-15.7	---	---	726.1	0.020	0.000	20.7	2	1
03/05/06	4:01 a	-10.9	-10.9	-11.0	---	---	6.1	ENE	0.10	7.8	-16.8	---	---	726.0	0.020	0.000	20.7	2	1
03/05/06	4:02 a	-10.8	-10.8	-10.9	---	---	5.2	ENE	0.09	7.0	-16.1	---	---	726.1	0.020	0.000	20.8	2	1
03/05/06	4:03 a	-10.7	-10.7	-10.8	---	---	3.5	E	0.06	4.3	-14.6	---	---	726.1	0.020	0.000	20.8	2	1
03/05/06	4:04 a	-10.8	-10.7	-10.8	---	---	2.6	E	0.04	4.3	-13.7	---	---	726.1	0.020	0.000	20.7	2	1
03/05/06	4:05 a	-10.8	-10.8	-10.8	---	---	1.7	E	0.03	3.5	-12.5	---	---	726.1	0.020	0.000	20.7	2	1
03/05/06	4:06 a	-10.8	-10.8	-10.8	---	---	0.9	E	0.01	1.7	-10.8	---	---	726.2	0.020	0.000	20.7	2	1
03/05/06	4:07 a	-10.7	-10.6	-10.8	---	---	0.9	E	0.01	1.7	-10.7	---	---	726.0	0.020	0.000	20.7	2	1
03/05/06	4:08 a	-10.3	-9.9	-10.6	---	---	4.3	E	0.07	7.8	-14.8	---	---	726.1	0.020	0.000	20.7	2	1
03/05/06	4:09 a	-9.9	-9.9	-9.9	---	---	6.1	ENE	0.10	7.0	-15.6	---	---	726.1	0.020	0.000	20.8	2	1
03/05/06	4:10 a	-9.9	-9.9	-10.0	---	---	4.3	ENE	0.07	5.2	-14.4	---	---	726.1	0.020	0.000	20.8	3	1
03/05/06	4:11 a	-10.0	-10.0	-10.1	---	---	2.6	NE	0.04	5.2	-12.8	---	---	726.1	0.020	0.000	20.8	3	1
03/05/06	4:12 a	-9.9	-9.8	-10.0	---	---	1.7	NNE	0.03	2.6	-11.4	---	---	726.1	0.020	0.000	20.8	3	1
03/05/06	4:13 a	-9.7	-9.7	-9.8	---	---	0.9	NNE	0.01	2.6	-9.7	---	---	726.0	0.019	0.000	20.8	2	1
03/05/06	4:14 a	-9.7	-9.6	-9.7	---	---	0.9	NNE	0.01	1.7	-9.7	---	---	726.1	0.019	0.000	20.8	2	1
03/05/06	4:15 a	-9.4	-9.3	-9.6	---	---	0.9	NNE	0.01	1.7	-9.4	---	---	726.1	0.019	0.000	20.8	2	1
03/05/06	4:16 a	-9.3	-9.2	-9.3	---	---	2.6	NNE	0.04	3.5	-12.0	---	---	726.0	0.019	0.000	20.8	3	1
03/05/06	4:17 a	-9.2	-9.2	-9.2	---	---	5.2	NNE	0.09	7.8	-14.1	---	---	726.0	0.019	0.000	20.8	3	1
03/05/06	4:18 a	-9.2	-9.2	-9.3	---	---	2.6	NE	0.04	5.2	-11.9	---	---	726.0	0.019	0.000	20.8	2	1
03/05/06	4:19 a	-9.2	-9.1	-9.3	---	---	3.5	N	0.06	5.2	-12.8	---	---	726.0	0.019	0.000	20.8	2	1
03/05/06	4:20 a	-9.0	-9.0	-9.1	---	---	3.5	N	0.06	4.3	-12.6	---	---	726.0	0.019	0.000	20.8	2	1
03/05/06	4:21 a	-9.1	-9.0	-9.1	---	---	2.6	N	0.04	4.3	-11.7	---	---	726.1	0.019	0.000	20.8	2	1
03/05/06	4:22 a	-9.1	-9.0	-9.1	---	---	4.3	NNE	0.07	5.2	-13.4	---	---	726.0	0.019	0.000	20.8	3	1
03/05/06	4:23 a	-8.9	-8.8	-9.0	---	---	5.2	ENE	0.09	6.1	-13.8	---	---	726.0	0.019	0.000	20.8	2	1
03/05/06	4:24 a	-8.8	-8.8	-8.9	---	---	6.1	NE	0.10	8.7	-14.3	---	---	726.1	0.019	0.000	20.8	3	1
03/05/06	4:25 a	-9.0	-8.9	-9.2	---	---	7.0	NE	0.12	8.7	-14.9	---	---	726.0	0.019	0.000	20.8	2	1
03/05/06	4:26 a	-9.2	-9.2	-9.3	---	---	6.1	NE	0.10	7.0	-14.7	---	---	726.0	0.019	0.000	20.8	2	1
03/05/06	4:27 a	-9.2	-9.2	-9.3	---	---	4.3	NE	0.07	7.0	-13.6	---	---	726.0	0.019	0.000	20.8	3	1
03/05/06	4:28 a	-9.2	-9.2	-9.3	---	---	2.6	NE	0.04	4.3	-11.9	---	---	726.1	0.019	0.000	20.8	3	1
03/05/06	4:29 a	-9.4	-9.3	-9.5	---	---	4.3	E	0.07	6.1	-13.8	---	---	726.1	0.019	0.000	20.9	3	1
03/05/06	4:30 a	-9.6	-9.5	-9.6	---	---	2.6	ENE	0.04	3.5	-12.3	---	---	726.1	0.019	0.000	20.9	2	1
03/05/06	4:31 a	-9.4	-9.3	-9.4	---	---	0.0	ENE	0.00	1.7	-9.4	---	---	726.0	0.019	0.000	20.9	3	1
03/05/06	4:32 a	-9.3	-9.1	-9.3	---	---	4.3	NE	0.07	6.1	-13.6	---	---	726.0	0.019	0.000	20.9	3	1
03/05/06	4:33 a	-9.1	-9.1	-9.1	---	---	6.1	NE	0.10	9.6	-14.5	---	---	726.0	0.019	0.000	20.9	3	1
03/05/06	4:34 a	-8.9	-8.8	-9.1	---	---	5.2	NNE	0.09	7.0	-13.8	---	---	726.1	0.019	0.000	20.9	2	1
03/05/06	4:35 a	-8.8	-8.7	-8.8	---	---	6.1	NE	0.10	7.0	-14.2	---	---	726.0	0.019	0.000	20.9	3	1
03/05/06	4:36 a	-8.6	-8.6	-8.7	---	---	6.1	NE	0.10	7.0	-14.0	---	---	726.0	0.019	0.000	20.9	3	1
03/05/06	4:37 a	-8.6	-8.6	-8.6	---	---	7.0	NE	0.12	7.8	-14.4	---	---	726.0	0.019	0.000	20.9	3	1
03/05/06	4:38 a	-8.6	-8.6	-8.6	---	---	5.2	NE	0.09	7.0	-13.4	---	---	725.9	0.019	0.000	20.9	3	1
03/05/06	4:39 a	-8.6	-8.6	-8.6	---	---	6.1	NE	0.10	7.8	-14.0	---	---	726.0	0.019	0.000	20.9	3	1
03/05/06	4:40 a	-8.6	-8.6	-8.6	---	---	6.1	NE	0.10	7.8	-14.0	---	---	725.9	0.019	0.000	21.0	3	1
03/05/06	4:41 a	-8.5	-8.5	-8.6	---	---	4.3	NE	0.07	5.2	-12.7	---	---	725.9	0.019	0.000	21.0	3	1
03/05/06	4:42 a	-8.5	-8.5	-8.6	---	---	4.3	NE	0.07	5.2	-12.7	---	---	725.9	0.019	0.000	21.0	3	1
03/05/06	4:43 a	-8.6	-8.5	-8.6	---	---	3.5	NNE	0.06	5.2	-12.1	---	---	726.0	0.019	0.000	21.0	3	1
03/05/06	4:44 a	-8.4	-8.4	-8.5	---	---	3.5	N	0.06	5.2	-11.9	---	---	725.9	0.019	0.000	21.1	3	1
03/05/06	4:45 a	-8.4	-8.3	-8.4	---	---	5.2	NNW	0.09	6.1	-13.2	---	---	725.9	0.019	0.000	21.1	3	1
03/05/06	4:46 a	-8.2	-8.1	-8.2	---	---	3.5	NNW	0.06	5.2	-11.6	---	---	725.9	0.018	0.000	21.1	3	1
03/05/06	4:47 a	-8.0	-7.9	-8.1	---	---	6.1	NE	0.10	7.0	-13.3	---	---	725.8	0.018	0.000	21.1	3	1
03/05/06	4:48 a	-7.9	-7.9	-8.1	---	---	7.8	NE	0.13	9.6	-14.1	---	---	725.8	0.018	0.000	21.1	3	1
03/05/06	4:49 a	-8.3	-8.1	-8.4	---	---	7.8	NE	0.13	8.7	-14.5	---	---	725.9	0.018	0.000	21.1	3	1
03/05/06	4:50 a	-8.6	-8.5	-8.6	---	---	7.8	NNW	0.13	9.6	-14.8	---	---	725.8	0.019	0.000	21.1	3	1
03/05/06	4:51 a	-8.6	-8.6	-8.6	---	---	3.5	N	0.06	4.3	-12.1	---	---	725.8	0.019	0.000	21.1	3	1
03/05/06	4:52 a	-8.5	-8.5	-8.6	---	---	4.3	N	0.07	6.1	-12.7	---	---	725.8	0.019	0.000	21.2	3	1
03/05/06	4:53 a	-8.4	-8.4	-8.4	---	---	4.3	NE	0.07	5.2	-12.7	---	---	725.7	0.019	0.000	21.2	3	1
03/05/06	4:54 a	-8.4	-8.3	-8.4	---	---	3.5	NE	0.06	5.2	-11.9	---	---	725.8	0.019	0.000	21.2	3	1
03/05/06	4:55 a	-8.3	-8.3	-8.3	---	---	3.5	NE	0.06	7.0	-11.8	---	---	725.8	0.019	0.000	21.2	3	1
03/05/06	4:56 a	-8.3	-8.3	-8.4	---	---	7.0	NNW	0.12	7.8	-14.1	---	---	725.7	0.019	0.000	21.2	3	1
03/05/06	4:57 a	-8.4	-8.4	-8.5	---	---	6.1	NE	0.10	7.0	-13.8	---	---	725.8	0.019	0.000	21.2	3	1
03/05/06	4:58 a	-8.5	-8.4	-8.5	---	---	4.3	NNE	0.07	6.1	-12.7	---	---	725.7	0.019	0.000	21.2	3	1
03/05/06	4:59 a	-8.6	-8.4	-8.7	---	---	4.3	N	0.07	6.1	-12.8	---	---	725.8	0.019	0.000	21.2	3	1
03/05/06	5:00 a	-8.8	-8.7	-8.8	---	---	2.6	N	0.04	4.3	-11.4	---	---	725.8	0.019	0.000	21.3	3	1
03/05/06	5:01 a	-8.9	-8.8	-9.0	---	---	3.5	N	0.06	5.2	-12.4	---	---	725.8	0.019	0.000	21.3	3	1
03/05/06	5:02 a	-9.2	-9.0	-9.3	---	---	2.6	NNW	0.04	4.3	-11.8	---	---	725.7	0.019	0.000	21.2	3	1
03/05/06	5:03 a	-9.3	-9.3	-9.5	---	---	1.7	NNW	0.03	3.5	-10.8	---	---	725.7	0.019	0.000	21.2	3	1
03/05/06	5:04 a	-9.6	-9.5	-9.7	---	---	0.9	NNW	0.01	1.7	-9.6	---	---	725.8	0.019	0.000	21.2	3	1
03/05/06	5:05 a	-9.7	-9.7	-9.8	---	---	2.6	NNW	0.04	4.3	-12.5	---	---	725.7	0.019	0.000	21.2	3	1
03/05/06	5:06 a	-9.8	-9.8	-9.9	---	---	1.7	NNW	0.03	2.6	-11.4	---	---	725.8	0.020	0.000	21.2	3	1
03/05/06	5:07 a	-9.9	-9.9	-9.9	---	---	2.6	NNW	0.04	4.3	-12.7	---	---	725.8	0.020	0.000	21.1	3	1
03/05/06	5:08 a	-10.0	-9.9	-10.1	---	---	5.2	NNE	0.09	7.0	-15.1	---	---	725.6	0.020	0.000	21.1	3	1
03/05/06	5:09 a	-9.8	-9.7	-9.8	---	---	7.0	NE	0.12	8.7	-15.9	---	---	725.7	0.020	0.000	21.1	3	1
03/05/06	5:10 a	-9.7	-9.7	-9.8	---	---	7.8	NE	0.13	10.4	-16.2	---	---	725.7	0.019	0.000	21.1	3	1
03/05/06	5:11 a	-9.8	-9.8	-9.8	---	---	7.8	NE	0.13	9.6	-16.4	---	---	725.7	0.020	0.000	21.2	3	1
03/05/06	5:12 a	-9.9	-9.9	-10.0	---	---	7.8	NE	0.13	8.7	-16.4	---	---	725.7	0.020	0.000	21.2	3	1
03/05/06	5:13 a	-10.2	-10.1	-10.2	---	---	6.1	NE	0.10	7.0	-15.9	---	---	725.7	0.020	0.000	21.2	3	1
03/05/06	5:14 a	-10.3	-10.3	-10.3	---	---	7.8	NE	0.13	8.7	-16.9	---	---	725.7	0.020	0.000	21.2	3	1
03/05/06	5:15 a	-10.3	-10.3	-10.3	---	---	7.8	NE	0.13	8.7	-16.9	---	---	725.7	0.020	0.000	21.2	3	1
03/05/06	5:16 a	-10.4	-10.3	-10.4	---	---	7.0	NE	0.12	8.7	-16.6	---	---	725.7	0.020	0.000	21.2	3	1
03/05/06	5:17 a	-10.4	-10.4	-10.4	---	---	6.1	NE	0.10	8.7	-16.1	---	---	725.7	0.020	0.000	21.2	3	1
03/05/06	5:18 a	-10.3	-10.3	-10.4	---	---	5.2	NE	0.09	6.1	-15.5	---	---	725.7	0.020	0.000	21.2	3	1
03/05/06	5:19 a	-10.2	-10.1	-10.3	---	---	4.3	NNE	0.07	6.1	-14.7	---	---	725.7	0.020	0.000	21.2	3	1
03/05/06	5:20 a	-9.9	-9.9	-10.1	---	---	4.3	NNE	0.07	5.2	-14.4	---	---	725.8	0.020	0.000	21.2	3	1
03/05/06	5:21 a	-9.8	-9.7	-9.9	---	---	3.5	NNE	0.06	4.3	-13.6	---	---	725.7	0.020	0.000	21.2	3	1
03/05/06	5:22 a	-9.6	-9.6	-9.7	---	---	4.3	NNE	0.07	5.2	-14.0	---	---	725.7	0.019	0.000	21.2	3	1
03/05/06	5:23 a	-9.5	-9.5	-9.6	---	---	1.7	N	0.03	3.5	-11.0	---	---	725.7	0.019	0.000	21.2	3	1
03/05/06	5:24 a	-9.5	-9.4	-9.5	---	---	1.7	N	0.03	2.6	-11.0	---	---	725.8	0.019	0.000	21.2	3	1
03/05/06	5:25 a	-9.4	-9.3	-9.4	---	---	2.6	N	0.04	3.5	-12.1	---	---	725.8	0.019	0.000	21.2	3	1
03/05/06	5:26 a	-9.3	-9.2	-9.3	---	---	1.7	N	0.03	3.5	-10.8	---	---	725.7	0.019	0.000	21.2	3	1
03/05/06	5:27 a	-9.1	-8.9	-9.2	---	---	0.9	N	0.01	1.7	-9.1	---	---	725.7	0.019	0.000	21.2	3	1
03/05/06	5:28 a	-8.8	-8.7	-8.9	---	---	1.7	N	0.03	2.6	-10.3	---	---	725.7	0.019	0.000	21.2	3	1
03/05/06	5:29 a	-8.6	-8.6	-8.7	---	---	0.9	N	0.01	1.7	-8.6	---	---	725.7	0.019	0.000	21.2	3	1
03/05/06	5:30 a	-8.4	-8.3	-8.5	---	---	1.7	N	0.03	2.6	-9.8	---	---	725.7	0.019	0.000	21.2	3	1
03/05/06	5:31 a	-8.1	-8.1	-8.2	---	---	1.7	N	0.03	3.5	-9.5	---	---	725.8	0.018	0.000	21.3	3	1
03/05/06	5:32 a	-7.9	-7.8	-8.0	---	---	1.7	N	0.03	2.6	-9.3	---	---	725.7	0.018	0.000	21.3	3	1
03/05/06	5:33 a	-7.7	-7.7	-7.7	---	---	0.9	N	0.01	2.6	-7.7	---	---	725.7	0.018	0.000	21.3	3	1
03/05/06	5:34 a	-7.6	-7.5	-7.6	---	---	0.9	N	0.01	1.7	-7.6	---	---	725.7	0.018	0.000	21.3	3	1
03/05/06	5:35 a	-7.5	-7.4	-7.5	---	---	0.9	N	0.01	1.7	-7.5	---	---	725.6	0.018	0.000	21.3	3	1
03/05/06	5:36 a	-7.4	-7.3	-7.4	---	---	2.6	NNE	0.04	4.3	-9.8	---	---	725.7	0.018	0.000	21.3	3	1
03/05/06	5:37 a	-7.3	-7.3	-7.3	---	---	5.2	NE	0.09	7.8	-11.9	---	---	725.7	0.018	0.000	21.3	3	1
03/05/06	5:38 a	-7.4	-7.4	-7.4	---	---	4.3	NNE	0.07	7.0	-11.4	---	---	725.7	0.018	0.000	21.3	3	1
03/05/06	5:39 a	-7.4	-7.4	-7.4	---	---	2.6	NNE	0.04	3.5	-9.9	---	---	725.7	0.018	0.000	21.3	3	1
03/05/06	5:40 a	-7.4	-7.4	-7.4	---	---	3.5	NNE	0.06	5.2	-10.8	---	---	725.7	0.018	0.000	21.3	3	1
03/05/06	5:41 a	-7.4	-7.4	-7.4	---	---	4.3	NNE	0.07	6.1	-11.5	---	---	725.7	0.018	0.000	21.3	3	1
03/05/06	5:42 a	-7.4	-7.4	-7.4	---	---	2.6	NNE	0.04	4.3	-9.9	---	---	725.7	0.018	0.000	21.3	3	1
03/05/06	5:43 a	-7.4	-7.4	-7.4	---	---	3.5	N	0.06	4.3	-10.8	---	---	725.6	0.018	0.000	21.3	3	1
03/05/06	5:44 a	-7.5	-7.4	-7.6	---	---	3.5	N	0.06	4.3	-10.8	---	---	725.7	0.018	0.000	21.3	3	1
03/05/06	5:45 a	-7.7	-7.6	-7.7	---	---	1.7	N	0.03	3.5	-9.0	---	---	725.6	0.018	0.000	21.3	3	1
03/05/06	5:46 a	-7.7	-7.7	-7.7	---	---	1.7	N	0.03	3.5	-9.1	---	---	725.6	0.018	0.000	21.3	3	1
03/05/06	5:47 a	-7.8	-7.7	-7.8	---	---	4.3	NE	0.07	6.1	-11.9	---	---	725.6	0.018	0.000	21.3	3	1
03/05/06	5:48 a	-7.8	-7.8	-7.8	---	---	4.3	NE	0.07	5.2	-11.9	---	---	725.7	0.018	0.000	21.3	3	1
03/05/06	5:49 a	-7.8	-7.8	-7.8	---	---	4.3	NNE	0.07	5.2	-11.9	---	---	725.6	0.018	0.000	21.3	3	1
03/05/06	5:50 a	-7.8	-7.8	-7.9	---	---	5.2	NE	0.09	7.0	-12.6	---	---	725.6	0.018	0.000	21.4	3	1
03/05/06	5:51 a	-7.9	-7.9	-8.1	---	---	4.3	NE	0.07	5.2	-12.1	---	---	725.6	0.018	0.000	21.4	3	1
03/05/06	5:52 a	-8.1	-8.1	-8.1	---	---	5.2	NNE	0.09	6.1	-12.8	---	---	725.7	0.018	0.000	21.4	3	1
03/05/06	5:53 a	-8.2	-8.2	-8.4	---	---	6.1	NE	0.10	7.0	-13.5	---	---	725.6	0.018	0.000	21.4	3	1
03/05/06	5:54 a	-8.4	-8.4	-8.5	---	---	5.2	NE	0.09	7.0	-13.3	---	---	725.7	0.019	0.000	21.4	3	1
03/05/06	5:55 a	-8.6	-8.6	-8.6	---	---	4.3	NE	0.07	5.2	-12.8	---	---	725.7	0.019	0.000	21.4	3	1
03/05/06	5:56 a	-8.7	-8.7	-8.7	---	---	6.1	NE	0.10	7.8	-14.1	---	---	725.7	0.019	0.000	21.4	3	1
03/05/06	5:57 a	-8.7	-8.7	-8.8	---	---	7.0	NE	0.12	7.8	-14.6	---	---	725.6	0.019	0.000	21.4	3	1
03/05/06	5:58 a	-8.9	-8.9	-9.1	---	---	7.0	NE	0.12	7.8	-14.9	---	---	725.6	0.019	0.000	21.4	3	1
03/05/06	5:59 a	-9.1	-9.1	-9.2	---	---	7.0	NE	0.12	7.8	-15.1	---	---	725.6	0.019	0.000	21.4	3	1
03/05/06	6:00 a	-9.2	-9.2	-9.3	---	---	7.0	NE	0.12	7.8	-15.2	---	---	725.6	0.019	0.000	21.4	3	1
03/05/06	6:01 a	-9.3	-9.3	-9.3	---	---	5.2	NE	0.09	7.8	-14.3	---	---	725.6	0.019	0.000	21.4	3	1
03/05/06	6:02 a	-9.3	-9.3	-9.3	---	---	5.2	NE	0.09	6.1	-14.3	---	---	725.6	0.019	0.000	21.4	3	1
03/05/06	6:03 a	-9.3	-9.3	-9.3	---	---	5.2	NE	0.09	7.0	-14.3	---	---	725.6	0.019	0.000	21.4	3	1
03/05/06	6:04 a	-9.3	-9.3	-9.3	---	---	4.3	NE	0.07	5.2	-13.6	---	---	725.6	0.019	0.000	21.4	3	1
03/05/06	6:05 a	-9.3	-9.3	-9.3	---	---	5.2	NE	0.09	7.0	-14.3	---	---	725.6	0.019	0.000	21.5	3	1
03/05/06	6:06 a	-9.3	-9.3	-9.3	---	---	5.2	NE	0.09	7.0	-14.3	---	---	725.6	0.019	0.000	21.5	3	1
03/05/06	6:07 a	-9.3	-9.3	-9.3	---	---	5.2	NE	0.09	6.1	-14.3	---	---	725.6	0.019	0.000	21.6	3	1
03/05/06	6:08 a	-9.3	-9.3	-9.3	---	---	6.1	NE	0.10	7.8	-14.8	---	---	725.6	0.019	0.000	21.6	3	1
03/05/06	6:09 a	-9.2	-9.2	-9.2	---	---	6.1	NE	0.10	8.7	-14.7	---	---	725.5	0.019	0.000	21.6	3	1
03/05/06	6:10 a	-9.2	-9.2	-9.3	---	---	6.1	NNE	0.10	7.0	-14.7	---	---	725.6	0.019	0.000	21.7	3	1
03/05/06	6:11 a	-9.3	-9.3	-9.3	---	---	7.0	NE	0.12	8.7	-15.3	---	---	725.6	0.019	0.000	21.7	3	1
03/05/06	6:12 a	-9.6	-9.4	-9.7	---	---	7.8	NE	0.13	8.7	-16.1	---	---	725.6	0.019	0.000	21.7	3	1
03/05/06	6:13 a	-9.9	-9.7	-10.1	---	---	8.7	NE	0.14	9.6	-16.9	---	---	725.5	0.020	0.000	21.7	3	1
03/05/06	6:14 a	-10.1	-10.1	-10.2	---	---	7.8	NE	0.13	9.6	-16.7	---	---	725.6	0.020	0.000	21.7	3	1
03/05/06	6:15 a	-10.2	-10.2	-10.3	---	---	7.8	NE	0.13	9.6	-16.8	---	---	725.5	0.020	0.000	21.7	3	1
03/05/06	6:16 a	-10.4	-10.3	-10.6	---	---	8.7	NE	0.14	9.6	-17.5	---	---	725.6	0.020	0.000	21.7	3	1
03/05/06	6:17 a	-10.7	-10.6	-10.9	---	---	7.8	NE	0.13	9.6	-17.5	---	---	725.6	0.020	0.000	21.7	3	1
03/05/06	6:18 a	-11.0	-10.9	-11.1	---	---	7.8	NE	0.13	8.7	-17.8	---	---	725.6	0.020	0.000	21.7	3	1
03/05/06	6:19 a	-11.2	-11.1	-11.2	---	---	7.0	NE	0.12	7.8	-17.6	---	---	725.6	0.020	0.000	21.7	3	1
03/05/06	6:20 a	-11.2	-11.2	-11.3	---	---	6.1	NNE	0.10	7.0	-17.1	---	---	725.6	0.021	0.000	21.7	3	1
03/05/06	6:21 a	-11.2	-11.2	-11.3	---	---	4.3	NNE	0.07	5.2	-15.9	---	---	725.5	0.021	0.000	21.7	3	1
03/05/06	6:22 a	-11.2	-11.1	-11.2	---	---	5.2	NNE	0.09	7.0	-16.5	---	---	725.4	0.020	0.000	21.7	3	1
03/05/06	6:23 a	-10.9	-10.8	-11.1	---	---	6.1	NE	0.10	7.8	-16.7	---	---	725.5	0.020	0.000	21.7	3	1
03/05/06	6:24 a	-10.8	-10.8	-10.8	---	---	5.2	NE	0.09	7.0	-16.1	---	---	725.5	0.020	0.000	21.7	3	1
03/05/06	6:25 a	-10.9	-10.8	-11.0	---	---	5.2	NE	0.09	7.8	-16.2	---	---	725.5	0.020	0.000	21.7	3	1
03/05/06	6:26 a	-11.1	-11.0	-11.1	---	---	4.3	NE	0.07	5.2	-15.7	---	---	725.5	0.020	0.000	21.7	3	1
03/05/06	6:27 a	-11.1	-11.1	-11.2	---	---	5.2	NNE	0.09	7.0	-16.4	---	---	725.5	0.020	0.000	21.7	3	1
03/05/06	6:28 a	-11.1	-10.9	-11.2	---	---	5.2	ENE	0.09	6.1	-16.4	---	---	725.5	0.020	0.000	21.7	3	1
03/05/06	6:29 a	-10.9	-10.8	-10.9	---	---	3.5	NE	0.06	4.3	-14.8	---	---	725.5	0.020	0.000	21.7	3	1
03/05/06	6:30 a	-10.6	-10.5	-10.7	---	---	2.6	N	0.04	4.3	-13.5	---	---	725.5	0.020	0.000	21.7	3	1
03/05/06	6:31 a	-10.4	-10.3	-10.4	---	---	2.6	N	0.04	3.5	-13.2	---	---	725.5	0.020	0.000	21.7	3	1
03/05/06	6:32 a	-10.2	-10.1	-10.2	---	---	2.6	NNW	0.04	4.3	-13.0	---	---	725.4	0.020	0.000	21.7	3	1
03/05/06	6:33 a	-10.1	-10.1	-10.1	---	---	0.9	NNW	0.01	1.7	-10.1	---	---	725.4	0.020	0.000	21.7	3	1
03/05/06	6:34 a	-9.9	-9.8	-10.0	---	---	0.9	NNW	0.01	2.6	-9.9	---	---	725.5	0.020	0.000	21.7	3	1
03/05/06	6:35 a	-9.9	-9.8	-9.9	---	---	2.6	NNW	0.04	3.5	-12.7	---	---	725.6	0.020	0.000	21.7	3	1
03/05/06	6:36 a	-10.0	-9.9	-10.1	---	---	1.7	NNW	0.03	3.5	-11.6	---	---	725.4	0.020	0.000	21.7	3	1
03/05/06	6:37 a	-10.1	-10.1	-10.2	---	---	4.3	NE	0.07	5.2	-14.6	---	---	725.5	0.020	0.000	21.7	3	1
03/05/06	6:38 a	-10.3	-10.2	-10.3	---	---	2.6	NE	0.04	3.5	-13.1	---	---	725.6	0.020	0.000	21.7	3	1
03/05/06	6:39 a	-10.3	-10.3	-10.4	---	---	4.3	NNE	0.07	5.2	-14.9	---	---	725.5	0.020	0.000	21.7	3	1
03/05/06	6:40 a	-10.2	-10.1	-10.3	---	---	5.2	NE	0.09	6.1	-15.4	---	---	725.4	0.020	0.000	21.7	3	1
03/05/06	6:41 a	-10.1	-10.1	-10.1	---	---	6.1	ENE	0.10	7.0	-15.8	---	---	725.4	0.020	0.000	21.7	3	1
03/05/06	6:42 a	-10.1	-10.1	-10.2	---	---	4.3	NE	0.07	7.0	-14.6	---	---	725.5	0.020	0.000	21.7	3	1
03/05/06	6:43 a	-10.1	-10.1	-10.1	---	---	8.7	NE	0.14	9.6	-17.1	---	---	725.4	0.020	0.000	21.8	3	1
03/05/06	6:44 a	-10.4	-10.3	-10.6	---	---	7.0	NE	0.12	8.7	-16.6	---	---	725.4	0.020	0.000	21.8	3	1
03/05/06	6:45 a	-10.6	-10.6	-10.7	---	---	5.2	NNE	0.09	7.0	-15.8	---	---	725.4	0.020	0.000	21.8	3	1
03/05/06	6:46 a	-10.6	-10.5	-10.6	---	---	7.0	NE	0.12	7.8	-16.8	---	---	725.5	0.020	0.000	21.9	3	1
03/05/06	6:47 a	-10.7	-10.6	-10.8	---	---	7.8	NE	0.13	8.7	-17.4	---	---	725.4	0.020	0.000	21.9	3	1
03/05/06	6:48 a	-10.9	-10.8	-10.9	---	---	7.0	NE	0.12	7.8	-17.2	---	---	725.4	0.020	0.000	21.9	3	1
03/05/06	6:49 a	-11.0	-10.9	-11.1	---	---	7.0	NE	0.12	7.0	-17.4	---	---	725.4	0.020	0.000	22.0	3	1
03/05/06	6:50 a	-11.1	-11.1	-11.2	---	---	4.3	NE	0.07	6.1	-15.8	---	---	725.4	0.020	0.000	22.0	3	1
03/05/06	6:51 a	-11.1	-11.1	-11.2	---	---	6.1	NE	0.10	7.8	-17.0	---	---	725.4	0.020	0.000	22.1	3	1
03/05/06	6:52 a	-11.2	-11.2	-11.2	---	---	7.0	NNE	0.12	8.7	-17.7	---	---	725.4	0.021	0.000	22.1	3	1
03/05/06	6:53 a	-11.1	-11.1	-11.1	---	---	7.8	NE	0.13	8.7	-17.9	---	---	725.3	0.020	0.000	22.1	3	1
03/05/06	6:54 a	-10.9	-10.9	-11.0	---	---	7.8	NE	0.13	8.7	-17.8	---	---	725.4	0.020	0.000	22.1	3	1
03/05/06	6:55 a	-11.0	-11.0	-11.1	---	---	7.0	NE	0.12	8.7	-17.4	---	---	725.4	0.020	0.000	22.1	3	1
03/05/06	6:56 a	-11.1	-11.0	-11.1	---	---	5.2	NE	0.09	7.8	-16.4	---	---	725.4	0.020	0.000	22.1	3	1
03/05/06	6:57 a	-10.9	-10.9	-10.9	---	---	5.2	NNE	0.09	7.0	-16.2	---	---	725.4	0.020	0.000	22.1	3	1
03/05/06	6:58 a	-10.8	-10.7	-10.8	---	---	6.1	NNE	0.10	7.0	-16.6	---	---	725.4	0.020	0.000	22.1	3	1
03/05/06	6:59 a	-10.6	-10.6	-10.7	---	---	6.1	NNE	0.10	8.7	-16.4	---	---	725.4	0.020	0.000	22.1	3	1
03/05/06	7:00 a	-10.6	-10.6	-10.7	---	---	7.8	NNE	0.13	8.7	-17.3	---	---	725.3	0.020	0.000	22.1	3	1
03/05/06	7:01 a	-10.8	-10.7	-10.8	---	---	7.0	NE	0.12	8.7	-17.1	---	---	725.3	0.020	0.000	22.1	3	1
03/05/06	7:02 a	-10.8	-10.8	-10.9	---	---	6.1	NE	0.10	7.0	-16.7	---	---	725.3	0.020	0.000	22.1	3	1
03/05/06	7:03 a	-10.9	-10.8	-10.9	---	---	5.2	NE	0.09	7.0	-16.2	---	---	725.3	0.020	0.000	22.1	3	1
03/05/06	7:04 a	-10.8	-10.8	-10.8	---	---	4.3	NE	0.07	5.2	-15.4	---	---	725.2	0.020	0.000	22.1	3	1
03/05/06	7:05 a	-10.8	-10.7	-10.8	---	---	6.1	NE	0.10	7.0	-16.6	---	---	725.3	0.020	0.000	22.1	3	1
03/05/06	7:06 a	-10.7	-10.7	-10.8	---	---	5.2	NE	0.09	5.2	-16.0	---	---	725.3	0.020	0.000	22.1	3	1
03/05/06	7:07 a	-10.9	-10.8	-11.0	---	---	6.1	NE	0.10	7.0	-16.7	---	---	725.3	0.020	0.000	22.0	3	1
03/05/06	7:08 a	-11.1	-11.1	-11.2	---	---	6.1	NE	0.10	7.0	-17.0	---	---	725.3	0.020	0.000	22.0	3	1
03/05/06	7:09 a	-11.4	-11.4	-11.6	---	---	6.1	NE	0.10	7.0	-17.3	---	---	725.2	0.021	0.000	22.0	3	1
03/05/06	7:10 a	-11.6	-11.5	-11.6	---	---	3.5	NE	0.06	7.0	-15.6	---	---	725.3	0.021	0.000	21.9	3	1
03/05/06	7:11 a	-11.4	-11.3	-11.5	---	---	4.3	ENE	0.07	7.0	-16.1	---	---	725.3	0.021	0.000	21.9	3	1
03/05/06	7:12 a	-11.2	-11.1	-11.3	---	---	2.6	ENE	0.04	3.5	-14.2	---	---	725.3	0.021	0.000	21.9	3	1
03/05/06	7:13 a	-11.1	-11.0	-11.1	---	---	3.5	N	0.06	4.3	-14.9	---	---	725.3	0.020	0.000	21.9	3	1
03/05/06	7:14 a	-10.9	-10.8	-10.9	---	---	1.7	N	0.03	2.6	-12.6	---	---	725.3	0.020	0.000	21.9	3	1
03/05/06	7:15 a	-10.7	-10.6	-10.7	---	---	2.6	N	0.04	3.5	-13.6	---	---	725.2	0.020	0.000	21.9	3	1
03/05/06	7:16 a	-10.4	-10.4	-10.5	---	---	4.3	NE	0.07	5.2	-15.0	---	---	725.3	0.020	0.000	21.9	3	1
03/05/06	7:17 a	-10.3	-10.2	-10.4	---	---	5.2	NE	0.09	6.1	-15.4	---	---	725.2	0.020	0.000	21.9	3	1
03/05/06	7:18 a	-10.2	-10.1	-10.2	---	---	4.3	NE	0.07	6.1	-14.7	---	---	725.3	0.020	0.000	21.9	3	1
03/05/06	7:19 a	-10.1	-10.1	-10.1	---	---	4.3	NE	0.07	5.2	-14.6	---	---	725.2	0.020	0.000	21.8	3	1
03/05/06	7:20 a	-10.1	-10.1	-10.1	---	---	3.5	NE	0.06	5.2	-13.8	---	---	725.2	0.020	0.000	21.8	3	1
03/05/06	7:21 a	-10.1	-10.1	-10.1	---	---	3.5	NE	0.06	5.2	-13.8	---	---	725.2	0.020	0.000	21.8	3	1
03/05/06	7:22 a	-10.0	-10.0	-10.1	---	---	6.1	NE	0.10	7.8	-15.7	---	---	725.2	0.020	0.000	21.8	3	1
03/05/06	7:23 a	-10.0	-10.0	-10.0	---	---	7.0	NE	0.12	7.8	-16.2	---	---	725.2	0.020	0.000	21.8	3	1
03/05/06	7:24 a	-10.1	-10.1	-10.1	---	---	4.3	NE	0.07	6.1	-14.6	---	---	725.2	0.020	0.000	21.8	3	1
03/05/06	7:25 a	-10.0	-9.9	-10.1	---	---	4.3	NE	0.07	5.2	-14.5	---	---	725.3	0.020	0.000	21.8	3	1
03/05/06	7:26 a	-9.9	-9.9	-9.9	---	---	4.3	NNE	0.07	6.1	-14.4	---	---	725.2	0.020	0.000	21.8	3	1
03/05/06	7:27 a	-9.8	-9.8	-9.9	---	---	3.5	NNE	0.06	5.2	-13.6	---	---	725.3	0.020	0.000	21.8	3	1
03/05/06	7:28 a	-9.8	-9.8	-9.9	---	---	5.2	NNE	0.09	6.1	-14.9	---	---	725.4	0.020	0.000	21.8	3	1
03/05/06	7:29 a	-9.9	-9.8	-10.0	---	---	2.6	NNE	0.04	4.3	-12.7	---	---	725.3	0.020	0.000	21.8	3	1
03/05/06	7:30 a	-10.1	-10.0	-10.2	---	---	1.7	NNE	0.03	2.6	-11.7	---	---	725.3	0.020	0.000	21.8	3	1
03/05/06	7:31 a	-10.3	-10.2	-10.4	---	---	0.9	NNE	0.01	1.7	-10.3	---	---	725.3	0.020	0.000	21.8	3	1
03/05/06	7:32 a	-10.4	-10.4	-10.6	---	---	0.0	---	0.00	0.9	-10.4	---	---	725.3	0.020	0.000	21.8	3	1
03/05/06	7:33 a	-10.6	-10.6	-10.7	---	---	0.9	NNE	0.01	1.7	-10.6	---	---	725.2	0.020	0.000	21.7	3	1
03/05/06	7:34 a	-10.7	-10.7	-10.7	---	---	0.0	NNE	0.00	0.9	-10.7	---	---	725.2	0.020	0.000	21.7	3	1
03/05/06	7:35 a	-10.7	-10.7	-10.7	---	---	0.9	NNE	0.01	1.7	-10.7	---	---	725.2	0.020	0.000	21.7	3	1
03/05/06	7:36 a	-10.7	-10.7	-10.7	---	---	0.0	NNE	0.00	0.9	-10.7	---	---	725.2	0.020	0.000	21.7	3	1
03/05/06	7:37 a	-10.6	-10.6	-10.7	---	---	0.0	NNE	0.00	0.9	-10.6	---	---	725.2	0.020	0.000	21.7	3	1
03/05/06	7:38 a	-10.5	-10.5	-10.6	---	---	0.0	---	0.00	0.0	-10.5	---	---	725.3	0.020	0.000	21.7	3	1
03/05/06	7:39 a	-10.5	-10.5	-10.5	---	---	0.0	---	0.00	0.0	-10.5	---	---	725.2	0.020	0.000	21.7	3	1
03/05/06	7:40 a	-10.4	-10.4	-10.5	---	---	0.9	NNE	0.01	1.7	-10.4	---	---	725.2	0.020	0.000	21.7	3	1
03/05/06	7:41 a	-10.5	-10.4	-10.5	---	---	0.0	NNE	0.00	0.9	-10.5	---	---	725.3	0.020	0.000	21.7	3	1
03/05/06	7:42 a	-10.5	-10.5	-10.5	---	---	0.0	---	0.00	0.0	-10.5	---	---	725.2	0.020	0.000	21.7	3	1
03/05/06	7:43 a	-10.6	-10.5	-10.6	---	---	0.9	NNE	0.01	2.6	-10.6	---	---	725.2	0.020	0.000	21.7	3	1
03/05/06	7:44 a	-10.5	-10.5	-10.5	---	---	0.0	NNE	0.00	0.9	-10.5	---	---	725.2	0.020	0.000	21.7	3	1
03/05/06	7:45 a	-10.5	-10.5	-10.5	---	---	0.0	---	0.00	0.0	-10.5	---	---	725.2	0.020	0.000	21.6	3	1
03/05/06	7:46 a	-10.5	-10.5	-10.5	---	---	0.0	---	0.00	0.0	-10.5	---	---	725.2	0.020	0.000	21.6	3	1
03/05/06	7:47 a	-10.6	-10.6	-10.6	---	---	0.9	NNE	0.01	2.6	-10.6	---	---	725.2	0.020	0.000	21.6	3	1
03/05/06	7:48 a	-10.6	-10.6	-10.7	---	---	2.6	NNE	0.04	3.5	-13.5	---	---	725.2	0.020	0.000	21.6	3	1
03/05/06	7:49 a	-10.7	-10.7	-10.8	---	---	3.5	NNE	0.06	4.3	-14.6	---	---	725.2	0.020	0.000	21.6	3	1
03/05/06	7:50 a	-10.9	-10.8	-10.9	---	---	2.6	NNE	0.04	4.3	-13.8	---	---	725.2	0.020	0.000	21.6	3	1
03/05/06	7:51 a	-10.9	-10.9	-11.0	---	---	2.6	NNE	0.04	4.3	-13.9	---	---	725.2	0.020	0.000	21.6	3	1
03/05/06	7:52 a	-11.1	-11.0	-11.1	---	---	3.5	NNE	0.06	5.2	-14.9	---	---	725.1	0.020	0.000	21.6	3	1
03/05/06	7:53 a	-11.2	-11.1	-11.2	---	---	4.3	NNE	0.07	6.1	-15.8	---	---	725.2	0.020	0.000	21.6	3	1
03/05/06	7:54 a	-11.3	-11.3	-11.5	---	---	4.3	NE	0.07	5.2	-16.1	---	---	725.2	0.021	0.000	21.6	3	1
03/05/06	7:55 a	-11.6	-11.5	-11.7	---	---	5.2	NE	0.09	6.1	-16.9	---	---	725.1	0.021	0.000	21.5	3	1
03/05/06	7:56 a	-11.8	-11.7	-11.9	---	---	6.1	NE	0.10	7.0	-17.8	---	---	725.2	0.021	0.000	21.5	3	1
03/05/06	7:57 a	-12.0	-11.9	-12.1	---	---	6.1	NE	0.10	7.0	-18.0	---	---	725.2	0.021	0.000	21.5	3	1
03/05/06	7:58 a	-12.2	-12.1	-12.3	---	---	5.2	NE	0.09	6.1	-17.8	---	---	725.1	0.021	0.000	21.5	3	1
03/05/06	7:59 a	-12.3	-12.3	-12.4	---	---	5.2	NE	0.09	6.1	-17.8	---	---	725.2	0.021	0.000	21.5	3	1
03/05/06	8:00 a	-12.4	-12.4	-12.5	---	---	6.1	NE	0.10	7.0	-18.6	---	---	725.2	0.021	0.000	21.5	3	1
03/05/06	8:01 a	-12.6	-12.5	-12.7	---	---	7.0	NE	0.12	7.0	-19.2	---	---	725.2	0.021	0.000	21.5	3	1
03/05/06	8:02 a	-12.7	-12.7	-12.8	---	---	7.0	NE	0.12	7.8	-19.4	---	---	725.2	0.022	0.000	21.5	3	1
03/05/06	8:03 a	-12.8	-12.8	-12.9	---	---	5.2	NE	0.09	6.1	-18.4	---	---	725.2	0.022	0.000	21.5	3	1
03/05/06	8:04 a	-12.9	-12.9	-13.0	---	---	5.2	NE	0.09	6.1	-18.6	---	---	725.3	0.022	0.000	21.5	3	1
03/05/06	8:05 a	-13.1	-13.0	-13.2	---	---	5.2	NE	0.09	6.1	-18.7	---	---	725.2	0.022	0.000	21.5	3	1
03/05/06	8:06 a	-13.2	-13.2	-13.2	---	---	5.2	NE	0.09	6.1	-18.9	---	---	725.2	0.022	0.000	21.5	3	1
03/05/06	8:07 a	-13.3	-13.2	-13.3	---	---	5.2	NE	0.09	6.1	-18.9	---	---	725.3	0.022	0.000	21.5	3	1
03/05/06	8:08 a	-13.3	-13.3	-13.3	---	---	5.2	NE	0.09	7.0	-19.1	---	---	725.3	0.022	0.000	21.4	3	1
03/05/06	8:09 a	-13.4	-13.3	-13.4	---	---	4.3	NE	0.07	5.2	-18.4	---	---	725.2	0.022	0.000	21.4	3	1
03/05/06	8:10 a	-13.4	-13.4	-13.4	---	---	5.2	NE	0.09	7.0	-19.1	---	---	725.3	0.022	0.000	21.4	3	1
03/05/06	8:11 a	-13.4	-13.4	-13.4	---	---	7.0	NE	0.12	7.8	-20.2	---	---	725.2	0.022	0.000	21.4	3	1
03/05/06	8:12 a	-13.5	-13.4	-13.5	---	---	7.0	NE	0.12	7.8	-20.3	---	---	725.2	0.022	0.000	21.4	3	1
03/05/06	8:13 a	-13.6	-13.6	-13.6	---	---	5.2	NE	0.09	7.0	-19.3	---	---	725.2	0.022	0.000	21.4	3	1
03/05/06	8:14 a	-13.6	-13.6	-13.6	---	---	5.2	NE	0.09	7.0	-19.3	---	---	725.3	0.022	0.000	21.4	3	1
03/05/06	8:15 a	-13.6	-13.6	-13.6	---	---	4.3	NE	0.07	7.0	-18.7	---	---	725.3	0.022	0.000	21.4	3	1
03/05/06	8:16 a	-13.6	-13.6	-13.6	---	---	4.3	NE	0.07	6.1	-18.7	---	---	725.3	0.022	0.000	21.4	3	1
03/05/06	8:17 a	-13.6	-13.6	-13.6	---	---	5.2	NNE	0.09	6.1	-19.3	---	---	725.2	0.022	0.000	21.4	3	1
03/05/06	8:18 a	-13.6	-13.6	-13.6	---	---	6.1	N	0.10	7.0	-19.9	---	---	725.2	0.022	0.000	21.4	3	1
03/05/06	8:19 a	-13.6	-13.5	-13.6	---	---	5.2	N	0.09	7.0	-19.3	---	---	725.2	0.022	0.000	21.4	3	1
03/05/06	8:20 a	-13.4	-13.4	-13.5	---	---	3.5	N	0.06	4.3	-17.7	---	---	725.2	0.022	0.000	21.4	3	1
03/05/06	8:21 a	-13.4	-13.4	-13.4	---	---	3.5	NNE	0.06	4.3	-17.7	---	---	725.2	0.022	0.000	21.4	3	1
03/05/06	8:22 a	-13.3	-13.3	-13.3	---	---	4.3	NNE	0.07	5.2	-18.3	---	---	725.3	0.022	0.000	21.4	3	1
03/05/06	8:23 a	-13.3	-13.3	-13.3	---	---	4.3	NNE	0.07	5.2	-18.3	---	---	725.3	0.022	0.000	21.4	3	1
03/05/06	8:24 a	-13.3	-13.3	-13.3	---	---	4.3	NNE	0.07	5.2	-18.3	---	---	725.2	0.022	0.000	21.4	3	1
03/05/06	8:25 a	-13.2	-13.2	-13.2	---	---	3.5	NNE	0.06	5.2	-17.4	---	---	725.2	0.022	0.000	21.4	3	1
03/05/06	8:26 a	-13.2	-13.1	-13.2	---	---	3.5	NNE	0.06	4.3	-17.4	---	---	725.2	0.022	0.000	21.4	3	1
03/05/06	8:27 a	-13.1	-13.1	-13.2	---	---	3.5	NNE	0.06	5.2	-17.3	---	---	725.2	0.022	0.000	21.4	3	1
03/05/06	8:28 a	-13.1	-13.1	-13.1	---	---	4.3	NNE	0.07	6.1	-18.0	---	---	725.1	0.022	0.000	21.4	3	1
03/05/06	8:29 a	-13.1	-13.0	-13.1	---	---	4.3	NNE	0.07	5.2	-18.0	---	---	725.2	0.022	0.000	21.4	3	1
03/05/06	8:30 a	-12.9	-12.9	-13.0	---	---	3.5	NNE	0.06	4.3	-17.1	---	---	725.2	0.022	0.000	21.4	3	1
03/05/06	8:31 a	-12.9	-12.9	-12.9	---	---	3.5	NNE	0.06	4.3	-17.1	---	---	725.2	0.022	0.000	21.4	3	1
03/05/06	8:32 a	-12.9	-12.9	-12.9	---	---	2.6	NNE	0.04	3.5	-16.1	---	---	725.2	0.022	0.000	21.4	3	1
03/05/06	8:33 a	-12.8	-12.8	-12.9	---	---	3.5	NNE	0.06	4.3	-17.0	---	---	725.1	0.022	0.000	21.4	3	1
03/05/06	8:34 a	-12.8	-12.8	-12.8	---	---	3.5	NNE	0.06	4.3	-16.9	---	---	725.2	0.022	0.000	21.4	3	1
03/05/06	8:35 a	-12.8	-12.7	-12.8	---	---	3.5	NNE	0.06	4.3	-16.9	---	---	725.2	0.022	0.000	21.4	3	1
03/05/06	8:36 a	-12.7	-12.7	-12.7	---	---	4.3	NNE	0.07	5.2	-17.6	---	---	725.1	0.022	0.000	21.4	3	1
03/05/06	8:37 a	-12.7	-12.7	-12.7	---	---	4.3	NNE	0.07	5.2	-17.6	---	---	725.2	0.022	0.000	21.4	3	1
03/05/06	8:38 a	-12.6	-12.6	-12.7	---	---	4.3	NNE	0.07	5.2	-17.6	---	---	725.3	0.021	0.000	21.4	3	1
03/05/06	8:39 a	-12.6	-12.6	-12.7	---	---	4.3	NNE	0.07	5.2	-17.6	---	---	725.1	0.021	0.000	21.4	3	1
03/05/06	8:40 a	-12.6	-12.6	-12.7	---	---	5.2	NNE	0.09	5.2	-18.2	---	---	725.1	0.021	0.000	21.4	3	1
03/05/06	8:41 a	-12.7	-12.7	-12.7	---	---	4.3	NNE	0.07	5.2	-17.6	---	---	725.3	0.022	0.000	21.4	3	1
03/05/06	8:42 a	-12.7	-12.7	-12.7	---	---	3.5	NNE	0.06	4.3	-16.8	---	---	725.3	0.022	0.000	21.4	3	1
03/05/06	8:43 a	-12.7	-12.7	-12.7	---	---	4.3	NNE	0.07	4.3	-17.6	---	---	725.2	0.022	0.000	21.3	3	1
03/05/06	8:44 a	-12.7	-12.6	-12.7	---	---	4.3	NNE	0.07	5.2	-17.6	---	---	725.2	0.022	0.000	21.4	3	1
03/05/06	8:45 a	-12.6	-12.6	-12.6	---	---	5.2	NNE	0.09	6.1	-18.2	---	---	725.2	0.021	0.000	21.4	3	1
03/05/06	8:46 a	-12.7	-12.7	-12.7	---	---	6.1	NNE	0.10	7.8	-18.8	---	---	725.2	0.022	0.000	21.3	3	1
03/05/06	8:47 a	-12.7	-12.7	-12.7	---	---	6.1	N	0.10	7.0	-18.8	---	---	725.1	0.022	0.000	21.3	3	1
03/05/06	8:48 a	-12.7	-12.7	-12.7	---	---	6.1	N	0.10	6.1	-18.8	---	---	725.1	0.022	0.000	21.3	3	1
03/05/06	8:49 a	-12.7	-12.7	-12.7	---	---	5.2	N	0.09	6.1	-18.3	---	---	725.1	0.022	0.000	21.3	3	1
03/05/06	8:50 a	-12.7	-12.7	-12.7	---	---	4.3	N	0.07	5.2	-17.7	---	---	725.3	0.022	0.000	21.3	3	1
03/05/06	8:51 a	-12.7	-12.7	-12.7	---	---	4.3	N	0.07	5.2	-17.7	---	---	725.3	0.022	0.000	21.4	3	1
03/05/06	8:52 a	-12.7	-12.7	-12.7	---	---	5.2	N	0.09	6.1	-18.3	---	---	725.2	0.022	0.000	21.4	3	1
03/05/06	8:53 a	-12.7	-12.7	-12.7	---	---	3.5	N	0.06	5.2	-16.9	---	---	725.2	0.022	0.000	21.3	3	1
03/05/06	8:54 a	-12.7	-12.7	-12.7	---	---	4.3	N	0.07	4.3	-17.7	---	---	725.2	0.022	0.000	21.3	3	1
03/05/06	8:55 a	-12.7	-12.7	-12.7	---	---	3.5	N	0.06	4.3	-16.9	---	---	725.2	0.022	0.000	21.3	3	1
03/05/06	8:56 a	-12.7	-12.7	-12.7	---	---	4.3	N	0.07	5.2	-17.6	---	---	725.3	0.022	0.000	21.3	3	1
03/05/06	8:57 a	-12.7	-12.7	-12.7	---	---	4.3	N	0.07	5.2	-17.6	---	---	725.3	0.022	0.000	21.3	3	1
03/05/06	8:58 a	-12.7	-12.7	-12.7	---	---	3.5	N	0.06	4.3	-16.8	---	---	725.2	0.022	0.000	21.3	3	1
03/05/06	8:59 a	-12.6	-12.6	-12.6	---	---	3.5	N	0.06	3.5	-16.7	---	---	725.2	0.021	0.000	21.3	3	1
03/05/06	9:00 a	-12.6	-12.6	-12.6	---	---	3.5	N	0.06	3.5	-16.7	---	---	725.3	0.021	0.000	21.3	3	1
03/05/06	9:01 a	-12.6	-12.6	-12.6	---	---	2.6	N	0.04	2.6	-15.7	---	---	725.2	0.021	0.000	21.3	3	1
03/05/06	9:02 a	-12.6	-12.6	-12.6	---	---	2.6	N	0.04	3.5	-15.7	---	---	725.2	0.021	0.000	21.3	3	1
03/05/06	9:03 a	-12.5	-12.5	-12.5	---	---	2.6	N	0.04	2.6	-15.6	---	---	725.2	0.021	0.000	21.3	3	1
03/05/06	9:04 a	-12.5	-12.4	-12.5	---	---	1.7	N	0.03	2.6	-14.3	---	---	725.2	0.021	0.000	21.3	3	1
03/05/06	9:05 a	-12.5	-12.5	-12.5	---	---	1.7	N	0.03	2.6	-14.3	---	---	725.3	0.021	0.000	21.3	3	1
03/05/06	9:06 a	-12.5	-12.5	-12.5	---	---	1.7	N	0.03	1.7	-14.3	---	---	725.3	0.021	0.000	21.3	3	1
03/05/06	9:07 a	-12.4	-12.4	-12.4	---	---	1.7	N	0.03	2.6	-14.3	---	---	725.3	0.021	0.000	21.3	3	1
03/05/06	9:08 a	-12.4	-12.4	-12.4	---	---	2.6	N	0.04	2.6	-15.6	---	---	725.2	0.021	0.000	21.3	3	1
03/05/06	9:09 a	-12.4	-12.4	-12.4	---	---	2.6	N	0.04	3.5	-15.6	---	---	725.2	0.021	0.000	21.3	3	1
03/05/06	9:10 a	-12.4	-12.4	-12.4	---	---	3.5	N	0.06	3.5	-16.6	---	---	725.2	0.021	0.000	21.3	3	1
03/05/06	9:11 a	-12.4	-12.4	-12.4	---	---	3.5	N	0.06	4.3	-16.6	---	---	725.3	0.021	0.000	21.3	3	1
03/05/06	9:12 a	-12.4	-12.4	-12.4	---	---	2.6	N	0.04	3.5	-15.5	---	---	725.3	0.021	0.000	21.3	3	1
03/05/06	9:13 a	-12.4	-12.4	-12.4	---	---	2.6	N	0.04	3.5	-15.5	---	---	725.2	0.021	0.000	21.3	3	1
03/05/06	9:14 a	-12.4	-12.4	-12.4	---	---	1.7	N	0.03	2.6	-14.2	---	---	725.3	0.021	0.000	21.3	3	1
03/05/06	9:15 a	-12.4	-12.3	-12.4	---	---	1.7	N	0.03	2.6	-14.2	---	---	725.2	0.021	0.000	21.3	3	1
03/05/06	9:16 a	-12.3	-12.3	-12.3	---	---	2.6	N	0.04	3.5	-15.4	---	---	725.3	0.021	0.000	21.3	3	1
03/05/06	9:17 a	-12.3	-12.3	-12.3	---	---	2.6	N	0.04	3.5	-15.4	---	---	725.3	0.021	0.000	21.3	3	1
03/05/06	9:18 a	-12.3	-12.3	-12.4	---	---	2.6	N	0.04	3.5	-15.4	---	---	725.2	0.021	0.000	21.3	3	1
03/05/06	9:19 a	-12.4	-12.3	-12.4	---	---	2.6	N	0.04	3.5	-15.5	---	---	725.1	0.021	0.000	21.3	3	1
03/05/06	9:20 a	-12.3	-12.3	-12.3	---	---	2.6	N	0.04	3.5	-15.4	---	---	725.3	0.021	0.000	21.3	3	1
03/05/06	9:21 a	-12.3	-12.3	-12.3	---	---	2.6	N	0.04	3.5	-15.4	---	---	725.2	0.021	0.000	21.3	3	1
03/05/06	9:22 a	-12.3	-12.3	-12.3	---	---	2.6	N	0.04	3.5	-15.4	---	---	725.2	0.021	0.000	21.3	3	1
03/05/06	9:23 a	-12.3	-12.3	-12.3	---	---	2.6	N	0.04	3.5	-15.4	---	---	725.2	0.021	0.000	21.3	3	1
03/05/06	9:24 a	-12.3	-12.3	-12.3	---	---	2.6	N	0.04	3.5	-15.4	---	---	725.3	0.021	0.000	21.3	3	1
03/05/06	9:25 a	-12.3	-12.3	-12.3	---	---	3.5	N	0.06	4.3	-16.4	---	---	725.3	0.021	0.000	21.3	3	1
03/05/06	9:26 a	-12.3	-12.3	-12.4	---	---	2.6	N	0.04	3.5	-15.4	---	---	725.3	0.021	0.000	21.3	3	1
03/05/06	9:27 a	-12.3	-12.3	-12.4	---	---	2.6	N	0.04	2.6	-15.4	---	---	725.3	0.021	0.000	21.3	3	1
03/05/06	9:28 a	-12.4	-12.3	-12.4	---	---	1.7	N	0.03	2.6	-14.2	---	---	725.3	0.021	0.000	21.3	3	1
03/05/06	9:29 a	-12.3	-12.3	-12.4	---	---	1.7	N	0.03	2.6	-14.1	---	---	725.3	0.021	0.000	21.3	3	1
03/05/06	9:30 a	-12.3	-12.3	-12.3	---	---	1.7	N	0.03	2.6	-14.1	---	---	725.2	0.021	0.000	21.3	3	1
03/05/06	9:31 a	-12.3	-12.3	-12.3	---	---	1.7	N	0.03	2.6	-14.1	---	---	725.2	0.021	0.000	21.3	3	1
03/05/06	9:32 a	-12.3	-12.3	-12.3	---	---	1.7	N	0.03	2.6	-14.1	---	---	725.2	0.021	0.000	21.3	3	1
03/05/06	9:33 a	-12.3	-12.3	-12.3	---	---	0.9	N	0.01	1.7	-12.3	---	---	725.2	0.021	0.000	21.3	3	1
03/05/06	9:34 a	-12.3	-12.3	-12.3	---	---	0.9	N	0.01	1.7	-12.3	---	---	725.2	0.021	0.000	21.3	3	1
03/05/06	9:35 a	-12.3	-12.3	-12.3	---	---	1.7	N	0.03	3.5	-14.1	---	---	725.3	0.021	0.000	21.3	3	1
03/05/06	9:36 a	-12.4	-12.3	-12.4	---	---	2.6	N	0.04	3.5	-15.5	---	---	725.2	0.021	0.000	21.3	3	1
03/05/06	9:37 a	-12.4	-12.4	-12.4	---	---	2.6	N	0.04	3.5	-15.5	---	---	725.3	0.021	0.000	21.3	3	1
03/05/06	9:38 a	-12.4	-12.4	-12.4	---	---	2.6	N	0.04	3.5	-15.5	---	---	725.3	0.021	0.000	21.3	3	1
03/05/06	9:39 a	-12.4	-12.4	-12.4	---	---	0.9	N	0.01	2.6	-12.4	---	---	725.3	0.021	0.000	21.3	3	1
03/05/06	9:40 a	-12.4	-12.4	-12.4	---	---	0.0	---	0.00	0.0	-12.4	---	---	725.2	0.021	0.000	21.3	3	1
03/05/06	9:41 a	-12.4	-12.4	-12.5	---	---	0.0	---	0.00	0.0	-12.4	---	---	725.3	0.021	0.000	21.3	3	1
03/05/06	9:42 a	-12.5	-12.4	-12.5	---	---	0.0	---	0.00	0.0	-12.5	---	---	725.3	0.021	0.000	21.3	3	1
03/05/06	9:43 a	-12.5	-12.5	-12.6	---	---	0.0	---	0.00	0.0	-12.5	---	---	725.2	0.021	0.000	21.3	3	1
03/05/06	9:44 a	-12.6	-12.6	-12.6	---	---	0.0	---	0.00	0.0	-12.6	---	---	725.2	0.021	0.000	21.3	3	1
03/05/06	9:45 a	-12.6	-12.6	-12.6	---	---	0.0	N	0.00	2.6	-12.6	---	---	725.2	0.021	0.000	21.3	3	1
03/05/06	9:46 a	-12.7	-12.6	-12.7	---	---	2.6	N	0.04	4.3	-15.8	---	---	725.2	0.022	0.000	21.3	3	1
03/05/06	9:47 a	-12.7	-12.7	-12.8	---	---	4.3	N	0.07	5.2	-17.7	---	---	725.1	0.022	0.000	21.3	3	1
03/05/06	9:48 a	-12.8	-12.8	-12.9	---	---	5.2	NE	0.09	7.8	-18.4	---	---	725.2	0.022	0.000	21.3	3	1
03/05/06	9:49 a	-13.0	-12.9	-13.1	---	---	7.0	NE	0.12	7.8	-19.7	---	---	725.1	0.022	0.000	21.3	3	1
03/05/06	9:50 a	-13.2	-13.1	-13.3	---	---	7.0	NE	0.12	7.8	-19.9	---	---	725.2	0.022	0.000	21.3	3	1
03/05/06	9:51 a	-13.4	-13.3	-13.5	---	---	7.8	NE	0.13	7.8	-20.7	---	---	725.1	0.022	0.000	21.3	3	1
03/05/06	9:52 a	-13.6	-13.5	-13.6	---	---	7.0	NE	0.12	7.8	-20.4	---	---	725.2	0.022	0.000	21.3	3	1
03/05/06	9:53 a	-13.7	-13.6	-13.8	---	---	7.8	NE	0.13	8.7	-21.1	---	---	725.1	0.022	0.000	21.3	3	1
03/05/06	9:54 a	-13.8	-13.8	-13.8	---	---	7.0	NE	0.12	7.8	-20.7	---	---	725.1	0.022	0.000	21.3	3	1
03/05/06	9:55 a	-13.8	-13.8	-13.9	---	---	7.8	NE	0.13	8.7	-21.2	---	---	725.2	0.022	0.000	21.3	3	1
03/05/06	9:56 a	-13.9	-13.9	-13.9	---	---	7.0	NE	0.12	7.8	-20.8	---	---	725.2	0.022	0.000	21.3	3	1
03/05/06	9:57 a	-13.9	-13.9	-14.0	---	---	7.0	NE	0.12	7.8	-20.9	---	---	725.2	0.022	0.000	21.3	3	1
03/05/06	9:58 a	-14.0	-14.0	-14.0	---	---	7.8	NE	0.13	7.8	-21.4	---	---	725.2	0.022	0.000	21.3	3	1
03/05/06	9:59 a	-14.0	-14.0	-14.1	---	---	7.8	NE	0.13	9.6	-21.4	---	---	725.1	0.022	0.000	21.3	3	1
03/05/06	10:00 a	-14.1	-14.1	-14.1	---	---	7.0	NE	0.12	8.7	-21.1	---	---	725.1	0.022	0.000	21.3	3	1
03/05/06	10:01 a	-14.1	-14.1	-14.1	---	---	6.1	NE	0.10	7.8	-20.6	---	---	725.1	0.023	0.000	21.3	3	1
03/05/06	10:02 a	-14.1	-14.1	-14.1	---	---	5.2	NE	0.09	6.1	-19.9	---	---	725.2	0.023	0.000	21.3	3	1
03/05/06	10:03 a	-14.1	-14.1	-14.1	---	---	6.1	NE	0.10	7.8	-20.6	---	---	725.2	0.023	0.000	21.3	3	1
03/05/06	10:04 a	-14.1	-14.1	-14.1	---	---	7.8	NE	0.13	8.7	-21.5	---	---	725.2	0.022	0.000	21.3	3	1
03/05/06	10:05 a	-14.1	-14.1	-14.1	---	---	7.8	NE	0.13	9.6	-21.5	---	---	725.2	0.022	0.000	21.3	3	1
03/05/06	10:06 a	-14.1	-14.1	-14.1	---	---	7.0	NE	0.12	8.7	-21.1	---	---	725.2	0.022	0.000	21.3	3	1
03/05/06	10:07 a	-14.1	-14.1	-14.1	---	---	7.0	NE	0.12	7.8	-21.1	---	---	725.1	0.022	0.000	21.3	3	1
03/05/06	10:08 a	-14.1	-14.1	-14.1	---	---	7.0	NE	0.12	9.6	-21.1	---	---	725.2	0.022	0.000	21.3	3	1
03/05/06	10:09 a	-14.1	-14.1	-14.1	---	---	7.8	NE	0.13	8.7	-21.5	---	---	725.2	0.022	0.000	21.3	3	1
03/05/06	10:10 a	-14.1	-14.0	-14.1	---	---	7.8	NE	0.13	9.6	-21.5	---	---	725.2	0.022	0.000	21.3	3	1
03/05/06	10:11 a	-14.0	-14.0	-14.1	---	---	8.7	NE	0.14	9.6	-21.9	---	---	725.2	0.022	0.000	21.3	3	1
03/05/06	10:12 a	-14.0	-14.0	-14.0	---	---	7.8	NE	0.13	8.7	-21.4	---	---	725.2	0.022	0.000	21.3	3	1
03/05/06	10:13 a	-14.0	-14.0	-14.0	---	---	7.8	NE	0.13	9.6	-21.4	---	---	725.2	0.022	0.000	21.3	3	1
03/05/06	10:14 a	-14.0	-14.0	-14.0	---	---	7.0	NE	0.12	8.7	-20.9	---	---	725.3	0.022	0.000	21.3	3	1
03/05/06	10:15 a	-14.0	-14.0	-14.0	---	---	7.8	NE	0.13	8.7	-21.4	---	---	725.3	0.022	0.000	21.3	3	1
03/05/06	10:16 a	-14.0	-14.0	-14.0	---	---	7.8	NE	0.13	9.6	-21.4	---	---	725.3	0.022	0.000	21.3	3	1
03/05/06	10:17 a	-14.0	-14.0	-14.1	---	---	7.0	NE	0.12	7.8	-20.9	---	---	725.3	0.022	0.000	21.3	3	1
03/05/06	10:18 a	-14.1	-14.1	-14.1	---	---	7.0	NE	0.12	7.8	-21.1	---	---	725.2	0.022	0.000	21.3	3	1
03/05/06	10:19 a	-14.1	-14.1	-14.1	---	---	7.8	NE	0.13	9.6	-21.5	---	---	725.1	0.022	0.000	21.3	3	1
03/05/06	10:20 a	-14.1	-14.1	-14.1	---	---	8.7	NE	0.14	9.6	-22.1	---	---	725.2	0.023	0.000	21.3	3	1
03/05/06	10:21 a	-14.2	-14.2	-14.2	---	---	7.8	NE	0.13	8.7	-21.7	---	---	725.2	0.023	0.000	21.3	3	1
03/05/06	10:22 a	-14.2	-14.2	-14.3	---	---	7.8	NE	0.13	8.7	-21.7	---	---	725.2	0.023	0.000	21.3	3	1
03/05/06	10:23 a	-14.3	-14.3	-14.3	---	---	8.7	NE	0.14	9.6	-22.3	---	---	725.2	0.023	0.000	21.3	3	1
03/05/06	10:24 a	-14.4	-14.3	-14.4	---	---	8.7	NE	0.14	8.7	-22.4	---	---	725.2	0.023	0.000	21.3	3	1
03/05/06	10:25 a	-14.4	-14.4	-14.4	---	---	8.7	NE	0.14	9.6	-22.4	---	---	725.2	0.023	0.000	21.3	3	1
03/05/06	10:26 a	-14.5	-14.5	-14.6	---	---	7.8	NE	0.13	9.6	-22.1	---	---	725.2	0.023	0.000	21.3	3	1
03/05/06	10:27 a	-14.6	-14.6	-14.6	---	---	7.8	NE	0.13	8.7	-22.1	---	---	725.2	0.023	0.000	21.3	3	1
03/05/06	10:28 a	-14.6	-14.6	-14.6	---	---	8.7	NE	0.14	9.6	-22.7	---	---	725.2	0.023	0.000	21.3	3	1
03/05/06	10:29 a	-14.7	-14.7	-14.7	---	---	7.8	NE	0.13	9.6	-22.3	---	---	725.2	0.023	0.000	21.3	3	1
03/05/06	10:30 a	-14.7	-14.7	-14.7	---	---	8.7	NE	0.14	10.4	-22.7	---	---	725.2	0.023	0.000	21.3	3	1
03/05/06	10:31 a	-14.7	-14.7	-14.7	---	---	8.7	NE	0.14	10.4	-22.7	---	---	725.1	0.023	0.000	21.3	3	1
03/05/06	10:32 a	-14.7	-14.7	-14.7	---	---	8.7	NE	0.14	10.4	-22.8	---	---	725.2	0.023	0.000	21.3	3	1
03/05/06	10:33 a	-14.7	-14.7	-14.7	---	---	9.6	NE	0.16	11.3	-23.2	---	---	725.2	0.023	0.000	21.3	3	1
03/05/06	10:34 a	-14.8	-14.7	-14.8	---	---	8.7	NE	0.14	10.4	-22.8	---	---	725.2	0.023	0.000	21.3	3	1
03/05/06	10:35 a	-14.8	-14.8	-14.8	---	---	7.8	NE	0.13	9.6	-22.4	---	---	725.2	0.023	0.000	21.3	3	1
03/05/06	10:36 a	-14.8	-14.8	-14.8	---	---	7.8	NE	0.13	9.6	-22.4	---	---	725.2	0.023	0.000	21.3	3	1
03/05/06	10:37 a	-14.8	-14.8	-14.8	---	---	8.7	NE	0.14	9.6	-22.8	---	---	725.2	0.023	0.000	21.3	3	1
03/05/06	10:38 a	-14.8	-14.8	-14.8	---	---	8.7	NE	0.14	9.6	-22.8	---	---	725.2	0.023	0.000	21.3	3	1
03/05/06	10:39 a	-14.8	-14.8	-14.8	---	---	7.0	NE	0.12	9.6	-21.9	---	---	725.2	0.023	0.000	21.3	3	1
03/05/06	10:40 a	-14.7	-14.7	-14.7	---	---	8.7	NE	0.14	9.6	-22.8	---	---	725.2	0.023	0.000	21.3	3	1
03/05/06	10:41 a	-14.7	-14.7	-14.7	---	---	8.7	NE	0.14	10.4	-22.8	---	---	725.1	0.023	0.000	21.3	3	1
03/05/06	10:42 a	-14.7	-14.7	-14.7	---	---	8.7	NE	0.14	9.6	-22.7	---	---	725.2	0.023	0.000	21.3	3	1
03/05/06	10:43 a	-14.7	-14.7	-14.7	---	---	7.8	NNE	0.13	8.7	-22.3	---	---	725.1	0.023	0.000	21.3	3	1
03/05/06	10:44 a	-14.6	-14.6	-14.7	---	---	7.8	NE	0.13	9.6	-22.2	---	---	725.2	0.023	0.000	21.3	3	1
03/05/06	10:45 a	-14.6	-14.6	-14.6	---	---	8.7	NE	0.14	11.3	-22.7	---	---	725.1	0.023	0.000	21.3	3	1
03/05/06	10:46 a	-14.6	-14.6	-14.6	---	---	8.7	NE	0.14	10.4	-22.6	---	---	725.2	0.023	0.000	21.3	3	1
03/05/06	10:47 a	-14.6	-14.5	-14.6	---	---	7.0	NE	0.12	9.6	-21.7	---	---	725.2	0.023	0.000	21.3	3	1
03/05/06	10:48 a	-14.5	-14.5	-14.5	---	---	7.8	NE	0.13	9.6	-22.1	---	---	725.2	0.023	0.000	21.3	3	1
03/05/06	10:49 a	-14.4	-14.4	-14.5	---	---	8.7	NE	0.14	9.6	-22.4	---	---	725.2	0.023	0.000	21.3	3	1
03/05/06	10:50 a	-14.4	-14.4	-14.5	---	---	7.8	NE	0.13	9.6	-22.0	---	---	725.2	0.023	0.000	21.3	3	1
03/05/06	10:51 a	-14.4	-14.4	-14.5	---	---	10.4	NE	0.17	12.2	-23.2	---	---	725.1	0.023	0.000	21.3	3	1
03/05/06	10:52 a	-14.5	-14.5	-14.5	---	---	8.7	NE	0.14	9.6	-22.5	---	---	725.1	0.023	0.000	21.3	3	1
03/05/06	10:53 a	-14.5	-14.5	-14.5	---	---	9.6	NE	0.16	11.3	-22.9	---	---	725.2	0.023	0.000	21.3	3	1
03/05/06	10:54 a	-14.5	-14.5	-14.5	---	---	8.7	NE	0.14	9.6	-22.5	---	---	725.2	0.023	0.000	21.3	3	1
03/05/06	10:55 a	-14.5	-14.5	-14.6	---	---	8.7	NE	0.14	9.6	-22.5	---	---	725.1	0.023	0.000	21.3	3	1
03/05/06	10:56 a	-14.5	-14.5	-14.6	---	---	8.7	NE	0.14	9.6	-22.5	---	---	725.1	0.023	0.000	21.3	3	1
03/05/06	10:57 a	-14.5	-14.5	-14.6	---	---	9.6	NE	0.16	11.3	-22.9	---	---	725.1	0.023	0.000	21.3	3	1
03/05/06	10:58 a	-14.5	-14.5	-14.6	---	---	9.6	NE	0.16	10.4	-22.9	---	---	725.0	0.023	0.000	21.3	3	1
03/05/06	10:59 a	-14.5	-14.5	-14.6	---	---	9.6	NE	0.16	11.3	-22.9	---	---	725.1	0.023	0.000	21.3	3	1
03/05/06	11:00 a	-14.6	-14.6	-14.6	---	---	8.7	NE	0.14	10.4	-22.6	---	---	725.1	0.023	0.000	21.3	3	1
03/05/06	11:01 a	-14.6	-14.6	-14.6	---	---	9.6	NE	0.16	10.4	-23.0	---	---	725.1	0.023	0.000	21.3	3	1
03/05/06	11:02 a	-14.6	-14.6	-14.6	---	---	8.7	NE	0.14	9.6	-22.6	---	---	725.1	0.023	0.000	21.3	3	1
03/05/06	11:03 a	-14.6	-14.5	-14.6	---	---	7.8	NE	0.13	9.6	-22.1	---	---	725.1	0.023	0.000	21.3	3	1
03/05/06	11:04 a	-14.5	-14.5	-14.5	---	---	9.6	NE	0.16	10.4	-22.9	---	---	725.2	0.023	0.000	21.3	3	1
03/05/06	11:05 a	-14.5	-14.5	-14.5	---	---	9.6	NE	0.16	10.4	-22.9	---	---	725.1	0.023	0.000	21.3	3	1
03/05/06	11:06 a	-14.5	-14.5	-14.5	---	---	8.7	NE	0.14	10.4	-22.5	---	---	725.1	0.023	0.000	21.3	3	1
03/05/06	11:07 a	-14.5	-14.5	-14.6	---	---	8.7	NE	0.14	9.6	-22.5	---	---	725.0	0.023	0.000	21.3	3	1
03/05/06	11:08 a	-14.6	-14.6	-14.6	---	---	8.7	NE	0.14	9.6	-22.6	---	---	725.1	0.023	0.000	21.3	3	1
03/05/06	11:09 a	-14.6	-14.6	-14.7	---	---	9.6	NE	0.16	10.4	-23.1	---	---	725.1	0.023	0.000	21.3	3	1
03/05/06	11:10 a	-14.7	-14.7	-14.8	---	---	9.6	NE	0.16	10.4	-23.2	---	---	725.1	0.023	0.000	21.3	3	1
03/05/06	11:11 a	-14.8	-14.8	-14.8	---	---	8.7	NE	0.14	9.6	-22.8	---	---	725.1	0.023	0.000	21.3	3	1
03/05/06	11:12 a	-14.8	-14.8	-14.8	---	---	9.6	NE	0.16	10.4	-23.3	---	---	725.1	0.023	0.000	21.3	3	1
03/05/06	11:13 a	-14.9	-14.9	-14.9	---	---	8.7	NE	0.14	9.6	-23.0	---	---	725.1	0.023	0.000	21.3	3	1
03/05/06	11:14 a	-14.9	-14.9	-14.9	---	---	9.6	NE	0.16	10.4	-23.4	---	---	725.2	0.023	0.000	21.3	3	1
03/05/06	11:15 a	-14.9	-14.9	-15.0	---	---	9.6	NE	0.16	10.4	-23.5	---	---	725.2	0.023	0.000	21.3	3	1
03/05/06	11:16 a	-15.0	-15.0	-15.1	---	---	8.7	NE	0.14	10.4	-23.1	---	---	725.1	0.023	0.000	21.3	3	1
03/05/06	11:17 a	-15.1	-15.1	-15.2	---	---	8.7	NE	0.14	9.6	-23.3	---	---	725.1	0.023	0.000	21.3	3	1
03/05/06	11:18 a	-15.2	-15.2	-15.2	---	---	8.7	NE	0.14	9.6	-23.3	---	---	725.1	0.023	0.000	21.3	3	1
03/05/06	11:19 a	-15.2	-15.2	-15.2	---	---	9.6	NE	0.16	10.4	-23.8	---	---	725.1	0.023	0.000	21.3	3	1
03/05/06	11:20 a	-15.2	-15.2	-15.2	---	---	9.6	NE	0.16	10.4	-23.8	---	---	725.1	0.023	0.000	21.3	3	1
03/05/06	11:21 a	-15.2	-15.1	-15.2	---	---	8.7	NE	0.14	9.6	-23.3	---	---	725.1	0.023	0.000	21.3	3	1
03/05/06	11:22 a	-15.1	-15.1	-15.1	---	---	8.7	NE	0.14	9.6	-23.3	---	---	725.0	0.023	0.000	21.3	3	1
03/05/06	11:23 a	-15.0	-14.9	-15.1	---	---	9.6	NE	0.16	10.4	-23.6	---	---	725.1	0.023	0.000	21.3	3	1
03/05/06	11:24 a	-14.9	-14.9	-14.9	---	---	9.6	NE	0.16	10.4	-23.5	---	---	725.1	0.023	0.000	21.3	3	1
03/05/06	11:25 a	-14.9	-14.9	-14.9	---	---	9.6	NE	0.16	10.4	-23.5	---	---	725.1	0.023	0.000	21.3	3	1
03/05/06	11:26 a	-14.9	-14.9	-14.9	---	---	9.6	NE	0.16	10.4	-23.5	---	---	725.0	0.023	0.000	21.3	3	1
03/05/06	11:27 a	-14.9	-14.9	-14.9	---	---	8.7	NE	0.14	9.6	-23.1	---	---	725.1	0.023	0.000	21.3	3	1
03/05/06	11:28 a	-14.9	-14.9	-14.9	---	---	8.7	NE	0.14	10.4	-23.1	---	---	725.0	0.023	0.000	21.3	3	1
03/05/06	11:29 a	-14.9	-14.8	-14.9	---	---	8.7	NE	0.14	9.6	-23.0	---	---	725.1	0.023	0.000	21.3	3	1
03/05/06	11:30 a	-14.8	-14.8	-14.8	---	---	8.7	NNE	0.14	9.6	-22.9	---	---	725.1	0.023	0.000	21.3	3	1
03/05/06	11:31 a	-14.8	-14.8	-14.8	---	---	8.7	NE	0.14	9.6	-22.9	---	---	725.1	0.023	0.000	21.2	3	1
03/05/06	11:32 a	-14.8	-14.8	-14.8	---	---	8.7	NNE	0.14	9.6	-22.8	---	---	725.1	0.023	0.000	21.3	3	1
03/05/06	11:33 a	-14.8	-14.7	-14.8	---	---	8.7	NE	0.14	9.6	-22.8	---	---	725.1	0.023	0.000	21.2	3	1
03/05/06	11:34 a	-14.7	-14.7	-14.7	---	---	8.7	NNE	0.14	9.6	-22.7	---	---	725.1	0.023	0.000	21.3	3	1
03/05/06	11:35 a	-14.7	-14.6	-14.7	---	---	8.7	NE	0.14	9.6	-22.7	---	---	725.2	0.023	0.000	21.2	3	1
03/05/06	11:36 a	-14.6	-14.5	-14.6	---	---	8.7	NE	0.14	8.7	-22.6	---	---	725.1	0.023	0.000	21.2	3	1
03/05/06	11:37 a	-14.4	-14.4	-14.5	---	---	7.8	NE	0.13	9.6	-22.0	---	---	725.1	0.023	0.000	21.2	3	1
03/05/06	11:38 a	-14.4	-14.3	-14.4	---	---	7.8	NE	0.13	8.7	-21.9	---	---	725.1	0.023	0.000	21.2	3	1
03/05/06	11:39 a	-14.3	-14.3	-14.3	---	---	7.8	NE	0.13	8.7	-21.9	---	---	725.1	0.023	0.000	21.2	3	1
03/05/06	11:40 a	-14.2	-14.2	-14.3	---	---	7.8	NE	0.13	8.7	-21.7	---	---	725.1	0.023	0.000	21.2	3	1
03/05/06	11:41 a	-14.2	-14.2	-14.2	---	---	7.8	NE	0.13	8.7	-21.7	---	---	725.1	0.023	0.000	21.2	3	1
03/05/06	11:42 a	-14.2	-14.2	-14.2	---	---	7.8	NE	0.13	8.7	-21.7	---	---	725.1	0.023	0.000	21.2	3	1
03/05/06	11:43 a	-14.2	-14.2	-14.2	---	---	8.7	NE	0.14	8.7	-22.1	---	---	725.0	0.023	0.000	21.2	3	1
03/05/06	11:44 a	-14.1	-14.1	-14.1	---	---	7.8	NE	0.13	8.7	-21.6	---	---	725.1	0.023	0.000	21.2	3	1
03/05/06	11:45 a	-14.1	-14.1	-14.1	---	---	7.8	NE	0.13	8.7	-21.6	---	---	725.1	0.023	0.000	21.2	3	1
03/05/06	11:46 a	-14.1	-14.1	-14.1	---	---	7.0	NE	0.12	7.8	-21.1	---	---	725.1	0.023	0.000	21.3	3	1
03/05/06	11:47 a	-14.1	-14.1	-14.1	---	---	7.0	NE	0.12	7.8	-21.1	---	---	725.1	0.023	0.000	21.2	3	1
03/05/06	11:48 a	-14.1	-14.0	-14.1	---	---	7.0	NE	0.12	8.7	-21.1	---	---	725.2	0.022	0.000	21.2	3	1
03/05/06	11:49 a	-14.0	-14.0	-14.1	---	---	7.0	NE	0.12	7.8	-20.9	---	---	725.2	0.022	0.000	21.2	3	1
03/05/06	11:50 a	-14.0	-14.0	-14.0	---	---	7.0	NE	0.12	7.8	-20.9	---	---	725.2	0.022	0.000	21.2	3	1
03/05/06	11:51 a	-14.0	-14.0	-14.0	---	---	7.0	NE	0.12	7.8	-20.9	---	---	725.2	0.022	0.000	21.2	3	1
03/05/06	11:52 a	-14.0	-14.0	-14.0	---	---	7.8	NE	0.13	8.7	-21.4	---	---	725.1	0.022	0.000	21.2	3	1
03/05/06	11:53 a	-14.0	-14.0	-14.0	---	---	7.0	NE	0.12	7.8	-20.9	---	---	725.1	0.022	0.000	21.2	3	1
03/05/06	11:54 a	-14.0	-14.0	-14.0	---	---	7.0	NE	0.12	7.8	-20.9	---	---	725.1	0.022	0.000	21.2	3	1
03/05/06	11:55 a	-14.0	-14.0	-14.0	---	---	7.0	NE	0.12	7.0	-20.9	---	---	725.1	0.022	0.000	21.2	3	1
03/05/06	11:56 a	-14.0	-14.0	-14.0	---	---	7.0	NE	0.12	7.8	-20.9	---	---	725.1	0.022	0.000	21.2	3	1
03/05/06	11:57 a	-14.0	-14.0	-14.0	---	---	7.0	NE	0.12	7.8	-20.9	---	---	725.1	0.022	0.000	21.2	3	1
03/05/06	11:58 a	-13.9	-13.9	-14.0	---	---	7.0	NE	0.12	7.8	-20.9	---	---	725.1	0.022	0.000	21.2	3	1
03/05/06	11:59 a	-13.9	-13.9	-13.9	---	---	6.1	NE	0.10	7.0	-20.4	---	---	725.1	0.022	0.000	21.2	3	1
03/05/06	12:00 p	-13.9	-13.9	-13.9	---	---	7.0	NE	0.12	7.8	-20.9	---	---	725.1	0.022	0.000	21.2	3	1
03/05/06	12:01 p	-13.9	-13.9	-13.9	---	---	7.0	NE	0.12	7.8	-20.8	---	---	725.1	0.022	0.000	21.2	3	1
03/05/06	12:02 p	-13.9	-13.9	-13.9	---	---	7.0	NE	0.12	7.8	-20.8	---	---	725.1	0.022	0.000	21.2	3	1
03/05/06	12:03 p	-13.9	-13.9	-13.9	---	---	7.8	NE	0.13	7.8	-21.3	---	---	725.1	0.022	0.000	21.2	3	1
03/05/06	12:04 p	-13.9	-13.9	-13.9	---	---	7.0	NE	0.12	7.8	-20.9	---	---	725.0	0.022	0.000	21.2	3	1
03/05/06	12:05 p	-14.0	-13.9	-14.0	---	---	7.0	NE	0.12	7.8	-20.9	---	---	725.0	0.022	0.000	21.2	3	1
03/05/06	12:06 p	-14.1	-14.0	-14.1	---	---	7.0	NE	0.12	7.8	-21.1	---	---	725.1	0.022	0.000	21.2	3	1
03/05/06	12:07 p	-14.1	-14.1	-14.1	---	---	7.0	NE	0.12	7.8	-21.1	---	---	725.1	0.022	0.000	21.2	3	1
03/05/06	12:08 p	-14.1	-14.1	-14.2	---	---	7.0	NE	0.12	7.8	-21.1	---	---	725.1	0.023	0.000	21.2	3	1
03/05/06	12:09 p	-14.2	-14.2	-14.2	---	---	7.0	NE	0.12	7.8	-21.2	---	---	725.2	0.023	0.000	21.2	3	1
03/05/06	12:10 p	-14.2	-14.2	-14.2	---	---	7.0	NE	0.12	7.8	-21.2	---	---	725.2	0.023	0.000	21.2	3	1
03/05/06	12:11 p	-14.2	-14.2	-14.3	---	---	6.1	NE	0.10	7.0	-20.7	---	---	725.1	0.023	0.000	21.2	3	1
03/05/06	12:12 p	-14.3	-14.3	-14.3	---	---	7.0	NE	0.12	7.8	-21.3	---	---	725.2	0.023	0.000	21.2	3	1
03/05/06	12:13 p	-14.3	-14.3	-14.3	---	---	7.0	NE	0.12	7.8	-21.3	---	---	725.1	0.023	0.000	21.2	3	1
03/05/06	12:14 p	-14.3	-14.3	-14.3	---	---	7.0	NE	0.12	7.8	-21.4	---	---	725.1	0.023	0.000	21.2	3	1
03/05/06	12:15 p	-14.4	-14.4	-14.4	---	---	7.8	NE	0.13	8.7	-21.9	---	---	725.1	0.023	0.000	21.2	3	1
03/05/06	12:16 p	-14.4	-14.4	-14.4	---	---	7.8	NE	0.13	7.8	-21.9	---	---	725.1	0.023	0.000	21.2	3	1
03/05/06	12:17 p	-14.4	-14.4	-14.4	---	---	7.8	NE	0.13	9.6	-22.0	---	---	725.1	0.023	0.000	21.2	3	1
03/05/06	12:18 p	-14.4	-14.4	-14.4	---	---	7.0	NE	0.12	8.7	-21.4	---	---	725.1	0.023	0.000	21.2	3	1
03/05/06	12:19 p	-14.4	-14.4	-14.4	---	---	7.8	NE	0.13	7.8	-21.9	---	---	725.2	0.023	0.000	21.2	3	1
03/05/06	12:20 p	-14.4	-14.4	-14.4	---	---	7.8	NE	0.13	8.7	-21.9	---	---	725.1	0.023	0.000	21.2	3	1
03/05/06	12:21 p	-14.4	-14.4	-14.4	---	---	8.7	NE	0.14	9.6	-22.4	---	---	725.2	0.023	0.000	21.2	3	1
03/05/06	12:22 p	-14.4	-14.3	-14.4	---	---	8.7	NE	0.14	10.4	-22.4	---	---	725.1	0.023	0.000	21.2	3	1
03/05/06	12:23 p	-14.4	-14.4	-14.4	---	---	7.8	NE	0.13	11.3	-21.9	---	---	725.2	0.023	0.000	21.2	3	1
03/05/06	12:24 p	-14.3	-14.3	-14.3	---	---	7.8	NE	0.13	9.6	-21.9	---	---	725.0	0.023	0.000	21.2	3	1
03/05/06	12:25 p	-14.3	-14.3	-14.3	---	---	9.6	NE	0.16	10.4	-22.7	---	---	725.1	0.023	0.000	21.2	3	1
03/05/06	12:26 p	-14.3	-14.3	-14.3	---	---	8.7	NE	0.14	9.6	-22.3	---	---	725.2	0.023	0.000	21.2	3	1
03/05/06	12:27 p	-14.3	-14.3	-14.4	---	---	9.6	NE	0.16	9.6	-22.7	---	---	725.2	0.023	0.000	21.2	3	1
03/05/06	12:28 p	-14.4	-14.4	-14.4	---	---	9.6	NE	0.16	10.4	-22.8	---	---	725.2	0.023	0.000	21.2	3	1
03/05/06	12:29 p	-14.4	-14.4	-14.4	---	---	8.7	NE	0.14	9.6	-22.4	---	---	725.2	0.023	0.000	21.2	3	1
03/05/06	12:30 p	-14.4	-14.4	-14.5	---	---	8.7	NE	0.14	9.6	-22.4	---	---	725.2	0.023	0.000	21.2	3	1
03/05/06	12:31 p	-14.5	-14.5	-14.5	---	---	7.0	NE	0.12	8.7	-21.6	---	---	725.0	0.023	0.000	21.2	3	1
03/05/06	12:32 p	-14.5	-14.5	-14.5	---	---	9.6	NE	0.16	11.3	-22.9	---	---	725.1	0.023	0.000	21.2	3	1
03/05/06	12:33 p	-14.5	-14.5	-14.6	---	---	8.7	NE	0.14	9.6	-22.5	---	---	725.2	0.023	0.000	21.2	3	1
03/05/06	12:34 p	-14.6	-14.5	-14.6	---	---	8.7	NE	0.14	10.4	-22.6	---	---	725.2	0.023	0.000	21.2	3	1
03/05/06	12:35 p	-14.6	-14.6	-14.6	---	---	10.4	NE	0.17	10.4	-23.4	---	---	725.1	0.023	0.000	21.2	3	1
03/05/06	12:36 p	-14.6	-14.6	-14.6	---	---	9.6	NE	0.16	10.4	-23.0	---	---	725.2	0.023	0.000	21.2	3	1
03/05/06	12:37 p	-14.6	-14.6	-14.6	---	---	9.6	NE	0.16	10.4	-23.1	---	---	725.1	0.023	0.000	21.2	3	1
03/05/06	12:38 p	-14.6	-14.6	-14.6	---	---	9.6	NE	0.16	10.4	-23.1	---	---	725.2	0.023	0.000	21.2	3	1
03/05/06	12:39 p	-14.6	-14.6	-14.6	---	---	9.6	NE	0.16	10.4	-23.1	---	---	725.1	0.023	0.000	21.2	3	1
03/05/06	12:40 p	-14.7	-14.6	-14.7	---	---	10.4	NE	0.17	11.3	-23.5	---	---	725.1	0.023	0.000	21.2	3	1
03/05/06	12:41 p	-14.7	-14.7	-14.7	---	---	10.4	NE	0.17	10.4	-23.5	---	---	725.2	0.023	0.000	21.2	3	1
03/05/06	12:42 p	-14.7	-14.7	-14.7	---	---	8.7	NE	0.14	9.6	-22.8	---	---	725.2	0.023	0.000	21.2	3	1
03/05/06	12:43 p	-14.8	-14.8	-14.8	---	---	10.4	NE	0.17	11.3	-23.7	---	---	725.2	0.023	0.000	21.2	3	1
03/05/06	12:44 p	-14.8	-14.8	-14.8	---	---	9.6	NE	0.16	11.3	-23.3	---	---	725.2	0.023	0.000	21.2	3	1
03/05/06	12:45 p	-14.8	-14.8	-14.8	---	---	9.6	NE	0.16	10.4	-23.3	---	---	725.2	0.023	0.000	21.2	3	1
03/05/06	12:46 p	-14.8	-14.8	-14.8	---	---	10.4	NE	0.17	11.3	-23.7	---	---	725.1	0.023	0.000	21.2	3	1
03/05/06	12:47 p	-14.8	-14.8	-14.8	---	---	11.3	NE	0.19	11.3	-24.0	---	---	725.2	0.023	0.000	21.2	3	1
03/05/06	12:48 p	-14.7	-14.7	-14.7	---	---	10.4	NE	0.17	11.3	-23.6	---	---	725.1	0.023	0.000	21.2	3	1
03/05/06	12:49 p	-14.7	-14.7	-14.7	---	---	10.4	NE	0.17	11.3	-23.6	---	---	725.1	0.023	0.000	21.2	3	1
03/05/06	12:50 p	-14.6	-14.6	-14.7	---	---	9.6	NE	0.16	10.4	-23.1	---	---	725.1	0.023	0.000	21.2	3	1
03/05/06	12:51 p	-14.6	-14.5	-14.6	---	---	6.1	NNE	0.10	8.7	-21.1	---	---	725.1	0.023	0.000	21.2	3	1
03/05/06	12:52 p	-14.5	-14.5	-14.5	---	---	9.6	NE	0.16	10.4	-22.9	---	---	725.1	0.023	0.000	21.2	3	1
03/05/06	12:53 p	-14.5	-14.5	-14.5	---	---	9.6	NE	0.16	10.4	-22.9	---	---	725.1	0.023	0.000	21.2	3	1
03/05/06	12:54 p	-14.5	-14.5	-14.5	---	---	9.6	NE	0.16	10.4	-22.9	---	---	725.2	0.023	0.000	21.2	3	1
03/05/06	12:55 p	-14.5	-14.5	-14.5	---	---	10.4	NE	0.17	11.3	-23.3	---	---	725.1	0.023	0.000	21.2	3	1
03/05/06	12:56 p	-14.4	-14.4	-14.4	---	---	11.3	NE	0.19	12.2	-23.6	---	---	725.1	0.023	0.000	21.2	3	1
03/05/06	12:57 p	-14.4	-14.4	-14.4	---	---	10.4	NE	0.17	11.3	-23.2	---	---	725.2	0.023	0.000	21.2	3	1
03/05/06	12:58 p	-14.4	-14.4	-14.4	---	---	9.6	NE	0.16	11.3	-22.8	---	---	725.2	0.023	0.000	21.2	3	1
03/05/06	12:59 p	-14.4	-14.4	-14.4	---	---	7.8	NE	0.13	8.7	-21.9	---	---	725.1	0.023	0.000	21.2	3	1
03/05/06	1:00 p	-14.3	-14.3	-14.4	---	---	9.6	NE	0.16	12.2	-22.7	---	---	725.1	0.023	0.000	21.2	3	1
03/05/06	1:01 p	-14.3	-14.3	-14.3	---	---	10.4	NE	0.17	11.3	-23.1	---	---	725.1	0.023	0.000	21.2	3	1
03/05/06	1:02 p	-14.3	-14.3	-14.3	---	---	10.4	NE	0.17	10.4	-23.0	---	---	725.2	0.023	0.000	21.2	3	1
03/05/06	1:03 p	-14.3	-14.3	-14.3	---	---	10.4	NE	0.17	10.4	-23.0	---	---	725.2	0.023	0.000	21.2	3	1
03/05/06	1:04 p	-14.3	-14.2	-14.3	---	---	9.6	NE	0.16	10.4	-22.7	---	---	725.1	0.023	0.000	21.2	3	1
03/05/06	1:05 p	-14.2	-14.2	-14.2	---	---	10.4	NE	0.17	11.3	-22.9	---	---	725.1	0.023	0.000	21.2	3	1
03/05/06	1:06 p	-14.2	-14.2	-14.2	---	---	10.4	NE	0.17	10.4	-22.9	---	---	725.1	0.023	0.000	21.2	3	1
03/05/06	1:07 p	-14.2	-14.2	-14.2	---	---	9.6	NE	0.16	10.4	-22.6	---	---	725.1	0.023	0.000	21.2	3	1
03/05/06	1:08 p	-14.2	-14.2	-14.2	---	---	9.6	NE	0.16	10.4	-22.6	---	---	725.2	0.023	0.000	21.2	3	1
03/05/06	1:09 p	-14.2	-14.2	-14.2	---	---	10.4	NE	0.17	11.3	-22.9	---	---	725.1	0.023	0.000	21.2	3	1
03/05/06	1:10 p	-14.2	-14.2	-14.2	---	---	9.6	NE	0.16	10.4	-22.5	---	---	725.2	0.023	0.000	21.2	3	1
03/05/06	1:11 p	-14.2	-14.2	-14.2	---	---	9.6	NE	0.16	10.4	-22.5	---	---	725.2	0.023	0.000	21.2	3	1
03/05/06	1:12 p	-14.1	-14.1	-14.2	---	---	10.4	NE	0.17	11.3	-22.8	---	---	725.2	0.023	0.000	21.2	3	1
03/05/06	1:13 p	-14.1	-14.1	-14.1	---	---	10.4	NE	0.17	11.3	-22.8	---	---	725.1	0.023	0.000	21.2	3	1
03/05/06	1:14 p	-14.1	-14.1	-14.1	---	---	10.4	NE	0.17	11.3	-22.7	---	---	725.2	0.022	0.000	21.2	3	1
03/05/06	1:15 p	-14.1	-14.0	-14.1	---	---	9.6	NE	0.16	9.6	-22.4	---	---	725.2	0.022	0.000	21.2	3	1
03/05/06	1:16 p	-14.0	-14.0	-14.0	---	---	9.6	NE	0.16	10.4	-22.3	---	---	725.2	0.022	0.000	21.2	3	1
03/05/06	1:17 p	-14.0	-13.9	-14.0	---	---	9.6	NE	0.16	10.4	-22.3	---	---	725.1	0.022	0.000	21.2	3	1
03/05/06	1:18 p	-13.9	-13.9	-13.9	---	---	8.7	NE	0.14	9.6	-21.8	---	---	725.1	0.022	0.000	21.3	3	1
03/05/06	1:19 p	-13.9	-13.9	-14.0	---	---	9.6	NE	0.16	10.4	-22.2	---	---	725.1	0.022	0.000	21.3	3	1
03/05/06	1:20 p	-14.0	-14.0	-14.0	---	---	8.7	NE	0.14	9.6	-21.9	---	---	725.2	0.022	0.000	21.3	3	1
03/05/06	1:21 p	-14.0	-14.0	-14.0	---	---	8.7	NE	0.14	9.6	-21.9	---	---	725.1	0.022	0.000	21.3	3	1
03/05/06	1:22 p	-14.0	-14.0	-14.0	---	---	8.7	NE	0.14	9.6	-21.9	---	---	725.1	0.022	0.000	21.3	3	1
03/05/06	1:23 p	-14.0	-14.0	-14.1	---	---	9.6	NE	0.16	9.6	-22.3	---	---	725.2	0.022	0.000	21.3	3	1
03/05/06	1:24 p	-14.1	-14.1	-14.1	---	---	8.7	NE	0.14	9.6	-21.9	---	---	725.1	0.022	0.000	21.3	3	1
03/05/06	1:25 p	-14.1	-14.0	-14.1	---	---	8.7	NE	0.14	9.6	-21.9	---	---	725.1	0.022	0.000	21.3	3	1
03/05/06	1:26 p	-14.0	-14.0	-14.0	---	---	9.6	NE	0.16	11.3	-22.3	---	---	725.1	0.022	0.000	21.3	3	1
03/05/06	1:27 p	-14.0	-14.0	-14.1	---	---	9.6	NE	0.16	10.4	-22.3	---	---	725.2	0.022	0.000	21.3	3	1
03/05/06	1:28 p	-14.1	-14.1	-14.1	---	---	9.6	NE	0.16	9.6	-22.4	---	---	725.1	0.022	0.000	21.3	3	1
03/05/06	1:29 p	-14.1	-14.1	-14.1	---	---	9.6	NE	0.16	10.4	-22.4	---	---	725.1	0.022	0.000	21.3	3	1
03/05/06	1:30 p	-14.1	-14.1	-14.1	---	---	9.6	NE	0.16	10.4	-22.4	---	---	725.0	0.023	0.000	21.3	3	1
03/05/06	1:31 p	-14.2	-14.1	-14.2	---	---	9.6	NE	0.16	10.4	-22.5	---	---	725.1	0.023	0.000	21.3	3	1
03/05/06	1:32 p	-14.2	-14.2	-14.2	---	---	9.6	NE	0.16	10.4	-22.5	---	---	725.1	0.023	0.000	21.3	3	1
03/05/06	1:33 p	-14.2	-14.2	-14.2	---	---	8.7	NE	0.14	9.6	-22.2	---	---	725.1	0.023	0.000	21.3	3	1
03/05/06	1:34 p	-14.2	-14.2	-14.3	---	---	8.7	NE	0.14	9.6	-22.2	---	---	725.1	0.023	0.000	21.3	3	1
03/05/06	1:35 p	-14.3	-14.3	-14.3	---	---	9.6	NE	0.16	11.3	-22.7	---	---	725.1	0.023	0.000	21.3	3	1
03/05/06	1:36 p	-14.3	-14.3	-14.3	---	---	10.4	NE	0.17	10.4	-23.0	---	---	725.1	0.023	0.000	21.3	3	1
03/05/06	1:37 p	-14.3	-14.3	-14.3	---	---	10.4	NE	0.17	10.4	-23.0	---	---	725.2	0.023	0.000	21.3	3	1
03/05/06	1:38 p	-14.3	-14.3	-14.3	---	---	10.4	NE	0.17	10.4	-23.0	---	---	725.0	0.023	0.000	21.3	3	1
03/05/06	1:39 p	-14.3	-14.3	-14.3	---	---	9.6	NE	0.16	10.4	-22.7	---	---	725.1	0.023	0.000	21.3	3	1
03/05/06	1:40 p	-14.3	-14.3	-14.3	---	---	10.4	NE	0.17	11.3	-23.0	---	---	725.1	0.023	0.000	21.3	3	1
03/05/06	1:41 p	-14.3	-14.2	-14.3	---	---	9.6	NE	0.16	10.4	-22.7	---	---	725.2	0.023	0.000	21.3	3	1
03/05/06	1:42 p	-14.2	-14.2	-14.2	---	---	9.6	NE	0.16	11.3	-22.6	---	---	725.1	0.023	0.000	21.3	3	1
03/05/06	1:43 p	-14.2	-14.2	-14.2	---	---	10.4	NE	0.17	11.3	-22.9	---	---	725.1	0.023	0.000	21.3	3	1
03/05/06	1:44 p	-14.2	-14.2	-14.2	---	---	9.6	NE	0.16	10.4	-22.5	---	---	725.1	0.023	0.000	21.3	3	1
03/05/06	1:45 p	-14.2	-14.2	-14.2	---	---	9.6	NE	0.16	10.4	-22.5	---	---	725.2	0.023	0.000	21.3	3	1
03/05/06	1:46 p	-14.1	-14.1	-14.1	---	---	9.6	NE	0.16	10.4	-22.4	---	---	725.1	0.023	0.000	21.3	3	1
03/05/06	1:47 p	-14.1	-14.1	-14.1	---	---	10.4	NE	0.17	10.4	-22.8	---	---	725.1	0.023	0.000	21.3	3	1
03/05/06	1:48 p	-14.1	-14.1	-14.1	---	---	9.6	NE	0.16	10.4	-22.4	---	---	725.1	0.022	0.000	21.3	3	1
03/05/06	1:49 p	-14.1	-14.1	-14.1	---	---	10.4	NE	0.17	11.3	-22.7	---	---	725.1	0.022	0.000	21.3	3	1
03/05/06	1:50 p	-14.1	-14.0	-14.1	---	---	10.4	NE	0.17	11.3	-22.7	---	---	725.0	0.022	0.000	21.3	3	1
03/05/06	1:51 p	-14.1	-14.1	-14.1	---	---	9.6	NE	0.16	10.4	-22.4	---	---	725.1	0.022	0.000	21.3	3	1
03/05/06	1:52 p	-14.1	-14.1	-14.1	---	---	9.6	NE	0.16	10.4	-22.4	---	---	725.1	0.022	0.000	21.3	3	1
03/05/06	1:53 p	-14.1	-14.1	-14.1	---	---	10.4	NE	0.17	11.3	-22.7	---	---	725.1	0.022	0.000	21.3	3	1
03/05/06	1:54 p	-14.1	-14.1	-14.1	---	---	10.4	NE	0.17	11.3	-22.7	---	---	725.0	0.022	0.000	21.3	3	1
03/05/06	1:55 p	-14.1	-14.1	-14.1	---	---	10.4	NE	0.17	10.4	-22.7	---	---	725.1	0.022	0.000	21.3	3	1
03/05/06	1:56 p	-14.1	-14.1	-14.1	---	---	10.4	NE	0.17	10.4	-22.7	---	---	725.1	0.022	0.000	21.3	3	1
03/05/06	1:57 p	-14.1	-14.1	-14.1	---	---	10.4	NE	0.17	10.4	-22.8	---	---	725.1	0.023	0.000	21.3	3	1
03/05/06	1:58 p	-14.1	-14.1	-14.1	---	---	9.6	NE	0.16	10.4	-22.4	---	---	725.1	0.022	0.000	21.3	3	1
03/05/06	1:59 p	-14.1	-14.1	-14.1	---	---	9.6	NE	0.16	9.6	-22.4	---	---	725.2	0.022	0.000	21.3	3	1
03/05/06	2:00 p	-14.1	-14.1	-14.1	---	---	10.4	NE	0.17	11.3	-22.7	---	---	725.1	0.022	0.000	21.3	3	1
03/05/06	2:01 p	-14.1	-14.0	-14.1	---	---	9.6	NE	0.16	10.4	-22.4	---	---	725.1	0.022	0.000	21.3	3	1
03/05/06	2:02 p	-14.1	-14.1	-14.1	---	---	9.6	NE	0.16	9.6	-22.4	---	---	725.1	0.022	0.000	21.3	3	1
03/05/06	2:03 p	-14.0	-14.0	-14.1	---	---	9.6	NE	0.16	10.4	-22.3	---	---	725.0	0.022	0.000	21.3	3	1
03/05/06	2:04 p	-14.1	-14.0	-14.1	---	---	8.7	NE	0.14	9.6	-21.9	---	---	725.1	0.022	0.000	21.2	3	1
03/05/06	2:05 p	-14.1	-14.1	-14.1	---	---	9.6	NE	0.16	10.4	-22.4	---	---	725.1	0.022	0.000	21.2	3	1
03/05/06	2:06 p	-14.1	-14.1	-14.1	---	---	10.4	NE	0.17	10.4	-22.7	---	---	725.1	0.022	0.000	21.3	3	1
03/05/06	2:07 p	-14.1	-14.1	-14.1	---	---	8.7	NE	0.14	9.6	-22.1	---	---	725.1	0.023	0.000	21.2	3	1
03/05/06	2:08 p	-14.1	-14.1	-14.1	---	---	8.7	NE	0.14	9.6	-22.1	---	---	725.0	0.023	0.000	21.2	3	1
03/05/06	2:09 p	-14.1	-14.1	-14.2	---	---	8.7	NE	0.14	9.6	-22.1	---	---	725.0	0.023	0.000	21.2	3	1
03/05/06	2:10 p	-14.1	-14.1	-14.2	---	---	8.7	NE	0.14	10.4	-22.1	---	---	725.1	0.023	0.000	21.3	3	1
03/05/06	2:11 p	-14.1	-14.1	-14.1	---	---	9.6	NE	0.16	10.4	-22.4	---	---	725.1	0.023	0.000	21.2	3	1
03/05/06	2:12 p	-14.1	-14.1	-14.1	---	---	9.6	NE	0.16	10.4	-22.4	---	---	725.0	0.023	0.000	21.2	3	1
03/05/06	2:13 p	-14.1	-14.1	-14.1	---	---	10.4	NE	0.17	11.3	-22.8	---	---	725.1	0.023	0.000	21.2	3	1
03/05/06	2:14 p	-14.1	-14.1	-14.1	---	---	9.6	NE	0.16	10.4	-22.4	---	---	725.0	0.023	0.000	21.2	3	1
03/05/06	2:15 p	-14.1	-14.1	-14.1	---	---	10.4	NE	0.17	10.4	-22.8	---	---	725.0	0.023	0.000	21.2	3	1
03/05/06	2:16 p	-14.2	-14.2	-14.2	---	---	8.7	NE	0.14	9.6	-22.1	---	---	725.0	0.023	0.000	21.2	3	1
03/05/06	2:17 p	-14.2	-14.2	-14.2	---	---	8.7	NE	0.14	9.6	-22.1	---	---	725.1	0.023	0.000	21.2	3	1
03/05/06	2:18 p	-14.3	-14.2	-14.3	---	---	8.7	NE	0.14	9.6	-22.2	---	---	725.0	0.023	0.000	21.2	3	1
03/05/06	2:19 p	-14.3	-14.3	-14.3	---	---	7.8	NE	0.13	8.7	-21.8	---	---	725.1	0.023	0.000	21.2	3	1
03/05/06	2:20 p	-14.3	-14.3	-14.3	---	---	8.7	NE	0.14	8.7	-22.3	---	---	725.0	0.023	0.000	21.2	3	1
03/05/06	2:21 p	-14.3	-14.3	-14.3	---	---	8.7	NE	0.14	9.6	-22.3	---	---	725.2	0.023	0.000	21.2	3	1
03/05/06	2:22 p	-14.4	-14.4	-14.4	---	---	7.8	NE	0.13	8.7	-21.9	---	---	725.1	0.023	0.000	21.2	3	1
03/05/06	2:23 p	-14.4	-14.3	-14.4	---	---	7.8	NE	0.13	9.6	-21.9	---	---	725.0	0.023	0.000	21.2	3	1
03/05/06	2:24 p	-14.4	-14.4	-14.4	---	---	9.6	NE	0.16	9.6	-22.8	---	---	725.0	0.023	0.000	21.2	3	1
03/05/06	2:25 p	-14.4	-14.4	-14.4	---	---	8.7	NE	0.14	9.6	-22.4	---	---	725.0	0.023	0.000	21.2	3	1
03/05/06	2:26 p	-14.4	-14.3	-14.4	---	---	7.8	NE	0.13	8.7	-21.9	---	---	725.0	0.023	0.000	21.2	3	1
03/05/06	2:27 p	-14.3	-14.3	-14.3	---	---	7.8	NE	0.13	8.7	-21.9	---	---	725.0	0.023	0.000	21.2	3	1
03/05/06	2:28 p	-14.3	-14.3	-14.3	---	---	8.7	NE	0.14	9.6	-22.3	---	---	725.0	0.023	0.000	21.2	3	1
03/05/06	2:29 p	-14.3	-14.3	-14.4	---	---	8.7	NE	0.14	9.6	-22.3	---	---	725.1	0.023	0.000	21.2	3	1
03/05/06	2:30 p	-14.4	-14.4	-14.4	---	---	7.8	NE	0.13	8.7	-21.9	---	---	725.0	0.023	0.000	21.2	3	1
03/05/06	2:31 p	-14.4	-14.4	-14.4	---	---	7.8	NE	0.13	8.7	-21.9	---	---	725.1	0.023	0.000	21.2	3	1
03/05/06	2:32 p	-14.4	-14.4	-14.4	---	---	8.7	NE	0.14	8.7	-22.4	---	---	725.0	0.023	0.000	21.2	3	1
03/05/06	2:33 p	-14.4	-14.4	-14.5	---	---	8.7	NE	0.14	9.6	-22.4	---	---	725.1	0.023	0.000	21.2	3	1
03/05/06	2:34 p	-14.5	-14.5	-14.5	---	---	8.7	NE	0.14	9.6	-22.5	---	---	725.0	0.023	0.000	21.2	3	1
03/05/06	2:35 p	-14.4	-14.4	-14.5	---	---	8.7	NE	0.14	10.4	-22.4	---	---	725.1	0.023	0.000	21.2	3	1
03/05/06	2:36 p	-14.4	-14.4	-14.4	---	---	8.7	NE	0.14	9.6	-22.4	---	---	725.1	0.023	0.000	21.2	3	1
03/05/06	2:37 p	-14.4	-14.3	-14.4	---	---	8.7	NE	0.14	9.6	-22.4	---	---	725.0	0.023	0.000	21.2	3	1
03/05/06	2:38 p	-14.3	-14.3	-14.3	---	---	7.8	NE	0.13	9.6	-21.9	---	---	725.1	0.023	0.000	21.2	3	1
03/05/06	2:39 p	-14.3	-14.3	-14.3	---	---	7.8	NE	0.13	8.7	-21.8	---	---	725.0	0.023	0.000	21.2	3	1
03/05/06	2:40 p	-14.3	-14.3	-14.3	---	---	7.8	NE	0.13	8.7	-21.8	---	---	724.9	0.023	0.000	21.2	3	1
03/05/06	2:41 p	-14.3	-14.3	-14.3	---	---	7.8	NE	0.13	8.7	-21.8	---	---	724.9	0.023	0.000	21.2	3	1
03/05/06	2:42 p	-14.3	-14.3	-14.3	---	---	8.7	NE	0.14	9.6	-22.2	---	---	725.0	0.023	0.000	21.2	3	1
03/05/06	2:43 p	-14.2	-14.2	-14.3	---	---	8.7	NE	0.14	10.4	-22.2	---	---	725.0	0.023	0.000	21.2	3	1
03/05/06	2:44 p	-14.1	-14.1	-14.2	---	---	9.6	NE	0.16	10.4	-22.4	---	---	725.0	0.023	0.000	21.2	3	1
03/05/06	2:45 p	-14.1	-14.1	-14.1	---	---	9.6	NE	0.16	10.4	-22.4	---	---	725.0	0.023	0.000	21.2	3	1
03/05/06	2:46 p	-14.1	-14.1	-14.1	---	---	9.6	ENE	0.16	10.4	-22.4	---	---	725.0	0.022	0.000	21.2	3	1
03/05/06	2:47 p	-14.1	-14.1	-14.1	---	---	8.7	NE	0.14	10.4	-21.9	---	---	725.0	0.022	0.000	21.2	3	1
03/05/06	2:48 p	-14.1	-14.1	-14.1	---	---	9.6	NE	0.16	9.6	-22.4	---	---	725.0	0.023	0.000	21.2	3	1
03/05/06	2:49 p	-14.1	-14.1	-14.2	---	---	8.7	NE	0.14	9.6	-22.1	---	---	725.0	0.023	0.000	21.2	3	1
03/05/06	2:50 p	-14.2	-14.2	-14.2	---	---	9.6	NE	0.16	10.4	-22.5	---	---	725.0	0.023	0.000	21.2	3	1
03/05/06	2:51 p	-14.2	-14.2	-14.2	---	---	8.7	NE	0.14	10.4	-22.1	---	---	724.9	0.023	0.000	21.2	3	1
03/05/06	2:52 p	-14.2	-14.2	-14.2	---	---	9.6	NE	0.16	10.4	-22.5	---	---	725.0	0.023	0.000	21.2	3	1
03/05/06	2:53 p	-14.2	-14.2	-14.2	---	---	9.6	NE	0.16	11.3	-22.5	---	---	724.9	0.023	0.000	21.2	3	1
03/05/06	2:54 p	-14.2	-14.2	-14.2	---	---	9.6	NE	0.16	11.3	-22.5	---	---	725.0	0.023	0.000	21.2	3	1
03/05/06	2:55 p	-14.2	-14.1	-14.2	---	---	8.7	NE	0.14	10.4	-22.1	---	---	725.0	0.023	0.000	21.2	3	1
03/05/06	2:56 p	-14.2	-14.2	-14.2	---	---	8.7	NE	0.14	9.6	-22.1	---	---	725.0	0.023	0.000	21.2	3	1
03/05/06	2:57 p	-14.2	-14.2	-14.2	---	---	7.8	NE	0.13	9.6	-21.7	---	---	724.9	0.023	0.000	21.2	3	1
03/05/06	2:58 p	-14.2	-14.2	-14.3	---	---	9.6	NE	0.16	10.4	-22.6	---	---	725.0	0.023	0.000	21.2	3	1
03/05/06	2:59 p	-14.3	-14.3	-14.3	---	---	8.7	NE	0.14	10.4	-22.2	---	---	725.0	0.023	0.000	21.2	3	1
03/05/06	3:00 p	-14.3	-14.3	-14.3	---	---	8.7	NE	0.14	9.6	-22.2	---	---	725.0	0.023	0.000	21.2	3	1
03/05/06	3:01 p	-14.3	-14.3	-14.3	---	---	7.8	NE	0.13	8.7	-21.9	---	---	725.0	0.023	0.000	21.2	3	1
03/05/06	3:02 p	-14.3	-14.3	-14.4	---	---	8.7	NE	0.14	10.4	-22.3	---	---	725.0	0.023	0.000	21.2	3	1
03/05/06	3:03 p	-14.4	-14.4	-14.5	---	---	9.6	NE	0.16	10.4	-22.8	---	---	724.9	0.023	0.000	21.2	3	1
03/05/06	3:04 p	-14.5	-14.5	-14.5	---	---	10.4	NE	0.17	11.3	-23.3	---	---	725.0	0.023	0.000	21.2	3	1
03/05/06	3:05 p	-14.5	-14.5	-14.5	---	---	9.6	NE	0.16	10.4	-22.9	---	---	725.0	0.023	0.000	21.1	3	1
03/05/06	3:06 p	-14.5	-14.5	-14.6	---	---	9.6	NE	0.16	10.4	-22.9	---	---	725.0	0.023	0.000	21.1	3	1
03/05/06	3:07 p	-14.6	-14.5	-14.6	---	---	9.6	NE	0.16	10.4	-23.0	---	---	725.0	0.023	0.000	21.1	3	1
03/05/06	3:08 p	-14.6	-14.6	-14.6	---	---	9.6	NE	0.16	10.4	-23.1	---	---	725.0	0.023	0.000	21.1	3	1
03/05/06	3:09 p	-14.6	-14.6	-14.6	---	---	8.7	NE	0.14	9.6	-22.7	---	---	725.0	0.023	0.000	21.1	3	1
03/05/06	3:10 p	-14.6	-14.6	-14.7	---	---	8.7	NE	0.14	9.6	-22.7	---	---	725.0	0.023	0.000	21.1	3	1
03/05/06	3:11 p	-14.7	-14.7	-14.7	---	---	9.6	NE	0.16	9.6	-23.1	---	---	724.9	0.023	0.000	21.1	3	1
03/05/06	3:12 p	-14.7	-14.7	-14.7	---	---	9.6	NE	0.16	11.3	-23.1	---	---	725.0	0.023	0.000	21.1	3	1
03/05/06	3:13 p	-14.7	-14.7	-14.7	---	---	9.6	NE	0.16	10.4	-23.1	---	---	725.0	0.023	0.000	21.1	3	1
03/05/06	3:14 p	-14.7	-14.7	-14.7	---	---	8.7	NE	0.14	10.4	-22.7	---	---	725.0	0.023	0.000	21.1	3	1
03/05/06	3:15 p	-14.7	-14.7	-14.7	---	---	9.6	NE	0.16	11.3	-23.1	---	---	725.0	0.023	0.000	21.1	3	1
03/05/06	3:16 p	-14.7	-14.7	-14.8	---	---	7.8	NE	0.13	9.6	-22.3	---	---	725.0	0.023	0.000	21.1	3	1
03/05/06	3:17 p	-14.8	-14.8	-14.8	---	---	6.1	NE	0.10	7.8	-21.4	---	---	725.0	0.023	0.000	21.1	3	1
03/05/06	3:18 p	-14.8	-14.8	-14.9	---	---	7.8	NE	0.13	9.6	-22.5	---	---	725.0	0.023	0.000	21.1	3	1
03/05/06	3:19 p	-14.9	-14.9	-14.9	---	---	7.8	NE	0.13	9.6	-22.6	---	---	725.0	0.023	0.000	21.1	3	1
03/05/06	3:20 p	-14.9	-14.9	-14.9	---	---	8.7	NE	0.14	9.6	-23.1	---	---	725.0	0.023	0.000	21.1	3	1
03/05/06	3:21 p	-15.0	-15.0	-15.0	---	---	7.8	NE	0.13	8.7	-22.7	---	---	725.1	0.023	0.000	21.1	3	1
03/05/06	3:22 p	-15.1	-15.0	-15.1	---	---	7.8	NE	0.13	8.7	-22.7	---	---	725.0	0.023	0.000	21.1	3	1
03/05/06	3:23 p	-15.1	-15.1	-15.2	---	---	6.1	NE	0.10	7.8	-21.8	---	---	725.0	0.023	0.000	21.1	3	1
03/05/06	3:24 p	-15.2	-15.2	-15.2	---	---	7.0	NE	0.12	8.7	-22.4	---	---	725.0	0.023	0.000	21.1	3	1
03/05/06	3:25 p	-15.3	-15.2	-15.3	---	---	7.8	NE	0.13	8.7	-23.0	---	---	725.0	0.023	0.000	21.1	3	1
03/05/06	3:26 p	-15.3	-15.3	-15.4	---	---	7.8	NE	0.13	9.6	-23.1	---	---	725.0	0.023	0.000	21.1	3	1
03/05/06	3:27 p	-15.4	-15.3	-15.4	---	---	8.7	NE	0.14	9.6	-23.6	---	---	724.9	0.023	0.000	21.1	3	1
03/05/06	3:28 p	-15.2	-15.1	-15.3	---	---	7.8	NE	0.13	9.6	-22.9	---	---	724.9	0.023	0.000	21.1	3	1
03/05/06	3:29 p	-15.0	-15.0	-15.1	---	---	7.8	NE	0.13	7.8	-22.7	---	---	724.9	0.023	0.000	21.1	3	1
03/05/06	3:30 p	-15.1	-15.1	-15.1	---	---	8.7	NE	0.14	9.6	-23.2	---	---	725.0	0.023	0.000	21.1	3	1
03/05/06	3:31 p	-14.9	-14.8	-15.1	---	---	8.7	NE	0.14	10.4	-23.1	---	---	724.9	0.023	0.000	21.1	3	1
03/05/06	3:32 p	-14.7	-14.6	-14.8	---	---	9.6	NE	0.16	9.6	-23.1	---	---	724.9	0.023	0.000	21.1	3	1
03/05/06	3:33 p	-14.4	-14.3	-14.6	---	---	9.6	NE	0.16	10.4	-22.8	---	---	725.0	0.023	0.000	21.1	3	1
03/05/06	3:34 p	-14.3	-14.2	-14.3	---	---	9.6	NE	0.16	10.4	-22.7	---	---	725.0	0.023	0.000	21.1	3	1
03/05/06	3:35 p	-14.1	-14.1	-14.2	---	---	8.7	NE	0.14	10.4	-22.1	---	---	724.9	0.023	0.000	21.1	3	1
03/05/06	3:36 p	-14.0	-13.9	-14.1	---	---	10.4	NE	0.17	10.4	-22.7	---	---	724.9	0.022	0.000	21.1	3	1
03/05/06	3:37 p	-13.8	-13.8	-13.9	---	---	9.6	NE	0.16	10.4	-22.1	---	---	724.9	0.022	0.000	21.1	3	1
03/05/06	3:38 p	-13.7	-13.7	-13.7	---	---	9.6	NNE	0.16	9.6	-21.9	---	---	725.0	0.022	0.000	21.1	3	1
03/05/06	3:39 p	-13.6	-13.6	-13.7	---	---	10.4	NNE	0.17	11.3	-22.2	---	---	724.9	0.022	0.000	21.1	3	1
03/05/06	3:40 p	-13.6	-13.6	-13.6	---	---	9.6	NNE	0.16	10.4	-21.7	---	---	724.9	0.022	0.000	21.1	3	1
03/05/06	3:41 p	-13.6	-13.5	-13.6	---	---	9.6	NNE	0.16	10.4	-21.7	---	---	724.9	0.022	0.000	21.1	3	1
03/05/06	3:42 p	-13.4	-13.4	-13.5	---	---	7.8	NNE	0.13	8.7	-20.8	---	---	725.0	0.022	0.000	21.1	3	1
03/05/06	3:43 p	-13.3	-13.3	-13.4	---	---	8.7	NNE	0.14	9.6	-21.1	---	---	724.9	0.022	0.000	21.1	3	1
03/05/06	3:44 p	-13.3	-13.2	-13.3	---	---	8.7	NNE	0.14	10.4	-21.0	---	---	724.9	0.022	0.000	21.1	3	1
03/05/06	3:45 p	-13.2	-13.2	-13.2	---	---	9.6	NNE	0.16	11.3	-21.3	---	---	724.9	0.022	0.000	21.1	3	1
03/05/06	3:46 p	-13.2	-13.2	-13.2	---	---	8.7	NNE	0.14	10.4	-20.8	---	---	725.0	0.022	0.000	21.1	3	1
03/05/06	3:47 p	-13.1	-13.1	-13.2	---	---	9.6	NE	0.16	9.6	-21.2	---	---	724.9	0.022	0.000	21.1	3	1
03/05/06	3:48 p	-13.1	-13.1	-13.1	---	---	8.7	NE	0.14	9.6	-20.7	---	---	724.9	0.022	0.000	21.1	3	1
03/05/06	3:49 p	-13.1	-13.0	-13.1	---	---	9.6	NNE	0.16	10.4	-21.1	---	---	724.9	0.022	0.000	21.1	3	1
03/05/06	3:50 p	-13.0	-13.0	-13.1	---	---	9.6	NNE	0.16	10.4	-21.1	---	---	724.9	0.022	0.000	21.1	3	1
03/05/06	3:51 p	-12.9	-12.9	-13.0	---	---	9.6	NNE	0.16	10.4	-21.0	---	---	724.9	0.022	0.000	21.1	3	1
03/05/06	3:52 p	-12.9	-12.9	-12.9	---	---	9.6	NNE	0.16	9.6	-21.0	---	---	725.0	0.022	0.000	21.1	3	1
03/05/06	3:53 p	-12.9	-12.9	-12.9	---	---	10.4	NNE	0.17	11.3	-21.3	---	---	724.9	0.022	0.000	21.1	3	1
03/05/06	3:54 p	-12.9	-12.9	-12.9	---	---	11.3	NNE	0.19	12.2	-21.6	---	---	725.0	0.022	0.000	21.1	3	1
03/05/06	3:55 p	-12.9	-12.8	-12.9	---	---	10.4	NE	0.17	11.3	-21.3	---	---	724.9	0.022	0.000	21.1	3	1
03/05/06	3:56 p	-12.8	-12.8	-12.9	---	---	10.4	NE	0.17	12.2	-21.2	---	---	724.9	0.022	0.000	21.1	3	1
03/05/06	3:57 p	-12.9	-12.8	-12.9	---	---	10.4	NE	0.17	11.3	-21.3	---	---	724.9	0.022	0.000	21.1	3	1
03/05/06	3:58 p	-12.8	-12.8	-12.9	---	---	10.4	NE	0.17	11.3	-21.2	---	---	724.9	0.022	0.000	21.1	3	1
03/05/06	3:59 p	-12.8	-12.8	-12.9	---	---	10.4	NNE	0.17	11.3	-21.2	---	---	724.9	0.022	0.000	21.1	3	1
03/05/06	4:00 p	-12.8	-12.8	-12.8	---	---	10.4	NNE	0.17	11.3	-21.2	---	---	724.9	0.022	0.000	21.1	3	1
03/05/06	4:01 p	-12.8	-12.8	-12.8	---	---	10.4	NE	0.17	11.3	-21.2	---	---	725.0	0.022	0.000	21.1	3	1
03/05/06	4:02 p	-12.8	-12.8	-12.8	---	---	10.4	NE	0.17	11.3	-21.1	---	---	724.9	0.022	0.000	21.1	3	1
03/05/06	4:03 p	-12.8	-12.8	-12.8	---	---	10.4	NE	0.17	12.2	-21.2	---	---	725.0	0.022	0.000	21.1	3	1
03/05/06	4:04 p	-12.8	-12.8	-12.8	---	---	10.4	NE	0.17	12.2	-21.2	---	---	725.0	0.022	0.000	21.1	3	1
03/05/06	4:05 p	-12.8	-12.8	-12.8	---	---	10.4	NE	0.17	10.4	-21.2	---	---	724.9	0.022	0.000	21.1	3	1
03/05/06	4:06 p	-12.8	-12.8	-12.8	---	---	10.4	NE	0.17	12.2	-21.2	---	---	724.9	0.022	0.000	21.1	3	1
03/05/06	4:07 p	-12.8	-12.8	-12.8	---	---	10.4	NNE	0.17	11.3	-21.2	---	---	724.9	0.022	0.000	21.1	3	1
03/05/06	4:08 p	-12.8	-12.8	-12.8	---	---	11.3	NE	0.19	12.2	-21.5	---	---	725.0	0.022	0.000	21.1	3	1
03/05/06	4:09 p	-12.8	-12.8	-12.8	---	---	10.4	NE	0.17	11.3	-21.2	---	---	724.9	0.022	0.000	21.1	3	1
03/05/06	4:10 p	-12.8	-12.8	-12.8	---	---	10.4	NE	0.17	11.3	-21.2	---	---	725.0	0.022	0.000	21.1	3	1
03/05/06	4:11 p	-12.8	-12.8	-12.8	---	---	10.4	NNE	0.17	11.3	-21.1	---	---	724.9	0.022	0.000	21.1	3	1
03/05/06	4:12 p	-12.8	-12.8	-12.8	---	---	9.6	NNE	0.16	11.3	-20.8	---	---	724.9	0.022	0.000	21.1	3	1
03/05/06	4:13 p	-12.8	-12.8	-12.8	---	---	11.3	NNE	0.19	11.3	-21.6	---	---	724.9	0.022	0.000	21.1	3	1
03/05/06	4:14 p	-12.8	-12.8	-12.8	---	---	10.4	NNE	0.17	11.3	-21.1	---	---	724.9	0.022	0.000	21.1	3	1
03/05/06	4:15 p	-12.8	-12.8	-12.8	---	---	11.3	NE	0.19	11.3	-21.5	---	---	724.9	0.022	0.000	21.1	3	1
03/05/06	4:16 p	-12.8	-12.8	-12.8	---	---	11.3	NE	0.19	12.2	-21.6	---	---	724.9	0.022	0.000	21.1	3	1
03/05/06	4:17 p	-12.8	-12.8	-12.8	---	---	9.6	NE	0.16	11.3	-20.8	---	---	724.9	0.022	0.000	21.1	3	1
03/05/06	4:18 p	-12.8	-12.8	-12.8	---	---	10.4	NE	0.17	11.3	-21.1	---	---	724.9	0.022	0.000	21.1	3	1
03/05/06	4:19 p	-12.8	-12.8	-12.8	---	---	10.4	NE	0.17	11.3	-21.1	---	---	725.0	0.022	0.000	21.1	3	1
03/05/06	4:20 p	-12.8	-12.8	-12.8	---	---	10.4	NE	0.17	11.3	-21.2	---	---	724.9	0.022	0.000	21.1	3	1
03/05/06	4:21 p	-12.8	-12.8	-12.8	---	---	10.4	NE	0.17	12.2	-21.2	---	---	725.0	0.022	0.000	21.1	3	1
03/05/06	4:22 p	-12.8	-12.8	-12.8	---	---	9.6	NE	0.16	10.4	-20.8	---	---	725.0	0.022	0.000	21.1	3	1
03/05/06	4:23 p	-12.8	-12.8	-12.8	---	---	9.6	NE	0.16	10.4	-20.8	---	---	724.9	0.022	0.000	21.1	3	1
03/05/06	4:24 p	-12.8	-12.8	-12.8	---	---	10.4	NE	0.17	11.3	-21.2	---	---	724.9	0.022	0.000	21.1	3	1
03/05/06	4:25 p	-12.8	-12.8	-12.8	---	---	9.6	NE	0.16	9.6	-20.8	---	---	724.8	0.022	0.000	21.1	3	1
03/05/06	4:26 p	-12.8	-12.8	-12.8	---	---	9.6	NE	0.16	10.4	-20.8	---	---	724.9	0.022	0.000	21.1	3	1
03/05/06	4:27 p	-12.8	-12.8	-12.8	---	---	9.6	NE	0.16	10.4	-20.8	---	---	724.9	0.022	0.000	21.1	3	1
03/05/06	4:28 p	-12.8	-12.8	-12.8	---	---	8.7	NE	0.14	10.4	-20.4	---	---	724.9	0.022	0.000	21.1	3	1
03/05/06	4:29 p	-12.8	-12.8	-12.8	---	---	8.7	NNE	0.14	9.6	-20.4	---	---	724.9	0.022	0.000	21.1	3	1
03/05/06	4:30 p	-12.8	-12.8	-12.8	---	---	8.7	NE	0.14	9.6	-20.4	---	---	724.9	0.022	0.000	21.1	3	1
03/05/06	4:31 p	-12.8	-12.8	-12.8	---	---	9.6	NE	0.16	10.4	-20.8	---	---	725.0	0.022	0.000	21.0	3	1
03/05/06	4:32 p	-12.7	-12.7	-12.8	---	---	9.6	NNE	0.16	10.4	-20.7	---	---	724.9	0.022	0.000	21.0	3	1
03/05/06	4:33 p	-12.7	-12.7	-12.7	---	---	10.4	NE	0.17	12.2	-21.1	---	---	724.9	0.022	0.000	21.1	3	1
03/05/06	4:34 p	-12.7	-12.7	-12.7	---	---	10.4	NE	0.17	11.3	-21.1	---	---	724.9	0.022	0.000	21.1	3	1
03/05/06	4:35 p	-12.7	-12.7	-12.7	---	---	10.4	NE	0.17	11.3	-21.1	---	---	725.0	0.022	0.000	21.1	3	1
03/05/06	4:36 p	-12.7	-12.7	-12.7	---	---	9.6	NE	0.16	10.4	-20.6	---	---	725.0	0.022	0.000	21.1	3	1
03/05/06	4:37 p	-12.7	-12.7	-12.7	---	---	9.6	NNE	0.16	10.4	-20.6	---	---	725.0	0.022	0.000	21.1	3	1
03/05/06	4:38 p	-12.7	-12.7	-12.7	---	---	8.7	NNE	0.14	10.4	-20.2	---	---	725.0	0.022	0.000	21.1	3	1
03/05/06	4:39 p	-12.7	-12.7	-12.7	---	---	10.4	NNE	0.17	11.3	-21.0	---	---	725.0	0.022	0.000	21.1	3	1
03/05/06	4:40 p	-12.7	-12.7	-12.7	---	---	9.6	NNE	0.16	10.4	-20.6	---	---	725.0	0.022	0.000	21.1	3	1
03/05/06	4:41 p	-12.7	-12.7	-12.7	---	---	11.3	NNE	0.19	11.3	-21.3	---	---	725.0	0.022	0.000	21.1	3	1
03/05/06	4:42 p	-12.7	-12.7	-12.7	---	---	11.3	NNE	0.19	13.0	-21.3	---	---	725.0	0.022	0.000	21.1	3	1
03/05/06	4:43 p	-12.7	-12.7	-12.7	---	---	11.3	NE	0.19	12.2	-21.3	---	---	725.0	0.022	0.000	21.0	3	1
03/05/06	4:44 p	-12.7	-12.7	-12.7	---	---	11.3	NNE	0.19	13.0	-21.4	---	---	725.0	0.022	0.000	21.1	3	1
03/05/06	4:45 p	-12.7	-12.7	-12.7	---	---	11.3	NE	0.19	13.0	-21.4	---	---	725.0	0.022	0.000	21.1	3	1
03/05/06	4:46 p	-12.7	-12.7	-12.7	---	---	10.4	NNE	0.17	11.3	-21.1	---	---	725.0	0.022	0.000	21.0	3	1
03/05/06	4:47 p	-12.7	-12.7	-12.7	---	---	10.4	NE	0.17	11.3	-21.1	---	---	725.0	0.022	0.000	21.0	3	1
03/05/06	4:48 p	-12.7	-12.7	-12.8	---	---	10.4	NE	0.17	11.3	-21.1	---	---	725.1	0.022	0.000	21.0	3	1
03/05/06	4:49 p	-12.8	-12.7	-12.8	---	---	9.6	NE	0.16	11.3	-20.8	---	---	725.1	0.022	0.000	21.0	3	1
03/05/06	4:50 p	-12.8	-12.8	-12.8	---	---	8.7	NE	0.14	10.4	-20.4	---	---	725.0	0.022	0.000	21.0	3	1
03/05/06	4:51 p	-12.8	-12.8	-12.8	---	---	8.7	NNE	0.14	8.7	-20.4	---	---	725.0	0.022	0.000	21.0	3	1
03/05/06	4:52 p	-12.7	-12.7	-12.8	---	---	8.7	NE	0.14	9.6	-20.3	---	---	725.0	0.022	0.000	21.0	3	1
03/05/06	4:53 p	-12.7	-12.7	-12.7	---	---	9.6	NE	0.16	10.4	-20.6	---	---	725.0	0.022	0.000	21.0	3	1
03/05/06	4:54 p	-12.7	-12.7	-12.7	---	---	8.7	NE	0.14	9.6	-20.3	---	---	725.0	0.022	0.000	21.0	3	1
03/05/06	4:55 p	-12.7	-12.6	-12.7	---	---	9.6	NNE	0.16	10.4	-20.6	---	---	725.0	0.022	0.000	21.0	3	1
03/05/06	4:56 p	-12.6	-12.6	-12.6	---	---	9.6	NNE	0.16	10.4	-20.6	---	---	724.9	0.021	0.000	21.1	3	1
03/05/06	4:57 p	-12.6	-12.6	-12.6	---	---	9.6	NNE	0.16	10.4	-20.6	---	---	725.0	0.021	0.000	21.0	3	1
03/05/06	4:58 p	-12.6	-12.6	-12.6	---	---	8.7	NE	0.14	9.6	-20.1	---	---	725.0	0.021	0.000	21.1	3	1
03/05/06	4:59 p	-12.6	-12.5	-12.6	---	---	9.6	NNE	0.16	10.4	-20.5	---	---	725.0	0.021	0.000	21.0	3	1
03/05/06	5:00 p	-12.5	-12.5	-12.6	---	---	9.6	NE	0.16	10.4	-20.4	---	---	725.0	0.021	0.000	21.0	3	1
03/05/06	5:01 p	-12.5	-12.5	-12.5	---	---	8.7	NE	0.14	10.4	-20.1	---	---	725.0	0.021	0.000	21.0	3	1
03/05/06	5:02 p	-12.5	-12.5	-12.5	---	---	10.4	NE	0.17	10.4	-20.8	---	---	725.0	0.021	0.000	21.0	3	1
03/05/06	5:03 p	-12.5	-12.5	-12.5	---	---	9.6	NE	0.16	10.4	-20.4	---	---	725.0	0.021	0.000	21.0	3	1
03/05/06	5:04 p	-12.5	-12.5	-12.5	---	---	9.6	NE	0.16	10.4	-20.4	---	---	724.9	0.021	0.000	21.0	3	1
03/05/06	5:05 p	-12.5	-12.5	-12.5	---	---	8.7	NE	0.14	9.6	-20.1	---	---	725.0	0.021	0.000	21.0	3	1
03/05/06	5:06 p	-12.5	-12.5	-12.5	---	---	8.7	NNE	0.14	9.6	-20.1	---	---	725.0	0.021	0.000	21.0	3	1
03/05/06	5:07 p	-12.5	-12.4	-12.5	---	---	9.6	NNE	0.16	11.3	-20.4	---	---	725.0	0.021	0.000	21.0	3	1
03/05/06	5:08 p	-12.4	-12.4	-12.4	---	---	9.6	NE	0.16	9.6	-20.3	---	---	725.0	0.021	0.000	21.0	3	1
03/05/06	5:09 p	-12.4	-12.4	-12.4	---	---	9.6	NE	0.16	10.4	-20.3	---	---	725.0	0.021	0.000	21.0	3	1
03/05/06	5:10 p	-12.4	-12.4	-12.4	---	---	8.7	NE	0.14	11.3	-19.9	---	---	725.0	0.021	0.000	21.0	3	1
03/05/06	5:11 p	-12.4	-12.4	-12.4	---	---	9.6	NNE	0.16	10.4	-20.3	---	---	725.0	0.021	0.000	21.0	3	1
03/05/06	5:12 p	-12.4	-12.4	-12.4	---	---	9.6	NNE	0.16	10.4	-20.3	---	---	725.0	0.021	0.000	21.0	3	1
03/05/06	5:13 p	-12.4	-12.4	-12.4	---	---	9.6	NE	0.16	10.4	-20.3	---	---	725.1	0.021	0.000	21.0	3	1
03/05/06	5:14 p	-12.4	-12.4	-12.4	---	---	9.6	NE	0.16	10.4	-20.3	---	---	725.0	0.021	0.000	21.0	3	1
03/05/06	5:15 p	-12.4	-12.4	-12.4	---	---	9.6	NE	0.16	10.4	-20.3	---	---	725.0	0.021	0.000	21.0	3	1
03/05/06	5:16 p	-12.4	-12.4	-12.4	---	---	8.7	NE	0.14	10.4	-19.9	---	---	724.9	0.021	0.000	21.0	3	1
03/05/06	5:17 p	-12.4	-12.4	-12.4	---	---	9.6	NE	0.16	10.4	-20.3	---	---	725.0	0.021	0.000	21.0	3	1
03/05/06	5:18 p	-12.4	-12.4	-12.4	---	---	9.6	NE	0.16	10.4	-20.3	---	---	725.0	0.021	0.000	21.0	3	1
03/05/06	5:19 p	-12.4	-12.4	-12.4	---	---	9.6	NE	0.16	10.4	-20.3	---	---	725.0	0.021	0.000	21.0	3	1
03/05/06	5:20 p	-12.4	-12.4	-12.4	---	---	10.4	NE	0.17	11.3	-20.7	---	---	724.9	0.021	0.000	21.0	3	1
03/05/06	5:21 p	-12.4	-12.4	-12.4	---	---	9.6	NE	0.16	10.4	-20.3	---	---	725.0	0.021	0.000	21.0	3	1
03/05/06	5:22 p	-12.4	-12.4	-12.4	---	---	9.6	NE	0.16	10.4	-20.3	---	---	724.9	0.021	0.000	21.0	3	1
03/05/06	5:23 p	-12.5	-12.5	-12.5	---	---	9.6	NE	0.16	10.4	-20.4	---	---	725.0	0.021	0.000	21.0	3	1
03/05/06	5:24 p	-12.5	-12.5	-12.6	---	---	9.6	NE	0.16	10.4	-20.4	---	---	725.0	0.021	0.000	21.0	3	1
03/05/06	5:25 p	-12.6	-12.6	-12.6	---	---	8.7	NE	0.14	10.4	-20.1	---	---	725.0	0.021	0.000	21.0	3	1
03/05/06	5:26 p	-12.6	-12.6	-12.6	---	---	8.7	NE	0.14	9.6	-20.1	---	---	725.1	0.021	0.000	21.0	3	1
03/05/06	5:27 p	-12.6	-12.6	-12.6	---	---	9.6	NE	0.16	10.4	-20.6	---	---	725.0	0.021	0.000	21.0	3	1
03/05/06	5:28 p	-12.6	-12.6	-12.6	---	---	9.6	NE	0.16	10.4	-20.5	---	---	725.0	0.021	0.000	21.0	3	1
03/05/06	5:29 p	-12.6	-12.6	-12.6	---	---	9.6	NNE	0.16	10.4	-20.5	---	---	725.0	0.021	0.000	21.0	3	1
03/05/06	5:30 p	-12.6	-12.6	-12.6	---	---	10.4	NE	0.17	11.3	-20.8	---	---	725.0	0.021	0.000	21.0	3	1
03/05/06	5:31 p	-12.6	-12.5	-12.6	---	---	10.4	NE	0.17	11.3	-20.8	---	---	725.0	0.021	0.000	21.0	3	1
03/05/06	5:32 p	-12.6	-12.5	-12.6	---	---	9.6	NE	0.16	10.4	-20.5	---	---	725.1	0.021	0.000	21.0	3	1
03/05/06	5:33 p	-12.6	-12.6	-12.6	---	---	9.6	NE	0.16	10.4	-20.5	---	---	725.1	0.021	0.000	21.0	3	1
03/05/06	5:34 p	-12.6	-12.6	-12.6	---	---	9.6	NE	0.16	10.4	-20.5	---	---	725.0	0.021	0.000	21.0	3	1
03/05/06	5:35 p	-12.6	-12.6	-12.6	---	---	9.6	NE	0.16	10.4	-20.5	---	---	725.0	0.021	0.000	21.0	3	1
03/05/06	5:36 p	-12.6	-12.6	-12.6	---	---	8.7	NNE	0.14	9.6	-20.2	---	---	725.1	0.021	0.000	21.0	3	1
03/05/06	5:37 p	-12.6	-12.5	-12.6	---	---	8.7	NE	0.14	10.4	-20.1	---	---	725.1	0.021	0.000	21.0	3	1
03/05/06	5:38 p	-12.5	-12.5	-12.6	---	---	9.6	NE	0.16	9.6	-20.4	---	---	725.1	0.021	0.000	21.0	3	1
03/05/06	5:39 p	-12.5	-12.5	-12.5	---	---	8.7	NE	0.14	9.6	-20.1	---	---	725.1	0.021	0.000	21.0	3	1
03/05/06	5:40 p	-12.5	-12.4	-12.5	---	---	9.6	NE	0.16	10.4	-20.4	---	---	725.0	0.021	0.000	21.0	3	1
03/05/06	5:41 p	-12.5	-12.4	-12.5	---	---	9.6	NE	0.16	10.4	-20.4	---	---	725.1	0.021	0.000	21.0	3	1
03/05/06	5:42 p	-12.5	-12.5	-12.5	---	---	9.6	NE	0.16	10.4	-20.4	---	---	725.0	0.021	0.000	21.0	3	1
03/05/06	5:43 p	-12.5	-12.5	-12.5	---	---	8.7	NE	0.14	9.6	-20.1	---	---	725.1	0.021	0.000	21.0	3	1
03/05/06	5:44 p	-12.5	-12.5	-12.5	---	---	9.6	NE	0.16	9.6	-20.4	---	---	725.1	0.021	0.000	21.0	3	1
03/05/06	5:45 p	-12.5	-12.5	-12.5	---	---	9.6	NE	0.16	10.4	-20.4	---	---	725.0	0.021	0.000	21.0	3	1
03/05/06	5:46 p	-12.5	-12.5	-12.5	---	---	8.7	NE	0.14	9.6	-20.1	---	---	725.0	0.021	0.000	21.0	3	1
03/05/06	5:47 p	-12.5	-12.5	-12.5	---	---	8.7	NE	0.14	9.6	-20.1	---	---	725.0	0.021	0.000	20.9	3	1
03/05/06	5:48 p	-12.5	-12.5	-12.5	---	---	9.6	NE	0.16	10.4	-20.4	---	---	725.1	0.021	0.000	21.0	3	1
03/05/06	5:49 p	-12.4	-12.4	-12.4	---	---	8.7	NE	0.14	9.6	-19.9	---	---	725.0	0.021	0.000	21.0	3	1
03/05/06	5:50 p	-12.4	-12.4	-12.4	---	---	8.7	NE	0.14	9.6	-19.9	---	---	725.0	0.021	0.000	21.0	3	1
03/05/06	5:51 p	-12.4	-12.4	-12.4	---	---	8.7	NE	0.14	9.6	-19.9	---	---	725.0	0.021	0.000	21.0	3	1
03/05/06	5:52 p	-12.4	-12.4	-12.4	---	---	8.7	NE	0.14	9.6	-19.9	---	---	725.0	0.021	0.000	21.0	3	1
03/05/06	5:53 p	-12.4	-12.4	-12.4	---	---	7.8	NE	0.13	8.7	-19.4	---	---	725.0	0.021	0.000	21.0	3	1
03/05/06	5:54 p	-12.4	-12.4	-12.4	---	---	8.7	NE	0.14	9.6	-19.9	---	---	725.0	0.021	0.000	21.0	3	1
03/05/06	5:55 p	-12.4	-12.4	-12.4	---	---	8.7	NE	0.14	9.6	-19.9	---	---	724.9	0.021	0.000	21.0	3	1
03/05/06	5:56 p	-12.4	-12.4	-12.4	---	---	7.8	NE	0.13	8.7	-19.4	---	---	724.9	0.021	0.000	21.0	3	1
03/05/06	5:57 p	-12.4	-12.3	-12.4	---	---	7.0	NE	0.12	8.7	-19.0	---	---	724.9	0.021	0.000	21.0	3	1
03/05/06	5:58 p	-12.3	-12.3	-12.3	---	---	7.0	NE	0.12	7.8	-18.9	---	---	725.0	0.021	0.000	21.0	3	1
03/05/06	5:59 p	-12.3	-12.3	-12.3	---	---	7.8	NNE	0.13	8.7	-19.4	---	---	725.0	0.021	0.000	21.0	3	1
03/05/06	6:00 p	-12.3	-12.3	-12.3	---	---	7.8	NE	0.13	8.7	-19.4	---	---	724.9	0.021	0.000	21.0	3	1
03/05/06	6:01 p	-12.3	-12.3	-12.3	---	---	8.7	NE	0.14	8.7	-19.8	---	---	724.8	0.021	0.000	21.0	3	1
03/05/06	6:02 p	-12.3	-12.3	-12.3	---	---	7.8	NE	0.13	8.7	-19.4	---	---	724.9	0.021	0.000	21.0	3	1
03/05/06	6:03 p	-12.3	-12.2	-12.3	---	---	8.7	NE	0.14	8.7	-19.8	---	---	725.0	0.021	0.000	21.0	3	1
03/05/06	6:04 p	-12.3	-12.2	-12.3	---	---	8.7	NE	0.14	9.6	-19.8	---	---	725.0	0.021	0.000	21.0	3	1
03/05/06	6:05 p	-12.2	-12.2	-12.3	---	---	7.8	NE	0.13	7.8	-19.3	---	---	725.0	0.021	0.000	21.0	3	1
03/05/06	6:06 p	-12.2	-12.2	-12.2	---	---	7.0	NE	0.12	8.7	-18.8	---	---	725.0	0.021	0.000	21.0	3	1
03/05/06	6:07 p	-12.2	-12.2	-12.2	---	---	7.8	NNE	0.13	8.7	-19.3	---	---	725.0	0.021	0.000	21.0	3	1
03/05/06	6:08 p	-12.2	-12.2	-12.2	---	---	7.8	NNE	0.13	8.7	-19.2	---	---	725.0	0.021	0.000	21.0	3	1
03/05/06	6:09 p	-12.2	-12.2	-12.2	---	---	7.8	NNE	0.13	8.7	-19.2	---	---	725.0	0.021	0.000	21.0	3	1
03/05/06	6:10 p	-12.2	-12.2	-12.2	---	---	7.0	NNE	0.12	7.8	-18.7	---	---	724.9	0.021	0.000	21.0	3	1
03/05/06	6:11 p	-12.2	-12.1	-12.2	---	---	7.0	NE	0.12	7.8	-18.7	---	---	724.9	0.021	0.000	21.0	3	1
03/05/06	6:12 p	-12.1	-12.1	-12.1	---	---	7.8	NNE	0.13	8.7	-19.1	---	---	725.0	0.021	0.000	21.0	3	1
03/05/06	6:13 p	-12.1	-12.1	-12.1	---	---	7.8	NNE	0.13	7.8	-19.1	---	---	724.9	0.021	0.000	21.0	3	1
03/05/06	6:14 p	-12.1	-12.1	-12.1	---	---	7.0	NNE	0.12	8.7	-18.7	---	---	724.9	0.021	0.000	21.0	3	1
03/05/06	6:15 p	-12.1	-12.1	-12.1	---	---	7.0	NNE	0.12	7.8	-18.6	---	---	725.0	0.021	0.000	21.0	3	1
03/05/06	6:16 p	-12.1	-12.1	-12.1	---	---	7.8	NNE	0.13	7.8	-19.1	---	---	725.0	0.021	0.000	21.0	3	1
03/05/06	6:17 p	-12.1	-12.1	-12.1	---	---	6.1	NNE	0.10	7.8	-18.1	---	---	725.0	0.021	0.000	21.0	3	1
03/05/06	6:18 p	-12.0	-12.0	-12.1	---	---	6.1	NNE	0.10	7.0	-18.0	---	---	724.9	0.021	0.000	21.0	3	1
03/05/06	6:19 p	-11.9	-11.9	-11.9	---	---	6.1	NNE	0.10	7.0	-17.9	---	---	724.9	0.021	0.000	21.0	3	1
03/05/06	6:20 p	-11.9	-11.9	-11.9	---	---	7.0	NNE	0.12	7.8	-18.4	---	---	724.9	0.021	0.000	21.0	3	1
03/05/06	6:21 p	-11.9	-11.9	-11.9	---	---	7.0	NNE	0.12	7.8	-18.4	---	---	725.0	0.021	0.000	21.0	3	1
03/05/06	6:22 p	-11.9	-11.9	-11.9	---	---	7.8	NE	0.13	7.8	-18.9	---	---	724.9	0.021	0.000	21.0	3	1
03/05/06	6:23 p	-11.9	-11.9	-11.9	---	---	8.7	NE	0.14	8.7	-19.3	---	---	724.9	0.021	0.000	21.0	3	1
03/05/06	6:24 p	-11.9	-11.9	-11.9	---	---	7.8	NE	0.13	8.7	-18.9	---	---	725.0	0.021	0.000	21.0	3	1
03/05/06	6:25 p	-11.9	-11.9	-11.9	---	---	7.8	NNE	0.13	7.8	-18.9	---	---	724.9	0.021	0.000	21.0	3	1
03/05/06	6:26 p	-11.9	-11.9	-11.9	---	---	7.8	NNE	0.13	8.7	-18.9	---	---	724.9	0.021	0.000	21.0	3	1
03/05/06	6:27 p	-11.9	-11.9	-11.9	---	---	7.8	NE	0.13	8.7	-18.8	---	---	724.9	0.021	0.000	21.0	3	1
03/05/06	6:28 p	-11.9	-11.9	-11.9	---	---	7.8	NNE	0.13	8.7	-18.9	---	---	725.0	0.021	0.000	21.0	3	1
03/05/06	6:29 p	-11.9	-11.9	-11.9	---	---	7.8	NNE	0.13	8.7	-18.8	---	---	725.0	0.021	0.000	21.0	3	1
03/05/06	6:30 p	-11.9	-11.9	-11.9	---	---	7.8	NNE	0.13	7.8	-18.8	---	---	725.0	0.021	0.000	21.0	3	1
03/05/06	6:31 p	-11.9	-11.9	-11.9	---	---	7.0	NE	0.12	7.8	-18.4	---	---	725.0	0.021	0.000	21.0	3	1
03/05/06	6:32 p	-11.9	-11.9	-11.9	---	---	7.8	NE	0.13	8.7	-18.8	---	---	725.1	0.021	0.000	21.0	3	1
03/05/06	6:33 p	-11.9	-11.9	-11.9	---	---	7.0	NE	0.12	7.8	-18.4	---	---	724.9	0.021	0.000	21.0	3	1
03/05/06	6:34 p	-11.9	-11.9	-11.9	---	---	7.0	NE	0.12	7.0	-18.4	---	---	725.0	0.021	0.000	21.0	3	1
03/05/06	6:35 p	-11.9	-11.9	-11.9	---	---	7.0	NNE	0.12	7.8	-18.4	---	---	725.0	0.021	0.000	21.0	3	1
03/05/06	6:36 p	-11.9	-11.9	-11.9	---	---	7.0	NNE	0.12	7.8	-18.4	---	---	725.0	0.021	0.000	21.0	3	1
03/05/06	6:37 p	-11.9	-11.8	-11.9	---	---	7.8	NE	0.13	8.7	-18.8	---	---	725.0	0.021	0.000	21.0	3	1
03/05/06	6:38 p	-11.8	-11.8	-11.9	---	---	7.0	NE	0.12	7.8	-18.3	---	---	724.9	0.021	0.000	21.0	3	1
03/05/06	6:39 p	-11.8	-11.8	-11.9	---	---	7.0	NE	0.12	7.0	-18.3	---	---	725.0	0.021	0.000	21.0	3	1
03/05/06	6:40 p	-11.8	-11.8	-11.8	---	---	6.1	NE	0.10	6.1	-17.8	---	---	725.0	0.021	0.000	21.0	3	1
03/05/06	6:41 p	-11.8	-11.8	-11.8	---	---	5.2	NE	0.09	6.1	-17.2	---	---	725.0	0.021	0.000	21.0	3	1
03/05/06	6:42 p	-11.7	-11.7	-11.8	---	---	6.1	NE	0.10	7.0	-17.7	---	---	725.0	0.021	0.000	21.0	3	1
03/05/06	6:43 p	-11.7	-11.7	-11.7	---	---	7.8	NE	0.13	8.7	-18.7	---	---	725.1	0.021	0.000	21.0	3	1
03/05/06	6:44 p	-11.7	-11.7	-11.7	---	---	7.8	NE	0.13	8.7	-18.7	---	---	725.0	0.021	0.000	21.0	3	1
03/05/06	6:45 p	-11.7	-11.7	-11.7	---	---	7.0	NE	0.12	8.7	-18.2	---	---	725.1	0.021	0.000	21.0	3	1
03/05/06	6:46 p	-11.7	-11.7	-11.7	---	---	7.8	NE	0.13	8.7	-18.7	---	---	725.1	0.021	0.000	21.0	3	1
03/05/06	6:47 p	-11.7	-11.7	-11.8	---	---	7.8	NNE	0.13	8.7	-18.7	---	---	725.1	0.021	0.000	21.0	3	1
03/05/06	6:48 p	-11.8	-11.8	-11.8	---	---	7.8	NNE	0.13	7.8	-18.7	---	---	725.0	0.021	0.000	21.0	3	1
03/05/06	6:49 p	-11.7	-11.7	-11.8	---	---	7.0	NNE	0.12	7.8	-18.2	---	---	725.0	0.021	0.000	21.0	3	1
03/05/06	6:50 p	-11.8	-11.7	-11.8	---	---	7.8	NNE	0.13	8.7	-18.7	---	---	725.0	0.021	0.000	21.0	3	1
03/05/06	6:51 p	-11.8	-11.7	-11.8	---	---	7.8	NE	0.13	8.7	-18.7	---	---	725.0	0.021	0.000	21.0	3	1
03/05/06	6:52 p	-11.8	-11.8	-11.8	---	---	7.8	NE	0.13	8.7	-18.7	---	---	725.1	0.021	0.000	21.0	3	1
03/05/06	6:53 p	-11.8	-11.8	-11.8	---	---	7.0	NE	0.12	7.8	-18.3	---	---	725.0	0.021	0.000	21.0	3	1
03/05/06	6:54 p	-11.8	-11.8	-11.8	---	---	7.8	NNE	0.13	8.7	-18.8	---	---	725.0	0.021	0.000	21.0	3	1
03/05/06	6:55 p	-11.8	-11.8	-11.8	---	---	7.8	NNE	0.13	8.7	-18.7	---	---	725.0	0.021	0.000	21.0	3	1
03/05/06	6:56 p	-11.8	-11.8	-11.8	---	---	7.8	NNE	0.13	7.8	-18.7	---	---	725.1	0.021	0.000	21.0	3	1
03/05/06	6:57 p	-11.8	-11.7	-11.8	---	---	7.0	NNE	0.12	7.8	-18.3	---	---	725.0	0.021	0.000	21.0	3	1
03/05/06	6:58 p	-11.7	-11.7	-11.7	---	---	7.8	NNE	0.13	7.8	-18.7	---	---	725.0	0.021	0.000	21.0	3	1
03/05/06	6:59 p	-11.7	-11.7	-11.7	---	---	7.8	NNE	0.13	8.7	-18.6	---	---	725.1	0.021	0.000	21.0	3	1
03/05/06	7:00 p	-11.7	-11.7	-11.7	---	---	7.0	NNE	0.12	7.8	-18.1	---	---	725.1	0.021	0.000	21.0	3	1
03/05/06	7:01 p	-11.7	-11.6	-11.7	---	---	7.0	NE	0.12	8.7	-18.1	---	---	725.0	0.021	0.000	21.1	3	1
03/05/06	7:02 p	-11.6	-11.6	-11.6	---	---	7.0	NNE	0.12	7.8	-18.1	---	---	725.1	0.021	0.000	21.0	3	1
03/05/06	7:03 p	-11.6	-11.6	-11.6	---	---	7.0	NNE	0.12	7.8	-18.1	---	---	725.0	0.021	0.000	21.0	3	1
03/05/06	7:04 p	-11.6	-11.6	-11.6	---	---	7.0	NNE	0.12	7.8	-18.1	---	---	725.0	0.021	0.000	21.0	3	1
03/05/06	7:05 p	-11.6	-11.6	-11.6	---	---	7.0	NNE	0.12	7.8	-18.0	---	---	725.0	0.021	0.000	21.0	3	1
03/05/06	7:06 p	-11.5	-11.5	-11.5	---	---	7.0	NNE	0.12	8.7	-17.9	---	---	725.0	0.021	0.000	21.0	3	1
03/05/06	7:07 p	-11.5	-11.5	-11.5	---	---	7.0	NNE	0.12	7.8	-17.9	---	---	725.1	0.021	0.000	21.0	3	1
03/05/06	7:08 p	-11.5	-11.4	-11.5	---	---	7.8	NNE	0.13	8.7	-18.4	---	---	725.0	0.021	0.000	21.0	3	1
03/05/06	7:09 p	-11.4	-11.4	-11.4	---	---	7.8	NE	0.13	7.8	-18.3	---	---	724.9	0.021	0.000	21.1	3	1
03/05/06	7:10 p	-11.4	-11.4	-11.4	---	---	7.0	NNE	0.12	7.8	-17.8	---	---	725.0	0.021	0.000	21.1	3	1
03/05/06	7:11 p	-11.4	-11.4	-11.4	---	---	7.0	NE	0.12	7.8	-17.8	---	---	724.9	0.021	0.000	21.1	3	1
03/05/06	7:12 p	-11.4	-11.4	-11.4	---	---	7.0	NNE	0.12	8.7	-17.8	---	---	725.0	0.021	0.000	21.1	3	1
03/05/06	7:13 p	-11.4	-11.4	-11.5	---	---	7.8	NNE	0.13	9.6	-18.3	---	---	725.0	0.021	0.000	21.0	3	1
03/05/06	7:14 p	-11.4	-11.4	-11.5	---	---	8.7	NNE	0.14	9.6	-18.7	---	---	725.0	0.021	0.000	21.0	3	1
03/05/06	7:15 p	-11.4	-11.4	-11.4	---	---	8.7	NNE	0.14	9.6	-18.7	---	---	725.0	0.021	0.000	21.1	3	1
03/05/06	7:16 p	-11.4	-11.4	-11.4	---	---	7.8	NNE	0.13	8.7	-18.3	---	---	724.9	0.021	0.000	21.1	3	1
03/05/06	7:17 p	-11.4	-11.4	-11.4	---	---	7.8	NE	0.13	8.7	-18.3	---	---	725.0	0.021	0.000	21.1	3	1
03/05/06	7:18 p	-11.4	-11.4	-11.4	---	---	7.8	NE	0.13	8.7	-18.3	---	---	725.0	0.021	0.000	21.1	3	1
03/05/06	7:19 p	-11.4	-11.4	-11.4	---	---	7.8	NNE	0.13	8.7	-18.3	---	---	725.0	0.021	0.000	21.1	3	1
03/05/06	7:20 p	-11.4	-11.4	-11.4	---	---	7.8	NNE	0.13	8.7	-18.3	---	---	725.0	0.021	0.000	21.1	3	1
03/05/06	7:21 p	-11.4	-11.4	-11.4	---	---	7.8	NNE	0.13	7.8	-18.2	---	---	725.0	0.021	0.000	21.1	3	1
03/05/06	7:22 p	-11.4	-11.4	-11.4	---	---	7.8	NNE	0.13	9.6	-18.2	---	---	725.0	0.021	0.000	21.1	3	1
03/05/06	7:23 p	-11.4	-11.4	-11.4	---	---	8.7	NNE	0.14	9.6	-18.7	---	---	725.0	0.021	0.000	21.1	3	1
03/05/06	7:24 p	-11.4	-11.4	-11.4	---	---	7.8	NE	0.13	8.7	-18.2	---	---	725.0	0.021	0.000	21.1	3	1
03/05/06	7:25 p	-11.3	-11.3	-11.4	---	---	8.7	NE	0.14	8.7	-18.6	---	---	725.0	0.021	0.000	21.1	3	1
03/05/06	7:26 p	-11.3	-11.3	-11.3	---	---	8.7	NE	0.14	8.7	-18.6	---	---	725.0	0.021	0.000	21.1	3	1
03/05/06	7:27 p	-11.3	-11.3	-11.3	---	---	7.8	NE	0.13	8.7	-18.2	---	---	725.0	0.021	0.000	21.1	3	1
03/05/06	7:28 p	-11.3	-11.3	-11.3	---	---	7.8	NE	0.13	9.6	-18.2	---	---	725.1	0.021	0.000	21.1	3	1
03/05/06	7:29 p	-11.3	-11.3	-11.3	---	---	8.7	NE	0.14	9.6	-18.6	---	---	725.0	0.021	0.000	21.1	3	1
03/05/06	7:30 p	-11.3	-11.3	-11.4	---	---	8.7	NE	0.14	10.4	-18.6	---	---	725.1	0.021	0.000	21.1	3	1
03/05/06	7:31 p	-11.4	-11.3	-11.4	---	---	8.7	NE	0.14	9.6	-18.7	---	---	725.0	0.021	0.000	21.1	3	1
03/05/06	7:32 p	-11.4	-11.4	-11.4	---	---	8.7	NE	0.14	9.6	-18.7	---	---	725.0	0.021	0.000	21.1	3	1
03/05/06	7:33 p	-11.4	-11.4	-11.4	---	---	8.7	NE	0.14	9.6	-18.7	---	---	725.0	0.021	0.000	21.1	3	1
03/05/06	7:34 p	-11.4	-11.4	-11.4	---	---	9.6	NNE	0.16	10.4	-19.1	---	---	725.1	0.021	0.000	21.1	3	1
03/05/06	7:35 p	-11.4	-11.4	-11.4	---	---	10.4	NNE	0.17	11.3	-19.4	---	---	725.1	0.021	0.000	21.1	3	1
03/05/06	7:36 p	-11.4	-11.4	-11.4	---	---	9.6	NE	0.16	11.3	-19.1	---	---	725.0	0.021	0.000	21.1	3	1
03/05/06	7:37 p	-11.4	-11.4	-11.4	---	---	10.4	NE	0.17	11.3	-19.4	---	---	725.0	0.021	0.000	21.1	3	1
03/05/06	7:38 p	-11.4	-11.4	-11.4	---	---	9.6	NE	0.16	10.4	-19.1	---	---	725.0	0.021	0.000	21.1	3	1
03/05/06	7:39 p	-11.4	-11.4	-11.4	---	---	9.6	NE	0.16	10.4	-19.1	---	---	725.0	0.021	0.000	21.1	3	1
03/05/06	7:40 p	-11.4	-11.4	-11.4	---	---	9.6	NE	0.16	10.4	-19.1	---	---	725.0	0.021	0.000	21.1	3	1
03/05/06	7:41 p	-11.4	-11.4	-11.4	---	---	9.6	NE	0.16	10.4	-19.1	---	---	725.1	0.021	0.000	21.1	3	1
03/05/06	7:42 p	-11.4	-11.4	-11.4	---	---	9.6	NE	0.16	9.6	-19.1	---	---	725.1	0.021	0.000	21.1	3	1
03/05/06	7:43 p	-11.4	-11.4	-11.4	---	---	9.6	NE	0.16	10.4	-19.1	---	---	725.1	0.021	0.000	21.1	3	1
03/05/06	7:44 p	-11.4	-11.4	-11.5	---	---	9.6	NE	0.16	10.4	-19.1	---	---	725.1	0.021	0.000	21.1	3	1
03/05/06	7:45 p	-11.4	-11.4	-11.5	---	---	9.6	NE	0.16	11.3	-19.1	---	---	725.1	0.021	0.000	21.1	3	1
03/05/06	7:46 p	-11.4	-11.4	-11.4	---	---	10.4	NE	0.17	11.3	-19.4	---	---	725.1	0.021	0.000	21.1	3	1
03/05/06	7:47 p	-11.4	-11.4	-11.4	---	---	9.6	NE	0.16	11.3	-19.1	---	---	725.0	0.021	0.000	21.1	3	1
03/05/06	7:48 p	-11.4	-11.4	-11.5	---	---	10.4	NE	0.17	12.2	-19.4	---	---	725.1	0.021	0.000	21.1	3	1
03/05/06	7:49 p	-11.5	-11.4	-11.5	---	---	10.4	NE	0.17	11.3	-19.6	---	---	725.0	0.021	0.000	21.1	3	1
03/05/06	7:50 p	-11.4	-11.4	-11.5	---	---	10.4	NE	0.17	11.3	-19.4	---	---	725.1	0.021	0.000	21.1	3	1
03/05/06	7:51 p	-11.5	-11.4	-11.5	---	---	9.6	NE	0.16	11.3	-19.2	---	---	725.1	0.021	0.000	21.1	3	1
03/05/06	7:52 p	-11.4	-11.4	-11.4	---	---	10.4	NE	0.17	11.3	-19.4	---	---	725.1	0.021	0.000	21.1	3	1
03/05/06	7:53 p	-11.5	-11.4	-11.5	---	---	9.6	NE	0.16	10.4	-19.2	---	---	725.1	0.021	0.000	21.1	3	1
03/05/06	7:54 p	-11.5	-11.5	-11.5	---	---	9.6	NNE	0.16	11.3	-19.2	---	---	725.1	0.021	0.000	21.1	3	1
03/05/06	7:55 p	-11.4	-11.4	-11.4	---	---	9.6	NE	0.16	10.4	-19.1	---	---	725.2	0.021	0.000	21.1	3	1
03/05/06	7:56 p	-11.4	-11.4	-11.4	---	---	9.6	NE	0.16	11.3	-19.1	---	---	725.1	0.021	0.000	21.1	3	1
03/05/06	7:57 p	-11.4	-11.4	-11.4	---	---	9.6	NE	0.16	10.4	-19.1	---	---	725.2	0.021	0.000	21.1	4	1
03/05/06	7:58 p	-11.4	-11.4	-11.4	---	---	9.6	NE	0.16	10.4	-19.1	---	---	725.1	0.021	0.000	21.1	4	1
03/05/06	7:59 p	-11.4	-11.4	-11.4	---	---	9.6	NE	0.16	10.4	-19.1	---	---	725.2	0.021	0.000	21.1	4	1
03/05/06	8:00 p	-11.4	-11.4	-11.4	---	---	9.6	NE	0.16	10.4	-19.1	---	---	725.1	0.021	0.000	21.1	4	1
03/05/06	8:01 p	-11.4	-11.4	-11.4	---	---	9.6	NE	0.16	10.4	-19.1	---	---	725.1	0.021	0.000	21.1	4	1
03/05/06	8:02 p	-11.4	-11.4	-11.4	---	---	8.7	NE	0.14	9.6	-18.7	---	---	725.2	0.021	0.000	21.1	4	1
03/05/06	8:03 p	-11.4	-11.4	-11.4	---	---	8.7	NE	0.14	10.4	-18.7	---	---	725.2	0.021	0.000	21.1	4	1
03/05/06	8:04 p	-11.4	-11.4	-11.4	---	---	9.6	NE	0.16	10.4	-19.1	---	---	725.1	0.021	0.000	21.1	4	1
03/05/06	8:05 p	-11.4	-11.4	-11.4	---	---	8.7	NE	0.14	10.4	-18.7	---	---	725.2	0.021	0.000	21.1	4	1
03/05/06	8:06 p	-11.4	-11.4	-11.4	---	---	9.6	NE	0.16	10.4	-19.1	---	---	725.2	0.021	0.000	21.2	4	1
03/05/06	8:07 p	-11.4	-11.4	-11.4	---	---	8.7	NE	0.14	10.4	-18.7	---	---	725.2	0.021	0.000	21.2	4	1
03/05/06	8:08 p	-11.5	-11.4	-11.5	---	---	9.6	NE	0.16	10.4	-19.2	---	---	725.1	0.021	0.000	21.2	4	1
03/05/06	8:09 p	-11.5	-11.5	-11.5	---	---	7.0	NE	0.12	8.7	-17.9	---	---	725.2	0.021	0.000	21.2	4	1
03/05/06	8:10 p	-11.7	-11.6	-11.7	---	---	7.8	NE	0.13	8.7	-18.6	---	---	725.2	0.021	0.000	21.2	4	1
03/05/06	8:11 p	-11.8	-11.8	-11.8	---	---	7.8	NE	0.13	8.7	-18.7	---	---	725.2	0.021	0.000	21.2	5	1
03/05/06	8:12 p	-11.9	-11.8	-11.9	---	---	7.8	NE	0.13	8.7	-18.8	---	---	725.2	0.021	0.000	21.2	5	1
03/05/06	8:13 p	-12.0	-11.9	-12.1	---	---	8.7	NE	0.14	9.6	-19.4	---	---	725.2	0.021	0.000	21.3	4	1
03/05/06	8:14 p	-12.2	-12.1	-12.3	---	---	8.7	NE	0.14	9.6	-19.6	---	---	725.1	0.021	0.000	21.3	5	1
03/05/06	8:15 p	-12.3	-12.3	-12.4	---	---	9.6	NE	0.16	10.4	-20.2	---	---	725.2	0.021	0.000	21.3	5	1
03/05/06	8:16 p	-12.4	-12.4	-12.4	---	---	9.6	NE	0.16	10.4	-20.3	---	---	725.2	0.021	0.000	21.3	5	1
03/05/06	8:17 p	-12.4	-12.4	-12.4	---	---	7.8	NE	0.13	9.6	-19.6	---	---	725.2	0.021	0.000	21.3	5	1
03/05/06	8:18 p	-12.4	-12.4	-12.4	---	---	8.7	NE	0.14	9.6	-19.9	---	---	725.1	0.021	0.000	21.3	5	1
03/05/06	8:19 p	-12.4	-12.4	-12.4	---	---	8.7	NE	0.14	9.6	-19.9	---	---	725.2	0.021	0.000	21.3	5	1
03/05/06	8:20 p	-12.4	-12.4	-12.4	---	---	8.7	NE	0.14	9.6	-19.9	---	---	725.2	0.021	0.000	21.3	5	1
03/05/06	8:21 p	-12.5	-12.4	-12.5	---	---	7.8	NE	0.13	9.6	-19.6	---	---	725.2	0.021	0.000	21.3	5	1
03/05/06	8:22 p	-12.5	-12.4	-12.5	---	---	8.7	NE	0.14	9.6	-20.1	---	---	725.2	0.021	0.000	21.3	5	1
03/05/06	8:23 p	-12.4	-12.3	-12.4	---	---	8.7	NE	0.14	9.6	-19.9	---	---	725.2	0.021	0.000	21.4	5	1
03/05/06	8:24 p	-12.3	-12.2	-12.3	---	---	8.7	NE	0.14	9.6	-19.8	---	---	725.2	0.021	0.000	21.4	5	1
03/05/06	8:25 p	-12.2	-12.1	-12.2	---	---	8.7	NE	0.14	10.4	-19.6	---	---	725.1	0.021	0.000	21.4	5	1
03/05/06	8:26 p	-12.1	-12.0	-12.1	---	---	7.8	NE	0.13	9.6	-19.1	---	---	725.1	0.021	0.000	21.4	5	1
03/05/06	8:27 p	-11.9	-11.9	-12.0	---	---	8.7	NE	0.14	9.6	-19.3	---	---	725.2	0.021	0.000	21.4	5	1
03/05/06	8:28 p	-11.8	-11.8	-11.9	---	---	7.8	NE	0.13	8.7	-18.8	---	---	725.2	0.021	0.000	21.4	5	1
03/05/06	8:29 p	-11.8	-11.7	-11.8	---	---	8.7	NE	0.14	9.6	-19.1	---	---	725.2	0.021	0.000	21.4	5	1
03/05/06	8:30 p	-11.7	-11.7	-11.7	---	---	8.7	NE	0.14	10.4	-19.0	---	---	725.2	0.021	0.000	21.4	5	1
03/05/06	8:31 p	-11.6	-11.6	-11.7	---	---	9.6	NE	0.16	10.4	-19.3	---	---	725.2	0.021	0.000	21.4	5	1
03/05/06	8:32 p	-11.6	-11.6	-11.6	---	---	10.4	NE	0.17	10.4	-19.7	---	---	725.3	0.021	0.000	21.4	5	1
03/05/06	8:33 p	-11.6	-11.6	-11.6	---	---	9.6	NE	0.16	10.4	-19.2	---	---	725.2	0.021	0.000	21.4	5	1
03/05/06	8:34 p	-11.5	-11.5	-11.6	---	---	8.7	NE	0.14	9.6	-18.8	---	---	725.2	0.021	0.000	21.4	5	1
03/05/06	8:35 p	-11.5	-11.5	-11.6	---	---	9.6	NE	0.16	10.4	-19.2	---	---	725.2	0.021	0.000	21.4	5	1
03/05/06	8:36 p	-11.5	-11.5	-11.5	---	---	8.7	NE	0.14	9.6	-18.8	---	---	725.2	0.021	0.000	21.4	5	1
03/05/06	8:37 p	-11.4	-11.4	-11.5	---	---	7.8	NE	0.13	8.7	-18.3	---	---	725.3	0.021	0.000	21.4	5	1
03/05/06	8:38 p	-11.4	-11.4	-11.4	---	---	8.7	NE	0.14	9.6	-18.7	---	---	725.3	0.021	0.000	21.4	5	1
03/05/06	8:39 p	-11.4	-11.4	-11.4	---	---	8.7	NE	0.14	9.6	-18.7	---	---	725.2	0.021	0.000	21.4	5	1
03/05/06	8:40 p	-11.4	-11.3	-11.4	---	---	8.7	NE	0.14	9.6	-18.7	---	---	725.2	0.021	0.000	21.4	5	1
03/05/06	8:41 p	-11.3	-11.3	-11.3	---	---	7.8	NE	0.13	8.7	-18.2	---	---	725.2	0.021	0.000	21.4	5	1
03/05/06	8:42 p	-11.3	-11.3	-11.3	---	---	7.8	NE	0.13	8.7	-18.2	---	---	725.2	0.021	0.000	21.4	5	1
03/05/06	8:43 p	-11.3	-11.3	-11.3	---	---	7.8	NE	0.13	8.7	-18.2	---	---	725.3	0.021	0.000	21.4	5	1
03/05/06	8:44 p	-11.3	-11.3	-11.3	---	---	7.0	NE	0.12	7.8	-17.7	---	---	725.2	0.021	0.000	21.4	5	1
03/05/06	8:45 p	-11.3	-11.3	-11.3	---	---	7.0	NE	0.12	7.8	-17.7	---	---	725.3	0.021	0.000	21.4	5	1
03/05/06	8:46 p	-11.2	-11.2	-11.2	---	---	7.0	NE	0.12	7.8	-17.7	---	---	725.2	0.021	0.000	21.4	5	1
03/05/06	8:47 p	-11.1	-11.1	-11.2	---	---	7.0	NE	0.12	7.8	-17.5	---	---	725.2	0.020	0.000	21.4	5	1
03/05/06	8:48 p	-11.1	-11.1	-11.1	---	---	7.0	NE	0.12	7.8	-17.5	---	---	725.3	0.020	0.000	21.5	5	1
03/05/06	8:49 p	-11.1	-11.1	-11.1	---	---	6.1	NE	0.10	7.8	-16.9	---	---	725.3	0.020	0.000	21.4	5	1
03/05/06	8:50 p	-11.0	-11.0	-11.1	---	---	7.0	NE	0.12	7.8	-17.4	---	---	725.3	0.020	0.000	21.5	5	1
03/05/06	8:51 p	-11.1	-11.1	-11.1	---	---	7.8	NE	0.13	8.7	-17.8	---	---	725.3	0.020	0.000	21.5	5	1
03/05/06	8:52 p	-11.2	-11.2	-11.2	---	---	7.8	NE	0.13	9.6	-17.9	---	---	725.3	0.020	0.000	21.5	5	1
03/05/06	8:53 p	-11.3	-11.3	-11.3	---	---	7.8	NE	0.13	9.6	-18.1	---	---	725.3	0.021	0.000	21.5	5	1
03/05/06	8:54 p	-11.3	-11.3	-11.3	---	---	8.7	NE	0.14	9.6	-18.6	---	---	725.3	0.021	0.000	21.5	5	1
03/05/06	8:55 p	-11.3	-11.3	-11.3	---	---	9.6	NE	0.16	10.4	-18.9	---	---	725.3	0.021	0.000	21.5	5	1
03/05/06	8:56 p	-11.3	-11.3	-11.4	---	---	8.7	NE	0.14	10.4	-18.6	---	---	725.3	0.021	0.000	21.5	5	1
03/05/06	8:57 p	-11.4	-11.4	-11.4	---	---	7.8	NE	0.13	9.6	-18.2	---	---	725.3	0.021	0.000	21.5	5	1
03/05/06	8:58 p	-11.4	-11.4	-11.4	---	---	9.6	NE	0.16	10.4	-19.1	---	---	725.3	0.021	0.000	21.5	5	1
03/05/06	8:59 p	-11.4	-11.4	-11.4	---	---	8.7	NE	0.14	10.4	-18.7	---	---	725.3	0.021	0.000	21.6	5	1
03/05/06	9:00 p	-11.4	-11.4	-11.4	---	---	9.6	NE	0.16	10.4	-19.1	---	---	725.3	0.021	0.000	21.6	5	1
03/05/06	9:01 p	-11.4	-11.4	-11.6	---	---	8.7	NE	0.14	10.4	-18.7	---	---	725.3	0.021	0.000	21.6	5	1
03/05/06	9:02 p	-11.6	-11.6	-11.6	---	---	9.6	NE	0.16	10.4	-19.2	---	---	725.3	0.021	0.000	21.6	5	1
03/05/06	9:03 p	-11.6	-11.6	-11.6	---	---	8.7	NE	0.14	10.4	-18.9	---	---	725.3	0.021	0.000	21.6	5	1
03/05/06	9:04 p	-11.6	-11.6	-11.6	---	---	10.4	NE	0.17	10.4	-19.7	---	---	725.4	0.021	0.000	21.6	5	1
03/05/06	9:05 p	-11.6	-11.6	-11.7	---	---	9.6	NE	0.16	10.4	-19.3	---	---	725.3	0.021	0.000	21.6	5	1
03/05/06	9:06 p	-11.6	-11.6	-11.6	---	---	9.6	NE	0.16	10.4	-19.3	---	---	725.3	0.021	0.000	21.6	5	1
03/05/06	9:07 p	-11.6	-11.6	-11.6	---	---	9.6	NE	0.16	10.4	-19.3	---	---	725.3	0.021	0.000	21.6	5	1
03/05/06	9:08 p	-11.6	-11.6	-11.6	---	---	8.7	NE	0.14	10.4	-18.9	---	---	725.2	0.021	0.000	21.6	5	1
03/05/06	9:09 p	-11.6	-11.6	-11.6	---	---	8.7	NE	0.14	9.6	-18.9	---	---	725.2	0.021	0.000	21.6	5	1
03/05/06	9:10 p	-11.6	-11.5	-11.6	---	---	9.6	NE	0.16	9.6	-19.2	---	---	725.3	0.021	0.000	21.6	5	1
03/05/06	9:11 p	-11.6	-11.6	-11.6	---	---	8.7	NE	0.14	9.6	-18.9	---	---	725.3	0.021	0.000	21.6	5	1
03/05/06	9:12 p	-11.6	-11.6	-11.6	---	---	9.6	NE	0.16	9.6	-19.2	---	---	725.2	0.021	0.000	21.6	5	1
03/05/06	9:13 p	-11.6	-11.6	-11.6	---	---	8.7	NE	0.14	9.6	-18.9	---	---	725.3	0.021	0.000	21.6	5	1
03/05/06	9:14 p	-11.6	-11.6	-11.6	---	---	8.7	NE	0.14	9.6	-18.9	---	---	725.2	0.021	0.000	21.6	5	1
03/05/06	9:15 p	-11.6	-11.5	-11.6	---	---	8.7	NE	0.14	9.6	-18.9	---	---	725.2	0.021	0.000	21.6	5	1
03/05/06	9:16 p	-11.5	-11.5	-11.6	---	---	8.7	NE	0.14	9.6	-18.8	---	---	725.2	0.021	0.000	21.6	5	1
03/05/06	9:17 p	-11.6	-11.6	-11.6	---	---	9.6	NE	0.16	10.4	-19.2	---	---	725.2	0.021	0.000	21.6	5	1
03/05/06	9:18 p	-11.6	-11.6	-11.6	---	---	9.6	NE	0.16	10.4	-19.3	---	---	725.2	0.021	0.000	21.6	5	1
03/05/06	9:19 p	-11.6	-11.6	-11.6	---	---	8.7	NE	0.14	9.6	-18.9	---	---	725.2	0.021	0.000	21.6	5	1
03/05/06	9:20 p	-11.6	-11.6	-11.6	---	---	8.7	NE	0.14	9.6	-18.9	---	---	725.2	0.021	0.000	21.6	5	1
03/05/06	9:21 p	-11.6	-11.5	-11.6	---	---	8.7	NE	0.14	10.4	-18.9	---	---	725.2	0.021	0.000	21.6	5	1
03/05/06	9:22 p	-11.5	-11.5	-11.5	---	---	8.7	NE	0.14	9.6	-18.8	---	---	725.3	0.021	0.000	21.6	5	1
03/05/06	9:23 p	-11.4	-11.4	-11.5	---	---	8.7	NE	0.14	9.6	-18.7	---	---	725.3	0.021	0.000	21.6	5	1
03/05/06	9:24 p	-11.4	-11.3	-11.4	---	---	8.7	NE	0.14	8.7	-18.7	---	---	725.3	0.021	0.000	21.6	5	1
03/05/06	9:25 p	-11.3	-11.3	-11.4	---	---	9.6	NE	0.16	10.4	-18.9	---	---	725.3	0.021	0.000	21.6	5	1
03/05/06	9:26 p	-11.3	-11.3	-11.3	---	---	9.6	NE	0.16	9.6	-18.9	---	---	725.2	0.021	0.000	21.6	5	1
03/05/06	9:27 p	-11.3	-11.2	-11.3	---	---	8.7	NE	0.14	9.6	-18.5	---	---	725.3	0.021	0.000	21.6	5	1
03/05/06	9:28 p	-11.2	-11.2	-11.2	---	---	8.7	NE	0.14	9.6	-18.4	---	---	725.3	0.021	0.000	21.6	5	1
03/05/06	9:29 p	-11.2	-11.2	-11.2	---	---	9.6	NE	0.16	10.4	-18.8	---	---	725.3	0.020	0.000	21.6	5	1
03/05/06	9:30 p	-11.2	-11.2	-11.2	---	---	9.6	NE	0.16	10.4	-18.8	---	---	725.3	0.020	0.000	21.6	5	1
03/05/06	9:31 p	-11.2	-11.1	-11.2	---	---	9.6	NE	0.16	10.4	-18.8	---	---	725.2	0.020	0.000	21.6	5	1
03/05/06	9:32 p	-11.1	-11.1	-11.2	---	---	9.6	NE	0.16	10.4	-18.7	---	---	725.3	0.020	0.000	21.6	5	1
03/05/06	9:33 p	-11.2	-11.1	-11.2	---	---	9.6	NE	0.16	11.3	-18.8	---	---	725.3	0.020	0.000	21.6	5	1
03/05/06	9:34 p	-11.2	-11.1	-11.2	---	---	9.6	NE	0.16	11.3	-18.8	---	---	725.2	0.020	0.000	21.6	5	1
03/05/06	9:35 p	-11.2	-11.1	-11.2	---	---	9.6	NE	0.16	10.4	-18.8	---	---	725.3	0.020	0.000	21.5	5	1
03/05/06	9:36 p	-11.1	-11.1	-11.2	---	---	9.6	NE	0.16	10.4	-18.7	---	---	725.3	0.020	0.000	21.5	5	1
03/05/06	9:37 p	-11.1	-11.1	-11.2	---	---	9.6	NE	0.16	10.4	-18.7	---	---	725.3	0.020	0.000	21.4	5	1
03/05/06	9:38 p	-11.2	-11.1	-11.2	---	---	9.6	NE	0.16	10.4	-18.8	---	---	725.4	0.020	0.000	21.4	5	1
03/05/06	9:39 p	-11.2	-11.2	-11.2	---	---	9.6	NE	0.16	10.4	-18.8	---	---	725.2	0.020	0.000	21.4	5	1
03/05/06	9:40 p	-11.2	-11.2	-11.2	---	---	9.6	NE	0.16	10.4	-18.8	---	---	725.3	0.021	0.000	21.4	5	1
03/05/06	9:41 p	-11.2	-11.2	-11.3	---	---	9.6	NE	0.16	10.4	-18.8	---	---	725.3	0.021	0.000	21.4	5	1
03/05/06	9:42 p	-11.3	-11.3	-11.4	---	---	9.6	NE	0.16	10.4	-18.9	---	---	725.3	0.021	0.000	21.4	5	1
03/05/06	9:43 p	-11.4	-11.4	-11.4	---	---	9.6	NE	0.16	10.4	-19.1	---	---	725.3	0.021	0.000	21.4	5	1
03/05/06	9:44 p	-11.4	-11.4	-11.4	---	---	8.7	NE	0.14	10.4	-18.7	---	---	725.3	0.021	0.000	21.4	5	1
03/05/06	9:45 p	-11.3	-11.3	-11.4	---	---	9.6	NE	0.16	10.4	-18.9	---	---	725.2	0.021	0.000	21.4	5	1
03/05/06	9:46 p	-11.3	-11.3	-11.3	---	---	8.7	NE	0.14	10.4	-18.5	---	---	725.3	0.021	0.000	21.4	5	1
03/05/06	9:47 p	-11.2	-11.2	-11.2	---	---	9.6	NE	0.16	11.3	-18.8	---	---	725.4	0.021	0.000	21.4	5	1
03/05/06	9:48 p	-11.2	-11.2	-11.2	---	---	8.7	NE	0.14	9.6	-18.4	---	---	725.4	0.020	0.000	21.5	5	1
03/05/06	9:49 p	-11.2	-11.1	-11.2	---	---	8.7	NE	0.14	9.6	-18.4	---	---	725.3	0.020	0.000	21.5	6	1
03/05/06	9:50 p	-11.1	-11.1	-11.2	---	---	8.7	NE	0.14	10.4	-18.3	---	---	725.3	0.020	0.000	21.5	5	1
03/05/06	9:51 p	-11.2	-11.2	-11.2	---	---	8.7	NE	0.14	9.6	-18.4	---	---	725.3	0.020	0.000	21.5	6	1
03/05/06	9:52 p	-11.1	-11.1	-11.2	---	---	8.7	NE	0.14	9.6	-18.3	---	---	725.3	0.020	0.000	21.4	6	1
03/05/06	9:53 p	-11.1	-11.1	-11.1	---	---	8.7	NE	0.14	9.6	-18.2	---	---	725.3	0.020	0.000	21.4	6	1
03/05/06	9:54 p	-11.1	-11.0	-11.1	---	---	8.7	NE	0.14	10.4	-18.2	---	---	725.3	0.020	0.000	21.4	6	1
03/05/06	9:55 p	-11.0	-11.0	-11.0	---	---	9.6	NE	0.16	10.4	-18.6	---	---	725.4	0.020	0.000	21.4	6	1
03/05/06	9:56 p	-10.9	-10.9	-10.9	---	---	8.7	NE	0.14	9.6	-18.1	---	---	725.5	0.020	0.000	21.4	6	1
03/05/06	9:57 p	-10.9	-10.9	-10.9	---	---	9.6	NE	0.16	11.3	-18.4	---	---	725.4	0.020	0.000	21.4	6	1
03/05/06	9:58 p	-10.9	-10.8	-10.9	---	---	9.6	NE	0.16	10.4	-18.4	---	---	725.4	0.020	0.000	21.4	6	1
03/05/06	9:59 p	-10.8	-10.8	-10.9	---	---	9.6	NE	0.16	10.4	-18.3	---	---	725.4	0.020	0.000	21.4	6	1
03/05/06	10:00 p	-10.8	-10.8	-10.9	---	---	9.6	NE	0.16	10.4	-18.3	---	---	725.5	0.020	0.000	21.4	6	1
03/05/06	10:01 p	-10.9	-10.8	-10.9	---	---	9.6	NE	0.16	10.4	-18.4	---	---	725.4	0.020	0.000	21.4	6	1
03/05/06	10:02 p	-10.8	-10.8	-10.9	---	---	8.7	NE	0.14	10.4	-17.9	---	---	725.4	0.020	0.000	21.4	6	1
03/05/06	10:03 p	-10.8	-10.8	-10.9	---	---	9.6	NE	0.16	11.3	-18.3	---	---	725.4	0.020	0.000	21.4	7	1
03/05/06	10:04 p	-10.9	-10.8	-10.9	---	---	8.7	NE	0.14	10.4	-18.1	---	---	725.4	0.020	0.000	21.4	7	1
03/05/06	10:05 p	-10.8	-10.8	-10.8	---	---	8.7	NNE	0.14	10.4	-17.9	---	---	725.4	0.020	0.000	21.5	7	1
03/05/06	10:06 p	-10.8	-10.8	-10.8	---	---	9.6	NE	0.16	11.3	-18.3	---	---	725.3	0.020	0.000	21.4	7	1
03/05/06	10:07 p	-10.7	-10.7	-10.8	---	---	9.6	NE	0.16	10.4	-18.2	---	---	725.4	0.020	0.000	21.4	7	1
03/05/06	10:08 p	-10.7	-10.7	-10.7	---	---	8.7	NE	0.14	10.4	-17.8	---	---	725.4	0.020	0.000	21.4	7	1
03/05/06	10:09 p	-10.7	-10.6	-10.7	---	---	8.7	NE	0.14	10.4	-17.8	---	---	725.4	0.020	0.000	21.4	7	1
03/05/06	10:10 p	-10.6	-10.6	-10.6	---	---	10.4	NE	0.17	11.3	-18.4	---	---	725.4	0.020	0.000	21.4	7	1
03/05/06	10:11 p	-10.6	-10.6	-10.6	---	---	8.7	NE	0.14	10.4	-17.7	---	---	725.3	0.020	0.000	21.4	7	1
03/05/06	10:12 p	-10.6	-10.6	-10.6	---	---	8.7	NE	0.14	9.6	-17.7	---	---	725.4	0.020	0.000	21.4	7	1
03/05/06	10:13 p	-10.6	-10.6	-10.6	---	---	8.7	NE	0.14	10.4	-17.7	---	---	725.4	0.020	0.000	21.4	7	1
03/05/06	10:14 p	-10.6	-10.6	-10.7	---	---	8.7	NE	0.14	9.6	-17.7	---	---	725.3	0.020	0.000	21.4	7	1
03/05/06	10:15 p	-10.7	-10.7	-10.7	---	---	8.7	NE	0.14	10.4	-17.8	---	---	725.4	0.020	0.000	21.4	8	1
03/05/06	10:16 p	-10.7	-10.7	-10.7	---	---	8.7	NE	0.14	10.4	-17.8	---	---	725.3	0.020	0.000	21.4	8	1
03/05/06	10:17 p	-10.7	-10.7	-10.8	---	---	8.7	NE	0.14	10.4	-17.8	---	---	725.4	0.020	0.000	21.4	8	1
03/05/06	10:18 p	-10.7	-10.7	-10.8	---	---	7.8	NE	0.13	8.7	-17.5	---	---	725.5	0.020	0.000	21.4	8	1
03/05/06	10:19 p	-10.7	-10.7	-10.7	---	---	8.7	NE	0.14	10.4	-17.8	---	---	725.4	0.020	0.000	21.4	8	1
03/05/06	10:20 p	-10.7	-10.7	-10.7	---	---	8.7	NE	0.14	9.6	-17.8	---	---	725.4	0.020	0.000	21.4	8	1
03/05/06	10:21 p	-10.7	-10.7	-10.7	---	---	8.7	NE	0.14	10.4	-17.8	---	---	725.3	0.020	0.000	21.4	8	1
03/05/06	10:22 p	-10.7	-10.7	-10.7	---	---	7.8	NE	0.13	10.4	-17.4	---	---	725.4	0.020	0.000	21.4	8	1
03/05/06	10:23 p	-10.7	-10.7	-10.7	---	---	9.6	NE	0.16	10.4	-18.1	---	---	725.4	0.020	0.000	21.4	8	1
03/05/06	10:24 p	-10.7	-10.7	-10.8	---	---	8.7	NE	0.14	9.6	-17.8	---	---	725.4	0.020	0.000	21.4	8	1
03/05/06	10:25 p	-10.8	-10.8	-10.8	---	---	9.6	NE	0.16	11.3	-18.3	---	---	725.3	0.020	0.000	21.3	8	1
03/05/06	10:26 p	-10.7	-10.7	-10.8	---	---	8.7	NE	0.14	10.4	-17.8	---	---	725.4	0.020	0.000	21.3	8	1
03/05/06	10:27 p	-10.7	-10.7	-10.7	---	---	8.7	NE	0.14	10.4	-17.8	---	---	725.4	0.020	0.000	21.3	8	1
03/05/06	10:28 p	-10.7	-10.7	-10.7	---	---	8.7	NE	0.14	10.4	-17.8	---	---	725.4	0.020	0.000	21.3	8	1
03/05/06	10:29 p	-10.7	-10.7	-10.7	---	---	8.7	NE	0.14	9.6	-17.8	---	---	725.3	0.020	0.000	21.3	8	1
03/05/06	10:30 p	-10.7	-10.7	-10.7	---	---	8.7	NE	0.14	9.6	-17.8	---	---	725.3	0.020	0.000	21.3	8	1
03/05/06	10:31 p	-10.6	-10.6	-10.6	---	---	8.7	NE	0.14	10.4	-17.7	---	---	725.3	0.020	0.000	21.3	8	1
03/05/06	10:32 p	-10.6	-10.6	-10.6	---	---	8.7	NE	0.14	10.4	-17.7	---	---	725.4	0.020	0.000	21.3	8	1
03/05/06	10:33 p	-10.6	-10.6	-10.6	---	---	7.8	NE	0.13	8.7	-17.3	---	---	725.3	0.020	0.000	21.3	8	1
03/05/06	10:34 p	-10.6	-10.6	-10.6	---	---	8.7	NE	0.14	10.4	-17.7	---	---	725.4	0.020	0.000	21.3	8	1
03/05/06	10:35 p	-10.6	-10.6	-10.6	---	---	8.7	NE	0.14	9.6	-17.7	---	---	725.3	0.020	0.000	21.3	8	1
03/05/06	10:36 p	-10.6	-10.5	-10.6	---	---	7.8	NE	0.13	10.4	-17.3	---	---	725.4	0.020	0.000	21.3	8	1
03/05/06	10:37 p	-10.6	-10.6	-10.6	---	---	7.8	NE	0.13	8.7	-17.3	---	---	725.4	0.020	0.000	21.3	8	1
03/05/06	10:38 p	-10.5	-10.5	-10.6	---	---	7.8	NE	0.13	9.6	-17.2	---	---	725.4	0.020	0.000	21.3	8	1
03/05/06	10:39 p	-10.4	-10.4	-10.5	---	---	8.7	NE	0.14	9.6	-17.6	---	---	725.4	0.020	0.000	21.3	8	1
03/05/06	10:40 p	-10.5	-10.4	-10.5	---	---	8.7	NE	0.14	10.4	-17.6	---	---	725.4	0.020	0.000	21.3	8	1
03/05/06	10:41 p	-10.5	-10.5	-10.6	---	---	7.8	NE	0.13	8.7	-17.2	---	---	725.4	0.020	0.000	21.3	8	1
03/05/06	10:42 p	-10.6	-10.6	-10.6	---	---	8.7	NE	0.14	10.4	-17.7	---	---	725.3	0.020	0.000	21.3	8	1
03/05/06	10:43 p	-10.6	-10.6	-10.6	---	---	8.7	NE	0.14	9.6	-17.7	---	---	725.3	0.020	0.000	21.3	8	1
03/05/06	10:44 p	-10.7	-10.6	-10.7	---	---	8.7	NE	0.14	9.6	-17.8	---	---	725.4	0.020	0.000	21.3	8	1
03/05/06	10:45 p	-10.8	-10.8	-10.9	---	---	8.7	NE	0.14	10.4	-17.9	---	---	725.3	0.020	0.000	21.3	8	1
03/05/06	10:46 p	-11.0	-10.9	-11.0	---	---	9.6	NE	0.16	10.4	-18.6	---	---	725.4	0.020	0.000	21.3	8	1
03/05/06	10:47 p	-11.0	-11.0	-11.0	---	---	9.6	NE	0.16	10.4	-18.6	---	---	725.3	0.020	0.000	21.3	8	1
03/05/06	10:48 p	-11.0	-11.0	-11.1	---	---	8.7	NE	0.14	10.4	-18.2	---	---	725.3	0.020	0.000	21.3	8	1
03/05/06	10:49 p	-11.1	-11.0	-11.1	---	---	7.8	NE	0.13	9.6	-17.8	---	---	725.4	0.020	0.000	21.3	8	1
03/05/06	10:50 p	-11.0	-10.9	-11.0	---	---	7.8	NE	0.13	10.4	-17.8	---	---	725.4	0.020	0.000	21.3	8	1
03/05/06	10:51 p	-10.9	-10.9	-10.9	---	---	8.7	NE	0.14	9.6	-18.1	---	---	725.4	0.020	0.000	21.3	8	1
03/05/06	10:52 p	-10.9	-10.8	-10.9	---	---	8.7	NE	0.14	9.6	-18.1	---	---	725.4	0.020	0.000	21.3	8	1
03/05/06	10:53 p	-10.8	-10.8	-10.8	---	---	7.8	NE	0.13	9.6	-17.6	---	---	725.4	0.020	0.000	21.3	8	1
03/05/06	10:54 p	-10.7	-10.7	-10.8	---	---	7.8	NE	0.13	8.7	-17.5	---	---	725.5	0.020	0.000	21.3	8	1
03/05/06	10:55 p	-10.7	-10.7	-10.7	---	---	8.7	NE	0.14	9.6	-17.8	---	---	725.5	0.020	0.000	21.3	8	1
03/05/06	10:56 p	-10.6	-10.6	-10.7	---	---	7.8	NE	0.13	8.7	-17.3	---	---	725.4	0.020	0.000	21.3	8	1
03/05/06	10:57 p	-10.4	-10.4	-10.5	---	---	7.8	NE	0.13	8.7	-17.1	---	---	725.4	0.020	0.000	21.3	7	1
03/05/06	10:58 p	-10.3	-10.3	-10.4	---	---	8.7	NE	0.14	9.6	-17.4	---	---	725.4	0.020	0.000	21.3	8	1
03/05/06	10:59 p	-10.3	-10.2	-10.4	---	---	7.0	NE	0.12	8.7	-16.5	---	---	725.4	0.020	0.000	21.3	8	1
03/05/06	11:00 p	-10.2	-10.2	-10.2	---	---	8.7	NE	0.14	9.6	-17.2	---	---	725.4	0.020	0.000	21.3	8	1
03/05/06	11:01 p	-10.1	-10.1	-10.2	---	---	7.8	NE	0.13	8.7	-16.7	---	---	725.4	0.020	0.000	21.3	7	1
03/05/06	11:02 p	-9.9	-9.9	-10.0	---	---	8.7	NE	0.14	9.6	-16.9	---	---	725.4	0.020	0.000	21.3	8	1
03/05/06	11:03 p	-9.8	-9.7	-9.9	---	---	8.7	NE	0.14	9.6	-16.8	---	---	725.4	0.020	0.000	21.3	8	1
03/05/06	11:04 p	-9.7	-9.6	-9.7	---	---	7.8	NE	0.13	9.6	-16.2	---	---	725.4	0.019	0.000	21.3	8	1
03/05/06	11:05 p	-9.6	-9.5	-9.6	---	---	7.0	NE	0.12	7.8	-15.6	---	---	725.4	0.019	0.000	21.3	8	1
03/05/06	11:06 p	-9.4	-9.3	-9.4	---	---	7.8	NE	0.13	8.7	-15.9	---	---	725.4	0.019	0.000	21.3	7	1
03/05/06	11:07 p	-9.3	-9.3	-9.3	---	---	8.7	NE	0.14	9.6	-16.1	---	---	725.4	0.019	0.000	21.3	7	1
03/05/06	11:08 p	-9.2	-9.2	-9.2	---	---	7.8	NE	0.13	9.6	-15.6	---	---	725.4	0.019	0.000	21.3	7	1
03/05/06	11:09 p	-9.2	-9.1	-9.2	---	---	7.8	NE	0.13	9.6	-15.6	---	---	725.4	0.019	0.000	21.3	7	1
03/05/06	11:10 p	-9.1	-9.1	-9.1	---	---	8.7	NE	0.14	9.6	-15.8	---	---	725.4	0.019	0.000	21.3	7	1
03/05/06	11:11 p	-8.9	-8.9	-9.0	---	---	8.7	NE	0.14	9.6	-15.7	---	---	725.3	0.019	0.000	21.3	7	1
03/05/06	11:12 p	-8.9	-8.9	-9.0	---	---	8.7	NE	0.14	10.4	-15.7	---	---	725.4	0.019	0.000	21.3	7	1
03/05/06	11:13 p	-9.0	-8.9	-9.0	---	---	8.7	NE	0.14	9.6	-15.8	---	---	725.4	0.019	0.000	21.3	7	1
03/05/06	11:14 p	-8.9	-8.9	-8.9	---	---	7.8	NE	0.13	9.6	-15.3	---	---	725.4	0.019	0.000	21.3	7	1
03/05/06	11:15 p	-8.9	-8.9	-8.9	---	---	7.8	NE	0.13	9.6	-15.2	---	---	725.4	0.019	0.000	21.3	7	1
03/05/06	11:16 p	-8.8	-8.8	-8.9	---	---	8.7	NE	0.14	10.4	-15.6	---	---	725.4	0.019	0.000	21.3	7	1
03/05/06	11:17 p	-8.8	-8.8	-8.8	---	---	8.7	NE	0.14	9.6	-15.6	---	---	725.4	0.019	0.000	21.3	7	1
03/05/06	11:18 p	-8.9	-8.9	-9.0	---	---	8.7	NE	0.14	9.6	-15.6	---	---	725.4	0.019	0.000	21.3	7	1
03/05/06	11:19 p	-9.1	-9.0	-9.1	---	---	8.7	NE	0.14	9.6	-15.8	---	---	725.4	0.019	0.000	21.3	7	1
03/05/06	11:20 p	-9.1	-9.1	-9.1	---	---	8.7	NE	0.14	10.4	-15.9	---	---	725.4	0.019	0.000	21.3	7	1
03/05/06	11:21 p	-9.1	-9.1	-9.1	---	---	8.7	NE	0.14	9.6	-15.9	---	---	725.4	0.019	0.000	21.3	7	1
03/05/06	11:22 p	-9.1	-9.1	-9.1	---	---	8.7	NE	0.14	10.4	-15.9	---	---	725.4	0.019	0.000	21.3	7	1
03/05/06	11:23 p	-9.1	-9.1	-9.1	---	---	8.7	NE	0.14	9.6	-15.9	---	---	725.5	0.019	0.000	21.3	7	1
03/05/06	11:24 p	-9.1	-9.1	-9.1	---	---	8.7	NE	0.14	9.6	-15.8	---	---	725.4	0.019	0.000	21.3	7	1
03/05/06	11:25 p	-9.2	-9.1	-9.2	---	---	8.7	NE	0.14	9.6	-15.9	---	---	725.4	0.019	0.000	21.3	7	1
03/05/06	11:26 p	-9.2	-9.2	-9.3	---	---	8.7	NE	0.14	9.6	-16.0	---	---	725.4	0.019	0.000	21.3	7	1
03/05/06	11:27 p	-9.2	-9.2	-9.3	---	---	8.7	NE	0.14	9.6	-16.0	---	---	725.4	0.019	0.000	21.3	7	1
03/05/06	11:28 p	-9.3	-9.2	-9.3	---	---	8.7	NE	0.14	9.6	-16.1	---	---	725.4	0.019	0.000	21.3	7	1
03/05/06	11:29 p	-9.2	-9.1	-9.2	---	---	8.7	NE	0.14	9.6	-15.9	---	---	725.3	0.019	0.000	21.3	7	1
03/05/06	11:30 p	-9.1	-9.0	-9.1	---	---	9.6	NE	0.16	10.4	-16.2	---	---	725.4	0.019	0.000	21.3	7	1
03/05/06	11:31 p	-9.0	-9.0	-9.1	---	---	8.7	NE	0.14	10.4	-15.8	---	---	725.4	0.019	0.000	21.3	7	1
03/05/06	11:32 p	-9.0	-9.0	-9.0	---	---	8.7	NE	0.14	9.6	-15.8	---	---	725.3	0.019	0.000	21.3	7	1
03/05/06	11:33 p	-8.9	-8.9	-8.9	---	---	8.7	NE	0.14	9.6	-15.6	---	---	725.3	0.019	0.000	21.3	7	1
03/05/06	11:34 p	-8.9	-8.8	-8.9	---	---	8.7	NE	0.14	10.4	-15.6	---	---	725.4	0.019	0.000	21.3	7	1
03/05/06	11:35 p	-8.8	-8.8	-8.9	---	---	8.7	NE	0.14	9.6	-15.6	---	---	725.4	0.019	0.000	21.3	7	1
03/05/06	11:36 p	-8.9	-8.8	-8.9	---	---	8.7	NE	0.14	10.4	-15.6	---	---	725.3	0.019	0.000	21.3	7	1
03/05/06	11:37 p	-8.9	-8.9	-8.9	---	---	8.7	NE	0.14	9.6	-15.7	---	---	725.3	0.019	0.000	21.3	7	1
03/05/06	11:38 p	-8.9	-8.9	-8.9	---	---	7.8	NE	0.13	9.6	-15.3	---	---	725.4	0.019	0.000	21.3	7	1
03/05/06	11:39 p	-8.9	-8.9	-8.9	---	---	9.6	NE	0.16	9.6	-15.9	---	---	725.3	0.019	0.000	21.3	7	1
03/05/06	11:40 p	-8.9	-8.9	-9.0	---	---	8.7	NE	0.14	9.6	-15.7	---	---	725.4	0.019	0.000	21.3	7	1
03/05/06	11:41 p	-8.9	-8.9	-9.0	---	---	8.7	NE	0.14	9.6	-15.7	---	---	725.2	0.019	0.000	21.3	7	1
03/05/06	11:42 p	-8.9	-8.9	-9.0	---	---	8.7	NE	0.14	9.6	-15.7	---	---	725.2	0.019	0.000	21.3	7	1
03/05/06	11:43 p	-8.9	-8.9	-8.9	---	---	8.7	NE	0.14	9.6	-15.7	---	---	725.3	0.019	0.000	21.3	7	1
03/05/06	11:44 p	-8.9	-8.8	-8.9	---	---	7.8	NE	0.13	9.6	-15.2	---	---	725.2	0.019	0.000	21.4	7	1
03/05/06	11:45 p	-8.8	-8.8	-8.8	---	---	9.6	NE	0.16	10.4	-15.9	---	---	725.4	0.019	0.000	21.3	7	1
03/05/06	11:46 p	-8.9	-8.8	-8.9	---	---	8.7	NE	0.14	10.4	-15.6	---	---	725.3	0.019	0.000	21.3	7	1
03/05/06	11:47 p	-8.9	-8.9	-8.9	---	---	7.8	NE	0.13	8.7	-15.3	---	---	725.4	0.019	0.000	21.3	7	1
03/05/06	11:48 p	-8.9	-8.9	-8.9	---	---	8.7	NE	0.14	9.6	-15.6	---	---	725.4	0.019	0.000	21.4	7	1
03/05/06	11:49 p	-8.9	-8.8	-8.9	---	---	8.7	NE	0.14	9.6	-15.6	---	---	725.4	0.019	0.000	21.4	6	1
03/05/06	11:50 p	-8.9	-8.8	-8.9	---	---	8.7	NE	0.14	9.6	-15.6	---	---	725.2	0.019	0.000	21.3	6	1
03/05/06	11:51 p	-8.9	-8.9	-8.9	---	---	8.7	NE	0.14	9.6	-15.6	---	---	725.3	0.019	0.000	21.4	6	1
03/05/06	11:52 p	-8.9	-8.9	-8.9	---	---	7.8	NE	0.13	9.6	-15.2	---	---	725.4	0.019	0.000	21.4	6	1
03/05/06	11:53 p	-8.9	-8.8	-8.9	---	---	8.7	NE	0.14	8.7	-15.6	---	---	725.3	0.019	0.000	21.4	6	1
03/05/06	11:54 p	-8.9	-8.9	-8.9	---	---	8.7	NE	0.14	9.6	-15.6	---	---	725.4	0.019	0.000	21.4	6	1
03/05/06	11:55 p	-8.9	-8.9	-8.9	---	---	8.7	NE	0.14	9.6	-15.7	---	---	725.4	0.019	0.000	21.4	6	1
03/05/06	11:56 p	-8.9	-8.9	-9.0	---	---	7.8	NE	0.13	8.7	-15.3	---	---	725.4	0.019	0.000	21.4	6	1
03/05/06	11:57 p	-9.0	-9.0	-9.0	---	---	7.8	NE	0.13	9.6	-15.4	---	---	725.4	0.019	0.000	21.4	6	1
03/05/06	11:58 p	-8.9	-8.9	-9.0	---	---	7.8	NE	0.13	8.7	-15.3	---	---	725.4	0.019	0.000	21.4	6	1
03/05/06	11:59 p	-9.0	-9.0	-9.0	---	---	8.7	NE	0.14	9.6	-15.8	---	---	725.3	0.019	0.000	21.4	6	1
03/06/06	12:00 a	-9.0	-9.0	-9.1	---	---	8.7	NE	0.14	9.6	-15.8	---	---	725.3	0.019	0.000	21.4	6	1
03/06/06	12:01 a	-9.1	-9.1	-9.1	---	---	8.7	NE	0.14	8.7	-15.8	---	---	725.3	0.019	0.000	21.4	6	1
03/06/06	12:02 a	-9.1	-9.1	-9.1	---	---	8.7	NE	0.14	9.6	-15.9	---	---	725.4	0.019	0.000	21.4	6	1
03/06/06	12:03 a	-9.1	-9.1	-9.1	---	---	7.8	NE	0.13	8.7	-15.5	---	---	725.4	0.019	0.000	21.4	6	1
03/06/06	12:04 a	-9.1	-9.1	-9.2	---	---	8.7	NE	0.14	9.6	-15.9	---	---	725.3	0.019	0.000	21.4	6	1
03/06/06	12:05 a	-9.2	-9.1	-9.2	---	---	7.8	NE	0.13	8.7	-15.6	---	---	725.3	0.019	0.000	21.4	6	1
03/06/06	12:06 a	-9.1	-9.1	-9.1	---	---	7.8	NE	0.13	8.7	-15.4	---	---	725.4	0.019	0.000	21.4	6	1
03/06/06	12:07 a	-9.1	-9.1	-9.1	---	---	7.8	NE	0.13	8.7	-15.4	---	---	725.4	0.019	0.000	21.4	6	1
03/06/06	12:08 a	-9.1	-9.1	-9.1	---	---	7.8	NE	0.13	8.7	-15.4	---	---	725.4	0.019	0.000	21.4	6	1
03/06/06	12:09 a	-9.1	-9.1	-9.2	---	---	7.8	NE	0.13	8.7	-15.5	---	---	725.2	0.019	0.000	21.4	6	1
03/06/06	12:10 a	-9.1	-9.1	-9.1	---	---	7.8	NE	0.13	8.7	-15.5	---	---	725.3	0.019	0.000	21.4	6	1
03/06/06	12:11 a	-9.1	-9.1	-9.1	---	---	7.8	NE	0.13	8.7	-15.5	---	---	725.3	0.019	0.000	21.4	6	1
03/06/06	12:12 a	-9.0	-8.9	-9.1	---	---	7.8	NE	0.13	8.7	-15.4	---	---	725.3	0.019	0.000	21.4	6	1
03/06/06	12:13 a	-8.9	-8.8	-8.9	---	---	7.8	NE	0.13	8.7	-15.2	---	---	725.2	0.019	0.000	21.4	6	1
03/06/06	12:14 a	-8.8	-8.7	-8.8	---	---	7.8	NE	0.13	8.7	-15.1	---	---	725.3	0.019	0.000	21.4	6	1
03/06/06	12:15 a	-8.7	-8.7	-8.7	---	---	7.8	NE	0.13	8.7	-15.0	---	---	725.3	0.019	0.000	21.4	6	1
03/06/06	12:16 a	-8.7	-8.6	-8.7	---	---	7.8	NE	0.13	8.7	-14.9	---	---	725.3	0.019	0.000	21.4	6	1
03/06/06	12:17 a	-8.5	-8.4	-8.5	---	---	7.8	NE	0.13	8.7	-14.7	---	---	725.3	0.019	0.000	21.4	6	1
03/06/06	12:18 a	-8.4	-8.4	-8.5	---	---	7.8	NE	0.13	8.7	-14.7	---	---	725.2	0.019	0.000	21.4	6	1
03/06/06	12:19 a	-8.4	-8.4	-8.4	---	---	7.0	NE	0.12	7.8	-14.2	---	---	725.2	0.019	0.000	21.4	6	1
03/06/06	12:20 a	-8.3	-8.3	-8.3	---	---	7.8	NE	0.13	8.7	-14.6	---	---	725.3	0.019	0.000	21.4	6	1
03/06/06	12:21 a	-8.3	-8.2	-8.3	---	---	7.8	NE	0.13	8.7	-14.5	---	---	725.3	0.018	0.000	21.4	6	1
03/06/06	12:22 a	-8.3	-8.2	-8.3	---	---	7.8	NE	0.13	8.7	-14.5	---	---	725.3	0.018	0.000	21.5	6	1
03/06/06	12:23 a	-8.3	-8.3	-8.3	---	---	7.8	NE	0.13	8.7	-14.5	---	---	725.2	0.018	0.000	21.5	6	1
03/06/06	12:24 a	-8.4	-8.3	-8.4	---	---	8.7	NE	0.14	9.6	-15.0	---	---	725.2	0.019	0.000	21.5	6	1
03/06/06	12:25 a	-8.4	-8.4	-8.5	---	---	7.8	NE	0.13	8.7	-14.7	---	---	725.2	0.019	0.000	21.5	6	1
03/06/06	12:26 a	-8.5	-8.5	-8.5	---	---	7.8	NE	0.13	9.6	-14.7	---	---	725.2	0.019	0.000	21.5	6	1
03/06/06	12:27 a	-8.5	-8.5	-8.5	---	---	7.8	NE	0.13	8.7	-14.7	---	---	725.3	0.019	0.000	21.5	6	1
03/06/06	12:28 a	-8.6	-8.5	-8.6	---	---	7.8	NE	0.13	9.6	-14.8	---	---	725.3	0.019	0.000	21.5	6	1
03/06/06	12:29 a	-8.6	-8.5	-8.6	---	---	8.7	NE	0.14	9.6	-15.2	---	---	725.2	0.019	0.000	21.5	6	1
03/06/06	12:30 a	-8.4	-8.3	-8.5	---	---	8.7	NE	0.14	9.6	-15.1	---	---	725.3	0.019	0.000	21.5	6	1
03/06/06	12:31 a	-8.4	-8.3	-8.4	---	---	8.7	NE	0.14	9.6	-15.0	---	---	725.3	0.019	0.000	21.5	6	1
03/06/06	12:32 a	-8.4	-8.3	-8.4	---	---	7.8	NE	0.13	9.6	-14.6	---	---	725.3	0.019	0.000	21.5	6	1
03/06/06	12:33 a	-8.3	-8.3	-8.3	---	---	8.7	NE	0.14	9.6	-14.9	---	---	725.3	0.019	0.000	21.5	6	1
03/06/06	12:34 a	-8.2	-8.2	-8.3	---	---	7.8	NE	0.13	8.7	-14.4	---	---	725.2	0.018	0.000	21.5	6	1
03/06/06	12:35 a	-8.2	-8.2	-8.2	---	---	7.8	NE	0.13	9.6	-14.4	---	---	725.3	0.018	0.000	21.5	6	1
03/06/06	12:36 a	-8.2	-8.2	-8.2	---	---	8.7	NE	0.14	9.6	-14.7	---	---	725.4	0.018	0.000	21.5	6	1
03/06/06	12:37 a	-8.2	-8.2	-8.2	---	---	7.8	NE	0.13	8.7	-14.4	---	---	725.2	0.018	0.000	21.5	6	1
03/06/06	12:38 a	-8.3	-8.3	-8.3	---	---	7.8	NE	0.13	8.7	-14.5	---	---	725.3	0.018	0.000	21.5	6	1
03/06/06	12:39 a	-8.3	-8.3	-8.3	---	---	7.8	NE	0.13	8.7	-14.5	---	---	725.3	0.018	0.000	21.6	6	1
03/06/06	12:40 a	-8.4	-8.3	-8.5	---	---	8.7	NE	0.14	9.6	-15.0	---	---	725.3	0.019	0.000	21.6	6	1
03/06/06	12:41 a	-8.6	-8.5	-8.7	---	---	8.7	NE	0.14	10.4	-15.2	---	---	725.2	0.019	0.000	21.6	6	1
03/06/06	12:42 a	-8.9	-8.8	-9.1	---	---	9.6	NE	0.16	10.4	-16.1	---	---	725.3	0.019	0.000	21.6	6	1
03/06/06	12:43 a	-9.2	-9.2	-9.3	---	---	8.7	NE	0.14	9.6	-16.0	---	---	725.3	0.019	0.000	21.6	6	1
03/06/06	12:44 a	-9.3	-9.3	-9.4	---	---	8.7	NE	0.14	9.6	-16.2	---	---	725.2	0.019	0.000	21.6	6	1
03/06/06	12:45 a	-9.3	-9.2	-9.3	---	---	7.8	NE	0.13	8.7	-15.7	---	---	725.3	0.019	0.000	21.6	6	1
03/06/06	12:46 a	-9.1	-9.0	-9.2	---	---	7.8	NE	0.13	9.6	-15.5	---	---	725.3	0.019	0.000	21.6	6	1
03/06/06	12:47 a	-8.9	-8.8	-9.0	---	---	7.8	NE	0.13	8.7	-15.2	---	---	725.3	0.019	0.000	21.6	6	1
03/06/06	12:48 a	-8.7	-8.6	-8.7	---	---	8.7	NE	0.14	9.6	-15.3	---	---	725.2	0.019	0.000	21.6	6	1
03/06/06	12:49 a	-8.4	-8.4	-8.5	---	---	8.7	NE	0.14	9.6	-15.1	---	---	725.3	0.019	0.000	21.6	6	1
03/06/06	12:50 a	-8.4	-8.3	-8.4	---	---	8.7	NE	0.14	9.6	-15.0	---	---	725.3	0.019	0.000	21.6	6	1
03/06/06	12:51 a	-8.2	-8.2	-8.3	---	---	8.7	NE	0.14	9.6	-14.8	---	---	725.3	0.018	0.000	21.6	6	1
03/06/06	12:52 a	-8.1	-8.1	-8.1	---	---	8.7	NE	0.14	9.6	-14.7	---	---	725.2	0.018	0.000	21.6	6	1
03/06/06	12:53 a	-7.9	-7.9	-8.0	---	---	8.7	NE	0.14	9.6	-14.4	---	---	725.2	0.018	0.000	21.6	6	1
03/06/06	12:54 a	-8.0	-8.0	-8.1	---	---	9.6	NE	0.16	9.6	-14.8	---	---	725.2	0.018	0.000	21.6	6	1
03/06/06	12:55 a	-8.1	-8.1	-8.1	---	---	9.6	NE	0.16	9.6	-14.9	---	---	725.2	0.018	0.000	21.6	6	1
03/06/06	12:56 a	-8.0	-7.9	-8.0	---	---	8.7	NE	0.14	9.6	-14.5	---	---	725.2	0.018	0.000	21.6	6	1
03/06/06	12:57 a	-7.8	-7.8	-7.9	---	---	8.7	NE	0.14	9.6	-14.3	---	---	725.2	0.018	0.000	21.6	6	1
03/06/06	12:58 a	-7.8	-7.8	-7.8	---	---	8.7	NE	0.14	8.7	-14.2	---	---	725.2	0.018	0.000	21.6	6	1
03/06/06	12:59 a	-7.7	-7.7	-7.8	---	---	8.7	NE	0.14	8.7	-14.2	---	---	725.2	0.018	0.000	21.6	6	1
03/06/06	1:00 a	-7.6	-7.6	-7.6	---	---	8.7	NE	0.14	9.6	-13.9	---	---	725.1	0.018	0.000	21.6	6	1
03/06/06	1:01 a	-7.4	-7.4	-7.5	---	---	8.7	NE	0.14	9.6	-13.8	---	---	725.2	0.018	0.000	21.6	6	1
03/06/06	1:02 a	-7.4	-7.4	-7.4	---	---	8.7	NE	0.14	9.6	-13.8	---	---	725.2	0.018	0.000	21.7	6	1
03/06/06	1:03 a	-7.4	-7.3	-7.4	---	---	8.7	NE	0.14	9.6	-13.8	---	---	725.1	0.018	0.000	21.7	6	1
03/06/06	1:04 a	-7.3	-7.2	-7.3	---	---	8.7	NE	0.14	9.6	-13.6	---	---	725.1	0.018	0.000	21.7	6	1
03/06/06	1:05 a	-7.2	-7.1	-7.2	---	---	8.7	NE	0.14	9.6	-13.5	---	---	725.1	0.018	0.000	21.7	6	1
03/06/06	1:06 a	-7.1	-7.0	-7.1	---	---	8.7	NE	0.14	9.6	-13.3	---	---	725.2	0.018	0.000	21.7	6	1
03/06/06	1:07 a	-7.0	-6.9	-7.1	---	---	8.7	NE	0.14	9.6	-13.3	---	---	725.1	0.018	0.000	21.7	6	1
03/06/06	1:08 a	-6.9	-6.9	-6.9	---	---	8.7	NE	0.14	9.6	-13.1	---	---	725.1	0.018	0.000	21.7	6	1
03/06/06	1:09 a	-6.8	-6.8	-6.8	---	---	8.7	NE	0.14	9.6	-13.1	---	---	725.1	0.017	0.000	21.7	6	1
03/06/06	1:10 a	-6.8	-6.8	-6.9	---	---	8.7	NE	0.14	9.6	-13.1	---	---	725.1	0.017	0.000	21.7	6	1
03/06/06	1:11 a	-6.9	-6.9	-6.9	---	---	8.7	NE	0.14	9.6	-13.1	---	---	725.1	0.018	0.000	21.7	6	1
03/06/06	1:12 a	-6.9	-6.9	-7.0	---	---	9.6	NE	0.16	9.6	-13.6	---	---	725.1	0.018	0.000	21.7	6	1
03/06/06	1:13 a	-6.9	-6.9	-6.9	---	---	8.7	NE	0.14	9.6	-13.2	---	---	725.1	0.018	0.000	21.7	6	1
03/06/06	1:14 a	-6.9	-6.9	-6.9	---	---	8.7	NE	0.14	9.6	-13.2	---	---	725.1	0.018	0.000	21.7	6	1
03/06/06	1:15 a	-6.9	-6.8	-6.9	---	---	8.7	NE	0.14	9.6	-13.1	---	---	725.1	0.018	0.000	21.7	6	1
03/06/06	1:16 a	-6.9	-6.8	-6.9	---	---	8.7	NE	0.14	9.6	-13.1	---	---	725.1	0.018	0.000	21.7	6	1
03/06/06	1:17 a	-6.8	-6.8	-6.9	---	---	8.7	NE	0.14	9.6	-13.1	---	---	725.0	0.017	0.000	21.7	6	1
03/06/06	1:18 a	-6.7	-6.6	-6.8	---	---	7.8	NE	0.13	9.6	-12.6	---	---	725.1	0.017	0.000	21.7	5	1
03/06/06	1:19 a	-6.6	-6.6	-6.6	---	---	7.8	NE	0.13	9.6	-12.4	---	---	725.1	0.017	0.000	21.7	6	1
03/06/06	1:20 a	-6.6	-6.4	-6.6	---	---	8.7	NE	0.14	9.6	-12.7	---	---	725.1	0.017	0.000	21.7	6	1
03/06/06	1:21 a	-6.4	-6.4	-6.4	---	---	7.8	NE	0.13	8.7	-12.2	---	---	725.0	0.017	0.000	21.7	5	1
03/06/06	1:22 a	-6.4	-6.4	-6.5	---	---	8.7	NE	0.14	9.6	-12.6	---	---	725.1	0.017	0.000	21.7	6	1
03/06/06	1:23 a	-6.6	-6.6	-6.6	---	---	7.8	NE	0.13	8.7	-12.3	---	---	725.1	0.017	0.000	21.7	6	1
03/06/06	1:24 a	-6.6	-6.6	-6.6	---	---	7.8	NE	0.13	9.6	-12.4	---	---	725.0	0.017	0.000	21.7	6	1
03/06/06	1:25 a	-6.6	-6.5	-6.6	---	---	8.7	NE	0.14	8.7	-12.7	---	---	725.0	0.017	0.000	21.7	6	1
03/06/06	1:26 a	-6.5	-6.4	-6.5	---	---	8.7	NE	0.14	9.6	-12.7	---	---	725.0	0.017	0.000	21.7	6	1
03/06/06	1:27 a	-6.5	-6.4	-6.6	---	---	8.7	NE	0.14	9.6	-12.7	---	---	725.1	0.017	0.000	21.7	5	1
03/06/06	1:28 a	-6.6	-6.6	-6.7	---	---	8.7	NE	0.14	9.6	-12.8	---	---	725.2	0.017	0.000	21.7	6	1
03/06/06	1:29 a	-6.6	-6.6	-6.7	---	---	8.7	NE	0.14	9.6	-12.8	---	---	725.1	0.017	0.000	21.7	6	1
03/06/06	1:30 a	-6.6	-6.6	-6.7	---	---	8.7	NE	0.14	9.6	-12.8	---	---	725.1	0.017	0.000	21.7	6	1
03/06/06	1:31 a	-6.6	-6.6	-6.6	---	---	8.7	NE	0.14	9.6	-12.8	---	---	725.1	0.017	0.000	21.7	6	1
03/06/06	1:32 a	-6.4	-6.3	-6.5	---	---	7.8	NE	0.13	8.7	-12.2	---	---	725.1	0.017	0.000	21.7	6	1
03/06/06	1:33 a	-6.3	-6.2	-6.3	---	---	7.0	NE	0.12	8.7	-11.6	---	---	725.1	0.017	0.000	21.7	6	1
03/06/06	1:34 a	-6.2	-6.2	-6.2	---	---	7.8	NE	0.13	8.7	-11.9	---	---	725.2	0.017	0.000	21.7	6	1
03/06/06	1:35 a	-6.2	-6.2	-6.2	---	---	7.8	NE	0.13	8.7	-11.9	---	---	725.2	0.017	0.000	21.7	6	1
03/06/06	1:36 a	-6.2	-6.1	-6.2	---	---	7.8	NE	0.13	8.7	-11.9	---	---	725.1	0.017	0.000	21.6	5	1
03/06/06	1:37 a	-6.1	-6.1	-6.1	---	---	7.8	NE	0.13	8.7	-11.7	---	---	725.1	0.017	0.000	21.6	5	1
03/06/06	1:38 a	-6.1	-6.1	-6.1	---	---	7.8	NE	0.13	8.7	-11.7	---	---	725.1	0.017	0.000	21.6	6	1
03/06/06	1:39 a	-6.0	-6.0	-6.1	---	---	7.8	NE	0.13	8.7	-11.7	---	---	725.1	0.017	0.000	21.6	5	1
03/06/06	1:40 a	-6.1	-6.1	-6.1	---	---	7.8	NE	0.13	8.7	-11.7	---	---	725.2	0.017	0.000	21.6	5	1
03/06/06	1:41 a	-6.1	-6.1	-6.1	---	---	7.8	NE	0.13	8.7	-11.7	---	---	725.1	0.017	0.000	21.6	5	1
03/06/06	1:42 a	-6.0	-5.9	-6.0	---	---	7.0	NE	0.12	7.8	-11.3	---	---	725.1	0.017	0.000	21.5	5	1
03/06/06	1:43 a	-5.9	-5.9	-6.0	---	---	7.0	NE	0.12	7.8	-11.2	---	---	725.1	0.017	0.000	21.5	5	1
03/06/06	1:44 a	-5.8	-5.8	-5.9	---	---	7.0	NE	0.12	8.7	-11.1	---	---	725.1	0.017	0.000	21.5	5	1
03/06/06	1:45 a	-5.7	-5.7	-5.8	---	---	7.0	NE	0.12	7.8	-10.9	---	---	725.1	0.017	0.000	21.5	5	1
03/06/06	1:46 a	-5.6	-5.6	-5.6	---	---	7.8	NNE	0.13	8.7	-11.2	---	---	725.1	0.017	0.000	21.5	5	1
03/06/06	1:47 a	-5.5	-5.4	-5.5	---	---	7.8	NNE	0.13	7.8	-11.1	---	---	725.2	0.017	0.000	21.4	5	1
03/06/06	1:48 a	-5.4	-5.3	-5.4	---	---	7.0	NNE	0.12	7.8	-10.6	---	---	725.2	0.016	0.000	21.4	5	1
03/06/06	1:49 a	-5.3	-5.3	-5.3	---	---	7.0	NNE	0.12	7.8	-10.4	---	---	725.1	0.016	0.000	21.4	5	1
03/06/06	1:50 a	-5.2	-5.2	-5.2	---	---	7.0	NNE	0.12	7.8	-10.3	---	---	725.1	0.016	0.000	21.4	5	1
03/06/06	1:51 a	-5.1	-5.1	-5.2	---	---	7.0	NE	0.12	7.8	-10.2	---	---	725.1	0.016	0.000	21.4	5	1
03/06/06	1:52 a	-5.1	-5.0	-5.1	---	---	6.1	NNE	0.10	7.8	-9.7	---	---	725.1	0.016	0.000	21.4	5	1
03/06/06	1:53 a	-5.0	-4.9	-5.0	---	---	6.1	NNE	0.10	7.0	-9.6	---	---	725.1	0.016	0.000	21.4	5	1
03/06/06	1:54 a	-4.9	-4.9	-4.9	---	---	6.1	NNE	0.10	6.1	-9.5	---	---	725.0	0.016	0.000	21.4	5	1
03/06/06	1:55 a	-4.8	-4.7	-4.8	---	---	5.2	NNE	0.09	6.1	-8.9	---	---	725.1	0.016	0.000	21.4	5	1
03/06/06	1:56 a	-4.7	-4.7	-4.8	---	---	6.1	NNE	0.10	6.1	-9.3	---	---	725.0	0.016	0.000	21.4	5	1
03/06/06	1:57 a	-4.6	-4.6	-4.7	---	---	5.2	NNE	0.09	6.1	-8.7	---	---	725.0	0.016	0.000	21.4	5	1
03/06/06	1:58 a	-4.7	-4.6	-4.7	---	---	4.3	NNE	0.07	5.2	-8.2	---	---	725.1	0.016	0.000	21.3	5	1
03/06/06	1:59 a	-4.9	-4.8	-5.1	---	---	4.3	N	0.07	6.1	-8.5	---	---	725.1	0.016	0.000	21.3	5	1
03/06/06	2:00 a	-5.2	-5.1	-5.3	---	---	4.3	N	0.07	5.2	-8.8	---	---	725.0	0.016	0.000	21.3	5	1
03/06/06	2:01 a	-5.4	-5.4	-5.4	---	---	3.5	N	0.06	4.3	-8.4	---	---	725.0	0.017	0.000	21.3	5	1
03/06/06	2:02 a	-5.4	-5.3	-5.4	---	---	4.3	NNE	0.07	5.2	-9.1	---	---	725.0	0.016	0.000	21.3	5	1
03/06/06	2:03 a	-5.3	-5.3	-5.4	---	---	3.5	NNE	0.06	5.2	-8.3	---	---	725.0	0.016	0.000	21.3	5	1
03/06/06	2:04 a	-5.4	-5.4	-5.5	---	---	4.3	NNE	0.07	5.2	-9.1	---	---	725.0	0.017	0.000	21.3	5	1
03/06/06	2:05 a	-5.6	-5.5	-5.6	---	---	3.5	NNE	0.06	5.2	-8.6	---	---	725.0	0.017	0.000	21.3	5	1
03/06/06	2:06 a	-5.4	-5.4	-5.4	---	---	4.3	NNE	0.07	5.2	-9.1	---	---	725.0	0.017	0.000	21.3	5	1
03/06/06	2:07 a	-5.3	-5.3	-5.3	---	---	4.3	NNE	0.07	5.2	-9.0	---	---	724.9	0.016	0.000	21.3	5	1
03/06/06	2:08 a	-5.3	-5.3	-5.3	---	---	5.2	NNE	0.09	6.1	-9.5	---	---	725.0	0.016	0.000	21.3	5	1
03/06/06	2:09 a	-5.3	-5.2	-5.3	---	---	5.2	NNE	0.09	6.1	-9.5	---	---	725.0	0.016	0.000	21.3	5	1
03/06/06	2:10 a	-5.3	-5.3	-5.3	---	---	3.5	NNE	0.06	5.2	-8.3	---	---	725.0	0.016	0.000	21.3	5	1
03/06/06	2:11 a	-5.3	-5.2	-5.3	---	---	5.2	NNE	0.09	7.8	-9.5	---	---	725.1	0.016	0.000	21.3	5	1
03/06/06	2:12 a	-5.4	-5.3	-5.4	---	---	7.0	NE	0.12	8.7	-10.6	---	---	725.1	0.016	0.000	21.3	5	1
03/06/06	2:13 a	-5.4	-5.4	-5.4	---	---	7.0	NE	0.12	7.8	-10.6	---	---	725.0	0.016	0.000	21.3	5	1
03/06/06	2:14 a	-5.4	-5.4	-5.4	---	---	7.8	NE	0.13	8.7	-10.9	---	---	725.0	0.016	0.000	21.3	5	1
03/06/06	2:15 a	-5.4	-5.4	-5.4	---	---	7.0	NE	0.12	7.8	-10.6	---	---	725.0	0.017	0.000	21.2	5	1
03/06/06	2:16 a	-5.4	-5.3	-5.4	---	---	7.8	NE	0.13	8.7	-10.9	---	---	724.9	0.016	0.000	21.2	5	1
03/06/06	2:17 a	-5.6	-5.5	-5.7	---	---	7.8	NE	0.13	8.7	-11.1	---	---	724.9	0.017	0.000	21.2	5	1
03/06/06	2:18 a	-5.7	-5.7	-5.7	---	---	7.0	NE	0.12	8.7	-10.9	---	---	725.0	0.017	0.000	21.2	5	1
03/06/06	2:19 a	-5.6	-5.6	-5.7	---	---	7.0	NE	0.12	7.8	-10.8	---	---	724.9	0.017	0.000	21.2	5	1
03/06/06	2:20 a	-5.5	-5.4	-5.5	---	---	7.8	NE	0.13	8.7	-11.1	---	---	724.9	0.017	0.000	21.2	5	1
03/06/06	2:21 a	-5.4	-5.4	-5.5	---	---	7.0	NE	0.12	7.8	-10.6	---	---	725.0	0.017	0.000	21.2	5	1
03/06/06	2:22 a	-5.4	-5.4	-5.4	---	---	6.1	NE	0.10	7.8	-10.2	---	---	725.0	0.017	0.000	21.2	5	1
03/06/06	2:23 a	-5.4	-5.4	-5.4	---	---	7.0	NE	0.12	7.8	-10.6	---	---	725.0	0.016	0.000	21.2	6	1
03/06/06	2:24 a	-5.6	-5.6	-5.7	---	---	7.0	NE	0.12	8.7	-10.8	---	---	725.0	0.017	0.000	21.2	5	1
03/06/06	2:25 a	-5.6	-5.4	-5.6	---	---	6.1	NE	0.10	7.8	-10.3	---	---	725.0	0.017	0.000	21.2	5	1
03/06/06	2:26 a	-5.3	-5.3	-5.4	---	---	6.1	NE	0.10	7.0	-10.1	---	---	725.0	0.016	0.000	21.2	5	1
03/06/06	2:27 a	-5.3	-5.3	-5.3	---	---	7.8	NE	0.13	8.7	-10.8	---	---	725.0	0.016	0.000	21.2	5	1
03/06/06	2:28 a	-5.4	-5.3	-5.4	---	---	7.0	NE	0.12	8.7	-10.6	---	---	724.9	0.016	0.000	21.2	5	1
03/06/06	2:29 a	-5.4	-5.4	-5.4	---	---	6.1	NE	0.10	7.0	-10.2	---	---	724.9	0.017	0.000	21.2	5	1
03/06/06	2:30 a	-5.3	-5.3	-5.4	---	---	6.1	NE	0.10	7.8	-10.1	---	---	724.9	0.016	0.000	21.2	5	1
03/06/06	2:31 a	-5.3	-5.3	-5.3	---	---	7.0	NE	0.12	7.8	-10.4	---	---	724.9	0.016	0.000	21.2	5	1
03/06/06	2:32 a	-5.3	-5.3	-5.3	---	---	6.1	NE	0.10	7.8	-10.1	---	---	724.9	0.016	0.000	21.2	5	1
03/06/06	2:33 a	-5.3	-5.3	-5.3	---	---	6.1	NE	0.10	6.1	-10.0	---	---	724.9	0.016	0.000	21.2	5	1
03/06/06	2:34 a	-5.3	-5.3	-5.3	---	---	6.1	NE	0.10	7.0	-10.0	---	---	724.8	0.016	0.000	21.2	5	1
03/06/06	2:35 a	-5.3	-5.2	-5.3	---	---	6.1	NE	0.10	7.8	-10.0	---	---	724.9	0.016	0.000	21.2	5	1
03/06/06	2:36 a	-5.2	-5.2	-5.3	---	---	7.0	NE	0.12	7.8	-10.3	---	---	724.9	0.016	0.000	21.2	5	1
03/06/06	2:37 a	-5.3	-5.3	-5.3	---	---	7.0	NE	0.12	7.8	-10.4	---	---	724.9	0.016	0.000	21.2	6	1
03/06/06	2:38 a	-5.3	-5.2	-5.3	---	---	7.0	NE	0.12	7.8	-10.4	---	---	724.9	0.016	0.000	21.2	6	1
03/06/06	2:39 a	-5.2	-5.2	-5.2	---	---	7.0	NE	0.12	7.8	-10.3	---	---	724.9	0.016	0.000	21.2	6	1
03/06/06	2:40 a	-5.2	-5.2	-5.2	---	---	7.0	NE	0.12	7.8	-10.3	---	---	724.9	0.016	0.000	21.2	6	1
03/06/06	2:41 a	-5.2	-5.1	-5.2	---	---	7.0	NE	0.12	7.8	-10.3	---	---	724.9	0.016	0.000	21.2	6	1
03/06/06	2:42 a	-5.2	-5.2	-5.2	---	---	7.0	NE	0.12	7.8	-10.3	---	---	724.9	0.016	0.000	21.2	6	1
03/06/06	2:43 a	-5.3	-5.2	-5.3	---	---	7.0	NE	0.12	7.0	-10.4	---	---	724.8	0.016	0.000	21.2	6	1
03/06/06	2:44 a	-5.2	-5.1	-5.3	---	---	6.1	NE	0.10	7.0	-9.8	---	---	724.7	0.016	0.000	21.2	6	1
03/06/06	2:45 a	-4.9	-4.7	-5.0	---	---	5.2	NE	0.09	6.1	-9.0	---	---	724.8	0.016	0.000	21.2	6	1
03/06/06	2:46 a	-4.6	-4.4	-4.7	---	---	4.3	NE	0.07	5.2	-8.1	---	---	724.8	0.016	0.000	21.2	6	1
03/06/06	2:47 a	-4.3	-4.2	-4.4	---	---	4.3	NE	0.07	5.2	-7.8	---	---	724.8	0.016	0.000	21.2	6	1
03/06/06	2:48 a	-4.2	-4.1	-4.2	---	---	4.3	NE	0.07	5.2	-7.6	---	---	724.8	0.016	0.000	21.2	6	1
03/06/06	2:49 a	-4.1	-3.9	-4.1	---	---	4.3	NE	0.07	5.2	-7.5	---	---	724.8	0.016	0.000	21.2	6	1
03/06/06	2:50 a	-3.9	-3.8	-3.9	---	---	4.3	NE	0.07	4.3	-7.3	---	---	724.8	0.015	0.000	21.2	6	1
03/06/06	2:51 a	-3.7	-3.7	-3.8	---	---	4.3	NE	0.07	5.2	-7.1	---	---	724.8	0.015	0.000	21.2	6	1
03/06/06	2:52 a	-3.7	-3.6	-3.7	---	---	3.5	NE	0.06	4.3	-6.4	---	---	724.8	0.015	0.000	21.2	6	1
03/06/06	2:53 a	-3.7	-3.6	-3.7	---	---	3.5	NE	0.06	4.3	-6.4	---	---	724.8	0.015	0.000	21.2	6	1
03/06/06	2:54 a	-3.8	-3.8	-3.9	---	---	2.6	NE	0.04	4.3	-5.8	---	---	724.8	0.015	0.000	21.2	6	1
03/06/06	2:55 a	-4.1	-3.9	-4.3	---	---	3.5	NE	0.06	4.3	-6.9	---	---	724.8	0.016	0.000	21.2	6	1
03/06/06	2:56 a	-4.4	-4.4	-4.6	---	---	3.5	NE	0.06	4.3	-7.3	---	---	724.8	0.016	0.000	21.2	6	1
03/06/06	2:57 a	-4.8	-4.7	-4.9	---	---	3.5	NE	0.06	4.3	-7.7	---	---	724.7	0.016	0.000	21.2	6	1
03/06/06	2:58 a	-5.0	-5.0	-5.1	---	---	2.6	NE	0.04	3.5	-7.2	---	---	724.8	0.016	0.000	21.2	6	1
03/06/06	2:59 a	-5.1	-5.1	-5.1	---	---	2.6	NE	0.04	2.6	-7.2	---	---	724.8	0.016	0.000	21.2	6	1
03/06/06	3:00 a	-5.1	-5.0	-5.1	---	---	1.7	NE	0.03	2.6	-6.1	---	---	724.8	0.016	0.000	21.2	6	1
03/06/06	3:01 a	-4.9	-4.8	-4.9	---	---	0.9	NE	0.01	1.7	-4.9	---	---	724.8	0.016	0.000	21.2	6	1
03/06/06	3:02 a	-4.7	-4.6	-4.8	---	---	1.7	NE	0.03	2.6	-5.8	---	---	724.8	0.016	0.000	21.2	6	1
03/06/06	3:03 a	-4.5	-4.4	-4.6	---	---	1.7	NE	0.03	2.6	-5.5	---	---	724.6	0.016	0.000	21.2	6	1
03/06/06	3:04 a	-4.3	-4.2	-4.4	---	---	1.7	NE	0.03	2.6	-5.3	---	---	724.6	0.016	0.000	21.2	6	1
03/06/06	3:05 a	-4.1	-4.1	-4.2	---	---	2.6	NE	0.04	4.3	-6.2	---	---	724.6	0.016	0.000	21.2	6	1
03/06/06	3:06 a	-4.0	-3.8	-4.1	---	---	1.7	NE	0.03	2.6	-4.9	---	---	724.7	0.016	0.000	21.2	6	1
03/06/06	3:07 a	-3.8	-3.7	-3.8	---	---	4.3	NE	0.07	7.8	-7.2	---	---	724.6	0.015	0.000	21.2	6	1
03/06/06	3:08 a	-3.9	-3.8	-4.1	---	---	7.8	ENE	0.13	8.7	-9.1	---	---	724.6	0.015	0.000	21.2	6	1
03/06/06	3:09 a	-4.3	-4.2	-4.6	---	---	7.8	ENE	0.13	8.7	-9.6	---	---	724.6	0.016	0.000	21.3	6	1
03/06/06	3:10 a	-4.8	-4.7	-4.9	---	---	7.0	NE	0.12	7.8	-9.8	---	---	724.6	0.016	0.000	21.3	6	1
03/06/06	3:11 a	-5.1	-5.0	-5.1	---	---	7.0	NE	0.12	7.8	-10.1	---	---	724.7	0.016	0.000	21.3	6	1
03/06/06	3:12 a	-5.0	-4.9	-5.1	---	---	7.0	NE	0.12	7.0	-10.1	---	---	724.5	0.016	0.000	21.3	6	1
03/06/06	3:13 a	-4.8	-4.8	-4.9	---	---	6.1	NE	0.10	7.0	-9.4	---	---	724.6	0.016	0.000	21.3	6	1
03/06/06	3:14 a	-4.7	-4.7	-4.8	---	---	6.1	NE	0.10	7.8	-9.3	---	---	724.6	0.016	0.000	21.4	6	1
03/06/06	3:15 a	-4.8	-4.7	-5.1	---	---	7.0	NE	0.12	7.8	-9.8	---	---	724.6	0.016	0.000	21.4	6	1
03/06/06	3:16 a	-5.1	-5.1	-5.2	---	---	6.1	NE	0.10	7.0	-9.8	---	---	724.7	0.016	0.000	21.4	6	1
03/06/06	3:17 a	-5.3	-5.2	-5.3	---	---	7.0	NE	0.12	7.8	-10.4	---	---	724.6	0.016	0.000	21.4	6	1
03/06/06	3:18 a	-5.1	-5.1	-5.2	---	---	7.0	NE	0.12	7.8	-10.2	---	---	724.7	0.016	0.000	21.4	6	1
03/06/06	3:19 a	-5.2	-5.1	-5.3	---	---	7.0	NE	0.12	7.8	-10.3	---	---	724.6	0.016	0.000	21.4	6	1
03/06/06	3:20 a	-5.3	-5.3	-5.5	---	---	7.0	NE	0.12	7.8	-10.4	---	---	724.7	0.016	0.000	21.5	6	1
03/06/06	3:21 a	-5.7	-5.5	-5.8	---	---	7.8	NE	0.13	8.7	-11.3	---	---	724.6	0.017	0.000	21.5	6	1
03/06/06	3:22 a	-5.8	-5.8	-5.9	---	---	7.8	NE	0.13	7.8	-11.4	---	---	724.7	0.017	0.000	21.5	6	1
03/06/06	3:23 a	-5.9	-5.9	-6.0	---	---	7.8	NE	0.13	8.7	-11.6	---	---	724.6	0.017	0.000	21.6	6	1
03/06/06	3:24 a	-6.1	-6.1	-6.1	---	---	7.8	NE	0.13	8.7	-11.7	---	---	724.7	0.017	0.000	21.6	6	1
03/06/06	3:25 a	-6.1	-6.1	-6.2	---	---	7.8	NE	0.13	8.7	-11.8	---	---	724.6	0.017	0.000	21.6	6	1
03/06/06	3:26 a	-6.1	-6.0	-6.1	---	---	7.0	NE	0.12	7.8	-11.3	---	---	724.6	0.017	0.000	21.6	6	1
03/06/06	3:27 a	-6.0	-5.9	-6.0	---	---	7.0	NE	0.12	7.0	-11.3	---	---	724.6	0.017	0.000	21.6	6	1
03/06/06	3:28 a	-5.9	-5.9	-5.9	---	---	6.1	NE	0.10	7.0	-10.7	---	---	724.6	0.017	0.000	21.7	6	1
03/06/06	3:29 a	-5.8	-5.8	-5.9	---	---	5.2	NE	0.09	6.1	-10.2	---	---	724.6	0.017	0.000	21.7	6	1
03/06/06	3:30 a	-5.7	-5.7	-5.7	---	---	5.2	NE	0.09	6.1	-10.0	---	---	724.6	0.017	0.000	21.7	6	1
03/06/06	3:31 a	-5.5	-5.4	-5.6	---	---	5.2	NE	0.09	6.1	-9.8	---	---	724.6	0.017	0.000	21.7	6	1
03/06/06	3:32 a	-5.4	-5.3	-5.4	---	---	5.2	NE	0.09	6.1	-9.6	---	---	724.6	0.016	0.000	21.7	6	1
03/06/06	3:33 a	-5.3	-5.2	-5.3	---	---	4.3	NE	0.07	5.2	-8.9	---	---	724.6	0.016	0.000	21.8	6	1
03/06/06	3:34 a	-5.2	-5.1	-5.2	---	---	4.3	NE	0.07	5.2	-8.8	---	---	724.6	0.016	0.000	21.8	6	1
03/06/06	3:35 a	-5.0	-4.9	-5.1	---	---	4.3	NE	0.07	5.2	-8.6	---	---	724.6	0.016	0.000	21.8	6	1
03/06/06	3:36 a	-4.9	-4.9	-4.9	---	---	4.3	NE	0.07	4.3	-8.5	---	---	724.6	0.016	0.000	21.8	6	1
03/06/06	3:37 a	-4.8	-4.8	-4.9	---	---	4.3	NE	0.07	4.3	-8.4	---	---	724.6	0.016	0.000	21.8	6	1
03/06/06	3:38 a	-4.7	-4.7	-4.8	---	---	3.5	NE	0.06	4.3	-7.6	---	---	724.6	0.016	0.000	21.8	6	1
03/06/06	3:39 a	-4.7	-4.6	-4.7	---	---	3.5	NE	0.06	4.3	-7.6	---	---	724.5	0.016	0.000	21.8	6	1
03/06/06	3:40 a	-4.6	-4.5	-4.6	---	---	3.5	NE	0.06	4.3	-7.4	---	---	724.6	0.016	0.000	21.9	6	1
03/06/06	3:41 a	-4.5	-4.4	-4.5	---	---	4.3	NE	0.07	5.2	-8.0	---	---	724.5	0.016	0.000	21.9	6	1
03/06/06	3:42 a	-4.4	-4.4	-4.4	---	---	4.3	NE	0.07	5.2	-7.9	---	---	724.5	0.016	0.000	21.9	6	1
03/06/06	3:43 a	-4.4	-4.3	-4.4	---	---	5.2	NE	0.09	5.2	-8.4	---	---	724.5	0.016	0.000	21.9	6	1
03/06/06	3:44 a	-4.3	-4.3	-4.4	---	---	4.3	NE	0.07	5.2	-7.8	---	---	724.5	0.016	0.000	21.9	6	1
03/06/06	3:45 a	-4.3	-4.3	-4.4	---	---	3.5	NE	0.06	4.3	-7.2	---	---	724.6	0.016	0.000	21.9	6	1
03/06/06	3:46 a	-4.3	-4.3	-4.3	---	---	3.5	NE	0.06	3.5	-7.2	---	---	724.5	0.016	0.000	22.0	6	1
03/06/06	3:47 a	-4.2	-4.1	-4.2	---	---	3.5	NE	0.06	4.3	-7.0	---	---	724.5	0.016	0.000	22.0	6	1
03/06/06	3:48 a	-3.9	-3.7	-4.0	---	---	2.6	NE	0.04	3.5	-5.9	---	---	724.7	0.015	0.000	22.0	6	1
03/06/06	3:49 a	-3.7	-3.6	-3.7	---	---	3.5	NE	0.06	4.3	-6.4	---	---	724.7	0.015	0.000	22.1	6	1
03/06/06	3:50 a	-3.5	-3.4	-3.6	---	---	4.3	NE	0.07	4.3	-6.8	---	---	724.6	0.015	0.000	22.1	6	1
03/06/06	3:51 a	-3.5	-3.5	-3.6	---	---	4.3	NE	0.07	5.2	-6.8	---	---	724.7	0.015	0.000	22.1	6	1
03/06/06	3:52 a	-3.6	-3.6	-3.8	---	---	4.3	ENE	0.07	5.2	-7.0	---	---	724.7	0.015	0.000	22.1	6	1
03/06/06	3:53 a	-3.8	-3.8	-3.8	---	---	4.3	ENE	0.07	5.2	-7.2	---	---	724.6	0.015	0.000	22.1	6	1
03/06/06	3:54 a	-3.8	-3.8	-3.9	---	---	4.3	NE	0.07	5.2	-7.2	---	---	724.6	0.015	0.000	22.0	6	1
03/06/06	3:55 a	-3.9	-3.9	-3.9	---	---	3.5	NE	0.06	4.3	-6.7	---	---	724.6	0.015	0.000	22.0	6	1
03/06/06	3:56 a	-3.9	-3.9	-3.9	---	---	3.5	NE	0.06	4.3	-6.7	---	---	724.6	0.015	0.000	22.0	6	1
03/06/06	3:57 a	-3.9	-3.8	-4.0	---	---	2.6	NE	0.04	3.5	-5.9	---	---	724.6	0.015	0.000	22.0	6	1
03/06/06	3:58 a	-3.6	-3.4	-3.7	---	---	1.7	NE	0.03	2.6	-4.6	---	---	724.6	0.015	0.000	21.9	6	1
03/06/06	3:59 a	-3.3	-3.1	-3.3	---	---	2.6	NE	0.04	2.6	-5.2	---	---	724.7	0.015	0.000	21.9	6	1
03/06/06	4:00 a	-3.0	-2.9	-3.1	---	---	2.6	NE	0.04	3.5	-4.9	---	---	724.6	0.015	0.000	21.9	6	1
03/06/06	4:01 a	-2.9	-2.9	-2.9	---	---	2.6	NE	0.04	3.5	-4.8	---	---	724.6	0.015	0.000	21.9	6	1
03/06/06	4:02 a	-2.9	-2.9	-3.1	---	---	2.6	NE	0.04	3.5	-4.8	---	---	724.7	0.015	0.000	21.9	6	1
03/06/06	4:03 a	-3.2	-3.1	-3.4	---	---	2.6	NE	0.04	3.5	-5.1	---	---	724.6	0.015	0.000	21.9	6	1
03/06/06	4:04 a	-3.6	-3.5	-3.7	---	---	2.6	NE	0.04	3.5	-5.5	---	---	724.7	0.015	0.000	21.9	6	1
03/06/06	4:05 a	-3.7	-3.7	-3.8	---	---	1.7	NE	0.03	3.5	-4.7	---	---	724.6	0.015	0.000	21.9	6	1
03/06/06	4:06 a	-3.8	-3.8	-3.9	---	---	2.6	NE	0.04	3.5	-5.8	---	---	724.6	0.015	0.000	21.9	6	1
03/06/06	4:07 a	-3.9	-3.9	-3.9	---	---	1.7	NE	0.03	2.6	-4.8	---	---	724.6	0.015	0.000	21.9	6	1
03/06/06	4:08 a	-4.1	-4.0	-4.2	---	---	1.7	NE	0.03	2.6	-5.1	---	---	724.6	0.016	0.000	21.9	6	1
03/06/06	4:09 a	-4.3	-4.2	-4.4	---	---	2.6	NE	0.04	3.5	-6.3	---	---	724.7	0.016	0.000	21.9	6	1
03/06/06	4:10 a	-4.5	-4.4	-4.6	---	---	2.6	NE	0.04	3.5	-6.6	---	---	724.5	0.016	0.000	21.9	5	1
03/06/06	4:11 a	-4.6	-4.6	-4.6	---	---	2.6	NE	0.04	3.5	-6.7	---	---	724.5	0.016	0.000	21.8	5	1
03/06/06	4:12 a	-4.7	-4.7	-4.7	---	---	2.6	NE	0.04	4.3	-6.8	---	---	724.5	0.016	0.000	21.8	5	1
03/06/06	4:13 a	-4.8	-4.8	-4.8	---	---	2.6	NE	0.04	3.5	-6.9	---	---	724.5	0.016	0.000	21.8	5	1
03/06/06	4:14 a	-4.8	-4.8	-4.9	---	---	2.6	NE	0.04	3.5	-6.9	---	---	724.6	0.016	0.000	21.8	5	1
03/06/06	4:15 a	-4.9	-4.9	-5.0	---	---	2.6	NE	0.04	3.5	-7.1	---	---	724.5	0.016	0.000	21.8	6	1
03/06/06	4:16 a	-5.1	-5.1	-5.2	---	---	3.5	NNE	0.06	4.3	-8.1	---	---	724.5	0.016	0.000	21.8	5	1
03/06/06	4:17 a	-5.3	-5.3	-5.4	---	---	2.6	N	0.04	3.5	-7.5	---	---	724.5	0.016	0.000	21.8	5	1
03/06/06	4:18 a	-5.4	-5.4	-5.4	---	---	3.5	N	0.06	5.2	-8.4	---	---	724.5	0.016	0.000	21.8	5	1
03/06/06	4:19 a	-5.4	-5.3	-5.4	---	---	4.3	N	0.07	5.2	-9.1	---	---	724.5	0.016	0.000	21.8	5	1
03/06/06	4:20 a	-5.4	-5.4	-5.4	---	---	3.5	N	0.06	4.3	-8.4	---	---	724.5	0.017	0.000	21.8	5	1
03/06/06	4:21 a	-5.5	-5.4	-5.6	---	---	3.5	N	0.06	5.2	-8.6	---	---	724.5	0.017	0.000	21.8	5	1
03/06/06	4:22 a	-5.6	-5.6	-5.7	---	---	4.3	N	0.07	5.2	-9.3	---	---	724.6	0.017	0.000	21.8	5	1
03/06/06	4:23 a	-5.7	-5.7	-5.7	---	---	3.5	N	0.06	4.3	-8.7	---	---	724.5	0.017	0.000	21.8	5	1
03/06/06	4:24 a	-5.8	-5.7	-5.9	---	---	3.5	N	0.06	4.3	-8.9	---	---	724.5	0.017	0.000	21.8	5	1
03/06/06	4:25 a	-6.1	-6.0	-6.2	---	---	3.5	N	0.06	3.5	-9.2	---	---	724.5	0.017	0.000	21.8	5	1
03/06/06	4:26 a	-6.2	-6.2	-6.2	---	---	3.5	N	0.06	3.5	-9.4	---	---	724.6	0.017	0.000	21.8	5	1
03/06/06	4:27 a	-6.3	-6.3	-6.3	---	---	3.5	N	0.06	4.3	-9.4	---	---	724.5	0.017	0.000	21.8	5	1
03/06/06	4:28 a	-6.3	-6.3	-6.3	---	---	3.5	N	0.06	4.3	-9.4	---	---	724.4	0.017	0.000	21.8	5	1
03/06/06	4:29 a	-6.4	-6.3	-6.4	---	---	3.5	N	0.06	3.5	-9.6	---	---	724.5	0.017	0.000	21.8	5	1
03/06/06	4:30 a	-6.5	-6.4	-6.5	---	---	3.5	N	0.06	4.3	-9.7	---	---	724.5	0.017	0.000	21.8	5	1
03/06/06	4:31 a	-6.5	-6.5	-6.6	---	---	3.5	N	0.06	4.3	-9.7	---	---	724.5	0.017	0.000	21.8	5	1
03/06/06	4:32 a	-6.5	-6.4	-6.5	---	---	3.5	N	0.06	5.2	-9.7	---	---	724.5	0.017	0.000	21.8	5	1
03/06/06	4:33 a	-6.5	-6.5	-6.6	---	---	3.5	N	0.06	4.3	-9.7	---	---	724.5	0.017	0.000	21.8	5	1
03/06/06	4:34 a	-6.6	-6.6	-6.6	---	---	4.3	N	0.07	5.2	-10.4	---	---	724.5	0.017	0.000	21.8	5	1
03/06/06	4:35 a	-6.6	-6.6	-6.7	---	---	3.5	N	0.06	4.3	-9.8	---	---	724.4	0.017	0.000	21.8	5	1
03/06/06	4:36 a	-6.7	-6.7	-6.8	---	---	3.5	N	0.06	6.1	-9.9	---	---	724.5	0.017	0.000	21.8	5	1
03/06/06	4:37 a	-6.8	-6.7	-6.8	---	---	5.2	N	0.09	6.1	-11.3	---	---	724.5	0.017	0.000	21.8	5	1
03/06/06	4:38 a	-6.8	-6.8	-6.9	---	---	5.2	N	0.09	6.1	-11.3	---	---	724.4	0.017	0.000	21.8	5	1
03/06/06	4:39 a	-6.9	-6.9	-6.9	---	---	4.3	N	0.07	6.1	-10.8	---	---	724.4	0.018	0.000	21.8	5	1
03/06/06	4:40 a	-6.9	-6.9	-7.0	---	---	5.2	N	0.09	6.1	-11.5	---	---	724.4	0.018	0.000	21.8	5	1
03/06/06	4:41 a	-7.1	-7.1	-7.1	---	---	5.2	N	0.09	6.1	-11.6	---	---	724.5	0.018	0.000	21.8	5	1
03/06/06	4:42 a	-7.1	-7.0	-7.1	---	---	4.3	N	0.07	6.1	-11.0	---	---	724.4	0.018	0.000	21.8	5	1
03/06/06	4:43 a	-7.0	-7.0	-7.1	---	---	5.2	N	0.09	7.0	-11.6	---	---	724.4	0.018	0.000	21.9	5	1
03/06/06	4:44 a	-7.1	-7.1	-7.1	---	---	5.2	N	0.09	6.1	-11.6	---	---	724.5	0.018	0.000	21.9	5	1
03/06/06	4:45 a	-7.1	-7.1	-7.2	---	---	5.2	N	0.09	6.1	-11.7	---	---	724.5	0.018	0.000	21.9	5	1
03/06/06	4:46 a	-7.1	-7.1	-7.2	---	---	5.2	N	0.09	6.1	-11.7	---	---	724.5	0.018	0.000	21.9	5	1
03/06/06	4:47 a	-7.1	-7.0	-7.1	---	---	5.2	N	0.09	6.1	-11.6	---	---	724.5	0.018	0.000	21.9	5	1
03/06/06	4:48 a	-7.1	-7.1	-7.2	---	---	5.2	N	0.09	6.1	-11.7	---	---	724.5	0.018	0.000	21.9	5	1
03/06/06	4:49 a	-7.1	-7.1	-7.2	---	---	6.1	N	0.10	7.0	-12.1	---	---	724.5	0.018	0.000	21.9	5	1
03/06/06	4:50 a	-7.3	-7.2	-7.4	---	---	5.2	N	0.09	6.1	-11.9	---	---	724.5	0.018	0.000	21.9	5	1
03/06/06	4:51 a	-7.4	-7.4	-7.4	---	---	4.3	N	0.07	7.0	-11.5	---	---	724.4	0.018	0.000	21.9	5	1
03/06/06	4:52 a	-7.4	-7.4	-7.4	---	---	4.3	N	0.07	6.1	-11.4	---	---	724.5	0.018	0.000	21.9	5	1
03/06/06	4:53 a	-7.4	-7.4	-7.4	---	---	4.3	N	0.07	5.2	-11.5	---	---	724.5	0.018	0.000	21.9	5	1
03/06/06	4:54 a	-7.4	-7.4	-7.4	---	---	5.2	N	0.09	7.0	-12.0	---	---	724.5	0.018	0.000	21.9	5	1
03/06/06	4:55 a	-7.4	-7.4	-7.4	---	---	6.1	N	0.10	6.1	-12.6	---	---	724.5	0.018	0.000	21.9	5	1
03/06/06	4:56 a	-7.4	-7.4	-7.4	---	---	5.2	N	0.09	7.0	-12.0	---	---	724.6	0.018	0.000	21.9	5	1
03/06/06	4:57 a	-7.4	-7.4	-7.4	---	---	5.2	N	0.09	7.0	-12.0	---	---	724.5	0.018	0.000	21.9	5	1
03/06/06	4:58 a	-7.4	-7.4	-7.4	---	---	4.3	N	0.07	6.1	-11.4	---	---	724.5	0.018	0.000	21.9	5	1
03/06/06	4:59 a	-7.4	-7.4	-7.4	---	---	3.5	N	0.06	4.3	-10.7	---	---	724.5	0.018	0.000	21.9	5	1
03/06/06	5:00 a	-7.4	-7.3	-7.4	---	---	4.3	N	0.07	7.0	-11.4	---	---	724.5	0.018	0.000	21.9	5	1
03/06/06	5:01 a	-7.4	-7.4	-7.4	---	---	5.2	N	0.09	6.1	-12.1	---	---	724.6	0.018	0.000	21.9	5	1
03/06/06	5:02 a	-7.4	-7.4	-7.5	---	---	6.1	N	0.10	7.0	-12.6	---	---	724.5	0.018	0.000	21.9	5	1
03/06/06	5:03 a	-7.5	-7.5	-7.6	---	---	5.2	N	0.09	7.0	-12.1	---	---	724.4	0.018	0.000	21.9	5	1
03/06/06	5:04 a	-7.6	-7.6	-7.7	---	---	6.1	N	0.10	7.0	-12.8	---	---	724.5	0.018	0.000	22.0	5	1
03/06/06	5:05 a	-7.8	-7.7	-7.8	---	---	6.1	N	0.10	7.0	-13.0	---	---	724.5	0.018	0.000	22.0	5	1
03/06/06	5:06 a	-7.9	-7.9	-7.9	---	---	6.1	N	0.10	7.0	-13.2	---	---	724.5	0.018	0.000	22.0	5	1
03/06/06	5:07 a	-8.0	-7.9	-8.0	---	---	7.0	N	0.12	7.8	-13.7	---	---	724.5	0.018	0.000	22.0	5	1
03/06/06	5:08 a	-8.1	-8.1	-8.1	---	---	7.0	N	0.12	7.8	-13.8	---	---	724.5	0.018	0.000	22.0	5	1
03/06/06	5:09 a	-8.1	-8.1	-8.1	---	---	5.2	N	0.09	7.0	-12.9	---	---	724.6	0.018	0.000	22.0	5	1
03/06/06	5:10 a	-8.1	-8.1	-8.2	---	---	7.0	N	0.12	7.8	-13.8	---	---	724.4	0.018	0.000	22.0	5	1
03/06/06	5:11 a	-8.2	-8.2	-8.2	---	---	6.1	N	0.10	7.0	-13.4	---	---	724.5	0.018	0.000	21.9	5	1
03/06/06	5:12 a	-8.2	-8.1	-8.2	---	---	6.1	N	0.10	7.0	-13.4	---	---	724.5	0.018	0.000	21.9	5	1
03/06/06	5:13 a	-8.1	-8.1	-8.1	---	---	5.2	N	0.09	6.1	-12.9	---	---	724.5	0.018	0.000	21.9	5	1
03/06/06	5:14 a	-8.1	-8.1	-8.1	---	---	6.1	N	0.10	7.0	-13.3	---	---	724.5	0.018	0.000	21.9	5	1
03/06/06	5:15 a	-8.2	-8.2	-8.3	---	---	6.1	N	0.10	7.8	-13.5	---	---	724.5	0.018	0.000	21.9	5	1
03/06/06	5:16 a	-8.2	-8.2	-8.3	---	---	6.1	N	0.10	7.8	-13.5	---	---	724.5	0.018	0.000	21.9	5	1
03/06/06	5:17 a	-8.3	-8.2	-8.3	---	---	7.0	N	0.12	8.7	-14.1	---	---	724.5	0.018	0.000	21.9	5	1
03/06/06	5:18 a	-8.3	-8.3	-8.4	---	---	7.0	N	0.12	7.8	-14.1	---	---	724.4	0.019	0.000	21.9	5	1
03/06/06	5:19 a	-8.4	-8.4	-8.5	---	---	7.0	N	0.12	7.8	-14.3	---	---	724.4	0.019	0.000	21.9	5	1
03/06/06	5:20 a	-8.4	-8.4	-8.5	---	---	6.1	N	0.10	7.0	-13.8	---	---	724.4	0.019	0.000	21.9	5	1
03/06/06	5:21 a	-8.4	-8.3	-8.4	---	---	5.2	N	0.09	7.0	-13.2	---	---	724.4	0.019	0.000	21.9	5	1
03/06/06	5:22 a	-8.3	-8.2	-8.3	---	---	6.1	N	0.10	7.8	-13.6	---	---	724.5	0.018	0.000	21.9	5	1
03/06/06	5:23 a	-8.3	-8.3	-8.4	---	---	6.1	N	0.10	7.0	-13.7	---	---	724.4	0.019	0.000	21.9	5	1
03/06/06	5:24 a	-8.3	-8.3	-8.4	---	---	6.1	N	0.10	7.8	-13.7	---	---	724.5	0.019	0.000	21.9	5	1
03/06/06	5:25 a	-8.4	-8.3	-8.4	---	---	6.1	N	0.10	7.8	-13.7	---	---	724.5	0.019	0.000	21.8	4	1
03/06/06	5:26 a	-8.4	-8.4	-8.4	---	---	7.0	N	0.12	7.8	-14.2	---	---	724.4	0.019	0.000	21.8	5	1
03/06/06	5:27 a	-8.3	-8.3	-8.3	---	---	6.1	N	0.10	7.8	-13.7	---	---	724.4	0.019	0.000	21.8	5	1
03/06/06	5:28 a	-8.3	-8.3	-8.3	---	---	7.0	N	0.12	7.8	-14.1	---	---	724.5	0.019	0.000	21.8	5	1
03/06/06	5:29 a	-8.3	-8.3	-8.4	---	---	7.0	N	0.12	7.8	-14.1	---	---	724.4	0.019	0.000	21.8	5	1
03/06/06	5:30 a	-8.3	-8.3	-8.3	---	---	6.1	N	0.10	7.0	-13.6	---	---	724.4	0.018	0.000	21.8	5	1
03/06/06	5:31 a	-8.3	-8.3	-8.4	---	---	6.1	N	0.10	7.0	-13.7	---	---	724.4	0.019	0.000	21.8	5	1
03/06/06	5:32 a	-8.4	-8.3	-8.4	---	---	5.2	N	0.09	6.1	-13.2	---	---	724.4	0.019	0.000	21.8	5	1
03/06/06	5:33 a	-8.2	-8.2	-8.3	---	---	5.2	N	0.09	7.0	-13.0	---	---	724.5	0.018	0.000	21.8	4	1
03/06/06	5:34 a	-8.2	-8.2	-8.2	---	---	6.1	N	0.10	7.8	-13.5	---	---	724.5	0.018	0.000	21.8	5	1
03/06/06	5:35 a	-8.3	-8.3	-8.4	---	---	6.1	N	0.10	7.0	-13.6	---	---	724.5	0.018	0.000	21.7	5	1
03/06/06	5:36 a	-8.4	-8.4	-8.6	---	---	4.3	N	0.07	7.0	-12.7	---	---	724.4	0.019	0.000	21.8	5	1
03/06/06	5:37 a	-8.6	-8.6	-8.6	---	---	4.3	N	0.07	6.1	-12.8	---	---	724.4	0.019	0.000	21.7	5	1
03/06/06	5:38 a	-8.6	-8.6	-8.7	---	---	5.2	N	0.09	7.0	-13.4	---	---	724.4	0.019	0.000	21.7	5	1
03/06/06	5:39 a	-8.6	-8.6	-8.6	---	---	5.2	N	0.09	6.1	-13.4	---	---	724.4	0.019	0.000	21.7	4	1
03/06/06	5:40 a	-8.6	-8.6	-8.7	---	---	4.3	N	0.07	7.0	-12.8	---	---	724.5	0.019	0.000	21.7	5	1
03/06/06	5:41 a	-8.6	-8.6	-8.6	---	---	4.3	N	0.07	6.1	-12.8	---	---	724.5	0.019	0.000	21.7	4	1
03/06/06	5:42 a	-8.5	-8.4	-8.6	---	---	3.5	N	0.06	5.2	-12.0	---	---	724.4	0.019	0.000	21.7	4	1
03/06/06	5:43 a	-8.4	-8.4	-8.5	---	---	5.2	N	0.09	7.0	-13.3	---	---	724.4	0.019	0.000	21.7	5	1
03/06/06	5:44 a	-8.6	-8.6	-8.6	---	---	6.1	N	0.10	7.0	-13.9	---	---	724.4	0.019	0.000	21.7	4	1
03/06/06	5:45 a	-8.7	-8.6	-8.7	---	---	6.1	N	0.10	7.8	-14.1	---	---	724.4	0.019	0.000	21.7	5	1
03/06/06	5:46 a	-8.6	-8.5	-8.6	---	---	6.1	N	0.10	7.0	-13.9	---	---	724.4	0.019	0.000	21.7	5	1
03/06/06	5:47 a	-8.4	-8.4	-8.4	---	---	4.3	N	0.07	6.1	-12.6	---	---	724.4	0.019	0.000	21.7	4	1
03/06/06	5:48 a	-8.4	-8.3	-8.4	---	---	5.2	N	0.09	7.0	-13.2	---	---	724.4	0.019	0.000	21.7	5	1
03/06/06	5:49 a	-8.4	-8.4	-8.4	---	---	5.2	N	0.09	7.0	-13.3	---	---	724.3	0.019	0.000	21.7	5	1
03/06/06	5:50 a	-8.4	-8.4	-8.4	---	---	3.5	N	0.06	4.3	-11.9	---	---	724.4	0.019	0.000	21.7	5	1
03/06/06	5:51 a	-8.3	-8.3	-8.4	---	---	4.3	N	0.07	6.1	-12.5	---	---	724.4	0.019	0.000	21.7	4	1
03/06/06	5:52 a	-8.3	-8.2	-8.3	---	---	3.5	N	0.06	4.3	-11.7	---	---	724.4	0.018	0.000	21.7	4	1
03/06/06	5:53 a	-8.3	-8.3	-8.4	---	---	4.3	N	0.07	6.1	-12.5	---	---	724.5	0.019	0.000	21.8	5	1
03/06/06	5:54 a	-8.4	-8.3	-8.4	---	---	4.3	N	0.07	6.1	-12.6	---	---	724.5	0.019	0.000	21.8	5	1
03/06/06	5:55 a	-8.4	-8.3	-8.4	---	---	4.3	N	0.07	6.1	-12.6	---	---	724.4	0.019	0.000	21.8	4	1
03/06/06	5:56 a	-8.3	-8.3	-8.4	---	---	4.3	N	0.07	6.1	-12.5	---	---	724.4	0.019	0.000	21.8	4	1
03/06/06	5:57 a	-8.4	-8.3	-8.4	---	---	5.2	N	0.09	7.0	-13.2	---	---	724.4	0.019	0.000	21.8	4	1
03/06/06	5:58 a	-8.4	-8.4	-8.5	---	---	5.2	N	0.09	6.1	-13.3	---	---	724.4	0.019	0.000	21.8	4	1
03/06/06	5:59 a	-8.4	-8.4	-8.4	---	---	6.1	N	0.10	7.0	-13.7	---	---	724.4	0.019	0.000	21.9	4	1
03/06/06	6:00 a	-8.4	-8.4	-8.4	---	---	5.2	N	0.09	7.0	-13.3	---	---	724.4	0.019	0.000	21.9	4	1
03/06/06	6:01 a	-8.6	-8.5	-8.6	---	---	6.1	N	0.10	7.0	-13.9	---	---	724.4	0.019	0.000	21.9	4	1
03/06/06	6:02 a	-8.7	-8.6	-8.7	---	---	6.1	N	0.10	7.0	-14.1	---	---	724.4	0.019	0.000	21.9	5	1
03/06/06	6:03 a	-8.5	-8.5	-8.6	---	---	6.1	N	0.10	7.0	-13.8	---	---	724.3	0.019	0.000	22.0	5	1
03/06/06	6:04 a	-8.4	-8.4	-8.5	---	---	6.1	N	0.10	7.0	-13.8	---	---	724.4	0.019	0.000	22.1	5	1
03/06/06	6:05 a	-8.4	-8.3	-8.4	---	---	6.1	N	0.10	7.0	-13.7	---	---	724.4	0.019	0.000	22.1	5	1
03/06/06	6:06 a	-8.3	-8.3	-8.3	---	---	6.1	N	0.10	7.0	-13.6	---	---	724.4	0.018	0.000	22.1	5	1
03/06/06	6:07 a	-8.3	-8.3	-8.4	---	---	6.1	N	0.10	7.0	-13.7	---	---	724.3	0.019	0.000	22.1	5	1
03/06/06	6:08 a	-8.3	-8.3	-8.4	---	---	5.2	N	0.09	6.1	-13.1	---	---	724.4	0.019	0.000	22.2	5	1
03/06/06	6:09 a	-8.4	-8.4	-8.4	---	---	5.2	N	0.09	6.1	-13.2	---	---	724.4	0.019	0.000	22.2	5	1
03/06/06	6:10 a	-8.4	-8.3	-8.4	---	---	6.1	N	0.10	7.8	-13.7	---	---	724.3	0.019	0.000	22.2	5	1
03/06/06	6:11 a	-8.4	-8.4	-8.4	---	---	6.1	N	0.10	6.1	-13.7	---	---	724.3	0.019	0.000	22.3	5	1
03/06/06	6:12 a	-8.4	-8.3	-8.4	---	---	5.2	N	0.09	7.0	-13.2	---	---	724.4	0.019	0.000	22.3	5	1
03/06/06	6:13 a	-8.4	-8.4	-8.5	---	---	6.1	N	0.10	7.0	-13.8	---	---	724.4	0.019	0.000	22.3	5	1
03/06/06	6:14 a	-8.6	-8.5	-8.6	---	---	6.1	N	0.10	7.8	-13.9	---	---	724.3	0.019	0.000	22.3	4	1
03/06/06	6:15 a	-8.6	-8.6	-8.7	---	---	6.1	N	0.10	7.0	-14.0	---	---	724.3	0.019	0.000	22.3	4	1
03/06/06	6:16 a	-8.7	-8.6	-8.7	---	---	7.0	N	0.12	7.8	-14.6	---	---	724.3	0.019	0.000	22.3	4	1
03/06/06	6:17 a	-8.7	-8.7	-8.8	---	---	7.0	N	0.12	7.8	-14.6	---	---	724.3	0.019	0.000	22.4	4	1
03/06/06	6:18 a	-8.8	-8.7	-8.8	---	---	5.2	N	0.09	7.0	-13.7	---	---	724.3	0.019	0.000	22.4	5	1
03/06/06	6:19 a	-8.7	-8.6	-8.7	---	---	6.1	N	0.10	7.8	-14.1	---	---	724.3	0.019	0.000	22.4	4	1
03/06/06	6:20 a	-8.7	-8.6	-8.7	---	---	7.0	N	0.12	7.8	-14.6	---	---	724.4	0.019	0.000	22.4	4	1
03/06/06	6:21 a	-8.7	-8.7	-8.8	---	---	7.0	N	0.12	7.0	-14.6	---	---	724.4	0.019	0.000	22.4	4	1
03/06/06	6:22 a	-8.8	-8.7	-8.8	---	---	5.2	N	0.09	7.0	-13.7	---	---	724.4	0.019	0.000	22.4	4	1
03/06/06	6:23 a	-8.7	-8.7	-8.7	---	---	5.2	N	0.09	7.0	-13.5	---	---	724.3	0.019	0.000	22.4	4	1
03/06/06	6:24 a	-8.7	-8.6	-8.7	---	---	6.1	N	0.10	7.0	-14.1	---	---	724.4	0.019	0.000	22.4	4	1
03/06/06	6:25 a	-8.7	-8.7	-8.7	---	---	6.1	N	0.10	7.0	-14.1	---	---	724.3	0.019	0.000	22.5	4	1
03/06/06	6:26 a	-8.6	-8.6	-8.7	---	---	6.1	N	0.10	7.0	-14.0	---	---	724.3	0.019	0.000	22.5	4	1
03/06/06	6:27 a	-8.5	-8.4	-8.5	---	---	5.2	N	0.09	6.1	-13.3	---	---	724.3	0.019	0.000	22.5	4	1
03/06/06	6:28 a	-8.4	-8.4	-8.5	---	---	6.1	N	0.10	7.0	-13.8	---	---	724.4	0.019	0.000	22.5	4	1
03/06/06	6:29 a	-8.5	-8.4	-8.6	---	---	6.1	N	0.10	7.0	-13.8	---	---	724.4	0.019	0.000	22.5	4	1
03/06/06	6:30 a	-8.5	-8.5	-8.6	---	---	5.2	N	0.09	7.0	-13.3	---	---	724.4	0.019	0.000	22.6	4	1
03/06/06	6:31 a	-8.6	-8.5	-8.6	---	---	6.1	N	0.10	7.0	-13.9	---	---	724.3	0.019	0.000	22.6	4	1
03/06/06	6:32 a	-8.6	-8.5	-8.6	---	---	5.2	N	0.09	6.1	-13.4	---	---	724.3	0.019	0.000	22.6	4	1
03/06/06	6:33 a	-8.5	-8.5	-8.5	---	---	6.1	N	0.10	7.0	-13.8	---	---	724.3	0.019	0.000	22.6	4	1
03/06/06	6:34 a	-8.5	-8.5	-8.5	---	---	6.1	N	0.10	7.0	-13.8	---	---	724.3	0.019	0.000	22.7	4	1
03/06/06	6:35 a	-8.4	-8.4	-8.4	---	---	4.3	N	0.07	6.1	-12.7	---	---	724.3	0.019	0.000	22.7	4	1
03/06/06	6:36 a	-8.4	-8.4	-8.4	---	---	4.3	N	0.07	5.2	-12.7	---	---	724.3	0.019	0.000	22.7	4	1
03/06/06	6:37 a	-8.3	-8.2	-8.4	---	---	4.3	N	0.07	5.2	-12.5	---	---	724.3	0.019	0.000	22.7	4	1
03/06/06	6:38 a	-8.2	-8.2	-8.2	---	---	5.2	N	0.09	6.1	-13.0	---	---	724.3	0.018	0.000	22.8	4	1
03/06/06	6:39 a	-8.3	-8.2	-8.3	---	---	5.2	N	0.09	6.1	-13.1	---	---	724.2	0.018	0.000	22.8	4	1
03/06/06	6:40 a	-8.3	-8.3	-8.3	---	---	5.2	N	0.09	6.1	-13.1	---	---	724.3	0.018	0.000	22.9	4	1
03/06/06	6:41 a	-8.3	-8.2	-8.3	---	---	5.2	N	0.09	6.1	-13.1	---	---	724.3	0.018	0.000	22.9	4	1
03/06/06	6:42 a	-8.2	-8.2	-8.2	---	---	5.2	N	0.09	6.1	-13.0	---	---	724.3	0.018	0.000	23.0	4	1
03/06/06	6:43 a	-8.2	-8.2	-8.2	---	---	4.3	N	0.07	7.0	-12.3	---	---	724.4	0.018	0.000	23.1	4	1
03/06/06	6:44 a	-8.3	-8.3	-8.4	---	---	3.5	N	0.06	5.2	-11.8	---	---	724.3	0.019	0.000	23.1	4	1
03/06/06	6:45 a	-8.4	-8.4	-8.4	---	---	3.5	N	0.06	6.1	-11.9	---	---	724.3	0.019	0.000	23.2	4	1
03/06/06	6:46 a	-8.4	-8.4	-8.5	---	---	4.3	N	0.07	5.2	-12.7	---	---	724.3	0.019	0.000	23.2	4	1
03/06/06	6:47 a	-8.5	-8.5	-8.5	---	---	5.2	N	0.09	6.1	-13.3	---	---	724.2	0.019	0.000	23.3	4	1
03/06/06	6:48 a	-8.5	-8.5	-8.5	---	---	5.2	N	0.09	6.1	-13.3	---	---	724.2	0.019	0.000	23.3	4	1
03/06/06	6:49 a	-8.5	-8.4	-8.6	---	---	5.2	N	0.09	6.1	-13.3	---	---	724.3	0.019	0.000	23.4	4	1
03/06/06	6:50 a	-8.6	-8.6	-8.6	---	---	5.2	N	0.09	6.1	-13.4	---	---	724.3	0.019	0.000	23.4	4	1
03/06/06	6:51 a	-8.6	-8.6	-8.6	---	---	5.2	N	0.09	6.1	-13.4	---	---	724.3	0.019	0.000	23.5	4	1
03/06/06	6:52 a	-8.6	-8.6	-8.6	---	---	5.2	N	0.09	6.1	-13.4	---	---	724.3	0.019	0.000	23.5	4	1
03/06/06	6:53 a	-8.6	-8.6	-8.6	---	---	4.3	N	0.07	6.1	-12.8	---	---	724.3	0.019	0.000	23.5	4	1
03/06/06	6:54 a	-8.5	-8.5	-8.6	---	---	5.2	N	0.09	6.1	-13.3	---	---	724.3	0.019	0.000	23.4	4	1
03/06/06	6:55 a	-8.5	-8.5	-8.6	---	---	6.1	N	0.10	7.0	-13.8	---	---	724.2	0.019	0.000	23.4	4	1
03/06/06	6:56 a	-8.6	-8.6	-8.6	---	---	5.2	N	0.09	7.0	-13.4	---	---	724.3	0.019	0.000	23.3	4	1
03/06/06	6:57 a	-8.6	-8.6	-8.6	---	---	5.2	N	0.09	7.0	-13.4	---	---	724.3	0.019	0.000	23.2	4	1
03/06/06	6:58 a	-8.5	-8.5	-8.6	---	---	5.2	N	0.09	7.0	-13.3	---	---	724.3	0.019	0.000	23.1	4	1
03/06/06	6:59 a	-8.5	-8.5	-8.5	---	---	5.2	N	0.09	6.1	-13.3	---	---	724.3	0.019	0.000	23.1	4	1
03/06/06	7:00 a	-8.5	-8.5	-8.6	---	---	5.2	N	0.09	6.1	-13.3	---	---	724.3	0.019	0.000	23.0	4	1
03/06/06	7:01 a	-8.5	-8.5	-8.5	---	---	3.5	N	0.06	5.2	-12.0	---	---	724.3	0.019	0.000	22.9	4	1
03/06/06	7:02 a	-8.4	-8.4	-8.5	---	---	2.6	N	0.04	4.3	-11.1	---	---	724.2	0.019	0.000	22.9	4	1
03/06/06	7:03 a	-8.5	-8.5	-8.6	---	---	2.6	N	0.04	4.3	-11.1	---	---	724.3	0.019	0.000	22.8	4	1
03/06/06	7:04 a	-8.6	-8.6	-8.7	---	---	4.3	N	0.07	5.2	-12.8	---	---	724.3	0.019	0.000	22.8	4	1
03/06/06	7:05 a	-8.7	-8.7	-8.7	---	---	4.3	N	0.07	6.1	-12.9	---	---	724.3	0.019	0.000	22.8	4	1
03/06/06	7:06 a	-8.7	-8.7	-8.7	---	---	4.3	N	0.07	6.1	-12.9	---	---	724.3	0.019	0.000	22.8	4	1
03/06/06	7:07 a	-8.7	-8.7	-8.7	---	---	6.1	N	0.10	7.0	-14.1	---	---	724.3	0.019	0.000	22.7	4	1
03/06/06	7:08 a	-8.8	-8.8	-8.8	---	---	6.1	N	0.10	7.0	-14.2	---	---	724.3	0.019	0.000	22.7	4	1
03/06/06	7:09 a	-8.8	-8.8	-8.9	---	---	6.1	N	0.10	7.0	-14.3	---	---	724.3	0.019	0.000	22.7	4	1
03/06/06	7:10 a	-8.9	-8.9	-8.9	---	---	6.1	N	0.10	7.0	-14.4	---	---	724.3	0.019	0.000	22.6	4	1
03/06/06	7:11 a	-8.9	-8.9	-9.0	---	---	6.1	N	0.10	7.0	-14.4	---	---	724.3	0.019	0.000	22.6	4	1
03/06/06	7:12 a	-8.9	-8.9	-8.9	---	---	6.1	N	0.10	7.0	-14.4	---	---	724.3	0.019	0.000	22.6	4	1
03/06/06	7:13 a	-8.9	-8.9	-8.9	---	---	6.1	N	0.10	7.0	-14.4	---	---	724.3	0.019	0.000	22.6	4	1
03/06/06	7:14 a	-8.9	-8.9	-9.0	---	---	5.2	N	0.09	6.1	-13.8	---	---	724.4	0.019	0.000	22.5	4	1
03/06/06	7:15 a	-9.0	-8.9	-9.1	---	---	5.2	N	0.09	6.1	-13.9	---	---	724.3	0.019	0.000	22.4	4	1
03/06/06	7:16 a	-9.1	-9.0	-9.1	---	---	6.1	N	0.10	7.0	-14.5	---	---	724.4	0.019	0.000	22.4	4	1
03/06/06	7:17 a	-9.0	-8.9	-9.0	---	---	6.1	N	0.10	7.0	-14.4	---	---	724.3	0.019	0.000	22.4	4	1
03/06/06	7:18 a	-8.9	-8.9	-8.9	---	---	6.1	N	0.10	6.1	-14.3	---	---	724.3	0.019	0.000	22.4	4	1
03/06/06	7:19 a	-8.8	-8.8	-8.9	---	---	5.2	N	0.09	6.1	-13.7	---	---	724.3	0.019	0.000	22.3	4	1
03/06/06	7:20 a	-8.8	-8.8	-8.8	---	---	5.2	N	0.09	6.1	-13.7	---	---	724.3	0.019	0.000	22.3	4	1
03/06/06	7:21 a	-8.8	-8.8	-8.9	---	---	5.2	N	0.09	6.1	-13.7	---	---	724.3	0.019	0.000	22.2	4	1
03/06/06	7:22 a	-8.9	-8.9	-9.1	---	---	5.2	N	0.09	6.1	-13.8	---	---	724.3	0.019	0.000	22.2	4	1
03/06/06	7:23 a	-9.1	-9.0	-9.1	---	---	4.3	N	0.07	5.2	-13.4	---	---	724.3	0.019	0.000	22.2	4	1
03/06/06	7:24 a	-9.0	-9.0	-9.0	---	---	5.2	N	0.09	6.1	-13.9	---	---	724.3	0.019	0.000	22.2	4	1
03/06/06	7:25 a	-9.0	-9.0	-9.0	---	---	5.2	N	0.09	6.1	-13.9	---	---	724.2	0.019	0.000	22.1	4	1
03/06/06	7:26 a	-9.1	-9.0	-9.1	---	---	5.2	N	0.09	5.2	-14.0	---	---	724.3	0.019	0.000	22.1	4	1
03/06/06	7:27 a	-9.1	-9.1	-9.1	---	---	4.3	N	0.07	6.1	-13.4	---	---	724.3	0.019	0.000	22.1	4	1
03/06/06	7:28 a	-9.0	-9.0	-9.1	---	---	5.2	N	0.09	6.1	-13.9	---	---	724.3	0.019	0.000	22.0	4	1
03/06/06	7:29 a	-9.1	-9.1	-9.1	---	---	5.2	N	0.09	6.1	-14.0	---	---	724.3	0.019	0.000	22.0	4	1
03/06/06	7:30 a	-9.1	-9.1	-9.1	---	---	4.3	N	0.07	6.1	-13.4	---	---	724.3	0.019	0.000	21.9	4	1
03/06/06	7:31 a	-9.1	-9.1	-9.1	---	---	4.3	N	0.07	6.1	-13.4	---	---	724.3	0.019	0.000	21.9	4	1
03/06/06	7:32 a	-9.1	-9.1	-9.1	---	---	5.2	N	0.09	6.1	-14.1	---	---	724.3	0.019	0.000	21.9	4	1
03/06/06	7:33 a	-9.1	-9.1	-9.1	---	---	5.2	N	0.09	6.1	-14.1	---	---	724.3	0.019	0.000	21.9	4	1
03/06/06	7:34 a	-9.1	-9.1	-9.1	---	---	5.2	N	0.09	5.2	-14.0	---	---	724.3	0.019	0.000	21.8	4	1
03/06/06	7:35 a	-9.1	-9.1	-9.1	---	---	5.2	N	0.09	6.1	-14.0	---	---	724.3	0.019	0.000	21.8	4	1
03/06/06	7:36 a	-9.1	-9.1	-9.1	---	---	4.3	N	0.07	5.2	-13.4	---	---	724.3	0.019	0.000	21.8	4	1
03/06/06	7:37 a	-9.1	-9.1	-9.1	---	---	5.2	N	0.09	6.1	-14.0	---	---	724.3	0.019	0.000	21.8	4	1
03/06/06	7:38 a	-9.1	-9.1	-9.1	---	---	5.2	N	0.09	5.2	-14.0	---	---	724.3	0.019	0.000	21.8	4	1
03/06/06	7:39 a	-9.1	-9.1	-9.1	---	---	5.2	N	0.09	6.1	-14.0	---	---	724.2	0.019	0.000	21.8	4	1
03/06/06	7:40 a	-9.1	-9.1	-9.1	---	---	4.3	N	0.07	5.2	-13.4	---	---	724.3	0.019	0.000	21.7	4	1
03/06/06	7:41 a	-9.1	-9.1	-9.2	---	---	5.2	N	0.09	6.1	-14.1	---	---	724.3	0.019	0.000	21.7	4	1
03/06/06	7:42 a	-9.1	-9.1	-9.2	---	---	4.3	N	0.07	5.2	-13.4	---	---	724.3	0.019	0.000	21.7	4	1
03/06/06	7:43 a	-9.1	-9.1	-9.1	---	---	5.2	N	0.09	5.2	-14.1	---	---	724.3	0.019	0.000	21.7	4	1
03/06/06	7:44 a	-9.1	-9.1	-9.2	---	---	5.2	N	0.09	5.2	-14.1	---	---	724.3	0.019	0.000	21.7	4	1
03/06/06	7:45 a	-9.2	-9.2	-9.2	---	---	4.3	N	0.07	5.2	-13.5	---	---	724.3	0.019	0.000	21.7	4	1
03/06/06	7:46 a	-9.1	-9.1	-9.2	---	---	4.3	N	0.07	5.2	-13.4	---	---	724.3	0.019	0.000	21.6	4	1
03/06/06	7:47 a	-9.1	-9.1	-9.2	---	---	3.5	N	0.06	4.3	-12.7	---	---	724.2	0.019	0.000	21.6	4	1
03/06/06	7:48 a	-9.1	-9.1	-9.2	---	---	3.5	N	0.06	4.3	-12.7	---	---	724.3	0.019	0.000	21.6	4	1
03/06/06	7:49 a	-9.2	-9.2	-9.2	---	---	4.3	N	0.07	4.3	-13.5	---	---	724.3	0.019	0.000	21.6	4	1
03/06/06	7:50 a	-9.2	-9.2	-9.2	---	---	3.5	N	0.06	4.3	-12.8	---	---	724.4	0.019	0.000	21.6	4	1
03/06/06	7:51 a	-9.2	-9.2	-9.2	---	---	3.5	N	0.06	4.3	-12.8	---	---	724.3	0.019	0.000	21.6	4	1
03/06/06	7:52 a	-9.2	-9.2	-9.2	---	---	4.3	N	0.07	5.2	-13.5	---	---	724.4	0.019	0.000	21.6	4	1
03/06/06	7:53 a	-9.2	-9.2	-9.2	---	---	4.3	N	0.07	5.2	-13.5	---	---	724.3	0.019	0.000	21.6	4	1
03/06/06	7:54 a	-9.1	-9.1	-9.1	---	---	4.3	N	0.07	4.3	-13.4	---	---	724.2	0.019	0.000	21.5	4	1
03/06/06	7:55 a	-9.2	-9.2	-9.2	---	---	3.5	N	0.06	4.3	-12.8	---	---	724.2	0.019	0.000	21.5	4	1
03/06/06	7:56 a	-9.2	-9.2	-9.2	---	---	3.5	N	0.06	4.3	-12.8	---	---	724.2	0.019	0.000	21.5	4	1
03/06/06	7:57 a	-9.2	-9.2	-9.2	---	---	4.3	N	0.07	4.3	-13.5	---	---	724.2	0.019	0.000	21.5	4	1
03/06/06	7:58 a	-9.2	-9.2	-9.2	---	---	4.3	N	0.07	5.2	-13.5	---	---	724.1	0.019	0.000	21.4	4	1
03/06/06	7:59 a	-9.2	-9.2	-9.2	---	---	3.5	N	0.06	5.2	-12.8	---	---	724.3	0.019	0.000	21.4	4	1
03/06/06	8:00 a	-9.2	-9.2	-9.2	---	---	3.5	N	0.06	4.3	-12.8	---	---	724.3	0.019	0.000	21.4	4	1
03/06/06	8:01 a	-9.2	-9.2	-9.2	---	---	2.6	N	0.04	3.5	-11.8	---	---	724.2	0.019	0.000	21.4	4	1
03/06/06	8:02 a	-9.2	-9.2	-9.2	---	---	2.6	N	0.04	3.5	-11.8	---	---	724.2	0.019	0.000	21.4	4	1
03/06/06	8:03 a	-9.2	-9.2	-9.2	---	---	3.5	N	0.06	4.3	-12.8	---	---	724.2	0.019	0.000	21.4	4	1
03/06/06	8:04 a	-9.2	-9.2	-9.2	---	---	2.6	N	0.04	3.5	-11.9	---	---	724.3	0.019	0.000	21.4	4	1
03/06/06	8:05 a	-9.2	-9.2	-9.2	---	---	2.6	N	0.04	3.5	-11.9	---	---	724.2	0.019	0.000	21.4	4	1
03/06/06	8:06 a	-9.2	-9.2	-9.3	---	---	2.6	N	0.04	3.5	-11.9	---	---	724.3	0.019	0.000	21.4	4	1
03/06/06	8:07 a	-9.2	-9.2	-9.3	---	---	2.6	N	0.04	3.5	-11.9	---	---	724.3	0.019	0.000	21.3	4	1
03/06/06	8:08 a	-9.3	-9.2	-9.3	---	---	2.6	N	0.04	3.5	-12.0	---	---	724.3	0.019	0.000	21.3	5	1
03/06/06	8:09 a	-9.3	-9.3	-9.3	---	---	2.6	N	0.04	2.6	-12.0	---	---	724.2	0.019	0.000	21.3	5	1
03/06/06	8:10 a	-9.3	-9.3	-9.3	---	---	1.7	N	0.03	2.6	-10.8	---	---	724.2	0.019	0.000	21.3	4	1
03/06/06	8:11 a	-9.3	-9.3	-9.3	---	---	2.6	N	0.04	2.6	-12.0	---	---	724.3	0.019	0.000	21.3	4	1
03/06/06	8:12 a	-9.3	-9.3	-9.3	---	---	2.6	N	0.04	2.6	-12.1	---	---	724.3	0.019	0.000	21.3	4	1
03/06/06	8:13 a	-9.4	-9.3	-9.4	---	---	2.6	N	0.04	3.5	-12.1	---	---	724.2	0.019	0.000	21.3	4	1
03/06/06	8:14 a	-9.4	-9.4	-9.5	---	---	2.6	N	0.04	3.5	-12.2	---	---	724.2	0.019	0.000	21.3	4	1
03/06/06	8:15 a	-9.6	-9.6	-9.6	---	---	3.5	N	0.06	4.3	-13.2	---	---	724.3	0.019	0.000	21.3	4	1
03/06/06	8:16 a	-9.6	-9.6	-9.7	---	---	4.3	N	0.07	4.3	-14.0	---	---	724.3	0.019	0.000	21.3	4	1
03/06/06	8:17 a	-9.7	-9.7	-9.8	---	---	4.3	N	0.07	4.3	-14.2	---	---	724.2	0.019	0.000	21.3	4	1
03/06/06	8:18 a	-9.8	-9.8	-9.9	---	---	4.3	N	0.07	5.2	-14.3	---	---	724.2	0.020	0.000	21.3	5	1
03/06/06	8:19 a	-9.9	-9.9	-9.9	---	---	4.3	N	0.07	4.3	-14.3	---	---	724.2	0.020	0.000	21.2	4	1
03/06/06	8:20 a	-10.0	-9.9	-10.1	---	---	4.3	N	0.07	5.2	-14.5	---	---	724.3	0.020	0.000	21.2	5	1
03/06/06	8:21 a	-10.1	-10.1	-10.1	---	---	4.3	N	0.07	5.2	-14.6	---	---	724.2	0.020	0.000	21.2	5	1
03/06/06	8:22 a	-10.1	-10.1	-10.1	---	---	4.3	N	0.07	5.2	-14.6	---	---	724.1	0.020	0.000	21.2	5	1
03/06/06	8:23 a	-10.1	-10.1	-10.1	---	---	3.5	N	0.06	4.3	-13.8	---	---	724.1	0.020	0.000	21.2	5	1
03/06/06	8:24 a	-10.2	-10.1	-10.2	---	---	2.6	N	0.04	4.3	-13.0	---	---	724.1	0.020	0.000	21.2	5	1
03/06/06	8:25 a	-10.2	-10.2	-10.2	---	---	2.6	N	0.04	3.5	-13.0	---	---	724.2	0.020	0.000	21.2	5	1
03/06/06	8:26 a	-10.2	-10.2	-10.2	---	---	2.6	N	0.04	3.5	-13.0	---	---	724.1	0.020	0.000	21.2	5	1
03/06/06	8:27 a	-10.2	-10.2	-10.2	---	---	2.6	N	0.04	3.5	-13.0	---	---	724.1	0.020	0.000	21.3	5	1
03/06/06	8:28 a	-10.2	-10.2	-10.3	---	---	2.6	N	0.04	3.5	-13.1	---	---	724.0	0.020	0.000	21.3	5	1
03/06/06	8:29 a	-10.4	-10.3	-10.4	---	---	2.6	N	0.04	3.5	-13.2	---	---	724.1	0.020	0.000	21.3	4	1
03/06/06	8:30 a	-10.4	-10.4	-10.4	---	---	2.6	N	0.04	3.5	-13.2	---	---	724.1	0.020	0.000	21.3	4	1
03/06/06	8:31 a	-10.5	-10.4	-10.5	---	---	2.6	N	0.04	3.5	-13.4	---	---	724.1	0.020	0.000	21.3	5	1
03/06/06	8:32 a	-10.6	-10.5	-10.6	---	---	2.6	N	0.04	2.6	-13.4	---	---	724.1	0.020	0.000	21.3	5	1
03/06/06	8:33 a	-10.5	-10.4	-10.5	---	---	2.6	N	0.04	3.5	-13.4	---	---	724.1	0.020	0.000	21.3	5	1
03/06/06	8:34 a	-10.4	-10.4	-10.5	---	---	3.5	N	0.06	4.3	-14.2	---	---	724.1	0.020	0.000	21.4	5	1
03/06/06	8:35 a	-10.4	-10.4	-10.4	---	---	3.5	N	0.06	4.3	-14.2	---	---	724.1	0.020	0.000	21.4	5	1
03/06/06	8:36 a	-10.4	-10.4	-10.4	---	---	3.5	N	0.06	4.3	-14.2	---	---	724.1	0.020	0.000	21.4	5	1
03/06/06	8:37 a	-10.4	-10.4	-10.4	---	---	3.5	N	0.06	4.3	-14.2	---	---	724.0	0.020	0.000	21.4	4	1
03/06/06	8:38 a	-10.4	-10.4	-10.4	---	---	3.5	N	0.06	3.5	-14.2	---	---	724.1	0.020	0.000	21.4	5	1
03/06/06	8:39 a	-10.4	-10.4	-10.4	---	---	3.5	N	0.06	3.5	-14.2	---	---	724.1	0.020	0.000	21.4	5	1
03/06/06	8:40 a	-10.4	-10.4	-10.5	---	---	3.5	N	0.06	3.5	-14.2	---	---	724.1	0.020	0.000	21.4	5	1
03/06/06	8:41 a	-10.4	-10.4	-10.5	---	---	2.6	N	0.04	3.5	-13.3	---	---	724.1	0.020	0.000	21.4	5	1
03/06/06	8:42 a	-10.4	-10.4	-10.5	---	---	3.5	N	0.06	3.5	-14.2	---	---	724.1	0.020	0.000	21.4	5	1
03/06/06	8:43 a	-10.5	-10.5	-10.6	---	---	3.5	N	0.06	3.5	-14.3	---	---	724.1	0.020	0.000	21.4	4	1
03/06/06	8:44 a	-10.5	-10.5	-10.6	---	---	3.5	N	0.06	4.3	-14.3	---	---	724.1	0.020	0.000	21.4	5	1
03/06/06	8:45 a	-10.5	-10.4	-10.5	---	---	3.5	N	0.06	4.3	-14.3	---	---	724.1	0.020	0.000	21.4	5	1
03/06/06	8:46 a	-10.5	-10.4	-10.5	---	---	4.3	N	0.07	4.3	-15.1	---	---	724.0	0.020	0.000	21.4	5	1
03/06/06	8:47 a	-10.5	-10.5	-10.5	---	---	4.3	N	0.07	5.2	-15.1	---	---	724.0	0.020	0.000	21.5	5	1
03/06/06	8:48 a	-10.5	-10.4	-10.5	---	---	4.3	N	0.07	5.2	-15.1	---	---	724.0	0.020	0.000	21.5	5	1
03/06/06	8:49 a	-10.5	-10.4	-10.5	---	---	4.3	N	0.07	4.3	-15.1	---	---	724.1	0.020	0.000	21.5	4	1
03/06/06	8:50 a	-10.5	-10.5	-10.6	---	---	4.3	N	0.07	5.2	-15.1	---	---	724.1	0.020	0.000	21.5	5	1
03/06/06	8:51 a	-10.5	-10.5	-10.5	---	---	4.3	N	0.07	5.2	-15.1	---	---	724.1	0.020	0.000	21.5	5	1
03/06/06	8:52 a	-10.5	-10.5	-10.5	---	---	4.3	N	0.07	5.2	-15.1	---	---	724.0	0.020	0.000	21.5	5	1
03/06/06	8:53 a	-10.6	-10.5	-10.6	---	---	5.2	N	0.09	5.2	-15.8	---	---	724.0	0.020	0.000	21.5	5	1
03/06/06	8:54 a	-10.6	-10.6	-10.6	---	---	5.2	N	0.09	5.2	-15.8	---	---	724.1	0.020	0.000	21.6	5	1
03/06/06	8:55 a	-10.6	-10.6	-10.6	---	---	5.2	N	0.09	5.2	-15.8	---	---	724.0	0.020	0.000	21.6	5	1
03/06/06	8:56 a	-10.6	-10.6	-10.6	---	---	5.2	N	0.09	6.1	-15.8	---	---	724.1	0.020	0.000	21.6	5	1
03/06/06	8:57 a	-10.6	-10.6	-10.7	---	---	5.2	N	0.09	5.2	-15.8	---	---	724.1	0.020	0.000	21.6	5	1
03/06/06	8:58 a	-10.7	-10.7	-10.7	---	---	5.2	N	0.09	6.1	-15.9	---	---	724.1	0.020	0.000	21.6	5	1
03/06/06	8:59 a	-10.7	-10.7	-10.8	---	---	5.2	N	0.09	6.1	-16.0	---	---	724.1	0.020	0.000	21.6	5	1
03/06/06	9:00 a	-10.8	-10.7	-10.8	---	---	5.2	N	0.09	6.1	-16.1	---	---	724.2	0.020	0.000	21.6	5	1
03/06/06	9:01 a	-10.8	-10.8	-10.8	---	---	5.2	N	0.09	6.1	-16.1	---	---	724.1	0.020	0.000	21.6	5	1
03/06/06	9:02 a	-10.8	-10.8	-10.8	---	---	5.2	N	0.09	6.1	-16.1	---	---	724.1	0.020	0.000	21.6	5	1
03/06/06	9:03 a	-10.8	-10.8	-10.9	---	---	5.2	N	0.09	6.1	-16.1	---	---	724.0	0.020	0.000	21.6	4	1
03/06/06	9:04 a	-10.8	-10.8	-10.8	---	---	5.2	N	0.09	6.1	-16.1	---	---	724.2	0.020	0.000	21.6	5	1
03/06/06	9:05 a	-10.8	-10.8	-10.8	---	---	5.2	N	0.09	6.1	-16.1	---	---	724.0	0.020	0.000	21.6	5	1
03/06/06	9:06 a	-10.8	-10.8	-10.9	---	---	6.1	N	0.10	6.1	-16.7	---	---	724.1	0.020	0.000	21.6	4	1
03/06/06	9:07 a	-10.9	-10.9	-10.9	---	---	6.1	N	0.10	6.1	-16.7	---	---	724.1	0.020	0.000	21.6	5	1
03/06/06	9:08 a	-10.9	-10.8	-10.9	---	---	6.1	N	0.10	7.0	-16.7	---	---	724.1	0.020	0.000	21.6	5	1
03/06/06	9:09 a	-10.9	-10.9	-10.9	---	---	6.1	N	0.10	7.0	-16.7	---	---	724.1	0.020	0.000	21.6	5	1
03/06/06	9:10 a	-10.8	-10.8	-10.9	---	---	6.1	N	0.10	7.0	-16.7	---	---	724.1	0.020	0.000	21.7	5	1
03/06/06	9:11 a	-10.9	-10.8	-10.9	---	---	6.1	N	0.10	7.0	-16.7	---	---	724.2	0.020	0.000	21.7	5	1
03/06/06	9:12 a	-10.9	-10.9	-10.9	---	---	6.1	N	0.10	7.0	-16.8	---	---	724.1	0.020	0.000	21.7	5	1
03/06/06	9:13 a	-10.9	-10.9	-11.0	---	---	6.1	N	0.10	7.0	-16.8	---	---	724.1	0.020	0.000	21.7	5	1
03/06/06	9:14 a	-11.0	-11.0	-11.1	---	---	7.0	N	0.12	7.0	-17.4	---	---	724.1	0.020	0.000	21.7	5	1
03/06/06	9:15 a	-11.1	-11.1	-11.1	---	---	6.1	N	0.10	7.0	-16.9	---	---	724.1	0.020	0.000	21.7	5	1
03/06/06	9:16 a	-11.1	-11.1	-11.1	---	---	6.1	N	0.10	6.1	-16.9	---	---	724.0	0.020	0.000	21.7	5	1
03/06/06	9:17 a	-11.1	-11.1	-11.1	---	---	6.1	N	0.10	6.1	-16.9	---	---	724.1	0.020	0.000	21.7	5	1
03/06/06	9:18 a	-11.1	-11.1	-11.1	---	---	6.1	N	0.10	7.0	-16.9	---	---	724.2	0.020	0.000	21.7	5	1
03/06/06	9:19 a	-11.0	-10.9	-11.0	---	---	6.1	N	0.10	7.0	-16.9	---	---	724.1	0.020	0.000	21.7	5	1
03/06/06	9:20 a	-11.0	-11.0	-11.1	---	---	6.1	N	0.10	7.0	-16.9	---	---	724.2	0.020	0.000	21.7	5	1
03/06/06	9:21 a	-11.1	-11.1	-11.1	---	---	6.1	N	0.10	7.0	-16.9	---	---	724.0	0.020	0.000	21.7	5	1
03/06/06	9:22 a	-11.1	-11.1	-11.1	---	---	7.0	N	0.12	7.0	-17.5	---	---	724.2	0.020	0.000	21.7	5	1
03/06/06	9:23 a	-11.1	-11.1	-11.2	---	---	7.0	N	0.12	7.0	-17.5	---	---	724.1	0.020	0.000	21.7	5	1
03/06/06	9:24 a	-11.2	-11.1	-11.2	---	---	6.1	N	0.10	7.0	-17.1	---	---	724.2	0.020	0.000	21.6	5	1
03/06/06	9:25 a	-11.1	-11.0	-11.1	---	---	6.1	N	0.10	7.0	-16.9	---	---	724.2	0.020	0.000	21.6	5	1
03/06/06	9:26 a	-11.0	-11.0	-11.1	---	---	7.0	N	0.12	7.0	-17.4	---	---	724.1	0.020	0.000	21.6	5	1
03/06/06	9:27 a	-11.1	-11.1	-11.1	---	---	6.1	N	0.10	7.0	-16.9	---	---	724.2	0.020	0.000	21.6	5	1
03/06/06	9:28 a	-11.0	-11.0	-11.1	---	---	6.1	N	0.10	7.0	-16.9	---	---	724.1	0.020	0.000	21.6	5	1
03/06/06	9:29 a	-11.1	-11.1	-11.1	---	---	6.1	N	0.10	7.0	-16.9	---	---	724.1	0.020	0.000	21.6	5	1
03/06/06	9:30 a	-11.0	-10.9	-11.1	---	---	6.1	N	0.10	6.1	-16.9	---	---	724.1	0.020	0.000	21.5	5	1
03/06/06	9:31 a	-10.9	-10.9	-10.9	---	---	5.2	N	0.09	6.1	-16.2	---	---	724.2	0.020	0.000	21.5	5	1
03/06/06	9:32 a	-10.9	-10.9	-10.9	---	---	6.1	N	0.10	6.1	-16.8	---	---	724.2	0.020	0.000	21.5	5	1
03/06/06	9:33 a	-10.9	-10.9	-11.0	---	---	6.1	N	0.10	7.0	-16.8	---	---	724.2	0.020	0.000	21.5	5	1
03/06/06	9:34 a	-10.9	-10.9	-10.9	---	---	6.1	N	0.10	7.0	-16.8	---	---	724.1	0.020	0.000	21.5	5	1
03/06/06	9:35 a	-10.9	-10.9	-10.9	---	---	6.1	N	0.10	6.1	-16.7	---	---	724.1	0.020	0.000	21.4	5	1
03/06/06	9:36 a	-10.9	-10.9	-10.9	---	---	6.1	N	0.10	7.0	-16.7	---	---	724.1	0.020	0.000	21.4	5	1
03/06/06	9:37 a	-10.9	-10.9	-10.9	---	---	5.2	N	0.09	7.0	-16.2	---	---	724.2	0.020	0.000	21.4	5	1
03/06/06	9:38 a	-10.8	-10.8	-10.9	---	---	5.2	N	0.09	7.0	-16.1	---	---	724.1	0.020	0.000	21.4	5	1
03/06/06	9:39 a	-10.9	-10.9	-11.0	---	---	5.2	N	0.09	6.1	-16.2	---	---	724.1	0.020	0.000	21.4	5	1
03/06/06	9:40 a	-11.2	-11.0	-11.2	---	---	5.2	N	0.09	6.1	-16.5	---	---	724.2	0.020	0.000	21.4	5	1
03/06/06	9:41 a	-11.3	-11.2	-11.3	---	---	5.2	N	0.09	6.1	-16.6	---	---	724.1	0.021	0.000	21.4	5	1
03/06/06	9:42 a	-11.3	-11.3	-11.3	---	---	5.2	N	0.09	6.1	-16.7	---	---	724.1	0.021	0.000	21.4	5	1
03/06/06	9:43 a	-11.3	-11.3	-11.4	---	---	5.2	N	0.09	6.1	-16.7	---	---	724.1	0.021	0.000	21.4	5	1
03/06/06	9:44 a	-11.3	-11.3	-11.3	---	---	5.2	N	0.09	6.1	-16.7	---	---	724.1	0.021	0.000	21.4	5	1
03/06/06	9:45 a	-11.3	-11.3	-11.3	---	---	4.3	N	0.07	6.1	-16.1	---	---	724.0	0.021	0.000	21.4	4	1
03/06/06	9:46 a	-11.3	-11.3	-11.4	---	---	4.3	N	0.07	5.2	-16.1	---	---	724.2	0.021	0.000	21.3	5	1
03/06/06	9:47 a	-11.3	-11.3	-11.3	---	---	5.2	N	0.09	6.1	-16.6	---	---	724.1	0.021	0.000	21.3	5	1
03/06/06	9:48 a	-11.2	-11.2	-11.3	---	---	4.3	N	0.07	5.2	-15.9	---	---	724.2	0.021	0.000	21.3	5	1
03/06/06	9:49 a	-11.2	-11.2	-11.2	---	---	4.3	N	0.07	5.2	-15.9	---	---	724.2	0.021	0.000	21.3	5	1
03/06/06	9:50 a	-11.2	-11.2	-11.2	---	---	5.2	N	0.09	6.1	-16.6	---	---	724.2	0.021	0.000	21.3	5	1
03/06/06	9:51 a	-11.2	-11.2	-11.2	---	---	5.2	N	0.09	6.1	-16.5	---	---	724.2	0.020	0.000	21.3	5	1
03/06/06	9:52 a	-11.2	-11.2	-11.2	---	---	5.2	N	0.09	6.1	-16.5	---	---	724.2	0.020	0.000	21.3	5	1
03/06/06	9:53 a	-11.2	-11.2	-11.2	---	---	4.3	N	0.07	5.2	-15.8	---	---	724.2	0.020	0.000	21.3	5	1
03/06/06	9:54 a	-11.2	-11.1	-11.2	---	---	5.2	N	0.09	5.2	-16.5	---	---	724.2	0.020	0.000	21.3	5	1
03/06/06	9:55 a	-11.1	-11.0	-11.1	---	---	4.3	N	0.07	5.2	-15.7	---	---	724.1	0.020	0.000	21.3	5	1
03/06/06	9:56 a	-11.1	-11.1	-11.1	---	---	4.3	N	0.07	5.2	-15.7	---	---	724.2	0.020	0.000	21.3	5	1
03/06/06	9:57 a	-11.1	-11.1	-11.1	---	---	3.5	N	0.06	4.3	-15.0	---	---	724.2	0.020	0.000	21.2	4	1
03/06/06	9:58 a	-11.1	-11.0	-11.1	---	---	3.5	N	0.06	4.3	-14.9	---	---	724.2	0.020	0.000	21.2	5	1
03/06/06	9:59 a	-11.0	-11.0	-11.1	---	---	4.3	N	0.07	4.3	-15.7	---	---	724.2	0.020	0.000	21.2	5	1
03/06/06	10:00 a	-10.9	-10.9	-11.0	---	---	4.3	N	0.07	5.2	-15.6	---	---	724.1	0.020	0.000	21.2	5	1
03/06/06	10:01 a	-10.9	-10.9	-11.1	---	---	3.5	N	0.06	5.2	-14.8	---	---	724.1	0.020	0.000	21.2	5	1
03/06/06	10:02 a	-11.0	-10.9	-11.1	---	---	4.3	N	0.07	5.2	-15.7	---	---	724.1	0.020	0.000	21.2	4	1
03/06/06	10:03 a	-10.9	-10.9	-10.9	---	---	4.3	N	0.07	6.1	-15.6	---	---	724.1	0.020	0.000	21.2	5	1
03/06/06	10:04 a	-10.9	-10.9	-10.9	---	---	4.3	N	0.07	5.2	-15.6	---	---	724.0	0.020	0.000	21.2	5	1
03/06/06	10:05 a	-11.0	-10.9	-11.1	---	---	5.2	N	0.09	6.1	-16.3	---	---	724.0	0.020	0.000	21.2	4	1
03/06/06	10:06 a	-11.0	-11.0	-11.1	---	---	5.2	N	0.09	6.1	-16.3	---	---	724.1	0.020	0.000	21.2	5	1
03/06/06	10:07 a	-10.9	-10.9	-11.0	---	---	5.2	N	0.09	5.2	-16.2	---	---	724.0	0.020	0.000	21.2	5	1
03/06/06	10:08 a	-10.9	-10.9	-11.0	---	---	5.2	N	0.09	5.2	-16.2	---	---	724.0	0.020	0.000	21.2	5	1
03/06/06	10:09 a	-11.0	-10.9	-11.0	---	---	5.2	N	0.09	5.2	-16.3	---	---	724.0	0.020	0.000	21.2	5	1
03/06/06	10:10 a	-10.9	-10.9	-10.9	---	---	5.2	N	0.09	6.1	-16.2	---	---	723.9	0.020	0.000	21.2	4	1
03/06/06	10:11 a	-10.9	-10.9	-10.9	---	---	5.2	N	0.09	5.2	-16.2	---	---	724.0	0.020	0.000	21.2	5	1
03/06/06	10:12 a	-10.9	-10.9	-10.9	---	---	5.2	N	0.09	5.2	-16.2	---	---	723.9	0.020	0.000	21.2	5	1
03/06/06	10:13 a	-10.9	-10.9	-10.9	---	---	5.2	N	0.09	5.2	-16.2	---	---	724.0	0.020	0.000	21.2	5	1
03/06/06	10:14 a	-10.9	-10.9	-10.9	---	---	4.3	N	0.07	5.2	-15.6	---	---	723.9	0.020	0.000	21.2	5	1
03/06/06	10:15 a	-10.9	-10.8	-10.9	---	---	4.3	N	0.07	5.2	-15.5	---	---	724.0	0.020	0.000	21.3	5	1
03/06/06	10:16 a	-10.8	-10.8	-10.8	---	---	4.3	N	0.07	5.2	-15.4	---	---	723.9	0.020	0.000	21.3	5	1
03/06/06	10:17 a	-10.8	-10.8	-10.8	---	---	4.3	N	0.07	5.2	-15.4	---	---	723.9	0.020	0.000	21.3	5	1
03/06/06	10:18 a	-10.7	-10.7	-10.8	---	---	4.3	N	0.07	5.2	-15.3	---	---	723.9	0.020	0.000	21.3	5	1
03/06/06	10:19 a	-10.8	-10.7	-10.8	---	---	4.3	N	0.07	5.2	-15.4	---	---	724.0	0.020	0.000	21.3	5	1
03/06/06	10:20 a	-10.7	-10.7	-10.8	---	---	4.3	N	0.07	5.2	-15.3	---	---	724.0	0.020	0.000	21.3	5	1
03/06/06	10:21 a	-10.7	-10.7	-10.8	---	---	4.3	N	0.07	5.2	-15.3	---	---	723.9	0.020	0.000	21.3	5	1
03/06/06	10:22 a	-10.7	-10.7	-10.7	---	---	4.3	N	0.07	5.2	-15.3	---	---	723.9	0.020	0.000	21.3	5	1
03/06/06	10:23 a	-10.7	-10.7	-10.7	---	---	3.5	N	0.06	4.3	-14.6	---	---	724.0	0.020	0.000	21.3	5	1
03/06/06	10:24 a	-10.6	-10.6	-10.7	---	---	3.5	N	0.06	4.3	-14.4	---	---	724.0	0.020	0.000	21.3	5	1
03/06/06	10:25 a	-10.6	-10.6	-10.6	---	---	3.5	N	0.06	4.3	-14.4	---	---	724.1	0.020	0.000	21.3	5	1
03/06/06	10:26 a	-10.6	-10.6	-10.6	---	---	4.3	N	0.07	5.2	-15.1	---	---	723.9	0.020	0.000	21.4	5	1
03/06/06	10:27 a	-10.5	-10.5	-10.6	---	---	3.5	N	0.06	4.3	-14.3	---	---	724.0	0.020	0.000	21.4	5	1
03/06/06	10:28 a	-10.6	-10.5	-10.6	---	---	3.5	N	0.06	4.3	-14.4	---	---	724.0	0.020	0.000	21.4	5	1
03/06/06	10:29 a	-10.6	-10.5	-10.6	---	---	3.5	N	0.06	4.3	-14.4	---	---	724.0	0.020	0.000	21.4	5	1
03/06/06	10:30 a	-10.5	-10.5	-10.6	---	---	3.5	N	0.06	4.3	-14.3	---	---	724.0	0.020	0.000	21.4	4	1
03/06/06	10:31 a	-10.6	-10.6	-10.6	---	---	2.6	N	0.04	3.5	-13.4	---	---	724.0	0.020	0.000	21.4	5	1
03/06/06	10:32 a	-10.5	-10.4	-10.5	---	---	3.5	N	0.06	4.3	-14.3	---	---	723.9	0.020	0.000	21.4	5	1
03/06/06	10:33 a	-10.5	-10.4	-10.5	---	---	2.6	N	0.04	4.3	-13.4	---	---	723.9	0.020	0.000	21.4	5	1
03/06/06	10:34 a	-10.5	-10.4	-10.5	---	---	2.6	N	0.04	3.5	-13.4	---	---	724.0	0.020	0.000	21.4	5	1
03/06/06	10:35 a	-10.5	-10.5	-10.6	---	---	3.5	N	0.06	3.5	-14.3	---	---	724.0	0.020	0.000	21.4	5	1
03/06/06	10:36 a	-10.6	-10.5	-10.6	---	---	3.5	N	0.06	3.5	-14.4	---	---	724.0	0.020	0.000	21.4	5	1
03/06/06	10:37 a	-10.6	-10.6	-10.6	---	---	3.5	N	0.06	3.5	-14.4	---	---	723.9	0.020	0.000	21.4	5	1
03/06/06	10:38 a	-10.6	-10.6	-10.6	---	---	3.5	N	0.06	4.3	-14.4	---	---	724.0	0.020	0.000	21.5	5	1
03/06/06	10:39 a	-10.6	-10.6	-10.6	---	---	4.3	N	0.07	4.3	-15.1	---	---	724.0	0.020	0.000	21.5	5	1
03/06/06	10:40 a	-10.5	-10.5	-10.6	---	---	3.5	N	0.06	4.3	-14.3	---	---	724.0	0.020	0.000	21.5	4	1
03/06/06	10:41 a	-10.5	-10.5	-10.5	---	---	3.5	N	0.06	4.3	-14.3	---	---	724.1	0.020	0.000	21.5	5	1
03/06/06	10:42 a	-10.5	-10.4	-10.5	---	---	3.5	N	0.06	4.3	-14.3	---	---	724.1	0.020	0.000	21.5	5	1
03/06/06	10:43 a	-10.4	-10.4	-10.4	---	---	3.5	N	0.06	4.3	-14.2	---	---	724.1	0.020	0.000	21.5	5	1
03/06/06	10:44 a	-10.4	-10.4	-10.4	---	---	4.3	N	0.07	4.3	-15.0	---	---	724.1	0.020	0.000	21.5	5	1
03/06/06	10:45 a	-10.4	-10.4	-10.4	---	---	3.5	N	0.06	4.3	-14.2	---	---	724.1	0.020	0.000	21.5	5	1
03/06/06	10:46 a	-10.4	-10.4	-10.4	---	---	3.5	N	0.06	4.3	-14.2	---	---	724.0	0.020	0.000	21.5	4	1
03/06/06	10:47 a	-10.4	-10.4	-10.5	---	---	3.5	N	0.06	4.3	-14.2	---	---	724.1	0.020	0.000	21.5	4	1
03/06/06	10:48 a	-10.4	-10.4	-10.4	---	---	3.5	N	0.06	4.3	-14.2	---	---	724.1	0.020	0.000	21.6	5	1
03/06/06	10:49 a	-10.4	-10.4	-10.4	---	---	3.5	N	0.06	4.3	-14.2	---	---	724.1	0.020	0.000	21.6	5	1
03/06/06	10:50 a	-10.4	-10.4	-10.4	---	---	3.5	N	0.06	4.3	-14.2	---	---	724.1	0.020	0.000	21.6	4	1
03/06/06	10:51 a	-10.4	-10.4	-10.4	---	---	3.5	N	0.06	4.3	-14.2	---	---	724.1	0.020	0.000	21.6	5	1
03/06/06	10:52 a	-10.4	-10.4	-10.4	---	---	2.6	N	0.04	3.5	-13.3	---	---	724.0	0.020	0.000	21.6	4	1
03/06/06	10:53 a	-10.4	-10.4	-10.4	---	---	3.5	N	0.06	4.3	-14.2	---	---	724.0	0.020	0.000	21.6	5	1
03/06/06	10:54 a	-10.4	-10.4	-10.4	---	---	2.6	N	0.04	3.5	-13.2	---	---	724.0	0.020	0.000	21.6	5	1
03/06/06	10:55 a	-10.4	-10.4	-10.4	---	---	2.6	N	0.04	3.5	-13.2	---	---	724.0	0.020	0.000	21.6	5	1
03/06/06	10:56 a	-10.4	-10.4	-10.4	---	---	3.5	N	0.06	3.5	-14.2	---	---	724.0	0.020	0.000	21.6	4	1
03/06/06	10:57 a	-10.4	-10.4	-10.4	---	---	2.6	N	0.04	3.5	-13.2	---	---	724.1	0.020	0.000	21.6	5	1
03/06/06	10:58 a	-10.4	-10.4	-10.4	---	---	2.6	N	0.04	3.5	-13.2	---	---	724.0	0.020	0.000	21.6	5	1
03/06/06	10:59 a	-10.4	-10.4	-10.5	---	---	3.5	N	0.06	3.5	-14.2	---	---	724.1	0.020	0.000	21.6	5	1
03/06/06	11:00 a	-10.5	-10.5	-10.6	---	---	2.6	N	0.04	3.5	-13.4	---	---	724.0	0.020	0.000	21.6	5	1
03/06/06	11:01 a	-10.5	-10.5	-10.6	---	---	2.6	N	0.04	3.5	-13.4	---	---	724.0	0.020	0.000	21.6	5	1
03/06/06	11:02 a	-10.5	-10.5	-10.6	---	---	2.6	N	0.04	3.5	-13.4	---	---	724.0	0.020	0.000	21.6	5	1
03/06/06	11:03 a	-10.6	-10.6	-10.6	---	---	2.6	N	0.04	3.5	-13.4	---	---	724.0	0.020	0.000	21.6	5	1
03/06/06	11:04 a	-10.6	-10.6	-10.6	---	---	2.6	N	0.04	3.5	-13.5	---	---	724.0	0.020	0.000	21.6	5	1
03/06/06	11:05 a	-10.6	-10.6	-10.6	---	---	2.6	N	0.04	2.6	-13.4	---	---	724.1	0.020	0.000	21.7	5	1
03/06/06	11:06 a	-10.6	-10.6	-10.6	---	---	2.6	N	0.04	3.5	-13.5	---	---	724.1	0.020	0.000	21.7	5	1
03/06/06	11:07 a	-10.5	-10.5	-10.5	---	---	2.6	N	0.04	3.5	-13.4	---	---	724.1	0.020	0.000	21.7	5	1
03/06/06	11:08 a	-10.4	-10.4	-10.4	---	---	2.6	N	0.04	3.5	-13.3	---	---	724.1	0.020	0.000	21.6	5	1
03/06/06	11:09 a	-10.4	-10.4	-10.5	---	---	2.6	N	0.04	3.5	-13.3	---	---	724.1	0.020	0.000	21.6	5	1
03/06/06	11:10 a	-10.5	-10.4	-10.5	---	---	2.6	N	0.04	3.5	-13.4	---	---	724.1	0.020	0.000	21.6	5	1
03/06/06	11:11 a	-10.5	-10.4	-10.5	---	---	2.6	N	0.04	3.5	-13.4	---	---	724.2	0.020	0.000	21.6	5	1
03/06/06	11:12 a	-10.5	-10.5	-10.5	---	---	2.6	N	0.04	3.5	-13.4	---	---	724.2	0.020	0.000	21.6	5	1
03/06/06	11:13 a	-10.5	-10.5	-10.5	---	---	1.7	N	0.03	2.6	-12.1	---	---	724.1	0.020	0.000	21.6	5	1
03/06/06	11:14 a	-10.4	-10.4	-10.5	---	---	1.7	N	0.03	2.6	-12.1	---	---	724.2	0.020	0.000	21.5	5	1
03/06/06	11:15 a	-10.5	-10.4	-10.5	---	---	1.7	N	0.03	2.6	-12.1	---	---	724.2	0.020	0.000	21.5	5	1
03/06/06	11:16 a	-10.6	-10.5	-10.6	---	---	1.7	N	0.03	2.6	-12.2	---	---	724.2	0.020	0.000	21.5	5	1
03/06/06	11:17 a	-10.6	-10.6	-10.7	---	---	1.7	N	0.03	2.6	-12.2	---	---	724.0	0.020	0.000	21.5	5	1
03/06/06	11:18 a	-10.7	-10.7	-10.7	---	---	2.6	N	0.04	2.6	-13.6	---	---	724.1	0.020	0.000	21.4	5	1
03/06/06	11:19 a	-10.7	-10.6	-10.7	---	---	1.7	N	0.03	2.6	-12.3	---	---	724.0	0.020	0.000	21.4	5	1
03/06/06	11:20 a	-10.6	-10.6	-10.7	---	---	1.7	N	0.03	2.6	-12.2	---	---	724.2	0.020	0.000	21.4	5	1
03/06/06	11:21 a	-10.6	-10.6	-10.6	---	---	1.7	N	0.03	2.6	-12.2	---	---	724.2	0.020	0.000	21.4	5	1
03/06/06	11:22 a	-10.6	-10.6	-10.6	---	---	2.6	N	0.04	2.6	-13.4	---	---	724.2	0.020	0.000	21.4	5	1
03/06/06	11:23 a	-10.6	-10.6	-10.7	---	---	0.9	N	0.01	2.6	-10.6	---	---	724.2	0.020	0.000	21.4	5	1
03/06/06	11:24 a	-10.6	-10.6	-10.6	---	---	0.9	N	0.01	1.7	-10.6	---	---	724.1	0.020	0.000	21.4	5	1
03/06/06	11:25 a	-10.6	-10.6	-10.6	---	---	0.9	N	0.01	1.7	-10.6	---	---	724.2	0.020	0.000	21.4	5	1
03/06/06	11:26 a	-10.6	-10.6	-10.6	---	---	1.7	N	0.03	1.7	-12.2	---	---	724.2	0.020	0.000	21.3	4	1
03/06/06	11:27 a	-10.5	-10.5	-10.6	---	---	0.9	N	0.01	1.7	-10.5	---	---	724.2	0.020	0.000	21.3	5	1
03/06/06	11:28 a	-10.5	-10.5	-10.5	---	---	0.0	N	0.00	0.9	-10.5	---	---	724.2	0.020	0.000	21.3	5	1
03/06/06	11:29 a	-10.5	-10.5	-10.6	---	---	0.9	N	0.01	2.6	-10.5	---	---	724.1	0.020	0.000	21.3	5	1
03/06/06	11:30 a	-10.6	-10.5	-10.6	---	---	0.9	N	0.01	1.7	-10.6	---	---	724.2	0.020	0.000	21.3	5	1
03/06/06	11:31 a	-10.4	-10.4	-10.5	---	---	0.0	N	0.00	1.7	-10.4	---	---	724.1	0.020	0.000	21.3	5	1
03/06/06	11:32 a	-10.4	-10.4	-10.5	---	---	0.9	N	0.01	1.7	-10.4	---	---	724.1	0.020	0.000	21.3	5	1
03/06/06	11:33 a	-10.4	-10.4	-10.5	---	---	1.7	N	0.03	2.6	-12.1	---	---	724.2	0.020	0.000	21.3	5	1
03/06/06	11:34 a	-10.4	-10.4	-10.4	---	---	0.9	N	0.01	1.7	-10.4	---	---	724.2	0.020	0.000	21.3	5	1
03/06/06	11:35 a	-10.4	-10.4	-10.4	---	---	0.9	N	0.01	1.7	-10.4	---	---	724.2	0.020	0.000	21.3	4	1
03/06/06	11:36 a	-10.4	-10.4	-10.4	---	---	1.7	N	0.03	2.6	-12.0	---	---	724.2	0.020	0.000	21.2	5	1
03/06/06	11:37 a	-10.4	-10.4	-10.4	---	---	1.7	N	0.03	2.6	-12.1	---	---	724.2	0.020	0.000	21.2	5	1
03/06/06	11:38 a	-10.4	-10.3	-10.4	---	---	1.7	N	0.03	3.5	-12.0	---	---	724.3	0.020	0.000	21.2	5	1
03/06/06	11:39 a	-10.4	-10.4	-10.5	---	---	1.7	N	0.03	2.6	-12.1	---	---	724.2	0.020	0.000	21.2	5	1
03/06/06	11:40 a	-10.4	-10.4	-10.5	---	---	1.7	N	0.03	1.7	-12.1	---	---	724.1	0.020	0.000	21.2	4	1
03/06/06	11:41 a	-10.4	-10.4	-10.4	---	---	0.9	N	0.01	1.7	-10.4	---	---	724.2	0.020	0.000	21.2	5	1
03/06/06	11:42 a	-10.4	-10.4	-10.4	---	---	0.0	---	0.00	0.0	-10.4	---	---	724.2	0.020	0.000	21.2	5	1
03/06/06	11:43 a	-10.4	-10.4	-10.4	---	---	0.0	---	0.00	0.0	-10.4	---	---	724.3	0.020	0.000	21.2	4	1
03/06/06	11:44 a	-10.4	-10.4	-10.4	---	---	0.9	N	0.01	1.7	-10.4	---	---	724.2	0.020	0.000	21.2	5	1
03/06/06	11:45 a	-10.4	-10.4	-10.4	---	---	0.9	N	0.01	1.7	-10.4	---	---	724.3	0.020	0.000	21.2	4	1
03/06/06	11:46 a	-10.4	-10.4	-10.4	---	---	1.7	N	0.03	1.7	-12.1	---	---	724.2	0.020	0.000	21.2	4	1
03/06/06	11:47 a	-10.4	-10.4	-10.4	---	---	0.9	N	0.01	1.7	-10.4	---	---	724.3	0.020	0.000	21.2	5	1
03/06/06	11:48 a	-10.4	-10.3	-10.4	---	---	0.9	N	0.01	1.7	-10.4	---	---	724.2	0.020	0.000	21.1	5	1
03/06/06	11:49 a	-10.3	-10.2	-10.3	---	---	0.9	N	0.01	1.7	-10.3	---	---	724.3	0.020	0.000	21.1	4	1
03/06/06	11:50 a	-10.3	-10.3	-10.3	---	---	0.9	N	0.01	1.7	-10.3	---	---	724.2	0.020	0.000	21.1	4	1
03/06/06	11:51 a	-10.3	-10.3	-10.3	---	---	0.9	N	0.01	1.7	-10.3	---	---	724.2	0.020	0.000	21.1	5	1
03/06/06	11:52 a	-10.3	-10.3	-10.3	---	---	0.9	N	0.01	1.7	-10.3	---	---	724.2	0.020	0.000	21.1	5	1
03/06/06	11:53 a	-10.3	-10.3	-10.3	---	---	0.9	N	0.01	1.7	-10.3	---	---	724.2	0.020	0.000	21.1	5	1
03/06/06	11:54 a	-10.3	-10.3	-10.3	---	---	0.9	N	0.01	1.7	-10.3	---	---	724.2	0.020	0.000	21.1	5	1
03/06/06	11:55 a	-10.3	-10.3	-10.3	---	---	0.9	N	0.01	1.7	-10.3	---	---	724.2	0.020	0.000	21.1	5	1
03/06/06	11:56 a	-10.3	-10.3	-10.3	---	---	1.7	N	0.03	1.7	-11.9	---	---	724.2	0.020	0.000	21.1	4	1
03/06/06	11:57 a	-10.4	-10.4	-10.4	---	---	0.9	N	0.01	1.7	-10.4	---	---	724.2	0.020	0.000	21.1	5	1
03/06/06	11:58 a	-10.4	-10.4	-10.4	---	---	0.9	N	0.01	1.7	-10.4	---	---	724.1	0.020	0.000	21.1	5	1
03/06/06	11:59 a	-10.4	-10.4	-10.4	---	---	0.9	N	0.01	0.9	-10.4	---	---	724.3	0.020	0.000	21.1	5	1
03/06/06	12:00 p	-10.4	-10.4	-10.4	---	---	0.0	N	0.00	0.9	-10.4	---	---	724.2	0.020	0.000	21.1	4	1
03/06/06	12:01 p	-10.4	-10.4	-10.4	---	---	0.9	N	0.01	1.7	-10.4	---	---	724.2	0.020	0.000	21.0	4	1
03/06/06	12:02 p	-10.4	-10.3	-10.4	---	---	0.9	N	0.01	1.7	-10.4	---	---	724.1	0.020	0.000	21.0	4	1
03/06/06	12:03 p	-10.3	-10.3	-10.3	---	---	0.0	---	0.00	0.0	-10.3	---	---	724.2	0.020	0.000	21.0	5	1
03/06/06	12:04 p	-10.3	-10.3	-10.3	---	---	0.0	N	0.00	0.9	-10.3	---	---	724.1	0.020	0.000	21.0	5	1
03/06/06	12:05 p	-10.3	-10.3	-10.3	---	---	0.0	N	0.00	0.9	-10.3	---	---	724.2	0.020	0.000	21.0	5	1
03/06/06	12:06 p	-10.3	-10.3	-10.4	---	---	0.0	---	0.00	0.0	-10.3	---	---	724.2	0.020	0.000	21.0	5	1
03/06/06	12:07 p	-10.4	-10.3	-10.4	---	---	0.9	N	0.01	0.9	-10.4	---	---	724.2	0.020	0.000	20.9	5	1
03/06/06	12:08 p	-10.4	-10.4	-10.5	---	---	1.7	N	0.03	2.6	-12.1	---	---	724.2	0.020	0.000	20.9	5	1
03/06/06	12:09 p	-10.5	-10.5	-10.6	---	---	1.7	N	0.03	1.7	-12.1	---	---	724.2	0.020	0.000	20.9	5	1
03/06/06	12:10 p	-10.6	-10.6	-10.6	---	---	1.7	N	0.03	1.7	-12.2	---	---	724.3	0.020	0.000	20.9	5	1
03/06/06	12:11 p	-10.6	-10.6	-10.7	---	---	1.7	N	0.03	1.7	-12.2	---	---	724.2	0.020	0.000	20.9	5	1
03/06/06	12:12 p	-10.7	-10.7	-10.7	---	---	0.9	N	0.01	1.7	-10.7	---	---	724.3	0.020	0.000	20.9	4	1
03/06/06	12:13 p	-10.8	-10.8	-10.8	---	---	1.7	N	0.03	5.2	-12.4	---	---	724.2	0.020	0.000	20.9	4	1
03/06/06	12:14 p	-10.9	-10.8	-11.3	---	---	7.0	NE	0.12	8.7	-17.3	---	---	724.2	0.020	0.000	20.9	4	1
03/06/06	12:15 p	-11.6	-11.5	-11.9	---	---	7.8	NE	0.13	8.7	-18.5	---	---	724.2	0.021	0.000	20.9	4	1
03/06/06	12:16 p	-12.2	-12.0	-12.4	---	---	7.0	NE	0.12	7.8	-18.7	---	---	724.2	0.021	0.000	20.9	5	1
03/06/06	12:17 p	-12.5	-12.4	-12.6	---	---	7.0	NE	0.12	7.8	-19.2	---	---	724.1	0.021	0.000	20.9	5	1
03/06/06	12:18 p	-12.6	-12.6	-12.7	---	---	7.0	NE	0.12	7.8	-19.3	---	---	724.1	0.021	0.000	20.9	4	1
03/06/06	12:19 p	-12.7	-12.7	-12.7	---	---	7.8	NE	0.13	8.7	-19.9	---	---	724.2	0.022	0.000	20.9	4	1
03/06/06	12:20 p	-12.8	-12.7	-12.8	---	---	7.0	NE	0.12	7.8	-19.5	---	---	724.1	0.022	0.000	20.9	5	1
03/06/06	12:21 p	-12.7	-12.7	-12.8	---	---	6.1	NE	0.10	7.0	-18.9	---	---	724.2	0.022	0.000	20.9	4	1
03/06/06	12:22 p	-12.7	-12.7	-12.7	---	---	6.1	NE	0.10	6.1	-18.9	---	---	724.1	0.022	0.000	20.9	4	1
03/06/06	12:23 p	-12.7	-12.6	-12.7	---	---	6.1	NE	0.10	6.1	-18.8	---	---	724.1	0.022	0.000	20.9	4	1
03/06/06	12:24 p	-12.6	-12.6	-12.6	---	---	5.2	NE	0.09	6.1	-18.2	---	---	724.1	0.021	0.000	20.9	4	1
03/06/06	12:25 p	-12.6	-12.6	-12.6	---	---	5.2	NE	0.09	6.1	-18.2	---	---	724.1	0.021	0.000	21.0	5	1
03/06/06	12:26 p	-12.6	-12.6	-12.6	---	---	7.0	NE	0.12	9.6	-19.3	---	---	724.1	0.021	0.000	21.0	4	1
03/06/06	12:27 p	-12.9	-12.7	-13.3	---	---	10.4	ENE	0.17	12.2	-21.3	---	---	724.1	0.022	0.000	21.0	4	1
03/06/06	12:28 p	-13.8	-13.4	-14.3	---	---	11.3	NE	0.19	12.2	-22.8	---	---	724.1	0.022	0.000	21.1	5	1
03/06/06	12:29 p	-14.7	-14.4	-15.0	---	---	10.4	NE	0.17	12.2	-23.6	---	---	724.1	0.023	0.000	21.1	4	1
03/06/06	12:30 p	-15.2	-15.1	-15.4	---	---	11.3	NE	0.19	12.2	-24.6	---	---	724.1	0.023	0.000	21.1	5	1
03/06/06	12:31 p	-15.6	-15.4	-15.7	---	---	10.4	NE	0.17	11.3	-24.6	---	---	724.0	0.024	0.000	21.1	5	1
03/06/06	12:32 p	-15.8	-15.7	-15.8	---	---	10.4	NE	0.17	11.3	-24.9	---	---	724.1	0.024	0.000	21.1	4	1
03/06/06	12:33 p	-15.9	-15.8	-16.0	---	---	11.3	NE	0.19	13.9	-25.4	---	---	724.0	0.024	0.000	21.1	5	1
03/06/06	12:34 p	-16.1	-16.1	-16.2	---	---	13.0	NE	0.22	14.8	-26.4	---	---	724.1	0.024	0.000	21.1	4	1
03/06/06	12:35 p	-16.4	-16.3	-16.5	---	---	14.8	NE	0.25	15.7	-27.3	---	---	724.1	0.024	0.000	21.1	5	1
03/06/06	12:36 p	-16.6	-16.5	-16.7	---	---	14.8	ENE	0.25	15.7	-27.6	---	---	724.0	0.024	0.000	21.1	5	1
03/06/06	12:37 p	-16.7	-16.7	-16.7	---	---	14.8	ENE	0.25	16.5	-27.7	---	---	724.1	0.024	0.000	21.1	5	1
03/06/06	12:38 p	-16.8	-16.8	-16.9	---	---	13.9	ENE	0.23	15.7	-27.6	---	---	724.1	0.024	0.000	21.1	5	1
03/06/06	12:39 p	-16.9	-16.9	-16.9	---	---	13.9	NE	0.23	14.8	-27.7	---	---	724.1	0.024	0.000	21.1	4	1
03/06/06	12:40 p	-17.0	-16.9	-17.0	---	---	13.9	NE	0.23	15.7	-27.8	---	---	724.1	0.025	0.000	21.2	4	1
03/06/06	12:41 p	-17.1	-17.0	-17.1	---	---	13.9	NE	0.23	14.8	-27.9	---	---	724.2	0.025	0.000	21.2	5	1
03/06/06	12:42 p	-17.0	-17.0	-17.0	---	---	13.9	NE	0.23	15.7	-27.8	---	---	724.1	0.025	0.000	21.2	5	1
03/06/06	12:43 p	-17.0	-17.0	-17.1	---	---	13.9	NE	0.23	15.7	-27.8	---	---	724.1	0.025	0.000	21.2	4	1
03/06/06	12:44 p	-17.1	-17.0	-17.2	---	---	13.9	NE	0.23	14.8	-27.9	---	---	724.0	0.025	0.000	21.2	5	1
03/06/06	12:45 p	-17.3	-17.3	-17.4	---	---	13.0	NE	0.22	14.8	-27.9	---	---	724.1	0.025	0.000	21.2	4	1
03/06/06	12:46 p	-17.6	-17.5	-17.7	---	---	13.0	NE	0.22	14.8	-28.3	---	---	724.1	0.025	0.000	21.2	5	1
03/06/06	12:47 p	-17.8	-17.8	-17.8	---	---	13.0	NE	0.22	14.8	-28.5	---	---	724.1	0.025	0.000	21.2	5	1
03/06/06	12:48 p	-17.8	-17.8	-17.8	---	---	13.0	NE	0.22	14.8	-28.5	---	---	724.1	0.025	0.000	21.2	4	1
03/06/06	12:49 p	-17.9	-17.8	-17.9	---	---	13.0	NE	0.22	13.9	-28.7	---	---	724.1	0.025	0.000	21.2	5	1
03/06/06	12:50 p	-18.0	-17.9	-18.1	---	---	13.9	NE	0.23	15.7	-29.1	---	---	724.1	0.025	0.000	21.2	4	1
03/06/06	12:51 p	-18.2	-18.1	-18.3	---	---	13.0	NE	0.22	15.7	-29.1	---	---	724.0	0.025	0.000	21.2	5	1
03/06/06	12:52 p	-18.4	-18.3	-18.5	---	---	13.0	NE	0.22	14.8	-29.3	---	---	724.0	0.026	0.000	21.2	5	1
03/06/06	12:53 p	-18.6	-18.5	-18.7	---	---	14.8	NE	0.25	15.7	-30.2	---	---	724.0	0.026	0.000	21.3	5	1
03/06/06	12:54 p	-18.8	-18.7	-19.0	---	---	15.7	NE	0.26	17.4	-30.8	---	---	724.2	0.026	0.000	21.3	5	1
03/06/06	12:55 p	-19.2	-19.1	-19.3	---	---	16.5	NE	0.28	17.4	-31.5	---	---	724.1	0.026	0.000	21.3	5	1
03/06/06	12:56 p	-19.5	-19.4	-19.6	---	---	16.5	NE	0.28	18.3	-31.9	---	---	724.1	0.026	0.000	21.3	5	1
03/06/06	12:57 p	-19.7	-19.6	-19.7	---	---	16.5	NE	0.28	18.3	-32.2	---	---	724.1	0.026	0.000	21.3	5	1
03/06/06	12:58 p	-19.7	-19.7	-19.7	---	---	17.4	NE	0.29	18.3	-32.5	---	---	724.1	0.026	0.000	21.3	5	1
03/06/06	12:59 p	-19.7	-19.7	-19.7	---	---	17.4	NE	0.29	18.3	-32.5	---	---	724.1	0.026	0.000	21.3	4	1
03/06/06	1:00 p	-19.7	-19.6	-19.7	---	---	17.4	NE	0.29	18.3	-32.4	---	---	724.1	0.026	0.000	21.3	5	1
03/06/06	1:01 p	-19.6	-19.5	-19.6	---	---	17.4	NE	0.29	19.1	-32.3	---	---	724.0	0.026	0.000	21.3	5	1
03/06/06	1:02 p	-19.4	-19.3	-19.4	---	---	17.4	NE	0.29	18.3	-32.1	---	---	724.1	0.026	0.000	21.3	5	1
03/06/06	1:03 p	-19.2	-19.1	-19.3	---	---	17.4	NE	0.29	18.3	-31.8	---	---	724.1	0.026	0.000	21.3	4	1
03/06/06	1:04 p	-19.1	-19.0	-19.1	---	---	17.4	NE	0.29	19.1	-31.6	---	---	724.0	0.026	0.000	21.3	5	1
03/06/06	1:05 p	-18.9	-18.9	-19.0	---	---	18.3	NE	0.30	19.1	-31.7	---	---	724.0	0.026	0.000	21.3	5	1
03/06/06	1:06 p	-18.9	-18.9	-18.9	---	---	17.4	NE	0.29	19.1	-31.4	---	---	724.0	0.026	0.000	21.3	4	1
03/06/06	1:07 p	-18.9	-18.9	-18.9	---	---	17.4	NE	0.29	18.3	-31.5	---	---	724.0	0.026	0.000	21.3	4	1
03/06/06	1:08 p	-18.9	-18.9	-18.9	---	---	17.4	NE	0.29	19.1	-31.5	---	---	724.1	0.026	0.000	21.3	4	1
03/06/06	1:09 p	-19.0	-18.9	-19.1	---	---	17.4	NE	0.29	19.1	-31.6	---	---	724.0	0.026	0.000	21.3	5	1
03/06/06	1:10 p	-19.1	-19.1	-19.1	---	---	17.4	NE	0.29	18.3	-31.6	---	---	724.0	0.026	0.000	21.4	5	1
03/06/06	1:11 p	-19.1	-19.1	-19.1	---	---	17.4	NE	0.29	19.1	-31.6	---	---	723.9	0.026	0.000	21.4	5	1
03/06/06	1:12 p	-19.1	-19.1	-19.1	---	---	16.5	NE	0.28	18.3	-31.4	---	---	724.0	0.026	0.000	21.4	5	1
03/06/06	1:13 p	-19.1	-19.1	-19.1	---	---	17.4	NE	0.29	18.3	-31.6	---	---	724.0	0.026	0.000	21.4	5	1
03/06/06	1:14 p	-19.1	-19.1	-19.1	---	---	18.3	NE	0.30	20.0	-31.9	---	---	724.0	0.026	0.000	21.4	4	1
03/06/06	1:15 p	-19.1	-19.1	-19.1	---	---	18.3	NE	0.30	20.0	-31.9	---	---	723.9	0.026	0.000	21.4	5	1
03/06/06	1:16 p	-19.2	-19.1	-19.2	---	---	18.3	ENE	0.30	19.1	-32.0	---	---	724.0	0.026	0.000	21.4	5	1
03/06/06	1:17 p	-19.3	-19.2	-19.3	---	---	17.4	ENE	0.29	19.1	-31.9	---	---	724.0	0.026	0.000	21.4	5	1
03/06/06	1:18 p	-19.3	-19.3	-19.3	---	---	16.5	ENE	0.28	18.3	-31.7	---	---	724.0	0.026	0.000	21.5	5	1
03/06/06	1:19 p	-19.3	-19.3	-19.4	---	---	16.5	NE	0.28	18.3	-31.7	---	---	724.0	0.026	0.000	21.5	4	1
03/06/06	1:20 p	-19.4	-19.3	-19.4	---	---	16.5	NE	0.28	18.3	-31.8	---	---	723.9	0.026	0.000	21.5	5	1
03/06/06	1:21 p	-19.3	-19.3	-19.4	---	---	17.4	NE	0.29	18.3	-32.0	---	---	724.0	0.026	0.000	21.5	4	1
03/06/06	1:22 p	-19.4	-19.4	-19.6	---	---	17.4	NE	0.29	19.1	-32.1	---	---	724.1	0.026	0.000	21.5	5	1
03/06/06	1:23 p	-19.6	-19.6	-19.7	---	---	17.4	ENE	0.29	19.1	-32.3	---	---	724.1	0.026	0.000	21.6	4	1
03/06/06	1:24 p	-19.7	-19.7	-19.8	---	---	17.4	ENE	0.29	18.3	-32.5	---	---	724.0	0.026	0.000	21.5	5	1
03/06/06	1:25 p	-19.8	-19.8	-19.8	---	---	18.3	ENE	0.30	20.0	-32.9	---	---	724.0	0.027	0.000	21.5	4	1
03/06/06	1:26 p	-19.8	-19.8	-19.8	---	---	16.5	ENE	0.28	18.3	-32.3	---	---	724.1	0.026	0.000	21.5	4	1
03/06/06	1:27 p	-19.9	-19.8	-19.9	---	---	17.4	ENE	0.29	18.3	-32.7	---	---	724.0	0.027	0.000	21.5	4	1
03/06/06	1:28 p	-19.8	-19.8	-19.9	---	---	18.3	ENE	0.30	19.1	-32.9	---	---	724.0	0.027	0.000	21.4	5	1
03/06/06	1:29 p	-19.7	-19.7	-19.8	---	---	18.3	ENE	0.30	20.0	-32.8	---	---	724.0	0.026	0.000	21.4	4	1
03/06/06	1:30 p	-19.7	-19.6	-19.7	---	---	16.5	ENE	0.28	20.0	-32.2	---	---	724.1	0.026	0.000	21.4	4	1
03/06/06	1:31 p	-19.7	-19.7	-19.7	---	---	17.4	ENE	0.29	18.3	-32.4	---	---	724.0	0.026	0.000	21.4	4	1
03/06/06	1:32 p	-19.8	-19.7	-19.9	---	---	16.5	ENE	0.28	18.3	-32.4	---	---	724.1	0.027	0.000	21.4	4	1
03/06/06	1:33 p	-19.9	-19.9	-20.0	---	---	17.4	ENE	0.29	19.1	-32.8	---	---	724.0	0.027	0.000	21.4	4	1
03/06/06	1:34 p	-20.0	-19.9	-20.1	---	---	16.5	ENE	0.28	18.3	-32.6	---	---	723.9	0.027	0.000	21.3	4	1
03/06/06	1:35 p	-20.2	-20.1	-20.3	---	---	15.7	NE	0.26	17.4	-32.6	---	---	724.0	0.027	0.000	21.3	4	1
03/06/06	1:36 p	-20.4	-20.4	-20.4	---	---	16.5	NE	0.28	18.3	-33.1	---	---	724.0	0.027	0.000	21.3	4	1
03/06/06	1:37 p	-20.4	-20.4	-20.4	---	---	17.4	NE	0.29	19.1	-33.4	---	---	723.9	0.027	0.000	21.4	4	1
03/06/06	1:38 p	-20.4	-20.3	-20.4	---	---	18.3	NE	0.30	20.0	-33.6	---	---	724.0	0.027	0.000	21.4	4	1
03/06/06	1:39 p	-20.3	-20.3	-20.4	---	---	18.3	ENE	0.30	19.1	-33.6	---	---	723.9	0.027	0.000	21.4	4	1
03/06/06	1:40 p	-20.3	-20.3	-20.4	---	---	19.1	NE	0.32	20.9	-33.8	---	---	724.0	0.027	0.000	21.4	4	1
03/06/06	1:41 p	-20.3	-20.2	-20.3	---	---	19.1	ENE	0.32	20.9	-33.7	---	---	724.0	0.027	0.000	21.4	4	1
03/06/06	1:42 p	-20.2	-20.1	-20.2	---	---	20.0	ENE	0.33	20.9	-33.8	---	---	724.0	0.027	0.000	21.4	4	1
03/06/06	1:43 p	-20.1	-20.1	-20.2	---	---	19.1	ENE	0.32	21.7	-33.5	---	---	724.0	0.027	0.000	21.4	4	1
03/06/06	1:44 p	-20.2	-20.2	-20.3	---	---	17.4	NE	0.29	19.1	-33.2	---	---	724.0	0.027	0.000	21.4	4	1
03/06/06	1:45 p	-20.3	-20.3	-20.3	---	---	19.1	NE	0.32	20.9	-33.7	---	---	724.0	0.027	0.000	21.4	4	1
03/06/06	1:46 p	-20.3	-20.3	-20.4	---	---	18.3	NE	0.30	20.0	-33.6	---	---	724.0	0.027	0.000	21.4	4	1
03/06/06	1:47 p	-20.4	-20.4	-20.4	---	---	19.1	NE	0.32	20.0	-33.9	---	---	724.0	0.027	0.000	21.4	4	1
03/06/06	1:48 p	-20.5	-20.4	-20.6	---	---	18.3	NE	0.30	20.0	-33.8	---	---	724.0	0.027	0.000	21.4	4	1
03/06/06	1:49 p	-20.6	-20.6	-20.6	---	---	20.0	ENE	0.33	21.7	-34.4	---	---	724.0	0.027	0.000	21.4	4	1
03/06/06	1:50 p	-20.6	-20.6	-20.6	---	---	19.1	NE	0.32	20.9	-34.1	---	---	724.0	0.027	0.000	21.4	4	1
03/06/06	1:51 p	-20.6	-20.4	-20.6	---	---	20.0	ENE	0.33	21.7	-34.3	---	---	723.9	0.027	0.000	21.4	4	1
03/06/06	1:52 p	-20.3	-20.3	-20.4	---	---	20.0	ENE	0.33	22.6	-34.1	---	---	723.8	0.027	0.000	21.4	4	1
03/06/06	1:53 p	-20.4	-20.3	-20.5	---	---	20.9	NE	0.35	23.5	-34.4	---	---	724.0	0.027	0.000	21.4	4	1
03/06/06	1:54 p	-20.6	-20.6	-20.7	---	---	17.4	ENE	0.29	19.1	-33.7	---	---	724.0	0.027	0.000	21.4	4	1
03/06/06	1:55 p	-20.7	-20.7	-20.7	---	---	21.7	ENE	0.36	25.2	-35.1	---	---	723.9	0.027	0.000	21.4	4	1
03/06/06	1:56 p	-20.7	-20.7	-20.7	---	---	20.0	NE	0.33	24.3	-34.6	---	---	724.0	0.027	0.000	21.4	4	1
03/06/06	1:57 p	-20.7	-20.7	-20.7	---	---	17.4	NE	0.29	20.0	-33.8	---	---	724.0	0.027	0.000	21.4	4	1
03/06/06	1:58 p	-20.8	-20.7	-20.8	---	---	22.6	ENE	0.38	26.1	-35.3	---	---	723.8	0.027	0.000	21.4	4	1
03/06/06	1:59 p	-20.7	-20.7	-20.7	---	---	21.7	NE	0.36	26.1	-35.1	---	---	724.1	0.027	0.000	21.4	4	1
03/06/06	2:00 p	-20.7	-20.7	-20.7	---	---	15.7	NE	0.26	21.7	-33.2	---	---	723.9	0.027	0.000	21.4	4	1
03/06/06	2:01 p	-20.7	-20.7	-20.7	---	---	20.9	E	0.35	24.3	-34.7	---	---	723.7	0.027	0.000	21.4	4	1
03/06/06	2:02 p	-20.6	-20.5	-20.6	---	---	20.9	ENE	0.35	24.3	-34.6	---	---	724.0	0.027	0.000	21.4	4	1
03/06/06	2:03 p	-20.5	-20.5	-20.5	---	---	13.9	NE	0.23	19.1	-32.3	---	---	723.9	0.027	0.000	21.4	4	1
03/06/06	2:04 p	-20.4	-20.2	-20.5	---	---	21.7	E	0.36	26.1	-34.6	---	---	723.9	0.027	0.000	21.4	4	1
03/06/06	2:05 p	-20.2	-20.1	-20.2	---	---	20.9	ENE	0.35	25.2	-34.1	---	---	724.0	0.027	0.000	21.4	4	1
03/06/06	2:06 p	-20.1	-20.1	-20.1	---	---	22.6	ENE	0.38	27.8	-34.4	---	---	723.8	0.027	0.000	21.4	4	1
03/06/06	2:07 p	-20.1	-20.1	-20.2	---	---	23.5	ENE	0.39	26.1	-34.6	---	---	723.9	0.027	0.000	21.4	4	1
03/06/06	2:08 p	-20.3	-20.2	-20.4	---	---	20.0	ENE	0.33	22.6	-34.0	---	---	724.0	0.027	0.000	21.4	4	1
03/06/06	2:09 p	-20.4	-20.4	-20.5	---	---	21.7	ENE	0.36	24.3	-34.7	---	---	723.8	0.027	0.000	21.4	4	1
03/06/06	2:10 p	-20.4	-20.3	-20.4	---	---	18.3	E	0.30	21.7	-33.7	---	---	724.0	0.027	0.000	21.4	4	1
03/06/06	2:11 p	-20.1	-19.9	-20.3	---	---	20.0	E	0.33	23.5	-33.8	---	---	723.9	0.027	0.000	21.4	4	1
03/06/06	2:12 p	-19.8	-19.7	-19.8	---	---	22.6	E	0.38	26.1	-34.0	---	---	723.8	0.026	0.000	21.4	4	1
03/06/06	2:13 p	-19.8	-19.8	-19.8	---	---	23.5	ENE	0.39	25.2	-34.2	---	---	723.9	0.026	0.000	21.4	4	1
03/06/06	2:14 p	-19.9	-19.8	-20.1	---	---	23.5	ENE	0.39	24.3	-34.4	---	---	723.8	0.027	0.000	21.4	4	1
03/06/06	2:15 p	-20.1	-20.1	-20.2	---	---	20.0	ENE	0.33	22.6	-33.8	---	---	723.8	0.027	0.000	21.4	4	1
03/06/06	2:16 p	-19.9	-19.7	-20.0	---	---	24.3	E	0.41	27.8	-34.6	---	---	723.9	0.027	0.000	21.4	4	1
03/06/06	2:17 p	-19.6	-19.5	-19.6	---	---	21.7	ENE	0.36	25.2	-33.5	---	---	723.8	0.026	0.000	21.4	4	1
03/06/06	2:18 p	-19.6	-19.5	-19.6	---	---	23.5	ENE	0.39	26.1	-33.9	---	---	724.0	0.026	0.000	21.4	4	1
03/06/06	2:19 p	-19.6	-19.5	-19.6	---	---	20.0	ENE	0.33	27.8	-33.0	---	---	723.7	0.026	0.000	21.4	4	1
03/06/06	2:20 p	-19.2	-18.9	-19.4	---	---	23.5	E	0.39	27.8	-33.4	---	---	723.8	0.026	0.000	21.4	4	1
03/06/06	2:21 p	-18.8	-18.8	-18.9	---	---	24.3	ENE	0.41	27.8	-33.2	---	---	723.9	0.026	0.000	21.4	4	1
03/06/06	2:22 p	-18.9	-18.9	-19.1	---	---	21.7	E	0.36	25.2	-32.7	---	---	723.9	0.026	0.000	21.4	4	1
03/06/06	2:23 p	-19.1	-19.0	-19.1	---	---	20.0	E	0.33	24.3	-32.4	---	---	723.9	0.026	0.000	21.4	4	1
03/06/06	2:24 p	-18.9	-18.8	-18.9	---	---	21.7	E	0.36	27.8	-32.6	---	---	723.8	0.026	0.000	21.4	4	1
03/06/06	2:25 p	-18.9	-18.8	-18.9	---	---	21.7	E	0.36	27.8	-32.6	---	---	723.8	0.026	0.000	21.4	4	1
03/06/06	2:26 p	-18.9	-18.8	-18.9	---	---	24.3	E	0.41	33.0	-33.2	---	---	723.9	0.026	0.000	21.4	4	1
03/06/06	2:27 p	-18.6	-18.5	-18.7	---	---	24.3	E	0.41	27.8	-32.8	---	---	723.8	0.026	0.000	21.4	4	1
03/06/06	2:28 p	-18.6	-18.6	-18.8	---	---	22.6	E	0.38	27.8	-32.4	---	---	723.7	0.026	0.000	21.4	4	1
03/06/06	2:29 p	-18.9	-18.9	-19.0	---	---	23.5	E	0.39	26.1	-33.0	---	---	723.7	0.026	0.000	21.4	4	1
03/06/06	2:30 p	-19.1	-19.0	-19.1	---	---	27.0	E	0.45	31.3	-34.0	---	---	723.8	0.026	0.000	21.4	4	1
03/06/06	2:31 p	-19.1	-19.0	-19.2	---	---	25.2	ENE	0.42	27.8	-33.6	---	---	723.8	0.026	0.000	21.4	4	1
03/06/06	2:32 p	-19.3	-19.2	-19.3	---	---	22.6	ENE	0.38	29.6	-33.3	---	---	723.7	0.026	0.000	21.4	4	1
03/06/06	2:33 p	-19.1	-18.9	-19.2	---	---	28.7	E	0.48	34.8	-34.4	---	---	723.6	0.026	0.000	21.4	4	1
03/06/06	2:34 p	-18.7	-18.6	-18.8	---	---	23.5	E	0.39	30.4	-32.8	---	---	723.8	0.026	0.000	21.4	4	1
03/06/06	2:35 p	-18.6	-18.6	-18.7	---	---	22.6	E	0.38	27.8	-32.4	---	---	723.8	0.026	0.000	21.4	4	1
03/06/06	2:36 p	-18.7	-18.6	-18.7	---	---	22.6	E	0.38	27.8	-32.5	---	---	723.8	0.026	0.000	21.4	4	1
03/06/06	2:37 p	-18.7	-18.7	-18.7	---	---	22.6	E	0.38	27.0	-32.5	---	---	723.6	0.026	0.000	21.4	4	1
03/06/06	2:38 p	-18.7	-18.7	-18.7	---	---	25.2	E	0.42	29.6	-33.1	---	---	723.8	0.026	0.000	21.4	4	1
03/06/06	2:39 p	-18.7	-18.6	-18.8	---	---	22.6	E	0.38	27.8	-32.5	---	---	723.7	0.026	0.000	21.4	4	1
03/06/06	2:40 p	-18.8	-18.8	-18.8	---	---	24.3	E	0.41	27.8	-33.1	---	---	723.7	0.026	0.000	21.4	3	1
03/06/06	2:41 p	-18.7	-18.7	-18.8	---	---	22.6	E	0.38	29.6	-32.6	---	---	723.7	0.026	0.000	21.4	4	1
03/06/06	2:42 p	-18.7	-18.5	-18.7	---	---	24.3	E	0.41	27.0	-32.9	---	---	723.8	0.026	0.000	21.4	3	1
03/06/06	2:43 p	-18.4	-18.4	-18.6	---	---	24.3	E	0.41	32.2	-32.6	---	---	723.8	0.026	0.000	21.4	3	1
03/06/06	2:44 p	-18.7	-18.7	-18.8	---	---	25.2	ENE	0.42	27.8	-33.2	---	---	724.0	0.026	0.000	21.4	4	1
03/06/06	2:45 p	-18.9	-18.9	-19.0	---	---	24.3	ENE	0.41	29.6	-33.3	---	---	723.7	0.026	0.000	21.4	3	1
03/06/06	2:46 p	-18.8	-18.6	-18.9	---	---	27.8	E	0.46	34.8	-33.9	---	---	723.6	0.026	0.000	21.4	3	1
03/06/06	2:47 p	-18.6	-18.5	-18.6	---	---	25.2	E	0.42	31.3	-32.9	---	---	723.8	0.026	0.000	21.4	4	1
03/06/06	2:48 p	-18.6	-18.5	-18.6	---	---	22.6	E	0.38	28.7	-32.3	---	---	723.7	0.026	0.000	21.4	3	1
03/06/06	2:49 p	-18.7	-18.6	-18.7	---	---	22.6	E	0.38	29.6	-32.5	---	---	723.7	0.026	0.000	21.4	3	1
03/06/06	2:50 p	-18.6	-18.4	-18.6	---	---	24.3	E	0.41	27.8	-32.8	---	---	723.7	0.026	0.000	21.4	3	1
03/06/06	2:51 p	-18.5	-18.4	-18.6	---	---	24.3	E	0.41	28.7	-32.7	---	---	723.7	0.026	0.000	21.4	3	1
03/06/06	2:52 p	-18.6	-18.6	-18.7	---	---	23.5	E	0.39	28.7	-32.7	---	---	723.6	0.026	0.000	21.4	3	1
03/06/06	2:53 p	-18.7	-18.6	-18.7	---	---	23.5	E	0.39	30.4	-32.8	---	---	723.7	0.026	0.000	21.4	3	1
03/06/06	2:54 p	-18.7	-18.5	-18.8	---	---	27.8	E	0.46	33.9	-33.7	---	---	723.7	0.026	0.000	21.4	3	1
03/06/06	2:55 p	-18.4	-18.4	-18.5	---	---	23.5	E	0.39	28.7	-32.4	---	---	723.8	0.026	0.000	21.4	3	1
03/06/06	2:56 p	-18.7	-18.6	-18.9	---	---	22.6	E	0.38	27.8	-32.6	---	---	723.8	0.026	0.000	21.4	3	1
03/06/06	2:57 p	-18.9	-18.9	-18.9	---	---	25.2	E	0.42	29.6	-33.5	---	---	723.7	0.026	0.000	21.4	3	1
03/06/06	2:58 p	-18.9	-18.9	-19.0	---	---	24.3	E	0.41	29.6	-33.3	---	---	723.8	0.026	0.000	21.4	3	1
03/06/06	2:59 p	-19.1	-19.1	-19.3	---	---	24.3	E	0.41	27.8	-33.5	---	---	723.8	0.026	0.000	21.4	3	1
03/06/06	3:00 p	-19.3	-19.2	-19.3	---	---	25.2	E	0.42	33.0	-33.9	---	---	723.7	0.026	0.000	21.4	3	1
03/06/06	3:01 p	-19.1	-19.1	-19.1	---	---	25.2	E	0.42	31.3	-33.7	---	---	723.8	0.026	0.000	21.4	3	1
03/06/06	3:02 p	-19.1	-19.0	-19.2	---	---	25.2	E	0.42	30.4	-33.6	---	---	723.9	0.026	0.000	21.4	3	1
03/06/06	3:03 p	-19.3	-19.2	-19.3	---	---	24.3	E	0.41	30.4	-33.7	---	---	723.8	0.026	0.000	21.4	3	1
03/06/06	3:04 p	-19.3	-19.2	-19.3	---	---	24.3	E	0.41	29.6	-33.7	---	---	723.7	0.026	0.000	21.4	3	1
03/06/06	3:05 p	-19.2	-19.2	-19.2	---	---	24.3	E	0.41	30.4	-33.7	---	---	723.8	0.026	0.000	21.4	3	1
03/06/06	3:06 p	-19.2	-19.1	-19.2	---	---	26.1	E	0.43	32.2	-34.0	---	---	723.7	0.026	0.000	21.4	3	1
03/06/06	3:07 p	-19.1	-19.1	-19.1	---	---	26.1	E	0.43	34.8	-33.8	---	---	723.6	0.026	0.000	21.4	3	1
03/06/06	3:08 p	-19.1	-19.1	-19.1	---	---	25.2	E	0.42	32.2	-33.7	---	---	723.5	0.026	0.000	21.4	3	1
03/06/06	3:09 p	-19.1	-19.1	-19.1	---	---	25.2	E	0.42	29.6	-33.7	---	---	723.7	0.026	0.000	21.3	3	1
03/06/06	3:10 p	-19.1	-19.1	-19.1	---	---	26.1	E	0.43	31.3	-33.9	---	---	723.7	0.026	0.000	21.4	3	1
03/06/06	3:11 p	-19.1	-19.0	-19.1	---	---	26.1	E	0.43	32.2	-33.8	---	---	723.6	0.026	0.000	21.3	3	1
03/06/06	3:12 p	-18.9	-18.9	-19.0	---	---	26.1	ESE	0.43	29.6	-33.7	---	---	723.7	0.026	0.000	21.3	3	1
03/06/06	3:13 p	-19.1	-19.0	-19.2	---	---	24.3	E	0.41	30.4	-33.5	---	---	723.7	0.026	0.000	21.3	3	1
03/06/06	3:14 p	-19.2	-19.1	-19.2	---	---	28.7	E	0.48	32.2	-34.5	---	---	723.8	0.026	0.000	21.3	3	1
03/06/06	3:15 p	-19.2	-19.1	-19.3	---	---	25.2	E	0.42	31.3	-33.9	---	---	723.7	0.026	0.000	21.3	3	1
03/06/06	3:16 p	-19.3	-19.3	-19.3	---	---	25.2	E	0.42	31.3	-34.0	---	---	723.7	0.026	0.000	21.3	3	1
03/06/06	3:17 p	-19.2	-19.2	-19.3	---	---	27.0	E	0.45	33.0	-34.2	---	---	723.9	0.026	0.000	21.3	3	1
03/06/06	3:18 p	-19.2	-19.2	-19.3	---	---	27.8	E	0.46	32.2	-34.4	---	---	723.8	0.026	0.000	21.3	3	1
03/06/06	3:19 p	-19.3	-19.2	-19.3	---	---	24.3	E	0.41	33.0	-33.7	---	---	723.9	0.026	0.000	21.3	3	1
03/06/06	3:20 p	-19.3	-19.2	-19.3	---	---	22.6	E	0.38	26.1	-33.3	---	---	724.0	0.026	0.000	21.3	3	1
03/06/06	3:21 p	-19.2	-19.2	-19.2	---	---	25.2	E	0.42	34.8	-33.9	---	---	723.6	0.026	0.000	21.3	3	1
03/06/06	3:22 p	-19.0	-18.9	-19.1	---	---	31.3	E	0.52	41.7	-34.8	---	---	723.7	0.026	0.000	21.3	3	1
03/06/06	3:23 p	-19.1	-18.9	-19.1	---	---	27.0	E	0.45	36.5	-34.0	---	---	723.7	0.026	0.000	21.3	3	1
03/06/06	3:24 p	-18.9	-18.8	-19.0	---	---	31.3	E	0.52	39.1	-34.7	---	---	723.6	0.026	0.000	21.3	3	1
03/06/06	3:25 p	-18.7	-18.6	-18.8	---	---	33.0	E	0.55	42.6	-34.7	---	---	723.5	0.026	0.000	21.3	3	1
03/06/06	3:26 p	-18.5	-18.5	-18.6	---	---	27.8	E	0.46	32.2	-33.4	---	---	723.7	0.026	0.000	21.3	3	1
03/06/06	3:27 p	-18.7	-18.6	-18.7	---	---	31.3	E	0.52	35.7	-34.3	---	---	723.8	0.026	0.000	21.3	3	1
03/06/06	3:28 p	-18.6	-18.6	-18.7	---	---	28.7	E	0.48	33.9	-33.8	---	---	723.7	0.026	0.000	21.3	3	1
03/06/06	3:29 p	-18.7	-18.6	-18.7	---	---	27.0	E	0.45	33.0	-33.5	---	---	723.9	0.026	0.000	21.3	3	1
03/06/06	3:30 p	-18.8	-18.8	-18.9	---	---	24.3	E	0.41	28.7	-33.2	---	---	723.9	0.026	0.000	21.3	3	1
03/06/06	3:31 p	-18.9	-18.9	-18.9	---	---	25.2	E	0.42	34.8	-33.4	---	---	723.8	0.026	0.000	21.3	3	1
03/06/06	3:32 p	-18.9	-18.9	-18.9	---	---	27.0	E	0.45	30.4	-33.8	---	---	723.8	0.026	0.000	21.3	3	1
03/06/06	3:33 p	-19.0	-18.9	-19.0	---	---	25.2	E	0.42	31.3	-33.6	---	---	723.8	0.026	0.000	21.3	3	1
03/06/06	3:34 p	-19.0	-18.9	-19.0	---	---	26.1	E	0.43	29.6	-33.8	---	---	723.8	0.026	0.000	21.3	3	1
03/06/06	3:35 p	-19.1	-19.0	-19.1	---	---	25.2	E	0.42	32.2	-33.6	---	---	723.8	0.026	0.000	21.3	3	1
03/06/06	3:36 p	-19.0	-19.0	-19.0	---	---	26.1	E	0.43	30.4	-33.8	---	---	723.8	0.026	0.000	21.3	3	1
03/06/06	3:37 p	-19.0	-19.0	-19.0	---	---	26.1	E	0.43	32.2	-33.8	---	---	723.7	0.026	0.000	21.3	3	1
03/06/06	3:38 p	-19.1	-19.0	-19.1	---	---	27.0	E	0.45	30.4	-34.0	---	---	723.7	0.026	0.000	21.3	3	1
03/06/06	3:39 p	-19.2	-19.1	-19.3	---	---	27.0	E	0.45	33.0	-34.2	---	---	723.7	0.026	0.000	21.2	3	1
03/06/06	3:40 p	-19.2	-19.2	-19.2	---	---	23.5	E	0.39	30.4	-33.4	---	---	723.8	0.026	0.000	21.2	3	1
03/06/06	3:41 p	-19.1	-19.1	-19.2	---	---	27.0	E	0.45	34.8	-34.1	---	---	723.7	0.026	0.000	21.2	3	1
03/06/06	3:42 p	-19.1	-19.1	-19.1	---	---	25.2	E	0.42	28.7	-33.7	---	---	723.9	0.026	0.000	21.2	3	1
03/06/06	3:43 p	-19.2	-19.1	-19.2	---	---	25.2	E	0.42	28.7	-33.8	---	---	723.9	0.026	0.000	21.2	3	1
03/06/06	3:44 p	-19.2	-19.2	-19.2	---	---	26.1	E	0.43	29.6	-34.1	---	---	723.8	0.026	0.000	21.2	3	1
03/06/06	3:45 p	-19.1	-19.0	-19.2	---	---	26.1	E	0.43	31.3	-33.9	---	---	723.8	0.026	0.000	21.2	3	1
03/06/06	3:46 p	-19.1	-19.0	-19.1	---	---	24.3	E	0.41	33.0	-33.4	---	---	723.8	0.026	0.000	21.2	3	1
03/06/06	3:47 p	-18.9	-18.9	-19.0	---	---	26.1	E	0.43	33.9	-33.7	---	---	723.7	0.026	0.000	21.2	3	1
03/06/06	3:48 p	-18.9	-18.8	-18.9	---	---	26.1	E	0.43	32.2	-33.6	---	---	723.7	0.026	0.000	21.2	3	1
03/06/06	3:49 p	-18.8	-18.8	-18.8	---	---	27.8	E	0.46	32.2	-33.9	---	---	723.7	0.026	0.000	21.2	3	1
03/06/06	3:50 p	-18.9	-18.9	-19.0	---	---	25.2	E	0.42	33.0	-33.5	---	---	723.7	0.026	0.000	21.2	3	1
03/06/06	3:51 p	-18.9	-18.9	-19.0	---	---	26.1	E	0.43	31.3	-33.7	---	---	723.7	0.026	0.000	21.2	3	1
03/06/06	3:52 p	-18.9	-18.9	-19.0	---	---	25.2	E	0.42	27.8	-33.5	---	---	723.9	0.026	0.000	21.2	3	1
03/06/06	3:53 p	-19.1	-19.1	-19.2	---	---	24.3	E	0.41	28.7	-33.5	---	---	723.7	0.026	0.000	21.2	3	1
03/06/06	3:54 p	-19.2	-19.2	-19.3	---	---	25.2	E	0.42	29.6	-33.9	---	---	723.8	0.026	0.000	21.2	3	1
03/06/06	3:55 p	-19.3	-19.3	-19.3	---	---	27.0	E	0.45	33.9	-34.3	---	---	723.6	0.026	0.000	21.2	3	1
03/06/06	3:56 p	-19.3	-19.2	-19.3	---	---	26.1	E	0.43	31.3	-34.1	---	---	723.7	0.026	0.000	21.2	3	1
03/06/06	3:57 p	-19.3	-19.3	-19.4	---	---	26.1	E	0.43	32.2	-34.2	---	---	723.8	0.026	0.000	21.2	3	1
03/06/06	3:58 p	-19.5	-19.4	-19.5	---	---	28.7	E	0.48	33.0	-35.0	---	---	723.8	0.026	0.000	21.2	3	1
03/06/06	3:59 p	-19.5	-19.5	-19.6	---	---	31.3	E	0.52	35.7	-35.5	---	---	723.8	0.026	0.000	21.1	3	1
03/06/06	4:00 p	-19.5	-19.4	-19.5	---	---	29.6	E	0.49	37.4	-35.2	---	---	724.0	0.026	0.000	21.2	3	1
03/06/06	4:01 p	-19.4	-19.3	-19.4	---	---	29.6	E	0.49	33.9	-35.0	---	---	723.8	0.026	0.000	21.2	3	1
03/06/06	4:02 p	-19.3	-19.3	-19.3	---	---	28.7	E	0.48	33.9	-34.7	---	---	723.7	0.026	0.000	21.2	3	1
03/06/06	4:03 p	-19.2	-19.2	-19.3	---	---	28.7	E	0.48	33.9	-34.6	---	---	723.8	0.026	0.000	21.2	3	1
03/06/06	4:04 p	-19.2	-19.2	-19.3	---	---	24.3	E	0.41	29.6	-33.7	---	---	723.9	0.026	0.000	21.1	3	1
03/06/06	4:05 p	-19.3	-19.3	-19.4	---	---	28.7	E	0.48	33.0	-34.7	---	---	723.9	0.026	0.000	21.1	3	1
03/06/06	4:06 p	-19.4	-19.4	-19.5	---	---	28.7	E	0.48	33.9	-34.9	---	---	723.9	0.026	0.000	21.1	3	1
03/06/06	4:07 p	-19.5	-19.5	-19.5	---	---	28.7	E	0.48	31.3	-35.0	---	---	724.0	0.026	0.000	21.1	2	1
03/06/06	4:08 p	-19.4	-19.3	-19.5	---	---	28.7	E	0.48	33.9	-34.9	---	---	723.9	0.026	0.000	21.1	3	1
03/06/06	4:09 p	-19.4	-19.3	-19.4	---	---	26.1	E	0.43	28.7	-34.3	---	---	723.8	0.026	0.000	21.1	2	1
03/06/06	4:10 p	-19.4	-19.4	-19.5	---	---	28.7	E	0.48	33.0	-34.9	---	---	723.9	0.026	0.000	21.1	3	1
03/06/06	4:11 p	-19.5	-19.5	-19.6	---	---	28.7	E	0.48	33.0	-35.0	---	---	723.8	0.026	0.000	21.1	3	1
03/06/06	4:12 p	-19.6	-19.6	-19.6	---	---	27.0	E	0.45	32.2	-34.7	---	---	723.8	0.026	0.000	21.1	2	1
03/06/06	4:13 p	-19.6	-19.6	-19.7	---	---	27.8	E	0.46	33.0	-34.9	---	---	723.8	0.026	0.000	21.1	2	1
03/06/06	4:14 p	-19.7	-19.7	-19.7	---	---	28.7	E	0.48	31.3	-35.2	---	---	723.8	0.026	0.000	21.1	2	1
03/06/06	4:15 p	-19.7	-19.7	-19.7	---	---	27.0	E	0.45	34.8	-34.8	---	---	723.8	0.026	0.000	21.1	2	1
03/06/06	4:16 p	-19.7	-19.6	-19.7	---	---	31.3	E	0.52	35.7	-35.7	---	---	723.8	0.026	0.000	21.1	2	1
03/06/06	4:17 p	-19.7	-19.7	-19.7	---	---	30.4	E	0.51	33.9	-35.6	---	---	723.8	0.026	0.000	21.1	2	1
03/06/06	4:18 p	-19.7	-19.7	-19.7	---	---	27.0	E	0.45	33.0	-34.9	---	---	723.7	0.026	0.000	21.1	2	1
03/06/06	4:19 p	-19.7	-19.7	-19.7	---	---	27.8	E	0.46	32.2	-35.0	---	---	723.7	0.026	0.000	21.1	2	1
03/06/06	4:20 p	-19.7	-19.7	-19.7	---	---	29.6	E	0.49	33.0	-35.4	---	---	723.7	0.026	0.000	21.1	2	1
03/06/06	4:21 p	-19.7	-19.7	-19.7	---	---	28.7	E	0.48	32.2	-35.3	---	---	723.7	0.026	0.000	21.1	2	1
03/06/06	4:22 p	-19.8	-19.7	-19.8	---	---	30.4	E	0.51	33.9	-35.7	---	---	723.7	0.026	0.000	21.1	2	1
03/06/06	4:23 p	-19.8	-19.8	-19.9	---	---	30.4	E	0.51	34.8	-35.8	---	---	723.8	0.027	0.000	21.1	2	1
03/06/06	4:24 p	-19.8	-19.8	-19.9	---	---	29.6	E	0.49	35.7	-35.6	---	---	723.9	0.027	0.000	21.1	2	1
03/06/06	4:25 p	-19.9	-19.8	-19.9	---	---	30.4	ENE	0.51	34.8	-35.8	---	---	723.8	0.027	0.000	21.0	2	1
03/06/06	4:26 p	-19.8	-19.8	-19.9	---	---	31.3	ENE	0.52	35.7	-35.9	---	---	723.9	0.027	0.000	21.0	2	1
03/06/06	4:27 p	-19.9	-19.9	-19.9	---	---	32.2	E	0.54	34.8	-36.2	---	---	723.8	0.027	0.000	21.0	2	1
03/06/06	4:28 p	-19.9	-19.9	-19.9	---	---	30.4	E	0.51	33.9	-35.9	---	---	723.8	0.027	0.000	21.0	2	1
03/06/06	4:29 p	-19.9	-19.9	-19.9	---	---	30.4	E	0.51	34.8	-35.9	---	---	723.8	0.027	0.000	21.0	2	1
03/06/06	4:30 p	-19.9	-19.9	-19.9	---	---	29.6	E	0.49	33.9	-35.8	---	---	723.9	0.027	0.000	21.0	2	1
03/06/06	4:31 p	-19.9	-19.9	-19.9	---	---	32.2	ENE	0.54	36.5	-36.3	---	---	723.8	0.027	0.000	21.0	2	1
03/06/06	4:32 p	-19.9	-19.9	-19.9	---	---	32.2	ENE	0.54	35.7	-36.2	---	---	723.9	0.027	0.000	20.9	2	1
03/06/06	4:33 p	-19.9	-19.9	-19.9	---	---	30.4	E	0.51	35.7	-35.9	---	---	723.7	0.027	0.000	20.9	2	1
03/06/06	4:34 p	-19.9	-19.9	-19.9	---	---	31.3	E	0.52	33.9	-36.1	---	---	723.8	0.027	0.000	20.9	2	1
03/06/06	4:35 p	-19.9	-19.9	-19.9	---	---	30.4	E	0.51	34.8	-35.9	---	---	723.8	0.027	0.000	20.9	2	1
03/06/06	4:36 p	-19.9	-19.9	-19.9	---	---	29.6	E	0.49	33.9	-35.8	---	---	723.9	0.027	0.000	20.9	2	1
03/06/06	4:37 p	-19.9	-19.9	-19.9	---	---	32.2	E	0.54	34.8	-36.3	---	---	723.8	0.027	0.000	20.9	2	1
03/06/06	4:38 p	-20.0	-19.9	-20.0	---	---	32.2	ENE	0.54	34.8	-36.3	---	---	723.9	0.027	0.000	20.9	2	1
03/06/06	4:39 p	-20.0	-19.9	-20.0	---	---	33.0	ENE	0.55	36.5	-36.5	---	---	723.8	0.027	0.000	20.9	2	1
03/06/06	4:40 p	-20.0	-20.0	-20.0	---	---	31.3	E	0.52	35.7	-36.2	---	---	723.8	0.027	0.000	20.9	2	1
03/06/06	4:41 p	-20.0	-20.0	-20.0	---	---	32.2	E	0.54	34.8	-36.3	---	---	723.8	0.027	0.000	20.9	2	1
03/06/06	4:42 p	-20.0	-19.9	-20.0	---	---	33.9	ENE	0.57	36.5	-36.7	---	---	723.8	0.027	0.000	20.9	2	1
03/06/06	4:43 p	-20.0	-19.9	-20.0	---	---	31.3	ENE	0.52	35.7	-36.2	---	---	723.8	0.027	0.000	20.9	2	1
03/06/06	4:44 p	-20.0	-19.9	-20.0	---	---	31.3	ENE	0.52	35.7	-36.2	---	---	723.8	0.027	0.000	20.9	2	1
03/06/06	4:45 p	-20.0	-19.9	-20.0	---	---	31.3	ENE	0.52	36.5	-36.2	---	---	723.7	0.027	0.000	20.9	2	1
03/06/06	4:46 p	-20.0	-19.9	-20.0	---	---	29.6	E	0.49	34.8	-35.8	---	---	723.9	0.027	0.000	20.9	2	1
03/06/06	4:47 p	-20.0	-19.9	-20.0	---	---	29.6	ENE	0.49	33.9	-35.8	---	---	723.9	0.027	0.000	20.9	2	1
03/06/06	4:48 p	-20.0	-19.9	-20.0	---	---	30.4	ENE	0.51	36.5	-36.0	---	---	723.9	0.027	0.000	20.9	2	1
03/06/06	4:49 p	-19.9	-19.9	-20.0	---	---	30.4	E	0.51	33.0	-35.9	---	---	723.8	0.027	0.000	20.9	2	1
03/06/06	4:50 p	-19.9	-19.9	-20.0	---	---	30.4	E	0.51	35.7	-35.9	---	---	723.8	0.027	0.000	20.9	2	1
03/06/06	4:51 p	-19.9	-19.9	-19.9	---	---	32.2	E	0.54	35.7	-36.3	---	---	723.8	0.027	0.000	20.9	2	1
03/06/06	4:52 p	-19.9	-19.9	-20.0	---	---	32.2	E	0.54	38.3	-36.3	---	---	723.8	0.027	0.000	20.9	2	1
03/06/06	4:53 p	-20.0	-20.0	-20.0	---	---	30.4	E	0.51	33.9	-36.0	---	---	723.8	0.027	0.000	20.8	2	1
03/06/06	4:54 p	-20.0	-20.0	-20.0	---	---	32.2	E	0.54	36.5	-36.3	---	---	723.9	0.027	0.000	20.8	2	1
03/06/06	4:55 p	-20.0	-20.0	-20.0	---	---	27.8	E	0.46	33.0	-35.5	---	---	723.7	0.027	0.000	20.8	2	1
03/06/06	4:56 p	-20.0	-19.9	-20.1	---	---	30.4	E	0.51	35.7	-36.0	---	---	723.9	0.027	0.000	20.8	2	1
03/06/06	4:57 p	-20.0	-20.0	-20.1	---	---	31.3	E	0.52	35.7	-36.2	---	---	723.9	0.027	0.000	20.8	2	1
03/06/06	4:58 p	-20.0	-20.0	-20.0	---	---	31.3	E	0.52	34.8	-36.2	---	---	723.9	0.027	0.000	20.8	2	1
03/06/06	4:59 p	-20.0	-20.0	-20.0	---	---	29.6	E	0.49	34.8	-35.8	---	---	723.8	0.027	0.000	20.8	2	1
03/06/06	5:00 p	-20.0	-20.0	-20.0	---	---	31.3	E	0.52	35.7	-36.2	---	---	723.8	0.027	0.000	20.8	2	1
03/06/06	5:01 p	-20.0	-19.9	-20.0	---	---	30.4	E	0.51	34.8	-36.0	---	---	723.8	0.027	0.000	20.8	2	1
03/06/06	5:02 p	-19.9	-19.9	-19.9	---	---	31.3	E	0.52	35.7	-36.1	---	---	723.8	0.027	0.000	20.8	2	1
03/06/06	5:03 p	-19.9	-19.9	-19.9	---	---	30.4	E	0.51	34.8	-35.9	---	---	723.8	0.027	0.000	20.8	2	1
03/06/06	5:04 p	-20.0	-20.0	-20.0	---	---	29.6	E	0.49	33.9	-35.8	---	---	723.7	0.027	0.000	20.8	2	1
03/06/06	5:05 p	-20.0	-19.9	-20.0	---	---	28.7	E	0.48	33.0	-35.7	---	---	723.9	0.027	0.000	20.7	2	1
03/06/06	5:06 p	-19.9	-19.9	-19.9	---	---	31.3	ENE	0.52	35.7	-36.1	---	---	723.9	0.027	0.000	20.7	2	1
03/06/06	5:07 p	-19.9	-19.9	-20.0	---	---	33.0	E	0.55	37.4	-36.4	---	---	723.8	0.027	0.000	20.7	2	1
03/06/06	5:08 p	-19.9	-19.9	-20.0	---	---	30.4	E	0.51	37.4	-35.9	---	---	723.7	0.027	0.000	20.7	2	1
03/06/06	5:09 p	-19.9	-19.9	-19.9	---	---	28.7	E	0.48	36.5	-35.6	---	---	723.8	0.027	0.000	20.7	2	1
03/06/06	5:10 p	-19.9	-19.9	-19.9	---	---	32.2	E	0.54	36.5	-36.3	---	---	723.8	0.027	0.000	20.7	2	1
03/06/06	5:11 p	-19.9	-19.9	-20.0	---	---	33.9	ENE	0.57	37.4	-36.6	---	---	723.9	0.027	0.000	20.7	2	1
03/06/06	5:12 p	-20.0	-20.0	-20.0	---	---	29.6	ENE	0.49	33.9	-35.8	---	---	723.8	0.027	0.000	20.7	2	1
03/06/06	5:13 p	-20.0	-20.0	-20.1	---	---	27.0	E	0.45	34.8	-35.3	---	---	723.9	0.027	0.000	20.7	2	1
03/06/06	5:14 p	-19.9	-19.9	-20.0	---	---	32.2	E	0.54	37.4	-36.3	---	---	723.8	0.027	0.000	20.7	2	1
03/06/06	5:15 p	-19.9	-19.9	-20.0	---	---	28.7	E	0.48	36.5	-35.6	---	---	723.8	0.027	0.000	20.7	2	1
03/06/06	5:16 p	-20.0	-19.9	-20.0	---	---	32.2	ENE	0.54	35.7	-36.3	---	---	724.0	0.027	0.000	20.7	2	1
03/06/06	5:17 p	-19.9	-19.9	-19.9	---	---	27.0	E	0.45	33.9	-35.2	---	---	723.8	0.027	0.000	20.7	2	1
03/06/06	5:18 p	-19.9	-19.9	-19.9	---	---	32.2	E	0.54	35.7	-36.2	---	---	724.0	0.027	0.000	20.7	2	1
03/06/06	5:19 p	-19.9	-19.9	-20.0	---	---	27.0	E	0.45	33.9	-35.2	---	---	723.8	0.027	0.000	20.6	2	1
03/06/06	5:20 p	-19.9	-19.8	-20.0	---	---	34.8	E	0.58	40.9	-36.7	---	---	724.1	0.027	0.000	20.6	2	1
03/06/06	5:21 p	-19.8	-19.8	-19.9	---	---	29.6	E	0.49	37.4	-35.6	---	---	723.8	0.027	0.000	20.6	2	1
03/06/06	5:22 p	-19.9	-19.9	-19.9	---	---	31.3	ENE	0.52	37.4	-36.1	---	---	724.1	0.027	0.000	20.6	2	1
03/06/06	5:23 p	-20.0	-19.9	-20.1	---	---	30.4	E	0.51	39.1	-36.0	---	---	723.8	0.027	0.000	20.6	2	1
03/06/06	5:24 p	-20.1	-20.0	-20.1	---	---	31.3	E	0.52	37.4	-36.2	---	---	723.9	0.027	0.000	20.6	2	1
03/06/06	5:25 p	-20.1	-20.0	-20.1	---	---	27.0	E	0.45	32.2	-35.4	---	---	723.9	0.027	0.000	20.6	2	1
03/06/06	5:26 p	-20.1	-20.1	-20.1	---	---	27.8	E	0.46	32.2	-35.6	---	---	723.8	0.027	0.000	20.6	2	1
03/06/06	5:27 p	-19.9	-19.9	-20.0	---	---	31.3	E	0.52	37.4	-36.1	---	---	724.2	0.027	0.000	20.6	2	1
03/06/06	5:28 p	-19.9	-19.9	-19.9	---	---	25.2	E	0.42	31.3	-34.8	---	---	723.9	0.027	0.000	20.6	2	1
03/06/06	5:29 p	-19.9	-19.9	-19.9	---	---	32.2	E	0.54	40.0	-36.3	---	---	724.0	0.027	0.000	20.6	2	1
03/06/06	5:30 p	-19.9	-19.9	-19.9	---	---	25.2	E	0.42	28.7	-34.8	---	---	724.1	0.027	0.000	20.6	2	1
03/06/06	5:31 p	-19.9	-19.8	-19.9	---	---	29.6	E	0.49	34.8	-35.7	---	---	723.8	0.027	0.000	20.6	2	1
03/06/06	5:32 p	-19.8	-19.8	-19.8	---	---	30.4	E	0.51	35.7	-35.7	---	---	723.9	0.026	0.000	20.6	2	1
03/06/06	5:33 p	-19.8	-19.8	-19.8	---	---	30.4	E	0.51	38.3	-35.7	---	---	724.0	0.026	0.000	20.6	2	1
03/06/06	5:34 p	-19.8	-19.8	-19.9	---	---	32.2	E	0.54	39.1	-36.1	---	---	723.8	0.027	0.000	20.6	2	1
03/06/06	5:35 p	-19.8	-19.8	-19.8	---	---	28.7	E	0.48	36.5	-35.4	---	---	723.7	0.027	0.000	20.6	2	1
03/06/06	5:36 p	-19.8	-19.8	-19.8	---	---	34.8	ENE	0.58	40.9	-36.5	---	---	724.0	0.026	0.000	20.6	2	1
03/06/06	5:37 p	-19.8	-19.8	-19.8	---	---	25.2	ENE	0.42	31.3	-34.6	---	---	723.9	0.026	0.000	20.6	2	1
03/06/06	5:38 p	-19.8	-19.8	-19.8	---	---	36.5	E	0.61	40.9	-36.8	---	---	724.0	0.027	0.000	20.6	2	1
03/06/06	5:39 p	-19.8	-19.8	-19.8	---	---	26.1	ENE	0.43	33.0	-34.8	---	---	724.0	0.026	0.000	20.6	2	1
03/06/06	5:40 p	-19.7	-19.7	-19.8	---	---	31.3	E	0.52	40.0	-35.8	---	---	723.8	0.026	0.000	20.5	2	1
03/06/06	5:41 p	-19.7	-19.7	-19.7	---	---	26.1	ENE	0.43	33.9	-34.7	---	---	724.0	0.026	0.000	20.5	2	1
03/06/06	5:42 p	-19.7	-19.7	-19.7	---	---	34.8	E	0.58	40.0	-36.4	---	---	724.0	0.026	0.000	20.5	2	1
03/06/06	5:43 p	-19.7	-19.7	-19.7	---	---	29.6	E	0.49	33.0	-35.4	---	---	723.9	0.026	0.000	20.5	2	1
03/06/06	5:44 p	-19.7	-19.7	-19.7	---	---	30.4	E	0.51	36.5	-35.6	---	---	724.1	0.026	0.000	20.5	2	1
03/06/06	5:45 p	-19.7	-19.7	-19.7	---	---	28.7	E	0.48	36.5	-35.2	---	---	723.7	0.026	0.000	20.5	2	1
03/06/06	5:46 p	-19.7	-19.7	-19.7	---	---	33.9	E	0.57	40.9	-36.3	---	---	724.1	0.026	0.000	20.5	2	1
03/06/06	5:47 p	-19.7	-19.7	-19.7	---	---	29.6	E	0.49	35.7	-35.4	---	---	723.8	0.026	0.000	20.4	2	1
03/06/06	5:48 p	-19.7	-19.7	-19.7	---	---	31.3	E	0.52	38.3	-35.8	---	---	724.2	0.026	0.000	20.4	2	1
03/06/06	5:49 p	-19.7	-19.7	-19.7	---	---	28.7	E	0.48	38.3	-35.3	---	---	723.7	0.026	0.000	20.4	2	1
03/06/06	5:50 p	-19.7	-19.7	-19.7	---	---	33.9	ENE	0.57	36.5	-36.3	---	---	724.1	0.026	0.000	20.4	2	1
03/06/06	5:51 p	-19.7	-19.7	-19.7	---	---	26.1	E	0.43	33.0	-34.7	---	---	723.8	0.026	0.000	20.4	2	1
03/06/06	5:52 p	-19.7	-19.7	-19.7	---	---	31.3	E	0.52	36.5	-35.8	---	---	724.0	0.026	0.000	20.4	2	1
03/06/06	5:53 p	-19.7	-19.7	-19.7	---	---	30.4	E	0.51	35.7	-35.6	---	---	723.8	0.026	0.000	20.4	2	1
03/06/06	5:54 p	-19.7	-19.7	-19.7	---	---	34.8	ENE	0.58	39.1	-36.3	---	---	724.0	0.026	0.000	20.4	2	1
03/06/06	5:55 p	-19.6	-19.6	-19.7	---	---	24.3	E	0.41	31.3	-34.2	---	---	723.9	0.026	0.000	20.4	2	1
03/06/06	5:56 p	-19.6	-19.6	-19.7	---	---	33.9	E	0.57	39.1	-36.1	---	---	723.8	0.026	0.000	20.4	2	1
03/06/06	5:57 p	-19.6	-19.6	-19.6	---	---	30.4	E	0.51	35.7	-35.4	---	---	724.0	0.026	0.000	20.4	2	1
03/06/06	5:58 p	-19.6	-19.6	-19.6	---	---	24.3	E	0.41	29.6	-34.2	---	---	724.0	0.026	0.000	20.4	2	1
03/06/06	5:59 p	-19.6	-19.6	-19.6	---	---	29.6	E	0.49	33.9	-35.3	---	---	723.6	0.026	0.000	20.4	2	1
03/06/06	6:00 p	-19.6	-19.6	-19.7	---	---	36.5	ENE	0.61	43.5	-36.6	---	---	724.2	0.026	0.000	20.3	2	1
03/06/06	6:01 p	-19.6	-19.6	-19.6	---	---	25.2	E	0.42	33.0	-34.4	---	---	724.3	0.026	0.000	20.3	2	1
03/06/06	6:02 p	-19.6	-19.6	-19.6	---	---	23.5	E	0.39	38.3	-33.9	---	---	723.4	0.026	0.000	20.3	2	1
03/06/06	6:03 p	-19.6	-19.6	-19.6	---	---	36.5	E	0.61	42.6	-36.6	---	---	723.7	0.026	0.000	20.3	2	1
03/06/06	6:04 p	-19.6	-19.6	-19.6	---	---	32.2	ENE	0.54	40.0	-35.8	---	---	724.2	0.026	0.000	20.3	2	1
03/06/06	6:05 p	-19.6	-19.6	-19.6	---	---	22.6	ENE	0.38	28.7	-33.7	---	---	724.2	0.026	0.000	20.3	2	1
03/06/06	6:06 p	-19.6	-19.6	-19.6	---	---	26.1	E	0.43	38.3	-34.5	---	---	723.2	0.026	0.000	20.3	2	1
03/06/06	6:07 p	-19.6	-19.6	-19.6	---	---	37.4	E	0.62	43.5	-36.7	---	---	723.7	0.026	0.000	20.3	1	1
03/06/06	6:08 p	-19.6	-19.6	-19.6	---	---	31.3	E	0.52	38.3	-35.6	---	---	724.3	0.026	0.000	20.3	2	1
03/06/06	6:09 p	-19.6	-19.6	-19.6	---	---	22.6	ENE	0.38	33.0	-33.7	---	---	724.0	0.026	0.000	20.3	1	1
03/06/06	6:10 p	-19.6	-19.6	-19.6	---	---	32.2	E	0.54	39.1	-35.7	---	---	723.8	0.026	0.000	20.3	1	1
03/06/06	6:11 p	-19.6	-19.6	-19.6	---	---	31.3	E	0.52	36.5	-35.6	---	---	724.0	0.026	0.000	20.3	2	1
03/06/06	6:12 p	-19.6	-19.6	-19.6	---	---	29.6	E	0.49	32.2	-35.2	---	---	724.1	0.026	0.000	20.3	1	1
03/06/06	6:13 p	-19.6	-19.6	-19.6	---	---	29.6	E	0.49	39.1	-35.3	---	---	723.7	0.026	0.000	20.3	1	1
03/06/06	6:14 p	-19.7	-19.6	-19.7	---	---	30.4	E	0.51	35.7	-35.6	---	---	723.9	0.026	0.000	20.2	2	1
03/06/06	6:15 p	-19.6	-19.6	-19.7	---	---	29.6	E	0.49	34.8	-35.3	---	---	724.0	0.026	0.000	20.2	1	1
03/06/06	6:16 p	-19.7	-19.7	-19.7	---	---	28.7	E	0.48	37.4	-35.2	---	---	723.6	0.026	0.000	20.2	1	1
03/06/06	6:17 p	-19.7	-19.6	-19.7	---	---	32.2	E	0.54	40.9	-35.9	---	---	723.8	0.026	0.000	20.2	1	1
03/06/06	6:18 p	-19.7	-19.6	-19.7	---	---	29.6	E	0.49	34.8	-35.4	---	---	724.1	0.026	0.000	20.2	1	1
03/06/06	6:19 p	-19.6	-19.6	-19.7	---	---	27.8	E	0.46	36.5	-34.9	---	---	723.6	0.026	0.000	20.2	1	1
03/06/06	6:20 p	-19.6	-19.6	-19.7	---	---	33.0	E	0.55	39.1	-35.9	---	---	723.8	0.026	0.000	20.2	1	1
03/06/06	6:21 p	-19.6	-19.6	-19.7	---	---	31.3	E	0.52	34.8	-35.6	---	---	724.0	0.026	0.000	20.2	1	1
03/06/06	6:22 p	-19.6	-19.6	-19.7	---	---	23.5	E	0.39	27.8	-34.0	---	---	724.1	0.026	0.000	20.2	1	1
03/06/06	6:23 p	-19.6	-19.6	-19.7	---	---	33.9	E	0.57	39.1	-36.1	---	---	723.7	0.026	0.000	20.2	1	1
03/06/06	6:24 p	-19.7	-19.6	-19.7	---	---	29.6	E	0.49	33.9	-35.4	---	---	724.0	0.026	0.000	20.2	1	1
03/06/06	6:25 p	-19.6	-19.6	-19.7	---	---	30.4	E	0.51	33.9	-35.4	---	---	724.0	0.026	0.000	20.2	1	1
03/06/06	6:26 p	-19.6	-19.6	-19.6	---	---	33.9	E	0.57	39.1	-36.1	---	---	724.0	0.026	0.000	20.2	1	1
03/06/06	6:27 p	-19.6	-19.6	-19.6	---	---	26.1	E	0.43	33.0	-34.6	---	---	723.8	0.026	0.000	20.2	1	1
03/06/06	6:28 p	-19.7	-19.6	-19.7	---	---	32.2	E	0.54	38.3	-35.9	---	---	723.6	0.026	0.000	20.2	1	1
03/06/06	6:29 p	-19.6	-19.6	-19.7	---	---	33.9	E	0.57	43.5	-36.1	---	---	724.2	0.026	0.000	20.2	1	1
03/06/06	6:30 p	-19.6	-19.6	-19.7	---	---	23.5	E	0.39	30.4	-34.0	---	---	724.0	0.026	0.000	20.2	1	1
03/06/06	6:31 p	-19.6	-19.6	-19.7	---	---	32.2	E	0.54	40.9	-35.8	---	---	723.5	0.026	0.000	20.2	1	1
03/06/06	6:32 p	-19.7	-19.6	-19.7	---	---	32.2	E	0.54	35.7	-35.9	---	---	724.0	0.026	0.000	20.2	1	1
03/06/06	6:33 p	-19.6	-19.6	-19.7	---	---	26.1	E	0.43	32.2	-34.6	---	---	723.8	0.026	0.000	20.2	1	1
03/06/06	6:34 p	-19.6	-19.6	-19.7	---	---	32.2	E	0.54	42.6	-35.8	---	---	723.7	0.026	0.000	20.2	1	1
03/06/06	6:35 p	-19.7	-19.6	-19.7	---	---	30.4	E	0.51	34.8	-35.6	---	---	723.9	0.026	0.000	20.2	1	1
03/06/06	6:36 p	-19.6	-19.6	-19.7	---	---	27.0	E	0.45	33.0	-34.8	---	---	724.0	0.026	0.000	20.1	1	1
03/06/06	6:37 p	-19.7	-19.6	-19.7	---	---	33.0	E	0.55	40.0	-36.1	---	---	724.0	0.026	0.000	20.1	1	1
03/06/06	6:38 p	-19.7	-19.7	-19.7	---	---	28.7	E	0.48	36.5	-35.2	---	---	723.7	0.026	0.000	20.1	1	1
03/06/06	6:39 p	-19.7	-19.7	-19.7	---	---	32.2	E	0.54	37.4	-35.9	---	---	724.2	0.026	0.000	20.1	1	1
03/06/06	6:40 p	-19.7	-19.7	-19.7	---	---	27.0	E	0.45	35.7	-34.8	---	---	723.5	0.026	0.000	20.1	1	1
03/06/06	6:41 p	-19.7	-19.7	-19.7	---	---	33.9	E	0.57	37.4	-36.2	---	---	723.9	0.026	0.000	20.1	1	1
03/06/06	6:42 p	-19.7	-19.6	-19.7	---	---	28.7	E	0.48	38.3	-35.2	---	---	724.2	0.026	0.000	20.1	1	1
03/06/06	6:43 p	-19.7	-19.6	-19.7	---	---	25.2	E	0.42	30.4	-34.4	---	---	723.6	0.026	0.000	20.1	1	1
03/06/06	6:44 p	-19.7	-19.7	-19.7	---	---	33.0	E	0.55	40.9	-36.1	---	---	724.2	0.026	0.000	20.1	1	1
03/06/06	6:45 p	-19.7	-19.7	-19.7	---	---	25.2	E	0.42	33.0	-34.4	---	---	724.0	0.026	0.000	20.1	1	1
03/06/06	6:46 p	-19.7	-19.6	-19.7	---	---	29.6	E	0.49	33.9	-35.4	---	---	723.6	0.026	0.000	20.1	1	1
03/06/06	6:47 p	-19.7	-19.7	-19.7	---	---	34.8	E	0.58	38.3	-36.3	---	---	723.7	0.026	0.000	20.0	1	1
03/06/06	6:48 p	-19.7	-19.7	-19.7	---	---	28.7	E	0.48	34.8	-35.2	---	---	724.0	0.026	0.000	20.0	1	1
03/06/06	6:49 p	-19.7	-19.7	-19.7	---	---	27.0	E	0.45	31.3	-34.8	---	---	724.0	0.026	0.000	20.0	1	1
03/06/06	6:50 p	-19.7	-19.7	-19.7	---	---	27.8	E	0.46	32.2	-35.0	---	---	723.3	0.026	0.000	20.0	1	1
03/06/06	6:51 p	-19.7	-19.7	-19.7	---	---	35.7	E	0.59	42.6	-36.5	---	---	723.8	0.026	0.000	20.0	1	1
03/06/06	6:52 p	-19.7	-19.7	-19.7	---	---	26.1	E	0.43	33.0	-34.7	---	---	723.7	0.026	0.000	20.0	1	1
03/06/06	6:53 p	-19.7	-19.7	-19.7	---	---	33.9	E	0.57	38.3	-36.2	---	---	724.1	0.026	0.000	19.9	1	1
03/06/06	6:54 p	-19.7	-19.7	-19.7	---	---	27.0	E	0.45	31.3	-34.9	---	---	723.7	0.026	0.000	19.9	1	1
03/06/06	6:55 p	-19.7	-19.7	-19.7	---	---	32.2	E	0.54	35.7	-35.9	---	---	723.4	0.026	0.000	19.9	1	1
03/06/06	6:56 p	-19.8	-19.7	-19.8	---	---	33.0	E	0.55	37.4	-36.2	---	---	723.5	0.026	0.000	19.9	1	1
03/06/06	6:57 p	-19.8	-19.8	-19.8	---	---	33.0	E	0.55	39.1	-36.2	---	---	723.8	0.026	0.000	19.9	1	1
03/06/06	6:58 p	-19.8	-19.8	-19.8	---	---	28.7	E	0.48	34.8	-35.3	---	---	723.6	0.026	0.000	19.9	1	1
03/06/06	6:59 p	-19.8	-19.8	-19.8	---	---	30.4	E	0.51	33.9	-35.7	---	---	723.7	0.026	0.000	19.9	1	1
03/06/06	7:00 p	-19.8	-19.8	-19.8	---	---	32.2	E	0.54	36.5	-36.0	---	---	723.8	0.026	0.000	19.9	1	1
03/06/06	7:01 p	-19.8	-19.8	-19.8	---	---	30.4	E	0.51	37.4	-35.7	---	---	723.8	0.026	0.000	19.9	1	1
03/06/06	7:02 p	-19.8	-19.8	-19.8	---	---	30.4	E	0.51	33.0	-35.7	---	---	723.7	0.026	0.000	19.9	1	1
03/06/06	7:03 p	-19.8	-19.8	-19.8	---	---	31.3	E	0.52	37.4	-35.9	---	---	723.6	0.026	0.000	19.9	1	1
03/06/06	7:04 p	-19.8	-19.8	-19.8	---	---	35.7	E	0.59	42.6	-36.7	---	---	723.6	0.027	0.000	19.9	1	1
03/06/06	7:05 p	-19.9	-19.9	-19.9	---	---	33.0	E	0.55	40.9	-36.3	---	---	723.7	0.027	0.000	19.8	1	1
03/06/06	7:06 p	-19.9	-19.9	-19.9	---	---	29.6	E	0.49	35.7	-35.7	---	---	723.8	0.027	0.000	19.8	1	1
03/06/06	7:07 p	-19.9	-19.9	-19.9	---	---	34.8	E	0.58	40.9	-36.7	---	---	723.4	0.027	0.000	19.8	1	1
03/06/06	7:08 p	-19.9	-19.9	-19.9	---	---	36.5	E	0.61	41.7	-36.9	---	---	723.7	0.027	0.000	19.8	1	1
03/06/06	7:09 p	-19.9	-19.9	-19.9	---	---	28.7	E	0.48	39.1	-35.5	---	---	723.8	0.027	0.000	19.8	1	1
03/06/06	7:10 p	-19.9	-19.9	-19.9	---	---	27.8	E	0.46	33.0	-35.4	---	---	723.7	0.027	0.000	19.8	1	1
03/06/06	7:11 p	-19.9	-19.9	-19.9	---	---	31.3	E	0.52	36.5	-36.1	---	---	723.4	0.027	0.000	19.8	1	1
03/06/06	7:12 p	-19.9	-19.9	-20.0	---	---	33.9	E	0.57	43.5	-36.6	---	---	723.9	0.027	0.000	19.8	1	1
03/06/06	7:13 p	-19.9	-19.9	-19.9	---	---	31.3	E	0.52	35.7	-36.1	---	---	723.6	0.027	0.000	19.8	1	1
03/06/06	7:14 p	-19.9	-19.9	-19.9	---	---	37.4	E	0.62	42.6	-37.2	---	---	723.6	0.027	0.000	19.8	1	1
03/06/06	7:15 p	-19.9	-19.9	-20.0	---	---	33.9	E	0.57	38.3	-36.6	---	---	723.8	0.027	0.000	19.8	1	1
03/06/06	7:16 p	-20.0	-19.9	-20.0	---	---	27.0	E	0.45	35.7	-35.3	---	---	724.0	0.027	0.000	19.8	1	1
03/06/06	7:17 p	-20.0	-20.0	-20.0	---	---	30.4	E	0.51	40.0	-36.0	---	---	723.5	0.027	0.000	19.8	1	1
03/06/06	7:18 p	-20.0	-20.0	-20.0	---	---	36.5	E	0.61	40.9	-37.1	---	---	723.9	0.027	0.000	19.8	1	1
03/06/06	7:19 p	-19.9	-19.9	-20.0	---	---	27.8	E	0.46	34.8	-35.4	---	---	724.0	0.027	0.000	19.8	1	1
03/06/06	7:20 p	-19.9	-19.9	-20.0	---	---	30.4	E	0.51	39.1	-35.9	---	---	723.5	0.027	0.000	19.8	1	1
03/06/06	7:21 p	-20.0	-20.0	-20.0	---	---	37.4	E	0.62	42.6	-37.2	---	---	723.7	0.027	0.000	19.8	1	1
03/06/06	7:22 p	-20.0	-19.9	-20.0	---	---	30.4	E	0.51	36.5	-36.0	---	---	723.9	0.027	0.000	19.8	1	1
03/06/06	7:23 p	-20.0	-20.0	-20.0	---	---	27.8	E	0.46	33.0	-35.5	---	---	723.8	0.027	0.000	19.8	1	1
03/06/06	7:24 p	-20.0	-20.0	-20.0	---	---	33.0	E	0.55	38.3	-36.5	---	---	723.6	0.027	0.000	19.8	1	1
03/06/06	7:25 p	-20.0	-20.0	-20.0	---	---	33.9	E	0.57	37.4	-36.7	---	---	723.7	0.027	0.000	19.8	1	1
03/06/06	7:26 p	-20.0	-20.0	-20.1	---	---	32.2	E	0.54	35.7	-36.3	---	---	723.6	0.027	0.000	19.8	1	1
03/06/06	7:27 p	-20.0	-20.0	-20.0	---	---	32.2	E	0.54	35.7	-36.3	---	---	724.1	0.027	0.000	19.8	1	1
03/06/06	7:28 p	-20.0	-19.9	-20.0	---	---	26.1	E	0.43	35.7	-35.1	---	---	723.6	0.027	0.000	19.7	1	1
03/06/06	7:29 p	-20.0	-20.0	-20.1	---	---	41.7	E	0.70	47.8	-37.9	---	---	723.6	0.027	0.000	19.7	1	1
03/06/06	7:30 p	-20.0	-20.0	-20.0	---	---	30.4	E	0.51	36.5	-36.0	---	---	724.1	0.027	0.000	19.7	1	1
03/06/06	7:31 p	-20.0	-19.9	-20.0	---	---	21.7	E	0.36	26.1	-34.1	---	---	724.1	0.027	0.000	19.7	1	1
03/06/06	7:32 p	-20.0	-20.0	-20.0	---	---	27.8	E	0.46	36.5	-35.5	---	---	723.4	0.027	0.000	19.7	1	1
03/06/06	7:33 p	-20.0	-20.0	-20.0	---	---	33.9	E	0.57	39.1	-36.7	---	---	723.6	0.027	0.000	19.7	1	1
03/06/06	7:34 p	-20.0	-20.0	-20.1	---	---	30.4	E	0.51	35.7	-36.0	---	---	723.7	0.027	0.000	19.7	1	1
03/06/06	7:35 p	-20.0	-20.0	-20.1	---	---	33.9	E	0.57	38.3	-36.7	---	---	723.5	0.027	0.000	19.7	1	1
03/06/06	7:36 p	-20.0	-20.0	-20.0	---	---	32.2	E	0.54	36.5	-36.3	---	---	723.8	0.027	0.000	19.7	1	1
03/06/06	7:37 p	-20.0	-20.0	-20.0	---	---	26.1	E	0.43	31.3	-35.1	---	---	723.9	0.027	0.000	19.7	1	1
03/06/06	7:38 p	-20.0	-20.0	-20.0	---	---	31.3	E	0.52	40.9	-36.2	---	---	723.5	0.027	0.000	19.7	1	1
03/06/06	7:39 p	-20.0	-20.0	-20.0	---	---	37.4	E	0.62	41.7	-37.2	---	---	724.0	0.027	0.000	19.7	1	1
03/06/06	7:40 p	-19.9	-19.9	-20.0	---	---	30.4	E	0.51	34.8	-35.9	---	---	723.6	0.027	0.000	19.7	1	1
03/06/06	7:41 p	-19.9	-19.9	-19.9	---	---	30.4	E	0.51	36.5	-35.9	---	---	723.7	0.027	0.000	19.7	1	1
03/06/06	7:42 p	-19.9	-19.9	-20.0	---	---	31.3	E	0.52	33.9	-36.1	---	---	723.9	0.027	0.000	19.7	2	1
03/06/06	7:43 p	-19.9	-19.9	-19.9	---	---	30.4	E	0.51	38.3	-35.9	---	---	723.5	0.027	0.000	19.7	1	1
03/06/06	7:44 p	-19.9	-19.9	-19.9	---	---	33.0	E	0.55	40.0	-36.4	---	---	723.7	0.027	0.000	19.7	2	1
03/06/06	7:45 p	-19.9	-19.9	-19.9	---	---	27.8	E	0.46	31.3	-35.4	---	---	723.8	0.027	0.000	19.7	2	1
03/06/06	7:46 p	-19.9	-19.9	-19.9	---	---	33.0	E	0.55	38.3	-36.4	---	---	723.6	0.027	0.000	19.8	2	1
03/06/06	7:47 p	-19.9	-19.9	-20.0	---	---	32.2	E	0.54	37.4	-36.3	---	---	723.9	0.027	0.000	19.8	2	1
03/06/06	7:48 p	-20.0	-19.9	-20.0	---	---	28.7	E	0.48	33.9	-35.7	---	---	723.8	0.027	0.000	19.8	2	1
03/06/06	7:49 p	-19.9	-19.9	-20.0	---	---	33.9	E	0.57	39.1	-36.6	---	---	723.8	0.027	0.000	19.8	2	1
03/06/06	7:50 p	-20.0	-19.9	-20.0	---	---	32.2	E	0.54	36.5	-36.3	---	---	723.7	0.027	0.000	19.8	2	1
03/06/06	7:51 p	-19.9	-19.9	-20.0	---	---	34.8	E	0.58	40.0	-36.7	---	---	723.6	0.027	0.000	19.8	2	1
03/06/06	7:52 p	-19.9	-19.9	-20.0	---	---	29.6	E	0.49	34.8	-35.8	---	---	723.9	0.027	0.000	19.8	2	1
03/06/06	7:53 p	-20.0	-20.0	-20.0	---	---	28.7	E	0.48	40.0	-35.7	---	---	723.5	0.027	0.000	19.8	2	1
03/06/06	7:54 p	-20.0	-19.9	-20.0	---	---	35.7	ENE	0.59	40.0	-36.9	---	---	723.7	0.027	0.000	19.8	2	1
03/06/06	7:55 p	-19.9	-19.9	-19.9	---	---	29.6	E	0.49	36.5	-35.8	---	---	724.1	0.027	0.000	19.8	2	1
03/06/06	7:56 p	-19.9	-19.9	-19.9	---	---	29.6	E	0.49	40.9	-35.8	---	---	723.2	0.027	0.000	19.8	2	1
03/06/06	7:57 p	-19.9	-19.9	-19.9	---	---	40.9	E	0.68	46.1	-37.7	---	---	723.5	0.027	0.000	19.8	2	1
03/06/06	7:58 p	-19.9	-19.8	-19.9	---	---	29.6	E	0.49	38.3	-35.7	---	---	724.0	0.027	0.000	19.8	2	1
03/06/06	7:59 p	-19.8	-19.8	-19.9	---	---	29.6	E	0.49	40.0	-35.6	---	---	723.4	0.027	0.000	19.8	2	1
03/06/06	8:00 p	-19.9	-19.9	-19.9	---	---	40.9	ENE	0.68	44.3	-37.6	---	---	723.9	0.027	0.000	19.8	2	1
03/06/06	8:01 p	-19.9	-19.9	-19.9	---	---	33.9	ENE	0.57	39.1	-36.5	---	---	724.4	0.027	0.000	19.8	2	1
03/06/06	8:02 p	-19.9	-19.8	-19.9	---	---	23.5	E	0.39	27.8	-34.3	---	---	724.3	0.027	0.000	19.8	2	1
03/06/06	8:03 p	-19.8	-19.8	-19.9	---	---	25.2	E	0.42	27.8	-34.7	---	---	723.9	0.027	0.000	19.8	2	1
03/06/06	8:04 p	-19.9	-19.9	-19.9	---	---	33.9	E	0.57	37.4	-36.5	---	---	723.8	0.027	0.000	19.8	2	1
03/06/06	8:05 p	-19.9	-19.9	-19.9	---	---	34.8	E	0.58	40.0	-36.7	---	---	724.1	0.027	0.000	19.8	2	1
03/06/06	8:06 p	-19.9	-19.9	-19.9	---	---	33.0	ENE	0.55	35.7	-36.4	---	---	723.7	0.027	0.000	19.8	2	1
03/06/06	8:07 p	-19.9	-19.9	-19.9	---	---	33.0	E	0.55	37.4	-36.4	---	---	723.9	0.027	0.000	19.8	2	1
03/06/06	8:08 p	-19.9	-19.9	-19.9	---	---	28.7	E	0.48	33.9	-35.5	---	---	724.0	0.027	0.000	19.8	2	1
03/06/06	8:09 p	-19.9	-19.9	-19.9	---	---	27.8	E	0.46	32.2	-35.4	---	---	723.8	0.027	0.000	19.9	2	1
03/06/06	8:10 p	-19.9	-19.9	-19.9	---	---	36.5	E	0.61	40.9	-37.0	---	---	723.7	0.027	0.000	19.9	2	1
03/06/06	8:11 p	-19.9	-19.9	-19.9	---	---	36.5	E	0.61	40.9	-37.0	---	---	723.6	0.027	0.000	19.9	2	1
03/06/06	8:12 p	-19.9	-19.9	-19.9	---	---	35.7	ENE	0.59	40.0	-36.9	---	---	723.8	0.027	0.000	19.9	2	1
03/06/06	8:13 p	-19.9	-19.9	-19.9	---	---	29.6	E	0.49	33.0	-35.7	---	---	723.9	0.027	0.000	19.9	2	1
03/06/06	8:14 p	-19.9	-19.9	-19.9	---	---	33.0	E	0.55	36.5	-36.3	---	---	723.8	0.027	0.000	19.9	2	1
03/06/06	8:15 p	-19.9	-19.8	-19.9	---	---	27.0	E	0.45	33.9	-35.2	---	---	724.0	0.027	0.000	19.9	2	1
03/06/06	8:16 p	-19.9	-19.9	-19.9	---	---	29.6	E	0.49	34.8	-35.7	---	---	723.5	0.027	0.000	19.8	2	1
03/06/06	8:17 p	-19.9	-19.9	-19.9	---	---	36.5	E	0.61	41.7	-36.9	---	---	723.5	0.027	0.000	19.8	2	1
03/06/06	8:18 p	-19.9	-19.9	-19.9	---	---	36.5	E	0.61	41.7	-37.0	---	---	724.0	0.027	0.000	19.8	2	1
03/06/06	8:19 p	-19.9	-19.9	-19.9	---	---	32.2	E	0.54	37.4	-36.3	---	---	723.7	0.027	0.000	19.8	2	1
03/06/06	8:20 p	-19.9	-19.9	-19.9	---	---	33.9	E	0.57	38.3	-36.6	---	---	723.7	0.027	0.000	19.8	2	1
03/06/06	8:21 p	-19.9	-19.9	-19.9	---	---	33.0	E	0.55	37.4	-36.4	---	---	723.8	0.027	0.000	19.8	2	1
03/06/06	8:22 p	-19.9	-19.9	-19.9	---	---	33.9	E	0.57	39.1	-36.5	---	---	723.7	0.027	0.000	19.8	2	1
03/06/06	8:23 p	-19.9	-19.9	-19.9	---	---	31.3	E	0.52	37.4	-36.0	---	---	724.0	0.027	0.000	19.8	2	1
03/06/06	8:24 p	-19.9	-19.9	-19.9	---	---	33.9	E	0.57	39.1	-36.6	---	---	723.6	0.027	0.000	19.8	2	1
03/06/06	8:25 p	-19.9	-19.9	-19.9	---	---	37.4	E	0.62	41.7	-37.2	---	---	723.6	0.027	0.000	19.8	2	1
03/06/06	8:26 p	-19.9	-19.9	-19.9	---	---	33.9	E	0.57	40.9	-36.6	---	---	723.9	0.027	0.000	19.8	2	1
03/06/06	8:27 p	-19.9	-19.9	-20.0	---	---	31.3	E	0.52	37.4	-36.1	---	---	723.7	0.027	0.000	19.8	2	1
03/06/06	8:28 p	-19.9	-19.9	-19.9	---	---	33.9	E	0.57	38.3	-36.6	---	---	723.7	0.027	0.000	19.8	2	1
03/06/06	8:29 p	-19.9	-19.9	-19.9	---	---	34.8	ENE	0.58	40.9	-36.7	---	---	724.1	0.027	0.000	19.8	2	1
03/06/06	8:30 p	-19.9	-19.9	-19.9	---	---	27.0	ENE	0.45	30.4	-35.2	---	---	724.1	0.027	0.000	19.7	2	1
03/06/06	8:31 p	-19.9	-19.9	-20.0	---	---	28.7	E	0.48	36.5	-35.6	---	---	723.5	0.027	0.000	19.7	2	1
03/06/06	8:32 p	-20.0	-19.9	-20.0	---	---	33.0	E	0.55	41.7	-36.5	---	---	723.3	0.027	0.000	19.7	2	1
03/06/06	8:33 p	-20.0	-20.0	-20.0	---	---	34.8	E	0.58	39.1	-36.8	---	---	723.6	0.027	0.000	19.7	2	1
03/06/06	8:34 p	-20.0	-19.9	-20.0	---	---	31.3	E	0.52	36.5	-36.2	---	---	723.7	0.027	0.000	19.7	2	1
03/06/06	8:35 p	-20.0	-20.0	-20.1	---	---	32.2	E	0.54	36.5	-36.3	---	---	723.6	0.027	0.000	19.7	2	1
03/06/06	8:36 p	-20.0	-20.0	-20.1	---	---	34.8	E	0.58	41.7	-36.8	---	---	723.5	0.027	0.000	19.7	2	1
03/06/06	8:37 p	-20.0	-19.9	-20.0	---	---	33.9	E	0.57	40.9	-36.7	---	---	723.8	0.027	0.000	19.7	2	1
03/06/06	8:38 p	-19.9	-19.9	-20.0	---	---	25.2	E	0.42	31.3	-34.8	---	---	723.6	0.027	0.000	19.7	2	1
03/06/06	8:39 p	-19.9	-19.9	-19.9	---	---	33.9	E	0.57	45.2	-36.6	---	---	723.3	0.027	0.000	19.7	2	1
03/06/06	8:40 p	-19.9	-19.9	-20.0	---	---	40.9	ENE	0.68	45.2	-37.7	---	---	723.5	0.027	0.000	19.7	2	1
03/06/06	8:41 p	-19.9	-19.9	-20.0	---	---	33.0	E	0.55	42.6	-36.4	---	---	724.0	0.027	0.000	19.7	2	1
03/06/06	8:42 p	-20.0	-20.0	-20.0	---	---	28.7	E	0.48	33.0	-35.7	---	---	723.9	0.027	0.000	19.7	2	1
03/06/06	8:43 p	-20.0	-20.0	-20.1	---	---	31.3	E	0.52	35.7	-36.2	---	---	723.5	0.027	0.000	19.7	2	1
03/06/06	8:44 p	-20.0	-20.0	-20.0	---	---	34.8	E	0.58	41.7	-36.8	---	---	723.6	0.027	0.000	19.7	2	1
03/06/06	8:45 p	-20.0	-20.0	-20.0	---	---	34.8	E	0.58	39.1	-36.8	---	---	723.7	0.027	0.000	19.7	2	1
03/06/06	8:46 p	-20.0	-20.0	-20.0	---	---	34.8	E	0.58	39.1	-36.8	---	---	723.6	0.027	0.000	19.7	2	1
03/06/06	8:47 p	-20.0	-20.0	-20.1	---	---	36.5	E	0.61	40.9	-37.1	---	---	723.6	0.027	0.000	19.7	2	1
03/06/06	8:48 p	-20.0	-20.0	-20.0	---	---	33.9	E	0.57	38.3	-36.7	---	---	724.1	0.027	0.000	19.7	2	1
03/06/06	8:49 p	-19.9	-19.9	-20.0	---	---	28.7	E	0.48	35.7	-35.6	---	---	724.0	0.027	0.000	19.7	2	1
03/06/06	8:50 p	-19.9	-19.9	-19.9	---	---	29.6	E	0.49	36.5	-35.8	---	---	723.4	0.027	0.000	19.7	2	1
03/06/06	8:51 p	-20.0	-19.9	-20.0	---	---	46.1	ENE	0.77	51.3	-38.6	---	---	723.3	0.027	0.000	19.7	2	1
03/06/06	8:52 p	-19.9	-19.9	-20.0	---	---	39.1	ENE	0.65	44.3	-37.4	---	---	723.8	0.027	0.000	19.7	2	1
03/06/06	8:53 p	-20.0	-19.9	-20.0	---	---	31.3	E	0.52	38.3	-36.2	---	---	723.9	0.027	0.000	19.7	2	1
03/06/06	8:54 p	-19.9	-19.9	-20.0	---	---	29.6	E	0.49	33.9	-35.8	---	---	723.6	0.027	0.000	19.7	2	1
03/06/06	8:55 p	-19.9	-19.9	-19.9	---	---	38.3	E	0.64	44.3	-37.3	---	---	723.8	0.027	0.000	19.7	2	1
03/06/06	8:56 p	-19.9	-19.9	-19.9	---	---	33.9	E	0.57	37.4	-36.6	---	---	724.1	0.027	0.000	19.7	2	1
03/06/06	8:57 p	-19.9	-19.9	-19.9	---	---	28.7	E	0.48	32.2	-35.5	---	---	723.9	0.027	0.000	19.7	2	1
03/06/06	8:58 p	-19.9	-19.9	-19.9	---	---	31.3	E	0.52	36.5	-36.0	---	---	723.6	0.027	0.000	19.7	2	1
03/06/06	8:59 p	-19.9	-19.9	-19.9	---	---	36.5	E	0.61	41.7	-37.0	---	---	723.5	0.027	0.000	19.7	2	1
03/06/06	9:00 p	-19.9	-19.9	-19.9	---	---	38.3	ENE	0.64	41.7	-37.3	---	---	723.8	0.027	0.000	19.7	2	1
03/06/06	9:01 p	-19.9	-19.9	-19.9	---	---	29.6	E	0.49	36.5	-35.7	---	---	724.0	0.027	0.000	19.7	2	1
03/06/06	9:02 p	-19.9	-19.9	-19.9	---	---	31.3	E	0.52	36.5	-36.0	---	---	723.7	0.027	0.000	19.7	2	1
03/06/06	9:03 p	-19.8	-19.8	-19.9	---	---	35.7	E	0.59	39.1	-36.7	---	---	723.8	0.027	0.000	19.7	2	1
03/06/06	9:04 p	-19.8	-19.8	-19.8	---	---	33.0	E	0.55	37.4	-36.3	---	---	723.8	0.027	0.000	19.7	2	1
03/06/06	9:05 p	-19.8	-19.8	-19.8	---	---	35.7	E	0.59	40.0	-36.7	---	---	723.8	0.027	0.000	19.7	2	1
03/06/06	9:06 p	-19.8	-19.8	-19.8	---	---	32.2	E	0.54	37.4	-36.1	---	---	724.0	0.027	0.000	19.7	3	1
03/06/06	9:07 p	-19.8	-19.8	-19.8	---	---	32.2	E	0.54	36.5	-36.0	---	---	723.6	0.026	0.000	19.7	3	1
03/06/06	9:08 p	-19.8	-19.8	-19.8	---	---	38.3	E	0.64	42.6	-37.1	---	---	723.5	0.026	0.000	19.7	3	1
03/06/06	9:09 p	-19.8	-19.8	-19.8	---	---	33.9	E	0.57	40.0	-36.3	---	---	724.0	0.026	0.000	19.7	3	1
03/06/06	9:10 p	-19.8	-19.8	-19.8	---	---	32.2	E	0.54	36.5	-36.0	---	---	723.7	0.026	0.000	19.7	3	1
03/06/06	9:11 p	-19.8	-19.8	-19.8	---	---	36.5	E	0.61	40.0	-36.8	---	---	723.7	0.026	0.000	19.7	3	1
03/06/06	9:12 p	-19.8	-19.8	-19.8	---	---	38.3	ENE	0.64	40.9	-37.2	---	---	723.9	0.027	0.000	19.7	3	1
03/06/06	9:13 p	-19.8	-19.8	-19.8	---	---	30.4	E	0.51	35.7	-35.7	---	---	723.8	0.026	0.000	19.7	3	1
03/06/06	9:14 p	-19.8	-19.7	-19.8	---	---	33.9	E	0.57	41.7	-36.3	---	---	723.5	0.026	0.000	19.7	3	1
03/06/06	9:15 p	-19.7	-19.7	-19.8	---	---	39.1	E	0.65	42.6	-37.1	---	---	723.4	0.026	0.000	19.7	3	1
03/06/06	9:16 p	-19.7	-19.7	-19.7	---	---	33.9	ENE	0.57	39.1	-36.3	---	---	724.0	0.026	0.000	19.7	3	1
03/06/06	9:17 p	-19.7	-19.7	-19.7	---	---	29.6	E	0.49	36.5	-35.4	---	---	723.7	0.026	0.000	19.7	3	1
03/06/06	9:18 p	-19.7	-19.7	-19.7	---	---	37.4	E	0.62	42.6	-36.8	---	---	723.6	0.026	0.000	19.7	3	1
03/06/06	9:19 p	-19.7	-19.7	-19.8	---	---	37.4	E	0.62	42.6	-36.8	---	---	723.8	0.026	0.000	19.7	3	1
03/06/06	9:20 p	-19.7	-19.7	-19.8	---	---	33.0	E	0.55	38.3	-36.1	---	---	724.1	0.026	0.000	19.7	3	1
03/06/06	9:21 p	-19.7	-19.7	-19.7	---	---	31.3	E	0.52	35.7	-35.8	---	---	723.8	0.026	0.000	19.7	3	1
03/06/06	9:22 p	-19.8	-19.7	-19.8	---	---	36.5	E	0.61	39.1	-36.8	---	---	723.7	0.026	0.000	19.6	3	1
03/06/06	9:23 p	-19.8	-19.8	-19.8	---	---	34.8	E	0.58	40.0	-36.5	---	---	724.0	0.026	0.000	19.6	3	1
03/06/06	9:24 p	-19.8	-19.8	-19.8	---	---	30.4	E	0.51	33.9	-35.7	---	---	723.7	0.026	0.000	19.6	3	1
03/06/06	9:25 p	-19.8	-19.8	-19.8	---	---	40.0	E	0.67	44.3	-37.3	---	---	723.7	0.026	0.000	19.6	3	1
03/06/06	9:26 p	-19.8	-19.7	-19.8	---	---	31.3	ENE	0.52	35.7	-35.9	---	---	724.3	0.026	0.000	19.6	3	1
03/06/06	9:27 p	-19.7	-19.7	-19.7	---	---	21.7	E	0.36	27.0	-33.7	---	---	724.5	0.026	0.000	19.6	3	1
03/06/06	9:28 p	-19.7	-19.7	-19.8	---	---	29.6	E	0.49	46.1	-35.4	---	---	723.5	0.026	0.000	19.6	4	1
03/06/06	9:29 p	-19.8	-19.8	-19.9	---	---	40.0	E	0.67	47.8	-37.4	---	---	724.1	0.027	0.000	19.6	3	1
03/06/06	9:30 p	-19.8	-19.8	-19.9	---	---	33.9	E	0.57	38.3	-36.4	---	---	724.0	0.027	0.000	19.6	4	1
03/06/06	9:31 p	-19.9	-19.8	-19.9	---	---	33.9	ENE	0.57	37.4	-36.5	---	---	724.2	0.027	0.000	19.6	4	1
03/06/06	9:32 p	-19.8	-19.8	-19.9	---	---	32.2	E	0.54	37.4	-36.1	---	---	724.0	0.027	0.000	19.6	4	1
03/06/06	9:33 p	-19.8	-19.8	-19.8	---	---	33.9	ENE	0.57	40.0	-36.4	---	---	724.5	0.027	0.000	19.6	4	1
03/06/06	9:34 p	-19.8	-19.8	-19.8	---	---	27.0	E	0.45	31.3	-35.0	---	---	724.5	0.026	0.000	19.6	4	1
03/06/06	9:35 p	-19.8	-19.8	-19.8	---	---	20.0	E	0.33	22.6	-33.3	---	---	724.7	0.026	0.000	19.7	4	1
03/06/06	9:36 p	-19.7	-19.7	-19.8	---	---	22.6	E	0.38	33.0	-33.9	---	---	724.2	0.026	0.000	19.7	4	1
03/06/06	9:37 p	-19.8	-19.8	-19.9	---	---	37.4	E	0.62	43.5	-36.9	---	---	723.9	0.026	0.000	19.7	4	1
03/06/06	9:38 p	-19.9	-19.9	-19.9	---	---	33.9	E	0.57	37.4	-36.6	---	---	723.9	0.027	0.000	19.7	4	1
03/06/06	9:39 p	-20.0	-19.9	-20.1	---	---	34.8	E	0.58	40.0	-36.8	---	---	723.8	0.027	0.000	19.7	5	1
03/06/06	9:40 p	-20.1	-20.1	-20.2	---	---	39.1	E	0.65	43.5	-37.7	---	---	723.8	0.027	0.000	19.7	5	1
03/06/06	9:41 p	-20.2	-20.2	-20.2	---	---	34.8	ENE	0.58	42.6	-37.1	---	---	724.1	0.027	0.000	19.7	5	1
03/06/06	9:42 p	-20.2	-20.2	-20.2	---	---	32.2	E	0.54	35.7	-36.7	---	---	724.0	0.027	0.000	19.7	5	1
03/06/06	9:43 p	-20.3	-20.2	-20.3	---	---	30.4	E	0.51	34.8	-36.4	---	---	723.8	0.027	0.000	19.7	5	1
03/06/06	9:44 p	-20.2	-20.2	-20.3	---	---	35.7	E	0.59	40.9	-37.3	---	---	723.8	0.027	0.000	19.7	5	1
03/06/06	9:45 p	-20.3	-20.3	-20.3	---	---	38.3	ENE	0.64	44.3	-37.8	---	---	724.0	0.027	0.000	19.7	5	1
03/06/06	9:46 p	-20.3	-20.2	-20.3	---	---	33.0	E	0.55	38.3	-36.9	---	---	724.2	0.027	0.000	19.6	5	1
03/06/06	9:47 p	-20.3	-20.2	-20.3	---	---	33.0	E	0.55	36.5	-36.9	---	---	724.0	0.027	0.000	19.6	5	1
03/06/06	9:48 p	-20.4	-20.3	-20.4	---	---	28.7	E	0.48	33.0	-36.2	---	---	724.4	0.027	0.000	19.6	5	1
03/06/06	9:49 p	-20.4	-20.3	-20.4	---	---	27.8	E	0.46	35.7	-36.0	---	---	724.0	0.027	0.000	19.6	5	1
03/06/06	9:50 p	-20.4	-20.4	-20.4	---	---	36.5	E	0.61	40.9	-37.7	---	---	723.7	0.027	0.000	19.6	5	1
03/06/06	9:51 p	-20.5	-20.5	-20.5	---	---	37.4	E	0.62	40.9	-37.9	---	---	724.0	0.027	0.000	19.6	5	1
03/06/06	9:52 p	-20.5	-20.4	-20.5	---	---	36.5	E	0.61	40.9	-37.8	---	---	724.0	0.027	0.000	19.6	5	1
03/06/06	9:53 p	-20.4	-20.4	-20.5	---	---	33.0	E	0.55	36.5	-37.1	---	---	724.3	0.027	0.000	19.5	5	1
03/06/06	9:54 p	-20.4	-20.4	-20.4	---	---	27.0	E	0.45	33.0	-35.8	---	---	724.6	0.027	0.000	19.5	5	1
03/06/06	9:55 p	-20.3	-20.3	-20.4	---	---	27.0	E	0.45	35.7	-35.8	---	---	724.2	0.027	0.000	19.4	5	1
03/06/06	9:56 p	-20.3	-20.3	-20.3	---	---	37.4	ENE	0.62	40.9	-37.6	---	---	723.9	0.027	0.000	19.4	5	1
03/06/06	9:57 p	-20.2	-20.2	-20.3	---	---	34.8	E	0.58	39.1	-37.1	---	---	724.0	0.027	0.000	19.4	5	1
03/06/06	9:58 p	-20.2	-20.2	-20.2	---	---	30.4	E	0.51	35.7	-36.3	---	---	724.5	0.027	0.000	19.4	5	1
03/06/06	9:59 p	-20.2	-20.2	-20.2	---	---	27.0	E	0.45	33.0	-35.5	---	---	724.2	0.027	0.000	19.4	4	1
03/06/06	10:00 p	-20.2	-20.2	-20.2	---	---	33.9	E	0.57	37.4	-36.9	---	---	724.0	0.027	0.000	19.4	4	1
03/06/06	10:01 p	-20.2	-20.2	-20.2	---	---	32.2	E	0.54	40.9	-36.6	---	---	724.3	0.027	0.000	19.4	4	1
03/06/06	10:02 p	-20.2	-20.2	-20.2	---	---	27.0	E	0.45	32.2	-35.5	---	---	724.3	0.027	0.000	19.3	4	1
03/06/06	10:03 p	-20.2	-20.2	-20.2	---	---	29.6	E	0.49	34.8	-36.1	---	---	723.8	0.027	0.000	19.3	4	1
03/06/06	10:04 p	-20.3	-20.3	-20.3	---	---	38.3	E	0.64	47.0	-37.8	---	---	723.5	0.027	0.000	19.3	4	1
03/06/06	10:05 p	-20.3	-20.3	-20.3	---	---	37.4	E	0.62	49.6	-37.7	---	---	724.1	0.027	0.000	19.3	4	1
03/06/06	10:06 p	-20.3	-20.3	-20.3	---	---	33.0	E	0.55	40.0	-36.9	---	---	723.9	0.027	0.000	19.3	4	1
03/06/06	10:07 p	-20.3	-20.3	-20.3	---	---	33.9	E	0.57	40.0	-37.1	---	---	724.4	0.027	0.000	19.3	4	1
03/06/06	10:08 p	-20.3	-20.2	-20.3	---	---	29.6	E	0.49	35.7	-36.2	---	---	724.4	0.027	0.000	19.3	4	1
03/06/06	10:09 p	-20.2	-20.2	-20.2	---	---	27.8	E	0.46	32.2	-35.8	---	---	724.6	0.027	0.000	19.3	4	1
03/06/06	10:10 p	-20.2	-20.2	-20.3	---	---	24.3	E	0.41	27.8	-35.0	---	---	724.1	0.027	0.000	19.2	4	1
03/06/06	10:11 p	-20.3	-20.2	-20.3	---	---	35.7	E	0.59	40.9	-37.3	---	---	723.6	0.027	0.000	19.2	4	1
03/06/06	10:12 p	-20.3	-20.3	-20.3	---	---	40.9	E	0.68	43.5	-38.2	---	---	723.8	0.027	0.000	19.2	4	1
03/06/06	10:13 p	-20.3	-20.3	-20.3	---	---	33.9	E	0.57	40.9	-37.1	---	---	724.1	0.027	0.000	19.2	4	1
03/06/06	10:14 p	-20.3	-20.3	-20.3	---	---	29.6	E	0.49	35.7	-36.2	---	---	724.1	0.027	0.000	19.2	4	1
03/06/06	10:15 p	-20.3	-20.3	-20.3	---	---	29.6	E	0.49	33.9	-36.3	---	---	724.2	0.027	0.000	19.2	4	1
03/06/06	10:16 p	-20.3	-20.3	-20.3	---	---	27.0	E	0.45	30.4	-35.7	---	---	724.2	0.027	0.000	19.2	4	1
03/06/06	10:17 p	-20.3	-20.3	-20.3	---	---	35.7	E	0.59	40.0	-37.4	---	---	723.7	0.027	0.000	19.2	4	1
03/06/06	10:18 p	-20.4	-20.3	-20.4	---	---	33.9	E	0.57	43.5	-37.2	---	---	724.3	0.027	0.000	19.2	4	1
03/06/06	10:19 p	-20.3	-20.3	-20.3	---	---	25.2	E	0.42	31.3	-35.4	---	---	724.5	0.027	0.000	19.2	3	1
03/06/06	10:20 p	-20.3	-20.3	-20.4	---	---	33.0	E	0.55	40.0	-36.9	---	---	723.8	0.027	0.000	19.2	3	1
03/06/06	10:21 p	-20.4	-20.3	-20.4	---	---	37.4	E	0.62	40.9	-37.8	---	---	724.2	0.027	0.000	19.2	3	1
03/06/06	10:22 p	-20.4	-20.4	-20.4	---	---	33.9	E	0.57	37.4	-37.2	---	---	724.3	0.027	0.000	19.2	3	1
03/06/06	10:23 p	-20.3	-20.3	-20.3	---	---	28.7	E	0.48	35.7	-36.1	---	---	724.7	0.027	0.000	19.2	3	1
03/06/06	10:24 p	-20.3	-20.2	-20.3	---	---	22.6	E	0.38	27.8	-34.7	---	---	724.4	0.027	0.000	19.2	3	1
03/06/06	10:25 p	-20.2	-20.2	-20.3	---	---	29.6	E	0.49	40.0	-36.2	---	---	723.7	0.027	0.000	19.1	3	1
03/06/06	10:26 p	-20.3	-20.3	-20.3	---	---	41.7	E	0.70	49.6	-38.3	---	---	724.1	0.027	0.000	19.1	3	1
03/06/06	10:27 p	-20.3	-20.3	-20.3	---	---	35.7	E	0.59	41.7	-37.3	---	---	724.7	0.027	0.000	19.1	3	1
03/06/06	10:28 p	-20.3	-20.2	-20.3	---	---	25.2	E	0.42	29.6	-35.3	---	---	724.6	0.027	0.000	19.1	3	1
03/06/06	10:29 p	-20.2	-20.2	-20.2	---	---	20.9	E	0.35	25.2	-34.1	---	---	724.4	0.027	0.000	19.1	3	1
03/06/06	10:30 p	-20.2	-20.2	-20.2	---	---	29.6	E	0.49	40.9	-36.1	---	---	723.9	0.027	0.000	19.1	3	1
03/06/06	10:31 p	-20.2	-20.2	-20.2	---	---	33.0	E	0.55	40.0	-36.7	---	---	724.1	0.027	0.000	19.1	3	1
03/06/06	10:32 p	-20.1	-20.1	-20.2	---	---	29.6	E	0.49	33.9	-36.0	---	---	724.3	0.027	0.000	19.0	3	1
03/06/06	10:33 p	-20.1	-20.1	-20.1	---	---	30.4	E	0.51	34.8	-36.1	---	---	724.2	0.027	0.000	19.0	3	1
03/06/06	10:34 p	-20.1	-20.0	-20.1	---	---	27.8	E	0.46	33.9	-35.6	---	---	724.3	0.027	0.000	19.0	3	1
03/06/06	10:35 p	-20.1	-20.1	-20.1	---	---	29.6	E	0.49	34.8	-35.9	---	---	723.9	0.027	0.000	19.0	3	1
03/06/06	10:36 p	-20.1	-20.1	-20.1	---	---	33.9	E	0.57	40.9	-36.7	---	---	724.3	0.027	0.000	18.9	3	1
03/06/06	10:37 p	-20.1	-20.1	-20.1	---	---	30.4	E	0.51	33.9	-36.2	---	---	724.4	0.027	0.000	18.9	3	1
03/06/06	10:38 p	-20.1	-20.1	-20.1	---	---	27.8	E	0.46	33.0	-35.6	---	---	724.1	0.027	0.000	18.9	3	1
03/06/06	10:39 p	-20.1	-20.1	-20.1	---	---	31.3	E	0.52	34.8	-36.2	---	---	724.2	0.027	0.000	18.9	3	1
03/06/06	10:40 p	-20.1	-20.0	-20.1	---	---	30.4	E	0.51	34.8	-36.1	---	---	724.2	0.027	0.000	18.9	3	1
03/06/06	10:41 p	-20.0	-20.0	-20.1	---	---	32.2	E	0.54	35.7	-36.3	---	---	724.4	0.027	0.000	18.9	3	1
03/06/06	10:42 p	-20.0	-20.0	-20.0	---	---	26.1	E	0.43	33.0	-35.1	---	---	724.3	0.027	0.000	18.9	3	1
03/06/06	10:43 p	-20.0	-20.0	-20.0	---	---	31.3	E	0.52	40.9	-36.2	---	---	723.7	0.027	0.000	18.9	3	1
03/06/06	10:44 p	-20.0	-20.0	-20.1	---	---	36.5	E	0.61	44.3	-37.1	---	---	724.2	0.027	0.000	18.9	3	1
03/06/06	10:45 p	-20.0	-20.0	-20.1	---	---	30.4	E	0.51	36.5	-36.0	---	---	724.5	0.027	0.000	18.9	3	1
03/06/06	10:46 p	-20.0	-20.0	-20.1	---	---	27.8	E	0.46	32.2	-35.5	---	---	724.2	0.027	0.000	18.9	3	1
03/06/06	10:47 p	-20.0	-20.0	-20.0	---	---	37.4	E	0.62	40.9	-37.2	---	---	723.9	0.027	0.000	18.9	3	1
03/06/06	10:48 p	-20.1	-20.1	-20.1	---	---	36.5	E	0.61	43.5	-37.2	---	---	724.7	0.027	0.000	18.9	3	1
03/06/06	10:49 p	-20.1	-20.0	-20.1	---	---	26.1	E	0.43	31.3	-35.2	---	---	724.7	0.027	0.000	18.8	2	1
03/06/06	10:50 p	-20.1	-20.0	-20.1	---	---	26.1	E	0.43	33.9	-35.2	---	---	724.2	0.027	0.000	18.8	2	1
03/06/06	10:51 p	-20.1	-20.1	-20.1	---	---	32.2	E	0.54	38.3	-36.4	---	---	724.1	0.027	0.000	18.8	2	1
03/06/06	10:52 p	-20.1	-20.1	-20.2	---	---	33.9	E	0.57	40.9	-36.8	---	---	724.2	0.027	0.000	18.8	2	1
03/06/06	10:53 p	-20.2	-20.2	-20.2	---	---	31.3	E	0.52	35.7	-36.4	---	---	724.2	0.027	0.000	18.8	2	1
03/06/06	10:54 p	-20.2	-20.2	-20.2	---	---	30.4	E	0.51	37.4	-36.3	---	---	724.1	0.027	0.000	18.8	2	1
03/06/06	10:55 p	-20.2	-20.2	-20.3	---	---	34.8	E	0.58	39.1	-37.1	---	---	724.3	0.027	0.000	18.8	2	1
03/06/06	10:56 p	-20.3	-20.2	-20.3	---	---	31.3	E	0.52	35.7	-36.6	---	---	724.2	0.027	0.000	18.8	2	1
03/06/06	10:57 p	-20.3	-20.3	-20.3	---	---	29.6	E	0.49	34.8	-36.2	---	---	724.1	0.027	0.000	18.8	2	1
03/06/06	10:58 p	-20.3	-20.3	-20.3	---	---	31.3	E	0.52	39.1	-36.6	---	---	724.1	0.027	0.000	18.8	2	1
03/06/06	10:59 p	-20.3	-20.3	-20.3	---	---	32.2	E	0.54	37.4	-36.7	---	---	724.2	0.027	0.000	18.8	2	1
03/06/06	11:00 p	-20.3	-20.2	-20.3	---	---	30.4	E	0.51	34.8	-36.4	---	---	724.4	0.027	0.000	18.8	2	1
03/06/06	11:01 p	-20.2	-20.2	-20.2	---	---	27.8	E	0.46	31.3	-35.8	---	---	724.4	0.027	0.000	18.8	2	1
03/06/06	11:02 p	-20.2	-20.2	-20.2	---	---	26.1	E	0.43	31.3	-35.4	---	---	724.2	0.027	0.000	18.8	2	1
03/06/06	11:03 p	-20.2	-20.2	-20.2	---	---	30.4	E	0.51	34.8	-36.2	---	---	724.1	0.027	0.000	18.8	2	1
03/06/06	11:04 p	-20.2	-20.2	-20.2	---	---	31.3	E	0.52	36.5	-36.4	---	---	724.2	0.027	0.000	18.8	2	1
03/06/06	11:05 p	-20.2	-20.1	-20.2	---	---	32.2	E	0.54	39.1	-36.6	---	---	724.5	0.027	0.000	18.8	2	1
03/06/06	11:06 p	-20.1	-20.1	-20.2	---	---	29.6	E	0.49	34.8	-36.0	---	---	724.4	0.027	0.000	18.8	2	1
03/06/06	11:07 p	-20.1	-20.1	-20.1	---	---	29.6	E	0.49	34.8	-35.9	---	---	724.2	0.027	0.000	18.8	2	1
03/06/06	11:08 p	-20.1	-20.1	-20.1	---	---	30.4	E	0.51	35.7	-36.2	---	---	724.1	0.027	0.000	18.7	2	1
03/06/06	11:09 p	-20.1	-20.1	-20.2	---	---	33.9	E	0.57	40.0	-36.8	---	---	724.3	0.027	0.000	18.8	2	1
03/06/06	11:10 p	-20.2	-20.2	-20.2	---	---	29.6	E	0.49	36.5	-36.1	---	---	724.7	0.027	0.000	18.7	2	1
03/06/06	11:11 p	-20.2	-20.1	-20.2	---	---	22.6	E	0.38	29.6	-34.5	---	---	724.6	0.027	0.000	18.7	2	1
03/06/06	11:12 p	-20.2	-20.1	-20.2	---	---	30.4	E	0.51	39.1	-36.2	---	---	724.0	0.027	0.000	18.7	2	1
03/06/06	11:13 p	-20.2	-20.2	-20.2	---	---	33.0	E	0.55	36.5	-36.7	---	---	724.1	0.027	0.000	18.7	2	1
03/06/06	11:14 p	-20.2	-20.2	-20.2	---	---	30.4	E	0.51	34.8	-36.3	---	---	724.4	0.027	0.000	18.7	2	1
03/06/06	11:15 p	-20.2	-20.2	-20.2	---	---	27.8	E	0.46	34.8	-35.8	---	---	724.2	0.027	0.000	18.7	2	1
03/06/06	11:16 p	-20.2	-20.2	-20.2	---	---	30.4	E	0.51	37.4	-36.3	---	---	724.3	0.027	0.000	18.7	2	1
03/06/06	11:17 p	-20.2	-20.2	-20.2	---	---	32.2	E	0.54	36.5	-36.7	---	---	724.2	0.027	0.000	18.7	2	1
03/06/06	11:18 p	-20.2	-20.2	-20.2	---	---	33.0	E	0.55	37.4	-36.7	---	---	724.2	0.027	0.000	18.7	2	1
03/06/06	11:19 p	-20.2	-20.1	-20.2	---	---	27.0	E	0.45	36.5	-35.5	---	---	724.5	0.027	0.000	18.7	2	1
03/06/06	11:20 p	-20.1	-20.1	-20.1	---	---	26.1	E	0.43	29.6	-35.2	---	---	724.3	0.027	0.000	18.7	2	1
03/06/06	11:21 p	-20.1	-20.1	-20.1	---	---	33.0	E	0.55	39.1	-36.6	---	---	724.3	0.027	0.000	18.7	2	1
03/06/06	11:22 p	-20.1	-20.1	-20.1	---	---	32.2	E	0.54	35.7	-36.4	---	---	724.6	0.027	0.000	18.7	2	1
03/06/06	11:23 p	-20.1	-20.1	-20.1	---	---	29.6	E	0.49	33.9	-35.9	---	---	724.7	0.027	0.000	18.7	2	1
03/06/06	11:24 p	-20.0	-19.9	-20.0	---	---	25.2	E	0.42	30.4	-34.9	---	---	724.8	0.027	0.000	18.7	2	1
03/06/06	11:25 p	-20.0	-19.9	-20.0	---	---	24.3	E	0.41	30.4	-34.7	---	---	724.5	0.027	0.000	18.7	2	1
03/06/06	11:26 p	-20.0	-20.0	-20.1	---	---	31.3	ESE	0.52	41.7	-36.2	---	---	724.0	0.027	0.000	18.7	2	1
03/06/06	11:27 p	-20.2	-20.1	-20.2	---	---	40.0	E	0.67	47.0	-37.9	---	---	724.1	0.027	0.000	18.7	2	1
03/06/06	11:28 p	-20.2	-20.2	-20.2	---	---	33.0	E	0.55	37.4	-36.8	---	---	724.4	0.027	0.000	18.7	2	1
03/06/06	11:29 p	-20.3	-20.3	-20.3	---	---	27.8	E	0.46	33.9	-35.9	---	---	724.7	0.027	0.000	18.7	2	1
03/06/06	11:30 p	-20.3	-20.3	-20.3	---	---	25.2	E	0.42	29.6	-35.4	---	---	724.7	0.027	0.000	18.7	2	1
03/06/06	11:31 p	-20.3	-20.3	-20.3	---	---	27.0	E	0.45	36.5	-35.8	---	---	724.2	0.027	0.000	18.7	2	1
03/06/06	11:32 p	-20.3	-20.3	-20.3	---	---	35.7	E	0.59	39.1	-37.4	---	---	724.1	0.027	0.000	18.6	2	1
03/06/06	11:33 p	-20.3	-20.3	-20.3	---	---	29.6	E	0.49	35.7	-36.3	---	---	724.7	0.027	0.000	18.7	2	1
03/06/06	11:34 p	-20.3	-20.3	-20.3	---	---	26.1	E	0.43	30.4	-35.6	---	---	724.6	0.027	0.000	18.6	2	1
03/06/06	11:35 p	-20.3	-20.3	-20.3	---	---	29.6	E	0.49	33.9	-36.2	---	---	724.4	0.027	0.000	18.6	2	1
03/06/06	11:36 p	-20.3	-20.3	-20.3	---	---	30.4	E	0.51	33.9	-36.4	---	---	724.2	0.027	0.000	18.6	2	1
03/06/06	11:37 p	-20.3	-20.3	-20.3	---	---	30.4	E	0.51	35.7	-36.4	---	---	724.5	0.027	0.000	18.6	2	1
03/06/06	11:38 p	-20.2	-20.2	-20.3	---	---	28.7	E	0.48	33.9	-35.9	---	---	724.9	0.027	0.000	18.6	1	1
03/06/06	11:39 p	-20.2	-20.1	-20.2	---	---	24.3	E	0.41	28.7	-34.9	---	---	724.9	0.027	0.000	18.6	2	1
03/06/06	11:40 p	-20.1	-20.1	-20.1	---	---	25.2	E	0.42	30.4	-35.0	---	---	724.5	0.027	0.000	18.6	1	1
03/06/06	11:41 p	-20.1	-20.0	-20.1	---	---	29.6	E	0.49	36.5	-35.9	---	---	724.2	0.027	0.000	18.6	1	1
03/06/06	11:42 p	-20.1	-20.1	-20.2	---	---	35.7	E	0.59	46.1	-37.1	---	---	724.2	0.027	0.000	18.6	2	1
03/06/06	11:43 p	-20.2	-20.1	-20.2	---	---	36.5	E	0.61	40.9	-37.3	---	---	724.6	0.027	0.000	18.6	1	1
03/06/06	11:44 p	-20.2	-20.2	-20.3	---	---	32.2	E	0.54	36.5	-36.7	---	---	724.7	0.027	0.000	18.5	2	1
03/06/06	11:45 p	-20.3	-20.3	-20.3	---	---	30.4	E	0.51	34.8	-36.4	---	---	724.3	0.027	0.000	18.5	1	1
03/06/06	11:46 p	-20.4	-20.3	-20.4	---	---	33.0	E	0.55	38.3	-37.1	---	---	724.6	0.027	0.000	18.5	2	1
03/06/06	11:47 p	-20.4	-20.4	-20.4	---	---	28.7	E	0.48	33.0	-36.3	---	---	724.7	0.027	0.000	18.5	2	1
03/06/06	11:48 p	-20.4	-20.4	-20.4	---	---	27.0	E	0.45	31.3	-35.9	---	---	724.6	0.027	0.000	18.5	1	1
03/06/06	11:49 p	-20.3	-20.3	-20.4	---	---	27.0	E	0.45	30.4	-35.8	---	---	724.4	0.027	0.000	18.5	1	1
03/06/06	11:50 p	-20.3	-20.3	-20.4	---	---	29.6	E	0.49	34.8	-36.3	---	---	724.4	0.027	0.000	18.5	2	1
03/06/06	11:51 p	-20.4	-20.3	-20.4	---	---	27.8	E	0.46	33.9	-36.0	---	---	724.4	0.027	0.000	18.4	1	1
03/06/06	11:52 p	-20.4	-20.4	-20.4	---	---	28.7	E	0.48	37.4	-36.2	---	---	724.3	0.027	0.000	18.4	1	1
03/06/06	11:53 p	-20.4	-20.3	-20.4	---	---	31.3	E	0.52	34.8	-36.7	---	---	724.6	0.027	0.000	18.4	1	1
03/06/06	11:54 p	-20.4	-20.4	-20.4	---	---	30.4	E	0.51	44.3	-36.6	---	---	724.1	0.027	0.000	18.4	1	1
03/06/06	11:55 p	-20.4	-20.4	-20.4	---	---	38.3	E	0.64	42.6	-37.9	---	---	724.6	0.027	0.000	18.4	1	1
03/06/06	11:56 p	-20.4	-20.3	-20.4	---	---	25.2	E	0.42	36.5	-35.4	---	---	725.2	0.027	0.000	18.4	1	1
03/06/06	11:57 p	-20.3	-20.3	-20.3	---	---	22.6	E	0.38	27.8	-34.7	---	---	725.0	0.027	0.000	18.4	1	1
03/06/06	11:58 p	-20.3	-20.3	-20.3	---	---	28.7	E	0.48	37.4	-36.1	---	---	724.4	0.027	0.000	18.4	1	1
03/06/06	11:59 p	-20.3	-20.3	-20.4	---	---	33.0	E	0.55	40.9	-36.9	---	---	724.6	0.027	0.000	18.4	1	1
03/07/06	12:00 a	-20.3	-20.3	-20.4	---	---	27.8	E	0.46	33.0	-35.9	---	---	724.9	0.027	0.000	18.4	1	1
03/07/06	12:01 a	-20.3	-20.3	-20.3	---	---	28.7	E	0.48	33.9	-36.1	---	---	724.7	0.027	0.000	18.4	1	1
03/07/06	12:02 a	-20.3	-20.2	-20.3	---	---	31.3	E	0.52	38.3	-36.6	---	---	724.6	0.027	0.000	18.4	1	1
03/07/06	12:03 a	-20.3	-20.3	-20.4	---	---	28.7	E	0.48	34.8	-36.1	---	---	724.5	0.027	0.000	18.4	1	1
03/07/06	12:04 a	-20.3	-20.3	-20.4	---	---	31.3	E	0.52	35.7	-36.6	---	---	724.7	0.027	0.000	18.4	1	1
03/07/06	12:05 a	-20.4	-20.4	-20.4	---	---	28.7	E	0.48	32.2	-36.2	---	---	724.8	0.027	0.000	18.4	1	1
03/07/06	12:06 a	-20.4	-20.4	-20.4	---	---	27.8	E	0.46	35.7	-36.1	---	---	724.7	0.027	0.000	18.4	1	1
03/07/06	12:07 a	-20.4	-20.4	-20.4	---	---	29.6	E	0.49	33.9	-36.4	---	---	724.7	0.027	0.000	18.4	1	1
03/07/06	12:08 a	-20.4	-20.4	-20.4	---	---	31.3	E	0.52	37.4	-36.7	---	---	724.4	0.027	0.000	18.4	1	1
03/07/06	12:09 a	-20.4	-20.4	-20.4	---	---	33.0	E	0.55	40.0	-37.1	---	---	724.6	0.027	0.000	18.4	1	1
03/07/06	12:10 a	-20.4	-20.3	-20.4	---	---	27.0	E	0.45	35.7	-35.8	---	---	724.9	0.027	0.000	18.4	1	1
03/07/06	12:11 a	-20.3	-20.3	-20.3	---	---	28.7	E	0.48	31.3	-36.1	---	---	724.8	0.027	0.000	18.4	1	1
03/07/06	12:12 a	-20.3	-20.3	-20.4	---	---	28.7	E	0.48	33.0	-36.1	---	---	724.5	0.027	0.000	18.4	1	1
03/07/06	12:13 a	-20.4	-20.4	-20.4	---	---	28.7	E	0.48	33.0	-36.2	---	---	724.5	0.027	0.000	18.4	1	1
03/07/06	12:14 a	-20.4	-20.4	-20.4	---	---	31.3	E	0.52	40.0	-36.8	---	---	724.2	0.027	0.000	18.4	1	1
03/07/06	12:15 a	-20.4	-20.4	-20.5	---	---	32.2	E	0.54	38.3	-36.9	---	---	724.4	0.027	0.000	18.4	1	1
03/07/06	12:16 a	-20.5	-20.5	-20.5	---	---	29.6	E	0.49	35.7	-36.5	---	---	724.7	0.027	0.000	18.4	1	1
03/07/06	12:17 a	-20.5	-20.4	-20.5	---	---	26.1	E	0.43	31.3	-35.8	---	---	724.7	0.027	0.000	18.4	1	1
03/07/06	12:18 a	-20.5	-20.5	-20.5	---	---	37.4	E	0.62	45.2	-37.9	---	---	724.0	0.027	0.000	18.4	1	1
03/07/06	12:19 a	-20.5	-20.5	-20.6	---	---	35.7	E	0.59	44.3	-37.7	---	---	724.6	0.027	0.000	18.4	1	1
03/07/06	12:20 a	-20.4	-20.4	-20.5	---	---	28.7	E	0.48	33.0	-36.3	---	---	724.8	0.027	0.000	18.4	1	1
03/07/06	12:21 a	-20.4	-20.4	-20.5	---	---	29.6	E	0.49	33.9	-36.4	---	---	724.8	0.027	0.000	18.3	1	1
03/07/06	12:22 a	-20.4	-20.4	-20.4	---	---	26.1	E	0.43	29.6	-35.7	---	---	724.6	0.027	0.000	18.3	1	1
03/07/06	12:23 a	-20.4	-20.4	-20.4	---	---	32.2	E	0.54	38.3	-36.9	---	---	724.3	0.027	0.000	18.3	1	1
03/07/06	12:24 a	-20.4	-20.4	-20.4	---	---	33.9	E	0.57	40.0	-37.3	---	---	724.8	0.027	0.000	18.3	1	1
03/07/06	12:25 a	-20.4	-20.4	-20.4	---	---	28.7	E	0.48	33.0	-36.3	---	---	724.9	0.027	0.000	18.3	1	1
03/07/06	12:26 a	-20.4	-20.4	-20.4	---	---	27.0	E	0.45	33.9	-35.9	---	---	724.6	0.027	0.000	18.3	1	1
03/07/06	12:27 a	-20.4	-20.4	-20.4	---	---	31.3	E	0.52	37.4	-36.8	---	---	724.3	0.027	0.000	18.3	1	1
03/07/06	12:28 a	-20.5	-20.4	-20.6	---	---	33.0	E	0.55	40.9	-37.2	---	---	724.5	0.027	0.000	18.3	1	1
03/07/06	12:29 a	-20.6	-20.5	-20.6	---	---	30.4	E	0.51	35.7	-36.8	---	---	724.6	0.027	0.000	18.3	1	1
03/07/06	12:30 a	-20.6	-20.5	-20.6	---	---	31.3	ESE	0.52	34.8	-36.9	---	---	724.7	0.027	0.000	18.3	1	1
03/07/06	12:31 a	-20.5	-20.4	-20.6	---	---	30.4	E	0.51	35.7	-36.7	---	---	724.5	0.027	0.000	18.3	1	1
03/07/06	12:32 a	-20.5	-20.4	-20.5	---	---	33.9	E	0.57	40.0	-37.3	---	---	724.5	0.027	0.000	18.3	1	1
03/07/06	12:33 a	-20.6	-20.5	-20.6	---	---	36.5	E	0.61	39.1	-37.9	---	---	724.7	0.027	0.000	18.3	1	1
03/07/06	12:34 a	-20.6	-20.6	-20.6	---	---	28.7	E	0.48	33.9	-36.5	---	---	724.8	0.027	0.000	18.3	1	1
03/07/06	12:35 a	-20.6	-20.6	-20.6	---	---	27.0	E	0.45	31.3	-36.1	---	---	724.6	0.027	0.000	18.3	1	1
03/07/06	12:36 a	-20.7	-20.6	-20.7	---	---	34.8	E	0.58	40.9	-37.7	---	---	724.3	0.027	0.000	18.3	1	1
03/07/06	12:37 a	-20.7	-20.7	-20.7	---	---	35.7	E	0.59	41.7	-37.9	---	---	724.5	0.027	0.000	18.3	1	1
03/07/06	12:38 a	-20.7	-20.7	-20.8	---	---	32.2	E	0.54	36.5	-37.3	---	---	724.5	0.027	0.000	18.3	1	1
03/07/06	12:39 a	-20.7	-20.7	-20.8	---	---	32.2	E	0.54	37.4	-37.3	---	---	724.6	0.027	0.000	18.3	1	1
03/07/06	12:40 a	-20.7	-20.7	-20.8	---	---	33.0	E	0.55	36.5	-37.5	---	---	724.5	0.027	0.000	18.3	1	1
03/07/06	12:41 a	-20.8	-20.7	-20.8	---	---	31.3	E	0.52	36.5	-37.2	---	---	724.4	0.027	0.000	18.3	1	1
03/07/06	12:42 a	-20.7	-20.7	-20.8	---	---	31.3	E	0.52	36.5	-37.2	---	---	724.5	0.027	0.000	18.3	1	1
03/07/06	12:43 a	-20.8	-20.7	-20.8	---	---	33.0	E	0.55	38.3	-37.6	---	---	724.6	0.027	0.000	18.3	1	1
03/07/06	12:44 a	-20.7	-20.7	-20.8	---	---	29.6	E	0.49	34.8	-36.8	---	---	724.5	0.027	0.000	18.3	1	1
03/07/06	12:45 a	-20.7	-20.7	-20.7	---	---	33.9	E	0.57	37.4	-37.7	---	---	724.4	0.027	0.000	18.3	1	1
03/07/06	12:46 a	-20.7	-20.7	-20.7	---	---	33.9	E	0.57	40.0	-37.7	---	---	724.5	0.027	0.000	18.3	1	1
03/07/06	12:47 a	-20.7	-20.7	-20.7	---	---	36.5	E	0.61	41.7	-38.1	---	---	724.7	0.027	0.000	18.3	1	1
03/07/06	12:48 a	-20.8	-20.7	-20.8	---	---	30.4	E	0.51	37.4	-37.1	---	---	725.0	0.027	0.000	18.3	1	1
03/07/06	12:49 a	-20.8	-20.8	-20.8	---	---	23.5	E	0.39	29.6	-35.6	---	---	724.8	0.027	0.000	18.3	1	1
03/07/06	12:50 a	-20.8	-20.8	-20.8	---	---	31.3	E	0.52	47.8	-37.2	---	---	724.0	0.027	0.000	18.2	1	1
03/07/06	12:51 a	-20.8	-20.8	-20.9	---	---	41.7	ENE	0.70	47.8	-39.1	---	---	724.3	0.027	0.000	18.3	1	1
03/07/06	12:52 a	-20.9	-20.9	-20.9	---	---	37.4	E	0.62	45.2	-38.5	---	---	724.9	0.027	0.000	18.2	1	1
03/07/06	12:53 a	-20.8	-20.8	-20.8	---	---	29.6	E	0.49	34.8	-37.0	---	---	724.8	0.027	0.000	18.2	1	1
03/07/06	12:54 a	-20.8	-20.8	-20.8	---	---	27.0	E	0.45	31.3	-36.4	---	---	724.8	0.027	0.000	18.2	1	1
03/07/06	12:55 a	-20.7	-20.7	-20.8	---	---	26.1	E	0.43	31.3	-36.1	---	---	724.6	0.027	0.000	18.2	1	1
03/07/06	12:56 a	-20.8	-20.7	-20.8	---	---	39.1	E	0.65	46.1	-38.6	---	---	724.2	0.027	0.000	18.2	1	1
03/07/06	12:57 a	-20.9	-20.8	-20.9	---	---	41.7	ENE	0.70	47.8	-39.2	---	---	724.3	0.027	0.000	18.2	1	1
03/07/06	12:58 a	-20.9	-20.9	-20.9	---	---	33.9	E	0.57	39.1	-37.9	---	---	725.0	0.027	0.000	18.2	1	1
03/07/06	12:59 a	-20.9	-20.9	-20.9	---	---	23.5	E	0.39	28.7	-35.8	---	---	725.0	0.027	0.000	18.2	1	1
03/07/06	1:00 a	-20.9	-20.8	-20.9	---	---	25.2	E	0.42	32.2	-36.1	---	---	724.7	0.027	0.000	18.2	1	1
03/07/06	1:01 a	-20.9	-20.9	-20.9	---	---	36.5	E	0.61	46.1	-38.3	---	---	723.9	0.027	0.000	18.2	1	1
03/07/06	1:02 a	-21.0	-21.0	-21.0	---	---	41.7	E	0.70	47.8	-39.3	---	---	724.7	0.027	0.000	18.2	1	1
03/07/06	1:03 a	-20.9	-20.9	-21.0	---	---	30.4	E	0.51	36.5	-37.3	---	---	725.0	0.027	0.000	18.2	1	1
03/07/06	1:04 a	-20.9	-20.9	-20.9	---	---	22.6	E	0.38	27.8	-35.5	---	---	724.9	0.027	0.000	18.1	1	1
03/07/06	1:05 a	-20.9	-20.8	-20.9	---	---	24.3	E	0.41	31.3	-35.9	---	---	724.4	0.027	0.000	18.1	1	1
03/07/06	1:06 a	-20.9	-20.8	-20.9	---	---	36.5	E	0.61	42.6	-38.3	---	---	724.2	0.027	0.000	18.1	1	1
03/07/06	1:07 a	-21.0	-20.9	-21.0	---	---	36.5	E	0.61	42.6	-38.5	---	---	724.7	0.027	0.000	18.1	1	1
03/07/06	1:08 a	-20.9	-20.9	-21.0	---	---	27.0	E	0.45	31.3	-36.6	---	---	724.9	0.027	0.000	18.1	1	1
03/07/06	1:09 a	-20.9	-20.9	-20.9	---	---	27.0	E	0.45	32.2	-36.5	---	---	724.5	0.027	0.000	18.1	1	1
03/07/06	1:10 a	-20.9	-20.9	-20.9	---	---	33.9	E	0.57	42.6	-37.9	---	---	724.0	0.027	0.000	18.1	1	1
03/07/06	1:11 a	-21.0	-20.9	-21.1	---	---	39.1	E	0.65	45.2	-38.9	---	---	724.4	0.027	0.000	18.1	1	1
03/07/06	1:12 a	-21.1	-21.1	-21.1	---	---	31.3	E	0.52	35.7	-37.7	---	---	724.7	0.027	0.000	18.1	1	1
03/07/06	1:13 a	-21.1	-21.1	-21.1	---	---	26.1	E	0.43	32.2	-36.6	---	---	724.4	0.027	0.000	18.1	1	1
03/07/06	1:14 a	-21.1	-21.0	-21.1	---	---	31.3	E	0.52	37.4	-37.6	---	---	724.2	0.027	0.000	18.1	1	1
03/07/06	1:15 a	-21.1	-21.1	-21.1	---	---	34.8	E	0.58	40.0	-38.3	---	---	724.3	0.027	0.000	18.1	1	1
03/07/06	1:16 a	-21.1	-21.1	-21.1	---	---	40.9	E	0.68	43.5	-39.3	---	---	724.4	0.027	0.000	18.1	1	1
03/07/06	1:17 a	-21.1	-21.1	-21.1	---	---	28.7	E	0.48	38.3	-37.2	---	---	725.0	0.027	0.000	18.1	1	1
03/07/06	1:18 a	-21.1	-21.1	-21.1	---	---	24.3	E	0.41	30.4	-36.2	---	---	724.8	0.027	0.000	18.1	1	1
03/07/06	1:19 a	-21.1	-21.0	-21.1	---	---	40.0	E	0.67	45.2	-39.1	---	---	724.1	0.027	0.000	18.1	1	1
03/07/06	1:20 a	-21.1	-21.1	-21.2	---	---	37.4	E	0.62	43.5	-38.8	---	---	724.7	0.027	0.000	18.0	1	1
03/07/06	1:21 a	-21.2	-21.1	-21.2	---	---	28.7	E	0.48	34.8	-37.3	---	---	725.1	0.027	0.000	18.1	1	1
03/07/06	1:22 a	-21.1	-21.1	-21.2	---	---	22.6	E	0.38	28.7	-35.8	---	---	724.8	0.027	0.000	18.0	1	1
03/07/06	1:23 a	-21.2	-21.1	-21.2	---	---	33.9	E	0.57	42.6	-38.3	---	---	723.8	0.027	0.000	18.0	1	1
03/07/06	1:24 a	-21.2	-21.2	-21.3	---	---	36.5	E	0.61	39.1	-38.8	---	---	724.0	0.027	0.000	18.0	1	1
03/07/06	1:25 a	-21.2	-21.2	-21.2	---	---	35.7	E	0.59	40.0	-38.7	---	---	724.2	0.027	0.000	18.0	1	1
03/07/06	1:26 a	-21.2	-21.2	-21.2	---	---	33.9	E	0.57	38.3	-38.3	---	---	724.4	0.027	0.000	18.0	1	1
03/07/06	1:27 a	-21.2	-21.2	-21.2	---	---	35.7	E	0.59	38.3	-38.6	---	---	724.4	0.027	0.000	18.0	1	1
03/07/06	1:28 a	-21.2	-21.2	-21.2	---	---	33.0	E	0.55	37.4	-38.1	---	---	724.7	0.027	0.000	18.0	1	1
03/07/06	1:29 a	-21.1	-21.1	-21.2	---	---	28.7	E	0.48	33.9	-37.2	---	---	724.8	0.027	0.000	18.0	1	1
03/07/06	1:30 a	-21.1	-21.0	-21.1	---	---	27.8	E	0.46	31.3	-36.9	---	---	724.5	0.027	0.000	18.0	1	1
03/07/06	1:31 a	-21.0	-21.0	-21.1	---	---	33.9	ENE	0.57	39.1	-38.1	---	---	724.1	0.027	0.000	18.0	1	1
03/07/06	1:32 a	-21.1	-21.1	-21.1	---	---	36.5	E	0.61	41.7	-38.7	---	---	724.5	0.027	0.000	18.0	1	1
03/07/06	1:33 a	-21.2	-21.2	-21.2	---	---	31.3	E	0.52	34.8	-37.8	---	---	724.7	0.027	0.000	18.0	1	1
03/07/06	1:34 a	-21.2	-21.2	-21.2	---	---	29.6	E	0.49	35.7	-37.4	---	---	724.5	0.027	0.000	18.0	1	1
03/07/06	1:35 a	-21.2	-21.2	-21.2	---	---	35.7	E	0.59	40.0	-38.7	---	---	724.3	0.027	0.000	18.0	1	1
03/07/06	1:36 a	-21.2	-21.2	-21.3	---	---	38.3	E	0.64	44.3	-39.1	---	---	724.4	0.027	0.000	18.0	1	1
03/07/06	1:37 a	-21.3	-21.2	-21.3	---	---	33.0	E	0.55	38.3	-38.3	---	---	724.5	0.028	0.000	18.0	1	1
03/07/06	1:38 a	-21.2	-21.2	-21.2	---	---	29.6	E	0.49	33.9	-37.5	---	---	724.6	0.027	0.000	18.0	1	1
03/07/06	1:39 a	-21.2	-21.2	-21.2	---	---	27.8	E	0.46	34.8	-37.1	---	---	724.3	0.027	0.000	17.9	1	1
03/07/06	1:40 a	-21.2	-21.2	-21.2	---	---	36.5	E	0.61	41.7	-38.7	---	---	724.3	0.027	0.000	17.9	1	1
03/07/06	1:41 a	-21.2	-21.2	-21.2	---	---	33.0	E	0.55	40.9	-38.1	---	---	724.6	0.027	0.000	17.9	1	1
03/07/06	1:42 a	-21.2	-21.2	-21.2	---	---	33.0	E	0.55	37.4	-38.1	---	---	724.4	0.027	0.000	17.9	1	1
03/07/06	1:43 a	-21.2	-21.1	-21.2	---	---	33.9	E	0.57	39.1	-38.3	---	---	724.5	0.027	0.000	17.9	1	1
03/07/06	1:44 a	-21.2	-21.2	-21.2	---	---	38.3	E	0.64	47.0	-39.0	---	---	724.1	0.027	0.000	17.9	1	1
03/07/06	1:45 a	-21.2	-21.1	-21.2	---	---	37.4	E	0.62	42.6	-38.9	---	---	724.6	0.027	0.000	17.9	1	1
03/07/06	1:46 a	-21.1	-21.1	-21.1	---	---	30.4	E	0.51	38.3	-37.6	---	---	724.8	0.027	0.000	18.0	1	1
03/07/06	1:47 a	-21.1	-21.1	-21.1	---	---	28.7	E	0.48	34.8	-37.1	---	---	724.6	0.027	0.000	18.0	1	1
03/07/06	1:48 a	-21.1	-21.0	-21.1	---	---	34.8	E	0.58	40.0	-38.3	---	---	724.3	0.027	0.000	18.1	1	1
03/07/06	1:49 a	-21.1	-21.1	-21.1	---	---	40.0	E	0.67	47.8	-39.2	---	---	724.8	0.027	0.000	18.1	1	1
03/07/06	1:50 a	-21.1	-21.1	-21.1	---	---	33.0	E	0.55	36.5	-38.1	---	---	724.9	0.027	0.000	18.1	1	1
03/07/06	1:51 a	-21.2	-21.1	-21.2	---	---	30.4	E	0.51	35.7	-37.6	---	---	724.7	0.027	0.000	18.1	1	1
03/07/06	1:52 a	-21.2	-21.1	-21.2	---	---	31.3	E	0.52	34.8	-37.8	---	---	724.6	0.027	0.000	18.2	1	1
03/07/06	1:53 a	-21.2	-21.2	-21.2	---	---	32.2	E	0.54	37.4	-37.9	---	---	724.3	0.027	0.000	18.2	1	1
03/07/06	1:54 a	-21.2	-21.2	-21.2	---	---	41.7	ENE	0.70	48.7	-39.6	---	---	724.0	0.027	0.000	18.2	1	1
03/07/06	1:55 a	-21.2	-21.2	-21.2	---	---	42.6	ENE	0.71	47.8	-39.7	---	---	724.5	0.027	0.000	18.2	1	1
03/07/06	1:56 a	-21.2	-21.2	-21.2	---	---	35.7	E	0.59	42.6	-38.6	---	---	724.6	0.027	0.000	18.2	1	1
03/07/06	1:57 a	-21.1	-21.1	-21.1	---	---	31.3	E	0.52	37.4	-37.7	---	---	724.8	0.027	0.000	18.2	1	1
03/07/06	1:58 a	-21.1	-21.0	-21.1	---	---	27.8	E	0.46	34.8	-36.9	---	---	724.7	0.027	0.000	18.2	1	1
03/07/06	1:59 a	-20.9	-20.9	-21.0	---	---	28.7	E	0.48	33.0	-36.9	---	---	724.5	0.027	0.000	18.2	1	1
03/07/06	2:00 a	-20.9	-20.9	-20.9	---	---	33.9	E	0.57	41.7	-37.9	---	---	724.1	0.027	0.000	18.2	1	1
03/07/06	2:01 a	-20.9	-20.9	-20.9	---	---	40.9	E	0.68	49.6	-39.1	---	---	724.0	0.027	0.000	18.2	1	1
03/07/06	2:02 a	-20.8	-20.8	-20.8	---	---	33.9	E	0.57	41.7	-37.8	---	---	724.4	0.027	0.000	18.2	1	1
03/07/06	2:03 a	-20.8	-20.8	-20.9	---	---	31.3	E	0.52	35.7	-37.3	---	---	724.9	0.027	0.000	18.1	1	1
03/07/06	2:04 a	-20.8	-20.8	-20.8	---	---	27.0	E	0.45	32.2	-36.4	---	---	724.6	0.027	0.000	18.1	1	1
03/07/06	2:05 a	-20.8	-20.8	-20.8	---	---	31.3	E	0.52	38.3	-37.2	---	---	724.4	0.027	0.000	18.1	1	1
03/07/06	2:06 a	-20.8	-20.8	-20.8	---	---	40.9	ENE	0.68	45.2	-38.9	---	---	724.4	0.027	0.000	18.1	1	1
03/07/06	2:07 a	-20.8	-20.8	-20.8	---	---	34.8	ENE	0.58	41.7	-37.9	---	---	724.7	0.027	0.000	18.1	1	1
03/07/06	2:08 a	-20.8	-20.8	-20.8	---	---	30.4	E	0.51	35.7	-37.1	---	---	724.7	0.027	0.000	18.1	1	1
03/07/06	2:09 a	-20.8	-20.8	-20.8	---	---	28.7	E	0.48	33.0	-36.7	---	---	724.6	0.027	0.000	18.1	1	1
03/07/06	2:10 a	-20.8	-20.7	-20.8	---	---	30.4	E	0.51	39.1	-37.1	---	---	724.2	0.027	0.000	18.1	1	1
03/07/06	2:11 a	-20.8	-20.8	-20.8	---	---	36.5	E	0.61	40.9	-38.2	---	---	724.2	0.027	0.000	18.1	1	1
03/07/06	2:12 a	-20.8	-20.8	-20.8	---	---	33.9	E	0.57	41.7	-37.8	---	---	724.6	0.027	0.000	18.1	1	1
03/07/06	2:13 a	-20.8	-20.8	-20.8	---	---	29.6	E	0.49	33.9	-37.0	---	---	724.6	0.027	0.000	18.1	1	1
03/07/06	2:14 a	-20.8	-20.8	-20.8	---	---	33.0	E	0.55	39.1	-37.7	---	---	724.3	0.027	0.000	18.1	1	1
03/07/06	2:15 a	-20.9	-20.8	-20.9	---	---	35.7	E	0.59	41.7	-38.2	---	---	724.5	0.027	0.000	18.0	1	1
03/07/06	2:16 a	-20.9	-20.9	-21.0	---	---	35.7	E	0.59	39.1	-38.3	---	---	724.5	0.027	0.000	18.0	1	1
03/07/06	2:17 a	-21.1	-21.0	-21.1	---	---	30.4	E	0.51	36.5	-37.4	---	---	724.6	0.027	0.000	18.0	1	1
03/07/06	2:18 a	-21.1	-21.1	-21.1	---	---	31.3	E	0.52	37.4	-37.6	---	---	724.5	0.027	0.000	18.0	1	1
03/07/06	2:19 a	-21.1	-21.1	-21.1	---	---	34.8	E	0.58	40.9	-38.3	---	---	724.3	0.027	0.000	18.0	1	1
03/07/06	2:20 a	-21.1	-21.1	-21.1	---	---	38.3	E	0.64	44.3	-38.8	---	---	724.2	0.027	0.000	18.0	1	1
03/07/06	2:21 a	-21.1	-21.1	-21.1	---	---	32.2	E	0.54	37.4	-37.8	---	---	724.6	0.027	0.000	18.0	1	1
03/07/06	2:22 a	-21.1	-21.1	-21.1	---	---	30.4	E	0.51	33.9	-37.4	---	---	724.7	0.027	0.000	18.0	1	1
03/07/06	2:23 a	-21.0	-21.0	-21.1	---	---	34.8	E	0.58	41.7	-38.2	---	---	724.2	0.027	0.000	18.0	1	1
03/07/06	2:24 a	-21.0	-20.9	-21.0	---	---	34.8	E	0.58	42.6	-38.2	---	---	724.7	0.027	0.000	18.0	1	1
03/07/06	2:25 a	-21.0	-20.9	-21.0	---	---	28.7	E	0.48	33.0	-37.1	---	---	724.8	0.027	0.000	17.9	1	1
03/07/06	2:26 a	-20.9	-20.9	-21.0	---	---	31.3	E	0.52	35.7	-37.5	---	---	724.6	0.027	0.000	17.9	1	1
03/07/06	2:27 a	-20.9	-20.9	-21.0	---	---	40.9	E	0.68	50.4	-39.1	---	---	724.0	0.027	0.000	17.9	1	1
03/07/06	2:28 a	-21.0	-21.0	-21.0	---	---	44.3	ENE	0.74	48.7	-39.7	---	---	724.4	0.027	0.000	17.9	1	1
03/07/06	2:29 a	-21.0	-21.0	-21.1	---	---	29.6	ENE	0.49	38.3	-37.2	---	---	725.1	0.027	0.000	17.9	1	1
03/07/06	2:30 a	-21.0	-21.0	-21.1	---	---	24.3	E	0.41	31.3	-36.1	---	---	725.1	0.027	0.000	17.9	1	1
03/07/06	2:31 a	-21.0	-21.0	-21.1	---	---	32.2	E	0.54	43.5	-37.7	---	---	724.1	0.027	0.000	18.0	1	1
03/07/06	2:32 a	-21.1	-21.1	-21.1	---	---	45.2	ENE	0.75	47.8	-39.9	---	---	724.4	0.027	0.000	18.0	1	1
03/07/06	2:33 a	-21.1	-21.1	-21.1	---	---	35.7	E	0.59	40.9	-38.5	---	---	724.7	0.027	0.000	18.1	1	1
03/07/06	2:34 a	-21.1	-21.1	-21.1	---	---	33.9	E	0.57	39.1	-38.1	---	---	724.4	0.027	0.000	18.1	1	1
03/07/06	2:35 a	-21.1	-21.1	-21.1	---	---	34.8	E	0.58	40.9	-38.3	---	---	724.5	0.027	0.000	18.1	1	1
03/07/06	2:36 a	-21.1	-21.1	-21.1	---	---	39.1	E	0.65	46.1	-39.0	---	---	724.3	0.027	0.000	18.2	1	1
03/07/06	2:37 a	-21.1	-21.0	-21.1	---	---	35.7	E	0.59	41.7	-38.4	---	---	724.8	0.027	0.000	18.2	1	1
03/07/06	2:38 a	-21.0	-20.9	-21.0	---	---	26.1	E	0.43	33.9	-36.4	---	---	725.1	0.027	0.000	18.2	1	1
03/07/06	2:39 a	-20.9	-20.9	-21.0	---	---	27.8	E	0.46	32.2	-36.8	---	---	724.3	0.027	0.000	18.2	1	1
03/07/06	2:40 a	-20.9	-20.9	-21.0	---	---	41.7	E	0.70	48.7	-39.2	---	---	723.8	0.027	0.000	18.2	1	1
03/07/06	2:41 a	-20.9	-20.9	-20.9	---	---	41.7	E	0.70	47.0	-39.2	---	---	724.3	0.027	0.000	18.2	1	1
03/07/06	2:42 a	-20.9	-20.9	-20.9	---	---	34.8	E	0.58	40.9	-38.1	---	---	724.4	0.027	0.000	18.2	1	1
03/07/06	2:43 a	-20.8	-20.8	-20.8	---	---	27.8	E	0.46	35.7	-36.6	---	---	724.9	0.027	0.000	18.2	1	1
03/07/06	2:44 a	-20.8	-20.8	-20.8	---	---	26.1	E	0.43	32.2	-36.2	---	---	724.8	0.027	0.000	18.2	1	1
03/07/06	2:45 a	-20.8	-20.8	-20.8	---	---	32.2	E	0.54	36.5	-37.4	---	---	723.8	0.027	0.000	18.2	1	1
03/07/06	2:46 a	-20.9	-20.8	-20.9	---	---	40.0	E	0.67	46.1	-38.9	---	---	724.3	0.027	0.000	18.2	1	1
03/07/06	2:47 a	-20.8	-20.8	-20.8	---	---	35.7	E	0.59	42.6	-38.1	---	---	724.9	0.027	0.000	18.2	1	1
03/07/06	2:48 a	-20.8	-20.8	-20.8	---	---	25.2	E	0.42	27.0	-35.9	---	---	725.1	0.027	0.000	18.2	1	1
03/07/06	2:49 a	-20.7	-20.7	-20.8	---	---	25.2	E	0.42	28.7	-35.9	---	---	724.8	0.027	0.000	18.2	1	1
03/07/06	2:50 a	-20.7	-20.7	-20.7	---	---	32.2	E	0.54	39.1	-37.3	---	---	724.2	0.027	0.000	18.2	1	1
03/07/06	2:51 a	-20.7	-20.7	-20.7	---	---	35.7	E	0.59	40.0	-37.9	---	---	723.9	0.027	0.000	18.2	1	1
03/07/06	2:52 a	-20.7	-20.7	-20.7	---	---	39.1	E	0.65	45.2	-38.6	---	---	724.0	0.027	0.000	18.1	1	1
03/07/06	2:53 a	-20.7	-20.7	-20.7	---	---	33.9	E	0.57	41.7	-37.7	---	---	724.8	0.027	0.000	18.1	1	1
03/07/06	2:54 a	-20.7	-20.7	-20.7	---	---	28.7	E	0.48	31.3	-36.7	---	---	724.7	0.027	0.000	18.1	1	1
03/07/06	2:55 a	-20.7	-20.7	-20.7	---	---	29.6	E	0.49	33.9	-36.8	---	---	724.9	0.027	0.000	18.1	1	1
03/07/06	2:56 a	-20.7	-20.6	-20.7	---	---	25.2	E	0.42	28.7	-35.8	---	---	725.0	0.027	0.000	18.1	1	1
03/07/06	2:57 a	-20.6	-20.6	-20.6	---	---	27.0	E	0.45	32.2	-36.1	---	---	724.3	0.027	0.000	18.1	1	1
03/07/06	2:58 a	-20.7	-20.6	-20.7	---	---	38.3	E	0.64	47.8	-38.3	---	---	724.3	0.027	0.000	18.1	1	1
03/07/06	2:59 a	-20.8	-20.7	-20.8	---	---	33.9	E	0.57	39.1	-37.7	---	---	724.6	0.027	0.000	18.1	1	1
03/07/06	3:00 a	-20.7	-20.7	-20.8	---	---	27.8	E	0.46	33.0	-36.4	---	---	724.7	0.027	0.000	18.0	1	1
03/07/06	3:01 a	-20.7	-20.7	-20.7	---	---	29.6	E	0.49	33.0	-36.8	---	---	724.4	0.027	0.000	18.0	1	1
03/07/06	3:02 a	-20.7	-20.7	-20.7	---	---	33.0	E	0.55	39.1	-37.5	---	---	724.3	0.027	0.000	18.0	1	1
03/07/06	3:03 a	-20.7	-20.7	-20.7	---	---	31.3	E	0.52	36.5	-37.2	---	---	724.8	0.027	0.000	18.0	1	1
03/07/06	3:04 a	-20.7	-20.7	-20.7	---	---	24.3	E	0.41	27.0	-35.6	---	---	724.8	0.027	0.000	18.0	1	1
03/07/06	3:05 a	-20.7	-20.6	-20.7	---	---	30.4	E	0.51	39.1	-36.9	---	---	724.1	0.027	0.000	17.9	1	1
03/07/06	3:06 a	-20.7	-20.7	-20.7	---	---	39.1	E	0.65	42.6	-38.4	---	---	723.9	0.027	0.000	17.9	1	1
03/07/06	3:07 a	-20.7	-20.7	-20.7	---	---	39.1	E	0.65	44.3	-38.4	---	---	724.2	0.027	0.000	17.9	1	1
03/07/06	3:08 a	-20.8	-20.7	-20.8	---	---	34.8	E	0.58	40.9	-37.9	---	---	724.6	0.027	0.000	17.9	1	1
03/07/06	3:09 a	-20.8	-20.8	-20.8	---	---	27.8	E	0.46	34.8	-36.6	---	---	724.6	0.027	0.000	17.9	1	1
03/07/06	3:10 a	-20.8	-20.8	-20.8	---	---	35.7	E	0.59	40.9	-38.1	---	---	724.1	0.027	0.000	17.9	1	1
03/07/06	3:11 a	-20.9	-20.8	-20.9	---	---	35.7	E	0.59	40.0	-38.2	---	---	724.3	0.027	0.000	17.9	1	1
03/07/06	3:12 a	-20.8	-20.8	-20.9	---	---	30.4	E	0.51	33.9	-37.2	---	---	724.7	0.027	0.000	17.9	1	1
03/07/06	3:13 a	-20.8	-20.8	-20.8	---	---	30.4	E	0.51	34.8	-37.2	---	---	724.2	0.027	0.000	17.9	1	1
03/07/06	3:14 a	-20.8	-20.8	-20.9	---	---	35.7	E	0.59	40.0	-38.1	---	---	724.1	0.027	0.000	17.9	1	1
03/07/06	3:15 a	-20.9	-20.8	-20.9	---	---	33.0	E	0.55	40.9	-37.7	---	---	724.3	0.027	0.000	17.9	1	1
03/07/06	3:16 a	-20.9	-20.9	-20.9	---	---	32.2	E	0.54	38.3	-37.6	---	---	724.1	0.027	0.000	17.9	1	1
03/07/06	3:17 a	-20.9	-20.9	-20.9	---	---	34.8	E	0.58	39.1	-38.1	---	---	724.3	0.027	0.000	18.0	1	1
03/07/06	3:18 a	-20.9	-20.9	-21.0	---	---	31.3	E	0.52	36.5	-37.5	---	---	724.5	0.027	0.000	18.0	1	1
03/07/06	3:19 a	-21.0	-21.0	-21.0	---	---	40.0	E	0.67	47.8	-39.1	---	---	724.3	0.027	0.000	18.1	1	1
03/07/06	3:20 a	-21.0	-21.0	-21.0	---	---	35.7	ENE	0.59	41.7	-38.3	---	---	724.7	0.027	0.000	18.1	1	1
03/07/06	3:21 a	-21.0	-21.0	-21.0	---	---	27.8	E	0.46	33.0	-36.8	---	---	724.6	0.027	0.000	18.1	1	1
03/07/06	3:22 a	-21.0	-21.0	-21.0	---	---	33.0	E	0.55	37.4	-37.9	---	---	724.2	0.027	0.000	18.1	1	1
03/07/06	3:23 a	-21.1	-21.0	-21.1	---	---	32.2	E	0.54	36.5	-37.8	---	---	724.3	0.027	0.000	18.2	1	1
03/07/06	3:24 a	-21.1	-21.0	-21.1	---	---	33.0	E	0.55	37.4	-37.9	---	---	724.1	0.027	0.000	18.2	1	1
03/07/06	3:25 a	-21.0	-21.0	-21.0	---	---	34.8	E	0.58	38.3	-38.2	---	---	724.3	0.027	0.000	18.2	1	1
03/07/06	3:26 a	-21.1	-21.1	-21.1	---	---	33.9	E	0.57	36.5	-38.1	---	---	724.3	0.027	0.000	18.2	1	1
03/07/06	3:27 a	-21.1	-21.1	-21.1	---	---	32.2	E	0.54	38.3	-37.9	---	---	724.4	0.027	0.000	18.1	1	1
03/07/06	3:28 a	-21.1	-21.1	-21.1	---	---	34.8	E	0.58	39.1	-38.3	---	---	724.4	0.027	0.000	18.1	1	1
03/07/06	3:29 a	-21.1	-21.1	-21.1	---	---	27.8	E	0.46	33.9	-37.0	---	---	724.9	0.027	0.000	18.1	1	1
03/07/06	3:30 a	-21.1	-21.1	-21.1	---	---	27.8	ESE	0.46	30.4	-37.0	---	---	724.6	0.027	0.000	18.1	1	1
03/07/06	3:31 a	-21.1	-21.1	-21.1	---	---	34.8	E	0.58	44.3	-38.3	---	---	723.9	0.027	0.000	18.1	1	1
03/07/06	3:32 a	-21.1	-21.1	-21.1	---	---	37.4	E	0.62	43.5	-38.7	---	---	724.2	0.027	0.000	18.1	1	1
03/07/06	3:33 a	-21.0	-21.0	-21.0	---	---	37.4	E	0.62	44.3	-38.6	---	---	724.2	0.027	0.000	18.1	1	1
03/07/06	3:34 a	-21.1	-21.0	-21.1	---	---	35.7	E	0.59	40.9	-38.4	---	---	724.6	0.027	0.000	18.1	1	1
03/07/06	3:35 a	-21.1	-21.1	-21.1	---	---	30.4	E	0.51	33.9	-37.4	---	---	724.7	0.027	0.000	18.1	1	1
03/07/06	3:36 a	-21.1	-21.1	-21.1	---	---	31.3	E	0.52	35.7	-37.6	---	---	724.5	0.027	0.000	18.1	1	1
03/07/06	3:37 a	-21.1	-21.1	-21.1	---	---	32.2	E	0.54	37.4	-37.8	---	---	724.3	0.027	0.000	18.1	1	1
03/07/06	3:38 a	-21.1	-21.1	-21.1	---	---	34.8	E	0.58	40.0	-38.3	---	---	724.4	0.027	0.000	18.1	1	1
03/07/06	3:39 a	-21.1	-21.1	-21.1	---	---	32.2	E	0.54	39.1	-37.8	---	---	724.5	0.027	0.000	18.0	1	1
03/07/06	3:40 a	-21.1	-21.1	-21.1	---	---	32.2	E	0.54	40.0	-37.8	---	---	724.4	0.027	0.000	18.0	1	1
03/07/06	3:41 a	-21.2	-21.2	-21.2	---	---	33.9	E	0.57	39.1	-38.3	---	---	724.4	0.027	0.000	18.0	1	1
03/07/06	3:42 a	-21.2	-21.2	-21.3	---	---	31.3	E	0.52	36.5	-37.8	---	---	724.5	0.027	0.000	18.0	1	1
03/07/06	3:43 a	-21.2	-21.2	-21.3	---	---	33.9	E	0.57	40.0	-38.3	---	---	724.4	0.027	0.000	18.0	1	1
03/07/06	3:44 a	-21.2	-21.2	-21.3	---	---	30.4	E	0.51	35.7	-37.7	---	---	724.5	0.027	0.000	17.9	1	1
03/07/06	3:45 a	-21.3	-21.2	-21.3	---	---	32.2	E	0.54	37.4	-38.1	---	---	724.4	0.028	0.000	17.9	1	1
03/07/06	3:46 a	-21.2	-21.2	-21.2	---	---	33.9	E	0.57	37.4	-38.3	---	---	724.5	0.027	0.000	17.9	1	1
03/07/06	3:47 a	-21.2	-21.2	-21.2	---	---	30.4	E	0.51	36.5	-37.7	---	---	724.5	0.027	0.000	17.9	1	1
03/07/06	3:48 a	-21.2	-21.2	-21.2	---	---	30.4	E	0.51	35.7	-37.7	---	---	724.3	0.027	0.000	17.9	1	1
03/07/06	3:49 a	-21.2	-21.2	-21.2	---	---	33.9	E	0.57	38.3	-38.3	---	---	724.5	0.027	0.000	17.9	1	1
03/07/06	3:50 a	-21.2	-21.2	-21.2	---	---	28.7	E	0.48	35.7	-37.3	---	---	724.7	0.027	0.000	17.9	1	1
03/07/06	3:51 a	-21.2	-21.2	-21.2	---	---	30.4	E	0.51	34.8	-37.6	---	---	724.2	0.027	0.000	17.9	1	1
03/07/06	3:52 a	-21.2	-21.2	-21.2	---	---	33.9	E	0.57	39.1	-38.3	---	---	724.4	0.027	0.000	17.9	1	1
03/07/06	3:53 a	-21.2	-21.2	-21.2	---	---	33.9	E	0.57	40.0	-38.3	---	---	724.4	0.027	0.000	17.9	1	1
03/07/06	3:54 a	-21.2	-21.2	-21.3	---	---	33.0	E	0.55	37.4	-38.2	---	---	724.6	0.027	0.000	17.9	1	1
03/07/06	3:55 a	-21.3	-21.2	-21.3	---	---	31.3	E	0.52	35.7	-37.9	---	---	724.6	0.028	0.000	17.9	1	1
03/07/06	3:56 a	-21.3	-21.3	-21.3	---	---	32.2	E	0.54	37.4	-38.1	---	---	724.1	0.028	0.000	17.9	1	1
03/07/06	3:57 a	-21.3	-21.3	-21.3	---	---	36.5	E	0.61	40.9	-38.9	---	---	724.3	0.028	0.000	17.9	1	1
03/07/06	3:58 a	-21.3	-21.3	-21.3	---	---	33.0	E	0.55	38.3	-38.3	---	---	724.6	0.028	0.000	17.9	1	1
03/07/06	3:59 a	-21.3	-21.3	-21.3	---	---	30.4	E	0.51	36.5	-37.8	---	---	724.6	0.028	0.000	18.0	1	1
03/07/06	4:00 a	-21.3	-21.3	-21.3	---	---	29.6	E	0.49	37.4	-37.7	---	---	724.7	0.028	0.000	18.0	1	1
03/07/06	4:01 a	-21.3	-21.3	-21.4	---	---	31.3	E	0.52	39.1	-38.0	---	---	724.4	0.028	0.000	18.1	1	1
03/07/06	4:02 a	-21.4	-21.4	-21.4	---	---	34.8	E	0.58	46.1	-38.7	---	---	724.7	0.028	0.000	18.1	1	1
03/07/06	4:03 a	-21.4	-21.4	-21.4	---	---	29.6	E	0.49	33.9	-37.7	---	---	724.6	0.028	0.000	18.1	1	1
03/07/06	4:04 a	-21.4	-21.4	-21.4	---	---	33.9	E	0.57	39.1	-38.7	---	---	724.4	0.028	0.000	18.1	1	1
03/07/06	4:05 a	-21.4	-21.4	-21.4	---	---	33.9	E	0.57	41.7	-38.6	---	---	724.1	0.028	0.000	18.2	1	1
03/07/06	4:06 a	-21.4	-21.4	-21.4	---	---	36.5	E	0.61	44.3	-39.1	---	---	724.1	0.028	0.000	18.2	1	1
03/07/06	4:07 a	-21.4	-21.3	-21.4	---	---	35.7	E	0.59	44.3	-38.9	---	---	724.6	0.028	0.000	18.2	1	1
03/07/06	4:08 a	-21.3	-21.3	-21.3	---	---	32.2	E	0.54	37.4	-38.2	---	---	724.8	0.028	0.000	18.2	1	1
03/07/06	4:09 a	-21.3	-21.3	-21.3	---	---	26.1	E	0.43	33.9	-36.9	---	---	724.9	0.028	0.000	18.2	1	1
03/07/06	4:10 a	-21.3	-21.3	-21.3	---	---	27.8	E	0.46	32.2	-37.2	---	---	724.7	0.028	0.000	18.1	1	1
03/07/06	4:11 a	-21.3	-21.2	-21.3	---	---	27.8	E	0.46	31.3	-37.2	---	---	724.6	0.028	0.000	18.1	1	1
03/07/06	4:12 a	-21.2	-21.2	-21.2	---	---	31.3	E	0.52	34.8	-37.8	---	---	724.6	0.027	0.000	18.1	1	1
03/07/06	4:13 a	-21.2	-21.2	-21.2	---	---	29.6	E	0.49	33.0	-37.5	---	---	724.6	0.027	0.000	18.1	1	1
03/07/06	4:14 a	-21.2	-21.2	-21.2	---	---	29.6	E	0.49	37.4	-37.4	---	---	724.5	0.027	0.000	18.1	1	1
03/07/06	4:15 a	-21.2	-21.2	-21.2	---	---	32.2	E	0.54	37.4	-38.0	---	---	724.3	0.027	0.000	18.1	1	1
03/07/06	4:16 a	-21.2	-21.2	-21.3	---	---	34.8	E	0.58	40.0	-38.5	---	---	724.5	0.027	0.000	18.1	1	1
03/07/06	4:17 a	-21.3	-21.2	-21.3	---	---	31.3	E	0.52	34.8	-37.9	---	---	724.4	0.028	0.000	18.1	1	1
03/07/06	4:18 a	-21.3	-21.2	-21.3	---	---	31.3	E	0.52	33.9	-37.9	---	---	724.7	0.028	0.000	18.1	1	1
03/07/06	4:19 a	-21.3	-21.2	-21.3	---	---	30.4	E	0.51	34.8	-37.8	---	---	724.6	0.028	0.000	18.1	1	1
03/07/06	4:20 a	-21.3	-21.2	-21.3	---	---	31.3	E	0.52	35.7	-37.9	---	---	724.4	0.028	0.000	18.1	1	1
03/07/06	4:21 a	-21.2	-21.2	-21.3	---	---	33.0	E	0.55	38.3	-38.2	---	---	724.5	0.027	0.000	18.1	1	1
03/07/06	4:22 a	-21.2	-21.2	-21.2	---	---	30.4	E	0.51	34.8	-37.7	---	---	724.4	0.027	0.000	18.1	1	1
03/07/06	4:23 a	-21.2	-21.2	-21.2	---	---	35.7	E	0.59	40.9	-38.7	---	---	724.6	0.027	0.000	18.0	1	1
03/07/06	4:24 a	-21.3	-21.2	-21.3	---	---	32.2	E	0.54	39.1	-38.1	---	---	724.7	0.028	0.000	18.0	1	1
03/07/06	4:25 a	-21.3	-21.3	-21.3	---	---	30.4	E	0.51	35.7	-37.8	---	---	724.5	0.028	0.000	18.0	1	1
03/07/06	4:26 a	-21.3	-21.3	-21.4	---	---	33.0	E	0.55	37.4	-38.3	---	---	724.3	0.028	0.000	18.0	1	1
03/07/06	4:27 a	-21.4	-21.4	-21.4	---	---	31.3	E	0.52	37.4	-38.1	---	---	724.4	0.028	0.000	18.0	1	1
03/07/06	4:28 a	-21.4	-21.4	-21.4	---	---	32.2	E	0.54	39.1	-38.3	---	---	724.3	0.028	0.000	18.0	1	1
03/07/06	4:29 a	-21.5	-21.4	-21.5	---	---	33.0	E	0.55	39.1	-38.6	---	---	724.3	0.028	0.000	17.9	1	1
03/07/06	4:30 a	-21.5	-21.4	-21.5	---	---	32.2	E	0.54	37.4	-38.4	---	---	724.4	0.028	0.000	17.9	1	1
03/07/06	4:31 a	-21.5	-21.5	-21.5	---	---	33.0	E	0.55	39.1	-38.6	---	---	724.3	0.028	0.000	17.9	1	1
03/07/06	4:32 a	-21.5	-21.4	-21.5	---	---	32.2	E	0.54	40.0	-38.4	---	---	724.6	0.028	0.000	17.9	1	1
03/07/06	4:33 a	-21.4	-21.4	-21.5	---	---	29.6	E	0.49	37.4	-37.8	---	---	724.3	0.028	0.000	17.9	1	1
03/07/06	4:34 a	-21.5	-21.5	-21.5	---	---	32.2	E	0.54	38.3	-38.4	---	---	724.4	0.028	0.000	17.9	1	1
03/07/06	4:35 a	-21.5	-21.4	-21.5	---	---	36.5	E	0.61	41.7	-39.2	---	---	724.7	0.028	0.000	17.9	1	1
03/07/06	4:36 a	-21.4	-21.4	-21.5	---	---	28.7	E	0.48	34.8	-37.7	---	---	724.7	0.028	0.000	17.9	1	1
03/07/06	4:37 a	-21.5	-21.4	-21.5	---	---	26.1	E	0.43	32.2	-37.2	---	---	724.4	0.028	0.000	17.9	1	1
03/07/06	4:38 a	-21.4	-21.4	-21.4	---	---	33.0	E	0.55	39.1	-38.5	---	---	724.3	0.028	0.000	17.9	1	1
03/07/06	4:39 a	-21.5	-21.4	-21.5	---	---	33.9	E	0.57	36.5	-38.7	---	---	724.6	0.028	0.000	17.9	1	1
03/07/06	4:40 a	-21.5	-21.5	-21.6	---	---	27.8	E	0.46	35.7	-37.6	---	---	724.6	0.028	0.000	17.9	1	1
03/07/06	4:41 a	-21.6	-21.6	-21.6	---	---	33.9	E	0.57	36.5	-38.8	---	---	724.7	0.028	0.000	17.9	1	1
03/07/06	4:42 a	-21.6	-21.5	-21.6	---	---	30.4	E	0.51	39.1	-38.2	---	---	724.1	0.028	0.000	18.0	1	1
03/07/06	4:43 a	-21.6	-21.5	-21.6	---	---	36.5	E	0.61	42.6	-39.3	---	---	724.2	0.028	0.000	18.0	1	1
03/07/06	4:44 a	-21.6	-21.5	-21.6	---	---	32.2	E	0.54	40.0	-38.5	---	---	724.5	0.028	0.000	18.1	1	1
03/07/06	4:45 a	-21.6	-21.6	-21.6	---	---	30.4	E	0.51	37.4	-38.2	---	---	724.3	0.028	0.000	18.1	1	1
03/07/06	4:46 a	-21.6	-21.6	-21.6	---	---	31.3	E	0.52	36.5	-38.3	---	---	724.5	0.028	0.000	18.1	1	1
03/07/06	4:47 a	-21.6	-21.6	-21.6	---	---	31.3	E	0.52	38.3	-38.3	---	---	724.5	0.028	0.000	18.1	1	1
03/07/06	4:48 a	-21.6	-21.6	-21.7	---	---	31.3	E	0.52	35.7	-38.4	---	---	724.7	0.028	0.000	18.1	1	1
03/07/06	4:49 a	-21.6	-21.6	-21.6	---	---	31.3	E	0.52	34.8	-38.4	---	---	724.9	0.028	0.000	18.1	1	1
03/07/06	4:50 a	-21.7	-21.6	-21.7	---	---	27.8	E	0.46	33.9	-37.8	---	---	725.0	0.028	0.000	18.1	1	1
03/07/06	4:51 a	-21.6	-21.6	-21.6	---	---	25.2	ESE	0.42	30.4	-37.1	---	---	724.9	0.028	0.000	18.1	1	1
03/07/06	4:52 a	-21.6	-21.6	-21.7	---	---	31.3	E	0.52	38.3	-38.4	---	---	724.3	0.028	0.000	18.1	1	1
03/07/06	4:53 a	-21.6	-21.6	-21.6	---	---	36.5	E	0.61	40.0	-39.3	---	---	724.7	0.028	0.000	18.1	1	1
03/07/06	4:54 a	-21.6	-21.6	-21.6	---	---	36.5	E	0.61	41.7	-39.3	---	---	724.8	0.028	0.000	18.1	1	1
03/07/06	4:55 a	-21.6	-21.6	-21.7	---	---	33.9	E	0.57	39.1	-38.9	---	---	724.8	0.028	0.000	18.1	1	1
03/07/06	4:56 a	-21.6	-21.6	-21.6	---	---	29.6	E	0.49	33.9	-38.1	---	---	725.2	0.028	0.000	18.1	1	1
03/07/06	4:57 a	-21.6	-21.6	-21.7	---	---	26.1	E	0.43	31.3	-37.3	---	---	725.1	0.028	0.000	18.1	1	1
03/07/06	4:58 a	-21.6	-21.6	-21.6	---	---	26.1	E	0.43	29.6	-37.3	---	---	724.7	0.028	0.000	18.1	1	1
03/07/06	4:59 a	-21.6	-21.6	-21.6	---	---	31.3	E	0.52	38.3	-38.3	---	---	724.3	0.028	0.000	18.1	1	1
03/07/06	5:00 a	-21.6	-21.5	-21.6	---	---	32.2	E	0.54	38.3	-38.5	---	---	724.6	0.028	0.000	18.1	1	1
03/07/06	5:01 a	-21.6	-21.5	-21.6	---	---	29.6	E	0.49	34.8	-37.9	---	---	724.7	0.028	0.000	18.0	1	1
03/07/06	5:02 a	-21.6	-21.5	-21.6	---	---	33.0	E	0.55	39.1	-38.7	---	---	724.7	0.028	0.000	18.0	1	1
03/07/06	5:03 a	-21.6	-21.6	-21.6	---	---	29.6	E	0.49	36.5	-37.9	---	---	724.7	0.028	0.000	18.0	1	1
03/07/06	5:04 a	-21.6	-21.5	-21.6	---	---	32.2	E	0.54	37.4	-38.5	---	---	724.2	0.028	0.000	18.0	1	1
03/07/06	5:05 a	-21.5	-21.5	-21.6	---	---	36.5	E	0.61	42.6	-39.2	---	---	724.9	0.028	0.000	18.0	1	1
03/07/06	5:06 a	-21.5	-21.4	-21.5	---	---	29.6	E	0.49	36.5	-37.9	---	---	724.5	0.028	0.000	18.0	1	1
03/07/06	5:07 a	-21.5	-21.5	-21.5	---	---	34.8	E	0.58	36.5	-38.9	---	---	724.5	0.028	0.000	18.0	1	1
03/07/06	5:08 a	-21.5	-21.5	-21.5	---	---	29.6	E	0.49	39.1	-37.9	---	---	725.0	0.028	0.000	17.9	1	1
03/07/06	5:09 a	-21.5	-21.5	-21.6	---	---	28.7	E	0.48	32.2	-37.7	---	---	724.7	0.028	0.000	17.9	1	1
03/07/06	5:10 a	-21.6	-21.6	-21.6	---	---	31.3	E	0.52	35.7	-38.3	---	---	724.6	0.028	0.000	17.9	1	1
03/07/06	5:11 a	-21.6	-21.6	-21.6	---	---	33.0	E	0.55	39.1	-38.7	---	---	724.7	0.028	0.000	17.9	1	1
03/07/06	5:12 a	-21.6	-21.6	-21.6	---	---	31.3	E	0.52	38.3	-38.4	---	---	724.8	0.028	0.000	17.9	1	1
03/07/06	5:13 a	-21.6	-21.6	-21.6	---	---	28.7	E	0.48	35.7	-37.9	---	---	724.7	0.028	0.000	17.9	1	1
03/07/06	5:14 a	-21.6	-21.6	-21.6	---	---	33.9	E	0.57	41.7	-38.9	---	---	724.4	0.028	0.000	17.9	1	1
03/07/06	5:15 a	-21.6	-21.6	-21.7	---	---	31.3	E	0.52	38.3	-38.4	---	---	725.1	0.028	0.000	17.9	1	1
03/07/06	5:16 a	-21.6	-21.6	-21.7	---	---	27.0	E	0.45	35.7	-37.5	---	---	724.8	0.028	0.000	17.9	1	1
03/07/06	5:17 a	-21.7	-21.6	-21.7	---	---	27.8	E	0.46	33.9	-37.8	---	---	725.0	0.028	0.000	17.9	1	1
03/07/06	5:18 a	-21.7	-21.6	-21.7	---	---	31.3	E	0.52	41.7	-38.4	---	---	724.4	0.028	0.000	17.9	1	1
03/07/06	5:19 a	-21.7	-21.7	-21.7	---	---	32.2	E	0.54	38.3	-38.7	---	---	724.7	0.028	0.000	17.9	1	1
03/07/06	5:20 a	-21.7	-21.7	-21.8	---	---	29.6	E	0.49	35.7	-38.2	---	---	724.5	0.028	0.000	18.0	1	1
03/07/06	5:21 a	-21.8	-21.8	-21.8	---	---	33.0	E	0.55	36.5	-38.9	---	---	724.8	0.028	0.000	18.0	1	1
03/07/06	5:22 a	-21.8	-21.8	-21.8	---	---	30.4	E	0.51	33.9	-38.4	---	---	724.7	0.028	0.000	18.1	1	1
03/07/06	5:23 a	-21.8	-21.8	-21.8	---	---	29.6	E	0.49	35.7	-38.3	---	---	724.5	0.028	0.000	18.1	1	1
03/07/06	5:24 a	-21.8	-21.8	-21.8	---	---	32.2	E	0.54	40.0	-38.9	---	---	725.1	0.028	0.000	18.1	1	1
03/07/06	5:25 a	-21.8	-21.8	-21.8	---	---	22.6	E	0.38	29.6	-36.7	---	---	724.8	0.028	0.000	18.1	1	1
03/07/06	5:26 a	-21.8	-21.8	-21.8	---	---	33.9	E	0.57	40.0	-39.2	---	---	724.4	0.028	0.000	18.2	1	1
03/07/06	5:27 a	-21.8	-21.8	-21.8	---	---	30.4	E	0.51	35.7	-38.6	---	---	724.9	0.028	0.000	18.2	1	1
03/07/06	5:28 a	-21.8	-21.8	-21.8	---	---	32.2	E	0.54	43.5	-38.9	---	---	724.9	0.028	0.000	18.2	1	1
03/07/06	5:29 a	-21.8	-21.8	-21.8	---	---	26.1	E	0.43	33.0	-37.5	---	---	725.0	0.028	0.000	18.2	1	1
03/07/06	5:30 a	-21.8	-21.8	-21.8	---	---	28.7	E	0.48	33.9	-38.1	---	---	724.5	0.028	0.000	18.2	1	1
03/07/06	5:31 a	-21.8	-21.8	-21.8	---	---	31.3	E	0.52	35.7	-38.7	---	---	724.7	0.028	0.000	18.2	1	1
03/07/06	5:32 a	-21.8	-21.8	-21.8	---	---	28.7	E	0.48	33.9	-38.1	---	---	724.8	0.028	0.000	18.2	1	1
03/07/06	5:33 a	-21.8	-21.8	-21.8	---	---	30.4	E	0.51	33.0	-38.6	---	---	724.6	0.028	0.000	18.2	1	1
03/07/06	5:34 a	-21.8	-21.8	-21.8	---	---	29.6	E	0.49	34.8	-38.3	---	---	724.6	0.028	0.000	18.2	1	1
03/07/06	5:35 a	-21.8	-21.8	-21.8	---	---	33.0	E	0.55	36.5	-38.9	---	---	724.4	0.028	0.000	18.2	1	1
03/07/06	5:36 a	-21.8	-21.8	-21.8	---	---	33.0	E	0.55	40.0	-38.9	---	---	725.0	0.028	0.000	18.2	1	1
03/07/06	5:37 a	-21.8	-21.8	-21.8	---	---	24.3	E	0.41	27.8	-37.1	---	---	724.8	0.028	0.000	18.1	1	1
03/07/06	5:38 a	-21.8	-21.8	-21.8	---	---	30.4	E	0.51	38.3	-38.6	---	---	724.3	0.028	0.000	18.1	1	1
03/07/06	5:39 a	-21.8	-21.8	-21.8	---	---	32.2	E	0.54	38.3	-38.9	---	---	724.9	0.028	0.000	18.1	1	1
03/07/06	5:40 a	-21.8	-21.8	-21.8	---	---	27.8	E	0.46	33.9	-38.0	---	---	724.8	0.028	0.000	18.1	1	1
03/07/06	5:41 a	-21.8	-21.8	-21.8	---	---	32.2	E	0.54	38.3	-38.9	---	---	724.6	0.028	0.000	18.1	1	1
03/07/06	5:42 a	-21.8	-21.8	-21.8	---	---	32.2	E	0.54	38.3	-38.9	---	---	725.0	0.028	0.000	18.1	1	1
03/07/06	5:43 a	-21.8	-21.8	-21.8	---	---	27.0	E	0.45	33.9	-37.8	---	---	725.2	0.028	0.000	18.1	1	1
03/07/06	5:44 a	-21.8	-21.8	-21.8	---	---	22.6	E	0.38	27.8	-36.8	---	---	724.9	0.028	0.000	18.1	1	1
03/07/06	5:45 a	-21.8	-21.8	-21.8	---	---	30.4	E	0.51	36.5	-38.4	---	---	724.6	0.028	0.000	18.1	1	1
03/07/06	5:46 a	-21.8	-21.8	-21.8	---	---	30.4	E	0.51	35.7	-38.6	---	---	724.6	0.028	0.000	18.1	1	1
03/07/06	5:47 a	-21.8	-21.8	-21.8	---	---	29.6	E	0.49	35.7	-38.3	---	---	725.0	0.028	0.000	18.1	1	1
03/07/06	5:48 a	-21.8	-21.8	-21.8	---	---	30.4	E	0.51	33.9	-38.4	---	---	725.2	0.028	0.000	18.0	1	1
03/07/06	5:49 a	-21.8	-21.8	-21.8	---	---	24.3	E	0.41	29.6	-37.1	---	---	725.3	0.028	0.000	18.0	1	1
03/07/06	5:50 a	-21.8	-21.8	-21.8	---	---	22.6	E	0.38	28.7	-36.8	---	---	724.8	0.028	0.000	18.0	1	1
03/07/06	5:51 a	-21.8	-21.8	-21.8	---	---	33.9	E	0.57	40.0	-39.2	---	---	724.5	0.028	0.000	17.9	1	1
03/07/06	5:52 a	-21.8	-21.8	-21.9	---	---	33.0	E	0.55	40.9	-39.1	---	---	725.1	0.028	0.000	17.9	1	1
03/07/06	5:53 a	-21.8	-21.8	-21.9	---	---	26.1	E	0.43	33.0	-37.6	---	---	725.3	0.028	0.000	17.9	1	1
03/07/06	5:54 a	-21.8	-21.8	-21.8	---	---	22.6	ESE	0.38	26.1	-36.8	---	---	725.3	0.028	0.000	17.9	1	1
03/07/06	5:55 a	-21.8	-21.8	-21.8	---	---	24.3	E	0.41	34.8	-37.1	---	---	724.8	0.028	0.000	17.9	1	1
03/07/06	5:56 a	-21.8	-21.8	-21.8	---	---	32.2	E	0.54	36.5	-38.9	---	---	724.6	0.028	0.000	17.9	1	1
03/07/06	5:57 a	-21.8	-21.7	-21.8	---	---	29.6	E	0.49	36.5	-38.3	---	---	725.1	0.028	0.000	17.9	1	1
03/07/06	5:58 a	-21.7	-21.7	-21.7	---	---	25.2	E	0.42	31.3	-37.2	---	---	724.9	0.028	0.000	17.9	1	1
03/07/06	5:59 a	-21.7	-21.7	-21.7	---	---	27.8	E	0.46	32.2	-37.8	---	---	724.9	0.028	0.000	17.9	1	1
03/07/06	6:00 a	-21.7	-21.7	-21.7	---	---	29.6	E	0.49	38.3	-38.2	---	---	724.8	0.028	0.000	17.9	1	1
03/07/06	6:01 a	-21.7	-21.7	-21.7	---	---	32.2	E	0.54	39.1	-38.7	---	---	724.9	0.028	0.000	17.9	1	1
03/07/06	6:02 a	-21.7	-21.7	-21.7	---	---	29.6	E	0.49	33.0	-38.2	---	---	724.9	0.028	0.000	17.9	1	1
03/07/06	6:03 a	-21.7	-21.7	-21.7	---	---	24.3	E	0.41	29.6	-37.1	---	---	724.9	0.028	0.000	17.9	1	1
03/07/06	6:04 a	-21.7	-21.7	-21.7	---	---	31.3	E	0.52	34.8	-38.6	---	---	724.7	0.028	0.000	17.9	1	1
03/07/06	6:05 a	-21.7	-21.7	-21.8	---	---	30.4	E	0.51	34.8	-38.4	---	---	724.9	0.028	0.000	18.0	1	1
03/07/06	6:06 a	-21.7	-21.7	-21.8	---	---	31.3	E	0.52	35.7	-38.6	---	---	724.9	0.028	0.000	18.0	1	1
03/07/06	6:07 a	-21.8	-21.8	-21.8	---	---	27.8	E	0.46	35.7	-37.9	---	---	725.3	0.028	0.000	18.0	1	1
03/07/06	6:08 a	-21.8	-21.8	-21.9	---	---	21.7	E	0.36	25.2	-36.6	---	---	725.1	0.028	0.000	18.1	1	1
03/07/06	6:09 a	-21.8	-21.8	-21.8	---	---	31.3	E	0.52	36.5	-38.7	---	---	724.6	0.028	0.000	18.1	1	1
03/07/06	6:10 a	-21.8	-21.8	-21.9	---	---	32.2	E	0.54	39.1	-38.9	---	---	724.8	0.028	0.000	18.1	1	1
03/07/06	6:11 a	-21.8	-21.8	-21.8	---	---	32.2	E	0.54	36.5	-38.8	---	---	724.6	0.028	0.000	18.1	1	1
03/07/06	6:12 a	-21.7	-21.7	-21.8	---	---	30.4	E	0.51	36.5	-38.4	---	---	725.1	0.028	0.000	18.1	1	1
03/07/06	6:13 a	-21.7	-21.7	-21.7	---	---	26.1	E	0.43	31.3	-37.4	---	---	725.6	0.028	0.000	18.2	1	1
03/07/06	6:14 a	-21.7	-21.7	-21.7	---	---	18.3	E	0.30	20.9	-35.3	---	---	725.3	0.028	0.000	18.2	1	1
03/07/06	6:15 a	-21.7	-21.7	-21.7	---	---	24.3	ESE	0.41	35.7	-36.9	---	---	724.5	0.028	0.000	18.2	1	1
03/07/06	6:16 a	-21.7	-21.6	-21.7	---	---	30.4	E	0.51	37.4	-38.3	---	---	724.5	0.028	0.000	18.2	1	1
03/07/06	6:17 a	-21.6	-21.6	-21.6	---	---	30.4	E	0.51	36.5	-38.2	---	---	724.4	0.028	0.000	18.3	1	1
03/07/06	6:18 a	-21.7	-21.6	-21.7	---	---	33.9	E	0.57	38.3	-38.9	---	---	724.5	0.028	0.000	18.3	1	1
03/07/06	6:19 a	-21.7	-21.6	-21.7	---	---	31.3	E	0.52	37.4	-38.4	---	---	724.9	0.028	0.000	18.3	1	1
03/07/06	6:20 a	-21.6	-21.6	-21.7	---	---	27.8	ESE	0.46	33.9	-37.7	---	---	724.9	0.028	0.000	18.2	1	1
03/07/06	6:21 a	-21.6	-21.6	-21.6	---	---	33.0	E	0.55	37.4	-38.7	---	---	724.7	0.028	0.000	18.2	1	1
03/07/06	6:22 a	-21.6	-21.6	-21.6	---	---	31.3	E	0.52	39.1	-38.4	---	---	725.1	0.028	0.000	18.2	1	1
03/07/06	6:23 a	-21.6	-21.6	-21.7	---	---	25.2	E	0.42	31.3	-37.1	---	---	724.9	0.028	0.000	18.2	1	1
03/07/06	6:24 a	-21.7	-21.6	-21.7	---	---	28.7	E	0.48	33.9	-37.9	---	---	724.7	0.028	0.000	18.2	1	1
03/07/06	6:25 a	-21.7	-21.6	-21.7	---	---	29.6	E	0.49	35.7	-38.1	---	---	724.6	0.028	0.000	18.2	1	1
03/07/06	6:26 a	-21.7	-21.7	-21.7	---	---	33.9	E	0.57	40.9	-38.9	---	---	724.6	0.028	0.000	18.2	1	1
03/07/06	6:27 a	-21.7	-21.7	-21.7	---	---	36.5	E	0.61	39.1	-39.5	---	---	724.8	0.028	0.000	18.2	1	1
03/07/06	6:28 a	-21.7	-21.7	-21.7	---	---	29.6	E	0.49	36.5	-38.2	---	---	724.5	0.028	0.000	18.2	1	1
03/07/06	6:29 a	-21.7	-21.7	-21.8	---	---	34.8	E	0.58	38.3	-39.2	---	---	724.7	0.028	0.000	18.1	1	1
03/07/06	6:30 a	-21.7	-21.7	-21.7	---	---	29.6	E	0.49	36.5	-38.2	---	---	724.9	0.028	0.000	18.1	1	1
03/07/06	6:31 a	-21.7	-21.7	-21.8	---	---	27.8	E	0.46	34.8	-37.8	---	---	724.5	0.028	0.000	18.1	1	1
03/07/06	6:32 a	-21.8	-21.8	-21.8	---	---	30.4	E	0.51	38.3	-38.4	---	---	724.4	0.028	0.000	18.1	1	1
03/07/06	6:33 a	-21.8	-21.8	-21.8	---	---	33.9	E	0.57	38.3	-39.1	---	---	724.5	0.028	0.000	18.1	1	1
03/07/06	6:34 a	-21.8	-21.7	-21.8	---	---	33.9	E	0.57	38.3	-39.1	---	---	724.7	0.028	0.000	18.1	1	1
03/07/06	6:35 a	-21.7	-21.7	-21.8	---	---	28.7	E	0.48	36.5	-38.0	---	---	724.9	0.028	0.000	18.1	1	1
03/07/06	6:36 a	-21.7	-21.7	-21.8	---	---	25.2	E	0.42	29.6	-37.2	---	---	725.0	0.028	0.000	18.1	1	1
03/07/06	6:37 a	-21.7	-21.7	-21.7	---	---	27.0	E	0.45	33.9	-37.6	---	---	724.6	0.028	0.000	18.1	1	1
03/07/06	6:38 a	-21.7	-21.7	-21.7	---	---	31.3	E	0.52	35.7	-38.4	---	---	724.5	0.028	0.000	18.0	1	1
03/07/06	6:39 a	-21.7	-21.6	-21.7	---	---	40.0	E	0.67	45.2	-40.0	---	---	724.6	0.028	0.000	18.1	1	1
03/07/06	6:40 a	-21.6	-21.6	-21.7	---	---	33.9	E	0.57	41.7	-38.9	---	---	724.9	0.028	0.000	18.0	1	1
03/07/06	6:41 a	-21.7	-21.7	-21.7	---	---	28.7	E	0.48	33.0	-37.9	---	---	724.7	0.028	0.000	18.0	1	1
03/07/06	6:42 a	-21.7	-21.6	-21.7	---	---	30.4	E	0.51	34.8	-38.3	---	---	724.4	0.028	0.000	18.0	1	1
03/07/06	6:43 a	-21.7	-21.6	-21.7	---	---	32.2	E	0.54	38.3	-38.7	---	---	724.4	0.028	0.000	18.0	1	1
03/07/06	6:44 a	-21.7	-21.6	-21.7	---	---	33.0	E	0.55	39.1	-38.8	---	---	724.4	0.028	0.000	17.9	1	1
03/07/06	6:45 a	-21.6	-21.6	-21.6	---	---	33.9	E	0.57	39.1	-38.9	---	---	724.5	0.028	0.000	17.9	1	1
03/07/06	6:46 a	-21.6	-21.6	-21.6	---	---	36.5	E	0.61	41.7	-39.3	---	---	724.5	0.028	0.000	17.9	1	1
03/07/06	6:47 a	-21.6	-21.5	-21.6	---	---	33.0	E	0.55	41.7	-38.7	---	---	724.9	0.028	0.000	17.9	1	1
03/07/06	6:48 a	-21.6	-21.5	-21.6	---	---	27.0	E	0.45	33.0	-37.4	---	---	724.9	0.028	0.000	17.9	1	1
03/07/06	6:49 a	-21.6	-21.6	-21.6	---	---	28.7	E	0.48	32.2	-37.8	---	---	724.6	0.028	0.000	17.9	1	1
03/07/06	6:50 a	-21.5	-21.5	-21.6	---	---	33.9	E	0.57	42.6	-38.7	---	---	724.3	0.028	0.000	17.9	1	1
03/07/06	6:51 a	-21.5	-21.5	-21.6	---	---	36.5	E	0.61	41.7	-39.2	---	---	724.3	0.028	0.000	17.9	1	1
03/07/06	6:52 a	-21.5	-21.5	-21.5	---	---	35.7	E	0.59	39.1	-39.1	---	---	725.0	0.028	0.000	18.0	1	1
03/07/06	6:53 a	-21.6	-21.5	-21.6	---	---	29.6	E	0.49	38.3	-37.9	---	---	725.2	0.028	0.000	18.0	1	1
03/07/06	6:54 a	-21.6	-21.6	-21.7	---	---	23.5	E	0.39	28.7	-36.7	---	---	725.4	0.028	0.000	18.1	1	1
03/07/06	6:55 a	-21.7	-21.7	-21.7	---	---	25.2	E	0.42	29.6	-37.2	---	---	724.9	0.028	0.000	18.1	1	1
03/07/06	6:56 a	-21.7	-21.6	-21.7	---	---	37.4	E	0.62	47.0	-39.6	---	---	724.6	0.028	0.000	18.1	1	1
03/07/06	6:57 a	-21.7	-21.7	-21.7	---	---	36.5	E	0.61	43.5	-39.4	---	---	724.7	0.028	0.000	18.1	1	1
03/07/06	6:58 a	-21.7	-21.7	-21.8	---	---	36.5	E	0.61	41.7	-39.5	---	---	724.9	0.028	0.000	18.2	1	1
03/07/06	6:59 a	-21.8	-21.7	-21.8	---	---	29.6	E	0.49	33.9	-38.3	---	---	724.9	0.028	0.000	18.2	1	1
03/07/06	7:00 a	-21.8	-21.7	-21.8	---	---	26.1	E	0.43	30.4	-37.5	---	---	725.0	0.028	0.000	18.2	1	1
03/07/06	7:01 a	-21.8	-21.8	-21.8	---	---	24.3	E	0.41	31.3	-37.1	---	---	724.8	0.028	0.000	18.2	1	1
03/07/06	7:02 a	-21.7	-21.7	-21.8	---	---	33.0	E	0.55	40.9	-38.9	---	---	724.8	0.028	0.000	18.2	1	1
03/07/06	7:03 a	-21.7	-21.7	-21.7	---	---	38.3	ENE	0.64	41.7	-39.7	---	---	724.8	0.028	0.000	18.2	1	1
03/07/06	7:04 a	-21.7	-21.7	-21.7	---	---	33.9	E	0.57	39.1	-38.9	---	---	725.0	0.028	0.000	18.1	1	1
03/07/06	7:05 a	-21.7	-21.6	-21.7	---	---	29.6	E	0.49	34.8	-38.1	---	---	725.0	0.028	0.000	18.1	1	1
03/07/06	7:06 a	-21.6	-21.6	-21.7	---	---	24.3	E	0.41	33.9	-36.9	---	---	725.1	0.028	0.000	18.1	1	1
03/07/06	7:07 a	-21.6	-21.6	-21.6	---	---	26.1	E	0.43	30.4	-37.3	---	---	724.8	0.028	0.000	18.1	1	1
03/07/06	7:08 a	-21.6	-21.6	-21.6	---	---	30.4	E	0.51	40.9	-38.2	---	---	724.4	0.028	0.000	18.1	1	1
03/07/06	7:09 a	-21.6	-21.6	-21.6	---	---	33.9	E	0.57	40.0	-38.8	---	---	724.6	0.028	0.000	18.1	1	1
03/07/06	7:10 a	-21.6	-21.5	-21.6	---	---	32.2	E	0.54	40.0	-38.5	---	---	725.1	0.028	0.000	18.1	1	1
03/07/06	7:11 a	-21.6	-21.5	-21.6	---	---	25.2	E	0.42	29.6	-37.0	---	---	725.2	0.028	0.000	18.1	1	1
03/07/06	7:12 a	-21.5	-21.5	-21.6	---	---	23.5	E	0.39	28.7	-36.6	---	---	725.0	0.028	0.000	18.1	1	1
03/07/06	7:13 a	-21.5	-21.5	-21.6	---	---	28.7	E	0.48	33.9	-37.7	---	---	724.6	0.028	0.000	18.0	1	1
03/07/06	7:14 a	-21.5	-21.5	-21.6	---	---	32.2	E	0.54	37.4	-38.4	---	---	724.6	0.028	0.000	18.0	1	1
03/07/06	7:15 a	-21.5	-21.4	-21.5	---	---	35.7	E	0.59	39.1	-39.1	---	---	724.7	0.028	0.000	18.0	1	1
03/07/06	7:16 a	-21.5	-21.4	-21.5	---	---	33.0	E	0.55	37.4	-38.6	---	---	724.7	0.028	0.000	18.0	1	1
03/07/06	7:17 a	-21.4	-21.4	-21.5	---	---	29.6	E	0.49	35.7	-37.8	---	---	725.0	0.028	0.000	18.0	1	1
03/07/06	7:18 a	-21.5	-21.4	-21.5	---	---	24.3	E	0.41	28.7	-36.7	---	---	725.2	0.028	0.000	18.0	1	1
03/07/06	7:19 a	-21.6	-21.5	-21.6	---	---	24.3	E	0.41	34.8	-36.8	---	---	724.9	0.028	0.000	17.9	1	1
03/07/06	7:20 a	-21.6	-21.6	-21.7	---	---	34.8	ENE	0.58	41.7	-39.1	---	---	724.7	0.028	0.000	17.9	1	1
03/07/06	7:21 a	-21.7	-21.6	-21.7	---	---	36.5	E	0.61	40.9	-39.4	---	---	724.8	0.028	0.000	17.9	1	1
03/07/06	7:22 a	-21.7	-21.7	-21.7	---	---	29.6	E	0.49	37.4	-38.1	---	---	725.3	0.028	0.000	17.9	1	1
03/07/06	7:23 a	-21.7	-21.7	-21.7	---	---	23.5	E	0.39	27.8	-36.8	---	---	725.4	0.028	0.000	17.9	1	1
03/07/06	7:24 a	-21.8	-21.7	-21.8	---	---	26.1	E	0.43	32.2	-37.5	---	---	724.7	0.028	0.000	17.9	1	1
03/07/06	7:25 a	-21.8	-21.8	-21.8	---	---	37.4	E	0.62	43.5	-39.8	---	---	724.3	0.028	0.000	17.9	1	1
03/07/06	7:26 a	-21.8	-21.8	-21.9	---	---	37.4	E	0.62	42.6	-39.8	---	---	724.9	0.028	0.000	17.9	1	1
03/07/06	7:27 a	-21.9	-21.8	-21.9	---	---	32.2	E	0.54	38.3	-38.9	---	---	724.9	0.028	0.000	17.9	1	1
03/07/06	7:28 a	-21.8	-21.8	-21.8	---	---	24.3	E	0.41	29.6	-37.2	---	---	725.0	0.028	0.000	17.9	1	1
03/07/06	7:29 a	-21.8	-21.8	-21.8	---	---	27.0	E	0.45	33.9	-37.8	---	---	724.9	0.028	0.000	17.9	1	1
03/07/06	7:30 a	-21.8	-21.8	-21.8	---	---	32.2	E	0.54	40.0	-38.8	---	---	724.6	0.028	0.000	17.9	1	1
03/07/06	7:31 a	-21.8	-21.8	-21.8	---	---	37.4	E	0.62	46.1	-39.7	---	---	724.6	0.028	0.000	18.0	1	1
03/07/06	7:32 a	-21.8	-21.7	-21.8	---	---	33.9	E	0.57	37.4	-39.1	---	---	724.8	0.028	0.000	18.0	1	1
03/07/06	7:33 a	-21.8	-21.7	-21.8	---	---	27.8	E	0.46	35.7	-37.9	---	---	724.7	0.028	0.000	18.1	1	1
03/07/06	7:34 a	-21.8	-21.8	-21.8	---	---	28.7	E	0.48	35.7	-38.2	---	---	724.8	0.028	0.000	18.1	1	1
03/07/06	7:35 a	-21.8	-21.8	-21.8	---	---	33.0	E	0.55	36.5	-38.9	---	---	724.8	0.028	0.000	18.1	1	1
03/07/06	7:36 a	-21.8	-21.8	-21.8	---	---	31.3	E	0.52	35.7	-38.6	---	---	724.8	0.028	0.000	18.1	1	1
03/07/06	7:37 a	-21.8	-21.8	-21.8	---	---	30.4	E	0.51	39.1	-38.4	---	---	724.9	0.028	0.000	18.2	1	1
03/07/06	7:38 a	-21.8	-21.7	-21.8	---	---	27.8	E	0.46	34.8	-37.9	---	---	725.1	0.028	0.000	18.2	1	1
03/07/06	7:39 a	-21.7	-21.7	-21.7	---	---	24.3	E	0.41	30.4	-37.1	---	---	725.1	0.028	0.000	18.2	1	1
03/07/06	7:40 a	-21.7	-21.7	-21.7	---	---	33.9	E	0.57	38.3	-39.1	---	---	724.6	0.028	0.000	18.2	1	1
03/07/06	7:41 a	-21.7	-21.7	-21.7	---	---	34.8	E	0.58	42.6	-39.2	---	---	725.3	0.028	0.000	18.2	1	1
03/07/06	7:42 a	-21.7	-21.7	-21.7	---	---	28.7	E	0.48	33.0	-38.0	---	---	725.1	0.028	0.000	18.3	1	1
03/07/06	7:43 a	-21.8	-21.8	-21.8	---	---	28.7	E	0.48	34.8	-38.1	---	---	725.0	0.028	0.000	18.3	1	1
03/07/06	7:44 a	-21.8	-21.8	-21.8	---	---	28.7	E	0.48	32.2	-38.1	---	---	724.9	0.028	0.000	18.3	1	1
03/07/06	7:45 a	-21.8	-21.7	-21.8	---	---	30.4	E	0.51	36.5	-38.4	---	---	724.8	0.028	0.000	18.3	1	1
03/07/06	7:46 a	-21.7	-21.7	-21.8	---	---	33.9	E	0.57	40.0	-39.1	---	---	724.9	0.028	0.000	18.3	1	1
03/07/06	7:47 a	-21.7	-21.7	-21.8	---	---	33.0	E	0.55	38.3	-38.9	---	---	725.0	0.028	0.000	18.3	1	1
03/07/06	7:48 a	-21.8	-21.8	-21.8	---	---	29.6	E	0.49	36.5	-38.3	---	---	725.4	0.028	0.000	18.2	1	1
03/07/06	7:49 a	-21.8	-21.8	-21.8	---	---	25.2	E	0.42	29.6	-37.3	---	---	725.4	0.028	0.000	18.2	1	1
03/07/06	7:50 a	-21.8	-21.8	-21.8	---	---	23.5	E	0.39	28.7	-36.9	---	---	725.0	0.028	0.000	18.2	1	1
03/07/06	7:51 a	-21.8	-21.8	-21.8	---	---	28.7	E	0.48	34.8	-38.1	---	---	724.8	0.028	0.000	18.2	1	1
03/07/06	7:52 a	-21.7	-21.7	-21.8	---	---	30.4	E	0.51	36.5	-38.4	---	---	725.1	0.028	0.000	18.2	1	1
03/07/06	7:53 a	-21.7	-21.7	-21.7	---	---	27.8	E	0.46	32.2	-37.8	---	---	725.3	0.028	0.000	18.2	1	1
03/07/06	7:54 a	-21.7	-21.7	-21.7	---	---	28.7	E	0.48	40.0	-38.0	---	---	724.6	0.028	0.000	18.2	1	1
03/07/06	7:55 a	-21.7	-21.7	-21.7	---	---	33.9	E	0.57	39.1	-39.1	---	---	725.0	0.028	0.000	18.2	1	1
03/07/06	7:56 a	-21.7	-21.7	-21.7	---	---	27.8	E	0.46	32.2	-37.8	---	---	725.4	0.028	0.000	18.1	1	1
03/07/06	7:57 a	-21.7	-21.7	-21.7	---	---	26.1	E	0.43	29.6	-37.4	---	---	725.2	0.028	0.000	18.1	1	1
03/07/06	7:58 a	-21.7	-21.7	-21.7	---	---	27.0	E	0.45	33.9	-37.6	---	---	724.8	0.028	0.000	18.1	1	1
03/07/06	7:59 a	-21.7	-21.7	-21.7	---	---	32.2	E	0.54	37.4	-38.7	---	---	724.9	0.028	0.000	18.1	1	1
03/07/06	8:00 a	-21.7	-21.6	-21.7	---	---	29.6	E	0.49	33.9	-38.1	---	---	725.0	0.028	0.000	18.1	1	1
03/07/06	8:01 a	-21.7	-21.7	-21.7	---	---	27.0	E	0.45	33.0	-37.6	---	---	725.1	0.028	0.000	18.1	1	1
03/07/06	8:02 a	-21.7	-21.7	-21.7	---	---	28.7	E	0.48	33.0	-37.9	---	---	724.8	0.028	0.000	18.1	1	1
03/07/06	8:03 a	-21.7	-21.7	-21.7	---	---	32.2	E	0.54	37.4	-38.7	---	---	725.0	0.028	0.000	18.1	1	1
03/07/06	8:04 a	-21.7	-21.6	-21.7	---	---	32.2	E	0.54	37.4	-38.7	---	---	725.1	0.028	0.000	18.1	1	1
03/07/06	8:05 a	-21.7	-21.6	-21.7	---	---	27.8	E	0.46	33.9	-37.8	---	---	725.1	0.028	0.000	18.1	1	1
03/07/06	8:06 a	-21.7	-21.7	-21.7	---	---	27.8	E	0.46	32.2	-37.8	---	---	725.0	0.028	0.000	18.0	1	1
03/07/06	8:07 a	-21.6	-21.6	-21.6	---	---	27.8	E	0.46	34.8	-37.7	---	---	724.9	0.028	0.000	18.0	1	1
03/07/06	8:08 a	-21.6	-21.6	-21.6	---	---	30.4	E	0.51	35.7	-38.2	---	---	724.8	0.028	0.000	18.0	1	1
03/07/06	8:09 a	-21.6	-21.6	-21.6	---	---	33.0	E	0.55	37.4	-38.7	---	---	724.7	0.028	0.000	18.0	1	1
03/07/06	8:10 a	-21.6	-21.6	-21.6	---	---	31.3	E	0.52	37.4	-38.4	---	---	725.1	0.028	0.000	18.0	1	1
03/07/06	8:11 a	-21.6	-21.6	-21.6	---	---	27.8	E	0.46	32.2	-37.7	---	---	725.4	0.028	0.000	18.0	1	1
03/07/06	8:12 a	-21.6	-21.6	-21.6	---	---	24.3	E	0.41	29.6	-36.9	---	---	725.2	0.028	0.000	17.9	1	1
03/07/06	8:13 a	-21.6	-21.6	-21.6	---	---	26.1	E	0.43	30.4	-37.3	---	---	725.1	0.028	0.000	17.9	1	1
03/07/06	8:14 a	-21.6	-21.6	-21.6	---	---	30.4	E	0.51	40.0	-38.2	---	---	724.8	0.028	0.000	17.9	1	1
03/07/06	8:15 a	-21.6	-21.6	-21.6	---	---	36.5	E	0.61	41.7	-39.3	---	---	725.0	0.028	0.000	17.9	1	1
03/07/06	8:16 a	-21.6	-21.5	-21.6	---	---	32.2	E	0.54	39.1	-38.5	---	---	725.3	0.028	0.000	17.9	1	1
03/07/06	8:17 a	-21.6	-21.5	-21.6	---	---	28.7	E	0.48	34.8	-37.8	---	---	725.2	0.028	0.000	17.9	1	1
03/07/06	8:18 a	-21.6	-21.6	-21.6	---	---	27.8	E	0.46	34.8	-37.7	---	---	725.1	0.028	0.000	17.9	1	1
03/07/06	8:19 a	-21.6	-21.6	-21.6	---	---	31.3	E	0.52	36.5	-38.4	---	---	724.9	0.028	0.000	17.9	1	1
03/07/06	8:20 a	-21.6	-21.6	-21.6	---	---	31.3	E	0.52	40.0	-38.4	---	---	725.2	0.028	0.000	17.9	1	1
03/07/06	8:21 a	-21.7	-21.6	-21.7	---	---	27.8	E	0.46	33.0	-37.8	---	---	725.3	0.028	0.000	18.0	1	1
03/07/06	8:22 a	-21.7	-21.6	-21.7	---	---	29.6	E	0.49	35.7	-38.1	---	---	725.0	0.028	0.000	18.0	1	1
03/07/06	8:23 a	-21.7	-21.7	-21.7	---	---	34.8	E	0.58	40.0	-39.1	---	---	725.0	0.028	0.000	18.1	1	1
03/07/06	8:24 a	-21.7	-21.7	-21.7	---	---	29.6	E	0.49	36.5	-38.1	---	---	725.2	0.028	0.000	18.1	1	1
03/07/06	8:25 a	-21.7	-21.7	-21.7	---	---	26.1	E	0.43	29.6	-37.4	---	---	725.2	0.028	0.000	18.1	1	1
03/07/06	8:26 a	-21.7	-21.7	-21.7	---	---	24.3	E	0.41	31.3	-36.9	---	---	725.0	0.028	0.000	18.1	1	1
03/07/06	8:27 a	-21.7	-21.7	-21.7	---	---	33.9	E	0.57	40.0	-38.9	---	---	725.0	0.028	0.000	18.2	1	1
03/07/06	8:28 a	-21.7	-21.7	-21.7	---	---	33.0	E	0.55	39.1	-38.8	---	---	725.2	0.028	0.000	18.2	1	1
03/07/06	8:29 a	-21.7	-21.6	-21.7	---	---	26.1	E	0.43	35.7	-37.4	---	---	725.2	0.028	0.000	18.2	1	1
03/07/06	8:30 a	-21.6	-21.6	-21.6	---	---	29.6	E	0.49	33.0	-38.1	---	---	725.2	0.028	0.000	18.2	1	1
03/07/06	8:31 a	-21.6	-21.6	-21.6	---	---	28.7	E	0.48	33.9	-37.9	---	---	725.1	0.028	0.000	18.3	1	1
03/07/06	8:32 a	-21.6	-21.6	-21.6	---	---	33.0	E	0.55	40.9	-38.7	---	---	725.0	0.028	0.000	18.3	1	1
03/07/06	8:33 a	-21.6	-21.6	-21.7	---	---	30.4	E	0.51	35.7	-38.2	---	---	725.1	0.028	0.000	18.2	1	1
03/07/06	8:34 a	-21.6	-21.6	-21.7	---	---	28.7	E	0.48	34.8	-37.9	---	---	725.4	0.028	0.000	18.2	1	1
03/07/06	8:35 a	-21.7	-21.7	-21.7	---	---	27.0	E	0.45	37.4	-37.6	---	---	725.0	0.028	0.000	18.2	1	1
03/07/06	8:36 a	-21.7	-21.7	-21.7	---	---	36.5	E	0.61	42.6	-39.4	---	---	725.0	0.028	0.000	18.2	1	1
03/07/06	8:37 a	-21.6	-21.6	-21.7	---	---	28.7	E	0.48	37.4	-37.9	---	---	725.2	0.028	0.000	18.2	1	1
03/07/06	8:38 a	-21.6	-21.6	-21.6	---	---	26.1	E	0.43	35.7	-37.3	---	---	725.1	0.028	0.000	18.2	1	1
03/07/06	8:39 a	-21.6	-21.6	-21.6	---	---	36.5	E	0.61	41.7	-39.3	---	---	725.3	0.028	0.000	18.2	1	1
03/07/06	8:40 a	-21.6	-21.6	-21.6	---	---	32.2	E	0.54	37.4	-38.6	---	---	725.5	0.028	0.000	18.2	1	1
03/07/06	8:41 a	-21.6	-21.6	-21.7	---	---	31.3	E	0.52	36.5	-38.4	---	---	725.0	0.028	0.000	18.2	1	1
03/07/06	8:42 a	-21.6	-21.6	-21.6	---	---	34.8	E	0.58	38.3	-39.1	---	---	725.0	0.028	0.000	18.1	1	1
03/07/06	8:43 a	-21.6	-21.6	-21.7	---	---	30.4	E	0.51	38.3	-38.2	---	---	725.2	0.028	0.000	18.1	1	1
03/07/06	8:44 a	-21.6	-21.6	-21.7	---	---	30.4	E	0.51	34.8	-38.2	---	---	725.2	0.028	0.000	18.1	1	1
03/07/06	8:45 a	-21.7	-21.6	-21.7	---	---	32.2	E	0.54	40.9	-38.7	---	---	725.1	0.028	0.000	18.1	1	1
03/07/06	8:46 a	-21.7	-21.6	-21.7	---	---	35.7	E	0.59	42.6	-39.3	---	---	725.1	0.028	0.000	18.1	1	1
03/07/06	8:47 a	-21.7	-21.6	-21.7	---	---	33.0	E	0.55	38.3	-38.8	---	---	725.3	0.028	0.000	18.1	1	1
03/07/06	8:48 a	-21.7	-21.6	-21.7	---	---	27.8	E	0.46	33.0	-37.8	---	---	725.2	0.028	0.000	18.1	1	1
03/07/06	8:49 a	-21.7	-21.6	-21.7	---	---	30.4	E	0.51	37.4	-38.3	---	---	725.0	0.028	0.000	18.1	1	1
03/07/06	8:50 a	-21.6	-21.6	-21.7	---	---	35.7	E	0.59	40.9	-39.2	---	---	724.9	0.028	0.000	18.1	1	1
03/07/06	8:51 a	-21.6	-21.6	-21.7	---	---	35.7	E	0.59	43.5	-39.2	---	---	725.2	0.028	0.000	18.1	1	1
03/07/06	8:52 a	-21.7	-21.7	-21.7	---	---	32.2	E	0.54	35.7	-38.7	---	---	725.3	0.028	0.000	18.0	1	1
03/07/06	8:53 a	-21.7	-21.6	-21.7	---	---	32.2	E	0.54	37.4	-38.7	---	---	724.8	0.028	0.000	18.0	1	1
03/07/06	8:54 a	-21.7	-21.6	-21.7	---	---	36.5	E	0.61	41.7	-39.4	---	---	725.2	0.028	0.000	18.0	1	1
03/07/06	8:55 a	-21.7	-21.6	-21.7	---	---	30.4	E	0.51	38.3	-38.3	---	---	725.4	0.028	0.000	18.0	1	1
03/07/06	8:56 a	-21.7	-21.6	-21.7	---	---	30.4	E	0.51	40.9	-38.3	---	---	724.9	0.028	0.000	17.9	1	1
03/07/06	8:57 a	-21.6	-21.6	-21.7	---	---	36.5	E	0.61	44.3	-39.3	---	---	724.9	0.028	0.000	17.9	1	1
03/07/06	8:58 a	-21.6	-21.6	-21.6	---	---	36.5	E	0.61	39.1	-39.3	---	---	725.4	0.028	0.000	17.9	1	1
03/07/06	8:59 a	-21.6	-21.6	-21.6	---	---	27.8	E	0.46	33.0	-37.7	---	---	725.5	0.028	0.000	17.9	1	1
03/07/06	9:00 a	-21.6	-21.6	-21.7	---	---	25.2	E	0.42	33.0	-37.1	---	---	725.3	0.028	0.000	17.9	1	1
03/07/06	9:01 a	-21.6	-21.6	-21.6	---	---	27.8	E	0.46	34.8	-37.7	---	---	725.0	0.028	0.000	17.9	1	1
03/07/06	9:02 a	-21.6	-21.6	-21.6	---	---	35.7	E	0.59	39.1	-39.2	---	---	725.3	0.028	0.000	17.9	1	1
03/07/06	9:03 a	-21.6	-21.6	-21.6	---	---	29.6	E	0.49	35.7	-38.1	---	---	725.4	0.028	0.000	18.0	1	1
03/07/06	9:04 a	-21.6	-21.6	-21.6	---	---	33.0	E	0.55	38.3	-38.7	---	---	725.1	0.028	0.000	18.0	1	1
03/07/06	9:05 a	-21.6	-21.6	-21.6	---	---	32.2	E	0.54	40.0	-38.6	---	---	725.5	0.028	0.000	18.0	1	1
03/07/06	9:06 a	-21.6	-21.6	-21.6	---	---	26.1	E	0.43	33.9	-37.3	---	---	725.5	0.028	0.000	18.1	1	1
03/07/06	9:07 a	-21.6	-21.6	-21.6	---	---	26.1	E	0.43	34.8	-37.3	---	---	725.4	0.028	0.000	18.1	1	1
03/07/06	9:08 a	-21.6	-21.6	-21.7	---	---	32.2	E	0.54	36.5	-38.6	---	---	725.1	0.028	0.000	18.1	1	1
03/07/06	9:09 a	-21.6	-21.6	-21.6	---	---	33.9	E	0.57	36.5	-38.9	---	---	725.2	0.028	0.000	18.1	1	1
03/07/06	9:10 a	-21.6	-21.6	-21.6	---	---	30.4	E	0.51	38.3	-38.2	---	---	725.7	0.028	0.000	18.1	1	1
03/07/06	9:11 a	-21.6	-21.6	-21.6	---	---	25.2	E	0.42	27.8	-37.0	---	---	725.6	0.028	0.000	18.2	1	1
03/07/06	9:12 a	-21.6	-21.6	-21.6	---	---	28.7	E	0.48	36.5	-37.9	---	---	725.1	0.028	0.000	18.1	1	1
03/07/06	9:13 a	-21.6	-21.6	-21.6	---	---	36.5	E	0.61	40.9	-39.3	---	---	725.2	0.028	0.000	18.1	1	1
03/07/06	9:14 a	-21.6	-21.6	-21.6	---	---	33.9	E	0.57	37.4	-38.8	---	---	725.4	0.028	0.000	18.1	1	1
03/07/06	9:15 a	-21.6	-21.6	-21.6	---	---	31.3	E	0.52	38.3	-38.3	---	---	725.4	0.028	0.000	18.1	1	1
03/07/06	9:16 a	-21.6	-21.6	-21.6	---	---	27.8	E	0.46	32.2	-37.6	---	---	725.2	0.028	0.000	18.1	1	1
03/07/06	9:17 a	-21.6	-21.6	-21.6	---	---	29.6	E	0.49	35.7	-38.1	---	---	725.0	0.028	0.000	18.1	1	1
03/07/06	9:18 a	-21.7	-21.6	-21.7	---	---	33.9	E	0.57	40.9	-38.9	---	---	725.0	0.028	0.000	18.1	1	1
03/07/06	9:19 a	-21.7	-21.6	-21.7	---	---	35.7	E	0.59	41.7	-39.3	---	---	725.0	0.028	0.000	18.1	1	1
03/07/06	9:20 a	-21.7	-21.7	-21.7	---	---	29.6	E	0.49	34.8	-38.1	---	---	725.4	0.028	0.000	18.1	1	1
03/07/06	9:21 a	-21.7	-21.7	-21.7	---	---	31.3	E	0.52	35.7	-38.6	---	---	725.0	0.028	0.000	18.1	1	1
03/07/06	9:22 a	-21.7	-21.7	-21.7	---	---	35.7	E	0.59	40.0	-39.3	---	---	725.1	0.028	0.000	18.1	1	1
03/07/06	9:23 a	-21.8	-21.7	-21.8	---	---	34.8	E	0.58	39.1	-39.3	---	---	725.1	0.028	0.000	18.0	1	1
03/07/06	9:24 a	-21.8	-21.7	-21.8	---	---	31.3	E	0.52	36.5	-38.6	---	---	725.2	0.028	0.000	18.0	1	1
03/07/06	9:25 a	-21.8	-21.8	-21.8	---	---	27.8	E	0.46	33.9	-37.9	---	---	725.1	0.028	0.000	18.0	1	1
03/07/06	9:26 a	-21.8	-21.8	-21.8	---	---	31.3	E	0.52	39.1	-38.7	---	---	724.9	0.028	0.000	18.0	1	1
03/07/06	9:27 a	-21.8	-21.8	-21.8	---	---	33.0	E	0.55	39.1	-39.1	---	---	725.3	0.028	0.000	18.0	1	1
03/07/06	9:28 a	-21.8	-21.8	-21.8	---	---	28.7	E	0.48	33.9	-38.2	---	---	725.1	0.028	0.000	18.0	1	1
03/07/06	9:29 a	-21.8	-21.8	-21.9	---	---	32.2	E	0.54	38.3	-38.9	---	---	725.5	0.028	0.000	17.9	1	1
03/07/06	9:30 a	-21.8	-21.8	-21.9	---	---	29.6	E	0.49	33.9	-38.3	---	---	725.1	0.028	0.000	17.9	1	1
03/07/06	9:31 a	-21.9	-21.8	-21.9	---	---	31.3	E	0.52	37.4	-38.8	---	---	725.3	0.028	0.000	17.9	1	1
03/07/06	9:32 a	-21.9	-21.9	-21.9	---	---	33.0	E	0.55	38.3	-39.1	---	---	724.9	0.028	0.000	17.9	1	1
03/07/06	9:33 a	-21.9	-21.8	-21.9	---	---	30.4	E	0.51	37.4	-38.6	---	---	725.7	0.028	0.000	17.9	1	1
03/07/06	9:34 a	-21.9	-21.9	-21.9	---	---	23.5	E	0.39	27.8	-37.1	---	---	725.5	0.028	0.000	17.9	1	1
03/07/06	9:35 a	-21.9	-21.9	-21.9	---	---	31.3	E	0.52	40.9	-38.8	---	---	725.0	0.028	0.000	17.9	1	1
03/07/06	9:36 a	-21.9	-21.9	-21.9	---	---	34.8	E	0.58	41.7	-39.4	---	---	725.4	0.028	0.000	17.9	1	1
03/07/06	9:37 a	-21.9	-21.9	-21.9	---	---	26.1	E	0.43	33.0	-37.8	---	---	725.4	0.028	0.000	17.9	1	1
03/07/06	9:38 a	-21.9	-21.9	-21.9	---	---	29.6	E	0.49	35.7	-38.5	---	---	725.2	0.028	0.000	17.8	1	1
03/07/06	9:39 a	-21.9	-21.9	-21.9	---	---	30.4	E	0.51	34.8	-38.7	---	---	725.2	0.028	0.000	17.9	1	1
03/07/06	9:40 a	-22.0	-21.9	-22.1	---	---	28.7	E	0.48	33.9	-38.4	---	---	725.1	0.028	0.000	17.9	1	1
03/07/06	9:41 a	-22.0	-22.0	-22.0	---	---	35.7	E	0.59	40.9	-39.7	---	---	725.2	0.028	0.000	17.9	1	1
03/07/06	9:42 a	-22.0	-22.0	-22.1	---	---	28.7	E	0.48	36.5	-38.4	---	---	725.4	0.028	0.000	17.9	1	1
03/07/06	9:43 a	-22.1	-22.1	-22.1	---	---	29.6	E	0.49	33.9	-38.7	---	---	725.1	0.028	0.000	17.9	1	1
03/07/06	9:44 a	-22.1	-22.1	-22.1	---	---	32.2	E	0.54	34.8	-39.2	---	---	725.1	0.028	0.000	18.0	1	1
03/07/06	9:45 a	-22.1	-22.0	-22.1	---	---	29.6	E	0.49	33.0	-38.7	---	---	725.2	0.028	0.000	18.0	1	1
03/07/06	9:46 a	-22.1	-22.0	-22.1	---	---	27.8	E	0.46	33.0	-38.3	---	---	725.2	0.028	0.000	18.1	1	1
03/07/06	9:47 a	-22.1	-22.0	-22.1	---	---	31.3	E	0.52	37.4	-39.0	---	---	725.2	0.028	0.000	18.1	1	1
03/07/06	9:48 a	-22.1	-22.1	-22.1	---	---	27.8	E	0.46	34.8	-38.3	---	---	725.4	0.028	0.000	18.1	1	1
03/07/06	9:49 a	-22.1	-22.0	-22.1	---	---	30.4	E	0.51	35.7	-38.8	---	---	725.2	0.028	0.000	18.2	1	1
03/07/06	9:50 a	-22.1	-22.1	-22.1	---	---	29.6	E	0.49	36.5	-38.7	---	---	725.2	0.028	0.000	18.2	1	1
03/07/06	9:51 a	-22.1	-22.1	-22.1	---	---	29.6	E	0.49	34.8	-38.7	---	---	725.4	0.028	0.000	18.2	1	1
03/07/06	9:52 a	-22.1	-22.1	-22.1	---	---	31.3	E	0.52	37.4	-39.0	---	---	725.1	0.028	0.000	18.2	1	1
03/07/06	9:53 a	-22.1	-22.1	-22.1	---	---	33.0	E	0.55	39.1	-39.3	---	---	725.6	0.028	0.000	18.2	1	1
03/07/06	9:54 a	-22.1	-22.1	-22.1	---	---	27.0	E	0.45	32.2	-38.1	---	---	725.6	0.028	0.000	18.2	1	1
03/07/06	9:55 a	-22.1	-22.1	-22.1	---	---	29.6	E	0.49	34.8	-38.7	---	---	725.1	0.028	0.000	18.1	1	1
03/07/06	9:56 a	-22.1	-22.1	-22.1	---	---	32.2	E	0.54	38.3	-39.2	---	---	725.3	0.028	0.000	18.1	1	1
03/07/06	9:57 a	-22.1	-22.1	-22.1	---	---	30.4	E	0.51	35.7	-38.8	---	---	725.3	0.028	0.000	18.1	1	1
03/07/06	9:58 a	-22.1	-22.0	-22.1	---	---	27.8	E	0.46	32.2	-38.3	---	---	725.4	0.028	0.000	18.1	1	1
03/07/06	9:59 a	-22.1	-22.0	-22.1	---	---	29.6	E	0.49	36.5	-38.7	---	---	725.2	0.028	0.000	18.1	1	1
03/07/06	10:00 a	-22.1	-22.0	-22.1	---	---	31.3	E	0.52	36.5	-39.0	---	---	725.2	0.028	0.000	18.1	1	1
03/07/06	10:01 a	-22.0	-22.0	-22.1	---	---	32.2	E	0.54	36.5	-39.1	---	---	725.0	0.028	0.000	18.1	1	1
03/07/06	10:02 a	-22.0	-22.0	-22.0	---	---	34.8	E	0.58	40.0	-39.6	---	---	725.3	0.028	0.000	18.1	1	1
03/07/06	10:03 a	-22.0	-21.9	-22.0	---	---	32.2	E	0.54	36.5	-39.1	---	---	725.3	0.028	0.000	18.0	1	1
03/07/06	10:04 a	-22.0	-22.0	-22.1	---	---	29.6	E	0.49	36.5	-38.6	---	---	725.4	0.028	0.000	18.0	1	1
03/07/06	10:05 a	-22.0	-22.0	-22.1	---	---	29.6	E	0.49	32.2	-38.6	---	---	725.3	0.028	0.000	18.0	1	1
03/07/06	10:06 a	-22.0	-22.0	-22.1	---	---	30.4	E	0.51	37.4	-38.8	---	---	725.0	0.028	0.000	18.0	1	1
03/07/06	10:07 a	-22.1	-22.1	-22.1	---	---	31.3	E	0.52	37.4	-39.0	---	---	725.1	0.028	0.000	18.0	1	1
03/07/06	10:08 a	-22.1	-22.0	-22.1	---	---	33.0	E	0.55	38.3	-39.3	---	---	725.2	0.028	0.000	17.9	1	1
03/07/06	10:09 a	-22.1	-22.0	-22.1	---	---	29.6	E	0.49	33.9	-38.7	---	---	725.2	0.028	0.000	17.9	1	1
03/07/06	10:10 a	-22.1	-22.0	-22.1	---	---	30.4	E	0.51	37.4	-38.8	---	---	725.1	0.028	0.000	17.9	1	1
03/07/06	10:11 a	-22.1	-22.0	-22.1	---	---	32.2	E	0.54	37.4	-39.2	---	---	725.1	0.028	0.000	17.9	1	1
03/07/06	10:12 a	-22.1	-22.0	-22.1	---	---	30.4	E	0.51	38.3	-38.8	---	---	725.5	0.028	0.000	17.9	1	1
03/07/06	10:13 a	-22.1	-22.1	-22.1	---	---	28.7	E	0.48	37.4	-38.5	---	---	725.0	0.028	0.000	17.9	1	1
03/07/06	10:14 a	-22.1	-22.0	-22.1	---	---	32.2	E	0.54	36.5	-39.2	---	---	725.3	0.028	0.000	17.9	1	1
03/07/06	10:15 a	-22.1	-22.1	-22.1	---	---	31.3	E	0.52	38.3	-39.0	---	---	725.4	0.028	0.000	17.9	1	1
03/07/06	10:16 a	-22.1	-22.1	-22.1	---	---	28.7	E	0.48	33.0	-38.6	---	---	725.3	0.028	0.000	17.9	1	1
03/07/06	10:17 a	-22.1	-22.1	-22.1	---	---	32.2	E	0.54	40.9	-39.3	---	---	725.1	0.028	0.000	17.9	1	1
03/07/06	10:18 a	-22.1	-22.1	-22.2	---	---	31.3	E	0.52	35.7	-39.1	---	---	725.5	0.028	0.000	17.9	1	1
03/07/06	10:19 a	-22.2	-22.2	-22.2	---	---	29.6	E	0.49	36.5	-38.8	---	---	725.3	0.028	0.000	17.9	1	1
03/07/06	10:20 a	-22.2	-22.2	-22.2	---	---	33.0	E	0.55	39.1	-39.5	---	---	725.3	0.028	0.000	17.9	1	1
03/07/06	10:21 a	-22.2	-22.2	-22.2	---	---	33.0	E	0.55	38.3	-39.6	---	---	725.4	0.028	0.000	17.9	1	1
03/07/06	10:22 a	-22.3	-22.2	-22.3	---	---	32.2	E	0.54	37.4	-39.5	---	---	725.2	0.028	0.000	17.9	1	1
03/07/06	10:23 a	-22.3	-22.2	-22.3	---	---	33.9	E	0.57	39.1	-39.8	---	---	725.3	0.028	0.000	18.0	1	1
03/07/06	10:24 a	-22.3	-22.2	-22.3	---	---	30.4	E	0.51	34.8	-39.2	---	---	725.4	0.028	0.000	18.0	1	1
03/07/06	10:25 a	-22.3	-22.3	-22.3	---	---	29.6	E	0.49	34.8	-38.9	---	---	725.4	0.028	0.000	18.0	1	1
03/07/06	10:26 a	-22.3	-22.3	-22.3	---	---	32.2	E	0.54	38.3	-39.5	---	---	725.3	0.028	0.000	18.1	1	1
03/07/06	10:27 a	-22.3	-22.2	-22.3	---	---	30.4	E	0.51	37.4	-39.2	---	---	725.4	0.028	0.000	18.1	1	1
03/07/06	10:28 a	-22.3	-22.3	-22.3	---	---	27.0	E	0.45	33.9	-38.4	---	---	725.2	0.028	0.000	18.0	1	1
03/07/06	10:29 a	-22.2	-22.2	-22.3	---	---	34.8	E	0.58	40.9	-39.9	---	---	725.2	0.028	0.000	18.0	1	1
03/07/06	10:30 a	-22.2	-22.2	-22.3	---	---	32.2	E	0.54	37.4	-39.4	---	---	725.7	0.028	0.000	18.0	1	1
03/07/06	10:31 a	-22.2	-22.2	-22.2	---	---	28.7	E	0.48	33.0	-38.6	---	---	725.3	0.028	0.000	18.0	1	1
03/07/06	10:32 a	-22.2	-22.2	-22.2	---	---	32.2	E	0.54	36.5	-39.3	---	---	725.1	0.028	0.000	18.0	1	1
03/07/06	10:33 a	-22.2	-22.2	-22.2	---	---	33.9	E	0.57	40.9	-39.7	---	---	725.5	0.028	0.000	18.0	1	1
03/07/06	10:34 a	-22.2	-22.2	-22.2	---	---	29.6	E	0.49	33.9	-38.9	---	---	725.6	0.028	0.000	18.0	1	1
03/07/06	10:35 a	-22.2	-22.2	-22.2	---	---	30.4	E	0.51	34.8	-39.1	---	---	725.4	0.028	0.000	17.9	1	1
03/07/06	10:36 a	-22.2	-22.2	-22.2	---	---	32.2	E	0.54	40.0	-39.4	---	---	725.2	0.028	0.000	17.9	1	1
03/07/06	10:37 a	-22.3	-22.2	-22.3	---	---	33.9	E	0.57	40.9	-39.8	---	---	725.1	0.028	0.000	17.9	1	1
03/07/06	10:38 a	-22.3	-22.3	-22.3	---	---	35.7	E	0.59	40.9	-40.1	---	---	725.6	0.028	0.000	17.9	1	1
03/07/06	10:39 a	-22.3	-22.3	-22.3	---	---	28.7	E	0.48	36.5	-38.8	---	---	725.9	0.028	0.000	17.9	1	1
03/07/06	10:40 a	-22.3	-22.3	-22.3	---	---	27.8	E	0.46	33.9	-38.7	---	---	725.4	0.028	0.000	17.9	1	1
03/07/06	10:41 a	-22.3	-22.3	-22.3	---	---	37.4	E	0.62	44.3	-40.5	---	---	725.4	0.028	0.000	17.9	1	1
03/07/06	10:42 a	-22.3	-22.3	-22.3	---	---	30.4	E	0.51	40.9	-39.2	---	---	725.9	0.028	0.000	17.9	1	1
03/07/06	10:43 a	-22.3	-22.3	-22.3	---	---	27.8	E	0.46	35.7	-38.7	---	---	725.4	0.028	0.000	17.9	1	1
03/07/06	10:44 a	-22.3	-22.3	-22.4	---	---	31.3	E	0.52	38.3	-39.4	---	---	725.2	0.028	0.000	17.8	1	1
03/07/06	10:45 a	-22.3	-22.3	-22.3	---	---	35.7	E	0.59	41.7	-40.2	---	---	725.6	0.028	0.000	17.8	1	1
03/07/06	10:46 a	-22.3	-22.3	-22.3	---	---	29.6	E	0.49	34.8	-39.1	---	---	725.9	0.028	0.000	17.8	1	1
03/07/06	10:47 a	-22.3	-22.3	-22.3	---	---	27.8	E	0.46	33.0	-38.7	---	---	725.6	0.028	0.000	17.8	1	1
03/07/06	10:48 a	-22.3	-22.3	-22.3	---	---	31.3	E	0.52	37.4	-39.4	---	---	725.3	0.028	0.000	17.8	1	1
03/07/06	10:49 a	-22.3	-22.3	-22.4	---	---	35.7	E	0.59	40.0	-40.2	---	---	725.4	0.028	0.000	17.8	1	1
03/07/06	10:50 a	-22.3	-22.3	-22.3	---	---	32.2	E	0.54	36.5	-39.6	---	---	725.6	0.028	0.000	17.8	1	1
03/07/06	10:51 a	-22.3	-22.3	-22.3	---	---	30.4	E	0.51	37.4	-39.2	---	---	725.5	0.028	0.000	17.8	1	1
03/07/06	10:52 a	-22.4	-22.3	-22.4	---	---	30.4	E	0.51	36.5	-39.3	---	---	725.6	0.028	0.000	17.8	1	1
03/07/06	10:53 a	-22.3	-22.3	-22.4	---	---	33.9	E	0.57	43.5	-39.9	---	---	725.2	0.028	0.000	17.8	1	1
03/07/06	10:54 a	-22.3	-22.3	-22.4	---	---	36.5	ENE	0.61	40.9	-40.3	---	---	725.7	0.028	0.000	17.8	1	1
03/07/06	10:55 a	-22.4	-22.3	-22.4	---	---	28.7	E	0.48	36.5	-38.9	---	---	725.7	0.028	0.000	17.8	1	1
03/07/06	10:56 a	-22.4	-22.3	-22.4	---	---	33.9	E	0.57	39.1	-39.9	---	---	725.2	0.028	0.000	17.9	1	1
03/07/06	10:57 a	-22.4	-22.4	-22.4	---	---	33.9	E	0.57	41.7	-39.9	---	---	725.8	0.028	0.000	17.9	1	1
03/07/06	10:58 a	-22.4	-22.4	-22.4	---	---	28.7	E	0.48	34.8	-39.0	---	---	725.7	0.028	0.000	17.9	1	1
03/07/06	10:59 a	-22.4	-22.4	-22.5	---	---	33.0	E	0.55	40.9	-39.9	---	---	725.2	0.028	0.000	17.9	1	1
03/07/06	11:00 a	-22.5	-22.4	-22.5	---	---	33.0	E	0.55	39.1	-39.9	---	---	725.4	0.028	0.000	18.0	1	1
03/07/06	11:01 a	-22.5	-22.5	-22.5	---	---	30.4	E	0.51	39.1	-39.4	---	---	725.4	0.028	0.000	18.0	1	1
03/07/06	11:02 a	-22.5	-22.4	-22.5	---	---	33.0	E	0.55	38.3	-39.9	---	---	725.3	0.028	0.000	18.0	1	1
03/07/06	11:03 a	-22.5	-22.4	-22.5	---	---	34.8	E	0.58	40.0	-40.3	---	---	725.5	0.028	0.000	18.1	1	1
03/07/06	11:04 a	-22.5	-22.4	-22.5	---	---	30.4	E	0.51	37.4	-39.4	---	---	725.7	0.028	0.000	18.1	1	1
03/07/06	11:05 a	-22.4	-22.4	-22.4	---	---	31.3	E	0.52	36.5	-39.6	---	---	725.3	0.028	0.000	18.1	1	1
03/07/06	11:06 a	-22.5	-22.4	-22.5	---	---	33.9	E	0.57	42.6	-40.1	---	---	725.2	0.028	0.000	18.1	1	1
03/07/06	11:07 a	-22.5	-22.4	-22.5	---	---	35.7	E	0.59	42.6	-40.4	---	---	725.2	0.028	0.000	18.0	1	1
03/07/06	11:08 a	-22.4	-22.4	-22.4	---	---	32.2	E	0.54	39.1	-39.7	---	---	725.6	0.028	0.000	18.0	1	1
03/07/06	11:09 a	-22.5	-22.4	-22.5	---	---	29.6	E	0.49	34.8	-39.3	---	---	725.7	0.028	0.000	18.0	1	1
03/07/06	11:10 a	-22.5	-22.4	-22.5	---	---	27.0	E	0.45	29.6	-38.7	---	---	725.6	0.028	0.000	18.0	1	1
03/07/06	11:11 a	-22.5	-22.4	-22.5	---	---	30.4	E	0.51	35.7	-39.4	---	---	725.3	0.028	0.000	18.0	1	1
03/07/06	11:12 a	-22.5	-22.5	-22.5	---	---	35.7	E	0.59	41.7	-40.4	---	---	725.3	0.028	0.000	17.9	1	1
03/07/06	11:13 a	-22.5	-22.5	-22.5	---	---	34.8	E	0.58	40.9	-40.3	---	---	725.5	0.028	0.000	17.9	1	1
03/07/06	11:14 a	-22.5	-22.4	-22.5	---	---	31.3	E	0.52	37.4	-39.6	---	---	725.8	0.028	0.000	17.9	1	1
03/07/06	11:15 a	-22.5	-22.5	-22.5	---	---	31.3	E	0.52	34.8	-39.6	---	---	725.3	0.028	0.000	17.9	1	1
03/07/06	11:16 a	-22.5	-22.5	-22.5	---	---	37.4	E	0.62	41.7	-40.7	---	---	725.6	0.028	0.000	17.9	1	1
03/07/06	11:17 a	-22.5	-22.4	-22.5	---	---	33.0	E	0.55	40.0	-39.9	---	---	725.9	0.028	0.000	17.9	1	1
03/07/06	11:18 a	-22.5	-22.5	-22.6	---	---	27.8	E	0.46	35.7	-38.9	---	---	725.7	0.028	0.000	17.9	1	1
03/07/06	11:19 a	-22.5	-22.4	-22.5	---	---	33.0	E	0.55	41.7	-39.9	---	---	725.5	0.028	0.000	17.9	1	1
03/07/06	11:20 a	-22.5	-22.5	-22.5	---	---	30.4	E	0.51	36.5	-39.4	---	---	725.7	0.028	0.000	17.9	1	1
03/07/06	11:21 a	-22.5	-22.4	-22.5	---	---	30.4	E	0.51	35.7	-39.4	---	---	725.6	0.028	0.000	17.9	1	1
03/07/06	11:22 a	-22.5	-22.5	-22.5	---	---	33.0	E	0.55	39.1	-39.9	---	---	725.6	0.028	0.000	17.8	1	1
03/07/06	11:23 a	-22.5	-22.5	-22.5	---	---	28.7	E	0.48	34.8	-39.1	---	---	725.8	0.028	0.000	17.8	1	1
03/07/06	11:24 a	-22.5	-22.5	-22.6	---	---	29.6	E	0.49	35.7	-39.3	---	---	725.5	0.028	0.000	17.8	1	1
03/07/06	11:25 a	-22.5	-22.5	-22.6	---	---	33.9	E	0.57	40.0	-40.1	---	---	725.3	0.028	0.000	17.8	1	1
03/07/06	11:26 a	-22.5	-22.5	-22.6	---	---	35.7	E	0.59	40.0	-40.4	---	---	725.6	0.028	0.000	17.8	1	1
03/07/06	11:27 a	-22.6	-22.5	-22.6	---	---	32.2	E	0.54	35.7	-39.9	---	---	725.9	0.028	0.000	17.8	1	1
03/07/06	11:28 a	-22.5	-22.5	-22.6	---	---	27.8	E	0.46	33.9	-38.9	---	---	725.8	0.028	0.000	17.8	1	1
03/07/06	11:29 a	-22.6	-22.5	-22.6	---	---	33.0	E	0.55	36.5	-40.1	---	---	725.4	0.028	0.000	17.8	1	1
03/07/06	11:30 a	-22.6	-22.5	-22.6	---	---	33.9	E	0.57	36.5	-40.2	---	---	725.4	0.028	0.000	17.8	1	1
03/07/06	11:31 a	-22.6	-22.5	-22.6	---	---	33.0	E	0.55	38.3	-40.1	---	---	725.7	0.028	0.000	17.8	1	1
03/07/06	11:32 a	-22.6	-22.5	-22.6	---	---	31.3	E	0.52	36.5	-39.7	---	---	725.8	0.028	0.000	17.9	1	1
03/07/06	11:33 a	-22.6	-22.6	-22.6	---	---	32.2	E	0.54	35.7	-39.9	---	---	725.5	0.028	0.000	17.9	1	1
03/07/06	11:34 a	-22.6	-22.6	-22.6	---	---	33.0	E	0.55	40.0	-40.1	---	---	725.7	0.028	0.000	17.9	1	1
03/07/06	11:35 a	-22.6	-22.6	-22.6	---	---	26.1	E	0.43	32.2	-38.6	---	---	726.1	0.028	0.000	17.9	1	1
03/07/06	11:36 a	-22.6	-22.6	-22.6	---	---	29.6	E	0.49	34.8	-39.3	---	---	725.4	0.028	0.000	17.9	1	1
03/07/06	11:37 a	-22.6	-22.6	-22.6	---	---	34.8	E	0.58	38.3	-40.3	---	---	725.6	0.028	0.000	18.0	1	1
03/07/06	11:38 a	-22.6	-22.6	-22.6	---	---	31.3	E	0.52	37.4	-39.7	---	---	725.8	0.028	0.000	18.0	1	1
03/07/06	11:39 a	-22.6	-22.6	-22.6	---	---	29.6	E	0.49	37.4	-39.3	---	---	725.7	0.028	0.000	18.1	1	1
03/07/06	11:40 a	-22.6	-22.6	-22.6	---	---	30.4	E	0.51	37.4	-39.5	---	---	725.7	0.028	0.000	18.1	1	1
03/07/06	11:41 a	-22.6	-22.6	-22.6	---	---	30.4	E	0.51	37.4	-39.5	---	---	725.4	0.028	0.000	18.1	1	1
03/07/06	11:42 a	-22.6	-22.6	-22.6	---	---	36.5	E	0.61	42.6	-40.7	---	---	725.7	0.028	0.000	18.1	1	1
03/07/06	11:43 a	-22.6	-22.6	-22.6	---	---	27.8	E	0.46	35.7	-39.0	---	---	726.1	0.028	0.000	18.1	1	1
03/07/06	11:44 a	-22.6	-22.6	-22.6	---	---	26.1	E	0.43	31.3	-38.6	---	---	725.9	0.028	0.000	18.1	1	1
03/07/06	11:45 a	-22.6	-22.6	-22.6	---	---	33.9	E	0.57	40.9	-40.2	---	---	725.4	0.028	0.000	18.1	1	1
03/07/06	11:46 a	-22.6	-22.6	-22.6	---	---	33.0	E	0.55	37.4	-40.1	---	---	725.8	0.028	0.000	18.1	1	1
03/07/06	11:47 a	-22.6	-22.5	-22.6	---	---	30.4	E	0.51	35.7	-39.5	---	---	725.9	0.028	0.000	18.1	1	1
03/07/06	11:48 a	-22.6	-22.6	-22.6	---	---	28.7	E	0.48	33.0	-39.2	---	---	725.7	0.028	0.000	18.1	1	1
03/07/06	11:49 a	-22.6	-22.6	-22.6	---	---	29.6	E	0.49	34.8	-39.3	---	---	725.8	0.028	0.000	18.1	1	1
03/07/06	11:50 a	-22.6	-22.6	-22.6	---	---	31.3	E	0.52	36.5	-39.7	---	---	725.8	0.028	0.000	18.0	1	1
03/07/06	11:51 a	-22.6	-22.6	-22.6	---	---	33.0	E	0.55	37.4	-40.1	---	---	725.7	0.028	0.000	18.0	1	1
03/07/06	11:52 a	-22.6	-22.5	-22.6	---	---	28.7	E	0.48	33.0	-39.2	---	---	725.7	0.028	0.000	18.0	1	1
03/07/06	11:53 a	-22.6	-22.5	-22.6	---	---	31.3	E	0.52	35.7	-39.7	---	---	725.7	0.028	0.000	18.0	1	1
03/07/06	11:54 a	-22.5	-22.5	-22.6	---	---	31.3	E	0.52	35.7	-39.6	---	---	725.8	0.028	0.000	18.0	1	1
03/07/06	11:55 a	-22.6	-22.5	-22.6	---	---	32.2	E	0.54	40.0	-39.9	---	---	725.9	0.028	0.000	17.9	1	1
03/07/06	11:56 a	-22.6	-22.5	-22.6	---	---	27.0	E	0.45	30.4	-38.8	---	---	725.9	0.028	0.000	17.9	1	1
03/07/06	11:57 a	-22.6	-22.6	-22.6	---	---	34.8	E	0.58	40.0	-40.3	---	---	725.4	0.028	0.000	17.9	1	1
03/07/06	11:58 a	-22.6	-22.6	-22.6	---	---	31.3	E	0.52	37.4	-39.7	---	---	725.7	0.028	0.000	17.9	1	1
03/07/06	11:59 a	-22.6	-22.5	-22.6	---	---	31.3	E	0.52	36.5	-39.7	---	---	725.8	0.028	0.000	17.9	1	1
03/07/06	12:00 p	-22.6	-22.6	-22.6	---	---	29.6	ESE	0.49	35.7	-39.3	---	---	725.6	0.028	0.000	17.9	1	1
03/07/06	12:01 p	-22.6	-22.6	-22.6	---	---	31.3	E	0.52	36.5	-39.7	---	---	725.8	0.028	0.000	17.9	1	1
03/07/06	12:02 p	-22.6	-22.6	-22.6	---	---	29.6	E	0.49	33.9	-39.3	---	---	725.7	0.028	0.000	17.9	1	1
03/07/06	12:03 p	-22.6	-22.6	-22.6	---	---	30.4	E	0.51	38.3	-39.5	---	---	725.5	0.028	0.000	17.9	1	1
03/07/06	12:04 p	-22.6	-22.6	-22.6	---	---	31.3	E	0.52	37.4	-39.7	---	---	725.6	0.028	0.000	17.9	1	1
03/07/06	12:05 p	-22.6	-22.6	-22.6	---	---	33.9	E	0.57	40.0	-40.2	---	---	725.6	0.028	0.000	17.8	1	1
03/07/06	12:06 p	-22.6	-22.6	-22.6	---	---	33.0	E	0.55	37.4	-40.1	---	---	725.7	0.028	0.000	17.8	1	1
03/07/06	12:07 p	-22.6	-22.6	-22.6	---	---	30.4	E	0.51	35.7	-39.5	---	---	725.7	0.028	0.000	17.8	1	1
03/07/06	12:08 p	-22.6	-22.6	-22.6	---	---	32.2	E	0.54	38.3	-39.9	---	---	725.5	0.028	0.000	17.8	1	1
03/07/06	12:09 p	-22.6	-22.6	-22.6	---	---	32.2	E	0.54	39.1	-39.9	---	---	725.7	0.028	0.000	17.8	1	1
03/07/06	12:10 p	-22.6	-22.6	-22.6	---	---	32.2	E	0.54	40.0	-39.9	---	---	725.6	0.028	0.000	17.8	1	1
03/07/06	12:11 p	-22.6	-22.6	-22.6	---	---	31.3	E	0.52	38.3	-39.8	---	---	725.6	0.028	0.000	17.8	1	1
03/07/06	12:12 p	-22.6	-22.6	-22.6	---	---	30.4	E	0.51	39.1	-39.6	---	---	725.7	0.028	0.000	17.9	1	1
03/07/06	12:13 p	-22.6	-22.6	-22.6	---	---	31.3	E	0.52	39.1	-39.8	---	---	725.3	0.028	0.000	17.9	1	1
03/07/06	12:14 p	-22.7	-22.6	-22.7	---	---	37.4	E	0.62	42.6	-41.0	---	---	725.6	0.028	0.000	17.9	1	1
03/07/06	12:15 p	-22.7	-22.6	-22.7	---	---	30.4	E	0.51	38.3	-39.7	---	---	725.9	0.028	0.000	17.9	1	1
03/07/06	12:16 p	-22.7	-22.6	-22.7	---	---	27.8	E	0.46	32.2	-39.1	---	---	725.8	0.028	0.000	17.9	1	1
03/07/06	12:17 p	-22.7	-22.6	-22.7	---	---	32.2	E	0.54	36.5	-40.0	---	---	725.3	0.028	0.000	18.0	1	1
03/07/06	12:18 p	-22.7	-22.7	-22.7	---	---	33.9	E	0.57	40.9	-40.3	---	---	725.5	0.028	0.000	18.0	1	1
03/07/06	12:19 p	-22.7	-22.7	-22.7	---	---	33.9	E	0.57	39.1	-40.3	---	---	725.7	0.028	0.000	18.1	1	1
03/07/06	12:20 p	-22.6	-22.6	-22.7	---	---	30.4	E	0.51	36.5	-39.6	---	---	725.9	0.028	0.000	18.1	1	1
03/07/06	12:21 p	-22.6	-22.6	-22.7	---	---	27.0	E	0.45	33.9	-38.8	---	---	725.9	0.028	0.000	18.1	1	1
03/07/06	12:22 p	-22.7	-22.6	-22.7	---	---	31.3	E	0.52	38.3	-39.8	---	---	725.3	0.028	0.000	18.1	1	1
03/07/06	12:23 p	-22.7	-22.6	-22.7	---	---	37.4	E	0.62	42.6	-41.0	---	---	725.3	0.028	0.000	18.1	1	1
03/07/06	12:24 p	-22.7	-22.6	-22.7	---	---	34.8	E	0.58	40.0	-40.5	---	---	725.8	0.028	0.000	18.1	1	1
03/07/06	12:25 p	-22.7	-22.7	-22.7	---	---	27.8	E	0.46	33.9	-39.1	---	---	726.0	0.028	0.000	18.0	1	1
03/07/06	12:26 p	-22.7	-22.7	-22.7	---	---	27.8	ESE	0.46	35.7	-39.2	---	---	725.8	0.029	0.000	18.0	1	1
03/07/06	12:27 p	-22.7	-22.7	-22.7	---	---	31.3	E	0.52	34.8	-39.9	---	---	725.5	0.029	0.000	18.0	1	1
03/07/06	12:28 p	-22.7	-22.7	-22.7	---	---	29.6	E	0.49	35.7	-39.6	---	---	725.4	0.029	0.000	18.0	1	1
03/07/06	12:29 p	-22.7	-22.7	-22.7	---	---	33.9	E	0.57	37.4	-40.4	---	---	725.8	0.029	0.000	17.9	1	1
03/07/06	12:30 p	-22.7	-22.7	-22.7	---	---	30.4	E	0.51	33.9	-39.7	---	---	725.9	0.028	0.000	17.9	1	1
03/07/06	12:31 p	-22.7	-22.6	-22.7	---	---	28.7	E	0.48	33.9	-39.3	---	---	725.8	0.028	0.000	17.9	1	1
03/07/06	12:32 p	-22.7	-22.7	-22.7	---	---	34.8	E	0.58	40.0	-40.5	---	---	725.4	0.028	0.000	17.9	1	1
03/07/06	12:33 p	-22.7	-22.7	-22.7	---	---	33.0	E	0.55	38.3	-40.2	---	---	725.6	0.028	0.000	17.9	1	1
03/07/06	12:34 p	-22.7	-22.7	-22.7	---	---	33.9	E	0.57	40.9	-40.3	---	---	725.5	0.028	0.000	17.9	1	1
03/07/06	12:35 p	-22.7	-22.7	-22.7	---	---	31.3	E	0.52	39.1	-39.8	---	---	726.1	0.028	0.000	17.9	1	1
03/07/06	12:36 p	-22.7	-22.7	-22.7	---	---	30.4	E	0.51	34.8	-39.8	---	---	725.9	0.029	0.000	17.8	1	1
03/07/06	12:37 p	-22.7	-22.7	-22.7	---	---	29.6	E	0.49	37.4	-39.6	---	---	725.3	0.029	0.000	17.8	1	1
03/07/06	12:38 p	-22.7	-22.7	-22.8	---	---	37.4	E	0.62	42.6	-41.1	---	---	725.6	0.029	0.000	17.8	1	1
03/07/06	12:39 p	-22.8	-22.7	-22.8	---	---	30.4	ESE	0.51	36.5	-39.8	---	---	725.9	0.029	0.000	17.8	1	1
03/07/06	12:40 p	-22.8	-22.8	-22.8	---	---	30.4	E	0.51	35.7	-39.9	---	---	725.6	0.029	0.000	17.8	1	1
03/07/06	12:41 p	-22.8	-22.8	-22.8	---	---	31.3	E	0.52	36.5	-40.1	---	---	725.8	0.029	0.000	17.8	1	1
03/07/06	12:42 p	-22.8	-22.8	-22.8	---	---	27.0	E	0.45	33.9	-39.2	---	---	726.1	0.029	0.000	17.8	1	1
03/07/06	12:43 p	-22.9	-22.8	-22.9	---	---	26.1	E	0.43	33.9	-39.1	---	---	725.8	0.029	0.000	17.8	1	1
03/07/06	12:44 p	-22.9	-22.8	-22.9	---	---	31.3	E	0.52	37.4	-40.2	---	---	725.5	0.029	0.000	17.8	1	1
03/07/06	12:45 p	-22.8	-22.8	-22.8	---	---	34.8	E	0.58	39.1	-40.7	---	---	725.5	0.029	0.000	17.8	1	1
03/07/06	12:46 p	-22.8	-22.8	-22.8	---	---	33.0	E	0.55	38.3	-40.4	---	---	725.9	0.029	0.000	17.8	1	1
03/07/06	12:47 p	-22.8	-22.8	-22.8	---	---	28.7	E	0.48	33.9	-39.4	---	---	725.9	0.029	0.000	17.8	1	1
03/07/06	12:48 p	-22.8	-22.8	-22.8	---	---	29.6	E	0.49	33.9	-39.7	---	---	725.9	0.029	0.000	17.8	1	1
03/07/06	12:49 p	-22.8	-22.8	-22.8	---	---	30.4	E	0.51	37.4	-39.8	---	---	725.8	0.029	0.000	17.9	1	1
03/07/06	12:50 p	-22.8	-22.8	-22.8	---	---	33.9	E	0.57	38.3	-40.5	---	---	725.6	0.029	0.000	17.9	1	1
03/07/06	12:51 p	-22.7	-22.7	-22.7	---	---	30.4	E	0.51	34.8	-39.8	---	---	725.8	0.029	0.000	17.9	1	1
03/07/06	12:52 p	-22.8	-22.7	-22.8	---	---	33.0	E	0.55	38.3	-40.3	---	---	725.5	0.029	0.000	17.9	1	1
03/07/06	12:53 p	-22.8	-22.8	-22.8	---	---	31.3	E	0.52	37.4	-40.0	---	---	725.9	0.029	0.000	17.9	1	1
03/07/06	12:54 p	-22.8	-22.8	-22.8	---	---	29.6	E	0.49	33.9	-39.7	---	---	726.0	0.029	0.000	18.0	1	1
03/07/06	12:55 p	-22.8	-22.8	-22.8	---	---	31.3	E	0.52	37.4	-40.0	---	---	725.6	0.029	0.000	18.0	1	1
03/07/06	12:56 p	-22.8	-22.8	-22.8	---	---	33.9	E	0.57	40.0	-40.5	---	---	725.6	0.029	0.000	18.0	1	1
03/07/06	12:57 p	-22.8	-22.8	-22.9	---	---	31.3	E	0.52	36.5	-40.1	---	---	725.7	0.029	0.000	18.1	1	1
03/07/06	12:58 p	-22.9	-22.8	-22.9	---	---	30.4	E	0.51	34.8	-40.0	---	---	725.8	0.029	0.000	18.1	1	1
03/07/06	12:59 p	-22.9	-22.8	-22.9	---	---	32.2	E	0.54	35.7	-40.3	---	---	725.8	0.029	0.000	18.1	1	1
03/07/06	1:00 p	-22.9	-22.9	-23.0	---	---	28.7	E	0.48	35.7	-39.7	---	---	725.7	0.029	0.000	18.1	1	1
03/07/06	1:01 p	-22.9	-22.9	-22.9	---	---	30.4	E	0.51	36.5	-40.1	---	---	725.8	0.029	0.000	18.1	1	1
03/07/06	1:02 p	-23.0	-23.0	-23.0	---	---	31.3	E	0.52	35.7	-40.3	---	---	725.7	0.029	0.000	18.0	1	1
03/07/06	1:03 p	-23.0	-23.0	-23.0	---	---	32.2	E	0.54	38.3	-40.5	---	---	725.4	0.029	0.000	18.0	1	1
03/07/06	1:04 p	-23.1	-23.0	-23.1	---	---	33.9	E	0.57	41.7	-40.9	---	---	725.7	0.029	0.000	18.0	1	1
03/07/06	1:05 p	-23.1	-23.1	-23.1	---	---	30.4	E	0.51	34.8	-40.2	---	---	726.0	0.029	0.000	18.0	1	1
03/07/06	1:06 p	-23.1	-23.1	-23.1	---	---	27.0	E	0.45	32.2	-39.4	---	---	726.0	0.029	0.000	17.9	1	1
03/07/06	1:07 p	-23.1	-23.1	-23.1	---	---	27.8	E	0.46	31.3	-39.7	---	---	725.8	0.029	0.000	17.9	1	1
03/07/06	1:08 p	-23.1	-23.1	-23.1	---	---	29.6	E	0.49	36.5	-40.1	---	---	725.6	0.029	0.000	17.9	1	1
03/07/06	1:09 p	-23.1	-23.1	-23.1	---	---	33.0	E	0.55	38.3	-40.8	---	---	725.6	0.029	0.000	17.9	1	1
03/07/06	1:10 p	-23.1	-23.1	-23.1	---	---	33.9	E	0.57	38.3	-40.9	---	---	725.7	0.029	0.000	17.9	1	1
03/07/06	1:11 p	-23.1	-23.1	-23.1	---	---	27.8	E	0.46	33.9	-39.7	---	---	726.1	0.029	0.000	17.9	1	1
03/07/06	1:12 p	-23.1	-23.1	-23.1	---	---	23.5	E	0.39	28.7	-38.7	---	---	725.8	0.029	0.000	17.9	1	1
03/07/06	1:13 p	-23.1	-23.1	-23.1	---	---	33.0	E	0.55	38.3	-40.8	---	---	725.4	0.029	0.000	17.9	1	1
03/07/06	1:14 p	-23.1	-23.1	-23.1	---	---	35.7	E	0.59	41.7	-41.3	---	---	725.7	0.029	0.000	17.9	1	1
03/07/06	1:15 p	-23.1	-23.1	-23.1	---	---	31.3	E	0.52	33.9	-40.4	---	---	725.9	0.029	0.000	17.9	1	1
03/07/06	1:16 p	-23.1	-23.0	-23.1	---	---	28.7	E	0.48	33.9	-39.8	---	---	725.9	0.029	0.000	17.9	1	1
03/07/06	1:17 p	-23.1	-23.0	-23.1	---	---	26.1	E	0.43	31.3	-39.3	---	---	725.8	0.029	0.000	17.9	1	1
03/07/06	1:18 p	-23.1	-23.0	-23.1	---	---	30.4	E	0.51	38.3	-40.2	---	---	725.7	0.029	0.000	17.9	1	1
03/07/06	1:19 p	-23.1	-23.0	-23.1	---	---	31.3	ESE	0.52	37.4	-40.4	---	---	725.4	0.029	0.000	17.9	1	1
03/07/06	1:20 p	-23.0	-23.0	-23.1	---	---	37.4	E	0.62	42.6	-41.4	---	---	725.9	0.029	0.000	17.9	1	1
03/07/06	1:21 p	-23.1	-23.1	-23.1	---	---	30.4	E	0.51	33.0	-40.2	---	---	726.0	0.029	0.000	17.9	1	1
03/07/06	1:22 p	-23.1	-23.1	-23.1	---	---	29.6	E	0.49	35.7	-40.1	---	---	726.0	0.029	0.000	17.9	1	1
03/07/06	1:23 p	-23.1	-23.1	-23.1	---	---	26.1	E	0.43	32.2	-39.3	---	---	726.1	0.029	0.000	17.9	1	1
03/07/06	1:24 p	-23.1	-23.0	-23.1	---	---	27.0	E	0.45	33.0	-39.4	---	---	725.9	0.029	0.000	17.8	1	1
03/07/06	1:25 p	-23.1	-23.0	-23.1	---	---	32.2	E	0.54	37.4	-40.6	---	---	725.7	0.029	0.000	17.9	1	1
03/07/06	1:26 p	-23.1	-23.0	-23.1	---	---	33.0	E	0.55	38.3	-40.7	---	---	725.8	0.029	0.000	17.9	1	1
03/07/06	1:27 p	-23.1	-23.1	-23.1	---	---	31.3	E	0.52	35.7	-40.4	---	---	725.8	0.029	0.000	17.9	1	1
03/07/06	1:28 p	-23.1	-23.1	-23.1	---	---	29.6	E	0.49	33.9	-40.1	---	---	726.0	0.029	0.000	17.9	1	1
03/07/06	1:29 p	-23.1	-23.1	-23.1	---	---	29.6	E	0.49	32.2	-40.1	---	---	726.1	0.029	0.000	18.0	1	1
03/07/06	1:30 p	-23.1	-23.1	-23.1	---	---	28.7	E	0.48	33.9	-39.8	---	---	726.0	0.029	0.000	18.0	1	1
03/07/06	1:31 p	-23.1	-23.1	-23.1	---	---	29.6	E	0.49	33.9	-40.1	---	---	725.8	0.029	0.000	18.1	1	1
03/07/06	1:32 p	-23.1	-23.1	-23.1	---	---	30.4	E	0.51	36.5	-40.3	---	---	725.7	0.029	0.000	18.1	1	1
03/07/06	1:33 p	-23.1	-23.1	-23.1	---	---	33.9	E	0.57	40.0	-40.9	---	---	725.7	0.029	0.000	18.1	1	1
03/07/06	1:34 p	-23.1	-23.1	-23.1	---	---	31.3	E	0.52	38.3	-40.4	---	---	726.1	0.029	0.000	18.1	1	1
03/07/06	1:35 p	-23.1	-23.1	-23.2	---	---	29.6	E	0.49	34.8	-40.1	---	---	726.1	0.029	0.000	18.2	1	1
03/07/06	1:36 p	-23.2	-23.1	-23.2	---	---	26.1	E	0.43	33.0	-39.4	---	---	726.3	0.029	0.000	18.2	1	1
03/07/06	1:37 p	-23.1	-23.1	-23.2	---	---	24.3	E	0.41	31.3	-38.9	---	---	726.1	0.029	0.000	18.2	1	1
03/07/06	1:38 p	-23.1	-23.1	-23.2	---	---	34.8	E	0.58	41.7	-41.1	---	---	725.4	0.029	0.000	18.2	1	1
03/07/06	1:39 p	-23.2	-23.2	-23.2	---	---	39.1	ESE	0.65	47.0	-42.1	---	---	725.5	0.029	0.000	18.2	1	1
03/07/06	1:40 p	-23.2	-23.1	-23.2	---	---	35.7	E	0.59	40.9	-41.4	---	---	725.9	0.029	0.000	18.2	1	1
03/07/06	1:41 p	-23.2	-23.2	-23.2	---	---	32.2	E	0.54	35.7	-40.7	---	---	726.1	0.029	0.000	18.2	1	1
03/07/06	1:42 p	-23.1	-23.1	-23.2	---	---	27.8	E	0.46	34.8	-39.7	---	---	726.0	0.029	0.000	18.2	1	1
03/07/06	1:43 p	-23.1	-23.1	-23.1	---	---	31.3	E	0.52	35.7	-40.4	---	---	726.1	0.029	0.000	18.2	1	1
03/07/06	1:44 p	-23.1	-23.1	-23.1	---	---	32.2	E	0.54	39.1	-40.6	---	---	725.8	0.029	0.000	18.2	1	1
03/07/06	1:45 p	-23.1	-23.1	-23.1	---	---	37.4	E	0.62	40.0	-41.5	---	---	725.8	0.029	0.000	18.1	1	1
03/07/06	1:46 p	-23.1	-23.1	-23.1	---	---	36.5	E	0.61	40.9	-41.4	---	---	725.8	0.029	0.000	18.1	1	1
03/07/06	1:47 p	-23.1	-23.0	-23.1	---	---	31.3	E	0.52	35.7	-40.4	---	---	725.8	0.029	0.000	18.1	1	1
03/07/06	1:48 p	-23.0	-23.0	-23.1	---	---	34.8	E	0.58	39.1	-41.0	---	---	725.8	0.029	0.000	18.1	1	1
03/07/06	1:49 p	-23.0	-23.0	-23.0	---	---	33.9	E	0.57	38.3	-40.8	---	---	725.8	0.029	0.000	18.1	1	1
03/07/06	1:50 p	-23.0	-22.9	-23.0	---	---	32.2	E	0.54	37.4	-40.5	---	---	725.8	0.029	0.000	18.0	1	1
03/07/06	1:51 p	-22.9	-22.9	-22.9	---	---	32.2	E	0.54	36.5	-40.4	---	---	725.6	0.029	0.000	18.0	1	1
03/07/06	1:52 p	-22.9	-22.9	-22.9	---	---	33.9	E	0.57	40.0	-40.7	---	---	725.4	0.029	0.000	18.0	1	1
03/07/06	1:53 p	-23.0	-23.0	-23.0	---	---	34.8	E	0.58	39.1	-41.0	---	---	725.6	0.029	0.000	18.0	1	1
03/07/06	1:54 p	-23.0	-22.9	-23.0	---	---	33.9	E	0.57	40.9	-40.8	---	---	726.2	0.029	0.000	18.0	1	1
03/07/06	1:55 p	-23.0	-23.0	-23.0	---	---	27.0	E	0.45	30.4	-39.4	---	---	726.3	0.029	0.000	17.9	1	1
03/07/06	1:56 p	-23.0	-23.0	-23.1	---	---	30.4	E	0.51	40.9	-40.1	---	---	725.6	0.029	0.000	17.9	1	1
03/07/06	1:57 p	-23.1	-23.0	-23.1	---	---	39.1	E	0.65	43.5	-41.8	---	---	725.4	0.029	0.000	17.9	1	1
03/07/06	1:58 p	-23.1	-23.1	-23.1	---	---	36.5	E	0.61	40.9	-41.4	---	---	725.7	0.029	0.000	17.9	1	1
03/07/06	1:59 p	-23.1	-23.0	-23.1	---	---	29.6	E	0.49	33.9	-40.1	---	---	725.9	0.029	0.000	17.9	1	1
03/07/06	2:00 p	-23.0	-23.0	-23.1	---	---	35.7	E	0.59	39.1	-41.1	---	---	725.9	0.029	0.000	17.9	1	1
03/07/06	2:01 p	-23.1	-23.0	-23.1	---	---	29.6	E	0.49	36.5	-40.1	---	---	726.2	0.029	0.000	17.9	1	1
03/07/06	2:02 p	-23.0	-23.0	-23.1	---	---	29.6	ESE	0.49	33.0	-39.9	---	---	726.3	0.029	0.000	17.8	1	1
03/07/06	2:03 p	-23.0	-23.0	-23.1	---	---	28.7	E	0.48	37.4	-39.8	---	---	726.0	0.029	0.000	17.8	1	1
03/07/06	2:04 p	-23.0	-23.0	-23.0	---	---	34.8	E	0.58	40.0	-41.0	---	---	725.8	0.029	0.000	17.8	1	1
03/07/06	2:05 p	-23.1	-23.0	-23.1	---	---	34.8	E	0.58	41.7	-41.1	---	---	725.8	0.029	0.000	17.8	1	1
03/07/06	2:06 p	-23.1	-23.1	-23.1	---	---	36.5	ESE	0.61	42.6	-41.4	---	---	725.5	0.029	0.000	17.8	1	1
03/07/06	2:07 p	-23.1	-23.0	-23.1	---	---	36.5	E	0.61	43.5	-41.4	---	---	725.9	0.029	0.000	17.8	1	1
03/07/06	2:08 p	-23.1	-23.1	-23.1	---	---	33.0	E	0.55	36.5	-40.7	---	---	726.2	0.029	0.000	17.9	1	1
03/07/06	2:09 p	-23.1	-23.1	-23.1	---	---	30.4	E	0.51	36.5	-40.2	---	---	726.1	0.029	0.000	17.9	1	1
03/07/06	2:10 p	-23.1	-23.1	-23.1	---	---	33.0	E	0.55	37.4	-40.7	---	---	725.8	0.029	0.000	17.9	1	1
03/07/06	2:11 p	-23.1	-23.1	-23.1	---	---	33.0	E	0.55	40.0	-40.7	---	---	725.7	0.029	0.000	18.0	1	1
03/07/06	2:12 p	-23.1	-23.1	-23.1	---	---	33.0	E	0.55	39.1	-40.8	---	---	725.8	0.029	0.000	18.0	1	1
03/07/06	2:13 p	-23.1	-23.1	-23.1	---	---	37.4	E	0.62	42.6	-41.6	---	---	725.6	0.029	0.000	18.0	1	1
03/07/06	2:14 p	-23.1	-23.1	-23.1	---	---	38.3	E	0.64	42.6	-41.7	---	---	725.8	0.029	0.000	18.1	1	1
03/07/06	2:15 p	-23.1	-23.1	-23.1	---	---	33.9	E	0.57	38.3	-40.9	---	---	725.8	0.029	0.000	18.1	1	1
03/07/06	2:16 p	-23.1	-23.1	-23.1	---	---	33.9	E	0.57	42.6	-40.9	---	---	726.0	0.029	0.000	18.1	1	1
03/07/06	2:17 p	-23.1	-23.1	-23.1	---	---	28.7	E	0.48	33.9	-39.8	---	---	726.0	0.029	0.000	18.1	1	1
03/07/06	2:18 p	-23.1	-23.1	-23.1	---	---	32.2	E	0.54	40.9	-40.6	---	---	725.7	0.029	0.000	18.1	1	1
03/07/06	2:19 p	-23.1	-23.1	-23.1	---	---	35.7	E	0.59	40.9	-41.2	---	---	725.8	0.029	0.000	18.1	1	1
03/07/06	2:20 p	-23.1	-23.0	-23.1	---	---	35.7	E	0.59	40.0	-41.2	---	---	725.7	0.029	0.000	18.1	1	1
03/07/06	2:21 p	-23.1	-23.0	-23.1	---	---	33.9	ESE	0.57	41.7	-40.9	---	---	726.1	0.029	0.000	18.1	1	1
03/07/06	2:22 p	-23.0	-23.0	-23.1	---	---	29.6	E	0.49	31.3	-39.9	---	---	726.3	0.029	0.000	18.1	1	1
03/07/06	2:23 p	-23.1	-23.0	-23.1	---	---	26.1	E	0.43	30.4	-39.3	---	---	726.2	0.029	0.000	18.1	1	1
03/07/06	2:24 p	-23.1	-23.1	-23.1	---	---	26.1	E	0.43	34.8	-39.3	---	---	726.1	0.029	0.000	18.1	1	1
03/07/06	2:25 p	-23.1	-23.1	-23.1	---	---	31.3	E	0.52	36.5	-40.4	---	---	725.9	0.029	0.000	18.1	1	1
03/07/06	2:26 p	-23.1	-23.1	-23.1	---	---	29.6	E	0.49	33.0	-40.1	---	---	726.0	0.029	0.000	18.1	1	1
03/07/06	2:27 p	-23.1	-23.1	-23.2	---	---	30.4	E	0.51	33.9	-40.3	---	---	726.1	0.029	0.000	18.0	1	1
03/07/06	2:28 p	-23.2	-23.2	-23.2	---	---	32.2	E	0.54	37.4	-40.7	---	---	725.9	0.029	0.000	18.0	1	1
03/07/06	2:29 p	-23.2	-23.2	-23.2	---	---	35.7	E	0.59	39.1	-41.4	---	---	726.1	0.029	0.000	18.0	1	1
03/07/06	2:30 p	-23.2	-23.2	-23.2	---	---	33.9	E	0.57	37.4	-41.1	---	---	726.2	0.029	0.000	17.9	1	1
03/07/06	2:31 p	-23.2	-23.2	-23.3	---	---	32.2	E	0.54	36.5	-40.8	---	---	726.0	0.029	0.000	17.9	1	1
03/07/06	2:32 p	-23.3	-23.3	-23.3	---	---	34.8	ESE	0.58	40.0	-41.4	---	---	725.9	0.029	0.000	17.9	1	1
03/07/06	2:33 p	-23.3	-23.3	-23.3	---	---	32.2	E	0.54	35.7	-40.9	---	---	726.1	0.029	0.000	17.9	1	1
03/07/06	2:34 p	-23.3	-23.3	-23.3	---	---	32.2	E	0.54	36.5	-40.9	---	---	726.1	0.029	0.000	17.9	1	1
03/07/06	2:35 p	-23.3	-23.3	-23.3	---	---	32.2	E	0.54	37.4	-40.9	---	---	726.1	0.029	0.000	17.9	1	1
03/07/06	2:36 p	-23.3	-23.3	-23.3	---	---	34.8	E	0.58	38.3	-41.4	---	---	725.9	0.029	0.000	17.9	1	1
03/07/06	2:37 p	-23.3	-23.3	-23.4	---	---	33.9	E	0.57	38.3	-41.3	---	---	726.0	0.029	0.000	17.9	1	1
03/07/06	2:38 p	-23.4	-23.3	-23.4	---	---	30.4	E	0.51	33.9	-40.7	---	---	726.0	0.029	0.000	17.8	1	1
03/07/06	2:39 p	-23.4	-23.3	-23.4	---	---	31.3	E	0.52	37.4	-40.8	---	---	725.9	0.029	0.000	17.8	1	1
03/07/06	2:40 p	-23.4	-23.3	-23.4	---	---	28.7	E	0.48	34.8	-40.3	---	---	726.0	0.029	0.000	17.8	1	1
03/07/06	2:41 p	-23.4	-23.3	-23.4	---	---	33.9	E	0.57	38.3	-41.3	---	---	725.9	0.029	0.000	17.8	1	1
03/07/06	2:42 p	-23.4	-23.4	-23.4	---	---	33.9	E	0.57	39.1	-41.3	---	---	725.9	0.029	0.000	17.8	1	1
03/07/06	2:43 p	-23.4	-23.4	-23.4	---	---	30.4	E	0.51	38.3	-40.7	---	---	726.1	0.029	0.000	17.8	1	1
03/07/06	2:44 p	-23.4	-23.4	-23.4	---	---	27.8	E	0.46	31.3	-40.2	---	---	726.1	0.029	0.000	17.8	1	1
03/07/06	2:45 p	-23.4	-23.4	-23.4	---	---	31.3	E	0.52	35.7	-40.9	---	---	725.8	0.029	0.000	17.8	1	1
03/07/06	2:46 p	-23.4	-23.4	-23.4	---	---	32.2	E	0.54	37.4	-41.1	---	---	726.0	0.029	0.000	17.8	1	1
03/07/06	2:47 p	-23.4	-23.4	-23.4	---	---	32.2	E	0.54	36.5	-41.0	---	---	726.2	0.029	0.000	17.9	1	1
03/07/06	2:48 p	-23.4	-23.3	-23.4	---	---	27.8	E	0.46	33.0	-40.1	---	---	726.3	0.029	0.000	17.9	1	1
03/07/06	2:49 p	-23.4	-23.4	-23.4	---	---	26.1	E	0.43	31.3	-39.7	---	---	726.2	0.029	0.000	17.9	1	1
03/07/06	2:50 p	-23.4	-23.4	-23.4	---	---	28.7	E	0.48	34.8	-40.4	---	---	725.9	0.029	0.000	17.9	1	1
03/07/06	2:51 p	-23.4	-23.4	-23.4	---	---	31.3	E	0.52	39.1	-40.8	---	---	725.9	0.029	0.000	18.0	1	1
03/07/06	2:52 p	-23.4	-23.4	-23.4	---	---	31.3	E	0.52	35.7	-40.9	---	---	726.0	0.029	0.000	18.0	1	1
03/07/06	2:53 p	-23.4	-23.4	-23.4	---	---	32.2	E	0.54	38.3	-41.1	---	---	725.9	0.029	0.000	18.0	1	1
03/07/06	2:54 p	-23.4	-23.4	-23.4	---	---	33.0	E	0.55	37.4	-41.2	---	---	725.9	0.029	0.000	18.0	1	1
03/07/06	2:55 p	-23.4	-23.4	-23.4	---	---	33.9	E	0.57	40.0	-41.4	---	---	726.2	0.029	0.000	18.0	1	1
03/07/06	2:56 p	-23.4	-23.4	-23.4	---	---	28.7	E	0.48	34.8	-40.4	---	---	726.4	0.029	0.000	18.0	1	1
03/07/06	2:57 p	-23.4	-23.4	-23.4	---	---	28.7	E	0.48	36.5	-40.3	---	---	726.1	0.029	0.000	18.0	1	1
03/07/06	2:58 p	-23.4	-23.4	-23.4	---	---	30.4	E	0.51	35.7	-40.7	---	---	726.0	0.029	0.000	17.9	1	1
03/07/06	2:59 p	-23.4	-23.4	-23.4	---	---	29.6	E	0.49	33.9	-40.5	---	---	726.0	0.029	0.000	17.9	1	1
03/07/06	3:00 p	-23.4	-23.3	-23.4	---	---	33.9	E	0.57	39.1	-41.3	---	---	726.0	0.029	0.000	17.9	1	1
03/07/06	3:01 p	-23.3	-23.3	-23.3	---	---	32.2	E	0.54	36.5	-40.9	---	---	726.0	0.029	0.000	17.9	1	1
03/07/06	3:02 p	-23.3	-23.3	-23.3	---	---	33.0	E	0.55	39.1	-41.1	---	---	725.9	0.029	0.000	17.9	1	1
03/07/06	3:03 p	-23.3	-23.3	-23.3	---	---	33.9	E	0.57	40.0	-41.2	---	---	725.9	0.029	0.000	17.9	1	1
03/07/06	3:04 p	-23.3	-23.2	-23.3	---	---	33.0	E	0.55	36.5	-41.1	---	---	726.1	0.029	0.000	17.9	1	1
03/07/06	3:05 p	-23.3	-23.2	-23.3	---	---	27.8	E	0.46	33.0	-39.9	---	---	726.4	0.029	0.000	17.8	1	1
03/07/06	3:06 p	-23.3	-23.2	-23.3	---	---	29.6	E	0.49	33.0	-40.3	---	---	726.1	0.029	0.000	17.8	1	1
03/07/06	3:07 p	-23.3	-23.3	-23.3	---	---	32.2	E	0.54	37.4	-40.9	---	---	725.7	0.029	0.000	17.8	1	1
03/07/06	3:08 p	-23.3	-23.3	-23.3	---	---	32.2	E	0.54	38.3	-40.9	---	---	726.0	0.029	0.000	17.8	1	1
03/07/06	3:09 p	-23.3	-23.3	-23.3	---	---	30.4	E	0.51	34.8	-40.5	---	---	726.3	0.029	0.000	17.8	1	1
03/07/06	3:10 p	-23.3	-23.3	-23.3	---	---	27.8	E	0.46	33.9	-39.9	---	---	726.5	0.029	0.000	17.8	1	1
03/07/06	3:11 p	-23.3	-23.3	-23.3	---	---	26.1	E	0.43	29.6	-39.6	---	---	726.3	0.029	0.000	17.8	1	1
03/07/06	3:12 p	-23.3	-23.3	-23.3	---	---	31.3	E	0.52	40.9	-40.8	---	---	725.6	0.029	0.000	17.8	1	1
03/07/06	3:13 p	-23.3	-23.3	-23.3	---	---	34.8	E	0.58	40.0	-41.4	---	---	725.7	0.029	0.000	17.8	1	1
03/07/06	3:14 p	-23.3	-23.3	-23.3	---	---	33.0	E	0.55	40.9	-41.1	---	---	726.0	0.029	0.000	17.7	1	1
03/07/06	3:15 p	-23.3	-23.3	-23.3	---	---	30.4	E	0.51	34.8	-40.5	---	---	726.2	0.029	0.000	17.7	1	1
03/07/06	3:16 p	-23.3	-23.3	-23.3	---	---	32.2	E	0.54	37.4	-40.9	---	---	726.1	0.029	0.000	17.7	1	1
03/07/06	3:17 p	-23.3	-23.3	-23.4	---	---	33.9	E	0.57	38.3	-41.3	---	---	725.8	0.029	0.000	17.8	1	1
03/07/06	3:18 p	-23.4	-23.4	-23.4	---	---	35.7	E	0.59	41.7	-41.7	---	---	725.9	0.029	0.000	17.8	1	1
03/07/06	3:19 p	-23.4	-23.4	-23.4	---	---	33.0	E	0.55	38.3	-41.2	---	---	726.2	0.029	0.000	17.8	1	1
03/07/06	3:20 p	-23.4	-23.4	-23.4	---	---	28.7	E	0.48	33.0	-40.4	---	---	726.3	0.029	0.000	17.8	1	1
03/07/06	3:21 p	-23.4	-23.4	-23.5	---	---	28.7	E	0.48	33.9	-40.4	---	---	726.0	0.029	0.000	17.9	1	1
03/07/06	3:22 p	-23.5	-23.4	-23.5	---	---	31.3	E	0.52	36.5	-41.0	---	---	725.8	0.029	0.000	17.9	1	1
03/07/06	3:23 p	-23.5	-23.5	-23.6	---	---	33.9	E	0.57	39.1	-41.5	---	---	725.7	0.029	0.000	17.9	1	1
03/07/06	3:24 p	-23.6	-23.6	-23.6	---	---	34.8	E	0.58	38.3	-41.8	---	---	725.8	0.029	0.000	17.9	1	1
03/07/06	3:25 p	-23.6	-23.6	-23.6	---	---	33.9	E	0.57	37.4	-41.6	---	---	726.0	0.029	0.000	17.9	1	1
03/07/06	3:26 p	-23.6	-23.5	-23.6	---	---	30.4	E	0.51	35.7	-40.9	---	---	726.4	0.029	0.000	18.0	1	1
03/07/06	3:27 p	-23.6	-23.5	-23.6	---	---	28.7	E	0.48	32.2	-40.6	---	---	726.2	0.029	0.000	18.0	1	1
03/07/06	3:28 p	-23.6	-23.5	-23.6	---	---	31.3	E	0.52	36.5	-41.1	---	---	725.9	0.029	0.000	18.0	1	1
03/07/06	3:29 p	-23.5	-23.5	-23.6	---	---	34.8	E	0.58	42.6	-41.7	---	---	725.3	0.029	0.000	18.1	1	1
03/07/06	3:30 p	-23.5	-23.5	-23.5	---	---	39.1	E	0.65	43.5	-42.4	---	---	725.7	0.029	0.000	18.1	1	1
03/07/06	3:31 p	-23.5	-23.5	-23.5	---	---	33.0	ESE	0.55	39.1	-41.3	---	---	726.2	0.029	0.000	18.1	1	1
03/07/06	3:32 p	-23.5	-23.5	-23.5	---	---	29.6	E	0.49	34.8	-40.7	---	---	726.4	0.029	0.000	18.1	1	1
03/07/06	3:33 p	-23.5	-23.5	-23.5	---	---	29.6	E	0.49	34.8	-40.7	---	---	726.3	0.029	0.000	18.1	1	1
03/07/06	3:34 p	-23.6	-23.5	-23.6	---	---	28.7	E	0.48	34.8	-40.6	---	---	726.3	0.029	0.000	18.0	1	1
03/07/06	3:35 p	-23.6	-23.5	-23.6	---	---	32.2	E	0.54	40.9	-41.3	---	---	725.8	0.029	0.000	18.0	1	1
03/07/06	3:36 p	-23.6	-23.6	-23.6	---	---	35.7	E	0.59	39.1	-41.9	---	---	725.8	0.029	0.000	18.0	1	1
03/07/06	3:37 p	-23.6	-23.6	-23.6	---	---	36.5	E	0.61	40.9	-42.2	---	---	725.8	0.029	0.000	17.9	1	1
03/07/06	3:38 p	-23.6	-23.6	-23.6	---	---	34.8	E	0.58	40.0	-41.8	---	---	725.9	0.029	0.000	17.9	1	1
03/07/06	3:39 p	-23.6	-23.6	-23.6	---	---	33.0	E	0.55	36.5	-41.5	---	---	726.1	0.029	0.000	17.9	1	1
03/07/06	3:40 p	-23.6	-23.6	-23.7	---	---	32.2	E	0.54	35.7	-41.3	---	---	726.2	0.029	0.000	17.9	1	1
03/07/06	3:41 p	-23.7	-23.6	-23.7	---	---	30.4	E	0.51	33.9	-41.1	---	---	725.9	0.029	0.000	17.9	1	1
03/07/06	3:42 p	-23.7	-23.6	-23.7	---	---	36.5	E	0.61	44.3	-42.2	---	---	725.6	0.029	0.000	17.9	1	1
03/07/06	3:43 p	-23.7	-23.7	-23.7	---	---	39.1	E	0.65	43.5	-42.7	---	---	725.7	0.029	0.000	17.9	1	1
03/07/06	3:44 p	-23.7	-23.7	-23.7	---	---	34.8	E	0.58	40.0	-42.0	---	---	725.9	0.029	0.000	17.8	1	1
03/07/06	3:45 p	-23.7	-23.7	-23.7	---	---	35.7	E	0.59	40.0	-42.1	---	---	726.0	0.029	0.000	17.8	1	1
03/07/06	3:46 p	-23.7	-23.7	-23.7	---	---	33.9	E	0.57	40.9	-41.7	---	---	726.1	0.029	0.000	17.8	1	1
03/07/06	3:47 p	-23.7	-23.7	-23.7	---	---	33.9	E	0.57	37.4	-41.7	---	---	726.1	0.029	0.000	17.8	1	1
03/07/06	3:48 p	-23.7	-23.7	-23.7	---	---	31.3	E	0.52	34.8	-41.3	---	---	726.2	0.029	0.000	17.8	1	1
03/07/06	3:49 p	-23.7	-23.7	-23.7	---	---	31.3	E	0.52	37.4	-41.2	---	---	726.0	0.029	0.000	17.8	1	1
03/07/06	3:50 p	-23.7	-23.7	-23.7	---	---	33.0	E	0.55	39.1	-41.6	---	---	725.7	0.029	0.000	17.8	1	1
03/07/06	3:51 p	-23.7	-23.7	-23.7	---	---	39.1	E	0.65	46.1	-42.8	---	---	725.3	0.029	0.000	17.8	1	1
03/07/06	3:52 p	-23.7	-23.7	-23.7	---	---	36.5	E	0.61	45.2	-42.3	---	---	726.1	0.029	0.000	17.7	1	1
03/07/06	3:53 p	-23.7	-23.7	-23.7	---	---	32.2	E	0.54	37.4	-41.5	---	---	726.2	0.029	0.000	17.7	1	1
03/07/06	3:54 p	-23.7	-23.7	-23.7	---	---	30.4	E	0.51	36.5	-41.1	---	---	726.6	0.029	0.000	17.7	1	1
03/07/06	3:55 p	-23.7	-23.7	-23.7	---	---	27.0	E	0.45	33.0	-40.4	---	---	726.3	0.029	0.000	17.8	1	1
03/07/06	3:56 p	-23.7	-23.6	-23.7	---	---	33.9	E	0.57	38.3	-41.7	---	---	725.8	0.029	0.000	17.8	1	1
03/07/06	3:57 p	-23.7	-23.6	-23.7	---	---	39.1	E	0.65	47.8	-42.7	---	---	725.6	0.029	0.000	17.8	1	1
03/07/06	3:58 p	-23.7	-23.6	-23.7	---	---	35.7	E	0.59	42.6	-42.1	---	---	726.1	0.029	0.000	17.8	1	1
03/07/06	3:59 p	-23.6	-23.6	-23.7	---	---	33.0	E	0.55	39.1	-41.5	---	---	726.2	0.029	0.000	17.9	1	1
03/07/06	4:00 p	-23.6	-23.6	-23.6	---	---	33.0	E	0.55	40.0	-41.5	---	---	726.3	0.029	0.000	17.9	1	1
03/07/06	4:01 p	-23.6	-23.6	-23.6	---	---	33.0	E	0.55	37.4	-41.5	---	---	726.2	0.029	0.000	17.9	1	1
03/07/06	4:02 p	-23.6	-23.6	-23.6	---	---	33.0	E	0.55	38.3	-41.5	---	---	726.3	0.029	0.000	17.9	1	1
03/07/06	4:03 p	-23.6	-23.6	-23.6	---	---	29.6	E	0.49	36.5	-40.8	---	---	726.3	0.029	0.000	17.9	1	1
03/07/06	4:04 p	-23.6	-23.6	-23.6	---	---	31.3	E	0.52	36.5	-41.1	---	---	725.9	0.029	0.000	18.0	1	1
03/07/06	4:05 p	-23.6	-23.6	-23.6	---	---	33.0	E	0.55	40.9	-41.4	---	---	725.8	0.029	0.000	18.0	1	1
03/07/06	4:06 p	-23.6	-23.6	-23.6	---	---	38.3	E	0.64	44.3	-42.4	---	---	725.7	0.029	0.000	18.0	1	1
03/07/06	4:07 p	-23.6	-23.6	-23.6	---	---	38.3	E	0.64	44.3	-42.4	---	---	725.8	0.029	0.000	18.0	1	1
03/07/06	4:08 p	-23.6	-23.6	-23.6	---	---	35.7	E	0.59	44.3	-42.0	---	---	725.6	0.029	0.000	18.0	1	1
03/07/06	4:09 p	-23.7	-23.6	-23.7	---	---	37.4	E	0.62	44.3	-42.4	---	---	725.9	0.029	0.000	18.0	1	1
03/07/06	4:10 p	-23.7	-23.7	-23.7	---	---	36.5	E	0.61	40.0	-42.2	---	---	726.0	0.029	0.000	17.9	1	1
03/07/06	4:11 p	-23.7	-23.7	-23.7	---	---	33.0	E	0.55	37.4	-41.6	---	---	726.2	0.029	0.000	17.9	1	1
03/07/06	4:12 p	-23.7	-23.7	-23.7	---	---	31.3	E	0.52	34.8	-41.2	---	---	726.1	0.029	0.000	17.9	1	1
03/07/06	4:13 p	-23.7	-23.7	-23.7	---	---	33.0	E	0.55	40.0	-41.6	---	---	725.9	0.029	0.000	17.9	1	1
03/07/06	4:14 p	-23.7	-23.7	-23.7	---	---	37.4	E	0.62	42.6	-42.4	---	---	725.6	0.029	0.000	17.9	1	1
03/07/06	4:15 p	-23.7	-23.7	-23.7	---	---	36.5	E	0.61	41.7	-42.3	---	---	726.0	0.029	0.000	17.9	1	1
03/07/06	4:16 p	-23.7	-23.7	-23.7	---	---	36.5	E	0.61	40.9	-42.3	---	---	725.8	0.029	0.000	17.9	1	1
03/07/06	4:17 p	-23.7	-23.7	-23.8	---	---	35.7	E	0.59	42.6	-42.2	---	---	726.0	0.029	0.000	17.8	1	1
03/07/06	4:18 p	-23.7	-23.7	-23.7	---	---	28.7	E	0.48	31.3	-40.8	---	---	726.2	0.029	0.000	17.8	1	1
03/07/06	4:19 p	-23.8	-23.7	-23.8	---	---	30.4	E	0.51	38.3	-41.2	---	---	726.1	0.029	0.000	17.8	1	1
03/07/06	4:20 p	-23.7	-23.7	-23.7	---	---	33.0	E	0.55	38.3	-41.7	---	---	725.8	0.029	0.000	17.8	1	1
03/07/06	4:21 p	-23.7	-23.7	-23.8	---	---	34.8	E	0.58	42.6	-42.0	---	---	725.8	0.029	0.000	17.8	1	1
03/07/06	4:22 p	-23.8	-23.7	-23.8	---	---	33.0	E	0.55	38.3	-41.7	---	---	725.9	0.029	0.000	17.8	1	1
03/07/06	4:23 p	-23.8	-23.7	-23.8	---	---	34.8	E	0.58	40.9	-42.1	---	---	725.7	0.029	0.000	17.8	1	1
03/07/06	4:24 p	-23.7	-23.7	-23.8	---	---	34.8	E	0.58	40.0	-42.0	---	---	725.8	0.029	0.000	17.8	1	1
03/07/06	4:25 p	-23.8	-23.7	-23.8	---	---	34.8	E	0.58	40.9	-42.1	---	---	725.7	0.029	0.000	17.8	1	1
03/07/06	4:26 p	-23.8	-23.8	-23.8	---	---	38.3	E	0.64	43.5	-42.8	---	---	725.7	0.029	0.000	17.7	1	1
03/07/06	4:27 p	-23.8	-23.8	-23.9	---	---	39.1	E	0.65	44.3	-42.9	---	---	725.9	0.029	0.000	17.7	1	1
03/07/06	4:28 p	-23.9	-23.9	-23.9	---	---	33.9	E	0.57	38.3	-42.1	---	---	726.1	0.029	0.000	17.7	1	1
03/07/06	4:29 p	-23.9	-23.9	-23.9	---	---	32.2	E	0.54	36.5	-41.7	---	---	725.9	0.029	0.000	17.7	1	1
03/07/06	4:30 p	-23.9	-23.9	-23.9	---	---	33.9	E	0.57	39.1	-42.1	---	---	725.8	0.029	0.000	17.7	1	1
03/07/06	4:31 p	-23.9	-23.9	-23.9	---	---	35.7	E	0.59	40.0	-42.4	---	---	725.8	0.029	0.000	17.8	1	1
03/07/06	4:32 p	-23.9	-23.9	-23.9	---	---	31.3	E	0.52	40.9	-41.6	---	---	726.0	0.029	0.000	17.8	1	1
03/07/06	4:33 p	-23.9	-23.9	-23.9	---	---	33.0	E	0.55	39.1	-41.9	---	---	726.1	0.029	0.000	17.8	1	1
03/07/06	4:34 p	-23.9	-23.9	-23.9	---	---	32.2	E	0.54	36.5	-41.7	---	---	726.1	0.029	0.000	17.8	1	1
03/07/06	4:35 p	-23.8	-23.8	-23.8	---	---	33.9	E	0.57	39.1	-42.0	---	---	726.0	0.029	0.000	17.8	1	1
03/07/06	4:36 p	-23.8	-23.8	-23.8	---	---	30.4	E	0.51	35.7	-41.3	---	---	725.8	0.029	0.000	17.9	1	1
03/07/06	4:37 p	-23.8	-23.8	-23.8	---	---	33.9	E	0.57	39.1	-42.0	---	---	725.7	0.029	0.000	17.9	1	1
03/07/06	4:38 p	-23.9	-23.8	-23.9	---	---	34.8	E	0.58	40.0	-42.2	---	---	725.8	0.029	0.000	17.9	1	1
03/07/06	4:39 p	-23.9	-23.8	-23.9	---	---	33.9	E	0.57	38.3	-42.1	---	---	725.7	0.029	0.000	17.9	1	1
03/07/06	4:40 p	-23.9	-23.9	-23.9	---	---	34.8	E	0.58	39.1	-42.2	---	---	725.9	0.029	0.000	17.9	1	1
03/07/06	4:41 p	-23.9	-23.9	-23.9	---	---	33.0	E	0.55	38.3	-41.9	---	---	725.7	0.029	0.000	18.0	1	1
03/07/06	4:42 p	-23.9	-23.9	-23.9	---	---	36.5	E	0.61	41.7	-42.6	---	---	726.1	0.029	0.000	18.0	1	1
03/07/06	4:43 p	-23.9	-23.9	-23.9	---	---	28.7	E	0.48	33.9	-41.1	---	---	726.2	0.029	0.000	18.0	1	1
03/07/06	4:44 p	-23.9	-23.9	-23.9	---	---	32.2	E	0.54	38.3	-41.8	---	---	725.7	0.029	0.000	18.0	1	1
03/07/06	4:45 p	-23.9	-23.9	-23.9	---	---	36.5	E	0.61	44.3	-42.6	---	---	725.8	0.029	0.000	18.0	1	1
03/07/06	4:46 p	-23.9	-23.9	-24.0	---	---	36.5	E	0.61	40.0	-42.6	---	---	725.8	0.029	0.000	18.0	1	1
03/07/06	4:47 p	-23.9	-23.9	-24.0	---	---	34.8	E	0.58	41.7	-42.3	---	---	725.7	0.029	0.000	18.0	1	1
03/07/06	4:48 p	-23.9	-23.9	-24.0	---	---	38.3	E	0.64	44.3	-42.9	---	---	726.2	0.029	0.000	18.0	1	1
03/07/06	4:49 p	-23.9	-23.9	-24.0	---	---	31.3	E	0.52	34.8	-41.6	---	---	725.9	0.029	0.000	17.9	1	1
03/07/06	4:50 p	-24.0	-23.9	-24.0	---	---	37.4	E	0.62	41.7	-42.8	---	---	725.9	0.029	0.000	17.9	1	1
03/07/06	4:51 p	-24.0	-23.9	-24.0	---	---	35.7	E	0.59	44.3	-42.6	---	---	726.3	0.029	0.000	17.9	1	1
03/07/06	4:52 p	-24.0	-23.9	-24.0	---	---	31.3	E	0.52	36.5	-41.7	---	---	726.2	0.029	0.000	17.9	1	1
03/07/06	4:53 p	-24.0	-23.9	-24.0	---	---	32.2	E	0.54	36.5	-41.9	---	---	726.0	0.029	0.000	17.9	1	1
03/07/06	4:54 p	-24.0	-24.0	-24.1	---	---	33.9	E	0.57	39.1	-42.2	---	---	725.5	0.029	0.000	17.9	1	1
03/07/06	4:55 p	-24.1	-24.0	-24.1	---	---	40.0	E	0.67	43.5	-43.4	---	---	725.6	0.029	0.000	17.8	1	1
03/07/06	4:56 p	-24.1	-24.0	-24.1	---	---	34.8	E	0.58	40.9	-42.4	---	---	726.6	0.029	0.000	17.8	1	1
03/07/06	4:57 p	-24.1	-24.1	-24.1	---	---	29.6	E	0.49	34.8	-41.4	---	---	726.6	0.029	0.000	17.8	1	1
03/07/06	4:58 p	-24.1	-24.1	-24.1	---	---	31.3	E	0.52	37.4	-41.8	---	---	726.1	0.029	0.000	17.8	1	1
03/07/06	4:59 p	-24.1	-24.1	-24.1	---	---	33.9	E	0.57	40.9	-42.3	---	---	726.0	0.029	0.000	17.8	1	1
03/07/06	5:00 p	-24.1	-24.1	-24.1	---	---	33.9	E	0.57	40.9	-42.3	---	---	726.1	0.029	0.000	17.8	1	1
03/07/06	5:01 p	-24.1	-24.1	-24.1	---	---	35.7	E	0.59	39.1	-42.7	---	---	726.1	0.029	0.000	17.8	1	1
03/07/06	5:02 p	-24.1	-24.1	-24.1	---	---	30.4	E	0.51	36.5	-41.7	---	---	726.3	0.029	0.000	17.7	1	1
03/07/06	5:03 p	-24.1	-24.1	-24.1	---	---	31.3	E	0.52	38.3	-41.8	---	---	726.1	0.029	0.000	17.7	1	1
03/07/06	5:04 p	-24.1	-24.1	-24.1	---	---	32.2	E	0.54	40.0	-42.0	---	---	726.1	0.029	0.000	17.7	1	1
03/07/06	5:05 p	-24.1	-24.1	-24.1	---	---	33.9	E	0.57	38.3	-42.3	---	---	726.1	0.029	0.000	17.7	1	1
03/07/06	5:06 p	-24.1	-24.1	-24.1	---	---	33.9	E	0.57	37.4	-42.3	---	---	726.0	0.029	0.000	17.7	1	1
03/07/06	5:07 p	-24.0	-24.0	-24.1	---	---	35.7	E	0.59	40.9	-42.6	---	---	725.9	0.029	0.000	17.8	1	1
03/07/06	5:08 p	-24.0	-24.0	-24.1	---	---	36.5	E	0.61	42.6	-42.7	---	---	726.2	0.029	0.000	17.8	1	1
03/07/06	5:09 p	-24.0	-24.0	-24.1	---	---	33.9	E	0.57	37.4	-42.2	---	---	726.3	0.029	0.000	17.8	1	1
03/07/06	5:10 p	-24.0	-24.0	-24.0	---	---	33.0	E	0.55	36.5	-42.1	---	---	726.1	0.029	0.000	17.8	1	1
03/07/06	5:11 p	-24.1	-24.0	-24.1	---	---	34.8	E	0.58	39.1	-42.4	---	---	726.1	0.029	0.000	17.8	1	1
03/07/06	5:12 p	-24.1	-24.0	-24.1	---	---	34.8	E	0.58	40.0	-42.4	---	---	726.1	0.029	0.000	17.8	1	1
03/07/06	5:13 p	-24.1	-24.0	-24.1	---	---	33.0	E	0.55	39.1	-42.1	---	---	726.1	0.029	0.000	17.9	1	1
03/07/06	5:14 p	-24.1	-24.0	-24.1	---	---	33.9	E	0.57	38.3	-42.3	---	---	726.0	0.029	0.000	17.9	1	1
03/07/06	5:15 p	-24.1	-24.0	-24.1	---	---	35.7	E	0.59	39.1	-42.6	---	---	726.0	0.029	0.000	17.9	1	1
03/07/06	5:16 p	-24.1	-24.1	-24.1	---	---	33.0	E	0.55	39.1	-42.1	---	---	726.1	0.029	0.000	17.9	1	1
03/07/06	5:17 p	-24.1	-24.1	-24.1	---	---	32.2	E	0.54	36.5	-41.9	---	---	726.4	0.029	0.000	17.9	1	1
03/07/06	5:18 p	-24.1	-24.1	-24.1	---	---	33.9	E	0.57	37.4	-42.3	---	---	726.2	0.029	0.000	18.0	1	1
03/07/06	5:19 p	-24.1	-24.1	-24.1	---	---	32.2	E	0.54	36.5	-41.9	---	---	726.1	0.029	0.000	18.0	1	1
03/07/06	5:20 p	-24.1	-24.1	-24.1	---	---	35.7	E	0.59	38.3	-42.7	---	---	725.9	0.029	0.000	18.0	1	1
03/07/06	5:21 p	-24.1	-24.1	-24.1	---	---	35.7	E	0.59	43.5	-42.7	---	---	725.7	0.029	0.000	18.0	1	1
03/07/06	5:22 p	-24.1	-24.1	-24.1	---	---	36.5	E	0.61	42.6	-42.8	---	---	726.1	0.029	0.000	18.1	1	1
03/07/06	5:23 p	-24.1	-24.1	-24.1	---	---	36.5	E	0.61	41.7	-42.8	---	---	726.0	0.029	0.000	18.1	1	1
03/07/06	5:24 p	-24.1	-24.1	-24.1	---	---	34.8	E	0.58	39.1	-42.4	---	---	726.3	0.029	0.000	18.1	1	1
03/07/06	5:25 p	-24.1	-24.1	-24.1	---	---	29.6	E	0.49	33.0	-41.4	---	---	726.4	0.029	0.000	18.1	1	1
03/07/06	5:26 p	-24.0	-24.0	-24.0	---	---	32.2	E	0.54	39.1	-41.9	---	---	726.1	0.029	0.000	18.1	1	1
03/07/06	5:27 p	-24.0	-24.0	-24.1	---	---	33.0	E	0.55	39.1	-42.1	---	---	726.1	0.029	0.000	18.1	1	1
03/07/06	5:28 p	-24.0	-24.0	-24.1	---	---	33.9	E	0.57	39.1	-42.2	---	---	726.2	0.029	0.000	18.1	1	1
03/07/06	5:29 p	-24.0	-24.0	-24.0	---	---	34.8	E	0.58	40.0	-42.4	---	---	726.1	0.029	0.000	18.1	1	1
03/07/06	5:30 p	-23.9	-23.9	-24.0	---	---	34.8	E	0.58	40.0	-42.3	---	---	726.0	0.029	0.000	18.1	1	1
03/07/06	5:31 p	-24.0	-24.0	-24.1	---	---	36.5	E	0.61	40.9	-42.7	---	---	725.9	0.029	0.000	18.1	1	1
03/07/06	5:32 p	-24.1	-24.1	-24.1	---	---	36.5	E	0.61	40.9	-42.8	---	---	725.9	0.029	0.000	18.1	1	1
03/07/06	5:33 p	-24.1	-24.1	-24.1	---	---	38.3	E	0.64	44.3	-43.1	---	---	726.0	0.029	0.000	18.1	1	1
03/07/06	5:34 p	-24.1	-24.1	-24.1	---	---	40.0	E	0.67	43.5	-43.4	---	---	726.2	0.029	0.000	18.1	1	1
03/07/06	5:35 p	-24.1	-24.1	-24.1	---	---	34.8	E	0.58	40.0	-42.5	---	---	726.3	0.029	0.000	18.1	1	1
03/07/06	5:36 p	-24.1	-24.1	-24.1	---	---	34.8	E	0.58	45.2	-42.5	---	---	725.9	0.029	0.000	18.0	1	1
03/07/06	5:37 p	-24.1	-24.1	-24.1	---	---	39.1	E	0.65	44.3	-43.3	---	---	725.6	0.029	0.000	18.0	1	1
03/07/06	5:38 p	-24.1	-24.1	-24.1	---	---	36.5	E	0.61	41.7	-42.8	---	---	725.8	0.029	0.000	17.9	1	1
03/07/06	5:39 p	-24.1	-24.1	-24.1	---	---	33.9	E	0.57	39.1	-42.3	---	---	726.2	0.029	0.000	17.9	1	1
03/07/06	5:40 p	-24.1	-24.1	-24.1	---	---	32.2	ESE	0.54	37.4	-42.0	---	---	726.4	0.029	0.000	17.9	1	1
03/07/06	5:41 p	-24.1	-24.1	-24.1	---	---	32.2	E	0.54	38.3	-42.0	---	---	726.3	0.029	0.000	17.9	1	1
03/07/06	5:42 p	-24.1	-24.1	-24.1	---	---	33.0	E	0.55	37.4	-42.2	---	---	726.3	0.029	0.000	17.9	1	1
03/07/06	5:43 p	-24.1	-24.1	-24.2	---	---	35.7	E	0.59	39.1	-42.7	---	---	726.1	0.029	0.000	17.8	1	1
03/07/06	5:44 p	-24.1	-24.1	-24.1	---	---	37.4	E	0.62	41.7	-43.0	---	---	726.1	0.029	0.000	17.8	1	1
03/07/06	5:45 p	-24.2	-24.1	-24.2	---	---	33.9	E	0.57	40.9	-42.4	---	---	726.3	0.030	0.000	17.8	1	1
03/07/06	5:46 p	-24.2	-24.2	-24.2	---	---	32.2	E	0.54	34.8	-42.1	---	---	726.4	0.030	0.000	17.8	1	1
03/07/06	5:47 p	-24.2	-24.2	-24.2	---	---	33.0	E	0.55	39.1	-42.3	---	---	726.1	0.030	0.000	17.8	1	1
03/07/06	5:48 p	-24.2	-24.1	-24.2	---	---	33.9	E	0.57	38.3	-42.4	---	---	726.2	0.030	0.000	17.8	1	1
03/07/06	5:49 p	-24.2	-24.2	-24.2	---	---	37.4	E	0.62	41.7	-43.2	---	---	726.1	0.030	0.000	17.8	1	1
03/07/06	5:50 p	-24.2	-24.2	-24.2	---	---	38.3	E	0.64	43.5	-43.3	---	---	725.9	0.030	0.000	17.7	1	1
03/07/06	5:51 p	-24.2	-24.2	-24.2	---	---	34.8	E	0.58	44.3	-42.7	---	---	726.2	0.030	0.000	17.7	1	1
03/07/06	5:52 p	-24.2	-24.2	-24.2	---	---	35.7	E	0.59	41.7	-42.8	---	---	725.9	0.030	0.000	17.7	1	1
03/07/06	5:53 p	-24.2	-24.2	-24.2	---	---	39.1	E	0.65	45.2	-43.4	---	---	726.4	0.030	0.000	17.7	1	1
03/07/06	5:54 p	-24.2	-24.2	-24.2	---	---	28.7	E	0.48	36.5	-41.4	---	---	726.8	0.030	0.000	17.7	1	1
03/07/06	5:55 p	-24.2	-24.2	-24.2	---	---	26.1	E	0.43	30.4	-40.8	---	---	726.4	0.030	0.000	17.7	1	1
03/07/06	5:56 p	-24.2	-24.2	-24.2	---	---	35.7	E	0.59	42.6	-42.8	---	---	726.0	0.030	0.000	17.7	1	1
03/07/06	5:57 p	-24.2	-24.2	-24.2	---	---	37.4	E	0.62	40.9	-43.1	---	---	726.2	0.030	0.000	17.7	1	1
03/07/06	5:58 p	-24.2	-24.2	-24.2	---	---	35.7	E	0.59	40.0	-42.8	---	---	726.2	0.030	0.000	17.7	1	1
03/07/06	5:59 p	-24.2	-24.2	-24.2	---	---	37.4	E	0.62	41.7	-43.1	---	---	726.4	0.030	0.000	17.8	1	1
03/07/06	6:00 p	-24.2	-24.2	-24.2	---	---	32.2	E	0.54	38.3	-42.1	---	---	726.5	0.030	0.000	17.8	1	1
03/07/06	6:01 p	-24.1	-24.1	-24.2	---	---	29.6	E	0.49	33.9	-41.5	---	---	726.5	0.029	0.000	17.8	1	1
03/07/06	6:02 p	-24.1	-24.1	-24.2	---	---	30.4	E	0.51	34.8	-41.7	---	---	726.4	0.029	0.000	17.8	1	1
03/07/06	6:03 p	-24.2	-24.1	-24.2	---	---	36.5	E	0.61	40.9	-42.9	---	---	726.0	0.030	0.000	17.8	1	1
03/07/06	6:04 p	-24.1	-24.1	-24.1	---	---	34.8	E	0.58	40.9	-42.5	---	---	726.3	0.029	0.000	17.9	1	1
03/07/06	6:05 p	-24.1	-24.1	-24.1	---	---	31.3	E	0.52	37.4	-41.8	---	---	726.4	0.029	0.000	17.9	1	1
03/07/06	6:06 p	-24.1	-24.1	-24.1	---	---	34.8	E	0.58	39.1	-42.4	---	---	726.0	0.029	0.000	17.9	1	1
03/07/06	6:07 p	-24.1	-24.1	-24.1	---	---	37.4	E	0.62	40.9	-43.0	---	---	726.3	0.029	0.000	17.9	1	1
03/07/06	6:08 p	-24.0	-24.0	-24.1	---	---	31.3	E	0.52	37.4	-41.7	---	---	726.7	0.029	0.000	17.9	1	1
03/07/06	6:09 p	-24.0	-23.9	-24.0	---	---	27.8	E	0.46	33.9	-40.9	---	---	726.7	0.029	0.000	17.9	1	1
03/07/06	6:10 p	-23.9	-23.9	-24.0	---	---	31.3	E	0.52	36.5	-41.6	---	---	726.5	0.029	0.000	17.9	1	1
03/07/06	6:11 p	-24.0	-24.0	-24.0	---	---	33.9	E	0.57	38.3	-42.2	---	---	726.2	0.029	0.000	17.9	1	1
03/07/06	6:12 p	-24.0	-23.9	-24.0	---	---	34.8	E	0.58	40.0	-42.4	---	---	726.3	0.029	0.000	17.9	1	1
03/07/06	6:13 p	-23.9	-23.9	-24.0	---	---	35.7	E	0.59	42.6	-42.4	---	---	726.3	0.029	0.000	17.8	1	1
03/07/06	6:14 p	-24.0	-23.9	-24.0	---	---	33.0	E	0.55	39.1	-42.1	---	---	726.5	0.029	0.000	17.8	1	1
03/07/06	6:15 p	-24.0	-23.9	-24.0	---	---	32.2	E	0.54	35.7	-41.9	---	---	726.4	0.029	0.000	17.8	1	1
03/07/06	6:16 p	-24.0	-23.9	-24.0	---	---	33.0	ESE	0.55	40.0	-42.1	---	---	726.3	0.029	0.000	17.8	1	1
03/07/06	6:17 p	-24.0	-23.9	-24.0	---	---	36.5	E	0.61	41.7	-42.7	---	---	726.4	0.029	0.000	17.8	1	1
03/07/06	6:18 p	-24.0	-24.0	-24.1	---	---	33.9	E	0.57	38.3	-42.2	---	---	726.6	0.029	0.000	17.7	1	1
03/07/06	6:19 p	-24.1	-24.0	-24.1	---	---	29.6	E	0.49	36.5	-41.4	---	---	726.7	0.029	0.000	17.7	1	1
03/07/06	6:20 p	-24.0	-24.0	-24.1	---	---	29.6	E	0.49	36.5	-41.3	---	---	726.7	0.029	0.000	17.7	1	1
03/07/06	6:21 p	-24.1	-24.1	-24.1	---	---	34.8	E	0.58	39.1	-42.4	---	---	726.2	0.029	0.000	17.7	1	1
03/07/06	6:22 p	-24.1	-24.1	-24.1	---	---	35.7	E	0.59	40.9	-42.7	---	---	726.3	0.029	0.000	17.7	1	1
03/07/06	6:23 p	-24.1	-24.1	-24.1	---	---	33.0	E	0.55	40.0	-42.2	---	---	726.3	0.029	0.000	17.7	1	1
03/07/06	6:24 p	-24.1	-24.1	-24.2	---	---	33.0	E	0.55	36.5	-42.2	---	---	726.3	0.029	0.000	17.6	1	1
03/07/06	6:25 p	-24.2	-24.1	-24.2	---	---	33.9	E	0.57	37.4	-42.4	---	---	726.4	0.030	0.000	17.6	1	1
03/07/06	6:26 p	-24.1	-24.1	-24.1	---	---	33.9	ESE	0.57	39.1	-42.3	---	---	726.2	0.029	0.000	17.6	1	1
03/07/06	6:27 p	-24.1	-24.1	-24.1	---	---	36.5	E	0.61	40.9	-42.8	---	---	726.3	0.029	0.000	17.6	1	1
03/07/06	6:28 p	-24.1	-24.1	-24.1	---	---	31.3	E	0.52	33.9	-41.8	---	---	726.5	0.029	0.000	17.6	1	1
03/07/06	6:29 p	-24.1	-24.1	-24.1	---	---	32.2	E	0.54	39.1	-42.0	---	---	726.2	0.029	0.000	17.6	1	1
03/07/06	6:30 p	-24.1	-24.1	-24.1	---	---	35.7	E	0.59	38.3	-42.7	---	---	726.4	0.029	0.000	17.6	1	1
03/07/06	6:31 p	-24.1	-24.1	-24.2	---	---	32.2	E	0.54	39.1	-42.0	---	---	726.6	0.029	0.000	17.6	1	1
03/07/06	6:32 p	-24.1	-24.1	-24.2	---	---	33.0	E	0.55	37.4	-42.2	---	---	726.4	0.029	0.000	17.7	1	1
03/07/06	6:33 p	-24.1	-24.1	-24.1	---	---	34.8	E	0.58	40.0	-42.5	---	---	726.4	0.029	0.000	17.7	1	1
03/07/06	6:34 p	-24.1	-24.1	-24.1	---	---	31.3	E	0.52	36.5	-41.8	---	---	726.5	0.029	0.000	17.7	1	1
03/07/06	6:35 p	-24.1	-24.1	-24.1	---	---	32.2	E	0.54	35.7	-41.9	---	---	726.4	0.029	0.000	17.7	1	1
03/07/06	6:36 p	-24.1	-24.1	-24.1	---	---	32.2	E	0.54	37.4	-41.9	---	---	726.5	0.029	0.000	17.8	1	1
03/07/06	6:37 p	-24.1	-24.1	-24.1	---	---	34.8	E	0.58	39.1	-42.4	---	---	726.3	0.029	0.000	17.8	1	1
03/07/06	6:38 p	-24.1	-24.1	-24.1	---	---	37.4	E	0.62	42.6	-43.0	---	---	726.1	0.029	0.000	17.8	1	1
03/07/06	6:39 p	-24.1	-24.1	-24.1	---	---	38.3	E	0.64	41.7	-43.1	---	---	726.1	0.029	0.000	17.8	1	1
03/07/06	6:40 p	-24.1	-24.1	-24.1	---	---	33.9	E	0.57	38.3	-42.3	---	---	726.6	0.029	0.000	17.9	1	1
03/07/06	6:41 p	-24.1	-24.1	-24.1	---	---	33.9	E	0.57	38.3	-42.3	---	---	726.5	0.029	0.000	17.9	1	1
03/07/06	6:42 p	-24.1	-24.1	-24.1	---	---	30.4	E	0.51	37.4	-41.7	---	---	726.6	0.029	0.000	17.9	1	1
03/07/06	6:43 p	-24.1	-24.1	-24.1	---	---	32.2	E	0.54	37.4	-42.0	---	---	726.6	0.029	0.000	17.9	1	1
03/07/06	6:44 p	-24.1	-24.1	-24.1	---	---	31.3	E	0.52	37.4	-41.8	---	---	726.4	0.029	0.000	17.9	1	1
03/07/06	6:45 p	-24.1	-24.1	-24.1	---	---	36.5	E	0.61	43.5	-42.8	---	---	726.1	0.029	0.000	17.9	1	1
03/07/06	6:46 p	-24.1	-24.1	-24.1	---	---	38.3	E	0.64	43.5	-43.1	---	---	726.3	0.029	0.000	17.9	1	1
03/07/06	6:47 p	-24.1	-24.1	-24.1	---	---	35.7	E	0.59	40.9	-42.7	---	---	726.0	0.029	0.000	17.9	1	1
03/07/06	6:48 p	-24.1	-24.1	-24.2	---	---	39.1	E	0.65	44.3	-43.3	---	---	726.1	0.029	0.000	17.8	1	1
03/07/06	6:49 p	-24.2	-24.1	-24.2	---	---	34.8	E	0.58	39.1	-42.6	---	---	726.4	0.030	0.000	17.8	1	1
03/07/06	6:50 p	-24.2	-24.2	-24.2	---	---	33.9	E	0.57	40.0	-42.4	---	---	726.3	0.030	0.000	17.8	1	1
03/07/06	6:51 p	-24.2	-24.2	-24.2	---	---	34.8	E	0.58	37.4	-42.6	---	---	726.5	0.030	0.000	17.8	1	1
03/07/06	6:52 p	-24.2	-24.2	-24.2	---	---	31.3	E	0.52	36.5	-41.9	---	---	726.6	0.030	0.000	17.7	1	1
03/07/06	6:53 p	-24.2	-24.2	-24.2	---	---	33.9	E	0.57	39.1	-42.4	---	---	726.2	0.030	0.000	17.7	1	1
03/07/06	6:54 p	-24.2	-24.2	-24.2	---	---	34.8	E	0.58	40.0	-42.6	---	---	726.4	0.030	0.000	17.7	1	1
03/07/06	6:55 p	-24.2	-24.1	-24.2	---	---	33.0	E	0.55	37.4	-42.3	---	---	726.5	0.030	0.000	17.7	1	1
03/07/06	6:56 p	-24.2	-24.1	-24.2	---	---	33.0	E	0.55	38.3	-42.3	---	---	726.4	0.030	0.000	17.7	1	1
03/07/06	6:57 p	-24.2	-24.2	-24.2	---	---	34.8	E	0.58	40.0	-42.6	---	---	726.2	0.030	0.000	17.6	1	1
03/07/06	6:58 p	-24.2	-24.2	-24.3	---	---	34.8	E	0.58	38.3	-42.7	---	---	726.6	0.030	0.000	17.6	1	1
03/07/06	6:59 p	-24.2	-24.2	-24.2	---	---	33.0	E	0.55	39.1	-42.3	---	---	726.4	0.030	0.000	17.6	1	1
03/07/06	7:00 p	-24.2	-24.2	-24.2	---	---	33.9	E	0.57	38.3	-42.5	---	---	726.4	0.030	0.000	17.6	1	1
03/07/06	7:01 p	-24.2	-24.2	-24.3	---	---	32.2	E	0.54	40.0	-42.2	---	---	726.3	0.030	0.000	17.6	1	1
03/07/06	7:02 p	-24.2	-24.2	-24.3	---	---	36.5	E	0.61	41.7	-43.0	---	---	726.8	0.030	0.000	17.6	1	1
03/07/06	7:03 p	-24.2	-24.2	-24.2	---	---	29.6	E	0.49	35.7	-41.6	---	---	726.9	0.030	0.000	17.6	1	1
03/07/06	7:04 p	-24.3	-24.3	-24.3	---	---	30.4	E	0.51	36.5	-41.9	---	---	726.7	0.030	0.000	17.6	1	1
03/07/06	7:05 p	-24.3	-24.3	-24.3	---	---	32.2	E	0.54	37.4	-42.3	---	---	726.5	0.030	0.000	17.6	1	1
03/07/06	7:06 p	-24.3	-24.2	-24.3	---	---	34.8	E	0.58	40.9	-42.8	---	---	726.4	0.030	0.000	17.6	1	1
03/07/06	7:07 p	-24.3	-24.3	-24.3	---	---	33.0	E	0.55	37.4	-42.4	---	---	726.3	0.030	0.000	17.7	1	1
03/07/06	7:08 p	-24.3	-24.3	-24.3	---	---	33.9	E	0.57	39.1	-42.6	---	---	726.6	0.030	0.000	17.7	1	1
03/07/06	7:09 p	-24.3	-24.3	-24.3	---	---	33.0	E	0.55	40.0	-42.4	---	---	726.4	0.030	0.000	17.7	1	1
03/07/06	7:10 p	-24.3	-24.3	-24.3	---	---	32.2	E	0.54	38.3	-42.3	---	---	726.5	0.030	0.000	17.7	1	1
03/07/06	7:11 p	-24.3	-24.2	-24.3	---	---	34.8	E	0.58	40.0	-42.8	---	---	726.3	0.030	0.000	17.8	1	1
03/07/06	7:12 p	-24.3	-24.2	-24.3	---	---	34.8	E	0.58	39.1	-42.8	---	---	726.4	0.030	0.000	17.8	1	1
03/07/06	7:13 p	-24.2	-24.2	-24.2	---	---	34.8	E	0.58	39.1	-42.7	---	---	726.4	0.030	0.000	17.8	1	1
03/07/06	7:14 p	-24.2	-24.2	-24.3	---	---	33.9	E	0.57	37.4	-42.5	---	---	726.3	0.030	0.000	17.8	1	1
03/07/06	7:15 p	-24.3	-24.2	-24.3	---	---	33.0	E	0.55	36.5	-42.4	---	---	726.5	0.030	0.000	17.8	1	1
03/07/06	7:16 p	-24.2	-24.2	-24.3	---	---	33.0	E	0.55	39.1	-42.3	---	---	726.4	0.030	0.000	17.8	1	1
03/07/06	7:17 p	-24.2	-24.2	-24.2	---	---	33.0	E	0.55	38.3	-42.3	---	---	726.5	0.030	0.000	17.9	1	1
03/07/06	7:18 p	-24.2	-24.2	-24.2	---	---	33.9	E	0.57	36.5	-42.4	---	---	726.5	0.030	0.000	17.9	1	1
03/07/06	7:19 p	-24.2	-24.1	-24.2	---	---	31.3	E	0.52	37.4	-41.9	---	---	726.5	0.030	0.000	17.9	1	1
03/07/06	7:20 p	-24.2	-24.2	-24.2	---	---	34.8	E	0.58	41.7	-42.6	---	---	726.2	0.030	0.000	17.9	1	1
03/07/06	7:21 p	-24.2	-24.1	-24.2	---	---	33.9	E	0.57	39.1	-42.4	---	---	726.4	0.030	0.000	17.9	1	1
03/07/06	7:22 p	-24.2	-24.1	-24.2	---	---	33.9	E	0.57	36.5	-42.4	---	---	726.5	0.030	0.000	17.9	1	1
03/07/06	7:23 p	-24.1	-24.1	-24.2	---	---	31.3	E	0.52	39.1	-41.8	---	---	726.4	0.029	0.000	17.9	1	1
03/07/06	7:24 p	-24.1	-24.1	-24.1	---	---	33.9	E	0.57	39.1	-42.3	---	---	726.4	0.029	0.000	17.9	1	1
03/07/06	7:25 p	-24.1	-24.1	-24.2	---	---	31.3	E	0.52	34.8	-41.8	---	---	726.7	0.029	0.000	17.9	1	1
03/07/06	7:26 p	-24.1	-24.1	-24.1	---	---	32.2	E	0.54	35.7	-42.0	---	---	726.5	0.029	0.000	17.8	1	1
03/07/06	7:27 p	-24.1	-24.1	-24.1	---	---	36.5	E	0.61	41.7	-42.8	---	---	726.3	0.029	0.000	17.8	1	1
03/07/06	7:28 p	-24.1	-24.1	-24.1	---	---	33.0	E	0.55	40.9	-42.1	---	---	726.6	0.029	0.000	17.8	1	1
03/07/06	7:29 p	-24.1	-24.0	-24.1	---	---	30.4	E	0.51	35.7	-41.6	---	---	726.7	0.029	0.000	17.8	1	1
03/07/06	7:30 p	-24.1	-24.1	-24.1	---	---	29.6	E	0.49	34.8	-41.4	---	---	726.5	0.029	0.000	17.8	1	1
03/07/06	7:31 p	-24.1	-24.1	-24.1	---	---	33.9	E	0.57	37.4	-42.3	---	---	726.4	0.029	0.000	17.8	1	1
03/07/06	7:32 p	-24.1	-24.1	-24.1	---	---	34.8	E	0.58	38.3	-42.4	---	---	726.5	0.029	0.000	17.7	1	1
03/07/06	7:33 p	-24.1	-24.1	-24.1	---	---	33.0	E	0.55	40.0	-42.1	---	---	726.3	0.029	0.000	17.7	1	1
03/07/06	7:34 p	-24.1	-24.1	-24.1	---	---	37.4	E	0.62	42.6	-43.0	---	---	726.3	0.029	0.000	17.7	1	1
03/07/06	7:35 p	-24.1	-24.0	-24.1	---	---	35.7	E	0.59	40.0	-42.6	---	---	726.5	0.029	0.000	17.7	1	1
03/07/06	7:36 p	-24.0	-24.0	-24.1	---	---	34.8	E	0.58	38.3	-42.4	---	---	726.7	0.029	0.000	17.7	1	1
03/07/06	7:37 p	-24.0	-24.0	-24.1	---	---	31.3	E	0.52	40.0	-41.7	---	---	726.6	0.029	0.000	17.6	1	1
03/07/06	7:38 p	-24.0	-24.0	-24.0	---	---	30.4	E	0.51	36.5	-41.5	---	---	726.8	0.029	0.000	17.6	1	1
03/07/06	7:39 p	-24.0	-23.9	-24.0	---	---	30.4	E	0.51	36.5	-41.5	---	---	726.6	0.029	0.000	17.6	1	1
03/07/06	7:40 p	-24.0	-23.9	-24.0	---	---	34.8	E	0.58	41.7	-42.4	---	---	726.1	0.029	0.000	17.6	1	1
03/07/06	7:41 p	-24.0	-23.9	-24.0	---	---	38.3	E	0.64	43.5	-43.0	---	---	726.1	0.029	0.000	17.6	1	1
03/07/06	7:42 p	-24.0	-23.9	-24.0	---	---	40.0	E	0.67	43.5	-43.3	---	---	726.3	0.029	0.000	17.6	1	1
03/07/06	7:43 p	-24.0	-24.0	-24.0	---	---	35.7	E	0.59	39.1	-42.6	---	---	726.5	0.029	0.000	17.6	1	1
03/07/06	7:44 p	-24.0	-23.9	-24.0	---	---	33.9	E	0.57	38.3	-42.2	---	---	726.7	0.029	0.000	17.6	1	1
03/07/06	7:45 p	-24.0	-24.0	-24.0	---	---	31.3	E	0.52	36.5	-41.7	---	---	726.9	0.029	0.000	17.7	1	1
03/07/06	7:46 p	-24.0	-24.0	-24.0	---	---	29.6	E	0.49	34.8	-41.3	---	---	726.9	0.029	0.000	17.7	1	1
03/07/06	7:47 p	-24.0	-23.9	-24.0	---	---	27.8	E	0.46	33.0	-40.9	---	---	727.0	0.029	0.000	17.7	1	1
03/07/06	7:48 p	-24.0	-23.9	-24.0	---	---	27.8	E	0.46	32.2	-40.9	---	---	726.6	0.029	0.000	17.8	1	1
03/07/06	7:49 p	-24.0	-24.0	-24.1	---	---	31.3	E	0.52	36.5	-41.7	---	---	726.5	0.029	0.000	17.8	1	1
03/07/06	7:50 p	-24.0	-23.9	-24.0	---	---	34.8	E	0.58	42.6	-42.4	---	---	726.2	0.029	0.000	17.8	1	1
03/07/06	7:51 p	-24.0	-23.9	-24.0	---	---	40.0	E	0.67	43.5	-43.3	---	---	726.2	0.029	0.000	17.8	1	1
03/07/06	7:52 p	-24.0	-23.9	-24.0	---	---	36.5	E	0.61	40.0	-42.7	---	---	726.7	0.029	0.000	17.8	1	1
03/07/06	7:53 p	-23.9	-23.9	-23.9	---	---	30.4	E	0.51	35.7	-41.4	---	---	726.4	0.029	0.000	17.8	1	1
03/07/06	7:54 p	-23.9	-23.9	-23.9	---	---	33.0	E	0.55	39.1	-41.9	---	---	726.9	0.029	0.000	17.9	1	1
03/07/06	7:55 p	-23.9	-23.9	-23.9	---	---	28.7	E	0.48	33.9	-41.0	---	---	727.1	0.029	0.000	17.9	1	1
03/07/06	7:56 p	-23.9	-23.9	-23.9	---	---	27.0	E	0.45	32.2	-40.6	---	---	727.0	0.029	0.000	17.9	1	1
03/07/06	7:57 p	-23.9	-23.9	-23.9	---	---	29.6	E	0.49	33.9	-41.2	---	---	726.7	0.029	0.000	17.9	1	1
03/07/06	7:58 p	-23.9	-23.9	-23.9	---	---	32.2	E	0.54	36.5	-41.8	---	---	726.5	0.029	0.000	17.9	1	1
03/07/06	7:59 p	-23.9	-23.9	-23.9	---	---	33.9	E	0.57	39.1	-42.1	---	---	726.7	0.029	0.000	17.9	1	1
03/07/06	8:00 p	-23.9	-23.9	-24.0	---	---	28.7	E	0.48	32.2	-41.1	---	---	726.7	0.029	0.000	17.9	1	1
03/07/06	8:01 p	-23.9	-23.9	-23.9	---	---	28.7	E	0.48	33.9	-41.1	---	---	726.5	0.029	0.000	17.9	1	1
03/07/06	8:02 p	-23.9	-23.9	-24.0	---	---	33.9	E	0.57	40.9	-42.1	---	---	726.2	0.029	0.000	17.9	1	1
03/07/06	8:03 p	-24.0	-23.9	-24.0	---	---	37.4	E	0.62	40.9	-42.8	---	---	726.4	0.029	0.000	17.9	1	1
03/07/06	8:04 p	-24.0	-23.9	-24.0	---	---	33.0	E	0.55	37.4	-42.1	---	---	726.7	0.029	0.000	17.9	1	1
03/07/06	8:05 p	-23.9	-23.9	-23.9	---	---	31.3	E	0.52	36.5	-41.6	---	---	726.6	0.029	0.000	17.8	1	1
03/07/06	8:06 p	-23.9	-23.9	-24.0	---	---	31.3	E	0.52	37.4	-41.6	---	---	726.8	0.029	0.000	17.8	1	1
03/07/06	8:07 p	-23.9	-23.9	-24.0	---	---	29.6	E	0.49	33.9	-41.3	---	---	726.8	0.029	0.000	17.8	1	1
03/07/06	8:08 p	-23.9	-23.9	-24.0	---	---	33.0	E	0.55	40.0	-41.9	---	---	726.3	0.029	0.000	17.8	1	1
03/07/06	8:09 p	-23.9	-23.9	-23.9	---	---	36.5	E	0.61	40.9	-42.6	---	---	726.5	0.029	0.000	17.8	1	1
03/07/06	8:10 p	-23.9	-23.9	-23.9	---	---	28.7	E	0.48	33.0	-41.0	---	---	727.0	0.029	0.000	17.8	1	1
03/07/06	8:11 p	-23.9	-23.9	-23.9	---	---	27.0	E	0.45	32.2	-40.6	---	---	726.9	0.029	0.000	17.7	1	1
03/07/06	8:12 p	-23.9	-23.9	-23.9	---	---	28.7	E	0.48	33.9	-41.0	---	---	726.7	0.029	0.000	17.7	1	1
03/07/06	8:13 p	-23.9	-23.9	-23.9	---	---	32.2	E	0.54	36.5	-41.7	---	---	726.5	0.029	0.000	17.7	1	1
03/07/06	8:14 p	-23.9	-23.9	-23.9	---	---	34.8	E	0.58	38.3	-42.3	---	---	726.7	0.029	0.000	17.7	1	1
03/07/06	8:15 p	-23.9	-23.9	-23.9	---	---	29.6	E	0.49	33.0	-41.2	---	---	727.0	0.029	0.000	17.7	1	1
03/07/06	8:16 p	-23.9	-23.9	-23.9	---	---	29.6	E	0.49	33.9	-41.2	---	---	726.8	0.029	0.000	17.7	1	1
03/07/06	8:17 p	-23.9	-23.8	-23.9	---	---	30.4	E	0.51	35.7	-41.3	---	---	726.8	0.029	0.000	17.7	1	1
03/07/06	8:18 p	-23.9	-23.8	-23.9	---	---	29.6	E	0.49	34.8	-41.2	---	---	726.6	0.029	0.000	17.6	1	1
03/07/06	8:19 p	-23.9	-23.8	-23.9	---	---	30.4	E	0.51	37.4	-41.3	---	---	727.0	0.029	0.000	17.6	1	1
03/07/06	8:20 p	-23.9	-23.8	-23.9	---	---	27.0	E	0.45	33.0	-40.6	---	---	727.0	0.029	0.000	17.7	1	1
03/07/06	8:21 p	-23.8	-23.8	-23.8	---	---	28.7	E	0.48	33.9	-40.9	---	---	726.7	0.029	0.000	17.7	1	1
03/07/06	8:22 p	-23.8	-23.8	-23.9	---	---	31.3	E	0.52	36.5	-41.4	---	---	726.7	0.029	0.000	17.7	1	1
03/07/06	8:23 p	-23.9	-23.8	-23.9	---	---	32.2	E	0.54	35.7	-41.7	---	---	726.7	0.029	0.000	17.7	1	1
03/07/06	8:24 p	-23.8	-23.8	-23.8	---	---	31.3	E	0.52	34.8	-41.4	---	---	727.0	0.029	0.000	17.8	1	1
03/07/06	8:25 p	-23.9	-23.8	-23.9	---	---	26.1	E	0.43	33.0	-40.4	---	---	726.9	0.029	0.000	17.8	1	1
03/07/06	8:26 p	-23.9	-23.9	-23.9	---	---	31.3	E	0.52	41.7	-41.6	---	---	726.6	0.029	0.000	17.8	1	1
03/07/06	8:27 p	-23.9	-23.9	-23.9	---	---	31.3	E	0.52	37.4	-41.6	---	---	726.9	0.029	0.000	17.8	1	1
03/07/06	8:28 p	-23.9	-23.9	-23.9	---	---	29.6	E	0.49	33.9	-41.3	---	---	726.9	0.029	0.000	17.9	1	1
03/07/06	8:29 p	-24.0	-23.9	-24.0	---	---	30.4	ESE	0.51	35.7	-41.5	---	---	726.6	0.029	0.000	17.9	1	1
03/07/06	8:30 p	-24.0	-23.9	-24.0	---	---	31.3	E	0.52	36.5	-41.7	---	---	726.8	0.029	0.000	17.9	1	1
03/07/06	8:31 p	-24.0	-24.0	-24.0	---	---	27.8	E	0.46	31.3	-40.9	---	---	727.3	0.029	0.000	18.0	1	1
03/07/06	8:32 p	-24.0	-24.0	-24.0	---	---	25.2	E	0.42	30.4	-40.3	---	---	727.3	0.029	0.000	18.1	1	1
03/07/06	8:33 p	-24.0	-24.0	-24.1	---	---	30.4	E	0.51	38.3	-41.5	---	---	726.6	0.029	0.000	18.1	1	1
03/07/06	8:34 p	-24.0	-24.0	-24.1	---	---	32.2	E	0.54	34.8	-41.9	---	---	726.7	0.029	0.000	18.1	1	1
03/07/06	8:35 p	-24.1	-24.0	-24.1	---	---	31.3	E	0.52	36.5	-41.8	---	---	726.8	0.029	0.000	18.1	1	1
03/07/06	8:36 p	-24.1	-24.0	-24.1	---	---	31.3	E	0.52	36.5	-41.8	---	---	726.8	0.029	0.000	18.2	1	1
03/07/06	8:37 p	-24.1	-24.1	-24.1	---	---	30.4	E	0.51	36.5	-41.6	---	---	726.7	0.029	0.000	18.2	1	1
03/07/06	8:38 p	-24.1	-24.0	-24.1	---	---	32.2	E	0.54	35.7	-41.9	---	---	726.7	0.029	0.000	18.2	1	1
03/07/06	8:39 p	-24.1	-24.0	-24.1	---	---	32.2	E	0.54	38.3	-41.9	---	---	726.8	0.029	0.000	18.2	1	1
03/07/06	8:40 p	-24.1	-24.1	-24.1	---	---	27.8	E	0.46	33.0	-41.0	---	---	726.9	0.029	0.000	18.2	1	1
03/07/06	8:41 p	-24.1	-24.0	-24.1	---	---	31.3	E	0.52	37.4	-41.8	---	---	726.7	0.029	0.000	18.2	1	1
03/07/06	8:42 p	-24.0	-24.0	-24.1	---	---	31.3	E	0.52	34.8	-41.7	---	---	726.8	0.029	0.000	18.2	1	1
03/07/06	8:43 p	-24.0	-24.0	-24.0	---	---	29.6	E	0.49	40.0	-41.3	---	---	727.0	0.029	0.000	18.2	1	1
03/07/06	8:44 p	-24.0	-23.9	-24.0	---	---	27.0	E	0.45	32.2	-40.7	---	---	727.2	0.029	0.000	18.2	1	1
03/07/06	8:45 p	-23.9	-23.9	-23.9	---	---	26.1	E	0.43	30.4	-40.4	---	---	726.9	0.029	0.000	18.2	1	1
03/07/06	8:46 p	-23.9	-23.9	-23.9	---	---	28.7	E	0.48	33.9	-41.1	---	---	726.8	0.029	0.000	18.2	1	1
03/07/06	8:47 p	-23.9	-23.9	-23.9	---	---	31.3	E	0.52	35.7	-41.6	---	---	726.6	0.029	0.000	18.2	1	1
03/07/06	8:48 p	-23.9	-23.9	-23.9	---	---	33.0	E	0.55	38.3	-41.9	---	---	726.7	0.029	0.000	18.2	1	1
03/07/06	8:49 p	-23.9	-23.9	-24.0	---	---	32.2	E	0.54	35.7	-41.8	---	---	727.0	0.029	0.000	18.2	1	1
03/07/06	8:50 p	-23.9	-23.9	-23.9	---	---	29.6	E	0.49	33.9	-41.3	---	---	727.1	0.029	0.000	18.2	1	1
03/07/06	8:51 p	-23.9	-23.9	-23.9	---	---	26.1	E	0.43	31.3	-40.4	---	---	727.1	0.029	0.000	18.2	1	1
03/07/06	8:52 p	-23.9	-23.9	-23.9	---	---	27.8	E	0.46	33.9	-40.8	---	---	726.9	0.029	0.000	18.2	1	1
03/07/06	8:53 p	-23.9	-23.9	-23.9	---	---	29.6	ESE	0.49	36.5	-41.2	---	---	726.8	0.029	0.000	18.2	1	1
03/07/06	8:54 p	-23.9	-23.9	-23.9	---	---	31.3	E	0.52	36.5	-41.6	---	---	726.8	0.029	0.000	18.2	1	1
03/07/06	8:55 p	-23.9	-23.9	-23.9	---	---	32.2	E	0.54	39.1	-41.7	---	---	726.8	0.029	0.000	18.2	1	1
03/07/06	8:56 p	-23.9	-23.9	-23.9	---	---	31.3	E	0.52	37.4	-41.6	---	---	727.0	0.029	0.000	18.2	1	1
03/07/06	8:57 p	-23.9	-23.8	-23.9	---	---	29.6	E	0.49	33.0	-41.2	---	---	727.0	0.029	0.000	18.2	1	1
03/07/06	8:58 p	-23.8	-23.8	-23.9	---	---	28.7	E	0.48	34.8	-40.9	---	---	726.7	0.029	0.000	18.2	1	1
03/07/06	8:59 p	-23.8	-23.8	-23.9	---	---	32.2	E	0.54	35.7	-41.6	---	---	726.6	0.029	0.000	18.2	1	1
03/07/06	9:00 p	-23.9	-23.8	-23.9	---	---	33.9	E	0.57	42.6	-42.1	---	---	726.5	0.029	0.000	18.2	1	1
03/07/06	9:01 p	-23.9	-23.9	-23.9	---	---	33.0	E	0.55	37.4	-41.9	---	---	727.0	0.029	0.000	18.1	1	1
03/07/06	9:02 p	-23.9	-23.9	-23.9	---	---	28.7	E	0.48	33.9	-41.0	---	---	726.9	0.029	0.000	18.1	1	1
03/07/06	9:03 p	-23.9	-23.9	-23.9	---	---	31.3	E	0.52	36.5	-41.6	---	---	726.8	0.029	0.000	18.2	1	1
03/07/06	9:04 p	-23.9	-23.9	-23.9	---	---	29.6	E	0.49	38.3	-41.2	---	---	726.9	0.029	0.000	18.2	1	1
03/07/06	9:05 p	-23.9	-23.9	-23.9	---	---	30.4	E	0.51	33.9	-41.3	---	---	726.9	0.029	0.000	18.2	1	1
03/07/06	9:06 p	-23.9	-23.9	-23.9	---	---	28.7	E	0.48	36.5	-41.0	---	---	726.8	0.029	0.000	18.2	1	1
03/07/06	9:07 p	-23.9	-23.9	-23.9	---	---	30.4	E	0.51	34.8	-41.3	---	---	726.9	0.029	0.000	18.3	1	1
03/07/06	9:08 p	-23.9	-23.8	-23.9	---	---	31.3	E	0.52	34.8	-41.6	---	---	726.9	0.029	0.000	18.3	1	1
03/07/06	9:09 p	-23.9	-23.9	-23.9	---	---	29.6	E	0.49	33.9	-41.2	---	---	726.9	0.029	0.000	18.3	1	1
03/07/06	9:10 p	-23.9	-23.9	-23.9	---	---	28.7	E	0.48	32.2	-41.0	---	---	726.9	0.029	0.000	18.3	1	1
03/07/06	9:11 p	-23.9	-23.9	-23.9	---	---	31.3	E	0.52	37.4	-41.6	---	---	726.7	0.029	0.000	18.3	1	1
03/07/06	9:12 p	-23.9	-23.9	-23.9	---	---	33.0	E	0.55	37.4	-41.9	---	---	726.6	0.029	0.000	18.4	1	1
03/07/06	9:13 p	-23.9	-23.8	-23.9	---	---	32.2	E	0.54	37.4	-41.7	---	---	726.9	0.029	0.000	18.4	1	1
03/07/06	9:14 p	-23.9	-23.8	-23.9	---	---	29.6	E	0.49	35.7	-41.2	---	---	727.2	0.029	0.000	18.4	1	1
03/07/06	9:15 p	-23.8	-23.8	-23.8	---	---	25.2	E	0.42	30.4	-40.1	---	---	727.4	0.029	0.000	18.4	1	1
03/07/06	9:16 p	-23.8	-23.8	-23.8	---	---	24.3	E	0.41	32.2	-39.8	---	---	726.9	0.029	0.000	18.4	1	1
03/07/06	9:17 p	-23.8	-23.7	-23.8	---	---	30.4	E	0.51	35.7	-41.2	---	---	726.9	0.029	0.000	18.5	1	1
03/07/06	9:18 p	-23.8	-23.7	-23.8	---	---	29.6	E	0.49	33.9	-41.0	---	---	727.0	0.029	0.000	18.5	1	1
03/07/06	9:19 p	-23.8	-23.7	-23.8	---	---	30.4	E	0.51	33.0	-41.2	---	---	727.0	0.029	0.000	18.5	1	1
03/07/06	9:20 p	-23.7	-23.7	-23.8	---	---	29.6	E	0.49	34.8	-40.9	---	---	727.0	0.029	0.000	18.5	1	1
03/07/06	9:21 p	-23.7	-23.7	-23.8	---	---	29.6	E	0.49	33.9	-40.9	---	---	727.1	0.029	0.000	18.5	1	1
03/07/06	9:22 p	-23.7	-23.7	-23.8	---	---	26.1	E	0.43	33.9	-40.2	---	---	726.9	0.029	0.000	18.5	1	1
03/07/06	9:23 p	-23.7	-23.7	-23.8	---	---	31.3	ESE	0.52	34.8	-41.3	---	---	726.8	0.029	0.000	18.5	1	1
03/07/06	9:24 p	-23.7	-23.7	-23.8	---	---	33.0	E	0.55	38.3	-41.7	---	---	726.8	0.029	0.000	18.5	1	1
03/07/06	9:25 p	-23.7	-23.7	-23.8	---	---	32.2	E	0.54	35.7	-41.5	---	---	726.9	0.029	0.000	18.5	1	1
03/07/06	9:26 p	-23.7	-23.7	-23.8	---	---	31.3	E	0.52	35.7	-41.3	---	---	727.2	0.029	0.000	18.4	1	1
03/07/06	9:27 p	-23.8	-23.7	-23.8	---	---	27.0	E	0.45	31.3	-40.4	---	---	727.2	0.029	0.000	18.4	1	1
03/07/06	9:28 p	-23.8	-23.7	-23.8	---	---	27.8	E	0.46	35.7	-40.7	---	---	726.8	0.029	0.000	18.4	1	1
03/07/06	9:29 p	-23.8	-23.8	-23.8	---	---	33.0	E	0.55	38.3	-41.7	---	---	726.6	0.029	0.000	18.4	1	1
03/07/06	9:30 p	-23.8	-23.7	-23.8	---	---	34.8	E	0.58	39.1	-42.1	---	---	726.7	0.029	0.000	18.4	1	1
03/07/06	9:31 p	-23.8	-23.7	-23.8	---	---	32.2	E	0.54	37.4	-41.6	---	---	727.0	0.029	0.000	18.4	1	1
03/07/06	9:32 p	-23.8	-23.8	-23.8	---	---	26.1	E	0.43	34.8	-40.2	---	---	727.5	0.029	0.000	18.4	1	1
03/07/06	9:33 p	-23.8	-23.7	-23.8	---	---	21.7	E	0.36	27.0	-39.1	---	---	727.3	0.029	0.000	18.4	1	1
03/07/06	9:34 p	-23.7	-23.7	-23.8	---	---	27.8	E	0.46	31.3	-40.6	---	---	726.9	0.029	0.000	18.4	1	1
03/07/06	9:35 p	-23.8	-23.7	-23.8	---	---	29.6	ESE	0.49	33.9	-41.0	---	---	726.8	0.029	0.000	18.3	1	1
03/07/06	9:36 p	-23.8	-23.7	-23.8	---	---	33.0	E	0.55	39.1	-41.7	---	---	726.8	0.029	0.000	18.3	1	1
03/07/06	9:37 p	-23.8	-23.8	-23.8	---	---	32.2	E	0.54	37.4	-41.6	---	---	727.0	0.029	0.000	18.3	1	1
03/07/06	9:38 p	-23.8	-23.8	-23.9	---	---	29.6	E	0.49	34.8	-41.1	---	---	727.1	0.029	0.000	18.3	1	1
03/07/06	9:39 p	-23.9	-23.9	-23.9	---	---	28.7	E	0.48	33.9	-41.0	---	---	727.0	0.029	0.000	18.3	1	1
03/07/06	9:40 p	-23.9	-23.9	-23.9	---	---	30.4	E	0.51	39.1	-41.3	---	---	726.9	0.029	0.000	18.3	1	1
03/07/06	9:41 p	-23.9	-23.8	-23.9	---	---	32.2	ENE	0.54	37.4	-41.7	---	---	727.4	0.029	0.000	18.3	1	1
03/07/06	9:42 p	-23.9	-23.9	-23.9	---	---	25.2	E	0.42	32.2	-40.2	---	---	727.5	0.029	0.000	18.3	1	1
03/07/06	9:43 p	-23.9	-23.9	-23.9	---	---	27.0	E	0.45	33.0	-40.6	---	---	727.2	0.029	0.000	18.3	1	1
03/07/06	9:44 p	-23.9	-23.9	-23.9	---	---	31.3	E	0.52	34.8	-41.6	---	---	727.0	0.029	0.000	18.3	1	1
03/07/06	9:45 p	-23.9	-23.9	-23.9	---	---	30.4	E	0.51	34.8	-41.3	---	---	727.3	0.029	0.000	18.3	1	1
03/07/06	9:46 p	-23.9	-23.9	-23.9	---	---	29.6	E	0.49	32.2	-41.2	---	---	727.2	0.029	0.000	18.3	1	1
03/07/06	9:47 p	-23.9	-23.8	-23.9	---	---	27.0	E	0.45	31.3	-40.6	---	---	727.4	0.029	0.000	18.3	1	1
03/07/06	9:48 p	-23.9	-23.8	-23.9	---	---	27.8	E	0.46	31.3	-40.8	---	---	727.2	0.029	0.000	18.2	1	1
03/07/06	9:49 p	-23.8	-23.8	-23.9	---	---	29.6	E	0.49	36.5	-41.1	---	---	727.2	0.029	0.000	18.2	1	1
03/07/06	9:50 p	-23.8	-23.8	-23.8	---	---	28.7	ESE	0.48	33.0	-40.9	---	---	727.2	0.029	0.000	18.2	1	1
03/07/06	9:51 p	-23.8	-23.7	-23.8	---	---	27.0	E	0.45	33.0	-40.4	---	---	727.5	0.029	0.000	18.2	1	1
03/07/06	9:52 p	-23.8	-23.7	-23.8	---	---	25.2	E	0.42	30.4	-40.1	---	---	727.4	0.029	0.000	18.2	1	1
03/07/06	9:53 p	-23.7	-23.7	-23.7	---	---	29.6	E	0.49	35.7	-40.9	---	---	727.4	0.029	0.000	18.2	1	1
03/07/06	9:54 p	-23.7	-23.7	-23.7	---	---	29.6	E	0.49	33.0	-40.9	---	---	727.3	0.029	0.000	18.2	1	1
03/07/06	9:55 p	-23.7	-23.7	-23.7	---	---	27.0	E	0.45	32.2	-40.3	---	---	727.6	0.029	0.000	18.3	1	1
03/07/06	9:56 p	-23.7	-23.7	-23.7	---	---	24.3	E	0.41	28.7	-39.7	---	---	727.6	0.029	0.000	18.3	1	1
03/07/06	9:57 p	-23.7	-23.7	-23.7	---	---	26.1	E	0.43	31.3	-40.1	---	---	727.5	0.029	0.000	18.3	1	1
03/07/06	9:58 p	-23.7	-23.6	-23.7	---	---	29.6	E	0.49	35.7	-40.9	---	---	727.1	0.029	0.000	18.3	1	1
03/07/06	9:59 p	-23.6	-23.6	-23.7	---	---	28.7	E	0.48	32.2	-40.6	---	---	727.6	0.029	0.000	18.4	1	1
03/07/06	10:00 p	-23.6	-23.6	-23.6	---	---	26.1	E	0.43	29.6	-40.0	---	---	727.5	0.029	0.000	18.4	1	1
03/07/06	10:01 p	-23.6	-23.6	-23.6	---	---	25.2	E	0.42	33.9	-39.8	---	---	727.3	0.029	0.000	18.4	1	1
03/07/06	10:02 p	-23.6	-23.6	-23.6	---	---	29.6	E	0.49	32.2	-40.8	---	---	727.3	0.029	0.000	18.4	1	1
03/07/06	10:03 p	-23.6	-23.6	-23.6	---	---	27.0	E	0.45	31.3	-40.2	---	---	727.4	0.029	0.000	18.5	1	1
03/07/06	10:04 p	-23.6	-23.6	-23.6	---	---	27.0	E	0.45	31.3	-40.2	---	---	727.4	0.029	0.000	18.5	1	1
03/07/06	10:05 p	-23.6	-23.6	-23.6	---	---	29.6	E	0.49	36.5	-40.7	---	---	727.6	0.029	0.000	18.5	1	1
03/07/06	10:06 p	-23.5	-23.5	-23.6	---	---	24.3	E	0.41	27.0	-39.4	---	---	727.9	0.029	0.000	18.5	1	1
03/07/06	10:07 p	-23.5	-23.5	-23.5	---	---	23.5	E	0.39	27.0	-39.2	---	---	727.6	0.029	0.000	18.5	1	1
03/07/06	10:08 p	-23.4	-23.4	-23.5	---	---	28.7	E	0.48	34.8	-40.4	---	---	727.0	0.029	0.000	18.5	1	1
03/07/06	10:09 p	-23.4	-23.4	-23.4	---	---	33.9	E	0.57	39.1	-41.4	---	---	727.3	0.029	0.000	18.5	1	1
03/07/06	10:10 p	-23.4	-23.4	-23.4	---	---	27.0	E	0.45	35.7	-40.0	---	---	727.6	0.029	0.000	18.5	1	1
03/07/06	10:11 p	-23.4	-23.4	-23.4	---	---	27.8	E	0.46	33.0	-40.1	---	---	727.2	0.029	0.000	18.5	1	1
03/07/06	10:12 p	-23.4	-23.4	-23.4	---	---	30.4	E	0.51	34.8	-40.7	---	---	727.4	0.029	0.000	18.4	1	1
03/07/06	10:13 p	-23.3	-23.3	-23.4	---	---	26.1	ESE	0.43	30.4	-39.6	---	---	727.3	0.029	0.000	18.4	1	1
03/07/06	10:14 p	-23.2	-23.2	-23.3	---	---	28.7	E	0.48	37.4	-40.1	---	---	727.2	0.029	0.000	18.4	1	1
03/07/06	10:15 p	-23.2	-23.2	-23.2	---	---	31.3	E	0.52	37.4	-40.6	---	---	727.2	0.029	0.000	18.4	1	1
03/07/06	10:16 p	-23.2	-23.1	-23.2	---	---	28.7	E	0.48	33.0	-40.0	---	---	727.3	0.029	0.000	18.4	1	1
03/07/06	10:17 p	-23.1	-23.1	-23.1	---	---	27.0	E	0.45	32.2	-39.6	---	---	727.4	0.029	0.000	18.4	1	1
03/07/06	10:18 p	-23.1	-23.0	-23.1	---	---	28.7	E	0.48	34.8	-39.8	---	---	727.2	0.029	0.000	18.4	1	1
03/07/06	10:19 p	-23.0	-23.0	-23.1	---	---	29.6	E	0.49	34.8	-39.9	---	---	727.4	0.029	0.000	18.4	1	1
03/07/06	10:20 p	-23.1	-23.0	-23.1	---	---	27.8	E	0.46	35.7	-39.7	---	---	727.3	0.029	0.000	18.4	1	1
03/07/06	10:21 p	-23.1	-23.0	-23.1	---	---	31.3	E	0.52	34.8	-40.4	---	---	727.3	0.029	0.000	18.4	1	1
03/07/06	10:22 p	-23.0	-23.0	-23.0	---	---	29.6	E	0.49	33.9	-39.9	---	---	727.6	0.029	0.000	18.4	1	1
03/07/06	10:23 p	-23.0	-22.9	-23.0	---	---	29.6	E	0.49	34.8	-39.9	---	---	727.5	0.029	0.000	18.4	1	1
03/07/06	10:24 p	-22.9	-22.9	-22.9	---	---	31.3	E	0.52	39.1	-40.2	---	---	727.0	0.029	0.000	18.4	1	1
03/07/06	10:25 p	-22.9	-22.9	-22.9	---	---	31.3	E	0.52	38.3	-40.2	---	---	727.3	0.029	0.000	18.4	1	1
03/07/06	10:26 p	-22.9	-22.8	-22.9	---	---	30.4	E	0.51	33.9	-40.0	---	---	727.6	0.029	0.000	18.4	1	1
03/07/06	10:27 p	-22.8	-22.8	-22.9	---	---	26.1	E	0.43	30.4	-38.9	---	---	727.7	0.029	0.000	18.4	1	1
03/07/06	10:28 p	-22.8	-22.8	-22.9	---	---	25.2	E	0.42	30.4	-38.8	---	---	727.6	0.029	0.000	18.4	1	1
03/07/06	10:29 p	-22.8	-22.8	-22.8	---	---	28.7	E	0.48	34.8	-39.6	---	---	727.2	0.029	0.000	18.4	1	1
03/07/06	10:30 p	-22.8	-22.8	-22.8	---	---	33.0	E	0.55	38.3	-40.3	---	---	726.9	0.029	0.000	18.3	1	1
03/07/06	10:31 p	-22.8	-22.8	-22.8	---	---	33.9	E	0.57	40.0	-40.5	---	---	727.2	0.029	0.000	18.3	1	1
03/07/06	10:32 p	-22.7	-22.7	-22.8	---	---	29.6	ESE	0.49	34.8	-39.6	---	---	727.3	0.029	0.000	18.3	1	1
03/07/06	10:33 p	-22.7	-22.7	-22.7	---	---	27.8	E	0.46	31.3	-39.2	---	---	727.6	0.029	0.000	18.3	1	1
03/07/06	10:34 p	-22.7	-22.7	-22.7	---	---	26.1	E	0.43	30.4	-38.8	---	---	727.4	0.029	0.000	18.3	1	1
03/07/06	10:35 p	-22.7	-22.7	-22.7	---	---	32.2	E	0.54	36.5	-40.1	---	---	727.2	0.029	0.000	18.2	1	1
03/07/06	10:36 p	-22.7	-22.7	-22.7	---	---	31.3	E	0.52	35.7	-39.9	---	---	727.0	0.029	0.000	18.2	1	1
03/07/06	10:37 p	-22.7	-22.7	-22.8	---	---	33.9	E	0.57	37.4	-40.4	---	---	726.9	0.029	0.000	18.2	1	1
03/07/06	10:38 p	-22.8	-22.8	-22.8	---	---	35.7	E	0.59	39.1	-40.8	---	---	727.0	0.029	0.000	18.2	1	1
03/07/06	10:39 p	-22.8	-22.7	-22.8	---	---	33.0	E	0.55	39.1	-40.3	---	---	727.3	0.029	0.000	18.1	1	1
03/07/06	10:40 p	-22.7	-22.7	-22.8	---	---	28.7	E	0.48	33.9	-39.4	---	---	727.3	0.029	0.000	18.1	1	1
03/07/06	10:41 p	-22.7	-22.7	-22.8	---	---	29.6	E	0.49	33.9	-39.6	---	---	727.2	0.029	0.000	18.1	1	1
03/07/06	10:42 p	-22.8	-22.7	-22.8	---	---	30.4	E	0.51	34.8	-39.8	---	---	727.4	0.029	0.000	18.1	1	1
03/07/06	10:43 p	-22.8	-22.7	-22.8	---	---	28.7	E	0.48	37.4	-39.4	---	---	727.2	0.029	0.000	18.1	1	1
03/07/06	10:44 p	-22.7	-22.7	-22.7	---	---	33.0	E	0.55	37.4	-40.3	---	---	727.2	0.029	0.000	18.1	1	1
03/07/06	10:45 p	-22.7	-22.7	-22.8	---	---	31.3	E	0.52	35.7	-39.9	---	---	727.4	0.029	0.000	18.0	1	1
03/07/06	10:46 p	-22.7	-22.7	-22.7	---	---	28.7	E	0.48	33.0	-39.4	---	---	727.4	0.029	0.000	18.0	1	1
03/07/06	10:47 p	-22.7	-22.7	-22.7	---	---	28.7	E	0.48	33.9	-39.4	---	---	727.5	0.029	0.000	18.0	1	1
03/07/06	10:48 p	-22.7	-22.6	-22.7	---	---	29.6	ESE	0.49	33.0	-39.5	---	---	727.1	0.028	0.000	18.1	1	1
03/07/06	10:49 p	-22.7	-22.6	-22.7	---	---	33.9	E	0.57	39.1	-40.3	---	---	727.1	0.028	0.000	18.1	1	1
03/07/06	10:50 p	-22.7	-22.6	-22.7	---	---	32.2	E	0.54	39.1	-40.0	---	---	727.5	0.028	0.000	18.1	1	1
03/07/06	10:51 p	-22.6	-22.6	-22.7	---	---	29.6	E	0.49	34.8	-39.4	---	---	727.4	0.028	0.000	18.1	1	1
03/07/06	10:52 p	-22.7	-22.6	-22.7	---	---	29.6	E	0.49	33.9	-39.5	---	---	727.4	0.028	0.000	18.1	1	1
03/07/06	10:53 p	-22.6	-22.6	-22.6	---	---	27.8	E	0.46	32.2	-39.1	---	---	727.5	0.028	0.000	18.2	1	1
03/07/06	10:54 p	-22.6	-22.6	-22.6	---	---	28.7	E	0.48	34.8	-39.2	---	---	727.4	0.028	0.000	18.2	1	1
03/07/06	10:55 p	-22.6	-22.6	-22.6	---	---	32.2	E	0.54	37.4	-39.9	---	---	727.3	0.028	0.000	18.2	1	1
03/07/06	10:56 p	-22.6	-22.6	-22.6	---	---	33.9	E	0.57	40.0	-40.3	---	---	727.1	0.028	0.000	18.2	1	1
03/07/06	10:57 p	-22.6	-22.6	-22.7	---	---	33.9	E	0.57	36.5	-40.3	---	---	727.3	0.028	0.000	18.2	1	1
03/07/06	10:58 p	-22.6	-22.6	-22.6	---	---	28.7	E	0.48	32.2	-39.2	---	---	727.5	0.028	0.000	18.2	1	1
03/07/06	10:59 p	-22.6	-22.6	-22.6	---	---	30.4	E	0.51	34.8	-39.6	---	---	727.4	0.028	0.000	18.2	1	1
03/07/06	11:00 p	-22.6	-22.6	-22.6	---	---	32.2	E	0.54	36.5	-39.9	---	---	727.4	0.028	0.000	18.2	1	1
03/07/06	11:01 p	-22.6	-22.5	-22.6	---	---	31.3	E	0.52	36.5	-39.7	---	---	727.6	0.028	0.000	18.2	1	1
03/07/06	11:02 p	-22.5	-22.5	-22.6	---	---	32.2	E	0.54	35.7	-39.8	---	---	727.6	0.028	0.000	18.2	1	1
03/07/06	11:03 p	-22.5	-22.4	-22.5	---	---	28.7	E	0.48	33.9	-39.1	---	---	727.6	0.028	0.000	18.2	1	1
03/07/06	11:04 p	-22.5	-22.5	-22.5	---	---	27.8	E	0.46	30.4	-38.9	---	---	727.6	0.028	0.000	18.2	1	1
03/07/06	11:05 p	-22.5	-22.4	-22.5	---	---	29.6	E	0.49	33.9	-39.3	---	---	727.5	0.028	0.000	18.1	1	1
03/07/06	11:06 p	-22.4	-22.4	-22.4	---	---	28.7	E	0.48	33.9	-39.0	---	---	727.7	0.028	0.000	18.2	1	1
03/07/06	11:07 p	-22.4	-22.4	-22.5	---	---	30.4	E	0.51	35.7	-39.4	---	---	727.6	0.028	0.000	18.1	1	1
03/07/06	11:08 p	-22.4	-22.4	-22.4	---	---	31.3	E	0.52	36.5	-39.6	---	---	727.5	0.028	0.000	18.1	1	1
03/07/06	11:09 p	-22.5	-22.4	-22.5	---	---	29.6	E	0.49	34.8	-39.3	---	---	727.4	0.028	0.000	18.1	1	1
03/07/06	11:10 p	-22.5	-22.4	-22.5	---	---	31.3	E	0.52	35.7	-39.6	---	---	727.5	0.028	0.000	18.1	1	1
03/07/06	11:11 p	-22.5	-22.5	-22.5	---	---	29.6	E	0.49	36.5	-39.3	---	---	727.6	0.028	0.000	18.1	1	1
03/07/06	11:12 p	-22.5	-22.5	-22.6	---	---	31.3	E	0.52	35.7	-39.6	---	---	727.3	0.028	0.000	18.1	1	1
03/07/06	11:13 p	-22.5	-22.5	-22.6	---	---	32.2	E	0.54	37.4	-39.8	---	---	727.4	0.028	0.000	18.0	1	1
03/07/06	11:14 p	-22.5	-22.5	-22.5	---	---	29.6	E	0.49	33.9	-39.3	---	---	727.4	0.028	0.000	18.0	1	1
03/07/06	11:15 p	-22.5	-22.5	-22.5	---	---	32.2	E	0.54	37.4	-39.8	---	---	727.4	0.028	0.000	18.0	1	1
03/07/06	11:16 p	-22.6	-22.5	-22.6	---	---	30.4	E	0.51	38.3	-39.5	---	---	727.5	0.028	0.000	18.0	1	1
03/07/06	11:17 p	-22.6	-22.6	-22.6	---	---	30.4	E	0.51	33.9	-39.5	---	---	727.4	0.028	0.000	18.0	1	1
03/07/06	11:18 p	-22.6	-22.6	-22.6	---	---	33.0	E	0.55	37.4	-40.1	---	---	727.2	0.028	0.000	17.9	1	1
03/07/06	11:19 p	-22.6	-22.6	-22.6	---	---	31.3	E	0.52	37.4	-39.7	---	---	727.5	0.028	0.000	17.9	1	1
03/07/06	11:20 p	-22.6	-22.6	-22.6	---	---	31.3	E	0.52	36.5	-39.7	---	---	727.4	0.028	0.000	17.9	1	1
03/07/06	11:21 p	-22.6	-22.6	-22.6	---	---	31.3	E	0.52	34.8	-39.8	---	---	727.5	0.028	0.000	17.9	1	1
03/07/06	11:22 p	-22.6	-22.6	-22.7	---	---	30.4	ESE	0.51	34.8	-39.6	---	---	727.4	0.028	0.000	17.9	1	1
03/07/06	11:23 p	-22.6	-22.6	-22.6	---	---	31.3	E	0.52	34.8	-39.8	---	---	727.4	0.028	0.000	17.9	1	1
03/07/06	11:24 p	-22.6	-22.6	-22.6	---	---	33.9	E	0.57	38.3	-40.3	---	---	727.3	0.028	0.000	17.9	1	1
03/07/06	11:25 p	-22.6	-22.6	-22.6	---	---	31.3	E	0.52	36.5	-39.8	---	---	727.4	0.028	0.000	17.9	1	1
03/07/06	11:26 p	-22.6	-22.6	-22.6	---	---	32.2	ESE	0.54	35.7	-39.9	---	---	727.2	0.028	0.000	17.9	1	1
03/07/06	11:27 p	-22.6	-22.6	-22.6	---	---	33.0	E	0.55	39.1	-40.1	---	---	727.3	0.028	0.000	17.9	1	1
03/07/06	11:28 p	-22.6	-22.6	-22.6	---	---	29.6	E	0.49	33.9	-39.4	---	---	727.5	0.028	0.000	17.9	1	1
03/07/06	11:29 p	-22.6	-22.6	-22.6	---	---	30.4	E	0.51	34.8	-39.6	---	---	727.4	0.028	0.000	17.9	1	1
03/07/06	11:30 p	-22.6	-22.6	-22.6	---	---	32.2	E	0.54	35.7	-39.9	---	---	727.5	0.028	0.000	18.0	1	1
03/07/06	11:31 p	-22.6	-22.6	-22.6	---	---	32.2	E	0.54	36.5	-39.9	---	---	727.2	0.028	0.000	18.0	1	1
03/07/06	11:32 p	-22.6	-22.6	-22.6	---	---	31.3	E	0.52	36.5	-39.8	---	---	727.3	0.028	0.000	18.0	1	1
03/07/06	11:33 p	-22.7	-22.6	-22.7	---	---	33.0	E	0.55	37.4	-40.2	---	---	727.3	0.028	0.000	18.1	1	1
03/07/06	11:34 p	-22.7	-22.6	-22.7	---	---	32.2	E	0.54	34.8	-40.0	---	---	727.4	0.028	0.000	18.1	1	1
03/07/06	11:35 p	-22.7	-22.6	-22.7	---	---	32.2	E	0.54	34.8	-40.0	---	---	727.3	0.028	0.000	18.1	1	1
03/07/06	11:36 p	-22.7	-22.7	-22.7	---	---	29.6	E	0.49	33.9	-39.5	---	---	727.3	0.028	0.000	18.1	1	1
03/07/06	11:37 p	-22.7	-22.7	-22.7	---	---	34.8	E	0.58	44.3	-40.6	---	---	727.0	0.029	0.000	18.1	1	1
03/07/06	11:38 p	-22.7	-22.7	-22.8	---	---	34.8	E	0.58	40.0	-40.6	---	---	727.1	0.029	0.000	18.1	1	1
03/07/06	11:39 p	-22.7	-22.7	-22.8	---	---	32.2	E	0.54	39.1	-40.1	---	---	727.2	0.029	0.000	18.1	1	1
03/07/06	11:40 p	-22.8	-22.7	-22.8	---	---	33.0	E	0.55	38.3	-40.3	---	---	727.1	0.029	0.000	18.1	1	1
03/07/06	11:41 p	-22.7	-22.7	-22.7	---	---	31.3	E	0.52	34.8	-39.9	---	---	727.3	0.029	0.000	18.1	1	1
03/07/06	11:42 p	-22.7	-22.7	-22.7	---	---	33.9	E	0.57	39.1	-40.4	---	---	727.3	0.029	0.000	18.1	1	1
03/07/06	11:43 p	-22.7	-22.7	-22.8	---	---	34.8	E	0.58	40.0	-40.6	---	---	727.1	0.029	0.000	18.1	1	1
03/07/06	11:44 p	-22.7	-22.7	-22.7	---	---	33.9	E	0.57	37.4	-40.4	---	---	727.4	0.029	0.000	18.1	1	1
03/07/06	11:45 p	-22.7	-22.7	-22.8	---	---	27.8	E	0.46	33.0	-39.2	---	---	727.7	0.029	0.000	18.1	1	1
03/07/06	11:46 p	-22.7	-22.7	-22.7	---	---	26.1	E	0.43	30.4	-38.8	---	---	727.6	0.029	0.000	18.1	1	1
03/07/06	11:47 p	-22.7	-22.7	-22.7	---	---	27.8	E	0.46	33.0	-39.1	---	---	727.4	0.028	0.000	18.1	1	1
03/07/06	11:48 p	-22.6	-22.6	-22.6	---	---	31.3	E	0.52	38.3	-39.8	---	---	727.2	0.028	0.000	18.1	1	1
03/07/06	11:49 p	-22.6	-22.6	-22.7	---	---	33.0	E	0.55	39.1	-40.1	---	---	727.3	0.028	0.000	18.1	1	1
03/07/06	11:50 p	-22.6	-22.6	-22.6	---	---	33.9	E	0.57	40.9	-40.3	---	---	727.3	0.028	0.000	18.1	1	1
03/07/06	11:51 p	-22.6	-22.6	-22.6	---	---	33.9	E	0.57	40.9	-40.3	---	---	727.3	0.028	0.000	18.0	1	1
03/07/06	11:52 p	-22.6	-22.6	-22.6	---	---	30.4	E	0.51	33.0	-39.6	---	---	727.7	0.028	0.000	18.0	1	1
03/07/06	11:53 p	-22.6	-22.6	-22.6	---	---	26.1	E	0.43	28.7	-38.7	---	---	727.9	0.028	0.000	18.0	1	1
03/07/06	11:54 p	-22.6	-22.6	-22.6	---	---	25.2	E	0.42	29.6	-38.4	---	---	727.9	0.028	0.000	18.0	1	1
03/07/06	11:55 p	-22.6	-22.6	-22.6	---	---	27.0	E	0.45	31.3	-38.8	---	---	727.6	0.028	0.000	18.0	1	1
03/07/06	11:56 p	-22.6	-22.5	-22.6	---	---	29.6	E	0.49	35.7	-39.3	---	---	727.3	0.028	0.000	17.9	1	1
03/07/06	11:57 p	-22.6	-22.5	-22.6	---	---	36.5	E	0.61	41.7	-40.7	---	---	727.1	0.028	0.000	17.9	1	1
03/07/06	11:58 p	-22.6	-22.6	-22.6	---	---	33.0	E	0.55	36.5	-40.1	---	---	727.3	0.028	0.000	17.9	1	1
03/07/06	11:59 p	-22.6	-22.5	-22.6	---	---	30.4	E	0.51	36.5	-39.5	---	---	727.8	0.028	0.000	17.9	1	1
03/08/06	12:00 a	-22.5	-22.5	-22.5	---	---	30.4	E	0.51	35.7	-39.4	---	---	727.6	0.028	0.000	17.9	1	1
03/08/06	12:01 a	-22.5	-22.4	-22.5	---	---	32.2	E	0.54	37.4	-39.8	---	---	727.4	0.028	0.000	17.9	1	1
03/08/06	12:02 a	-22.4	-22.4	-22.5	---	---	31.3	E	0.52	36.5	-39.6	---	---	727.8	0.028	0.000	17.9	1	1
03/08/06	12:03 a	-22.4	-22.4	-22.5	---	---	27.8	E	0.46	32.2	-38.8	---	---	727.7	0.028	0.000	17.9	1	1
03/08/06	12:04 a	-22.5	-22.5	-22.5	---	---	27.0	E	0.45	33.0	-38.7	---	---	727.6	0.028	0.000	17.9	1	1
03/08/06	12:05 a	-22.4	-22.4	-22.5	---	---	28.7	E	0.48	34.8	-39.0	---	---	727.4	0.028	0.000	17.9	1	1
03/08/06	12:06 a	-22.4	-22.4	-22.4	---	---	30.4	E	0.51	33.9	-39.4	---	---	727.5	0.028	0.000	17.9	1	1
03/08/06	12:07 a	-22.4	-22.4	-22.4	---	---	27.8	E	0.46	33.0	-38.8	---	---	727.8	0.028	0.000	17.9	1	1
03/08/06	12:08 a	-22.4	-22.4	-22.4	---	---	28.7	E	0.48	33.9	-38.9	---	---	727.5	0.028	0.000	17.9	1	1
03/08/06	12:09 a	-22.4	-22.4	-22.4	---	---	29.6	E	0.49	35.7	-39.2	---	---	727.6	0.028	0.000	17.9	1	1
03/08/06	12:10 a	-22.4	-22.4	-22.4	---	---	27.0	E	0.45	32.2	-38.6	---	---	727.8	0.028	0.000	18.0	1	1
03/08/06	12:11 a	-22.4	-22.4	-22.4	---	---	27.0	E	0.45	33.0	-38.6	---	---	727.4	0.028	0.000	18.0	1	1
03/08/06	12:12 a	-22.4	-22.4	-22.4	---	---	34.8	E	0.58	40.9	-40.2	---	---	727.6	0.028	0.000	18.0	1	1
03/08/06	12:13 a	-22.4	-22.4	-22.5	---	---	29.6	E	0.49	35.7	-39.2	---	---	727.8	0.028	0.000	18.1	1	1
03/08/06	12:14 a	-22.4	-22.4	-22.5	---	---	25.2	E	0.42	28.7	-38.2	---	---	727.6	0.028	0.000	18.1	1	1
03/08/06	12:15 a	-22.4	-22.4	-22.5	---	---	29.6	E	0.49	33.0	-39.2	---	---	727.5	0.028	0.000	18.1	1	1
03/08/06	12:16 a	-22.6	-22.5	-22.6	---	---	31.3	E	0.52	33.9	-39.7	---	---	727.7	0.028	0.000	18.1	1	1
03/08/06	12:17 a	-22.6	-22.6	-22.6	---	---	27.0	E	0.45	32.2	-38.8	---	---	727.9	0.028	0.000	18.1	1	1
03/08/06	12:18 a	-22.6	-22.6	-22.6	---	---	27.0	E	0.45	31.3	-38.8	---	---	727.7	0.028	0.000	18.1	1	1
03/08/06	12:19 a	-22.6	-22.6	-22.6	---	---	30.4	E	0.51	33.9	-39.6	---	---	727.6	0.028	0.000	18.1	1	1
03/08/06	12:20 a	-22.6	-22.6	-22.6	---	---	27.0	E	0.45	33.0	-38.8	---	---	727.6	0.028	0.000	18.1	1	1
03/08/06	12:21 a	-22.6	-22.6	-22.6	---	---	27.8	E	0.46	33.0	-39.0	---	---	727.6	0.028	0.000	18.1	1	1
03/08/06	12:22 a	-22.6	-22.6	-22.6	---	---	30.4	E	0.51	35.7	-39.5	---	---	727.4	0.028	0.000	18.1	1	1
03/08/06	12:23 a	-22.6	-22.6	-22.6	---	---	30.4	E	0.51	38.3	-39.5	---	---	727.5	0.028	0.000	18.1	1	1
03/08/06	12:24 a	-22.6	-22.6	-22.6	---	---	31.3	E	0.52	35.7	-39.7	---	---	727.8	0.028	0.000	18.1	1	1
03/08/06	12:25 a	-22.6	-22.6	-22.6	---	---	25.2	E	0.42	30.4	-38.4	---	---	728.0	0.028	0.000	18.1	1	1
03/08/06	12:26 a	-22.6	-22.6	-22.6	---	---	25.2	E	0.42	31.3	-38.4	---	---	727.5	0.028	0.000	18.1	1	1
03/08/06	12:27 a	-22.6	-22.5	-22.6	---	---	31.3	E	0.52	35.7	-39.7	---	---	727.6	0.028	0.000	18.1	1	1
03/08/06	12:28 a	-22.6	-22.6	-22.6	---	---	25.2	E	0.42	30.4	-38.4	---	---	727.5	0.028	0.000	18.1	1	1
03/08/06	12:29 a	-22.6	-22.6	-22.6	---	---	33.9	ESE	0.57	41.7	-40.2	---	---	726.9	0.028	0.000	18.0	1	1
03/08/06	12:30 a	-22.6	-22.6	-22.6	---	---	37.4	E	0.62	42.6	-40.9	---	---	727.4	0.028	0.000	18.0	1	1
03/08/06	12:31 a	-22.6	-22.6	-22.6	---	---	31.3	E	0.52	37.4	-39.8	---	---	727.7	0.028	0.000	18.0	1	1
03/08/06	12:32 a	-22.6	-22.6	-22.6	---	---	29.6	E	0.49	33.0	-39.3	---	---	728.1	0.028	0.000	18.0	1	1
03/08/06	12:33 a	-22.6	-22.6	-22.6	---	---	22.6	E	0.38	26.1	-37.7	---	---	728.1	0.028	0.000	18.0	1	1
03/08/06	12:34 a	-22.6	-22.6	-22.6	---	---	20.0	E	0.33	29.6	-37.0	---	---	727.5	0.028	0.000	18.0	1	1
03/08/06	12:35 a	-22.6	-22.5	-22.6	---	---	36.5	E	0.61	41.7	-40.7	---	---	727.0	0.028	0.000	18.0	1	1
03/08/06	12:36 a	-22.5	-22.4	-22.5	---	---	34.8	E	0.58	41.7	-40.3	---	---	727.8	0.028	0.000	18.0	1	1
03/08/06	12:37 a	-22.5	-22.4	-22.5	---	---	27.0	E	0.45	34.8	-38.7	---	---	727.8	0.028	0.000	17.9	1	1
03/08/06	12:38 a	-22.4	-22.4	-22.4	---	---	28.7	E	0.48	33.9	-39.0	---	---	727.7	0.028	0.000	17.9	1	1
03/08/06	12:39 a	-22.4	-22.4	-22.4	---	---	29.6	E	0.49	33.9	-39.2	---	---	727.7	0.028	0.000	17.9	1	1
03/08/06	12:40 a	-22.4	-22.4	-22.4	---	---	30.4	E	0.51	34.8	-39.3	---	---	727.5	0.028	0.000	17.9	1	1
03/08/06	12:41 a	-22.4	-22.3	-22.4	---	---	30.4	E	0.51	36.5	-39.3	---	---	727.7	0.028	0.000	17.9	1	1
03/08/06	12:42 a	-22.3	-22.3	-22.4	---	---	28.7	E	0.48	33.0	-38.8	---	---	727.9	0.028	0.000	17.9	1	1
03/08/06	12:43 a	-22.3	-22.3	-22.3	---	---	26.1	E	0.43	30.4	-38.3	---	---	727.8	0.028	0.000	17.9	1	1
03/08/06	12:44 a	-22.3	-22.3	-22.3	---	---	28.7	E	0.48	33.9	-38.8	---	---	727.6	0.028	0.000	17.9	1	1
03/08/06	12:45 a	-22.3	-22.3	-22.3	---	---	28.7	E	0.48	33.9	-38.8	---	---	727.6	0.028	0.000	17.9	1	1
03/08/06	12:46 a	-22.3	-22.3	-22.3	---	---	27.8	E	0.46	34.8	-38.7	---	---	727.7	0.028	0.000	18.0	1	1
03/08/06	12:47 a	-22.3	-22.3	-22.3	---	---	29.6	E	0.49	34.8	-39.1	---	---	727.6	0.028	0.000	18.0	1	1
03/08/06	12:48 a	-22.3	-22.2	-22.3	---	---	27.8	E	0.46	34.8	-38.6	---	---	727.6	0.028	0.000	18.0	1	1
03/08/06	12:49 a	-22.3	-22.3	-22.3	---	---	29.6	E	0.49	35.7	-38.9	---	---	727.7	0.028	0.000	18.0	1	1
03/08/06	12:50 a	-22.3	-22.3	-22.3	---	---	30.4	E	0.51	37.4	-39.2	---	---	727.4	0.028	0.000	18.1	1	1
03/08/06	12:51 a	-22.3	-22.2	-22.3	---	---	28.7	E	0.48	39.1	-38.8	---	---	728.0	0.028	0.000	18.1	1	1
03/08/06	12:52 a	-22.3	-22.3	-22.3	---	---	26.1	E	0.43	30.4	-38.2	---	---	728.0	0.028	0.000	18.1	1	1
03/08/06	12:53 a	-22.3	-22.3	-22.3	---	---	25.2	E	0.42	29.6	-38.0	---	---	727.9	0.028	0.000	18.1	1	1
03/08/06	12:54 a	-22.3	-22.3	-22.3	---	---	26.1	E	0.43	29.6	-38.2	---	---	727.9	0.028	0.000	18.1	1	1
03/08/06	12:55 a	-22.3	-22.3	-22.3	---	---	27.8	E	0.46	31.3	-38.6	---	---	727.8	0.028	0.000	18.1	1	1
03/08/06	12:56 a	-22.3	-22.3	-22.3	---	---	28.7	E	0.48	32.2	-38.8	---	---	727.7	0.028	0.000	18.1	1	1
03/08/06	12:57 a	-22.3	-22.2	-22.3	---	---	31.3	E	0.52	35.7	-39.3	---	---	727.7	0.028	0.000	18.1	1	1
03/08/06	12:58 a	-22.3	-22.3	-22.3	---	---	30.4	E	0.51	35.7	-39.2	---	---	727.7	0.028	0.000	18.1	1	1
03/08/06	12:59 a	-22.3	-22.3	-22.3	---	---	28.7	E	0.48	32.2	-38.8	---	---	727.4	0.028	0.000	18.1	1	1
03/08/06	1:00 a	-22.3	-22.3	-22.3	---	---	30.4	E	0.51	33.9	-39.2	---	---	727.6	0.028	0.000	18.1	1	1
03/08/06	1:01 a	-22.3	-22.3	-22.3	---	---	28.7	E	0.48	33.9	-38.8	---	---	727.7	0.028	0.000	18.1	1	1
03/08/06	1:02 a	-22.3	-22.3	-22.3	---	---	27.0	E	0.45	30.4	-38.4	---	---	727.8	0.028	0.000	18.1	1	1
03/08/06	1:03 a	-22.3	-22.3	-22.3	---	---	27.0	E	0.45	30.4	-38.4	---	---	728.0	0.028	0.000	18.1	1	1
03/08/06	1:04 a	-22.3	-22.2	-22.3	---	---	26.1	E	0.43	30.4	-38.2	---	---	727.7	0.028	0.000	18.1	1	1
03/08/06	1:05 a	-22.2	-22.2	-22.2	---	---	28.7	E	0.48	35.7	-38.7	---	---	727.6	0.028	0.000	18.1	1	1
03/08/06	1:06 a	-22.2	-22.2	-22.3	---	---	29.6	E	0.49	33.9	-38.9	---	---	727.7	0.028	0.000	18.1	1	1
03/08/06	1:07 a	-22.2	-22.2	-22.2	---	---	27.8	E	0.46	33.0	-38.5	---	---	727.9	0.028	0.000	18.1	1	1
03/08/06	1:08 a	-22.2	-22.2	-22.3	---	---	25.2	E	0.42	30.4	-37.9	---	---	727.8	0.028	0.000	18.0	1	1
03/08/06	1:09 a	-22.2	-22.2	-22.2	---	---	27.0	E	0.45	33.0	-38.3	---	---	727.7	0.028	0.000	18.0	1	1
03/08/06	1:10 a	-22.2	-22.1	-22.2	---	---	28.7	E	0.48	33.9	-38.6	---	---	727.8	0.028	0.000	18.0	1	1
03/08/06	1:11 a	-22.2	-22.1	-22.2	---	---	27.8	E	0.46	33.9	-38.4	---	---	727.8	0.028	0.000	18.0	1	1
03/08/06	1:12 a	-22.2	-22.2	-22.2	---	---	30.4	E	0.51	35.7	-39.0	---	---	727.8	0.028	0.000	18.0	1	1
03/08/06	1:13 a	-22.2	-22.2	-22.2	---	---	29.6	ESE	0.49	33.0	-38.8	---	---	727.9	0.028	0.000	18.0	1	1
03/08/06	1:14 a	-22.2	-22.1	-22.2	---	---	24.3	E	0.41	30.4	-37.7	---	---	728.2	0.028	0.000	17.9	1	1
03/08/06	1:15 a	-22.1	-22.1	-22.1	---	---	23.5	E	0.39	27.8	-37.3	---	---	728.0	0.028	0.000	17.9	1	1
03/08/06	1:16 a	-22.1	-22.1	-22.1	---	---	25.2	E	0.42	33.0	-37.8	---	---	727.9	0.028	0.000	17.9	1	1
03/08/06	1:17 a	-22.1	-22.1	-22.1	---	---	27.0	E	0.45	33.0	-38.1	---	---	727.8	0.028	0.000	17.9	1	1
03/08/06	1:18 a	-22.1	-22.1	-22.1	---	---	27.0	ESE	0.45	32.2	-38.1	---	---	727.8	0.028	0.000	17.9	1	1
03/08/06	1:19 a	-22.1	-22.1	-22.1	---	---	29.6	E	0.49	33.0	-38.7	---	---	727.8	0.028	0.000	17.9	1	1
03/08/06	1:20 a	-22.1	-22.1	-22.1	---	---	29.6	E	0.49	35.7	-38.7	---	---	728.0	0.028	0.000	17.9	1	1
03/08/06	1:21 a	-22.1	-22.1	-22.1	---	---	26.1	E	0.43	33.9	-37.9	---	---	728.0	0.028	0.000	17.9	1	1
03/08/06	1:22 a	-22.1	-22.1	-22.1	---	---	26.1	E	0.43	30.4	-37.9	---	---	727.7	0.028	0.000	18.0	1	1
03/08/06	1:23 a	-22.1	-22.1	-22.1	---	---	30.4	E	0.51	36.5	-38.8	---	---	727.7	0.028	0.000	18.0	1	1
03/08/06	1:24 a	-22.1	-22.0	-22.1	---	---	32.2	E	0.54	35.7	-39.2	---	---	727.9	0.028	0.000	18.0	1	1
03/08/06	1:25 a	-22.1	-22.1	-22.1	---	---	28.7	E	0.48	32.2	-38.5	---	---	727.9	0.028	0.000	18.1	1	1
03/08/06	1:26 a	-22.1	-22.1	-22.1	---	---	27.8	E	0.46	31.3	-38.3	---	---	728.1	0.028	0.000	18.1	1	1
03/08/06	1:27 a	-22.1	-22.0	-22.1	---	---	23.5	E	0.39	28.7	-37.3	---	---	728.2	0.028	0.000	18.1	1	1
03/08/06	1:28 a	-22.0	-22.0	-22.1	---	---	22.6	E	0.38	26.1	-37.0	---	---	727.9	0.028	0.000	18.1	1	1
03/08/06	1:29 a	-22.0	-21.9	-22.0	---	---	28.7	E	0.48	34.8	-38.4	---	---	727.7	0.028	0.000	18.1	1	1
03/08/06	1:30 a	-21.9	-21.9	-22.0	---	---	29.6	E	0.49	33.9	-38.5	---	---	727.8	0.028	0.000	18.1	1	1
03/08/06	1:31 a	-21.9	-21.9	-21.9	---	---	28.7	E	0.48	33.9	-38.3	---	---	727.9	0.028	0.000	18.2	1	1
03/08/06	1:32 a	-21.9	-21.9	-21.9	---	---	28.7	E	0.48	34.8	-38.3	---	---	727.9	0.028	0.000	18.2	1	1
03/08/06	1:33 a	-21.9	-21.9	-21.9	---	---	27.0	E	0.45	31.3	-37.9	---	---	728.1	0.028	0.000	18.2	1	1
03/08/06	1:34 a	-21.9	-21.9	-21.9	---	---	27.0	E	0.45	33.0	-37.9	---	---	727.7	0.028	0.000	18.2	1	1
03/08/06	1:35 a	-21.9	-21.9	-21.9	---	---	28.7	E	0.48	34.8	-38.2	---	---	727.8	0.028	0.000	18.2	1	1
03/08/06	1:36 a	-21.9	-21.9	-21.9	---	---	27.0	E	0.45	30.4	-37.9	---	---	727.9	0.028	0.000	18.1	1	1
03/08/06	1:37 a	-21.9	-21.9	-21.9	---	---	28.7	E	0.48	32.2	-38.2	---	---	727.8	0.028	0.000	18.1	1	1
03/08/06	1:38 a	-21.9	-21.8	-21.9	---	---	27.0	E	0.45	33.0	-37.9	---	---	727.7	0.028	0.000	18.1	1	1
03/08/06	1:39 a	-21.8	-21.8	-21.9	---	---	30.4	E	0.51	33.9	-38.6	---	---	727.7	0.028	0.000	18.1	1	1
03/08/06	1:40 a	-21.9	-21.8	-21.9	---	---	27.0	E	0.45	32.2	-37.9	---	---	728.1	0.028	0.000	18.1	1	1
03/08/06	1:41 a	-21.8	-21.8	-21.8	---	---	25.2	E	0.42	28.7	-37.4	---	---	727.9	0.028	0.000	18.1	1	1
03/08/06	1:42 a	-21.8	-21.8	-21.8	---	---	25.2	E	0.42	32.2	-37.4	---	---	727.7	0.028	0.000	18.1	1	1
03/08/06	1:43 a	-21.8	-21.8	-21.8	---	---	28.7	E	0.48	33.9	-38.1	---	---	727.8	0.028	0.000	18.1	1	1
03/08/06	1:44 a	-21.8	-21.8	-21.8	---	---	27.8	E	0.46	34.8	-38.0	---	---	728.1	0.028	0.000	18.1	1	1
03/08/06	1:45 a	-21.8	-21.8	-21.8	---	---	23.5	E	0.39	28.7	-37.0	---	---	728.0	0.028	0.000	18.1	1	1
03/08/06	1:46 a	-21.8	-21.8	-21.8	---	---	27.8	E	0.46	33.9	-38.0	---	---	727.7	0.028	0.000	18.1	1	1
03/08/06	1:47 a	-21.8	-21.8	-21.8	---	---	28.7	E	0.48	34.8	-38.1	---	---	727.8	0.028	0.000	18.1	1	1
03/08/06	1:48 a	-21.8	-21.8	-21.9	---	---	27.0	E	0.45	31.3	-37.8	---	---	728.0	0.028	0.000	18.0	1	1
03/08/06	1:49 a	-21.8	-21.8	-21.8	---	---	27.0	E	0.45	30.4	-37.8	---	---	727.7	0.028	0.000	18.1	1	1
03/08/06	1:50 a	-21.8	-21.8	-21.8	---	---	32.2	E	0.54	36.5	-38.9	---	---	728.0	0.028	0.000	18.0	1	1
03/08/06	1:51 a	-21.8	-21.8	-21.8	---	---	24.3	E	0.41	31.3	-37.2	---	---	728.2	0.028	0.000	18.0	1	1
03/08/06	1:52 a	-21.8	-21.8	-21.8	---	---	25.2	E	0.42	31.3	-37.3	---	---	727.8	0.028	0.000	18.0	1	1
03/08/06	1:53 a	-21.8	-21.8	-21.8	---	---	29.6	ENE	0.49	34.8	-38.3	---	---	727.6	0.028	0.000	18.0	1	1
03/08/06	1:54 a	-21.8	-21.8	-21.8	---	---	31.3	E	0.52	36.5	-38.7	---	---	727.9	0.028	0.000	18.0	1	1
03/08/06	1:55 a	-21.8	-21.8	-21.9	---	---	27.8	E	0.46	33.0	-38.0	---	---	728.0	0.028	0.000	17.9	1	1
03/08/06	1:56 a	-21.8	-21.8	-21.8	---	---	26.1	E	0.43	31.3	-37.6	---	---	728.3	0.028	0.000	17.9	1	1
03/08/06	1:57 a	-21.8	-21.8	-21.8	---	---	23.5	E	0.39	26.1	-37.0	---	---	728.3	0.028	0.000	17.9	1	1
03/08/06	1:58 a	-21.8	-21.8	-21.8	---	---	27.0	E	0.45	35.7	-37.8	---	---	727.6	0.028	0.000	17.9	1	1
03/08/06	1:59 a	-21.8	-21.8	-21.8	---	---	31.3	E	0.52	36.5	-38.7	---	---	727.5	0.028	0.000	18.0	1	1
03/08/06	2:00 a	-21.8	-21.8	-21.8	---	---	31.3	E	0.52	37.4	-38.6	---	---	727.9	0.028	0.000	18.0	1	1
03/08/06	2:01 a	-21.8	-21.8	-21.9	---	---	30.4	E	0.51	34.8	-38.6	---	---	728.0	0.028	0.000	18.0	1	1
03/08/06	2:02 a	-21.8	-21.8	-21.8	---	---	25.2	E	0.42	31.3	-37.4	---	---	728.4	0.028	0.000	18.1	1	1
03/08/06	2:03 a	-21.8	-21.8	-21.8	---	---	23.5	E	0.39	26.1	-37.0	---	---	728.3	0.028	0.000	18.1	1	1
03/08/06	2:04 a	-21.8	-21.8	-21.8	---	---	27.0	E	0.45	32.2	-37.8	---	---	727.8	0.028	0.000	18.1	1	1
03/08/06	2:05 a	-21.8	-21.8	-21.8	---	---	27.8	E	0.46	32.2	-38.0	---	---	727.8	0.028	0.000	18.1	1	1
03/08/06	2:06 a	-21.8	-21.8	-21.8	---	---	29.6	E	0.49	35.7	-38.3	---	---	727.5	0.028	0.000	18.1	1	1
03/08/06	2:07 a	-21.8	-21.8	-21.8	---	---	31.3	E	0.52	36.5	-38.7	---	---	727.8	0.028	0.000	18.2	1	1
03/08/06	2:08 a	-21.8	-21.8	-21.8	---	---	31.3	E	0.52	34.8	-38.7	---	---	727.8	0.028	0.000	18.2	1	1
03/08/06	2:09 a	-21.8	-21.8	-21.8	---	---	27.8	E	0.46	33.0	-38.0	---	---	727.9	0.028	0.000	18.2	1	1
03/08/06	2:10 a	-21.8	-21.8	-21.8	---	---	28.7	E	0.48	33.0	-38.2	---	---	728.0	0.028	0.000	18.2	1	1
03/08/06	2:11 a	-21.8	-21.8	-21.8	---	---	31.3	E	0.52	35.7	-38.6	---	---	727.8	0.028	0.000	18.2	1	1
03/08/06	2:12 a	-21.8	-21.8	-21.8	---	---	30.4	E	0.51	33.9	-38.6	---	---	727.8	0.028	0.000	18.2	1	1
03/08/06	2:13 a	-21.8	-21.8	-21.8	---	---	31.3	E	0.52	36.5	-38.7	---	---	728.0	0.028	0.000	18.2	1	1
03/08/06	2:14 a	-21.8	-21.8	-21.9	---	---	28.7	E	0.48	33.9	-38.2	---	---	728.3	0.028	0.000	18.2	1	1
03/08/06	2:15 a	-21.8	-21.8	-21.8	---	---	22.6	E	0.38	28.7	-36.8	---	---	728.2	0.028	0.000	18.2	1	1
03/08/06	2:16 a	-21.8	-21.8	-21.9	---	---	24.3	E	0.41	27.8	-37.2	---	---	728.0	0.028	0.000	18.2	1	1
03/08/06	2:17 a	-21.8	-21.8	-21.9	---	---	30.4	E	0.51	37.4	-38.6	---	---	727.8	0.028	0.000	18.2	1	1
03/08/06	2:18 a	-21.9	-21.9	-21.9	---	---	29.6	E	0.49	33.9	-38.4	---	---	728.0	0.028	0.000	18.2	1	1
03/08/06	2:19 a	-21.9	-21.9	-21.9	---	---	29.6	E	0.49	33.0	-38.4	---	---	728.1	0.028	0.000	18.2	1	1
03/08/06	2:20 a	-21.9	-21.8	-21.9	---	---	26.1	E	0.43	29.6	-37.7	---	---	728.2	0.028	0.000	18.1	1	1
03/08/06	2:21 a	-21.9	-21.8	-21.9	---	---	26.1	E	0.43	29.6	-37.7	---	---	728.0	0.028	0.000	18.1	1	1
03/08/06	2:22 a	-21.8	-21.8	-21.9	---	---	29.6	E	0.49	33.0	-38.3	---	---	727.7	0.028	0.000	18.1	1	1
03/08/06	2:23 a	-21.9	-21.8	-21.9	---	---	30.4	E	0.51	34.8	-38.6	---	---	727.8	0.028	0.000	18.1	1	1
03/08/06	2:24 a	-21.8	-21.8	-21.9	---	---	29.6	E	0.49	33.9	-38.3	---	---	728.0	0.028	0.000	18.1	1	1
03/08/06	2:25 a	-21.9	-21.8	-21.9	---	---	28.7	E	0.48	33.0	-38.2	---	---	727.9	0.028	0.000	18.1	1	1
03/08/06	2:26 a	-21.9	-21.8	-21.9	---	---	28.7	E	0.48	34.8	-38.2	---	---	727.9	0.028	0.000	18.1	1	1
03/08/06	2:27 a	-21.8	-21.8	-21.9	---	---	30.4	E	0.51	34.8	-38.6	---	---	728.0	0.028	0.000	18.1	1	1
03/08/06	2:28 a	-21.8	-21.8	-21.9	---	---	28.7	ESE	0.48	33.9	-38.2	---	---	727.9	0.028	0.000	18.1	1	1
03/08/06	2:29 a	-21.8	-21.8	-21.8	---	---	27.8	E	0.46	30.4	-38.0	---	---	728.0	0.028	0.000	18.1	1	1
03/08/06	2:30 a	-21.8	-21.8	-21.8	---	---	25.2	E	0.42	27.8	-37.4	---	---	728.0	0.028	0.000	18.1	1	1
03/08/06	2:31 a	-21.8	-21.8	-21.9	---	---	27.0	E	0.45	31.3	-37.8	---	---	727.8	0.028	0.000	18.1	1	1
03/08/06	2:32 a	-21.9	-21.8	-21.9	---	---	27.0	E	0.45	31.3	-37.9	---	---	727.8	0.028	0.000	18.1	1	1
03/08/06	2:33 a	-21.9	-21.8	-21.9	---	---	28.7	E	0.48	33.9	-38.2	---	---	728.1	0.028	0.000	18.0	1	1
03/08/06	2:34 a	-21.9	-21.9	-21.9	---	---	27.8	E	0.46	31.3	-38.1	---	---	727.9	0.028	0.000	18.0	1	1
03/08/06	2:35 a	-21.9	-21.9	-21.9	---	---	27.8	E	0.46	33.0	-38.1	---	---	728.1	0.028	0.000	18.0	1	1
03/08/06	2:36 a	-21.9	-21.9	-21.9	---	---	23.5	E	0.39	29.6	-37.1	---	---	728.3	0.028	0.000	18.0	1	1
03/08/06	2:37 a	-21.9	-21.9	-21.9	---	---	23.5	E	0.39	27.8	-37.1	---	---	728.2	0.028	0.000	18.0	1	1
03/08/06	2:38 a	-21.8	-21.8	-21.9	---	---	24.3	E	0.41	30.4	-37.2	---	---	728.1	0.028	0.000	18.0	1	1
03/08/06	2:39 a	-21.8	-21.8	-21.9	---	---	26.1	E	0.43	32.2	-37.6	---	---	727.9	0.028	0.000	18.0	1	1
03/08/06	2:40 a	-21.9	-21.9	-21.9	---	---	29.6	E	0.49	33.0	-38.4	---	---	727.8	0.028	0.000	18.1	1	1
03/08/06	2:41 a	-21.9	-21.9	-21.9	---	---	32.2	E	0.54	37.4	-39.0	---	---	728.2	0.028	0.000	18.1	1	1
03/08/06	2:42 a	-21.9	-21.9	-21.9	---	---	25.2	E	0.42	31.3	-37.5	---	---	728.3	0.028	0.000	18.1	1	1
03/08/06	2:43 a	-21.9	-21.9	-21.9	---	---	25.2	E	0.42	30.4	-37.6	---	---	728.1	0.028	0.000	18.1	1	1
03/08/06	2:44 a	-21.9	-21.9	-21.9	---	---	27.8	E	0.46	30.4	-38.1	---	---	728.1	0.028	0.000	18.1	1	1
03/08/06	2:45 a	-21.9	-21.9	-21.9	---	---	26.1	E	0.43	31.3	-37.7	---	---	728.0	0.028	0.000	18.1	1	1
03/08/06	2:46 a	-21.9	-21.9	-21.9	---	---	27.8	E	0.46	31.3	-38.1	---	---	728.0	0.028	0.000	18.2	1	1
03/08/06	2:47 a	-21.9	-21.9	-21.9	---	---	27.8	E	0.46	31.3	-38.1	---	---	728.0	0.028	0.000	18.2	1	1
03/08/06	2:48 a	-21.9	-21.9	-21.9	---	---	27.0	E	0.45	33.0	-37.9	---	---	728.0	0.028	0.000	18.2	1	1
03/08/06	2:49 a	-21.9	-21.9	-21.9	---	---	25.2	E	0.42	30.4	-37.6	---	---	728.1	0.028	0.000	18.2	1	1
03/08/06	2:50 a	-21.9	-21.9	-21.9	---	---	26.1	E	0.43	29.6	-37.7	---	---	728.0	0.028	0.000	18.2	1	1
03/08/06	2:51 a	-21.9	-21.9	-21.9	---	---	25.2	E	0.42	32.2	-37.5	---	---	728.1	0.028	0.000	18.2	1	1
03/08/06	2:52 a	-21.9	-21.9	-21.9	---	---	29.6	E	0.49	34.8	-38.4	---	---	728.0	0.028	0.000	18.2	1	1
03/08/06	2:53 a	-21.9	-21.9	-21.9	---	---	28.7	E	0.48	34.8	-38.2	---	---	728.1	0.028	0.000	18.2	1	1
03/08/06	2:54 a	-21.9	-21.9	-21.9	---	---	26.1	E	0.43	31.3	-37.8	---	---	728.3	0.028	0.000	18.2	1	1
03/08/06	2:55 a	-21.9	-21.9	-22.0	---	---	24.3	E	0.41	27.8	-37.3	---	---	728.2	0.028	0.000	18.2	1	1
03/08/06	2:56 a	-21.9	-21.9	-22.0	---	---	27.0	E	0.45	33.0	-37.9	---	---	727.9	0.028	0.000	18.2	1	1
03/08/06	2:57 a	-22.0	-22.0	-22.0	---	---	30.4	E	0.51	36.5	-38.8	---	---	728.0	0.028	0.000	18.2	1	1
03/08/06	2:58 a	-22.0	-22.0	-22.0	---	---	27.8	E	0.46	35.7	-38.2	---	---	728.4	0.028	0.000	18.2	1	1
03/08/06	2:59 a	-22.0	-21.9	-22.0	---	---	23.5	E	0.39	26.1	-37.2	---	---	728.3	0.028	0.000	18.2	1	1
03/08/06	3:00 a	-22.0	-21.9	-22.0	---	---	26.1	E	0.43	33.0	-37.8	---	---	728.0	0.028	0.000	18.2	1	1
03/08/06	3:01 a	-22.1	-22.0	-22.1	---	---	29.6	E	0.49	33.0	-38.7	---	---	728.1	0.028	0.000	18.2	1	1
03/08/06	3:02 a	-22.1	-22.0	-22.1	---	---	27.0	E	0.45	30.4	-38.1	---	---	728.3	0.028	0.000	18.1	1	1
03/08/06	3:03 a	-22.0	-22.0	-22.0	---	---	27.0	E	0.45	33.9	-38.0	---	---	728.1	0.028	0.000	18.1	1	1
03/08/06	3:04 a	-22.1	-22.0	-22.1	---	---	27.0	E	0.45	32.2	-38.1	---	---	728.3	0.028	0.000	18.1	1	1
03/08/06	3:05 a	-22.0	-22.0	-22.1	---	---	24.3	E	0.41	28.7	-37.4	---	---	728.1	0.028	0.000	18.1	1	1
03/08/06	3:06 a	-22.0	-21.9	-22.0	---	---	28.7	E	0.48	35.7	-38.4	---	---	728.4	0.028	0.000	18.1	1	1
03/08/06	3:07 a	-22.0	-22.0	-22.0	---	---	25.2	E	0.42	28.7	-37.6	---	---	728.2	0.028	0.000	18.1	1	1
03/08/06	3:08 a	-22.0	-21.9	-22.0	---	---	27.0	E	0.45	33.0	-38.0	---	---	728.0	0.028	0.000	18.1	1	1
03/08/06	3:09 a	-22.0	-21.9	-22.0	---	---	30.4	E	0.51	37.4	-38.8	---	---	728.3	0.028	0.000	18.1	1	1
03/08/06	3:10 a	-21.9	-21.9	-22.0	---	---	21.7	E	0.36	27.0	-36.7	---	---	728.5	0.028	0.000	18.1	1	1
03/08/06	3:11 a	-21.9	-21.9	-21.9	---	---	21.7	E	0.36	27.0	-36.7	---	---	728.2	0.028	0.000	18.1	1	1
03/08/06	3:12 a	-21.9	-21.9	-21.9	---	---	27.8	E	0.46	33.9	-38.1	---	---	728.0	0.028	0.000	18.0	1	1
03/08/06	3:13 a	-21.9	-21.9	-21.9	---	---	27.8	E	0.46	33.0	-38.1	---	---	728.1	0.028	0.000	18.0	1	1
03/08/06	3:14 a	-21.9	-21.9	-21.9	---	---	31.3	E	0.52	36.5	-38.8	---	---	728.3	0.028	0.000	18.0	1	1
03/08/06	3:15 a	-21.9	-21.9	-21.9	---	---	28.7	E	0.48	33.9	-38.3	---	---	728.5	0.028	0.000	18.0	1	1
03/08/06	3:16 a	-21.9	-21.8	-21.9	---	---	23.5	E	0.39	28.7	-37.1	---	---	728.3	0.028	0.000	18.0	1	1
03/08/06	3:17 a	-21.9	-21.8	-21.9	---	---	26.1	E	0.43	31.3	-37.7	---	---	728.2	0.028	0.000	18.0	1	1
03/08/06	3:18 a	-21.9	-21.8	-21.9	---	---	26.1	E	0.43	30.4	-37.7	---	---	728.3	0.028	0.000	18.0	1	1
03/08/06	3:19 a	-21.8	-21.8	-21.8	---	---	27.0	E	0.45	31.3	-37.8	---	---	728.5	0.028	0.000	18.1	1	1
03/08/06	3:20 a	-21.8	-21.8	-21.8	---	---	22.6	E	0.38	26.1	-36.8	---	---	728.3	0.028	0.000	18.1	1	1
03/08/06	3:21 a	-21.9	-21.8	-21.9	---	---	27.0	E	0.45	33.9	-37.9	---	---	728.1	0.028	0.000	18.1	1	1
03/08/06	3:22 a	-21.8	-21.8	-21.8	---	---	31.3	ENE	0.52	36.5	-38.7	---	---	728.4	0.028	0.000	18.1	1	1
03/08/06	3:23 a	-21.8	-21.8	-21.8	---	---	26.1	E	0.43	33.9	-37.6	---	---	728.5	0.028	0.000	18.1	1	1
03/08/06	3:24 a	-21.8	-21.8	-21.8	---	---	20.0	E	0.33	25.2	-36.1	---	---	728.3	0.028	0.000	18.1	1	1
03/08/06	3:25 a	-21.8	-21.8	-21.8	---	---	23.5	E	0.39	27.8	-37.0	---	---	728.2	0.028	0.000	18.2	1	1
03/08/06	3:26 a	-21.8	-21.8	-21.9	---	---	28.7	E	0.48	33.9	-38.2	---	---	728.1	0.028	0.000	18.2	1	1
03/08/06	3:27 a	-21.8	-21.8	-21.8	---	---	27.8	E	0.46	33.0	-38.0	---	---	728.2	0.028	0.000	18.2	1	1
03/08/06	3:28 a	-21.8	-21.8	-21.8	---	---	28.7	E	0.48	34.8	-38.2	---	---	728.3	0.028	0.000	18.2	1	1
03/08/06	3:29 a	-21.8	-21.8	-21.8	---	---	23.5	E	0.39	29.6	-37.0	---	---	728.4	0.028	0.000	18.2	1	1
03/08/06	3:30 a	-21.8	-21.8	-21.8	---	---	22.6	E	0.38	29.6	-36.8	---	---	728.3	0.028	0.000	18.2	1	1
03/08/06	3:31 a	-21.8	-21.8	-21.8	---	---	27.0	E	0.45	29.6	-37.8	---	---	728.4	0.028	0.000	18.2	1	1
03/08/06	3:32 a	-21.8	-21.8	-21.8	---	---	26.1	E	0.43	32.2	-37.6	---	---	728.2	0.028	0.000	18.2	1	1
03/08/06	3:33 a	-21.8	-21.8	-21.8	---	---	26.1	E	0.43	31.3	-37.6	---	---	728.3	0.028	0.000	18.2	1	1
03/08/06	3:34 a	-21.8	-21.8	-21.8	---	---	23.5	E	0.39	27.8	-36.9	---	---	728.4	0.028	0.000	18.2	1	1
03/08/06	3:35 a	-21.8	-21.8	-21.8	---	---	24.3	E	0.41	29.6	-37.1	---	---	728.3	0.028	0.000	18.2	1	1
03/08/06	3:36 a	-21.8	-21.7	-21.8	---	---	27.0	E	0.45	31.3	-37.7	---	---	728.2	0.028	0.000	18.2	1	1
03/08/06	3:37 a	-21.7	-21.7	-21.8	---	---	27.0	E	0.45	32.2	-37.7	---	---	728.5	0.028	0.000	18.2	1	1
03/08/06	3:38 a	-21.7	-21.7	-21.8	---	---	22.6	E	0.38	28.7	-36.6	---	---	728.5	0.028	0.000	18.2	1	1
03/08/06	3:39 a	-21.7	-21.7	-21.7	---	---	24.3	E	0.41	27.8	-36.9	---	---	728.2	0.028	0.000	18.2	1	1
03/08/06	3:40 a	-21.7	-21.7	-21.7	---	---	27.8	E	0.46	33.0	-37.8	---	---	728.4	0.028	0.000	18.2	1	1
03/08/06	3:41 a	-21.7	-21.7	-21.7	---	---	24.3	E	0.41	31.3	-36.9	---	---	728.4	0.028	0.000	18.2	1	1
03/08/06	3:42 a	-21.7	-21.6	-21.7	---	---	25.2	E	0.42	29.6	-37.2	---	---	728.4	0.028	0.000	18.2	1	1
03/08/06	3:43 a	-21.6	-21.6	-21.7	---	---	27.8	E	0.46	33.0	-37.7	---	---	728.3	0.028	0.000	18.2	1	1
03/08/06	3:44 a	-21.6	-21.6	-21.6	---	---	24.3	E	0.41	29.6	-36.9	---	---	728.4	0.028	0.000	18.1	1	1
03/08/06	3:45 a	-21.6	-21.6	-21.6	---	---	24.3	E	0.41	29.6	-36.8	---	---	728.4	0.028	0.000	18.1	1	1
03/08/06	3:46 a	-21.6	-21.5	-21.6	---	---	24.3	E	0.41	28.7	-36.8	---	---	728.3	0.028	0.000	18.1	1	1
03/08/06	3:47 a	-21.5	-21.4	-21.5	---	---	30.4	E	0.51	37.4	-38.1	---	---	728.1	0.028	0.000	18.1	1	1
03/08/06	3:48 a	-21.4	-21.4	-21.4	---	---	27.0	E	0.45	34.8	-37.3	---	---	728.4	0.028	0.000	18.1	1	1
03/08/06	3:49 a	-21.4	-21.4	-21.4	---	---	25.2	E	0.42	30.4	-36.9	---	---	728.4	0.028	0.000	18.1	1	1
03/08/06	3:50 a	-21.4	-21.4	-21.4	---	---	29.6	E	0.49	33.9	-37.7	---	---	728.3	0.028	0.000	18.1	1	1
03/08/06	3:51 a	-21.4	-21.4	-21.4	---	---	27.8	E	0.46	33.9	-37.4	---	---	728.4	0.028	0.000	18.1	1	1
03/08/06	3:52 a	-21.4	-21.3	-21.4	---	---	25.2	E	0.42	31.3	-36.8	---	---	728.4	0.028	0.000	18.1	1	1
03/08/06	3:53 a	-21.3	-21.3	-21.3	---	---	24.3	E	0.41	27.8	-36.5	---	---	728.5	0.028	0.000	18.1	1	1
03/08/06	3:54 a	-21.3	-21.3	-21.3	---	---	25.2	E	0.42	31.3	-36.7	---	---	728.5	0.028	0.000	18.1	1	1
03/08/06	3:55 a	-21.3	-21.3	-21.3	---	---	28.7	E	0.48	33.0	-37.5	---	---	728.1	0.028	0.000	18.1	1	1
03/08/06	3:56 a	-21.3	-21.3	-21.3	---	---	30.4	E	0.51	35.7	-37.8	---	---	728.3	0.028	0.000	18.1	1	1
03/08/06	3:57 a	-21.3	-21.3	-21.3	---	---	25.2	E	0.42	28.7	-36.7	---	---	728.3	0.028	0.000	18.1	1	1
03/08/06	3:58 a	-21.3	-21.3	-21.3	---	---	23.5	E	0.39	29.6	-36.3	---	---	728.4	0.028	0.000	18.1	1	1
03/08/06	3:59 a	-21.3	-21.3	-21.3	---	---	24.3	E	0.41	29.6	-36.4	---	---	728.4	0.028	0.000	18.1	1	1
03/08/06	4:00 a	-21.3	-21.2	-21.3	---	---	27.0	E	0.45	32.2	-37.1	---	---	728.3	0.028	0.000	18.1	1	1
03/08/06	4:01 a	-21.3	-21.2	-21.3	---	---	27.0	E	0.45	30.4	-37.1	---	---	728.3	0.028	0.000	18.2	1	1
03/08/06	4:02 a	-21.3	-21.2	-21.3	---	---	27.8	E	0.46	33.0	-37.2	---	---	728.4	0.028	0.000	18.2	1	1
03/08/06	4:03 a	-21.2	-21.2	-21.3	---	---	25.2	E	0.42	28.7	-36.6	---	---	728.6	0.027	0.000	18.2	1	1
03/08/06	4:04 a	-21.2	-21.2	-21.3	---	---	26.1	E	0.43	30.4	-36.8	---	---	728.4	0.027	0.000	18.2	1	1
03/08/06	4:05 a	-21.2	-21.2	-21.2	---	---	25.2	E	0.42	32.2	-36.6	---	---	728.4	0.027	0.000	18.2	1	1
03/08/06	4:06 a	-21.2	-21.2	-21.2	---	---	27.8	E	0.46	32.2	-37.2	---	---	728.4	0.027	0.000	18.2	1	1
03/08/06	4:07 a	-21.2	-21.2	-21.2	---	---	26.1	E	0.43	31.3	-36.8	---	---	728.5	0.027	0.000	18.3	1	1
03/08/06	4:08 a	-21.2	-21.2	-21.2	---	---	25.2	E	0.42	29.6	-36.6	---	---	728.5	0.027	0.000	18.3	1	1
03/08/06	4:09 a	-21.2	-21.2	-21.2	---	---	25.2	E	0.42	29.6	-36.6	---	---	728.6	0.027	0.000	18.3	1	1
03/08/06	4:10 a	-21.2	-21.2	-21.2	---	---	25.2	E	0.42	29.6	-36.5	---	---	728.7	0.027	0.000	18.2	1	1
03/08/06	4:11 a	-21.2	-21.2	-21.2	---	---	27.0	E	0.45	32.2	-36.9	---	---	728.5	0.027	0.000	18.2	1	1
03/08/06	4:12 a	-21.2	-21.2	-21.2	---	---	25.2	E	0.42	28.7	-36.5	---	---	728.6	0.027	0.000	18.2	1	1
03/08/06	4:13 a	-21.2	-21.2	-21.2	---	---	24.3	E	0.41	28.7	-36.3	---	---	728.6	0.027	0.000	18.2	1	1
03/08/06	4:14 a	-21.2	-21.2	-21.2	---	---	22.6	E	0.38	27.0	-35.9	---	---	728.6	0.027	0.000	18.2	1	1
03/08/06	4:15 a	-21.2	-21.2	-21.2	---	---	27.0	E	0.45	33.0	-36.9	---	---	728.5	0.027	0.000	18.2	1	1
03/08/06	4:16 a	-21.2	-21.2	-21.2	---	---	26.1	E	0.43	31.3	-36.7	---	---	728.5	0.027	0.000	18.2	1	1
03/08/06	4:17 a	-21.2	-21.2	-21.2	---	---	25.2	E	0.42	30.4	-36.5	---	---	728.5	0.027	0.000	18.2	1	1
03/08/06	4:18 a	-21.2	-21.2	-21.2	---	---	26.1	E	0.43	27.0	-36.7	---	---	728.7	0.027	0.000	18.2	1	1
03/08/06	4:19 a	-21.2	-21.2	-21.2	---	---	23.5	E	0.39	27.8	-36.2	---	---	728.9	0.027	0.000	18.2	1	1
03/08/06	4:20 a	-21.2	-21.2	-21.2	---	---	20.9	E	0.35	26.1	-35.4	---	---	729.0	0.027	0.000	18.2	1	1
03/08/06	4:21 a	-21.1	-21.1	-21.2	---	---	18.3	E	0.30	22.6	-34.6	---	---	728.8	0.027	0.000	18.2	1	1
03/08/06	4:22 a	-21.2	-21.1	-21.2	---	---	21.7	ESE	0.36	26.1	-35.6	---	---	728.7	0.027	0.000	18.2	1	1
03/08/06	4:23 a	-21.1	-21.1	-21.2	---	---	22.6	E	0.38	27.8	-35.8	---	---	728.4	0.027	0.000	18.2	1	1
03/08/06	4:24 a	-21.1	-21.1	-21.1	---	---	25.2	E	0.42	30.4	-36.4	---	---	728.7	0.027	0.000	18.1	1	1
03/08/06	4:25 a	-21.1	-21.1	-21.2	---	---	22.6	E	0.38	27.0	-35.8	---	---	728.6	0.027	0.000	18.1	1	1
03/08/06	4:26 a	-21.2	-21.1	-21.2	---	---	27.0	E	0.45	31.3	-36.9	---	---	728.5	0.027	0.000	18.1	1	1
03/08/06	4:27 a	-21.2	-21.1	-21.2	---	---	23.5	E	0.39	29.6	-36.1	---	---	728.7	0.027	0.000	18.1	1	1
03/08/06	4:28 a	-21.2	-21.2	-21.2	---	---	25.2	E	0.42	28.7	-36.5	---	---	728.6	0.027	0.000	18.1	1	1
03/08/06	4:29 a	-21.2	-21.2	-21.2	---	---	23.5	E	0.39	27.8	-36.1	---	---	728.7	0.027	0.000	18.1	1	1
03/08/06	4:30 a	-21.2	-21.2	-21.2	---	---	21.7	E	0.36	28.7	-35.6	---	---	728.8	0.027	0.000	18.1	1	1
03/08/06	4:31 a	-21.2	-21.2	-21.2	---	---	21.7	E	0.36	29.6	-35.6	---	---	728.6	0.027	0.000	18.1	1	1
03/08/06	4:32 a	-21.2	-21.2	-21.2	---	---	27.0	E	0.45	31.3	-36.9	---	---	728.6	0.027	0.000	18.1	1	1
03/08/06	4:33 a	-21.2	-21.2	-21.2	---	---	21.7	E	0.36	25.2	-35.6	---	---	729.0	0.027	0.000	18.1	1	1
03/08/06	4:34 a	-21.2	-21.1	-21.2	---	---	21.7	E	0.36	25.2	-35.6	---	---	728.9	0.027	0.000	18.1	1	1
03/08/06	4:35 a	-21.2	-21.1	-21.2	---	---	24.3	E	0.41	29.6	-36.3	---	---	728.8	0.027	0.000	18.1	1	1
03/08/06	4:36 a	-21.1	-21.1	-21.2	---	---	25.2	E	0.42	29.6	-36.4	---	---	728.9	0.027	0.000	18.1	1	1
03/08/06	4:37 a	-21.1	-21.1	-21.1	---	---	21.7	E	0.36	27.0	-35.6	---	---	729.1	0.027	0.000	18.1	1	1
03/08/06	4:38 a	-21.1	-21.1	-21.1	---	---	20.9	E	0.35	24.3	-35.3	---	---	729.0	0.027	0.000	18.1	1	1
03/08/06	4:39 a	-21.1	-21.1	-21.1	---	---	20.9	E	0.35	27.0	-35.3	---	---	728.6	0.027	0.000	18.1	1	1
03/08/06	4:40 a	-21.1	-21.1	-21.1	---	---	27.8	E	0.46	32.2	-37.0	---	---	728.6	0.027	0.000	18.1	1	1
03/08/06	4:41 a	-21.1	-21.1	-21.1	---	---	25.2	E	0.42	29.6	-36.4	---	---	728.9	0.027	0.000	18.2	1	1
03/08/06	4:42 a	-21.1	-21.1	-21.1	---	---	22.6	E	0.38	28.7	-35.7	---	---	729.1	0.027	0.000	18.2	1	1
03/08/06	4:43 a	-21.1	-21.1	-21.1	---	---	19.1	E	0.32	24.3	-34.8	---	---	729.0	0.027	0.000	18.2	1	1
03/08/06	4:44 a	-21.1	-21.1	-21.1	---	---	21.7	E	0.36	25.2	-35.6	---	---	728.7	0.027	0.000	18.2	1	1
03/08/06	4:45 a	-21.1	-21.1	-21.1	---	---	24.3	E	0.41	27.8	-36.2	---	---	728.6	0.027	0.000	18.2	1	1
03/08/06	4:46 a	-21.1	-21.1	-21.1	---	---	21.7	E	0.36	26.1	-35.6	---	---	728.6	0.027	0.000	18.2	1	1
03/08/06	4:47 a	-21.1	-21.1	-21.1	---	---	24.3	E	0.41	30.4	-36.2	---	---	728.6	0.027	0.000	18.2	1	1
03/08/06	4:48 a	-21.1	-21.1	-21.1	---	---	25.2	E	0.42	30.4	-36.4	---	---	728.9	0.027	0.000	18.2	1	1
03/08/06	4:49 a	-21.1	-21.1	-21.1	---	---	18.3	E	0.30	24.3	-34.5	---	---	729.0	0.027	0.000	18.2	1	1
03/08/06	4:50 a	-21.1	-21.0	-21.1	---	---	20.0	E	0.33	23.5	-35.0	---	---	728.8	0.027	0.000	18.2	1	1
03/08/06	4:51 a	-21.1	-21.1	-21.1	---	---	23.5	E	0.39	27.0	-35.9	---	---	728.6	0.027	0.000	18.2	1	1
03/08/06	4:52 a	-21.1	-21.1	-21.1	---	---	25.2	E	0.42	28.7	-36.3	---	---	728.8	0.027	0.000	18.2	1	1
03/08/06	4:53 a	-21.1	-21.1	-21.1	---	---	21.7	E	0.36	25.2	-35.6	---	---	728.9	0.027	0.000	18.2	1	1
03/08/06	4:54 a	-21.1	-21.1	-21.1	---	---	24.3	E	0.41	30.4	-36.2	---	---	728.8	0.027	0.000	18.2	1	1
03/08/06	4:55 a	-21.1	-21.1	-21.1	---	---	23.5	E	0.39	28.7	-36.0	---	---	728.9	0.027	0.000	18.2	1	1
03/08/06	4:56 a	-21.1	-21.1	-21.1	---	---	23.5	E	0.39	32.2	-35.9	---	---	728.6	0.027	0.000	18.2	1	1
03/08/06	4:57 a	-21.1	-21.1	-21.1	---	---	27.8	E	0.46	32.2	-37.0	---	---	728.8	0.027	0.000	18.2	1	1
03/08/06	4:58 a	-21.1	-21.1	-21.1	---	---	25.2	E	0.42	30.4	-36.4	---	---	729.0	0.027	0.000	18.2	1	1
03/08/06	4:59 a	-21.1	-21.1	-21.2	---	---	20.9	E	0.35	28.7	-35.3	---	---	729.0	0.027	0.000	18.2	1	1
03/08/06	5:00 a	-21.1	-21.1	-21.2	---	---	21.7	E	0.36	27.0	-35.6	---	---	728.6	0.027	0.000	18.2	1	1
03/08/06	5:01 a	-21.2	-21.2	-21.2	---	---	26.1	E	0.43	31.3	-36.7	---	---	728.7	0.027	0.000	18.2	1	1
03/08/06	5:02 a	-21.2	-21.2	-21.2	---	---	23.5	E	0.39	27.8	-36.1	---	---	728.9	0.027	0.000	18.2	1	1
03/08/06	5:03 a	-21.2	-21.2	-21.2	---	---	25.2	E	0.42	29.6	-36.5	---	---	728.9	0.027	0.000	18.2	1	1
03/08/06	5:04 a	-21.2	-21.1	-21.2	---	---	23.5	E	0.39	27.8	-36.1	---	---	729.0	0.027	0.000	18.2	1	1
03/08/06	5:05 a	-21.2	-21.1	-21.2	---	---	21.7	E	0.36	24.3	-35.6	---	---	729.0	0.027	0.000	18.2	1	1
03/08/06	5:06 a	-21.2	-21.2	-21.2	---	---	20.9	E	0.35	27.0	-35.4	---	---	728.9	0.027	0.000	18.2	1	1
03/08/06	5:07 a	-21.2	-21.2	-21.2	---	---	20.9	E	0.35	25.2	-35.4	---	---	728.8	0.027	0.000	18.1	1	1
03/08/06	5:08 a	-21.2	-21.2	-21.2	---	---	26.1	E	0.43	30.4	-36.7	---	---	728.7	0.027	0.000	18.1	1	1
03/08/06	5:09 a	-21.2	-21.2	-21.2	---	---	27.0	E	0.45	30.4	-36.9	---	---	728.8	0.027	0.000	18.1	1	1
03/08/06	5:10 a	-21.2	-21.2	-21.2	---	---	27.8	E	0.46	32.2	-37.1	---	---	728.9	0.027	0.000	18.1	1	1
03/08/06	5:11 a	-21.2	-21.2	-21.2	---	---	21.7	E	0.36	28.7	-35.6	---	---	729.1	0.027	0.000	18.1	1	1
03/08/06	5:12 a	-21.1	-21.1	-21.2	---	---	19.1	E	0.32	24.3	-34.8	---	---	729.0	0.027	0.000	18.1	1	1
03/08/06	5:13 a	-21.1	-21.1	-21.2	---	---	23.5	E	0.39	29.6	-36.0	---	---	728.7	0.027	0.000	18.1	1	1
03/08/06	5:14 a	-21.1	-21.1	-21.2	---	---	25.2	E	0.42	31.3	-36.4	---	---	728.7	0.027	0.000	18.1	1	1
03/08/06	5:15 a	-21.2	-21.2	-21.2	---	---	27.0	E	0.45	31.3	-36.9	---	---	728.7	0.027	0.000	18.1	1	1
03/08/06	5:16 a	-21.2	-21.1	-21.2	---	---	26.1	E	0.43	29.6	-36.7	---	---	729.0	0.027	0.000	18.1	1	1
03/08/06	5:17 a	-21.2	-21.1	-21.2	---	---	25.2	ENE	0.42	29.6	-36.5	---	---	729.0	0.027	0.000	18.1	1	1
03/08/06	5:18 a	-21.1	-21.1	-21.2	---	---	24.3	E	0.41	30.4	-36.2	---	---	729.0	0.027	0.000	18.1	1	1
03/08/06	5:19 a	-21.1	-21.1	-21.1	---	---	27.8	E	0.46	31.3	-37.0	---	---	728.8	0.027	0.000	18.1	1	1
03/08/06	5:20 a	-21.1	-21.1	-21.2	---	---	26.1	E	0.43	31.3	-36.6	---	---	729.1	0.027	0.000	18.2	1	1
03/08/06	5:21 a	-21.1	-21.1	-21.1	---	---	21.7	E	0.36	26.1	-35.6	---	---	729.2	0.027	0.000	18.2	1	1
03/08/06	5:22 a	-21.1	-21.1	-21.1	---	---	20.9	E	0.35	25.2	-35.3	---	---	729.0	0.027	0.000	18.2	1	1
03/08/06	5:23 a	-21.2	-21.2	-21.2	---	---	23.5	E	0.39	29.6	-36.1	---	---	728.8	0.027	0.000	18.2	1	1
03/08/06	5:24 a	-21.2	-21.1	-21.2	---	---	25.2	E	0.42	28.7	-36.5	---	---	728.8	0.027	0.000	18.2	1	1
03/08/06	5:25 a	-21.2	-21.2	-21.2	---	---	23.5	E	0.39	29.6	-36.1	---	---	728.8	0.027	0.000	18.2	1	1
03/08/06	5:26 a	-21.2	-21.2	-21.2	---	---	21.7	E	0.36	25.2	-35.6	---	---	729.0	0.027	0.000	18.3	1	1
03/08/06	5:27 a	-21.2	-21.1	-21.2	---	---	24.3	E	0.41	27.8	-36.3	---	---	728.8	0.027	0.000	18.3	1	1
03/08/06	5:28 a	-21.2	-21.1	-21.2	---	---	22.6	E	0.38	26.1	-35.9	---	---	728.8	0.027	0.000	18.3	1	1
03/08/06	5:29 a	-21.1	-21.1	-21.1	---	---	24.3	E	0.41	28.7	-36.2	---	---	728.8	0.027	0.000	18.3	1	1
03/08/06	5:30 a	-21.2	-21.1	-21.2	---	---	26.1	E	0.43	29.6	-36.7	---	---	728.8	0.027	0.000	18.3	1	1
03/08/06	5:31 a	-21.2	-21.2	-21.2	---	---	27.0	E	0.45	31.3	-36.9	---	---	728.7	0.027	0.000	18.3	1	1
03/08/06	5:32 a	-21.2	-21.2	-21.2	---	---	26.1	E	0.43	30.4	-36.7	---	---	728.8	0.027	0.000	18.3	1	1
03/08/06	5:33 a	-21.2	-21.2	-21.2	---	---	24.3	E	0.41	27.8	-36.3	---	---	728.8	0.027	0.000	18.3	1	1
03/08/06	5:34 a	-21.2	-21.2	-21.2	---	---	23.5	E	0.39	27.8	-36.1	---	---	728.8	0.027	0.000	18.3	1	1
03/08/06	5:35 a	-21.2	-21.2	-21.2	---	---	23.5	E	0.39	28.7	-36.2	---	---	728.8	0.027	0.000	18.3	1	1
03/08/06	5:36 a	-21.2	-21.2	-21.2	---	---	25.2	E	0.42	28.7	-36.6	---	---	728.8	0.027	0.000	18.3	1	1
03/08/06	5:37 a	-21.2	-21.2	-21.2	---	---	28.7	E	0.48	32.2	-37.3	---	---	728.6	0.027	0.000	18.3	1	1
03/08/06	5:38 a	-21.2	-21.2	-21.2	---	---	27.8	E	0.46	31.3	-37.2	---	---	728.8	0.027	0.000	18.2	1	1
03/08/06	5:39 a	-21.2	-21.2	-21.2	---	---	27.0	E	0.45	33.0	-36.9	---	---	728.7	0.027	0.000	18.2	1	1
03/08/06	5:40 a	-21.2	-21.2	-21.2	---	---	26.1	E	0.43	29.6	-36.8	---	---	728.8	0.027	0.000	18.2	1	1
03/08/06	5:41 a	-21.2	-21.2	-21.2	---	---	26.1	E	0.43	29.6	-36.8	---	---	728.9	0.027	0.000	18.2	1	1
03/08/06	5:42 a	-21.2	-21.2	-21.2	---	---	23.5	E	0.39	30.4	-36.2	---	---	729.0	0.027	0.000	18.2	1	1
03/08/06	5:43 a	-21.2	-21.2	-21.2	---	---	22.6	E	0.38	27.0	-35.9	---	---	728.9	0.027	0.000	18.2	1	1
03/08/06	5:44 a	-21.2	-21.2	-21.3	---	---	27.8	E	0.46	33.0	-37.2	---	---	728.7	0.027	0.000	18.2	1	1
03/08/06	5:45 a	-21.2	-21.2	-21.3	---	---	25.2	E	0.42	30.4	-36.6	---	---	728.9	0.027	0.000	18.2	1	1
03/08/06	5:46 a	-21.2	-21.2	-21.2	---	---	27.0	E	0.45	30.4	-36.9	---	---	728.8	0.027	0.000	18.2	1	1
03/08/06	5:47 a	-21.2	-21.2	-21.3	---	---	25.2	E	0.42	30.4	-36.6	---	---	729.0	0.027	0.000	18.2	1	1
03/08/06	5:48 a	-21.2	-21.2	-21.3	---	---	23.5	E	0.39	27.8	-36.2	---	---	728.9	0.027	0.000	18.2	1	1
03/08/06	5:49 a	-21.2	-21.2	-21.2	---	---	28.7	E	0.48	34.8	-37.3	---	---	728.8	0.027	0.000	18.2	1	1
03/08/06	5:50 a	-21.2	-21.2	-21.3	---	---	27.8	ENE	0.46	31.3	-37.2	---	---	729.1	0.027	0.000	18.2	1	1
03/08/06	5:51 a	-21.2	-21.2	-21.2	---	---	23.5	E	0.39	27.0	-36.2	---	---	729.0	0.027	0.000	18.2	1	1
03/08/06	5:52 a	-21.3	-21.2	-21.3	---	---	23.5	E	0.39	29.6	-36.2	---	---	729.0	0.028	0.000	18.2	1	1
03/08/06	5:53 a	-21.3	-21.2	-21.3	---	---	21.7	ESE	0.36	25.2	-35.8	---	---	729.0	0.028	0.000	18.2	1	1
03/08/06	5:54 a	-21.3	-21.2	-21.3	---	---	21.7	E	0.36	26.1	-35.8	---	---	728.9	0.028	0.000	18.2	1	1
03/08/06	5:55 a	-21.3	-21.2	-21.3	---	---	23.5	E	0.39	27.0	-36.2	---	---	728.9	0.028	0.000	18.2	1	1
03/08/06	5:56 a	-21.3	-21.2	-21.3	---	---	27.0	E	0.45	32.2	-37.1	---	---	728.9	0.028	0.000	18.1	1	1
03/08/06	5:57 a	-21.3	-21.3	-21.3	---	---	27.8	E	0.46	33.0	-37.2	---	---	728.9	0.028	0.000	18.1	1	1
03/08/06	5:58 a	-21.3	-21.3	-21.3	---	---	27.8	E	0.46	32.2	-37.2	---	---	728.8	0.028	0.000	18.1	1	1
03/08/06	5:59 a	-21.3	-21.3	-21.3	---	---	26.1	E	0.43	32.2	-36.8	---	---	729.0	0.028	0.000	18.1	1	1
03/08/06	6:00 a	-21.3	-21.3	-21.3	---	---	22.6	E	0.38	27.0	-36.0	---	---	729.1	0.028	0.000	18.1	1	1
03/08/06	6:01 a	-21.3	-21.3	-21.3	---	---	22.6	E	0.38	25.2	-36.0	---	---	729.0	0.028	0.000	18.1	1	1
03/08/06	6:02 a	-21.3	-21.3	-21.3	---	---	23.5	E	0.39	27.0	-36.3	---	---	728.9	0.028	0.000	18.1	1	1
03/08/06	6:03 a	-21.3	-21.3	-21.3	---	---	25.2	E	0.42	28.7	-36.7	---	---	728.9	0.028	0.000	18.1	1	1
03/08/06	6:04 a	-21.3	-21.3	-21.3	---	---	27.8	E	0.46	33.9	-37.2	---	---	729.1	0.028	0.000	18.1	1	1
03/08/06	6:05 a	-21.3	-21.3	-21.3	---	---	26.1	ENE	0.43	30.4	-36.8	---	---	729.1	0.028	0.000	18.1	1	1
03/08/06	6:06 a	-21.3	-21.3	-21.3	---	---	21.7	E	0.36	25.2	-35.8	---	---	729.0	0.028	0.000	18.2	1	1
03/08/06	6:07 a	-21.3	-21.3	-21.3	---	---	25.2	E	0.42	30.4	-36.7	---	---	728.7	0.028	0.000	18.2	1	1
03/08/06	6:08 a	-21.3	-21.3	-21.3	---	---	28.7	E	0.48	32.2	-37.4	---	---	728.8	0.028	0.000	18.2	1	1
03/08/06	6:09 a	-21.3	-21.3	-21.3	---	---	27.8	E	0.46	31.3	-37.2	---	---	728.9	0.028	0.000	18.2	1	1
03/08/06	6:10 a	-21.3	-21.3	-21.3	---	---	27.8	E	0.46	31.3	-37.2	---	---	728.8	0.028	0.000	18.3	1	1
03/08/06	6:11 a	-21.3	-21.3	-21.3	---	---	26.1	E	0.43	33.0	-36.8	---	---	729.2	0.028	0.000	18.3	1	1
03/08/06	6:12 a	-21.3	-21.3	-21.3	---	---	20.9	E	0.35	25.2	-35.6	---	---	729.2	0.028	0.000	18.3	1	1
03/08/06	6:13 a	-21.3	-21.3	-21.3	---	---	20.0	E	0.33	25.2	-35.3	---	---	729.1	0.028	0.000	18.3	1	1
03/08/06	6:14 a	-21.3	-21.3	-21.3	---	---	26.1	E	0.43	30.4	-36.8	---	---	728.9	0.028	0.000	18.3	1	1
03/08/06	6:15 a	-21.3	-21.2	-21.3	---	---	27.8	E	0.46	33.0	-37.2	---	---	729.0	0.028	0.000	18.3	1	1
03/08/06	6:16 a	-21.3	-21.3	-21.3	---	---	22.6	E	0.38	27.8	-36.0	---	---	729.1	0.028	0.000	18.3	1	1
03/08/06	6:17 a	-21.3	-21.2	-21.3	---	---	20.9	E	0.35	24.3	-35.6	---	---	729.2	0.028	0.000	18.3	1	1
03/08/06	6:18 a	-21.2	-21.2	-21.2	---	---	21.7	E	0.36	27.0	-35.7	---	---	729.1	0.027	0.000	18.3	1	1
03/08/06	6:19 a	-21.2	-21.2	-21.2	---	---	24.3	E	0.41	28.7	-36.4	---	---	729.1	0.027	0.000	18.3	1	1
03/08/06	6:20 a	-21.2	-21.2	-21.2	---	---	24.3	E	0.41	27.8	-36.4	---	---	729.2	0.027	0.000	18.3	1	1
03/08/06	6:21 a	-21.2	-21.2	-21.2	---	---	20.9	E	0.35	26.1	-35.5	---	---	729.1	0.027	0.000	18.3	1	1
03/08/06	6:22 a	-21.2	-21.2	-21.2	---	---	25.2	E	0.42	31.3	-36.6	---	---	729.0	0.027	0.000	18.3	1	1
03/08/06	6:23 a	-21.2	-21.2	-21.2	---	---	26.1	E	0.43	30.4	-36.8	---	---	729.1	0.027	0.000	18.2	1	1
03/08/06	6:24 a	-21.2	-21.2	-21.3	---	---	27.8	ENE	0.46	30.4	-37.2	---	---	729.3	0.027	0.000	18.2	1	1
03/08/06	6:25 a	-21.3	-21.2	-21.3	---	---	23.5	E	0.39	27.8	-36.2	---	---	729.4	0.028	0.000	18.2	1	1
03/08/06	6:26 a	-21.2	-21.2	-21.3	---	---	20.9	E	0.35	24.3	-35.5	---	---	729.2	0.027	0.000	18.2	1	1
03/08/06	6:27 a	-21.2	-21.2	-21.2	---	---	22.6	E	0.38	28.7	-35.9	---	---	729.0	0.027	0.000	18.2	1	1
03/08/06	6:28 a	-21.2	-21.2	-21.2	---	---	26.1	E	0.43	32.2	-36.8	---	---	729.0	0.027	0.000	18.2	1	1
03/08/06	6:29 a	-21.2	-21.2	-21.2	---	---	27.8	E	0.46	31.3	-37.2	---	---	729.0	0.027	0.000	18.2	1	1
03/08/06	6:30 a	-21.2	-21.2	-21.2	---	---	27.0	E	0.45	32.2	-36.9	---	---	729.1	0.027	0.000	18.2	1	1
03/08/06	6:31 a	-21.2	-21.2	-21.2	---	---	24.3	E	0.41	27.0	-36.3	---	---	729.1	0.027	0.000	18.2	1	1
03/08/06	6:32 a	-21.2	-21.2	-21.2	---	---	26.1	E	0.43	29.6	-36.7	---	---	729.2	0.027	0.000	18.2	1	1
03/08/06	6:33 a	-21.2	-21.2	-21.2	---	---	26.1	E	0.43	29.6	-36.8	---	---	729.3	0.027	0.000	18.2	1	1
03/08/06	6:34 a	-21.2	-21.2	-21.2	---	---	21.7	E	0.36	28.7	-35.7	---	---	729.3	0.027	0.000	18.2	1	1
03/08/06	6:35 a	-21.2	-21.2	-21.2	---	---	20.9	E	0.35	26.1	-35.5	---	---	729.3	0.027	0.000	18.2	1	1
03/08/06	6:36 a	-21.2	-21.2	-21.2	---	---	22.6	E	0.38	27.0	-35.9	---	---	729.1	0.027	0.000	18.2	1	1
03/08/06	6:37 a	-21.1	-21.1	-21.2	---	---	25.2	E	0.42	29.6	-36.4	---	---	729.1	0.027	0.000	18.2	1	1
03/08/06	6:38 a	-21.1	-21.1	-21.1	---	---	26.1	E	0.43	31.3	-36.6	---	---	728.8	0.027	0.000	18.2	1	1
03/08/06	6:39 a	-21.1	-21.1	-21.1	---	---	27.0	E	0.45	30.4	-36.7	---	---	729.0	0.027	0.000	18.2	1	1
03/08/06	6:40 a	-21.1	-21.0	-21.1	---	---	27.8	E	0.46	33.0	-36.9	---	---	729.1	0.027	0.000	18.1	1	1
03/08/06	6:41 a	-21.0	-21.0	-21.0	---	---	22.6	E	0.38	28.7	-35.7	---	---	729.2	0.027	0.000	18.1	1	1
03/08/06	6:42 a	-21.0	-20.9	-21.0	---	---	23.5	E	0.39	26.1	-35.8	---	---	729.1	0.027	0.000	18.1	1	1
03/08/06	6:43 a	-21.0	-20.9	-21.0	---	---	25.2	E	0.42	27.8	-36.3	---	---	729.1	0.027	0.000	18.1	1	1
03/08/06	6:44 a	-20.9	-20.9	-21.0	---	---	25.2	E	0.42	27.8	-36.2	---	---	729.1	0.027	0.000	18.2	1	1
03/08/06	6:45 a	-21.0	-20.9	-21.0	---	---	23.5	E	0.39	27.8	-35.8	---	---	729.2	0.027	0.000	18.2	1	1
03/08/06	6:46 a	-21.0	-20.9	-21.0	---	---	26.1	ENE	0.43	30.4	-36.4	---	---	729.2	0.027	0.000	18.2	1	1
03/08/06	6:47 a	-21.0	-21.0	-21.0	---	---	26.1	E	0.43	29.6	-36.4	---	---	729.2	0.027	0.000	18.2	1	1
03/08/06	6:48 a	-20.9	-20.9	-21.0	---	---	20.9	E	0.35	27.0	-35.1	---	---	729.2	0.027	0.000	18.2	1	1
03/08/06	6:49 a	-21.0	-20.9	-21.0	---	---	22.6	E	0.38	27.0	-35.7	---	---	729.1	0.027	0.000	18.2	1	1
03/08/06	6:50 a	-21.0	-20.9	-21.0	---	---	23.5	E	0.39	27.0	-35.8	---	---	729.0	0.027	0.000	18.3	1	1
03/08/06	6:51 a	-21.0	-21.0	-21.0	---	---	24.3	E	0.41	27.0	-36.1	---	---	729.0	0.027	0.000	18.3	1	1
03/08/06	6:52 a	-21.0	-21.0	-21.0	---	---	27.0	E	0.45	30.4	-36.7	---	---	728.9	0.027	0.000	18.3	1	1
03/08/06	6:53 a	-21.0	-21.0	-21.0	---	---	27.0	E	0.45	32.2	-36.7	---	---	729.1	0.027	0.000	18.3	1	1
03/08/06	6:54 a	-21.0	-20.9	-21.0	---	---	24.3	E	0.41	27.0	-36.1	---	---	729.2	0.027	0.000	18.3	1	1
03/08/06	6:55 a	-21.0	-20.9	-21.0	---	---	25.2	E	0.42	30.4	-36.3	---	---	729.1	0.027	0.000	18.4	1	1
03/08/06	6:56 a	-20.9	-20.9	-21.0	---	---	24.3	E	0.41	28.7	-36.0	---	---	729.3	0.027	0.000	18.4	1	1
03/08/06	6:57 a	-20.9	-20.9	-20.9	---	---	20.9	E	0.35	25.2	-35.1	---	---	729.2	0.027	0.000	18.4	1	1
03/08/06	6:58 a	-20.9	-20.9	-20.9	---	---	21.7	E	0.36	24.3	-35.3	---	---	729.2	0.027	0.000	18.4	1	1
03/08/06	6:59 a	-20.9	-20.9	-20.9	---	---	22.6	E	0.38	27.0	-35.6	---	---	729.2	0.027	0.000	18.4	1	1
03/08/06	7:00 a	-20.9	-20.9	-20.9	---	---	22.6	E	0.38	27.0	-35.6	---	---	729.2	0.027	0.000	18.4	1	1
03/08/06	7:01 a	-20.9	-20.9	-20.9	---	---	21.7	E	0.36	27.0	-35.3	---	---	729.2	0.027	0.000	18.4	1	1
03/08/06	7:02 a	-20.9	-20.9	-20.9	---	---	23.5	E	0.39	27.0	-35.8	---	---	729.1	0.027	0.000	18.3	1	1
03/08/06	7:03 a	-20.9	-20.9	-20.9	---	---	27.0	E	0.45	31.3	-36.6	---	---	729.2	0.027	0.000	18.3	1	1
03/08/06	7:04 a	-20.9	-20.9	-20.9	---	---	25.2	E	0.42	29.6	-36.2	---	---	729.1	0.027	0.000	18.3	1	1
03/08/06	7:05 a	-20.9	-20.9	-20.9	---	---	24.3	E	0.41	28.7	-36.0	---	---	729.2	0.027	0.000	18.3	1	1
03/08/06	7:06 a	-20.9	-20.9	-20.9	---	---	24.3	E	0.41	29.6	-36.0	---	---	729.2	0.027	0.000	18.3	1	1
03/08/06	7:07 a	-20.9	-20.9	-20.9	---	---	24.3	E	0.41	27.8	-36.0	---	---	729.2	0.027	0.000	18.3	1	1
03/08/06	7:08 a	-20.9	-20.9	-20.9	---	---	22.6	E	0.38	27.0	-35.6	---	---	729.2	0.027	0.000	18.3	1	1
03/08/06	7:09 a	-20.9	-20.9	-20.9	---	---	24.3	E	0.41	28.7	-36.0	---	---	729.2	0.027	0.000	18.3	1	1
03/08/06	7:10 a	-20.9	-20.9	-20.9	---	---	25.2	E	0.42	30.4	-36.1	---	---	729.2	0.027	0.000	18.3	1	1
03/08/06	7:11 a	-20.9	-20.9	-20.9	---	---	25.2	E	0.42	29.6	-36.2	---	---	729.2	0.027	0.000	18.3	1	1
03/08/06	7:12 a	-20.9	-20.9	-20.9	---	---	26.1	E	0.43	28.7	-36.4	---	---	729.3	0.027	0.000	18.3	1	1
03/08/06	7:13 a	-20.9	-20.9	-20.9	---	---	22.6	ENE	0.38	27.0	-35.6	---	---	729.3	0.027	0.000	18.3	1	1
03/08/06	7:14 a	-20.9	-20.9	-21.0	---	---	21.7	E	0.36	25.2	-35.3	---	---	729.3	0.027	0.000	18.3	1	1
03/08/06	7:15 a	-20.9	-20.9	-20.9	---	---	24.3	E	0.41	32.2	-36.0	---	---	729.0	0.027	0.000	18.3	1	1
03/08/06	7:16 a	-20.9	-20.9	-21.0	---	---	28.7	E	0.48	33.0	-36.9	---	---	729.0	0.027	0.000	18.3	1	1
03/08/06	7:17 a	-21.0	-20.9	-21.0	---	---	26.1	E	0.43	32.2	-36.4	---	---	729.4	0.027	0.000	18.3	1	1
03/08/06	7:18 a	-21.0	-21.0	-21.0	---	---	24.3	E	0.41	27.8	-36.1	---	---	729.4	0.027	0.000	18.3	1	1
03/08/06	7:19 a	-21.0	-21.0	-21.0	---	---	28.7	E	0.48	32.2	-37.1	---	---	729.2	0.027	0.000	18.3	1	1
03/08/06	7:20 a	-21.0	-21.0	-21.0	---	---	26.1	E	0.43	28.7	-36.4	---	---	729.5	0.027	0.000	18.3	1	1
03/08/06	7:21 a	-21.0	-21.0	-21.1	---	---	22.6	E	0.38	25.2	-35.7	---	---	729.6	0.027	0.000	18.3	1	1
03/08/06	7:22 a	-21.0	-20.9	-21.0	---	---	19.1	E	0.32	24.3	-34.7	---	---	729.6	0.027	0.000	18.3	1	1
03/08/06	7:23 a	-21.0	-20.9	-21.0	---	---	20.9	E	0.35	27.0	-35.2	---	---	729.4	0.027	0.000	18.3	1	1
03/08/06	7:24 a	-20.9	-20.9	-21.0	---	---	24.3	E	0.41	30.4	-36.0	---	---	729.1	0.027	0.000	18.2	1	1
03/08/06	7:25 a	-20.9	-20.9	-21.0	---	---	23.5	E	0.39	30.4	-35.8	---	---	729.4	0.027	0.000	18.2	1	1
03/08/06	7:26 a	-20.9	-20.9	-20.9	---	---	27.8	E	0.46	32.2	-36.8	---	---	729.2	0.027	0.000	18.2	1	1
03/08/06	7:27 a	-20.9	-20.9	-21.0	---	---	25.2	E	0.42	29.6	-36.2	---	---	729.3	0.027	0.000	18.2	1	1
03/08/06	7:28 a	-20.9	-20.9	-21.0	---	---	23.5	E	0.39	27.8	-35.8	---	---	729.3	0.027	0.000	18.2	1	1
03/08/06	7:29 a	-20.9	-20.9	-21.0	---	---	25.2	E	0.42	27.8	-36.2	---	---	729.4	0.027	0.000	18.2	1	1
03/08/06	7:30 a	-20.9	-20.9	-20.9	---	---	25.2	E	0.42	28.7	-36.2	---	---	729.5	0.027	0.000	18.1	1	1
03/08/06	7:31 a	-20.9	-20.9	-20.9	---	---	20.9	E	0.35	27.0	-35.1	---	---	729.6	0.027	0.000	18.1	1	1
03/08/06	7:32 a	-20.9	-20.9	-20.9	---	---	18.3	E	0.30	21.7	-34.4	---	---	729.6	0.027	0.000	18.1	1	1
03/08/06	7:33 a	-20.9	-20.9	-20.9	---	---	21.7	E	0.36	26.1	-35.3	---	---	729.3	0.027	0.000	18.1	1	1
03/08/06	7:34 a	-20.9	-20.9	-20.9	---	---	25.2	E	0.42	28.7	-36.2	---	---	729.3	0.027	0.000	18.1	1	1
03/08/06	7:35 a	-20.9	-20.9	-20.9	---	---	27.0	E	0.45	31.3	-36.6	---	---	729.1	0.027	0.000	18.1	1	1
03/08/06	7:36 a	-20.9	-20.9	-20.9	---	---	27.0	E	0.45	31.3	-36.6	---	---	729.4	0.027	0.000	18.1	1	1
03/08/06	7:37 a	-20.9	-20.9	-20.9	---	---	26.1	E	0.43	31.3	-36.3	---	---	729.3	0.027	0.000	18.1	1	1
03/08/06	7:38 a	-20.9	-20.9	-20.9	---	---	25.2	E	0.42	29.6	-36.1	---	---	729.5	0.027	0.000	18.1	1	1
03/08/06	7:39 a	-20.9	-20.9	-20.9	---	---	25.2	E	0.42	28.7	-36.1	---	---	729.5	0.027	0.000	18.1	1	1
03/08/06	7:40 a	-20.9	-20.9	-20.9	---	---	21.7	E	0.36	25.2	-35.3	---	---	729.5	0.027	0.000	18.1	1	1
03/08/06	7:41 a	-20.9	-20.9	-20.9	---	---	23.5	E	0.39	27.0	-35.8	---	---	729.4	0.027	0.000	18.1	1	1
03/08/06	7:42 a	-20.9	-20.9	-20.9	---	---	25.2	E	0.42	30.4	-36.2	---	---	729.3	0.027	0.000	18.2	1	1
03/08/06	7:43 a	-20.9	-20.9	-20.9	---	---	26.1	E	0.43	31.3	-36.4	---	---	729.3	0.027	0.000	18.2	1	1
03/08/06	7:44 a	-20.9	-20.9	-20.9	---	---	25.2	E	0.42	31.3	-36.2	---	---	729.5	0.027	0.000	18.2	1	1
03/08/06	7:45 a	-20.9	-20.9	-20.9	---	---	21.7	E	0.36	26.1	-35.3	---	---	729.5	0.027	0.000	18.2	1	1
03/08/06	7:46 a	-20.9	-20.9	-20.9	---	---	21.7	E	0.36	27.8	-35.3	---	---	729.6	0.027	0.000	18.2	1	1
03/08/06	7:47 a	-20.9	-20.9	-20.9	---	---	22.6	E	0.38	28.7	-35.5	---	---	729.3	0.027	0.000	18.2	1	1
03/08/06	7:48 a	-20.9	-20.9	-20.9	---	---	24.3	E	0.41	31.3	-36.0	---	---	729.2	0.027	0.000	18.3	1	1
03/08/06	7:49 a	-20.9	-20.9	-20.9	---	---	22.6	E	0.38	28.7	-35.6	---	---	729.4	0.027	0.000	18.3	1	1
03/08/06	7:50 a	-20.9	-20.9	-20.9	---	---	21.7	E	0.36	27.0	-35.3	---	---	729.5	0.027	0.000	18.3	1	1
03/08/06	7:51 a	-20.9	-20.9	-20.9	---	---	26.1	E	0.43	29.6	-36.4	---	---	729.4	0.027	0.000	18.3	1	1
03/08/06	7:52 a	-20.9	-20.9	-20.9	---	---	25.2	E	0.42	29.6	-36.2	---	---	729.4	0.027	0.000	18.4	1	1
03/08/06	7:53 a	-20.9	-20.9	-20.9	---	---	21.7	E	0.36	27.0	-35.3	---	---	729.4	0.027	0.000	18.4	1	1
03/08/06	7:54 a	-20.9	-20.9	-20.9	---	---	24.3	E	0.41	26.1	-36.0	---	---	729.3	0.027	0.000	18.4	1	1
03/08/06	7:55 a	-20.9	-20.9	-20.9	---	---	26.1	E	0.43	29.6	-36.4	---	---	729.4	0.027	0.000	18.4	1	1
03/08/06	7:56 a	-20.9	-20.9	-20.9	---	---	24.3	E	0.41	28.7	-35.9	---	---	729.4	0.027	0.000	18.4	1	1
03/08/06	7:57 a	-20.9	-20.9	-20.9	---	---	22.6	E	0.38	28.7	-35.5	---	---	729.4	0.027	0.000	18.4	1	1
03/08/06	7:58 a	-20.9	-20.9	-20.9	---	---	21.7	E	0.36	25.2	-35.3	---	---	729.3	0.027	0.000	18.4	1	1
03/08/06	7:59 a	-20.9	-20.9	-20.9	---	---	25.2	E	0.42	30.4	-36.1	---	---	729.4	0.027	0.000	18.4	1	1
03/08/06	8:00 a	-20.9	-20.9	-20.9	---	---	24.3	E	0.41	28.7	-35.9	---	---	729.5	0.027	0.000	18.4	1	1
03/08/06	8:01 a	-20.9	-20.9	-20.9	---	---	23.5	E	0.39	27.0	-35.7	---	---	729.3	0.027	0.000	18.3	1	1
03/08/06	8:02 a	-20.9	-20.9	-20.9	---	---	26.1	E	0.43	30.4	-36.3	---	---	729.3	0.027	0.000	18.3	1	1
03/08/06	8:03 a	-20.9	-20.8	-20.9	---	---	23.5	E	0.39	27.0	-35.7	---	---	729.6	0.027	0.000	18.3	1	1
03/08/06	8:04 a	-20.8	-20.8	-20.9	---	---	23.5	E	0.39	28.7	-35.6	---	---	729.5	0.027	0.000	18.3	1	1
03/08/06	8:05 a	-20.9	-20.9	-20.9	---	---	25.2	E	0.42	29.6	-36.1	---	---	729.2	0.027	0.000	18.3	1	1
03/08/06	8:06 a	-20.9	-20.9	-20.9	---	---	24.3	E	0.41	27.8	-35.9	---	---	729.4	0.027	0.000	18.3	1	1
03/08/06	8:07 a	-20.9	-20.9	-20.9	---	---	22.6	E	0.38	26.1	-35.5	---	---	729.4	0.027	0.000	18.3	1	1
03/08/06	8:08 a	-20.9	-20.8	-20.9	---	---	22.6	E	0.38	27.0	-35.5	---	---	729.3	0.027	0.000	18.3	1	1
03/08/06	8:09 a	-20.8	-20.8	-20.9	---	---	23.5	E	0.39	27.8	-35.6	---	---	729.3	0.027	0.000	18.3	1	1
03/08/06	8:10 a	-20.8	-20.8	-20.9	---	---	25.2	E	0.42	31.3	-36.1	---	---	729.4	0.027	0.000	18.3	1	1
03/08/06	8:11 a	-20.8	-20.8	-20.9	---	---	25.2	E	0.42	28.7	-36.1	---	---	729.6	0.027	0.000	18.3	1	1
03/08/06	8:12 a	-20.8	-20.8	-20.9	---	---	19.1	E	0.32	24.3	-34.5	---	---	729.4	0.027	0.000	18.3	1	1
03/08/06	8:13 a	-20.8	-20.8	-20.9	---	---	24.3	E	0.41	30.4	-35.8	---	---	729.1	0.027	0.000	18.3	1	1
03/08/06	8:14 a	-20.8	-20.8	-20.9	---	---	26.1	E	0.43	30.4	-36.2	---	---	729.4	0.027	0.000	18.3	1	1
03/08/06	8:15 a	-20.8	-20.8	-20.9	---	---	24.3	E	0.41	27.0	-35.8	---	---	729.5	0.027	0.000	18.3	1	1
03/08/06	8:16 a	-20.9	-20.8	-20.9	---	---	21.7	E	0.36	25.2	-35.3	---	---	729.5	0.027	0.000	18.3	1	1
03/08/06	8:17 a	-20.9	-20.9	-20.9	---	---	20.9	E	0.35	23.5	-35.1	---	---	729.5	0.027	0.000	18.3	1	1
03/08/06	8:18 a	-20.9	-20.9	-20.9	---	---	20.9	E	0.35	26.1	-35.1	---	---	729.4	0.027	0.000	18.2	1	1
03/08/06	8:19 a	-20.9	-20.9	-20.9	---	---	22.6	E	0.38	27.0	-35.5	---	---	729.3	0.027	0.000	18.2	1	1
03/08/06	8:20 a	-20.9	-20.9	-20.9	---	---	26.1	E	0.43	31.3	-36.3	---	---	729.3	0.027	0.000	18.2	1	1
03/08/06	8:21 a	-20.9	-20.9	-20.9	---	---	24.3	E	0.41	28.7	-35.9	---	---	729.5	0.027	0.000	18.2	1	1
03/08/06	8:22 a	-20.9	-20.9	-20.9	---	---	20.9	E	0.35	26.1	-35.1	---	---	729.5	0.027	0.000	18.2	1	1
03/08/06	8:23 a	-20.9	-20.9	-20.9	---	---	21.7	E	0.36	27.8	-35.3	---	---	729.3	0.027	0.000	18.2	1	1
03/08/06	8:24 a	-20.9	-20.9	-20.9	---	---	23.5	E	0.39	28.7	-35.8	---	---	729.3	0.027	0.000	18.2	1	1
03/08/06	8:25 a	-20.9	-20.9	-20.9	---	---	27.0	E	0.45	30.4	-36.6	---	---	729.2	0.027	0.000	18.2	1	1
03/08/06	8:26 a	-20.9	-20.9	-20.9	---	---	24.3	E	0.41	30.4	-36.0	---	---	729.4	0.027	0.000	18.2	1	1
03/08/06	8:27 a	-20.9	-20.9	-21.0	---	---	23.5	E	0.39	27.0	-35.8	---	---	729.4	0.027	0.000	18.2	1	1
03/08/06	8:28 a	-20.9	-20.9	-20.9	---	---	22.6	E	0.38	27.0	-35.6	---	---	729.5	0.027	0.000	18.2	1	1
03/08/06	8:29 a	-20.9	-20.9	-20.9	---	---	20.9	E	0.35	24.3	-35.1	---	---	729.5	0.027	0.000	18.2	1	1
03/08/06	8:30 a	-20.9	-20.9	-20.9	---	---	24.3	E	0.41	30.4	-36.0	---	---	729.3	0.027	0.000	18.2	1	1
03/08/06	8:31 a	-20.9	-20.9	-20.9	---	---	26.1	E	0.43	28.7	-36.4	---	---	729.5	0.027	0.000	18.2	1	1
03/08/06	8:32 a	-20.9	-20.9	-20.9	---	---	22.6	E	0.38	28.7	-35.6	---	---	729.7	0.027	0.000	18.2	1	1
03/08/06	8:33 a	-20.9	-20.9	-20.9	---	---	14.8	E	0.25	20.9	-33.2	---	---	729.8	0.027	0.000	18.2	1	1
03/08/06	8:34 a	-20.9	-20.9	-20.9	---	---	16.5	E	0.28	20.9	-33.7	---	---	729.6	0.027	0.000	18.1	1	1
03/08/06	8:35 a	-20.9	-20.9	-20.9	---	---	24.3	E	0.41	32.2	-35.9	---	---	729.3	0.027	0.000	18.2	1	1
03/08/06	8:36 a	-20.9	-20.9	-20.9	---	---	25.2	E	0.42	28.7	-36.1	---	---	729.4	0.027	0.000	18.2	1	1
03/08/06	8:37 a	-20.9	-20.9	-20.9	---	---	26.1	E	0.43	31.3	-36.3	---	---	729.6	0.027	0.000	18.2	1	1
03/08/06	8:38 a	-20.9	-20.8	-20.9	---	---	23.5	E	0.39	27.0	-35.7	---	---	729.6	0.027	0.000	18.2	1	1
03/08/06	8:39 a	-20.8	-20.8	-20.9	---	---	23.5	E	0.39	27.8	-35.6	---	---	729.8	0.027	0.000	18.2	1	1
03/08/06	8:40 a	-20.8	-20.8	-20.8	---	---	21.7	E	0.36	22.6	-35.2	---	---	729.9	0.027	0.000	18.2	1	1
03/08/06	8:41 a	-20.8	-20.8	-20.8	---	---	19.1	E	0.32	22.6	-34.5	---	---	729.9	0.027	0.000	18.3	1	1
03/08/06	8:42 a	-20.8	-20.8	-20.8	---	---	19.1	E	0.32	22.6	-34.5	---	---	729.7	0.027	0.000	18.3	1	1
03/08/06	8:43 a	-20.8	-20.8	-20.9	---	---	23.5	E	0.39	27.0	-35.6	---	---	729.5	0.027	0.000	18.3	1	1
03/08/06	8:44 a	-20.9	-20.8	-20.9	---	---	23.5	E	0.39	27.0	-35.7	---	---	729.6	0.027	0.000	18.3	1	1
03/08/06	8:45 a	-20.9	-20.9	-20.9	---	---	24.3	E	0.41	27.0	-35.9	---	---	729.6	0.027	0.000	18.4	1	1
03/08/06	8:46 a	-20.9	-20.9	-20.9	---	---	22.6	E	0.38	27.0	-35.5	---	---	729.6	0.027	0.000	18.4	1	1
03/08/06	8:47 a	-20.9	-20.9	-20.9	---	---	23.5	E	0.39	28.7	-35.8	---	---	729.5	0.027	0.000	18.4	1	1
03/08/06	8:48 a	-20.9	-20.9	-20.9	---	---	24.3	E	0.41	27.0	-36.0	---	---	729.5	0.027	0.000	18.4	1	1
03/08/06	8:49 a	-20.9	-20.9	-21.0	---	---	22.6	E	0.38	25.2	-35.6	---	---	729.7	0.027	0.000	18.4	1	1
03/08/06	8:50 a	-20.9	-20.9	-21.0	---	---	20.9	E	0.35	25.2	-35.1	---	---	729.8	0.027	0.000	18.4	1	1
03/08/06	8:51 a	-20.9	-20.9	-21.0	---	---	19.1	E	0.32	22.6	-34.6	---	---	729.6	0.027	0.000	18.4	1	1
03/08/06	8:52 a	-21.0	-20.9	-21.0	---	---	22.6	E	0.38	27.8	-35.7	---	---	729.5	0.027	0.000	18.3	1	1
03/08/06	8:53 a	-20.9	-20.9	-20.9	---	---	23.5	E	0.39	27.0	-35.8	---	---	729.4	0.027	0.000	18.3	1	1
03/08/06	8:54 a	-20.9	-20.9	-20.9	---	---	25.2	E	0.42	27.8	-36.2	---	---	729.4	0.027	0.000	18.3	1	1
03/08/06	8:55 a	-20.9	-20.9	-20.9	---	---	24.3	E	0.41	28.7	-36.0	---	---	729.5	0.027	0.000	18.3	1	1
03/08/06	8:56 a	-20.9	-20.9	-20.9	---	---	24.3	E	0.41	27.8	-35.9	---	---	729.6	0.027	0.000	18.3	1	1
03/08/06	8:57 a	-20.9	-20.9	-20.9	---	---	21.7	E	0.36	25.2	-35.3	---	---	729.7	0.027	0.000	18.3	1	1
03/08/06	8:58 a	-20.9	-20.9	-20.9	---	---	22.6	E	0.38	26.1	-35.6	---	---	729.4	0.027	0.000	18.3	1	1
03/08/06	8:59 a	-20.9	-20.9	-20.9	---	---	23.5	E	0.39	27.8	-35.8	---	---	729.4	0.027	0.000	18.3	1	1
03/08/06	9:00 a	-20.9	-20.9	-20.9	---	---	25.2	E	0.42	29.6	-36.2	---	---	729.6	0.027	0.000	18.3	1	1
03/08/06	9:01 a	-20.9	-20.9	-20.9	---	---	19.1	E	0.32	27.0	-34.6	---	---	729.7	0.027	0.000	18.3	1	1
03/08/06	9:02 a	-20.9	-20.9	-20.9	---	---	19.1	E	0.32	22.6	-34.6	---	---	729.7	0.027	0.000	18.3	1	1
03/08/06	9:03 a	-20.9	-20.9	-21.0	---	---	20.0	E	0.33	23.5	-34.9	---	---	729.7	0.027	0.000	18.3	1	1
03/08/06	9:04 a	-20.9	-20.9	-21.0	---	---	22.6	E	0.38	28.7	-35.6	---	---	729.5	0.027	0.000	18.3	1	1
03/08/06	9:05 a	-20.9	-20.9	-21.0	---	---	27.0	E	0.45	30.4	-36.6	---	---	729.7	0.027	0.000	18.3	1	1
03/08/06	9:06 a	-21.0	-20.9	-21.0	---	---	25.2	ENE	0.42	28.7	-36.3	---	---	729.8	0.027	0.000	18.3	1	1
03/08/06	9:07 a	-21.0	-21.0	-21.0	---	---	20.0	ENE	0.33	23.5	-34.9	---	---	730.0	0.027	0.000	18.3	1	1
03/08/06	9:08 a	-21.0	-21.0	-21.0	---	---	18.3	ENE	0.30	22.6	-34.4	---	---	729.9	0.027	0.000	18.3	1	1
03/08/06	9:09 a	-21.0	-21.0	-21.0	---	---	18.3	E	0.30	23.5	-34.4	---	---	729.7	0.027	0.000	18.3	1	1
03/08/06	9:10 a	-21.0	-21.0	-21.0	---	---	23.5	E	0.39	31.3	-35.8	---	---	729.5	0.027	0.000	18.3	1	1
03/08/06	9:11 a	-21.0	-21.0	-21.0	---	---	24.3	E	0.41	27.0	-36.1	---	---	729.6	0.027	0.000	18.3	1	1
03/08/06	9:12 a	-21.0	-21.0	-21.0	---	---	21.7	E	0.36	27.8	-35.4	---	---	729.5	0.027	0.000	18.3	1	1
03/08/06	9:13 a	-21.0	-21.0	-21.0	---	---	25.2	E	0.42	29.6	-36.3	---	---	729.6	0.027	0.000	18.2	1	1
03/08/06	9:14 a	-21.0	-21.0	-21.0	---	---	27.0	E	0.45	29.6	-36.7	---	---	729.8	0.027	0.000	18.2	1	1
03/08/06	9:15 a	-21.0	-20.9	-21.0	---	---	23.5	E	0.39	27.8	-35.8	---	---	729.7	0.027	0.000	18.2	1	1
03/08/06	9:16 a	-21.0	-20.9	-21.0	---	---	25.2	E	0.42	28.7	-36.3	---	---	729.7	0.027	0.000	18.2	1	1
03/08/06	9:17 a	-20.9	-20.9	-20.9	---	---	23.5	E	0.39	27.8	-35.8	---	---	729.8	0.027	0.000	18.2	1	1
03/08/06	9:18 a	-20.9	-20.9	-21.0	---	---	22.6	E	0.38	27.0	-35.6	---	---	729.8	0.027	0.000	18.2	1	1
03/08/06	9:19 a	-20.9	-20.9	-20.9	---	---	21.7	E	0.36	26.1	-35.3	---	---	729.8	0.027	0.000	18.2	1	1
03/08/06	9:20 a	-20.9	-20.9	-20.9	---	---	22.6	E	0.38	27.0	-35.6	---	---	729.8	0.027	0.000	18.2	1	1
03/08/06	9:21 a	-20.9	-20.9	-20.9	---	---	20.9	E	0.35	25.2	-35.1	---	---	729.9	0.027	0.000	18.2	1	1
03/08/06	9:22 a	-20.9	-20.8	-20.9	---	---	22.6	E	0.38	26.1	-35.5	---	---	729.9	0.027	0.000	18.2	1	1
03/08/06	9:23 a	-20.9	-20.8	-20.9	---	---	21.7	E	0.36	24.3	-35.3	---	---	729.9	0.027	0.000	18.2	1	1
03/08/06	9:24 a	-20.8	-20.8	-20.8	---	---	21.7	E	0.36	27.0	-35.2	---	---	729.8	0.027	0.000	18.2	1	1
03/08/06	9:25 a	-20.8	-20.8	-20.8	---	---	23.5	E	0.39	26.1	-35.6	---	---	729.9	0.027	0.000	18.2	1	1
03/08/06	9:26 a	-20.8	-20.8	-20.8	---	---	21.7	E	0.36	25.2	-35.2	---	---	729.8	0.027	0.000	18.2	1	1
03/08/06	9:27 a	-20.8	-20.8	-20.8	---	---	22.6	E	0.38	25.2	-35.4	---	---	729.9	0.027	0.000	18.2	1	1
03/08/06	9:28 a	-20.9	-20.8	-20.9	---	---	23.5	E	0.39	27.0	-35.7	---	---	729.8	0.027	0.000	18.2	1	1
03/08/06	9:29 a	-20.9	-20.9	-20.9	---	---	23.5	ENE	0.39	28.7	-35.7	---	---	729.8	0.027	0.000	18.2	1	1
03/08/06	9:30 a	-20.9	-20.9	-20.9	---	---	21.7	E	0.36	26.1	-35.3	---	---	729.8	0.027	0.000	18.2	1	1
03/08/06	9:31 a	-20.9	-20.9	-20.9	---	---	21.7	ENE	0.36	27.0	-35.3	---	---	729.8	0.027	0.000	18.2	1	1
03/08/06	9:32 a	-20.9	-20.9	-20.9	---	---	24.3	E	0.41	26.1	-35.9	---	---	729.9	0.027	0.000	18.3	1	1
03/08/06	9:33 a	-20.9	-20.9	-20.9	---	---	22.6	E	0.38	27.8	-35.5	---	---	729.8	0.027	0.000	18.3	1	1
03/08/06	9:34 a	-20.9	-20.8	-20.9	---	---	23.5	E	0.39	27.8	-35.7	---	---	729.9	0.027	0.000	18.3	1	1
03/08/06	9:35 a	-20.8	-20.8	-20.9	---	---	23.5	E	0.39	27.0	-35.6	---	---	729.8	0.027	0.000	18.3	1	1
03/08/06	9:36 a	-20.8	-20.8	-20.8	---	---	20.9	E	0.35	24.3	-34.9	---	---	729.8	0.027	0.000	18.3	1	1
03/08/06	9:37 a	-20.8	-20.8	-20.8	---	---	21.7	E	0.36	24.3	-35.1	---	---	729.8	0.027	0.000	18.4	1	1
03/08/06	9:38 a	-20.8	-20.8	-20.8	---	---	22.6	E	0.38	25.2	-35.3	---	---	729.9	0.027	0.000	18.4	1	1
03/08/06	9:39 a	-20.8	-20.7	-20.8	---	---	20.0	E	0.33	24.3	-34.7	---	---	729.8	0.027	0.000	18.4	1	1
03/08/06	9:40 a	-20.8	-20.7	-20.8	---	---	24.3	E	0.41	28.7	-35.8	---	---	729.8	0.027	0.000	18.3	1	1
03/08/06	9:41 a	-20.7	-20.7	-20.8	---	---	24.3	ENE	0.41	27.0	-35.7	---	---	729.8	0.027	0.000	18.4	1	1
03/08/06	9:42 a	-20.8	-20.7	-20.8	---	---	23.5	ENE	0.39	27.0	-35.6	---	---	729.9	0.027	0.000	18.4	1	1
03/08/06	9:43 a	-20.8	-20.8	-20.8	---	---	22.6	E	0.38	25.2	-35.3	---	---	729.9	0.027	0.000	18.3	1	1
03/08/06	9:44 a	-20.8	-20.8	-20.8	---	---	21.7	E	0.36	27.0	-35.1	---	---	729.9	0.027	0.000	18.3	1	1
03/08/06	9:45 a	-20.8	-20.8	-20.8	---	---	25.2	ENE	0.42	27.8	-35.9	---	---	730.0	0.027	0.000	18.3	1	1
03/08/06	9:46 a	-20.8	-20.8	-20.8	---	---	23.5	ENE	0.39	27.0	-35.6	---	---	730.0	0.027	0.000	18.3	1	1
03/08/06	9:47 a	-20.8	-20.8	-20.8	---	---	20.0	ENE	0.33	23.5	-34.7	---	---	730.0	0.027	0.000	18.3	1	1
03/08/06	9:48 a	-20.8	-20.7	-20.8	---	---	20.0	E	0.33	23.5	-34.7	---	---	729.8	0.027	0.000	18.3	1	1
03/08/06	9:49 a	-20.8	-20.8	-20.8	---	---	22.6	E	0.38	27.8	-35.3	---	---	729.9	0.027	0.000	18.3	1	1
03/08/06	9:50 a	-20.7	-20.7	-20.8	---	---	21.7	E	0.36	25.2	-35.1	---	---	729.9	0.027	0.000	18.3	1	1
03/08/06	9:51 a	-20.7	-20.7	-20.8	---	---	21.7	E	0.36	25.2	-35.1	---	---	729.9	0.027	0.000	18.3	1	1
03/08/06	9:52 a	-20.7	-20.7	-20.8	---	---	24.3	ENE	0.41	30.4	-35.7	---	---	729.8	0.027	0.000	18.3	1	1
03/08/06	9:53 a	-20.7	-20.7	-20.7	---	---	22.6	E	0.38	26.1	-35.3	---	---	730.0	0.027	0.000	18.3	1	1
03/08/06	9:54 a	-20.7	-20.7	-20.8	---	---	21.7	E	0.36	26.1	-35.1	---	---	729.9	0.027	0.000	18.3	1	1
03/08/06	9:55 a	-20.8	-20.7	-20.8	---	---	23.5	E	0.39	27.0	-35.6	---	---	730.0	0.027	0.000	18.3	1	1
03/08/06	9:56 a	-20.8	-20.8	-20.8	---	---	23.5	E	0.39	27.0	-35.6	---	---	730.0	0.027	0.000	18.3	1	1
03/08/06	9:57 a	-20.8	-20.8	-20.8	---	---	23.5	E	0.39	25.2	-35.6	---	---	730.0	0.027	0.000	18.3	1	1
03/08/06	9:58 a	-20.8	-20.8	-20.8	---	---	21.7	ENE	0.36	23.5	-35.1	---	---	730.1	0.027	0.000	18.3	1	1
03/08/06	9:59 a	-20.8	-20.8	-20.8	---	---	17.4	E	0.29	23.5	-33.9	---	---	730.1	0.027	0.000	18.3	1	1
03/08/06	10:00 a	-20.8	-20.8	-20.8	---	---	20.9	E	0.35	25.2	-34.9	---	---	729.9	0.027	0.000	18.3	1	1
03/08/06	10:01 a	-20.8	-20.8	-20.8	---	---	24.3	E	0.41	28.7	-35.8	---	---	729.8	0.027	0.000	18.2	1	1
03/08/06	10:02 a	-20.8	-20.8	-20.8	---	---	24.3	E	0.41	27.8	-35.8	---	---	729.9	0.027	0.000	18.2	1	1
03/08/06	10:03 a	-20.8	-20.8	-20.8	---	---	23.5	ENE	0.39	26.1	-35.6	---	---	730.1	0.027	0.000	18.2	1	1
03/08/06	10:04 a	-20.8	-20.8	-20.8	---	---	20.0	E	0.33	23.5	-34.7	---	---	730.2	0.027	0.000	18.2	1	1
03/08/06	10:05 a	-20.8	-20.8	-20.8	---	---	20.9	E	0.35	24.3	-34.9	---	---	730.1	0.027	0.000	18.2	1	1
03/08/06	10:06 a	-20.8	-20.8	-20.8	---	---	21.7	E	0.36	25.2	-35.1	---	---	730.0	0.027	0.000	18.2	1	1
03/08/06	10:07 a	-20.8	-20.8	-20.8	---	---	20.9	E	0.35	24.3	-34.9	---	---	730.0	0.027	0.000	18.2	1	1
03/08/06	10:08 a	-20.8	-20.8	-20.8	---	---	23.5	E	0.39	27.8	-35.6	---	---	729.9	0.027	0.000	18.2	1	1
03/08/06	10:09 a	-20.8	-20.8	-20.8	---	---	26.1	ENE	0.43	30.4	-36.2	---	---	730.0	0.027	0.000	18.2	1	1
03/08/06	10:10 a	-20.8	-20.8	-20.8	---	---	24.3	ENE	0.41	25.2	-35.8	---	---	730.2	0.027	0.000	18.2	1	1
03/08/06	10:11 a	-20.7	-20.7	-20.8	---	---	18.3	E	0.30	21.7	-34.1	---	---	730.3	0.027	0.000	18.2	1	1
03/08/06	10:12 a	-20.7	-20.7	-20.7	---	---	18.3	ENE	0.30	20.9	-34.1	---	---	730.2	0.027	0.000	18.2	1	1
03/08/06	10:13 a	-20.7	-20.7	-20.7	---	---	20.0	ENE	0.33	23.5	-34.6	---	---	730.2	0.027	0.000	18.2	1	1
03/08/06	10:14 a	-20.7	-20.7	-20.7	---	---	21.7	E	0.36	25.2	-35.1	---	---	730.0	0.027	0.000	18.2	1	1
03/08/06	10:15 a	-20.7	-20.7	-20.7	---	---	24.3	E	0.41	27.8	-35.7	---	---	730.0	0.027	0.000	18.2	1	1
03/08/06	10:16 a	-20.7	-20.7	-20.7	---	---	24.3	E	0.41	27.8	-35.7	---	---	730.1	0.027	0.000	18.2	1	1
03/08/06	10:17 a	-20.7	-20.7	-20.7	---	---	22.6	ENE	0.38	25.2	-35.3	---	---	730.2	0.027	0.000	18.2	1	1
03/08/06	10:18 a	-20.7	-20.7	-20.7	---	---	20.0	ENE	0.33	23.5	-34.5	---	---	730.1	0.027	0.000	18.2	1	1
03/08/06	10:19 a	-20.7	-20.7	-20.7	---	---	21.7	E	0.36	26.1	-34.9	---	---	729.9	0.027	0.000	18.2	1	1
03/08/06	10:20 a	-20.7	-20.7	-20.7	---	---	24.3	E	0.41	27.8	-35.7	---	---	730.0	0.027	0.000	18.2	1	1
03/08/06	10:21 a	-20.7	-20.7	-20.7	---	---	19.1	E	0.32	22.6	-34.3	---	---	729.9	0.027	0.000	18.2	1	1
03/08/06	10:22 a	-20.7	-20.7	-20.7	---	---	20.0	E	0.33	25.2	-34.5	---	---	729.9	0.027	0.000	18.2	1	1
03/08/06	10:23 a	-20.7	-20.7	-20.7	---	---	23.5	E	0.39	26.1	-35.5	---	---	730.1	0.027	0.000	18.2	1	1
03/08/06	10:24 a	-20.7	-20.7	-20.7	---	---	20.9	E	0.35	26.1	-34.7	---	---	730.1	0.027	0.000	18.3	1	1
03/08/06	10:25 a	-20.7	-20.7	-20.7	---	---	18.3	E	0.30	25.2	-34.1	---	---	730.0	0.027	0.000	18.3	1	1
03/08/06	10:26 a	-20.7	-20.7	-20.7	---	---	22.6	E	0.38	28.7	-35.2	---	---	729.9	0.027	0.000	18.3	1	1
03/08/06	10:27 a	-20.7	-20.7	-20.7	---	---	24.3	E	0.41	29.6	-35.6	---	---	730.1	0.027	0.000	18.3	1	1
03/08/06	10:28 a	-20.7	-20.7	-20.7	---	---	19.1	E	0.32	24.3	-34.3	---	---	730.3	0.027	0.000	18.4	1	1
03/08/06	10:29 a	-20.7	-20.7	-20.7	---	---	18.3	ENE	0.30	22.6	-34.0	---	---	730.3	0.027	0.000	18.4	1	1
03/08/06	10:30 a	-20.7	-20.7	-20.7	---	---	20.0	E	0.33	23.5	-34.5	---	---	729.9	0.027	0.000	18.4	1	1
03/08/06	10:31 a	-20.7	-20.6	-20.7	---	---	25.2	E	0.42	29.6	-35.8	---	---	729.8	0.027	0.000	18.4	1	1
03/08/06	10:32 a	-20.7	-20.7	-20.7	---	---	23.5	E	0.39	28.7	-35.4	---	---	730.0	0.027	0.000	18.4	1	1
03/08/06	10:33 a	-20.7	-20.7	-20.7	---	---	23.5	E	0.39	26.1	-35.4	---	---	729.9	0.027	0.000	18.4	1	1
03/08/06	10:34 a	-20.7	-20.6	-20.7	---	---	22.6	E	0.38	26.1	-35.2	---	---	730.0	0.027	0.000	18.4	1	1
03/08/06	10:35 a	-20.7	-20.7	-20.7	---	---	21.7	E	0.36	26.1	-34.9	---	---	730.0	0.027	0.000	18.4	1	1
03/08/06	10:36 a	-20.7	-20.7	-20.7	---	---	21.7	E	0.36	27.0	-34.9	---	---	729.9	0.027	0.000	18.4	1	1
03/08/06	10:37 a	-20.7	-20.7	-20.7	---	---	20.9	E	0.35	24.3	-34.7	---	---	729.9	0.027	0.000	18.4	1	1
03/08/06	10:38 a	-20.7	-20.7	-20.7	---	---	22.6	E	0.38	27.0	-35.2	---	---	730.0	0.027	0.000	18.4	1	1
03/08/06	10:39 a	-20.7	-20.7	-20.7	---	---	21.7	E	0.36	27.0	-34.9	---	---	729.9	0.027	0.000	18.4	1	1
03/08/06	10:40 a	-20.7	-20.7	-20.7	---	---	23.5	E	0.39	27.8	-35.5	---	---	729.9	0.027	0.000	18.4	1	1
03/08/06	10:41 a	-20.7	-20.7	-20.7	---	---	24.3	E	0.41	28.7	-35.7	---	---	729.8	0.027	0.000	18.4	1	1
03/08/06	10:42 a	-20.7	-20.7	-20.7	---	---	24.3	E	0.41	28.7	-35.7	---	---	729.8	0.027	0.000	18.4	1	1
03/08/06	10:43 a	-20.7	-20.7	-20.7	---	---	21.7	E	0.36	27.0	-34.9	---	---	729.9	0.027	0.000	18.4	1	1
03/08/06	10:44 a	-20.7	-20.7	-20.7	---	---	23.5	E	0.39	29.6	-35.5	---	---	729.8	0.027	0.000	18.4	1	1
03/08/06	10:45 a	-20.7	-20.7	-20.7	---	---	26.1	E	0.43	29.6	-36.1	---	---	729.9	0.027	0.000	18.4	1	1
03/08/06	10:46 a	-20.7	-20.7	-20.7	---	---	26.1	ENE	0.43	29.6	-36.1	---	---	729.9	0.027	0.000	18.4	1	1
03/08/06	10:47 a	-20.7	-20.7	-20.8	---	---	24.3	E	0.41	27.8	-35.7	---	---	730.1	0.027	0.000	18.4	1	1
03/08/06	10:48 a	-20.7	-20.7	-20.8	---	---	22.6	ENE	0.38	27.0	-35.3	---	---	730.1	0.027	0.000	18.4	1	1
03/08/06	10:49 a	-20.7	-20.7	-20.8	---	---	23.5	E	0.39	27.8	-35.5	---	---	729.9	0.027	0.000	18.4	1	1
03/08/06	10:50 a	-20.8	-20.8	-20.8	---	---	22.6	E	0.38	27.0	-35.3	---	---	730.0	0.027	0.000	18.4	1	1
03/08/06	10:51 a	-20.8	-20.8	-20.8	---	---	21.7	E	0.36	26.1	-35.1	---	---	730.0	0.027	0.000	18.4	1	1
03/08/06	10:52 a	-20.8	-20.7	-20.8	---	---	24.3	E	0.41	29.6	-35.8	---	---	730.0	0.027	0.000	18.4	1	1
03/08/06	10:53 a	-20.7	-20.7	-20.8	---	---	22.6	E	0.38	25.2	-35.3	---	---	730.1	0.027	0.000	18.4	1	1
03/08/06	10:54 a	-20.8	-20.7	-20.8	---	---	23.5	E	0.39	27.8	-35.6	---	---	730.1	0.027	0.000	18.3	1	1
03/08/06	10:55 a	-20.8	-20.7	-20.8	---	---	22.6	E	0.38	27.8	-35.3	---	---	730.1	0.027	0.000	18.3	1	1
03/08/06	10:56 a	-20.7	-20.7	-20.7	---	---	21.7	E	0.36	27.0	-35.1	---	---	729.9	0.027	0.000	18.3	1	1
03/08/06	10:57 a	-20.7	-20.7	-20.7	---	---	23.5	E	0.39	27.8	-35.5	---	---	730.1	0.027	0.000	18.3	1	1
03/08/06	10:58 a	-20.7	-20.7	-20.8	---	---	19.1	E	0.32	23.5	-34.3	---	---	730.2	0.027	0.000	18.3	1	1
03/08/06	10:59 a	-20.7	-20.7	-20.8	---	---	19.1	E	0.32	22.6	-34.3	---	---	730.0	0.027	0.000	18.3	1	1
03/08/06	11:00 a	-20.7	-20.7	-20.8	---	---	20.0	E	0.33	25.2	-34.6	---	---	730.2	0.027	0.000	18.3	1	1
03/08/06	11:01 a	-20.7	-20.7	-20.8	---	---	18.3	E	0.30	24.3	-34.1	---	---	730.1	0.027	0.000	18.3	1	1
03/08/06	11:02 a	-20.7	-20.7	-20.8	---	---	22.6	E	0.38	29.6	-35.3	---	---	729.9	0.027	0.000	18.3	1	1
03/08/06	11:03 a	-20.8	-20.7	-20.8	---	---	25.2	E	0.42	28.7	-35.9	---	---	730.0	0.027	0.000	18.3	1	1
03/08/06	11:04 a	-20.8	-20.7	-20.8	---	---	22.6	ENE	0.38	27.8	-35.3	---	---	730.1	0.027	0.000	18.3	1	1
03/08/06	11:05 a	-20.8	-20.7	-20.8	---	---	21.7	E	0.36	26.1	-35.1	---	---	730.0	0.027	0.000	18.2	1	1
03/08/06	11:06 a	-20.8	-20.7	-20.8	---	---	26.1	ENE	0.43	29.6	-36.2	---	---	730.2	0.027	0.000	18.2	1	1
03/08/06	11:07 a	-20.7	-20.7	-20.8	---	---	23.5	E	0.39	27.0	-35.5	---	---	730.2	0.027	0.000	18.2	1	1
03/08/06	11:08 a	-20.7	-20.7	-20.8	---	---	21.7	E	0.36	25.2	-35.1	---	---	730.3	0.027	0.000	18.2	1	1
03/08/06	11:09 a	-20.7	-20.7	-20.7	---	---	20.9	E	0.35	25.2	-34.8	---	---	730.3	0.027	0.000	18.2	1	1
03/08/06	11:10 a	-20.7	-20.7	-20.8	---	---	20.0	E	0.33	25.2	-34.6	---	---	730.1	0.027	0.000	18.2	1	1
03/08/06	11:11 a	-20.7	-20.7	-20.8	---	---	24.3	ENE	0.41	27.8	-35.7	---	---	730.2	0.027	0.000	18.2	1	1
03/08/06	11:12 a	-20.7	-20.7	-20.8	---	---	21.7	E	0.36	24.3	-35.1	---	---	730.3	0.027	0.000	18.1	1	1
03/08/06	11:13 a	-20.7	-20.7	-20.8	---	---	22.6	E	0.38	27.0	-35.3	---	---	730.1	0.027	0.000	18.1	1	1
03/08/06	11:14 a	-20.8	-20.7	-20.8	---	---	23.5	E	0.39	27.0	-35.6	---	---	730.1	0.027	0.000	18.1	1	1
03/08/06	11:15 a	-20.7	-20.7	-20.7	---	---	24.3	E	0.41	28.7	-35.7	---	---	730.1	0.027	0.000	18.1	1	1
03/08/06	11:16 a	-20.7	-20.7	-20.7	---	---	22.6	E	0.38	27.8	-35.3	---	---	730.1	0.027	0.000	18.1	1	1
03/08/06	11:17 a	-20.7	-20.7	-20.7	---	---	24.3	E	0.41	28.7	-35.7	---	---	730.3	0.027	0.000	18.1	1	1
03/08/06	11:18 a	-20.7	-20.7	-20.7	---	---	23.5	E	0.39	27.0	-35.5	---	---	730.3	0.027	0.000	18.1	1	1
03/08/06	11:19 a	-20.7	-20.7	-20.7	---	---	22.6	E	0.38	27.0	-35.3	---	---	730.3	0.027	0.000	18.1	1	1
03/08/06	11:20 a	-20.7	-20.7	-20.7	---	---	21.7	E	0.36	27.0	-35.1	---	---	730.2	0.027	0.000	18.1	1	1
03/08/06	11:21 a	-20.7	-20.7	-20.7	---	---	23.5	E	0.39	27.0	-35.5	---	---	730.1	0.027	0.000	18.1	1	1
03/08/06	11:22 a	-20.7	-20.7	-20.7	---	---	23.5	E	0.39	27.8	-35.5	---	---	730.0	0.027	0.000	18.1	1	1
03/08/06	11:23 a	-20.7	-20.7	-20.7	---	---	22.6	E	0.38	27.8	-35.3	---	---	730.2	0.027	0.000	18.2	1	1
03/08/06	11:24 a	-20.7	-20.7	-20.7	---	---	20.9	E	0.35	25.2	-34.8	---	---	730.1	0.027	0.000	18.2	1	1
03/08/06	11:25 a	-20.7	-20.7	-20.7	---	---	24.3	E	0.41	26.1	-35.7	---	---	730.1	0.027	0.000	18.2	1	1
03/08/06	11:26 a	-20.7	-20.7	-20.8	---	---	21.7	E	0.36	26.1	-35.1	---	---	730.2	0.027	0.000	18.3	1	1
03/08/06	11:27 a	-20.7	-20.7	-20.7	---	---	20.9	E	0.35	23.5	-34.8	---	---	730.2	0.027	0.000	18.3	1	1
03/08/06	11:28 a	-20.7	-20.7	-20.8	---	---	22.6	E	0.38	27.0	-35.3	---	---	730.3	0.027	0.000	18.3	1	1
03/08/06	11:29 a	-20.7	-20.7	-20.8	---	---	22.6	E	0.38	27.8	-35.3	---	---	730.1	0.027	0.000	18.3	1	1
03/08/06	11:30 a	-20.7	-20.7	-20.7	---	---	26.1	ENE	0.43	30.4	-36.1	---	---	730.2	0.027	0.000	18.4	1	1
03/08/06	11:31 a	-20.7	-20.7	-20.7	---	---	24.3	ENE	0.41	28.7	-35.7	---	---	730.1	0.027	0.000	18.4	1	1
03/08/06	11:32 a	-20.7	-20.7	-20.7	---	---	24.3	E	0.41	27.8	-35.7	---	---	730.0	0.027	0.000	18.4	1	1
03/08/06	11:33 a	-20.7	-20.7	-20.7	---	---	24.3	E	0.41	27.0	-35.7	---	---	730.3	0.027	0.000	18.4	1	1
03/08/06	11:34 a	-20.7	-20.7	-20.7	---	---	22.6	ENE	0.38	24.3	-35.3	---	---	730.4	0.027	0.000	18.4	1	1
03/08/06	11:35 a	-20.7	-20.7	-20.7	---	---	20.0	E	0.33	24.3	-34.5	---	---	730.3	0.027	0.000	18.4	1	1
03/08/06	11:36 a	-20.7	-20.7	-20.7	---	---	20.0	E	0.33	26.1	-34.5	---	---	730.2	0.027	0.000	18.4	1	1
03/08/06	11:37 a	-20.7	-20.7	-20.7	---	---	25.2	E	0.42	27.8	-35.8	---	---	730.2	0.027	0.000	18.4	1	1
03/08/06	11:38 a	-20.7	-20.7	-20.7	---	---	23.5	ENE	0.39	25.2	-35.4	---	---	730.4	0.027	0.000	18.4	1	1
03/08/06	11:39 a	-20.7	-20.7	-20.7	---	---	20.0	E	0.33	27.0	-34.5	---	---	730.2	0.027	0.000	18.4	1	1
03/08/06	11:40 a	-20.7	-20.7	-20.7	---	---	25.2	E	0.42	28.7	-35.8	---	---	730.1	0.027	0.000	18.4	1	1
03/08/06	11:41 a	-20.7	-20.7	-20.7	---	---	22.6	E	0.38	27.8	-35.2	---	---	730.3	0.027	0.000	18.4	1	1
03/08/06	11:42 a	-20.7	-20.6	-20.7	---	---	20.9	E	0.35	23.5	-34.7	---	---	730.3	0.027	0.000	18.4	1	1
03/08/06	11:43 a	-20.6	-20.6	-20.7	---	---	23.5	E	0.39	28.7	-35.3	---	---	730.1	0.027	0.000	18.4	1	1
03/08/06	11:44 a	-20.6	-20.6	-20.7	---	---	24.3	E	0.41	27.0	-35.6	---	---	730.2	0.027	0.000	18.4	1	1
03/08/06	11:45 a	-20.6	-20.6	-20.7	---	---	21.7	E	0.36	25.2	-34.9	---	---	730.3	0.027	0.000	18.4	1	1
03/08/06	11:46 a	-20.7	-20.6	-20.7	---	---	20.0	E	0.33	23.5	-34.5	---	---	730.3	0.027	0.000	18.4	1	1
03/08/06	11:47 a	-20.7	-20.6	-20.7	---	---	24.3	E	0.41	27.8	-35.6	---	---	730.2	0.027	0.000	18.3	1	1
03/08/06	11:48 a	-20.6	-20.6	-20.6	---	---	26.1	E	0.43	28.7	-35.9	---	---	730.3	0.027	0.000	18.3	1	1
03/08/06	11:49 a	-20.7	-20.6	-20.7	---	---	21.7	ENE	0.36	26.1	-34.9	---	---	730.5	0.027	0.000	18.3	1	1
03/08/06	11:50 a	-20.6	-20.6	-20.6	---	---	18.3	E	0.30	21.7	-33.9	---	---	730.4	0.027	0.000	18.3	1	1
03/08/06	11:51 a	-20.6	-20.6	-20.6	---	---	19.1	E	0.32	26.1	-34.2	---	---	730.0	0.027	0.000	18.3	1	1
03/08/06	11:52 a	-20.6	-20.6	-20.6	---	---	27.0	E	0.45	30.4	-36.1	---	---	730.2	0.027	0.000	18.3	1	1
03/08/06	11:53 a	-20.6	-20.6	-20.6	---	---	24.3	E	0.41	28.7	-35.6	---	---	730.4	0.027	0.000	18.3	1	1
03/08/06	11:54 a	-20.6	-20.6	-20.6	---	---	20.9	E	0.35	25.2	-34.7	---	---	730.4	0.027	0.000	18.3	1	1
03/08/06	11:55 a	-20.6	-20.6	-20.6	---	---	21.7	E	0.36	25.2	-34.9	---	---	730.3	0.027	0.000	18.3	1	1
03/08/06	11:56 a	-20.6	-20.6	-20.6	---	---	21.7	E	0.36	28.7	-34.8	---	---	730.3	0.027	0.000	18.3	1	1
03/08/06	11:57 a	-20.6	-20.6	-20.6	---	---	23.5	E	0.39	27.8	-35.3	---	---	730.3	0.027	0.000	18.3	1	1
03/08/06	11:58 a	-20.6	-20.6	-20.6	---	---	22.6	E	0.38	25.2	-35.1	---	---	730.4	0.027	0.000	18.3	1	1
03/08/06	11:59 a	-20.6	-20.6	-20.6	---	---	23.5	E	0.39	26.1	-35.3	---	---	730.4	0.027	0.000	18.3	1	1
03/08/06	12:00 p	-20.6	-20.6	-20.6	---	---	23.5	E	0.39	27.8	-35.3	---	---	730.2	0.027	0.000	18.3	1	1
03/08/06	12:01 p	-20.6	-20.6	-20.6	---	---	25.2	E	0.42	29.6	-35.7	---	---	730.1	0.027	0.000	18.3	1	1
03/08/06	12:02 p	-20.6	-20.6	-20.6	---	---	24.3	ENE	0.41	27.8	-35.4	---	---	730.5	0.027	0.000	18.3	1	1
03/08/06	12:03 p	-20.6	-20.6	-20.6	---	---	21.7	ENE	0.36	25.2	-34.8	---	---	730.3	0.027	0.000	18.3	1	1
03/08/06	12:04 p	-20.6	-20.6	-20.6	---	---	22.6	E	0.38	25.2	-35.1	---	---	730.2	0.027	0.000	18.3	1	1
03/08/06	12:05 p	-20.6	-20.6	-20.6	---	---	23.5	E	0.39	27.0	-35.3	---	---	730.0	0.027	0.000	18.3	1	1
03/08/06	12:06 p	-20.6	-20.6	-20.6	---	---	25.2	E	0.42	28.7	-35.7	---	---	730.1	0.027	0.000	18.3	1	1
03/08/06	12:07 p	-20.6	-20.6	-20.6	---	---	24.3	ENE	0.41	27.0	-35.6	---	---	730.3	0.027	0.000	18.2	1	1
03/08/06	12:08 p	-20.6	-20.6	-20.6	---	---	23.5	ENE	0.39	27.8	-35.3	---	---	730.3	0.027	0.000	18.2	1	1
03/08/06	12:09 p	-20.6	-20.6	-20.6	---	---	22.6	ENE	0.38	25.2	-35.1	---	---	730.3	0.027	0.000	18.2	1	1
03/08/06	12:10 p	-20.6	-20.6	-20.6	---	---	21.7	E	0.36	24.3	-34.8	---	---	730.3	0.027	0.000	18.2	1	1
03/08/06	12:11 p	-20.6	-20.6	-20.6	---	---	21.7	E	0.36	26.1	-34.8	---	---	730.2	0.027	0.000	18.2	1	1
03/08/06	12:12 p	-20.6	-20.6	-20.6	---	---	24.3	E	0.41	27.8	-35.4	---	---	730.2	0.027	0.000	18.2	1	1
03/08/06	12:13 p	-20.6	-20.6	-20.6	---	---	25.2	ENE	0.42	27.8	-35.7	---	---	730.4	0.027	0.000	18.2	1	1
03/08/06	12:14 p	-20.6	-20.6	-20.6	---	---	22.6	E	0.38	26.1	-35.1	---	---	730.4	0.027	0.000	18.2	1	1
03/08/06	12:15 p	-20.6	-20.5	-20.6	---	---	20.9	ENE	0.35	25.2	-34.6	---	---	730.3	0.027	0.000	18.2	1	1
03/08/06	12:16 p	-20.6	-20.5	-20.6	---	---	20.9	E	0.35	23.5	-34.6	---	---	730.2	0.027	0.000	18.2	1	1
03/08/06	12:17 p	-20.6	-20.6	-20.6	---	---	25.2	E	0.42	29.6	-35.7	---	---	730.1	0.027	0.000	18.2	1	1
03/08/06	12:18 p	-20.6	-20.6	-20.6	---	---	26.1	E	0.43	29.6	-35.9	---	---	730.2	0.027	0.000	18.2	1	1
03/08/06	12:19 p	-20.6	-20.6	-20.6	---	---	24.3	E	0.41	26.1	-35.4	---	---	730.4	0.027	0.000	18.2	1	1
03/08/06	12:20 p	-20.6	-20.6	-20.6	---	---	21.7	E	0.36	26.1	-34.8	---	---	730.4	0.027	0.000	18.2	1	1
03/08/06	12:21 p	-20.6	-20.6	-20.6	---	---	20.9	E	0.35	25.2	-34.6	---	---	730.3	0.027	0.000	18.2	1	1
03/08/06	12:22 p	-20.6	-20.6	-20.6	---	---	21.7	E	0.36	24.3	-34.8	---	---	730.5	0.027	0.000	18.2	1	1
03/08/06	12:23 p	-20.6	-20.6	-20.6	---	---	22.6	ENE	0.38	24.3	-35.1	---	---	730.5	0.027	0.000	18.2	1	1
03/08/06	12:24 p	-20.6	-20.6	-20.6	---	---	20.9	ENE	0.35	24.3	-34.6	---	---	730.5	0.027	0.000	18.2	1	1
03/08/06	12:25 p	-20.6	-20.5	-20.6	---	---	20.9	ENE	0.35	23.5	-34.6	---	---	730.5	0.027	0.000	18.2	1	1
03/08/06	12:26 p	-20.6	-20.5	-20.6	---	---	21.7	ENE	0.36	24.3	-34.8	---	---	730.4	0.027	0.000	18.2	1	1
03/08/06	12:27 p	-20.5	-20.5	-20.6	---	---	23.5	E	0.39	27.8	-35.2	---	---	730.2	0.027	0.000	18.3	1	1
03/08/06	12:28 p	-20.5	-20.5	-20.6	---	---	25.2	E	0.42	27.0	-35.6	---	---	730.4	0.027	0.000	18.3	1	1
03/08/06	12:29 p	-20.5	-20.5	-20.6	---	---	23.5	E	0.39	26.1	-35.2	---	---	730.4	0.027	0.000	18.3	1	1
03/08/06	12:30 p	-20.5	-20.5	-20.5	---	---	22.6	E	0.38	26.1	-34.9	---	---	730.2	0.027	0.000	18.3	1	1
03/08/06	12:31 p	-20.5	-20.5	-20.5	---	---	22.6	E	0.38	26.1	-34.9	---	---	730.5	0.027	0.000	18.3	1	1
03/08/06	12:32 p	-20.5	-20.5	-20.6	---	---	20.0	E	0.33	23.5	-34.3	---	---	730.5	0.027	0.000	18.4	1	1
03/08/06	12:33 p	-20.5	-20.5	-20.6	---	---	17.4	E	0.29	20.9	-33.5	---	---	730.4	0.027	0.000	18.4	1	1
03/08/06	12:34 p	-20.5	-20.5	-20.6	---	---	20.9	E	0.35	25.2	-34.5	---	---	730.4	0.027	0.000	18.4	1	1
03/08/06	12:35 p	-20.5	-20.5	-20.5	---	---	21.7	E	0.36	24.3	-34.7	---	---	730.3	0.027	0.000	18.4	1	1
03/08/06	12:36 p	-20.5	-20.5	-20.6	---	---	25.2	E	0.42	28.7	-35.6	---	---	730.4	0.027	0.000	18.5	1	1
03/08/06	12:37 p	-20.5	-20.5	-20.5	---	---	21.7	E	0.36	26.1	-34.7	---	---	730.4	0.027	0.000	18.5	1	1
03/08/06	12:38 p	-20.5	-20.5	-20.5	---	---	22.6	ENE	0.38	25.2	-34.9	---	---	730.4	0.027	0.000	18.5	1	1
03/08/06	12:39 p	-20.5	-20.5	-20.5	---	---	23.5	E	0.39	26.1	-35.2	---	---	730.4	0.027	0.000	18.5	1	1
03/08/06	12:40 p	-20.5	-20.5	-20.5	---	---	23.5	ENE	0.39	27.0	-35.2	---	---	730.5	0.027	0.000	18.5	1	1
03/08/06	12:41 p	-20.5	-20.5	-20.5	---	---	20.9	ENE	0.35	24.3	-34.5	---	---	730.5	0.027	0.000	18.5	1	1
03/08/06	12:42 p	-20.5	-20.4	-20.5	---	---	21.7	E	0.36	27.0	-34.7	---	---	730.5	0.027	0.000	18.4	1	1
03/08/06	12:43 p	-20.5	-20.4	-20.5	---	---	20.0	E	0.33	22.6	-34.3	---	---	730.5	0.027	0.000	18.4	1	1
03/08/06	12:44 p	-20.4	-20.4	-20.5	---	---	17.4	E	0.29	22.6	-33.4	---	---	730.5	0.027	0.000	18.4	1	1
03/08/06	12:45 p	-20.4	-20.4	-20.5	---	---	19.1	E	0.32	23.5	-33.9	---	---	730.5	0.027	0.000	18.4	1	1
03/08/06	12:46 p	-20.4	-20.4	-20.5	---	---	20.0	E	0.33	25.2	-34.2	---	---	730.3	0.027	0.000	18.4	1	1
03/08/06	12:47 p	-20.5	-20.4	-20.5	---	---	21.7	E	0.36	26.1	-34.7	---	---	730.3	0.027	0.000	18.4	1	1
03/08/06	12:48 p	-20.4	-20.4	-20.5	---	---	23.5	E	0.39	27.0	-35.1	---	---	730.4	0.027	0.000	18.4	1	1
03/08/06	12:49 p	-20.5	-20.4	-20.5	---	---	21.7	E	0.36	27.0	-34.7	---	---	730.4	0.027	0.000	18.4	1	1
03/08/06	12:50 p	-20.5	-20.5	-20.5	---	---	22.6	ENE	0.38	25.2	-34.9	---	---	730.5	0.027	0.000	18.4	1	1
03/08/06	12:51 p	-20.5	-20.4	-20.5	---	---	23.5	E	0.39	27.0	-35.2	---	---	730.3	0.027	0.000	18.4	1	1
03/08/06	12:52 p	-20.5	-20.4	-20.5	---	---	24.3	E	0.41	27.8	-35.4	---	---	730.4	0.027	0.000	18.4	1	1
03/08/06	12:53 p	-20.4	-20.4	-20.5	---	---	24.3	E	0.41	27.0	-35.3	---	---	730.4	0.027	0.000	18.4	1	1
03/08/06	12:54 p	-20.4	-20.4	-20.5	---	---	22.6	E	0.38	25.2	-34.9	---	---	730.4	0.027	0.000	18.4	1	1
03/08/06	12:55 p	-20.4	-20.4	-20.4	---	---	22.6	E	0.38	27.0	-34.9	---	---	730.3	0.027	0.000	18.4	1	1
03/08/06	12:56 p	-20.4	-20.4	-20.4	---	---	21.7	E	0.36	27.0	-34.7	---	---	730.3	0.027	0.000	18.4	1	1
03/08/06	12:57 p	-20.4	-20.4	-20.4	---	---	20.0	E	0.33	24.3	-34.2	---	---	730.5	0.027	0.000	18.4	1	1
03/08/06	12:58 p	-20.4	-20.4	-20.4	---	---	25.2	E	0.42	27.8	-35.5	---	---	730.4	0.027	0.000	18.4	1	1
03/08/06	12:59 p	-20.4	-20.4	-20.4	---	---	26.1	E	0.43	28.7	-35.6	---	---	730.4	0.027	0.000	18.4	1	1
03/08/06	1:00 p	-20.4	-20.4	-20.4	---	---	22.6	E	0.38	27.0	-34.8	---	---	730.4	0.027	0.000	18.4	1	1
03/08/06	1:01 p	-20.4	-20.3	-20.4	---	---	23.5	E	0.39	27.8	-35.1	---	---	730.3	0.027	0.000	18.4	1	1
03/08/06	1:02 p	-20.3	-20.3	-20.4	---	---	27.0	E	0.45	29.6	-35.8	---	---	730.4	0.027	0.000	18.4	1	1
03/08/06	1:03 p	-20.3	-20.3	-20.4	---	---	23.5	E	0.39	27.8	-34.9	---	---	730.5	0.027	0.000	18.4	1	1
03/08/06	1:04 p	-20.3	-20.3	-20.3	---	---	21.7	ENE	0.36	25.2	-34.5	---	---	730.6	0.027	0.000	18.4	1	1
03/08/06	1:05 p	-20.3	-20.3	-20.3	---	---	21.7	ENE	0.36	26.1	-34.5	---	---	730.5	0.027	0.000	18.4	1	1
03/08/06	1:06 p	-20.3	-20.3	-20.3	---	---	23.5	E	0.39	26.1	-34.9	---	---	730.4	0.027	0.000	18.4	1	1
03/08/06	1:07 p	-20.3	-20.3	-20.3	---	---	23.5	E	0.39	27.0	-34.9	---	---	730.5	0.027	0.000	18.4	1	1
03/08/06	1:08 p	-20.3	-20.3	-20.3	---	---	20.9	E	0.35	23.5	-34.2	---	---	730.5	0.027	0.000	18.3	1	1
03/08/06	1:09 p	-20.3	-20.3	-20.3	---	---	20.0	ENE	0.33	23.5	-34.0	---	---	730.6	0.027	0.000	18.4	1	1
03/08/06	1:10 p	-20.3	-20.3	-20.3	---	---	22.6	ENE	0.38	26.1	-34.7	---	---	730.7	0.027	0.000	18.4	1	1
03/08/06	1:11 p	-20.3	-20.3	-20.3	---	---	20.9	E	0.35	24.3	-34.2	---	---	730.6	0.027	0.000	18.4	1	1
03/08/06	1:12 p	-20.3	-20.3	-20.3	---	---	23.5	E	0.39	28.7	-34.9	---	---	730.5	0.027	0.000	18.4	1	1
03/08/06	1:13 p	-20.3	-20.3	-20.3	---	---	26.1	E	0.43	30.4	-35.5	---	---	730.6	0.027	0.000	18.4	1	1
03/08/06	1:14 p	-20.3	-20.2	-20.3	---	---	23.5	ENE	0.39	27.8	-34.9	---	---	730.9	0.027	0.000	18.4	1	1
03/08/06	1:15 p	-20.3	-20.3	-20.3	---	---	18.3	ENE	0.30	22.6	-33.5	---	---	730.8	0.027	0.000	18.4	1	1
03/08/06	1:16 p	-20.3	-20.2	-20.3	---	---	18.3	E	0.30	23.5	-33.5	---	---	730.7	0.027	0.000	18.4	1	1
03/08/06	1:17 p	-20.3	-20.3	-20.3	---	---	20.0	E	0.33	28.7	-34.0	---	---	730.6	0.027	0.000	18.4	1	1
03/08/06	1:18 p	-20.3	-20.3	-20.3	---	---	24.3	E	0.41	27.8	-35.1	---	---	730.7	0.027	0.000	18.4	1	1
03/08/06	1:19 p	-20.3	-20.3	-20.3	---	---	21.7	ENE	0.36	24.3	-34.4	---	---	730.8	0.027	0.000	18.4	1	1
03/08/06	1:20 p	-20.3	-20.3	-20.3	---	---	21.7	ENE	0.36	24.3	-34.4	---	---	730.7	0.027	0.000	18.4	1	1
03/08/06	1:21 p	-20.3	-20.3	-20.3	---	---	24.3	ENE	0.41	26.1	-35.1	---	---	730.7	0.027	0.000	18.4	1	1
03/08/06	1:22 p	-20.3	-20.3	-20.3	---	---	23.5	ENE	0.39	26.1	-34.9	---	---	730.9	0.027	0.000	18.4	1	1
03/08/06	1:23 p	-20.3	-20.3	-20.3	---	---	18.3	ENE	0.30	21.7	-33.5	---	---	730.7	0.027	0.000	18.4	1	1
03/08/06	1:24 p	-20.3	-20.3	-20.3	---	---	19.1	E	0.32	23.5	-33.7	---	---	730.6	0.027	0.000	18.4	1	1
03/08/06	1:25 p	-20.3	-20.3	-20.3	---	---	20.0	E	0.33	24.3	-34.0	---	---	730.7	0.027	0.000	18.4	1	1
03/08/06	1:26 p	-20.3	-20.3	-20.3	---	---	22.6	E	0.38	25.2	-34.7	---	---	730.6	0.027	0.000	18.4	1	1
03/08/06	1:27 p	-20.3	-20.3	-20.3	---	---	21.7	E	0.36	26.1	-34.4	---	---	730.6	0.027	0.000	18.4	1	1
03/08/06	1:28 p	-20.3	-20.3	-20.3	---	---	21.7	E	0.36	25.2	-34.4	---	---	730.6	0.027	0.000	18.4	1	1
03/08/06	1:29 p	-20.3	-20.3	-20.3	---	---	19.1	E	0.32	22.6	-33.7	---	---	730.7	0.027	0.000	18.4	1	1
03/08/06	1:30 p	-20.3	-20.3	-20.3	---	---	20.0	E	0.33	24.3	-34.0	---	---	730.7	0.027	0.000	18.4	1	1
03/08/06	1:31 p	-20.3	-20.3	-20.3	---	---	21.7	E	0.36	24.3	-34.4	---	---	730.7	0.027	0.000	18.4	1	1
03/08/06	1:32 p	-20.3	-20.3	-20.3	---	---	21.7	E	0.36	25.2	-34.4	---	---	730.6	0.027	0.000	18.4	1	1
03/08/06	1:33 p	-20.3	-20.3	-20.3	---	---	20.9	E	0.35	23.5	-34.2	---	---	730.7	0.027	0.000	18.4	1	1
03/08/06	1:34 p	-20.3	-20.3	-20.3	---	---	20.9	E	0.35	24.3	-34.2	---	---	730.6	0.027	0.000	18.4	1	1
03/08/06	1:35 p	-20.3	-20.3	-20.3	---	---	20.9	ENE	0.35	24.3	-34.2	---	---	730.8	0.027	0.000	18.4	1	1
03/08/06	1:36 p	-20.3	-20.3	-20.3	---	---	20.0	E	0.33	24.3	-34.0	---	---	730.7	0.027	0.000	18.4	1	1
03/08/06	1:37 p	-20.3	-20.3	-20.3	---	---	22.6	E	0.38	26.1	-34.7	---	---	730.7	0.027	0.000	18.4	1	1
03/08/06	1:38 p	-20.3	-20.3	-20.3	---	---	20.9	ENE	0.35	24.3	-34.2	---	---	730.7	0.027	0.000	18.4	1	1
03/08/06	1:39 p	-20.3	-20.3	-20.3	---	---	23.5	E	0.39	27.0	-34.9	---	---	730.7	0.027	0.000	18.4	1	1
03/08/06	1:40 p	-20.3	-20.3	-20.3	---	---	21.7	ENE	0.36	24.3	-34.4	---	---	730.8	0.027	0.000	18.4	1	1
03/08/06	1:41 p	-20.3	-20.2	-20.3	---	---	20.9	E	0.35	25.2	-34.2	---	---	730.6	0.027	0.000	18.4	1	1
03/08/06	1:42 p	-20.3	-20.2	-20.3	---	---	20.0	E	0.33	25.2	-34.0	---	---	730.6	0.027	0.000	18.4	1	1
03/08/06	1:43 p	-20.3	-20.2	-20.3	---	---	20.0	E	0.33	24.3	-34.0	---	---	730.7	0.027	0.000	18.3	1	1
03/08/06	1:44 p	-20.3	-20.2	-20.3	---	---	22.6	E	0.38	27.0	-34.7	---	---	730.6	0.027	0.000	18.3	1	1
03/08/06	1:45 p	-20.3	-20.2	-20.3	---	---	23.5	E	0.39	27.0	-34.9	---	---	730.7	0.027	0.000	18.3	1	1
03/08/06	1:46 p	-20.3	-20.2	-20.3	---	---	22.6	E	0.38	25.2	-34.7	---	---	730.7	0.027	0.000	18.3	1	1
03/08/06	1:47 p	-20.2	-20.2	-20.2	---	---	22.6	E	0.38	24.3	-34.6	---	---	730.7	0.027	0.000	18.3	1	1
03/08/06	1:48 p	-20.3	-20.3	-20.3	---	---	18.3	E	0.30	22.6	-33.5	---	---	730.7	0.027	0.000	18.3	1	1
03/08/06	1:49 p	-20.3	-20.2	-20.3	---	---	22.6	ENE	0.38	27.8	-34.7	---	---	730.5	0.027	0.000	18.3	1	1
03/08/06	1:50 p	-20.3	-20.3	-20.3	---	---	25.2	E	0.42	27.8	-35.3	---	---	730.6	0.027	0.000	18.3	1	1
03/08/06	1:51 p	-20.3	-20.2	-20.3	---	---	21.7	E	0.36	25.2	-34.4	---	---	730.6	0.027	0.000	18.3	1	1
03/08/06	1:52 p	-20.3	-20.3	-20.3	---	---	24.3	E	0.41	27.8	-35.1	---	---	730.6	0.027	0.000	18.3	1	1
03/08/06	1:53 p	-20.2	-20.2	-20.2	---	---	24.3	ENE	0.41	27.0	-35.0	---	---	730.7	0.027	0.000	18.3	1	1
03/08/06	1:54 p	-20.2	-20.2	-20.2	---	---	20.0	E	0.33	22.6	-33.9	---	---	730.7	0.027	0.000	18.3	1	1
03/08/06	1:55 p	-20.2	-20.2	-20.3	---	---	22.6	E	0.38	27.0	-34.6	---	---	730.5	0.027	0.000	18.3	1	1
03/08/06	1:56 p	-20.2	-20.2	-20.3	---	---	27.0	E	0.45	29.6	-35.6	---	---	730.5	0.027	0.000	18.3	1	1
03/08/06	1:57 p	-20.2	-20.2	-20.2	---	---	24.3	ENE	0.41	28.7	-35.0	---	---	730.9	0.027	0.000	18.3	1	1
03/08/06	1:58 p	-20.2	-20.2	-20.2	---	---	19.1	E	0.32	22.6	-33.7	---	---	730.8	0.027	0.000	18.3	1	1
03/08/06	1:59 p	-20.2	-20.2	-20.2	---	---	19.1	E	0.32	23.5	-33.7	---	---	730.7	0.027	0.000	18.3	1	1
03/08/06	2:00 p	-20.2	-20.2	-20.2	---	---	20.0	E	0.33	22.6	-33.9	---	---	730.7	0.027	0.000	18.3	1	1
03/08/06	2:01 p	-20.2	-20.2	-20.3	---	---	26.1	E	0.43	31.3	-35.4	---	---	730.5	0.027	0.000	18.3	1	1
03/08/06	2:02 p	-20.2	-20.2	-20.3	---	---	27.0	E	0.45	32.2	-35.6	---	---	730.5	0.027	0.000	18.3	1	1
03/08/06	2:03 p	-20.2	-20.2	-20.3	---	---	21.7	E	0.36	27.8	-34.4	---	---	730.9	0.027	0.000	18.3	1	1
03/08/06	2:04 p	-20.2	-20.2	-20.2	---	---	19.1	ENE	0.32	22.6	-33.7	---	---	730.9	0.027	0.000	18.3	1	1
03/08/06	2:05 p	-20.2	-20.2	-20.2	---	---	20.9	E	0.35	25.2	-34.2	---	---	730.8	0.027	0.000	18.3	1	1
03/08/06	2:06 p	-20.2	-20.2	-20.2	---	---	20.9	E	0.35	24.3	-34.2	---	---	730.8	0.027	0.000	18.3	1	1
03/08/06	2:07 p	-20.2	-20.2	-20.2	---	---	19.1	E	0.32	25.2	-33.7	---	---	731.0	0.027	0.000	18.3	1	1
03/08/06	2:08 p	-20.2	-20.2	-20.2	---	---	21.7	E	0.36	25.2	-34.3	---	---	730.7	0.027	0.000	18.3	1	1
03/08/06	2:09 p	-20.2	-20.2	-20.2	---	---	26.1	ENE	0.43	28.7	-35.4	---	---	730.7	0.027	0.000	18.3	1	1
03/08/06	2:10 p	-20.2	-20.2	-20.2	---	---	26.1	ENE	0.43	28.7	-35.3	---	---	730.8	0.027	0.000	18.3	1	1
03/08/06	2:11 p	-20.2	-20.2	-20.2	---	---	24.3	ENE	0.41	27.0	-34.9	---	---	730.9	0.027	0.000	18.3	1	1
03/08/06	2:12 p	-20.2	-20.2	-20.2	---	---	20.9	ENE	0.35	22.6	-34.1	---	---	731.0	0.027	0.000	18.3	1	1
03/08/06	2:13 p	-20.2	-20.2	-20.2	---	---	19.1	ENE	0.32	21.7	-33.6	---	---	731.0	0.027	0.000	18.3	1	1
03/08/06	2:14 p	-20.2	-20.2	-20.2	---	---	18.3	ENE	0.30	20.9	-33.3	---	---	731.0	0.027	0.000	18.3	1	1
03/08/06	2:15 p	-20.2	-20.2	-20.2	---	---	19.1	E	0.32	23.5	-33.6	---	---	730.9	0.027	0.000	18.3	1	1
03/08/06	2:16 p	-20.2	-20.2	-20.2	---	---	24.3	ENE	0.41	28.7	-34.9	---	---	730.7	0.027	0.000	18.3	1	1
03/08/06	2:17 p	-20.2	-20.2	-20.2	---	---	26.1	ENE	0.43	27.8	-35.3	---	---	730.8	0.027	0.000	18.3	1	1
03/08/06	2:18 p	-20.2	-20.2	-20.2	---	---	25.2	ENE	0.42	27.8	-35.2	---	---	730.8	0.027	0.000	18.3	1	1
03/08/06	2:19 p	-20.2	-20.2	-20.2	---	---	23.5	ENE	0.39	25.2	-34.7	---	---	731.0	0.027	0.000	18.3	1	1
03/08/06	2:20 p	-20.2	-20.2	-20.2	---	---	21.7	ENE	0.36	23.5	-34.3	---	---	730.9	0.027	0.000	18.3	1	1
03/08/06	2:21 p	-20.2	-20.2	-20.2	---	---	20.9	ENE	0.35	25.2	-34.1	---	---	730.8	0.027	0.000	18.3	1	1
03/08/06	2:22 p	-20.2	-20.2	-20.2	---	---	27.0	E	0.45	30.4	-35.5	---	---	730.7	0.027	0.000	18.3	1	1
03/08/06	2:23 p	-20.2	-20.2	-20.2	---	---	22.6	E	0.38	27.8	-34.5	---	---	730.8	0.027	0.000	18.3	1	1
03/08/06	2:24 p	-20.2	-20.2	-20.2	---	---	21.7	E	0.36	26.1	-34.4	---	---	731.0	0.027	0.000	18.3	1	1
03/08/06	2:25 p	-20.2	-20.2	-20.2	---	---	17.4	E	0.29	22.6	-33.1	---	---	731.0	0.027	0.000	18.3	1	1
03/08/06	2:26 p	-20.2	-20.2	-20.2	---	---	20.0	E	0.33	25.2	-33.8	---	---	730.7	0.027	0.000	18.3	1	1
03/08/06	2:27 p	-20.2	-20.2	-20.2	---	---	24.3	E	0.41	27.8	-35.0	---	---	730.7	0.027	0.000	18.3	1	1
03/08/06	2:28 p	-20.2	-20.2	-20.2	---	---	25.2	ENE	0.42	27.8	-35.2	---	---	731.0	0.027	0.000	18.3	1	1
03/08/06	2:29 p	-20.2	-20.2	-20.2	---	---	22.6	ENE	0.38	25.2	-34.5	---	---	731.0	0.027	0.000	18.3	1	1
03/08/06	2:30 p	-20.2	-20.2	-20.2	---	---	20.0	ENE	0.33	23.5	-33.8	---	---	731.1	0.027	0.000	18.3	1	1
03/08/06	2:31 p	-20.2	-20.2	-20.2	---	---	17.4	ENE	0.29	20.9	-33.2	---	---	731.0	0.027	0.000	18.3	1	1
03/08/06	2:32 p	-20.2	-20.2	-20.2	---	---	19.1	E	0.32	24.3	-33.6	---	---	730.9	0.027	0.000	18.2	1	1
03/08/06	2:33 p	-20.2	-20.2	-20.2	---	---	20.9	E	0.35	25.2	-34.1	---	---	731.0	0.027	0.000	18.2	1	1
03/08/06	2:34 p	-20.2	-20.2	-20.2	---	---	20.0	E	0.33	24.3	-33.8	---	---	731.0	0.027	0.000	18.2	1	1
03/08/06	2:35 p	-20.2	-20.2	-20.2	---	---	25.2	ENE	0.42	27.0	-35.2	---	---	730.9	0.027	0.000	18.3	1	1
03/08/06	2:36 p	-20.2	-20.2	-20.2	---	---	22.6	ENE	0.38	26.1	-34.5	---	---	730.9	0.027	0.000	18.2	1	1
03/08/06	2:37 p	-20.2	-20.2	-20.2	---	---	20.9	ENE	0.35	22.6	-34.1	---	---	731.1	0.027	0.000	18.3	1	1
03/08/06	2:38 p	-20.2	-20.2	-20.2	---	---	18.3	E	0.30	21.7	-33.3	---	---	731.0	0.027	0.000	18.3	1	1
03/08/06	2:39 p	-20.2	-20.2	-20.2	---	---	15.7	E	0.26	20.0	-32.5	---	---	730.9	0.027	0.000	18.2	1	1
03/08/06	2:40 p	-20.2	-20.2	-20.2	---	---	19.1	E	0.32	24.3	-33.6	---	---	730.8	0.027	0.000	18.3	1	1
03/08/06	2:41 p	-20.2	-20.2	-20.2	---	---	24.3	E	0.41	27.8	-34.9	---	---	730.8	0.027	0.000	18.3	1	1
03/08/06	2:42 p	-20.2	-20.2	-20.2	---	---	24.3	E	0.41	26.1	-34.9	---	---	730.9	0.027	0.000	18.2	1	1
03/08/06	2:43 p	-20.2	-20.2	-20.2	---	---	21.7	E	0.36	27.0	-34.4	---	---	730.9	0.027	0.000	18.2	1	1
03/08/06	2:44 p	-20.2	-20.2	-20.2	---	---	23.5	E	0.39	26.1	-34.7	---	---	731.1	0.027	0.000	18.2	1	1
03/08/06	2:45 p	-20.2	-20.2	-20.2	---	---	18.3	E	0.30	22.6	-33.3	---	---	731.2	0.027	0.000	18.2	1	1
03/08/06	2:46 p	-20.2	-20.2	-20.2	---	---	17.4	E	0.29	21.7	-33.1	---	---	730.9	0.027	0.000	18.2	1	1
03/08/06	2:47 p	-20.2	-20.2	-20.2	---	---	20.9	E	0.35	25.2	-34.1	---	---	730.9	0.027	0.000	18.2	1	1
03/08/06	2:48 p	-20.2	-20.2	-20.2	---	---	23.5	E	0.39	27.8	-34.7	---	---	731.1	0.027	0.000	18.2	1	1
03/08/06	2:49 p	-20.2	-20.2	-20.2	---	---	22.6	E	0.38	25.2	-34.5	---	---	731.0	0.027	0.000	18.2	1	1
03/08/06	2:50 p	-20.2	-20.2	-20.2	---	---	20.0	E	0.33	24.3	-33.8	---	---	731.1	0.027	0.000	18.2	1	1
03/08/06	2:51 p	-20.2	-20.2	-20.2	---	---	19.1	E	0.32	21.7	-33.6	---	---	730.9	0.027	0.000	18.2	1	1
03/08/06	2:52 p	-20.2	-20.2	-20.2	---	---	26.1	E	0.43	29.6	-35.3	---	---	731.0	0.027	0.000	18.2	1	1
03/08/06	2:53 p	-20.2	-20.2	-20.2	---	---	21.7	E	0.36	26.1	-34.3	---	---	731.1	0.027	0.000	18.2	1	1
03/08/06	2:54 p	-20.2	-20.1	-20.2	---	---	18.3	E	0.30	23.5	-33.3	---	---	731.0	0.027	0.000	18.2	1	1
03/08/06	2:55 p	-20.2	-20.2	-20.2	---	---	24.3	E	0.41	27.8	-34.9	---	---	730.8	0.027	0.000	18.2	1	1
03/08/06	2:56 p	-20.2	-20.2	-20.2	---	---	22.6	E	0.38	27.8	-34.5	---	---	731.2	0.027	0.000	18.2	1	1
03/08/06	2:57 p	-20.2	-20.2	-20.2	---	---	22.6	ENE	0.38	25.2	-34.5	---	---	731.0	0.027	0.000	18.2	1	1
03/08/06	2:58 p	-20.2	-20.2	-20.2	---	---	22.6	ENE	0.38	25.2	-34.5	---	---	731.1	0.027	0.000	18.2	1	1
03/08/06	2:59 p	-20.2	-20.2	-20.2	---	---	19.1	E	0.32	21.7	-33.6	---	---	731.1	0.027	0.000	18.2	1	1
03/08/06	3:00 p	-20.2	-20.2	-20.2	---	---	20.0	E	0.33	23.5	-33.8	---	---	731.0	0.027	0.000	18.2	1	1
03/08/06	3:01 p	-20.2	-20.2	-20.2	---	---	24.3	ENE	0.41	27.8	-34.9	---	---	731.0	0.027	0.000	18.2	1	1
03/08/06	3:02 p	-20.2	-20.2	-20.2	---	---	23.5	E	0.39	27.0	-34.7	---	---	731.0	0.027	0.000	18.2	1	1
03/08/06	3:03 p	-20.2	-20.2	-20.2	---	---	25.2	ENE	0.42	28.7	-35.2	---	---	731.1	0.027	0.000	18.2	1	1
03/08/06	3:04 p	-20.2	-20.2	-20.2	---	---	19.1	ENE	0.32	24.3	-33.7	---	---	731.3	0.027	0.000	18.2	1	1
03/08/06	3:05 p	-20.2	-20.2	-20.2	---	---	19.1	ENE	0.32	21.7	-33.7	---	---	731.1	0.027	0.000	18.2	1	1
03/08/06	3:06 p	-20.2	-20.2	-20.2	---	---	22.6	E	0.38	27.0	-34.6	---	---	731.0	0.027	0.000	18.2	1	1
03/08/06	3:07 p	-20.2	-20.2	-20.3	---	---	24.3	ENE	0.41	27.0	-35.0	---	---	731.1	0.027	0.000	18.2	1	1
03/08/06	3:08 p	-20.2	-20.2	-20.2	---	---	24.3	ENE	0.41	26.1	-35.0	---	---	731.1	0.027	0.000	18.2	1	1
03/08/06	3:09 p	-20.2	-20.2	-20.2	---	---	22.6	ENE	0.38	25.2	-34.6	---	---	731.3	0.027	0.000	18.2	1	1
03/08/06	3:10 p	-20.2	-20.2	-20.2	---	---	20.9	ENE	0.35	21.7	-34.2	---	---	731.2	0.027	0.000	18.2	1	1
03/08/06	3:11 p	-20.2	-20.2	-20.2	---	---	19.1	E	0.32	21.7	-33.7	---	---	731.2	0.027	0.000	18.2	1	1
03/08/06	3:12 p	-20.2	-20.2	-20.2	---	---	21.7	E	0.36	26.1	-34.4	---	---	731.1	0.027	0.000	18.2	1	1
03/08/06	3:13 p	-20.2	-20.2	-20.3	---	---	23.5	ENE	0.39	25.2	-34.8	---	---	731.2	0.027	0.000	18.2	1	1
03/08/06	3:14 p	-20.2	-20.2	-20.3	---	---	20.9	ENE	0.35	24.3	-34.2	---	---	731.3	0.027	0.000	18.2	1	1
03/08/06	3:15 p	-20.3	-20.2	-20.3	---	---	20.9	ENE	0.35	23.5	-34.2	---	---	731.2	0.027	0.000	18.2	1	1
03/08/06	3:16 p	-20.2	-20.2	-20.2	---	---	22.6	ENE	0.38	26.1	-34.6	---	---	731.2	0.027	0.000	18.2	1	1
03/08/06	3:17 p	-20.3	-20.2	-20.3	---	---	24.3	ENE	0.41	27.8	-35.1	---	---	731.2	0.027	0.000	18.2	1	1
03/08/06	3:18 p	-20.2	-20.2	-20.3	---	---	20.9	ENE	0.35	24.3	-34.2	---	---	731.2	0.027	0.000	18.2	1	1
03/08/06	3:19 p	-20.3	-20.2	-20.3	---	---	23.5	ENE	0.39	26.1	-34.9	---	---	731.2	0.027	0.000	18.2	1	1
03/08/06	3:20 p	-20.3	-20.3	-20.3	---	---	22.6	ENE	0.38	24.3	-34.7	---	---	731.3	0.027	0.000	18.2	1	1
03/08/06	3:21 p	-20.3	-20.3	-20.3	---	---	23.5	ENE	0.39	27.8	-34.9	---	---	731.1	0.027	0.000	18.2	1	1
03/08/06	3:22 p	-20.3	-20.3	-20.3	---	---	23.5	E	0.39	25.2	-34.9	---	---	731.2	0.027	0.000	18.2	1	1
03/08/06	3:23 p	-20.3	-20.3	-20.3	---	---	20.9	ENE	0.35	23.5	-34.2	---	---	731.3	0.027	0.000	18.2	1	1
03/08/06	3:24 p	-20.3	-20.2	-20.3	---	---	19.1	ENE	0.32	21.7	-33.7	---	---	731.1	0.027	0.000	18.2	1	1
03/08/06	3:25 p	-20.3	-20.3	-20.3	---	---	18.3	E	0.30	22.6	-33.5	---	---	731.1	0.027	0.000	18.2	1	1
03/08/06	3:26 p	-20.3	-20.3	-20.3	---	---	21.7	E	0.36	27.0	-34.4	---	---	731.0	0.027	0.000	18.2	1	1
03/08/06	3:27 p	-20.3	-20.3	-20.3	---	---	26.1	ENE	0.43	29.6	-35.5	---	---	731.0	0.027	0.000	18.2	1	1
03/08/06	3:28 p	-20.3	-20.3	-20.3	---	---	22.6	ENE	0.38	27.0	-34.7	---	---	731.2	0.027	0.000	18.2	1	1
03/08/06	3:29 p	-20.3	-20.3	-20.3	---	---	20.9	ENE	0.35	24.3	-34.3	---	---	731.3	0.027	0.000	18.2	1	1
03/08/06	3:30 p	-20.3	-20.3	-20.3	---	---	20.9	ENE	0.35	25.2	-34.2	---	---	731.2	0.027	0.000	18.2	1	1
03/08/06	3:31 p	-20.3	-20.3	-20.3	---	---	23.5	ENE	0.39	27.0	-34.9	---	---	731.2	0.027	0.000	18.2	1	1
03/08/06	3:32 p	-20.3	-20.3	-20.3	---	---	23.5	ENE	0.39	26.1	-34.9	---	---	731.2	0.027	0.000	18.2	1	1
03/08/06	3:33 p	-20.3	-20.3	-20.3	---	---	24.3	ENE	0.41	26.1	-35.2	---	---	731.2	0.027	0.000	18.2	1	1
03/08/06	3:34 p	-20.3	-20.3	-20.3	---	---	23.5	E	0.39	25.2	-34.9	---	---	731.3	0.027	0.000	18.2	1	1
03/08/06	3:35 p	-20.3	-20.3	-20.3	---	---	23.5	ENE	0.39	26.1	-34.9	---	---	731.3	0.027	0.000	18.3	1	1
03/08/06	3:36 p	-20.3	-20.3	-20.3	---	---	21.7	ENE	0.36	24.3	-34.5	---	---	731.3	0.027	0.000	18.3	1	1
03/08/06	3:37 p	-20.3	-20.3	-20.4	---	---	20.9	ENE	0.35	23.5	-34.3	---	---	731.3	0.027	0.000	18.3	1	1
03/08/06	3:38 p	-20.3	-20.3	-20.3	---	---	23.5	ENE	0.39	26.1	-34.9	---	---	731.4	0.027	0.000	18.3	1	1
03/08/06	3:39 p	-20.3	-20.3	-20.3	---	---	20.0	ENE	0.33	23.5	-34.1	---	---	731.4	0.027	0.000	18.3	1	1
03/08/06	3:40 p	-20.3	-20.3	-20.3	---	---	19.1	ENE	0.32	25.2	-33.8	---	---	731.3	0.027	0.000	18.3	1	1
03/08/06	3:41 p	-20.3	-20.3	-20.3	---	---	21.7	ENE	0.36	25.2	-34.4	---	---	731.4	0.027	0.000	18.3	1	1
03/08/06	3:42 p	-20.3	-20.3	-20.3	---	---	20.9	ENE	0.35	23.5	-34.3	---	---	731.4	0.027	0.000	18.3	1	1
03/08/06	3:43 p	-20.3	-20.3	-20.3	---	---	18.3	E	0.30	24.3	-33.6	---	---	731.2	0.027	0.000	18.2	1	1
03/08/06	3:44 p	-20.3	-20.3	-20.3	---	---	22.6	ENE	0.38	27.8	-34.7	---	---	731.3	0.027	0.000	18.2	1	1
03/08/06	3:45 p	-20.3	-20.3	-20.3	---	---	24.3	ENE	0.41	27.8	-35.1	---	---	731.5	0.027	0.000	18.2	1	1
03/08/06	3:46 p	-20.3	-20.3	-20.3	---	---	20.9	ENE	0.35	22.6	-34.2	---	---	731.4	0.027	0.000	18.2	1	1
03/08/06	3:47 p	-20.3	-20.2	-20.3	---	---	19.1	E	0.32	22.6	-33.7	---	---	731.4	0.027	0.000	18.2	1	1
03/08/06	3:48 p	-20.3	-20.3	-20.3	---	---	18.3	E	0.30	20.9	-33.5	---	---	731.4	0.027	0.000	18.2	1	1
03/08/06	3:49 p	-20.3	-20.3	-20.3	---	---	19.1	E	0.32	23.5	-33.7	---	---	731.3	0.027	0.000	18.2	1	1
03/08/06	3:50 p	-20.3	-20.2	-20.3	---	---	20.0	ENE	0.33	23.5	-34.0	---	---	731.3	0.027	0.000	18.2	1	1
03/08/06	3:51 p	-20.3	-20.2	-20.3	---	---	24.3	ENE	0.41	26.1	-35.1	---	---	731.2	0.027	0.000	18.2	1	1
03/08/06	3:52 p	-20.3	-20.2	-20.3	---	---	24.3	ENE	0.41	27.0	-35.1	---	---	731.3	0.027	0.000	18.2	1	1
03/08/06	3:53 p	-20.2	-20.2	-20.3	---	---	20.9	ENE	0.35	23.5	-34.2	---	---	731.5	0.027	0.000	18.2	1	1
03/08/06	3:54 p	-20.2	-20.2	-20.2	---	---	20.0	ENE	0.33	24.3	-33.9	---	---	731.4	0.027	0.000	18.2	1	1
03/08/06	3:55 p	-20.3	-20.2	-20.3	---	---	20.0	E	0.33	23.5	-34.0	---	---	731.4	0.027	0.000	18.1	1	1
03/08/06	3:56 p	-20.3	-20.2	-20.3	---	---	18.3	E	0.30	20.9	-33.5	---	---	731.5	0.027	0.000	18.1	1	1
03/08/06	3:57 p	-20.3	-20.2	-20.3	---	---	20.9	ENE	0.35	25.2	-34.2	---	---	731.4	0.027	0.000	18.1	1	1
03/08/06	3:58 p	-20.2	-20.2	-20.3	---	---	21.7	ENE	0.36	23.5	-34.4	---	---	731.4	0.027	0.000	18.1	1	1
03/08/06	3:59 p	-20.3	-20.2	-20.3	---	---	20.9	ENE	0.35	25.2	-34.2	---	---	731.3	0.027	0.000	18.1	1	1
03/08/06	4:00 p	-20.3	-20.2	-20.3	---	---	19.1	E	0.32	24.3	-33.7	---	---	731.3	0.027	0.000	18.1	1	1
03/08/06	4:01 p	-20.2	-20.2	-20.3	---	---	22.6	ENE	0.38	27.8	-34.6	---	---	731.5	0.027	0.000	18.1	1	1
03/08/06	4:02 p	-20.2	-20.2	-20.2	---	---	20.0	ENE	0.33	21.7	-33.9	---	---	731.5	0.027	0.000	18.1	1	1
03/08/06	4:03 p	-20.2	-20.2	-20.2	---	---	18.3	ENE	0.30	22.6	-33.4	---	---	731.5	0.027	0.000	18.1	1	1
03/08/06	4:04 p	-20.2	-20.2	-20.2	---	---	20.9	E	0.35	24.3	-34.2	---	---	731.4	0.027	0.000	18.2	1	1
03/08/06	4:05 p	-20.2	-20.2	-20.2	---	---	19.1	E	0.32	22.6	-33.7	---	---	731.4	0.027	0.000	18.2	1	1
03/08/06	4:06 p	-20.2	-20.2	-20.2	---	---	21.7	ENE	0.36	23.5	-34.4	---	---	731.4	0.027	0.000	18.2	1	1
03/08/06	4:07 p	-20.2	-20.2	-20.2	---	---	20.0	ENE	0.33	22.6	-33.9	---	---	731.4	0.027	0.000	18.2	1	1
03/08/06	4:08 p	-20.2	-20.2	-20.3	---	---	18.3	E	0.30	25.2	-33.4	---	---	731.3	0.027	0.000	18.2	1	1
03/08/06	4:09 p	-20.3	-20.2	-20.3	---	---	20.9	ENE	0.35	23.5	-34.2	---	---	731.6	0.027	0.000	18.3	1	1
03/08/06	4:10 p	-20.2	-20.2	-20.2	---	---	18.3	ENE	0.30	21.7	-33.4	---	---	731.4	0.027	0.000	18.3	1	1
03/08/06	4:11 p	-20.2	-20.2	-20.3	---	---	20.9	ENE	0.35	23.5	-34.2	---	---	731.5	0.027	0.000	18.3	1	1
03/08/06	4:12 p	-20.2	-20.2	-20.2	---	---	20.9	ENE	0.35	23.5	-34.2	---	---	731.4	0.027	0.000	18.3	1	1
03/08/06	4:13 p	-20.2	-20.2	-20.2	---	---	22.6	ENE	0.38	25.2	-34.6	---	---	731.4	0.027	0.000	18.3	1	1
03/08/06	4:14 p	-20.2	-20.2	-20.2	---	---	20.9	ENE	0.35	23.5	-34.2	---	---	731.5	0.027	0.000	18.4	1	1
03/08/06	4:15 p	-20.2	-20.2	-20.2	---	---	19.1	ENE	0.32	21.7	-33.7	---	---	731.4	0.027	0.000	18.4	1	1
03/08/06	4:16 p	-20.2	-20.2	-20.2	---	---	21.7	ENE	0.36	23.5	-34.4	---	---	731.4	0.027	0.000	18.4	1	1
03/08/06	4:17 p	-20.2	-20.2	-20.2	---	---	20.9	ENE	0.35	23.5	-34.2	---	---	731.6	0.027	0.000	18.4	1	1
03/08/06	4:18 p	-20.2	-20.2	-20.2	---	---	19.1	ENE	0.32	21.7	-33.7	---	---	731.7	0.027	0.000	18.4	1	1
03/08/06	4:19 p	-20.2	-20.2	-20.2	---	---	18.3	ENE	0.30	22.6	-33.4	---	---	731.4	0.027	0.000	18.4	1	1
03/08/06	4:20 p	-20.2	-20.2	-20.2	---	---	20.9	ENE	0.35	23.5	-34.2	---	---	731.5	0.027	0.000	18.4	1	1
03/08/06	4:21 p	-20.2	-20.2	-20.2	---	---	20.9	ENE	0.35	25.2	-34.2	---	---	731.4	0.027	0.000	18.4	1	1
03/08/06	4:22 p	-20.2	-20.2	-20.2	---	---	21.7	ENE	0.36	25.2	-34.4	---	---	731.5	0.027	0.000	18.4	1	1
03/08/06	4:23 p	-20.3	-20.2	-20.3	---	---	20.0	ENE	0.33	22.6	-34.0	---	---	731.5	0.027	0.000	18.3	1	1
03/08/06	4:24 p	-20.2	-20.2	-20.3	---	---	20.9	ENE	0.35	23.5	-34.2	---	---	731.7	0.027	0.000	18.3	1	1
03/08/06	4:25 p	-20.2	-20.2	-20.2	---	---	20.0	ENE	0.33	22.6	-33.9	---	---	731.7	0.027	0.000	18.4	1	1
03/08/06	4:26 p	-20.2	-20.2	-20.2	---	---	16.5	ENE	0.28	19.1	-32.9	---	---	731.5	0.027	0.000	18.3	1	1
03/08/06	4:27 p	-20.2	-20.2	-20.2	---	---	20.0	E	0.33	21.7	-33.9	---	---	731.4	0.027	0.000	18.3	1	1
03/08/06	4:28 p	-20.2	-20.2	-20.2	---	---	21.7	E	0.36	25.2	-34.4	---	---	731.3	0.027	0.000	18.3	1	1
03/08/06	4:29 p	-20.2	-20.2	-20.3	---	---	22.6	ENE	0.38	25.2	-34.6	---	---	731.5	0.027	0.000	18.3	1	1
03/08/06	4:30 p	-20.2	-20.2	-20.3	---	---	20.9	ENE	0.35	24.3	-34.2	---	---	731.7	0.027	0.000	18.3	1	1
03/08/06	4:31 p	-20.2	-20.2	-20.3	---	---	16.5	E	0.28	19.1	-32.9	---	---	731.6	0.027	0.000	18.3	1	1
03/08/06	4:32 p	-20.2	-20.2	-20.3	---	---	16.5	E	0.28	23.5	-32.9	---	---	731.4	0.027	0.000	18.3	1	1
03/08/06	4:33 p	-20.2	-20.2	-20.2	---	---	21.7	ENE	0.36	25.2	-34.4	---	---	731.4	0.027	0.000	18.3	1	1
03/08/06	4:34 p	-20.2	-20.2	-20.2	---	---	20.0	E	0.33	23.5	-33.9	---	---	731.5	0.027	0.000	18.3	1	1
03/08/06	4:35 p	-20.2	-20.2	-20.2	---	---	23.5	ENE	0.39	26.1	-34.8	---	---	731.5	0.027	0.000	18.3	1	1
03/08/06	4:36 p	-20.2	-20.2	-20.2	---	---	20.9	ENE	0.35	25.2	-34.2	---	---	731.7	0.027	0.000	18.3	1	1
03/08/06	4:37 p	-20.2	-20.2	-20.2	---	---	17.4	ENE	0.29	19.1	-33.2	---	---	731.8	0.027	0.000	18.3	1	1
03/08/06	4:38 p	-20.2	-20.2	-20.2	---	---	13.9	E	0.23	16.5	-31.9	---	---	731.7	0.027	0.000	18.3	1	1
03/08/06	4:39 p	-20.2	-20.2	-20.2	---	---	13.9	E	0.23	16.5	-31.9	---	---	731.6	0.027	0.000	18.3	1	1
03/08/06	4:40 p	-20.2	-20.2	-20.2	---	---	13.9	E	0.23	20.0	-31.9	---	---	731.4	0.027	0.000	18.3	1	1
03/08/06	4:41 p	-20.2	-20.2	-20.2	---	---	25.2	E	0.42	31.3	-35.2	---	---	731.3	0.027	0.000	18.3	1	1
03/08/06	4:42 p	-20.2	-20.2	-20.2	---	---	24.3	ENE	0.41	28.7	-35.0	---	---	731.6	0.027	0.000	18.3	1	1
03/08/06	4:43 p	-20.2	-20.2	-20.2	---	---	20.9	ENE	0.35	24.3	-34.2	---	---	731.7	0.027	0.000	18.3	1	1
03/08/06	4:44 p	-20.2	-20.2	-20.2	---	---	17.4	ENE	0.29	20.0	-33.2	---	---	731.6	0.027	0.000	18.3	1	1
03/08/06	4:45 p	-20.2	-20.2	-20.2	---	---	18.3	E	0.30	22.6	-33.4	---	---	731.6	0.027	0.000	18.3	1	1
03/08/06	4:46 p	-20.2	-20.2	-20.2	---	---	18.3	E	0.30	20.9	-33.4	---	---	731.8	0.027	0.000	18.3	1	1
03/08/06	4:47 p	-20.2	-20.2	-20.3	---	---	16.5	E	0.28	19.1	-32.9	---	---	731.7	0.027	0.000	18.3	1	1
03/08/06	4:48 p	-20.2	-20.2	-20.2	---	---	15.7	E	0.26	21.7	-32.6	---	---	731.7	0.027	0.000	18.3	1	1
03/08/06	4:49 p	-20.2	-20.2	-20.2	---	---	19.1	E	0.32	23.5	-33.7	---	---	731.5	0.027	0.000	18.3	1	1
03/08/06	4:50 p	-20.2	-20.2	-20.2	---	---	20.0	E	0.33	23.5	-33.9	---	---	731.6	0.027	0.000	18.3	1	1
03/08/06	4:51 p	-20.2	-20.2	-20.3	---	---	20.9	E	0.35	22.6	-34.2	---	---	731.7	0.027	0.000	18.3	1	1
03/08/06	4:52 p	-20.2	-20.2	-20.2	---	---	20.0	ENE	0.33	20.9	-33.9	---	---	731.7	0.027	0.000	18.3	1	1
03/08/06	4:53 p	-20.2	-20.2	-20.2	---	---	20.0	ENE	0.33	21.7	-33.9	---	---	731.7	0.027	0.000	18.3	1	1
03/08/06	4:54 p	-20.2	-20.2	-20.2	---	---	20.0	ENE	0.33	21.7	-33.9	---	---	731.8	0.027	0.000	18.3	1	1
03/08/06	4:55 p	-20.2	-20.2	-20.2	---	---	20.0	ENE	0.33	21.7	-33.8	---	---	731.7	0.027	0.000	18.4	1	1
03/08/06	4:56 p	-20.2	-20.2	-20.2	---	---	19.1	ENE	0.32	21.7	-33.6	---	---	731.9	0.027	0.000	18.4	1	1
03/08/06	4:57 p	-20.2	-20.2	-20.2	---	---	17.4	ENE	0.29	19.1	-33.1	---	---	731.9	0.027	0.000	18.3	1	1
03/08/06	4:58 p	-20.2	-20.2	-20.2	---	---	13.0	ENE	0.22	17.4	-31.6	---	---	731.9	0.027	0.000	18.3	1	1
03/08/06	4:59 p	-20.2	-20.2	-20.2	---	---	14.8	E	0.25	20.0	-32.2	---	---	731.9	0.027	0.000	18.3	1	1
03/08/06	5:00 p	-20.2	-20.2	-20.2	---	---	20.9	ENE	0.35	24.3	-34.2	---	---	731.9	0.027	0.000	18.3	1	1
03/08/06	5:01 p	-20.2	-20.2	-20.2	---	---	17.4	ENE	0.29	21.7	-33.1	---	---	731.8	0.027	0.000	18.3	1	1
03/08/06	5:02 p	-20.2	-20.2	-20.2	---	---	17.4	E	0.29	20.0	-33.1	---	---	731.9	0.027	0.000	18.3	1	1
03/08/06	5:03 p	-20.2	-20.2	-20.2	---	---	17.4	ENE	0.29	20.9	-33.1	---	---	731.7	0.027	0.000	18.3	1	1
03/08/06	5:04 p	-20.2	-20.2	-20.2	---	---	21.7	ENE	0.36	23.5	-34.3	---	---	731.7	0.027	0.000	18.3	1	1
03/08/06	5:05 p	-20.2	-20.2	-20.2	---	---	21.7	ENE	0.36	24.3	-34.3	---	---	731.7	0.027	0.000	18.3	1	1
03/08/06	5:06 p	-20.2	-20.1	-20.2	---	---	17.4	ENE	0.29	22.6	-33.1	---	---	731.9	0.027	0.000	18.3	1	1
03/08/06	5:07 p	-20.2	-20.2	-20.2	---	---	18.3	E	0.30	24.3	-33.3	---	---	731.8	0.027	0.000	18.3	1	1
03/08/06	5:08 p	-20.2	-20.1	-20.2	---	---	20.0	ENE	0.33	23.5	-33.8	---	---	731.8	0.027	0.000	18.3	1	1
03/08/06	5:09 p	-20.1	-20.1	-20.1	---	---	16.5	ENE	0.28	19.1	-32.7	---	---	731.9	0.027	0.000	18.3	1	1
03/08/06	5:10 p	-20.1	-20.1	-20.2	---	---	17.4	E	0.29	20.0	-33.0	---	---	731.7	0.027	0.000	18.3	1	1
03/08/06	5:11 p	-20.1	-20.1	-20.1	---	---	19.1	E	0.32	24.3	-33.5	---	---	731.7	0.027	0.000	18.3	1	1
03/08/06	5:12 p	-20.1	-20.1	-20.2	---	---	20.9	E	0.35	23.5	-34.0	---	---	731.9	0.027	0.000	18.3	1	1
03/08/06	5:13 p	-20.1	-20.1	-20.2	---	---	20.9	E	0.35	22.6	-34.0	---	---	731.9	0.027	0.000	18.3	1	1
03/08/06	5:14 p	-20.1	-20.1	-20.2	---	---	17.4	E	0.29	20.9	-33.0	---	---	731.9	0.027	0.000	18.3	1	1
03/08/06	5:15 p	-20.1	-20.1	-20.2	---	---	17.4	E	0.29	20.9	-33.0	---	---	731.9	0.027	0.000	18.3	1	1
03/08/06	5:16 p	-20.1	-20.1	-20.1	---	---	19.1	ENE	0.32	20.9	-33.5	---	---	731.8	0.027	0.000	18.4	1	1
03/08/06	5:17 p	-20.1	-20.1	-20.1	---	---	17.4	ENE	0.29	20.0	-33.0	---	---	731.9	0.027	0.000	18.4	1	1
03/08/06	5:18 p	-20.1	-20.1	-20.1	---	---	17.4	E	0.29	20.9	-33.0	---	---	731.7	0.027	0.000	18.4	1	1
03/08/06	5:19 p	-20.1	-20.1	-20.1	---	---	21.7	E	0.36	26.1	-34.2	---	---	731.7	0.027	0.000	18.3	1	1
03/08/06	5:20 p	-20.1	-20.1	-20.1	---	---	20.0	ENE	0.33	23.5	-33.8	---	---	731.9	0.027	0.000	18.3	1	1
03/08/06	5:21 p	-20.1	-20.1	-20.1	---	---	17.4	ENE	0.29	19.1	-33.0	---	---	732.0	0.027	0.000	18.3	1	1
03/08/06	5:22 p	-20.1	-20.1	-20.1	---	---	19.1	ENE	0.32	21.7	-33.5	---	---	731.8	0.027	0.000	18.3	1	1
03/08/06	5:23 p	-20.1	-20.1	-20.1	---	---	16.5	E	0.28	20.9	-32.7	---	---	731.7	0.027	0.000	18.3	1	1
03/08/06	5:24 p	-20.1	-20.1	-20.1	---	---	18.3	E	0.30	22.6	-33.3	---	---	731.8	0.027	0.000	18.3	1	1
03/08/06	5:25 p	-20.1	-20.1	-20.1	---	---	21.7	E	0.36	24.3	-34.2	---	---	732.0	0.027	0.000	18.4	1	1
03/08/06	5:26 p	-20.1	-20.1	-20.1	---	---	18.3	ENE	0.30	22.6	-33.2	---	---	732.1	0.027	0.000	18.4	1	1
03/08/06	5:27 p	-20.1	-20.1	-20.1	---	---	13.9	ENE	0.23	16.5	-31.8	---	---	732.0	0.027	0.000	18.3	1	1
03/08/06	5:28 p	-20.1	-20.0	-20.1	---	---	16.5	E	0.28	19.1	-32.7	---	---	731.9	0.027	0.000	18.4	1	1
03/08/06	5:29 p	-20.1	-20.1	-20.1	---	---	17.4	E	0.29	21.7	-32.9	---	---	731.9	0.027	0.000	18.3	1	1
03/08/06	5:30 p	-20.1	-20.1	-20.1	---	---	17.4	ENE	0.29	20.9	-32.9	---	---	731.9	0.027	0.000	18.3	1	1
03/08/06	5:31 p	-20.1	-20.1	-20.1	---	---	18.3	ENE	0.30	20.0	-33.2	---	---	731.9	0.027	0.000	18.3	1	1
03/08/06	5:32 p	-20.1	-20.0	-20.1	---	---	20.9	E	0.35	23.5	-33.9	---	---	732.0	0.027	0.000	18.3	1	1
03/08/06	5:33 p	-20.1	-20.1	-20.1	---	---	18.3	E	0.30	21.7	-33.2	---	---	732.1	0.027	0.000	18.3	1	1
03/08/06	5:34 p	-20.1	-20.1	-20.1	---	---	18.3	E	0.30	20.0	-33.2	---	---	732.1	0.027	0.000	18.3	1	1
03/08/06	5:35 p	-20.1	-20.0	-20.1	---	---	16.5	ENE	0.28	18.3	-32.7	---	---	732.0	0.027	0.000	18.3	1	1
03/08/06	5:36 p	-20.0	-20.0	-20.1	---	---	16.5	E	0.28	20.0	-32.6	---	---	731.8	0.027	0.000	18.3	1	1
03/08/06	5:37 p	-20.1	-20.0	-20.1	---	---	19.1	E	0.32	21.7	-33.4	---	---	732.0	0.027	0.000	18.3	1	1
03/08/06	5:38 p	-20.1	-20.0	-20.1	---	---	20.0	E	0.33	22.6	-33.7	---	---	732.0	0.027	0.000	18.3	1	1
03/08/06	5:39 p	-20.0	-20.0	-20.1	---	---	19.1	E	0.32	21.7	-33.4	---	---	732.0	0.027	0.000	18.2	1	1
03/08/06	5:40 p	-20.1	-20.0	-20.1	---	---	17.4	E	0.29	21.7	-32.9	---	---	732.1	0.027	0.000	18.2	1	1
03/08/06	5:41 p	-20.0	-20.0	-20.1	---	---	18.3	E	0.30	20.9	-33.1	---	---	732.1	0.027	0.000	18.2	1	1
03/08/06	5:42 p	-20.0	-20.0	-20.0	---	---	14.8	E	0.25	19.1	-32.0	---	---	732.0	0.027	0.000	18.2	1	1
03/08/06	5:43 p	-20.0	-19.9	-20.0	---	---	21.7	E	0.36	24.3	-34.1	---	---	732.0	0.027	0.000	18.2	1	1
03/08/06	5:44 p	-20.0	-20.0	-20.0	---	---	19.1	E	0.32	23.5	-33.4	---	---	732.1	0.027	0.000	18.2	1	1
03/08/06	5:45 p	-20.0	-20.0	-20.0	---	---	15.7	E	0.26	18.3	-32.3	---	---	732.1	0.027	0.000	18.2	1	1
03/08/06	5:46 p	-20.0	-20.0	-20.0	---	---	13.0	E	0.22	17.4	-31.3	---	---	732.0	0.027	0.000	18.2	1	1
03/08/06	5:47 p	-20.0	-20.0	-20.0	---	---	15.7	E	0.26	20.0	-32.3	---	---	732.0	0.027	0.000	18.2	1	1
03/08/06	5:48 p	-20.0	-20.0	-20.0	---	---	20.9	E	0.35	24.3	-33.8	---	---	731.9	0.027	0.000	18.2	1	1
03/08/06	5:49 p	-20.0	-20.0	-20.0	---	---	21.7	ENE	0.36	23.5	-34.1	---	---	732.0	0.027	0.000	18.2	1	1
03/08/06	5:50 p	-19.9	-19.9	-20.0	---	---	20.0	ENE	0.33	21.7	-33.6	---	---	732.1	0.027	0.000	18.3	1	1
03/08/06	5:51 p	-19.9	-19.9	-19.9	---	---	19.1	E	0.32	21.7	-33.3	---	---	732.2	0.027	0.000	18.3	1	1
03/08/06	5:52 p	-19.9	-19.9	-19.9	---	---	17.4	E	0.29	20.0	-32.8	---	---	732.2	0.027	0.000	18.3	1	1
03/08/06	5:53 p	-19.9	-19.9	-19.9	---	---	15.7	E	0.26	18.3	-32.2	---	---	732.3	0.027	0.000	18.3	1	1
03/08/06	5:54 p	-19.9	-19.9	-19.9	---	---	12.2	E	0.20	15.7	-30.9	---	---	732.3	0.027	0.000	18.3	1	1
03/08/06	5:55 p	-19.9	-19.9	-19.9	---	---	12.2	E	0.20	15.7	-30.9	---	---	732.2	0.027	0.000	18.3	1	1
03/08/06	5:56 p	-19.9	-19.9	-19.9	---	---	13.0	E	0.22	15.7	-31.3	---	---	732.1	0.027	0.000	18.3	1	1
03/08/06	5:57 p	-19.9	-19.9	-19.9	---	---	17.4	ENE	0.29	23.5	-32.8	---	---	732.0	0.027	0.000	18.3	1	1
03/08/06	5:58 p	-19.9	-19.9	-20.0	---	---	22.6	ENE	0.38	28.7	-34.2	---	---	732.1	0.027	0.000	18.3	1	1
03/08/06	5:59 p	-19.9	-19.9	-19.9	---	---	20.0	ENE	0.33	22.6	-33.6	---	---	732.2	0.027	0.000	18.3	1	1
03/08/06	6:00 p	-19.9	-19.9	-19.9	---	---	18.3	ENE	0.30	20.9	-33.1	---	---	732.3	0.027	0.000	18.3	1	1
03/08/06	6:01 p	-19.9	-19.9	-19.9	---	---	17.4	ENE	0.29	20.0	-32.8	---	---	732.1	0.027	0.000	18.3	1	1
03/08/06	6:02 p	-19.9	-19.9	-19.9	---	---	17.4	E	0.29	19.1	-32.8	---	---	732.3	0.027	0.000	18.3	1	1
03/08/06	6:03 p	-19.9	-19.9	-19.9	---	---	13.9	E	0.23	16.5	-31.6	---	---	732.2	0.027	0.000	18.3	1	1
03/08/06	6:04 p	-19.9	-19.9	-19.9	---	---	12.2	E	0.20	14.8	-30.9	---	---	732.1	0.027	0.000	18.3	1	1
03/08/06	6:05 p	-19.9	-19.9	-20.0	---	---	17.4	E	0.29	20.9	-32.8	---	---	732.2	0.027	0.000	18.3	1	1
03/08/06	6:06 p	-19.9	-19.9	-19.9	---	---	19.1	E	0.32	20.9	-33.3	---	---	732.3	0.027	0.000	18.3	1	1
03/08/06	6:07 p	-19.9	-19.9	-20.0	---	---	17.4	ENE	0.29	19.1	-32.8	---	---	732.2	0.027	0.000	18.3	1	1
03/08/06	6:08 p	-20.0	-19.9	-20.0	---	---	14.8	E	0.25	17.4	-32.0	---	---	732.2	0.027	0.000	18.3	1	1
03/08/06	6:09 p	-20.0	-19.9	-20.0	---	---	13.9	E	0.23	16.5	-31.7	---	---	732.2	0.027	0.000	18.3	1	1
03/08/06	6:10 p	-19.9	-19.9	-20.0	---	---	19.1	ENE	0.32	24.3	-33.3	---	---	732.0	0.027	0.000	18.3	1	1
03/08/06	6:11 p	-19.9	-19.9	-20.0	---	---	22.6	ENE	0.38	26.1	-34.2	---	---	732.1	0.027	0.000	18.3	1	1
03/08/06	6:12 p	-19.9	-19.9	-20.0	---	---	20.9	ENE	0.35	26.1	-33.8	---	---	732.2	0.027	0.000	18.3	1	1
03/08/06	6:13 p	-19.9	-19.9	-19.9	---	---	17.4	ENE	0.29	19.1	-32.8	---	---	732.3	0.027	0.000	18.3	1	1
03/08/06	6:14 p	-19.9	-19.9	-19.9	---	---	15.7	ENE	0.26	17.4	-32.2	---	---	732.1	0.027	0.000	18.3	1	1
03/08/06	6:15 p	-19.9	-19.9	-20.0	---	---	13.9	E	0.23	16.5	-31.6	---	---	732.2	0.027	0.000	18.3	1	1
03/08/06	6:16 p	-19.9	-19.9	-19.9	---	---	13.0	E	0.22	16.5	-31.3	---	---	732.2	0.027	0.000	18.3	1	1
03/08/06	6:17 p	-19.9	-19.9	-20.0	---	---	16.5	E	0.28	19.1	-32.5	---	---	732.1	0.027	0.000	18.3	1	1
03/08/06	6:18 p	-19.9	-19.9	-20.0	---	---	19.1	ENE	0.32	22.6	-33.3	---	---	732.1	0.027	0.000	18.3	1	1
03/08/06	6:19 p	-20.0	-19.9	-20.0	---	---	20.9	ENE	0.35	22.6	-33.8	---	---	732.2	0.027	0.000	18.3	1	1
03/08/06	6:20 p	-19.9	-19.9	-19.9	---	---	17.4	E	0.29	21.7	-32.8	---	---	732.2	0.027	0.000	18.3	1	1
03/08/06	6:21 p	-19.9	-19.9	-19.9	---	---	17.4	E	0.29	20.0	-32.8	---	---	732.3	0.027	0.000	18.3	1	1
03/08/06	6:22 p	-19.9	-19.9	-19.9	---	---	14.8	E	0.25	19.1	-31.9	---	---	732.4	0.027	0.000	18.3	1	1
03/08/06	6:23 p	-19.9	-19.9	-20.0	---	---	12.2	E	0.20	14.8	-30.9	---	---	732.5	0.027	0.000	18.3	1	1
03/08/06	6:24 p	-19.9	-19.9	-19.9	---	---	13.0	E	0.22	17.4	-31.3	---	---	732.3	0.027	0.000	18.3	1	1
03/08/06	6:25 p	-19.9	-19.9	-20.0	---	---	20.0	E	0.33	24.3	-33.6	---	---	732.2	0.027	0.000	18.3	1	1
03/08/06	6:26 p	-19.9	-19.9	-20.0	---	---	21.7	E	0.36	25.2	-34.0	---	---	732.3	0.027	0.000	18.3	1	1
03/08/06	6:27 p	-19.9	-19.9	-19.9	---	---	19.1	E	0.32	21.7	-33.3	---	---	732.4	0.027	0.000	18.3	1	1
03/08/06	6:28 p	-19.9	-19.9	-19.9	---	---	13.0	E	0.22	16.5	-31.3	---	---	732.5	0.027	0.000	18.3	1	1
03/08/06	6:29 p	-19.9	-19.9	-19.9	---	---	13.0	E	0.22	15.7	-31.3	---	---	732.5	0.027	0.000	18.3	1	1
03/08/06	6:30 p	-19.9	-19.9	-20.0	---	---	18.3	ENE	0.30	20.9	-33.1	---	---	732.4	0.027	0.000	18.3	1	1
03/08/06	6:31 p	-19.9	-19.9	-19.9	---	---	18.3	ENE	0.30	21.7	-33.1	---	---	732.4	0.027	0.000	18.3	1	1
03/08/06	6:32 p	-19.9	-19.9	-19.9	---	---	13.9	ENE	0.23	17.4	-31.6	---	---	732.3	0.027	0.000	18.3	1	1
03/08/06	6:33 p	-19.9	-19.9	-19.9	---	---	14.8	E	0.25	18.3	-31.9	---	---	732.2	0.027	0.000	18.3	1	1
03/08/06	6:34 p	-19.9	-19.9	-19.9	---	---	17.4	E	0.29	20.0	-32.7	---	---	732.3	0.027	0.000	18.4	1	1
03/08/06	6:35 p	-19.9	-19.9	-19.9	---	---	17.4	ENE	0.29	19.1	-32.8	---	---	732.5	0.027	0.000	18.4	1	1
03/08/06	6:36 p	-19.9	-19.9	-19.9	---	---	14.8	ENE	0.25	19.1	-31.9	---	---	732.2	0.027	0.000	18.4	1	1
03/08/06	6:37 p	-19.9	-19.9	-19.9	---	---	20.0	E	0.33	22.6	-33.6	---	---	732.2	0.027	0.000	18.4	1	1
03/08/06	6:38 p	-19.9	-19.9	-19.9	---	---	20.0	E	0.33	22.6	-33.4	---	---	732.3	0.027	0.000	18.4	1	1
03/08/06	6:39 p	-19.9	-19.9	-19.9	---	---	18.3	E	0.30	21.7	-33.0	---	---	732.5	0.027	0.000	18.4	1	1
03/08/06	6:40 p	-19.9	-19.8	-19.9	---	---	13.0	ENE	0.22	16.5	-31.2	---	---	732.5	0.027	0.000	18.4	1	1
03/08/06	6:41 p	-19.8	-19.8	-19.8	---	---	14.8	ENE	0.25	17.4	-31.8	---	---	732.4	0.027	0.000	18.4	1	1
03/08/06	6:42 p	-19.9	-19.8	-19.9	---	---	20.0	ENE	0.33	22.6	-33.4	---	---	732.3	0.027	0.000	18.4	1	1
03/08/06	6:43 p	-19.9	-19.8	-19.9	---	---	19.1	E	0.32	20.0	-33.2	---	---	732.3	0.027	0.000	18.4	1	1
03/08/06	6:44 p	-19.9	-19.8	-19.9	---	---	19.1	ENE	0.32	22.6	-33.2	---	---	732.4	0.027	0.000	18.4	1	1
03/08/06	6:45 p	-19.8	-19.8	-19.8	---	---	18.3	E	0.30	20.9	-32.9	---	---	732.5	0.027	0.000	18.4	1	1
03/08/06	6:46 p	-19.8	-19.8	-19.8	---	---	11.3	E	0.19	14.8	-30.4	---	---	732.6	0.027	0.000	18.4	1	1
03/08/06	6:47 p	-19.9	-19.8	-19.9	---	---	9.6	E	0.16	13.0	-29.7	---	---	732.6	0.027	0.000	18.4	1	1
03/08/06	6:48 p	-19.8	-19.8	-19.9	---	---	11.3	E	0.19	13.9	-30.4	---	---	732.5	0.027	0.000	18.4	1	1
03/08/06	6:49 p	-19.8	-19.8	-19.9	---	---	13.0	E	0.22	15.7	-31.1	---	---	732.5	0.027	0.000	18.4	1	1
03/08/06	6:50 p	-19.8	-19.8	-19.9	---	---	14.8	E	0.25	19.1	-31.8	---	---	732.3	0.027	0.000	18.4	1	1
03/08/06	6:51 p	-19.8	-19.8	-19.9	---	---	20.9	ENE	0.35	22.6	-33.6	---	---	732.5	0.027	0.000	18.4	1	1
03/08/06	6:52 p	-19.8	-19.8	-19.8	---	---	20.9	ENE	0.35	22.6	-33.6	---	---	732.5	0.027	0.000	18.4	1	1
03/08/06	6:53 p	-19.8	-19.8	-19.8	---	---	17.4	ENE	0.29	19.1	-32.6	---	---	732.5	0.027	0.000	18.4	1	1
03/08/06	6:54 p	-19.8	-19.8	-19.8	---	---	15.7	ENE	0.26	17.4	-32.1	---	---	732.6	0.027	0.000	18.4	1	1
03/08/06	6:55 p	-19.8	-19.8	-19.8	---	---	17.4	ENE	0.29	19.1	-32.6	---	---	732.6	0.027	0.000	18.4	1	1
03/08/06	6:56 p	-19.8	-19.8	-19.8	---	---	16.5	ENE	0.28	18.3	-32.4	---	---	732.6	0.027	0.000	18.4	1	1
03/08/06	6:57 p	-19.8	-19.8	-19.8	---	---	13.9	ENE	0.23	17.4	-31.4	---	---	732.6	0.027	0.000	18.4	1	1
03/08/06	6:58 p	-19.8	-19.8	-19.8	---	---	13.9	E	0.23	17.4	-31.4	---	---	732.5	0.027	0.000	18.4	1	1
03/08/06	6:59 p	-19.8	-19.8	-19.8	---	---	17.4	E	0.29	20.9	-32.6	---	---	732.5	0.027	0.000	18.4	1	1
03/08/06	7:00 p	-19.8	-19.8	-19.9	---	---	18.3	E	0.30	20.9	-32.9	---	---	732.6	0.027	0.000	18.4	1	1
03/08/06	7:01 p	-19.8	-19.8	-19.9	---	---	16.5	ENE	0.28	18.3	-32.4	---	---	732.6	0.027	0.000	18.4	1	1
03/08/06	7:02 p	-19.8	-19.8	-19.9	---	---	14.8	ENE	0.25	17.4	-31.8	---	---	732.6	0.027	0.000	18.4	1	1
03/08/06	7:03 p	-19.8	-19.8	-19.8	---	---	13.9	E	0.23	17.4	-31.4	---	---	732.6	0.027	0.000	18.4	1	1
03/08/06	7:04 p	-19.8	-19.8	-19.8	---	---	17.4	E	0.29	20.9	-32.6	---	---	732.5	0.027	0.000	18.4	1	1
03/08/06	7:05 p	-19.8	-19.8	-19.8	---	---	20.9	ENE	0.35	23.5	-33.6	---	---	732.5	0.027	0.000	18.4	1	1
03/08/06	7:06 p	-19.8	-19.8	-19.8	---	---	18.3	ENE	0.30	20.0	-32.9	---	---	732.6	0.027	0.000	18.4	1	1
03/08/06	7:07 p	-19.8	-19.8	-19.8	---	---	13.9	ENE	0.23	18.3	-31.4	---	---	732.7	0.026	0.000	18.4	1	1
03/08/06	7:08 p	-19.8	-19.8	-19.8	---	---	11.3	ENE	0.19	13.9	-30.3	---	---	732.8	0.026	0.000	18.4	1	1
03/08/06	7:09 p	-19.8	-19.7	-19.8	---	---	12.2	E	0.20	17.4	-30.7	---	---	732.6	0.026	0.000	18.4	1	1
03/08/06	7:10 p	-19.7	-19.7	-19.8	---	---	17.4	ENE	0.29	20.0	-32.5	---	---	732.6	0.026	0.000	18.4	1	1
03/08/06	7:11 p	-19.7	-19.7	-19.8	---	---	20.0	ENE	0.33	21.7	-33.2	---	---	732.6	0.026	0.000	18.4	1	1
03/08/06	7:12 p	-19.7	-19.7	-19.8	---	---	19.1	ENE	0.32	20.9	-33.0	---	---	732.6	0.026	0.000	18.4	1	1
03/08/06	7:13 p	-19.7	-19.7	-19.7	---	---	16.5	ENE	0.28	20.0	-32.2	---	---	732.7	0.026	0.000	18.4	1	1
03/08/06	7:14 p	-19.7	-19.7	-19.7	---	---	12.2	ENE	0.20	15.7	-30.6	---	---	732.7	0.026	0.000	18.4	1	1
03/08/06	7:15 p	-19.7	-19.6	-19.7	---	---	10.4	E	0.17	13.9	-29.8	---	---	732.7	0.026	0.000	18.4	1	1
03/08/06	7:16 p	-19.6	-19.6	-19.7	---	---	13.9	E	0.23	15.7	-31.2	---	---	732.7	0.026	0.000	18.4	1	1
03/08/06	7:17 p	-19.7	-19.7	-19.7	---	---	15.7	E	0.26	18.3	-31.9	---	---	732.7	0.026	0.000	18.4	1	1
03/08/06	7:18 p	-19.7	-19.6	-19.7	---	---	13.9	ENE	0.23	16.5	-31.2	---	---	732.7	0.026	0.000	18.4	1	1
03/08/06	7:19 p	-19.7	-19.6	-19.7	---	---	16.5	E	0.28	20.9	-32.2	---	---	732.7	0.026	0.000	18.4	1	1
03/08/06	7:20 p	-19.7	-19.7	-19.7	---	---	17.4	ENE	0.29	20.0	-32.5	---	---	732.8	0.026	0.000	18.3	1	1
03/08/06	7:21 p	-19.7	-19.6	-19.7	---	---	11.3	ENE	0.19	13.9	-30.2	---	---	732.8	0.026	0.000	18.3	1	1
03/08/06	7:22 p	-19.6	-19.6	-19.6	---	---	13.0	E	0.22	17.4	-30.8	---	---	732.7	0.026	0.000	18.3	1	1
03/08/06	7:23 p	-19.7	-19.6	-19.7	---	---	15.7	ENE	0.26	17.4	-31.9	---	---	732.7	0.026	0.000	18.3	1	1
03/08/06	7:24 p	-19.6	-19.6	-19.7	---	---	14.8	ENE	0.25	19.1	-31.5	---	---	732.7	0.026	0.000	18.3	1	1
03/08/06	7:25 p	-19.7	-19.6	-19.7	---	---	19.1	ENE	0.32	21.7	-32.9	---	---	732.8	0.026	0.000	18.3	1	1
03/08/06	7:26 p	-19.6	-19.6	-19.6	---	---	16.5	E	0.28	19.1	-32.1	---	---	732.8	0.026	0.000	18.3	1	1
03/08/06	7:27 p	-19.6	-19.6	-19.6	---	---	12.2	E	0.20	15.7	-30.5	---	---	733.0	0.026	0.000	18.3	1	1
03/08/06	7:28 p	-19.6	-19.6	-19.6	---	---	8.7	E	0.14	10.4	-28.8	---	---	732.9	0.026	0.000	18.3	1	1
03/08/06	7:29 p	-19.6	-19.6	-19.6	---	---	7.0	E	0.12	9.6	-27.8	---	---	732.9	0.026	0.000	18.3	1	1
03/08/06	7:30 p	-19.6	-19.6	-19.6	---	---	13.0	E	0.22	18.3	-30.8	---	---	732.9	0.026	0.000	18.3	1	1
03/08/06	7:31 p	-19.6	-19.6	-19.6	---	---	16.5	ENE	0.28	18.3	-32.0	---	---	732.8	0.026	0.000	18.3	1	1
03/08/06	7:32 p	-19.6	-19.5	-19.6	---	---	14.8	ENE	0.25	17.4	-31.4	---	---	732.8	0.026	0.000	18.3	1	1
03/08/06	7:33 p	-19.6	-19.5	-19.6	---	---	15.7	E	0.26	19.1	-31.7	---	---	732.8	0.026	0.000	18.4	1	1
03/08/06	7:34 p	-19.5	-19.5	-19.6	---	---	16.5	E	0.28	19.1	-31.9	---	---	732.8	0.026	0.000	18.4	1	1
03/08/06	7:35 p	-19.6	-19.5	-19.6	---	---	13.0	E	0.22	16.5	-30.8	---	---	732.9	0.026	0.000	18.4	1	1
03/08/06	7:36 p	-19.5	-19.5	-19.6	---	---	11.3	E	0.19	13.0	-30.0	---	---	733.0	0.026	0.000	18.4	1	1
03/08/06	7:37 p	-19.5	-19.5	-19.6	---	---	12.2	E	0.20	17.4	-30.3	---	---	732.8	0.026	0.000	18.4	1	1
03/08/06	7:38 p	-19.5	-19.5	-19.5	---	---	17.4	ENE	0.29	19.1	-32.2	---	---	732.8	0.026	0.000	18.4	1	1
03/08/06	7:39 p	-19.5	-19.5	-19.5	---	---	16.5	ENE	0.28	19.1	-31.9	---	---	732.9	0.026	0.000	18.4	1	1
03/08/06	7:40 p	-19.5	-19.5	-19.5	---	---	13.9	E	0.23	16.5	-31.1	---	---	733.0	0.026	0.000	18.4	1	1
03/08/06	7:41 p	-19.5	-19.4	-19.5	---	---	10.4	E	0.17	13.9	-29.6	---	---	733.1	0.026	0.000	18.4	1	1
03/08/06	7:42 p	-19.5	-19.5	-19.5	---	---	10.4	E	0.17	14.8	-29.6	---	---	732.9	0.026	0.000	18.4	1	1
03/08/06	7:43 p	-19.5	-19.5	-19.5	---	---	17.4	ENE	0.29	20.9	-32.2	---	---	732.8	0.026	0.000	18.4	1	1
03/08/06	7:44 p	-19.5	-19.5	-19.5	---	---	19.1	ENE	0.32	20.9	-32.7	---	---	732.9	0.026	0.000	18.4	1	1
03/08/06	7:45 p	-19.5	-19.5	-19.5	---	---	15.7	ENE	0.26	18.3	-31.7	---	---	733.0	0.026	0.000	18.4	1	1
03/08/06	7:46 p	-19.5	-19.5	-19.5	---	---	13.9	ENE	0.23	16.5	-31.1	---	---	733.0	0.026	0.000	18.4	1	1
03/08/06	7:47 p	-19.5	-19.5	-19.6	---	---	13.0	ENE	0.22	15.7	-30.7	---	---	732.9	0.026	0.000	18.4	1	1
03/08/06	7:48 p	-19.6	-19.5	-19.6	---	---	13.9	E	0.23	16.5	-31.1	---	---	733.0	0.026	0.000	18.4	1	1
03/08/06	7:49 p	-19.6	-19.6	-19.6	---	---	12.2	ENE	0.20	14.8	-30.4	---	---	733.0	0.026	0.000	18.4	1	1
03/08/06	7:50 p	-19.6	-19.5	-19.6	---	---	12.2	E	0.20	14.8	-30.4	---	---	733.0	0.026	0.000	18.4	1	1
03/08/06	7:51 p	-19.6	-19.6	-19.6	---	---	16.5	ENE	0.28	19.1	-32.0	---	---	732.9	0.026	0.000	18.4	1	1
03/08/06	7:52 p	-19.6	-19.6	-19.6	---	---	17.4	ENE	0.29	19.1	-32.3	---	---	733.0	0.026	0.000	18.4	1	1
03/08/06	7:53 p	-19.6	-19.6	-19.6	---	---	16.5	ENE	0.28	18.3	-32.0	---	---	733.0	0.026	0.000	18.4	1	1
03/08/06	7:54 p	-19.6	-19.6	-19.6	---	---	14.8	ENE	0.25	16.5	-31.5	---	---	733.1	0.026	0.000	18.4	1	1
03/08/06	7:55 p	-19.6	-19.6	-19.6	---	---	13.9	ENE	0.23	16.5	-31.2	---	---	732.9	0.026	0.000	18.4	1	1
03/08/06	7:56 p	-19.6	-19.6	-19.6	---	---	14.8	ENE	0.25	17.4	-31.5	---	---	733.1	0.026	0.000	18.4	1	1
03/08/06	7:57 p	-19.6	-19.6	-19.6	---	---	9.6	E	0.16	13.9	-29.3	---	---	733.1	0.026	0.000	18.5	1	1
03/08/06	7:58 p	-19.6	-19.6	-19.6	---	---	5.2	E	0.09	7.8	-26.5	---	---	733.1	0.026	0.000	18.5	1	1
03/08/06	7:59 p	-19.6	-19.6	-19.6	---	---	9.6	E	0.16	17.4	-29.3	---	---	732.9	0.026	0.000	18.5	1	1
03/08/06	8:00 p	-19.6	-19.6	-19.6	---	---	17.4	ENE	0.29	20.0	-32.3	---	---	733.0	0.026	0.000	18.5	1	1
03/08/06	8:01 p	-19.6	-19.6	-19.6	---	---	14.8	ENE	0.25	17.4	-31.5	---	---	733.0	0.026	0.000	18.6	1	1
03/08/06	8:02 p	-19.6	-19.6	-19.6	---	---	16.5	ENE	0.28	18.3	-32.1	---	---	733.1	0.026	0.000	18.6	1	1
03/08/06	8:03 p	-19.6	-19.6	-19.6	---	---	13.0	ENE	0.22	14.8	-30.8	---	---	733.0	0.026	0.000	18.6	1	1
03/08/06	8:04 p	-19.6	-19.6	-19.6	---	---	13.0	ENE	0.22	13.9	-30.8	---	---	733.1	0.026	0.000	18.6	1	1
03/08/06	8:05 p	-19.6	-19.6	-19.6	---	---	9.6	E	0.16	13.0	-29.3	---	---	733.0	0.026	0.000	18.6	1	1
03/08/06	8:06 p	-19.6	-19.6	-19.6	---	---	9.6	E	0.16	12.2	-29.2	---	---	733.1	0.026	0.000	18.7	1	1
03/08/06	8:07 p	-19.6	-19.6	-19.6	---	---	13.9	ENE	0.23	18.3	-31.1	---	---	733.1	0.026	0.000	18.7	1	1
03/08/06	8:08 p	-19.6	-19.6	-19.6	---	---	16.5	ENE	0.28	18.3	-32.0	---	---	733.1	0.026	0.000	18.7	1	1
03/08/06	8:09 p	-19.6	-19.6	-19.6	---	---	14.8	ENE	0.25	18.3	-31.4	---	---	733.1	0.026	0.000	18.7	1	1
03/08/06	8:10 p	-19.6	-19.6	-19.6	---	---	15.7	ENE	0.26	17.4	-31.7	---	---	733.0	0.026	0.000	18.7	1	1
03/08/06	8:11 p	-19.6	-19.6	-19.6	---	---	13.9	ENE	0.23	16.5	-31.1	---	---	733.1	0.026	0.000	18.7	1	1
03/08/06	8:12 p	-19.6	-19.6	-19.6	---	---	14.8	ENE	0.25	17.4	-31.4	---	---	733.1	0.026	0.000	18.8	1	1
03/08/06	8:13 p	-19.6	-19.6	-19.6	---	---	11.3	ENE	0.19	13.9	-30.1	---	---	733.1	0.026	0.000	18.8	1	1
03/08/06	8:14 p	-19.6	-19.5	-19.6	---	---	13.9	E	0.23	16.5	-31.1	---	---	733.0	0.026	0.000	18.8	1	1
03/08/06	8:15 p	-19.5	-19.5	-19.6	---	---	15.7	E	0.26	19.1	-31.7	---	---	733.2	0.026	0.000	18.8	1	1
03/08/06	8:16 p	-19.6	-19.5	-19.6	---	---	9.6	E	0.16	13.0	-29.2	---	---	733.3	0.026	0.000	18.8	1	1
03/08/06	8:17 p	-19.5	-19.5	-19.5	---	---	9.6	E	0.16	14.8	-29.2	---	---	733.1	0.026	0.000	18.8	1	1
03/08/06	8:18 p	-19.5	-19.5	-19.5	---	---	15.7	ENE	0.26	17.4	-31.7	---	---	733.2	0.026	0.000	18.9	1	1
03/08/06	8:19 p	-19.5	-19.5	-19.5	---	---	13.9	ENE	0.23	16.5	-31.1	---	---	733.2	0.026	0.000	18.9	1	1
03/08/06	8:20 p	-19.5	-19.5	-19.5	---	---	14.8	ENE	0.25	16.5	-31.3	---	---	733.2	0.026	0.000	18.9	1	1
03/08/06	8:21 p	-19.5	-19.5	-19.5	---	---	13.9	E	0.23	15.7	-31.1	---	---	733.2	0.026	0.000	18.9	1	1
03/08/06	8:22 p	-19.5	-19.5	-19.5	---	---	13.0	E	0.22	13.9	-30.7	---	---	733.2	0.026	0.000	18.9	1	1
03/08/06	8:23 p	-19.5	-19.5	-19.5	---	---	11.3	E	0.19	13.9	-30.0	---	---	733.2	0.026	0.000	18.9	1	1
03/08/06	8:24 p	-19.5	-19.5	-19.5	---	---	9.6	E	0.16	12.2	-29.2	---	---	733.1	0.026	0.000	18.9	1	1
03/08/06	8:25 p	-19.5	-19.5	-19.5	---	---	13.9	E	0.23	16.5	-31.1	---	---	733.1	0.026	0.000	18.9	1	1
03/08/06	8:26 p	-19.5	-19.5	-19.5	---	---	15.7	ENE	0.26	17.4	-31.7	---	---	733.2	0.026	0.000	18.9	1	1
03/08/06	8:27 p	-19.5	-19.4	-19.5	---	---	13.9	E	0.23	16.5	-31.1	---	---	733.3	0.026	0.000	18.9	1	1
03/08/06	8:28 p	-19.4	-19.4	-19.5	---	---	11.3	E	0.19	13.0	-29.9	---	---	733.3	0.026	0.000	18.9	1	1
03/08/06	8:29 p	-19.4	-19.4	-19.5	---	---	12.2	E	0.20	14.8	-30.3	---	---	733.2	0.026	0.000	18.9	1	1
03/08/06	8:30 p	-19.4	-19.4	-19.4	---	---	13.0	ENE	0.22	14.8	-30.6	---	---	733.2	0.026	0.000	18.9	1	1
03/08/06	8:31 p	-19.4	-19.4	-19.4	---	---	12.2	ENE	0.20	13.9	-30.2	---	---	733.3	0.026	0.000	18.9	1	1
03/08/06	8:32 p	-19.4	-19.4	-19.4	---	---	12.2	E	0.20	13.9	-30.2	---	---	733.3	0.026	0.000	18.9	1	1
03/08/06	8:33 p	-19.4	-19.4	-19.4	---	---	11.3	E	0.19	13.9	-29.8	---	---	733.3	0.026	0.000	18.9	1	1
03/08/06	8:34 p	-19.4	-19.4	-19.4	---	---	11.3	E	0.19	13.9	-29.9	---	---	733.2	0.026	0.000	18.9	1	1
03/08/06	8:35 p	-19.4	-19.4	-19.4	---	---	13.0	E	0.22	14.8	-30.6	---	---	733.3	0.026	0.000	19.0	1	1
03/08/06	8:36 p	-19.4	-19.4	-19.4	---	---	14.8	ENE	0.25	15.7	-31.2	---	---	733.2	0.026	0.000	19.0	1	1
03/08/06	8:37 p	-19.4	-19.4	-19.4	---	---	13.9	ENE	0.23	14.8	-30.9	---	---	733.4	0.026	0.000	19.0	1	1
03/08/06	8:38 p	-19.4	-19.4	-19.4	---	---	11.3	ENE	0.19	12.2	-29.8	---	---	733.4	0.026	0.000	18.9	1	1
03/08/06	8:39 p	-19.4	-19.3	-19.4	---	---	12.2	E	0.20	16.5	-30.2	---	---	733.2	0.026	0.000	19.0	1	1
03/08/06	8:40 p	-19.3	-19.3	-19.3	---	---	14.8	ENE	0.25	17.4	-31.1	---	---	733.3	0.026	0.000	19.0	1	1
03/08/06	8:41 p	-19.3	-19.3	-19.3	---	---	13.9	ENE	0.23	16.5	-30.8	---	---	733.5	0.026	0.000	19.0	1	1
03/08/06	8:42 p	-19.3	-19.3	-19.3	---	---	11.3	ENE	0.19	13.0	-29.8	---	---	733.5	0.026	0.000	18.9	1	1
03/08/06	8:43 p	-19.3	-19.3	-19.3	---	---	8.7	E	0.14	11.3	-28.5	---	---	733.5	0.026	0.000	18.9	1	1
03/08/06	8:44 p	-19.3	-19.3	-19.3	---	---	8.7	E	0.14	12.2	-28.5	---	---	733.5	0.026	0.000	18.9	1	1
03/08/06	8:45 p	-19.3	-19.3	-19.3	---	---	13.9	ENE	0.23	16.5	-30.8	---	---	733.4	0.026	0.000	18.9	1	1
03/08/06	8:46 p	-19.3	-19.3	-19.3	---	---	14.8	ENE	0.25	15.7	-31.1	---	---	733.4	0.026	0.000	18.9	1	1
03/08/06	8:47 p	-19.3	-19.3	-19.3	---	---	13.9	E	0.23	15.7	-30.7	---	---	733.5	0.026	0.000	18.9	2	1
03/08/06	8:48 p	-19.3	-19.3	-19.3	---	---	13.9	ENE	0.23	15.7	-30.8	---	---	733.6	0.026	0.000	18.9	2	1
03/08/06	8:49 p	-19.3	-19.3	-19.3	---	---	13.0	ENE	0.22	13.9	-30.5	---	---	733.6	0.026	0.000	18.9	1	1
03/08/06	8:50 p	-19.3	-19.3	-19.3	---	---	8.7	ENE	0.14	11.3	-28.5	---	---	733.7	0.026	0.000	18.9	1	1
03/08/06	8:51 p	-19.3	-19.3	-19.3	---	---	4.3	E	0.07	7.8	-25.3	---	---	733.7	0.026	0.000	18.9	2	1
03/08/06	8:52 p	-19.3	-19.3	-19.3	---	---	4.3	E	0.07	9.6	-25.3	---	---	733.6	0.026	0.000	18.9	2	1
03/08/06	8:53 p	-19.3	-19.2	-19.3	---	---	12.2	ENE	0.20	14.8	-30.1	---	---	733.5	0.026	0.000	18.9	2	1
03/08/06	8:54 p	-19.3	-19.2	-19.3	---	---	13.9	ENE	0.23	14.8	-30.7	---	---	733.5	0.026	0.000	18.9	2	1
03/08/06	8:55 p	-19.2	-19.2	-19.2	---	---	11.3	ENE	0.19	13.0	-29.6	---	---	733.5	0.026	0.000	18.9	2	1
03/08/06	8:56 p	-19.2	-19.2	-19.2	---	---	13.0	ENE	0.22	16.5	-30.3	---	---	733.6	0.026	0.000	18.9	2	1
03/08/06	8:57 p	-19.2	-19.2	-19.3	---	---	12.2	ENE	0.20	14.8	-30.0	---	---	733.6	0.026	0.000	18.9	2	1
03/08/06	8:58 p	-19.2	-19.2	-19.2	---	---	8.7	ENE	0.14	10.4	-28.4	---	---	733.7	0.026	0.000	18.9	2	1
03/08/06	8:59 p	-19.2	-19.2	-19.2	---	---	8.7	ENE	0.14	12.2	-28.3	---	---	733.6	0.026	0.000	18.9	2	1
03/08/06	9:00 p	-19.2	-19.2	-19.2	---	---	12.2	E	0.20	13.9	-29.9	---	---	733.7	0.026	0.000	18.9	2	1
03/08/06	9:01 p	-19.2	-19.2	-19.2	---	---	12.2	E	0.20	13.0	-29.9	---	---	733.6	0.026	0.000	18.9	2	1
03/08/06	9:02 p	-19.2	-19.2	-19.2	---	---	11.3	ENE	0.19	13.0	-29.6	---	---	733.7	0.026	0.000	19.0	2	1
03/08/06	9:03 p	-19.2	-19.2	-19.2	---	---	7.8	ENE	0.13	9.6	-27.8	---	---	733.8	0.026	0.000	19.0	2	1
03/08/06	9:04 p	-19.1	-19.1	-19.2	---	---	6.1	E	0.10	8.7	-26.6	---	---	733.7	0.026	0.000	19.0	2	1
03/08/06	9:05 p	-19.1	-19.1	-19.1	---	---	11.3	E	0.19	13.9	-29.5	---	---	733.7	0.026	0.000	19.1	2	1
03/08/06	9:06 p	-19.1	-19.1	-19.1	---	---	12.2	ENE	0.20	13.9	-29.8	---	---	733.8	0.026	0.000	19.1	2	1
03/08/06	9:07 p	-19.1	-19.1	-19.1	---	---	9.6	NE	0.16	10.4	-28.7	---	---	733.8	0.026	0.000	19.1	2	1
03/08/06	9:08 p	-19.1	-19.1	-19.1	---	---	8.7	NE	0.14	10.4	-28.2	---	---	733.8	0.026	0.000	19.1	2	1
03/08/06	9:09 p	-19.1	-19.1	-19.1	---	---	8.7	E	0.14	10.4	-28.2	---	---	733.8	0.026	0.000	19.1	2	1
03/08/06	9:10 p	-19.0	-19.0	-19.1	---	---	7.0	ENE	0.12	8.7	-27.1	---	---	733.8	0.026	0.000	19.1	2	1
03/08/06	9:11 p	-19.0	-19.0	-19.1	---	---	7.8	E	0.13	12.2	-27.6	---	---	733.6	0.026	0.000	19.1	2	1
03/08/06	9:12 p	-19.0	-19.0	-19.0	---	---	12.2	ENE	0.20	13.9	-29.7	---	---	733.8	0.026	0.000	19.1	2	1
03/08/06	9:13 p	-19.0	-19.0	-19.0	---	---	11.3	E	0.19	13.0	-29.3	---	---	733.9	0.026	0.000	19.1	2	1
03/08/06	9:14 p	-19.0	-19.0	-19.0	---	---	8.7	E	0.14	11.3	-28.1	---	---	733.8	0.026	0.000	19.1	2	1
03/08/06	9:15 p	-19.0	-19.0	-19.0	---	---	7.8	E	0.13	10.4	-27.6	---	---	733.8	0.026	0.000	19.1	2	1
03/08/06	9:16 p	-19.0	-18.9	-19.0	---	---	11.3	E	0.19	13.0	-29.3	---	---	733.8	0.026	0.000	19.1	2	1
03/08/06	9:17 p	-18.9	-18.9	-18.9	---	---	13.9	ENE	0.23	14.8	-30.3	---	---	733.9	0.026	0.000	19.1	2	1
03/08/06	9:18 p	-19.0	-18.9	-19.0	---	---	13.0	ENE	0.22	14.8	-30.1	---	---	733.8	0.026	0.000	19.1	2	1
03/08/06	9:19 p	-18.9	-18.9	-19.0	---	---	11.3	E	0.19	13.0	-29.3	---	---	733.9	0.026	0.000	19.1	2	1
03/08/06	9:20 p	-18.9	-18.9	-19.0	---	---	8.7	E	0.14	10.4	-28.0	---	---	733.9	0.026	0.000	19.1	2	1
03/08/06	9:21 p	-18.9	-18.9	-18.9	---	---	6.1	E	0.10	7.8	-26.4	---	---	734.0	0.026	0.000	19.1	2	1
03/08/06	9:22 p	-18.9	-18.9	-18.9	---	---	7.8	E	0.13	9.6	-27.4	---	---	733.8	0.026	0.000	19.2	3	1
03/08/06	9:23 p	-18.9	-18.9	-18.9	---	---	10.4	E	0.17	12.2	-28.8	---	---	733.8	0.026	0.000	19.2	3	1
03/08/06	9:24 p	-18.9	-18.9	-18.9	---	---	12.2	E	0.20	13.0	-29.6	---	---	733.8	0.026	0.000	19.2	3	1
03/08/06	9:25 p	-18.9	-18.9	-18.9	---	---	12.2	E	0.20	13.9	-29.6	---	---	733.8	0.026	0.000	19.2	3	1
03/08/06	9:26 p	-18.9	-18.9	-18.9	---	---	12.2	E	0.20	13.0	-29.6	---	---	733.8	0.026	0.000	19.2	3	1
03/08/06	9:27 p	-18.9	-18.9	-18.9	---	---	11.3	E	0.19	13.0	-29.2	---	---	733.9	0.026	0.000	19.2	3	1
03/08/06	9:28 p	-18.9	-18.9	-18.9	---	---	11.3	E	0.19	13.0	-29.2	---	---	733.8	0.026	0.000	19.2	3	1
03/08/06	9:29 p	-18.9	-18.8	-18.9	---	---	10.4	E	0.17	11.3	-28.8	---	---	733.9	0.026	0.000	19.2	3	1
03/08/06	9:30 p	-18.9	-18.8	-18.9	---	---	8.7	E	0.14	11.3	-27.9	---	---	734.0	0.026	0.000	19.2	3	1
03/08/06	9:31 p	-18.8	-18.8	-18.8	---	---	7.8	E	0.13	9.6	-27.4	---	---	734.0	0.026	0.000	19.2	3	1
03/08/06	9:32 p	-18.8	-18.8	-18.8	---	---	8.7	E	0.14	11.3	-27.9	---	---	733.8	0.026	0.000	19.2	3	1
03/08/06	9:33 p	-18.8	-18.8	-18.8	---	---	10.4	E	0.17	13.0	-28.8	---	---	733.8	0.026	0.000	19.2	3	1
03/08/06	9:34 p	-18.9	-18.8	-18.9	---	---	11.3	E	0.19	13.9	-29.2	---	---	733.9	0.026	0.000	19.3	4	1
03/08/06	9:35 p	-18.9	-18.9	-18.9	---	---	8.7	E	0.14	11.3	-27.9	---	---	733.9	0.026	0.000	19.3	4	1
03/08/06	9:36 p	-18.9	-18.8	-18.9	---	---	8.7	E	0.14	10.4	-27.9	---	---	734.0	0.026	0.000	19.3	3	1
03/08/06	9:37 p	-18.8	-18.8	-18.9	---	---	9.6	E	0.16	12.2	-28.3	---	---	734.0	0.026	0.000	19.3	4	1
03/08/06	9:38 p	-18.8	-18.8	-18.8	---	---	12.2	E	0.20	13.9	-29.5	---	---	733.9	0.026	0.000	19.3	4	1
03/08/06	9:39 p	-18.8	-18.8	-18.8	---	---	11.3	E	0.19	13.0	-29.2	---	---	734.0	0.026	0.000	19.2	4	1
03/08/06	9:40 p	-18.8	-18.8	-18.8	---	---	10.4	E	0.17	12.2	-28.8	---	---	734.0	0.026	0.000	19.2	4	1
03/08/06	9:41 p	-18.8	-18.8	-18.8	---	---	8.7	E	0.14	10.4	-27.9	---	---	734.0	0.026	0.000	19.2	4	1
03/08/06	9:42 p	-18.8	-18.8	-18.8	---	---	9.6	E	0.16	11.3	-28.3	---	---	734.1	0.026	0.000	19.2	4	1
03/08/06	9:43 p	-18.8	-18.8	-18.8	---	---	10.4	E	0.17	11.3	-28.8	---	---	734.1	0.026	0.000	19.2	4	1
03/08/06	9:44 p	-18.8	-18.8	-18.8	---	---	10.4	E	0.17	11.3	-28.8	---	---	734.0	0.026	0.000	19.1	4	1
03/08/06	9:45 p	-18.8	-18.8	-18.8	---	---	9.6	E	0.16	11.3	-28.3	---	---	734.1	0.026	0.000	19.1	4	1
03/08/06	9:46 p	-18.8	-18.8	-18.8	---	---	8.7	E	0.14	12.2	-27.8	---	---	734.0	0.026	0.000	19.1	4	1
03/08/06	9:47 p	-18.8	-18.8	-18.8	---	---	11.3	E	0.19	13.0	-29.2	---	---	734.0	0.026	0.000	19.1	4	1
03/08/06	9:48 p	-18.8	-18.8	-18.8	---	---	11.3	E	0.19	13.0	-29.2	---	---	734.1	0.026	0.000	19.1	4	1
03/08/06	9:49 p	-18.8	-18.8	-18.8	---	---	10.4	E	0.17	12.2	-28.8	---	---	734.1	0.026	0.000	19.1	4	1
03/08/06	9:50 p	-18.8	-18.8	-18.8	---	---	8.7	E	0.14	9.6	-27.8	---	---	734.2	0.026	0.000	19.1	4	1
03/08/06	9:51 p	-18.8	-18.7	-18.8	---	---	8.7	E	0.14	10.4	-27.8	---	---	734.1	0.026	0.000	19.1	4	1
03/08/06	9:52 p	-18.7	-18.7	-18.8	---	---	10.4	E	0.17	13.0	-28.6	---	---	734.1	0.026	0.000	19.1	4	1
03/08/06	9:53 p	-18.8	-18.8	-18.8	---	---	11.3	E	0.19	13.0	-29.1	---	---	734.1	0.026	0.000	19.1	4	1
03/08/06	9:54 p	-18.8	-18.8	-18.8	---	---	11.3	E	0.19	13.0	-29.1	---	---	734.1	0.026	0.000	19.1	4	1
03/08/06	9:55 p	-18.8	-18.7	-18.8	---	---	10.4	E	0.17	11.3	-28.7	---	---	734.1	0.026	0.000	19.1	4	1
03/08/06	9:56 p	-18.8	-18.8	-18.8	---	---	7.8	E	0.13	9.6	-27.3	---	---	734.1	0.026	0.000	19.0	4	1
03/08/06	9:57 p	-18.8	-18.7	-18.8	---	---	7.8	E	0.13	11.3	-27.3	---	---	734.1	0.026	0.000	19.0	4	1
03/08/06	9:58 p	-18.7	-18.7	-18.8	---	---	10.4	E	0.17	13.0	-28.6	---	---	734.1	0.026	0.000	19.0	4	1
03/08/06	9:59 p	-18.7	-18.7	-18.8	---	---	12.2	ENE	0.20	13.9	-29.4	---	---	734.2	0.026	0.000	19.0	3	1
03/08/06	10:00 p	-18.8	-18.7	-18.8	---	---	11.3	E	0.19	13.9	-29.1	---	---	734.1	0.026	0.000	19.0	4	1
03/08/06	10:01 p	-18.8	-18.8	-18.8	---	---	7.8	E	0.13	10.4	-27.3	---	---	734.3	0.026	0.000	19.0	4	1
03/08/06	10:02 p	-18.7	-18.7	-18.7	---	---	5.2	E	0.09	7.8	-25.4	---	---	734.2	0.026	0.000	19.0	4	1
03/08/06	10:03 p	-18.7	-18.7	-18.7	---	---	6.1	E	0.10	8.7	-26.1	---	---	734.2	0.026	0.000	19.0	4	1
03/08/06	10:04 p	-18.7	-18.7	-18.7	---	---	9.6	E	0.16	12.2	-28.2	---	---	734.1	0.026	0.000	19.0	3	1
03/08/06	10:05 p	-18.7	-18.7	-18.7	---	---	9.6	ENE	0.16	11.3	-28.2	---	---	734.2	0.026	0.000	19.0	3	1
03/08/06	10:06 p	-18.7	-18.7	-18.7	---	---	8.7	E	0.14	10.4	-27.7	---	---	734.3	0.026	0.000	19.0	3	1
03/08/06	10:07 p	-18.7	-18.7	-18.7	---	---	7.8	ENE	0.13	9.6	-27.3	---	---	734.2	0.026	0.000	19.0	3	1
03/08/06	10:08 p	-18.7	-18.7	-18.7	---	---	7.8	ENE	0.13	8.7	-27.3	---	---	734.3	0.026	0.000	19.0	3	1
03/08/06	10:09 p	-18.7	-18.7	-18.7	---	---	8.7	ENE	0.14	11.3	-27.7	---	---	734.3	0.026	0.000	19.0	3	1
03/08/06	10:10 p	-18.7	-18.7	-18.7	---	---	10.4	ENE	0.17	11.3	-28.6	---	---	734.2	0.026	0.000	19.0	3	1
03/08/06	10:11 p	-18.7	-18.7	-18.7	---	---	8.7	ENE	0.14	9.6	-27.7	---	---	734.4	0.026	0.000	19.0	3	1
03/08/06	10:12 p	-18.7	-18.6	-18.7	---	---	7.0	ENE	0.12	8.7	-26.7	---	---	734.3	0.026	0.000	19.0	3	1
03/08/06	10:13 p	-18.7	-18.6	-18.7	---	---	7.8	E	0.13	10.4	-27.2	---	---	734.2	0.026	0.000	19.0	3	1
03/08/06	10:14 p	-18.6	-18.6	-18.7	---	---	10.4	ENE	0.17	12.2	-28.5	---	---	734.2	0.026	0.000	19.0	3	1
03/08/06	10:15 p	-18.7	-18.6	-18.7	---	---	9.6	E	0.16	11.3	-28.1	---	---	734.2	0.026	0.000	19.0	3	1
03/08/06	10:16 p	-18.7	-18.6	-18.7	---	---	8.7	E	0.14	9.6	-27.7	---	---	734.3	0.026	0.000	19.0	3	1
03/08/06	10:17 p	-18.6	-18.6	-18.7	---	---	7.0	E	0.12	7.8	-26.6	---	---	734.3	0.026	0.000	19.0	3	1
03/08/06	10:18 p	-18.6	-18.6	-18.6	---	---	8.7	E	0.14	11.3	-27.6	---	---	734.3	0.026	0.000	19.0	3	1
03/08/06	10:19 p	-18.6	-18.6	-18.6	---	---	12.2	E	0.20	13.9	-29.2	---	---	734.3	0.026	0.000	19.0	3	1
03/08/06	10:20 p	-18.6	-18.6	-18.6	---	---	10.4	E	0.17	12.2	-28.5	---	---	734.3	0.026	0.000	19.0	3	1
03/08/06	10:21 p	-18.6	-18.6	-18.6	---	---	9.6	E	0.16	11.3	-28.1	---	---	734.2	0.026	0.000	19.0	3	1
03/08/06	10:22 p	-18.6	-18.6	-18.6	---	---	7.0	E	0.12	8.7	-26.6	---	---	734.3	0.026	0.000	19.0	3	1
03/08/06	10:23 p	-18.6	-18.6	-18.6	---	---	7.8	E	0.13	10.4	-27.1	---	---	734.3	0.026	0.000	19.0	3	1
03/08/06	10:24 p	-18.6	-18.6	-18.6	---	---	10.4	E	0.17	13.0	-28.4	---	---	734.3	0.026	0.000	19.0	3	1
03/08/06	10:25 p	-18.6	-18.6	-18.6	---	---	9.6	E	0.16	11.3	-28.0	---	---	734.3	0.026	0.000	19.0	3	1
03/08/06	10:26 p	-18.6	-18.6	-18.6	---	---	9.6	E	0.16	11.3	-28.0	---	---	734.4	0.026	0.000	19.0	3	1
03/08/06	10:27 p	-18.6	-18.6	-18.6	---	---	11.3	E	0.19	13.0	-28.8	---	---	734.4	0.026	0.000	19.0	3	1
03/08/06	10:28 p	-18.6	-18.6	-18.6	---	---	8.7	E	0.14	11.3	-27.6	---	---	734.4	0.026	0.000	19.0	3	1
03/08/06	10:29 p	-18.6	-18.6	-18.6	---	---	7.0	E	0.12	9.6	-26.6	---	---	734.4	0.026	0.000	19.0	3	1
03/08/06	10:30 p	-18.6	-18.6	-18.6	---	---	10.4	E	0.17	12.2	-28.4	---	---	734.4	0.026	0.000	19.0	3	1
03/08/06	10:31 p	-18.6	-18.6	-18.6	---	---	11.3	E	0.19	13.0	-28.8	---	---	734.4	0.026	0.000	19.0	3	1
03/08/06	10:32 p	-18.6	-18.6	-18.6	---	---	9.6	E	0.16	10.4	-28.0	---	---	734.4	0.026	0.000	19.0	3	1
03/08/06	10:33 p	-18.6	-18.6	-18.6	---	---	9.6	E	0.16	11.3	-28.1	---	---	734.4	0.026	0.000	19.0	3	1
03/08/06	10:34 p	-18.6	-18.6	-18.6	---	---	10.4	E	0.17	13.0	-28.5	---	---	734.3	0.026	0.000	19.0	3	1
03/08/06	10:35 p	-18.6	-18.6	-18.7	---	---	11.3	ENE	0.19	13.0	-28.8	---	---	734.4	0.026	0.000	19.0	3	1
03/08/06	10:36 p	-18.6	-18.6	-18.7	---	---	7.8	ENE	0.13	10.4	-27.1	---	---	734.3	0.026	0.000	19.0	3	1
03/08/06	10:37 p	-18.6	-18.6	-18.7	---	---	7.8	E	0.13	9.6	-27.1	---	---	734.3	0.026	0.000	19.0	3	1
03/08/06	10:38 p	-18.6	-18.6	-18.6	---	---	8.7	E	0.14	9.6	-27.6	---	---	734.3	0.026	0.000	19.0	3	1
03/08/06	10:39 p	-18.6	-18.6	-18.6	---	---	9.6	ENE	0.16	11.3	-28.1	---	---	734.4	0.026	0.000	19.0	3	1
03/08/06	10:40 p	-18.6	-18.6	-18.6	---	---	9.6	E	0.16	11.3	-28.1	---	---	734.4	0.026	0.000	19.0	3	1
03/08/06	10:41 p	-18.6	-18.6	-18.7	---	---	8.7	E	0.14	10.4	-27.6	---	---	734.5	0.026	0.000	19.0	3	1
03/08/06	10:42 p	-18.6	-18.6	-18.7	---	---	7.8	E	0.13	9.6	-27.1	---	---	734.4	0.026	0.000	19.0	3	1
03/08/06	10:43 p	-18.7	-18.6	-18.7	---	---	9.6	ENE	0.16	10.4	-28.1	---	---	734.5	0.026	0.000	19.0	3	1
03/08/06	10:44 p	-18.7	-18.7	-18.7	---	---	8.7	ENE	0.14	10.4	-27.7	---	---	734.4	0.026	0.000	19.0	3	1
03/08/06	10:45 p	-18.7	-18.6	-18.7	---	---	7.0	E	0.12	8.7	-26.7	---	---	734.6	0.026	0.000	19.0	3	1
03/08/06	10:46 p	-18.6	-18.6	-18.7	---	---	7.0	ENE	0.12	8.7	-26.6	---	---	734.5	0.026	0.000	18.9	3	1
03/08/06	10:47 p	-18.6	-18.6	-18.6	---	---	7.0	E	0.12	8.7	-26.6	---	---	734.5	0.026	0.000	18.9	3	1
03/08/06	10:48 p	-18.6	-18.6	-18.6	---	---	6.1	E	0.10	8.7	-25.9	---	---	734.5	0.026	0.000	19.0	3	1
03/08/06	10:49 p	-18.6	-18.6	-18.6	---	---	6.1	E	0.10	7.8	-26.0	---	---	734.5	0.026	0.000	18.9	3	1
03/08/06	10:50 p	-18.6	-18.6	-18.6	---	---	7.0	E	0.12	9.6	-26.5	---	---	734.5	0.026	0.000	19.0	3	1
03/08/06	10:51 p	-18.6	-18.6	-18.6	---	---	7.8	E	0.13	10.4	-27.1	---	---	734.5	0.026	0.000	18.9	3	1
03/08/06	10:52 p	-18.6	-18.6	-18.6	---	---	7.8	E	0.13	11.3	-27.1	---	---	734.5	0.026	0.000	18.9	3	1
03/08/06	10:53 p	-18.6	-18.6	-18.6	---	---	7.0	E	0.12	8.7	-26.5	---	---	734.5	0.026	0.000	18.9	3	1
03/08/06	10:54 p	-18.6	-18.6	-18.6	---	---	7.0	E	0.12	10.4	-26.5	---	---	734.5	0.026	0.000	18.9	3	1
03/08/06	10:55 p	-18.6	-18.6	-18.6	---	---	7.8	E	0.13	10.4	-27.1	---	---	734.5	0.026	0.000	18.9	3	1
03/08/06	10:56 p	-18.6	-18.5	-18.6	---	---	7.8	E	0.13	9.6	-27.1	---	---	734.6	0.026	0.000	18.9	3	1
03/08/06	10:57 p	-18.6	-18.5	-18.6	---	---	6.1	E	0.10	8.7	-25.9	---	---	734.6	0.026	0.000	18.9	3	1
03/08/06	10:58 p	-18.6	-18.6	-18.6	---	---	7.8	E	0.13	10.4	-27.1	---	---	734.5	0.026	0.000	18.9	3	1
03/08/06	10:59 p	-18.6	-18.6	-18.6	---	---	8.7	E	0.14	10.4	-27.6	---	---	734.5	0.026	0.000	19.0	3	1
03/08/06	11:00 p	-18.6	-18.6	-18.6	---	---	7.8	E	0.13	9.6	-27.1	---	---	734.6	0.026	0.000	18.9	3	1
03/08/06	11:01 p	-18.6	-18.6	-18.6	---	---	7.0	E	0.12	8.7	-26.6	---	---	734.5	0.026	0.000	19.0	3	1
03/08/06	11:02 p	-18.6	-18.6	-18.6	---	---	7.0	E	0.12	9.6	-26.5	---	---	734.6	0.026	0.000	19.0	3	1
03/08/06	11:03 p	-18.6	-18.6	-18.6	---	---	7.8	E	0.13	9.6	-27.1	---	---	734.5	0.026	0.000	19.0	2	1
03/08/06	11:04 p	-18.6	-18.6	-18.6	---	---	7.8	E	0.13	10.4	-27.1	---	---	734.7	0.026	0.000	19.0	2	1
03/08/06	11:05 p	-18.7	-18.6	-18.7	---	---	6.1	E	0.10	7.8	-26.1	---	---	734.6	0.026	0.000	19.0	3	1
03/08/06	11:06 p	-18.6	-18.6	-18.7	---	---	6.1	E	0.10	7.8	-26.0	---	---	734.6	0.026	0.000	19.0	3	1
03/08/06	11:07 p	-18.6	-18.6	-18.7	---	---	5.2	E	0.09	7.8	-25.3	---	---	734.6	0.026	0.000	19.0	2	1
03/08/06	11:08 p	-18.6	-18.6	-18.6	---	---	5.2	E	0.09	7.0	-25.3	---	---	734.6	0.026	0.000	19.1	2	1
03/08/06	11:09 p	-18.6	-18.6	-18.7	---	---	6.1	E	0.10	10.4	-26.0	---	---	734.6	0.026	0.000	19.0	2	1
03/08/06	11:10 p	-18.7	-18.6	-18.7	---	---	7.8	E	0.13	9.6	-27.2	---	---	734.6	0.026	0.000	19.0	2	1
03/08/06	11:11 p	-18.6	-18.6	-18.6	---	---	6.1	E	0.10	9.6	-26.0	---	---	734.6	0.026	0.000	19.1	2	1
03/08/06	11:12 p	-18.6	-18.6	-18.6	---	---	6.1	E	0.10	8.7	-26.0	---	---	734.7	0.026	0.000	19.0	2	1
03/08/06	11:13 p	-18.6	-18.6	-18.6	---	---	7.0	E	0.12	8.7	-26.5	---	---	734.6	0.026	0.000	19.1	2	1
03/08/06	11:14 p	-18.6	-18.6	-18.6	---	---	6.1	E	0.10	8.7	-25.9	---	---	734.6	0.026	0.000	19.1	2	1
03/08/06	11:15 p	-18.6	-18.6	-18.6	---	---	6.1	ENE	0.10	8.7	-25.9	---	---	734.6	0.026	0.000	19.1	2	1
03/08/06	11:16 p	-18.5	-18.5	-18.5	---	---	8.7	E	0.14	10.4	-27.4	---	---	734.7	0.026	0.000	19.1	2	1
03/08/06	11:17 p	-18.5	-18.5	-18.6	---	---	7.8	E	0.13	9.6	-27.0	---	---	734.7	0.026	0.000	19.1	2	1
03/08/06	11:18 p	-18.6	-18.5	-18.6	---	---	7.8	E	0.13	9.6	-27.1	---	---	734.6	0.026	0.000	19.1	2	1
03/08/06	11:19 p	-18.6	-18.6	-18.6	---	---	7.8	E	0.13	9.6	-27.1	---	---	734.7	0.026	0.000	19.1	2	1
03/08/06	11:20 p	-18.6	-18.6	-18.6	---	---	7.8	E	0.13	8.7	-27.1	---	---	734.6	0.026	0.000	19.1	2	1
03/08/06	11:21 p	-18.6	-18.5	-18.6	---	---	6.1	E	0.10	8.7	-25.9	---	---	734.7	0.026	0.000	19.1	2	1
03/08/06	11:22 p	-18.6	-18.6	-18.6	---	---	7.8	E	0.13	9.6	-27.1	---	---	734.7	0.026	0.000	19.1	2	1
03/08/06	11:23 p	-18.6	-18.6	-18.6	---	---	7.8	E	0.13	10.4	-27.1	---	---	734.7	0.026	0.000	19.1	2	1
03/08/06	11:24 p	-18.6	-18.6	-18.6	---	---	7.8	E	0.13	10.4	-27.1	---	---	734.7	0.026	0.000	19.1	2	1
03/08/06	11:25 p	-18.6	-18.5	-18.6	---	---	9.6	E	0.16	11.3	-28.0	---	---	734.8	0.026	0.000	19.1	2	1
03/08/06	11:26 p	-18.5	-18.5	-18.6	---	---	7.8	E	0.13	9.6	-27.0	---	---	734.7	0.026	0.000	19.1	2	1
03/08/06	11:27 p	-18.5	-18.5	-18.6	---	---	7.8	E	0.13	9.6	-27.0	---	---	734.8	0.026	0.000	19.1	2	1
03/08/06	11:28 p	-18.5	-18.5	-18.6	---	---	6.1	E	0.10	8.7	-25.8	---	---	734.7	0.026	0.000	19.1	2	1
03/08/06	11:29 p	-18.5	-18.5	-18.5	---	---	8.7	E	0.14	10.4	-27.4	---	---	734.7	0.026	0.000	19.1	2	1
03/08/06	11:30 p	-18.4	-18.4	-18.5	---	---	7.0	E	0.12	9.6	-26.4	---	---	734.7	0.026	0.000	19.1	2	1
03/08/06	11:31 p	-18.4	-18.4	-18.4	---	---	5.2	E	0.09	7.0	-25.1	---	---	734.9	0.026	0.000	19.1	2	1
03/08/06	11:32 p	-18.4	-18.4	-18.4	---	---	5.2	E	0.09	7.0	-25.1	---	---	734.8	0.026	0.000	19.1	2	1
03/08/06	11:33 p	-18.4	-18.4	-18.4	---	---	7.0	E	0.12	8.7	-26.3	---	---	734.8	0.026	0.000	19.1	2	1
03/08/06	11:34 p	-18.4	-18.3	-18.4	---	---	6.1	E	0.10	7.8	-25.7	---	---	734.8	0.026	0.000	19.1	2	1
03/08/06	11:35 p	-18.4	-18.4	-18.4	---	---	6.1	E	0.10	7.8	-25.7	---	---	734.9	0.026	0.000	19.1	2	1
03/08/06	11:36 p	-18.3	-18.3	-18.3	---	---	6.1	E	0.10	7.8	-25.7	---	---	734.8	0.025	0.000	19.1	2	1
03/08/06	11:37 p	-18.3	-18.3	-18.3	---	---	6.1	E	0.10	7.8	-25.6	---	---	734.8	0.025	0.000	19.1	2	1
03/08/06	11:38 p	-18.3	-18.3	-18.3	---	---	5.2	E	0.09	7.0	-24.9	---	---	734.9	0.025	0.000	19.1	2	1
03/08/06	11:39 p	-18.3	-18.2	-18.3	---	---	6.1	E	0.10	9.6	-25.6	---	---	734.7	0.025	0.000	19.1	2	1
03/08/06	11:40 p	-18.2	-18.2	-18.3	---	---	6.1	E	0.10	8.7	-25.5	---	---	734.8	0.025	0.000	19.1	2	1
03/08/06	11:41 p	-18.2	-18.2	-18.2	---	---	6.1	E	0.10	8.7	-25.5	---	---	734.8	0.025	0.000	19.1	2	1
03/08/06	11:42 p	-18.2	-18.2	-18.2	---	---	4.3	E	0.07	7.0	-24.0	---	---	734.8	0.025	0.000	19.1	2	1
03/08/06	11:43 p	-18.2	-18.1	-18.2	---	---	6.1	ESE	0.10	7.8	-25.4	---	---	734.9	0.025	0.000	19.1	2	1
03/08/06	11:44 p	-18.1	-18.1	-18.1	---	---	6.1	E	0.10	7.8	-25.4	---	---	734.9	0.025	0.000	19.1	2	1
03/08/06	11:45 p	-18.1	-18.1	-18.1	---	---	7.0	E	0.12	8.7	-25.9	---	---	734.8	0.025	0.000	19.1	2	1
03/08/06	11:46 p	-18.1	-18.0	-18.1	---	---	7.8	ESE	0.13	8.7	-26.4	---	---	734.8	0.025	0.000	19.1	2	1
03/08/06	11:47 p	-18.0	-17.9	-18.0	---	---	7.8	ESE	0.13	8.7	-26.4	---	---	734.9	0.025	0.000	19.1	2	1
03/08/06	11:48 p	-17.9	-17.9	-17.9	---	---	8.7	ESE	0.14	9.6	-26.8	---	---	734.9	0.025	0.000	19.1	2	1
03/08/06	11:49 p	-17.9	-17.9	-17.9	---	---	7.8	ESE	0.13	8.7	-26.3	---	---	734.8	0.025	0.000	19.1	2	1
03/08/06	11:50 p	-17.9	-17.9	-17.9	---	---	9.6	ESE	0.16	10.4	-27.2	---	---	734.9	0.025	0.000	19.1	2	1
03/08/06	11:51 p	-17.9	-17.9	-17.9	---	---	8.7	ESE	0.14	9.6	-26.8	---	---	735.0	0.025	0.000	19.1	2	1
03/08/06	11:52 p	-17.9	-17.9	-17.9	---	---	7.8	ESE	0.13	8.7	-26.2	---	---	735.0	0.025	0.000	19.1	2	1
03/08/06	11:53 p	-17.9	-17.9	-17.9	---	---	7.0	ESE	0.12	7.8	-25.7	---	---	735.0	0.025	0.000	19.1	2	1
03/08/06	11:54 p	-17.9	-17.9	-17.9	---	---	7.0	ESE	0.12	8.7	-25.7	---	---	735.0	0.025	0.000	19.1	2	1
03/08/06	11:55 p	-17.9	-17.8	-17.9	---	---	7.8	ESE	0.13	8.7	-26.2	---	---	735.0	0.025	0.000	19.1	2	1
03/08/06	11:56 p	-17.8	-17.8	-17.9	---	---	7.8	ESE	0.13	8.7	-26.2	---	---	735.0	0.025	0.000	19.1	2	1
03/08/06	11:57 p	-17.8	-17.8	-17.9	---	---	7.0	ESE	0.12	7.8	-25.6	---	---	735.0	0.025	0.000	19.1	2	1
03/08/06	11:58 p	-17.8	-17.8	-17.8	---	---	7.8	ESE	0.13	8.7	-26.2	---	---	735.0	0.025	0.000	19.1	2	1
03/08/06	11:59 p	-17.8	-17.8	-17.8	---	---	7.8	ESE	0.13	8.7	-26.1	---	---	735.1	0.025	0.000	19.1	2	1
03/09/06	12:00 a	-17.8	-17.8	-17.8	---	---	7.8	SE	0.13	8.7	-26.1	---	---	734.9	0.025	0.000	19.1	2	1
03/09/06	12:01 a	-17.8	-17.8	-17.9	---	---	7.8	SE	0.13	8.7	-26.2	---	---	735.1	0.025	0.000	19.1	2	1
03/09/06	12:02 a	-17.9	-17.9	-17.9	---	---	7.8	SE	0.13	8.7	-26.2	---	---	735.0	0.025	0.000	19.1	2	1
03/09/06	12:03 a	-17.9	-17.9	-17.9	---	---	7.0	SE	0.12	7.8	-25.7	---	---	735.1	0.025	0.000	19.1	2	1
03/09/06	12:04 a	-17.9	-17.9	-17.9	---	---	7.0	SE	0.12	7.8	-25.8	---	---	734.9	0.025	0.000	19.1	2	1
03/09/06	12:05 a	-17.9	-17.9	-17.9	---	---	6.1	SE	0.10	7.0	-25.2	---	---	735.1	0.025	0.000	19.1	2	1
03/09/06	12:06 a	-17.9	-17.9	-17.9	---	---	6.1	SE	0.10	7.0	-25.2	---	---	735.2	0.025	0.000	19.2	2	1
03/09/06	12:07 a	-17.9	-17.9	-17.9	---	---	6.1	SE	0.10	6.1	-25.1	---	---	735.1	0.025	0.000	19.2	2	1
03/09/06	12:08 a	-17.9	-17.9	-17.9	---	---	6.1	SE	0.10	7.0	-25.1	---	---	735.1	0.025	0.000	19.2	2	1
03/09/06	12:09 a	-17.9	-17.9	-17.9	---	---	7.0	SSE	0.12	7.0	-25.8	---	---	735.1	0.025	0.000	19.2	2	1
03/09/06	12:10 a	-17.9	-17.9	-17.9	---	---	6.1	SSE	0.10	7.0	-25.1	---	---	735.2	0.025	0.000	19.2	2	1
03/09/06	12:11 a	-17.8	-17.8	-17.9	---	---	6.1	SSE	0.10	7.0	-25.1	---	---	735.1	0.025	0.000	19.2	2	1
03/09/06	12:12 a	-17.8	-17.8	-17.8	---	---	5.2	SE	0.09	6.1	-24.4	---	---	735.2	0.025	0.000	19.2	2	1
03/09/06	12:13 a	-17.8	-17.8	-17.8	---	---	4.3	SE	0.07	5.2	-23.6	---	---	735.1	0.025	0.000	19.2	2	1
03/09/06	12:14 a	-17.8	-17.8	-17.8	---	---	5.2	SSE	0.09	7.0	-24.3	---	---	735.2	0.025	0.000	19.2	2	1
03/09/06	12:15 a	-17.7	-17.7	-17.7	---	---	6.1	SE	0.10	6.1	-24.9	---	---	735.2	0.025	0.000	19.2	2	1
03/09/06	12:16 a	-17.7	-17.7	-17.7	---	---	5.2	SE	0.09	7.0	-24.3	---	---	735.1	0.025	0.000	19.2	2	1
03/09/06	12:17 a	-17.7	-17.7	-17.7	---	---	7.0	SE	0.12	7.0	-25.5	---	---	735.3	0.025	0.000	19.2	2	1
03/09/06	12:18 a	-17.7	-17.7	-17.7	---	---	7.0	SE	0.12	7.8	-25.5	---	---	735.2	0.025	0.000	19.2	2	1
03/09/06	12:19 a	-17.7	-17.7	-17.7	---	---	7.0	ESE	0.12	7.8	-25.4	---	---	735.2	0.025	0.000	19.2	2	1
03/09/06	12:20 a	-17.6	-17.6	-17.6	---	---	7.0	ESE	0.12	7.8	-25.4	---	---	735.2	0.025	0.000	19.2	2	1
03/09/06	12:21 a	-17.6	-17.6	-17.7	---	---	6.1	ESE	0.10	7.0	-24.8	---	---	735.2	0.025	0.000	19.2	2	1
03/09/06	12:22 a	-17.6	-17.6	-17.6	---	---	7.0	ESE	0.12	7.0	-25.3	---	---	735.2	0.025	0.000	19.2	2	1
03/09/06	12:23 a	-17.6	-17.6	-17.6	---	---	6.1	ESE	0.10	7.0	-24.7	---	---	735.2	0.025	0.000	19.2	2	1
03/09/06	12:24 a	-17.6	-17.5	-17.6	---	---	7.0	ESE	0.12	7.8	-25.3	---	---	735.2	0.025	0.000	19.2	2	1
03/09/06	12:25 a	-17.5	-17.5	-17.6	---	---	6.1	ESE	0.10	7.0	-24.7	---	---	735.2	0.025	0.000	19.2	2	1
03/09/06	12:26 a	-17.5	-17.5	-17.5	---	---	5.2	SE	0.09	6.1	-24.0	---	---	735.3	0.025	0.000	19.2	2	1
03/09/06	12:27 a	-17.5	-17.5	-17.5	---	---	4.3	SE	0.07	5.2	-23.2	---	---	735.2	0.025	0.000	19.2	2	1
03/09/06	12:28 a	-17.4	-17.4	-17.5	---	---	5.2	SE	0.09	7.0	-23.9	---	---	735.2	0.025	0.000	19.2	2	1
03/09/06	12:29 a	-17.4	-17.4	-17.5	---	---	6.1	ESE	0.10	7.8	-24.6	---	---	735.3	0.025	0.000	19.2	2	1
03/09/06	12:30 a	-17.5	-17.4	-17.5	---	---	5.2	SE	0.09	6.1	-24.0	---	---	735.2	0.025	0.000	19.2	2	1
03/09/06	12:31 a	-17.5	-17.5	-17.5	---	---	5.2	SE	0.09	6.1	-24.0	---	---	735.2	0.025	0.000	19.2	2	1
03/09/06	12:32 a	-17.4	-17.4	-17.4	---	---	6.1	SE	0.10	7.0	-24.6	---	---	735.2	0.025	0.000	19.2	2	1
03/09/06	12:33 a	-17.4	-17.3	-17.4	---	---	7.0	SE	0.12	7.8	-25.1	---	---	735.2	0.025	0.000	19.2	2	1
03/09/06	12:34 a	-17.3	-17.3	-17.3	---	---	7.0	SE	0.12	7.8	-25.0	---	---	735.3	0.025	0.000	19.2	2	1
03/09/06	12:35 a	-17.4	-17.3	-17.4	---	---	6.1	SE	0.10	7.0	-24.5	---	---	735.3	0.025	0.000	19.2	2	1
03/09/06	12:36 a	-17.4	-17.3	-17.4	---	---	7.0	ESE	0.12	7.8	-25.1	---	---	735.3	0.025	0.000	19.2	2	1
03/09/06	12:37 a	-17.3	-17.3	-17.3	---	---	6.1	ESE	0.10	7.8	-24.4	---	---	735.3	0.025	0.000	19.2	2	1
03/09/06	12:38 a	-17.3	-17.3	-17.3	---	---	6.1	ESE	0.10	7.0	-24.4	---	---	735.3	0.025	0.000	19.2	2	1
03/09/06	12:39 a	-17.3	-17.3	-17.3	---	---	6.1	SE	0.10	7.0	-24.4	---	---	735.3	0.025	0.000	19.2	2	1
03/09/06	12:40 a	-17.3	-17.3	-17.3	---	---	7.0	SE	0.12	7.8	-24.9	---	---	735.3	0.025	0.000	19.3	2	1
03/09/06	12:41 a	-17.3	-17.3	-17.3	---	---	7.0	SE	0.12	7.8	-25.0	---	---	735.3	0.025	0.000	19.3	2	1
03/09/06	12:42 a	-17.4	-17.3	-17.4	---	---	6.1	SE	0.10	7.0	-24.5	---	---	735.3	0.025	0.000	19.2	2	1
03/09/06	12:43 a	-17.4	-17.4	-17.4	---	---	6.1	SE	0.10	7.0	-24.5	---	---	735.3	0.025	0.000	19.2	2	1
03/09/06	12:44 a	-17.4	-17.4	-17.4	---	---	6.1	SE	0.10	7.0	-24.5	---	---	735.3	0.025	0.000	19.2	2	1
03/09/06	12:45 a	-17.4	-17.4	-17.4	---	---	6.1	SE	0.10	6.1	-24.6	---	---	735.3	0.025	0.000	19.2	2	1
03/09/06	12:46 a	-17.4	-17.4	-17.4	---	---	6.1	SE	0.10	7.0	-24.6	---	---	735.3	0.025	0.000	19.2	2	1
03/09/06	12:47 a	-17.4	-17.4	-17.5	---	---	7.0	ESE	0.12	7.0	-25.2	---	---	735.4	0.025	0.000	19.2	2	1
03/09/06	12:48 a	-17.4	-17.4	-17.4	---	---	7.8	ESE	0.13	8.7	-25.7	---	---	735.3	0.025	0.000	19.2	2	1
03/09/06	12:49 a	-17.4	-17.4	-17.4	---	---	7.8	ESE	0.13	9.6	-25.7	---	---	735.3	0.025	0.000	19.2	2	1
03/09/06	12:50 a	-17.4	-17.4	-17.4	---	---	7.8	E	0.13	8.7	-25.6	---	---	735.4	0.025	0.000	19.2	2	1
03/09/06	12:51 a	-17.4	-17.3	-17.4	---	---	7.8	ESE	0.13	8.7	-25.6	---	---	735.3	0.025	0.000	19.2	2	1
03/09/06	12:52 a	-17.3	-17.3	-17.4	---	---	7.0	ESE	0.12	7.8	-25.0	---	---	735.3	0.025	0.000	19.2	2	1
03/09/06	12:53 a	-17.3	-17.3	-17.3	---	---	7.0	ESE	0.12	7.8	-25.0	---	---	735.4	0.025	0.000	19.2	2	1
03/09/06	12:54 a	-17.3	-17.3	-17.3	---	---	7.0	ESE	0.12	8.7	-24.9	---	---	735.4	0.025	0.000	19.2	2	1
03/09/06	12:55 a	-17.3	-17.3	-17.3	---	---	7.0	ESE	0.12	7.8	-24.9	---	---	735.4	0.025	0.000	19.2	2	1
03/09/06	12:56 a	-17.3	-17.2	-17.3	---	---	6.1	ESE	0.10	7.0	-24.4	---	---	735.3	0.025	0.000	19.2	2	1
03/09/06	12:57 a	-17.2	-17.2	-17.2	---	---	6.1	ESE	0.10	7.0	-24.3	---	---	735.4	0.025	0.000	19.2	2	1
03/09/06	12:58 a	-17.2	-17.2	-17.2	---	---	6.1	ESE	0.10	7.0	-24.3	---	---	735.4	0.025	0.000	19.2	2	1
03/09/06	12:59 a	-17.2	-17.2	-17.2	---	---	5.2	ESE	0.09	6.1	-23.6	---	---	735.4	0.025	0.000	19.3	2	1
03/09/06	1:00 a	-17.1	-17.1	-17.2	---	---	5.2	ESE	0.09	7.0	-23.5	---	---	735.4	0.025	0.000	19.3	2	1
03/09/06	1:01 a	-17.1	-17.1	-17.1	---	---	4.3	ESE	0.07	6.1	-22.8	---	---	735.4	0.025	0.000	19.3	2	1
03/09/06	1:02 a	-17.1	-17.1	-17.1	---	---	6.1	E	0.10	7.8	-24.2	---	---	735.3	0.025	0.000	19.3	2	1
03/09/06	1:03 a	-17.2	-17.2	-17.2	---	---	7.0	ENE	0.12	8.7	-24.8	---	---	735.3	0.025	0.000	19.3	2	1
03/09/06	1:04 a	-17.2	-17.2	-17.2	---	---	8.7	ENE	0.14	9.6	-25.9	---	---	735.4	0.025	0.000	19.3	2	1
03/09/06	1:05 a	-17.2	-17.2	-17.3	---	---	8.7	ENE	0.14	10.4	-25.9	---	---	735.3	0.025	0.000	19.3	2	1
03/09/06	1:06 a	-17.3	-17.2	-17.3	---	---	8.7	ENE	0.14	10.4	-25.9	---	---	735.4	0.025	0.000	19.3	2	1
03/09/06	1:07 a	-17.3	-17.3	-17.3	---	---	9.6	ENE	0.16	9.6	-26.4	---	---	735.4	0.025	0.000	19.3	2	1
03/09/06	1:08 a	-17.3	-17.3	-17.3	---	---	8.7	NE	0.14	9.6	-26.0	---	---	735.4	0.025	0.000	19.3	2	1
03/09/06	1:09 a	-17.3	-17.3	-17.3	---	---	8.7	NE	0.14	9.6	-26.0	---	---	735.3	0.025	0.000	19.3	2	1
03/09/06	1:10 a	-17.3	-17.3	-17.3	---	---	7.8	NE	0.13	8.7	-25.6	---	---	735.3	0.025	0.000	19.3	2	1
03/09/06	1:11 a	-17.3	-17.3	-17.3	---	---	7.8	NE	0.13	8.7	-25.6	---	---	735.4	0.025	0.000	19.3	2	1
03/09/06	1:12 a	-17.3	-17.3	-17.4	---	---	7.0	NE	0.12	8.7	-25.0	---	---	735.3	0.025	0.000	19.3	2	1
03/09/06	1:13 a	-17.4	-17.3	-17.4	---	---	7.0	NE	0.12	8.7	-25.1	---	---	735.4	0.025	0.000	19.4	2	1
03/09/06	1:14 a	-17.4	-17.3	-17.4	---	---	7.0	NE	0.12	7.8	-25.1	---	---	735.5	0.025	0.000	19.4	2	1
03/09/06	1:15 a	-17.4	-17.4	-17.4	---	---	7.8	NE	0.13	8.7	-25.6	---	---	735.4	0.025	0.000	19.4	2	1
03/09/06	1:16 a	-17.4	-17.3	-17.4	---	---	7.8	NE	0.13	9.6	-25.6	---	---	735.4	0.025	0.000	19.4	2	1
03/09/06	1:17 a	-17.4	-17.3	-17.4	---	---	7.8	NE	0.13	8.7	-25.6	---	---	735.4	0.025	0.000	19.4	2	1
03/09/06	1:18 a	-17.4	-17.3	-17.4	---	---	7.0	NE	0.12	8.7	-25.1	---	---	735.4	0.025	0.000	19.4	2	1
03/09/06	1:19 a	-17.3	-17.3	-17.4	---	---	7.8	NE	0.13	8.7	-25.6	---	---	735.4	0.025	0.000	19.4	2	1
03/09/06	1:20 a	-17.3	-17.3	-17.4	---	---	7.8	NE	0.13	8.7	-25.6	---	---	735.5	0.025	0.000	19.4	2	1
03/09/06	1:21 a	-17.3	-17.3	-17.3	---	---	8.7	ENE	0.14	9.6	-26.0	---	---	735.5	0.025	0.000	19.4	2	1
03/09/06	1:22 a	-17.3	-17.3	-17.3	---	---	8.7	ENE	0.14	9.6	-25.9	---	---	735.4	0.025	0.000	19.4	2	1
03/09/06	1:23 a	-17.3	-17.3	-17.3	---	---	7.8	ENE	0.13	9.6	-25.5	---	---	735.5	0.025	0.000	19.4	2	1
03/09/06	1:24 a	-17.3	-17.3	-17.3	---	---	7.0	E	0.12	8.7	-24.9	---	---	735.4	0.025	0.000	19.4	2	1
03/09/06	1:25 a	-17.3	-17.3	-17.3	---	---	7.8	ENE	0.13	9.6	-25.5	---	---	735.4	0.025	0.000	19.4	2	1
03/09/06	1:26 a	-17.3	-17.3	-17.3	---	---	8.7	ENE	0.14	9.6	-26.0	---	---	735.5	0.025	0.000	19.4	2	1
03/09/06	1:27 a	-17.3	-17.3	-17.3	---	---	8.7	ENE	0.14	9.6	-25.9	---	---	735.4	0.025	0.000	19.4	2	1
03/09/06	1:28 a	-17.3	-17.3	-17.3	---	---	9.6	ENE	0.16	10.4	-26.4	---	---	735.4	0.025	0.000	19.4	2	1
03/09/06	1:29 a	-17.3	-17.3	-17.3	---	---	9.6	ENE	0.16	11.3	-26.4	---	---	735.4	0.025	0.000	19.4	2	1
03/09/06	1:30 a	-17.3	-17.3	-17.3	---	---	8.7	E	0.14	9.6	-26.0	---	---	735.4	0.025	0.000	19.4	2	1
03/09/06	1:31 a	-17.3	-17.3	-17.3	---	---	7.8	E	0.13	8.7	-25.5	---	---	735.4	0.025	0.000	19.4	2	1
03/09/06	1:32 a	-17.3	-17.3	-17.3	---	---	8.7	ENE	0.14	9.6	-26.0	---	---	735.4	0.025	0.000	19.4	2	1
03/09/06	1:33 a	-17.2	-17.2	-17.3	---	---	8.7	ENE	0.14	11.3	-25.9	---	---	735.4	0.025	0.000	19.4	2	1
03/09/06	1:34 a	-17.2	-17.2	-17.2	---	---	9.6	ENE	0.16	10.4	-26.3	---	---	735.3	0.025	0.000	19.4	2	1
03/09/06	1:35 a	-17.2	-17.2	-17.2	---	---	8.7	ENE	0.14	10.4	-25.9	---	---	735.4	0.025	0.000	19.4	2	1
03/09/06	1:36 a	-17.2	-17.2	-17.2	---	---	9.6	ENE	0.16	10.4	-26.3	---	---	735.5	0.025	0.000	19.4	2	1
03/09/06	1:37 a	-17.2	-17.2	-17.2	---	---	9.6	ENE	0.16	10.4	-26.3	---	---	735.5	0.025	0.000	19.4	2	1
03/09/06	1:38 a	-17.2	-17.2	-17.2	---	---	7.8	ENE	0.13	9.6	-25.3	---	---	735.5	0.025	0.000	19.4	2	1
03/09/06	1:39 a	-17.2	-17.2	-17.2	---	---	7.0	E	0.12	10.4	-24.8	---	---	735.4	0.025	0.000	19.4	2	1
03/09/06	1:40 a	-17.1	-17.1	-17.1	---	---	8.7	ENE	0.14	10.4	-25.7	---	---	735.4	0.025	0.000	19.4	2	1
03/09/06	1:41 a	-17.1	-17.1	-17.1	---	---	8.7	ENE	0.14	9.6	-25.7	---	---	735.4	0.025	0.000	19.4	2	1
03/09/06	1:42 a	-17.1	-17.1	-17.1	---	---	7.8	ENE	0.13	8.7	-25.2	---	---	735.4	0.025	0.000	19.4	2	1
03/09/06	1:43 a	-17.1	-17.1	-17.1	---	---	7.8	ENE	0.13	8.7	-25.2	---	---	735.5	0.025	0.000	19.4	2	1
03/09/06	1:44 a	-17.1	-17.0	-17.1	---	---	7.0	E	0.12	8.7	-24.7	---	---	735.4	0.025	0.000	19.4	2	1
03/09/06	1:45 a	-17.0	-16.9	-17.0	---	---	7.8	ENE	0.13	8.7	-25.1	---	---	735.4	0.025	0.000	19.4	2	1
03/09/06	1:46 a	-17.0	-16.9	-17.0	---	---	6.1	E	0.10	7.8	-24.1	---	---	735.4	0.025	0.000	19.4	2	1
03/09/06	1:47 a	-16.9	-16.9	-17.0	---	---	6.1	E	0.10	7.8	-24.0	---	---	735.5	0.024	0.000	19.4	2	1
03/09/06	1:48 a	-17.0	-16.9	-17.0	---	---	6.1	E	0.10	8.7	-24.1	---	---	735.4	0.025	0.000	19.4	2	1
03/09/06	1:49 a	-16.9	-16.9	-17.0	---	---	6.1	E	0.10	7.8	-24.0	---	---	735.5	0.024	0.000	19.4	2	1
03/09/06	1:50 a	-16.9	-16.9	-16.9	---	---	7.0	E	0.12	8.7	-24.6	---	---	735.5	0.024	0.000	19.4	2	1
03/09/06	1:51 a	-16.9	-16.9	-16.9	---	---	7.0	E	0.12	7.8	-24.5	---	---	735.4	0.024	0.000	19.4	2	1
03/09/06	1:52 a	-16.9	-16.9	-16.9	---	---	7.0	ENE	0.12	8.7	-24.5	---	---	735.4	0.024	0.000	19.4	2	1
03/09/06	1:53 a	-16.9	-16.9	-16.9	---	---	7.0	ENE	0.12	7.8	-24.5	---	---	735.4	0.024	0.000	19.4	2	1
03/09/06	1:54 a	-16.9	-16.8	-16.9	---	---	7.0	ENE	0.12	8.7	-24.5	---	---	735.5	0.024	0.000	19.4	2	1
03/09/06	1:55 a	-16.9	-16.9	-16.9	---	---	7.0	ENE	0.12	7.8	-24.5	---	---	735.5	0.024	0.000	19.4	2	1
03/09/06	1:56 a	-16.9	-16.8	-16.9	---	---	7.0	ENE	0.12	7.8	-24.5	---	---	735.5	0.024	0.000	19.4	2	1
03/09/06	1:57 a	-16.9	-16.8	-16.9	---	---	7.0	ENE	0.12	7.8	-24.5	---	---	735.5	0.024	0.000	19.5	2	1
03/09/06	1:58 a	-16.9	-16.9	-16.9	---	---	7.0	E	0.12	7.8	-24.5	---	---	735.6	0.024	0.000	19.4	2	1
03/09/06	1:59 a	-16.9	-16.9	-16.9	---	---	6.1	E	0.10	7.8	-23.9	---	---	735.5	0.024	0.000	19.4	2	1
03/09/06	2:00 a	-16.9	-16.9	-16.9	---	---	6.1	E	0.10	7.0	-23.9	---	---	735.5	0.024	0.000	19.5	2	1
03/09/06	2:01 a	-16.8	-16.8	-16.9	---	---	6.1	E	0.10	7.0	-23.8	---	---	735.6	0.024	0.000	19.5	2	1
03/09/06	2:02 a	-16.8	-16.7	-16.8	---	---	5.2	E	0.09	7.0	-23.1	---	---	735.5	0.024	0.000	19.5	2	1
03/09/06	2:03 a	-16.7	-16.7	-16.7	---	---	5.2	E	0.09	6.1	-23.0	---	---	735.6	0.024	0.000	19.5	2	1
03/09/06	2:04 a	-16.7	-16.6	-16.7	---	---	5.2	E	0.09	6.1	-23.0	---	---	735.6	0.024	0.000	19.5	2	1
03/09/06	2:05 a	-16.6	-16.6	-16.7	---	---	4.3	E	0.07	6.1	-22.2	---	---	735.5	0.024	0.000	19.6	2	1
03/09/06	2:06 a	-16.6	-16.6	-16.6	---	---	3.5	E	0.06	6.1	-21.3	---	---	735.5	0.024	0.000	19.6	2	1
03/09/06	2:07 a	-16.6	-16.6	-16.6	---	---	5.2	ENE	0.09	7.0	-22.9	---	---	735.5	0.024	0.000	19.6	2	1
03/09/06	2:08 a	-16.6	-16.6	-16.7	---	---	6.1	E	0.10	7.0	-23.6	---	---	735.6	0.024	0.000	19.6	2	1
03/09/06	2:09 a	-16.6	-16.6	-16.6	---	---	7.0	ESE	0.12	7.8	-24.2	---	---	735.5	0.024	0.000	19.6	2	1
03/09/06	2:10 a	-16.5	-16.4	-16.5	---	---	6.1	ESE	0.10	7.0	-23.4	---	---	735.5	0.024	0.000	19.6	2	1
03/09/06	2:11 a	-16.4	-16.3	-16.4	---	---	7.0	ESE	0.12	7.8	-23.9	---	---	735.5	0.024	0.000	19.6	2	1
03/09/06	2:12 a	-16.3	-16.3	-16.3	---	---	7.0	ESE	0.12	7.8	-23.8	---	---	735.5	0.024	0.000	19.6	2	1
03/09/06	2:13 a	-16.2	-16.2	-16.3	---	---	7.0	ESE	0.12	8.7	-23.7	---	---	735.5	0.024	0.000	19.6	2	1
03/09/06	2:14 a	-16.2	-16.2	-16.2	---	---	7.0	ESE	0.12	8.7	-23.6	---	---	735.5	0.024	0.000	19.5	2	1
03/09/06	2:15 a	-16.1	-16.1	-16.1	---	---	6.1	E	0.10	7.0	-22.9	---	---	735.6	0.024	0.000	19.6	2	1
03/09/06	2:16 a	-16.0	-15.9	-16.0	---	---	5.2	E	0.09	6.1	-22.2	---	---	735.6	0.024	0.000	19.6	2	1
03/09/06	2:17 a	-15.9	-15.9	-15.9	---	---	5.2	E	0.09	6.1	-22.1	---	---	735.6	0.024	0.000	19.6	2	1
03/09/06	2:18 a	-15.9	-15.8	-15.9	---	---	5.2	E	0.09	7.0	-22.1	---	---	735.5	0.024	0.000	19.6	2	1
03/09/06	2:19 a	-15.8	-15.8	-15.8	---	---	5.2	E	0.09	6.1	-22.0	---	---	735.6	0.024	0.000	19.6	2	1
03/09/06	2:20 a	-15.8	-15.8	-15.8	---	---	5.2	E	0.09	5.2	-21.9	---	---	735.4	0.024	0.000	19.6	2	1
03/09/06	2:21 a	-15.8	-15.8	-15.8	---	---	4.3	E	0.07	6.1	-21.2	---	---	735.6	0.024	0.000	19.6	2	1
03/09/06	2:22 a	-15.8	-15.8	-15.8	---	---	4.3	E	0.07	6.1	-21.2	---	---	735.6	0.024	0.000	19.6	2	1
03/09/06	2:23 a	-15.8	-15.8	-15.8	---	---	5.2	E	0.09	7.0	-21.9	---	---	735.6	0.024	0.000	19.6	2	1
03/09/06	2:24 a	-15.8	-15.8	-15.9	---	---	6.1	E	0.10	7.0	-22.7	---	---	735.6	0.024	0.000	19.6	2	1
03/09/06	2:25 a	-15.9	-15.9	-15.9	---	---	5.2	E	0.09	6.1	-22.1	---	---	735.6	0.024	0.000	19.6	2	1
03/09/06	2:26 a	-15.9	-15.9	-16.0	---	---	5.2	E	0.09	7.0	-22.1	---	---	735.5	0.024	0.000	19.6	2	1
03/09/06	2:27 a	-16.1	-16.0	-16.1	---	---	6.1	ENE	0.10	7.8	-22.9	---	---	735.6	0.024	0.000	19.6	2	1
03/09/06	2:28 a	-16.1	-16.1	-16.1	---	---	5.2	ENE	0.09	7.8	-22.3	---	---	735.6	0.024	0.000	19.6	2	1
03/09/06	2:29 a	-16.1	-16.1	-16.2	---	---	5.2	E	0.09	6.1	-22.3	---	---	735.6	0.024	0.000	19.6	2	1
03/09/06	2:30 a	-16.2	-16.2	-16.2	---	---	4.3	E	0.07	5.2	-21.7	---	---	735.6	0.024	0.000	19.6	2	1
03/09/06	2:31 a	-16.3	-16.2	-16.3	---	---	6.1	E	0.10	7.0	-23.2	---	---	735.5	0.024	0.000	19.6	2	1
03/09/06	2:32 a	-16.3	-16.3	-16.3	---	---	5.2	E	0.09	6.1	-22.6	---	---	735.6	0.024	0.000	19.6	2	1
03/09/06	2:33 a	-16.3	-16.3	-16.3	---	---	5.2	E	0.09	7.0	-22.6	---	---	735.7	0.024	0.000	19.6	2	1
03/09/06	2:34 a	-16.3	-16.3	-16.4	---	---	6.1	ENE	0.10	7.8	-23.2	---	---	735.5	0.024	0.000	19.6	2	1
03/09/06	2:35 a	-16.4	-16.4	-16.5	---	---	6.1	E	0.10	7.8	-23.4	---	---	735.6	0.024	0.000	19.6	2	1
03/09/06	2:36 a	-16.5	-16.5	-16.5	---	---	6.1	E	0.10	7.0	-23.4	---	---	735.7	0.024	0.000	19.6	2	1
03/09/06	2:37 a	-16.5	-16.5	-16.5	---	---	6.1	ENE	0.10	7.0	-23.4	---	---	735.6	0.024	0.000	19.6	2	1
03/09/06	2:38 a	-16.5	-16.5	-16.6	---	---	6.1	ENE	0.10	7.8	-23.4	---	---	735.6	0.024	0.000	19.6	2	1
03/09/06	2:39 a	-16.6	-16.6	-16.6	---	---	5.2	E	0.09	7.0	-22.9	---	---	735.7	0.024	0.000	19.6	2	1
03/09/06	2:40 a	-16.6	-16.6	-16.6	---	---	5.2	ENE	0.09	7.0	-22.9	---	---	735.6	0.024	0.000	19.6	2	1
03/09/06	2:41 a	-16.6	-16.6	-16.6	---	---	6.1	ENE	0.10	7.0	-23.6	---	---	735.7	0.024	0.000	19.6	2	1
03/09/06	2:42 a	-16.6	-16.6	-16.6	---	---	6.1	ENE	0.10	7.0	-23.6	---	---	735.7	0.024	0.000	19.6	2	1
03/09/06	2:43 a	-16.6	-16.6	-16.6	---	---	6.1	ENE	0.10	7.0	-23.5	---	---	735.8	0.024	0.000	19.6	2	1
03/09/06	2:44 a	-16.6	-16.6	-16.6	---	---	6.1	ENE	0.10	7.0	-23.6	---	---	735.7	0.024	0.000	19.6	2	1
03/09/06	2:45 a	-16.6	-16.6	-16.6	---	---	6.1	ENE	0.10	7.0	-23.5	---	---	735.7	0.024	0.000	19.6	2	1
03/09/06	2:46 a	-16.6	-16.6	-16.6	---	---	5.2	ENE	0.09	6.1	-22.9	---	---	735.8	0.024	0.000	19.6	2	1
03/09/06	2:47 a	-16.6	-16.6	-16.6	---	---	5.2	ENE	0.09	6.1	-22.9	---	---	735.8	0.024	0.000	19.6	2	1
03/09/06	2:48 a	-16.6	-16.6	-16.6	---	---	5.2	NE	0.09	6.1	-22.9	---	---	735.7	0.024	0.000	19.6	2	1
03/09/06	2:49 a	-16.6	-16.6	-16.6	---	---	4.3	ENE	0.07	7.0	-22.1	---	---	735.8	0.024	0.000	19.6	2	1
03/09/06	2:50 a	-16.6	-16.5	-16.6	---	---	4.3	ENE	0.07	6.1	-22.1	---	---	735.7	0.024	0.000	19.7	2	1
03/09/06	2:51 a	-16.6	-16.6	-16.6	---	---	6.1	ENE	0.10	7.0	-23.5	---	---	735.8	0.024	0.000	19.7	2	1
03/09/06	2:52 a	-16.6	-16.6	-16.6	---	---	5.2	ENE	0.09	7.0	-22.9	---	---	735.7	0.024	0.000	19.7	2	1
03/09/06	2:53 a	-16.6	-16.6	-16.7	---	---	6.1	ENE	0.10	7.0	-23.6	---	---	735.7	0.024	0.000	19.7	2	1
03/09/06	2:54 a	-16.7	-16.7	-16.7	---	---	5.2	E	0.09	7.0	-23.0	---	---	735.8	0.024	0.000	19.7	2	1
03/09/06	2:55 a	-16.7	-16.7	-16.7	---	---	6.1	ENE	0.10	7.8	-23.7	---	---	735.7	0.024	0.000	19.7	2	1
03/09/06	2:56 a	-16.7	-16.7	-16.8	---	---	6.1	ENE	0.10	7.0	-23.7	---	---	735.7	0.024	0.000	19.7	2	1
03/09/06	2:57 a	-16.8	-16.8	-16.8	---	---	6.1	ENE	0.10	7.0	-23.8	---	---	735.8	0.024	0.000	19.7	2	1
03/09/06	2:58 a	-16.8	-16.8	-16.8	---	---	6.1	ENE	0.10	10.4	-23.8	---	---	735.8	0.024	0.000	19.7	2	1
03/09/06	2:59 a	-16.8	-16.8	-16.8	---	---	4.3	ENE	0.07	5.2	-22.4	---	---	735.7	0.024	0.000	19.7	2	1
03/09/06	3:00 a	-16.8	-16.8	-16.8	---	---	5.2	ENE	0.09	7.0	-23.2	---	---	735.7	0.024	0.000	19.7	2	1
03/09/06	3:01 a	-16.8	-16.8	-16.8	---	---	4.3	ENE	0.07	6.1	-22.4	---	---	735.8	0.024	0.000	19.7	2	1
03/09/06	3:02 a	-16.8	-16.8	-16.9	---	---	6.1	NE	0.10	7.0	-23.8	---	---	735.7	0.024	0.000	19.7	2	1
03/09/06	3:03 a	-16.8	-16.8	-16.9	---	---	6.1	NE	0.10	7.8	-23.8	---	---	735.7	0.024	0.000	19.7	2	1
03/09/06	3:04 a	-16.8	-16.8	-16.9	---	---	6.1	NE	0.10	7.0	-23.8	---	---	735.7	0.024	0.000	19.7	2	1
03/09/06	3:05 a	-16.8	-16.8	-16.9	---	---	7.0	NE	0.12	7.8	-24.4	---	---	735.8	0.024	0.000	19.7	2	1
03/09/06	3:06 a	-16.9	-16.8	-16.9	---	---	7.0	NE	0.12	7.8	-24.5	---	---	735.8	0.024	0.000	19.7	2	1
03/09/06	3:07 a	-16.9	-16.9	-16.9	---	---	6.1	NE	0.10	7.0	-23.9	---	---	735.8	0.024	0.000	19.7	2	1
03/09/06	3:08 a	-16.9	-16.9	-16.9	---	---	5.2	NE	0.09	6.1	-23.3	---	---	735.8	0.024	0.000	19.7	2	1
03/09/06	3:09 a	-16.9	-16.9	-16.9	---	---	5.2	NE	0.09	6.1	-23.3	---	---	735.7	0.024	0.000	19.7	2	1
03/09/06	3:10 a	-16.9	-16.9	-16.9	---	---	5.2	NE	0.09	6.1	-23.3	---	---	735.8	0.024	0.000	19.7	2	1
03/09/06	3:11 a	-16.9	-16.9	-16.9	---	---	6.1	ENE	0.10	7.0	-23.9	---	---	735.7	0.024	0.000	19.7	2	1
03/09/06	3:12 a	-16.9	-16.9	-16.9	---	---	6.1	ENE	0.10	7.0	-24.0	---	---	735.8	0.024	0.000	19.7	2	1
03/09/06	3:13 a	-16.9	-16.9	-16.9	---	---	5.2	ENE	0.09	5.2	-23.3	---	---	735.7	0.024	0.000	19.7	2	1
03/09/06	3:14 a	-16.9	-16.9	-16.9	---	---	4.3	NE	0.07	5.2	-22.6	---	---	735.8	0.024	0.000	19.7	2	1
03/09/06	3:15 a	-16.9	-16.9	-16.9	---	---	5.2	NE	0.09	6.1	-23.3	---	---	735.9	0.024	0.000	19.7	2	1
03/09/06	3:16 a	-16.9	-16.9	-16.9	---	---	5.2	NE	0.09	7.0	-23.3	---	---	735.8	0.024	0.000	19.7	2	1
03/09/06	3:17 a	-16.9	-16.9	-16.9	---	---	5.2	ENE	0.09	6.1	-23.3	---	---	735.8	0.024	0.000	19.7	2	1
03/09/06	3:18 a	-16.9	-16.9	-16.9	---	---	6.1	ENE	0.10	7.0	-24.0	---	---	735.8	0.024	0.000	19.7	2	1
03/09/06	3:19 a	-16.9	-16.9	-16.9	---	---	7.0	ENE	0.12	7.8	-24.5	---	---	735.8	0.024	0.000	19.7	2	1
03/09/06	3:20 a	-16.9	-16.9	-16.9	---	---	7.0	ENE	0.12	7.8	-24.5	---	---	735.8	0.024	0.000	19.7	2	1
03/09/06	3:21 a	-16.9	-16.9	-16.9	---	---	6.1	ENE	0.10	7.8	-23.9	---	---	735.8	0.024	0.000	19.7	2	1
03/09/06	3:22 a	-16.9	-16.9	-16.9	---	---	6.1	ENE	0.10	7.0	-23.9	---	---	735.8	0.024	0.000	19.7	2	1
03/09/06	3:23 a	-16.9	-16.9	-16.9	---	---	5.2	ENE	0.09	7.0	-23.3	---	---	735.7	0.024	0.000	19.7	2	1
03/09/06	3:24 a	-16.9	-16.9	-16.9	---	---	6.1	ENE	0.10	7.0	-23.9	---	---	735.8	0.024	0.000	19.7	2	1
03/09/06	3:25 a	-16.9	-16.9	-16.9	---	---	6.1	NE	0.10	7.0	-23.9	---	---	735.8	0.024	0.000	19.7	2	1
03/09/06	3:26 a	-16.8	-16.8	-16.9	---	---	6.1	ENE	0.10	7.0	-23.8	---	---	735.8	0.024	0.000	19.7	2	1
03/09/06	3:27 a	-16.8	-16.7	-16.8	---	---	6.1	ENE	0.10	7.0	-23.8	---	---	735.8	0.024	0.000	19.7	2	1
03/09/06	3:28 a	-16.7	-16.7	-16.7	---	---	7.0	ENE	0.12	7.0	-24.2	---	---	735.8	0.024	0.000	19.7	2	1
03/09/06	3:29 a	-16.7	-16.6	-16.7	---	---	6.1	ENE	0.10	7.0	-23.7	---	---	735.8	0.024	0.000	19.7	2	1
03/09/06	3:30 a	-16.6	-16.6	-16.7	---	---	7.0	ENE	0.12	7.0	-24.2	---	---	735.9	0.024	0.000	19.8	2	1
03/09/06	3:31 a	-16.6	-16.6	-16.7	---	---	6.1	ENE	0.10	7.0	-23.6	---	---	735.8	0.024	0.000	19.7	2	1
03/09/06	3:32 a	-16.7	-16.6	-16.7	---	---	5.2	ENE	0.09	6.1	-23.0	---	---	735.8	0.024	0.000	19.7	2	1
03/09/06	3:33 a	-16.6	-16.6	-16.7	---	---	6.1	ENE	0.10	7.0	-23.6	---	---	735.8	0.024	0.000	19.7	2	1
03/09/06	3:34 a	-16.7	-16.7	-16.7	---	---	6.1	ENE	0.10	7.8	-23.7	---	---	735.7	0.024	0.000	19.7	2	1
03/09/06	3:35 a	-16.7	-16.7	-16.7	---	---	6.1	ENE	0.10	7.0	-23.7	---	---	735.8	0.024	0.000	19.7	2	1
03/09/06	3:36 a	-16.7	-16.7	-16.7	---	---	5.2	ENE	0.09	7.0	-23.1	---	---	735.8	0.024	0.000	19.8	2	1
03/09/06	3:37 a	-16.7	-16.7	-16.7	---	---	6.1	ENE	0.10	7.0	-23.7	---	---	735.8	0.024	0.000	19.8	2	1
03/09/06	3:38 a	-16.7	-16.7	-16.7	---	---	5.2	ENE	0.09	6.1	-23.1	---	---	735.8	0.024	0.000	19.8	2	1
03/09/06	3:39 a	-16.7	-16.7	-16.8	---	---	5.2	ENE	0.09	6.1	-23.1	---	---	735.9	0.024	0.000	19.8	2	1
03/09/06	3:40 a	-16.8	-16.8	-16.8	---	---	6.1	ENE	0.10	7.0	-23.8	---	---	735.8	0.024	0.000	19.8	2	1
03/09/06	3:41 a	-16.8	-16.7	-16.8	---	---	7.0	ENE	0.12	7.8	-24.3	---	---	735.8	0.024	0.000	19.8	2	1
03/09/06	3:42 a	-16.8	-16.8	-16.8	---	---	6.1	ENE	0.10	7.0	-23.8	---	---	735.8	0.024	0.000	19.8	2	1
03/09/06	3:43 a	-16.8	-16.8	-16.9	---	---	6.1	E	0.10	7.8	-23.8	---	---	735.8	0.024	0.000	19.8	2	1
03/09/06	3:44 a	-16.9	-16.9	-16.9	---	---	7.0	E	0.12	8.7	-24.6	---	---	735.7	0.024	0.000	19.8	2	1
03/09/06	3:45 a	-17.0	-16.9	-17.1	---	---	7.0	E	0.12	8.7	-24.6	---	---	735.8	0.025	0.000	19.8	2	1
03/09/06	3:46 a	-17.1	-17.1	-17.1	---	---	7.0	E	0.12	7.8	-24.7	---	---	735.8	0.025	0.000	19.8	2	1
03/09/06	3:47 a	-17.1	-17.1	-17.1	---	---	6.1	E	0.10	7.0	-24.2	---	---	735.8	0.025	0.000	19.8	2	1
03/09/06	3:48 a	-17.1	-17.1	-17.2	---	---	6.1	E	0.10	7.8	-24.2	---	---	735.9	0.025	0.000	19.8	2	1
03/09/06	3:49 a	-17.2	-17.2	-17.2	---	---	5.2	E	0.09	7.0	-23.6	---	---	735.8	0.025	0.000	19.8	2	1
03/09/06	3:50 a	-17.2	-17.2	-17.2	---	---	7.0	E	0.12	8.7	-24.8	---	---	735.8	0.025	0.000	19.8	2	1
03/09/06	3:51 a	-17.2	-17.2	-17.3	---	---	7.0	E	0.12	8.7	-24.9	---	---	735.8	0.025	0.000	19.8	2	1
03/09/06	3:52 a	-17.3	-17.3	-17.3	---	---	7.0	E	0.12	8.7	-24.9	---	---	735.9	0.025	0.000	19.9	2	1
03/09/06	3:53 a	-17.4	-17.3	-17.4	---	---	7.0	E	0.12	8.7	-25.1	---	---	735.8	0.025	0.000	19.9	2	1
03/09/06	3:54 a	-17.4	-17.4	-17.4	---	---	7.8	E	0.13	9.6	-25.6	---	---	735.8	0.025	0.000	19.9	2	1
03/09/06	3:55 a	-17.5	-17.4	-17.6	---	---	6.1	E	0.10	7.8	-24.7	---	---	735.9	0.025	0.000	19.9	2	1
03/09/06	3:56 a	-17.6	-17.5	-17.6	---	---	7.0	E	0.12	8.7	-25.3	---	---	735.8	0.025	0.000	19.9	2	1
03/09/06	3:57 a	-17.6	-17.6	-17.7	---	---	7.0	E	0.12	7.8	-25.4	---	---	735.8	0.025	0.000	19.9	2	1
03/09/06	3:58 a	-17.6	-17.4	-17.7	---	---	7.8	E	0.13	8.7	-25.9	---	---	735.9	0.025	0.000	19.9	2	1
03/09/06	3:59 a	-17.3	-17.2	-17.4	---	---	8.7	ENE	0.14	9.6	-26.0	---	---	735.8	0.025	0.000	19.9	2	1
03/09/06	4:00 a	-17.1	-16.9	-17.2	---	---	7.8	ENE	0.13	8.7	-25.3	---	---	735.9	0.025	0.000	19.9	2	1
03/09/06	4:01 a	-16.9	-16.9	-16.9	---	---	7.0	ENE	0.12	7.8	-24.5	---	---	735.8	0.024	0.000	19.9	2	1
03/09/06	4:02 a	-16.9	-16.9	-16.9	---	---	7.0	ENE	0.12	7.8	-24.5	---	---	735.9	0.024	0.000	19.9	2	1
03/09/06	4:03 a	-17.0	-16.9	-17.1	---	---	7.0	ENE	0.12	7.8	-24.6	---	---	735.9	0.025	0.000	19.9	2	1
03/09/06	4:04 a	-17.0	-16.9	-17.1	---	---	7.0	ENE	0.12	7.8	-24.6	---	---	735.9	0.025	0.000	19.9	2	1
03/09/06	4:05 a	-16.8	-16.8	-16.8	---	---	7.0	ENE	0.12	7.8	-24.4	---	---	735.8	0.024	0.000	19.9	2	1
03/09/06	4:06 a	-16.7	-16.6	-16.8	---	---	7.0	ENE	0.12	8.7	-24.2	---	---	735.9	0.024	0.000	19.9	2	1
03/09/06	4:07 a	-16.5	-16.3	-16.6	---	---	7.0	ENE	0.12	7.8	-24.0	---	---	735.9	0.024	0.000	19.9	2	1
03/09/06	4:08 a	-16.2	-16.1	-16.3	---	---	7.0	ENE	0.12	7.8	-23.6	---	---	735.9	0.024	0.000	19.9	2	1
03/09/06	4:09 a	-15.9	-15.8	-16.0	---	---	7.0	ENE	0.12	7.8	-23.3	---	---	735.9	0.024	0.000	19.9	2	1
03/09/06	4:10 a	-15.7	-15.6	-15.7	---	---	7.0	ENE	0.12	7.8	-23.0	---	---	736.0	0.024	0.000	19.9	2	1
03/09/06	4:11 a	-15.5	-15.5	-15.6	---	---	7.0	ENE	0.12	8.7	-22.8	---	---	735.9	0.023	0.000	19.9	2	1
03/09/06	4:12 a	-15.4	-15.3	-15.4	---	---	7.0	ENE	0.12	7.8	-22.7	---	---	735.9	0.023	0.000	19.9	2	1
03/09/06	4:13 a	-15.2	-15.1	-15.3	---	---	6.1	ENE	0.10	7.8	-21.8	---	---	735.9	0.023	0.000	19.9	2	1
03/09/06	4:14 a	-15.1	-14.9	-15.1	---	---	7.8	ENE	0.13	8.7	-22.7	---	---	735.9	0.023	0.000	19.9	2	1
03/09/06	4:15 a	-14.9	-14.9	-14.9	---	---	7.8	ENE	0.13	8.7	-22.6	---	---	735.9	0.023	0.000	20.0	2	1
03/09/06	4:16 a	-14.8	-14.8	-14.9	---	---	7.8	ENE	0.13	7.8	-22.5	---	---	735.9	0.023	0.000	20.0	2	1
03/09/06	4:17 a	-14.7	-14.7	-14.8	---	---	7.0	ENE	0.12	7.8	-21.8	---	---	735.9	0.023	0.000	20.0	2	1
03/09/06	4:18 a	-14.7	-14.6	-14.7	---	---	7.0	ENE	0.12	7.8	-21.8	---	---	736.0	0.023	0.000	20.0	2	1
03/09/06	4:19 a	-14.6	-14.6	-14.6	---	---	7.8	ENE	0.13	7.8	-22.1	---	---	736.0	0.023	0.000	20.0	2	1
03/09/06	4:20 a	-14.4	-14.4	-14.5	---	---	6.1	ENE	0.10	7.0	-20.9	---	---	736.0	0.023	0.000	20.0	2	1
03/09/06	4:21 a	-14.4	-14.3	-14.4	---	---	6.1	ENE	0.10	7.0	-20.9	---	---	735.9	0.023	0.000	20.0	2	1
03/09/06	4:22 a	-14.3	-14.3	-14.4	---	---	7.0	ENE	0.12	7.8	-21.4	---	---	736.0	0.023	0.000	20.1	2	1
03/09/06	4:23 a	-14.2	-14.2	-14.3	---	---	6.1	ENE	0.10	7.0	-20.7	---	---	735.9	0.023	0.000	20.1	2	1
03/09/06	4:24 a	-14.1	-14.1	-14.2	---	---	6.1	NE	0.10	7.8	-20.6	---	---	736.0	0.023	0.000	20.1	2	1
03/09/06	4:25 a	-14.1	-14.1	-14.2	---	---	7.0	NE	0.12	7.8	-21.1	---	---	736.0	0.023	0.000	20.1	2	1
03/09/06	4:26 a	-14.2	-14.2	-14.2	---	---	6.1	NE	0.10	7.8	-20.6	---	---	735.9	0.023	0.000	20.1	2	1
03/09/06	4:27 a	-14.1	-14.1	-14.2	---	---	5.2	NE	0.09	7.0	-19.9	---	---	735.9	0.023	0.000	20.1	2	1
03/09/06	4:28 a	-14.0	-13.9	-14.1	---	---	4.3	NE	0.07	5.2	-19.1	---	---	735.9	0.022	0.000	20.1	2	1
03/09/06	4:29 a	-13.8	-13.8	-13.9	---	---	4.3	NE	0.07	6.1	-18.9	---	---	736.0	0.022	0.000	20.1	2	1
03/09/06	4:30 a	-13.8	-13.8	-13.8	---	---	4.3	ENE	0.07	6.1	-18.9	---	---	735.9	0.022	0.000	20.1	2	1
03/09/06	4:31 a	-13.8	-13.7	-13.8	---	---	4.3	ENE	0.07	5.2	-18.9	---	---	736.0	0.022	0.000	20.1	2	1
03/09/06	4:32 a	-13.7	-13.7	-13.7	---	---	4.3	ENE	0.07	5.2	-18.8	---	---	735.9	0.022	0.000	20.2	2	1
03/09/06	4:33 a	-13.7	-13.6	-13.7	---	---	5.2	ENE	0.09	6.1	-19.4	---	---	736.0	0.022	0.000	20.2	2	1
03/09/06	4:34 a	-13.6	-13.6	-13.6	---	---	6.1	ENE	0.10	6.1	-19.9	---	---	736.0	0.022	0.000	20.2	2	1
03/09/06	4:35 a	-13.6	-13.5	-13.6	---	---	6.1	ENE	0.10	7.0	-19.9	---	---	736.0	0.022	0.000	20.2	2	1
03/09/06	4:36 a	-13.4	-13.4	-13.5	---	---	5.2	ENE	0.09	6.1	-19.2	---	---	736.1	0.022	0.000	20.2	2	1
03/09/06	4:37 a	-13.3	-13.2	-13.4	---	---	5.2	ENE	0.09	6.1	-19.1	---	---	735.9	0.022	0.000	20.2	2	1
03/09/06	4:38 a	-13.1	-13.0	-13.2	---	---	5.2	ENE	0.09	7.0	-18.8	---	---	736.0	0.022	0.000	20.2	2	1
03/09/06	4:39 a	-13.0	-13.0	-13.1	---	---	7.0	ENE	0.12	7.8	-19.7	---	---	736.0	0.022	0.000	20.2	2	1
03/09/06	4:40 a	-13.0	-12.9	-13.1	---	---	6.1	ENE	0.10	7.0	-19.2	---	---	736.0	0.022	0.000	20.2	2	1
03/09/06	4:41 a	-12.9	-12.9	-13.0	---	---	5.2	ENE	0.09	6.1	-18.6	---	---	736.1	0.022	0.000	20.2	2	1
03/09/06	4:42 a	-13.0	-13.0	-13.1	---	---	6.1	ENE	0.10	6.1	-19.2	---	---	736.0	0.022	0.000	20.3	2	1
03/09/06	4:43 a	-13.1	-13.1	-13.1	---	---	5.2	ENE	0.09	6.1	-18.7	---	---	736.0	0.022	0.000	20.3	2	1
03/09/06	4:44 a	-13.1	-13.1	-13.2	---	---	7.0	ENE	0.12	7.8	-19.9	---	---	736.0	0.022	0.000	20.3	2	1
03/09/06	4:45 a	-13.3	-13.2	-13.3	---	---	6.1	ENE	0.10	7.0	-19.6	---	---	736.0	0.022	0.000	20.3	2	1
03/09/06	4:46 a	-13.4	-13.4	-13.6	---	---	6.1	ENE	0.10	7.0	-19.8	---	---	736.0	0.022	0.000	20.3	2	1
03/09/06	4:47 a	-13.6	-13.6	-13.7	---	---	6.1	ENE	0.10	7.0	-19.9	---	---	736.0	0.022	0.000	20.3	2	1
03/09/06	4:48 a	-13.8	-13.7	-13.9	---	---	7.8	ENE	0.13	8.7	-21.2	---	---	736.0	0.022	0.000	20.3	2	1
03/09/06	4:49 a	-14.1	-14.0	-14.2	---	---	7.8	NE	0.13	9.6	-21.5	---	---	736.0	0.022	0.000	20.4	2	1
03/09/06	4:50 a	-14.4	-14.3	-14.4	---	---	7.8	NE	0.13	9.6	-21.9	---	---	736.1	0.023	0.000	20.4	2	1
03/09/06	4:51 a	-14.6	-14.5	-14.8	---	---	9.6	NE	0.16	10.4	-23.1	---	---	736.0	0.023	0.000	20.4	2	1
03/09/06	4:52 a	-14.9	-14.9	-15.1	---	---	11.3	NE	0.19	11.3	-24.2	---	---	735.9	0.023	0.000	20.4	2	1
03/09/06	4:53 a	-15.3	-15.1	-15.4	---	---	10.4	NE	0.17	11.3	-24.3	---	---	736.0	0.023	0.000	20.4	2	1
03/09/06	4:54 a	-15.5	-15.4	-15.6	---	---	9.6	NE	0.16	9.6	-24.2	---	---	736.0	0.023	0.000	20.4	2	1
03/09/06	4:55 a	-15.7	-15.6	-15.7	---	---	8.7	NE	0.14	9.6	-23.9	---	---	736.0	0.024	0.000	20.4	2	1
03/09/06	4:56 a	-15.8	-15.7	-15.8	---	---	8.7	NE	0.14	9.6	-24.1	---	---	736.0	0.024	0.000	20.4	2	1
03/09/06	4:57 a	-15.8	-15.8	-15.8	---	---	8.7	NE	0.14	9.6	-24.1	---	---	736.0	0.024	0.000	20.5	2	1
03/09/06	4:58 a	-15.8	-15.8	-15.8	---	---	8.7	NE	0.14	10.4	-24.1	---	---	735.9	0.024	0.000	20.5	2	1
03/09/06	4:59 a	-15.8	-15.8	-15.8	---	---	8.7	NE	0.14	10.4	-24.2	---	---	735.9	0.024	0.000	20.5	2	1
03/09/06	5:00 a	-15.8	-15.8	-15.9	---	---	8.7	NE	0.14	9.6	-24.2	---	---	735.9	0.024	0.000	20.5	2	1
03/09/06	5:01 a	-15.9	-15.9	-15.9	---	---	8.7	NE	0.14	9.6	-24.2	---	---	735.9	0.024	0.000	20.5	2	1
03/09/06	5:02 a	-15.9	-15.9	-15.9	---	---	10.4	NE	0.17	10.4	-25.1	---	---	736.0	0.024	0.000	20.5	2	1
03/09/06	5:03 a	-15.9	-15.9	-16.1	---	---	9.6	NE	0.16	11.3	-24.7	---	---	736.0	0.024	0.000	20.6	2	1
03/09/06	5:04 a	-16.1	-16.1	-16.2	---	---	9.6	NE	0.16	10.4	-24.9	---	---	736.0	0.024	0.000	20.6	2	1
03/09/06	5:05 a	-16.2	-16.2	-16.2	---	---	8.7	NE	0.14	9.6	-24.6	---	---	735.8	0.024	0.000	20.6	2	1
03/09/06	5:06 a	-16.2	-16.2	-16.2	---	---	8.7	NE	0.14	9.6	-24.7	---	---	736.0	0.024	0.000	20.6	2	1
03/09/06	5:07 a	-16.2	-16.2	-16.2	---	---	8.7	NE	0.14	9.6	-24.7	---	---	735.9	0.024	0.000	20.6	2	1
03/09/06	5:08 a	-16.2	-16.2	-16.3	---	---	9.6	NE	0.16	10.4	-25.1	---	---	736.0	0.024	0.000	20.6	2	1
03/09/06	5:09 a	-16.3	-16.2	-16.3	---	---	8.7	NE	0.14	10.4	-24.7	---	---	735.9	0.024	0.000	20.6	2	1
03/09/06	5:10 a	-16.2	-16.2	-16.3	---	---	8.7	NE	0.14	10.4	-24.7	---	---	735.9	0.024	0.000	20.6	2	1
03/09/06	5:11 a	-16.2	-16.2	-16.2	---	---	9.6	NE	0.16	10.4	-25.1	---	---	735.9	0.024	0.000	20.6	2	1
03/09/06	5:12 a	-16.2	-16.2	-16.2	---	---	9.6	NE	0.16	10.4	-25.1	---	---	735.9	0.024	0.000	20.6	2	1
03/09/06	5:13 a	-16.2	-16.2	-16.2	---	---	8.7	NE	0.14	9.6	-24.6	---	---	735.9	0.024	0.000	20.6	2	1
03/09/06	5:14 a	-16.1	-16.0	-16.1	---	---	7.0	NE	0.12	8.7	-23.4	---	---	735.9	0.024	0.000	20.6	2	1
03/09/06	5:15 a	-15.9	-15.8	-15.9	---	---	7.0	NE	0.12	7.0	-23.3	---	---	735.9	0.024	0.000	20.6	2	1
03/09/06	5:16 a	-15.8	-15.7	-15.8	---	---	7.0	NE	0.12	8.7	-23.1	---	---	736.0	0.024	0.000	20.6	2	1
03/09/06	5:17 a	-15.7	-15.7	-15.7	---	---	7.0	NE	0.12	8.7	-23.1	---	---	735.9	0.024	0.000	20.6	2	1
03/09/06	5:18 a	-15.6	-15.6	-15.7	---	---	7.0	NE	0.12	7.8	-22.9	---	---	735.9	0.024	0.000	20.6	2	1
03/09/06	5:19 a	-15.5	-15.5	-15.5	---	---	8.7	NE	0.14	9.6	-23.8	---	---	735.9	0.023	0.000	20.6	2	1
03/09/06	5:20 a	-15.6	-15.6	-15.6	---	---	9.6	NE	0.16	9.6	-24.2	---	---	735.9	0.024	0.000	20.6	2	1
03/09/06	5:21 a	-15.6	-15.6	-15.7	---	---	8.7	NE	0.14	9.6	-23.9	---	---	735.8	0.024	0.000	20.6	2	1
03/09/06	5:22 a	-15.6	-15.6	-15.7	---	---	7.8	NE	0.13	8.7	-23.4	---	---	735.9	0.024	0.000	20.6	2	1
03/09/06	5:23 a	-15.6	-15.5	-15.6	---	---	7.0	NE	0.12	7.8	-22.9	---	---	735.9	0.024	0.000	20.6	2	1
03/09/06	5:24 a	-15.4	-15.3	-15.4	---	---	7.0	NE	0.12	7.8	-22.7	---	---	735.8	0.023	0.000	20.6	2	1
03/09/06	5:25 a	-15.3	-15.2	-15.3	---	---	6.1	NE	0.10	7.0	-21.9	---	---	735.9	0.023	0.000	20.6	2	1
03/09/06	5:26 a	-15.1	-15.0	-15.2	---	---	6.1	NE	0.10	7.0	-21.8	---	---	735.9	0.023	0.000	20.6	2	1
03/09/06	5:27 a	-14.9	-14.9	-15.0	---	---	5.2	NE	0.09	6.1	-20.9	---	---	735.9	0.023	0.000	20.6	2	1
03/09/06	5:28 a	-14.8	-14.6	-14.9	---	---	5.2	NE	0.09	7.0	-20.7	---	---	735.9	0.023	0.000	20.6	2	1
03/09/06	5:29 a	-14.6	-14.5	-14.6	---	---	6.1	NE	0.10	7.0	-21.1	---	---	735.9	0.023	0.000	20.6	2	1
03/09/06	5:30 a	-14.5	-14.5	-14.6	---	---	7.0	NE	0.12	7.8	-21.6	---	---	735.9	0.023	0.000	20.6	2	1
03/09/06	5:31 a	-14.4	-14.4	-14.5	---	---	7.0	NE	0.12	7.8	-21.5	---	---	735.8	0.023	0.000	20.6	2	1
03/09/06	5:32 a	-14.4	-14.4	-14.4	---	---	7.0	NE	0.12	7.0	-21.5	---	---	735.9	0.023	0.000	20.6	2	1
03/09/06	5:33 a	-14.3	-14.3	-14.4	---	---	6.1	NE	0.10	7.0	-20.8	---	---	735.9	0.023	0.000	20.6	2	1
03/09/06	5:34 a	-14.3	-14.2	-14.3	---	---	6.1	NE	0.10	7.0	-20.8	---	---	735.9	0.023	0.000	20.6	2	1
03/09/06	5:35 a	-14.2	-14.1	-14.2	---	---	5.2	NE	0.09	6.1	-20.0	---	---	735.9	0.023	0.000	20.6	2	1
03/09/06	5:36 a	-14.1	-14.1	-14.1	---	---	5.2	NE	0.09	6.1	-19.9	---	---	735.9	0.022	0.000	20.6	2	1
03/09/06	5:37 a	-14.0	-13.9	-14.1	---	---	6.1	NE	0.10	7.0	-20.4	---	---	735.9	0.022	0.000	20.6	2	1
03/09/06	5:38 a	-13.9	-13.8	-13.9	---	---	7.0	NE	0.12	7.0	-20.8	---	---	735.9	0.022	0.000	20.6	2	1
03/09/06	5:39 a	-13.8	-13.8	-13.8	---	---	6.1	NE	0.10	7.0	-20.2	---	---	736.0	0.022	0.000	20.6	2	1
03/09/06	5:40 a	-13.8	-13.8	-13.9	---	---	6.1	NE	0.10	6.1	-20.2	---	---	736.0	0.022	0.000	20.6	2	1
03/09/06	5:41 a	-13.8	-13.8	-13.8	---	---	5.2	NE	0.09	6.1	-19.6	---	---	735.9	0.022	0.000	20.6	2	1
03/09/06	5:42 a	-13.7	-13.7	-13.8	---	---	5.2	NE	0.09	5.2	-19.5	---	---	735.9	0.022	0.000	20.6	2	1
03/09/06	5:43 a	-13.7	-13.6	-13.7	---	---	4.3	NE	0.07	5.2	-18.7	---	---	735.9	0.022	0.000	20.6	2	1
03/09/06	5:44 a	-13.5	-13.4	-13.6	---	---	4.3	NE	0.07	4.3	-18.6	---	---	735.9	0.022	0.000	20.6	2	1
03/09/06	5:45 a	-13.3	-13.2	-13.4	---	---	4.3	NE	0.07	4.3	-18.3	---	---	735.9	0.022	0.000	20.6	2	1
03/09/06	5:46 a	-13.2	-13.2	-13.2	---	---	4.3	NE	0.07	5.2	-18.2	---	---	735.9	0.022	0.000	20.6	2	1
03/09/06	5:47 a	-13.1	-13.1	-13.1	---	---	5.2	NE	0.09	5.2	-18.8	---	---	735.9	0.022	0.000	20.6	2	1
03/09/06	5:48 a	-13.1	-13.1	-13.1	---	---	4.3	NE	0.07	4.3	-18.0	---	---	735.9	0.022	0.000	20.7	2	1
03/09/06	5:49 a	-13.0	-13.0	-13.1	---	---	3.5	NE	0.06	4.3	-17.2	---	---	735.9	0.022	0.000	20.7	2	1
03/09/06	5:50 a	-13.0	-12.9	-13.0	---	---	3.5	NE	0.06	4.3	-17.2	---	---	735.9	0.022	0.000	20.7	2	1
03/09/06	5:51 a	-13.0	-12.9	-13.0	---	---	3.5	NE	0.06	4.3	-17.2	---	---	735.9	0.022	0.000	20.7	2	1
03/09/06	5:52 a	-13.0	-12.9	-13.0	---	---	4.3	NE	0.07	4.3	-17.9	---	---	735.9	0.022	0.000	20.7	2	1
03/09/06	5:53 a	-12.9	-12.8	-12.9	---	---	4.3	NE	0.07	5.2	-17.8	---	---	735.8	0.022	0.000	20.7	2	1
03/09/06	5:54 a	-12.8	-12.8	-12.8	---	---	4.3	NE	0.07	5.2	-17.8	---	---	736.0	0.022	0.000	20.7	2	1
03/09/06	5:55 a	-12.7	-12.7	-12.7	---	---	4.3	NE	0.07	5.2	-17.7	---	---	735.9	0.022	0.000	20.7	2	1
03/09/06	5:56 a	-12.7	-12.6	-12.7	---	---	4.3	NE	0.07	5.2	-17.6	---	---	735.9	0.022	0.000	20.7	2	1
03/09/06	5:57 a	-12.6	-12.6	-12.7	---	---	4.3	NE	0.07	5.2	-17.6	---	---	735.9	0.021	0.000	20.7	2	1
03/09/06	5:58 a	-12.6	-12.6	-12.6	---	---	3.5	NE	0.06	4.3	-16.7	---	---	736.0	0.021	0.000	20.8	2	1
03/09/06	5:59 a	-12.6	-12.6	-12.6	---	---	3.5	NE	0.06	5.2	-16.7	---	---	735.9	0.021	0.000	20.8	2	1
03/09/06	6:00 a	-12.6	-12.6	-12.6	---	---	3.5	NE	0.06	4.3	-16.7	---	---	735.9	0.021	0.000	20.8	2	1
03/09/06	6:01 a	-12.6	-12.5	-12.6	---	---	2.6	NE	0.04	3.5	-15.7	---	---	736.0	0.021	0.000	20.8	2	1
03/09/06	6:02 a	-12.5	-12.4	-12.5	---	---	2.6	NE	0.04	3.5	-15.6	---	---	736.0	0.021	0.000	20.9	2	1
03/09/06	6:03 a	-12.5	-12.4	-12.5	---	---	3.5	NE	0.06	4.3	-16.6	---	---	735.9	0.021	0.000	20.9	2	1
03/09/06	6:04 a	-12.4	-12.4	-12.4	---	---	4.3	NE	0.07	5.2	-17.3	---	---	735.9	0.021	0.000	20.9	2	1
03/09/06	6:05 a	-12.4	-12.4	-12.5	---	---	4.3	NE	0.07	5.2	-17.3	---	---	735.9	0.021	0.000	20.9	3	1
03/09/06	6:06 a	-12.5	-12.4	-12.6	---	---	4.3	NE	0.07	4.3	-17.4	---	---	735.9	0.021	0.000	21.0	2	1
03/09/06	6:07 a	-12.6	-12.6	-12.6	---	---	4.3	NE	0.07	4.3	-17.6	---	---	736.0	0.021	0.000	21.1	2	1
03/09/06	6:08 a	-12.7	-12.7	-12.8	---	---	4.3	NE	0.07	4.3	-17.7	---	---	735.9	0.022	0.000	21.1	2	1
03/09/06	6:09 a	-12.8	-12.8	-12.8	---	---	3.5	NE	0.06	4.3	-17.0	---	---	735.9	0.022	0.000	21.1	2	1
03/09/06	6:10 a	-12.8	-12.8	-12.8	---	---	2.6	NE	0.04	3.5	-16.0	---	---	736.0	0.022	0.000	21.2	2	1
03/09/06	6:11 a	-12.8	-12.8	-12.9	---	---	2.6	NE	0.04	3.5	-16.0	---	---	735.8	0.022	0.000	21.2	2	1
03/09/06	6:12 a	-12.8	-12.8	-12.9	---	---	3.5	NE	0.06	4.3	-17.0	---	---	736.0	0.022	0.000	21.3	2	1
03/09/06	6:13 a	-12.8	-12.8	-12.9	---	---	3.5	NE	0.06	3.5	-17.0	---	---	735.9	0.022	0.000	21.3	2	1
03/09/06	6:14 a	-12.8	-12.8	-12.9	---	---	3.5	ENE	0.06	4.3	-17.0	---	---	736.0	0.022	0.000	21.4	2	1
03/09/06	6:15 a	-12.8	-12.8	-12.9	---	---	3.5	ENE	0.06	5.2	-17.0	---	---	735.9	0.022	0.000	21.4	2	1
03/09/06	6:16 a	-12.8	-12.8	-12.8	---	---	5.2	ENE	0.09	6.1	-18.4	---	---	735.9	0.022	0.000	21.5	3	1
03/09/06	6:17 a	-12.8	-12.8	-12.9	---	---	4.3	ENE	0.07	5.2	-17.8	---	---	735.8	0.022	0.000	21.6	3	1
03/09/06	6:18 a	-12.9	-12.9	-13.0	---	---	5.2	ENE	0.09	6.1	-18.5	---	---	735.9	0.022	0.000	21.6	2	1
03/09/06	6:19 a	-13.1	-13.0	-13.2	---	---	6.1	ENE	0.10	6.1	-19.3	---	---	735.8	0.022	0.000	21.7	2	1
03/09/06	6:20 a	-13.2	-13.2	-13.3	---	---	5.2	ENE	0.09	6.1	-18.9	---	---	736.0	0.022	0.000	21.7	2	1
03/09/06	6:21 a	-13.4	-13.3	-13.4	---	---	5.2	ENE	0.09	5.2	-19.1	---	---	735.9	0.022	0.000	21.8	2	1
03/09/06	6:22 a	-13.5	-13.4	-13.5	---	---	4.3	ENE	0.07	5.2	-18.6	---	---	736.0	0.022	0.000	21.8	2	1
03/09/06	6:23 a	-13.5	-13.4	-13.6	---	---	4.3	ENE	0.07	5.2	-18.6	---	---	736.0	0.022	0.000	21.9	2	1
03/09/06	6:24 a	-13.4	-13.4	-13.4	---	---	4.3	ENE	0.07	5.2	-18.4	---	---	735.9	0.022	0.000	21.9	2	1
03/09/06	6:25 a	-13.4	-13.4	-13.4	---	---	4.3	ENE	0.07	5.2	-18.4	---	---	736.0	0.022	0.000	22.1	2	1
03/09/06	6:26 a	-13.4	-13.4	-13.4	---	---	4.3	ENE	0.07	5.2	-18.4	---	---	736.0	0.022	0.000	22.1	2	1
03/09/06	6:27 a	-13.4	-13.4	-13.4	---	---	4.3	ENE	0.07	4.3	-18.4	---	---	735.9	0.022	0.000	22.1	3	1
03/09/06	6:28 a	-13.3	-13.3	-13.4	---	---	4.3	ENE	0.07	4.3	-18.3	---	---	735.9	0.022	0.000	22.2	2	1
03/09/06	6:29 a	-13.2	-13.2	-13.3	---	---	4.3	ENE	0.07	4.3	-18.2	---	---	735.9	0.022	0.000	22.3	2	1
03/09/06	6:30 a	-13.1	-13.1	-13.2	---	---	4.3	ENE	0.07	5.2	-18.1	---	---	735.9	0.022	0.000	22.3	2	1
03/09/06	6:31 a	-13.1	-13.1	-13.1	---	---	4.3	ENE	0.07	5.2	-18.0	---	---	736.0	0.022	0.000	22.4	2	1
03/09/06	6:32 a	-13.1	-13.1	-13.1	---	---	4.3	ENE	0.07	5.2	-18.1	---	---	735.9	0.022	0.000	22.4	2	1
03/09/06	6:33 a	-13.1	-13.1	-13.2	---	---	4.3	ENE	0.07	4.3	-18.1	---	---	735.9	0.022	0.000	22.5	2	1
03/09/06	6:34 a	-13.1	-13.1	-13.2	---	---	4.3	ENE	0.07	4.3	-18.1	---	---	735.9	0.022	0.000	22.5	2	1
03/09/06	6:35 a	-13.1	-13.0	-13.1	---	---	3.5	ENE	0.06	4.3	-17.3	---	---	736.0	0.022	0.000	22.6	2	1
03/09/06	6:36 a	-13.0	-13.0	-13.1	---	---	4.3	ENE	0.07	4.3	-17.9	---	---	735.9	0.022	0.000	22.7	2	1
03/09/06	6:37 a	-13.1	-13.0	-13.1	---	---	4.3	ENE	0.07	5.2	-18.0	---	---	735.9	0.022	0.000	22.7	2	1
03/09/06	6:38 a	-13.1	-13.1	-13.1	---	---	4.3	ENE	0.07	5.2	-18.0	---	---	735.9	0.022	0.000	22.7	2	1
03/09/06	6:39 a	-13.2	-13.2	-13.3	---	---	4.3	ENE	0.07	5.2	-18.2	---	---	735.9	0.022	0.000	22.8	2	1
03/09/06	6:40 a	-13.3	-13.2	-13.3	---	---	4.3	ENE	0.07	5.2	-18.3	---	---	735.9	0.022	0.000	22.8	2	1
03/09/06	6:41 a	-13.3	-13.3	-13.4	---	---	4.3	ENE	0.07	5.2	-18.3	---	---	736.0	0.022	0.000	22.9	2	1
03/09/06	6:42 a	-13.4	-13.4	-13.4	---	---	3.5	ENE	0.06	4.3	-17.7	---	---	735.9	0.022	0.000	22.9	2	1
03/09/06	6:43 a	-13.3	-13.2	-13.3	---	---	3.5	ENE	0.06	4.3	-17.5	---	---	735.9	0.022	0.000	22.9	2	1
03/09/06	6:44 a	-13.3	-13.2	-13.3	---	---	3.5	ENE	0.06	5.2	-17.5	---	---	736.0	0.022	0.000	23.0	2	1
03/09/06	6:45 a	-13.3	-13.2	-13.3	---	---	5.2	ENE	0.09	5.2	-18.9	---	---	735.9	0.022	0.000	23.0	2	1
03/09/06	6:46 a	-13.2	-13.2	-13.3	---	---	5.2	ENE	0.09	6.1	-18.9	---	---	736.0	0.022	0.000	23.1	2	1
03/09/06	6:47 a	-13.3	-13.3	-13.4	---	---	5.2	ENE	0.09	7.0	-19.1	---	---	735.9	0.022	0.000	23.1	2	1
03/09/06	6:48 a	-13.4	-13.4	-13.4	---	---	6.1	ENE	0.10	6.1	-19.8	---	---	735.9	0.022	0.000	23.1	2	1
03/09/06	6:49 a	-13.6	-13.4	-13.7	---	---	6.1	ENE	0.10	6.1	-19.9	---	---	736.0	0.022	0.000	23.2	2	1
03/09/06	6:50 a	-13.7	-13.7	-13.7	---	---	4.3	ENE	0.07	5.2	-18.7	---	---	735.9	0.022	0.000	23.2	2	1
03/09/06	6:51 a	-13.7	-13.6	-13.7	---	---	4.3	ENE	0.07	5.2	-18.7	---	---	735.9	0.022	0.000	23.2	2	1
03/09/06	6:52 a	-13.7	-13.6	-13.7	---	---	4.3	ENE	0.07	5.2	-18.7	---	---	735.9	0.022	0.000	23.2	2	1
03/09/06	6:53 a	-13.6	-13.6	-13.6	---	---	4.3	ENE	0.07	5.2	-18.7	---	---	735.9	0.022	0.000	23.1	2	1
03/09/06	6:54 a	-13.5	-13.5	-13.6	---	---	3.5	ENE	0.06	4.3	-17.8	---	---	735.9	0.022	0.000	23.0	2	1
03/09/06	6:55 a	-13.6	-13.6	-13.6	---	---	3.5	ENE	0.06	4.3	-17.8	---	---	736.0	0.022	0.000	22.9	2	1
03/09/06	6:56 a	-13.6	-13.6	-13.7	---	---	4.3	ENE	0.07	5.2	-18.7	---	---	735.9	0.022	0.000	22.7	2	1
03/09/06	6:57 a	-13.6	-13.6	-13.7	---	---	3.5	ENE	0.06	4.3	-17.8	---	---	735.9	0.022	0.000	22.6	2	1
03/09/06	6:58 a	-13.5	-13.4	-13.6	---	---	3.5	ENE	0.06	3.5	-17.8	---	---	736.0	0.022	0.000	22.4	2	1
03/09/06	6:59 a	-13.4	-13.3	-13.4	---	---	2.6	ENE	0.04	2.6	-16.7	---	---	736.1	0.022	0.000	22.3	2	1
03/09/06	7:00 a	-13.3	-13.3	-13.3	---	---	0.9	ENE	0.01	1.7	-13.3	---	---	736.0	0.022	0.000	22.2	2	1
03/09/06	7:01 a	-13.2	-13.1	-13.3	---	---	0.9	ENE	0.01	1.7	-13.2	---	---	735.9	0.022	0.000	22.1	2	1
03/09/06	7:02 a	-13.0	-12.9	-13.1	---	---	0.9	ENE	0.01	1.7	-13.0	---	---	735.9	0.022	0.000	22.1	2	1
03/09/06	7:03 a	-12.8	-12.7	-12.8	---	---	0.0	---	0.00	0.0	-12.8	---	---	735.9	0.022	0.000	21.9	2	1
03/09/06	7:04 a	-12.6	-12.5	-12.7	---	---	0.0	---	0.00	0.0	-12.6	---	---	735.9	0.021	0.000	21.9	2	1
03/09/06	7:05 a	-12.3	-12.3	-12.4	---	---	0.0	---	0.00	0.9	-12.3	---	---	736.0	0.021	0.000	21.9	2	1
03/09/06	7:06 a	-12.3	-12.3	-12.5	---	---	0.9	ENE	0.01	1.7	-12.3	---	---	735.9	0.021	0.000	21.8	2	1
03/09/06	7:07 a	-12.7	-12.6	-12.9	---	---	0.9	ENE	0.01	1.7	-12.7	---	---	735.8	0.022	0.000	21.7	2	1
03/09/06	7:08 a	-13.2	-12.9	-13.4	---	---	0.9	ENE	0.01	1.7	-13.2	---	---	735.9	0.022	0.000	21.7	2	1
03/09/06	7:09 a	-13.5	-13.4	-13.5	---	---	0.9	ENE	0.01	1.7	-13.5	---	---	735.9	0.022	0.000	21.7	2	1
03/09/06	7:10 a	-13.6	-13.6	-13.6	---	---	0.9	ENE	0.01	1.7	-13.6	---	---	735.9	0.022	0.000	21.6	2	1
03/09/06	7:11 a	-13.6	-13.5	-13.6	---	---	0.9	ENE	0.01	1.7	-13.6	---	---	735.9	0.022	0.000	21.6	2	1
03/09/06	7:12 a	-13.4	-13.4	-13.4	---	---	0.9	ENE	0.01	1.7	-13.4	---	---	736.0	0.022	0.000	21.6	2	1
03/09/06	7:13 a	-13.4	-13.3	-13.4	---	---	0.9	ENE	0.01	1.7	-13.4	---	---	736.0	0.022	0.000	21.6	2	1
03/09/06	7:14 a	-13.3	-13.3	-13.3	---	---	1.7	ENE	0.03	1.7	-15.2	---	---	735.9	0.022	0.000	21.5	2	1
03/09/06	7:15 a	-13.2	-13.2	-13.3	---	---	0.9	ENE	0.01	1.7	-13.2	---	---	735.9	0.022	0.000	21.4	2	1
03/09/06	7:16 a	-13.2	-13.2	-13.2	---	---	0.9	ENE	0.01	0.9	-13.2	---	---	735.9	0.022	0.000	21.4	2	1
03/09/06	7:17 a	-13.3	-13.2	-13.3	---	---	0.0	ENE	0.00	0.9	-13.3	---	---	736.0	0.022	0.000	21.4	2	1
03/09/06	7:18 a	-13.3	-13.3	-13.4	---	---	0.9	ENE	0.01	1.7	-13.3	---	---	735.9	0.022	0.000	21.4	2	1
03/09/06	7:19 a	-13.6	-13.4	-13.7	---	---	1.7	ENE	0.03	1.7	-15.4	---	---	736.0	0.022	0.000	21.4	2	1
03/09/06	7:20 a	-13.9	-13.8	-14.0	---	---	0.9	ENE	0.01	1.7	-13.9	---	---	736.0	0.022	0.000	21.3	2	1
03/09/06	7:21 a	-14.1	-14.1	-14.2	---	---	2.6	ENE	0.04	3.5	-17.4	---	---	736.0	0.023	0.000	21.3	2	1
03/09/06	7:22 a	-14.3	-14.3	-14.3	---	---	1.7	ENE	0.03	2.6	-16.3	---	---	736.0	0.023	0.000	21.3	2	1
03/09/06	7:23 a	-14.4	-14.3	-14.4	---	---	1.7	ENE	0.03	2.6	-16.4	---	---	736.0	0.023	0.000	21.3	2	1
03/09/06	7:24 a	-14.3	-14.3	-14.4	---	---	0.0	E	0.00	0.9	-14.3	---	---	736.0	0.023	0.000	21.3	2	1
03/09/06	7:25 a	-14.1	-13.9	-14.2	---	---	0.9	E	0.01	0.9	-14.1	---	---	736.0	0.023	0.000	21.3	2	1
03/09/06	7:26 a	-13.8	-13.8	-13.9	---	---	0.9	E	0.01	1.7	-13.8	---	---	736.0	0.022	0.000	21.2	2	1
03/09/06	7:27 a	-13.6	-13.4	-13.7	---	---	0.9	E	0.01	1.7	-13.6	---	---	736.1	0.022	0.000	21.2	2	1
03/09/06	7:28 a	-13.3	-13.2	-13.4	---	---	0.9	E	0.01	1.7	-13.3	---	---	736.0	0.022	0.000	21.2	2	1
03/09/06	7:29 a	-13.2	-13.2	-13.2	---	---	1.7	E	0.03	1.7	-15.1	---	---	736.0	0.022	0.000	21.2	2	1
03/09/06	7:30 a	-13.2	-13.1	-13.2	---	---	1.7	E	0.03	2.6	-15.1	---	---	736.1	0.022	0.000	21.2	2	1
03/09/06	7:31 a	-13.1	-13.0	-13.2	---	---	1.7	E	0.03	1.7	-15.0	---	---	736.0	0.022	0.000	21.1	2	1
03/09/06	7:32 a	-12.9	-12.8	-12.9	---	---	1.7	E	0.03	1.7	-14.7	---	---	736.0	0.022	0.000	21.1	2	1
03/09/06	7:33 a	-12.7	-12.6	-12.8	---	---	0.9	E	0.01	1.7	-12.7	---	---	736.0	0.022	0.000	21.1	2	1
03/09/06	7:34 a	-12.5	-12.4	-12.6	---	---	0.9	E	0.01	1.7	-12.5	---	---	736.1	0.021	0.000	21.1	2	1
03/09/06	7:35 a	-12.3	-12.2	-12.3	---	---	0.9	E	0.01	0.9	-12.3	---	---	736.2	0.021	0.000	21.1	2	1
03/09/06	7:36 a	-12.1	-11.9	-12.2	---	---	0.0	E	0.00	0.9	-12.1	---	---	736.1	0.021	0.000	21.1	2	1
03/09/06	7:37 a	-11.9	-11.8	-11.9	---	---	0.9	E	0.01	0.9	-11.9	---	---	736.1	0.021	0.000	21.1	2	1
03/09/06	7:38 a	-11.9	-11.8	-11.9	---	---	0.9	E	0.01	1.7	-11.9	---	---	736.1	0.021	0.000	21.0	2	1
03/09/06	7:39 a	-11.8	-11.8	-11.9	---	---	0.9	E	0.01	1.7	-11.8	---	---	736.1	0.021	0.000	21.0	2	1
03/09/06	7:40 a	-11.7	-11.6	-11.7	---	---	0.9	E	0.01	1.7	-11.7	---	---	736.1	0.021	0.000	21.0	2	1
03/09/06	7:41 a	-11.6	-11.6	-11.7	---	---	1.7	E	0.03	2.6	-13.3	---	---	736.1	0.021	0.000	21.0	3	1
03/09/06	7:42 a	-11.6	-11.5	-11.6	---	---	1.7	E	0.03	2.6	-13.3	---	---	736.1	0.021	0.000	21.0	2	1
03/09/06	7:43 a	-11.4	-11.4	-11.4	---	---	1.7	E	0.03	1.7	-13.2	---	---	736.1	0.021	0.000	21.0	2	1
03/09/06	7:44 a	-11.3	-11.3	-11.3	---	---	1.7	E	0.03	1.7	-13.1	---	---	736.1	0.021	0.000	21.0	2	1
03/09/06	7:45 a	-11.3	-11.2	-11.3	---	---	0.9	E	0.01	1.7	-11.3	---	---	736.2	0.021	0.000	21.0	2	1
03/09/06	7:46 a	-11.2	-11.1	-11.2	---	---	1.7	E	0.03	1.7	-12.8	---	---	736.1	0.020	0.000	20.9	2	1
03/09/06	7:47 a	-11.1	-11.1	-11.1	---	---	1.7	E	0.03	2.6	-12.7	---	---	736.2	0.020	0.000	20.9	2	1
03/09/06	7:48 a	-11.0	-11.0	-11.0	---	---	1.7	E	0.03	2.6	-12.7	---	---	736.2	0.020	0.000	20.9	2	1
03/09/06	7:49 a	-11.0	-11.0	-11.0	---	---	1.7	E	0.03	2.6	-12.7	---	---	736.1	0.020	0.000	20.9	2	1
03/09/06	7:50 a	-11.0	-11.0	-11.1	---	---	1.7	E	0.03	2.6	-12.7	---	---	736.2	0.020	0.000	20.9	2	1
03/09/06	7:51 a	-11.1	-11.1	-11.1	---	---	1.7	E	0.03	2.6	-12.7	---	---	736.1	0.020	0.000	20.9	3	1
03/09/06	7:52 a	-11.1	-11.1	-11.1	---	---	1.7	E	0.03	2.6	-12.7	---	---	736.1	0.020	0.000	20.9	2	1
03/09/06	7:53 a	-11.1	-11.1	-11.2	---	---	1.7	E	0.03	2.6	-12.8	---	---	736.2	0.020	0.000	20.9	2	1
03/09/06	7:54 a	-11.2	-11.2	-11.3	---	---	1.7	E	0.03	3.5	-12.9	---	---	736.1	0.021	0.000	20.9	3	1
03/09/06	7:55 a	-11.4	-11.3	-11.6	---	---	1.7	E	0.03	2.6	-13.2	---	---	736.2	0.021	0.000	20.9	2	1
03/09/06	7:56 a	-11.8	-11.7	-12.0	---	---	1.7	E	0.03	2.6	-13.6	---	---	736.2	0.021	0.000	20.9	2	1
03/09/06	7:57 a	-12.1	-12.0	-12.3	---	---	1.7	E	0.03	1.7	-13.9	---	---	736.1	0.021	0.000	20.9	2	1
03/09/06	7:58 a	-12.4	-12.3	-12.6	---	---	1.7	E	0.03	2.6	-14.3	---	---	736.2	0.021	0.000	20.9	2	1
03/09/06	7:59 a	-12.8	-12.7	-12.9	---	---	1.7	E	0.03	2.6	-14.6	---	---	736.1	0.022	0.000	20.9	2	1
03/09/06	8:00 a	-13.1	-13.0	-13.2	---	---	1.7	E	0.03	1.7	-14.9	---	---	736.1	0.022	0.000	20.9	2	1
03/09/06	8:01 a	-13.3	-13.3	-13.4	---	---	1.7	E	0.03	1.7	-15.2	---	---	736.1	0.022	0.000	20.9	3	1
03/09/06	8:02 a	-13.6	-13.5	-13.7	---	---	0.9	E	0.01	1.7	-13.6	---	---	736.2	0.022	0.000	20.9	2	1
03/09/06	8:03 a	-13.8	-13.7	-13.9	---	---	0.9	E	0.01	1.7	-13.8	---	---	736.1	0.022	0.000	20.9	3	1
03/09/06	8:04 a	-13.9	-13.9	-14.0	---	---	0.9	E	0.01	1.7	-13.9	---	---	736.2	0.022	0.000	20.9	2	1
03/09/06	8:05 a	-14.1	-14.0	-14.1	---	---	0.0	E	0.00	0.9	-14.1	---	---	736.2	0.022	0.000	20.9	2	1
03/09/06	8:06 a	-14.1	-14.0	-14.1	---	---	0.0	E	0.00	0.9	-14.1	---	---	736.1	0.022	0.000	20.8	2	1
03/09/06	8:07 a	-14.0	-14.0	-14.1	---	---	0.0	E	0.00	0.9	-14.0	---	---	736.2	0.022	0.000	20.8	3	1
03/09/06	8:08 a	-14.1	-14.1	-14.1	---	---	0.0	E	0.00	0.9	-14.1	---	---	736.2	0.022	0.000	20.8	3	1
03/09/06	8:09 a	-14.2	-14.1	-14.3	---	---	0.0	E	0.00	0.9	-14.2	---	---	736.2	0.023	0.000	20.8	2	1
03/09/06	8:10 a	-14.4	-14.3	-14.4	---	---	0.0	---	0.00	0.0	-14.4	---	---	736.2	0.023	0.000	20.8	2	1
03/09/06	8:11 a	-14.5	-14.4	-14.6	---	---	0.0	---	0.00	0.0	-14.5	---	---	736.2	0.023	0.000	20.8	2	1
03/09/06	8:12 a	-14.7	-14.7	-14.8	---	---	0.0	---	0.00	0.0	-14.7	---	---	736.3	0.023	0.000	20.8	2	1
03/09/06	8:13 a	-14.8	-14.8	-14.9	---	---	0.0	---	0.00	0.0	-14.8	---	---	736.2	0.023	0.000	20.8	2	1
03/09/06	8:14 a	-14.9	-14.9	-15.0	---	---	0.0	---	0.00	0.0	-14.9	---	---	736.2	0.023	0.000	20.8	2	1
03/09/06	8:15 a	-15.1	-15.1	-15.1	---	---	0.0	---	0.00	0.0	-15.1	---	---	736.1	0.023	0.000	20.8	2	1
03/09/06	8:16 a	-15.2	-15.2	-15.2	---	---	0.0	---	0.00	0.0	-15.2	---	---	736.2	0.023	0.000	20.8	2	1
03/09/06	8:17 a	-15.3	-15.3	-15.4	---	---	0.0	---	0.00	0.0	-15.3	---	---	736.2	0.023	0.000	20.8	2	1
03/09/06	8:18 a	-15.4	-15.4	-15.5	---	---	0.0	---	0.00	0.0	-15.4	---	---	736.1	0.023	0.000	20.8	3	1
03/09/06	8:19 a	-15.6	-15.6	-15.7	---	---	0.0	---	0.00	0.0	-15.6	---	---	736.2	0.024	0.000	20.8	2	1
03/09/06	8:20 a	-15.8	-15.8	-15.9	---	---	0.0	---	0.00	0.0	-15.8	---	---	736.3	0.024	0.000	20.8	3	1
03/09/06	8:21 a	-16.1	-15.9	-16.1	---	---	0.0	E	0.00	0.9	-16.1	---	---	736.2	0.024	0.000	20.7	3	1
03/09/06	8:22 a	-16.2	-16.2	-16.2	---	---	0.0	---	0.00	0.0	-16.2	---	---	736.2	0.024	0.000	20.7	2	1
03/09/06	8:23 a	-16.3	-16.3	-16.3	---	---	0.0	---	0.00	0.0	-16.3	---	---	736.3	0.024	0.000	20.7	3	1
03/09/06	8:24 a	-16.3	-16.3	-16.3	---	---	0.0	---	0.00	0.0	-16.3	---	---	736.3	0.024	0.000	20.7	2	1
03/09/06	8:25 a	-16.4	-16.3	-16.4	---	---	0.0	---	0.00	0.0	-16.4	---	---	736.2	0.024	0.000	20.7	2	1
03/09/06	8:26 a	-16.4	-16.4	-16.5	---	---	0.0	---	0.00	0.0	-16.4	---	---	736.3	0.024	0.000	20.7	2	1
03/09/06	8:27 a	-16.5	-16.5	-16.6	---	---	0.0	---	0.00	0.0	-16.5	---	---	736.3	0.024	0.000	20.7	3	1
03/09/06	8:28 a	-16.6	-16.6	-16.6	---	---	0.0	---	0.00	0.0	-16.6	---	---	736.2	0.024	0.000	20.7	2	1
03/09/06	8:29 a	-16.6	-16.6	-16.6	---	---	0.0	---	0.00	0.0	-16.6	---	---	736.3	0.024	0.000	20.7	2	1
03/09/06	8:30 a	-16.7	-16.6	-16.7	---	---	0.0	---	0.00	0.0	-16.7	---	---	736.3	0.024	0.000	20.7	3	1
03/09/06	8:31 a	-16.7	-16.7	-16.7	---	---	0.0	---	0.00	0.0	-16.7	---	---	736.2	0.024	0.000	20.7	3	1
03/09/06	8:32 a	-16.7	-16.7	-16.7	---	---	0.0	---	0.00	0.0	-16.7	---	---	736.3	0.024	0.000	20.7	2	1
03/09/06	8:33 a	-16.7	-16.7	-16.7	---	---	0.0	---	0.00	0.0	-16.7	---	---	736.3	0.024	0.000	20.7	3	1
03/09/06	8:34 a	-16.7	-16.7	-16.7	---	---	0.0	---	0.00	0.0	-16.7	---	---	736.3	0.024	0.000	20.7	2	1
03/09/06	8:35 a	-16.8	-16.7	-16.8	---	---	0.0	---	0.00	0.0	-16.8	---	---	736.2	0.024	0.000	20.7	3	1
03/09/06	8:36 a	-16.8	-16.8	-16.9	---	---	0.0	---	0.00	0.0	-16.8	---	---	736.3	0.024	0.000	20.7	3	1
03/09/06	8:37 a	-16.9	-16.9	-16.9	---	---	0.0	---	0.00	0.0	-16.9	---	---	736.3	0.024	0.000	20.7	3	1
03/09/06	8:38 a	-17.0	-16.9	-17.0	---	---	0.9	E	0.01	0.9	-17.0	---	---	736.3	0.025	0.000	20.7	3	1
03/09/06	8:39 a	-17.1	-17.0	-17.1	---	---	0.9	E	0.01	0.9	-17.1	---	---	736.3	0.025	0.000	20.6	3	1
03/09/06	8:40 a	-17.1	-17.1	-17.1	---	---	0.9	E	0.01	1.7	-17.1	---	---	736.3	0.025	0.000	20.7	3	1
03/09/06	8:41 a	-17.1	-17.1	-17.1	---	---	0.9	E	0.01	0.9	-17.1	---	---	736.3	0.025	0.000	20.7	3	1
03/09/06	8:42 a	-17.1	-17.1	-17.1	---	---	0.9	E	0.01	1.7	-17.1	---	---	736.3	0.025	0.000	20.7	3	1
03/09/06	8:43 a	-17.2	-17.2	-17.2	---	---	0.0	E	0.00	0.9	-17.2	---	---	736.2	0.025	0.000	20.7	3	1
03/09/06	8:44 a	-17.2	-17.2	-17.2	---	---	0.0	---	0.00	0.0	-17.2	---	---	736.3	0.025	0.000	20.7	3	1
03/09/06	8:45 a	-17.2	-17.2	-17.2	---	---	0.0	---	0.00	0.0	-17.2	---	---	736.2	0.025	0.000	20.7	2	1
03/09/06	8:46 a	-17.2	-17.2	-17.2	---	---	0.0	E	0.00	0.9	-17.2	---	---	736.3	0.025	0.000	20.7	3	1
03/09/06	8:47 a	-17.2	-17.2	-17.2	---	---	0.0	E	0.00	0.9	-17.2	---	---	736.2	0.025	0.000	20.7	3	1
03/09/06	8:48 a	-17.2	-17.2	-17.2	---	---	0.0	E	0.00	0.9	-17.2	---	---	736.3	0.025	0.000	20.7	3	1
03/09/06	8:49 a	-17.2	-17.2	-17.2	---	---	0.0	---	0.00	0.0	-17.2	---	---	736.4	0.025	0.000	20.7	3	1
03/09/06	8:50 a	-17.2	-17.2	-17.2	---	---	0.0	---	0.00	0.0	-17.2	---	---	736.3	0.025	0.000	20.7	3	1
03/09/06	8:51 a	-17.2	-17.2	-17.2	---	---	0.0	---	0.00	0.0	-17.2	---	---	736.4	0.025	0.000	20.7	3	1
03/09/06	8:52 a	-17.2	-17.2	-17.2	---	---	0.0	---	0.00	0.0	-17.2	---	---	736.4	0.025	0.000	20.7	3	1
03/09/06	8:53 a	-17.2	-17.1	-17.2	---	---	0.0	---	0.00	0.0	-17.2	---	---	736.3	0.025	0.000	20.7	3	1
03/09/06	8:54 a	-17.2	-17.1	-17.2	---	---	0.0	---	0.00	0.0	-17.2	---	---	736.4	0.025	0.000	20.7	3	1
03/09/06	8:55 a	-17.2	-17.2	-17.2	---	---	0.0	---	0.00	0.0	-17.2	---	---	736.3	0.025	0.000	20.7	3	1
03/09/06	8:56 a	-17.2	-17.2	-17.2	---	---	0.0	---	0.00	0.0	-17.2	---	---	736.3	0.025	0.000	20.7	3	1
03/09/06	8:57 a	-17.2	-17.2	-17.2	---	---	0.0	---	0.00	0.0	-17.2	---	---	736.3	0.025	0.000	20.7	3	1
03/09/06	8:58 a	-17.2	-17.2	-17.2	---	---	0.0	---	0.00	0.0	-17.2	---	---	736.2	0.025	0.000	20.7	3	1
03/09/06	8:59 a	-17.2	-17.2	-17.2	---	---	0.9	E	0.01	0.9	-17.2	---	---	736.3	0.025	0.000	20.7	3	1
03/09/06	9:00 a	-17.2	-17.2	-17.2	---	---	0.9	E	0.01	0.9	-17.2	---	---	736.2	0.025	0.000	20.7	3	1
03/09/06	9:01 a	-17.2	-17.2	-17.2	---	---	0.0	E	0.00	0.9	-17.2	---	---	736.3	0.025	0.000	20.7	2	1
03/09/06	9:02 a	-17.2	-17.2	-17.2	---	---	0.0	---	0.00	0.9	-17.2	---	---	736.2	0.025	0.000	20.7	3	1
03/09/06	9:03 a	-17.3	-17.2	-17.3	---	---	0.0	---	0.00	0.0	-17.3	---	---	736.3	0.025	0.000	20.6	3	1
03/09/06	9:04 a	-17.3	-17.3	-17.3	---	---	0.0	---	0.00	0.0	-17.3	---	---	736.3	0.025	0.000	20.6	3	1
03/09/06	9:05 a	-17.3	-17.3	-17.3	---	---	0.0	---	0.00	0.0	-17.3	---	---	736.2	0.025	0.000	20.6	3	1
03/09/06	9:06 a	-17.3	-17.3	-17.4	---	---	0.0	---	0.00	0.0	-17.3	---	---	736.3	0.025	0.000	20.6	3	1
03/09/06	9:07 a	-17.4	-17.3	-17.4	---	---	0.0	---	0.00	0.0	-17.4	---	---	736.4	0.025	0.000	20.6	3	1
03/09/06	9:08 a	-17.4	-17.4	-17.4	---	---	0.0	---	0.00	0.0	-17.4	---	---	736.3	0.025	0.000	20.6	3	1
03/09/06	9:09 a	-17.4	-17.4	-17.4	---	---	0.0	---	0.00	0.0	-17.4	---	---	736.3	0.025	0.000	20.6	3	1
03/09/06	9:10 a	-17.4	-17.4	-17.4	---	---	0.0	---	0.00	0.0	-17.4	---	---	736.3	0.025	0.000	20.6	3	1
03/09/06	9:11 a	-17.4	-17.4	-17.5	---	---	0.0	---	0.00	0.0	-17.4	---	---	736.2	0.025	0.000	20.6	3	1
03/09/06	9:12 a	-17.5	-17.5	-17.5	---	---	0.0	---	0.00	0.0	-17.5	---	---	736.3	0.025	0.000	20.6	3	1
03/09/06	9:13 a	-17.6	-17.5	-17.6	---	---	0.0	---	0.00	0.0	-17.6	---	---	736.3	0.025	0.000	20.6	2	1
03/09/06	9:14 a	-17.6	-17.6	-17.6	---	---	0.0	---	0.00	0.0	-17.6	---	---	736.3	0.025	0.000	20.6	3	1
03/09/06	9:15 a	-17.6	-17.6	-17.7	---	---	0.0	E	0.00	0.9	-17.6	---	---	736.3	0.025	0.000	20.6	3	1
03/09/06	9:16 a	-17.7	-17.6	-17.7	---	---	0.9	E	0.01	0.9	-17.7	---	---	736.3	0.025	0.000	20.6	3	1
03/09/06	9:17 a	-17.7	-17.7	-17.7	---	---	0.9	E	0.01	0.9	-17.7	---	---	736.2	0.025	0.000	20.6	3	1
03/09/06	9:18 a	-17.8	-17.8	-17.8	---	---	0.9	E	0.01	1.7	-17.8	---	---	736.4	0.025	0.000	20.6	3	1
03/09/06	9:19 a	-17.9	-17.8	-17.9	---	---	0.9	E	0.01	0.9	-17.8	---	---	736.3	0.025	0.000	20.6	3	1
03/09/06	9:20 a	-17.9	-17.9	-17.9	---	---	0.9	E	0.01	0.9	-17.9	---	---	736.3	0.025	0.000	20.6	3	1
03/09/06	9:21 a	-17.9	-17.9	-18.0	---	---	0.9	E	0.01	0.9	-17.9	---	---	736.4	0.025	0.000	20.6	3	1
03/09/06	9:22 a	-18.0	-18.0	-18.1	---	---	0.9	E	0.01	0.9	-17.9	---	---	736.3	0.025	0.000	20.6	3	1
03/09/06	9:23 a	-18.1	-18.1	-18.1	---	---	0.9	E	0.01	0.9	-18.0	---	---	736.2	0.025	0.000	20.6	3	1
03/09/06	9:24 a	-18.1	-18.1	-18.1	---	---	0.0	E	0.00	0.9	-18.0	---	---	736.3	0.025	0.000	20.6	3	1
03/09/06	9:25 a	-18.1	-18.1	-18.1	---	---	0.9	E	0.01	0.9	-18.1	---	---	736.4	0.025	0.000	20.6	3	1
03/09/06	9:26 a	-18.1	-18.1	-18.1	---	---	0.9	E	0.01	0.9	-18.1	---	---	736.3	0.025	0.000	20.6	3	1
03/09/06	9:27 a	-18.1	-18.1	-18.2	---	---	0.9	E	0.01	0.9	-18.1	---	---	736.3	0.025	0.000	20.6	2	1
03/09/06	9:28 a	-18.2	-18.2	-18.2	---	---	0.0	E	0.00	0.9	-18.1	---	---	736.2	0.025	0.000	20.6	3	1
03/09/06	9:29 a	-18.2	-18.2	-18.2	---	---	0.0	E	0.00	0.9	-18.1	---	---	736.3	0.025	0.000	20.6	3	1
03/09/06	9:30 a	-18.2	-18.2	-18.2	---	---	0.0	E	0.00	0.9	-18.1	---	---	736.4	0.025	0.000	20.6	3	1
03/09/06	9:31 a	-18.2	-18.2	-18.2	---	---	0.0	---	0.00	0.0	-18.1	---	---	736.3	0.025	0.000	20.6	3	1
03/09/06	9:32 a	-18.2	-18.2	-18.2	---	---	0.9	E	0.01	0.9	-18.1	---	---	736.3	0.025	0.000	20.6	3	1
03/09/06	9:33 a	-18.2	-18.2	-18.2	---	---	0.9	E	0.01	0.9	-18.1	---	---	736.3	0.025	0.000	20.6	3	1
03/09/06	9:34 a	-18.2	-18.2	-18.2	---	---	0.9	E	0.01	0.9	-18.1	---	---	736.2	0.025	0.000	20.6	3	1
03/09/06	9:35 a	-18.2	-18.2	-18.2	---	---	0.9	E	0.01	0.9	-18.1	---	---	736.2	0.025	0.000	20.6	3	1
03/09/06	9:36 a	-18.2	-18.2	-18.2	---	---	0.9	E	0.01	1.7	-18.1	---	---	736.3	0.025	0.000	20.6	3	1
03/09/06	9:37 a	-18.2	-18.2	-18.2	---	---	0.9	E	0.01	1.7	-18.1	---	---	736.2	0.025	0.000	20.6	3	1
03/09/06	9:38 a	-18.2	-18.2	-18.2	---	---	0.9	E	0.01	1.7	-18.1	---	---	736.2	0.025	0.000	20.6	3	1
03/09/06	9:39 a	-18.2	-18.1	-18.2	---	---	0.9	E	0.01	1.7	-18.1	---	---	736.3	0.025	0.000	20.6	3	1
03/09/06	9:40 a	-18.2	-18.2	-18.2	---	---	0.9	E	0.01	1.7	-18.1	---	---	736.3	0.025	0.000	20.6	3	1
03/09/06	9:41 a	-18.2	-18.2	-18.2	---	---	0.9	E	0.01	1.7	-18.1	---	---	736.2	0.025	0.000	20.6	3	1
03/09/06	9:42 a	-18.1	-18.1	-18.2	---	---	0.9	E	0.01	1.7	-18.1	---	---	736.2	0.025	0.000	20.6	3	1
03/09/06	9:43 a	-18.1	-18.1	-18.2	---	---	0.9	E	0.01	0.9	-18.1	---	---	736.2	0.025	0.000	20.6	3	1
03/09/06	9:44 a	-18.1	-18.1	-18.2	---	---	0.9	E	0.01	1.7	-18.1	---	---	736.2	0.025	0.000	20.6	3	1
03/09/06	9:45 a	-17.9	-17.7	-18.0	---	---	0.9	E	0.01	1.7	-17.8	---	---	736.1	0.025	0.000	20.6	3	1
03/09/06	9:46 a	-17.7	-17.6	-17.7	---	---	1.7	E	0.03	2.6	-19.9	---	---	736.1	0.025	0.000	20.6	3	1
03/09/06	9:47 a	-17.5	-17.5	-17.6	---	---	2.6	E	0.04	2.6	-21.2	---	---	736.1	0.025	0.000	20.6	3	1
03/09/06	9:48 a	-17.4	-17.4	-17.4	---	---	2.6	E	0.04	3.5	-21.2	---	---	736.2	0.025	0.000	20.6	3	1
03/09/06	9:49 a	-17.3	-17.3	-17.4	---	---	3.5	ENE	0.06	3.5	-22.2	---	---	736.2	0.025	0.000	20.6	3	1
03/09/06	9:50 a	-17.3	-17.3	-17.3	---	---	3.5	ENE	0.06	3.5	-22.2	---	---	736.2	0.025	0.000	20.6	3	1
03/09/06	9:51 a	-17.3	-17.3	-17.3	---	---	2.6	ENE	0.04	3.5	-21.1	---	---	736.1	0.025	0.000	20.6	2	1
03/09/06	9:52 a	-17.3	-17.3	-17.3	---	---	2.6	ENE	0.04	3.5	-21.1	---	---	736.1	0.025	0.000	20.6	3	1
03/09/06	9:53 a	-17.3	-17.3	-17.3	---	---	2.6	ENE	0.04	3.5	-21.0	---	---	736.2	0.025	0.000	20.6	3	1
03/09/06	9:54 a	-17.3	-17.3	-17.3	---	---	2.6	ENE	0.04	3.5	-21.1	---	---	736.2	0.025	0.000	20.6	3	1
03/09/06	9:55 a	-17.3	-17.3	-17.3	---	---	2.6	ENE	0.04	3.5	-21.0	---	---	736.2	0.025	0.000	20.6	3	1
03/09/06	9:56 a	-17.3	-17.3	-17.4	---	---	3.5	ENE	0.06	4.3	-22.2	---	---	736.2	0.025	0.000	20.6	3	1
03/09/06	9:57 a	-17.3	-17.3	-17.4	---	---	3.5	ENE	0.06	4.3	-22.2	---	---	736.2	0.025	0.000	20.6	3	1
03/09/06	9:58 a	-17.4	-17.3	-17.4	---	---	4.3	NNE	0.07	4.3	-23.1	---	---	736.2	0.025	0.000	20.6	3	1
03/09/06	9:59 a	-17.4	-17.4	-17.4	---	---	4.3	NNE	0.07	4.3	-23.1	---	---	736.2	0.025	0.000	20.6	3	1
03/09/06	10:00 a	-17.4	-17.4	-17.4	---	---	4.3	NNE	0.07	4.3	-23.2	---	---	736.2	0.025	0.000	20.6	2	1
03/09/06	10:01 a	-17.5	-17.4	-17.5	---	---	4.3	N	0.07	4.3	-23.2	---	---	736.2	0.025	0.000	20.6	2	1
03/09/06	10:02 a	-17.5	-17.5	-17.5	---	---	4.3	N	0.07	4.3	-23.2	---	---	736.2	0.025	0.000	20.6	2	1
03/09/06	10:03 a	-17.6	-17.5	-17.6	---	---	3.5	N	0.06	4.3	-22.4	---	---	736.2	0.025	0.000	20.6	2	1
03/09/06	10:04 a	-17.6	-17.6	-17.7	---	---	3.5	N	0.06	4.3	-22.4	---	---	736.2	0.025	0.000	20.5	3	1
03/09/06	10:05 a	-17.6	-17.6	-17.6	---	---	4.3	N	0.07	4.3	-23.4	---	---	736.3	0.025	0.000	20.5	2	1
03/09/06	10:06 a	-17.6	-17.6	-17.7	---	---	4.3	N	0.07	5.2	-23.4	---	---	736.2	0.025	0.000	20.5	2	1
03/09/06	10:07 a	-17.7	-17.7	-17.7	---	---	4.3	N	0.07	5.2	-23.4	---	---	736.2	0.025	0.000	20.5	2	1
03/09/06	10:08 a	-17.7	-17.7	-17.7	---	---	4.3	N	0.07	5.2	-23.4	---	---	736.1	0.025	0.000	20.5	3	1
03/09/06	10:09 a	-17.7	-17.7	-17.7	---	---	4.3	N	0.07	4.3	-23.5	---	---	736.2	0.025	0.000	20.5	2	1
03/09/06	10:10 a	-17.7	-17.7	-17.7	---	---	4.3	N	0.07	4.3	-23.5	---	---	736.2	0.025	0.000	20.5	3	1
03/09/06	10:11 a	-17.7	-17.7	-17.7	---	---	3.5	N	0.06	4.3	-22.6	---	---	736.3	0.025	0.000	20.5	3	1
03/09/06	10:12 a	-17.7	-17.7	-17.7	---	---	3.5	N	0.06	4.3	-22.6	---	---	736.3	0.025	0.000	20.5	2	1
03/09/06	10:13 a	-17.7	-17.7	-17.7	---	---	3.5	N	0.06	4.3	-22.6	---	---	736.2	0.025	0.000	20.5	2	1
03/09/06	10:14 a	-17.7	-17.7	-17.7	---	---	3.5	N	0.06	4.3	-22.6	---	---	736.3	0.025	0.000	20.5	2	1
03/09/06	10:15 a	-17.7	-17.6	-17.7	---	---	3.5	N	0.06	4.3	-22.6	---	---	736.2	0.025	0.000	20.5	3	1
03/09/06	10:16 a	-17.7	-17.6	-17.7	---	---	3.5	N	0.06	4.3	-22.6	---	---	736.3	0.025	0.000	20.5	2	1
03/09/06	10:17 a	-17.6	-17.6	-17.7	---	---	3.5	N	0.06	4.3	-22.4	---	---	736.2	0.025	0.000	20.5	2	1
03/09/06	10:18 a	-17.6	-17.6	-17.7	---	---	3.5	N	0.06	3.5	-22.4	---	---	736.3	0.025	0.000	20.5	2	1
03/09/06	10:19 a	-17.7	-17.7	-17.7	---	---	3.5	N	0.06	4.3	-22.6	---	---	736.2	0.025	0.000	20.5	2	1
03/09/06	10:20 a	-17.7	-17.7	-17.7	---	---	3.5	N	0.06	4.3	-22.6	---	---	736.3	0.025	0.000	20.5	3	1
03/09/06	10:21 a	-17.7	-17.7	-17.7	---	---	4.3	N	0.07	4.3	-23.5	---	---	736.2	0.025	0.000	20.4	3	1
03/09/06	10:22 a	-17.7	-17.7	-17.7	---	---	3.5	N	0.06	4.3	-22.6	---	---	736.4	0.025	0.000	20.4	2	1
03/09/06	10:23 a	-17.7	-17.7	-17.7	---	---	3.5	N	0.06	4.3	-22.6	---	---	736.4	0.025	0.000	20.4	2	1
03/09/06	10:24 a	-17.7	-17.7	-17.7	---	---	3.5	N	0.06	3.5	-22.6	---	---	736.3	0.025	0.000	20.4	2	1
03/09/06	10:25 a	-17.7	-17.7	-17.7	---	---	3.5	N	0.06	3.5	-22.6	---	---	736.3	0.025	0.000	20.4	3	1
03/09/06	10:26 a	-17.7	-17.7	-17.7	---	---	2.6	N	0.04	3.5	-21.5	---	---	736.4	0.025	0.000	20.4	2	1
03/09/06	10:27 a	-17.7	-17.7	-17.7	---	---	2.6	N	0.04	3.5	-21.5	---	---	736.5	0.025	0.000	20.5	2	1
03/09/06	10:28 a	-17.7	-17.7	-17.7	---	---	1.7	N	0.03	2.6	-20.0	---	---	736.3	0.025	0.000	20.4	3	1
03/09/06	10:29 a	-17.8	-17.7	-17.8	---	---	1.7	N	0.03	2.6	-20.1	---	---	736.5	0.025	0.000	20.4	2	1
03/09/06	10:30 a	-17.8	-17.7	-17.8	---	---	1.7	N	0.03	1.7	-20.1	---	---	736.4	0.025	0.000	20.5	2	1
03/09/06	10:31 a	-17.8	-17.8	-17.8	---	---	0.9	N	0.01	1.7	-17.8	---	---	736.6	0.025	0.000	20.4	2	1
03/09/06	10:32 a	-17.8	-17.8	-17.8	---	---	0.9	N	0.01	1.7	-17.8	---	---	736.6	0.025	0.000	20.4	3	1
03/09/06	10:33 a	-17.8	-17.8	-17.9	---	---	0.9	N	0.01	1.7	-17.8	---	---	736.6	0.025	0.000	20.5	2	1
03/09/06	10:34 a	-17.8	-17.8	-17.9	---	---	0.9	N	0.01	1.7	-17.8	---	---	736.5	0.025	0.000	20.5	3	1
03/09/06	10:35 a	-17.9	-17.9	-17.9	---	---	1.7	N	0.03	2.6	-20.2	---	---	736.6	0.025	0.000	20.5	3	1
03/09/06	10:36 a	-17.9	-17.8	-17.9	---	---	2.6	N	0.04	2.6	-21.7	---	---	736.7	0.025	0.000	20.5	3	1
03/09/06	10:37 a	-17.8	-17.8	-17.9	---	---	2.6	N	0.04	2.6	-21.6	---	---	736.6	0.025	0.000	20.5	2	1
03/09/06	10:38 a	-17.9	-17.8	-17.9	---	---	1.7	N	0.03	2.6	-20.2	---	---	736.8	0.025	0.000	20.5	2	1
03/09/06	10:39 a	-17.9	-17.8	-17.9	---	---	1.7	N	0.03	2.6	-20.2	---	---	736.7	0.025	0.000	20.5	2	1
03/09/06	10:40 a	-17.9	-17.9	-17.9	---	---	1.7	N	0.03	2.6	-20.2	---	---	736.7	0.025	0.000	20.5	2	1
03/09/06	10:41 a	-17.9	-17.8	-17.9	---	---	1.7	N	0.03	2.6	-20.2	---	---	736.7	0.025	0.000	20.5	2	1
03/09/06	10:42 a	-17.9	-17.8	-17.9	---	---	1.7	N	0.03	1.7	-20.2	---	---	736.6	0.025	0.000	20.5	3	1
03/09/06	10:43 a	-17.9	-17.9	-17.9	---	---	1.7	N	0.03	2.6	-20.2	---	---	736.7	0.025	0.000	20.5	2	1
03/09/06	10:44 a	-17.9	-17.9	-17.9	---	---	1.7	N	0.03	2.6	-20.2	---	---	736.8	0.025	0.000	20.5	2	1
03/09/06	10:45 a	-17.9	-17.9	-17.9	---	---	1.7	N	0.03	2.6	-20.2	---	---	736.8	0.025	0.000	20.5	3	1
03/09/06	10:46 a	-17.9	-17.9	-17.9	---	---	1.7	N	0.03	2.6	-20.2	---	---	736.7	0.025	0.000	20.5	3	1
03/09/06	10:47 a	-17.9	-17.9	-17.9	---	---	1.7	N	0.03	2.6	-20.2	---	---	736.7	0.025	0.000	20.5	3	1
03/09/06	10:48 a	-17.9	-17.9	-17.9	---	---	1.7	N	0.03	2.6	-20.2	---	---	736.7	0.025	0.000	20.5	3	1
03/09/06	10:49 a	-17.9	-17.9	-18.0	---	---	1.7	N	0.03	1.7	-20.2	---	---	736.7	0.025	0.000	20.5	2	1
03/09/06	10:50 a	-18.0	-18.0	-18.1	---	---	0.9	N	0.01	1.7	-17.9	---	---	736.8	0.025	0.000	20.5	2	1
03/09/06	10:51 a	-18.1	-18.1	-18.1	---	---	0.9	N	0.01	1.7	-18.0	---	---	736.8	0.025	0.000	20.5	3	1
03/09/06	10:52 a	-18.1	-18.1	-18.1	---	---	0.9	N	0.01	2.6	-18.0	---	---	736.7	0.025	0.000	20.5	2	1
03/09/06	10:53 a	-18.1	-18.1	-18.1	---	---	0.9	N	0.01	1.7	-18.0	---	---	736.8	0.025	0.000	20.5	3	1
03/09/06	10:54 a	-18.1	-18.0	-18.1	---	---	0.9	N	0.01	1.7	-18.0	---	---	736.8	0.025	0.000	20.5	3	1
03/09/06	10:55 a	-18.1	-18.0	-18.1	---	---	1.7	N	0.03	1.7	-20.4	---	---	736.7	0.025	0.000	20.5	2	1
03/09/06	10:56 a	-18.1	-18.1	-18.1	---	---	0.9	N	0.01	1.7	-18.0	---	---	736.7	0.025	0.000	20.5	3	1
03/09/06	10:57 a	-18.1	-18.1	-18.1	---	---	0.9	N	0.01	1.7	-18.0	---	---	736.8	0.025	0.000	20.5	3	1
03/09/06	10:58 a	-18.1	-18.1	-18.1	---	---	1.7	N	0.03	2.6	-20.4	---	---	736.8	0.025	0.000	20.5	3	1
03/09/06	10:59 a	-18.1	-18.1	-18.2	---	---	1.7	N	0.03	2.6	-20.4	---	---	736.8	0.025	0.000	20.5	3	1
03/09/06	11:00 a	-18.2	-18.2	-18.2	---	---	2.6	N	0.04	2.6	-22.0	---	---	736.7	0.025	0.000	20.5	2	1
03/09/06	11:01 a	-18.2	-18.2	-18.3	---	---	2.6	N	0.04	2.6	-22.1	---	---	736.7	0.025	0.000	20.5	2	1
03/09/06	11:02 a	-18.3	-18.3	-18.3	---	---	1.7	N	0.03	2.6	-20.6	---	---	736.7	0.025	0.000	20.5	2	1
03/09/06	11:03 a	-18.3	-18.3	-18.4	---	---	0.9	N	0.01	1.7	-18.3	---	---	736.8	0.025	0.000	20.4	2	1
03/09/06	11:04 a	-18.4	-18.4	-18.4	---	---	0.9	N	0.01	1.7	-18.4	---	---	736.9	0.026	0.000	20.4	3	1
03/09/06	11:05 a	-18.4	-18.4	-18.4	---	---	1.7	N	0.03	1.7	-20.8	---	---	736.7	0.026	0.000	20.4	2	1
03/09/06	11:06 a	-18.4	-18.4	-18.4	---	---	1.7	N	0.03	2.6	-20.8	---	---	736.8	0.026	0.000	20.4	3	1
03/09/06	11:07 a	-18.4	-18.3	-18.4	---	---	1.7	N	0.03	2.6	-20.7	---	---	736.7	0.026	0.000	20.4	2	1
03/09/06	11:08 a	-18.3	-18.3	-18.3	---	---	2.6	N	0.04	2.6	-22.2	---	---	736.7	0.025	0.000	20.4	3	1
03/09/06	11:09 a	-18.3	-18.2	-18.3	---	---	1.7	N	0.03	2.6	-20.6	---	---	736.7	0.025	0.000	20.4	2	1
03/09/06	11:10 a	-18.2	-18.2	-18.2	---	---	1.7	N	0.03	2.6	-20.5	---	---	736.7	0.025	0.000	20.4	3	1
03/09/06	11:11 a	-18.1	-18.1	-18.2	---	---	1.7	N	0.03	1.7	-20.4	---	---	736.7	0.025	0.000	20.4	2	1
03/09/06	11:12 a	-18.1	-18.1	-18.1	---	---	1.7	N	0.03	1.7	-20.4	---	---	736.7	0.025	0.000	20.4	2	1
03/09/06	11:13 a	-18.1	-18.1	-18.1	---	---	1.7	N	0.03	1.7	-20.4	---	---	736.8	0.025	0.000	20.4	2	1
03/09/06	11:14 a	-18.1	-18.1	-18.1	---	---	1.7	N	0.03	1.7	-20.4	---	---	736.7	0.025	0.000	20.4	3	1
03/09/06	11:15 a	-18.0	-18.0	-18.1	---	---	0.9	N	0.01	1.7	-17.9	---	---	736.7	0.025	0.000	20.4	2	1
03/09/06	11:16 a	-18.0	-18.0	-18.0	---	---	0.9	N	0.01	1.7	-17.9	---	---	736.7	0.025	0.000	20.4	2	1
03/09/06	11:17 a	-17.9	-17.9	-18.0	---	---	0.9	N	0.01	1.7	-17.9	---	---	736.8	0.025	0.000	20.4	2	1
03/09/06	11:18 a	-18.0	-17.9	-18.0	---	---	0.9	N	0.01	0.9	-17.9	---	---	736.8	0.025	0.000	20.4	2	1
03/09/06	11:19 a	-18.0	-17.9	-18.0	---	---	1.7	N	0.03	1.7	-20.3	---	---	736.8	0.025	0.000	20.5	2	1
03/09/06	11:20 a	-18.0	-18.0	-18.1	---	---	1.7	N	0.03	1.7	-20.3	---	---	736.8	0.025	0.000	20.5	2	1
03/09/06	11:21 a	-18.1	-18.1	-18.1	---	---	1.7	N	0.03	2.6	-20.4	---	---	736.7	0.025	0.000	20.5	3	1
03/09/06	11:22 a	-18.2	-18.1	-18.2	---	---	2.6	N	0.04	2.6	-22.0	---	---	736.8	0.025	0.000	20.5	3	1
03/09/06	11:23 a	-18.2	-18.2	-18.2	---	---	1.7	N	0.03	2.6	-20.5	---	---	736.8	0.025	0.000	20.5	3	1
03/09/06	11:24 a	-18.2	-18.2	-18.2	---	---	1.7	N	0.03	2.6	-20.6	---	---	736.8	0.025	0.000	20.5	2	1
03/09/06	11:25 a	-18.2	-18.2	-18.2	---	---	1.7	N	0.03	1.7	-20.6	---	---	736.8	0.025	0.000	20.5	2	1
03/09/06	11:26 a	-18.2	-18.1	-18.2	---	---	1.7	N	0.03	1.7	-20.5	---	---	736.8	0.025	0.000	20.5	2	1
03/09/06	11:27 a	-18.1	-18.1	-18.1	---	---	1.7	N	0.03	1.7	-20.4	---	---	736.8	0.025	0.000	20.5	3	1
03/09/06	11:28 a	-18.1	-18.0	-18.1	---	---	0.9	N	0.01	1.7	-18.0	---	---	736.9	0.025	0.000	20.5	3	1
03/09/06	11:29 a	-18.0	-18.0	-18.0	---	---	0.9	N	0.01	1.7	-17.9	---	---	736.7	0.025	0.000	20.5	3	1
03/09/06	11:30 a	-18.0	-18.0	-18.0	---	---	0.9	N	0.01	1.7	-17.9	---	---	736.7	0.025	0.000	20.5	3	1
03/09/06	11:31 a	-18.1	-18.1	-18.1	---	---	0.9	N	0.01	1.7	-18.0	---	---	736.7	0.025	0.000	20.5	3	1
03/09/06	11:32 a	-18.1	-18.0	-18.1	---	---	0.0	N	0.00	0.9	-18.0	---	---	736.8	0.025	0.000	20.5	2	1
03/09/06	11:33 a	-18.1	-18.1	-18.1	---	---	0.0	---	0.00	0.9	-18.0	---	---	736.8	0.025	0.000	20.4	3	1
03/09/06	11:34 a	-18.1	-18.1	-18.1	---	---	0.0	N	0.00	0.9	-18.0	---	---	736.7	0.025	0.000	20.4	2	1
03/09/06	11:35 a	-18.0	-18.0	-18.1	---	---	0.0	---	0.00	0.0	-17.9	---	---	736.8	0.025	0.000	20.4	2	1
03/09/06	11:36 a	-18.0	-18.0	-18.1	---	---	0.0	---	0.00	0.0	-17.9	---	---	736.7	0.025	0.000	20.4	3	1
03/09/06	11:37 a	-18.0	-18.0	-18.0	---	---	0.0	---	0.00	0.0	-17.9	---	---	736.8	0.025	0.000	20.4	3	1
03/09/06	11:38 a	-18.0	-17.9	-18.0	---	---	0.0	---	0.00	0.0	-17.9	---	---	736.8	0.025	0.000	20.4	2	1
03/09/06	11:39 a	-17.9	-17.9	-17.9	---	---	0.0	---	0.00	0.0	-17.9	---	---	736.8	0.025	0.000	20.4	3	1
03/09/06	11:40 a	-17.9	-17.9	-17.9	---	---	0.0	---	0.00	0.0	-17.9	---	---	736.7	0.025	0.000	20.4	3	1
03/09/06	11:41 a	-17.9	-17.9	-17.9	---	---	0.0	---	0.00	0.0	-17.9	---	---	736.8	0.025	0.000	20.4	2	1
03/09/06	11:42 a	-17.9	-17.9	-17.9	---	---	0.0	---	0.00	0.0	-17.9	---	---	736.9	0.025	0.000	20.4	2	1
03/09/06	11:43 a	-17.9	-17.9	-17.9	---	---	0.0	---	0.00	0.0	-17.9	---	---	736.8	0.025	0.000	20.4	2	1
03/09/06	11:44 a	-17.9	-17.9	-17.9	---	---	0.0	---	0.00	0.0	-17.9	---	---	736.8	0.025	0.000	20.4	2	1
03/09/06	11:45 a	-17.9	-17.9	-18.0	---	---	0.0	N	0.00	0.9	-17.9	---	---	736.9	0.025	0.000	20.4	3	1
03/09/06	11:46 a	-17.9	-17.9	-17.9	---	---	0.0	N	0.00	1.7	-17.9	---	---	736.9	0.025	0.000	20.4	3	1
03/09/06	11:47 a	-17.9	-17.9	-17.9	---	---	0.9	N	0.01	0.9	-17.9	---	---	736.9	0.025	0.000	20.4	2	1
03/09/06	11:48 a	-17.9	-17.9	-17.9	---	---	0.9	N	0.01	1.7	-17.9	---	---	736.9	0.025	0.000	20.4	2	1
03/09/06	11:49 a	-17.9	-17.9	-17.9	---	---	1.7	N	0.03	1.7	-20.2	---	---	736.8	0.025	0.000	20.4	3	1
03/09/06	11:50 a	-17.9	-17.9	-17.9	---	---	1.7	N	0.03	2.6	-20.2	---	---	736.8	0.025	0.000	20.4	2	1
03/09/06	11:51 a	-17.9	-17.9	-17.9	---	---	1.7	N	0.03	2.6	-20.2	---	---	736.9	0.025	0.000	20.4	2	1
03/09/06	11:52 a	-17.9	-17.9	-17.9	---	---	1.7	N	0.03	2.6	-20.2	---	---	736.8	0.025	0.000	20.4	2	1
03/09/06	11:53 a	-17.9	-17.9	-17.9	---	---	1.7	N	0.03	2.6	-20.2	---	---	736.8	0.025	0.000	20.4	2	1
03/09/06	11:54 a	-17.9	-17.9	-17.9	---	---	1.7	N	0.03	2.6	-20.2	---	---	736.8	0.025	0.000	20.4	2	1
03/09/06	11:55 a	-17.9	-17.9	-17.9	---	---	1.7	N	0.03	2.6	-20.2	---	---	736.8	0.025	0.000	20.4	3	1
03/09/06	11:56 a	-17.9	-17.9	-17.9	---	---	1.7	N	0.03	2.6	-20.2	---	---	736.8	0.025	0.000	20.4	2	1
03/09/06	11:57 a	-17.9	-17.9	-17.9	---	---	1.7	N	0.03	2.6	-20.2	---	---	736.8	0.025	0.000	20.4	3	1
03/09/06	11:58 a	-17.9	-17.9	-17.9	---	---	1.7	N	0.03	2.6	-20.2	---	---	736.9	0.025	0.000	20.4	2	1
03/09/06	11:59 a	-17.9	-17.9	-17.9	---	---	1.7	N	0.03	2.6	-20.2	---	---	736.8	0.025	0.000	20.4	2	1
03/09/06	12:00 p	-17.9	-17.9	-17.9	---	---	1.7	N	0.03	2.6	-20.2	---	---	736.9	0.025	0.000	20.4	3	1
03/09/06	12:01 p	-17.9	-17.9	-17.9	---	---	2.6	N	0.04	3.5	-21.7	---	---	736.9	0.025	0.000	20.4	3	1
03/09/06	12:02 p	-17.9	-17.9	-17.9	---	---	2.6	N	0.04	3.5	-21.7	---	---	736.9	0.025	0.000	20.4	2	1
03/09/06	12:03 p	-18.0	-17.9	-18.0	---	---	2.6	N	0.04	2.6	-21.8	---	---	736.8	0.025	0.000	20.4	2	1
03/09/06	12:04 p	-18.0	-17.9	-18.0	---	---	2.6	N	0.04	3.5	-21.8	---	---	736.8	0.025	0.000	20.4	2	1
03/09/06	12:05 p	-17.9	-17.9	-18.0	---	---	2.6	N	0.04	4.3	-21.7	---	---	736.8	0.025	0.000	20.4	3	1
03/09/06	12:06 p	-17.9	-17.9	-17.9	---	---	3.5	N	0.06	4.3	-22.8	---	---	736.8	0.025	0.000	20.4	2	1
03/09/06	12:07 p	-17.9	-17.9	-17.9	---	---	4.3	N	0.07	5.2	-23.8	---	---	736.8	0.025	0.000	20.4	2	1
03/09/06	12:08 p	-17.9	-17.9	-17.9	---	---	5.2	NNW	0.09	7.0	-24.5	---	---	736.8	0.025	0.000	20.4	2	1
03/09/06	12:09 p	-18.0	-18.0	-18.0	---	---	6.1	NNW	0.10	7.8	-25.3	---	---	736.7	0.025	0.000	20.4	2	1
03/09/06	12:10 p	-17.9	-17.9	-18.0	---	---	7.0	NNW	0.12	7.8	-25.8	---	---	736.6	0.025	0.000	20.4	2	1
03/09/06	12:11 p	-17.9	-17.9	-18.0	---	---	7.0	NNW	0.12	7.8	-25.8	---	---	736.7	0.025	0.000	20.4	2	1
03/09/06	12:12 p	-17.9	-17.9	-18.0	---	---	7.8	NNW	0.13	8.7	-26.3	---	---	736.7	0.025	0.000	20.4	2	1
03/09/06	12:13 p	-17.9	-17.9	-18.0	---	---	7.8	NNW	0.13	7.8	-26.3	---	---	736.7	0.025	0.000	20.4	2	1
03/09/06	12:14 p	-18.0	-17.9	-18.0	---	---	8.7	NNW	0.14	9.6	-26.8	---	---	736.7	0.025	0.000	20.4	2	1
03/09/06	12:15 p	-18.0	-18.0	-18.0	---	---	8.7	NNW	0.14	9.6	-26.8	---	---	736.6	0.025	0.000	20.4	2	1
03/09/06	12:16 p	-18.0	-18.0	-18.1	---	---	7.8	NNW	0.13	8.7	-26.4	---	---	736.8	0.025	0.000	20.4	2	1
03/09/06	12:17 p	-18.0	-17.9	-18.1	---	---	7.8	NNW	0.13	9.6	-26.4	---	---	736.6	0.025	0.000	20.4	2	1
03/09/06	12:18 p	-17.9	-17.9	-18.0	---	---	7.0	NNW	0.12	7.8	-25.8	---	---	736.6	0.025	0.000	20.4	2	1
03/09/06	12:19 p	-17.9	-17.9	-17.9	---	---	7.8	NNW	0.13	9.6	-26.3	---	---	736.6	0.025	0.000	20.4	2	1
03/09/06	12:20 p	-17.9	-17.9	-17.9	---	---	7.8	NNW	0.13	9.6	-26.2	---	---	736.5	0.025	0.000	20.3	2	1
03/09/06	12:21 p	-17.8	-17.8	-17.9	---	---	8.7	NNW	0.14	10.4	-26.7	---	---	736.5	0.025	0.000	20.3	2	1
03/09/06	12:22 p	-17.8	-17.8	-17.8	---	---	8.7	NNW	0.14	10.4	-26.7	---	---	736.6	0.025	0.000	20.3	2	1
03/09/06	12:23 p	-17.8	-17.8	-17.9	---	---	7.0	NNW	0.12	8.7	-25.6	---	---	736.6	0.025	0.000	20.3	2	1
03/09/06	12:24 p	-17.8	-17.8	-17.8	---	---	7.8	NNW	0.13	10.4	-26.2	---	---	736.6	0.025	0.000	20.3	2	1
03/09/06	12:25 p	-17.7	-17.7	-17.8	---	---	7.8	NNW	0.13	8.7	-26.0	---	---	736.5	0.025	0.000	20.3	2	1
03/09/06	12:26 p	-17.7	-17.7	-17.7	---	---	7.0	NNW	0.12	7.8	-25.4	---	---	736.6	0.025	0.000	20.3	2	1
03/09/06	12:27 p	-17.7	-17.7	-17.7	---	---	7.0	NNW	0.12	8.7	-25.5	---	---	736.6	0.025	0.000	20.3	2	1
03/09/06	12:28 p	-17.7	-17.7	-17.7	---	---	7.8	NNW	0.13	8.7	-25.9	---	---	736.6	0.025	0.000	20.3	2	1
03/09/06	12:29 p	-17.7	-17.7	-17.7	---	---	7.8	NNW	0.13	9.6	-25.9	---	---	736.6	0.025	0.000	20.3	2	1
03/09/06	12:30 p	-17.7	-17.7	-17.8	---	---	7.8	NNW	0.13	8.7	-26.0	---	---	736.6	0.025	0.000	20.3	2	1
03/09/06	12:31 p	-17.8	-17.8	-17.8	---	---	7.8	NNW	0.13	8.7	-26.2	---	---	736.7	0.025	0.000	20.3	2	1
03/09/06	12:32 p	-17.8	-17.8	-17.9	---	---	7.8	NNW	0.13	8.7	-26.2	---	---	736.6	0.025	0.000	20.3	2	1
03/09/06	12:33 p	-17.9	-17.9	-17.9	---	---	7.8	NNW	0.13	10.4	-26.2	---	---	736.6	0.025	0.000	20.3	2	1
03/09/06	12:34 p	-17.9	-17.9	-18.0	---	---	7.8	NNW	0.13	8.7	-26.3	---	---	736.6	0.025	0.000	20.2	2	1
03/09/06	12:35 p	-17.9	-17.9	-17.9	---	---	7.8	NNW	0.13	7.8	-26.3	---	---	736.6	0.025	0.000	20.2	2	1
03/09/06	12:36 p	-17.9	-17.9	-17.9	---	---	7.8	NNW	0.13	9.6	-26.2	---	---	736.7	0.025	0.000	20.2	2	1
03/09/06	12:37 p	-17.8	-17.7	-17.9	---	---	8.7	NNW	0.14	10.4	-26.7	---	---	736.6	0.025	0.000	20.2	2	1
03/09/06	12:38 p	-17.7	-17.7	-17.7	---	---	7.8	NNW	0.13	8.7	-25.9	---	---	736.5	0.025	0.000	20.2	2	1
03/09/06	12:39 p	-17.6	-17.6	-17.7	---	---	7.8	NNW	0.13	9.6	-25.9	---	---	736.6	0.025	0.000	20.2	2	1
03/09/06	12:40 p	-17.6	-17.6	-17.7	---	---	7.0	NNW	0.12	7.8	-25.4	---	---	736.7	0.025	0.000	20.2	2	1
03/09/06	12:41 p	-17.7	-17.6	-17.7	---	---	7.8	NNW	0.13	9.6	-25.9	---	---	736.7	0.025	0.000	20.2	2	1
03/09/06	12:42 p	-17.7	-17.7	-17.7	---	---	7.0	NNW	0.12	8.7	-25.4	---	---	736.7	0.025	0.000	20.2	2	1
03/09/06	12:43 p	-17.7	-17.7	-17.7	---	---	7.8	NNW	0.13	8.7	-25.9	---	---	736.6	0.025	0.000	20.2	2	1
03/09/06	12:44 p	-17.6	-17.6	-17.7	---	---	7.0	NNW	0.12	7.8	-25.4	---	---	736.7	0.025	0.000	20.2	2	1
03/09/06	12:45 p	-17.6	-17.6	-17.6	---	---	7.0	NNW	0.12	7.0	-25.3	---	---	736.6	0.025	0.000	20.2	2	1
03/09/06	12:46 p	-17.6	-17.6	-17.6	---	---	6.1	NNW	0.10	7.0	-24.8	---	---	736.7	0.025	0.000	20.2	2	1
03/09/06	12:47 p	-17.6	-17.6	-17.6	---	---	5.2	NNW	0.09	6.1	-24.1	---	---	736.7	0.025	0.000	20.2	2	1
03/09/06	12:48 p	-17.6	-17.6	-17.6	---	---	5.2	NNW	0.09	6.1	-24.1	---	---	736.7	0.025	0.000	20.2	2	1
03/09/06	12:49 p	-17.6	-17.6	-17.7	---	---	4.3	NNW	0.07	5.2	-23.4	---	---	736.8	0.025	0.000	20.2	2	1
03/09/06	12:50 p	-17.7	-17.7	-17.7	---	---	3.5	NNW	0.06	4.3	-22.6	---	---	736.7	0.025	0.000	20.2	2	1
03/09/06	12:51 p	-17.7	-17.7	-17.7	---	---	3.5	NNW	0.06	6.1	-22.6	---	---	736.7	0.025	0.000	20.2	2	1
03/09/06	12:52 p	-17.7	-17.7	-17.7	---	---	3.5	NNW	0.06	4.3	-22.6	---	---	736.7	0.025	0.000	20.2	2	1
03/09/06	12:53 p	-17.7	-17.7	-17.7	---	---	4.3	NNW	0.07	5.2	-23.5	---	---	736.7	0.025	0.000	20.2	2	1
03/09/06	12:54 p	-17.7	-17.7	-17.7	---	---	4.3	NNW	0.07	5.2	-23.4	---	---	736.5	0.025	0.000	20.2	2	1
03/09/06	12:55 p	-17.7	-17.7	-17.7	---	---	4.3	NNW	0.07	6.1	-23.4	---	---	736.7	0.025	0.000	20.2	2	1
03/09/06	12:56 p	-17.6	-17.6	-17.7	---	---	4.3	NNW	0.07	6.1	-23.4	---	---	736.7	0.025	0.000	20.2	2	1
03/09/06	12:57 p	-17.6	-17.5	-17.6	---	---	4.3	NNW	0.07	5.2	-23.3	---	---	736.7	0.025	0.000	20.2	2	1
03/09/06	12:58 p	-17.5	-17.5	-17.5	---	---	4.3	NNW	0.07	5.2	-23.2	---	---	736.6	0.025	0.000	20.2	2	1
03/09/06	12:59 p	-17.5	-17.5	-17.5	---	---	3.5	NNW	0.06	4.3	-22.3	---	---	736.6	0.025	0.000	20.2	2	1
03/09/06	1:00 p	-17.5	-17.5	-17.5	---	---	3.5	NNW	0.06	3.5	-22.3	---	---	736.6	0.025	0.000	20.2	2	1
03/09/06	1:01 p	-17.5	-17.5	-17.6	---	---	2.6	NNW	0.04	3.5	-21.2	---	---	736.7	0.025	0.000	20.2	2	1
03/09/06	1:02 p	-17.6	-17.6	-17.6	---	---	2.6	NNW	0.04	2.6	-21.3	---	---	736.7	0.025	0.000	20.2	2	1
03/09/06	1:03 p	-17.6	-17.6	-17.6	---	---	1.7	NNW	0.03	2.6	-19.9	---	---	736.7	0.025	0.000	20.2	2	1
03/09/06	1:04 p	-17.6	-17.6	-17.6	---	---	1.7	NNW	0.03	2.6	-19.9	---	---	736.7	0.025	0.000	20.2	2	1
03/09/06	1:05 p	-17.7	-17.6	-17.7	---	---	1.7	NNW	0.03	2.6	-19.9	---	---	736.7	0.025	0.000	20.2	2	1
03/09/06	1:06 p	-17.7	-17.7	-17.7	---	---	0.9	NNW	0.01	1.7	-17.7	---	---	736.8	0.025	0.000	20.2	2	1
03/09/06	1:07 p	-17.6	-17.6	-17.7	---	---	0.9	NNW	0.01	1.7	-17.6	---	---	736.7	0.025	0.000	20.2	2	1
03/09/06	1:08 p	-17.6	-17.6	-17.6	---	---	0.9	NNW	0.01	1.7	-17.6	---	---	736.8	0.025	0.000	20.2	2	1
03/09/06	1:09 p	-17.6	-17.6	-17.7	---	---	0.0	NNW	0.00	0.9	-17.6	---	---	736.6	0.025	0.000	20.2	2	1
03/09/06	1:10 p	-17.7	-17.6	-17.7	---	---	0.0	---	0.00	0.0	-17.7	---	---	736.7	0.025	0.000	20.2	2	1
03/09/06	1:11 p	-17.7	-17.7	-17.7	---	---	0.0	NNW	0.00	0.9	-17.7	---	---	736.7	0.025	0.000	20.2	2	1
03/09/06	1:12 p	-17.7	-17.7	-17.7	---	---	0.0	---	0.00	0.0	-17.7	---	---	736.7	0.025	0.000	20.2	2	1
03/09/06	1:13 p	-17.6	-17.6	-17.7	---	---	0.9	NNW	0.01	1.7	-17.6	---	---	736.6	0.025	0.000	20.2	2	1
03/09/06	1:14 p	-17.6	-17.6	-17.6	---	---	1.7	NNW	0.03	1.7	-19.8	---	---	736.6	0.025	0.000	20.2	2	1
03/09/06	1:15 p	-17.6	-17.5	-17.6	---	---	2.6	NNW	0.04	2.6	-21.3	---	---	736.7	0.025	0.000	20.2	2	1
03/09/06	1:16 p	-17.5	-17.5	-17.6	---	---	2.6	NNW	0.04	3.5	-21.2	---	---	736.6	0.025	0.000	20.2	2	1
03/09/06	1:17 p	-17.5	-17.5	-17.5	---	---	3.5	NNW	0.06	3.5	-22.3	---	---	736.5	0.025	0.000	20.2	2	1
03/09/06	1:18 p	-17.5	-17.4	-17.5	---	---	3.5	NNW	0.06	4.3	-22.3	---	---	736.7	0.025	0.000	20.2	2	1
03/09/06	1:19 p	-17.4	-17.4	-17.5	---	---	3.5	NNW	0.06	4.3	-22.3	---	---	736.6	0.025	0.000	20.2	2	1
03/09/06	1:20 p	-17.4	-17.4	-17.4	---	---	4.3	NNW	0.07	4.3	-23.2	---	---	736.6	0.025	0.000	20.2	2	1
03/09/06	1:21 p	-17.5	-17.4	-17.5	---	---	4.3	NNW	0.07	4.3	-23.2	---	---	736.6	0.025	0.000	20.2	2	1
03/09/06	1:22 p	-17.5	-17.5	-17.5	---	---	4.3	NNW	0.07	5.2	-23.2	---	---	736.5	0.025	0.000	20.2	2	1
03/09/06	1:23 p	-17.5	-17.5	-17.5	---	---	5.2	NNW	0.09	5.2	-24.0	---	---	736.5	0.025	0.000	20.2	2	1
03/09/06	1:24 p	-17.5	-17.5	-17.6	---	---	4.3	NNW	0.07	5.2	-23.2	---	---	736.5	0.025	0.000	20.2	2	1
03/09/06	1:25 p	-17.5	-17.5	-17.6	---	---	5.2	NNW	0.09	5.2	-24.0	---	---	736.5	0.025	0.000	20.2	2	1
03/09/06	1:26 p	-17.6	-17.6	-17.6	---	---	5.2	NNW	0.09	6.1	-24.1	---	---	736.5	0.025	0.000	20.2	2	1
03/09/06	1:27 p	-17.6	-17.6	-17.6	---	---	5.2	NNW	0.09	5.2	-24.1	---	---	736.5	0.025	0.000	20.2	2	1
03/09/06	1:28 p	-17.6	-17.6	-17.6	---	---	5.2	NNW	0.09	5.2	-24.1	---	---	736.5	0.025	0.000	20.2	2	1
03/09/06	1:29 p	-17.6	-17.6	-17.6	---	---	4.3	NNW	0.07	5.2	-23.4	---	---	736.5	0.025	0.000	20.2	2	1
03/09/06	1:30 p	-17.6	-17.6	-17.6	---	---	4.3	NNW	0.07	5.2	-23.4	---	---	736.6	0.025	0.000	20.2	2	1
03/09/06	1:31 p	-17.7	-17.6	-17.7	---	---	3.5	NNW	0.06	3.5	-22.6	---	---	736.6	0.025	0.000	20.2	2	1
03/09/06	1:32 p	-17.7	-17.7	-17.7	---	---	2.6	NNW	0.04	3.5	-21.4	---	---	736.6	0.025	0.000	20.2	2	1
03/09/06	1:33 p	-17.7	-17.7	-17.8	---	---	2.6	NNW	0.04	2.6	-21.5	---	---	736.6	0.025	0.000	20.3	2	1
03/09/06	1:34 p	-17.8	-17.8	-17.8	---	---	1.7	NNW	0.03	2.6	-20.1	---	---	736.6	0.025	0.000	20.3	2	1
03/09/06	1:35 p	-17.8	-17.8	-17.8	---	---	1.7	NNW	0.03	2.6	-20.1	---	---	736.6	0.025	0.000	20.3	2	1
03/09/06	1:36 p	-17.9	-17.8	-17.9	---	---	2.6	NNW	0.04	2.6	-21.7	---	---	736.5	0.025	0.000	20.3	2	1
03/09/06	1:37 p	-17.9	-17.9	-17.9	---	---	2.6	NNW	0.04	2.6	-21.7	---	---	736.5	0.025	0.000	20.3	2	1
03/09/06	1:38 p	-17.9	-17.9	-17.9	---	---	2.6	NNW	0.04	2.6	-21.7	---	---	736.5	0.025	0.000	20.3	2	1
03/09/06	1:39 p	-17.9	-17.9	-17.9	---	---	1.7	NNW	0.03	1.7	-20.2	---	---	736.6	0.025	0.000	20.3	2	1
03/09/06	1:40 p	-17.8	-17.8	-17.9	---	---	1.7	NNW	0.03	1.7	-20.1	---	---	736.5	0.025	0.000	20.3	2	1
03/09/06	1:41 p	-17.8	-17.7	-17.8	---	---	1.7	NNW	0.03	1.7	-20.1	---	---	736.6	0.025	0.000	20.3	2	1
03/09/06	1:42 p	-17.7	-17.7	-17.8	---	---	1.7	NNW	0.03	1.7	-20.0	---	---	736.6	0.025	0.000	20.3	2	1
03/09/06	1:43 p	-17.7	-17.7	-17.7	---	---	1.7	NNW	0.03	1.7	-19.9	---	---	736.5	0.025	0.000	20.3	2	1
03/09/06	1:44 p	-17.7	-17.7	-17.7	---	---	1.7	NNW	0.03	2.6	-19.9	---	---	736.6	0.025	0.000	20.3	2	1
03/09/06	1:45 p	-17.7	-17.7	-17.7	---	---	1.7	NNW	0.03	2.6	-19.9	---	---	736.7	0.025	0.000	20.3	2	1
03/09/06	1:46 p	-17.7	-17.7	-17.7	---	---	2.6	NNW	0.04	2.6	-21.5	---	---	736.7	0.025	0.000	20.3	2	1
03/09/06	1:47 p	-17.8	-17.7	-17.8	---	---	2.6	NNW	0.04	2.6	-21.6	---	---	736.6	0.025	0.000	20.3	2	1
03/09/06	1:48 p	-17.8	-17.8	-17.8	---	---	1.7	NNW	0.03	2.6	-20.1	---	---	736.6	0.025	0.000	20.3	2	1
03/09/06	1:49 p	-17.8	-17.8	-17.8	---	---	1.7	NNW	0.03	2.6	-20.1	---	---	736.6	0.025	0.000	20.3	2	1
03/09/06	1:50 p	-17.8	-17.8	-17.8	---	---	1.7	NNW	0.03	1.7	-20.1	---	---	736.7	0.025	0.000	20.3	2	1
03/09/06	1:51 p	-17.9	-17.8	-17.9	---	---	0.9	NNW	0.01	1.7	-17.8	---	---	736.6	0.025	0.000	20.3	2	1
03/09/06	1:52 p	-17.9	-17.9	-17.9	---	---	0.0	NNW	0.00	0.9	-17.8	---	---	736.6	0.025	0.000	20.3	2	1
03/09/06	1:53 p	-17.9	-17.9	-17.9	---	---	0.0	---	0.00	0.0	-17.8	---	---	736.5	0.025	0.000	20.3	2	1
03/09/06	1:54 p	-17.9	-17.9	-17.9	---	---	0.0	---	0.00	0.0	-17.9	---	---	736.6	0.025	0.000	20.3	2	1
03/09/06	1:55 p	-17.9	-17.9	-18.0	---	---	0.0	---	0.00	0.0	-17.9	---	---	736.6	0.025	0.000	20.3	2	1
03/09/06	1:56 p	-18.0	-18.0	-18.0	---	---	0.0	---	0.00	0.0	-17.9	---	---	736.6	0.025	0.000	20.3	2	1
03/09/06	1:57 p	-18.1	-18.1	-18.1	---	---	0.0	NNW	0.00	0.9	-18.0	---	---	736.5	0.025	0.000	20.3	2	1
03/09/06	1:58 p	-18.1	-18.1	-18.2	---	---	0.0	---	0.00	0.0	-18.1	---	---	736.6	0.025	0.000	20.3	2	1
03/09/06	1:59 p	-18.2	-18.2	-18.2	---	---	0.0	---	0.00	0.0	-18.1	---	---	736.6	0.025	0.000	20.3	2	1
03/09/06	2:00 p	-18.2	-18.2	-18.2	---	---	0.0	---	0.00	0.0	-18.2	---	---	736.6	0.025	0.000	20.3	2	1
03/09/06	2:01 p	-18.3	-18.2	-18.3	---	---	0.0	NNW	0.00	0.9	-18.2	---	---	736.5	0.025	0.000	20.3	2	1
03/09/06	2:02 p	-18.3	-18.3	-18.3	---	---	0.0	---	0.00	0.0	-18.2	---	---	736.6	0.025	0.000	20.3	2	1
03/09/06	2:03 p	-18.4	-18.4	-18.4	---	---	0.0	NNW	0.00	0.9	-18.3	---	---	736.5	0.026	0.000	20.3	2	1
03/09/06	2:04 p	-18.4	-18.4	-18.4	---	---	0.0	---	0.00	0.0	-18.3	---	---	736.5	0.026	0.000	20.3	2	1
03/09/06	2:05 p	-18.4	-18.4	-18.4	---	---	0.0	NNW	0.00	0.9	-18.4	---	---	736.5	0.026	0.000	20.3	2	1
03/09/06	2:06 p	-18.4	-18.4	-18.4	---	---	0.0	NNW	0.00	0.9	-18.4	---	---	736.5	0.026	0.000	20.3	2	1
03/09/06	2:07 p	-18.5	-18.5	-18.5	---	---	0.9	NNW	0.01	0.9	-18.5	---	---	736.5	0.026	0.000	20.3	2	1
03/09/06	2:08 p	-18.5	-18.5	-18.6	---	---	0.0	---	0.00	0.0	-18.4	---	---	736.5	0.026	0.000	20.3	2	1
03/09/06	2:09 p	-18.6	-18.6	-18.6	---	---	0.0	---	0.00	0.9	-18.5	---	---	736.5	0.026	0.000	20.3	2	1
03/09/06	2:10 p	-18.6	-18.6	-18.6	---	---	0.0	---	0.00	0.9	-18.6	---	---	736.6	0.026	0.000	20.3	2	1
03/09/06	2:11 p	-18.6	-18.6	-18.7	---	---	0.0	NNW	0.00	0.9	-18.6	---	---	736.5	0.026	0.000	20.3	2	1
03/09/06	2:12 p	-18.7	-18.7	-18.7	---	---	0.0	NNW	0.00	0.9	-18.6	---	---	736.5	0.026	0.000	20.3	2	1
03/09/06	2:13 p	-18.7	-18.7	-18.7	---	---	0.9	NNW	0.01	0.9	-18.7	---	---	736.5	0.026	0.000	20.3	2	1
03/09/06	2:14 p	-18.7	-18.7	-18.7	---	---	0.0	NNW	0.00	0.9	-18.7	---	---	736.4	0.026	0.000	20.3	2	1
03/09/06	2:15 p	-18.8	-18.7	-18.8	---	---	0.0	---	0.00	0.0	-18.7	---	---	736.5	0.026	0.000	20.3	2	1
03/09/06	2:16 p	-18.7	-18.7	-18.8	---	---	0.0	---	0.00	0.0	-18.7	---	---	736.5	0.026	0.000	20.3	2	1
03/09/06	2:17 p	-18.8	-18.7	-18.8	---	---	0.0	---	0.00	0.0	-18.7	---	---	736.5	0.026	0.000	20.3	2	1
03/09/06	2:18 p	-18.8	-18.7	-18.8	---	---	0.0	---	0.00	0.0	-18.7	---	---	736.6	0.026	0.000	20.3	2	1
03/09/06	2:19 p	-18.8	-18.7	-18.8	---	---	0.0	---	0.00	0.0	-18.7	---	---	736.4	0.026	0.000	20.3	2	1
03/09/06	2:20 p	-18.7	-18.7	-18.7	---	---	0.0	---	0.00	0.0	-18.7	---	---	736.5	0.026	0.000	20.3	2	1
03/09/06	2:21 p	-18.7	-18.7	-18.7	---	---	0.0	---	0.00	0.0	-18.7	---	---	736.4	0.026	0.000	20.3	2	1
03/09/06	2:22 p	-18.7	-18.6	-18.7	---	---	0.0	---	0.00	0.0	-18.6	---	---	736.4	0.026	0.000	20.3	2	1
03/09/06	2:23 p	-18.5	-18.4	-18.6	---	---	0.0	---	0.00	0.0	-18.4	---	---	736.5	0.026	0.000	20.3	2	1
03/09/06	2:24 p	-18.3	-18.2	-18.4	---	---	0.0	---	0.00	0.9	-18.3	---	---	736.4	0.025	0.000	20.3	2	1
03/09/06	2:25 p	-18.2	-18.1	-18.2	---	---	0.0	NNW	0.00	0.9	-18.1	---	---	736.5	0.025	0.000	20.3	2	1
03/09/06	2:26 p	-18.0	-17.9	-18.1	---	---	0.0	NNW	0.00	0.9	-17.9	---	---	736.5	0.025	0.000	20.3	2	1
03/09/06	2:27 p	-17.9	-17.8	-17.9	---	---	0.9	NNW	0.01	0.9	-17.8	---	---	736.4	0.025	0.000	20.3	2	1
03/09/06	2:28 p	-17.7	-17.7	-17.8	---	---	0.0	NNW	0.00	0.9	-17.7	---	---	736.4	0.025	0.000	20.3	2	1
03/09/06	2:29 p	-17.6	-17.6	-17.7	---	---	0.0	NNW	0.00	0.9	-17.6	---	---	736.4	0.025	0.000	20.3	2	1
03/09/06	2:30 p	-17.5	-17.5	-17.6	---	---	0.9	NNW	0.01	0.9	-17.5	---	---	736.4	0.025	0.000	20.3	2	1
03/09/06	2:31 p	-17.4	-17.4	-17.5	---	---	0.0	---	0.00	0.0	-17.4	---	---	736.3	0.025	0.000	20.3	2	1
03/09/06	2:32 p	-17.4	-17.4	-17.4	---	---	0.9	NNW	0.01	0.9	-17.4	---	---	736.4	0.025	0.000	20.3	2	1
03/09/06	2:33 p	-17.4	-17.4	-17.4	---	---	0.0	NNW	0.00	0.9	-17.4	---	---	736.3	0.025	0.000	20.3	2	1
03/09/06	2:34 p	-17.4	-17.4	-17.4	---	---	0.9	NNW	0.01	1.7	-17.4	---	---	736.3	0.025	0.000	20.3	2	1
03/09/06	2:35 p	-17.4	-17.4	-17.4	---	---	0.9	NNW	0.01	0.9	-17.4	---	---	736.4	0.025	0.000	20.3	2	1
03/09/06	2:36 p	-17.4	-17.4	-17.4	---	---	0.9	NNW	0.01	0.9	-17.4	---	---	736.3	0.025	0.000	20.3	2	1
03/09/06	2:37 p	-17.4	-17.4	-17.4	---	---	0.9	NNW	0.01	0.9	-17.4	---	---	736.3	0.025	0.000	20.3	2	1
03/09/06	2:38 p	-17.4	-17.4	-17.5	---	---	0.0	---	0.00	0.0	-17.4	---	---	736.3	0.025	0.000	20.3	2	1
03/09/06	2:39 p	-17.5	-17.4	-17.5	---	---	0.0	---	0.00	0.0	-17.5	---	---	736.3	0.025	0.000	20.3	2	1
03/09/06	2:40 p	-17.5	-17.5	-17.5	---	---	0.0	---	0.00	0.0	-17.5	---	---	736.3	0.025	0.000	20.3	2	1
03/09/06	2:41 p	-17.6	-17.5	-17.6	---	---	0.0	---	0.00	0.0	-17.6	---	---	736.4	0.025	0.000	20.3	2	1
03/09/06	2:42 p	-17.6	-17.6	-17.6	---	---	0.0	NNW	0.00	0.9	-17.6	---	---	736.4	0.025	0.000	20.3	2	1
03/09/06	2:43 p	-17.6	-17.6	-17.6	---	---	0.9	NNW	0.01	0.9	-17.6	---	---	736.3	0.025	0.000	20.3	2	1
03/09/06	2:44 p	-17.6	-17.5	-17.6	---	---	0.9	NNW	0.01	0.9	-17.6	---	---	736.3	0.025	0.000	20.3	2	1
03/09/06	2:45 p	-17.4	-17.4	-17.4	---	---	0.9	NNW	0.01	1.7	-17.4	---	---	736.4	0.025	0.000	20.3	2	1
03/09/06	2:46 p	-17.4	-17.4	-17.4	---	---	0.9	NNW	0.01	1.7	-17.4	---	---	736.4	0.025	0.000	20.3	2	1
03/09/06	2:47 p	-17.4	-17.4	-17.4	---	---	0.9	NNW	0.01	1.7	-17.4	---	---	736.4	0.025	0.000	20.3	2	1
03/09/06	2:48 p	-17.4	-17.4	-17.4	---	---	0.9	NNW	0.01	1.7	-17.4	---	---	736.3	0.025	0.000	20.3	2	1
03/09/06	2:49 p	-17.4	-17.4	-17.4	---	---	1.7	NNW	0.03	2.6	-19.7	---	---	736.3	0.025	0.000	20.3	2	1
03/09/06	2:50 p	-17.5	-17.4	-17.5	---	---	1.7	NNW	0.03	2.6	-19.8	---	---	736.3	0.025	0.000	20.3	2	1
03/09/06	2:51 p	-17.5	-17.5	-17.6	---	---	0.9	NNW	0.01	1.7	-17.5	---	---	736.4	0.025	0.000	20.3	2	1
03/09/06	2:52 p	-17.6	-17.6	-17.6	---	---	0.9	NNW	0.01	1.7	-17.6	---	---	736.3	0.025	0.000	20.3	2	1
03/09/06	2:53 p	-17.6	-17.6	-17.7	---	---	0.9	NNW	0.01	1.7	-17.6	---	---	736.3	0.025	0.000	20.3	2	1
03/09/06	2:54 p	-17.7	-17.7	-17.7	---	---	1.7	NNW	0.03	1.7	-20.0	---	---	736.3	0.025	0.000	20.3	2	1
03/09/06	2:55 p	-17.7	-17.7	-17.8	---	---	2.6	NNW	0.04	2.6	-21.5	---	---	736.4	0.025	0.000	20.3	2	1
03/09/06	2:56 p	-17.8	-17.8	-17.9	---	---	2.6	NNW	0.04	3.5	-21.6	---	---	736.4	0.025	0.000	20.3	2	1
03/09/06	2:57 p	-17.9	-17.9	-18.0	---	---	2.6	NNW	0.04	3.5	-21.7	---	---	736.4	0.025	0.000	20.3	2	1
03/09/06	2:58 p	-18.0	-18.0	-18.1	---	---	3.5	NNW	0.06	4.3	-22.9	---	---	736.3	0.025	0.000	20.3	2	1
03/09/06	2:59 p	-18.1	-18.1	-18.2	---	---	3.5	NNW	0.06	4.3	-23.1	---	---	736.4	0.025	0.000	20.3	2	1
03/09/06	3:00 p	-18.2	-18.2	-18.3	---	---	3.5	NNW	0.06	4.3	-23.2	---	---	736.3	0.025	0.000	20.3	2	1
03/09/06	3:01 p	-18.3	-18.3	-18.4	---	---	3.5	NNW	0.06	4.3	-23.3	---	---	736.4	0.025	0.000	20.3	2	1
03/09/06	3:02 p	-18.4	-18.4	-18.4	---	---	3.5	NNW	0.06	3.5	-23.4	---	---	736.4	0.026	0.000	20.3	2	1
03/09/06	3:03 p	-18.5	-18.5	-18.6	---	---	2.6	NNW	0.04	3.5	-22.4	---	---	736.3	0.026	0.000	20.3	2	1
03/09/06	3:04 p	-18.6	-18.6	-18.7	---	---	2.6	NNW	0.04	3.5	-22.5	---	---	736.4	0.026	0.000	20.3	2	1
03/09/06	3:05 p	-18.7	-18.7	-18.7	---	---	2.6	NNW	0.04	2.6	-22.6	---	---	736.4	0.026	0.000	20.3	2	1
03/09/06	3:06 p	-18.8	-18.7	-18.8	---	---	2.6	NNW	0.04	3.5	-22.7	---	---	736.4	0.026	0.000	20.3	2	1
03/09/06	3:07 p	-18.8	-18.8	-18.9	---	---	2.6	NNW	0.04	3.5	-22.7	---	---	736.4	0.026	0.000	20.3	2	1
03/09/06	3:08 p	-18.9	-18.9	-19.0	---	---	2.6	NNW	0.04	3.5	-22.9	---	---	736.4	0.026	0.000	20.3	2	1
03/09/06	3:09 p	-19.1	-19.0	-19.1	---	---	2.6	NNW	0.04	4.3	-23.0	---	---	736.3	0.026	0.000	20.3	2	1
03/09/06	3:10 p	-19.1	-19.1	-19.1	---	---	2.6	NE	0.04	3.5	-23.1	---	---	736.3	0.026	0.000	20.3	2	1
03/09/06	3:11 p	-19.2	-19.2	-19.2	---	---	3.5	NE	0.06	4.3	-24.3	---	---	736.4	0.026	0.000	20.3	2	1
03/09/06	3:12 p	-19.2	-19.2	-19.2	---	---	3.5	ENE	0.06	4.3	-24.3	---	---	736.3	0.026	0.000	20.3	2	1
03/09/06	3:13 p	-19.2	-19.2	-19.3	---	---	3.5	ENE	0.06	4.3	-24.3	---	---	736.3	0.026	0.000	20.3	2	1
03/09/06	3:14 p	-19.3	-19.2	-19.3	---	---	3.5	ENE	0.06	4.3	-24.4	---	---	736.3	0.026	0.000	20.3	2	1
03/09/06	3:15 p	-19.3	-19.3	-19.3	---	---	3.5	ENE	0.06	4.3	-24.4	---	---	736.3	0.026	0.000	20.3	2	1
03/09/06	3:16 p	-19.3	-19.3	-19.3	---	---	2.6	ENE	0.04	3.5	-23.3	---	---	736.3	0.026	0.000	20.3	2	1
03/09/06	3:17 p	-19.3	-19.3	-19.3	---	---	2.6	ENE	0.04	3.5	-23.3	---	---	736.2	0.026	0.000	20.3	2	1
03/09/06	3:18 p	-19.3	-19.3	-19.3	---	---	1.7	ENE	0.03	2.6	-21.8	---	---	736.3	0.026	0.000	20.3	2	1
03/09/06	3:19 p	-19.3	-19.3	-19.3	---	---	0.9	ENE	0.01	1.7	-19.3	---	---	736.3	0.026	0.000	20.3	2	1
03/09/06	3:20 p	-19.3	-19.3	-19.3	---	---	0.0	ENE	0.00	0.9	-19.2	---	---	736.2	0.026	0.000	20.3	2	1
03/09/06	3:21 p	-19.2	-19.1	-19.2	---	---	0.0	ENE	0.00	0.9	-19.2	---	---	736.4	0.026	0.000	20.3	2	1
03/09/06	3:22 p	-19.0	-18.9	-19.1	---	---	0.0	ENE	0.00	1.7	-18.9	---	---	736.3	0.026	0.000	20.3	2	1
03/09/06	3:23 p	-18.7	-18.4	-18.8	---	---	0.9	ENE	0.01	1.7	-18.7	---	---	736.4	0.026	0.000	20.3	2	1
03/09/06	3:24 p	-18.2	-18.0	-18.3	---	---	0.9	ENE	0.01	1.7	-18.2	---	---	736.3	0.025	0.000	20.3	2	1
03/09/06	3:25 p	-17.9	-17.7	-17.9	---	---	0.0	ENE	0.00	0.9	-17.8	---	---	736.2	0.025	0.000	20.3	2	1
03/09/06	3:26 p	-17.6	-17.5	-17.7	---	---	0.0	ENE	0.00	0.9	-17.6	---	---	736.2	0.025	0.000	20.3	2	1
03/09/06	3:27 p	-17.4	-17.3	-17.5	---	---	0.0	---	0.00	0.0	-17.4	---	---	736.3	0.025	0.000	20.3	2	1
03/09/06	3:28 p	-17.3	-17.3	-17.3	---	---	0.0	---	0.00	0.0	-17.3	---	---	736.3	0.025	0.000	20.3	2	1
03/09/06	3:29 p	-17.2	-17.2	-17.2	---	---	0.0	---	0.00	0.0	-17.2	---	---	736.2	0.025	0.000	20.3	2	1
03/09/06	3:30 p	-17.2	-17.2	-17.2	---	---	0.0	ENE	0.00	0.9	-17.2	---	---	736.2	0.025	0.000	20.3	2	1
03/09/06	3:31 p	-17.2	-17.2	-17.3	---	---	0.9	ENE	0.01	1.7	-17.2	---	---	736.2	0.025	0.000	20.3	2	1
03/09/06	3:32 p	-17.3	-17.3	-17.3	---	---	1.7	ENE	0.03	2.6	-19.5	---	---	736.2	0.025	0.000	20.3	2	1
03/09/06	3:33 p	-17.3	-17.3	-17.3	---	---	1.7	ENE	0.03	2.6	-19.5	---	---	736.2	0.025	0.000	20.3	2	1
03/09/06	3:34 p	-17.4	-17.3	-17.4	---	---	1.7	ENE	0.03	2.6	-19.6	---	---	736.2	0.025	0.000	20.3	2	1
03/09/06	3:35 p	-17.4	-17.4	-17.4	---	---	1.7	ENE	0.03	1.7	-19.7	---	---	736.3	0.025	0.000	20.3	2	1
03/09/06	3:36 p	-17.5	-17.5	-17.6	---	---	1.7	ENE	0.03	2.6	-19.8	---	---	736.2	0.025	0.000	20.3	2	1
03/09/06	3:37 p	-17.6	-17.6	-17.6	---	---	1.7	ENE	0.03	2.6	-19.8	---	---	736.2	0.025	0.000	20.3	2	1
03/09/06	3:38 p	-17.6	-17.6	-17.6	---	---	0.0	ENE	0.00	0.9	-17.6	---	---	736.2	0.025	0.000	20.3	2	1
03/09/06	3:39 p	-17.6	-17.6	-17.6	---	---	0.0	ENE	0.00	0.9	-17.6	---	---	736.2	0.025	0.000	20.3	2	1
03/09/06	3:40 p	-17.6	-17.6	-17.6	---	---	0.0	ENE	0.00	0.9	-17.6	---	---	736.2	0.025	0.000	20.3	2	1
03/09/06	3:41 p	-17.6	-17.4	-17.6	---	---	0.9	ENE	0.01	1.7	-17.6	---	---	736.2	0.025	0.000	20.3	2	1
03/09/06	3:42 p	-17.3	-17.3	-17.4	---	---	0.0	---	0.00	0.0	-17.3	---	---	736.2	0.025	0.000	20.3	2	1
03/09/06	3:43 p	-17.2	-17.2	-17.2	---	---	0.0	ENE	0.00	0.9	-17.2	---	---	736.2	0.025	0.000	20.3	2	1
03/09/06	3:44 p	-17.1	-17.0	-17.1	---	---	0.0	---	0.00	0.0	-17.1	---	---	736.3	0.025	0.000	20.3	2	1
03/09/06	3:45 p	-17.0	-17.0	-17.0	---	---	0.0	---	0.00	0.0	-17.0	---	---	736.2	0.025	0.000	20.3	2	1
03/09/06	3:46 p	-16.9	-16.9	-16.9	---	---	0.0	---	0.00	0.0	-16.9	---	---	736.2	0.024	0.000	20.3	2	1
03/09/06	3:47 p	-16.9	-16.9	-16.9	---	---	0.0	---	0.00	0.0	-16.9	---	---	736.3	0.024	0.000	20.3	2	1
03/09/06	3:48 p	-16.8	-16.8	-16.9	---	---	0.0	---	0.00	0.0	-16.8	---	---	736.3	0.024	0.000	20.3	2	1
03/09/06	3:49 p	-16.8	-16.8	-16.8	---	---	0.0	ENE	0.00	0.9	-16.8	---	---	736.3	0.024	0.000	20.3	2	1
03/09/06	3:50 p	-16.7	-16.7	-16.8	---	---	1.7	ENE	0.03	2.6	-18.9	---	---	736.3	0.024	0.000	20.3	2	1
03/09/06	3:51 p	-16.7	-16.7	-16.8	---	---	1.7	ENE	0.03	2.6	-18.9	---	---	736.3	0.024	0.000	20.3	2	1
03/09/06	3:52 p	-16.8	-16.8	-16.9	---	---	2.6	ENE	0.04	2.6	-20.5	---	---	736.3	0.024	0.000	20.3	2	1
03/09/06	3:53 p	-16.9	-16.9	-16.9	---	---	1.7	ENE	0.03	2.6	-19.1	---	---	736.2	0.024	0.000	20.3	2	1
03/09/06	3:54 p	-16.9	-16.9	-17.0	---	---	1.7	ENE	0.03	2.6	-19.2	---	---	736.3	0.024	0.000	20.3	2	1
03/09/06	3:55 p	-17.1	-17.1	-17.1	---	---	1.7	ENE	0.03	1.7	-19.3	---	---	736.3	0.025	0.000	20.3	2	1
03/09/06	3:56 p	-17.1	-17.1	-17.1	---	---	1.7	ENE	0.03	2.6	-19.3	---	---	736.3	0.025	0.000	20.3	2	1
03/09/06	3:57 p	-17.2	-17.1	-17.2	---	---	1.7	ENE	0.03	2.6	-19.4	---	---	736.3	0.025	0.000	20.3	2	1
03/09/06	3:58 p	-17.2	-17.2	-17.3	---	---	1.7	ENE	0.03	2.6	-19.4	---	---	736.3	0.025	0.000	20.3	2	1
03/09/06	3:59 p	-17.3	-17.3	-17.3	---	---	1.7	ENE	0.03	1.7	-19.6	---	---	736.3	0.025	0.000	20.3	2	1
03/09/06	4:00 p	-17.4	-17.4	-17.5	---	---	0.9	ENE	0.01	1.7	-17.4	---	---	736.3	0.025	0.000	20.3	2	1
03/09/06	4:01 p	-17.6	-17.5	-17.6	---	---	0.9	ENE	0.01	1.7	-17.6	---	---	736.3	0.025	0.000	20.3	2	1
03/09/06	4:02 p	-17.7	-17.6	-17.7	---	---	0.9	ENE	0.01	1.7	-17.7	---	---	736.3	0.025	0.000	20.3	2	1
03/09/06	4:03 p	-17.8	-17.7	-17.8	---	---	0.9	ENE	0.01	1.7	-17.8	---	---	736.2	0.025	0.000	20.3	2	1
03/09/06	4:04 p	-17.8	-17.8	-17.8	---	---	0.9	ENE	0.01	1.7	-17.8	---	---	736.3	0.025	0.000	20.3	2	1
03/09/06	4:05 p	-17.9	-17.8	-17.9	---	---	0.9	ENE	0.01	1.7	-17.8	---	---	736.2	0.025	0.000	20.3	2	1
03/09/06	4:06 p	-17.9	-17.9	-17.9	---	---	0.9	ENE	0.01	1.7	-17.9	---	---	736.2	0.025	0.000	20.3	2	1
03/09/06	4:07 p	-17.9	-17.9	-18.0	---	---	0.0	---	0.00	0.9	-17.9	---	---	736.2	0.025	0.000	20.3	2	1
03/09/06	4:08 p	-18.0	-18.0	-18.0	---	---	0.9	ENE	0.01	0.9	-17.9	---	---	736.3	0.025	0.000	20.3	2	1
03/09/06	4:09 p	-18.0	-18.0	-18.1	---	---	0.9	ENE	0.01	0.9	-17.9	---	---	736.2	0.025	0.000	20.3	2	1
03/09/06	4:10 p	-18.1	-18.1	-18.1	---	---	0.9	ENE	0.01	0.9	-18.0	---	---	736.2	0.025	0.000	20.3	2	1
03/09/06	4:11 p	-18.1	-18.1	-18.1	---	---	0.9	ENE	0.01	1.7	-18.1	---	---	736.2	0.025	0.000	20.3	2	1
03/09/06	4:12 p	-18.1	-18.1	-18.2	---	---	0.9	ENE	0.01	0.9	-18.1	---	---	736.2	0.025	0.000	20.3	2	1
03/09/06	4:13 p	-18.2	-18.2	-18.2	---	---	0.0	ENE	0.00	0.9	-18.1	---	---	736.1	0.025	0.000	20.3	2	1
03/09/06	4:14 p	-18.2	-18.2	-18.2	---	---	0.9	ENE	0.01	0.9	-18.1	---	---	736.1	0.025	0.000	20.3	2	1
03/09/06	4:15 p	-18.2	-18.2	-18.2	---	---	0.0	ENE	0.00	0.9	-18.1	---	---	736.2	0.025	0.000	20.3	2	1
03/09/06	4:16 p	-18.2	-18.2	-18.2	---	---	0.0	ENE	0.00	0.9	-18.1	---	---	736.2	0.025	0.000	20.3	2	1
03/09/06	4:17 p	-18.2	-18.2	-18.2	---	---	0.0	---	0.00	0.9	-18.2	---	---	736.2	0.025	0.000	20.2	2	1
03/09/06	4:18 p	-18.2	-18.2	-18.2	---	---	0.9	ENE	0.01	0.9	-18.2	---	---	736.1	0.025	0.000	20.2	2	1
03/09/06	4:19 p	-18.2	-18.2	-18.2	---	---	0.0	ENE	0.00	0.9	-18.2	---	---	736.2	0.025	0.000	20.2	2	1
03/09/06	4:20 p	-18.2	-18.2	-18.2	---	---	0.9	ENE	0.01	0.9	-18.2	---	---	736.3	0.025	0.000	20.2	2	1
03/09/06	4:21 p	-18.2	-18.2	-18.2	---	---	0.9	ENE	0.01	1.7	-18.1	---	---	736.2	0.025	0.000	20.2	2	1
03/09/06	4:22 p	-18.2	-18.2	-18.2	---	---	0.9	ENE	0.01	1.7	-18.1	---	---	736.2	0.025	0.000	20.2	2	1
03/09/06	4:23 p	-18.1	-18.1	-18.1	---	---	0.9	ENE	0.01	1.7	-18.1	---	---	736.3	0.025	0.000	20.2	2	1
03/09/06	4:24 p	-18.1	-18.1	-18.1	---	---	1.7	ENE	0.03	1.7	-20.4	---	---	736.2	0.025	0.000	20.2	2	1
03/09/06	4:25 p	-18.1	-18.1	-18.1	---	---	0.9	ENE	0.01	0.9	-18.0	---	---	736.2	0.025	0.000	20.2	2	1
03/09/06	4:26 p	-18.1	-18.1	-18.1	---	---	1.7	ENE	0.03	1.7	-20.4	---	---	736.2	0.025	0.000	20.2	2	1
03/09/06	4:27 p	-18.1	-18.0	-18.1	---	---	1.7	ENE	0.03	2.6	-20.4	---	---	736.2	0.025	0.000	20.2	2	1
03/09/06	4:28 p	-18.0	-18.0	-18.0	---	---	1.7	ENE	0.03	2.6	-20.3	---	---	736.2	0.025	0.000	20.2	2	1
03/09/06	4:29 p	-18.0	-18.0	-18.0	---	---	2.6	ENE	0.04	2.6	-21.8	---	---	736.2	0.025	0.000	20.2	2	1
03/09/06	4:30 p	-18.0	-18.0	-18.0	---	---	2.6	ENE	0.04	2.6	-21.8	---	---	736.2	0.025	0.000	20.2	2	1
03/09/06	4:31 p	-18.0	-18.0	-18.1	---	---	2.6	ENE	0.04	2.6	-21.8	---	---	736.3	0.025	0.000	20.2	2	1
03/09/06	4:32 p	-18.0	-18.0	-18.1	---	---	2.6	ENE	0.04	2.6	-21.8	---	---	736.3	0.025	0.000	20.2	2	1
03/09/06	4:33 p	-18.1	-18.0	-18.1	---	---	2.6	ENE	0.04	3.5	-21.8	---	---	736.3	0.025	0.000	20.2	2	1
03/09/06	4:34 p	-18.1	-18.0	-18.1	---	---	3.5	ENE	0.06	3.5	-23.0	---	---	736.2	0.025	0.000	20.2	2	1
03/09/06	4:35 p	-18.1	-18.1	-18.1	---	---	3.5	ENE	0.06	3.5	-23.1	---	---	736.3	0.025	0.000	20.2	2	1
03/09/06	4:36 p	-18.1	-18.1	-18.1	---	---	3.5	ENE	0.06	3.5	-23.1	---	---	736.3	0.025	0.000	20.2	2	1
03/09/06	4:37 p	-18.2	-18.1	-18.2	---	---	2.6	ENE	0.04	3.5	-22.0	---	---	736.3	0.025	0.000	20.2	2	1
03/09/06	4:38 p	-18.2	-18.2	-18.2	---	---	2.6	ENE	0.04	3.5	-22.0	---	---	736.2	0.025	0.000	20.2	2	1
03/09/06	4:39 p	-18.2	-18.2	-18.2	---	---	2.6	ENE	0.04	3.5	-22.1	---	---	736.2	0.025	0.000	20.2	2	1
03/09/06	4:40 p	-18.2	-18.2	-18.2	---	---	2.6	ENE	0.04	3.5	-22.1	---	---	736.2	0.025	0.000	20.2	2	1
03/09/06	4:41 p	-18.2	-18.2	-18.2	---	---	3.5	ENE	0.06	3.5	-23.2	---	---	736.3	0.025	0.000	20.2	2	1
03/09/06	4:42 p	-18.2	-18.2	-18.2	---	---	3.5	ENE	0.06	3.5	-23.2	---	---	736.2	0.025	0.000	20.2	2	1
03/09/06	4:43 p	-18.2	-18.2	-18.2	---	---	3.5	ENE	0.06	4.3	-23.2	---	---	736.3	0.025	0.000	20.2	2	1
03/09/06	4:44 p	-18.2	-18.2	-18.3	---	---	4.3	ENE	0.07	4.3	-24.1	---	---	736.2	0.025	0.000	20.3	2	1
03/09/06	4:45 p	-18.3	-18.2	-18.3	---	---	4.3	ENE	0.07	5.2	-24.2	---	---	736.2	0.025	0.000	20.3	2	1
03/09/06	4:46 p	-18.3	-18.3	-18.4	---	---	6.1	ENE	0.10	7.0	-25.7	---	---	736.3	0.025	0.000	20.3	2	1
03/09/06	4:47 p	-18.5	-18.4	-18.6	---	---	6.1	ENE	0.10	6.1	-25.8	---	---	736.2	0.026	0.000	20.3	2	1
03/09/06	4:48 p	-18.7	-18.6	-18.8	---	---	5.2	ENE	0.09	6.1	-25.4	---	---	736.2	0.026	0.000	20.3	2	1
03/09/06	4:49 p	-18.8	-18.8	-18.9	---	---	4.3	ENE	0.07	5.2	-24.8	---	---	736.3	0.026	0.000	20.3	2	1
03/09/06	4:50 p	-19.0	-18.9	-19.1	---	---	4.3	ENE	0.07	5.2	-25.0	---	---	736.2	0.026	0.000	20.3	2	1
03/09/06	4:51 p	-19.1	-19.1	-19.1	---	---	3.5	ENE	0.06	4.3	-24.1	---	---	736.3	0.026	0.000	20.3	2	1
03/09/06	4:52 p	-19.2	-19.1	-19.2	---	---	4.3	ENE	0.07	5.2	-25.2	---	---	736.2	0.026	0.000	20.3	2	1
03/09/06	4:53 p	-19.3	-19.2	-19.3	---	---	4.3	E	0.07	5.2	-25.3	---	---	736.2	0.026	0.000	20.3	2	1
03/09/06	4:54 p	-19.3	-19.3	-19.4	---	---	4.3	E	0.07	5.2	-25.4	---	---	736.3	0.026	0.000	20.2	2	1
03/09/06	4:55 p	-19.4	-19.4	-19.4	---	---	4.3	E	0.07	5.2	-25.4	---	---	736.3	0.026	0.000	20.2	2	1
03/09/06	4:56 p	-19.4	-19.4	-19.4	---	---	4.3	E	0.07	6.1	-25.4	---	---	736.2	0.026	0.000	20.2	2	1
03/09/06	4:57 p	-19.4	-19.4	-19.4	---	---	3.5	ESE	0.06	5.2	-24.5	---	---	736.2	0.026	0.000	20.3	2	1
03/09/06	4:58 p	-19.4	-19.4	-19.5	---	---	4.3	ESE	0.07	5.2	-25.5	---	---	736.2	0.026	0.000	20.2	2	1
03/09/06	4:59 p	-19.5	-19.5	-19.5	---	---	4.3	ESE	0.07	6.1	-25.6	---	---	736.2	0.026	0.000	20.2	2	1
03/09/06	5:00 p	-19.6	-19.5	-19.6	---	---	5.2	ESE	0.09	6.1	-26.4	---	---	736.3	0.026	0.000	20.2	2	1
03/09/06	5:01 p	-19.6	-19.6	-19.6	---	---	4.3	ESE	0.07	6.1	-25.7	---	---	736.2	0.026	0.000	20.2	2	1
03/09/06	5:02 p	-19.6	-19.6	-19.7	---	---	3.5	ESE	0.06	5.2	-24.8	---	---	736.3	0.026	0.000	20.2	2	1
03/09/06	5:03 p	-19.7	-19.7	-19.7	---	---	3.5	ESE	0.06	6.1	-24.8	---	---	736.3	0.026	0.000	20.2	2	1
03/09/06	5:04 p	-19.7	-19.7	-19.7	---	---	3.5	ESE	0.06	5.2	-24.8	---	---	736.3	0.026	0.000	20.2	2	1
03/09/06	5:05 p	-19.7	-19.7	-19.7	---	---	4.3	ESE	0.07	6.1	-25.8	---	---	736.3	0.026	0.000	20.2	2	1
03/09/06	5:06 p	-19.8	-19.7	-19.8	---	---	4.3	ESE	0.07	6.1	-25.9	---	---	736.4	0.026	0.000	20.2	2	1
03/09/06	5:07 p	-19.8	-19.8	-19.8	---	---	5.2	E	0.09	7.0	-26.8	---	---	736.2	0.027	0.000	20.2	2	1
03/09/06	5:08 p	-19.8	-19.8	-19.8	---	---	5.2	E	0.09	6.1	-26.8	---	---	736.3	0.027	0.000	20.2	2	1
03/09/06	5:09 p	-19.8	-19.8	-19.8	---	---	5.2	E	0.09	6.1	-26.7	---	---	736.3	0.026	0.000	20.2	2	1
03/09/06	5:10 p	-19.7	-19.7	-19.8	---	---	6.1	E	0.10	7.8	-27.3	---	---	736.3	0.026	0.000	20.2	2	1
03/09/06	5:11 p	-19.7	-19.7	-19.7	---	---	3.5	E	0.06	5.2	-24.8	---	---	736.4	0.026	0.000	20.2	2	1
03/09/06	5:12 p	-19.7	-19.6	-19.7	---	---	4.3	E	0.07	6.1	-25.8	---	---	736.3	0.026	0.000	20.2	2	1
03/09/06	5:13 p	-19.7	-19.6	-19.7	---	---	5.2	E	0.09	7.8	-26.6	---	---	736.3	0.026	0.000	20.2	2	1
03/09/06	5:14 p	-19.6	-19.6	-19.6	---	---	5.2	E	0.09	7.0	-26.5	---	---	736.3	0.026	0.000	20.2	2	1
03/09/06	5:15 p	-19.6	-19.5	-19.6	---	---	6.1	E	0.10	7.8	-27.1	---	---	736.3	0.026	0.000	20.2	2	1
03/09/06	5:16 p	-19.5	-19.5	-19.6	---	---	6.1	E	0.10	7.0	-27.1	---	---	736.3	0.026	0.000	20.2	2	1
03/09/06	5:17 p	-19.5	-19.5	-19.5	---	---	6.1	E	0.10	7.8	-27.1	---	---	736.3	0.026	0.000	20.2	2	1
03/09/06	5:18 p	-19.6	-19.5	-19.6	---	---	5.2	E	0.09	7.0	-26.4	---	---	736.4	0.026	0.000	20.2	2	1
03/09/06	5:19 p	-19.5	-19.5	-19.5	---	---	5.2	E	0.09	6.1	-26.4	---	---	736.4	0.026	0.000	20.2	2	1
03/09/06	5:20 p	-19.5	-19.5	-19.5	---	---	6.1	E	0.10	7.8	-27.1	---	---	736.3	0.026	0.000	20.2	2	1
03/09/06	5:21 p	-19.5	-19.4	-19.5	---	---	4.3	E	0.07	7.0	-25.6	---	---	736.3	0.026	0.000	20.2	2	1
03/09/06	5:22 p	-19.4	-19.4	-19.4	---	---	6.1	E	0.10	7.8	-27.0	---	---	736.3	0.026	0.000	20.2	2	1
03/09/06	5:23 p	-19.4	-19.4	-19.4	---	---	5.2	E	0.09	8.7	-26.2	---	---	736.3	0.026	0.000	20.2	2	1
03/09/06	5:24 p	-19.4	-19.4	-19.4	---	---	6.1	E	0.10	7.8	-27.0	---	---	736.3	0.026	0.000	20.2	2	1
03/09/06	5:25 p	-19.4	-19.4	-19.4	---	---	6.1	E	0.10	7.8	-26.9	---	---	736.3	0.026	0.000	20.2	2	1
03/09/06	5:26 p	-19.3	-19.3	-19.4	---	---	4.3	E	0.07	7.0	-25.4	---	---	736.3	0.026	0.000	20.2	2	1
03/09/06	5:27 p	-19.4	-19.3	-19.4	---	---	6.1	E	0.10	7.8	-26.9	---	---	736.4	0.026	0.000	20.2	2	1
03/09/06	5:28 p	-19.4	-19.4	-19.4	---	---	5.2	E	0.09	7.8	-26.2	---	---	736.4	0.026	0.000	20.2	2	1
03/09/06	5:29 p	-19.4	-19.4	-19.5	---	---	7.0	E	0.12	7.8	-27.6	---	---	736.4	0.026	0.000	20.2	2	1
03/09/06	5:30 p	-19.5	-19.5	-19.5	---	---	7.0	E	0.12	7.8	-27.7	---	---	736.4	0.026	0.000	20.2	2	1
03/09/06	5:31 p	-19.5	-19.5	-19.6	---	---	6.1	E	0.10	7.8	-27.1	---	---	736.3	0.026	0.000	20.2	2	1
03/09/06	5:32 p	-19.6	-19.6	-19.6	---	---	6.1	E	0.10	8.7	-27.1	---	---	736.4	0.026	0.000	20.2	2	1
03/09/06	5:33 p	-19.5	-19.5	-19.6	---	---	6.1	E	0.10	8.7	-27.1	---	---	736.3	0.026	0.000	20.2	2	1
03/09/06	5:34 p	-19.5	-19.5	-19.5	---	---	6.1	E	0.10	7.0	-27.1	---	---	736.3	0.026	0.000	20.2	2	1
03/09/06	5:35 p	-19.5	-19.5	-19.6	---	---	6.1	E	0.10	7.8	-27.1	---	---	736.3	0.026	0.000	20.2	2	1
03/09/06	5:36 p	-19.5	-19.5	-19.6	---	---	6.1	E	0.10	7.8	-27.1	---	---	736.2	0.026	0.000	20.2	2	1
03/09/06	5:37 p	-19.5	-19.5	-19.5	---	---	7.0	E	0.12	7.8	-27.7	---	---	736.3	0.026	0.000	20.2	2	1
03/09/06	5:38 p	-19.5	-19.5	-19.5	---	---	7.0	E	0.12	8.7	-27.7	---	---	736.3	0.026	0.000	20.2	2	1
03/09/06	5:39 p	-19.4	-19.4	-19.5	---	---	7.0	E	0.12	8.7	-27.6	---	---	736.2	0.026	0.000	20.2	2	1
03/09/06	5:40 p	-19.4	-19.4	-19.4	---	---	7.0	E	0.12	8.7	-27.6	---	---	736.3	0.026	0.000	20.2	2	1
03/09/06	5:41 p	-19.3	-19.3	-19.3	---	---	7.0	E	0.12	8.7	-27.4	---	---	736.3	0.026	0.000	20.2	2	1
03/09/06	5:42 p	-19.3	-19.3	-19.3	---	---	7.0	E	0.12	8.7	-27.4	---	---	736.3	0.026	0.000	20.2	2	1
03/09/06	5:43 p	-19.3	-19.3	-19.3	---	---	7.0	E	0.12	7.8	-27.4	---	---	736.3	0.026	0.000	20.2	2	1
03/09/06	5:44 p	-19.3	-19.2	-19.3	---	---	7.0	E	0.12	7.8	-27.4	---	---	736.4	0.026	0.000	20.2	2	1
03/09/06	5:45 p	-19.2	-19.2	-19.3	---	---	7.0	E	0.12	9.6	-27.3	---	---	736.3	0.026	0.000	20.2	2	1
03/09/06	5:46 p	-19.3	-19.3	-19.3	---	---	7.8	E	0.13	8.7	-27.9	---	---	736.3	0.026	0.000	20.2	2	1
03/09/06	5:47 p	-19.3	-19.3	-19.3	---	---	6.1	E	0.10	7.8	-26.8	---	---	736.3	0.026	0.000	20.2	2	1
03/09/06	5:48 p	-19.3	-19.3	-19.4	---	---	7.0	E	0.12	8.7	-27.4	---	---	736.4	0.026	0.000	20.2	2	1
03/09/06	5:49 p	-19.4	-19.3	-19.4	---	---	7.0	E	0.12	7.8	-27.6	---	---	736.3	0.026	0.000	20.2	2	1
03/09/06	5:50 p	-19.3	-19.3	-19.3	---	---	7.8	E	0.13	9.6	-28.0	---	---	736.4	0.026	0.000	20.2	2	1
03/09/06	5:51 p	-19.3	-19.3	-19.3	---	---	7.8	E	0.13	8.7	-28.0	---	---	736.3	0.026	0.000	20.2	2	1
03/09/06	5:52 p	-19.3	-19.3	-19.4	---	---	8.7	E	0.14	10.4	-28.5	---	---	736.3	0.026	0.000	20.2	2	1
03/09/06	5:53 p	-19.4	-19.4	-19.4	---	---	7.8	E	0.13	9.6	-28.1	---	---	736.4	0.026	0.000	20.2	2	1
03/09/06	5:54 p	-19.4	-19.4	-19.5	---	---	9.6	E	0.16	11.3	-29.1	---	---	736.3	0.026	0.000	20.2	2	1
03/09/06	5:55 p	-19.4	-19.4	-19.4	---	---	8.7	E	0.14	10.4	-28.7	---	---	736.4	0.026	0.000	20.2	2	1
03/09/06	5:56 p	-19.4	-19.4	-19.4	---	---	8.7	E	0.14	10.4	-28.7	---	---	736.3	0.026	0.000	20.2	2	1
03/09/06	5:57 p	-19.4	-19.4	-19.4	---	---	7.8	E	0.13	10.4	-28.2	---	---	736.4	0.026	0.000	20.2	2	1
03/09/06	5:58 p	-19.4	-19.4	-19.4	---	---	7.0	E	0.12	8.7	-27.6	---	---	736.4	0.026	0.000	20.2	2	1
03/09/06	5:59 p	-19.4	-19.4	-19.4	---	---	7.0	E	0.12	8.7	-27.6	---	---	736.4	0.026	0.000	20.2	2	1
03/09/06	6:00 p	-19.4	-19.4	-19.4	---	---	7.0	E	0.12	8.7	-27.6	---	---	736.4	0.026	0.000	20.2	2	1
03/09/06	6:01 p	-19.4	-19.4	-19.4	---	---	7.8	E	0.13	8.7	-28.1	---	---	736.4	0.026	0.000	20.2	2	1
03/09/06	6:02 p	-19.4	-19.4	-19.4	---	---	8.7	E	0.14	9.6	-28.6	---	---	736.3	0.026	0.000	20.2	2	1
03/09/06	6:03 p	-19.4	-19.4	-19.4	---	---	8.7	E	0.14	10.4	-28.7	---	---	736.3	0.026	0.000	20.2	2	1
03/09/06	6:04 p	-19.4	-19.4	-19.4	---	---	8.7	E	0.14	9.6	-28.7	---	---	736.4	0.026	0.000	20.2	2	1
03/09/06	6:05 p	-19.4	-19.4	-19.4	---	---	9.6	E	0.16	10.4	-29.1	---	---	736.4	0.026	0.000	20.2	2	1
03/09/06	6:06 p	-19.4	-19.4	-19.4	---	---	8.7	E	0.14	11.3	-28.7	---	---	736.4	0.026	0.000	20.2	2	1
03/09/06	6:07 p	-19.4	-19.4	-19.4	---	---	8.7	E	0.14	9.6	-28.7	---	---	736.4	0.026	0.000	20.2	2	1
03/09/06	6:08 p	-19.4	-19.4	-19.4	---	---	8.7	E	0.14	11.3	-28.7	---	---	736.3	0.026	0.000	20.2	2	1
03/09/06	6:09 p	-19.4	-19.3	-19.4	---	---	8.7	E	0.14	9.6	-28.6	---	---	736.5	0.026	0.000	20.2	2	1
03/09/06	6:10 p	-19.3	-19.3	-19.3	---	---	7.0	ENE	0.12	7.8	-27.4	---	---	736.4	0.026	0.000	20.2	2	1
03/09/06	6:11 p	-19.2	-19.2	-19.2	---	---	8.7	E	0.14	9.6	-28.4	---	---	736.4	0.026	0.000	20.2	2	1
03/09/06	6:12 p	-19.1	-19.1	-19.1	---	---	9.6	E	0.16	10.4	-28.7	---	---	736.4	0.026	0.000	20.2	2	1
03/09/06	6:13 p	-19.1	-19.1	-19.2	---	---	9.6	E	0.16	11.3	-28.7	---	---	736.4	0.026	0.000	20.2	2	1
03/09/06	6:14 p	-19.1	-19.1	-19.1	---	---	8.7	E	0.14	10.4	-28.2	---	---	736.4	0.026	0.000	20.2	2	1
03/09/06	6:15 p	-18.9	-18.9	-19.0	---	---	8.7	E	0.14	9.6	-28.0	---	---	736.3	0.026	0.000	20.2	2	1
03/09/06	6:16 p	-18.8	-18.8	-18.8	---	---	8.7	E	0.14	9.6	-27.9	---	---	736.3	0.026	0.000	20.2	2	1
03/09/06	6:17 p	-18.7	-18.7	-18.7	---	---	8.7	E	0.14	10.4	-27.7	---	---	736.5	0.026	0.000	20.2	2	1
03/09/06	6:18 p	-18.7	-18.7	-18.7	---	---	8.7	E	0.14	10.4	-27.7	---	---	736.4	0.026	0.000	20.2	2	1
03/09/06	6:19 p	-18.7	-18.6	-18.7	---	---	7.8	E	0.13	9.6	-27.2	---	---	736.5	0.026	0.000	20.2	2	1
03/09/06	6:20 p	-18.7	-18.7	-18.7	---	---	7.8	E	0.13	8.7	-27.2	---	---	736.4	0.026	0.000	20.2	2	1
03/09/06	6:21 p	-18.6	-18.6	-18.7	---	---	7.0	E	0.12	9.6	-26.6	---	---	736.5	0.026	0.000	20.2	2	1
03/09/06	6:22 p	-18.5	-18.5	-18.6	---	---	6.1	E	0.10	7.8	-25.8	---	---	736.5	0.026	0.000	20.2	2	1
03/09/06	6:23 p	-18.4	-18.4	-18.4	---	---	6.1	E	0.10	7.8	-25.8	---	---	736.5	0.026	0.000	20.2	2	1
03/09/06	6:24 p	-18.3	-18.3	-18.4	---	---	5.2	E	0.09	7.0	-25.0	---	---	736.5	0.025	0.000	20.2	2	1
03/09/06	6:25 p	-18.3	-18.3	-18.3	---	---	5.2	E	0.09	6.1	-24.9	---	---	736.4	0.025	0.000	20.2	2	1
03/09/06	6:26 p	-18.3	-18.3	-18.3	---	---	6.1	ENE	0.10	7.0	-25.6	---	---	736.5	0.025	0.000	20.2	2	1
03/09/06	6:27 p	-18.3	-18.3	-18.3	---	---	6.1	E	0.10	8.7	-25.6	---	---	736.4	0.025	0.000	20.2	2	1
03/09/06	6:28 p	-18.3	-18.3	-18.3	---	---	7.0	E	0.12	9.6	-26.2	---	---	736.5	0.025	0.000	20.2	2	1
03/09/06	6:29 p	-18.3	-18.3	-18.3	---	---	7.8	E	0.13	10.4	-26.7	---	---	736.5	0.025	0.000	20.2	2	1
03/09/06	6:30 p	-18.3	-18.2	-18.3	---	---	7.0	E	0.12	8.7	-26.2	---	---	736.4	0.025	0.000	20.2	2	1
03/09/06	6:31 p	-18.2	-18.2	-18.3	---	---	6.1	E	0.10	7.0	-25.5	---	---	736.5	0.025	0.000	20.2	2	1
03/09/06	6:32 p	-18.2	-18.2	-18.2	---	---	6.1	E	0.10	7.8	-25.5	---	---	736.5	0.025	0.000	20.2	2	1
03/09/06	6:33 p	-18.2	-18.2	-18.2	---	---	6.1	E	0.10	7.0	-25.4	---	---	736.5	0.025	0.000	20.2	2	1
03/09/06	6:34 p	-18.2	-18.2	-18.2	---	---	7.0	E	0.12	7.8	-26.1	---	---	736.4	0.025	0.000	20.2	2	1
03/09/06	6:35 p	-18.2	-18.2	-18.2	---	---	5.2	E	0.09	7.0	-24.8	---	---	736.4	0.025	0.000	20.2	2	1
03/09/06	6:36 p	-18.2	-18.2	-18.2	---	---	5.2	E	0.09	7.0	-24.8	---	---	736.5	0.025	0.000	20.2	2	1
03/09/06	6:37 p	-18.2	-18.1	-18.2	---	---	6.1	E	0.10	7.0	-25.4	---	---	736.5	0.025	0.000	20.2	2	1
03/09/06	6:38 p	-18.1	-18.1	-18.1	---	---	5.2	E	0.09	6.1	-24.7	---	---	736.5	0.025	0.000	20.2	2	1
03/09/06	6:39 p	-18.1	-18.0	-18.1	---	---	5.2	E	0.09	6.1	-24.7	---	---	736.5	0.025	0.000	20.2	2	1
03/09/06	6:40 p	-18.0	-18.0	-18.1	---	---	5.2	E	0.09	6.1	-24.6	---	---	736.6	0.025	0.000	20.2	2	1
03/09/06	6:41 p	-17.9	-17.9	-18.0	---	---	5.2	E	0.09	6.1	-24.5	---	---	736.6	0.025	0.000	20.2	2	1
03/09/06	6:42 p	-17.9	-17.9	-17.9	---	---	5.2	E	0.09	6.1	-24.5	---	---	736.5	0.025	0.000	20.2	2	1
03/09/06	6:43 p	-17.9	-17.9	-17.9	---	---	4.3	E	0.07	6.1	-23.7	---	---	736.6	0.025	0.000	20.2	2	1
03/09/06	6:44 p	-17.9	-17.9	-17.9	---	---	4.3	E	0.07	6.1	-23.8	---	---	736.6	0.025	0.000	20.2	2	1
03/09/06	6:45 p	-17.9	-17.9	-17.9	---	---	5.2	E	0.09	7.0	-24.5	---	---	736.6	0.025	0.000	20.2	2	1
03/09/06	6:46 p	-18.0	-17.9	-18.1	---	---	7.0	E	0.12	8.7	-25.8	---	---	736.5	0.025	0.000	20.2	2	1
03/09/06	6:47 p	-18.1	-18.1	-18.3	---	---	7.8	E	0.13	8.7	-26.5	---	---	736.5	0.025	0.000	20.2	2	1
03/09/06	6:48 p	-18.4	-18.3	-18.5	---	---	7.8	E	0.13	8.7	-26.8	---	---	736.6	0.026	0.000	20.2	2	1
03/09/06	6:49 p	-18.7	-18.6	-18.7	---	---	8.7	E	0.14	9.6	-27.7	---	---	736.5	0.026	0.000	20.2	2	1
03/09/06	6:50 p	-18.8	-18.7	-18.9	---	---	7.8	E	0.13	9.6	-27.4	---	---	736.5	0.026	0.000	20.2	2	1
03/09/06	6:51 p	-18.9	-18.9	-18.9	---	---	7.8	ENE	0.13	8.7	-27.4	---	---	736.5	0.026	0.000	20.2	2	1
03/09/06	6:52 p	-18.9	-18.9	-18.9	---	---	7.8	ENE	0.13	8.7	-27.6	---	---	736.5	0.026	0.000	20.2	2	1
03/09/06	6:53 p	-18.9	-18.9	-18.9	---	---	7.8	ENE	0.13	8.7	-27.6	---	---	736.5	0.026	0.000	20.2	2	1
03/09/06	6:54 p	-18.9	-18.9	-18.9	---	---	7.8	ENE	0.13	8.7	-27.6	---	---	736.5	0.026	0.000	20.2	2	1
03/09/06	6:55 p	-18.9	-18.8	-18.9	---	---	7.8	E	0.13	8.7	-27.4	---	---	736.6	0.026	0.000	20.2	2	1
03/09/06	6:56 p	-18.8	-18.8	-18.8	---	---	7.8	ENE	0.13	8.7	-27.4	---	---	736.5	0.026	0.000	20.2	2	1
03/09/06	6:57 p	-18.8	-18.8	-18.8	---	---	7.8	ENE	0.13	8.7	-27.3	---	---	736.5	0.026	0.000	20.2	2	1
03/09/06	6:58 p	-18.8	-18.8	-18.8	---	---	8.7	ENE	0.14	9.6	-27.8	---	---	736.6	0.026	0.000	20.2	2	1
03/09/06	6:59 p	-18.8	-18.8	-18.8	---	---	8.7	ENE	0.14	8.7	-27.8	---	---	736.4	0.026	0.000	20.3	2	1
03/09/06	7:00 p	-18.8	-18.8	-18.8	---	---	8.7	ENE	0.14	9.6	-27.9	---	---	736.5	0.026	0.000	20.2	2	1
03/09/06	7:01 p	-18.8	-18.8	-18.8	---	---	8.7	ENE	0.14	9.6	-27.9	---	---	736.5	0.026	0.000	20.2	2	1
03/09/06	7:02 p	-18.8	-18.8	-18.8	---	---	8.7	ENE	0.14	9.6	-27.9	---	---	736.4	0.026	0.000	20.2	2	1
03/09/06	7:03 p	-18.8	-18.8	-18.8	---	---	8.7	ENE	0.14	9.6	-27.9	---	---	736.4	0.026	0.000	20.2	2	1
03/09/06	7:04 p	-18.8	-18.8	-18.8	---	---	8.7	ENE	0.14	9.6	-27.8	---	---	736.5	0.026	0.000	20.2	2	1
03/09/06	7:05 p	-18.7	-18.7	-18.8	---	---	8.7	E	0.14	9.6	-27.7	---	---	736.5	0.026	0.000	20.2	2	1
03/09/06	7:06 p	-18.7	-18.6	-18.7	---	---	8.7	E	0.14	9.6	-27.7	---	---	736.5	0.026	0.000	20.2	2	1
03/09/06	7:07 p	-18.6	-18.6	-18.6	---	---	7.8	E	0.13	9.6	-27.1	---	---	736.5	0.026	0.000	20.2	2	1
03/09/06	7:08 p	-18.5	-18.4	-18.6	---	---	7.8	E	0.13	9.6	-27.0	---	---	736.5	0.026	0.000	20.2	2	1
03/09/06	7:09 p	-18.4	-18.4	-18.4	---	---	8.7	E	0.14	9.6	-27.3	---	---	736.6	0.026	0.000	20.2	2	1
03/09/06	7:10 p	-18.3	-18.3	-18.4	---	---	7.0	E	0.12	8.7	-26.2	---	---	736.6	0.025	0.000	20.2	2	1
03/09/06	7:11 p	-18.3	-18.3	-18.3	---	---	7.0	E	0.12	7.8	-26.2	---	---	736.6	0.025	0.000	20.2	2	1
03/09/06	7:12 p	-18.3	-18.3	-18.3	---	---	7.0	E	0.12	7.8	-26.2	---	---	736.6	0.025	0.000	20.2	2	1
03/09/06	7:13 p	-18.3	-18.3	-18.3	---	---	7.0	E	0.12	7.8	-26.2	---	---	736.6	0.025	0.000	20.2	2	1
03/09/06	7:14 p	-18.3	-18.3	-18.3	---	---	7.0	E	0.12	7.8	-26.2	---	---	736.5	0.025	0.000	20.2	2	1
03/09/06	7:15 p	-18.3	-18.3	-18.3	---	---	6.1	E	0.10	7.8	-25.6	---	---	736.5	0.025	0.000	20.2	2	1
03/09/06	7:16 p	-18.3	-18.3	-18.3	---	---	7.8	E	0.13	8.7	-26.7	---	---	736.6	0.025	0.000	20.2	2	1
03/09/06	7:17 p	-18.3	-18.2	-18.3	---	---	7.0	E	0.12	8.7	-26.2	---	---	736.7	0.025	0.000	20.2	2	1
03/09/06	7:18 p	-18.3	-18.2	-18.3	---	---	7.8	E	0.13	8.7	-26.7	---	---	736.6	0.025	0.000	20.2	2	1
03/09/06	7:19 p	-18.3	-18.3	-18.3	---	---	7.8	ENE	0.13	8.7	-26.7	---	---	736.5	0.025	0.000	20.2	2	1
03/09/06	7:20 p	-18.3	-18.2	-18.3	---	---	7.0	E	0.12	8.7	-26.2	---	---	736.5	0.025	0.000	20.2	2	1
03/09/06	7:21 p	-18.3	-18.3	-18.3	---	---	7.8	E	0.13	8.7	-26.7	---	---	736.5	0.025	0.000	20.2	2	1
03/09/06	7:22 p	-18.3	-18.3	-18.3	---	---	7.8	E	0.13	8.7	-26.7	---	---	736.5	0.025	0.000	20.2	2	1
03/09/06	7:23 p	-18.3	-18.2	-18.3	---	---	7.8	E	0.13	8.7	-26.7	---	---	736.6	0.025	0.000	20.2	2	1
03/09/06	7:24 p	-18.3	-18.2	-18.3	---	---	7.0	ENE	0.12	7.8	-26.2	---	---	736.5	0.025	0.000	20.2	2	1
03/09/06	7:25 p	-18.3	-18.2	-18.3	---	---	7.8	E	0.13	7.8	-26.7	---	---	736.5	0.025	0.000	20.2	2	1
03/09/06	7:26 p	-18.3	-18.2	-18.3	---	---	6.1	E	0.10	8.7	-25.6	---	---	736.5	0.025	0.000	20.2	2	1
03/09/06	7:27 p	-18.3	-18.3	-18.3	---	---	7.0	E	0.12	8.7	-26.2	---	---	736.6	0.025	0.000	20.2	2	1
03/09/06	7:28 p	-18.3	-18.3	-18.3	---	---	7.0	E	0.12	8.7	-26.2	---	---	736.5	0.025	0.000	20.2	2	1
03/09/06	7:29 p	-18.3	-18.3	-18.3	---	---	7.0	E	0.12	9.6	-26.2	---	---	736.6	0.025	0.000	20.2	2	1
03/09/06	7:30 p	-18.4	-18.3	-18.4	---	---	6.1	E	0.10	7.8	-25.7	---	---	736.6	0.026	0.000	20.2	2	1
03/09/06	7:31 p	-18.4	-18.4	-18.6	---	---	7.8	E	0.13	8.7	-26.9	---	---	736.5	0.026	0.000	20.2	2	1
03/09/06	7:32 p	-18.6	-18.6	-18.7	---	---	7.8	E	0.13	9.6	-27.1	---	---	736.5	0.026	0.000	20.2	2	1
03/09/06	7:33 p	-18.7	-18.7	-18.7	---	---	7.8	E	0.13	8.7	-27.2	---	---	736.6	0.026	0.000	20.2	2	1
03/09/06	7:34 p	-18.8	-18.7	-18.8	---	---	7.8	E	0.13	10.4	-27.3	---	---	736.6	0.026	0.000	20.2	2	1
03/09/06	7:35 p	-18.8	-18.8	-18.8	---	---	8.7	E	0.14	9.6	-27.8	---	---	736.6	0.026	0.000	20.2	2	1
03/09/06	7:36 p	-18.8	-18.8	-18.8	---	---	7.8	E	0.13	9.6	-27.4	---	---	736.6	0.026	0.000	20.2	2	1
03/09/06	7:37 p	-18.8	-18.8	-18.8	---	---	7.8	E	0.13	8.7	-27.4	---	---	736.6	0.026	0.000	20.2	2	1
03/09/06	7:38 p	-18.7	-18.7	-18.8	---	---	7.0	E	0.12	8.7	-26.7	---	---	736.5	0.026	0.000	20.2	2	1
03/09/06	7:39 p	-18.7	-18.7	-18.7	---	---	7.0	E	0.12	7.8	-26.7	---	---	736.6	0.026	0.000	20.3	2	1
03/09/06	7:40 p	-18.7	-18.7	-18.7	---	---	7.0	E	0.12	8.7	-26.7	---	---	736.6	0.026	0.000	20.2	2	1
03/09/06	7:41 p	-18.7	-18.6	-18.7	---	---	7.0	E	0.12	7.8	-26.7	---	---	736.6	0.026	0.000	20.2	3	1
03/09/06	7:42 p	-18.7	-18.7	-18.7	---	---	7.8	E	0.13	8.7	-27.2	---	---	736.6	0.026	0.000	20.2	2	1
03/09/06	7:43 p	-18.7	-18.7	-18.7	---	---	8.7	ESE	0.14	9.6	-27.7	---	---	736.6	0.026	0.000	20.2	2	1
03/09/06	7:44 p	-18.7	-18.7	-18.7	---	---	7.8	E	0.13	9.6	-27.3	---	---	736.6	0.026	0.000	20.3	2	1
03/09/06	7:45 p	-18.7	-18.7	-18.7	---	---	7.0	E	0.12	8.7	-26.7	---	---	736.6	0.026	0.000	20.2	2	1
03/09/06	7:46 p	-18.7	-18.7	-18.7	---	---	7.0	E	0.12	8.7	-26.7	---	---	736.6	0.026	0.000	20.2	2	1
03/09/06	7:47 p	-18.8	-18.7	-18.8	---	---	7.0	E	0.12	8.7	-26.8	---	---	736.6	0.026	0.000	20.3	2	1
03/09/06	7:48 p	-18.8	-18.7	-18.8	---	---	6.1	E	0.10	8.7	-26.2	---	---	736.7	0.026	0.000	20.3	2	1
03/09/06	7:49 p	-18.7	-18.7	-18.8	---	---	6.1	E	0.10	7.8	-26.1	---	---	736.6	0.026	0.000	20.3	3	1
03/09/06	7:50 p	-18.7	-18.7	-18.7	---	---	6.1	E	0.10	7.8	-26.1	---	---	736.6	0.026	0.000	20.3	3	1
03/09/06	7:51 p	-18.7	-18.7	-18.7	---	---	7.8	ESE	0.13	8.7	-27.2	---	---	736.6	0.026	0.000	20.3	3	1
03/09/06	7:52 p	-18.6	-18.6	-18.6	---	---	7.0	ESE	0.12	8.7	-26.6	---	---	736.6	0.026	0.000	20.3	3	1
03/09/06	7:53 p	-18.6	-18.6	-18.6	---	---	7.8	ESE	0.13	8.7	-27.1	---	---	736.7	0.026	0.000	20.3	3	1
03/09/06	7:54 p	-18.4	-18.4	-18.6	---	---	8.7	ESE	0.14	10.4	-27.4	---	---	736.7	0.026	0.000	20.3	3	1
03/09/06	7:55 p	-18.4	-18.4	-18.4	---	---	7.8	ESE	0.13	8.7	-26.9	---	---	736.7	0.026	0.000	20.3	3	1
03/09/06	7:56 p	-18.3	-18.3	-18.4	---	---	8.7	ESE	0.14	9.6	-27.3	---	---	736.7	0.025	0.000	20.3	3	1
03/09/06	7:57 p	-18.3	-18.3	-18.3	---	---	7.8	SE	0.13	8.7	-26.8	---	---	736.7	0.025	0.000	20.3	3	1
03/09/06	7:58 p	-18.3	-18.3	-18.3	---	---	5.2	SE	0.09	7.0	-24.9	---	---	736.8	0.025	0.000	20.3	3	1
03/09/06	7:59 p	-18.3	-18.2	-18.3	---	---	6.1	SE	0.10	7.0	-25.6	---	---	736.7	0.025	0.000	20.3	3	1
03/09/06	8:00 p	-18.2	-18.2	-18.2	---	---	5.2	SE	0.09	6.1	-24.8	---	---	736.8	0.025	0.000	20.3	3	1
03/09/06	8:01 p	-18.2	-18.2	-18.2	---	---	5.2	SE	0.09	6.1	-24.8	---	---	736.7	0.025	0.000	20.3	3	1
03/09/06	8:02 p	-18.2	-18.2	-18.2	---	---	6.1	SE	0.10	7.0	-25.5	---	---	736.7	0.025	0.000	20.3	3	1
03/09/06	8:03 p	-18.2	-18.2	-18.2	---	---	6.1	SE	0.10	7.0	-25.4	---	---	736.8	0.025	0.000	20.3	3	1
03/09/06	8:04 p	-18.1	-18.1	-18.2	---	---	7.0	SE	0.12	8.7	-26.0	---	---	736.8	0.025	0.000	20.3	3	1
03/09/06	8:05 p	-18.1	-18.1	-18.1	---	---	7.0	SE	0.12	7.8	-26.0	---	---	736.8	0.025	0.000	20.4	3	1
03/09/06	8:06 p	-18.0	-17.9	-18.1	---	---	6.1	SE	0.10	7.8	-25.3	---	---	736.8	0.025	0.000	20.4	3	1
03/09/06	8:07 p	-17.9	-17.8	-17.9	---	---	6.1	SE	0.10	7.0	-25.1	---	---	736.8	0.025	0.000	20.4	3	1
03/09/06	8:08 p	-17.8	-17.8	-17.8	---	---	5.2	ESE	0.09	6.1	-24.4	---	---	736.7	0.025	0.000	20.4	3	1
03/09/06	8:09 p	-17.8	-17.7	-17.8	---	---	5.2	SE	0.09	6.1	-24.3	---	---	736.7	0.025	0.000	20.4	3	1
03/09/06	8:10 p	-17.7	-17.7	-17.7	---	---	5.2	SSE	0.09	7.0	-24.3	---	---	736.7	0.025	0.000	20.4	3	1
03/09/06	8:11 p	-17.7	-17.6	-17.7	---	---	6.1	SE	0.10	7.8	-24.8	---	---	736.8	0.025	0.000	20.4	3	1
03/09/06	8:12 p	-17.6	-17.6	-17.6	---	---	6.1	SE	0.10	7.8	-24.7	---	---	736.8	0.025	0.000	20.4	3	1
03/09/06	8:13 p	-17.6	-17.6	-17.6	---	---	4.3	E	0.07	6.1	-23.3	---	---	736.8	0.025	0.000	20.4	3	1
03/09/06	8:14 p	-17.6	-17.6	-17.6	---	---	5.2	E	0.09	7.8	-24.1	---	---	736.8	0.025	0.000	20.4	3	1
03/09/06	8:15 p	-17.7	-17.6	-17.7	---	---	7.0	E	0.12	7.8	-25.4	---	---	736.7	0.025	0.000	20.4	3	1
03/09/06	8:16 p	-17.8	-17.7	-17.8	---	---	7.0	E	0.12	8.7	-25.6	---	---	736.7	0.025	0.000	20.4	3	1
03/09/06	8:17 p	-17.9	-17.8	-17.9	---	---	6.1	E	0.10	7.0	-25.1	---	---	736.7	0.025	0.000	20.4	3	1
03/09/06	8:18 p	-17.9	-17.9	-17.9	---	---	6.1	ENE	0.10	7.0	-25.1	---	---	736.6	0.025	0.000	20.4	3	1
03/09/06	8:19 p	-17.9	-17.9	-17.9	---	---	6.1	E	0.10	8.7	-25.1	---	---	736.7	0.025	0.000	20.4	3	1
03/09/06	8:20 p	-17.9	-17.9	-17.9	---	---	4.3	E	0.07	6.1	-23.8	---	---	736.8	0.025	0.000	20.4	3	1
03/09/06	8:21 p	-17.9	-17.8	-17.9	---	---	6.1	ENE	0.10	7.8	-25.1	---	---	736.7	0.025	0.000	20.4	3	1
03/09/06	8:22 p	-17.8	-17.8	-17.8	---	---	6.1	ENE	0.10	7.8	-25.0	---	---	736.7	0.025	0.000	20.4	3	1
03/09/06	8:23 p	-17.8	-17.8	-17.8	---	---	6.1	E	0.10	7.0	-25.0	---	---	736.8	0.025	0.000	20.4	3	1
03/09/06	8:24 p	-17.8	-17.8	-17.8	---	---	6.1	E	0.10	7.8	-25.0	---	---	736.8	0.025	0.000	20.5	3	1
03/09/06	8:25 p	-17.8	-17.8	-17.8	---	---	6.1	ENE	0.10	7.8	-25.0	---	---	736.7	0.025	0.000	20.5	3	1
03/09/06	8:26 p	-17.8	-17.8	-17.8	---	---	7.0	ENE	0.12	8.7	-25.6	---	---	736.7	0.025	0.000	20.5	3	1
03/09/06	8:27 p	-17.8	-17.8	-17.8	---	---	6.1	ENE	0.10	7.0	-25.1	---	---	736.7	0.025	0.000	20.5	3	1
03/09/06	8:28 p	-17.8	-17.8	-17.8	---	---	6.1	ENE	0.10	6.1	-25.1	---	---	736.7	0.025	0.000	20.6	3	1
03/09/06	8:29 p	-17.8	-17.8	-17.8	---	---	6.1	E	0.10	7.0	-25.1	---	---	736.7	0.025	0.000	20.6	3	1
03/09/06	8:30 p	-17.8	-17.8	-17.8	---	---	6.1	ENE	0.10	6.1	-25.1	---	---	736.7	0.025	0.000	20.6	3	1
03/09/06	8:31 p	-17.8	-17.8	-17.8	---	---	7.0	ENE	0.12	7.8	-25.6	---	---	736.8	0.025	0.000	20.6	3	1
03/09/06	8:32 p	-17.8	-17.8	-17.8	---	---	7.0	ENE	0.12	7.8	-25.6	---	---	736.8	0.025	0.000	20.6	3	1
03/09/06	8:33 p	-17.8	-17.8	-17.8	---	---	6.1	ENE	0.10	7.8	-25.1	---	---	736.8	0.025	0.000	20.6	3	1
03/09/06	8:34 p	-17.8	-17.8	-17.8	---	---	7.0	ENE	0.12	7.8	-25.6	---	---	736.7	0.025	0.000	20.6	3	1
03/09/06	8:35 p	-17.8	-17.8	-17.8	---	---	7.0	ENE	0.12	7.8	-25.6	---	---	736.8	0.025	0.000	20.6	3	1
03/09/06	8:36 p	-17.7	-17.7	-17.7	---	---	7.8	ENE	0.13	8.7	-26.0	---	---	736.8	0.025	0.000	20.6	3	1
03/09/06	8:37 p	-17.7	-17.6	-17.7	---	---	7.0	ENE	0.12	8.7	-25.4	---	---	736.8	0.025	0.000	20.6	3	1
03/09/06	8:38 p	-17.7	-17.6	-17.7	---	---	7.8	E	0.13	9.6	-25.9	---	---	736.8	0.025	0.000	20.6	3	1
03/09/06	8:39 p	-17.7	-17.7	-17.8	---	---	7.8	E	0.13	9.6	-26.0	---	---	736.8	0.025	0.000	20.6	3	1
03/09/06	8:40 p	-17.8	-17.8	-17.9	---	---	8.7	E	0.14	10.4	-26.7	---	---	736.8	0.025	0.000	20.6	3	1
03/09/06	8:41 p	-17.9	-17.9	-17.9	---	---	8.7	E	0.14	9.6	-26.8	---	---	736.7	0.025	0.000	20.6	3	1
03/09/06	8:42 p	-17.9	-17.9	-17.9	---	---	8.7	ENE	0.14	8.7	-26.7	---	---	736.7	0.025	0.000	20.6	3	1
03/09/06	8:43 p	-17.9	-17.8	-17.9	---	---	8.7	E	0.14	10.4	-26.7	---	---	736.7	0.025	0.000	20.6	3	1
03/09/06	8:44 p	-17.8	-17.8	-17.8	---	---	6.1	ENE	0.10	7.8	-25.1	---	---	736.7	0.025	0.000	20.7	3	1
03/09/06	8:45 p	-17.8	-17.7	-17.8	---	---	7.0	ENE	0.12	7.8	-25.6	---	---	736.7	0.025	0.000	20.7	3	1
03/09/06	8:46 p	-17.7	-17.7	-17.7	---	---	7.8	ENE	0.13	8.7	-26.0	---	---	736.6	0.025	0.000	20.7	3	1
03/09/06	8:47 p	-17.7	-17.6	-17.7	---	---	7.8	ENE	0.13	8.7	-25.9	---	---	736.6	0.025	0.000	20.7	3	1
03/09/06	8:48 p	-17.6	-17.5	-17.6	---	---	7.8	ENE	0.13	8.7	-25.8	---	---	736.5	0.025	0.000	20.7	3	1
03/09/06	8:49 p	-17.5	-17.5	-17.5	---	---	7.8	ENE	0.13	9.6	-25.8	---	---	736.6	0.025	0.000	20.7	3	1
03/09/06	8:50 p	-17.4	-17.4	-17.5	---	---	7.8	ENE	0.13	9.6	-25.7	---	---	736.6	0.025	0.000	20.7	3	1
03/09/06	8:51 p	-17.3	-17.3	-17.4	---	---	7.8	E	0.13	9.6	-25.6	---	---	736.6	0.025	0.000	20.7	3	1
03/09/06	8:52 p	-17.3	-17.3	-17.3	---	---	7.8	E	0.13	9.6	-25.6	---	---	736.7	0.025	0.000	20.7	3	1
03/09/06	8:53 p	-17.3	-17.2	-17.3	---	---	7.8	ESE	0.13	9.6	-25.5	---	---	736.5	0.025	0.000	20.7	3	1
03/09/06	8:54 p	-17.2	-17.1	-17.2	---	---	7.8	ESE	0.13	9.6	-25.3	---	---	736.6	0.025	0.000	20.7	3	1
03/09/06	8:55 p	-17.1	-17.0	-17.1	---	---	8.7	ESE	0.14	10.4	-25.7	---	---	736.6	0.025	0.000	20.7	3	1
03/09/06	8:56 p	-17.0	-16.9	-17.0	---	---	7.8	ESE	0.13	9.6	-25.1	---	---	736.7	0.025	0.000	20.7	3	1
03/09/06	8:57 p	-16.9	-16.9	-16.9	---	---	8.7	ESE	0.14	11.3	-25.6	---	---	736.6	0.024	0.000	20.7	3	1
03/09/06	8:58 p	-16.9	-16.8	-16.9	---	---	8.7	SE	0.14	10.4	-25.5	---	---	736.5	0.024	0.000	20.7	3	1
03/09/06	8:59 p	-16.7	-16.7	-16.7	---	---	8.7	SE	0.14	9.6	-25.3	---	---	736.6	0.024	0.000	20.7	3	1
03/09/06	9:00 p	-16.6	-16.6	-16.7	---	---	7.0	SE	0.12	8.7	-24.2	---	---	736.7	0.024	0.000	20.7	3	1
03/09/06	9:01 p	-16.6	-16.5	-16.6	---	---	7.8	ESE	0.13	8.7	-24.6	---	---	736.8	0.024	0.000	20.7	3	1
03/09/06	9:02 p	-16.5	-16.5	-16.5	---	---	7.8	ESE	0.13	8.7	-24.5	---	---	736.6	0.024	0.000	20.7	3	1
03/09/06	9:03 p	-16.5	-16.5	-16.5	---	---	7.8	SE	0.13	9.6	-24.5	---	---	736.7	0.024	0.000	20.7	3	1
03/09/06	9:04 p	-16.4	-16.4	-16.4	---	---	8.7	SE	0.14	10.4	-24.9	---	---	736.6	0.024	0.000	20.7	3	1
03/09/06	9:05 p	-16.4	-16.4	-16.4	---	---	9.6	SE	0.16	10.4	-25.3	---	---	736.7	0.024	0.000	20.7	3	1
03/09/06	9:06 p	-16.4	-16.4	-16.4	---	---	9.6	SE	0.16	10.4	-25.3	---	---	736.7	0.024	0.000	20.7	3	1
03/09/06	9:07 p	-16.4	-16.4	-16.4	---	---	10.4	SE	0.17	11.3	-25.7	---	---	736.6	0.024	0.000	20.7	3	1
03/09/06	9:08 p	-16.3	-16.3	-16.3	---	---	12.2	SE	0.20	13.9	-26.3	---	---	736.7	0.024	0.000	20.7	3	1
03/09/06	9:09 p	-16.3	-16.3	-16.3	---	---	11.3	SE	0.19	13.0	-26.0	---	---	736.7	0.024	0.000	20.8	3	1
03/09/06	9:10 p	-16.3	-16.3	-16.3	---	---	11.3	SE	0.19	12.2	-25.9	---	---	736.8	0.024	0.000	20.8	3	1
03/09/06	9:11 p	-16.3	-16.3	-16.3	---	---	11.3	ESE	0.19	13.9	-25.9	---	---	736.7	0.024	0.000	20.8	3	1
03/09/06	9:12 p	-16.3	-16.3	-16.4	---	---	13.0	ESE	0.22	15.7	-26.7	---	---	736.6	0.024	0.000	20.8	3	1
03/09/06	9:13 p	-16.4	-16.4	-16.4	---	---	13.9	ESE	0.23	14.8	-27.1	---	---	736.6	0.024	0.000	20.8	3	1
03/09/06	9:14 p	-16.4	-16.4	-16.5	---	---	12.2	ESE	0.20	15.7	-26.4	---	---	736.6	0.024	0.000	20.8	3	1
03/09/06	9:15 p	-16.4	-16.4	-16.4	---	---	11.3	ESE	0.19	13.9	-26.1	---	---	736.6	0.024	0.000	20.8	3	1
03/09/06	9:16 p	-16.5	-16.5	-16.6	---	---	11.3	ESE	0.19	13.0	-26.2	---	---	736.7	0.024	0.000	20.8	3	1
03/09/06	9:17 p	-16.6	-16.6	-16.6	---	---	12.2	ESE	0.20	13.0	-26.6	---	---	736.6	0.024	0.000	20.8	3	1
03/09/06	9:18 p	-16.6	-16.6	-16.7	---	---	12.2	ESE	0.20	13.9	-26.7	---	---	736.7	0.024	0.000	20.8	3	1
03/09/06	9:19 p	-16.7	-16.7	-16.7	---	---	11.3	ESE	0.19	13.0	-26.4	---	---	736.6	0.024	0.000	20.8	3	1
03/09/06	9:20 p	-16.7	-16.7	-16.7	---	---	13.0	ESE	0.22	14.8	-27.2	---	---	736.6	0.024	0.000	20.8	3	1
03/09/06	9:21 p	-16.7	-16.7	-16.7	---	---	12.2	ESE	0.20	13.0	-26.8	---	---	736.6	0.024	0.000	20.8	3	1
03/09/06	9:22 p	-16.7	-16.7	-16.7	---	---	13.0	ESE	0.22	13.9	-27.1	---	---	736.6	0.024	0.000	20.8	3	1
03/09/06	9:23 p	-16.7	-16.7	-16.7	---	---	12.2	ESE	0.20	13.9	-26.7	---	---	736.7	0.024	0.000	20.8	3	1
03/09/06	9:24 p	-16.7	-16.7	-16.7	---	---	13.0	ESE	0.22	14.8	-27.1	---	---	736.7	0.024	0.000	20.8	3	1
03/09/06	9:25 p	-16.6	-16.6	-16.6	---	---	12.2	ESE	0.20	13.9	-26.7	---	---	736.8	0.024	0.000	20.8	3	1
03/09/06	9:26 p	-16.6	-16.6	-16.6	---	---	12.2	ESE	0.20	13.0	-26.7	---	---	736.7	0.024	0.000	20.8	3	1
03/09/06	9:27 p	-16.6	-16.6	-16.6	---	---	13.0	E	0.22	14.8	-26.9	---	---	736.6	0.024	0.000	20.8	3	1
03/09/06	9:28 p	-16.6	-16.6	-16.6	---	---	13.9	ESE	0.23	17.4	-27.2	---	---	736.7	0.024	0.000	20.8	3	1
03/09/06	9:29 p	-16.5	-16.4	-16.5	---	---	13.0	ESE	0.22	14.8	-26.9	---	---	736.7	0.024	0.000	20.8	3	1
03/09/06	9:30 p	-16.4	-16.4	-16.4	---	---	11.3	ESE	0.19	13.0	-26.1	---	---	736.7	0.024	0.000	20.8	3	1
03/09/06	9:31 p	-16.4	-16.4	-16.4	---	---	11.3	ESE	0.19	13.0	-26.1	---	---	736.8	0.024	0.000	20.8	3	1
03/09/06	9:32 p	-16.3	-16.3	-16.4	---	---	11.3	E	0.19	13.0	-26.0	---	---	736.7	0.024	0.000	20.8	3	1
03/09/06	9:33 p	-16.3	-16.3	-16.3	---	---	12.2	ESE	0.20	14.8	-26.3	---	---	736.7	0.024	0.000	20.8	3	1
03/09/06	9:34 p	-16.3	-16.3	-16.3	---	---	12.2	E	0.20	14.8	-26.3	---	---	736.6	0.024	0.000	20.8	3	1
03/09/06	9:35 p	-16.3	-16.3	-16.3	---	---	12.2	E	0.20	13.9	-26.3	---	---	736.7	0.024	0.000	20.8	3	1
03/09/06	9:36 p	-16.3	-16.3	-16.3	---	---	12.2	E	0.20	14.8	-26.3	---	---	736.7	0.024	0.000	20.8	3	1
03/09/06	9:37 p	-16.3	-16.3	-16.4	---	---	13.0	ESE	0.22	13.9	-26.7	---	---	736.7	0.024	0.000	20.8	3	1
03/09/06	9:38 p	-16.3	-16.3	-16.4	---	---	11.3	E	0.19	13.9	-26.0	---	---	736.7	0.024	0.000	20.8	3	1
03/09/06	9:39 p	-16.3	-16.3	-16.3	---	---	12.2	E	0.20	16.5	-26.3	---	---	736.7	0.024	0.000	20.8	4	1
03/09/06	9:40 p	-16.3	-16.3	-16.4	---	---	12.2	E	0.20	14.8	-26.3	---	---	736.6	0.024	0.000	20.8	4	1
03/09/06	9:41 p	-16.4	-16.4	-16.4	---	---	13.0	ESE	0.22	13.9	-26.8	---	---	736.6	0.024	0.000	20.8	4	1
03/09/06	9:42 p	-16.4	-16.4	-16.4	---	---	12.2	ESE	0.20	14.8	-26.4	---	---	736.6	0.024	0.000	20.8	4	1
03/09/06	9:43 p	-16.4	-16.4	-16.4	---	---	13.9	ESE	0.23	17.4	-27.1	---	---	736.7	0.024	0.000	20.8	4	1
03/09/06	9:44 p	-16.4	-16.4	-16.4	---	---	12.2	E	0.20	13.9	-26.4	---	---	736.7	0.024	0.000	20.8	4	1
03/09/06	9:45 p	-16.4	-16.4	-16.4	---	---	10.4	E	0.17	12.2	-25.7	---	---	736.6	0.024	0.000	20.8	4	1
03/09/06	9:46 p	-16.4	-16.4	-16.4	---	---	11.3	E	0.19	12.2	-26.1	---	---	736.6	0.024	0.000	20.8	4	1
03/09/06	9:47 p	-16.4	-16.4	-16.4	---	---	10.4	ESE	0.17	13.0	-25.7	---	---	736.7	0.024	0.000	20.8	4	1
03/09/06	9:48 p	-16.4	-16.3	-16.4	---	---	9.6	ESE	0.16	11.3	-25.3	---	---	736.6	0.024	0.000	20.8	4	1
03/09/06	9:49 p	-16.3	-16.3	-16.3	---	---	8.7	E	0.14	11.3	-24.8	---	---	736.7	0.024	0.000	20.8	4	1
03/09/06	9:50 p	-16.3	-16.2	-16.3	---	---	11.3	ESE	0.19	13.0	-25.9	---	---	736.7	0.024	0.000	20.8	4	1
03/09/06	9:51 p	-16.2	-16.2	-16.2	---	---	11.3	ESE	0.19	12.2	-25.8	---	---	736.7	0.024	0.000	20.8	4	1
03/09/06	9:52 p	-16.2	-16.2	-16.2	---	---	9.6	SE	0.16	10.4	-25.1	---	---	736.8	0.024	0.000	20.8	4	1
03/09/06	9:53 p	-16.2	-16.2	-16.2	---	---	8.7	SE	0.14	11.3	-24.6	---	---	736.6	0.024	0.000	20.8	5	1
03/09/06	9:54 p	-16.2	-16.2	-16.2	---	---	8.7	SE	0.14	11.3	-24.7	---	---	736.6	0.024	0.000	20.8	5	1
03/09/06	9:55 p	-16.2	-16.2	-16.2	---	---	9.6	SE	0.16	13.0	-25.0	---	---	736.6	0.024	0.000	20.8	5	1
03/09/06	9:56 p	-16.1	-16.1	-16.1	---	---	10.4	SE	0.17	12.2	-25.3	---	---	736.6	0.024	0.000	20.8	5	1
03/09/06	9:57 p	-16.0	-16.0	-16.1	---	---	9.6	SE	0.16	10.4	-24.8	---	---	736.6	0.024	0.000	20.8	5	1
03/09/06	9:58 p	-16.0	-16.0	-16.0	---	---	9.6	SE	0.16	10.4	-24.8	---	---	736.6	0.024	0.000	20.8	5	1
03/09/06	9:59 p	-15.9	-15.9	-15.9	---	---	10.4	SE	0.17	13.0	-25.1	---	---	736.6	0.024	0.000	20.8	5	1
03/09/06	10:00 p	-15.9	-15.9	-15.9	---	---	10.4	SE	0.17	11.3	-25.1	---	---	736.7	0.024	0.000	20.8	5	1
03/09/06	10:01 p	-15.8	-15.8	-15.9	---	---	10.4	SE	0.17	12.2	-25.0	---	---	736.6	0.024	0.000	20.8	5	1
03/09/06	10:02 p	-15.8	-15.8	-15.8	---	---	10.4	SE	0.17	11.3	-25.0	---	---	736.6	0.024	0.000	20.8	5	1
03/09/06	10:03 p	-15.8	-15.8	-15.8	---	---	11.3	SE	0.19	12.2	-25.3	---	---	736.6	0.024	0.000	20.8	5	1
03/09/06	10:04 p	-15.8	-15.8	-15.8	---	---	10.4	SE	0.17	11.3	-25.0	---	---	736.5	0.024	0.000	20.8	5	1
03/09/06	10:05 p	-15.8	-15.8	-15.8	---	---	10.4	SE	0.17	11.3	-25.0	---	---	736.6	0.024	0.000	20.8	5	1
03/09/06	10:06 p	-15.8	-15.8	-15.8	---	---	10.4	SE	0.17	11.3	-25.0	---	---	736.6	0.024	0.000	20.8	5	1
03/09/06	10:07 p	-15.8	-15.8	-15.8	---	---	10.4	SE	0.17	13.0	-24.9	---	---	736.6	0.024	0.000	20.8	5	1
03/09/06	10:08 p	-15.8	-15.8	-15.8	---	---	12.2	SE	0.20	13.0	-25.6	---	---	736.5	0.024	0.000	20.8	5	1
03/09/06	10:09 p	-15.8	-15.7	-15.8	---	---	12.2	ESE	0.20	13.9	-25.6	---	---	736.6	0.024	0.000	20.8	5	1
03/09/06	10:10 p	-15.8	-15.7	-15.8	---	---	13.0	ESE	0.22	14.8	-25.9	---	---	736.5	0.024	0.000	20.8	5	1
03/09/06	10:11 p	-15.8	-15.8	-15.8	---	---	13.0	SE	0.22	14.8	-25.9	---	---	736.5	0.024	0.000	20.8	5	1
03/09/06	10:12 p	-15.8	-15.8	-15.8	---	---	14.8	SE	0.25	16.5	-26.6	---	---	736.4	0.024	0.000	20.8	5	1
03/09/06	10:13 p	-15.8	-15.7	-15.8	---	---	13.9	SE	0.23	15.7	-26.2	---	---	736.3	0.024	0.000	20.8	5	1
03/09/06	10:14 p	-15.7	-15.7	-15.7	---	---	14.8	SE	0.25	15.7	-26.4	---	---	736.4	0.024	0.000	20.9	5	1
03/09/06	10:15 p	-15.7	-15.7	-15.7	---	---	13.9	SE	0.23	14.8	-26.1	---	---	736.4	0.024	0.000	20.9	5	1
03/09/06	10:16 p	-15.7	-15.7	-15.7	---	---	13.0	SE	0.22	14.8	-25.8	---	---	736.4	0.024	0.000	20.9	5	1
03/09/06	10:17 p	-15.7	-15.6	-15.7	---	---	11.3	ESE	0.19	15.7	-25.1	---	---	736.4	0.024	0.000	20.9	5	1
03/09/06	10:18 p	-15.6	-15.6	-15.7	---	---	13.0	ESE	0.22	15.7	-25.7	---	---	736.4	0.024	0.000	20.9	5	1
03/09/06	10:19 p	-15.6	-15.6	-15.7	---	---	13.0	SE	0.22	15.7	-25.7	---	---	736.3	0.024	0.000	20.9	5	1
03/09/06	10:20 p	-15.6	-15.6	-15.7	---	---	13.9	SE	0.23	15.7	-26.0	---	---	736.4	0.024	0.000	20.9	5	1
03/09/06	10:21 p	-15.6	-15.6	-15.6	---	---	14.8	SE	0.25	16.5	-26.3	---	---	736.4	0.024	0.000	20.9	5	1
03/09/06	10:22 p	-15.7	-15.7	-15.7	---	---	14.8	SE	0.25	16.5	-26.4	---	---	736.4	0.024	0.000	20.9	5	1
03/09/06	10:23 p	-15.7	-15.7	-15.7	---	---	14.8	SE	0.25	18.3	-26.4	---	---	736.5	0.024	0.000	20.9	5	1
03/09/06	10:24 p	-15.7	-15.7	-15.7	---	---	13.9	ESE	0.23	16.5	-26.1	---	---	736.3	0.024	0.000	20.9	5	1
03/09/06	10:25 p	-15.7	-15.7	-15.7	---	---	14.8	ESE	0.25	17.4	-26.4	---	---	736.4	0.024	0.000	20.9	5	1
03/09/06	10:26 p	-15.7	-15.7	-15.7	---	---	15.7	ESE	0.26	18.3	-26.7	---	---	736.2	0.024	0.000	20.9	4	1
03/09/06	10:27 p	-15.7	-15.7	-15.7	---	---	15.7	ESE	0.26	17.4	-26.7	---	---	736.4	0.024	0.000	20.9	4	1
03/09/06	10:28 p	-15.7	-15.7	-15.7	---	---	14.8	ESE	0.25	16.5	-26.4	---	---	736.3	0.024	0.000	20.9	5	1
03/09/06	10:29 p	-15.7	-15.7	-15.7	---	---	14.8	ESE	0.25	15.7	-26.4	---	---	736.4	0.024	0.000	20.9	4	1
03/09/06	10:30 p	-15.7	-15.7	-15.8	---	---	13.0	ESE	0.22	15.7	-25.9	---	---	736.3	0.024	0.000	20.9	4	1
03/09/06	10:31 p	-15.8	-15.7	-15.8	---	---	13.0	E	0.22	15.7	-25.9	---	---	736.3	0.024	0.000	20.9	4	1
03/09/06	10:32 p	-15.8	-15.8	-15.8	---	---	13.0	E	0.22	15.7	-25.9	---	---	736.4	0.024	0.000	20.9	4	1
03/09/06	10:33 p	-15.8	-15.8	-15.8	---	---	13.9	E	0.23	16.5	-26.2	---	---	736.3	0.024	0.000	20.9	4	1
03/09/06	10:34 p	-15.8	-15.8	-15.8	---	---	13.9	E	0.23	14.8	-26.2	---	---	736.3	0.024	0.000	20.9	4	1
03/09/06	10:35 p	-15.8	-15.8	-15.8	---	---	12.2	E	0.20	13.9	-25.7	---	---	736.3	0.024	0.000	20.9	4	1
03/09/06	10:36 p	-15.8	-15.8	-15.8	---	---	11.3	E	0.19	13.9	-25.3	---	---	736.3	0.024	0.000	20.9	4	1
03/09/06	10:37 p	-15.9	-15.8	-15.9	---	---	13.9	E	0.23	16.5	-26.4	---	---	736.2	0.024	0.000	20.9	4	1
03/09/06	10:38 p	-15.9	-15.9	-15.9	---	---	12.2	E	0.20	14.8	-25.8	---	---	736.2	0.024	0.000	20.9	4	1
03/09/06	10:39 p	-15.9	-15.9	-15.9	---	---	12.2	E	0.20	13.9	-25.8	---	---	736.2	0.024	0.000	20.9	4	1
03/09/06	10:40 p	-15.9	-15.9	-15.9	---	---	12.2	E	0.20	13.9	-25.8	---	---	736.3	0.024	0.000	20.9	4	1
03/09/06	10:41 p	-15.9	-15.9	-15.9	---	---	10.4	ESE	0.17	14.8	-25.1	---	---	736.3	0.024	0.000	20.9	4	1
03/09/06	10:42 p	-15.9	-15.9	-16.0	---	---	10.4	E	0.17	13.0	-25.1	---	---	736.3	0.024	0.000	20.9	4	1
03/09/06	10:43 p	-16.0	-16.0	-16.1	---	---	10.4	E	0.17	12.2	-25.2	---	---	736.4	0.024	0.000	20.9	4	1
03/09/06	10:44 p	-16.1	-16.1	-16.1	---	---	9.6	E	0.16	12.2	-24.9	---	---	736.4	0.024	0.000	20.9	4	1
03/09/06	10:45 p	-16.1	-16.1	-16.1	---	---	10.4	E	0.17	12.2	-25.3	---	---	736.3	0.024	0.000	20.9	4	1
03/09/06	10:46 p	-16.1	-16.1	-16.1	---	---	11.3	E	0.19	13.9	-25.6	---	---	736.2	0.024	0.000	20.9	4	1
03/09/06	10:47 p	-16.0	-16.0	-16.1	---	---	10.4	E	0.17	12.2	-25.2	---	---	736.3	0.024	0.000	20.9	4	1
03/09/06	10:48 p	-16.1	-16.1	-16.1	---	---	11.3	E	0.19	13.0	-25.6	---	---	736.3	0.024	0.000	20.9	4	1
03/09/06	10:49 p	-16.1	-16.1	-16.1	---	---	11.3	E	0.19	13.0	-25.6	---	---	736.3	0.024	0.000	20.9	4	1
03/09/06	10:50 p	-16.1	-16.1	-16.1	---	---	10.4	E	0.17	13.9	-25.3	---	---	736.3	0.024	0.000	20.9	4	1
03/09/06	10:51 p	-16.1	-16.1	-16.1	---	---	11.3	E	0.19	13.9	-25.6	---	---	736.3	0.024	0.000	20.9	4	1
03/09/06	10:52 p	-16.0	-16.0	-16.1	---	---	10.4	E	0.17	13.9	-25.2	---	---	736.2	0.024	0.000	20.9	4	1
03/09/06	10:53 p	-16.0	-16.0	-16.0	---	---	10.4	E	0.17	12.2	-25.2	---	---	736.3	0.024	0.000	20.9	4	1
03/09/06	10:54 p	-15.9	-15.9	-15.9	---	---	11.3	E	0.19	13.0	-25.5	---	---	736.3	0.024	0.000	20.9	4	1
03/09/06	10:55 p	-15.9	-15.9	-15.9	---	---	11.3	E	0.19	13.9	-25.5	---	---	736.3	0.024	0.000	20.9	4	1
03/09/06	10:56 p	-15.9	-15.9	-15.9	---	---	12.2	ENE	0.20	13.9	-25.8	---	---	736.4	0.024	0.000	20.9	4	1
03/09/06	10:57 p	-15.8	-15.8	-15.9	---	---	11.3	ENE	0.19	13.0	-25.3	---	---	736.3	0.024	0.000	20.9	4	1
03/09/06	10:58 p	-15.8	-15.8	-15.8	---	---	11.3	ENE	0.19	12.2	-25.3	---	---	736.4	0.024	0.000	20.9	4	1
03/09/06	10:59 p	-15.8	-15.8	-15.8	---	---	11.3	ENE	0.19	13.0	-25.3	---	---	736.5	0.024	0.000	20.9	4	1
03/09/06	11:00 p	-15.8	-15.8	-15.8	---	---	10.4	ENE	0.17	12.2	-24.9	---	---	736.3	0.024	0.000	20.9	4	1
03/09/06	11:01 p	-15.7	-15.7	-15.8	---	---	10.4	ENE	0.17	11.3	-24.8	---	---	736.4	0.024	0.000	21.0	4	1
03/09/06	11:02 p	-15.7	-15.7	-15.7	---	---	10.4	ENE	0.17	12.2	-24.8	---	---	736.4	0.024	0.000	21.0	4	1
03/09/06	11:03 p	-15.7	-15.7	-15.7	---	---	11.3	ENE	0.19	13.0	-25.2	---	---	736.3	0.024	0.000	21.0	4	1
03/09/06	11:04 p	-15.7	-15.7	-15.7	---	---	11.3	ENE	0.19	11.3	-25.1	---	---	736.3	0.024	0.000	21.0	4	1
03/09/06	11:05 p	-15.7	-15.7	-15.7	---	---	9.6	NE	0.16	11.3	-24.4	---	---	736.3	0.024	0.000	21.0	4	1
03/09/06	11:06 p	-15.6	-15.6	-15.6	---	---	9.6	ENE	0.16	11.3	-24.3	---	---	736.3	0.024	0.000	21.0	4	1
03/09/06	11:07 p	-15.6	-15.6	-15.6	---	---	10.4	ENE	0.17	12.2	-24.7	---	---	736.3	0.024	0.000	21.0	4	1
03/09/06	11:08 p	-15.6	-15.6	-15.6	---	---	11.3	ENE	0.19	12.2	-25.1	---	---	736.3	0.024	0.000	21.0	4	1
03/09/06	11:09 p	-15.6	-15.6	-15.6	---	---	10.4	ENE	0.17	11.3	-24.7	---	---	736.3	0.024	0.000	21.0	4	1
03/09/06	11:10 p	-15.6	-15.6	-15.6	---	---	11.3	ENE	0.19	12.2	-25.1	---	---	736.3	0.024	0.000	21.0	4	1
03/09/06	11:11 p	-15.7	-15.6	-15.7	---	---	10.4	ENE	0.17	13.0	-24.8	---	---	736.3	0.024	0.000	21.0	4	1
03/09/06	11:12 p	-15.7	-15.7	-15.7	---	---	11.3	ENE	0.19	12.2	-25.2	---	---	736.3	0.024	0.000	21.0	4	1
03/09/06	11:13 p	-15.8	-15.7	-15.8	---	---	11.3	ENE	0.19	13.0	-25.3	---	---	736.3	0.024	0.000	21.0	4	1
03/09/06	11:14 p	-15.8	-15.7	-15.8	---	---	11.3	ENE	0.19	12.2	-25.3	---	---	736.3	0.024	0.000	21.0	4	1
03/09/06	11:15 p	-15.7	-15.7	-15.7	---	---	9.6	NE	0.16	10.4	-24.4	---	---	736.3	0.024	0.000	21.0	4	1
03/09/06	11:16 p	-15.7	-15.7	-15.7	---	---	9.6	ENE	0.16	10.4	-24.4	---	---	736.3	0.024	0.000	21.0	4	1
03/09/06	11:17 p	-15.7	-15.7	-15.7	---	---	10.4	ENE	0.17	10.4	-24.8	---	---	736.3	0.024	0.000	21.0	4	1
03/09/06	11:18 p	-15.7	-15.7	-15.7	---	---	10.4	NE	0.17	11.3	-24.8	---	---	736.3	0.024	0.000	21.0	4	1
03/09/06	11:19 p	-15.7	-15.7	-15.7	---	---	10.4	NE	0.17	11.3	-24.8	---	---	736.2	0.024	0.000	21.1	4	1
03/09/06	11:20 p	-15.7	-15.7	-15.7	---	---	8.7	NE	0.14	9.6	-24.0	---	---	736.3	0.024	0.000	21.1	4	1
03/09/06	11:21 p	-15.7	-15.7	-15.7	---	---	8.7	NE	0.14	9.6	-23.9	---	---	736.2	0.024	0.000	21.1	4	1
03/09/06	11:22 p	-15.6	-15.6	-15.7	---	---	9.6	NE	0.16	10.4	-24.3	---	---	736.2	0.024	0.000	21.1	4	1
03/09/06	11:23 p	-15.6	-15.6	-15.6	---	---	8.7	NE	0.14	10.4	-23.8	---	---	736.2	0.024	0.000	21.1	4	1
03/09/06	11:24 p	-15.6	-15.6	-15.6	---	---	7.8	NE	0.13	8.7	-23.4	---	---	736.2	0.024	0.000	21.1	4	1
03/09/06	11:25 p	-15.6	-15.5	-15.6	---	---	8.7	NE	0.14	9.6	-23.8	---	---	736.2	0.024	0.000	21.1	4	1
03/09/06	11:26 p	-15.5	-15.5	-15.5	---	---	8.7	NE	0.14	8.7	-23.8	---	---	736.2	0.023	0.000	21.1	4	1
03/09/06	11:27 p	-15.5	-15.5	-15.5	---	---	8.7	ENE	0.14	9.6	-23.8	---	---	736.2	0.023	0.000	21.1	4	1
03/09/06	11:28 p	-15.5	-15.4	-15.5	---	---	8.7	ENE	0.14	9.6	-23.8	---	---	736.2	0.023	0.000	21.1	4	1
03/09/06	11:29 p	-15.5	-15.5	-15.5	---	---	9.6	ENE	0.16	10.4	-24.2	---	---	736.2	0.023	0.000	21.1	4	1
03/09/06	11:30 p	-15.5	-15.5	-15.5	---	---	9.6	NE	0.16	10.4	-24.2	---	---	736.2	0.023	0.000	21.1	4	1
03/09/06	11:31 p	-15.5	-15.5	-15.5	---	---	9.6	NE	0.16	10.4	-24.2	---	---	736.3	0.023	0.000	21.1	4	1
03/09/06	11:32 p	-15.5	-15.5	-15.5	---	---	9.6	NE	0.16	10.4	-24.2	---	---	736.2	0.023	0.000	21.1	4	1
03/09/06	11:33 p	-15.6	-15.6	-15.6	---	---	9.6	NE	0.16	11.3	-24.2	---	---	736.3	0.024	0.000	21.1	4	1
03/09/06	11:34 p	-15.6	-15.6	-15.6	---	---	8.7	ENE	0.14	10.4	-23.8	---	---	736.3	0.024	0.000	21.1	4	1
03/09/06	11:35 p	-15.6	-15.6	-15.6	---	---	8.7	ENE	0.14	9.6	-23.8	---	---	736.3	0.024	0.000	21.1	4	1
03/09/06	11:36 p	-15.6	-15.6	-15.6	---	---	8.7	ENE	0.14	10.4	-23.8	---	---	736.3	0.024	0.000	21.1	4	1
03/09/06	11:37 p	-15.6	-15.6	-15.6	---	---	9.6	NE	0.16	10.4	-24.2	---	---	736.3	0.024	0.000	21.1	4	1
03/09/06	11:38 p	-15.6	-15.6	-15.6	---	---	9.6	NE	0.16	10.4	-24.2	---	---	736.3	0.024	0.000	21.1	4	1
03/09/06	11:39 p	-15.6	-15.6	-15.6	---	---	9.6	NE	0.16	11.3	-24.2	---	---	736.3	0.024	0.000	21.1	4	1
03/09/06	11:40 p	-15.6	-15.6	-15.6	---	---	8.7	NE	0.14	10.4	-23.8	---	---	736.4	0.024	0.000	21.1	4	1
03/09/06	11:41 p	-15.6	-15.6	-15.6	---	---	8.7	NE	0.14	10.4	-23.8	---	---	736.3	0.024	0.000	21.1	4	1
03/09/06	11:42 p	-15.5	-15.5	-15.6	---	---	9.6	NE	0.16	10.4	-24.2	---	---	736.4	0.023	0.000	21.1	4	1
03/09/06	11:43 p	-15.5	-15.5	-15.5	---	---	10.4	NE	0.17	11.3	-24.6	---	---	736.3	0.023	0.000	21.1	4	1
03/09/06	11:44 p	-15.5	-15.5	-15.5	---	---	10.4	NE	0.17	11.3	-24.6	---	---	736.3	0.023	0.000	21.1	4	1
03/09/06	11:45 p	-15.5	-15.5	-15.5	---	---	10.4	NE	0.17	11.3	-24.6	---	---	736.3	0.023	0.000	21.1	4	1
03/09/06	11:46 p	-15.5	-15.4	-15.5	---	---	11.3	ENE	0.19	13.0	-24.9	---	---	736.2	0.023	0.000	21.1	4	1
03/09/06	11:47 p	-15.5	-15.5	-15.5	---	---	10.4	ENE	0.17	12.2	-24.6	---	---	736.4	0.023	0.000	21.1	4	1
03/09/06	11:48 p	-15.5	-15.5	-15.5	---	---	10.4	NE	0.17	11.3	-24.6	---	---	736.3	0.023	0.000	21.1	4	1
03/09/06	11:49 p	-15.5	-15.5	-15.5	---	---	13.0	NE	0.22	13.9	-25.6	---	---	736.2	0.023	0.000	21.1	4	1
03/09/06	11:50 p	-15.5	-15.5	-15.5	---	---	13.0	NE	0.22	13.9	-25.6	---	---	736.3	0.023	0.000	21.1	4	1
03/09/06	11:51 p	-15.5	-15.5	-15.5	---	---	12.2	NE	0.20	13.0	-25.3	---	---	736.3	0.023	0.000	21.1	4	1
03/09/06	11:52 p	-15.5	-15.5	-15.5	---	---	10.4	NE	0.17	13.0	-24.6	---	---	736.1	0.023	0.000	21.1	4	1
03/09/06	11:53 p	-15.5	-15.5	-15.5	---	---	13.0	NE	0.22	14.8	-25.6	---	---	736.2	0.023	0.000	21.1	4	1
03/09/06	11:54 p	-15.5	-15.5	-15.5	---	---	12.2	NE	0.20	13.0	-25.3	---	---	736.2	0.023	0.000	21.1	4	1
03/09/06	11:55 p	-15.5	-15.5	-15.5	---	---	12.2	NE	0.20	13.0	-25.3	---	---	736.1	0.023	0.000	21.1	4	1
03/09/06	11:56 p	-15.5	-15.5	-15.5	---	---	11.3	NE	0.19	13.0	-24.9	---	---	736.2	0.023	0.000	21.1	4	1
03/09/06	11:57 p	-15.5	-15.5	-15.5	---	---	11.3	NE	0.19	12.2	-24.9	---	---	736.2	0.023	0.000	21.1	4	1
03/09/06	11:58 p	-15.4	-15.4	-15.5	---	---	12.2	NE	0.20	13.0	-25.2	---	---	736.1	0.023	0.000	21.1	4	1
03/09/06	11:59 p	-15.4	-15.4	-15.4	---	---	11.3	NE	0.19	13.0	-24.8	---	---	736.1	0.023	0.000	21.1	4	1
03/10/06	12:00 a	-15.3	-15.3	-15.4	---	---	9.6	NE	0.16	11.3	-23.9	---	---	736.0	0.023	0.000	21.1	4	1
03/10/06	12:01 a	-15.3	-15.3	-15.3	---	---	9.6	NE	0.16	11.3	-23.9	---	---	736.1	0.023	0.000	21.1	4	1
03/10/06	12:02 a	-15.2	-15.2	-15.3	---	---	9.6	NE	0.16	10.4	-23.8	---	---	736.1	0.023	0.000	21.1	4	1
03/10/06	12:03 a	-15.2	-15.2	-15.2	---	---	10.4	NE	0.17	11.3	-24.2	---	---	736.1	0.023	0.000	21.1	4	1
03/10/06	12:04 a	-15.2	-15.2	-15.2	---	---	10.4	NE	0.17	13.9	-24.2	---	---	736.1	0.023	0.000	21.2	4	1
03/10/06	12:05 a	-15.2	-15.2	-15.3	---	---	8.7	NNE	0.14	11.3	-23.4	---	---	736.0	0.023	0.000	21.2	4	1
03/10/06	12:06 a	-15.4	-15.4	-15.4	---	---	9.6	NNE	0.16	12.2	-24.1	---	---	736.0	0.023	0.000	21.2	4	1
03/10/06	12:07 a	-15.4	-15.4	-15.4	---	---	11.3	NE	0.19	13.0	-24.8	---	---	736.1	0.023	0.000	21.2	3	1
03/10/06	12:08 a	-15.4	-15.4	-15.4	---	---	10.4	NE	0.17	12.2	-24.4	---	---	736.0	0.023	0.000	21.2	4	1
03/10/06	12:09 a	-15.3	-15.3	-15.3	---	---	11.3	NE	0.19	12.2	-24.7	---	---	736.0	0.023	0.000	21.2	4	1
03/10/06	12:10 a	-15.3	-15.2	-15.3	---	---	8.7	NE	0.14	11.3	-23.5	---	---	736.1	0.023	0.000	21.2	4	1
03/10/06	12:11 a	-15.2	-15.2	-15.2	---	---	7.0	NNE	0.12	7.8	-22.4	---	---	736.1	0.023	0.000	21.2	4	1
03/10/06	12:12 a	-15.1	-15.0	-15.1	---	---	6.1	NNE	0.10	8.7	-21.7	---	---	736.0	0.023	0.000	21.2	4	1
03/10/06	12:13 a	-14.9	-14.8	-14.9	---	---	4.3	NE	0.07	6.1	-20.2	---	---	736.0	0.023	0.000	21.2	4	1
03/10/06	12:14 a	-14.7	-14.6	-14.8	---	---	5.2	NE	0.09	6.1	-20.6	---	---	736.1	0.023	0.000	21.2	4	1
03/10/06	12:15 a	-14.5	-14.4	-14.5	---	---	6.1	NE	0.10	7.8	-21.1	---	---	736.0	0.023	0.000	21.2	3	1
03/10/06	12:16 a	-14.2	-14.1	-14.3	---	---	6.1	NE	0.10	7.0	-20.6	---	---	736.1	0.023	0.000	21.2	4	1
03/10/06	12:17 a	-13.9	-13.9	-14.0	---	---	7.8	ENE	0.13	9.6	-21.4	---	---	736.1	0.022	0.000	21.2	4	1
03/10/06	12:18 a	-13.9	-13.9	-13.9	---	---	10.4	NE	0.17	11.3	-22.6	---	---	736.1	0.022	0.000	21.2	4	1
03/10/06	12:19 a	-13.9	-13.9	-14.1	---	---	9.6	NE	0.16	11.3	-22.2	---	---	736.0	0.022	0.000	21.2	4	1
03/10/06	12:20 a	-14.1	-14.1	-14.1	---	---	10.4	ENE	0.17	12.2	-22.8	---	---	736.0	0.023	0.000	21.2	4	1
03/10/06	12:21 a	-14.2	-14.2	-14.3	---	---	10.4	ENE	0.17	12.2	-22.9	---	---	736.0	0.023	0.000	21.2	4	1
03/10/06	12:22 a	-14.3	-14.3	-14.3	---	---	8.7	ENE	0.14	9.6	-22.3	---	---	736.0	0.023	0.000	21.2	3	1
03/10/06	12:23 a	-14.3	-14.3	-14.3	---	---	8.7	NE	0.14	9.6	-22.3	---	---	736.0	0.023	0.000	21.2	4	1
03/10/06	12:24 a	-14.3	-14.2	-14.3	---	---	10.4	ENE	0.17	14.8	-23.0	---	---	735.9	0.023	0.000	21.2	4	1
03/10/06	12:25 a	-14.0	-13.9	-14.1	---	---	13.0	ENE	0.22	16.5	-23.7	---	---	735.9	0.022	0.000	21.2	4	1
03/10/06	12:26 a	-13.8	-13.8	-13.8	---	---	11.3	ENE	0.19	12.2	-22.8	---	---	736.0	0.022	0.000	21.2	3	1
03/10/06	12:27 a	-13.7	-13.6	-13.8	---	---	8.7	E	0.14	12.2	-21.5	---	---	736.0	0.022	0.000	21.2	4	1
03/10/06	12:28 a	-13.7	-13.7	-13.7	---	---	7.8	E	0.13	10.4	-21.1	---	---	736.1	0.022	0.000	21.2	3	1
03/10/06	12:29 a	-13.6	-13.5	-13.7	---	---	8.7	E	0.14	11.3	-21.3	---	---	736.0	0.022	0.000	21.2	4	1
03/10/06	12:30 a	-13.5	-13.4	-13.5	---	---	8.7	E	0.14	10.4	-21.3	---	---	736.0	0.022	0.000	21.2	4	1
03/10/06	12:31 a	-13.4	-13.4	-13.4	---	---	7.0	ENE	0.12	8.7	-20.2	---	---	736.0	0.022	0.000	21.2	3	1
03/10/06	12:32 a	-13.3	-13.3	-13.4	---	---	7.0	ENE	0.12	8.7	-20.2	---	---	736.0	0.022	0.000	21.2	4	1
03/10/06	12:33 a	-13.2	-13.0	-13.3	---	---	6.1	ENE	0.10	7.8	-19.4	---	---	736.2	0.022	0.000	21.2	4	1
03/10/06	12:34 a	-12.9	-12.9	-13.0	---	---	6.1	E	0.10	8.7	-19.2	---	---	736.1	0.022	0.000	21.2	4	1
03/10/06	12:35 a	-12.8	-12.8	-12.9	---	---	7.8	E	0.13	10.4	-20.0	---	---	736.1	0.022	0.000	21.2	3	1
03/10/06	12:36 a	-12.7	-12.7	-12.8	---	---	8.7	E	0.14	11.3	-20.3	---	---	735.9	0.022	0.000	21.2	3	1
03/10/06	12:37 a	-12.7	-12.6	-12.7	---	---	8.7	ESE	0.14	10.4	-20.2	---	---	736.0	0.022	0.000	21.3	3	1
03/10/06	12:38 a	-12.6	-12.6	-12.6	---	---	8.7	ESE	0.14	10.4	-20.2	---	---	736.0	0.021	0.000	21.3	4	1
03/10/06	12:39 a	-12.6	-12.6	-12.7	---	---	13.0	ESE	0.22	15.7	-21.9	---	---	736.1	0.021	0.000	21.3	4	1
03/10/06	12:40 a	-12.8	-12.7	-12.8	---	---	13.0	E	0.22	15.7	-22.1	---	---	736.0	0.022	0.000	21.3	4	1
03/10/06	12:41 a	-12.8	-12.8	-12.9	---	---	10.4	ESE	0.17	12.2	-21.2	---	---	736.0	0.022	0.000	21.2	4	1
03/10/06	12:42 a	-13.0	-12.9	-13.1	---	---	9.6	E	0.16	12.2	-21.1	---	---	736.0	0.022	0.000	21.2	4	1
03/10/06	12:43 a	-13.2	-13.1	-13.4	---	---	10.4	E	0.17	14.8	-21.6	---	---	736.0	0.022	0.000	21.2	4	1
03/10/06	12:44 a	-13.5	-13.4	-13.6	---	---	11.3	E	0.19	13.0	-22.4	---	---	735.9	0.022	0.000	21.2	4	1
03/10/06	12:45 a	-13.7	-13.6	-13.9	---	---	11.3	E	0.19	14.8	-22.7	---	---	736.0	0.022	0.000	21.2	4	1
03/10/06	12:46 a	-13.9	-13.9	-14.1	---	---	13.0	E	0.22	15.7	-23.6	---	---	736.0	0.022	0.000	21.2	4	1
03/10/06	12:47 a	-14.1	-14.1	-14.2	---	---	12.2	E	0.20	15.7	-23.5	---	---	736.0	0.023	0.000	21.2	4	1
03/10/06	12:48 a	-14.2	-14.2	-14.3	---	---	12.2	ENE	0.20	14.8	-23.6	---	---	736.0	0.023	0.000	21.2	4	1
03/10/06	12:49 a	-14.3	-14.3	-14.3	---	---	11.3	E	0.19	14.8	-23.4	---	---	736.0	0.023	0.000	21.2	4	1
03/10/06	12:50 a	-14.3	-14.3	-14.3	---	---	11.3	E	0.19	14.8	-23.4	---	---	736.0	0.023	0.000	21.2	4	1
03/10/06	12:51 a	-14.4	-14.3	-14.4	---	---	13.9	ENE	0.23	15.7	-24.4	---	---	736.0	0.023	0.000	21.2	4	1
03/10/06	12:52 a	-14.4	-14.4	-14.4	---	---	13.9	ENE	0.23	15.7	-24.5	---	---	736.0	0.023	0.000	21.2	4	1
03/10/06	12:53 a	-14.5	-14.4	-14.6	---	---	12.2	E	0.20	14.8	-24.0	---	---	736.0	0.023	0.000	21.2	4	1
03/10/06	12:54 a	-14.6	-14.6	-14.7	---	---	14.8	E	0.25	16.5	-25.0	---	---	736.0	0.023	0.000	21.2	4	1
03/10/06	12:55 a	-14.7	-14.7	-14.8	---	---	13.0	E	0.22	16.5	-24.6	---	---	735.9	0.023	0.000	21.2	4	1
03/10/06	12:56 a	-14.8	-14.8	-14.8	---	---	13.9	E	0.23	16.5	-24.9	---	---	736.0	0.023	0.000	21.2	4	1
03/10/06	12:57 a	-14.8	-14.8	-14.8	---	---	13.0	E	0.22	14.8	-24.7	---	---	735.9	0.023	0.000	21.2	4	1
03/10/06	12:58 a	-14.8	-14.8	-14.9	---	---	13.9	E	0.23	15.7	-25.0	---	---	736.0	0.023	0.000	21.2	4	1
03/10/06	12:59 a	-14.9	-14.9	-14.9	---	---	13.0	E	0.22	15.7	-24.8	---	---	736.0	0.023	0.000	21.2	4	1
03/10/06	1:00 a	-14.9	-14.9	-14.9	---	---	14.8	E	0.25	20.9	-25.4	---	---	735.9	0.023	0.000	21.2	4	1
03/10/06	1:01 a	-14.9	-14.9	-14.9	---	---	11.3	ENE	0.19	18.3	-24.2	---	---	736.0	0.023	0.000	21.2	4	1
03/10/06	1:02 a	-14.8	-14.8	-14.9	---	---	15.7	ESE	0.26	20.0	-25.6	---	---	735.9	0.023	0.000	21.2	4	1
03/10/06	1:03 a	-14.8	-14.7	-14.8	---	---	12.2	E	0.20	18.3	-24.3	---	---	736.0	0.023	0.000	21.2	4	1
03/10/06	1:04 a	-14.7	-14.7	-14.7	---	---	10.4	E	0.17	14.8	-23.5	---	---	736.0	0.023	0.000	21.2	4	1
03/10/06	1:05 a	-14.6	-14.6	-14.7	---	---	13.0	ESE	0.22	15.7	-24.4	---	---	736.0	0.023	0.000	21.2	4	1
03/10/06	1:06 a	-14.6	-14.6	-14.6	---	---	12.2	ESE	0.20	15.7	-24.1	---	---	736.0	0.023	0.000	21.2	4	1
03/10/06	1:07 a	-14.6	-14.6	-14.6	---	---	12.2	E	0.20	16.5	-24.1	---	---	736.0	0.023	0.000	21.2	4	1
03/10/06	1:08 a	-14.6	-14.5	-14.6	---	---	11.3	E	0.19	13.9	-23.7	---	---	736.0	0.023	0.000	21.2	4	1
03/10/06	1:09 a	-14.6	-14.6	-14.6	---	---	10.4	E	0.17	14.8	-23.4	---	---	735.8	0.023	0.000	21.2	5	1
03/10/06	1:10 a	-14.7	-14.7	-14.7	---	---	11.3	E	0.19	13.9	-23.9	---	---	735.9	0.023	0.000	21.2	5	1
03/10/06	1:11 a	-14.8	-14.7	-14.8	---	---	13.9	ESE	0.23	16.5	-24.9	---	---	736.0	0.023	0.000	21.2	5	1
03/10/06	1:12 a	-14.6	-14.6	-14.7	---	---	15.7	ESE	0.26	18.3	-25.3	---	---	735.9	0.023	0.000	21.2	5	1
03/10/06	1:13 a	-14.4	-14.3	-14.6	---	---	15.7	ESE	0.26	18.3	-25.1	---	---	735.8	0.023	0.000	21.2	4	1
03/10/06	1:14 a	-14.3	-14.3	-14.3	---	---	15.7	ESE	0.26	18.3	-24.8	---	---	736.0	0.023	0.000	21.2	5	1
03/10/06	1:15 a	-14.2	-14.2	-14.3	---	---	16.5	SE	0.28	20.0	-25.1	---	---	735.9	0.023	0.000	21.2	5	1
03/10/06	1:16 a	-14.2	-14.2	-14.2	---	---	12.2	ESE	0.20	14.8	-23.6	---	---	736.0	0.023	0.000	21.2	5	1
03/10/06	1:17 a	-14.1	-14.1	-14.2	---	---	13.9	SE	0.23	16.5	-24.1	---	---	736.0	0.023	0.000	21.2	5	1
03/10/06	1:18 a	-14.1	-14.1	-14.1	---	---	12.2	SE	0.20	15.7	-23.5	---	---	736.0	0.023	0.000	21.2	5	1
03/10/06	1:19 a	-14.1	-14.1	-14.1	---	---	13.0	SE	0.22	17.4	-23.8	---	---	736.0	0.023	0.000	21.2	4	1
03/10/06	1:20 a	-14.1	-14.1	-14.1	---	---	12.2	ESE	0.20	13.9	-23.4	---	---	736.0	0.022	0.000	21.2	5	1
03/10/06	1:21 a	-14.1	-14.1	-14.1	---	---	12.2	SE	0.20	13.0	-23.4	---	---	736.0	0.022	0.000	21.2	5	1
03/10/06	1:22 a	-14.0	-14.0	-14.1	---	---	11.3	SE	0.19	13.0	-23.0	---	---	735.9	0.022	0.000	21.2	5	1
03/10/06	1:23 a	-14.0	-14.0	-14.0	---	---	13.0	SSE	0.22	13.9	-23.7	---	---	735.9	0.022	0.000	21.2	5	1
03/10/06	1:24 a	-13.9	-13.9	-13.9	---	---	12.2	SSE	0.20	13.9	-23.3	---	---	736.0	0.022	0.000	21.2	5	1
03/10/06	1:25 a	-13.9	-13.9	-13.9	---	---	13.9	SE	0.23	16.5	-23.8	---	---	736.0	0.022	0.000	21.2	5	1
03/10/06	1:26 a	-13.9	-13.9	-13.9	---	---	13.0	SSE	0.22	14.8	-23.5	---	---	735.9	0.022	0.000	21.2	5	1
03/10/06	1:27 a	-13.8	-13.8	-13.8	---	---	12.2	SSE	0.20	13.0	-23.2	---	---	735.9	0.022	0.000	21.3	5	1
03/10/06	1:28 a	-13.8	-13.8	-13.8	---	---	12.2	SE	0.20	14.8	-23.1	---	---	735.9	0.022	0.000	21.3	5	1
03/10/06	1:29 a	-13.8	-13.8	-13.8	---	---	13.9	SE	0.23	16.5	-23.7	---	---	735.9	0.022	0.000	21.3	5	1
03/10/06	1:30 a	-13.8	-13.8	-13.9	---	---	13.9	SSE	0.23	16.5	-23.7	---	---	735.9	0.022	0.000	21.3	5	1
03/10/06	1:31 a	-13.9	-13.9	-13.9	---	---	13.9	SSE	0.23	16.5	-23.8	---	---	735.9	0.022	0.000	21.3	5	1
03/10/06	1:32 a	-14.0	-13.9	-14.0	---	---	14.8	SSE	0.25	17.4	-24.2	---	---	736.0	0.022	0.000	21.3	5	1
03/10/06	1:33 a	-14.0	-14.0	-14.0	---	---	13.9	SSE	0.23	16.5	-23.9	---	---	735.9	0.022	0.000	21.3	5	1
03/10/06	1:34 a	-14.1	-14.0	-14.1	---	---	16.5	SE	0.28	18.3	-24.8	---	---	735.7	0.022	0.000	21.3	5	1
03/10/06	1:35 a	-14.1	-14.1	-14.1	---	---	15.7	SE	0.26	17.4	-24.6	---	---	735.8	0.023	0.000	21.4	5	1
03/10/06	1:36 a	-14.1	-14.1	-14.2	---	---	14.8	SE	0.25	20.0	-24.4	---	---	735.7	0.023	0.000	21.4	5	1
03/10/06	1:37 a	-14.2	-14.2	-14.2	---	---	15.7	SE	0.26	17.4	-24.7	---	---	735.7	0.023	0.000	21.4	5	1
03/10/06	1:38 a	-14.2	-14.2	-14.2	---	---	15.7	SSE	0.26	17.4	-24.8	---	---	735.7	0.023	0.000	21.4	5	1
03/10/06	1:39 a	-14.2	-14.2	-14.2	---	---	14.8	SSE	0.25	16.5	-24.5	---	---	735.7	0.023	0.000	21.4	5	1
03/10/06	1:40 a	-14.2	-14.1	-14.2	---	---	14.8	SSE	0.25	16.5	-24.4	---	---	735.7	0.023	0.000	21.4	5	1
03/10/06	1:41 a	-14.1	-14.1	-14.1	---	---	14.8	SSE	0.25	16.5	-24.4	---	---	735.7	0.023	0.000	21.4	5	1
03/10/06	1:42 a	-14.1	-14.1	-14.1	---	---	15.7	SSE	0.26	18.3	-24.6	---	---	735.7	0.023	0.000	21.5	5	1
03/10/06	1:43 a	-14.1	-14.1	-14.1	---	---	13.9	SE	0.23	16.5	-24.0	---	---	735.7	0.022	0.000	21.5	5	1
03/10/06	1:44 a	-14.1	-14.1	-14.1	---	---	14.8	SE	0.25	17.4	-24.3	---	---	735.7	0.022	0.000	21.4	5	1
03/10/06	1:45 a	-14.1	-14.1	-14.1	---	---	14.8	SSE	0.25	16.5	-24.4	---	---	735.7	0.023	0.000	21.4	5	1
03/10/06	1:46 a	-14.1	-14.0	-14.1	---	---	13.9	SE	0.23	14.8	-24.0	---	---	735.7	0.022	0.000	21.4	5	1
03/10/06	1:47 a	-14.0	-14.0	-14.0	---	---	14.8	SE	0.25	15.7	-24.2	---	---	735.7	0.022	0.000	21.4	5	1
03/10/06	1:48 a	-14.1	-14.1	-14.1	---	---	14.8	SE	0.25	16.5	-24.3	---	---	735.7	0.022	0.000	21.4	5	1
03/10/06	1:49 a	-14.1	-14.1	-14.1	---	---	13.9	SE	0.23	16.5	-24.1	---	---	735.7	0.023	0.000	21.4	5	1
03/10/06	1:50 a	-14.1	-14.1	-14.1	---	---	14.8	SE	0.25	16.5	-24.4	---	---	735.6	0.023	0.000	21.4	5	1
03/10/06	1:51 a	-14.1	-14.1	-14.1	---	---	14.8	SE	0.25	15.7	-24.3	---	---	735.7	0.022	0.000	21.4	5	1
03/10/06	1:52 a	-14.1	-14.1	-14.1	---	---	13.9	SE	0.23	16.5	-24.0	---	---	735.5	0.022	0.000	21.4	5	1
03/10/06	1:53 a	-14.1	-14.1	-14.1	---	---	13.9	SE	0.23	14.8	-24.0	---	---	735.6	0.022	0.000	21.4	5	1
03/10/06	1:54 a	-14.1	-14.1	-14.1	---	---	13.9	SE	0.23	15.7	-24.1	---	---	735.5	0.023	0.000	21.5	5	1
03/10/06	1:55 a	-14.1	-14.1	-14.1	---	---	13.9	SE	0.23	14.8	-24.1	---	---	735.5	0.023	0.000	21.5	5	1
03/10/06	1:56 a	-14.1	-14.1	-14.2	---	---	14.8	SE	0.25	15.7	-24.4	---	---	735.6	0.023	0.000	21.5	5	1
03/10/06	1:57 a	-14.1	-14.1	-14.2	---	---	14.8	SE	0.25	15.7	-24.4	---	---	735.4	0.023	0.000	21.5	5	1
03/10/06	1:58 a	-14.2	-14.2	-14.2	---	---	13.9	SE	0.23	14.8	-24.2	---	---	735.4	0.023	0.000	21.5	5	1
03/10/06	1:59 a	-14.2	-14.2	-14.2	---	---	15.7	ESE	0.26	18.3	-24.7	---	---	735.3	0.023	0.000	21.6	5	1
03/10/06	2:00 a	-14.2	-14.2	-14.2	---	---	14.8	ESE	0.25	16.5	-24.4	---	---	735.4	0.023	0.000	21.6	5	1
03/10/06	2:01 a	-14.2	-14.2	-14.2	---	---	14.8	ESE	0.25	15.7	-24.5	---	---	735.5	0.023	0.000	21.6	5	1
03/10/06	2:02 a	-14.3	-14.2	-14.3	---	---	14.8	ESE	0.25	16.5	-24.6	---	---	735.5	0.023	0.000	21.6	5	1
03/10/06	2:03 a	-14.3	-14.3	-14.3	---	---	14.8	ESE	0.25	16.5	-24.6	---	---	735.4	0.023	0.000	21.6	5	1
03/10/06	2:04 a	-14.3	-14.3	-14.4	---	---	14.8	ESE	0.25	15.7	-24.7	---	---	735.5	0.023	0.000	21.6	5	1
03/10/06	2:05 a	-14.4	-14.4	-14.4	---	---	15.7	ESE	0.26	15.7	-25.1	---	---	735.4	0.023	0.000	21.6	5	1
03/10/06	2:06 a	-14.4	-14.4	-14.5	---	---	14.8	ESE	0.25	15.7	-24.8	---	---	735.4	0.023	0.000	21.6	5	1
03/10/06	2:07 a	-14.5	-14.4	-14.5	---	---	15.7	ESE	0.26	16.5	-25.2	---	---	735.4	0.023	0.000	21.6	5	1
03/10/06	2:08 a	-14.5	-14.4	-14.5	---	---	15.7	ESE	0.26	17.4	-25.2	---	---	735.3	0.023	0.000	21.6	5	1
03/10/06	2:09 a	-14.4	-14.4	-14.5	---	---	14.8	ESE	0.25	15.7	-24.8	---	---	735.4	0.023	0.000	21.6	5	1
03/10/06	2:10 a	-14.4	-14.4	-14.4	---	---	14.8	E	0.25	16.5	-24.8	---	---	735.3	0.023	0.000	21.6	5	1
03/10/06	2:11 a	-14.4	-14.4	-14.4	---	---	13.9	E	0.23	16.5	-24.4	---	---	735.2	0.023	0.000	21.6	5	1
03/10/06	2:12 a	-14.4	-14.4	-14.5	---	---	13.9	E	0.23	17.4	-24.5	---	---	735.2	0.023	0.000	21.6	5	1
03/10/06	2:13 a	-14.5	-14.5	-14.6	---	---	13.9	E	0.23	16.5	-24.6	---	---	735.3	0.023	0.000	21.6	5	1
03/10/06	2:14 a	-14.6	-14.6	-14.6	---	---	13.0	E	0.22	14.8	-24.4	---	---	735.2	0.023	0.000	21.6	5	1
03/10/06	2:15 a	-14.6	-14.6	-14.6	---	---	15.7	E	0.26	16.5	-25.2	---	---	735.2	0.023	0.000	21.6	5	1
03/10/06	2:16 a	-14.6	-14.6	-14.6	---	---	15.7	E	0.26	16.5	-25.2	---	---	735.2	0.023	0.000	21.7	5	1
03/10/06	2:17 a	-14.6	-14.5	-14.6	---	---	13.9	E	0.23	16.5	-24.7	---	---	735.3	0.023	0.000	21.6	5	1
03/10/06	2:18 a	-14.5	-14.5	-14.5	---	---	14.8	E	0.25	16.5	-24.9	---	---	735.2	0.023	0.000	21.6	5	1
03/10/06	2:19 a	-14.5	-14.4	-14.5	---	---	19.1	ESE	0.32	21.7	-26.1	---	---	735.3	0.023	0.000	21.6	5	1
03/10/06	2:20 a	-14.4	-14.3	-14.4	---	---	16.5	ESE	0.28	20.0	-25.3	---	---	735.1	0.023	0.000	21.6	5	1
03/10/06	2:21 a	-14.3	-14.3	-14.3	---	---	15.7	E	0.26	19.1	-24.9	---	---	735.1	0.023	0.000	21.6	5	1
03/10/06	2:22 a	-14.2	-14.2	-14.3	---	---	16.5	E	0.28	20.0	-25.1	---	---	735.2	0.023	0.000	21.6	5	1
03/10/06	2:23 a	-14.2	-14.2	-14.2	---	---	14.8	ESE	0.25	19.1	-24.5	---	---	735.1	0.023	0.000	21.6	5	1
03/10/06	2:24 a	-14.1	-14.1	-14.2	---	---	13.0	E	0.22	15.7	-23.8	---	---	735.2	0.023	0.000	21.6	5	1
03/10/06	2:25 a	-14.1	-14.1	-14.1	---	---	16.5	E	0.28	19.1	-24.9	---	---	735.1	0.023	0.000	21.6	5	1
03/10/06	2:26 a	-14.1	-14.1	-14.1	---	---	16.5	E	0.28	20.0	-24.9	---	---	735.1	0.023	0.000	21.6	5	1
03/10/06	2:27 a	-14.1	-14.1	-14.1	---	---	17.4	E	0.29	20.0	-25.1	---	---	734.9	0.023	0.000	21.6	5	1
03/10/06	2:28 a	-14.1	-14.1	-14.1	---	---	16.5	E	0.28	20.0	-24.8	---	---	735.0	0.022	0.000	21.6	5	1
03/10/06	2:29 a	-14.0	-14.0	-14.1	---	---	17.4	ESE	0.29	20.9	-25.0	---	---	734.8	0.022	0.000	21.6	5	1
03/10/06	2:30 a	-14.0	-14.0	-14.1	---	---	17.4	E	0.29	20.0	-25.0	---	---	735.0	0.022	0.000	21.6	5	1
03/10/06	2:31 a	-14.0	-14.0	-14.0	---	---	19.1	E	0.32	21.7	-25.4	---	---	734.9	0.022	0.000	21.6	5	1
03/10/06	2:32 a	-13.9	-13.9	-14.0	---	---	18.3	ESE	0.30	20.0	-25.2	---	---	734.9	0.022	0.000	21.6	5	1
03/10/06	2:33 a	-13.9	-13.9	-13.9	---	---	18.3	E	0.30	23.5	-25.1	---	---	734.8	0.022	0.000	21.6	5	1
03/10/06	2:34 a	-13.8	-13.8	-13.9	---	---	18.3	E	0.30	20.9	-25.0	---	---	734.9	0.022	0.000	21.6	5	1
03/10/06	2:35 a	-13.8	-13.7	-13.8	---	---	18.3	ESE	0.30	24.3	-24.9	---	---	734.8	0.022	0.000	21.6	5	1
03/10/06	2:36 a	-13.7	-13.7	-13.7	---	---	20.9	E	0.35	22.6	-25.5	---	---	734.8	0.022	0.000	21.6	5	1
03/10/06	2:37 a	-13.7	-13.7	-13.7	---	---	21.7	E	0.36	24.3	-25.7	---	---	734.7	0.022	0.000	21.6	5	1
03/10/06	2:38 a	-13.8	-13.7	-13.8	---	---	22.6	ESE	0.38	24.3	-25.9	---	---	734.7	0.022	0.000	21.6	5	1
03/10/06	2:39 a	-13.8	-13.8	-13.9	---	---	22.6	ESE	0.38	25.2	-26.0	---	---	734.7	0.022	0.000	21.6	5	1
03/10/06	2:40 a	-13.9	-13.9	-13.9	---	---	22.6	ESE	0.38	27.0	-26.1	---	---	734.7	0.022	0.000	21.6	5	1
03/10/06	2:41 a	-13.9	-13.9	-13.9	---	---	24.3	ESE	0.41	27.8	-26.4	---	---	734.6	0.022	0.000	21.6	5	1
03/10/06	2:42 a	-13.9	-13.9	-14.0	---	---	22.6	ESE	0.38	23.5	-26.2	---	---	734.7	0.022	0.000	21.6	5	1
03/10/06	2:43 a	-14.0	-14.0	-14.0	---	---	21.7	ESE	0.36	23.5	-26.1	---	---	734.8	0.022	0.000	21.6	5	1
03/10/06	2:44 a	-14.0	-14.0	-14.0	---	---	20.0	E	0.33	23.5	-25.7	---	---	734.7	0.022	0.000	21.6	5	1
03/10/06	2:45 a	-14.0	-14.0	-14.1	---	---	20.9	ESE	0.35	24.3	-25.8	---	---	734.7	0.022	0.000	21.6	5	1
03/10/06	2:46 a	-14.1	-14.1	-14.1	---	---	20.9	ESE	0.35	22.6	-26.0	---	---	734.7	0.023	0.000	21.6	5	1
03/10/06	2:47 a	-14.2	-14.1	-14.2	---	---	23.5	ESE	0.39	26.1	-26.7	---	---	734.6	0.023	0.000	21.5	5	1
03/10/06	2:48 a	-14.2	-14.2	-14.3	---	---	22.6	ESE	0.38	24.3	-26.6	---	---	734.6	0.023	0.000	21.5	5	1
03/10/06	2:49 a	-14.3	-14.3	-14.3	---	---	22.6	ESE	0.38	25.2	-26.6	---	---	734.6	0.023	0.000	21.5	5	1
03/10/06	2:50 a	-14.3	-14.3	-14.3	---	---	20.9	ESE	0.35	22.6	-26.2	---	---	734.7	0.023	0.000	21.5	5	1
03/10/06	2:51 a	-14.3	-14.3	-14.3	---	---	22.6	ESE	0.38	24.3	-26.7	---	---	734.6	0.023	0.000	21.5	5	1
03/10/06	2:52 a	-14.3	-14.3	-14.3	---	---	23.5	ESE	0.39	28.7	-26.8	---	---	734.6	0.023	0.000	21.5	5	1
03/10/06	2:53 a	-14.3	-14.3	-14.3	---	---	23.5	ESE	0.39	27.0	-26.8	---	---	734.5	0.023	0.000	21.5	5	1
03/10/06	2:54 a	-14.3	-14.3	-14.3	---	---	23.5	ESE	0.39	26.1	-26.8	---	---	734.5	0.023	0.000	21.5	5	1
03/10/06	2:55 a	-14.3	-14.3	-14.3	---	---	22.6	ESE	0.38	26.1	-26.6	---	---	734.4	0.023	0.000	21.5	5	1
03/10/06	2:56 a	-14.3	-14.3	-14.3	---	---	21.7	E	0.36	24.3	-26.5	---	---	734.5	0.023	0.000	21.5	5	1
03/10/06	2:57 a	-14.3	-14.3	-14.3	---	---	22.6	ESE	0.38	24.3	-26.7	---	---	734.4	0.023	0.000	21.5	5	1
03/10/06	2:58 a	-14.4	-14.3	-14.5	---	---	26.1	ESE	0.43	29.6	-27.5	---	---	734.4	0.023	0.000	21.5	5	1
03/10/06	2:59 a	-14.7	-14.5	-15.0	---	---	24.3	E	0.41	28.7	-27.6	---	---	734.4	0.023	0.000	21.4	5	1
03/10/06	3:00 a	-15.1	-15.0	-15.3	---	---	23.5	E	0.39	27.0	-27.9	---	---	734.3	0.023	0.000	21.4	5	1
03/10/06	3:01 a	-15.4	-15.3	-15.6	---	---	25.2	E	0.42	27.8	-28.7	---	---	734.3	0.023	0.000	21.4	5	1
03/10/06	3:02 a	-15.7	-15.7	-15.8	---	---	21.7	E	0.36	25.2	-28.3	---	---	734.3	0.024	0.000	21.4	4	1
03/10/06	3:03 a	-16.1	-16.0	-16.2	---	---	20.9	E	0.35	27.8	-28.6	---	---	734.2	0.024	0.000	21.4	4	1
03/10/06	3:04 a	-16.3	-16.2	-16.4	---	---	21.7	E	0.36	26.1	-29.2	---	---	734.3	0.024	0.000	21.4	4	1
03/10/06	3:05 a	-16.5	-16.4	-16.7	---	---	20.0	E	0.33	24.3	-28.9	---	---	734.3	0.024	0.000	21.4	4	1
03/10/06	3:06 a	-16.7	-16.7	-16.8	---	---	20.0	E	0.33	21.7	-29.3	---	---	734.4	0.024	0.000	21.5	4	1
03/10/06	3:07 a	-16.8	-16.8	-16.8	---	---	20.0	E	0.33	23.5	-29.3	---	---	734.3	0.024	0.000	21.5	4	1
03/10/06	3:08 a	-16.9	-16.8	-16.9	---	---	21.7	E	0.36	27.0	-29.9	---	---	734.2	0.024	0.000	21.5	4	1
03/10/06	3:09 a	-17.0	-17.0	-17.1	---	---	19.1	E	0.32	25.2	-29.4	---	---	734.4	0.025	0.000	21.5	4	1
03/10/06	3:10 a	-17.1	-17.0	-17.1	---	---	18.3	E	0.30	21.7	-29.2	---	---	734.4	0.025	0.000	21.5	4	1
03/10/06	3:11 a	-17.1	-17.1	-17.1	---	---	19.1	E	0.32	22.6	-29.5	---	---	734.4	0.025	0.000	21.5	4	1
03/10/06	3:12 a	-17.1	-17.1	-17.2	---	---	18.3	E	0.30	22.6	-29.3	---	---	734.4	0.025	0.000	21.5	4	1
03/10/06	3:13 a	-17.1	-17.1	-17.1	---	---	17.4	E	0.29	21.7	-29.1	---	---	734.3	0.025	0.000	21.5	4	1
03/10/06	3:14 a	-17.2	-17.2	-17.2	---	---	19.1	E	0.32	22.6	-29.6	---	---	734.3	0.025	0.000	21.5	4	1
03/10/06	3:15 a	-17.2	-17.2	-17.2	---	---	20.0	E	0.33	22.6	-29.9	---	---	734.3	0.025	0.000	21.5	4	1
03/10/06	3:16 a	-17.3	-17.3	-17.3	---	---	20.0	E	0.33	23.5	-30.0	---	---	734.3	0.025	0.000	21.5	4	1
03/10/06	3:17 a	-17.3	-17.3	-17.3	---	---	20.9	E	0.35	25.2	-30.3	---	---	734.3	0.025	0.000	21.6	4	1
03/10/06	3:18 a	-17.4	-17.3	-17.4	---	---	21.7	E	0.36	24.3	-30.6	---	---	734.3	0.025	0.000	21.6	4	1
03/10/06	3:19 a	-17.4	-17.3	-17.4	---	---	20.9	E	0.35	24.3	-30.4	---	---	734.3	0.025	0.000	21.6	4	1
03/10/06	3:20 a	-17.3	-17.3	-17.3	---	---	19.1	E	0.32	20.9	-29.8	---	---	734.4	0.025	0.000	21.6	4	1
03/10/06	3:21 a	-17.3	-17.3	-17.3	---	---	19.1	ENE	0.32	21.7	-29.8	---	---	734.3	0.025	0.000	21.6	4	1
03/10/06	3:22 a	-17.3	-17.3	-17.3	---	---	19.1	E	0.32	22.6	-29.8	---	---	734.2	0.025	0.000	21.5	4	1
03/10/06	3:23 a	-17.3	-17.3	-17.3	---	---	19.1	E	0.32	21.7	-29.8	---	---	734.3	0.025	0.000	21.5	4	1
03/10/06	3:24 a	-17.3	-17.3	-17.3	---	---	18.3	E	0.30	21.7	-29.6	---	---	734.2	0.025	0.000	21.5	4	1
03/10/06	3:25 a	-17.2	-17.2	-17.2	---	---	17.4	E	0.29	23.5	-29.2	---	---	734.2	0.025	0.000	21.5	4	1
03/10/06	3:26 a	-17.2	-17.2	-17.2	---	---	17.4	E	0.29	20.9	-29.2	---	---	734.3	0.025	0.000	21.5	4	1
03/10/06	3:27 a	-17.2	-17.2	-17.2	---	---	17.4	E	0.29	20.9	-29.2	---	---	734.2	0.025	0.000	21.5	4	1
03/10/06	3:28 a	-17.2	-17.2	-17.2	---	---	18.3	E	0.30	21.7	-29.4	---	---	734.4	0.025	0.000	21.5	4	1
03/10/06	3:29 a	-17.2	-17.2	-17.2	---	---	15.7	E	0.26	18.3	-28.7	---	---	734.2	0.025	0.000	21.5	4	1
03/10/06	3:30 a	-17.3	-17.3	-17.3	---	---	16.5	E	0.28	20.0	-29.0	---	---	734.3	0.025	0.000	21.5	4	1
03/10/06	3:31 a	-17.4	-17.4	-17.4	---	---	17.4	E	0.29	20.9	-29.4	---	---	734.2	0.025	0.000	21.5	4	1
03/10/06	3:32 a	-17.6	-17.5	-17.6	---	---	18.3	E	0.30	21.7	-29.9	---	---	734.2	0.025	0.000	21.5	4	1
03/10/06	3:33 a	-17.7	-17.6	-17.8	---	---	17.4	E	0.29	21.7	-29.9	---	---	734.2	0.025	0.000	21.5	4	1
03/10/06	3:34 a	-17.9	-17.8	-17.9	---	---	19.1	E	0.32	22.6	-30.6	---	---	734.2	0.025	0.000	21.5	4	1
03/10/06	3:35 a	-18.0	-18.0	-18.0	---	---	18.3	E	0.30	21.7	-30.5	---	---	734.2	0.025	0.000	21.5	4	1
03/10/06	3:36 a	-18.1	-18.1	-18.1	---	---	17.4	E	0.29	20.9	-30.3	---	---	734.2	0.025	0.000	21.5	4	1
03/10/06	3:37 a	-18.1	-18.1	-18.1	---	---	19.1	E	0.32	21.7	-30.9	---	---	734.2	0.025	0.000	21.5	4	1
03/10/06	3:38 a	-18.1	-18.1	-18.2	---	---	19.1	E	0.32	21.7	-30.9	---	---	734.2	0.025	0.000	21.5	4	1
03/10/06	3:39 a	-18.2	-18.2	-18.2	---	---	18.3	E	0.30	22.6	-30.7	---	---	734.2	0.025	0.000	21.5	4	1
03/10/06	3:40 a	-18.2	-18.2	-18.3	---	---	17.4	E	0.29	22.6	-30.5	---	---	734.2	0.025	0.000	21.5	4	1
03/10/06	3:41 a	-18.3	-18.3	-18.3	---	---	17.4	E	0.29	20.9	-30.6	---	---	734.2	0.025	0.000	21.5	4	1
03/10/06	3:42 a	-18.3	-18.3	-18.4	---	---	17.4	E	0.29	20.0	-30.7	---	---	734.2	0.025	0.000	21.5	4	1
03/10/06	3:43 a	-18.4	-18.4	-18.4	---	---	18.3	E	0.30	21.7	-31.0	---	---	734.1	0.026	0.000	21.5	4	1
03/10/06	3:44 a	-18.4	-18.4	-18.4	---	---	20.9	E	0.35	23.5	-31.8	---	---	734.2	0.026	0.000	21.5	4	1
03/10/06	3:45 a	-18.4	-18.4	-18.5	---	---	19.1	E	0.32	23.5	-31.3	---	---	734.1	0.026	0.000	21.5	4	1
03/10/06	3:46 a	-18.5	-18.5	-18.6	---	---	17.4	E	0.29	21.7	-30.9	---	---	734.2	0.026	0.000	21.5	4	1
03/10/06	3:47 a	-18.6	-18.6	-18.6	---	---	18.3	E	0.30	22.6	-31.2	---	---	734.3	0.026	0.000	21.5	4	1
03/10/06	3:48 a	-18.6	-18.6	-18.6	---	---	19.1	E	0.32	21.7	-31.6	---	---	734.2	0.026	0.000	21.5	4	1
03/10/06	3:49 a	-18.6	-18.6	-18.6	---	---	18.3	E	0.30	21.7	-31.3	---	---	734.2	0.026	0.000	21.5	4	1
03/10/06	3:50 a	-18.7	-18.6	-18.7	---	---	19.1	E	0.32	22.6	-31.6	---	---	734.1	0.026	0.000	21.5	4	1
03/10/06	3:51 a	-18.7	-18.7	-18.8	---	---	16.5	E	0.28	19.1	-30.9	---	---	734.2	0.026	0.000	21.5	4	1
03/10/06	3:52 a	-18.8	-18.8	-18.8	---	---	16.5	E	0.28	18.3	-31.0	---	---	734.2	0.026	0.000	21.5	4	1
03/10/06	3:53 a	-18.7	-18.7	-18.8	---	---	15.7	E	0.26	18.3	-30.6	---	---	734.3	0.026	0.000	21.5	4	1
03/10/06	3:54 a	-18.6	-18.6	-18.6	---	---	15.7	E	0.26	19.1	-30.5	---	---	734.2	0.026	0.000	21.5	4	1
03/10/06	3:55 a	-18.5	-18.5	-18.5	---	---	18.3	E	0.30	21.7	-31.2	---	---	734.2	0.026	0.000	21.5	4	1
03/10/06	3:56 a	-18.6	-18.5	-18.6	---	---	18.3	E	0.30	22.6	-31.2	---	---	734.3	0.026	0.000	21.5	4	1
03/10/06	3:57 a	-18.6	-18.6	-18.7	---	---	18.3	E	0.30	20.0	-31.3	---	---	734.3	0.026	0.000	21.5	4	1
03/10/06	3:58 a	-18.7	-18.7	-18.7	---	---	16.5	E	0.28	19.1	-30.9	---	---	734.3	0.026	0.000	21.5	4	1
03/10/06	3:59 a	-18.7	-18.7	-18.7	---	---	16.5	E	0.28	20.0	-30.8	---	---	734.3	0.026	0.000	21.5	4	1
03/10/06	4:00 a	-18.7	-18.7	-18.7	---	---	15.7	E	0.26	19.1	-30.6	---	---	734.3	0.026	0.000	21.5	4	1
03/10/06	4:01 a	-18.7	-18.6	-18.7	---	---	14.8	E	0.25	18.3	-30.3	---	---	734.3	0.026	0.000	21.5	4	1
03/10/06	4:02 a	-18.6	-18.6	-18.6	---	---	15.7	E	0.26	19.1	-30.5	---	---	734.3	0.026	0.000	21.5	4	1
03/10/06	4:03 a	-18.5	-18.5	-18.6	---	---	17.4	E	0.29	20.0	-30.9	---	---	734.2	0.026	0.000	21.5	4	1
03/10/06	4:04 a	-18.4	-18.4	-18.5	---	---	17.4	E	0.29	20.9	-30.8	---	---	734.3	0.026	0.000	21.5	4	1
03/10/06	4:05 a	-18.4	-18.3	-18.4	---	---	16.5	E	0.28	20.0	-30.5	---	---	734.2	0.026	0.000	21.5	4	1
03/10/06	4:06 a	-18.3	-18.3	-18.3	---	---	17.4	E	0.29	20.0	-30.6	---	---	734.3	0.025	0.000	21.5	4	1
03/10/06	4:07 a	-18.3	-18.3	-18.3	---	---	16.5	E	0.28	19.1	-30.3	---	---	734.2	0.025	0.000	21.5	4	1
03/10/06	4:08 a	-18.3	-18.3	-18.3	---	---	13.9	E	0.23	16.5	-29.4	---	---	734.2	0.025	0.000	21.5	4	1
03/10/06	4:09 a	-18.3	-18.3	-18.3	---	---	15.7	E	0.26	19.1	-30.1	---	---	734.2	0.025	0.000	21.5	4	1
03/10/06	4:10 a	-18.3	-18.3	-18.3	---	---	15.7	E	0.26	18.3	-30.1	---	---	734.2	0.025	0.000	21.5	4	1
03/10/06	4:11 a	-18.3	-18.3	-18.3	---	---	14.8	E	0.25	17.4	-29.8	---	---	734.3	0.025	0.000	21.5	4	1
03/10/06	4:12 a	-18.3	-18.3	-18.4	---	---	14.8	E	0.25	18.3	-29.8	---	---	734.2	0.025	0.000	21.5	3	1
03/10/06	4:13 a	-18.3	-18.3	-18.4	---	---	14.8	E	0.25	17.4	-29.8	---	---	734.2	0.025	0.000	21.6	3	1
03/10/06	4:14 a	-18.3	-18.3	-18.3	---	---	13.9	E	0.23	16.5	-29.6	---	---	734.2	0.025	0.000	21.6	3	1
03/10/06	4:15 a	-18.3	-18.3	-18.3	---	---	14.8	E	0.25	18.3	-29.8	---	---	734.2	0.025	0.000	21.6	4	1
03/10/06	4:16 a	-18.2	-18.2	-18.3	---	---	17.4	E	0.29	20.0	-30.5	---	---	734.2	0.025	0.000	21.5	3	1
03/10/06	4:17 a	-18.2	-18.2	-18.2	---	---	17.4	E	0.29	19.1	-30.5	---	---	734.3	0.025	0.000	21.5	3	1
03/10/06	4:18 a	-18.2	-18.1	-18.2	---	---	17.4	E	0.29	18.3	-30.4	---	---	734.3	0.025	0.000	21.5	4	1
03/10/06	4:19 a	-18.1	-18.1	-18.1	---	---	17.4	ENE	0.29	19.1	-30.4	---	---	734.3	0.025	0.000	21.5	3	1
03/10/06	4:20 a	-18.1	-18.1	-18.1	---	---	16.5	ENE	0.28	20.0	-30.1	---	---	734.2	0.025	0.000	21.5	3	1
03/10/06	4:21 a	-18.1	-18.1	-18.1	---	---	13.9	E	0.23	18.3	-29.2	---	---	734.3	0.025	0.000	21.5	3	1
03/10/06	4:22 a	-18.1	-18.1	-18.1	---	---	17.4	ENE	0.29	18.3	-30.3	---	---	734.3	0.025	0.000	21.5	3	1
03/10/06	4:23 a	-18.1	-18.1	-18.1	---	---	14.8	E	0.25	19.1	-29.5	---	---	734.3	0.025	0.000	21.5	4	1
03/10/06	4:24 a	-17.9	-17.9	-18.0	---	---	12.2	E	0.20	16.5	-28.4	---	---	734.3	0.025	0.000	21.5	3	1
03/10/06	4:25 a	-17.9	-17.9	-17.9	---	---	13.9	E	0.23	18.3	-28.9	---	---	734.3	0.025	0.000	21.5	3	1
03/10/06	4:26 a	-17.9	-17.9	-18.0	---	---	13.9	E	0.23	15.7	-29.1	---	---	734.3	0.025	0.000	21.5	3	1
03/10/06	4:27 a	-17.9	-17.9	-18.0	---	---	13.0	E	0.22	16.5	-28.7	---	---	734.4	0.025	0.000	21.5	3	1
03/10/06	4:28 a	-17.9	-17.9	-17.9	---	---	13.0	E	0.22	16.5	-28.7	---	---	734.3	0.025	0.000	21.5	3	1
03/10/06	4:29 a	-17.9	-17.8	-17.9	---	---	13.9	E	0.23	16.5	-28.9	---	---	734.2	0.025	0.000	21.5	3	1
03/10/06	4:30 a	-17.8	-17.8	-17.8	---	---	12.2	E	0.20	15.7	-28.2	---	---	734.3	0.025	0.000	21.5	3	1
03/10/06	4:31 a	-17.8	-17.8	-17.8	---	---	13.0	E	0.22	14.8	-28.5	---	---	734.3	0.025	0.000	21.5	3	1
03/10/06	4:32 a	-17.8	-17.8	-17.8	---	---	12.2	E	0.20	14.8	-28.2	---	---	734.3	0.025	0.000	21.5	3	1
03/10/06	4:33 a	-17.8	-17.8	-17.8	---	---	12.2	E	0.20	14.8	-28.2	---	---	734.3	0.025	0.000	21.5	3	1
03/10/06	4:34 a	-17.8	-17.8	-17.8	---	---	13.0	E	0.22	15.7	-28.5	---	---	734.3	0.025	0.000	21.5	3	1
03/10/06	4:35 a	-17.7	-17.6	-17.8	---	---	12.2	E	0.20	16.5	-28.0	---	---	734.2	0.025	0.000	21.5	3	1
03/10/06	4:36 a	-17.6	-17.6	-17.6	---	---	13.0	E	0.22	14.8	-28.2	---	---	734.2	0.025	0.000	21.5	3	1
03/10/06	4:37 a	-17.5	-17.5	-17.6	---	---	13.9	E	0.23	15.7	-28.4	---	---	734.3	0.025	0.000	21.5	3	1
03/10/06	4:38 a	-17.4	-17.4	-17.5	---	---	13.0	E	0.22	15.7	-28.1	---	---	734.3	0.025	0.000	21.5	3	1
03/10/06	4:39 a	-17.3	-17.2	-17.4	---	---	12.2	E	0.20	14.8	-27.6	---	---	734.2	0.025	0.000	21.5	3	1
03/10/06	4:40 a	-17.2	-17.1	-17.2	---	---	13.0	E	0.22	14.8	-27.7	---	---	734.3	0.025	0.000	21.5	3	1
03/10/06	4:41 a	-17.0	-17.0	-17.1	---	---	12.2	E	0.20	14.8	-27.2	---	---	734.4	0.025	0.000	21.5	3	1
03/10/06	4:42 a	-17.0	-17.0	-17.1	---	---	12.2	E	0.20	15.7	-27.2	---	---	734.4	0.025	0.000	21.5	3	1
03/10/06	4:43 a	-17.0	-17.0	-17.0	---	---	11.3	E	0.19	14.8	-26.8	---	---	734.4	0.025	0.000	21.5	3	1
03/10/06	4:44 a	-17.1	-17.1	-17.2	---	---	13.0	E	0.22	16.5	-27.7	---	---	734.4	0.025	0.000	21.4	3	1
03/10/06	4:45 a	-17.2	-17.2	-17.2	---	---	12.2	E	0.20	13.9	-27.4	---	---	734.4	0.025	0.000	21.4	3	1
03/10/06	4:46 a	-17.3	-17.3	-17.4	---	---	13.0	E	0.22	16.5	-27.9	---	---	734.3	0.025	0.000	21.4	3	1
03/10/06	4:47 a	-17.5	-17.4	-17.6	---	---	14.8	E	0.25	16.5	-28.8	---	---	734.3	0.025	0.000	21.5	3	1
03/10/06	4:48 a	-17.7	-17.6	-17.7	---	---	13.0	E	0.22	15.7	-28.3	---	---	734.3	0.025	0.000	21.5	3	1
03/10/06	4:49 a	-17.7	-17.7	-17.8	---	---	14.8	E	0.25	16.5	-29.1	---	---	734.2	0.025	0.000	21.5	3	1
03/10/06	4:50 a	-17.9	-17.8	-17.9	---	---	15.7	ENE	0.26	20.0	-29.6	---	---	734.3	0.025	0.000	21.5	3	1
03/10/06	4:51 a	-18.0	-18.0	-18.0	---	---	16.5	ENE	0.28	21.7	-29.9	---	---	734.2	0.025	0.000	21.5	3	1
03/10/06	4:52 a	-18.1	-18.1	-18.1	---	---	15.7	E	0.26	19.1	-29.8	---	---	734.3	0.025	0.000	21.5	3	1
03/10/06	4:53 a	-18.1	-18.1	-18.1	---	---	13.9	E	0.23	17.4	-29.2	---	---	734.2	0.025	0.000	21.5	3	1
03/10/06	4:54 a	-18.1	-18.1	-18.1	---	---	16.5	ENE	0.28	19.1	-30.1	---	---	734.2	0.025	0.000	21.5	3	1
03/10/06	4:55 a	-18.1	-18.1	-18.1	---	---	16.5	ENE	0.28	18.3	-30.1	---	---	734.2	0.025	0.000	21.5	3	1
03/10/06	4:56 a	-18.1	-18.1	-18.2	---	---	15.7	ENE	0.26	17.4	-29.8	---	---	734.3	0.025	0.000	21.5	3	1
03/10/06	4:57 a	-18.2	-18.2	-18.2	---	---	16.5	ENE	0.28	19.1	-30.2	---	---	734.3	0.025	0.000	21.5	3	1
03/10/06	4:58 a	-18.2	-18.2	-18.2	---	---	13.9	E	0.23	18.3	-29.4	---	---	734.3	0.025	0.000	21.5	3	1
03/10/06	4:59 a	-18.2	-18.2	-18.3	---	---	15.7	E	0.26	18.3	-30.0	---	---	734.2	0.025	0.000	21.5	3	1
03/10/06	5:00 a	-18.3	-18.3	-18.3	---	---	14.8	E	0.25	19.1	-29.8	---	---	734.2	0.025	0.000	21.5	3	1
03/10/06	5:01 a	-18.3	-18.3	-18.3	---	---	14.8	E	0.25	18.3	-29.8	---	---	734.3	0.025	0.000	21.5	3	1
03/10/06	5:02 a	-18.4	-18.3	-18.4	---	---	15.7	E	0.26	19.1	-30.2	---	---	734.2	0.026	0.000	21.5	3	1
03/10/06	5:03 a	-18.4	-18.4	-18.4	---	---	16.5	E	0.28	17.4	-30.6	---	---	734.2	0.026	0.000	21.6	3	1
03/10/06	5:04 a	-18.5	-18.4	-18.5	---	---	17.4	ENE	0.29	20.0	-30.9	---	---	734.2	0.026	0.000	21.6	3	1
03/10/06	5:05 a	-18.5	-18.5	-18.5	---	---	18.3	ENE	0.30	19.1	-31.2	---	---	734.1	0.026	0.000	21.6	3	1
03/10/06	5:06 a	-18.5	-18.4	-18.5	---	---	16.5	ENE	0.28	18.3	-30.6	---	---	734.1	0.026	0.000	21.6	3	1
03/10/06	5:07 a	-18.5	-18.4	-18.5	---	---	16.5	E	0.28	19.1	-30.6	---	---	734.1	0.026	0.000	21.5	3	1
03/10/06	5:08 a	-18.6	-18.5	-18.6	---	---	17.4	ENE	0.29	19.1	-30.9	---	---	734.1	0.026	0.000	21.5	3	1
03/10/06	5:09 a	-18.6	-18.6	-18.6	---	---	16.5	E	0.28	18.3	-30.7	---	---	734.0	0.026	0.000	21.6	3	1
03/10/06	5:10 a	-18.5	-18.5	-18.6	---	---	16.5	ENE	0.28	18.3	-30.6	---	---	734.1	0.026	0.000	21.6	3	1
03/10/06	5:11 a	-18.5	-18.5	-18.5	---	---	16.5	ENE	0.28	18.3	-30.6	---	---	734.1	0.026	0.000	21.6	3	1
03/10/06	5:12 a	-18.6	-18.5	-18.6	---	---	15.7	ENE	0.26	17.4	-30.4	---	---	734.2	0.026	0.000	21.6	3	1
03/10/06	5:13 a	-18.6	-18.6	-18.7	---	---	16.5	ENE	0.28	17.4	-30.8	---	---	734.1	0.026	0.000	21.6	3	1
03/10/06	5:14 a	-18.7	-18.7	-18.7	---	---	16.5	ENE	0.28	18.3	-30.9	---	---	734.0	0.026	0.000	21.6	3	1
03/10/06	5:15 a	-18.8	-18.7	-18.8	---	---	16.5	ENE	0.28	18.3	-31.0	---	---	734.1	0.026	0.000	21.6	3	1
03/10/06	5:16 a	-18.8	-18.8	-18.8	---	---	15.7	ENE	0.26	16.5	-30.8	---	---	734.1	0.026	0.000	21.5	3	1
03/10/06	5:17 a	-18.9	-18.8	-18.9	---	---	14.8	ENE	0.25	15.7	-30.6	---	---	734.2	0.026	0.000	21.5	3	1
03/10/06	5:18 a	-18.9	-18.9	-18.9	---	---	14.8	ENE	0.25	16.5	-30.6	---	---	734.2	0.026	0.000	21.5	3	1
03/10/06	5:19 a	-18.9	-18.9	-19.0	---	---	14.8	ENE	0.25	16.5	-30.6	---	---	734.2	0.026	0.000	21.5	3	1
03/10/06	5:20 a	-19.0	-19.0	-19.0	---	---	15.7	ENE	0.26	16.5	-31.0	---	---	734.3	0.026	0.000	21.5	3	1
03/10/06	5:21 a	-19.0	-19.0	-19.0	---	---	13.9	ENE	0.23	17.4	-30.4	---	---	734.2	0.026	0.000	21.5	3	1
03/10/06	5:22 a	-19.0	-19.0	-19.0	---	---	16.5	ENE	0.28	18.3	-31.3	---	---	734.2	0.026	0.000	21.5	3	1
03/10/06	5:23 a	-19.0	-19.0	-19.0	---	---	16.5	ENE	0.28	17.4	-31.3	---	---	734.1	0.026	0.000	21.5	3	1
03/10/06	5:24 a	-19.0	-19.0	-19.0	---	---	16.5	ENE	0.28	18.3	-31.3	---	---	734.1	0.026	0.000	21.5	3	1
03/10/06	5:25 a	-19.0	-18.9	-19.0	---	---	15.7	ENE	0.26	17.4	-31.0	---	---	734.1	0.026	0.000	21.5	3	1
03/10/06	5:26 a	-19.0	-19.0	-19.0	---	---	17.4	ENE	0.29	18.3	-31.6	---	---	734.1	0.026	0.000	21.5	3	1
03/10/06	5:27 a	-18.9	-18.9	-19.0	---	---	16.5	ENE	0.28	18.3	-31.2	---	---	734.0	0.026	0.000	21.5	3	1
03/10/06	5:28 a	-18.9	-18.9	-18.9	---	---	17.4	ENE	0.29	18.3	-31.5	---	---	734.1	0.026	0.000	21.5	3	1
03/10/06	5:29 a	-19.0	-18.9	-19.0	---	---	16.5	ENE	0.28	18.3	-31.3	---	---	734.1	0.026	0.000	21.5	3	1
03/10/06	5:30 a	-19.0	-19.0	-19.0	---	---	16.5	ENE	0.28	17.4	-31.3	---	---	734.1	0.026	0.000	21.5	3	1
03/10/06	5:31 a	-19.0	-19.0	-19.0	---	---	16.5	ENE	0.28	18.3	-31.3	---	---	734.1	0.026	0.000	21.5	3	1
03/10/06	5:32 a	-19.0	-19.0	-19.0	---	---	16.5	ENE	0.28	18.3	-31.3	---	---	734.1	0.026	0.000	21.5	3	1
03/10/06	5:33 a	-19.0	-19.0	-19.0	---	---	15.7	ENE	0.26	17.4	-31.0	---	---	734.1	0.026	0.000	21.5	3	1
03/10/06	5:34 a	-19.0	-19.0	-19.0	---	---	14.8	E	0.25	17.4	-30.7	---	---	734.1	0.026	0.000	21.5	3	1
03/10/06	5:35 a	-19.1	-19.0	-19.1	---	---	15.7	E	0.26	17.4	-31.1	---	---	734.0	0.026	0.000	21.5	3	1
03/10/06	5:36 a	-19.1	-19.1	-19.1	---	---	13.9	E	0.23	17.4	-30.4	---	---	734.1	0.026	0.000	21.5	3	1
03/10/06	5:37 a	-19.1	-19.1	-19.1	---	---	14.8	E	0.25	17.4	-30.8	---	---	734.1	0.026	0.000	21.5	3	1
03/10/06	5:38 a	-19.2	-19.1	-19.2	---	---	14.8	E	0.25	18.3	-30.9	---	---	734.1	0.026	0.000	21.5	3	1
03/10/06	5:39 a	-19.2	-19.2	-19.2	---	---	16.5	E	0.28	18.3	-31.5	---	---	734.2	0.026	0.000	21.5	3	1
03/10/06	5:40 a	-19.2	-19.2	-19.2	---	---	18.3	ENE	0.30	20.0	-32.1	---	---	734.1	0.026	0.000	21.5	3	1
03/10/06	5:41 a	-19.3	-19.2	-19.3	---	---	16.5	ENE	0.28	19.1	-31.7	---	---	734.1	0.026	0.000	21.5	3	1
03/10/06	5:42 a	-19.3	-19.3	-19.3	---	---	15.7	E	0.26	18.3	-31.3	---	---	734.1	0.026	0.000	21.5	3	1
03/10/06	5:43 a	-19.3	-19.3	-19.3	---	---	17.4	E	0.29	19.1	-31.9	---	---	734.1	0.026	0.000	21.5	3	1
03/10/06	5:44 a	-19.3	-19.3	-19.3	---	---	16.5	ENE	0.28	19.1	-31.7	---	---	734.0	0.026	0.000	21.5	3	1
03/10/06	5:45 a	-19.3	-19.3	-19.3	---	---	16.5	E	0.28	19.1	-31.7	---	---	734.1	0.026	0.000	21.5	3	1
03/10/06	5:46 a	-19.3	-19.3	-19.3	---	---	14.8	E	0.25	17.4	-31.1	---	---	734.1	0.026	0.000	21.5	3	1
03/10/06	5:47 a	-19.4	-19.3	-19.4	---	---	15.7	E	0.26	18.3	-31.5	---	---	734.0	0.026	0.000	21.4	3	1
03/10/06	5:48 a	-19.4	-19.4	-19.4	---	---	17.4	ENE	0.29	20.0	-32.1	---	---	734.0	0.026	0.000	21.4	3	1
03/10/06	5:49 a	-19.4	-19.4	-19.4	---	---	16.5	E	0.28	19.1	-31.8	---	---	734.0	0.026	0.000	21.4	3	1
03/10/06	5:50 a	-19.4	-19.4	-19.4	---	---	16.5	E	0.28	18.3	-31.8	---	---	734.0	0.026	0.000	21.4	3	1
03/10/06	5:51 a	-19.4	-19.4	-19.4	---	---	16.5	E	0.28	18.3	-31.8	---	---	734.1	0.026	0.000	21.4	3	1
03/10/06	5:52 a	-19.4	-19.4	-19.5	---	---	15.7	E	0.26	19.1	-31.6	---	---	734.1	0.026	0.000	21.4	3	1
03/10/06	5:53 a	-19.5	-19.5	-19.5	---	---	17.4	ENE	0.29	20.0	-32.2	---	---	734.2	0.026	0.000	21.4	3	1
03/10/06	5:54 a	-19.5	-19.5	-19.5	---	---	18.3	ENE	0.30	20.0	-32.4	---	---	734.2	0.026	0.000	21.4	3	1
03/10/06	5:55 a	-19.5	-19.5	-19.5	---	---	16.5	ENE	0.28	19.1	-31.9	---	---	734.2	0.026	0.000	21.4	3	1
03/10/06	5:56 a	-19.5	-19.5	-19.5	---	---	17.4	ENE	0.29	19.1	-32.2	---	---	734.2	0.026	0.000	21.4	3	1
03/10/06	5:57 a	-19.5	-19.5	-19.5	---	---	15.7	ENE	0.26	19.1	-31.7	---	---	734.1	0.026	0.000	21.4	3	1
03/10/06	5:58 a	-19.5	-19.5	-19.5	---	---	17.4	E	0.29	20.9	-32.2	---	---	734.2	0.026	0.000	21.4	3	1
03/10/06	5:59 a	-19.5	-19.5	-19.5	---	---	16.5	ENE	0.28	20.0	-31.9	---	---	734.3	0.026	0.000	21.4	3	1
03/10/06	6:00 a	-19.5	-19.5	-19.5	---	---	16.5	ENE	0.28	18.3	-31.9	---	---	734.2	0.026	0.000	21.4	3	1
03/10/06	6:01 a	-19.5	-19.5	-19.5	---	---	16.5	E	0.28	20.0	-31.9	---	---	734.2	0.026	0.000	21.4	3	1
03/10/06	6:02 a	-19.5	-19.5	-19.5	---	---	17.4	E	0.29	19.1	-32.2	---	---	734.2	0.026	0.000	21.4	3	1
03/10/06	6:03 a	-19.5	-19.5	-19.5	---	---	17.4	ENE	0.29	20.0	-32.2	---	---	734.2	0.026	0.000	21.4	3	1
03/10/06	6:04 a	-19.5	-19.5	-19.5	---	---	15.7	E	0.26	19.1	-31.7	---	---	734.2	0.026	0.000	21.4	3	1
03/10/06	6:05 a	-19.5	-19.5	-19.6	---	---	15.7	E	0.26	18.3	-31.7	---	---	734.1	0.026	0.000	21.4	3	1
03/10/06	6:06 a	-19.6	-19.6	-19.6	---	---	16.5	E	0.28	18.3	-32.0	---	---	734.2	0.026	0.000	21.4	3	1
03/10/06	6:07 a	-19.6	-19.6	-19.6	---	---	15.7	E	0.26	20.0	-31.8	---	---	734.1	0.026	0.000	21.4	3	1
03/10/06	6:08 a	-19.7	-19.6	-19.7	---	---	18.3	ENE	0.30	19.1	-32.7	---	---	734.2	0.026	0.000	21.4	3	1
03/10/06	6:09 a	-19.7	-19.7	-19.7	---	---	18.3	ENE	0.30	20.0	-32.7	---	---	734.1	0.026	0.000	21.4	3	1
03/10/06	6:10 a	-19.7	-19.7	-19.7	---	---	17.4	ENE	0.29	20.0	-32.5	---	---	734.2	0.026	0.000	21.4	3	1
03/10/06	6:11 a	-19.8	-19.8	-19.8	---	---	18.3	ENE	0.30	19.1	-32.8	---	---	734.2	0.026	0.000	21.4	3	1
03/10/06	6:12 a	-19.8	-19.8	-19.8	---	---	17.4	ENE	0.29	19.1	-32.6	---	---	734.1	0.026	0.000	21.4	3	1
03/10/06	6:13 a	-19.8	-19.8	-19.8	---	---	17.4	ENE	0.29	18.3	-32.6	---	---	734.2	0.027	0.000	21.4	3	1
03/10/06	6:14 a	-19.9	-19.8	-19.9	---	---	15.7	ENE	0.26	18.3	-32.2	---	---	734.2	0.027	0.000	21.4	3	1
03/10/06	6:15 a	-19.9	-19.9	-19.9	---	---	15.7	E	0.26	17.4	-32.2	---	---	734.2	0.027	0.000	21.4	3	1
03/10/06	6:16 a	-19.9	-19.9	-20.0	---	---	18.3	E	0.30	20.9	-33.1	---	---	734.1	0.027	0.000	21.4	3	1
03/10/06	6:17 a	-20.0	-20.0	-20.0	---	---	19.1	ENE	0.32	20.9	-33.4	---	---	734.2	0.027	0.000	21.4	3	1
03/10/06	6:18 a	-20.0	-20.0	-20.1	---	---	17.4	E	0.29	19.1	-32.8	---	---	734.2	0.027	0.000	21.4	3	1
03/10/06	6:19 a	-20.1	-20.1	-20.1	---	---	16.5	E	0.28	19.1	-32.7	---	---	734.2	0.027	0.000	21.4	3	1
03/10/06	6:20 a	-20.1	-20.1	-20.1	---	---	15.7	E	0.26	18.3	-32.4	---	---	734.2	0.027	0.000	21.4	3	1
03/10/06	6:21 a	-20.2	-20.1	-20.2	---	---	16.5	E	0.28	20.0	-32.8	---	---	734.2	0.027	0.000	21.4	3	1
03/10/06	6:22 a	-20.2	-20.1	-20.2	---	---	16.5	E	0.28	20.0	-32.8	---	---	734.2	0.027	0.000	21.4	3	1
03/10/06	6:23 a	-20.2	-20.2	-20.2	---	---	16.5	E	0.28	19.1	-32.9	---	---	734.2	0.027	0.000	21.4	3	1
03/10/06	6:24 a	-20.2	-20.2	-20.2	---	---	17.4	E	0.29	20.0	-33.2	---	---	734.2	0.027	0.000	21.4	3	1
03/10/06	6:25 a	-20.2	-20.2	-20.3	---	---	19.1	ENE	0.32	20.0	-33.7	---	---	734.2	0.027	0.000	21.4	3	1
03/10/06	6:26 a	-20.2	-20.2	-20.2	---	---	17.4	ENE	0.29	19.1	-33.2	---	---	734.1	0.027	0.000	21.4	3	1
03/10/06	6:27 a	-20.3	-20.2	-20.3	---	---	18.3	E	0.30	21.7	-33.5	---	---	734.2	0.027	0.000	21.4	3	1
03/10/06	6:28 a	-20.3	-20.3	-20.3	---	---	16.5	E	0.28	20.0	-32.9	---	---	734.1	0.027	0.000	21.4	3	1
03/10/06	6:29 a	-20.3	-20.3	-20.3	---	---	16.5	E	0.28	20.0	-32.9	---	---	734.1	0.027	0.000	21.4	3	1
03/10/06	6:30 a	-20.3	-20.3	-20.3	---	---	16.5	E	0.28	20.0	-33.0	---	---	734.3	0.027	0.000	21.3	3	1
03/10/06	6:31 a	-20.3	-20.3	-20.3	---	---	14.8	E	0.25	16.5	-32.3	---	---	734.2	0.027	0.000	21.4	3	1
03/10/06	6:32 a	-20.3	-20.3	-20.3	---	---	18.3	E	0.30	20.0	-33.6	---	---	734.1	0.027	0.000	21.4	3	1
03/10/06	6:33 a	-20.3	-20.3	-20.3	---	---	19.1	E	0.32	20.9	-33.8	---	---	734.3	0.027	0.000	21.3	3	1
03/10/06	6:34 a	-20.2	-20.2	-20.2	---	---	18.3	E	0.30	20.9	-33.4	---	---	734.2	0.027	0.000	21.3	3	1
03/10/06	6:35 a	-20.2	-20.2	-20.2	---	---	14.8	E	0.25	18.3	-32.3	---	---	734.3	0.027	0.000	21.3	3	1
03/10/06	6:36 a	-20.2	-20.2	-20.2	---	---	14.8	E	0.25	19.1	-32.3	---	---	734.2	0.027	0.000	21.3	3	1
03/10/06	6:37 a	-20.2	-20.2	-20.2	---	---	15.7	E	0.26	18.3	-32.5	---	---	734.1	0.027	0.000	21.3	3	1
03/10/06	6:38 a	-20.2	-20.1	-20.2	---	---	15.7	E	0.26	20.0	-32.5	---	---	734.2	0.027	0.000	21.3	3	1
03/10/06	6:39 a	-20.1	-20.1	-20.1	---	---	15.7	E	0.26	19.1	-32.4	---	---	734.2	0.027	0.000	21.3	3	1
03/10/06	6:40 a	-20.1	-20.1	-20.1	---	---	14.8	E	0.25	18.3	-32.1	---	---	734.2	0.027	0.000	21.3	3	1
03/10/06	6:41 a	-20.0	-20.0	-20.1	---	---	14.8	E	0.25	17.4	-32.0	---	---	734.1	0.027	0.000	21.3	3	1
03/10/06	6:42 a	-20.0	-20.0	-20.0	---	---	15.7	E	0.26	18.3	-32.3	---	---	734.2	0.027	0.000	21.3	3	1
03/10/06	6:43 a	-20.0	-19.9	-20.0	---	---	14.8	E	0.25	17.4	-32.0	---	---	734.2	0.027	0.000	21.3	3	1
03/10/06	6:44 a	-19.9	-19.9	-19.9	---	---	14.8	E	0.25	16.5	-31.9	---	---	734.2	0.027	0.000	21.3	3	1
03/10/06	6:45 a	-19.9	-19.9	-19.9	---	---	14.8	E	0.25	17.4	-31.9	---	---	734.2	0.027	0.000	21.3	3	1
03/10/06	6:46 a	-19.9	-19.9	-19.9	---	---	14.8	E	0.25	16.5	-31.9	---	---	734.1	0.027	0.000	21.3	3	1
03/10/06	6:47 a	-19.9	-19.9	-19.9	---	---	16.5	E	0.28	20.9	-32.5	---	---	734.1	0.027	0.000	21.3	3	1
03/10/06	6:48 a	-19.9	-19.9	-19.9	---	---	19.1	E	0.32	21.7	-33.3	---	---	734.1	0.027	0.000	21.3	3	1
03/10/06	6:49 a	-19.8	-19.7	-19.9	---	---	17.4	E	0.29	20.0	-32.6	---	---	734.1	0.026	0.000	21.3	3	1
03/10/06	6:50 a	-19.6	-19.5	-19.6	---	---	20.9	E	0.35	22.6	-33.3	---	---	734.1	0.026	0.000	21.3	3	1
03/10/06	6:51 a	-19.4	-19.4	-19.5	---	---	20.0	ESE	0.33	21.7	-32.9	---	---	734.1	0.026	0.000	21.3	3	1
03/10/06	6:52 a	-19.3	-19.3	-19.4	---	---	21.7	ESE	0.36	22.6	-33.2	---	---	734.1	0.026	0.000	21.3	3	1
03/10/06	6:53 a	-19.2	-19.1	-19.2	---	---	20.0	ESE	0.33	21.7	-32.6	---	---	734.1	0.026	0.000	21.3	3	1
03/10/06	6:54 a	-19.1	-19.1	-19.1	---	---	19.1	ESE	0.32	21.7	-32.2	---	---	734.2	0.026	0.000	21.2	3	1
03/10/06	6:55 a	-19.1	-19.0	-19.1	---	---	20.0	ESE	0.33	25.2	-32.4	---	---	734.2	0.026	0.000	21.3	3	1
03/10/06	6:56 a	-18.9	-18.9	-19.0	---	---	20.9	ESE	0.35	21.7	-32.4	---	---	734.1	0.026	0.000	21.3	3	1
03/10/06	6:57 a	-18.9	-18.9	-18.9	---	---	20.9	ESE	0.35	22.6	-32.4	---	---	734.0	0.026	0.000	21.2	3	1
03/10/06	6:58 a	-18.8	-18.8	-18.9	---	---	19.1	ESE	0.32	21.7	-31.8	---	---	734.1	0.026	0.000	21.3	3	1
03/10/06	6:59 a	-18.8	-18.8	-18.8	---	---	19.1	ESE	0.32	22.6	-31.8	---	---	734.1	0.026	0.000	21.2	3	1
03/10/06	7:00 a	-18.8	-18.8	-18.8	---	---	20.0	ESE	0.33	21.7	-32.0	---	---	734.1	0.026	0.000	21.2	3	1
03/10/06	7:01 a	-18.7	-18.7	-18.8	---	---	20.0	ESE	0.33	21.7	-31.9	---	---	734.1	0.026	0.000	21.2	2	1
03/10/06	7:02 a	-18.7	-18.7	-18.7	---	---	20.0	ESE	0.33	21.7	-31.9	---	---	734.1	0.026	0.000	21.2	3	1
03/10/06	7:03 a	-18.7	-18.7	-18.7	---	---	20.0	ESE	0.33	21.7	-31.9	---	---	734.1	0.026	0.000	21.2	3	1
03/10/06	7:04 a	-18.7	-18.7	-18.7	---	---	21.7	ESE	0.36	25.2	-32.4	---	---	734.1	0.026	0.000	21.2	3	1
03/10/06	7:05 a	-18.7	-18.7	-18.7	---	---	22.6	SE	0.38	25.2	-32.6	---	---	734.1	0.026	0.000	21.2	3	1
03/10/06	7:06 a	-18.7	-18.7	-18.7	---	---	22.6	ESE	0.38	25.2	-32.5	---	---	734.1	0.026	0.000	21.2	2	1
03/10/06	7:07 a	-18.7	-18.7	-18.7	---	---	23.5	ESE	0.39	25.2	-32.7	---	---	733.9	0.026	0.000	21.2	3	1
03/10/06	7:08 a	-18.7	-18.7	-18.7	---	---	21.7	ESE	0.36	23.5	-32.3	---	---	734.1	0.026	0.000	21.2	2	1
03/10/06	7:09 a	-18.7	-18.7	-18.7	---	---	21.7	ESE	0.36	23.5	-32.4	---	---	734.0	0.026	0.000	21.2	2	1
03/10/06	7:10 a	-18.7	-18.7	-18.8	---	---	23.5	ESE	0.39	26.1	-32.8	---	---	734.1	0.026	0.000	21.2	2	1
03/10/06	7:11 a	-18.8	-18.7	-18.8	---	---	20.9	ESE	0.35	21.7	-32.2	---	---	734.1	0.026	0.000	21.2	2	1
03/10/06	7:12 a	-18.8	-18.8	-18.8	---	---	22.6	ESE	0.38	25.2	-32.7	---	---	734.0	0.026	0.000	21.1	3	1
03/10/06	7:13 a	-18.8	-18.8	-18.8	---	---	21.7	ESE	0.36	24.3	-32.5	---	---	734.0	0.026	0.000	21.1	2	1
03/10/06	7:14 a	-18.8	-18.8	-18.8	---	---	22.6	ESE	0.38	25.2	-32.7	---	---	734.1	0.026	0.000	21.1	2	1
03/10/06	7:15 a	-18.8	-18.8	-18.8	---	---	22.6	ESE	0.38	24.3	-32.7	---	---	734.1	0.026	0.000	21.1	2	1
03/10/06	7:16 a	-18.8	-18.8	-18.8	---	---	21.7	ESE	0.36	23.5	-32.5	---	---	734.1	0.026	0.000	21.1	2	1
03/10/06	7:17 a	-18.9	-18.8	-18.9	---	---	21.7	ESE	0.36	23.5	-32.6	---	---	734.0	0.026	0.000	21.1	2	1
03/10/06	7:18 a	-18.9	-18.9	-18.9	---	---	20.9	ESE	0.35	24.3	-32.4	---	---	734.0	0.026	0.000	21.1	2	1
03/10/06	7:19 a	-18.9	-18.9	-18.9	---	---	21.7	ESE	0.36	24.3	-32.6	---	---	734.0	0.026	0.000	21.1	2	1
03/10/06	7:20 a	-18.9	-18.9	-18.9	---	---	22.6	ESE	0.38	24.3	-32.9	---	---	734.1	0.026	0.000	21.1	2	1
03/10/06	7:21 a	-19.0	-18.9	-19.0	---	---	21.7	ESE	0.36	23.5	-32.7	---	---	734.1	0.026	0.000	21.1	2	1
03/10/06	7:22 a	-19.1	-19.0	-19.1	---	---	21.7	ESE	0.36	25.2	-32.8	---	---	734.0	0.026	0.000	21.0	2	1
03/10/06	7:23 a	-19.1	-19.0	-19.1	---	---	21.7	ESE	0.36	23.5	-32.8	---	---	734.0	0.026	0.000	21.0	2	1
03/10/06	7:24 a	-19.1	-19.1	-19.1	---	---	21.7	ESE	0.36	23.5	-32.8	---	---	734.2	0.026	0.000	21.0	2	1
03/10/06	7:25 a	-19.1	-19.1	-19.1	---	---	20.9	ESE	0.35	22.6	-32.6	---	---	734.2	0.026	0.000	21.0	2	1
03/10/06	7:26 a	-19.0	-19.0	-19.0	---	---	20.9	ESE	0.35	23.5	-32.5	---	---	734.1	0.026	0.000	21.0	2	1
03/10/06	7:27 a	-18.9	-18.8	-19.0	---	---	23.5	ESE	0.39	27.0	-33.0	---	---	733.9	0.026	0.000	20.9	2	1
03/10/06	7:28 a	-18.8	-18.7	-18.8	---	---	20.9	ESE	0.35	23.5	-32.2	---	---	734.1	0.026	0.000	21.0	2	1
03/10/06	7:29 a	-18.6	-18.6	-18.7	---	---	20.0	ESE	0.33	21.7	-31.8	---	---	734.1	0.026	0.000	21.0	2	1
03/10/06	7:30 a	-18.7	-18.6	-18.7	---	---	20.9	ESE	0.35	22.6	-32.1	---	---	734.0	0.026	0.000	20.9	2	1
03/10/06	7:31 a	-18.7	-18.7	-18.8	---	---	20.0	ESE	0.33	22.6	-31.9	---	---	734.1	0.026	0.000	20.9	2	1
03/10/06	7:32 a	-18.7	-18.7	-18.8	---	---	20.0	ESE	0.33	22.6	-31.9	---	---	734.0	0.026	0.000	20.9	2	1
03/10/06	7:33 a	-18.8	-18.8	-18.8	---	---	19.1	ESE	0.32	22.6	-31.8	---	---	734.2	0.026	0.000	20.9	2	1
03/10/06	7:34 a	-18.8	-18.8	-18.8	---	---	19.1	SE	0.32	22.6	-31.8	---	---	734.3	0.026	0.000	20.9	2	1
03/10/06	7:35 a	-18.8	-18.7	-18.8	---	---	19.1	ESE	0.32	20.9	-31.8	---	---	734.3	0.026	0.000	20.9	2	1
03/10/06	7:36 a	-18.8	-18.7	-18.8	---	---	17.4	ESE	0.29	20.0	-31.3	---	---	734.1	0.026	0.000	20.9	2	1
03/10/06	7:37 a	-18.8	-18.8	-18.8	---	---	19.1	ESE	0.32	20.0	-31.8	---	---	734.2	0.026	0.000	20.9	2	1
03/10/06	7:38 a	-18.8	-18.8	-18.8	---	---	19.1	ESE	0.32	20.0	-31.8	---	---	734.2	0.026	0.000	20.9	2	1
03/10/06	7:39 a	-18.9	-18.8	-18.9	---	---	19.1	ESE	0.32	20.0	-31.9	---	---	734.1	0.026	0.000	20.9	2	1
03/10/06	7:40 a	-18.9	-18.9	-18.9	---	---	19.1	ESE	0.32	20.9	-32.0	---	---	734.1	0.026	0.000	20.9	2	1
03/10/06	7:41 a	-18.9	-18.9	-18.9	---	---	18.3	ESE	0.30	20.0	-31.7	---	---	734.2	0.026	0.000	20.9	2	1
03/10/06	7:42 a	-18.9	-18.9	-18.9	---	---	18.3	ESE	0.30	19.1	-31.7	---	---	734.0	0.026	0.000	20.9	2	1
03/10/06	7:43 a	-18.9	-18.8	-18.9	---	---	19.1	ESE	0.32	20.9	-31.9	---	---	734.1	0.026	0.000	20.9	2	1
03/10/06	7:44 a	-18.8	-18.8	-18.8	---	---	18.3	ESE	0.30	20.0	-31.6	---	---	734.1	0.026	0.000	20.9	2	1
03/10/06	7:45 a	-18.8	-18.8	-18.8	---	---	16.5	ESE	0.28	19.1	-31.1	---	---	734.1	0.026	0.000	20.9	2	1
03/10/06	7:46 a	-18.8	-18.8	-18.8	---	---	17.4	ESE	0.29	18.3	-31.3	---	---	734.1	0.026	0.000	20.9	2	1
03/10/06	7:47 a	-18.8	-18.8	-18.8	---	---	16.5	ESE	0.28	18.3	-31.0	---	---	734.1	0.026	0.000	20.9	2	1
03/10/06	7:48 a	-18.8	-18.8	-18.8	---	---	17.4	ESE	0.29	20.9	-31.3	---	---	734.1	0.026	0.000	20.9	2	1
03/10/06	7:49 a	-18.8	-18.8	-18.8	---	---	17.4	ESE	0.29	19.1	-31.3	---	---	734.0	0.026	0.000	20.9	2	1
03/10/06	7:50 a	-18.8	-18.8	-18.8	---	---	15.7	ESE	0.26	16.5	-30.7	---	---	734.1	0.026	0.000	20.9	2	1
03/10/06	7:51 a	-18.8	-18.8	-18.8	---	---	15.7	SE	0.26	17.4	-30.8	---	---	734.2	0.026	0.000	20.9	2	1
03/10/06	7:52 a	-18.8	-18.7	-18.8	---	---	17.4	SE	0.29	20.9	-31.3	---	---	734.2	0.026	0.000	20.9	2	1
03/10/06	7:53 a	-18.6	-18.5	-18.7	---	---	16.5	SE	0.28	18.3	-30.8	---	---	734.2	0.026	0.000	20.9	2	1
03/10/06	7:54 a	-18.4	-18.4	-18.5	---	---	18.3	SE	0.30	20.9	-31.1	---	---	734.1	0.026	0.000	20.9	2	1
03/10/06	7:55 a	-18.3	-18.3	-18.4	---	---	17.4	SE	0.29	20.0	-30.7	---	---	734.1	0.025	0.000	20.9	2	1
03/10/06	7:56 a	-18.2	-18.2	-18.3	---	---	20.0	ESE	0.33	22.6	-31.3	---	---	734.1	0.025	0.000	20.9	2	1
03/10/06	7:57 a	-18.2	-18.2	-18.3	---	---	18.3	ESE	0.30	20.0	-30.8	---	---	734.1	0.025	0.000	21.0	2	1
03/10/06	7:58 a	-18.2	-18.2	-18.2	---	---	16.5	SE	0.28	20.9	-30.2	---	---	734.1	0.025	0.000	21.0	2	1
03/10/06	7:59 a	-18.2	-18.1	-18.2	---	---	18.3	ESE	0.30	22.6	-30.7	---	---	734.1	0.025	0.000	21.0	2	1
03/10/06	8:00 a	-18.2	-18.2	-18.2	---	---	20.0	ESE	0.33	23.5	-31.3	---	---	734.0	0.025	0.000	20.9	2	1
03/10/06	8:01 a	-18.2	-18.2	-18.3	---	---	19.1	ESE	0.32	20.0	-31.0	---	---	734.0	0.025	0.000	20.9	2	1
03/10/06	8:02 a	-18.3	-18.3	-18.3	---	---	20.0	ESE	0.33	21.7	-31.4	---	---	734.0	0.025	0.000	20.9	2	1
03/10/06	8:03 a	-18.4	-18.3	-18.4	---	---	18.3	ESE	0.30	21.7	-31.0	---	---	734.1	0.026	0.000	20.9	2	1
03/10/06	8:04 a	-18.5	-18.4	-18.5	---	---	20.0	ESE	0.33	23.5	-31.6	---	---	734.0	0.026	0.000	20.9	2	1
03/10/06	8:05 a	-18.5	-18.5	-18.5	---	---	20.0	ESE	0.33	24.3	-31.6	---	---	733.9	0.026	0.000	20.9	2	1
03/10/06	8:06 a	-18.5	-18.4	-18.5	---	---	20.0	SE	0.33	23.5	-31.6	---	---	734.0	0.026	0.000	20.9	2	1
03/10/06	8:07 a	-18.4	-18.4	-18.4	---	---	20.0	ESE	0.33	21.7	-31.5	---	---	733.9	0.026	0.000	20.9	2	1
03/10/06	8:08 a	-18.4	-18.4	-18.4	---	---	20.9	ESE	0.35	23.5	-31.7	---	---	733.9	0.026	0.000	20.9	2	1
03/10/06	8:09 a	-18.4	-18.4	-18.4	---	---	20.9	ESE	0.35	22.6	-31.7	---	---	733.9	0.026	0.000	20.9	2	1
03/10/06	8:10 a	-18.4	-18.4	-18.4	---	---	21.7	ESE	0.36	25.2	-31.9	---	---	733.8	0.026	0.000	20.9	2	1
03/10/06	8:11 a	-18.4	-18.4	-18.4	---	---	20.9	ESE	0.35	22.6	-31.7	---	---	733.9	0.026	0.000	20.9	2	1
03/10/06	8:12 a	-18.4	-18.4	-18.4	---	---	20.9	ESE	0.35	23.5	-31.8	---	---	733.8	0.026	0.000	20.9	2	1
03/10/06	8:13 a	-18.4	-18.4	-18.5	---	---	19.1	ESE	0.32	21.7	-31.3	---	---	733.8	0.026	0.000	20.9	2	1
03/10/06	8:14 a	-18.6	-18.6	-18.6	---	---	20.0	ESE	0.33	22.6	-31.7	---	---	733.8	0.026	0.000	20.8	2	1
03/10/06	8:15 a	-18.6	-18.6	-18.7	---	---	20.0	ESE	0.33	24.3	-31.8	---	---	733.8	0.026	0.000	20.8	2	1
03/10/06	8:16 a	-18.7	-18.7	-18.7	---	---	20.9	ESE	0.35	24.3	-32.1	---	---	733.8	0.026	0.000	20.8	2	1
03/10/06	8:17 a	-18.7	-18.7	-18.7	---	---	21.7	ESE	0.36	25.2	-32.4	---	---	733.8	0.026	0.000	20.8	2	1
03/10/06	8:18 a	-18.7	-18.7	-18.8	---	---	20.0	E	0.33	25.2	-31.9	---	---	733.7	0.026	0.000	20.8	2	1
03/10/06	8:19 a	-18.8	-18.8	-18.8	---	---	21.7	E	0.36	24.3	-32.4	---	---	733.8	0.026	0.000	20.8	2	1
03/10/06	8:20 a	-18.7	-18.7	-18.7	---	---	20.9	ESE	0.35	24.3	-32.2	---	---	733.8	0.026	0.000	20.8	2	1
03/10/06	8:21 a	-18.7	-18.7	-18.7	---	---	22.6	ESE	0.38	27.0	-32.6	---	---	733.8	0.026	0.000	20.8	2	1
03/10/06	8:22 a	-18.7	-18.7	-18.7	---	---	24.3	ESE	0.41	30.4	-32.9	---	---	733.7	0.026	0.000	20.8	2	1
03/10/06	8:23 a	-18.6	-18.6	-18.6	---	---	22.6	ESE	0.38	27.0	-32.4	---	---	733.7	0.026	0.000	20.8	2	1
03/10/06	8:24 a	-18.6	-18.6	-18.6	---	---	22.6	ESE	0.38	25.2	-32.4	---	---	733.8	0.026	0.000	20.8	2	1
03/10/06	8:25 a	-18.6	-18.6	-18.7	---	---	23.5	ESE	0.39	27.0	-32.7	---	---	733.7	0.026	0.000	20.8	2	1
03/10/06	8:26 a	-18.7	-18.7	-18.7	---	---	25.2	ESE	0.42	29.6	-33.1	---	---	733.6	0.026	0.000	20.8	2	1
03/10/06	8:27 a	-18.7	-18.6	-18.7	---	---	25.2	ESE	0.42	28.7	-33.1	---	---	733.8	0.026	0.000	20.8	2	1
03/10/06	8:28 a	-18.6	-18.6	-18.6	---	---	22.6	ESE	0.38	26.1	-32.4	---	---	733.8	0.026	0.000	20.8	2	1
03/10/06	8:29 a	-18.6	-18.6	-18.6	---	---	24.3	SE	0.41	26.1	-32.8	---	---	733.7	0.026	0.000	20.8	2	1
03/10/06	8:30 a	-18.6	-18.6	-18.6	---	---	25.2	SE	0.42	29.6	-33.1	---	---	733.7	0.026	0.000	20.8	2	1
03/10/06	8:31 a	-18.6	-18.6	-18.6	---	---	25.2	ESE	0.42	27.8	-33.1	---	---	733.7	0.026	0.000	20.8	2	1
03/10/06	8:32 a	-18.6	-18.6	-18.6	---	---	22.6	ESE	0.38	24.3	-32.4	---	---	733.8	0.026	0.000	20.8	2	1
03/10/06	8:33 a	-18.6	-18.6	-18.6	---	---	21.7	ESE	0.36	23.5	-32.2	---	---	733.8	0.026	0.000	20.8	2	1
03/10/06	8:34 a	-18.6	-18.6	-18.6	---	---	22.6	ESE	0.38	27.8	-32.4	---	---	733.8	0.026	0.000	20.8	2	1
03/10/06	8:35 a	-18.7	-18.6	-18.7	---	---	22.6	ESE	0.38	25.2	-32.5	---	---	733.7	0.026	0.000	20.8	2	1
03/10/06	8:36 a	-18.7	-18.7	-18.7	---	---	21.7	ESE	0.36	24.3	-32.3	---	---	733.8	0.026	0.000	20.8	2	1
03/10/06	8:37 a	-18.7	-18.7	-18.7	---	---	22.6	ESE	0.38	26.1	-32.5	---	---	733.6	0.026	0.000	20.8	2	1
03/10/06	8:38 a	-18.7	-18.7	-18.7	---	---	23.5	ESE	0.39	26.1	-32.7	---	---	733.8	0.026	0.000	20.8	2	1
03/10/06	8:39 a	-18.7	-18.7	-18.7	---	---	23.5	ESE	0.39	27.8	-32.7	---	---	733.8	0.026	0.000	20.8	2	1
03/10/06	8:40 a	-18.7	-18.7	-18.7	---	---	23.5	SE	0.39	25.2	-32.8	---	---	733.7	0.026	0.000	20.8	2	1
03/10/06	8:41 a	-18.7	-18.7	-18.7	---	---	23.5	ESE	0.39	26.1	-32.7	---	---	733.7	0.026	0.000	20.8	2	1
03/10/06	8:42 a	-18.7	-18.7	-18.7	---	---	23.5	ESE	0.39	25.2	-32.7	---	---	733.6	0.026	0.000	20.8	2	1
03/10/06	8:43 a	-18.7	-18.7	-18.7	---	---	24.3	ESE	0.41	27.0	-32.9	---	---	733.6	0.026	0.000	20.8	2	1
03/10/06	8:44 a	-18.7	-18.7	-18.7	---	---	25.2	ESE	0.42	28.7	-33.1	---	---	733.7	0.026	0.000	20.8	2	1
03/10/06	8:45 a	-18.7	-18.7	-18.7	---	---	23.5	ESE	0.39	26.1	-32.7	---	---	733.6	0.026	0.000	20.8	2	1
03/10/06	8:46 a	-18.7	-18.7	-18.7	---	---	23.5	ESE	0.39	27.8	-32.7	---	---	733.6	0.026	0.000	20.8	2	1
03/10/06	8:47 a	-18.7	-18.7	-18.7	---	---	21.7	E	0.36	25.2	-32.4	---	---	733.7	0.026	0.000	20.8	2	1
03/10/06	8:48 a	-18.7	-18.7	-18.7	---	---	24.3	E	0.41	27.8	-32.9	---	---	733.5	0.026	0.000	20.8	2	1
03/10/06	8:49 a	-18.7	-18.7	-18.7	---	---	27.0	ESE	0.45	33.9	-33.5	---	---	733.6	0.026	0.000	20.8	2	1
03/10/06	8:50 a	-18.7	-18.6	-18.7	---	---	25.2	ESE	0.42	29.6	-33.1	---	---	733.6	0.026	0.000	20.8	2	1
03/10/06	8:51 a	-18.6	-18.6	-18.6	---	---	26.1	ESE	0.43	29.6	-33.2	---	---	733.6	0.026	0.000	20.7	2	1
03/10/06	8:52 a	-18.7	-18.7	-18.7	---	---	24.3	ESE	0.41	27.8	-32.9	---	---	733.5	0.026	0.000	20.7	2	1
03/10/06	8:53 a	-18.7	-18.6	-18.7	---	---	24.3	ESE	0.41	27.0	-32.9	---	---	733.5	0.026	0.000	20.7	2	1
03/10/06	8:54 a	-18.6	-18.6	-18.6	---	---	26.1	ESE	0.43	30.4	-33.2	---	---	733.7	0.026	0.000	20.7	2	1
03/10/06	8:55 a	-18.6	-18.6	-18.6	---	---	23.5	ESE	0.39	27.0	-32.7	---	---	733.6	0.026	0.000	20.7	2	1
03/10/06	8:56 a	-18.6	-18.6	-18.6	---	---	24.3	ESE	0.41	27.0	-32.8	---	---	733.6	0.026	0.000	20.7	2	1
03/10/06	8:57 a	-18.6	-18.6	-18.6	---	---	24.3	ESE	0.41	28.7	-32.8	---	---	733.6	0.026	0.000	20.7	2	1
03/10/06	8:58 a	-18.6	-18.6	-18.6	---	---	27.0	ESE	0.45	33.0	-33.4	---	---	733.6	0.026	0.000	20.7	2	1
03/10/06	8:59 a	-18.6	-18.6	-18.6	---	---	26.1	ESE	0.43	27.8	-33.2	---	---	733.6	0.026	0.000	20.7	2	1
03/10/06	9:00 a	-18.6	-18.5	-18.6	---	---	24.3	ESE	0.41	29.6	-32.8	---	---	733.6	0.026	0.000	20.7	2	1
03/10/06	9:01 a	-18.6	-18.6	-18.6	---	---	23.5	ESE	0.39	28.7	-32.6	---	---	733.5	0.026	0.000	20.7	2	1
03/10/06	9:02 a	-18.6	-18.5	-18.6	---	---	24.3	ESE	0.41	27.0	-32.8	---	---	733.6	0.026	0.000	20.7	2	1
03/10/06	9:03 a	-18.5	-18.5	-18.5	---	---	23.5	ESE	0.39	26.1	-32.5	---	---	733.6	0.026	0.000	20.6	2	1
03/10/06	9:04 a	-18.5	-18.5	-18.5	---	---	24.3	ESE	0.41	28.7	-32.7	---	---	733.7	0.026	0.000	20.6	2	1
03/10/06	9:05 a	-18.5	-18.5	-18.5	---	---	22.6	ESE	0.38	26.1	-32.3	---	---	733.6	0.026	0.000	20.6	2	1
03/10/06	9:06 a	-18.6	-18.6	-18.6	---	---	22.6	ESE	0.38	25.2	-32.3	---	---	733.6	0.026	0.000	20.6	2	1
03/10/06	9:07 a	-18.6	-18.6	-18.6	---	---	22.6	ESE	0.38	26.1	-32.3	---	---	733.7	0.026	0.000	20.6	2	1
03/10/06	9:08 a	-18.6	-18.6	-18.6	---	---	22.6	ESE	0.38	26.1	-32.3	---	---	733.7	0.026	0.000	20.6	2	1
03/10/06	9:09 a	-18.6	-18.6	-18.6	---	---	20.9	ESE	0.35	23.5	-32.0	---	---	733.7	0.026	0.000	20.6	2	1
03/10/06	9:10 a	-18.6	-18.6	-18.6	---	---	20.0	ESE	0.33	20.9	-31.8	---	---	733.8	0.026	0.000	20.6	2	1
03/10/06	9:11 a	-18.7	-18.6	-18.7	---	---	20.0	ESE	0.33	21.7	-31.8	---	---	733.6	0.026	0.000	20.6	2	1
03/10/06	9:12 a	-18.7	-18.7	-18.7	---	---	20.0	ESE	0.33	23.5	-31.8	---	---	733.7	0.026	0.000	20.6	2	1
03/10/06	9:13 a	-18.7	-18.6	-18.7	---	---	20.9	ESE	0.35	25.2	-32.1	---	---	733.7	0.026	0.000	20.6	2	1
03/10/06	9:14 a	-18.6	-18.6	-18.6	---	---	22.6	ESE	0.38	25.2	-32.4	---	---	733.6	0.026	0.000	20.6	2	1
03/10/06	9:15 a	-18.6	-18.5	-18.6	---	---	20.9	ESE	0.35	26.1	-31.9	---	---	733.8	0.026	0.000	20.6	2	1
03/10/06	9:16 a	-18.6	-18.6	-18.6	---	---	19.1	ESE	0.32	21.7	-31.4	---	---	733.7	0.026	0.000	20.6	2	1
03/10/06	9:17 a	-18.6	-18.5	-18.6	---	---	19.1	ESE	0.32	21.7	-31.4	---	---	733.8	0.026	0.000	20.6	2	1
03/10/06	9:18 a	-18.6	-18.5	-18.6	---	---	20.0	ESE	0.33	23.5	-31.7	---	---	733.8	0.026	0.000	20.6	2	1
03/10/06	9:19 a	-18.5	-18.4	-18.6	---	---	20.9	ESE	0.35	22.6	-31.8	---	---	733.8	0.026	0.000	20.6	2	1
03/10/06	9:20 a	-18.4	-18.4	-18.5	---	---	19.1	SE	0.32	22.6	-31.3	---	---	733.8	0.026	0.000	20.6	2	1
03/10/06	9:21 a	-18.4	-18.4	-18.4	---	---	22.6	ESE	0.38	25.2	-32.2	---	---	733.6	0.026	0.000	20.6	2	1
03/10/06	9:22 a	-18.3	-18.3	-18.3	---	---	19.1	ESE	0.32	25.2	-31.2	---	---	733.7	0.025	0.000	20.6	2	1
03/10/06	9:23 a	-18.3	-18.3	-18.3	---	---	20.9	SE	0.35	22.6	-31.6	---	---	733.7	0.025	0.000	20.6	2	1
03/10/06	9:24 a	-18.2	-18.1	-18.2	---	---	20.9	SE	0.35	23.5	-31.4	---	---	733.8	0.025	0.000	20.6	2	1
03/10/06	9:25 a	-18.1	-18.1	-18.1	---	---	20.0	SE	0.33	22.6	-31.1	---	---	733.6	0.025	0.000	20.6	2	1
03/10/06	9:26 a	-18.1	-18.0	-18.1	---	---	20.9	ESE	0.35	23.5	-31.3	---	---	733.7	0.025	0.000	20.6	2	1
03/10/06	9:27 a	-18.0	-17.9	-18.0	---	---	20.9	ESE	0.35	22.6	-31.2	---	---	733.7	0.025	0.000	20.6	2	1
03/10/06	9:28 a	-17.9	-17.9	-18.0	---	---	19.1	ESE	0.32	20.9	-30.7	---	---	733.7	0.025	0.000	20.6	2	1
03/10/06	9:29 a	-18.0	-17.9	-18.0	---	---	19.1	ESE	0.32	21.7	-30.7	---	---	733.7	0.025	0.000	20.6	2	1
03/10/06	9:30 a	-18.0	-17.9	-18.0	---	---	19.1	SE	0.32	22.6	-30.7	---	---	733.6	0.025	0.000	20.6	2	1
03/10/06	9:31 a	-17.9	-17.9	-17.9	---	---	20.0	ESE	0.33	23.5	-30.9	---	---	733.6	0.025	0.000	20.6	2	1
03/10/06	9:32 a	-17.9	-17.8	-17.9	---	---	19.1	ESE	0.32	23.5	-30.6	---	---	733.7	0.025	0.000	20.6	2	1
03/10/06	9:33 a	-17.8	-17.8	-17.8	---	---	18.3	ESE	0.30	20.9	-30.3	---	---	733.7	0.025	0.000	20.6	2	1
03/10/06	9:34 a	-17.8	-17.8	-17.8	---	---	18.3	ESE	0.30	22.6	-30.3	---	---	733.6	0.025	0.000	20.6	2	1
03/10/06	9:35 a	-17.8	-17.8	-17.8	---	---	18.3	ESE	0.30	20.0	-30.3	---	---	733.7	0.025	0.000	20.6	2	1
03/10/06	9:36 a	-17.8	-17.8	-17.9	---	---	17.4	ESE	0.29	19.1	-30.0	---	---	733.7	0.025	0.000	20.6	2	1
03/10/06	9:37 a	-17.9	-17.9	-17.9	---	---	18.3	ESE	0.30	20.9	-30.3	---	---	733.7	0.025	0.000	20.6	2	1
03/10/06	9:38 a	-17.9	-17.9	-17.9	---	---	17.4	ESE	0.29	20.0	-30.2	---	---	733.8	0.025	0.000	20.6	2	1
03/10/06	9:39 a	-17.9	-17.9	-17.9	---	---	16.5	ESE	0.28	18.3	-29.9	---	---	733.7	0.025	0.000	20.6	2	1
03/10/06	9:40 a	-17.9	-17.9	-17.9	---	---	16.5	ESE	0.28	18.3	-29.9	---	---	733.7	0.025	0.000	20.6	2	1
03/10/06	9:41 a	-17.9	-17.9	-17.9	---	---	16.5	ESE	0.28	18.3	-29.9	---	---	733.7	0.025	0.000	20.6	2	1
03/10/06	9:42 a	-17.9	-17.9	-17.9	---	---	16.5	ESE	0.28	19.1	-29.9	---	---	733.7	0.025	0.000	20.6	2	1
03/10/06	9:43 a	-17.9	-17.9	-17.9	---	---	16.5	ESE	0.28	19.1	-29.8	---	---	733.7	0.025	0.000	20.6	2	1
03/10/06	9:44 a	-17.9	-17.9	-17.9	---	---	17.4	ESE	0.29	20.0	-30.1	---	---	733.7	0.025	0.000	20.6	2	1
03/10/06	9:45 a	-17.9	-17.9	-17.9	---	---	18.3	ESE	0.30	20.9	-30.3	---	---	733.7	0.025	0.000	20.6	2	1
03/10/06	9:46 a	-17.9	-17.9	-17.9	---	---	16.5	ESE	0.28	18.3	-29.8	---	---	733.7	0.025	0.000	20.6	2	1
03/10/06	9:47 a	-17.9	-17.9	-17.9	---	---	14.8	ESE	0.25	16.5	-29.3	---	---	733.8	0.025	0.000	20.6	2	1
03/10/06	9:48 a	-17.8	-17.8	-17.9	---	---	20.0	ESE	0.33	25.2	-30.7	---	---	733.6	0.025	0.000	20.6	2	1
03/10/06	9:49 a	-17.8	-17.7	-17.8	---	---	18.3	SE	0.30	22.6	-30.2	---	---	733.7	0.025	0.000	20.6	2	1
03/10/06	9:50 a	-17.7	-17.6	-17.7	---	---	14.8	ESE	0.25	17.4	-29.0	---	---	733.7	0.025	0.000	20.6	2	1
03/10/06	9:51 a	-17.6	-17.6	-17.6	---	---	15.7	ESE	0.26	20.0	-29.2	---	---	733.7	0.025	0.000	20.6	2	1
03/10/06	9:52 a	-17.6	-17.6	-17.6	---	---	15.7	SE	0.26	19.1	-29.2	---	---	733.7	0.025	0.000	20.6	2	1
03/10/06	9:53 a	-17.6	-17.6	-17.6	---	---	14.8	SE	0.25	17.4	-28.8	---	---	733.7	0.025	0.000	20.6	2	1
03/10/06	9:54 a	-17.6	-17.5	-17.6	---	---	16.5	SE	0.28	18.3	-29.4	---	---	733.7	0.025	0.000	20.6	2	1
03/10/06	9:55 a	-17.5	-17.4	-17.5	---	---	15.7	SE	0.26	18.3	-29.1	---	---	733.7	0.025	0.000	20.6	2	1
03/10/06	9:56 a	-17.4	-17.4	-17.5	---	---	16.5	SE	0.28	20.0	-29.2	---	---	733.7	0.025	0.000	20.6	2	1
03/10/06	9:57 a	-17.4	-17.4	-17.4	---	---	14.8	SE	0.25	16.5	-28.6	---	---	733.7	0.025	0.000	20.6	2	1
03/10/06	9:58 a	-17.3	-17.3	-17.4	---	---	15.7	SE	0.26	16.5	-28.8	---	---	733.7	0.025	0.000	20.6	2	1
03/10/06	9:59 a	-17.3	-17.3	-17.4	---	---	13.9	SE	0.23	15.7	-28.2	---	---	733.7	0.025	0.000	20.6	2	1
03/10/06	10:00 a	-17.3	-17.3	-17.3	---	---	13.9	SE	0.23	15.7	-28.2	---	---	733.7	0.025	0.000	20.6	2	1
03/10/06	10:01 a	-17.3	-17.2	-17.3	---	---	15.7	SSE	0.26	17.4	-28.8	---	---	733.7	0.025	0.000	20.6	2	1
03/10/06	10:02 a	-17.2	-17.2	-17.3	---	---	13.9	SE	0.23	16.5	-28.1	---	---	733.7	0.025	0.000	20.6	2	1
03/10/06	10:03 a	-17.2	-17.2	-17.3	---	---	15.7	SSE	0.26	18.3	-28.7	---	---	733.6	0.025	0.000	20.6	2	1
03/10/06	10:04 a	-17.2	-17.2	-17.2	---	---	14.8	SSE	0.25	16.5	-28.4	---	---	733.6	0.025	0.000	20.6	2	1
03/10/06	10:05 a	-17.2	-17.2	-17.2	---	---	13.9	SSE	0.23	16.5	-28.1	---	---	733.6	0.025	0.000	20.6	2	1
03/10/06	10:06 a	-17.2	-17.2	-17.2	---	---	13.9	SE	0.23	14.8	-28.1	---	---	733.6	0.025	0.000	20.6	2	1
03/10/06	10:07 a	-17.2	-17.2	-17.2	---	---	14.8	SE	0.25	16.5	-28.3	---	---	733.6	0.025	0.000	20.6	2	1
03/10/06	10:08 a	-17.2	-17.2	-17.2	---	---	15.7	SE	0.26	17.4	-28.6	---	---	733.6	0.025	0.000	20.6	2	1
03/10/06	10:09 a	-17.2	-17.2	-17.2	---	---	14.8	SE	0.25	15.7	-28.3	---	---	733.6	0.025	0.000	20.6	2	1
03/10/06	10:10 a	-17.2	-17.2	-17.2	---	---	14.8	SE	0.25	16.5	-28.3	---	---	733.6	0.025	0.000	20.6	2	1
03/10/06	10:11 a	-17.2	-17.2	-17.2	---	---	13.9	SE	0.23	14.8	-28.1	---	---	733.5	0.025	0.000	20.6	2	1
03/10/06	10:12 a	-17.2	-17.2	-17.2	---	---	13.9	SE	0.23	17.4	-28.1	---	---	733.6	0.025	0.000	20.6	2	1
03/10/06	10:13 a	-17.2	-17.2	-17.2	---	---	15.7	SE	0.26	18.3	-28.6	---	---	733.5	0.025	0.000	20.6	2	1
03/10/06	10:14 a	-17.2	-17.1	-17.2	---	---	17.4	SE	0.29	19.1	-29.2	---	---	733.5	0.025	0.000	20.6	2	1
03/10/06	10:15 a	-17.1	-17.1	-17.1	---	---	15.7	SSE	0.26	17.4	-28.4	---	---	733.5	0.025	0.000	20.6	2	1
03/10/06	10:16 a	-17.1	-17.1	-17.1	---	---	15.7	SE	0.26	19.1	-28.4	---	---	733.5	0.025	0.000	20.6	2	1
03/10/06	10:17 a	-17.1	-17.0	-17.1	---	---	14.8	SE	0.25	18.3	-28.2	---	---	733.6	0.025	0.000	20.6	2	1
03/10/06	10:18 a	-17.0	-17.0	-17.0	---	---	15.7	SE	0.26	18.3	-28.4	---	---	733.5	0.025	0.000	20.6	2	1
03/10/06	10:19 a	-17.0	-17.0	-17.0	---	---	14.8	SSE	0.25	16.5	-28.1	---	---	733.6	0.025	0.000	20.6	2	1
03/10/06	10:20 a	-17.0	-17.0	-17.0	---	---	14.8	SE	0.25	16.5	-28.1	---	---	733.6	0.025	0.000	20.6	2	1
03/10/06	10:21 a	-17.0	-17.0	-17.0	---	---	13.0	SE	0.22	14.8	-27.5	---	---	733.6	0.025	0.000	20.6	2	1
03/10/06	10:22 a	-17.0	-17.0	-17.1	---	---	13.0	ESE	0.22	15.7	-27.5	---	---	733.6	0.025	0.000	20.6	2	1
03/10/06	10:23 a	-17.1	-17.1	-17.1	---	---	12.2	ESE	0.20	14.8	-27.2	---	---	733.6	0.025	0.000	20.6	2	1
03/10/06	10:24 a	-17.1	-17.1	-17.1	---	---	14.8	SE	0.25	16.5	-28.2	---	---	733.5	0.025	0.000	20.7	2	1
03/10/06	10:25 a	-17.1	-17.1	-17.1	---	---	14.8	SE	0.25	17.4	-28.3	---	---	733.5	0.025	0.000	20.7	2	1
03/10/06	10:26 a	-17.1	-17.1	-17.2	---	---	12.2	ESE	0.20	13.9	-27.3	---	---	733.6	0.025	0.000	20.7	2	1
03/10/06	10:27 a	-17.2	-17.2	-17.2	---	---	13.9	SE	0.23	16.5	-28.1	---	---	733.5	0.025	0.000	20.6	2	1
03/10/06	10:28 a	-17.2	-17.2	-17.2	---	---	13.9	SE	0.23	14.8	-28.1	---	---	733.5	0.025	0.000	20.6	2	1
03/10/06	10:29 a	-17.2	-17.2	-17.2	---	---	13.9	SE	0.23	15.7	-28.1	---	---	733.5	0.025	0.000	20.6	2	1
03/10/06	10:30 a	-17.2	-17.1	-17.2	---	---	14.8	SE	0.25	17.4	-28.3	---	---	733.5	0.025	0.000	20.7	2	1
03/10/06	10:31 a	-17.1	-17.1	-17.2	---	---	14.8	SE	0.25	17.4	-28.3	---	---	733.6	0.025	0.000	20.7	2	1
03/10/06	10:32 a	-17.1	-17.1	-17.1	---	---	15.7	SE	0.26	17.4	-28.6	---	---	733.5	0.025	0.000	20.6	2	1
03/10/06	10:33 a	-17.1	-17.1	-17.1	---	---	14.8	ESE	0.25	16.5	-28.3	---	---	733.5	0.025	0.000	20.6	2	1
03/10/06	10:34 a	-17.1	-17.1	-17.1	---	---	14.8	ESE	0.25	18.3	-28.3	---	---	733.5	0.025	0.000	20.6	2	1
03/10/06	10:35 a	-17.1	-17.1	-17.1	---	---	14.8	ESE	0.25	16.5	-28.3	---	---	733.4	0.025	0.000	20.6	2	1
03/10/06	10:36 a	-17.2	-17.2	-17.2	---	---	13.9	ESE	0.23	18.3	-28.1	---	---	733.5	0.025	0.000	20.6	2	1
03/10/06	10:37 a	-17.2	-17.2	-17.2	---	---	13.0	ESE	0.22	15.7	-27.7	---	---	733.5	0.025	0.000	20.6	2	1
03/10/06	10:38 a	-17.2	-17.2	-17.2	---	---	14.8	ESE	0.25	16.5	-28.4	---	---	733.4	0.025	0.000	20.6	2	1
03/10/06	10:39 a	-17.2	-17.2	-17.2	---	---	14.8	ESE	0.25	17.4	-28.4	---	---	733.4	0.025	0.000	20.6	2	1
03/10/06	10:40 a	-17.3	-17.2	-17.3	---	---	14.8	E	0.25	17.4	-28.4	---	---	733.4	0.025	0.000	20.6	2	1
03/10/06	10:41 a	-17.3	-17.3	-17.3	---	---	13.9	E	0.23	15.7	-28.2	---	---	733.4	0.025	0.000	20.6	2	1
03/10/06	10:42 a	-17.3	-17.3	-17.3	---	---	13.9	E	0.23	16.5	-28.2	---	---	733.3	0.025	0.000	20.6	2	1
03/10/06	10:43 a	-17.3	-17.3	-17.3	---	---	13.0	E	0.22	15.7	-27.8	---	---	733.3	0.025	0.000	20.6	2	1
03/10/06	10:44 a	-17.3	-17.3	-17.4	---	---	13.9	E	0.23	15.7	-28.2	---	---	733.3	0.025	0.000	20.6	2	1
03/10/06	10:45 a	-17.4	-17.4	-17.4	---	---	12.2	E	0.20	14.8	-27.7	---	---	733.3	0.025	0.000	20.6	2	1
03/10/06	10:46 a	-17.4	-17.4	-17.4	---	---	13.0	E	0.22	18.3	-28.1	---	---	733.4	0.025	0.000	20.6	2	1
03/10/06	10:47 a	-17.5	-17.5	-17.5	---	---	13.9	E	0.23	16.5	-28.4	---	---	733.3	0.025	0.000	20.6	2	1
03/10/06	10:48 a	-17.5	-17.5	-17.5	---	---	13.9	E	0.23	20.0	-28.4	---	---	733.2	0.025	0.000	20.6	2	1
03/10/06	10:49 a	-17.5	-17.4	-17.5	---	---	14.8	E	0.25	17.4	-28.8	---	---	733.3	0.025	0.000	20.6	2	1
03/10/06	10:50 a	-17.4	-17.4	-17.4	---	---	15.7	E	0.26	18.3	-28.9	---	---	733.3	0.025	0.000	20.6	2	1
03/10/06	10:51 a	-17.4	-17.4	-17.4	---	---	15.7	ESE	0.26	18.3	-28.9	---	---	733.2	0.025	0.000	20.6	2	1
03/10/06	10:52 a	-17.4	-17.4	-17.4	---	---	13.0	E	0.22	16.5	-28.0	---	---	733.3	0.025	0.000	20.6	2	1
03/10/06	10:53 a	-17.4	-17.4	-17.4	---	---	14.8	E	0.25	17.4	-28.6	---	---	733.3	0.025	0.000	20.6	2	1
03/10/06	10:54 a	-17.4	-17.4	-17.4	---	---	13.9	E	0.23	16.5	-28.3	---	---	733.2	0.025	0.000	20.6	2	1
03/10/06	10:55 a	-17.4	-17.4	-17.4	---	---	13.0	E	0.22	16.5	-28.0	---	---	733.2	0.025	0.000	20.6	2	1
03/10/06	10:56 a	-17.4	-17.3	-17.4	---	---	15.7	E	0.26	19.1	-28.9	---	---	733.2	0.025	0.000	20.6	2	1
03/10/06	10:57 a	-17.3	-17.3	-17.3	---	---	14.8	E	0.25	18.3	-28.6	---	---	733.2	0.025	0.000	20.6	2	1
03/10/06	10:58 a	-17.3	-17.3	-17.3	---	---	17.4	ENE	0.29	19.1	-29.3	---	---	733.1	0.025	0.000	20.6	2	1
03/10/06	10:59 a	-17.3	-17.3	-17.3	---	---	13.9	E	0.23	17.4	-28.2	---	---	733.1	0.025	0.000	20.6	2	1
03/10/06	11:00 a	-17.2	-17.2	-17.3	---	---	10.4	E	0.17	15.7	-26.7	---	---	733.2	0.025	0.000	20.7	2	1
03/10/06	11:01 a	-17.2	-17.2	-17.2	---	---	13.0	E	0.22	15.7	-27.7	---	---	733.1	0.025	0.000	20.7	2	1
03/10/06	11:02 a	-17.2	-17.2	-17.2	---	---	13.9	E	0.23	15.7	-28.1	---	---	733.1	0.025	0.000	20.7	2	1
03/10/06	11:03 a	-17.2	-17.2	-17.2	---	---	12.2	E	0.20	15.7	-27.4	---	---	733.1	0.025	0.000	20.7	2	1
03/10/06	11:04 a	-17.2	-17.2	-17.2	---	---	13.9	E	0.23	16.5	-28.1	---	---	733.0	0.025	0.000	20.7	2	1
03/10/06	11:05 a	-17.2	-17.2	-17.3	---	---	11.3	E	0.19	17.4	-27.1	---	---	733.0	0.025	0.000	20.7	2	1
03/10/06	11:06 a	-17.3	-17.2	-17.3	---	---	11.3	E	0.19	15.7	-27.2	---	---	733.0	0.025	0.000	20.7	2	1
03/10/06	11:07 a	-17.3	-17.3	-17.3	---	---	13.0	E	0.22	16.5	-27.9	---	---	733.0	0.025	0.000	20.7	2	1
03/10/06	11:08 a	-17.3	-17.3	-17.3	---	---	13.9	E	0.23	17.4	-28.2	---	---	732.9	0.025	0.000	20.7	2	1
03/10/06	11:09 a	-17.3	-17.3	-17.3	---	---	11.3	E	0.19	13.9	-27.2	---	---	733.0	0.025	0.000	20.7	2	1
03/10/06	11:10 a	-17.3	-17.3	-17.4	---	---	13.0	E	0.22	15.7	-27.9	---	---	732.9	0.025	0.000	20.7	2	1
03/10/06	11:11 a	-17.4	-17.4	-17.4	---	---	13.0	E	0.22	16.5	-28.0	---	---	732.8	0.025	0.000	20.7	2	1
03/10/06	11:12 a	-17.4	-17.4	-17.4	---	---	14.8	E	0.25	17.4	-28.7	---	---	732.9	0.025	0.000	20.7	2	1
03/10/06	11:13 a	-17.4	-17.4	-17.4	---	---	14.8	E	0.25	17.4	-28.7	---	---	732.8	0.025	0.000	20.7	2	1
03/10/06	11:14 a	-17.4	-17.4	-17.4	---	---	15.7	E	0.26	18.3	-28.9	---	---	732.7	0.025	0.000	20.7	2	1
03/10/06	11:15 a	-17.3	-17.3	-17.4	---	---	13.9	E	0.23	16.5	-28.2	---	---	732.8	0.025	0.000	20.7	2	1
03/10/06	11:16 a	-17.3	-17.3	-17.3	---	---	14.8	E	0.25	17.4	-28.6	---	---	732.8	0.025	0.000	20.7	2	1
03/10/06	11:17 a	-17.4	-17.3	-17.4	---	---	14.8	E	0.25	19.1	-28.6	---	---	732.8	0.025	0.000	20.7	2	1
03/10/06	11:18 a	-17.4	-17.4	-17.4	---	---	14.8	E	0.25	19.1	-28.6	---	---	732.8	0.025	0.000	20.7	2	1
03/10/06	11:19 a	-17.4	-17.4	-17.4	---	---	13.0	E	0.22	16.5	-28.1	---	---	732.7	0.025	0.000	20.7	2	1
03/10/06	11:20 a	-17.4	-17.4	-17.4	---	---	16.5	ENE	0.28	18.3	-29.2	---	---	732.8	0.025	0.000	20.7	2	1
03/10/06	11:21 a	-17.4	-17.4	-17.4	---	---	15.7	ENE	0.26	17.4	-28.9	---	---	732.8	0.025	0.000	20.7	2	1
03/10/06	11:22 a	-17.4	-17.4	-17.4	---	---	15.7	ENE	0.26	17.4	-28.9	---	---	732.9	0.025	0.000	20.7	2	1
03/10/06	11:23 a	-17.4	-17.3	-17.4	---	---	13.9	ENE	0.23	18.3	-28.3	---	---	732.9	0.025	0.000	20.7	2	1
03/10/06	11:24 a	-17.3	-17.3	-17.4	---	---	13.0	ENE	0.22	14.8	-27.9	---	---	732.8	0.025	0.000	20.7	2	1
03/10/06	11:25 a	-17.4	-17.3	-17.4	---	---	13.0	ENE	0.22	15.7	-28.0	---	---	732.9	0.025	0.000	20.7	2	1
03/10/06	11:26 a	-17.4	-17.4	-17.4	---	---	10.4	E	0.17	13.0	-26.9	---	---	732.8	0.025	0.000	20.7	2	1
03/10/06	11:27 a	-17.4	-17.4	-17.4	---	---	13.0	ENE	0.22	18.3	-28.0	---	---	732.8	0.025	0.000	20.7	2	1
03/10/06	11:28 a	-17.3	-17.3	-17.3	---	---	12.2	ENE	0.20	17.4	-27.6	---	---	732.9	0.025	0.000	20.7	2	1
03/10/06	11:29 a	-17.2	-17.2	-17.3	---	---	13.0	E	0.22	15.7	-27.8	---	---	732.7	0.025	0.000	20.7	2	1
03/10/06	11:30 a	-17.2	-17.2	-17.2	---	---	11.3	E	0.19	13.0	-27.1	---	---	732.9	0.025	0.000	20.7	2	1
03/10/06	11:31 a	-17.2	-17.1	-17.2	---	---	12.2	E	0.20	13.9	-27.4	---	---	732.8	0.025	0.000	20.7	2	1
03/10/06	11:32 a	-17.1	-17.1	-17.1	---	---	13.0	ENE	0.22	14.8	-27.7	---	---	732.8	0.025	0.000	20.7	2	1
03/10/06	11:33 a	-17.1	-17.1	-17.1	---	---	15.7	ENE	0.26	17.4	-28.6	---	---	732.8	0.025	0.000	20.7	2	1
03/10/06	11:34 a	-17.1	-17.1	-17.1	---	---	10.4	E	0.17	13.0	-26.6	---	---	732.8	0.025	0.000	20.7	2	1
03/10/06	11:35 a	-17.2	-17.1	-17.2	---	---	11.3	E	0.19	13.0	-27.1	---	---	732.8	0.025	0.000	20.7	2	1
03/10/06	11:36 a	-17.2	-17.2	-17.2	---	---	13.0	ENE	0.22	17.4	-27.8	---	---	732.7	0.025	0.000	20.7	2	1
03/10/06	11:37 a	-17.2	-17.2	-17.2	---	---	13.9	ENE	0.23	16.5	-28.1	---	---	732.7	0.025	0.000	20.7	2	1
03/10/06	11:38 a	-17.1	-17.1	-17.2	---	---	14.8	ENE	0.25	17.4	-28.3	---	---	732.7	0.025	0.000	20.7	2	1
03/10/06	11:39 a	-17.2	-17.2	-17.2	---	---	9.6	E	0.16	13.0	-26.3	---	---	732.7	0.025	0.000	20.7	2	1
03/10/06	11:40 a	-17.2	-17.2	-17.2	---	---	13.0	ENE	0.22	14.8	-27.7	---	---	732.7	0.025	0.000	20.7	2	1
03/10/06	11:41 a	-17.1	-17.1	-17.1	---	---	10.4	ENE	0.17	13.0	-26.6	---	---	732.7	0.025	0.000	20.7	2	1
03/10/06	11:42 a	-17.1	-17.1	-17.1	---	---	8.7	ENE	0.14	13.0	-25.7	---	---	732.7	0.025	0.000	20.7	2	1
03/10/06	11:43 a	-17.1	-17.1	-17.1	---	---	9.6	ESE	0.16	13.0	-26.1	---	---	732.7	0.025	0.000	20.7	2	1
03/10/06	11:44 a	-17.1	-17.1	-17.1	---	---	13.0	ESE	0.22	16.5	-27.6	---	---	732.6	0.025	0.000	20.7	2	1
03/10/06	11:45 a	-17.1	-17.0	-17.1	---	---	11.3	ESE	0.19	13.0	-26.9	---	---	732.7	0.025	0.000	20.7	2	1
03/10/06	11:46 a	-17.0	-17.0	-17.0	---	---	11.3	E	0.19	14.8	-26.8	---	---	732.7	0.025	0.000	20.7	2	1
03/10/06	11:47 a	-16.9	-16.9	-16.9	---	---	10.4	E	0.17	11.3	-26.4	---	---	732.6	0.024	0.000	20.7	2	1
03/10/06	11:48 a	-16.9	-16.9	-16.9	---	---	11.3	E	0.19	14.8	-26.8	---	---	732.6	0.024	0.000	20.7	2	1
03/10/06	11:49 a	-16.9	-16.9	-16.9	---	---	12.2	E	0.20	13.9	-27.1	---	---	732.6	0.024	0.000	20.7	2	1
03/10/06	11:50 a	-17.0	-17.0	-17.0	---	---	13.0	E	0.22	16.5	-27.5	---	---	732.6	0.025	0.000	20.7	2	1
03/10/06	11:51 a	-16.9	-16.9	-16.9	---	---	12.2	ENE	0.20	13.0	-27.1	---	---	732.6	0.024	0.000	20.7	2	1
03/10/06	11:52 a	-16.9	-16.8	-16.9	---	---	9.6	E	0.16	13.9	-25.9	---	---	732.6	0.024	0.000	20.7	2	1
03/10/06	11:53 a	-16.8	-16.8	-16.8	---	---	10.4	E	0.17	13.9	-26.2	---	---	732.6	0.024	0.000	20.7	2	1
03/10/06	11:54 a	-16.8	-16.8	-16.9	---	---	9.6	E	0.16	13.0	-25.8	---	---	732.5	0.024	0.000	20.7	2	1
03/10/06	11:55 a	-16.9	-16.9	-16.9	---	---	12.2	E	0.20	14.8	-27.1	---	---	732.5	0.024	0.000	20.7	2	1
03/10/06	11:56 a	-16.9	-16.9	-16.9	---	---	13.0	E	0.22	15.7	-27.4	---	---	732.5	0.024	0.000	20.7	2	1
03/10/06	11:57 a	-16.9	-16.9	-17.0	---	---	13.0	E	0.22	19.1	-27.4	---	---	732.4	0.024	0.000	20.7	2	1
03/10/06	11:58 a	-16.9	-16.9	-16.9	---	---	13.0	ESE	0.22	15.7	-27.4	---	---	732.5	0.024	0.000	20.7	2	1
03/10/06	11:59 a	-16.9	-16.9	-16.9	---	---	14.8	ESE	0.25	15.7	-27.9	---	---	732.5	0.024	0.000	20.7	2	1
03/10/06	12:00 p	-16.9	-16.9	-16.9	---	---	13.0	ESE	0.22	15.7	-27.4	---	---	732.5	0.024	0.000	20.7	2	1
03/10/06	12:01 p	-16.9	-16.9	-16.9	---	---	14.8	ESE	0.25	18.3	-27.9	---	---	732.4	0.024	0.000	20.7	2	1
03/10/06	12:02 p	-16.8	-16.8	-16.9	---	---	13.0	SE	0.22	15.7	-27.3	---	---	732.5	0.024	0.000	20.7	2	1
03/10/06	12:03 p	-16.7	-16.7	-16.8	---	---	16.5	SE	0.28	19.1	-28.3	---	---	732.4	0.024	0.000	20.7	2	1
03/10/06	12:04 p	-16.6	-16.6	-16.7	---	---	15.7	ESE	0.26	18.3	-27.9	---	---	732.4	0.024	0.000	20.7	2	1
03/10/06	12:05 p	-16.6	-16.6	-16.6	---	---	12.2	ESE	0.20	14.8	-26.7	---	---	732.5	0.024	0.000	20.7	2	1
03/10/06	12:06 p	-16.6	-16.6	-16.6	---	---	10.4	ESE	0.17	13.9	-25.9	---	---	732.5	0.024	0.000	20.7	2	1
03/10/06	12:07 p	-16.6	-16.6	-16.6	---	---	8.7	E	0.14	11.3	-25.1	---	---	732.5	0.024	0.000	20.7	2	1
03/10/06	12:08 p	-16.6	-16.6	-16.6	---	---	10.4	ESE	0.17	12.2	-25.9	---	---	732.5	0.024	0.000	20.7	2	1
03/10/06	12:09 p	-16.5	-16.4	-16.6	---	---	9.6	SE	0.16	13.9	-25.4	---	---	732.5	0.024	0.000	20.7	2	1
03/10/06	12:10 p	-16.4	-16.4	-16.4	---	---	11.3	SE	0.19	13.0	-26.1	---	---	732.6	0.024	0.000	20.7	2	1
03/10/06	12:11 p	-16.3	-16.3	-16.4	---	---	10.4	SE	0.17	13.9	-25.6	---	---	732.5	0.024	0.000	20.7	2	1
03/10/06	12:12 p	-16.3	-16.3	-16.3	---	---	13.0	SE	0.22	15.7	-26.6	---	---	732.4	0.024	0.000	20.7	2	1
03/10/06	12:13 p	-16.3	-16.2	-16.3	---	---	11.3	E	0.19	13.9	-25.9	---	---	732.5	0.024	0.000	20.7	2	1
03/10/06	12:14 p	-16.2	-16.2	-16.2	---	---	11.3	SE	0.19	12.2	-25.8	---	---	732.4	0.024	0.000	20.7	2	1
03/10/06	12:15 p	-16.2	-16.2	-16.2	---	---	10.4	SE	0.17	13.0	-25.4	---	---	732.5	0.024	0.000	20.7	2	1
03/10/06	12:16 p	-16.2	-16.2	-16.2	---	---	10.4	ESE	0.17	13.0	-25.4	---	---	732.4	0.024	0.000	20.7	2	1
03/10/06	12:17 p	-16.2	-16.1	-16.2	---	---	8.7	ESE	0.14	11.3	-24.6	---	---	732.4	0.024	0.000	20.7	2	1
03/10/06	12:18 p	-16.2	-16.2	-16.2	---	---	10.4	SE	0.17	10.4	-25.4	---	---	732.4	0.024	0.000	20.7	2	1
03/10/06	12:19 p	-16.2	-16.2	-16.2	---	---	8.7	ESE	0.14	10.4	-24.6	---	---	732.3	0.024	0.000	20.7	2	1
03/10/06	12:20 p	-16.2	-16.2	-16.2	---	---	8.7	SE	0.14	9.6	-24.6	---	---	732.4	0.024	0.000	20.7	2	1
03/10/06	12:21 p	-16.2	-16.2	-16.2	---	---	10.4	ESE	0.17	12.2	-25.4	---	---	732.4	0.024	0.000	20.7	2	1
03/10/06	12:22 p	-16.2	-16.2	-16.3	---	---	11.3	ESE	0.19	14.8	-25.8	---	---	732.3	0.024	0.000	20.7	2	1
03/10/06	12:23 p	-16.3	-16.2	-16.3	---	---	9.6	ESE	0.16	11.3	-25.2	---	---	732.3	0.024	0.000	20.7	2	1
03/10/06	12:24 p	-16.3	-16.3	-16.3	---	---	10.4	E	0.17	13.9	-25.6	---	---	732.2	0.024	0.000	20.7	2	1
03/10/06	12:25 p	-16.3	-16.3	-16.3	---	---	8.7	E	0.14	12.2	-24.7	---	---	732.3	0.024	0.000	20.7	2	1
03/10/06	12:26 p	-16.3	-16.3	-16.3	---	---	10.4	ESE	0.17	11.3	-25.6	---	---	732.3	0.024	0.000	20.7	2	1
03/10/06	12:27 p	-16.3	-16.3	-16.3	---	---	7.8	E	0.13	10.4	-24.3	---	---	732.4	0.024	0.000	20.7	2	1
03/10/06	12:28 p	-16.3	-16.3	-16.3	---	---	8.7	E	0.14	10.4	-24.7	---	---	732.3	0.024	0.000	20.7	2	1
03/10/06	12:29 p	-16.3	-16.3	-16.3	---	---	7.8	E	0.13	9.6	-24.3	---	---	732.4	0.024	0.000	20.7	2	1
03/10/06	12:30 p	-16.3	-16.3	-16.3	---	---	7.8	E	0.13	9.6	-24.3	---	---	732.4	0.024	0.000	20.7	2	1
03/10/06	12:31 p	-16.3	-16.3	-16.3	---	---	6.1	E	0.10	7.8	-23.2	---	---	732.4	0.024	0.000	20.7	2	1
03/10/06	12:32 p	-16.4	-16.3	-16.4	---	---	5.2	E	0.09	6.1	-22.7	---	---	732.5	0.024	0.000	20.7	2	1
03/10/06	12:33 p	-16.4	-16.4	-16.4	---	---	5.2	E	0.09	6.1	-22.7	---	---	732.4	0.024	0.000	20.7	2	1
03/10/06	12:34 p	-16.5	-16.4	-16.5	---	---	4.3	E	0.07	7.0	-22.1	---	---	732.4	0.024	0.000	20.7	2	1
03/10/06	12:35 p	-16.5	-16.5	-16.6	---	---	3.5	E	0.06	6.1	-21.2	---	---	732.4	0.024	0.000	20.7	2	1
03/10/06	12:36 p	-16.6	-16.6	-16.6	---	---	5.2	E	0.09	6.1	-22.9	---	---	732.4	0.024	0.000	20.7	2	1
03/10/06	12:37 p	-16.6	-16.6	-16.7	---	---	3.5	E	0.06	6.1	-21.3	---	---	732.4	0.024	0.000	20.7	2	1
03/10/06	12:38 p	-16.7	-16.7	-16.7	---	---	2.6	E	0.04	5.2	-20.3	---	---	732.4	0.024	0.000	20.7	2	1
03/10/06	12:39 p	-16.7	-16.7	-16.7	---	---	4.3	E	0.07	6.1	-22.3	---	---	732.4	0.024	0.000	20.7	2	1
03/10/06	12:40 p	-16.7	-16.7	-16.7	---	---	2.6	E	0.04	3.5	-20.3	---	---	732.4	0.024	0.000	20.7	2	1
03/10/06	12:41 p	-16.7	-16.7	-16.7	---	---	3.5	E	0.06	4.3	-21.4	---	---	732.4	0.024	0.000	20.7	2	1
03/10/06	12:42 p	-16.7	-16.7	-16.7	---	---	4.3	E	0.07	6.1	-22.3	---	---	732.4	0.024	0.000	20.7	2	1
03/10/06	12:43 p	-16.7	-16.7	-16.7	---	---	4.3	E	0.07	5.2	-22.3	---	---	732.4	0.024	0.000	20.7	2	1
03/10/06	12:44 p	-16.7	-16.7	-16.7	---	---	3.5	E	0.06	6.1	-21.4	---	---	732.4	0.024	0.000	20.7	2	1
03/10/06	12:45 p	-16.7	-16.7	-16.7	---	---	5.2	E	0.09	6.1	-23.0	---	---	732.3	0.024	0.000	20.8	2	1
03/10/06	12:46 p	-16.7	-16.7	-16.7	---	---	4.3	E	0.07	6.1	-22.3	---	---	732.3	0.024	0.000	20.8	2	1
03/10/06	12:47 p	-16.7	-16.7	-16.7	---	---	3.5	E	0.06	5.2	-21.4	---	---	732.3	0.024	0.000	20.8	2	1
03/10/06	12:48 p	-16.7	-16.7	-16.7	---	---	3.5	E	0.06	4.3	-21.4	---	---	732.3	0.024	0.000	20.7	2	1
03/10/06	12:49 p	-16.7	-16.7	-16.7	---	---	3.5	E	0.06	4.3	-21.4	---	---	732.3	0.024	0.000	20.8	2	1
03/10/06	12:50 p	-16.7	-16.7	-16.7	---	---	2.6	E	0.04	5.2	-20.3	---	---	732.4	0.024	0.000	20.8	2	1
03/10/06	12:51 p	-16.7	-16.7	-16.7	---	---	1.7	E	0.03	2.6	-18.8	---	---	732.3	0.024	0.000	20.8	2	1
03/10/06	12:52 p	-16.7	-16.7	-16.7	---	---	1.7	E	0.03	4.3	-18.8	---	---	732.3	0.024	0.000	20.7	2	1
03/10/06	12:53 p	-16.7	-16.6	-16.7	---	---	3.5	E	0.06	4.3	-21.4	---	---	732.3	0.024	0.000	20.7	2	1
03/10/06	12:54 p	-16.6	-16.6	-16.6	---	---	1.7	E	0.03	3.5	-18.8	---	---	732.3	0.024	0.000	20.7	2	1
03/10/06	12:55 p	-16.6	-16.6	-16.6	---	---	4.3	E	0.07	5.2	-22.1	---	---	732.2	0.024	0.000	20.8	2	1
03/10/06	12:56 p	-16.6	-16.5	-16.6	---	---	4.3	E	0.07	5.2	-22.1	---	---	732.2	0.024	0.000	20.7	2	1
03/10/06	12:57 p	-16.5	-16.5	-16.5	---	---	2.6	E	0.04	5.2	-20.1	---	---	732.3	0.024	0.000	20.8	2	1
03/10/06	12:58 p	-16.5	-16.4	-16.5	---	---	3.5	E	0.06	4.3	-21.2	---	---	732.3	0.024	0.000	20.7	2	1
03/10/06	12:59 p	-16.5	-16.5	-16.5	---	---	3.5	E	0.06	4.3	-21.2	---	---	732.3	0.024	0.000	20.7	2	1
03/10/06	1:00 p	-16.4	-16.4	-16.5	---	---	3.5	E	0.06	4.3	-21.1	---	---	732.2	0.024	0.000	20.7	2	1
03/10/06	1:01 p	-16.4	-16.4	-16.4	---	---	2.6	E	0.04	3.5	-20.1	---	---	732.3	0.024	0.000	20.7	2	1
03/10/06	1:02 p	-16.4	-16.4	-16.4	---	---	2.6	E	0.04	3.5	-20.1	---	---	732.3	0.024	0.000	20.8	2	1
03/10/06	1:03 p	-16.4	-16.4	-16.4	---	---	4.3	ENE	0.07	6.1	-22.0	---	---	732.2	0.024	0.000	20.8	2	1
03/10/06	1:04 p	-16.4	-16.4	-16.4	---	---	6.1	ENE	0.10	8.7	-23.4	---	---	732.2	0.024	0.000	20.8	2	1
03/10/06	1:05 p	-16.4	-16.4	-16.4	---	---	6.1	ENE	0.10	7.8	-23.4	---	---	732.3	0.024	0.000	20.8	2	1
03/10/06	1:06 p	-16.4	-16.4	-16.4	---	---	6.1	ENE	0.10	8.7	-23.4	---	---	732.3	0.024	0.000	20.8	2	1
03/10/06	1:07 p	-16.4	-16.4	-16.5	---	---	5.2	ENE	0.09	7.0	-22.7	---	---	732.2	0.024	0.000	20.7	2	1
03/10/06	1:08 p	-16.5	-16.5	-16.5	---	---	6.1	E	0.10	6.1	-23.4	---	---	732.2	0.024	0.000	20.7	2	1
03/10/06	1:09 p	-16.5	-16.4	-16.5	---	---	7.0	ENE	0.12	7.8	-24.0	---	---	732.3	0.024	0.000	20.7	2	1
03/10/06	1:10 p	-16.4	-16.4	-16.4	---	---	7.0	E	0.12	7.8	-23.9	---	---	732.3	0.024	0.000	20.8	2	1
03/10/06	1:11 p	-16.4	-16.4	-16.4	---	---	6.1	E	0.10	7.8	-23.4	---	---	732.2	0.024	0.000	20.8	2	1
03/10/06	1:12 p	-16.4	-16.4	-16.4	---	---	5.2	E	0.09	7.0	-22.7	---	---	732.2	0.024	0.000	20.8	2	1
03/10/06	1:13 p	-16.4	-16.4	-16.4	---	---	6.1	E	0.10	7.0	-23.4	---	---	732.2	0.024	0.000	20.8	2	1
03/10/06	1:14 p	-16.4	-16.4	-16.4	---	---	5.2	E	0.09	7.0	-22.7	---	---	732.1	0.024	0.000	20.8	2	1
03/10/06	1:15 p	-16.3	-16.3	-16.4	---	---	5.2	ESE	0.09	7.0	-22.6	---	---	732.2	0.024	0.000	20.8	2	1
03/10/06	1:16 p	-16.3	-16.3	-16.4	---	---	6.1	E	0.10	7.8	-23.2	---	---	732.2	0.024	0.000	20.8	2	1
03/10/06	1:17 p	-16.3	-16.3	-16.3	---	---	6.1	E	0.10	7.8	-23.2	---	---	732.2	0.024	0.000	20.8	2	1
03/10/06	1:18 p	-16.3	-16.3	-16.3	---	---	5.2	E	0.09	7.0	-22.6	---	---	732.2	0.024	0.000	20.9	2	1
03/10/06	1:19 p	-16.3	-16.3	-16.3	---	---	5.2	E	0.09	7.0	-22.6	---	---	732.1	0.024	0.000	20.9	2	1
03/10/06	1:20 p	-16.2	-16.2	-16.3	---	---	5.2	E	0.09	7.8	-22.4	---	---	732.1	0.024	0.000	20.9	2	1
03/10/06	1:21 p	-16.3	-16.3	-16.3	---	---	5.2	E	0.09	7.0	-22.6	---	---	732.2	0.024	0.000	20.9	2	1
03/10/06	1:22 p	-16.2	-16.2	-16.3	---	---	4.3	ENE	0.07	5.2	-21.7	---	---	732.2	0.024	0.000	20.9	2	1
03/10/06	1:23 p	-16.2	-16.2	-16.2	---	---	1.7	ENE	0.03	3.5	-18.3	---	---	732.2	0.024	0.000	20.9	2	1
03/10/06	1:24 p	-16.2	-16.2	-16.3	---	---	4.3	ESE	0.07	7.0	-21.7	---	---	732.2	0.024	0.000	20.9	2	1
03/10/06	1:25 p	-16.3	-16.2	-16.3	---	---	5.2	ESE	0.09	7.0	-22.6	---	---	732.2	0.024	0.000	20.9	2	1
03/10/06	1:26 p	-16.2	-16.2	-16.3	---	---	1.7	ESE	0.03	4.3	-18.3	---	---	732.2	0.024	0.000	20.9	2	1
03/10/06	1:27 p	-16.2	-16.2	-16.2	---	---	0.9	ESE	0.01	1.7	-16.2	---	---	732.2	0.024	0.000	20.9	2	1
03/10/06	1:28 p	-16.1	-16.1	-16.2	---	---	0.0	ESE	0.00	1.7	-16.1	---	---	732.2	0.024	0.000	21.0	2	1
03/10/06	1:29 p	-16.1	-16.1	-16.1	---	---	0.9	ESE	0.01	1.7	-16.1	---	---	732.2	0.024	0.000	21.0	2	1
03/10/06	1:30 p	-16.1	-16.1	-16.2	---	---	3.5	SW	0.06	4.3	-20.7	---	---	732.2	0.024	0.000	21.0	2	1
03/10/06	1:31 p	-16.3	-16.3	-16.4	---	---	3.5	WSW	0.06	4.3	-21.0	---	---	732.2	0.024	0.000	21.0	2	1
03/10/06	1:32 p	-16.5	-16.4	-16.6	---	---	1.7	WSW	0.03	2.6	-18.7	---	---	732.0	0.024	0.000	21.0	2	1
03/10/06	1:33 p	-16.7	-16.7	-16.7	---	---	0.9	WSW	0.01	1.7	-16.7	---	---	732.0	0.024	0.000	21.0	2	1
03/10/06	1:34 p	-16.7	-16.7	-16.7	---	---	0.0	WSW	0.00	0.9	-16.7	---	---	732.0	0.024	0.000	21.0	2	1
03/10/06	1:35 p	-16.7	-16.7	-16.7	---	---	0.0	---	0.00	0.9	-16.7	---	---	732.1	0.024	0.000	21.0	2	1
03/10/06	1:36 p	-16.7	-16.7	-16.7	---	---	0.0	---	0.00	0.0	-16.7	---	---	732.1	0.024	0.000	21.0	2	1
03/10/06	1:37 p	-16.7	-16.7	-16.7	---	---	0.0	---	0.00	0.0	-16.7	---	---	732.0	0.024	0.000	21.0	2	1
03/10/06	1:38 p	-16.7	-16.7	-16.7	---	---	0.0	---	0.00	0.0	-16.7	---	---	732.0	0.024	0.000	21.0	2	1
03/10/06	1:39 p	-16.6	-16.6	-16.7	---	---	0.0	---	0.00	0.0	-16.6	---	---	732.0	0.024	0.000	21.0	2	1
03/10/06	1:40 p	-16.6	-16.6	-16.6	---	---	0.0	---	0.00	0.0	-16.6	---	---	732.0	0.024	0.000	21.0	2	1
03/10/06	1:41 p	-16.6	-16.5	-16.6	---	---	0.0	---	0.00	0.0	-16.6	---	---	732.0	0.024	0.000	21.0	2	1
03/10/06	1:42 p	-16.5	-16.4	-16.5	---	---	0.0	---	0.00	0.0	-16.5	---	---	732.1	0.024	0.000	21.0	2	1
03/10/06	1:43 p	-16.4	-16.4	-16.4	---	---	0.0	---	0.00	0.0	-16.4	---	---	732.1	0.024	0.000	21.0	2	1
03/10/06	1:44 p	-16.4	-16.4	-16.4	---	---	0.0	---	0.00	0.0	-16.4	---	---	732.0	0.024	0.000	21.0	2	1
03/10/06	1:45 p	-16.4	-16.3	-16.4	---	---	0.0	---	0.00	0.0	-16.4	---	---	732.0	0.024	0.000	21.0	2	1
03/10/06	1:46 p	-16.3	-16.3	-16.4	---	---	0.0	---	0.00	0.0	-16.3	---	---	731.9	0.024	0.000	21.0	2	1
03/10/06	1:47 p	-16.4	-16.3	-16.4	---	---	0.0	WSW	0.00	1.7	-16.4	---	---	732.0	0.024	0.000	20.9	2	1
03/10/06	1:48 p	-16.3	-16.3	-16.3	---	---	1.7	WSW	0.03	1.7	-18.4	---	---	732.0	0.024	0.000	21.0	2	1
03/10/06	1:49 p	-16.3	-16.3	-16.4	---	---	1.7	SW	0.03	2.6	-18.4	---	---	732.0	0.024	0.000	20.9	2	1
03/10/06	1:50 p	-16.4	-16.4	-16.4	---	---	1.7	SSE	0.03	2.6	-18.6	---	---	731.9	0.024	0.000	20.9	2	1
03/10/06	1:51 p	-16.4	-16.4	-16.4	---	---	0.9	SSE	0.01	1.7	-16.4	---	---	731.9	0.024	0.000	20.9	2	1
03/10/06	1:52 p	-16.4	-16.4	-16.5	---	---	0.9	SSE	0.01	1.7	-16.4	---	---	731.9	0.024	0.000	20.9	2	1
03/10/06	1:53 p	-16.5	-16.5	-16.6	---	---	0.9	SSE	0.01	1.7	-16.5	---	---	732.0	0.024	0.000	20.9	2	1
03/10/06	1:54 p	-16.6	-16.6	-16.6	---	---	0.9	SSE	0.01	1.7	-16.6	---	---	731.9	0.024	0.000	20.9	2	1
03/10/06	1:55 p	-16.6	-16.6	-16.6	---	---	0.9	SSE	0.01	1.7	-16.6	---	---	731.9	0.024	0.000	20.9	2	1
03/10/06	1:56 p	-16.6	-16.6	-16.7	---	---	0.0	SSE	0.00	0.9	-16.6	---	---	732.0	0.024	0.000	20.9	2	1
03/10/06	1:57 p	-16.7	-16.7	-16.7	---	---	0.0	SSE	0.00	0.9	-16.7	---	---	731.9	0.024	0.000	20.9	2	1
03/10/06	1:58 p	-16.7	-16.7	-16.7	---	---	0.0	---	0.00	0.0	-16.7	---	---	731.9	0.024	0.000	20.9	2	1
03/10/06	1:59 p	-16.7	-16.7	-16.7	---	---	0.0	---	0.00	0.9	-16.7	---	---	731.9	0.024	0.000	20.9	3	1
03/10/06	2:00 p	-16.8	-16.8	-16.8	---	---	0.0	---	0.00	0.0	-16.8	---	---	731.9	0.024	0.000	20.9	2	1
03/10/06	2:01 p	-16.7	-16.7	-16.7	---	---	0.0	---	0.00	0.0	-16.7	---	---	731.9	0.024	0.000	20.9	2	1
03/10/06	2:02 p	-16.7	-16.7	-16.7	---	---	0.0	---	0.00	0.0	-16.7	---	---	731.8	0.024	0.000	20.9	2	1
03/10/06	2:03 p	-16.7	-16.7	-16.7	---	---	0.0	---	0.00	0.0	-16.7	---	---	731.9	0.024	0.000	20.9	2	1
03/10/06	2:04 p	-16.7	-16.7	-16.7	---	---	0.0	---	0.00	0.0	-16.7	---	---	731.8	0.024	0.000	20.9	2	1
03/10/06	2:05 p	-16.7	-16.7	-16.7	---	---	0.0	---	0.00	0.0	-16.7	---	---	731.8	0.024	0.000	20.9	2	1
03/10/06	2:06 p	-16.7	-16.7	-16.7	---	---	0.0	---	0.00	0.0	-16.7	---	---	731.8	0.024	0.000	20.9	2	1
03/10/06	2:07 p	-16.7	-16.7	-16.7	---	---	0.0	---	0.00	0.0	-16.7	---	---	731.9	0.024	0.000	20.9	2	1
03/10/06	2:08 p	-16.6	-16.6	-16.7	---	---	0.0	---	0.00	0.0	-16.6	---	---	731.9	0.024	0.000	21.0	2	1
03/10/06	2:09 p	-16.6	-16.6	-16.6	---	---	0.0	---	0.00	0.0	-16.6	---	---	731.8	0.024	0.000	21.0	3	1
03/10/06	2:10 p	-16.6	-16.6	-16.6	---	---	0.0	---	0.00	0.0	-16.6	---	---	731.7	0.024	0.000	21.0	2	1
03/10/06	2:11 p	-16.6	-16.6	-16.6	---	---	0.0	---	0.00	0.0	-16.6	---	---	731.9	0.024	0.000	21.0	2	1
03/10/06	2:12 p	-16.6	-16.6	-16.6	---	---	0.0	---	0.00	0.0	-16.6	---	---	731.9	0.024	0.000	21.0	2	1
03/10/06	2:13 p	-16.6	-16.6	-16.6	---	---	0.0	---	0.00	0.0	-16.6	---	---	731.8	0.024	0.000	21.0	3	1
03/10/06	2:14 p	-16.6	-16.6	-16.6	---	---	0.0	---	0.00	0.0	-16.6	---	---	731.8	0.024	0.000	21.0	3	1
03/10/06	2:15 p	-16.6	-16.6	-16.6	---	---	0.0	---	0.00	0.0	-16.6	---	---	731.8	0.024	0.000	21.0	2	1
03/10/06	2:16 p	-16.5	-16.5	-16.6	---	---	0.0	---	0.00	0.0	-16.5	---	---	731.8	0.024	0.000	21.0	2	1
03/10/06	2:17 p	-16.5	-16.5	-16.6	---	---	0.0	---	0.00	0.0	-16.5	---	---	731.8	0.024	0.000	21.0	2	1
03/10/06	2:18 p	-16.5	-16.5	-16.5	---	---	0.9	SSE	0.01	1.7	-16.5	---	---	731.8	0.024	0.000	21.0	2	1
03/10/06	2:19 p	-16.4	-16.4	-16.5	---	---	0.9	SSE	0.01	1.7	-16.4	---	---	731.8	0.024	0.000	21.0	2	1
03/10/06	2:20 p	-16.5	-16.4	-16.5	---	---	0.0	SSE	0.00	0.9	-16.5	---	---	731.9	0.024	0.000	21.0	2	1
03/10/06	2:21 p	-16.4	-16.4	-16.4	---	---	0.0	SSE	0.00	0.9	-16.4	---	---	731.9	0.024	0.000	21.0	2	1
03/10/06	2:22 p	-16.4	-16.4	-16.4	---	---	0.0	---	0.00	0.0	-16.4	---	---	731.7	0.024	0.000	21.0	2	1
03/10/06	2:23 p	-16.4	-16.4	-16.4	---	---	0.0	---	0.00	0.9	-16.4	---	---	731.7	0.024	0.000	21.0	2	1
03/10/06	2:24 p	-16.4	-16.4	-16.4	---	---	0.0	---	0.00	0.0	-16.4	---	---	731.7	0.024	0.000	21.0	2	1
03/10/06	2:25 p	-16.4	-16.4	-16.4	---	---	0.0	SSE	0.00	0.9	-16.4	---	---	731.7	0.024	0.000	21.0	2	1
03/10/06	2:26 p	-16.4	-16.4	-16.4	---	---	0.9	SSE	0.01	0.9	-16.4	---	---	731.7	0.024	0.000	21.0	3	1
03/10/06	2:27 p	-16.4	-16.4	-16.4	---	---	0.0	---	0.00	0.9	-16.4	---	---	731.6	0.024	0.000	21.0	2	1
03/10/06	2:28 p	-16.4	-16.4	-16.4	---	---	0.0	SSE	0.00	0.9	-16.4	---	---	731.6	0.024	0.000	21.0	3	1
03/10/06	2:29 p	-16.3	-16.3	-16.4	---	---	0.9	SSE	0.01	0.9	-16.3	---	---	731.7	0.024	0.000	21.0	2	1
03/10/06	2:30 p	-16.4	-16.3	-16.4	---	---	0.9	SSE	0.01	0.9	-16.4	---	---	731.6	0.024	0.000	21.0	2	1
03/10/06	2:31 p	-16.3	-16.3	-16.3	---	---	0.9	SSE	0.01	0.9	-16.3	---	---	731.6	0.024	0.000	21.0	2	1
03/10/06	2:32 p	-16.3	-16.3	-16.3	---	---	0.9	SSE	0.01	1.7	-16.3	---	---	731.6	0.024	0.000	21.0	2	1
03/10/06	2:33 p	-16.3	-16.3	-16.3	---	---	0.9	SSE	0.01	1.7	-16.3	---	---	731.6	0.024	0.000	21.0	2	1
03/10/06	2:34 p	-16.3	-16.3	-16.3	---	---	1.7	SSE	0.03	1.7	-18.4	---	---	731.5	0.024	0.000	21.0	2	1
03/10/06	2:35 p	-16.3	-16.3	-16.3	---	---	1.7	SSE	0.03	1.7	-18.4	---	---	731.5	0.024	0.000	21.0	2	1
03/10/06	2:36 p	-16.3	-16.2	-16.3	---	---	1.7	SSE	0.03	2.6	-18.4	---	---	731.5	0.024	0.000	21.0	2	1
03/10/06	2:37 p	-16.2	-16.2	-16.2	---	---	1.7	SSE	0.03	2.6	-18.3	---	---	731.6	0.024	0.000	21.0	2	1
03/10/06	2:38 p	-16.2	-16.2	-16.2	---	---	1.7	SSE	0.03	2.6	-18.3	---	---	731.5	0.024	0.000	21.0	2	1
03/10/06	2:39 p	-16.2	-16.2	-16.2	---	---	1.7	SSE	0.03	2.6	-18.3	---	---	731.5	0.024	0.000	21.0	3	1
03/10/06	2:40 p	-16.2	-16.1	-16.2	---	---	1.7	SSE	0.03	2.6	-18.3	---	---	731.5	0.024	0.000	21.0	2	1
03/10/06	2:41 p	-16.1	-16.1	-16.1	---	---	2.6	SSE	0.04	2.6	-19.7	---	---	731.6	0.024	0.000	21.0	2	1
03/10/06	2:42 p	-16.1	-16.1	-16.1	---	---	1.7	SSE	0.03	2.6	-18.2	---	---	731.6	0.024	0.000	21.0	2	1
03/10/06	2:43 p	-16.1	-16.1	-16.1	---	---	1.7	SSE	0.03	2.6	-18.2	---	---	731.5	0.024	0.000	21.0	2	1
03/10/06	2:44 p	-16.1	-16.1	-16.1	---	---	1.7	SSE	0.03	2.6	-18.2	---	---	731.6	0.024	0.000	21.0	2	1
03/10/06	2:45 p	-16.1	-16.1	-16.1	---	---	1.7	SSE	0.03	2.6	-18.2	---	---	731.5	0.024	0.000	21.1	2	1
03/10/06	2:46 p	-16.1	-16.0	-16.1	---	---	1.7	SSE	0.03	1.7	-18.2	---	---	731.5	0.024	0.000	21.1	2	1
03/10/06	2:47 p	-16.1	-16.0	-16.1	---	---	1.7	SSE	0.03	1.7	-18.2	---	---	731.5	0.024	0.000	21.0	2	1
03/10/06	2:48 p	-16.1	-16.0	-16.1	---	---	1.7	SSE	0.03	1.7	-18.2	---	---	731.5	0.024	0.000	21.0	2	1
03/10/06	2:49 p	-16.0	-16.0	-16.0	---	---	1.7	SSE	0.03	2.6	-18.1	---	---	731.5	0.024	0.000	21.0	2	1
03/10/06	2:50 p	-16.0	-16.0	-16.0	---	---	1.7	SSE	0.03	1.7	-18.1	---	---	731.5	0.024	0.000	21.0	2	1
03/10/06	2:51 p	-16.0	-16.0	-16.0	---	---	1.7	SSE	0.03	1.7	-18.1	---	---	731.4	0.024	0.000	21.0	2	1
03/10/06	2:52 p	-16.0	-16.0	-16.0	---	---	1.7	SSE	0.03	2.6	-18.1	---	---	731.5	0.024	0.000	21.0	2	1
03/10/06	2:53 p	-16.0	-16.0	-16.0	---	---	1.7	SSE	0.03	2.6	-18.1	---	---	731.5	0.024	0.000	21.0	2	1
03/10/06	2:54 p	-16.0	-16.0	-16.0	---	---	2.6	SSE	0.04	2.6	-19.6	---	---	731.4	0.024	0.000	21.0	3	1
03/10/06	2:55 p	-16.0	-16.0	-16.0	---	---	2.6	SSE	0.04	2.6	-19.6	---	---	731.4	0.024	0.000	21.0	2	1
03/10/06	2:56 p	-16.0	-16.0	-16.1	---	---	2.6	SSE	0.04	2.6	-19.6	---	---	731.5	0.024	0.000	21.0	2	1
03/10/06	2:57 p	-16.1	-16.0	-16.1	---	---	2.6	SSE	0.04	2.6	-19.6	---	---	731.4	0.024	0.000	21.0	2	1
03/10/06	2:58 p	-16.1	-16.1	-16.1	---	---	2.6	SSE	0.04	3.5	-19.7	---	---	731.4	0.024	0.000	21.0	3	1
03/10/06	2:59 p	-16.1	-16.1	-16.1	---	---	2.6	SSE	0.04	3.5	-19.7	---	---	731.5	0.024	0.000	21.0	3	1
03/10/06	3:00 p	-16.1	-16.1	-16.2	---	---	2.6	SSE	0.04	3.5	-19.7	---	---	731.4	0.024	0.000	20.9	3	1
03/10/06	3:01 p	-16.2	-16.1	-16.2	---	---	2.6	SSE	0.04	3.5	-19.7	---	---	731.4	0.024	0.000	21.0	3	1
03/10/06	3:02 p	-16.2	-16.2	-16.2	---	---	2.6	SSE	0.04	2.6	-19.7	---	---	731.4	0.024	0.000	21.0	2	1
03/10/06	3:03 p	-16.2	-16.2	-16.2	---	---	2.6	SSE	0.04	3.5	-19.7	---	---	731.4	0.024	0.000	21.0	2	1
03/10/06	3:04 p	-16.2	-16.2	-16.2	---	---	2.6	SSE	0.04	3.5	-19.7	---	---	731.4	0.024	0.000	21.0	2	1
03/10/06	3:05 p	-16.2	-16.2	-16.2	---	---	2.6	SSE	0.04	3.5	-19.7	---	---	731.3	0.024	0.000	21.0	2	1
03/10/06	3:06 p	-16.2	-16.2	-16.2	---	---	2.6	SSE	0.04	3.5	-19.7	---	---	731.3	0.024	0.000	21.0	2	1
03/10/06	3:07 p	-16.2	-16.2	-16.2	---	---	2.6	SSE	0.04	3.5	-19.7	---	---	731.3	0.024	0.000	21.0	2	1
03/10/06	3:08 p	-16.2	-16.2	-16.2	---	---	2.6	SSE	0.04	2.6	-19.8	---	---	731.2	0.024	0.000	21.0	2	1
03/10/06	3:09 p	-16.2	-16.2	-16.2	---	---	2.6	SSE	0.04	3.5	-19.8	---	---	731.2	0.024	0.000	21.0	3	1
03/10/06	3:10 p	-16.2	-16.2	-16.2	---	---	1.7	SSE	0.03	2.6	-18.3	---	---	731.3	0.024	0.000	21.0	2	1
03/10/06	3:11 p	-16.2	-16.2	-16.2	---	---	1.7	SSE	0.03	2.6	-18.3	---	---	731.3	0.024	0.000	21.0	3	1
03/10/06	3:12 p	-16.2	-16.2	-16.2	---	---	1.7	SSE	0.03	2.6	-18.3	---	---	731.3	0.024	0.000	21.1	2	1
03/10/06	3:13 p	-16.2	-16.2	-16.2	---	---	0.9	SSE	0.01	1.7	-16.2	---	---	731.3	0.024	0.000	21.0	2	1
03/10/06	3:14 p	-16.2	-16.2	-16.2	---	---	0.9	SSE	0.01	1.7	-16.2	---	---	731.3	0.024	0.000	21.1	2	1
03/10/06	3:15 p	-16.2	-16.2	-16.2	---	---	0.0	---	0.00	0.0	-16.2	---	---	731.3	0.024	0.000	21.1	2	1
03/10/06	3:16 p	-16.1	-16.1	-16.2	---	---	0.0	---	0.00	0.0	-16.1	---	---	731.2	0.024	0.000	21.1	2	1
03/10/06	3:17 p	-16.1	-16.1	-16.1	---	---	0.0	---	0.00	0.0	-16.1	---	---	731.3	0.024	0.000	21.1	3	1
03/10/06	3:18 p	-16.1	-16.1	-16.1	---	---	0.0	SSE	0.00	0.9	-16.1	---	---	731.2	0.024	0.000	21.1	3	1
03/10/06	3:19 p	-16.1	-16.1	-16.1	---	---	0.9	SSE	0.01	0.9	-16.1	---	---	731.2	0.024	0.000	21.1	2	1
03/10/06	3:20 p	-16.1	-16.1	-16.1	---	---	0.0	SSE	0.00	1.7	-16.1	---	---	731.2	0.024	0.000	21.1	2	1
03/10/06	3:21 p	-16.1	-16.1	-16.1	---	---	0.0	SSE	0.00	0.9	-16.1	---	---	731.2	0.024	0.000	21.1	2	1
03/10/06	3:22 p	-16.1	-16.1	-16.1	---	---	0.9	SSE	0.01	0.9	-16.1	---	---	731.2	0.024	0.000	21.1	2	1
03/10/06	3:23 p	-16.1	-16.1	-16.1	---	---	0.9	SSE	0.01	1.7	-16.1	---	---	731.3	0.024	0.000	21.1	2	1
03/10/06	3:24 p	-16.1	-16.1	-16.1	---	---	0.9	SSE	0.01	0.9	-16.1	---	---	731.2	0.024	0.000	21.1	3	1
03/10/06	3:25 p	-16.1	-16.1	-16.1	---	---	0.0	SSE	0.00	0.9	-16.1	---	---	731.2	0.024	0.000	21.1	2	1
03/10/06	3:26 p	-16.1	-16.1	-16.1	---	---	0.0	SSE	0.00	0.9	-16.1	---	---	731.2	0.024	0.000	21.0	2	1
03/10/06	3:27 p	-16.0	-16.0	-16.1	---	---	0.0	---	0.00	0.9	-16.0	---	---	731.2	0.024	0.000	21.1	2	1
03/10/06	3:28 p	-16.0	-16.0	-16.0	---	---	0.0	SSE	0.00	0.9	-16.0	---	---	731.1	0.024	0.000	21.1	3	1
03/10/06	3:29 p	-16.0	-15.9	-16.0	---	---	0.0	SSE	0.00	0.9	-16.0	---	---	731.1	0.024	0.000	21.1	3	1
03/10/06	3:30 p	-15.9	-15.9	-15.9	---	---	0.9	SSE	0.01	0.9	-15.9	---	---	731.0	0.024	0.000	21.1	2	1
03/10/06	3:31 p	-15.9	-15.9	-15.9	---	---	0.9	SSE	0.01	1.7	-15.9	---	---	731.1	0.024	0.000	21.1	3	1
03/10/06	3:32 p	-15.9	-15.9	-15.9	---	---	0.9	SSE	0.01	1.7	-15.9	---	---	730.9	0.024	0.000	21.1	3	1
03/10/06	3:33 p	-15.9	-15.8	-15.9	---	---	0.9	SSE	0.01	1.7	-15.9	---	---	731.0	0.024	0.000	21.1	3	1
03/10/06	3:34 p	-15.8	-15.8	-15.8	---	---	0.9	SSE	0.01	1.7	-15.8	---	---	731.0	0.024	0.000	21.1	3	1
03/10/06	3:35 p	-15.8	-15.8	-15.8	---	---	1.7	SSE	0.03	1.7	-17.9	---	---	731.0	0.024	0.000	21.1	2	1
03/10/06	3:36 p	-15.8	-15.8	-15.8	---	---	1.7	SSE	0.03	1.7	-17.9	---	---	731.0	0.024	0.000	21.1	2	1
03/10/06	3:37 p	-15.8	-15.8	-15.8	---	---	2.6	SSE	0.04	3.5	-19.3	---	---	731.0	0.024	0.000	21.1	3	1
03/10/06	3:38 p	-15.8	-15.8	-15.9	---	---	2.6	SSE	0.04	2.6	-19.3	---	---	731.0	0.024	0.000	21.1	3	1
03/10/06	3:39 p	-15.8	-15.8	-15.9	---	---	1.7	SSE	0.03	2.6	-17.9	---	---	731.0	0.024	0.000	21.1	2	1
03/10/06	3:40 p	-15.8	-15.8	-15.9	---	---	2.6	SSE	0.04	4.3	-19.3	---	---	731.0	0.024	0.000	21.1	2	1
03/10/06	3:41 p	-15.8	-15.8	-15.8	---	---	3.5	ENE	0.06	4.3	-20.4	---	---	731.0	0.024	0.000	21.1	2	1
03/10/06	3:42 p	-15.8	-15.8	-15.8	---	---	3.5	NE	0.06	4.3	-20.3	---	---	730.9	0.024	0.000	21.1	2	1
03/10/06	3:43 p	-15.8	-15.8	-15.8	---	---	4.3	NNE	0.07	4.3	-21.2	---	---	730.9	0.024	0.000	21.1	2	1
03/10/06	3:44 p	-15.8	-15.8	-15.8	---	---	3.5	NNE	0.06	4.3	-20.3	---	---	730.9	0.024	0.000	21.1	3	1
03/10/06	3:45 p	-15.8	-15.8	-15.8	---	---	4.3	NNE	0.07	5.2	-21.2	---	---	731.0	0.024	0.000	21.1	3	1
03/10/06	3:46 p	-15.8	-15.8	-15.8	---	---	3.5	NNE	0.06	4.3	-20.4	---	---	730.9	0.024	0.000	21.1	2	1
03/10/06	3:47 p	-15.8	-15.8	-15.8	---	---	4.3	NNE	0.07	5.2	-21.2	---	---	730.9	0.024	0.000	21.1	2	1
03/10/06	3:48 p	-15.8	-15.7	-15.8	---	---	5.2	NNE	0.09	6.1	-21.9	---	---	730.8	0.024	0.000	21.1	3	1
03/10/06	3:49 p	-15.7	-15.7	-15.7	---	---	6.1	NNE	0.10	7.0	-22.5	---	---	730.8	0.024	0.000	21.1	2	1
03/10/06	3:50 p	-15.7	-15.7	-15.7	---	---	5.2	N	0.09	7.0	-21.9	---	---	730.9	0.024	0.000	21.1	2	1
03/10/06	3:51 p	-15.7	-15.7	-15.7	---	---	3.5	N	0.06	4.3	-20.2	---	---	730.9	0.024	0.000	21.1	3	1
03/10/06	3:52 p	-15.7	-15.7	-15.7	---	---	3.5	N	0.06	5.2	-20.3	---	---	730.9	0.024	0.000	21.1	3	1
03/10/06	3:53 p	-15.7	-15.6	-15.7	---	---	5.2	N	0.09	7.0	-21.8	---	---	730.8	0.024	0.000	21.0	3	1
03/10/06	3:54 p	-15.6	-15.6	-15.6	---	---	7.0	N	0.12	7.8	-22.9	---	---	730.7	0.024	0.000	21.0	2	1
03/10/06	3:55 p	-15.7	-15.6	-15.7	---	---	6.1	N	0.10	7.8	-22.4	---	---	730.8	0.024	0.000	21.1	3	1
03/10/06	3:56 p	-15.7	-15.7	-15.7	---	---	3.5	N	0.06	5.2	-20.3	---	---	730.9	0.024	0.000	21.1	3	1
03/10/06	3:57 p	-15.7	-15.7	-15.8	---	---	2.6	N	0.04	4.3	-19.2	---	---	730.9	0.024	0.000	21.1	3	1
03/10/06	3:58 p	-15.8	-15.7	-15.8	---	---	5.2	N	0.09	6.1	-21.9	---	---	730.7	0.024	0.000	21.1	3	1
03/10/06	3:59 p	-15.7	-15.6	-15.7	---	---	6.1	N	0.10	7.8	-22.4	---	---	730.6	0.024	0.000	21.1	3	1
03/10/06	4:00 p	-15.6	-15.6	-15.6	---	---	6.1	N	0.10	7.0	-22.4	---	---	730.7	0.024	0.000	21.1	3	1
03/10/06	4:01 p	-15.6	-15.6	-15.6	---	---	4.3	N	0.07	5.2	-21.0	---	---	730.7	0.024	0.000	21.1	3	1
03/10/06	4:02 p	-15.6	-15.6	-15.6	---	---	2.6	N	0.04	4.3	-19.1	---	---	730.8	0.024	0.000	21.1	3	1
03/10/06	4:03 p	-15.6	-15.6	-15.7	---	---	1.7	N	0.03	2.6	-17.7	---	---	730.9	0.024	0.000	21.1	2	1
03/10/06	4:04 p	-15.6	-15.6	-15.7	---	---	1.7	N	0.03	2.6	-17.7	---	---	730.9	0.024	0.000	21.1	2	1
03/10/06	4:05 p	-15.7	-15.7	-15.7	---	---	3.5	N	0.06	4.3	-20.2	---	---	730.7	0.024	0.000	21.1	2	1
03/10/06	4:06 p	-15.6	-15.6	-15.7	---	---	3.5	N	0.06	4.3	-20.2	---	---	730.7	0.024	0.000	21.1	2	1
03/10/06	4:07 p	-15.6	-15.6	-15.7	---	---	4.3	N	0.07	5.2	-21.0	---	---	730.6	0.024	0.000	21.1	2	1
03/10/06	4:08 p	-15.7	-15.7	-15.7	---	---	4.3	N	0.07	7.0	-21.1	---	---	730.7	0.024	0.000	21.1	3	1
03/10/06	4:09 p	-15.7	-15.7	-15.7	---	---	5.2	N	0.09	6.1	-21.8	---	---	730.7	0.024	0.000	21.1	3	1
03/10/06	4:10 p	-15.7	-15.7	-15.7	---	---	5.2	N	0.09	6.1	-21.9	---	---	730.7	0.024	0.000	21.1	2	1
03/10/06	4:11 p	-15.7	-15.7	-15.7	---	---	5.2	N	0.09	6.1	-21.9	---	---	730.7	0.024	0.000	21.1	3	1
03/10/06	4:12 p	-15.7	-15.7	-15.7	---	---	4.3	NNW	0.07	5.2	-21.1	---	---	730.7	0.024	0.000	21.1	2	1
03/10/06	4:13 p	-15.6	-15.6	-15.6	---	---	5.2	N	0.09	6.1	-21.7	---	---	730.7	0.024	0.000	21.1	2	1
03/10/06	4:14 p	-15.6	-15.6	-15.6	---	---	5.2	N	0.09	6.1	-21.7	---	---	730.7	0.024	0.000	21.1	2	1
03/10/06	4:15 p	-15.6	-15.6	-15.6	---	---	4.3	N	0.07	5.2	-21.0	---	---	730.7	0.024	0.000	21.1	2	1
03/10/06	4:16 p	-15.6	-15.6	-15.6	---	---	4.3	N	0.07	5.2	-20.9	---	---	730.7	0.024	0.000	21.1	2	1
03/10/06	4:17 p	-15.6	-15.6	-15.6	---	---	3.5	N	0.06	4.3	-20.1	---	---	730.6	0.024	0.000	21.0	2	1
03/10/06	4:18 p	-15.6	-15.6	-15.6	---	---	5.2	N	0.09	6.1	-21.7	---	---	730.7	0.024	0.000	21.0	3	1
03/10/06	4:19 p	-15.6	-15.6	-15.6	---	---	4.3	N	0.07	6.1	-20.9	---	---	730.6	0.024	0.000	21.0	2	1
03/10/06	4:20 p	-15.6	-15.6	-15.6	---	---	3.5	N	0.06	4.3	-20.2	---	---	730.7	0.024	0.000	21.0	3	1
03/10/06	4:21 p	-15.6	-15.6	-15.6	---	---	4.3	N	0.07	5.2	-21.0	---	---	730.6	0.024	0.000	21.0	3	1
03/10/06	4:22 p	-15.6	-15.6	-15.6	---	---	3.5	N	0.06	4.3	-20.1	---	---	730.7	0.024	0.000	21.0	2	1
03/10/06	4:23 p	-15.6	-15.6	-15.6	---	---	3.5	N	0.06	4.3	-20.1	---	---	730.6	0.024	0.000	21.0	2	1
03/10/06	4:24 p	-15.6	-15.6	-15.6	---	---	5.2	N	0.09	6.1	-21.7	---	---	730.7	0.024	0.000	21.0	2	1
03/10/06	4:25 p	-15.5	-15.5	-15.5	---	---	3.5	N	0.06	3.5	-20.1	---	---	730.6	0.023	0.000	21.0	3	1
03/10/06	4:26 p	-15.5	-15.5	-15.6	---	---	3.5	N	0.06	4.3	-20.1	---	---	730.6	0.023	0.000	21.0	2	1
03/10/06	4:27 p	-15.5	-15.5	-15.6	---	---	4.3	N	0.07	5.2	-20.9	---	---	730.6	0.023	0.000	21.0	3	1
03/10/06	4:28 p	-15.6	-15.6	-15.6	---	---	5.2	N	0.09	6.1	-21.7	---	---	730.6	0.024	0.000	21.0	2	1
03/10/06	4:29 p	-15.7	-15.6	-15.7	---	---	4.3	N	0.07	6.1	-21.1	---	---	730.5	0.024	0.000	21.0	3	1
03/10/06	4:30 p	-15.7	-15.7	-15.8	---	---	4.3	N	0.07	5.2	-21.2	---	---	730.6	0.024	0.000	21.0	2	1
03/10/06	4:31 p	-15.8	-15.8	-15.8	---	---	3.5	N	0.06	4.3	-20.3	---	---	730.5	0.024	0.000	21.0	2	1
03/10/06	4:32 p	-15.8	-15.8	-15.8	---	---	3.5	N	0.06	4.3	-20.3	---	---	730.6	0.024	0.000	21.0	3	1
03/10/06	4:33 p	-15.7	-15.7	-15.7	---	---	3.5	N	0.06	4.3	-20.3	---	---	730.5	0.024	0.000	21.0	2	1
03/10/06	4:34 p	-15.7	-15.6	-15.7	---	---	3.5	N	0.06	4.3	-20.2	---	---	730.6	0.024	0.000	21.0	2	1
03/10/06	4:35 p	-15.6	-15.6	-15.6	---	---	5.2	N	0.09	7.0	-21.7	---	---	730.5	0.024	0.000	21.0	2	1
03/10/06	4:36 p	-15.6	-15.6	-15.6	---	---	4.3	NNW	0.07	6.1	-20.9	---	---	730.6	0.024	0.000	21.0	3	1
03/10/06	4:37 p	-15.6	-15.6	-15.6	---	---	3.5	N	0.06	4.3	-20.2	---	---	730.4	0.024	0.000	21.0	3	1
03/10/06	4:38 p	-15.6	-15.6	-15.6	---	---	4.3	N	0.07	5.2	-21.0	---	---	730.5	0.024	0.000	21.0	2	1
03/10/06	4:39 p	-15.7	-15.6	-15.7	---	---	5.2	N	0.09	6.1	-21.8	---	---	730.5	0.024	0.000	21.0	2	1
03/10/06	4:40 p	-15.7	-15.7	-15.7	---	---	5.2	N	0.09	6.1	-21.8	---	---	730.6	0.024	0.000	21.0	2	1
03/10/06	4:41 p	-15.7	-15.7	-15.7	---	---	4.3	N	0.07	6.1	-21.1	---	---	730.6	0.024	0.000	21.0	2	1
03/10/06	4:42 p	-15.7	-15.7	-15.7	---	---	4.3	N	0.07	5.2	-21.2	---	---	730.5	0.024	0.000	20.9	2	1
03/10/06	4:43 p	-15.7	-15.7	-15.7	---	---	5.2	N	0.09	6.1	-21.9	---	---	730.5	0.024	0.000	20.9	2	1
03/10/06	4:44 p	-15.7	-15.7	-15.7	---	---	5.2	N	0.09	5.2	-21.8	---	---	730.5	0.024	0.000	20.9	2	1
03/10/06	4:45 p	-15.7	-15.7	-15.7	---	---	5.2	NNW	0.09	6.1	-21.8	---	---	730.5	0.024	0.000	20.9	2	1
03/10/06	4:46 p	-16.0	-15.8	-16.2	---	---	3.5	WNW	0.06	5.2	-20.6	---	---	730.5	0.024	0.000	20.9	2	1
03/10/06	4:47 p	-16.3	-16.3	-16.3	---	---	3.5	NNW	0.06	4.3	-20.9	---	---	730.5	0.024	0.000	20.9	2	1
03/10/06	4:48 p	-16.3	-16.2	-16.3	---	---	2.6	NNW	0.04	3.5	-19.8	---	---	730.5	0.024	0.000	20.9	2	1
03/10/06	4:49 p	-16.3	-16.2	-16.3	---	---	1.7	NNW	0.03	3.5	-18.4	---	---	730.4	0.024	0.000	20.9	2	1
03/10/06	4:50 p	-16.3	-16.2	-16.3	---	---	3.5	NNW	0.06	3.5	-20.9	---	---	730.4	0.024	0.000	21.0	2	1
03/10/06	4:51 p	-16.2	-16.2	-16.2	---	---	3.5	NNW	0.06	4.3	-20.9	---	---	730.4	0.024	0.000	20.9	2	1
03/10/06	4:52 p	-16.1	-16.1	-16.1	---	---	2.6	NNW	0.04	3.5	-19.7	---	---	730.4	0.024	0.000	20.9	2	1
03/10/06	4:53 p	-16.1	-16.0	-16.1	---	---	3.5	NNW	0.06	4.3	-20.7	---	---	730.3	0.024	0.000	20.9	2	1
03/10/06	4:54 p	-16.0	-16.0	-16.0	---	---	4.3	N	0.07	6.1	-21.5	---	---	730.4	0.024	0.000	20.9	2	1
03/10/06	4:55 p	-15.9	-15.9	-16.0	---	---	5.2	N	0.09	7.0	-22.1	---	---	730.5	0.024	0.000	20.9	2	1
03/10/06	4:56 p	-16.1	-16.0	-16.1	---	---	3.5	NNW	0.06	4.3	-20.7	---	---	730.4	0.024	0.000	20.9	3	1
03/10/06	4:57 p	-16.2	-16.1	-16.3	---	---	2.6	NNW	0.04	2.6	-19.7	---	---	730.4	0.024	0.000	20.9	2	1
03/10/06	4:58 p	-16.3	-16.3	-16.4	---	---	2.6	NNW	0.04	3.5	-19.9	---	---	730.3	0.024	0.000	20.9	2	1
03/10/06	4:59 p	-16.4	-16.4	-16.4	---	---	3.5	N	0.06	4.3	-21.1	---	---	730.3	0.024	0.000	20.9	2	1
03/10/06	5:00 p	-16.3	-16.2	-16.4	---	---	4.3	N	0.07	5.2	-21.8	---	---	730.3	0.024	0.000	20.9	2	1
03/10/06	5:01 p	-16.1	-16.0	-16.2	---	---	3.5	N	0.06	5.2	-20.7	---	---	730.3	0.024	0.000	21.0	3	1
03/10/06	5:02 p	-16.0	-15.9	-16.0	---	---	4.3	N	0.07	5.2	-21.5	---	---	730.3	0.024	0.000	21.0	3	1
03/10/06	5:03 p	-15.8	-15.8	-15.9	---	---	3.5	N	0.06	6.1	-20.4	---	---	730.3	0.024	0.000	21.0	3	1
03/10/06	5:04 p	-15.8	-15.7	-15.8	---	---	3.5	N	0.06	3.5	-20.3	---	---	730.2	0.024	0.000	21.0	2	1
03/10/06	5:05 p	-15.7	-15.7	-15.7	---	---	3.5	N	0.06	4.3	-20.3	---	---	730.2	0.024	0.000	21.0	2	1
03/10/06	5:06 p	-15.7	-15.7	-15.7	---	---	3.5	N	0.06	6.1	-20.3	---	---	730.3	0.024	0.000	21.0	2	1
03/10/06	5:07 p	-15.7	-15.7	-15.8	---	---	4.3	N	0.07	5.2	-21.2	---	---	730.2	0.024	0.000	21.0	2	1
03/10/06	5:08 p	-15.9	-15.8	-15.9	---	---	4.3	N	0.07	6.1	-21.3	---	---	730.2	0.024	0.000	21.0	3	1
03/10/06	5:09 p	-15.9	-15.9	-16.0	---	---	5.2	N	0.09	5.2	-22.1	---	---	730.2	0.024	0.000	21.0	3	1
03/10/06	5:10 p	-15.9	-15.9	-15.9	---	---	4.3	N	0.07	5.2	-21.4	---	---	730.1	0.024	0.000	21.0	3	1
03/10/06	5:11 p	-15.9	-15.9	-15.9	---	---	4.3	N	0.07	6.1	-21.3	---	---	730.1	0.024	0.000	21.0	3	1
03/10/06	5:12 p	-15.9	-15.9	-15.9	---	---	4.3	N	0.07	6.1	-21.3	---	---	730.1	0.024	0.000	20.9	2	1
03/10/06	5:13 p	-15.9	-15.9	-15.9	---	---	4.3	N	0.07	6.1	-21.3	---	---	730.1	0.024	0.000	20.9	2	1
03/10/06	5:14 p	-15.9	-15.9	-15.9	---	---	4.3	N	0.07	5.2	-21.3	---	---	730.1	0.024	0.000	20.9	2	1
03/10/06	5:15 p	-15.8	-15.8	-15.8	---	---	3.5	N	0.06	4.3	-20.4	---	---	730.1	0.024	0.000	20.9	2	1
03/10/06	5:16 p	-15.8	-15.7	-15.8	---	---	2.6	N	0.04	3.5	-19.3	---	---	730.1	0.024	0.000	20.9	2	1
03/10/06	5:17 p	-15.7	-15.7	-15.7	---	---	3.5	N	0.06	4.3	-20.3	---	---	730.1	0.024	0.000	20.9	2	1
03/10/06	5:18 p	-15.7	-15.7	-15.7	---	---	3.5	N	0.06	4.3	-20.2	---	---	730.1	0.024	0.000	20.9	2	1
03/10/06	5:19 p	-15.7	-15.7	-15.7	---	---	3.5	N	0.06	4.3	-20.3	---	---	730.1	0.024	0.000	20.9	3	1
03/10/06	5:20 p	-15.7	-15.7	-15.7	---	---	3.5	N	0.06	4.3	-20.2	---	---	730.1	0.024	0.000	20.9	2	1
03/10/06	5:21 p	-15.7	-15.7	-15.7	---	---	4.3	N	0.07	4.3	-21.1	---	---	730.1	0.024	0.000	20.9	3	1
03/10/06	5:22 p	-15.7	-15.7	-15.7	---	---	3.5	N	0.06	4.3	-20.2	---	---	730.1	0.024	0.000	20.9	3	1
03/10/06	5:23 p	-15.7	-15.6	-15.7	---	---	3.5	N	0.06	4.3	-20.2	---	---	730.1	0.024	0.000	20.9	2	1
03/10/06	5:24 p	-15.7	-15.6	-15.7	---	---	3.5	N	0.06	5.2	-20.2	---	---	730.1	0.024	0.000	21.0	2	1
03/10/06	5:25 p	-15.6	-15.6	-15.6	---	---	3.5	N	0.06	5.2	-20.2	---	---	730.1	0.024	0.000	21.0	2	1
03/10/06	5:26 p	-15.6	-15.6	-15.6	---	---	3.5	N	0.06	4.3	-20.2	---	---	730.0	0.024	0.000	21.0	3	1
03/10/06	5:27 p	-15.6	-15.6	-15.6	---	---	4.3	N	0.07	5.2	-21.0	---	---	730.1	0.024	0.000	21.0	2	1
03/10/06	5:28 p	-15.6	-15.6	-15.6	---	---	3.5	N	0.06	4.3	-20.1	---	---	730.0	0.024	0.000	21.0	3	1
03/10/06	5:29 p	-15.6	-15.6	-15.6	---	---	3.5	N	0.06	4.3	-20.2	---	---	730.0	0.024	0.000	21.0	2	1
03/10/06	5:30 p	-15.6	-15.6	-15.6	---	---	3.5	N	0.06	4.3	-20.2	---	---	730.1	0.024	0.000	21.0	2	1
03/10/06	5:31 p	-15.6	-15.6	-15.6	---	---	2.6	N	0.04	3.5	-19.1	---	---	730.1	0.024	0.000	21.0	3	1
03/10/06	5:32 p	-15.6	-15.6	-15.6	---	---	3.5	N	0.06	4.3	-20.1	---	---	730.1	0.024	0.000	21.0	2	1
03/10/06	5:33 p	-15.6	-15.6	-15.6	---	---	3.5	N	0.06	4.3	-20.1	---	---	730.1	0.024	0.000	21.0	2	1
03/10/06	5:34 p	-15.6	-15.6	-15.6	---	---	4.3	N	0.07	5.2	-20.9	---	---	730.1	0.024	0.000	21.0	3	1
03/10/06	5:35 p	-15.6	-15.6	-15.6	---	---	4.3	N	0.07	5.2	-20.9	---	---	730.0	0.024	0.000	21.0	2	1
03/10/06	5:36 p	-15.6	-15.6	-15.6	---	---	4.3	N	0.07	4.3	-20.9	---	---	730.1	0.024	0.000	21.0	3	1
03/10/06	5:37 p	-15.6	-15.6	-15.6	---	---	4.3	N	0.07	5.2	-21.0	---	---	730.0	0.024	0.000	21.0	3	1
03/10/06	5:38 p	-15.6	-15.6	-15.6	---	---	4.3	N	0.07	5.2	-20.9	---	---	730.0	0.024	0.000	21.0	2	1
03/10/06	5:39 p	-15.6	-15.6	-15.6	---	---	4.3	N	0.07	7.0	-21.0	---	---	730.0	0.024	0.000	20.9	2	1
03/10/06	5:40 p	-15.7	-15.6	-15.9	---	---	6.1	NW	0.10	7.0	-22.4	---	---	730.1	0.024	0.000	21.0	3	1
03/10/06	5:41 p	-16.2	-15.9	-16.5	---	---	5.2	WNW	0.09	6.1	-22.4	---	---	730.0	0.024	0.000	20.9	3	1
03/10/06	5:42 p	-16.7	-16.5	-16.8	---	---	5.2	WNW	0.09	5.2	-23.0	---	---	730.0	0.024	0.000	20.9	2	1
03/10/06	5:43 p	-16.9	-16.8	-17.1	---	---	4.3	WNW	0.07	5.2	-22.6	---	---	730.1	0.024	0.000	20.9	2	1
03/10/06	5:44 p	-17.1	-17.1	-17.2	---	---	3.5	WNW	0.06	5.2	-21.9	---	---	730.0	0.025	0.000	20.9	2	1
03/10/06	5:45 p	-17.2	-17.2	-17.2	---	---	3.5	NW	0.06	5.2	-22.0	---	---	730.0	0.025	0.000	21.0	2	1
03/10/06	5:46 p	-17.3	-17.2	-17.3	---	---	3.5	NW	0.06	4.3	-22.1	---	---	730.0	0.025	0.000	21.0	2	1
03/10/06	5:47 p	-17.3	-17.3	-17.3	---	---	4.3	NW	0.07	5.2	-23.1	---	---	729.9	0.025	0.000	21.0	3	1
03/10/06	5:48 p	-17.4	-17.4	-17.4	---	---	4.3	NW	0.07	5.2	-23.1	---	---	730.0	0.025	0.000	21.0	2	1
03/10/06	5:49 p	-17.3	-17.3	-17.3	---	---	4.3	NW	0.07	4.3	-23.1	---	---	729.9	0.025	0.000	20.9	3	1
03/10/06	5:50 p	-17.3	-17.3	-17.3	---	---	2.6	NW	0.04	4.3	-21.0	---	---	730.0	0.025	0.000	20.9	2	1
03/10/06	5:51 p	-17.2	-17.2	-17.3	---	---	2.6	NW	0.04	2.6	-20.9	---	---	730.0	0.025	0.000	20.9	2	1
03/10/06	5:52 p	-17.2	-17.2	-17.2	---	---	1.7	NW	0.03	2.6	-19.4	---	---	730.1	0.025	0.000	21.0	2	1
03/10/06	5:53 p	-17.2	-17.2	-17.2	---	---	0.9	NW	0.01	1.7	-17.2	---	---	730.0	0.025	0.000	20.9	2	1
03/10/06	5:54 p	-17.2	-17.1	-17.2	---	---	0.9	NW	0.01	1.7	-17.2	---	---	730.0	0.025	0.000	20.9	3	1
03/10/06	5:55 p	-17.1	-17.1	-17.2	---	---	1.7	NW	0.03	2.6	-19.3	---	---	730.0	0.025	0.000	21.0	2	1
03/10/06	5:56 p	-17.1	-17.0	-17.1	---	---	3.5	NW	0.06	3.5	-21.8	---	---	730.0	0.025	0.000	21.0	2	1
03/10/06	5:57 p	-17.0	-17.0	-17.0	---	---	3.5	NW	0.06	4.3	-21.8	---	---	729.9	0.025	0.000	21.0	2	1
03/10/06	5:58 p	-17.0	-16.9	-17.0	---	---	4.3	NW	0.07	5.2	-22.7	---	---	729.9	0.025	0.000	21.0	3	1
03/10/06	5:59 p	-16.9	-16.9	-16.9	---	---	5.2	NW	0.09	6.1	-23.3	---	---	730.0	0.024	0.000	21.0	2	1
03/10/06	6:00 p	-16.9	-16.9	-16.9	---	---	6.1	NW	0.10	7.0	-23.9	---	---	729.9	0.024	0.000	21.0	3	1
03/10/06	6:01 p	-16.9	-16.9	-16.9	---	---	7.0	NW	0.12	7.8	-24.5	---	---	729.8	0.024	0.000	21.0	3	1
03/10/06	6:02 p	-16.8	-16.8	-16.8	---	---	7.0	NW	0.12	7.0	-24.3	---	---	729.9	0.024	0.000	21.0	2	1
03/10/06	6:03 p	-16.7	-16.7	-16.7	---	---	5.2	NW	0.09	6.1	-23.1	---	---	729.8	0.024	0.000	21.0	2	1
03/10/06	6:04 p	-16.7	-16.7	-16.7	---	---	5.2	NW	0.09	5.2	-23.0	---	---	729.8	0.024	0.000	21.0	2	1
03/10/06	6:05 p	-16.7	-16.6	-16.7	---	---	5.2	NNW	0.09	6.1	-23.0	---	---	729.9	0.024	0.000	21.0	2	1
03/10/06	6:06 p	-16.6	-16.6	-16.6	---	---	3.5	NNW	0.06	4.3	-21.2	---	---	729.9	0.024	0.000	21.0	2	1
03/10/06	6:07 p	-16.5	-16.5	-16.5	---	---	2.6	NNW	0.04	3.5	-20.1	---	---	729.9	0.024	0.000	21.0	2	1
03/10/06	6:08 p	-16.5	-16.5	-16.6	---	---	2.6	NNW	0.04	2.6	-20.1	---	---	729.9	0.024	0.000	21.0	2	1
03/10/06	6:09 p	-16.5	-16.5	-16.5	---	---	0.9	NNW	0.01	1.7	-16.5	---	---	729.9	0.024	0.000	21.0	3	1
03/10/06	6:10 p	-16.5	-16.4	-16.5	---	---	0.0	---	0.00	0.0	-16.5	---	---	729.9	0.024	0.000	21.0	3	1
03/10/06	6:11 p	-16.4	-16.4	-16.4	---	---	0.0	---	0.00	0.9	-16.4	---	---	729.9	0.024	0.000	21.1	2	1
03/10/06	6:12 p	-16.4	-16.4	-16.4	---	---	0.0	---	0.00	0.9	-16.4	---	---	729.9	0.024	0.000	21.1	3	1
03/10/06	6:13 p	-16.4	-16.4	-16.4	---	---	0.9	NNW	0.01	1.7	-16.4	---	---	729.8	0.024	0.000	21.1	2	1
03/10/06	6:14 p	-16.3	-16.3	-16.4	---	---	0.9	NNW	0.01	1.7	-16.3	---	---	729.9	0.024	0.000	21.1	3	1
03/10/06	6:15 p	-16.3	-16.3	-16.3	---	---	2.6	NNW	0.04	3.5	-19.9	---	---	729.8	0.024	0.000	21.1	3	1
03/10/06	6:16 p	-16.3	-16.3	-16.3	---	---	2.6	NNW	0.04	4.3	-19.8	---	---	729.7	0.024	0.000	21.1	3	1
03/10/06	6:17 p	-16.3	-16.2	-16.3	---	---	4.3	NNW	0.07	5.2	-21.8	---	---	729.7	0.024	0.000	21.1	2	1
03/10/06	6:18 p	-16.2	-16.2	-16.2	---	---	6.1	NNW	0.10	8.7	-23.1	---	---	729.7	0.024	0.000	21.1	2	1
03/10/06	6:19 p	-16.2	-16.1	-16.2	---	---	7.8	NNW	0.13	8.7	-24.1	---	---	729.7	0.024	0.000	21.0	2	1
03/10/06	6:20 p	-16.0	-15.9	-16.1	---	---	7.0	NNW	0.12	8.7	-23.4	---	---	729.7	0.024	0.000	21.0	3	1
03/10/06	6:21 p	-15.9	-15.9	-15.9	---	---	7.0	NNW	0.12	8.7	-23.3	---	---	729.8	0.024	0.000	21.0	2	1
03/10/06	6:22 p	-15.9	-15.9	-15.9	---	---	7.8	NNW	0.13	8.7	-23.8	---	---	729.8	0.024	0.000	20.9	2	1
03/10/06	6:23 p	-15.8	-15.8	-15.9	---	---	7.8	NNW	0.13	8.7	-23.7	---	---	729.8	0.024	0.000	20.9	2	1
03/10/06	6:24 p	-15.8	-15.8	-15.8	---	---	7.0	NNW	0.12	8.7	-23.2	---	---	729.8	0.024	0.000	20.9	2	1
03/10/06	6:25 p	-15.8	-15.8	-15.8	---	---	7.8	NNW	0.13	8.7	-23.7	---	---	729.7	0.024	0.000	20.9	3	1
03/10/06	6:26 p	-15.8	-15.8	-15.8	---	---	7.8	NNW	0.13	9.6	-23.7	---	---	729.8	0.024	0.000	20.9	2	1
03/10/06	6:27 p	-15.8	-15.8	-15.8	---	---	9.6	NW	0.16	10.4	-24.6	---	---	729.7	0.024	0.000	20.9	2	1
03/10/06	6:28 p	-15.8	-15.8	-15.8	---	---	7.0	NW	0.12	7.8	-23.1	---	---	729.8	0.024	0.000	20.9	2	1
03/10/06	6:29 p	-15.8	-15.8	-15.8	---	---	6.1	NW	0.10	7.8	-22.6	---	---	729.7	0.024	0.000	20.9	2	1
03/10/06	6:30 p	-15.8	-15.8	-15.8	---	---	5.2	NW	0.09	7.8	-21.9	---	---	729.9	0.024	0.000	20.9	2	1
03/10/06	6:31 p	-15.8	-15.8	-15.8	---	---	3.5	NW	0.06	4.3	-20.3	---	---	729.9	0.024	0.000	20.9	2	1
03/10/06	6:32 p	-15.8	-15.8	-15.8	---	---	2.6	NW	0.04	3.5	-19.3	---	---	729.9	0.024	0.000	20.9	3	1
03/10/06	6:33 p	-15.8	-15.8	-15.8	---	---	1.7	NW	0.03	2.6	-17.9	---	---	729.9	0.024	0.000	20.9	2	1
03/10/06	6:34 p	-15.8	-15.8	-15.8	---	---	1.7	NW	0.03	2.6	-17.9	---	---	729.9	0.024	0.000	20.9	2	1
03/10/06	6:35 p	-15.8	-15.8	-15.8	---	---	1.7	NW	0.03	2.6	-17.9	---	---	729.8	0.024	0.000	20.9	2	1
03/10/06	6:36 p	-15.8	-15.8	-15.8	---	---	2.6	NW	0.04	3.5	-19.3	---	---	729.9	0.024	0.000	20.9	2	1
03/10/06	6:37 p	-15.8	-15.8	-15.8	---	---	4.3	NW	0.07	6.1	-21.3	---	---	729.8	0.024	0.000	20.9	3	1
03/10/06	6:38 p	-15.8	-15.8	-15.8	---	---	5.2	NW	0.09	7.0	-22.0	---	---	729.8	0.024	0.000	20.9	2	1
03/10/06	6:39 p	-15.8	-15.8	-15.8	---	---	6.1	NNW	0.10	6.1	-22.7	---	---	729.8	0.024	0.000	20.9	2	1
03/10/06	6:40 p	-15.8	-15.8	-15.8	---	---	7.0	NNW	0.12	8.7	-23.2	---	---	729.8	0.024	0.000	20.9	2	1
03/10/06	6:41 p	-15.8	-15.8	-15.8	---	---	7.0	NNW	0.12	7.8	-23.1	---	---	729.8	0.024	0.000	20.9	2	1
03/10/06	6:42 p	-15.8	-15.8	-15.8	---	---	6.1	NNW	0.10	7.0	-22.6	---	---	729.9	0.024	0.000	20.9	3	1
03/10/06	6:43 p	-15.8	-15.8	-15.8	---	---	5.2	NNW	0.09	7.0	-21.9	---	---	729.9	0.024	0.000	20.9	3	1
03/10/06	6:44 p	-15.7	-15.7	-15.8	---	---	5.2	NNW	0.09	7.0	-21.9	---	---	729.9	0.024	0.000	20.9	2	1
03/10/06	6:45 p	-15.7	-15.7	-15.7	---	---	3.5	NW	0.06	5.2	-20.2	---	---	729.9	0.024	0.000	20.9	2	1
03/10/06	6:46 p	-15.6	-15.6	-15.7	---	---	1.7	NW	0.03	2.6	-17.7	---	---	730.1	0.024	0.000	20.9	2	1
03/10/06	6:47 p	-15.6	-15.6	-15.6	---	---	4.3	NW	0.07	7.0	-21.0	---	---	730.1	0.024	0.000	20.9	2	1
03/10/06	6:48 p	-15.6	-15.6	-15.7	---	---	6.1	SSW	0.10	8.7	-22.4	---	---	730.2	0.024	0.000	20.9	3	1
03/10/06	6:49 p	-15.7	-15.7	-15.7	---	---	2.6	S	0.04	6.1	-19.2	---	---	730.1	0.024	0.000	20.9	2	1
03/10/06	6:50 p	-15.8	-15.7	-15.8	---	---	2.6	S	0.04	4.3	-19.3	---	---	730.1	0.024	0.000	20.9	3	1
03/10/06	6:51 p	-15.8	-15.8	-15.8	---	---	4.3	WNW	0.07	5.2	-21.2	---	---	730.0	0.024	0.000	20.9	3	1
03/10/06	6:52 p	-15.8	-15.8	-15.8	---	---	5.2	NW	0.09	6.1	-21.9	---	---	729.9	0.024	0.000	20.9	3	1
03/10/06	6:53 p	-15.7	-15.7	-15.8	---	---	4.3	NW	0.07	5.2	-21.2	---	---	729.9	0.024	0.000	21.0	2	1
03/10/06	6:54 p	-15.7	-15.7	-15.7	---	---	2.6	NW	0.04	4.3	-19.2	---	---	730.0	0.024	0.000	20.9	3	1
03/10/06	6:55 p	-15.7	-15.7	-15.7	---	---	6.1	SSW	0.10	11.3	-22.4	---	---	730.1	0.024	0.000	21.0	3	1
03/10/06	6:56 p	-15.8	-15.7	-15.9	---	---	13.9	S	0.23	15.7	-26.2	---	---	730.0	0.024	0.000	21.0	3	1
03/10/06	6:57 p	-16.1	-15.9	-16.2	---	---	11.3	SSE	0.19	13.0	-25.7	---	---	730.0	0.024	0.000	21.0	3	1
03/10/06	6:58 p	-16.4	-16.3	-16.6	---	---	8.7	SSE	0.14	11.3	-24.8	---	---	730.0	0.024	0.000	21.0	3	1
03/10/06	6:59 p	-16.6	-16.6	-16.6	---	---	1.7	ESE	0.03	5.2	-18.8	---	---	730.0	0.024	0.000	21.0	3	1
03/10/06	7:00 p	-16.6	-16.6	-16.6	---	---	0.0	ESE	0.00	0.9	-16.6	---	---	730.0	0.024	0.000	21.0	2	1
03/10/06	7:01 p	-16.6	-16.6	-16.6	---	---	0.0	ESE	0.00	1.7	-16.6	---	---	730.0	0.024	0.000	21.0	3	1
03/10/06	7:02 p	-16.5	-16.4	-16.6	---	---	0.9	ESE	0.01	1.7	-16.5	---	---	730.0	0.024	0.000	21.0	3	1
03/10/06	7:03 p	-16.4	-16.3	-16.4	---	---	2.6	ESE	0.04	3.5	-20.0	---	---	730.0	0.024	0.000	21.0	3	1
03/10/06	7:04 p	-16.3	-16.3	-16.3	---	---	2.6	SE	0.04	4.3	-19.9	---	---	730.0	0.024	0.000	21.1	3	1
03/10/06	7:05 p	-16.3	-16.3	-16.3	---	---	5.2	SSE	0.09	6.1	-22.6	---	---	730.0	0.024	0.000	21.1	3	1
03/10/06	7:06 p	-16.3	-16.3	-16.3	---	---	6.1	S	0.10	7.0	-23.2	---	---	730.0	0.024	0.000	21.1	3	1
03/10/06	7:07 p	-16.3	-16.3	-16.4	---	---	4.3	SSE	0.07	5.2	-21.9	---	---	730.0	0.024	0.000	21.1	3	1
03/10/06	7:08 p	-16.3	-16.3	-16.3	---	---	3.5	SSE	0.06	4.3	-21.0	---	---	730.0	0.024	0.000	21.1	3	1
03/10/06	7:09 p	-16.3	-16.3	-16.3	---	---	4.3	SSE	0.07	7.0	-21.9	---	---	730.0	0.024	0.000	21.1	3	1
03/10/06	7:10 p	-16.4	-16.3	-16.4	---	---	7.0	SE	0.12	7.8	-23.9	---	---	730.1	0.024	0.000	21.1	3	1
03/10/06	7:11 p	-16.4	-16.4	-16.4	---	---	5.2	SE	0.09	6.1	-22.7	---	---	730.0	0.024	0.000	21.1	3	1
03/10/06	7:12 p	-16.4	-16.4	-16.4	---	---	4.3	SE	0.07	5.2	-22.0	---	---	730.1	0.024	0.000	21.1	3	1
03/10/06	7:13 p	-16.4	-16.4	-16.4	---	---	3.5	SE	0.06	5.2	-21.1	---	---	730.0	0.024	0.000	21.1	3	1
03/10/06	7:14 p	-16.4	-16.4	-16.4	---	---	4.3	SE	0.07	4.3	-22.0	---	---	730.0	0.024	0.000	21.1	3	1
03/10/06	7:15 p	-16.4	-16.4	-16.4	---	---	4.3	SE	0.07	5.2	-22.0	---	---	730.0	0.024	0.000	21.1	3	1
03/10/06	7:16 p	-16.4	-16.4	-16.4	---	---	4.3	SE	0.07	6.1	-21.9	---	---	730.0	0.024	0.000	21.1	3	1
03/10/06	7:17 p	-16.4	-16.4	-16.4	---	---	2.6	SE	0.04	4.3	-20.1	---	---	730.0	0.024	0.000	21.1	3	1
03/10/06	7:18 p	-16.4	-16.4	-16.4	---	---	2.6	SE	0.04	2.6	-20.0	---	---	730.0	0.024	0.000	21.1	3	1
03/10/06	7:19 p	-16.3	-16.3	-16.4	---	---	4.3	SE	0.07	5.2	-21.9	---	---	730.0	0.024	0.000	21.1	3	1
03/10/06	7:20 p	-16.3	-16.3	-16.3	---	---	3.5	SE	0.06	4.3	-20.9	---	---	730.1	0.024	0.000	21.1	3	1
03/10/06	7:21 p	-16.3	-16.3	-16.3	---	---	3.5	SE	0.06	5.2	-20.9	---	---	730.1	0.024	0.000	21.1	3	1
03/10/06	7:22 p	-16.2	-16.2	-16.3	---	---	4.3	SE	0.07	5.2	-21.7	---	---	730.1	0.024	0.000	21.1	3	1
03/10/06	7:23 p	-16.2	-16.2	-16.2	---	---	4.3	SE	0.07	5.2	-21.7	---	---	730.0	0.024	0.000	21.1	3	1
03/10/06	7:24 p	-16.2	-16.2	-16.2	---	---	4.3	SE	0.07	4.3	-21.7	---	---	730.1	0.024	0.000	21.1	3	1
03/10/06	7:25 p	-16.2	-16.2	-16.2	---	---	5.2	SE	0.09	6.1	-22.4	---	---	730.1	0.024	0.000	21.1	3	1
03/10/06	7:26 p	-16.2	-16.2	-16.2	---	---	7.0	SE	0.12	7.8	-23.7	---	---	730.1	0.024	0.000	21.1	3	1
03/10/06	7:27 p	-16.2	-16.2	-16.2	---	---	5.2	SE	0.09	7.0	-22.4	---	---	730.2	0.024	0.000	21.1	3	1
03/10/06	7:28 p	-16.2	-16.2	-16.2	---	---	4.3	SE	0.07	4.3	-21.7	---	---	730.1	0.024	0.000	21.1	3	1
03/10/06	7:29 p	-16.2	-16.2	-16.2	---	---	4.3	SE	0.07	5.2	-21.7	---	---	730.1	0.024	0.000	21.2	3	1
03/10/06	7:30 p	-16.2	-16.1	-16.2	---	---	6.1	SE	0.10	7.8	-23.1	---	---	730.1	0.024	0.000	21.2	3	1
03/10/06	7:31 p	-16.1	-16.1	-16.1	---	---	8.7	SE	0.14	10.4	-24.4	---	---	730.1	0.024	0.000	21.2	3	1
03/10/06	7:32 p	-16.1	-16.1	-16.1	---	---	8.7	SSE	0.14	11.3	-24.4	---	---	730.1	0.024	0.000	21.2	3	1
03/10/06	7:33 p	-16.1	-16.1	-16.1	---	---	9.6	SE	0.16	11.3	-24.9	---	---	730.1	0.024	0.000	21.2	3	1
03/10/06	7:34 p	-16.1	-16.1	-16.1	---	---	8.7	SE	0.14	9.6	-24.5	---	---	730.2	0.024	0.000	21.2	3	1
03/10/06	7:35 p	-16.1	-16.1	-16.1	---	---	7.0	ESE	0.12	8.7	-23.6	---	---	730.1	0.024	0.000	21.2	3	1
03/10/06	7:36 p	-16.1	-16.1	-16.1	---	---	7.0	ESE	0.12	7.8	-23.4	---	---	730.1	0.024	0.000	21.2	3	1
03/10/06	7:37 p	-16.1	-16.1	-16.1	---	---	5.2	E	0.09	7.0	-22.3	---	---	730.0	0.024	0.000	21.2	3	1
03/10/06	7:38 p	-16.1	-16.0	-16.1	---	---	6.1	ESE	0.10	8.7	-22.9	---	---	730.1	0.024	0.000	21.2	3	1
03/10/06	7:39 p	-16.0	-16.0	-16.0	---	---	8.7	ESE	0.14	9.6	-24.4	---	---	730.0	0.024	0.000	21.2	3	1
03/10/06	7:40 p	-16.0	-15.9	-16.0	---	---	9.6	ESE	0.16	10.4	-24.8	---	---	730.1	0.024	0.000	21.2	3	1
03/10/06	7:41 p	-16.0	-15.9	-16.0	---	---	8.7	ESE	0.14	11.3	-24.4	---	---	730.1	0.024	0.000	21.2	3	1
03/10/06	7:42 p	-16.0	-16.0	-16.0	---	---	8.7	E	0.14	12.2	-24.4	---	---	730.1	0.024	0.000	21.2	3	1
03/10/06	7:43 p	-16.1	-16.0	-16.1	---	---	8.7	E	0.14	11.3	-24.4	---	---	730.1	0.024	0.000	21.2	3	1
03/10/06	7:44 p	-16.1	-16.1	-16.1	---	---	9.6	E	0.16	11.3	-24.9	---	---	730.0	0.024	0.000	21.2	3	1
03/10/06	7:45 p	-16.1	-16.1	-16.1	---	---	7.8	E	0.13	10.4	-24.1	---	---	730.1	0.024	0.000	21.2	3	1
03/10/06	7:46 p	-16.1	-16.1	-16.2	---	---	7.0	E	0.12	9.6	-23.6	---	---	730.2	0.024	0.000	21.2	3	1
03/10/06	7:47 p	-16.2	-16.2	-16.2	---	---	7.8	E	0.13	9.6	-24.1	---	---	730.0	0.024	0.000	21.2	3	1
03/10/06	7:48 p	-16.2	-16.2	-16.2	---	---	7.8	E	0.13	10.4	-24.1	---	---	730.0	0.024	0.000	21.2	3	1
03/10/06	7:49 p	-16.2	-16.1	-16.2	---	---	7.8	E	0.13	11.3	-24.1	---	---	730.0	0.024	0.000	21.2	3	1
03/10/06	7:50 p	-16.1	-16.1	-16.1	---	---	7.8	E	0.13	8.7	-24.1	---	---	730.0	0.024	0.000	21.2	3	1
03/10/06	7:51 p	-16.1	-16.1	-16.1	---	---	7.0	E	0.12	7.8	-23.6	---	---	730.0	0.024	0.000	21.2	3	1
03/10/06	7:52 p	-16.1	-16.1	-16.1	---	---	7.0	E	0.12	9.6	-23.6	---	---	729.9	0.024	0.000	21.2	3	1
03/10/06	7:53 p	-16.1	-16.1	-16.1	---	---	7.0	E	0.12	8.7	-23.4	---	---	729.9	0.024	0.000	21.2	3	1
03/10/06	7:54 p	-16.1	-16.1	-16.1	---	---	6.1	E	0.10	7.8	-22.9	---	---	729.9	0.024	0.000	21.2	3	1
03/10/06	7:55 p	-16.0	-16.0	-16.1	---	---	6.1	E	0.10	7.8	-22.8	---	---	729.9	0.024	0.000	21.2	3	1
03/10/06	7:56 p	-16.0	-15.9	-16.0	---	---	6.1	E	0.10	7.8	-22.8	---	---	729.9	0.024	0.000	21.3	3	1
03/10/06	7:57 p	-15.9	-15.9	-15.9	---	---	6.1	E	0.10	7.8	-22.8	---	---	729.9	0.024	0.000	21.3	3	1
03/10/06	7:58 p	-15.9	-15.9	-15.9	---	---	6.1	E	0.10	7.8	-22.7	---	---	729.9	0.024	0.000	21.3	3	1
03/10/06	7:59 p	-15.8	-15.8	-15.9	---	---	7.0	E	0.12	8.7	-23.2	---	---	730.0	0.024	0.000	21.3	3	1
03/10/06	8:00 p	-15.8	-15.8	-15.8	---	---	7.8	E	0.13	8.7	-23.7	---	---	730.0	0.024	0.000	21.3	3	1
03/10/06	8:01 p	-15.8	-15.8	-15.8	---	---	7.0	E	0.12	9.6	-23.2	---	---	729.9	0.024	0.000	21.3	3	1
03/10/06	8:02 p	-15.8	-15.8	-15.8	---	---	7.8	E	0.13	9.6	-23.6	---	---	730.0	0.024	0.000	21.3	3	1
03/10/06	8:03 p	-15.8	-15.7	-15.8	---	---	7.0	E	0.12	9.6	-23.1	---	---	729.9	0.024	0.000	21.4	3	1
03/10/06	8:04 p	-15.7	-15.7	-15.7	---	---	8.7	ENE	0.14	9.6	-24.0	---	---	729.9	0.024	0.000	21.4	3	1
03/10/06	8:05 p	-15.7	-15.7	-15.7	---	---	7.0	E	0.12	8.7	-23.0	---	---	729.9	0.024	0.000	21.4	3	1
03/10/06	8:06 p	-15.7	-15.7	-15.7	---	---	5.2	E	0.09	7.0	-21.8	---	---	730.0	0.024	0.000	21.4	3	1
03/10/06	8:07 p	-15.7	-15.7	-15.7	---	---	6.1	E	0.10	7.0	-22.4	---	---	730.0	0.024	0.000	21.4	3	1
03/10/06	8:08 p	-15.6	-15.6	-15.7	---	---	5.2	E	0.09	7.0	-21.7	---	---	729.9	0.024	0.000	21.5	3	1
03/10/06	8:09 p	-15.6	-15.6	-15.6	---	---	7.0	E	0.12	8.7	-22.9	---	---	730.0	0.024	0.000	21.5	3	1
03/10/06	8:10 p	-15.6	-15.6	-15.6	---	---	7.8	E	0.13	9.6	-23.4	---	---	729.9	0.024	0.000	21.5	3	1
03/10/06	8:11 p	-15.6	-15.6	-15.6	---	---	11.3	ESE	0.19	13.9	-25.1	---	---	729.8	0.024	0.000	21.5	3	1
03/10/06	8:12 p	-15.6	-15.5	-15.6	---	---	13.9	ESE	0.23	15.7	-25.9	---	---	729.9	0.024	0.000	21.5	3	1
03/10/06	8:13 p	-15.5	-15.5	-15.5	---	---	13.9	ESE	0.23	15.7	-25.9	---	---	729.8	0.023	0.000	21.6	3	1
03/10/06	8:14 p	-15.5	-15.5	-15.5	---	---	13.0	ESE	0.22	14.8	-25.6	---	---	729.8	0.023	0.000	21.6	3	1
03/10/06	8:15 p	-15.5	-15.4	-15.5	---	---	11.3	ESE	0.19	13.9	-24.9	---	---	729.9	0.023	0.000	21.6	3	1
03/10/06	8:16 p	-15.4	-15.4	-15.4	---	---	12.2	ESE	0.20	14.8	-25.2	---	---	729.9	0.023	0.000	21.6	3	1
03/10/06	8:17 p	-15.4	-15.4	-15.4	---	---	12.2	ESE	0.20	13.0	-25.1	---	---	729.8	0.023	0.000	21.6	3	1
03/10/06	8:18 p	-15.3	-15.3	-15.4	---	---	13.0	ESE	0.22	13.9	-25.4	---	---	729.8	0.023	0.000	21.6	4	1
03/10/06	8:19 p	-15.3	-15.3	-15.3	---	---	13.9	ESE	0.23	16.5	-25.6	---	---	729.9	0.023	0.000	21.6	4	1
03/10/06	8:20 p	-15.3	-15.3	-15.3	---	---	14.8	SE	0.25	17.4	-25.9	---	---	729.9	0.023	0.000	21.6	4	1
03/10/06	8:21 p	-15.3	-15.2	-15.3	---	---	14.8	SE	0.25	16.5	-25.9	---	---	729.9	0.023	0.000	21.6	4	1
03/10/06	8:22 p	-15.2	-15.2	-15.2	---	---	16.5	SE	0.28	17.4	-26.3	---	---	729.9	0.023	0.000	21.6	4	1
03/10/06	8:23 p	-15.2	-15.2	-15.3	---	---	16.5	SE	0.28	20.9	-26.3	---	---	729.7	0.023	0.000	21.6	4	1
03/10/06	8:24 p	-15.2	-15.2	-15.3	---	---	17.4	SSE	0.29	20.0	-26.6	---	---	729.8	0.023	0.000	21.6	4	1
03/10/06	8:25 p	-15.2	-15.2	-15.2	---	---	14.8	SSE	0.25	17.4	-25.8	---	---	729.9	0.023	0.000	21.6	4	1
03/10/06	8:26 p	-15.2	-15.2	-15.2	---	---	14.8	SSE	0.25	18.3	-25.8	---	---	729.8	0.023	0.000	21.6	4	1
03/10/06	8:27 p	-15.2	-15.2	-15.2	---	---	13.9	SSE	0.23	16.5	-25.5	---	---	729.9	0.023	0.000	21.6	4	1
03/10/06	8:28 p	-15.2	-15.2	-15.2	---	---	15.7	SSE	0.26	20.0	-26.0	---	---	729.8	0.023	0.000	21.6	4	1
03/10/06	8:29 p	-15.2	-15.2	-15.2	---	---	18.3	SE	0.30	19.1	-26.8	---	---	729.8	0.023	0.000	21.6	4	1
03/10/06	8:30 p	-15.2	-15.2	-15.2	---	---	16.5	SSE	0.28	19.1	-26.3	---	---	729.7	0.023	0.000	21.6	4	1
03/10/06	8:31 p	-15.2	-15.2	-15.2	---	---	20.9	SSE	0.35	25.2	-27.5	---	---	729.8	0.023	0.000	21.6	4	1
03/10/06	8:32 p	-15.3	-15.2	-15.3	---	---	18.3	SSE	0.30	24.3	-26.9	---	---	729.8	0.023	0.000	21.6	4	1
03/10/06	8:33 p	-15.2	-15.2	-15.3	---	---	20.0	SSE	0.33	24.3	-27.3	---	---	729.8	0.023	0.000	21.6	4	1
03/10/06	8:34 p	-15.2	-15.2	-15.2	---	---	16.5	SSE	0.28	20.9	-26.3	---	---	729.8	0.023	0.000	21.6	4	1
03/10/06	8:35 p	-15.2	-15.2	-15.3	---	---	18.3	SSE	0.30	23.5	-26.8	---	---	729.7	0.023	0.000	21.6	4	1
03/10/06	8:36 p	-15.2	-15.2	-15.2	---	---	19.1	SSE	0.32	23.5	-27.1	---	---	729.7	0.023	0.000	21.6	4	1
03/10/06	8:37 p	-15.2	-15.2	-15.3	---	---	20.9	SSE	0.35	24.3	-27.5	---	---	729.6	0.023	0.000	21.6	4	1
03/10/06	8:38 p	-15.3	-15.2	-15.3	---	---	21.7	SSE	0.36	27.0	-27.8	---	---	729.8	0.023	0.000	21.6	4	1
03/10/06	8:39 p	-15.2	-15.2	-15.3	---	---	19.1	SE	0.32	22.6	-27.1	---	---	729.8	0.023	0.000	21.6	4	1
03/10/06	8:40 p	-15.3	-15.3	-15.3	---	---	21.7	SSE	0.36	26.1	-27.8	---	---	729.7	0.023	0.000	21.6	4	1
03/10/06	8:41 p	-15.3	-15.3	-15.3	---	---	18.3	SE	0.30	20.0	-26.9	---	---	729.8	0.023	0.000	21.6	4	1
03/10/06	8:42 p	-15.3	-15.3	-15.3	---	---	13.9	SE	0.23	17.4	-25.6	---	---	729.8	0.023	0.000	21.6	4	1
03/10/06	8:43 p	-15.3	-15.3	-15.3	---	---	14.8	SSE	0.25	16.5	-25.9	---	---	729.8	0.023	0.000	21.6	4	1
03/10/06	8:44 p	-15.3	-15.3	-15.3	---	---	17.4	SSE	0.29	20.0	-26.7	---	---	729.8	0.023	0.000	21.6	4	1
03/10/06	8:45 p	-15.3	-15.3	-15.4	---	---	20.9	SE	0.35	24.3	-27.6	---	---	729.7	0.023	0.000	21.6	4	1
03/10/06	8:46 p	-15.4	-15.4	-15.4	---	---	20.9	SSE	0.35	27.0	-27.7	---	---	729.6	0.023	0.000	21.6	4	1
03/10/06	8:47 p	-15.4	-15.4	-15.4	---	---	17.4	SSE	0.29	20.0	-26.8	---	---	729.7	0.023	0.000	21.6	4	1
03/10/06	8:48 p	-15.4	-15.4	-15.4	---	---	18.3	SSE	0.30	20.0	-27.1	---	---	729.6	0.023	0.000	21.6	4	1
03/10/06	8:49 p	-15.4	-15.4	-15.4	---	---	20.0	SSE	0.33	23.5	-27.6	---	---	729.6	0.023	0.000	21.6	4	1
03/10/06	8:50 p	-15.4	-15.4	-15.4	---	---	20.0	SSE	0.33	22.6	-27.6	---	---	729.5	0.023	0.000	21.6	4	1
03/10/06	8:51 p	-15.4	-15.4	-15.4	---	---	21.7	SSE	0.36	27.0	-28.0	---	---	729.6	0.023	0.000	21.6	4	1
03/10/06	8:52 p	-15.4	-15.4	-15.5	---	---	22.6	SSE	0.38	25.2	-28.2	---	---	729.6	0.023	0.000	21.6	4	1
03/10/06	8:53 p	-15.4	-15.4	-15.5	---	---	21.7	SSE	0.36	25.2	-28.0	---	---	729.6	0.023	0.000	21.6	4	1
03/10/06	8:54 p	-15.4	-15.4	-15.5	---	---	17.4	SSE	0.29	19.1	-26.9	---	---	729.7	0.023	0.000	21.6	4	1
03/10/06	8:55 p	-15.5	-15.4	-15.5	---	---	18.3	SSE	0.30	20.9	-27.2	---	---	729.6	0.023	0.000	21.6	4	1
03/10/06	8:56 p	-15.4	-15.4	-15.5	---	---	16.5	SSE	0.28	20.9	-26.6	---	---	729.7	0.023	0.000	21.6	4	1
03/10/06	8:57 p	-15.4	-15.4	-15.4	---	---	13.9	SSE	0.23	16.5	-25.8	---	---	729.6	0.023	0.000	21.6	4	1
03/10/06	8:58 p	-15.4	-15.4	-15.4	---	---	13.0	SSE	0.22	14.8	-25.5	---	---	729.7	0.023	0.000	21.7	4	1
03/10/06	8:59 p	-15.4	-15.4	-15.4	---	---	13.9	SSE	0.23	15.7	-25.8	---	---	729.6	0.023	0.000	21.7	4	1
03/10/06	9:00 p	-15.4	-15.4	-15.4	---	---	13.9	SE	0.23	14.8	-25.8	---	---	729.7	0.023	0.000	21.7	4	1
03/10/06	9:01 p	-15.4	-15.4	-15.4	---	---	13.0	SE	0.22	13.9	-25.5	---	---	729.7	0.023	0.000	21.7	4	1
03/10/06	9:02 p	-15.4	-15.4	-15.4	---	---	10.4	SE	0.17	12.2	-24.4	---	---	729.7	0.023	0.000	21.7	4	1
03/10/06	9:03 p	-15.4	-15.4	-15.4	---	---	12.2	SE	0.20	13.0	-25.1	---	---	729.7	0.023	0.000	21.7	4	1
03/10/06	9:04 p	-15.4	-15.4	-15.4	---	---	12.2	SE	0.20	14.8	-25.2	---	---	729.7	0.023	0.000	21.7	4	1
03/10/06	9:05 p	-15.4	-15.4	-15.4	---	---	13.0	SE	0.22	14.8	-25.5	---	---	729.6	0.023	0.000	21.7	4	1
03/10/06	9:06 p	-15.4	-15.3	-15.4	---	---	14.8	SSE	0.25	15.7	-26.0	---	---	729.6	0.023	0.000	21.7	4	1
03/10/06	9:07 p	-15.4	-15.3	-15.4	---	---	14.8	SE	0.25	15.7	-26.0	---	---	729.6	0.023	0.000	21.7	4	1
03/10/06	9:08 p	-15.3	-15.3	-15.3	---	---	14.8	SE	0.25	16.5	-25.9	---	---	729.6	0.023	0.000	21.7	4	1
03/10/06	9:09 p	-15.3	-15.3	-15.3	---	---	15.7	SE	0.26	18.3	-26.2	---	---	729.5	0.023	0.000	21.6	4	1
03/10/06	9:10 p	-15.3	-15.3	-15.3	---	---	17.4	SE	0.29	18.3	-26.7	---	---	729.4	0.023	0.000	21.6	4	1
03/10/06	9:11 p	-15.3	-15.3	-15.3	---	---	16.5	SE	0.28	18.3	-26.5	---	---	729.5	0.023	0.000	21.6	4	1
03/10/06	9:12 p	-15.3	-15.3	-15.3	---	---	17.4	SE	0.29	18.3	-26.7	---	---	729.4	0.023	0.000	21.6	4	1
03/10/06	9:13 p	-15.3	-15.3	-15.3	---	---	18.3	SE	0.30	20.0	-27.0	---	---	729.4	0.023	0.000	21.6	4	1
03/10/06	9:14 p	-15.3	-15.3	-15.3	---	---	20.9	SE	0.35	24.3	-27.6	---	---	729.3	0.023	0.000	21.5	4	1
03/10/06	9:15 p	-15.3	-15.3	-15.3	---	---	20.9	SE	0.35	25.2	-27.6	---	---	729.3	0.023	0.000	21.5	4	1
03/10/06	9:16 p	-15.3	-15.3	-15.4	---	---	20.0	SE	0.33	21.7	-27.4	---	---	729.3	0.023	0.000	21.5	4	1
03/10/06	9:17 p	-15.3	-15.3	-15.4	---	---	20.0	SE	0.33	23.5	-27.4	---	---	729.4	0.023	0.000	21.5	4	1
03/10/06	9:18 p	-15.3	-15.3	-15.3	---	---	20.0	SE	0.33	23.5	-27.4	---	---	729.3	0.023	0.000	21.5	4	1
03/10/06	9:19 p	-15.3	-15.3	-15.3	---	---	19.1	SSE	0.32	21.7	-27.1	---	---	729.4	0.023	0.000	21.5	4	1
03/10/06	9:20 p	-15.3	-15.3	-15.3	---	---	20.0	SSE	0.33	21.7	-27.4	---	---	729.4	0.023	0.000	21.5	4	1
03/10/06	9:21 p	-15.3	-15.3	-15.3	---	---	18.3	SSE	0.30	20.9	-26.9	---	---	729.5	0.023	0.000	21.4	4	1
03/10/06	9:22 p	-15.3	-15.3	-15.3	---	---	16.5	SSE	0.28	20.9	-26.4	---	---	729.6	0.023	0.000	21.4	4	1
03/10/06	9:23 p	-15.3	-15.3	-15.3	---	---	14.8	SSE	0.25	21.7	-25.9	---	---	729.4	0.023	0.000	21.4	4	1
03/10/06	9:24 p	-15.3	-15.3	-15.3	---	---	18.3	SSE	0.30	23.5	-26.9	---	---	729.5	0.023	0.000	21.4	4	1
03/10/06	9:25 p	-15.3	-15.3	-15.3	---	---	14.8	SE	0.25	18.3	-25.9	---	---	729.5	0.023	0.000	21.4	4	1
03/10/06	9:26 p	-15.3	-15.3	-15.3	---	---	13.9	SE	0.23	17.4	-25.6	---	---	729.5	0.023	0.000	21.4	4	1
03/10/06	9:27 p	-15.3	-15.3	-15.3	---	---	12.2	SE	0.20	14.8	-25.0	---	---	729.5	0.023	0.000	21.4	4	1
03/10/06	9:28 p	-15.2	-15.2	-15.3	---	---	15.7	SE	0.26	19.1	-26.1	---	---	729.4	0.023	0.000	21.4	4	1
03/10/06	9:29 p	-15.2	-15.2	-15.3	---	---	15.7	SE	0.26	20.0	-26.1	---	---	729.4	0.023	0.000	21.4	4	1
03/10/06	9:30 p	-15.3	-15.2	-15.3	---	---	15.7	ESE	0.26	18.3	-26.2	---	---	729.5	0.023	0.000	21.4	4	1
03/10/06	9:31 p	-15.3	-15.3	-15.3	---	---	13.0	ESE	0.22	16.5	-25.4	---	---	729.4	0.023	0.000	21.4	4	1
03/10/06	9:32 p	-15.3	-15.3	-15.3	---	---	18.3	SE	0.30	23.5	-27.0	---	---	729.4	0.023	0.000	21.4	4	1
03/10/06	9:33 p	-15.4	-15.4	-15.4	---	---	19.1	ESE	0.32	26.1	-27.3	---	---	729.3	0.023	0.000	21.4	4	1
03/10/06	9:34 p	-15.4	-15.4	-15.4	---	---	20.9	ESE	0.35	24.3	-27.7	---	---	729.3	0.023	0.000	21.4	4	1
03/10/06	9:35 p	-15.4	-15.4	-15.4	---	---	20.9	SE	0.35	27.0	-27.7	---	---	729.1	0.023	0.000	21.4	4	1
03/10/06	9:36 p	-15.4	-15.4	-15.4	---	---	15.7	ESE	0.26	20.9	-26.3	---	---	729.4	0.023	0.000	21.4	4	1
03/10/06	9:37 p	-15.4	-15.4	-15.4	---	---	15.7	ESE	0.26	21.7	-26.4	---	---	729.5	0.023	0.000	21.4	4	1
03/10/06	9:38 p	-15.5	-15.4	-15.5	---	---	15.7	ESE	0.26	17.4	-26.4	---	---	729.4	0.023	0.000	21.3	4	1
03/10/06	9:39 p	-15.5	-15.5	-15.6	---	---	14.8	E	0.25	17.4	-26.2	---	---	729.3	0.023	0.000	21.3	4	1
03/10/06	9:40 p	-15.6	-15.6	-15.6	---	---	14.8	ESE	0.25	19.1	-26.2	---	---	729.1	0.024	0.000	21.3	4	1
03/10/06	9:41 p	-15.6	-15.6	-15.7	---	---	23.5	SE	0.39	33.0	-28.6	---	---	729.2	0.024	0.000	21.3	4	1
03/10/06	9:42 p	-15.7	-15.6	-15.7	---	---	20.0	SSE	0.33	23.5	-27.9	---	---	729.1	0.024	0.000	21.3	4	1
03/10/06	9:43 p	-15.6	-15.6	-15.6	---	---	18.3	SSE	0.30	20.9	-27.3	---	---	729.3	0.024	0.000	21.3	4	1
03/10/06	9:44 p	-15.6	-15.5	-15.6	---	---	18.3	SE	0.30	20.0	-27.3	---	---	729.2	0.024	0.000	21.3	4	1
03/10/06	9:45 p	-15.5	-15.5	-15.6	---	---	18.3	ESE	0.30	23.5	-27.2	---	---	729.2	0.023	0.000	21.3	4	1
03/10/06	9:46 p	-15.5	-15.5	-15.6	---	---	18.3	E	0.30	21.7	-27.2	---	---	729.0	0.023	0.000	21.3	4	1
03/10/06	9:47 p	-15.6	-15.6	-15.6	---	---	17.4	ENE	0.29	22.6	-27.0	---	---	729.2	0.024	0.000	21.3	4	1
03/10/06	9:48 p	-15.6	-15.6	-15.6	---	---	13.9	E	0.23	18.3	-25.9	---	---	729.2	0.024	0.000	21.3	4	1
03/10/06	9:49 p	-15.6	-15.6	-15.7	---	---	23.5	ESE	0.39	30.4	-28.6	---	---	729.2	0.024	0.000	21.3	4	1
03/10/06	9:50 p	-15.6	-15.6	-15.7	---	---	12.2	ESE	0.20	16.5	-25.4	---	---	729.2	0.024	0.000	21.3	4	1
03/10/06	9:51 p	-15.7	-15.6	-15.7	---	---	13.9	E	0.23	19.1	-26.1	---	---	729.3	0.024	0.000	21.3	4	1
03/10/06	9:52 p	-15.7	-15.7	-15.7	---	---	11.3	E	0.19	13.0	-25.1	---	---	729.3	0.024	0.000	21.3	4	1
03/10/06	9:53 p	-15.7	-15.7	-15.7	---	---	13.0	E	0.22	16.5	-25.8	---	---	729.3	0.024	0.000	21.3	4	1
03/10/06	9:54 p	-15.7	-15.7	-15.7	---	---	13.0	E	0.22	16.5	-25.8	---	---	729.3	0.024	0.000	21.3	4	1
03/10/06	9:55 p	-15.7	-15.7	-15.7	---	---	12.2	E	0.20	14.8	-25.5	---	---	729.3	0.024	0.000	21.3	4	1
03/10/06	9:56 p	-15.7	-15.7	-15.7	---	---	16.5	E	0.28	26.1	-27.0	---	---	729.0	0.024	0.000	21.3	4	1
03/10/06	9:57 p	-15.8	-15.7	-15.8	---	---	19.1	E	0.32	25.2	-27.8	---	---	729.0	0.024	0.000	21.3	4	1
03/10/06	9:58 p	-15.7	-15.7	-15.8	---	---	18.3	E	0.30	23.5	-27.5	---	---	728.9	0.024	0.000	21.3	4	1
03/10/06	9:59 p	-15.7	-15.7	-15.7	---	---	20.0	E	0.33	28.7	-27.9	---	---	729.0	0.024	0.000	21.3	4	1
03/10/06	10:00 p	-15.7	-15.7	-15.7	---	---	15.7	E	0.26	19.1	-26.7	---	---	729.0	0.024	0.000	21.3	4	1
03/10/06	10:01 p	-15.7	-15.7	-15.7	---	---	18.3	E	0.30	25.2	-27.5	---	---	728.9	0.024	0.000	21.3	4	1
03/10/06	10:02 p	-15.7	-15.7	-15.7	---	---	17.4	ESE	0.29	22.6	-27.2	---	---	728.8	0.024	0.000	21.3	4	1
03/10/06	10:03 p	-15.7	-15.7	-15.7	---	---	20.0	ESE	0.33	23.5	-27.9	---	---	728.8	0.024	0.000	21.3	4	1
03/10/06	10:04 p	-15.7	-15.7	-15.7	---	---	20.9	ESE	0.35	25.2	-28.1	---	---	728.6	0.024	0.000	21.3	4	1
03/10/06	10:05 p	-15.7	-15.7	-15.7	---	---	27.0	ESE	0.45	32.2	-29.4	---	---	728.8	0.024	0.000	21.2	4	1
03/10/06	10:06 p	-15.7	-15.7	-15.7	---	---	26.1	ESE	0.43	28.7	-29.3	---	---	728.7	0.024	0.000	21.2	4	1
03/10/06	10:07 p	-15.7	-15.7	-15.8	---	---	22.6	ESE	0.38	27.0	-28.6	---	---	728.8	0.024	0.000	21.2	4	1
03/10/06	10:08 p	-15.8	-15.8	-15.8	---	---	24.3	ESE	0.41	28.7	-29.0	---	---	728.8	0.024	0.000	21.2	4	1
03/10/06	10:09 p	-15.7	-15.7	-15.8	---	---	20.0	ESE	0.33	23.5	-27.9	---	---	728.9	0.024	0.000	21.2	4	1
03/10/06	10:10 p	-15.7	-15.7	-15.7	---	---	21.7	ESE	0.36	24.3	-28.3	---	---	728.8	0.024	0.000	21.2	4	1
03/10/06	10:11 p	-15.7	-15.7	-15.7	---	---	21.7	ESE	0.36	25.2	-28.3	---	---	728.8	0.024	0.000	21.2	4	1
03/10/06	10:12 p	-15.7	-15.7	-15.8	---	---	25.2	ESE	0.42	29.6	-29.1	---	---	728.5	0.024	0.000	21.2	4	1
03/10/06	10:13 p	-15.7	-15.7	-15.7	---	---	28.7	ESE	0.48	30.4	-29.8	---	---	728.7	0.024	0.000	21.2	4	1
03/10/06	10:14 p	-15.8	-15.7	-15.8	---	---	22.6	ESE	0.38	25.2	-28.6	---	---	728.8	0.024	0.000	21.2	4	1
03/10/06	10:15 p	-15.8	-15.8	-15.8	---	---	25.2	ESE	0.42	33.0	-29.3	---	---	728.7	0.024	0.000	21.2	4	1
03/10/06	10:16 p	-15.8	-15.8	-15.8	---	---	25.2	ESE	0.42	27.8	-29.2	---	---	728.7	0.024	0.000	21.2	4	1
03/10/06	10:17 p	-15.8	-15.8	-15.8	---	---	26.1	ESE	0.43	28.7	-29.4	---	---	728.6	0.024	0.000	21.2	4	1
03/10/06	10:18 p	-15.8	-15.8	-15.8	---	---	27.0	ESE	0.45	33.9	-29.6	---	---	728.9	0.024	0.000	21.2	4	1
03/10/06	10:19 p	-15.8	-15.7	-15.8	---	---	21.7	ESE	0.36	26.1	-28.4	---	---	728.7	0.024	0.000	21.2	4	1
03/10/06	10:20 p	-15.8	-15.8	-15.8	---	---	20.9	E	0.35	25.2	-28.2	---	---	728.7	0.024	0.000	21.2	4	1
03/10/06	10:21 p	-15.8	-15.8	-15.8	---	---	24.3	ESE	0.41	32.2	-29.0	---	---	728.7	0.024	0.000	21.2	4	1
03/10/06	10:22 p	-15.7	-15.7	-15.8	---	---	24.3	ESE	0.41	28.7	-28.9	---	---	728.6	0.024	0.000	21.2	4	1
03/10/06	10:23 p	-15.7	-15.7	-15.7	---	---	24.3	ESE	0.41	27.0	-28.9	---	---	728.7	0.024	0.000	21.2	4	1
03/10/06	10:24 p	-15.7	-15.7	-15.7	---	---	27.0	ESE	0.45	30.4	-29.4	---	---	728.6	0.024	0.000	21.2	4	1
03/10/06	10:25 p	-15.7	-15.7	-15.7	---	---	26.1	ESE	0.43	29.6	-29.2	---	---	728.8	0.024	0.000	21.2	4	1
03/10/06	10:26 p	-15.7	-15.7	-15.7	---	---	21.7	ESE	0.36	26.1	-28.3	---	---	728.8	0.024	0.000	21.2	4	1
03/10/06	10:27 p	-15.7	-15.7	-15.8	---	---	23.5	ESE	0.39	26.1	-28.8	---	---	728.6	0.024	0.000	21.2	4	1
03/10/06	10:28 p	-15.7	-15.7	-15.7	---	---	22.6	E	0.38	27.8	-28.6	---	---	728.7	0.024	0.000	21.2	4	1
03/10/06	10:29 p	-15.7	-15.7	-15.7	---	---	20.0	E	0.33	24.3	-27.9	---	---	728.7	0.024	0.000	21.2	4	1
03/10/06	10:30 p	-15.7	-15.7	-15.7	---	---	19.1	E	0.32	26.1	-27.7	---	---	728.9	0.024	0.000	21.2	3	1
03/10/06	10:31 p	-15.7	-15.7	-15.7	---	---	23.5	ESE	0.39	27.8	-28.7	---	---	728.8	0.024	0.000	21.2	4	1
03/10/06	10:32 p	-15.7	-15.7	-15.7	---	---	20.9	E	0.35	30.4	-28.1	---	---	728.6	0.024	0.000	21.1	3	1
03/10/06	10:33 p	-15.7	-15.6	-15.7	---	---	20.0	E	0.33	24.3	-27.9	---	---	728.7	0.024	0.000	21.2	3	1
03/10/06	10:34 p	-15.6	-15.6	-15.7	---	---	19.1	E	0.32	27.0	-27.6	---	---	728.6	0.024	0.000	21.1	4	1
03/10/06	10:35 p	-15.6	-15.6	-15.7	---	---	24.3	ESE	0.41	27.0	-28.8	---	---	728.5	0.024	0.000	21.1	3	1
03/10/06	10:36 p	-15.7	-15.6	-15.7	---	---	24.3	SE	0.41	26.1	-28.9	---	---	728.6	0.024	0.000	21.1	3	1
03/10/06	10:37 p	-15.6	-15.6	-15.6	---	---	22.6	ESE	0.38	24.3	-28.4	---	---	728.7	0.024	0.000	21.1	3	1
03/10/06	10:38 p	-15.6	-15.6	-15.6	---	---	20.9	E	0.35	26.1	-27.9	---	---	728.5	0.024	0.000	21.1	3	1
03/10/06	10:39 p	-15.6	-15.6	-15.6	---	---	21.7	E	0.36	25.2	-28.1	---	---	728.4	0.024	0.000	21.1	4	1
03/10/06	10:40 p	-15.6	-15.6	-15.6	---	---	21.7	E	0.36	27.0	-28.1	---	---	728.6	0.024	0.000	21.1	3	1
03/10/06	10:41 p	-15.6	-15.6	-15.6	---	---	22.6	ESE	0.38	32.2	-28.3	---	---	728.4	0.024	0.000	21.1	3	1
03/10/06	10:42 p	-15.6	-15.6	-15.6	---	---	27.0	E	0.45	31.3	-29.2	---	---	728.5	0.024	0.000	21.1	3	1
03/10/06	10:43 p	-15.6	-15.6	-15.7	---	---	24.3	E	0.41	26.1	-28.8	---	---	728.6	0.024	0.000	21.1	3	1
03/10/06	10:44 p	-15.7	-15.7	-15.7	---	---	22.6	E	0.38	26.1	-28.5	---	---	728.6	0.024	0.000	21.1	4	1
03/10/06	10:45 p	-15.7	-15.7	-15.7	---	---	20.9	E	0.35	26.1	-28.1	---	---	728.6	0.024	0.000	21.1	3	1
03/10/06	10:46 p	-15.7	-15.7	-15.7	---	---	20.9	E	0.35	24.3	-28.1	---	---	728.8	0.024	0.000	21.1	3	1
03/10/06	10:47 p	-15.7	-15.7	-15.7	---	---	20.9	E	0.35	25.2	-28.2	---	---	728.6	0.024	0.000	21.1	3	1
03/10/06	10:48 p	-15.7	-15.7	-15.7	---	---	20.9	E	0.35	25.2	-28.2	---	---	728.5	0.024	0.000	21.1	3	1
03/10/06	10:49 p	-15.7	-15.7	-15.8	---	---	19.1	E	0.32	22.6	-27.7	---	---	728.7	0.024	0.000	21.1	3	1
03/10/06	10:50 p	-15.7	-15.7	-15.8	---	---	18.3	E	0.30	24.3	-27.5	---	---	728.8	0.024	0.000	21.1	3	1
03/10/06	10:51 p	-15.7	-15.7	-15.7	---	---	16.5	E	0.28	20.9	-27.0	---	---	728.8	0.024	0.000	21.1	3	1
03/10/06	10:52 p	-15.7	-15.7	-15.7	---	---	20.0	E	0.33	26.1	-27.9	---	---	728.6	0.024	0.000	21.1	4	1
03/10/06	10:53 p	-15.7	-15.7	-15.7	---	---	21.7	E	0.36	27.8	-28.3	---	---	728.6	0.024	0.000	21.1	3	1
03/10/06	10:54 p	-15.7	-15.7	-15.7	---	---	20.9	E	0.35	24.3	-28.2	---	---	728.7	0.024	0.000	21.1	4	1
03/10/06	10:55 p	-15.7	-15.7	-15.7	---	---	20.0	E	0.33	22.6	-27.9	---	---	728.8	0.024	0.000	21.1	3	1
03/10/06	10:56 p	-15.7	-15.7	-15.7	---	---	20.9	E	0.35	24.3	-28.1	---	---	728.8	0.024	0.000	21.1	3	1
03/10/06	10:57 p	-15.7	-15.7	-15.7	---	---	19.1	E	0.32	21.7	-27.7	---	---	728.7	0.024	0.000	21.1	3	1
03/10/06	10:58 p	-15.7	-15.7	-15.7	---	---	17.4	E	0.29	21.7	-27.2	---	---	728.8	0.024	0.000	21.1	3	1
03/10/06	10:59 p	-15.7	-15.7	-15.7	---	---	17.4	E	0.29	20.9	-27.2	---	---	728.8	0.024	0.000	21.1	3	1
03/10/06	11:00 p	-15.7	-15.7	-15.7	---	---	19.1	E	0.32	21.7	-27.7	---	---	728.8	0.024	0.000	21.1	3	1
03/10/06	11:01 p	-15.7	-15.6	-15.7	---	---	18.3	E	0.30	22.6	-27.4	---	---	728.8	0.024	0.000	21.1	3	1
03/10/06	11:02 p	-15.7	-15.6	-15.7	---	---	18.3	E	0.30	22.6	-27.4	---	---	728.9	0.024	0.000	21.1	3	1
03/10/06	11:03 p	-15.6	-15.6	-15.7	---	---	20.9	E	0.35	33.9	-28.0	---	---	728.6	0.024	0.000	21.1	3	1
03/10/06	11:04 p	-15.6	-15.6	-15.7	---	---	21.7	ENE	0.36	28.7	-28.2	---	---	728.6	0.024	0.000	21.1	3	1
03/10/06	11:05 p	-15.6	-15.6	-15.6	---	---	21.7	ENE	0.36	25.2	-28.2	---	---	728.9	0.024	0.000	21.1	3	1
03/10/06	11:06 p	-15.6	-15.6	-15.6	---	---	15.7	E	0.26	21.7	-26.6	---	---	728.9	0.024	0.000	21.1	3	1
03/10/06	11:07 p	-15.6	-15.6	-15.6	---	---	16.5	E	0.28	20.9	-26.8	---	---	728.9	0.024	0.000	21.1	3	1
03/10/06	11:08 p	-15.6	-15.6	-15.6	---	---	18.3	ESE	0.30	24.3	-27.3	---	---	728.8	0.024	0.000	21.1	3	1
03/10/06	11:09 p	-15.6	-15.6	-15.6	---	---	16.5	E	0.28	25.2	-26.8	---	---	728.7	0.024	0.000	21.1	3	1
03/10/06	11:10 p	-15.5	-15.5	-15.6	---	---	17.4	ESE	0.29	21.7	-26.9	---	---	728.8	0.023	0.000	21.1	3	1
03/10/06	11:11 p	-15.4	-15.4	-15.5	---	---	17.4	SSE	0.29	20.0	-26.9	---	---	728.9	0.023	0.000	21.1	3	1
03/10/06	11:12 p	-15.4	-15.4	-15.4	---	---	21.7	SSE	0.36	26.1	-27.9	---	---	728.9	0.023	0.000	21.1	3	1
03/10/06	11:13 p	-15.3	-15.2	-15.3	---	---	22.6	SSE	0.38	26.1	-27.9	---	---	728.9	0.023	0.000	21.1	3	1
03/10/06	11:14 p	-15.2	-15.1	-15.2	---	---	19.1	SSE	0.32	21.7	-27.0	---	---	728.9	0.023	0.000	21.1	3	1
03/10/06	11:15 p	-15.0	-14.9	-15.1	---	---	24.3	SSE	0.41	31.3	-27.9	---	---	728.8	0.023	0.000	21.1	3	1
03/10/06	11:16 p	-14.9	-14.8	-14.9	---	---	22.6	SSE	0.38	26.1	-27.4	---	---	728.7	0.023	0.000	21.1	3	1
03/10/06	11:17 p	-14.8	-14.8	-14.8	---	---	25.2	SSE	0.42	29.6	-27.9	---	---	728.9	0.023	0.000	21.1	3	1
03/10/06	11:18 p	-14.7	-14.7	-14.8	---	---	19.1	SSE	0.32	21.7	-26.4	---	---	729.1	0.023	0.000	21.1	3	1
03/10/06	11:19 p	-14.6	-14.6	-14.7	---	---	17.4	S	0.29	20.0	-25.8	---	---	729.0	0.023	0.000	21.1	3	1
03/10/06	11:20 p	-14.6	-14.6	-14.6	---	---	20.0	SSE	0.33	22.6	-26.4	---	---	729.1	0.023	0.000	21.1	3	1
03/10/06	11:21 p	-14.5	-14.5	-14.6	---	---	16.5	S	0.28	20.0	-25.4	---	---	729.1	0.023	0.000	21.1	3	1
03/10/06	11:22 p	-14.5	-14.5	-14.5	---	---	21.7	S	0.36	27.8	-26.7	---	---	728.9	0.023	0.000	21.1	3	1
03/10/06	11:23 p	-14.5	-14.5	-14.5	---	---	25.2	SSE	0.42	27.8	-27.4	---	---	729.0	0.023	0.000	21.1	3	1
03/10/06	11:24 p	-14.5	-14.5	-14.6	---	---	25.2	S	0.42	28.7	-27.4	---	---	729.0	0.023	0.000	21.1	3	1
03/10/06	11:25 p	-14.5	-14.5	-14.5	---	---	24.3	S	0.41	29.6	-27.3	---	---	729.0	0.023	0.000	21.1	3	1
03/10/06	11:26 p	-14.5	-14.5	-14.5	---	---	20.9	S	0.35	24.3	-26.5	---	---	729.1	0.023	0.000	21.1	3	1
03/10/06	11:27 p	-14.5	-14.5	-14.6	---	---	18.3	S	0.30	21.7	-25.9	---	---	729.1	0.023	0.000	21.1	3	1
03/10/06	11:28 p	-14.6	-14.5	-14.6	---	---	23.5	S	0.39	27.0	-27.2	---	---	729.1	0.023	0.000	21.1	4	1
03/10/06	11:29 p	-14.6	-14.6	-14.6	---	---	21.7	S	0.36	23.5	-26.8	---	---	729.1	0.023	0.000	21.1	3	1
03/10/06	11:30 p	-14.6	-14.6	-14.6	---	---	20.9	S	0.35	24.3	-26.6	---	---	729.1	0.023	0.000	21.1	3	1
03/10/06	11:31 p	-14.6	-14.6	-14.6	---	---	21.7	S	0.36	26.1	-26.9	---	---	729.0	0.023	0.000	21.1	3	1
03/10/06	11:32 p	-14.6	-14.6	-14.7	---	---	25.2	SSE	0.42	33.9	-27.6	---	---	728.7	0.023	0.000	21.1	3	1
03/10/06	11:33 p	-14.7	-14.6	-14.7	---	---	25.2	S	0.42	29.6	-27.7	---	---	729.0	0.023	0.000	21.1	3	1
03/10/06	11:34 p	-14.7	-14.7	-14.7	---	---	22.6	SSE	0.38	28.7	-27.2	---	---	729.0	0.023	0.000	21.1	3	1
03/10/06	11:35 p	-14.7	-14.7	-14.7	---	---	25.2	SSE	0.42	29.6	-27.7	---	---	728.9	0.023	0.000	21.1	3	1
03/10/06	11:36 p	-14.7	-14.7	-14.8	---	---	25.2	SSE	0.42	29.6	-27.8	---	---	728.9	0.023	0.000	21.1	3	1
03/10/06	11:37 p	-14.8	-14.8	-14.8	---	---	22.6	SE	0.38	25.2	-27.3	---	---	728.9	0.023	0.000	21.1	3	1
03/10/06	11:38 p	-14.8	-14.8	-14.8	---	---	21.7	SE	0.36	25.2	-27.2	---	---	728.9	0.023	0.000	21.1	3	1
03/10/06	11:39 p	-14.8	-14.8	-14.8	---	---	20.0	SE	0.33	22.6	-26.7	---	---	728.9	0.023	0.000	21.1	3	1
03/10/06	11:40 p	-14.8	-14.8	-14.8	---	---	20.0	SE	0.33	23.5	-26.7	---	---	728.9	0.023	0.000	21.1	3	1
03/10/06	11:41 p	-14.8	-14.8	-14.8	---	---	18.3	SE	0.30	20.0	-26.3	---	---	728.9	0.023	0.000	21.1	3	1
03/10/06	11:42 p	-14.8	-14.8	-14.8	---	---	22.6	SE	0.38	27.0	-27.4	---	---	728.7	0.023	0.000	21.1	3	1
03/10/06	11:43 p	-14.8	-14.8	-14.8	---	---	23.5	ESE	0.39	25.2	-27.6	---	---	728.6	0.023	0.000	21.1	3	1
03/10/06	11:44 p	-14.8	-14.8	-14.8	---	---	20.9	ESE	0.35	24.3	-26.9	---	---	728.9	0.023	0.000	21.1	3	1
03/10/06	11:45 p	-14.8	-14.8	-14.9	---	---	20.0	ESE	0.33	21.7	-26.8	---	---	728.8	0.023	0.000	21.1	3	1
03/10/06	11:46 p	-14.9	-14.9	-14.9	---	---	20.0	SE	0.33	23.5	-26.8	---	---	728.9	0.023	0.000	21.1	3	1
03/10/06	11:47 p	-14.9	-14.9	-14.9	---	---	19.1	SE	0.32	22.6	-26.6	---	---	728.9	0.023	0.000	21.1	3	1
03/10/06	11:48 p	-14.9	-14.9	-14.9	---	---	19.1	SE	0.32	20.9	-26.7	---	---	728.9	0.023	0.000	21.1	3	1
03/10/06	11:49 p	-14.9	-14.9	-15.0	---	---	18.3	SE	0.30	20.0	-26.4	---	---	728.9	0.023	0.000	21.1	3	1
03/10/06	11:50 p	-14.9	-14.9	-14.9	---	---	17.4	SE	0.29	21.7	-26.2	---	---	729.0	0.023	0.000	21.1	3	1
03/10/06	11:51 p	-15.0	-15.0	-15.1	---	---	17.4	ESE	0.29	20.9	-26.3	---	---	729.0	0.023	0.000	21.1	3	1
03/10/06	11:52 p	-15.0	-15.0	-15.1	---	---	16.5	ESE	0.28	18.3	-26.1	---	---	729.0	0.023	0.000	21.1	3	1
03/10/06	11:53 p	-15.1	-15.0	-15.1	---	---	17.4	ESE	0.29	20.9	-26.4	---	---	729.0	0.023	0.000	21.1	3	1
03/10/06	11:54 p	-15.1	-15.1	-15.1	---	---	16.5	ESE	0.28	19.1	-26.1	---	---	728.9	0.023	0.000	21.1	3	1
03/10/06	11:55 p	-15.1	-15.1	-15.1	---	---	16.5	ESE	0.28	19.1	-26.2	---	---	728.9	0.023	0.000	21.1	3	1
03/10/06	11:56 p	-15.1	-15.1	-15.1	---	---	18.3	ESE	0.30	20.9	-26.7	---	---	728.9	0.023	0.000	21.1	3	1
03/10/06	11:57 p	-15.1	-15.1	-15.1	---	---	17.4	ESE	0.29	18.3	-26.4	---	---	728.9	0.023	0.000	21.1	3	1
03/10/06	11:58 p	-15.1	-15.1	-15.1	---	---	17.4	SE	0.29	21.7	-26.4	---	---	728.9	0.023	0.000	21.1	3	1
03/10/06	11:59 p	-15.2	-15.2	-15.2	---	---	18.3	ESE	0.30	21.7	-26.8	---	---	728.9	0.023	0.000	21.1	3	1
03/11/06	12:00 a	-15.2	-15.2	-15.2	---	---	18.3	ESE	0.30	19.1	-26.8	---	---	728.9	0.023	0.000	21.1	3	1
03/11/06	12:01 a	-15.2	-15.2	-15.2	---	---	17.4	SE	0.29	18.3	-26.5	---	---	728.9	0.023	0.000	21.1	3	1
03/11/06	12:02 a	-15.2	-15.2	-15.2	---	---	19.1	ESE	0.32	21.7	-27.0	---	---	728.9	0.023	0.000	21.0	3	1
03/11/06	12:03 a	-15.2	-15.2	-15.2	---	---	18.3	ESE	0.30	20.9	-26.8	---	---	728.9	0.023	0.000	21.0	3	1
03/11/06	12:04 a	-15.2	-15.2	-15.2	---	---	20.0	SE	0.33	20.9	-27.2	---	---	728.9	0.023	0.000	21.0	3	1
03/11/06	12:05 a	-15.2	-15.2	-15.2	---	---	17.4	ESE	0.29	20.0	-26.5	---	---	728.9	0.023	0.000	21.0	3	1
03/11/06	12:06 a	-15.2	-15.2	-15.2	---	---	18.3	ESE	0.30	20.0	-26.8	---	---	728.8	0.023	0.000	21.0	3	1
03/11/06	12:07 a	-15.2	-15.2	-15.2	---	---	18.3	ESE	0.30	20.9	-26.8	---	---	728.8	0.023	0.000	21.0	3	1
03/11/06	12:08 a	-15.2	-15.2	-15.2	---	---	19.1	ESE	0.32	20.0	-27.0	---	---	728.8	0.023	0.000	21.0	3	1
03/11/06	12:09 a	-15.2	-15.2	-15.2	---	---	19.1	ESE	0.32	20.9	-27.0	---	---	728.8	0.023	0.000	21.0	3	1
03/11/06	12:10 a	-15.2	-15.2	-15.2	---	---	20.9	ESE	0.35	21.7	-27.4	---	---	728.6	0.023	0.000	21.0	3	1
03/11/06	12:11 a	-15.2	-15.2	-15.2	---	---	21.7	ESE	0.36	23.5	-27.6	---	---	728.7	0.023	0.000	21.0	3	1
03/11/06	12:12 a	-15.2	-15.2	-15.2	---	---	21.7	ESE	0.36	22.6	-27.7	---	---	728.6	0.023	0.000	21.0	3	1
03/11/06	12:13 a	-15.3	-15.2	-15.3	---	---	22.6	ESE	0.38	26.1	-27.9	---	---	728.5	0.023	0.000	21.0	3	1
03/11/06	12:14 a	-15.3	-15.2	-15.3	---	---	21.7	ESE	0.36	24.3	-27.8	---	---	728.5	0.023	0.000	21.0	3	1
03/11/06	12:15 a	-15.3	-15.3	-15.3	---	---	22.6	ESE	0.38	24.3	-27.9	---	---	728.5	0.023	0.000	21.0	3	1
03/11/06	12:16 a	-15.3	-15.3	-15.3	---	---	21.7	ESE	0.36	24.3	-27.8	---	---	728.4	0.023	0.000	21.0	3	1
03/11/06	12:17 a	-15.3	-15.3	-15.3	---	---	22.6	E	0.38	24.3	-27.9	---	---	728.3	0.023	0.000	21.0	3	1
03/11/06	12:18 a	-15.3	-15.3	-15.3	---	---	22.6	E	0.38	26.1	-28.1	---	---	728.4	0.023	0.000	21.0	3	1
03/11/06	12:19 a	-15.3	-15.3	-15.3	---	---	20.0	E	0.33	23.5	-27.4	---	---	728.4	0.023	0.000	21.0	3	1
03/11/06	12:20 a	-15.3	-15.3	-15.3	---	---	20.0	E	0.33	24.3	-27.4	---	---	728.4	0.023	0.000	21.0	3	1
03/11/06	12:21 a	-15.3	-15.3	-15.3	---	---	18.3	E	0.30	20.9	-27.0	---	---	728.4	0.023	0.000	21.0	3	1
03/11/06	12:22 a	-15.3	-15.3	-15.4	---	---	18.3	E	0.30	21.7	-27.0	---	---	728.3	0.023	0.000	21.0	3	1
03/11/06	12:23 a	-15.4	-15.3	-15.4	---	---	19.1	E	0.32	23.5	-27.3	---	---	728.4	0.023	0.000	20.9	3	1
03/11/06	12:24 a	-15.3	-15.3	-15.3	---	---	20.0	E	0.33	22.6	-27.4	---	---	728.5	0.023	0.000	21.0	3	1
03/11/06	12:25 a	-15.3	-15.3	-15.4	---	---	20.0	E	0.33	23.5	-27.4	---	---	728.3	0.023	0.000	21.0	3	1
03/11/06	12:26 a	-15.3	-15.3	-15.4	---	---	20.9	E	0.35	24.3	-27.6	---	---	728.4	0.023	0.000	21.0	3	1
03/11/06	12:27 a	-15.3	-15.3	-15.3	---	---	19.1	E	0.32	23.5	-27.2	---	---	728.4	0.023	0.000	21.0	3	1
03/11/06	12:28 a	-15.3	-15.3	-15.3	---	---	19.1	E	0.32	23.5	-27.2	---	---	728.3	0.023	0.000	21.0	3	1
03/11/06	12:29 a	-15.3	-15.3	-15.3	---	---	24.3	E	0.41	29.6	-28.4	---	---	728.3	0.023	0.000	21.0	3	1
03/11/06	12:30 a	-15.3	-15.3	-15.3	---	---	23.5	ENE	0.39	26.1	-28.2	---	---	728.3	0.023	0.000	21.0	3	1
03/11/06	12:31 a	-15.3	-15.3	-15.4	---	---	23.5	E	0.39	27.8	-28.2	---	---	728.3	0.023	0.000	21.0	3	1
03/11/06	12:32 a	-15.4	-15.4	-15.4	---	---	26.1	ENE	0.43	31.3	-28.8	---	---	728.2	0.023	0.000	21.0	3	1
03/11/06	12:33 a	-15.4	-15.4	-15.4	---	---	24.3	ENE	0.41	28.7	-28.5	---	---	728.2	0.023	0.000	21.0	3	1
03/11/06	12:34 a	-15.4	-15.4	-15.4	---	---	23.5	ENE	0.39	27.8	-28.3	---	---	728.1	0.023	0.000	21.0	3	1
03/11/06	12:35 a	-15.4	-15.4	-15.4	---	---	25.2	E	0.42	29.6	-28.7	---	---	728.2	0.023	0.000	21.0	3	1
03/11/06	12:36 a	-15.4	-15.4	-15.4	---	---	26.1	ENE	0.43	32.2	-28.9	---	---	728.0	0.023	0.000	21.0	3	1
03/11/06	12:37 a	-15.4	-15.4	-15.4	---	---	24.3	E	0.41	32.2	-28.6	---	---	728.1	0.023	0.000	21.0	3	1
03/11/06	12:38 a	-15.4	-15.4	-15.4	---	---	23.5	E	0.39	29.6	-28.4	---	---	728.2	0.023	0.000	21.0	3	1
03/11/06	12:39 a	-15.4	-15.4	-15.5	---	---	20.0	E	0.33	27.0	-27.6	---	---	728.2	0.023	0.000	21.0	3	1
03/11/06	12:40 a	-15.4	-15.4	-15.5	---	---	20.9	E	0.35	27.0	-27.8	---	---	728.1	0.023	0.000	21.0	3	1
03/11/06	12:41 a	-15.4	-15.4	-15.5	---	---	23.5	E	0.39	28.7	-28.4	---	---	728.0	0.023	0.000	21.0	3	1
03/11/06	12:42 a	-15.4	-15.4	-15.4	---	---	19.1	E	0.32	24.3	-27.3	---	---	728.0	0.023	0.000	21.0	3	1
03/11/06	12:43 a	-15.4	-15.4	-15.4	---	---	22.6	E	0.38	26.1	-28.2	---	---	728.0	0.023	0.000	21.0	3	1
03/11/06	12:44 a	-15.4	-15.4	-15.4	---	---	21.7	E	0.36	26.1	-27.9	---	---	728.0	0.023	0.000	21.0	3	1
03/11/06	12:45 a	-15.4	-15.3	-15.4	---	---	20.9	E	0.35	27.0	-27.7	---	---	727.8	0.023	0.000	21.0	3	1
03/11/06	12:46 a	-15.3	-15.3	-15.3	---	---	22.6	E	0.38	25.2	-28.1	---	---	728.1	0.023	0.000	21.0	3	1
03/11/06	12:47 a	-15.3	-15.3	-15.3	---	---	24.3	E	0.41	29.6	-28.3	---	---	727.9	0.023	0.000	21.1	3	1
03/11/06	12:48 a	-15.3	-15.3	-15.3	---	---	23.5	E	0.39	29.6	-28.2	---	---	727.9	0.023	0.000	21.0	3	1
03/11/06	12:49 a	-15.2	-15.2	-15.3	---	---	23.5	E	0.39	31.3	-28.1	---	---	728.0	0.023	0.000	21.0	3	1
03/11/06	12:50 a	-15.2	-15.2	-15.2	---	---	25.2	E	0.42	32.2	-28.4	---	---	728.1	0.023	0.000	21.0	3	1
03/11/06	12:51 a	-15.2	-15.2	-15.2	---	---	20.0	ESE	0.33	25.2	-27.2	---	---	727.9	0.023	0.000	21.0	3	1
03/11/06	12:52 a	-15.1	-15.1	-15.2	---	---	20.0	E	0.33	25.2	-27.1	---	---	728.1	0.023	0.000	21.0	3	1
03/11/06	12:53 a	-15.1	-15.1	-15.1	---	---	22.6	E	0.38	26.1	-27.7	---	---	728.0	0.023	0.000	21.0	3	1
03/11/06	12:54 a	-15.1	-15.1	-15.1	---	---	21.7	E	0.36	25.2	-27.4	---	---	728.0	0.023	0.000	21.0	3	1
03/11/06	12:55 a	-15.1	-15.1	-15.1	---	---	21.7	ESE	0.36	25.2	-27.4	---	---	727.9	0.023	0.000	21.0	3	1
03/11/06	12:56 a	-15.0	-15.0	-15.1	---	---	20.9	E	0.35	24.3	-27.2	---	---	727.8	0.023	0.000	21.1	3	1
03/11/06	12:57 a	-15.0	-15.0	-15.0	---	---	20.9	E	0.35	23.5	-27.2	---	---	727.9	0.023	0.000	21.1	3	1
03/11/06	12:58 a	-14.9	-14.9	-15.0	---	---	23.5	ESE	0.39	25.2	-27.7	---	---	727.8	0.023	0.000	21.0	3	1
03/11/06	12:59 a	-14.9	-14.9	-14.9	---	---	24.3	ESE	0.41	32.2	-27.9	---	---	727.8	0.023	0.000	21.0	3	1
03/11/06	1:00 a	-14.9	-14.9	-14.9	---	---	25.2	ESE	0.42	27.8	-28.0	---	---	727.7	0.023	0.000	21.0	3	1
03/11/06	1:01 a	-14.8	-14.8	-14.9	---	---	23.5	ESE	0.39	27.0	-27.6	---	---	727.8	0.023	0.000	21.0	3	1
03/11/06	1:02 a	-14.8	-14.8	-14.8	---	---	24.3	ESE	0.41	27.8	-27.7	---	---	727.8	0.023	0.000	21.0	3	1
03/11/06	1:03 a	-14.8	-14.8	-14.8	---	---	20.9	ESE	0.35	23.5	-26.9	---	---	727.9	0.023	0.000	21.0	3	1
03/11/06	1:04 a	-14.7	-14.7	-14.8	---	---	23.5	ESE	0.39	29.6	-27.4	---	---	727.8	0.023	0.000	21.0	3	1
03/11/06	1:05 a	-14.7	-14.7	-14.7	---	---	23.5	ESE	0.39	26.1	-27.3	---	---	727.7	0.023	0.000	21.0	3	1
03/11/06	1:06 a	-14.7	-14.7	-14.7	---	---	25.2	ESE	0.42	33.0	-27.7	---	---	727.8	0.023	0.000	21.0	3	1
03/11/06	1:07 a	-14.7	-14.6	-14.7	---	---	22.6	ESE	0.38	25.2	-27.2	---	---	727.8	0.023	0.000	21.0	3	1
03/11/06	1:08 a	-14.6	-14.6	-14.6	---	---	23.5	ESE	0.39	26.1	-27.3	---	---	727.7	0.023	0.000	21.0	3	1
03/11/06	1:09 a	-14.6	-14.6	-14.6	---	---	23.5	ESE	0.39	27.8	-27.3	---	---	727.7	0.023	0.000	21.0	3	1
03/11/06	1:10 a	-14.6	-14.6	-14.6	---	---	25.2	ESE	0.42	27.0	-27.6	---	---	727.7	0.023	0.000	21.0	3	1
03/11/06	1:11 a	-14.6	-14.6	-14.6	---	---	23.5	ESE	0.39	26.1	-27.2	---	---	727.7	0.023	0.000	21.0	3	1
03/11/06	1:12 a	-14.6	-14.6	-14.6	---	---	23.5	ESE	0.39	26.1	-27.2	---	---	727.7	0.023	0.000	20.9	3	1
03/11/06	1:13 a	-14.6	-14.6	-14.6	---	---	24.3	ESE	0.41	26.1	-27.4	---	---	727.7	0.023	0.000	20.9	3	1
03/11/06	1:14 a	-14.6	-14.6	-14.6	---	---	24.3	ESE	0.41	27.0	-27.4	---	---	727.7	0.023	0.000	20.9	3	1
03/11/06	1:15 a	-14.6	-14.5	-14.6	---	---	23.5	ESE	0.39	26.1	-27.2	---	---	727.7	0.023	0.000	20.9	3	1
03/11/06	1:16 a	-14.6	-14.5	-14.6	---	---	23.5	ESE	0.39	27.0	-27.2	---	---	727.8	0.023	0.000	20.9	3	1
03/11/06	1:17 a	-14.5	-14.5	-14.5	---	---	21.7	ESE	0.36	24.3	-26.7	---	---	727.8	0.023	0.000	20.9	3	1
03/11/06	1:18 a	-14.5	-14.5	-14.6	---	---	24.3	ESE	0.41	25.2	-27.3	---	---	727.6	0.023	0.000	20.9	3	1
03/11/06	1:19 a	-14.5	-14.5	-14.5	---	---	22.6	ESE	0.38	25.2	-26.9	---	---	727.7	0.023	0.000	20.9	3	1
03/11/06	1:20 a	-14.4	-14.4	-14.5	---	---	23.5	ESE	0.39	27.8	-27.1	---	---	727.6	0.023	0.000	20.9	3	1
03/11/06	1:21 a	-14.4	-14.4	-14.5	---	---	24.3	ESE	0.41	26.1	-27.2	---	---	727.6	0.023	0.000	20.9	3	1
03/11/06	1:22 a	-14.5	-14.5	-14.5	---	---	23.5	ESE	0.39	25.2	-27.1	---	---	727.5	0.023	0.000	20.9	3	1
03/11/06	1:23 a	-14.5	-14.4	-14.5	---	---	26.1	ESE	0.43	27.8	-27.7	---	---	727.6	0.023	0.000	20.9	3	1
03/11/06	1:24 a	-14.4	-14.4	-14.5	---	---	27.0	ESE	0.45	27.8	-27.7	---	---	727.5	0.023	0.000	20.9	3	1
03/11/06	1:25 a	-14.4	-14.4	-14.4	---	---	27.0	ESE	0.45	28.7	-27.7	---	---	727.6	0.023	0.000	20.9	3	1
03/11/06	1:26 a	-14.4	-14.4	-14.4	---	---	27.0	ESE	0.45	28.7	-27.7	---	---	727.5	0.023	0.000	20.9	3	1
03/11/06	1:27 a	-14.4	-14.4	-14.4	---	---	27.0	ESE	0.45	28.7	-27.7	---	---	727.5	0.023	0.000	20.9	3	1
03/11/06	1:28 a	-14.3	-14.3	-14.4	---	---	26.1	ESE	0.43	28.7	-27.4	---	---	727.6	0.023	0.000	20.9	3	1
03/11/06	1:29 a	-14.3	-14.3	-14.4	---	---	26.1	ESE	0.43	27.8	-27.4	---	---	727.7	0.023	0.000	20.9	3	1
03/11/06	1:30 a	-14.3	-14.3	-14.3	---	---	22.6	E	0.38	26.1	-26.7	---	---	727.6	0.023	0.000	20.9	3	1
03/11/06	1:31 a	-14.3	-14.3	-14.3	---	---	21.7	E	0.36	25.2	-26.5	---	---	727.5	0.023	0.000	20.9	3	1
03/11/06	1:32 a	-14.3	-14.3	-14.3	---	---	22.6	E	0.38	26.1	-26.7	---	---	727.6	0.023	0.000	20.9	3	1
03/11/06	1:33 a	-14.3	-14.3	-14.3	---	---	20.9	E	0.35	24.3	-26.3	---	---	727.6	0.023	0.000	20.9	3	1
03/11/06	1:34 a	-14.3	-14.3	-14.3	---	---	19.1	E	0.32	24.3	-25.8	---	---	727.6	0.023	0.000	20.9	3	1
03/11/06	1:35 a	-14.3	-14.3	-14.3	---	---	20.0	E	0.33	23.5	-26.0	---	---	727.5	0.023	0.000	20.9	3	1
03/11/06	1:36 a	-14.3	-14.2	-14.3	---	---	20.9	E	0.35	27.0	-26.2	---	---	727.6	0.023	0.000	20.9	3	1
03/11/06	1:37 a	-14.3	-14.3	-14.3	---	---	20.0	E	0.33	22.6	-26.0	---	---	727.5	0.023	0.000	20.9	3	1
03/11/06	1:38 a	-14.3	-14.3	-14.3	---	---	19.1	E	0.32	23.5	-25.8	---	---	727.6	0.023	0.000	20.9	3	1
03/11/06	1:39 a	-14.3	-14.3	-14.3	---	---	18.3	E	0.30	22.6	-25.6	---	---	727.6	0.023	0.000	20.9	3	1
03/11/06	1:40 a	-14.3	-14.3	-14.3	---	---	20.0	E	0.33	22.6	-26.0	---	---	727.6	0.023	0.000	20.9	3	1
03/11/06	1:41 a	-14.3	-14.3	-14.3	---	---	20.0	E	0.33	23.5	-26.0	---	---	727.6	0.023	0.000	20.9	3	1
03/11/06	1:42 a	-14.3	-14.3	-14.3	---	---	20.9	E	0.35	23.5	-26.2	---	---	727.6	0.023	0.000	20.9	3	1
03/11/06	1:43 a	-14.3	-14.3	-14.3	---	---	21.7	E	0.36	25.2	-26.5	---	---	727.5	0.023	0.000	20.9	3	1
03/11/06	1:44 a	-14.3	-14.3	-14.3	---	---	19.1	E	0.32	21.7	-25.9	---	---	727.5	0.023	0.000	20.9	3	1
03/11/06	1:45 a	-14.3	-14.3	-14.4	---	---	20.9	E	0.35	24.3	-26.3	---	---	727.6	0.023	0.000	20.9	3	1
03/11/06	1:46 a	-14.3	-14.3	-14.3	---	---	19.1	E	0.32	25.2	-25.9	---	---	727.8	0.023	0.000	20.9	3	1
03/11/06	1:47 a	-14.3	-14.3	-14.3	---	---	17.4	E	0.29	20.9	-25.4	---	---	727.7	0.023	0.000	20.9	3	1
03/11/06	1:48 a	-14.3	-14.3	-14.3	---	---	19.1	E	0.32	24.3	-25.9	---	---	727.5	0.023	0.000	20.9	3	1
03/11/06	1:49 a	-14.3	-14.3	-14.3	---	---	17.4	E	0.29	20.0	-25.4	---	---	727.8	0.023	0.000	20.9	3	1
03/11/06	1:50 a	-14.3	-14.3	-14.3	---	---	19.1	E	0.32	26.1	-25.9	---	---	727.5	0.023	0.000	20.9	3	1
03/11/06	1:51 a	-14.3	-14.3	-14.3	---	---	20.0	E	0.33	25.2	-26.1	---	---	727.7	0.023	0.000	20.9	3	1
03/11/06	1:52 a	-14.3	-14.3	-14.3	---	---	18.3	E	0.30	22.6	-25.7	---	---	727.5	0.023	0.000	20.9	3	1
03/11/06	1:53 a	-14.3	-14.3	-14.3	---	---	20.0	E	0.33	23.5	-26.1	---	---	727.6	0.023	0.000	20.9	3	1
03/11/06	1:54 a	-14.3	-14.3	-14.3	---	---	19.1	E	0.32	20.9	-25.8	---	---	727.7	0.023	0.000	20.9	3	1
03/11/06	1:55 a	-14.3	-14.3	-14.3	---	---	19.1	E	0.32	22.6	-25.9	---	---	727.6	0.023	0.000	20.9	3	1
03/11/06	1:56 a	-14.3	-14.3	-14.3	---	---	18.3	E	0.30	22.6	-25.7	---	---	727.6	0.023	0.000	20.9	3	1
03/11/06	1:57 a	-14.3	-14.3	-14.3	---	---	17.4	E	0.29	20.9	-25.3	---	---	727.8	0.023	0.000	20.9	3	1
03/11/06	1:58 a	-14.3	-14.3	-14.3	---	---	15.7	E	0.26	19.1	-24.8	---	---	727.7	0.023	0.000	20.9	3	1
03/11/06	1:59 a	-14.3	-14.3	-14.3	---	---	17.4	E	0.29	20.0	-25.3	---	---	727.6	0.023	0.000	20.9	3	1
03/11/06	2:00 a	-14.3	-14.3	-14.3	---	---	20.0	E	0.33	23.5	-26.0	---	---	727.7	0.023	0.000	20.9	3	1
03/11/06	2:01 a	-14.3	-14.3	-14.3	---	---	15.7	E	0.26	19.1	-24.8	---	---	727.8	0.023	0.000	20.9	3	1
03/11/06	2:02 a	-14.2	-14.2	-14.3	---	---	16.5	E	0.28	20.0	-25.1	---	---	727.7	0.023	0.000	20.9	3	1
03/11/06	2:03 a	-14.2	-14.2	-14.2	---	---	17.4	E	0.29	20.9	-25.3	---	---	727.8	0.023	0.000	20.9	3	1
03/11/06	2:04 a	-14.2	-14.2	-14.2	---	---	17.4	E	0.29	20.9	-25.3	---	---	727.6	0.023	0.000	20.9	3	1
03/11/06	2:05 a	-14.2	-14.2	-14.2	---	---	18.3	E	0.30	23.5	-25.5	---	---	727.6	0.023	0.000	20.9	3	1
03/11/06	2:06 a	-14.2	-14.2	-14.2	---	---	18.3	E	0.30	21.7	-25.5	---	---	727.6	0.023	0.000	20.9	3	1
03/11/06	2:07 a	-14.2	-14.2	-14.2	---	---	17.4	E	0.29	24.3	-25.2	---	---	727.7	0.023	0.000	20.9	3	1
03/11/06	2:08 a	-14.2	-14.2	-14.2	---	---	14.8	E	0.25	19.1	-24.4	---	---	727.7	0.023	0.000	20.9	3	1
03/11/06	2:09 a	-14.2	-14.2	-14.2	---	---	18.3	E	0.30	23.5	-25.4	---	---	727.6	0.023	0.000	20.9	3	1
03/11/06	2:10 a	-14.2	-14.2	-14.2	---	---	20.0	E	0.33	24.3	-25.9	---	---	727.6	0.023	0.000	20.9	3	1
03/11/06	2:11 a	-14.2	-14.2	-14.2	---	---	17.4	E	0.29	20.9	-25.2	---	---	727.8	0.023	0.000	20.9	3	1
03/11/06	2:12 a	-14.2	-14.1	-14.2	---	---	13.9	E	0.23	16.5	-24.2	---	---	727.9	0.023	0.000	20.9	3	1
03/11/06	2:13 a	-14.1	-14.1	-14.1	---	---	13.9	E	0.23	17.4	-24.1	---	---	727.8	0.023	0.000	20.9	3	1
03/11/06	2:14 a	-14.1	-14.1	-14.1	---	---	15.7	E	0.26	20.0	-24.6	---	---	727.7	0.023	0.000	20.9	3	1
03/11/06	2:15 a	-14.1	-14.1	-14.1	---	---	17.4	E	0.29	20.0	-25.1	---	---	727.7	0.022	0.000	20.9	3	1
03/11/06	2:16 a	-14.1	-14.0	-14.1	---	---	16.5	E	0.28	19.1	-24.8	---	---	727.8	0.022	0.000	20.9	3	1
03/11/06	2:17 a	-14.0	-14.0	-14.1	---	---	13.9	ESE	0.23	17.4	-23.9	---	---	728.0	0.022	0.000	20.9	3	1
03/11/06	2:18 a	-14.0	-14.0	-14.1	---	---	13.9	E	0.23	17.4	-23.9	---	---	727.9	0.022	0.000	20.9	3	1
03/11/06	2:19 a	-14.0	-14.0	-14.0	---	---	15.7	ESE	0.26	17.4	-24.5	---	---	727.9	0.022	0.000	20.9	3	1
03/11/06	2:20 a	-14.0	-14.0	-14.0	---	---	14.8	ESE	0.25	16.5	-24.2	---	---	727.9	0.022	0.000	20.9	3	1
03/11/06	2:21 a	-13.9	-13.9	-14.0	---	---	15.7	ESE	0.26	20.0	-24.4	---	---	727.9	0.022	0.000	20.9	3	1
03/11/06	2:22 a	-13.9	-13.9	-13.9	---	---	13.9	E	0.23	16.5	-23.9	---	---	727.9	0.022	0.000	20.9	3	1
03/11/06	2:23 a	-13.9	-13.9	-13.9	---	---	14.8	E	0.25	19.1	-24.2	---	---	727.9	0.022	0.000	20.9	3	1
03/11/06	2:24 a	-13.9	-13.9	-13.9	---	---	14.8	E	0.25	19.1	-24.1	---	---	727.9	0.022	0.000	20.9	3	1
03/11/06	2:25 a	-13.9	-13.9	-13.9	---	---	13.9	E	0.23	16.5	-23.8	---	---	727.9	0.022	0.000	20.9	3	1
03/11/06	2:26 a	-13.9	-13.8	-13.9	---	---	13.0	E	0.22	16.5	-23.5	---	---	727.9	0.022	0.000	20.9	3	1
03/11/06	2:27 a	-13.8	-13.8	-13.9	---	---	13.0	E	0.22	14.8	-23.4	---	---	727.9	0.022	0.000	20.9	3	1
03/11/06	2:28 a	-13.8	-13.8	-13.9	---	---	15.7	E	0.26	23.5	-24.3	---	---	727.7	0.022	0.000	20.9	3	1
03/11/06	2:29 a	-13.8	-13.8	-13.9	---	---	13.0	E	0.22	16.5	-23.4	---	---	728.0	0.022	0.000	20.9	3	1
03/11/06	2:30 a	-13.8	-13.8	-13.8	---	---	13.9	E	0.23	15.7	-23.7	---	---	728.0	0.022	0.000	20.9	3	1
03/11/06	2:31 a	-13.8	-13.8	-13.8	---	---	9.6	E	0.16	12.2	-22.1	---	---	728.1	0.022	0.000	20.9	3	1
03/11/06	2:32 a	-13.8	-13.8	-13.8	---	---	10.4	E	0.17	13.0	-22.4	---	---	728.0	0.022	0.000	20.9	3	1
03/11/06	2:33 a	-13.8	-13.7	-13.8	---	---	7.0	E	0.12	10.4	-20.7	---	---	728.0	0.022	0.000	20.9	3	1
03/11/06	2:34 a	-13.8	-13.7	-13.8	---	---	13.0	E	0.22	15.7	-23.4	---	---	728.0	0.022	0.000	20.9	3	1
03/11/06	2:35 a	-13.7	-13.7	-13.7	---	---	13.9	E	0.23	18.3	-23.6	---	---	728.1	0.022	0.000	20.9	3	1
03/11/06	2:36 a	-13.7	-13.7	-13.8	---	---	10.4	ESE	0.17	13.0	-22.3	---	---	727.9	0.022	0.000	20.9	3	1
03/11/06	2:37 a	-13.7	-13.7	-13.7	---	---	11.3	E	0.19	13.9	-22.7	---	---	728.0	0.022	0.000	20.9	3	1
03/11/06	2:38 a	-13.7	-13.6	-13.7	---	---	15.7	E	0.26	17.4	-24.1	---	---	728.1	0.022	0.000	20.9	3	1
03/11/06	2:39 a	-13.7	-13.6	-13.7	---	---	11.3	ESE	0.19	15.7	-22.6	---	---	728.1	0.022	0.000	20.9	3	1
03/11/06	2:40 a	-13.7	-13.7	-13.7	---	---	12.2	E	0.20	18.3	-22.9	---	---	728.0	0.022	0.000	20.9	3	1
03/11/06	2:41 a	-13.6	-13.6	-13.6	---	---	11.3	E	0.19	14.8	-22.6	---	---	728.0	0.022	0.000	20.9	3	1
03/11/06	2:42 a	-13.6	-13.6	-13.6	---	---	10.4	E	0.17	12.2	-22.2	---	---	728.0	0.022	0.000	20.9	3	1
03/11/06	2:43 a	-13.6	-13.5	-13.6	---	---	12.2	E	0.20	14.8	-22.8	---	---	728.0	0.022	0.000	20.9	3	1
03/11/06	2:44 a	-13.6	-13.5	-13.6	---	---	12.2	E	0.20	17.4	-22.8	---	---	727.9	0.022	0.000	20.9	3	1
03/11/06	2:45 a	-13.5	-13.5	-13.6	---	---	16.5	E	0.28	18.3	-24.1	---	---	728.1	0.022	0.000	20.9	3	1
03/11/06	2:46 a	-13.4	-13.4	-13.5	---	---	10.4	E	0.17	13.9	-22.0	---	---	728.2	0.022	0.000	20.9	3	1
03/11/06	2:47 a	-13.4	-13.4	-13.5	---	---	9.6	E	0.16	11.3	-21.6	---	---	728.2	0.022	0.000	20.9	3	1
03/11/06	2:48 a	-13.4	-13.4	-13.4	---	---	12.2	ESE	0.20	18.3	-22.7	---	---	728.1	0.022	0.000	20.9	3	1
03/11/06	2:49 a	-13.4	-13.4	-13.4	---	---	9.6	ESE	0.16	19.1	-21.6	---	---	728.1	0.022	0.000	20.9	3	1
03/11/06	2:50 a	-13.4	-13.4	-13.4	---	---	8.7	E	0.14	11.3	-21.1	---	---	728.1	0.022	0.000	20.9	3	1
03/11/06	2:51 a	-13.4	-13.4	-13.4	---	---	13.0	ESE	0.22	14.8	-22.9	---	---	728.1	0.022	0.000	20.9	3	1
03/11/06	2:52 a	-13.3	-13.3	-13.4	---	---	9.6	E	0.16	13.0	-21.4	---	---	728.1	0.022	0.000	21.0	3	1
03/11/06	2:53 a	-13.3	-13.3	-13.4	---	---	8.7	E	0.14	11.3	-21.1	---	---	728.1	0.022	0.000	20.9	3	1
03/11/06	2:54 a	-13.3	-13.3	-13.3	---	---	7.8	E	0.13	11.3	-20.6	---	---	728.1	0.022	0.000	21.0	3	1
03/11/06	2:55 a	-13.3	-13.3	-13.3	---	---	7.0	E	0.12	11.3	-20.1	---	---	728.0	0.022	0.000	20.9	3	1
03/11/06	2:56 a	-13.3	-13.3	-13.3	---	---	7.0	E	0.12	9.6	-20.1	---	---	728.1	0.022	0.000	20.9	3	1
03/11/06	2:57 a	-13.3	-13.3	-13.3	---	---	8.7	ESE	0.14	11.3	-21.0	---	---	728.1	0.022	0.000	20.9	3	1
03/11/06	2:58 a	-13.3	-13.3	-13.3	---	---	8.7	E	0.14	11.3	-21.0	---	---	728.0	0.022	0.000	20.9	3	1
03/11/06	2:59 a	-13.3	-13.2	-13.3	---	---	9.6	ESE	0.16	13.0	-21.4	---	---	728.0	0.022	0.000	20.9	3	1
03/11/06	3:00 a	-13.2	-13.2	-13.3	---	---	10.4	ESE	0.17	13.0	-21.7	---	---	728.1	0.022	0.000	20.9	3	1
03/11/06	3:01 a	-13.2	-13.2	-13.2	---	---	10.4	ESE	0.17	15.7	-21.6	---	---	728.1	0.022	0.000	20.9	3	1
03/11/06	3:02 a	-13.2	-13.2	-13.2	---	---	7.8	E	0.13	12.2	-20.5	---	---	728.0	0.022	0.000	20.9	3	1
03/11/06	3:03 a	-13.2	-13.2	-13.2	---	---	7.0	E	0.12	12.2	-19.9	---	---	728.0	0.022	0.000	21.0	3	1
03/11/06	3:04 a	-13.2	-13.2	-13.2	---	---	12.2	E	0.20	17.4	-22.3	---	---	728.1	0.022	0.000	20.9	3	1
03/11/06	3:05 a	-13.2	-13.2	-13.2	---	---	9.6	E	0.16	11.3	-21.3	---	---	727.9	0.022	0.000	20.9	3	1
03/11/06	3:06 a	-13.2	-13.1	-13.2	---	---	8.7	E	0.14	12.2	-20.8	---	---	727.9	0.022	0.000	20.9	3	1
03/11/06	3:07 a	-13.2	-13.2	-13.2	---	---	9.6	E	0.16	13.9	-21.3	---	---	728.0	0.022	0.000	20.9	3	1
03/11/06	3:08 a	-13.2	-13.2	-13.2	---	---	13.0	E	0.22	16.5	-22.7	---	---	727.9	0.022	0.000	20.9	3	1
03/11/06	3:09 a	-13.2	-13.2	-13.2	---	---	13.9	E	0.23	16.5	-22.9	---	---	727.9	0.022	0.000	20.9	3	1
03/11/06	3:10 a	-13.2	-13.2	-13.2	---	---	13.9	E	0.23	16.5	-22.9	---	---	727.8	0.022	0.000	20.9	3	1
03/11/06	3:11 a	-13.2	-13.2	-13.2	---	---	14.8	E	0.25	18.3	-23.2	---	---	727.8	0.022	0.000	20.9	3	1
03/11/06	3:12 a	-13.2	-13.2	-13.3	---	---	13.9	E	0.23	17.4	-22.9	---	---	727.8	0.022	0.000	20.9	3	1
03/11/06	3:13 a	-13.3	-13.2	-13.3	---	---	13.0	E	0.22	16.5	-22.7	---	---	727.9	0.022	0.000	20.9	3	1
03/11/06	3:14 a	-13.3	-13.2	-13.3	---	---	14.8	ENE	0.25	16.5	-23.3	---	---	727.9	0.022	0.000	20.9	3	1
03/11/06	3:15 a	-13.3	-13.3	-13.3	---	---	13.9	ENE	0.23	17.4	-23.0	---	---	727.8	0.022	0.000	20.9	3	1
03/11/06	3:16 a	-13.3	-13.3	-13.3	---	---	15.7	ENE	0.26	25.2	-23.6	---	---	727.8	0.022	0.000	20.9	3	1
03/11/06	3:17 a	-13.3	-13.3	-13.4	---	---	12.2	E	0.20	16.5	-22.4	---	---	727.9	0.022	0.000	21.0	3	1
03/11/06	3:18 a	-13.3	-13.3	-13.4	---	---	13.9	ENE	0.23	17.4	-23.1	---	---	728.0	0.022	0.000	20.9	3	1
03/11/06	3:19 a	-13.3	-13.3	-13.4	---	---	13.0	E	0.22	14.8	-22.8	---	---	728.0	0.022	0.000	21.0	3	1
03/11/06	3:20 a	-13.4	-13.4	-13.4	---	---	11.3	ENE	0.19	13.9	-22.2	---	---	728.1	0.022	0.000	20.9	3	1
03/11/06	3:21 a	-13.4	-13.4	-13.4	---	---	7.8	E	0.13	11.3	-20.7	---	---	728.0	0.022	0.000	21.0	3	1
03/11/06	3:22 a	-13.4	-13.4	-13.4	---	---	9.6	E	0.16	14.8	-21.6	---	---	728.0	0.022	0.000	20.9	3	1
03/11/06	3:23 a	-13.4	-13.4	-13.4	---	---	10.4	E	0.17	13.0	-21.9	---	---	728.0	0.022	0.000	20.9	3	1
03/11/06	3:24 a	-13.4	-13.4	-13.4	---	---	10.4	ESE	0.17	13.0	-21.9	---	---	728.0	0.022	0.000	20.9	3	1
03/11/06	3:25 a	-13.4	-13.4	-13.4	---	---	13.0	ENE	0.22	14.8	-22.9	---	---	728.1	0.022	0.000	20.9	3	1
03/11/06	3:26 a	-13.4	-13.4	-13.4	---	---	12.2	ENE	0.20	17.4	-22.6	---	---	727.9	0.022	0.000	21.0	3	1
03/11/06	3:27 a	-13.4	-13.4	-13.4	---	---	15.7	ENE	0.26	17.4	-23.7	---	---	727.9	0.022	0.000	20.9	3	1
03/11/06	3:28 a	-13.4	-13.4	-13.4	---	---	13.0	ENE	0.22	15.7	-22.9	---	---	727.9	0.022	0.000	20.9	3	1
03/11/06	3:29 a	-13.4	-13.4	-13.4	---	---	11.3	NE	0.19	13.9	-22.2	---	---	728.0	0.022	0.000	21.0	3	1
03/11/06	3:30 a	-13.4	-13.4	-13.4	---	---	14.8	NE	0.25	18.3	-23.4	---	---	727.9	0.022	0.000	21.0	3	1
03/11/06	3:31 a	-13.4	-13.4	-13.4	---	---	14.8	NE	0.25	15.7	-23.5	---	---	727.8	0.022	0.000	21.0	3	1
03/11/06	3:32 a	-13.4	-13.4	-13.4	---	---	12.2	NE	0.20	16.5	-22.7	---	---	727.8	0.022	0.000	21.0	3	1
03/11/06	3:33 a	-13.4	-13.4	-13.5	---	---	9.6	NE	0.16	13.0	-21.6	---	---	727.8	0.022	0.000	21.0	3	1
03/11/06	3:34 a	-13.5	-13.4	-13.5	---	---	8.7	ENE	0.14	12.2	-21.3	---	---	727.9	0.022	0.000	21.0	3	1
03/11/06	3:35 a	-13.4	-13.4	-13.5	---	---	10.4	ENE	0.17	11.3	-22.0	---	---	727.9	0.022	0.000	21.0	3	1
03/11/06	3:36 a	-13.4	-13.4	-13.5	---	---	6.1	E	0.10	8.7	-19.8	---	---	727.9	0.022	0.000	21.0	3	1
03/11/06	3:37 a	-13.4	-13.4	-13.4	---	---	7.0	ENE	0.12	8.7	-20.3	---	---	727.8	0.022	0.000	21.0	3	1
03/11/06	3:38 a	-13.4	-13.4	-13.4	---	---	7.0	ENE	0.12	10.4	-20.3	---	---	727.9	0.022	0.000	21.0	3	1
03/11/06	3:39 a	-13.4	-13.4	-13.4	---	---	9.6	ENE	0.16	12.2	-21.6	---	---	727.7	0.022	0.000	21.0	3	1
03/11/06	3:40 a	-13.4	-13.4	-13.4	---	---	7.8	ENE	0.13	10.4	-20.7	---	---	727.8	0.022	0.000	21.0	3	1
03/11/06	3:41 a	-13.4	-13.3	-13.4	---	---	8.7	E	0.14	12.2	-21.1	---	---	727.7	0.022	0.000	21.0	3	1
03/11/06	3:42 a	-13.4	-13.4	-13.4	---	---	10.4	ENE	0.17	13.9	-21.9	---	---	727.6	0.022	0.000	21.0	3	1
03/11/06	3:43 a	-13.3	-13.3	-13.4	---	---	7.8	ENE	0.13	10.4	-20.6	---	---	727.7	0.022	0.000	21.0	3	1
03/11/06	3:44 a	-13.3	-13.3	-13.3	---	---	7.8	E	0.13	11.3	-20.6	---	---	727.7	0.022	0.000	21.0	3	1
03/11/06	3:45 a	-13.3	-13.3	-13.3	---	---	7.8	ENE	0.13	9.6	-20.6	---	---	727.6	0.022	0.000	21.0	3	1
03/11/06	3:46 a	-13.3	-13.2	-13.3	---	---	10.4	ESE	0.17	14.8	-21.8	---	---	727.6	0.022	0.000	21.0	3	1
03/11/06	3:47 a	-13.3	-13.2	-13.3	---	---	8.7	ESE	0.14	11.3	-21.0	---	---	727.7	0.022	0.000	21.0	3	1
03/11/06	3:48 a	-13.3	-13.2	-13.3	---	---	10.4	E	0.17	15.7	-21.8	---	---	727.6	0.022	0.000	21.0	3	1
03/11/06	3:49 a	-13.2	-13.2	-13.3	---	---	6.1	E	0.10	10.4	-19.5	---	---	727.6	0.022	0.000	21.0	3	1
03/11/06	3:50 a	-13.2	-13.2	-13.3	---	---	7.8	E	0.13	12.2	-20.5	---	---	727.5	0.022	0.000	21.0	3	1
03/11/06	3:51 a	-13.2	-13.2	-13.2	---	---	7.8	NE	0.13	11.3	-20.5	---	---	727.5	0.022	0.000	21.0	3	1
03/11/06	3:52 a	-13.2	-13.2	-13.2	---	---	7.8	ENE	0.13	10.4	-20.5	---	---	727.4	0.022	0.000	21.0	3	1
03/11/06	3:53 a	-13.2	-13.2	-13.2	---	---	8.7	ENE	0.14	11.3	-20.8	---	---	727.4	0.022	0.000	21.0	3	1
03/11/06	3:54 a	-13.2	-13.2	-13.2	---	---	11.3	ENE	0.19	13.0	-22.1	---	---	727.4	0.022	0.000	21.0	3	1
03/11/06	3:55 a	-13.2	-13.2	-13.2	---	---	9.6	E	0.16	12.2	-21.3	---	---	727.4	0.022	0.000	21.0	3	1
03/11/06	3:56 a	-13.2	-13.2	-13.2	---	---	10.4	E	0.17	14.8	-21.6	---	---	727.4	0.022	0.000	21.0	3	1
03/11/06	3:57 a	-13.2	-13.2	-13.2	---	---	13.9	E	0.23	17.4	-22.9	---	---	727.3	0.022	0.000	21.0	3	1
03/11/06	3:58 a	-13.2	-13.2	-13.2	---	---	12.2	E	0.20	13.9	-22.3	---	---	727.2	0.022	0.000	21.0	3	1
03/11/06	3:59 a	-13.2	-13.2	-13.2	---	---	13.9	ENE	0.23	16.5	-22.9	---	---	727.2	0.022	0.000	21.0	3	1
03/11/06	4:00 a	-13.2	-13.2	-13.2	---	---	13.9	ENE	0.23	18.3	-22.9	---	---	727.3	0.022	0.000	21.0	3	1
03/11/06	4:01 a	-13.2	-13.2	-13.2	---	---	11.3	ENE	0.19	20.9	-22.1	---	---	727.2	0.022	0.000	21.0	3	1
03/11/06	4:02 a	-13.2	-13.2	-13.3	---	---	17.4	ENE	0.29	20.0	-23.9	---	---	727.2	0.022	0.000	21.0	3	1
03/11/06	4:03 a	-13.3	-13.2	-13.3	---	---	10.4	ENE	0.17	14.8	-21.8	---	---	727.3	0.022	0.000	21.0	3	1
03/11/06	4:04 a	-13.3	-13.2	-13.3	---	---	13.9	ENE	0.23	16.5	-23.0	---	---	727.3	0.022	0.000	21.0	3	1
03/11/06	4:05 a	-13.3	-13.2	-13.3	---	---	13.0	ENE	0.22	16.5	-22.7	---	---	727.3	0.022	0.000	21.0	3	1
03/11/06	4:06 a	-13.3	-13.3	-13.3	---	---	12.2	ENE	0.20	15.7	-22.4	---	---	727.3	0.022	0.000	21.0	3	1
03/11/06	4:07 a	-13.3	-13.3	-13.3	---	---	12.2	ENE	0.20	18.3	-22.4	---	---	727.3	0.022	0.000	21.0	3	1
03/11/06	4:08 a	-13.3	-13.3	-13.3	---	---	14.8	ENE	0.25	16.5	-23.4	---	---	727.3	0.022	0.000	21.0	3	1
03/11/06	4:09 a	-13.3	-13.3	-13.3	---	---	14.8	ENE	0.25	17.4	-23.4	---	---	727.3	0.022	0.000	21.0	3	1
03/11/06	4:10 a	-13.3	-13.3	-13.3	---	---	16.5	NE	0.28	19.1	-23.9	---	---	727.2	0.022	0.000	21.0	3	1
03/11/06	4:11 a	-13.4	-13.4	-13.4	---	---	15.7	ENE	0.26	18.3	-23.7	---	---	727.2	0.022	0.000	21.0	3	1
03/11/06	4:12 a	-13.4	-13.4	-13.4	---	---	17.4	ENE	0.29	19.1	-24.2	---	---	727.2	0.022	0.000	21.0	3	1
03/11/06	4:13 a	-13.4	-13.4	-13.4	---	---	15.7	ENE	0.26	18.3	-23.8	---	---	727.3	0.022	0.000	21.0	3	1
03/11/06	4:14 a	-13.4	-13.4	-13.4	---	---	15.7	ENE	0.26	16.5	-23.8	---	---	727.2	0.022	0.000	21.0	3	1
03/11/06	4:15 a	-13.4	-13.4	-13.5	---	---	16.5	ENE	0.28	18.3	-24.0	---	---	727.1	0.022	0.000	21.0	3	1
03/11/06	4:16 a	-13.5	-13.5	-13.5	---	---	15.7	ENE	0.26	18.3	-23.8	---	---	727.0	0.022	0.000	21.0	3	1
03/11/06	4:17 a	-13.5	-13.5	-13.6	---	---	17.4	ENE	0.29	19.1	-24.3	---	---	727.1	0.022	0.000	21.0	3	1
03/11/06	4:18 a	-13.5	-13.5	-13.6	---	---	17.4	ENE	0.29	19.1	-24.3	---	---	727.1	0.022	0.000	21.0	3	1
03/11/06	4:19 a	-13.6	-13.6	-13.6	---	---	17.4	ENE	0.29	19.1	-24.4	---	---	726.9	0.022	0.000	21.0	3	1
03/11/06	4:20 a	-13.6	-13.6	-13.6	---	---	15.7	ENE	0.26	18.3	-24.0	---	---	727.1	0.022	0.000	21.0	3	1
03/11/06	4:21 a	-13.6	-13.6	-13.6	---	---	15.7	ENE	0.26	16.5	-24.0	---	---	727.0	0.022	0.000	21.0	3	1
03/11/06	4:22 a	-13.6	-13.6	-13.6	---	---	15.7	ENE	0.26	18.3	-24.0	---	---	726.9	0.022	0.000	21.0	3	1
03/11/06	4:23 a	-13.6	-13.6	-13.7	---	---	15.7	ENE	0.26	18.3	-24.0	---	---	727.0	0.022	0.000	21.0	3	1
03/11/06	4:24 a	-13.6	-13.6	-13.6	---	---	13.0	ENE	0.22	14.8	-23.2	---	---	727.1	0.022	0.000	21.0	3	1
03/11/06	4:25 a	-13.6	-13.6	-13.7	---	---	13.0	ENE	0.22	14.8	-23.2	---	---	727.0	0.022	0.000	21.0	3	1
03/11/06	4:26 a	-13.7	-13.6	-13.7	---	---	16.5	ENE	0.28	17.4	-24.3	---	---	726.9	0.022	0.000	21.0	3	1
03/11/06	4:27 a	-13.7	-13.7	-13.7	---	---	16.5	NE	0.28	19.1	-24.3	---	---	726.9	0.022	0.000	21.0	3	1
03/11/06	4:28 a	-13.7	-13.6	-13.7	---	---	14.8	NE	0.25	16.5	-23.8	---	---	727.0	0.022	0.000	21.0	3	1
03/11/06	4:29 a	-13.7	-13.7	-13.7	---	---	15.7	NE	0.26	20.9	-24.1	---	---	726.9	0.022	0.000	21.0	3	1
03/11/06	4:30 a	-13.7	-13.7	-13.7	---	---	17.4	NE	0.29	19.1	-24.6	---	---	726.9	0.022	0.000	21.0	3	1
03/11/06	4:31 a	-13.7	-13.7	-13.7	---	---	14.8	NE	0.25	16.5	-23.9	---	---	726.9	0.022	0.000	21.0	3	1
03/11/06	4:32 a	-13.7	-13.7	-13.7	---	---	13.0	ENE	0.22	13.9	-23.3	---	---	727.0	0.022	0.000	21.0	3	1
03/11/06	4:33 a	-13.7	-13.7	-13.7	---	---	14.8	ENE	0.25	16.5	-23.9	---	---	727.0	0.022	0.000	21.0	3	1
03/11/06	4:34 a	-13.7	-13.7	-13.7	---	---	14.8	ENE	0.25	16.5	-23.9	---	---	726.9	0.022	0.000	21.1	3	1
03/11/06	4:35 a	-13.7	-13.7	-13.7	---	---	14.8	ENE	0.25	16.5	-23.9	---	---	726.9	0.022	0.000	21.1	3	1
03/11/06	4:36 a	-13.7	-13.7	-13.7	---	---	14.8	ENE	0.25	15.7	-23.9	---	---	726.9	0.022	0.000	21.1	3	1
03/11/06	4:37 a	-13.7	-13.7	-13.7	---	---	13.9	ENE	0.23	16.5	-23.5	---	---	727.0	0.022	0.000	21.1	3	1
03/11/06	4:38 a	-13.7	-13.7	-13.7	---	---	13.9	ENE	0.23	15.7	-23.6	---	---	726.9	0.022	0.000	21.1	3	1
03/11/06	4:39 a	-13.7	-13.7	-13.7	---	---	14.8	ENE	0.25	16.5	-23.9	---	---	726.9	0.022	0.000	21.1	3	1
03/11/06	4:40 a	-13.7	-13.7	-13.7	---	---	13.9	ENE	0.23	14.8	-23.5	---	---	727.0	0.022	0.000	21.1	3	1
03/11/06	4:41 a	-13.7	-13.7	-13.7	---	---	13.9	ENE	0.23	15.7	-23.5	---	---	727.0	0.022	0.000	21.1	3	1
03/11/06	4:42 a	-13.7	-13.7	-13.7	---	---	13.9	ENE	0.23	14.8	-23.5	---	---	727.0	0.022	0.000	21.1	3	1
03/11/06	4:43 a	-13.7	-13.6	-13.7	---	---	12.2	ENE	0.20	13.9	-22.9	---	---	727.1	0.022	0.000	21.1	3	1
03/11/06	4:44 a	-13.6	-13.6	-13.7	---	---	9.6	E	0.16	11.3	-21.8	---	---	727.1	0.022	0.000	21.1	3	1
03/11/06	4:45 a	-13.6	-13.6	-13.7	---	---	8.7	E	0.14	11.3	-21.4	---	---	727.0	0.022	0.000	21.1	3	1
03/11/06	4:46 a	-13.7	-13.6	-13.7	---	---	8.7	E	0.14	10.4	-21.5	---	---	727.0	0.022	0.000	21.1	3	1
03/11/06	4:47 a	-13.6	-13.6	-13.6	---	---	10.4	ENE	0.17	13.0	-22.2	---	---	726.9	0.022	0.000	21.1	3	1
03/11/06	4:48 a	-13.6	-13.6	-13.6	---	---	12.2	ENE	0.20	13.0	-22.8	---	---	726.9	0.022	0.000	21.1	3	1
03/11/06	4:49 a	-13.6	-13.6	-13.6	---	---	10.4	ENE	0.17	12.2	-22.2	---	---	726.9	0.022	0.000	21.1	3	1
03/11/06	4:50 a	-13.6	-13.6	-13.6	---	---	10.4	ENE	0.17	11.3	-22.2	---	---	726.9	0.022	0.000	21.1	3	1
03/11/06	4:51 a	-13.6	-13.6	-13.6	---	---	11.3	ENE	0.19	13.0	-22.4	---	---	726.9	0.022	0.000	21.1	3	1
03/11/06	4:52 a	-13.6	-13.5	-13.6	---	---	12.2	NE	0.20	13.0	-22.8	---	---	726.9	0.022	0.000	21.1	3	1
03/11/06	4:53 a	-13.6	-13.5	-13.6	---	---	13.0	ENE	0.22	14.8	-23.1	---	---	726.8	0.022	0.000	21.1	3	1
03/11/06	4:54 a	-13.5	-13.5	-13.6	---	---	12.2	ENE	0.20	13.9	-22.7	---	---	726.8	0.022	0.000	21.1	3	1
03/11/06	4:55 a	-13.5	-13.5	-13.6	---	---	11.3	ENE	0.19	13.0	-22.4	---	---	726.9	0.022	0.000	21.1	3	1
03/11/06	4:56 a	-13.5	-13.5	-13.6	---	---	11.3	ENE	0.19	12.2	-22.4	---	---	726.8	0.022	0.000	21.1	3	1
03/11/06	4:57 a	-13.5	-13.5	-13.5	---	---	11.3	ENE	0.19	12.2	-22.4	---	---	726.8	0.022	0.000	21.1	3	1
03/11/06	4:58 a	-13.5	-13.4	-13.5	---	---	7.8	ENE	0.13	11.3	-20.8	---	---	726.9	0.022	0.000	21.1	3	1
03/11/06	4:59 a	-13.4	-13.4	-13.5	---	---	9.6	ENE	0.16	10.4	-21.6	---	---	726.8	0.022	0.000	21.1	3	1
03/11/06	5:00 a	-13.4	-13.4	-13.5	---	---	9.6	NE	0.16	12.2	-21.6	---	---	726.8	0.022	0.000	21.1	3	1
03/11/06	5:01 a	-13.4	-13.4	-13.4	---	---	9.6	ENE	0.16	12.2	-21.6	---	---	726.9	0.022	0.000	21.1	3	1
03/11/06	5:02 a	-13.4	-13.4	-13.5	---	---	11.3	NE	0.19	12.2	-22.3	---	---	726.8	0.022	0.000	21.1	3	1
03/11/06	5:03 a	-13.4	-13.4	-13.5	---	---	11.3	NE	0.19	13.0	-22.3	---	---	726.8	0.022	0.000	21.1	3	1
03/11/06	5:04 a	-13.4	-13.4	-13.4	---	---	10.4	NE	0.17	12.2	-22.0	---	---	726.8	0.022	0.000	21.1	3	1
03/11/06	5:05 a	-13.4	-13.4	-13.5	---	---	7.8	ENE	0.13	10.4	-20.8	---	---	726.9	0.022	0.000	21.1	3	1
03/11/06	5:06 a	-13.4	-13.4	-13.5	---	---	9.6	ENE	0.16	10.4	-21.6	---	---	726.8	0.022	0.000	21.1	3	1
03/11/06	5:07 a	-13.5	-13.4	-13.5	---	---	9.6	ENE	0.16	10.4	-21.7	---	---	726.9	0.022	0.000	21.1	3	1
03/11/06	5:08 a	-13.4	-13.4	-13.5	---	---	7.8	ENE	0.13	10.4	-20.8	---	---	726.8	0.022	0.000	21.1	3	1
03/11/06	5:09 a	-13.4	-13.4	-13.4	---	---	7.8	NE	0.13	8.7	-20.8	---	---	726.8	0.022	0.000	21.1	3	1
03/11/06	5:10 a	-13.4	-13.4	-13.5	---	---	8.7	NE	0.14	11.3	-21.2	---	---	726.8	0.022	0.000	21.1	3	1
03/11/06	5:11 a	-13.4	-13.4	-13.4	---	---	7.8	NNE	0.13	11.3	-20.8	---	---	726.8	0.022	0.000	21.1	3	1
03/11/06	5:12 a	-13.4	-13.4	-13.4	---	---	7.8	NE	0.13	9.6	-20.8	---	---	726.8	0.022	0.000	21.1	3	1
03/11/06	5:13 a	-13.4	-13.4	-13.4	---	---	6.1	NE	0.10	7.0	-19.8	---	---	726.9	0.022	0.000	21.1	3	1
03/11/06	5:14 a	-13.4	-13.4	-13.4	---	---	6.1	NE	0.10	7.8	-19.8	---	---	727.0	0.022	0.000	21.1	3	1
03/11/06	5:15 a	-13.4	-13.4	-13.5	---	---	7.0	NE	0.12	7.8	-20.3	---	---	726.9	0.022	0.000	21.1	3	1
03/11/06	5:16 a	-13.4	-13.4	-13.4	---	---	7.0	ENE	0.12	8.7	-20.3	---	---	727.0	0.022	0.000	21.1	3	1
03/11/06	5:17 a	-13.4	-13.4	-13.4	---	---	7.0	NE	0.12	8.7	-20.3	---	---	726.9	0.022	0.000	21.1	3	1
03/11/06	5:18 a	-13.4	-13.4	-13.4	---	---	7.0	NE	0.12	7.8	-20.3	---	---	726.9	0.022	0.000	21.1	3	1
03/11/06	5:19 a	-13.4	-13.4	-13.4	---	---	7.8	NE	0.13	8.7	-20.8	---	---	726.9	0.022	0.000	21.1	3	1
03/11/06	5:20 a	-13.4	-13.4	-13.4	---	---	7.8	NE	0.13	9.6	-20.8	---	---	727.0	0.022	0.000	21.1	3	1
03/11/06	5:21 a	-13.4	-13.4	-13.4	---	---	7.8	NE	0.13	8.7	-20.8	---	---	727.0	0.022	0.000	21.1	3	1
03/11/06	5:22 a	-13.4	-13.4	-13.4	---	---	7.8	NE	0.13	9.6	-20.8	---	---	727.0	0.022	0.000	21.1	3	1
03/11/06	5:23 a	-13.4	-13.4	-13.5	---	---	7.0	NE	0.12	7.8	-20.3	---	---	727.0	0.022	0.000	21.1	3	1
03/11/06	5:24 a	-13.4	-13.4	-13.5	---	---	7.0	NE	0.12	7.8	-20.3	---	---	727.0	0.022	0.000	21.1	3	1
03/11/06	5:25 a	-13.4	-13.4	-13.5	---	---	7.0	NE	0.12	7.8	-20.3	---	---	727.0	0.022	0.000	21.1	3	1
03/11/06	5:26 a	-13.5	-13.4	-13.5	---	---	7.8	NE	0.13	8.7	-20.8	---	---	727.1	0.022	0.000	21.1	3	1
03/11/06	5:27 a	-13.4	-13.4	-13.5	---	---	7.0	NE	0.12	7.8	-20.3	---	---	727.0	0.022	0.000	21.1	3	1
03/11/06	5:28 a	-13.4	-13.4	-13.5	---	---	7.0	NE	0.12	7.8	-20.3	---	---	727.0	0.022	0.000	21.1	3	1
03/11/06	5:29 a	-13.5	-13.4	-13.5	---	---	7.0	NE	0.12	8.7	-20.3	---	---	727.0	0.022	0.000	21.1	3	1
03/11/06	5:30 a	-13.4	-13.4	-13.5	---	---	7.0	ENE	0.12	8.7	-20.3	---	---	727.0	0.022	0.000	21.1	3	1
03/11/06	5:31 a	-13.5	-13.5	-13.5	---	---	7.0	ENE	0.12	7.8	-20.3	---	---	727.0	0.022	0.000	21.1	3	1
03/11/06	5:32 a	-13.5	-13.4	-13.5	---	---	7.0	NE	0.12	7.8	-20.3	---	---	727.0	0.022	0.000	21.1	3	1
03/11/06	5:33 a	-13.5	-13.4	-13.5	---	---	7.0	NE	0.12	7.8	-20.3	---	---	727.0	0.022	0.000	21.1	3	1
03/11/06	5:34 a	-13.5	-13.4	-13.6	---	---	7.8	ENE	0.13	8.7	-20.8	---	---	727.0	0.022	0.000	21.1	3	1
03/11/06	5:35 a	-13.5	-13.5	-13.5	---	---	7.0	ENE	0.12	7.8	-20.3	---	---	727.0	0.022	0.000	21.1	3	1
03/11/06	5:36 a	-13.5	-13.5	-13.5	---	---	7.0	NE	0.12	7.8	-20.3	---	---	727.1	0.022	0.000	21.1	3	1
03/11/06	5:37 a	-13.5	-13.5	-13.5	---	---	7.0	NE	0.12	7.0	-20.3	---	---	727.1	0.022	0.000	21.1	3	1
03/11/06	5:38 a	-13.5	-13.4	-13.5	---	---	6.1	NE	0.10	7.0	-19.8	---	---	727.1	0.022	0.000	21.1	3	1
03/11/06	5:39 a	-13.5	-13.5	-13.5	---	---	5.2	NE	0.09	5.2	-19.2	---	---	727.0	0.022	0.000	21.1	3	1
03/11/06	5:40 a	-13.5	-13.5	-13.5	---	---	4.3	NE	0.07	7.0	-18.6	---	---	727.1	0.022	0.000	21.1	3	1
03/11/06	5:41 a	-13.5	-13.5	-13.6	---	---	7.0	ENE	0.12	8.7	-20.3	---	---	727.1	0.022	0.000	21.1	3	1
03/11/06	5:42 a	-13.5	-13.4	-13.5	---	---	5.2	ENE	0.09	6.1	-19.2	---	---	727.2	0.022	0.000	21.1	3	1
03/11/06	5:43 a	-13.5	-13.5	-13.5	---	---	7.0	ENE	0.12	7.8	-20.3	---	---	727.0	0.022	0.000	21.1	3	1
03/11/06	5:44 a	-13.5	-13.5	-13.6	---	---	7.8	ENE	0.13	9.6	-20.8	---	---	726.9	0.022	0.000	21.1	3	1
03/11/06	5:45 a	-13.5	-13.5	-13.6	---	---	8.7	ENE	0.14	9.6	-21.3	---	---	727.1	0.022	0.000	21.1	3	1
03/11/06	5:46 a	-13.5	-13.4	-13.5	---	---	7.8	NE	0.13	8.7	-20.8	---	---	727.1	0.022	0.000	21.1	3	1
03/11/06	5:47 a	-13.5	-13.4	-13.6	---	---	7.8	ENE	0.13	8.7	-20.8	---	---	726.9	0.022	0.000	21.1	3	1
03/11/06	5:48 a	-13.5	-13.4	-13.5	---	---	7.8	ENE	0.13	8.7	-20.8	---	---	727.1	0.022	0.000	21.1	3	1
03/11/06	5:49 a	-13.5	-13.5	-13.5	---	---	6.1	E	0.10	7.8	-19.8	---	---	727.1	0.022	0.000	21.1	3	1
03/11/06	5:50 a	-13.5	-13.5	-13.5	---	---	7.0	E	0.12	8.7	-20.3	---	---	727.1	0.022	0.000	21.1	3	1
03/11/06	5:51 a	-13.5	-13.4	-13.5	---	---	6.1	E	0.10	7.8	-19.8	---	---	727.2	0.022	0.000	21.1	4	1
03/11/06	5:52 a	-13.4	-13.4	-13.5	---	---	6.1	E	0.10	7.8	-19.8	---	---	727.2	0.022	0.000	21.1	3	1
03/11/06	5:53 a	-13.5	-13.5	-13.5	---	---	5.2	E	0.09	7.0	-19.2	---	---	727.2	0.022	0.000	21.1	3	1
03/11/06	5:54 a	-13.5	-13.4	-13.5	---	---	7.0	E	0.12	8.7	-20.3	---	---	727.1	0.022	0.000	21.1	3	1
03/11/06	5:55 a	-13.5	-13.5	-13.5	---	---	9.6	ENE	0.16	9.6	-21.7	---	---	727.0	0.022	0.000	21.1	3	1
03/11/06	5:56 a	-13.5	-13.5	-13.5	---	---	8.7	E	0.14	9.6	-21.3	---	---	727.1	0.022	0.000	21.1	3	1
03/11/06	5:57 a	-13.5	-13.5	-13.5	---	---	7.0	E	0.12	8.7	-20.3	---	---	727.1	0.022	0.000	21.1	3	1
03/11/06	5:58 a	-13.5	-13.4	-13.5	---	---	7.0	E	0.12	9.6	-20.3	---	---	727.0	0.022	0.000	21.1	3	1
03/11/06	5:59 a	-13.5	-13.5	-13.5	---	---	7.8	E	0.13	11.3	-20.8	---	---	727.0	0.022	0.000	21.1	3	1
03/11/06	6:00 a	-13.5	-13.5	-13.5	---	---	7.0	E	0.12	8.7	-20.3	---	---	727.1	0.022	0.000	21.1	3	1
03/11/06	6:01 a	-13.5	-13.4	-13.5	---	---	6.1	E	0.10	8.7	-19.8	---	---	727.0	0.022	0.000	21.1	3	1
03/11/06	6:02 a	-13.5	-13.4	-13.5	---	---	5.2	E	0.09	7.8	-19.2	---	---	727.1	0.022	0.000	21.1	3	1
03/11/06	6:03 a	-13.5	-13.5	-13.5	---	---	6.1	ESE	0.10	9.6	-19.8	---	---	727.1	0.022	0.000	21.1	3	1
03/11/06	6:04 a	-13.5	-13.4	-13.5	---	---	7.8	ENE	0.13	11.3	-20.8	---	---	727.1	0.022	0.000	21.1	4	1
03/11/06	6:05 a	-13.4	-13.4	-13.5	---	---	7.0	ENE	0.12	8.7	-20.3	---	---	727.2	0.022	0.000	21.1	3	1
03/11/06	6:06 a	-13.5	-13.4	-13.5	---	---	8.7	E	0.14	11.3	-21.3	---	---	727.0	0.022	0.000	21.1	4	1
03/11/06	6:07 a	-13.5	-13.4	-13.5	---	---	6.1	E	0.10	8.7	-19.8	---	---	727.2	0.022	0.000	21.1	3	1
03/11/06	6:08 a	-13.4	-13.4	-13.5	---	---	8.7	E	0.14	10.4	-21.2	---	---	727.0	0.022	0.000	21.1	3	1
03/11/06	6:09 a	-13.5	-13.4	-13.5	---	---	8.7	E	0.14	12.2	-21.3	---	---	726.9	0.022	0.000	21.1	4	1
03/11/06	6:10 a	-13.5	-13.4	-13.5	---	---	8.7	E	0.14	13.9	-21.3	---	---	727.1	0.022	0.000	21.1	3	1
03/11/06	6:11 a	-13.5	-13.4	-13.5	---	---	5.2	E	0.09	8.7	-19.2	---	---	727.2	0.022	0.000	21.1	3	1
03/11/06	6:12 a	-13.5	-13.5	-13.5	---	---	7.0	ESE	0.12	10.4	-20.3	---	---	727.2	0.022	0.000	21.1	3	1
03/11/06	6:13 a	-13.5	-13.4	-13.5	---	---	7.0	E	0.12	9.6	-20.3	---	---	727.2	0.022	0.000	21.1	3	1
03/11/06	6:14 a	-13.4	-13.4	-13.5	---	---	8.7	E	0.14	12.2	-21.2	---	---	727.2	0.022	0.000	21.1	3	1
03/11/06	6:15 a	-13.5	-13.5	-13.5	---	---	7.0	ESE	0.12	9.6	-20.3	---	---	727.2	0.022	0.000	21.1	3	1
03/11/06	6:16 a	-13.5	-13.5	-13.5	---	---	7.8	ESE	0.13	10.4	-20.8	---	---	727.1	0.022	0.000	21.1	3	1
03/11/06	6:17 a	-13.5	-13.4	-13.5	---	---	7.8	E	0.13	12.2	-20.8	---	---	727.1	0.022	0.000	21.1	3	1
03/11/06	6:18 a	-13.5	-13.4	-13.5	---	---	7.8	ESE	0.13	9.6	-20.8	---	---	727.2	0.022	0.000	21.1	3	1
03/11/06	6:19 a	-13.5	-13.4	-13.5	---	---	7.8	ESE	0.13	10.4	-20.8	---	---	727.3	0.022	0.000	21.1	3	1
03/11/06	6:20 a	-13.5	-13.5	-13.5	---	---	9.6	ESE	0.16	11.3	-21.7	---	---	727.2	0.022	0.000	21.1	3	1
03/11/06	6:21 a	-13.5	-13.5	-13.5	---	---	9.6	SE	0.16	13.0	-21.7	---	---	727.3	0.022	0.000	21.1	3	1
03/11/06	6:22 a	-13.5	-13.4	-13.5	---	---	11.3	SSE	0.19	13.0	-22.4	---	---	727.2	0.022	0.000	21.1	3	1
03/11/06	6:23 a	-13.5	-13.5	-13.6	---	---	11.3	ESE	0.19	12.2	-22.4	---	---	727.2	0.022	0.000	21.1	3	1
03/11/06	6:24 a	-13.5	-13.4	-13.5	---	---	12.2	ESE	0.20	15.7	-22.7	---	---	727.2	0.022	0.000	21.1	3	1
03/11/06	6:25 a	-13.5	-13.5	-13.5	---	---	13.0	SSE	0.22	20.0	-23.0	---	---	727.1	0.022	0.000	21.1	3	1
03/11/06	6:26 a	-13.5	-13.5	-13.5	---	---	12.2	SE	0.20	14.8	-22.7	---	---	727.3	0.022	0.000	21.1	3	1
03/11/06	6:27 a	-13.6	-13.5	-13.6	---	---	13.9	SSE	0.23	16.5	-23.4	---	---	727.2	0.022	0.000	21.1	3	1
03/11/06	6:28 a	-13.6	-13.5	-13.6	---	---	17.4	SE	0.29	20.0	-24.4	---	---	727.2	0.022	0.000	21.1	3	1
03/11/06	6:29 a	-13.6	-13.6	-13.6	---	---	15.7	SSE	0.26	18.3	-23.9	---	---	727.2	0.022	0.000	21.1	3	1
03/11/06	6:30 a	-13.6	-13.6	-13.6	---	---	13.9	SSE	0.23	16.5	-23.4	---	---	727.1	0.022	0.000	21.1	3	1
03/11/06	6:31 a	-13.6	-13.6	-13.6	---	---	13.0	S	0.22	14.8	-23.2	---	---	727.3	0.022	0.000	21.1	3	1
03/11/06	6:32 a	-13.6	-13.6	-13.7	---	---	13.9	SSE	0.23	15.7	-23.4	---	---	727.3	0.022	0.000	21.1	3	1
03/11/06	6:33 a	-13.6	-13.6	-13.6	---	---	13.9	SSE	0.23	14.8	-23.4	---	---	727.2	0.022	0.000	21.1	3	1
03/11/06	6:34 a	-13.7	-13.6	-13.7	---	---	13.0	S	0.22	14.8	-23.2	---	---	727.3	0.022	0.000	21.1	3	1
03/11/06	6:35 a	-13.7	-13.7	-13.7	---	---	16.5	SSE	0.28	19.1	-24.3	---	---	727.2	0.022	0.000	21.1	3	1
03/11/06	6:36 a	-13.7	-13.7	-13.7	---	---	23.5	SSE	0.39	27.8	-26.0	---	---	727.1	0.022	0.000	21.1	3	1
03/11/06	6:37 a	-13.7	-13.7	-13.8	---	---	23.5	SSE	0.39	27.0	-26.1	---	---	727.0	0.022	0.000	21.1	3	1
03/11/06	6:38 a	-13.8	-13.8	-13.8	---	---	21.7	SSE	0.36	24.3	-25.8	---	---	727.0	0.022	0.000	21.1	3	1
03/11/06	6:39 a	-13.8	-13.8	-13.8	---	---	27.8	SSE	0.46	31.3	-27.1	---	---	726.9	0.022	0.000	21.1	3	1
03/11/06	6:40 a	-13.9	-13.8	-13.9	---	---	26.1	SSE	0.43	29.6	-26.8	---	---	727.0	0.022	0.000	21.1	3	1
03/11/06	6:41 a	-13.9	-13.9	-13.9	---	---	24.3	SSE	0.41	27.0	-26.6	---	---	727.1	0.022	0.000	21.1	3	1
03/11/06	6:42 a	-14.0	-13.9	-14.0	---	---	26.1	SSE	0.43	29.6	-26.9	---	---	727.0	0.022	0.000	21.2	3	1
03/11/06	6:43 a	-14.0	-14.0	-14.1	---	---	26.1	SSE	0.43	27.8	-26.9	---	---	727.0	0.022	0.000	21.2	3	1
03/11/06	6:44 a	-14.1	-14.1	-14.1	---	---	24.3	S	0.41	27.0	-26.8	---	---	727.2	0.023	0.000	21.1	3	1
03/11/06	6:45 a	-14.1	-14.1	-14.2	---	---	23.5	SSE	0.39	27.8	-26.6	---	---	727.1	0.023	0.000	21.1	3	1
03/11/06	6:46 a	-14.2	-14.2	-14.2	---	---	22.6	S	0.38	25.2	-26.5	---	---	727.1	0.023	0.000	21.1	3	1
03/11/06	6:47 a	-14.2	-14.2	-14.2	---	---	23.5	SSE	0.39	25.2	-26.7	---	---	727.2	0.023	0.000	21.1	3	1
03/11/06	6:48 a	-14.2	-14.2	-14.2	---	---	23.5	S	0.39	26.1	-26.7	---	---	727.2	0.023	0.000	21.1	3	1
03/11/06	6:49 a	-14.2	-14.2	-14.2	---	---	21.7	SSE	0.36	24.3	-26.3	---	---	727.1	0.023	0.000	21.2	3	1
03/11/06	6:50 a	-14.3	-14.2	-14.3	---	---	23.5	S	0.39	25.2	-26.8	---	---	727.1	0.023	0.000	21.1	3	1
03/11/06	6:51 a	-14.3	-14.3	-14.3	---	---	20.9	S	0.35	24.3	-26.3	---	---	727.1	0.023	0.000	21.2	3	1
03/11/06	6:52 a	-14.3	-14.3	-14.3	---	---	22.6	S	0.38	26.1	-26.7	---	---	727.2	0.023	0.000	21.2	3	1
03/11/06	6:53 a	-14.4	-14.3	-14.4	---	---	20.9	S	0.35	23.5	-26.4	---	---	727.3	0.023	0.000	21.2	3	1
03/11/06	6:54 a	-14.4	-14.4	-14.4	---	---	16.5	S	0.28	20.0	-25.3	---	---	727.2	0.023	0.000	21.2	3	1
03/11/06	6:55 a	-14.4	-14.4	-14.4	---	---	16.5	S	0.28	20.0	-25.3	---	---	727.4	0.023	0.000	21.2	3	1
03/11/06	6:56 a	-14.4	-14.4	-14.4	---	---	16.5	S	0.28	18.3	-25.3	---	---	727.3	0.023	0.000	21.2	3	1
03/11/06	6:57 a	-14.4	-14.4	-14.5	---	---	14.8	S	0.25	16.5	-24.8	---	---	727.4	0.023	0.000	21.2	3	1
03/11/06	6:58 a	-14.5	-14.5	-14.5	---	---	15.7	S	0.26	16.5	-25.2	---	---	727.4	0.023	0.000	21.2	3	1
03/11/06	6:59 a	-14.5	-14.5	-14.5	---	---	17.4	SSE	0.29	20.0	-25.7	---	---	727.4	0.023	0.000	21.2	3	1
03/11/06	7:00 a	-14.6	-14.5	-14.6	---	---	17.4	SSE	0.29	20.0	-25.7	---	---	727.3	0.023	0.000	21.2	3	1
03/11/06	7:01 a	-14.6	-14.6	-14.6	---	---	16.5	SSE	0.28	19.1	-25.4	---	---	727.4	0.023	0.000	21.2	3	1
03/11/06	7:02 a	-14.6	-14.6	-14.6	---	---	19.1	SSE	0.32	20.9	-26.2	---	---	727.4	0.023	0.000	21.2	4	1
03/11/06	7:03 a	-14.6	-14.6	-14.6	---	---	20.9	SE	0.35	26.1	-26.7	---	---	727.4	0.023	0.000	21.2	3	1
03/11/06	7:04 a	-14.6	-14.6	-14.7	---	---	21.7	SSE	0.36	24.3	-26.9	---	---	727.3	0.023	0.000	21.2	3	1
03/11/06	7:05 a	-14.7	-14.7	-14.7	---	---	18.3	SE	0.30	20.9	-26.1	---	---	727.3	0.023	0.000	21.1	4	1
03/11/06	7:06 a	-14.7	-14.7	-14.7	---	---	17.4	SSE	0.29	20.9	-25.8	---	---	727.5	0.023	0.000	21.1	3	1
03/11/06	7:07 a	-14.7	-14.7	-14.8	---	---	20.9	SSE	0.35	24.3	-26.8	---	---	727.3	0.023	0.000	21.1	3	1
03/11/06	7:08 a	-14.8	-14.8	-14.9	---	---	15.7	SE	0.26	18.3	-25.5	---	---	727.2	0.023	0.000	21.1	3	1
03/11/06	7:09 a	-14.9	-14.8	-14.9	---	---	15.7	SE	0.26	17.4	-25.7	---	---	727.2	0.023	0.000	21.2	3	1
03/11/06	7:10 a	-14.9	-14.9	-15.0	---	---	20.0	SE	0.33	21.7	-26.9	---	---	727.1	0.023	0.000	21.1	3	1
03/11/06	7:11 a	-15.0	-14.9	-15.0	---	---	17.4	SE	0.29	20.0	-26.3	---	---	727.2	0.023	0.000	21.2	3	1
03/11/06	7:12 a	-15.0	-15.0	-15.1	---	---	14.8	SE	0.25	16.5	-25.5	---	---	727.3	0.023	0.000	21.2	3	1
03/11/06	7:13 a	-15.1	-15.1	-15.1	---	---	19.1	SE	0.32	21.7	-26.8	---	---	727.2	0.023	0.000	21.2	3	1
03/11/06	7:14 a	-15.1	-15.1	-15.1	---	---	19.1	SE	0.32	20.9	-26.9	---	---	727.2	0.023	0.000	21.2	3	1
03/11/06	7:15 a	-15.2	-15.1	-15.2	---	---	19.1	SE	0.32	20.0	-27.0	---	---	727.1	0.023	0.000	21.2	3	1
03/11/06	7:16 a	-15.2	-15.2	-15.3	---	---	20.0	ESE	0.33	23.5	-27.3	---	---	726.9	0.023	0.000	21.2	3	1
03/11/06	7:17 a	-15.3	-15.3	-15.3	---	---	22.6	SE	0.38	24.3	-27.9	---	---	726.9	0.023	0.000	21.1	3	1
03/11/06	7:18 a	-15.3	-15.3	-15.4	---	---	20.0	SE	0.33	22.6	-27.4	---	---	726.9	0.023	0.000	21.1	3	1
03/11/06	7:19 a	-15.4	-15.3	-15.4	---	---	20.9	SE	0.35	23.5	-27.7	---	---	726.9	0.023	0.000	21.1	4	1
03/11/06	7:20 a	-15.4	-15.4	-15.4	---	---	21.7	ESE	0.36	23.5	-27.9	---	---	726.8	0.023	0.000	21.1	3	1
03/11/06	7:21 a	-15.4	-15.4	-15.5	---	---	20.9	ESE	0.35	24.3	-27.8	---	---	726.8	0.023	0.000	21.1	3	1
03/11/06	7:22 a	-15.5	-15.5	-15.6	---	---	24.3	ESE	0.41	27.0	-28.7	---	---	726.7	0.023	0.000	21.1	3	1
03/11/06	7:23 a	-15.6	-15.6	-15.6	---	---	23.5	SE	0.39	27.0	-28.6	---	---	726.7	0.024	0.000	21.1	3	1
03/11/06	7:24 a	-15.6	-15.6	-15.6	---	---	24.3	SE	0.41	27.8	-28.7	---	---	726.6	0.024	0.000	21.1	3	1
03/11/06	7:25 a	-15.6	-15.6	-15.7	---	---	25.2	ESE	0.42	28.7	-29.0	---	---	726.6	0.024	0.000	21.1	3	1
03/11/06	7:26 a	-15.7	-15.7	-15.7	---	---	23.5	SE	0.39	25.2	-28.7	---	---	726.6	0.024	0.000	21.1	3	1
03/11/06	7:27 a	-15.7	-15.7	-15.7	---	---	24.3	SE	0.41	28.7	-28.9	---	---	726.6	0.024	0.000	21.1	3	1
03/11/06	7:28 a	-15.7	-15.7	-15.8	---	---	25.2	SE	0.42	29.6	-29.1	---	---	726.6	0.024	0.000	21.1	3	1
03/11/06	7:29 a	-15.8	-15.8	-15.8	---	---	23.5	ESE	0.39	26.1	-28.8	---	---	726.5	0.024	0.000	21.1	3	1
03/11/06	7:30 a	-15.8	-15.8	-15.8	---	---	25.2	SE	0.42	27.0	-29.3	---	---	726.6	0.024	0.000	21.1	3	1
03/11/06	7:31 a	-15.8	-15.8	-15.8	---	---	23.5	SE	0.39	26.1	-28.9	---	---	726.6	0.024	0.000	21.1	3	1
03/11/06	7:32 a	-15.9	-15.9	-15.9	---	---	23.5	ESE	0.39	26.1	-29.0	---	---	726.5	0.024	0.000	21.1	3	1
03/11/06	7:33 a	-15.9	-15.9	-15.9	---	---	26.1	ESE	0.43	30.4	-29.5	---	---	726.4	0.024	0.000	21.1	3	1
03/11/06	7:34 a	-15.9	-15.9	-15.9	---	---	24.3	SE	0.41	27.0	-29.2	---	---	726.5	0.024	0.000	21.1	3	1
03/11/06	7:35 a	-15.9	-15.9	-15.9	---	---	24.3	SE	0.41	26.1	-29.2	---	---	726.5	0.024	0.000	21.1	3	1
03/11/06	7:36 a	-15.9	-15.9	-15.9	---	---	25.2	SE	0.42	29.6	-29.4	---	---	726.4	0.024	0.000	21.1	3	1
03/11/06	7:37 a	-15.9	-15.9	-16.0	---	---	26.1	SE	0.43	28.7	-29.6	---	---	726.3	0.024	0.000	21.1	3	1
03/11/06	7:38 a	-16.0	-16.0	-16.0	---	---	25.2	SE	0.42	28.7	-29.5	---	---	726.4	0.024	0.000	21.1	3	1
03/11/06	7:39 a	-16.0	-16.0	-16.0	---	---	27.0	SE	0.45	28.7	-29.8	---	---	726.4	0.024	0.000	21.1	3	1
03/11/06	7:40 a	-16.0	-16.0	-16.0	---	---	28.7	SE	0.48	30.4	-30.2	---	---	726.3	0.024	0.000	21.1	3	1
03/11/06	7:41 a	-16.0	-16.0	-16.0	---	---	27.0	SE	0.45	28.7	-29.8	---	---	726.2	0.024	0.000	21.1	3	1
03/11/06	7:42 a	-16.0	-16.0	-16.0	---	---	25.2	SE	0.42	27.8	-29.5	---	---	726.2	0.024	0.000	21.1	3	1
03/11/06	7:43 a	-16.0	-16.0	-16.0	---	---	25.2	SE	0.42	27.8	-29.5	---	---	726.3	0.024	0.000	21.1	3	1
03/11/06	7:44 a	-16.0	-16.0	-16.1	---	---	26.1	ESE	0.43	29.6	-29.7	---	---	726.2	0.024	0.000	21.1	3	1
03/11/06	7:45 a	-16.1	-16.0	-16.1	---	---	27.8	SE	0.46	31.3	-30.1	---	---	726.1	0.024	0.000	21.1	3	1
03/11/06	7:46 a	-16.1	-16.0	-16.1	---	---	26.1	ESE	0.43	28.7	-29.8	---	---	726.1	0.024	0.000	21.1	3	1
03/11/06	7:47 a	-16.0	-16.0	-16.1	---	---	28.7	ESE	0.48	32.2	-30.2	---	---	726.1	0.024	0.000	21.1	3	1
03/11/06	7:48 a	-16.0	-16.0	-16.1	---	---	29.6	SE	0.49	32.2	-30.3	---	---	726.1	0.024	0.000	21.1	3	1
03/11/06	7:49 a	-16.1	-16.1	-16.1	---	---	28.7	SE	0.48	32.2	-30.3	---	---	726.0	0.024	0.000	21.1	3	1
03/11/06	7:50 a	-16.1	-16.1	-16.1	---	---	31.3	SE	0.52	34.8	-30.7	---	---	726.0	0.024	0.000	21.1	3	1
03/11/06	7:51 a	-16.1	-16.1	-16.1	---	---	33.9	SE	0.57	36.5	-31.2	---	---	725.8	0.024	0.000	21.1	3	1
03/11/06	7:52 a	-16.1	-16.0	-16.1	---	---	31.3	SE	0.52	33.0	-30.7	---	---	726.0	0.024	0.000	21.1	3	1
03/11/06	7:53 a	-16.1	-16.1	-16.1	---	---	33.9	SE	0.57	35.7	-31.2	---	---	725.9	0.024	0.000	21.1	3	1
03/11/06	7:54 a	-16.1	-16.1	-16.1	---	---	31.3	SE	0.52	33.9	-30.7	---	---	726.0	0.024	0.000	21.0	3	1
03/11/06	7:55 a	-16.1	-16.0	-16.1	---	---	30.4	SE	0.51	34.8	-30.6	---	---	726.0	0.024	0.000	21.0	3	1
03/11/06	7:56 a	-16.1	-16.0	-16.1	---	---	29.6	SE	0.49	33.0	-30.4	---	---	726.0	0.024	0.000	21.0	3	1
03/11/06	7:57 a	-16.1	-16.0	-16.1	---	---	29.6	SE	0.49	33.9	-30.4	---	---	725.9	0.024	0.000	21.0	3	1
03/11/06	7:58 a	-16.1	-16.1	-16.1	---	---	29.6	SE	0.49	32.2	-30.4	---	---	725.9	0.024	0.000	21.0	3	1
03/11/06	7:59 a	-16.1	-16.1	-16.1	---	---	28.7	SE	0.48	33.9	-30.3	---	---	725.8	0.024	0.000	21.0	3	1
03/11/06	8:00 a	-16.1	-16.1	-16.1	---	---	30.4	SE	0.51	35.7	-30.6	---	---	726.0	0.024	0.000	21.0	3	1
03/11/06	8:01 a	-16.1	-16.1	-16.1	---	---	30.4	SE	0.51	32.2	-30.6	---	---	725.9	0.024	0.000	21.0	3	1
03/11/06	8:02 a	-16.1	-16.1	-16.1	---	---	31.3	SE	0.52	33.0	-30.7	---	---	725.9	0.024	0.000	21.0	3	1
03/11/06	8:03 a	-16.1	-16.1	-16.1	---	---	31.3	ESE	0.52	33.9	-30.7	---	---	725.9	0.024	0.000	21.0	3	1
03/11/06	8:04 a	-16.1	-16.1	-16.1	---	---	30.4	SE	0.51	32.2	-30.7	---	---	726.0	0.024	0.000	20.9	3	1
03/11/06	8:05 a	-16.1	-16.1	-16.1	---	---	30.4	ESE	0.51	33.9	-30.6	---	---	725.9	0.024	0.000	20.9	3	1
03/11/06	8:06 a	-16.1	-16.1	-16.1	---	---	30.4	SE	0.51	32.2	-30.6	---	---	725.9	0.024	0.000	20.9	3	1
03/11/06	8:07 a	-16.1	-16.0	-16.1	---	---	33.0	SE	0.55	34.8	-31.0	---	---	725.8	0.024	0.000	20.9	3	1
03/11/06	8:08 a	-16.0	-16.0	-16.1	---	---	33.0	SE	0.55	34.8	-30.9	---	---	725.8	0.024	0.000	20.9	3	1
03/11/06	8:09 a	-16.0	-15.9	-16.1	---	---	33.9	SE	0.57	40.0	-31.1	---	---	725.9	0.024	0.000	20.9	3	1
03/11/06	8:10 a	-16.0	-15.9	-16.0	---	---	34.8	SE	0.58	38.3	-31.2	---	---	725.7	0.024	0.000	20.9	3	1
03/11/06	8:11 a	-16.0	-15.9	-16.0	---	---	29.6	SE	0.49	36.5	-30.3	---	---	726.0	0.024	0.000	20.9	3	1
03/11/06	8:12 a	-15.9	-15.9	-16.0	---	---	27.0	ESE	0.45	33.0	-29.8	---	---	725.9	0.024	0.000	20.9	3	1
03/11/06	8:13 a	-15.9	-15.9	-15.9	---	---	29.6	ESE	0.49	33.0	-30.3	---	---	726.0	0.024	0.000	20.9	3	1
03/11/06	8:14 a	-15.9	-15.9	-15.9	---	---	25.2	E	0.42	33.9	-29.4	---	---	726.0	0.024	0.000	20.9	3	1
03/11/06	8:15 a	-15.9	-15.9	-15.9	---	---	26.1	ESE	0.43	28.7	-29.6	---	---	726.1	0.024	0.000	20.9	3	1
03/11/06	8:16 a	-15.9	-15.9	-15.9	---	---	23.5	ESE	0.39	25.2	-29.1	---	---	726.1	0.024	0.000	20.9	3	1
03/11/06	8:17 a	-15.9	-15.9	-16.0	---	---	25.2	ESE	0.42	28.7	-29.4	---	---	726.1	0.024	0.000	20.9	3	1
03/11/06	8:18 a	-15.9	-15.9	-16.0	---	---	27.0	ESE	0.45	29.6	-29.8	---	---	726.0	0.024	0.000	20.9	3	1
03/11/06	8:19 a	-16.0	-15.9	-16.0	---	---	25.2	ESE	0.42	27.8	-29.5	---	---	726.1	0.024	0.000	20.9	3	1
03/11/06	8:20 a	-16.0	-15.9	-16.0	---	---	25.2	ESE	0.42	27.0	-29.5	---	---	726.0	0.024	0.000	20.9	3	1
03/11/06	8:21 a	-16.0	-16.0	-16.1	---	---	27.8	ESE	0.46	31.3	-30.0	---	---	725.8	0.024	0.000	20.9	3	1
03/11/06	8:22 a	-16.0	-16.0	-16.1	---	---	27.0	ESE	0.45	28.7	-29.8	---	---	725.9	0.024	0.000	20.9	3	1
03/11/06	8:23 a	-16.1	-16.1	-16.1	---	---	26.1	SE	0.43	30.4	-29.8	---	---	726.0	0.024	0.000	20.9	3	1
03/11/06	8:24 a	-16.1	-16.1	-16.1	---	---	27.0	ESE	0.45	33.9	-29.9	---	---	725.8	0.024	0.000	20.9	3	1
03/11/06	8:25 a	-16.1	-16.0	-16.1	---	---	31.3	ESE	0.52	35.7	-30.7	---	---	725.8	0.024	0.000	20.9	3	1
03/11/06	8:26 a	-16.1	-16.1	-16.1	---	---	32.2	ESE	0.54	35.7	-30.9	---	---	725.7	0.024	0.000	20.9	3	1
03/11/06	8:27 a	-16.0	-16.0	-16.1	---	---	29.6	ESE	0.49	32.2	-30.3	---	---	725.9	0.024	0.000	20.9	3	1
03/11/06	8:28 a	-16.0	-16.0	-16.1	---	---	29.6	ESE	0.49	34.8	-30.3	---	---	725.6	0.024	0.000	20.9	3	1
03/11/06	8:29 a	-16.0	-16.0	-16.0	---	---	28.7	ESE	0.48	33.9	-30.2	---	---	725.9	0.024	0.000	20.9	3	1
03/11/06	8:30 a	-16.0	-15.9	-16.1	---	---	25.2	ESE	0.42	28.7	-29.5	---	---	725.9	0.024	0.000	20.9	3	1
03/11/06	8:31 a	-16.0	-15.9	-16.0	---	---	27.8	ESE	0.46	33.9	-30.0	---	---	725.8	0.024	0.000	20.9	3	1
03/11/06	8:32 a	-16.0	-15.9	-16.0	---	---	25.2	ESE	0.42	30.4	-29.5	---	---	725.8	0.024	0.000	20.9	3	1
03/11/06	8:33 a	-16.0	-15.9	-16.0	---	---	22.6	E	0.38	27.8	-28.9	---	---	725.9	0.024	0.000	20.9	3	1
03/11/06	8:34 a	-16.0	-16.0	-16.0	---	---	20.9	E	0.35	24.3	-28.5	---	---	725.8	0.024	0.000	20.8	3	1
03/11/06	8:35 a	-16.0	-16.0	-16.0	---	---	21.7	E	0.36	24.3	-28.7	---	---	725.7	0.024	0.000	20.9	3	1
03/11/06	8:36 a	-16.0	-15.9	-16.0	---	---	22.6	E	0.38	31.3	-28.9	---	---	725.7	0.024	0.000	20.9	3	1
03/11/06	8:37 a	-16.0	-16.0	-16.0	---	---	27.0	ESE	0.45	39.1	-29.8	---	---	725.5	0.024	0.000	20.8	3	1
03/11/06	8:38 a	-16.0	-16.0	-16.0	---	---	27.8	ESE	0.46	29.6	-30.0	---	---	725.8	0.024	0.000	20.8	3	1
03/11/06	8:39 a	-16.0	-15.9	-16.0	---	---	28.7	ESE	0.48	33.0	-30.2	---	---	725.7	0.024	0.000	20.8	3	1
03/11/06	8:40 a	-16.0	-16.0	-16.0	---	---	30.4	ESE	0.51	34.8	-30.5	---	---	725.8	0.024	0.000	20.8	3	1
03/11/06	8:41 a	-16.0	-16.0	-16.1	---	---	27.8	ESE	0.46	36.5	-30.0	---	---	725.7	0.024	0.000	20.8	3	1
03/11/06	8:42 a	-16.1	-16.0	-16.1	---	---	27.0	ESE	0.45	30.4	-29.9	---	---	725.8	0.024	0.000	20.8	3	1
03/11/06	8:43 a	-16.1	-16.0	-16.1	---	---	27.0	ESE	0.45	33.0	-29.9	---	---	725.8	0.024	0.000	20.8	3	1
03/11/06	8:44 a	-16.1	-16.1	-16.1	---	---	20.0	E	0.33	23.5	-28.4	---	---	725.8	0.024	0.000	20.8	3	1
03/11/06	8:45 a	-16.1	-16.0	-16.1	---	---	30.4	E	0.51	40.9	-30.6	---	---	725.7	0.024	0.000	20.9	3	1
03/11/06	8:46 a	-16.1	-16.0	-16.1	---	---	22.6	ESE	0.38	32.2	-29.0	---	---	725.9	0.024	0.000	20.9	3	1
03/11/06	8:47 a	-16.0	-16.0	-16.1	---	---	20.0	ESE	0.33	23.5	-28.3	---	---	726.1	0.024	0.000	20.9	3	1
03/11/06	8:48 a	-16.0	-16.0	-16.1	---	---	21.7	ESE	0.36	30.4	-28.7	---	---	725.9	0.024	0.000	20.9	3	1
03/11/06	8:49 a	-16.0	-16.0	-16.1	---	---	24.3	SE	0.41	29.6	-29.3	---	---	725.9	0.024	0.000	20.9	3	1
03/11/06	8:50 a	-16.0	-16.0	-16.0	---	---	20.0	SE	0.33	26.1	-28.3	---	---	726.0	0.024	0.000	20.9	3	1
03/11/06	8:51 a	-16.0	-15.9	-16.0	---	---	20.9	ESE	0.35	25.2	-28.5	---	---	725.9	0.024	0.000	20.9	3	1
03/11/06	8:52 a	-16.0	-15.9	-16.0	---	---	27.0	ESE	0.45	31.3	-29.8	---	---	725.8	0.024	0.000	20.9	3	1
03/11/06	8:53 a	-16.0	-15.9	-16.0	---	---	25.2	ESE	0.42	28.7	-29.5	---	---	726.0	0.024	0.000	20.9	3	1
03/11/06	8:54 a	-15.9	-15.9	-15.9	---	---	21.7	ESE	0.36	26.1	-28.7	---	---	725.9	0.024	0.000	20.9	3	1
03/11/06	8:55 a	-15.9	-15.9	-15.9	---	---	22.6	E	0.38	27.0	-28.8	---	---	725.9	0.024	0.000	20.9	3	1
03/11/06	8:56 a	-15.9	-15.9	-16.0	---	---	24.3	ESE	0.41	27.8	-29.2	---	---	725.8	0.024	0.000	20.9	3	1
03/11/06	8:57 a	-15.9	-15.9	-15.9	---	---	23.5	ESE	0.39	26.1	-29.1	---	---	725.8	0.024	0.000	20.9	3	1
03/11/06	8:58 a	-15.9	-15.9	-15.9	---	---	21.7	E	0.36	30.4	-28.7	---	---	725.8	0.024	0.000	20.9	3	1
03/11/06	8:59 a	-15.9	-15.9	-15.9	---	---	20.9	E	0.35	26.1	-28.4	---	---	725.8	0.024	0.000	20.9	3	1
03/11/06	9:00 a	-15.9	-15.9	-15.9	---	---	22.6	ESE	0.38	27.0	-28.8	---	---	725.9	0.024	0.000	20.9	3	1
03/11/06	9:01 a	-15.9	-15.9	-15.9	---	---	22.6	ESE	0.38	27.8	-28.8	---	---	726.0	0.024	0.000	20.9	3	1
03/11/06	9:02 a	-15.9	-15.9	-15.9	---	---	22.6	ESE	0.38	26.1	-28.8	---	---	725.9	0.024	0.000	20.9	3	1
03/11/06	9:03 a	-15.9	-15.9	-15.9	---	---	27.8	SE	0.46	31.3	-29.9	---	---	725.8	0.024	0.000	20.9	3	1
03/11/06	9:04 a	-15.9	-15.8	-15.9	---	---	27.8	SE	0.46	31.3	-29.9	---	---	725.7	0.024	0.000	20.9	3	1
03/11/06	9:05 a	-15.8	-15.8	-15.9	---	---	23.5	ESE	0.39	28.7	-28.9	---	---	725.8	0.024	0.000	20.9	3	1
03/11/06	9:06 a	-15.8	-15.8	-15.8	---	---	24.3	ESE	0.41	33.9	-29.1	---	---	725.6	0.024	0.000	20.8	3	1
03/11/06	9:07 a	-15.8	-15.8	-15.8	---	---	27.0	ESE	0.45	34.8	-29.6	---	---	725.8	0.024	0.000	20.9	3	1
03/11/06	9:08 a	-15.8	-15.8	-15.8	---	---	23.5	ESE	0.39	26.1	-28.8	---	---	725.9	0.024	0.000	20.9	3	1
03/11/06	9:09 a	-15.7	-15.7	-15.8	---	---	21.7	ESE	0.36	24.3	-28.3	---	---	725.8	0.024	0.000	20.9	3	1
03/11/06	9:10 a	-15.7	-15.7	-15.8	---	---	21.7	ESE	0.36	25.2	-28.3	---	---	725.8	0.024	0.000	20.9	3	1
03/11/06	9:11 a	-15.7	-15.7	-15.8	---	---	20.0	ESE	0.33	26.1	-27.9	---	---	726.0	0.024	0.000	20.9	3	1
03/11/06	9:12 a	-15.7	-15.7	-15.8	---	---	23.5	SE	0.39	28.7	-28.8	---	---	725.9	0.024	0.000	20.8	3	1
03/11/06	9:13 a	-15.7	-15.7	-15.7	---	---	23.5	ESE	0.39	28.7	-28.7	---	---	725.7	0.024	0.000	20.9	3	1
03/11/06	9:14 a	-15.7	-15.7	-15.7	---	---	20.9	E	0.35	27.8	-28.2	---	---	725.8	0.024	0.000	20.8	3	1
03/11/06	9:15 a	-15.7	-15.7	-15.7	---	---	23.5	ESE	0.39	27.0	-28.7	---	---	725.9	0.024	0.000	20.8	3	1
03/11/06	9:16 a	-15.7	-15.6	-15.7	---	---	23.5	ESE	0.39	27.0	-28.7	---	---	725.8	0.024	0.000	20.8	3	1
03/11/06	9:17 a	-15.6	-15.6	-15.7	---	---	20.9	SE	0.35	22.6	-28.0	---	---	725.9	0.024	0.000	20.8	3	1
03/11/06	9:18 a	-15.6	-15.6	-15.7	---	---	24.3	SE	0.41	27.0	-28.8	---	---	725.7	0.024	0.000	20.8	3	1
03/11/06	9:19 a	-15.6	-15.6	-15.6	---	---	21.7	ESE	0.36	26.1	-28.2	---	---	725.7	0.024	0.000	20.8	3	1
03/11/06	9:20 a	-15.6	-15.6	-15.6	---	---	24.3	ESE	0.41	30.4	-28.8	---	---	725.8	0.024	0.000	20.8	3	1
03/11/06	9:21 a	-15.6	-15.5	-15.6	---	---	22.6	ESE	0.38	25.2	-28.3	---	---	725.9	0.024	0.000	20.8	3	1
03/11/06	9:22 a	-15.6	-15.6	-15.6	---	---	24.3	ESE	0.41	27.8	-28.7	---	---	725.8	0.024	0.000	20.8	3	1
03/11/06	9:23 a	-15.5	-15.5	-15.6	---	---	22.6	ESE	0.38	27.0	-28.3	---	---	725.8	0.023	0.000	20.8	3	1
03/11/06	9:24 a	-15.4	-15.4	-15.5	---	---	20.9	E	0.35	25.2	-27.8	---	---	726.0	0.023	0.000	20.8	3	1
03/11/06	9:25 a	-15.4	-15.4	-15.4	---	---	18.3	ESE	0.30	24.3	-27.1	---	---	725.9	0.023	0.000	20.8	3	1
03/11/06	9:26 a	-15.4	-15.4	-15.4	---	---	21.7	E	0.36	26.1	-28.0	---	---	725.9	0.023	0.000	20.8	3	1
03/11/06	9:27 a	-15.4	-15.4	-15.4	---	---	17.4	E	0.29	20.9	-26.8	---	---	726.0	0.023	0.000	20.8	3	1
03/11/06	9:28 a	-15.4	-15.4	-15.4	---	---	20.9	E	0.35	22.6	-27.7	---	---	725.9	0.023	0.000	20.8	3	1
03/11/06	9:29 a	-15.4	-15.3	-15.4	---	---	19.1	ESE	0.32	22.6	-27.3	---	---	726.0	0.023	0.000	20.8	3	1
03/11/06	9:30 a	-15.3	-15.3	-15.3	---	---	20.9	ESE	0.35	23.5	-27.6	---	---	726.1	0.023	0.000	20.8	3	1
03/11/06	9:31 a	-15.3	-15.3	-15.3	---	---	17.4	ESE	0.29	20.0	-26.7	---	---	726.2	0.023	0.000	20.8	3	1
03/11/06	9:32 a	-15.3	-15.3	-15.3	---	---	16.5	ESE	0.28	19.1	-26.5	---	---	726.1	0.023	0.000	20.8	3	1
03/11/06	9:33 a	-15.3	-15.3	-15.3	---	---	17.4	ESE	0.29	20.0	-26.7	---	---	726.1	0.023	0.000	20.8	3	1
03/11/06	9:34 a	-15.3	-15.3	-15.3	---	---	16.5	E	0.28	20.0	-26.4	---	---	726.2	0.023	0.000	20.8	3	1
03/11/06	9:35 a	-15.3	-15.3	-15.3	---	---	18.3	E	0.30	20.9	-26.9	---	---	726.3	0.023	0.000	20.8	3	1
03/11/06	9:36 a	-15.3	-15.3	-15.3	---	---	17.4	E	0.29	20.9	-26.7	---	---	726.2	0.023	0.000	20.8	3	1
03/11/06	9:37 a	-15.3	-15.2	-15.3	---	---	16.5	E	0.28	18.3	-26.4	---	---	726.2	0.023	0.000	20.8	3	1
03/11/06	9:38 a	-15.2	-15.2	-15.3	---	---	17.4	E	0.29	20.0	-26.6	---	---	726.2	0.023	0.000	20.8	3	1
03/11/06	9:39 a	-15.3	-15.2	-15.3	---	---	17.4	E	0.29	20.0	-26.7	---	---	726.2	0.023	0.000	20.8	3	1
03/11/06	9:40 a	-15.2	-15.2	-15.2	---	---	15.7	E	0.26	17.4	-26.1	---	---	726.2	0.023	0.000	20.8	3	1
03/11/06	9:41 a	-15.2	-15.2	-15.3	---	---	14.8	E	0.25	16.5	-25.8	---	---	726.2	0.023	0.000	20.8	3	1
03/11/06	9:42 a	-15.2	-15.2	-15.3	---	---	13.9	E	0.23	16.5	-25.5	---	---	726.3	0.023	0.000	20.8	3	1
03/11/06	9:43 a	-15.2	-15.2	-15.2	---	---	16.5	E	0.28	24.3	-26.3	---	---	726.1	0.023	0.000	20.8	3	1
03/11/06	9:44 a	-15.2	-15.2	-15.2	---	---	14.8	ESE	0.25	20.0	-25.8	---	---	726.4	0.023	0.000	20.8	3	1
03/11/06	9:45 a	-15.2	-15.2	-15.2	---	---	17.4	SE	0.29	20.9	-26.6	---	---	726.2	0.023	0.000	20.8	3	1
03/11/06	9:46 a	-15.2	-15.2	-15.2	---	---	17.4	ESE	0.29	21.7	-26.6	---	---	726.3	0.023	0.000	20.8	3	1
03/11/06	9:47 a	-15.2	-15.2	-15.2	---	---	15.7	E	0.26	18.3	-26.0	---	---	726.3	0.023	0.000	20.8	3	1
03/11/06	9:48 a	-15.2	-15.2	-15.2	---	---	19.1	SE	0.32	25.2	-27.0	---	---	726.3	0.023	0.000	20.8	3	1
03/11/06	9:49 a	-15.2	-15.2	-15.2	---	---	18.3	SE	0.30	24.3	-26.8	---	---	726.3	0.023	0.000	20.8	3	1
03/11/06	9:50 a	-15.1	-15.1	-15.2	---	---	20.9	SE	0.35	26.1	-27.3	---	---	726.3	0.023	0.000	20.8	3	1
03/11/06	9:51 a	-15.1	-15.1	-15.1	---	---	20.0	SE	0.33	22.6	-27.1	---	---	726.2	0.023	0.000	20.8	3	1
03/11/06	9:52 a	-15.1	-15.1	-15.1	---	---	18.3	ESE	0.30	24.3	-26.6	---	---	726.4	0.023	0.000	20.8	3	1
03/11/06	9:53 a	-15.1	-15.1	-15.1	---	---	18.3	SSE	0.30	20.9	-26.6	---	---	726.2	0.023	0.000	20.8	3	1
03/11/06	9:54 a	-15.1	-15.0	-15.1	---	---	17.4	SE	0.29	19.1	-26.4	---	---	726.2	0.023	0.000	20.8	3	1
03/11/06	9:55 a	-15.1	-15.0	-15.1	---	---	18.3	SSE	0.30	21.7	-26.6	---	---	726.2	0.023	0.000	20.8	3	1
03/11/06	9:56 a	-15.0	-15.0	-15.1	---	---	17.4	SE	0.29	20.9	-26.3	---	---	726.1	0.023	0.000	20.8	3	1
03/11/06	9:57 a	-15.0	-14.9	-15.0	---	---	16.5	SE	0.28	19.1	-26.1	---	---	726.2	0.023	0.000	20.8	3	1
03/11/06	9:58 a	-14.9	-14.9	-15.0	---	---	18.3	SE	0.30	21.7	-26.4	---	---	726.2	0.023	0.000	20.8	3	1
03/11/06	9:59 a	-14.9	-14.9	-14.9	---	---	19.1	SE	0.32	23.5	-26.7	---	---	726.1	0.023	0.000	20.8	3	1
03/11/06	10:00 a	-14.9	-14.9	-14.9	---	---	20.0	SE	0.33	23.5	-26.8	---	---	726.2	0.023	0.000	20.8	3	1
03/11/06	10:01 a	-14.9	-14.8	-14.9	---	---	18.3	SSE	0.30	20.9	-26.4	---	---	726.3	0.023	0.000	20.8	3	1
03/11/06	10:02 a	-14.8	-14.8	-14.9	---	---	21.7	SSE	0.36	25.2	-27.2	---	---	726.2	0.023	0.000	20.8	3	1
03/11/06	10:03 a	-14.8	-14.8	-14.8	---	---	20.0	SSE	0.33	24.3	-26.8	---	---	726.2	0.023	0.000	20.8	3	1
03/11/06	10:04 a	-14.8	-14.8	-14.8	---	---	19.1	SE	0.32	26.1	-26.4	---	---	726.1	0.023	0.000	20.8	3	1
03/11/06	10:05 a	-14.8	-14.7	-14.8	---	---	20.0	SSE	0.33	26.1	-26.7	---	---	726.1	0.023	0.000	20.8	3	1
03/11/06	10:06 a	-14.7	-14.7	-14.8	---	---	27.0	SSE	0.45	31.3	-28.1	---	---	726.1	0.023	0.000	20.8	3	1
03/11/06	10:07 a	-14.7	-14.6	-14.7	---	---	27.0	S	0.45	29.6	-28.1	---	---	726.1	0.023	0.000	20.8	3	1
03/11/06	10:08 a	-14.6	-14.6	-14.7	---	---	28.7	S	0.48	33.0	-28.3	---	---	726.2	0.023	0.000	20.8	3	1
03/11/06	10:09 a	-14.6	-14.6	-14.6	---	---	25.2	SSE	0.42	29.6	-27.6	---	---	726.2	0.023	0.000	20.8	3	1
03/11/06	10:10 a	-14.6	-14.6	-14.6	---	---	25.2	S	0.42	31.3	-27.6	---	---	726.1	0.023	0.000	20.8	3	1
03/11/06	10:11 a	-14.5	-14.4	-14.6	---	---	23.5	S	0.39	29.6	-27.1	---	---	726.1	0.023	0.000	20.8	3	1
03/11/06	10:12 a	-14.4	-14.4	-14.5	---	---	24.3	S	0.41	27.8	-27.2	---	---	726.2	0.023	0.000	20.8	3	1
03/11/06	10:13 a	-14.4	-14.4	-14.4	---	---	23.5	S	0.39	27.8	-27.1	---	---	726.2	0.023	0.000	20.8	3	1
03/11/06	10:14 a	-14.4	-14.4	-14.4	---	---	21.7	S	0.36	25.2	-26.6	---	---	726.2	0.023	0.000	20.8	3	1
03/11/06	10:15 a	-14.3	-14.3	-14.4	---	---	20.9	SSE	0.35	24.3	-26.3	---	---	726.2	0.023	0.000	20.8	3	1
03/11/06	10:16 a	-14.3	-14.3	-14.3	---	---	20.0	SSE	0.33	23.5	-26.1	---	---	726.2	0.023	0.000	20.8	3	1
03/11/06	10:17 a	-14.3	-14.3	-14.3	---	---	20.0	SSE	0.33	23.5	-26.1	---	---	726.1	0.023	0.000	20.8	3	1
03/11/06	10:18 a	-14.3	-14.3	-14.3	---	---	20.9	SSE	0.35	24.3	-26.2	---	---	726.3	0.023	0.000	20.8	3	1
03/11/06	10:19 a	-14.3	-14.3	-14.3	---	---	18.3	S	0.30	20.9	-25.6	---	---	726.4	0.023	0.000	20.8	3	1
03/11/06	10:20 a	-14.2	-14.2	-14.3	---	---	13.9	S	0.23	16.5	-24.2	---	---	726.4	0.023	0.000	20.8	3	1
03/11/06	10:21 a	-14.2	-14.2	-14.2	---	---	12.2	S	0.20	14.8	-23.6	---	---	726.5	0.023	0.000	20.8	3	1
03/11/06	10:22 a	-14.2	-14.2	-14.2	---	---	11.3	S	0.19	13.9	-23.3	---	---	726.6	0.023	0.000	20.8	3	1
03/11/06	10:23 a	-14.2	-14.2	-14.2	---	---	9.6	S	0.16	12.2	-22.6	---	---	726.6	0.023	0.000	20.8	3	1
03/11/06	10:24 a	-14.2	-14.2	-14.2	---	---	9.6	S	0.16	13.0	-22.6	---	---	726.6	0.023	0.000	20.8	3	1
03/11/06	10:25 a	-14.2	-14.2	-14.2	---	---	11.3	S	0.19	14.8	-23.2	---	---	726.5	0.023	0.000	20.9	3	1
03/11/06	10:26 a	-14.2	-14.2	-14.2	---	---	13.0	S	0.22	15.7	-23.9	---	---	726.5	0.023	0.000	20.9	3	1
03/11/06	10:27 a	-14.2	-14.2	-14.2	---	---	11.3	S	0.19	13.9	-23.2	---	---	726.5	0.023	0.000	20.8	3	1
03/11/06	10:28 a	-14.2	-14.2	-14.2	---	---	11.3	S	0.19	13.0	-23.2	---	---	726.6	0.023	0.000	20.8	3	1
03/11/06	10:29 a	-14.1	-14.1	-14.2	---	---	11.3	S	0.19	12.2	-23.2	---	---	726.5	0.023	0.000	20.9	3	1
03/11/06	10:30 a	-14.1	-14.1	-14.2	---	---	10.4	S	0.17	12.2	-22.8	---	---	726.6	0.023	0.000	20.9	3	1
03/11/06	10:31 a	-14.1	-14.1	-14.2	---	---	10.4	S	0.17	11.3	-22.8	---	---	726.6	0.023	0.000	20.9	3	1
03/11/06	10:32 a	-14.1	-14.1	-14.1	---	---	10.4	S	0.17	13.0	-22.8	---	---	726.6	0.023	0.000	20.9	3	1
03/11/06	10:33 a	-14.1	-14.1	-14.1	---	---	12.2	S	0.20	13.9	-23.4	---	---	726.6	0.022	0.000	20.9	3	1
03/11/06	10:34 a	-14.1	-14.1	-14.1	---	---	13.9	S	0.23	17.4	-24.0	---	---	726.7	0.022	0.000	20.9	3	1
03/11/06	10:35 a	-14.1	-14.1	-14.1	---	---	25.2	SSE	0.42	38.3	-26.9	---	---	726.5	0.022	0.000	20.9	3	1
03/11/06	10:36 a	-14.1	-14.1	-14.1	---	---	24.3	SSE	0.41	29.6	-26.7	---	---	726.3	0.022	0.000	20.9	3	1
03/11/06	10:37 a	-14.1	-14.0	-14.1	---	---	29.6	S	0.49	37.4	-27.7	---	---	726.4	0.022	0.000	20.9	3	1
03/11/06	10:38 a	-14.0	-14.0	-14.1	---	---	26.1	S	0.43	33.9	-26.9	---	---	726.6	0.022	0.000	20.9	3	1
03/11/06	10:39 a	-14.0	-14.0	-14.1	---	---	19.1	S	0.32	22.6	-25.4	---	---	726.7	0.022	0.000	20.9	3	1
03/11/06	10:40 a	-14.0	-14.0	-14.1	---	---	20.9	S	0.35	25.2	-25.8	---	---	726.7	0.022	0.000	20.9	3	1
03/11/06	10:41 a	-14.1	-14.0	-14.1	---	---	24.3	S	0.41	31.3	-26.7	---	---	726.5	0.022	0.000	20.9	3	1
03/11/06	10:42 a	-14.1	-14.1	-14.1	---	---	27.8	S	0.46	33.9	-27.4	---	---	726.6	0.022	0.000	20.9	3	1
03/11/06	10:43 a	-14.1	-14.1	-14.1	---	---	25.2	S	0.42	33.9	-26.9	---	---	726.7	0.023	0.000	20.9	3	1
03/11/06	10:44 a	-14.1	-14.1	-14.1	---	---	22.6	S	0.38	27.0	-26.3	---	---	726.7	0.022	0.000	20.9	3	1
03/11/06	10:45 a	-14.1	-14.1	-14.1	---	---	20.0	S	0.33	25.2	-25.8	---	---	726.8	0.023	0.000	20.9	3	1
03/11/06	10:46 a	-14.1	-14.1	-14.1	---	---	20.0	S	0.33	28.7	-25.8	---	---	726.7	0.023	0.000	20.9	3	1
03/11/06	10:47 a	-14.2	-14.1	-14.2	---	---	21.7	S	0.36	25.2	-26.3	---	---	726.7	0.023	0.000	20.9	3	1
03/11/06	10:48 a	-14.2	-14.2	-14.2	---	---	20.0	S	0.33	22.6	-25.9	---	---	726.6	0.023	0.000	20.9	3	1
03/11/06	10:49 a	-14.2	-14.2	-14.2	---	---	20.9	S	0.35	24.3	-26.1	---	---	726.7	0.023	0.000	20.9	3	1
03/11/06	10:50 a	-14.2	-14.2	-14.2	---	---	18.3	S	0.30	25.2	-25.4	---	---	726.7	0.023	0.000	20.9	3	1
03/11/06	10:51 a	-14.2	-14.2	-14.2	---	---	23.5	S	0.39	27.0	-26.7	---	---	726.6	0.023	0.000	20.9	3	1
03/11/06	10:52 a	-14.2	-14.2	-14.2	---	---	22.6	S	0.38	27.0	-26.6	---	---	726.7	0.023	0.000	20.9	3	1
03/11/06	10:53 a	-14.2	-14.2	-14.2	---	---	21.7	S	0.36	27.8	-26.3	---	---	726.5	0.023	0.000	20.9	3	1
03/11/06	10:54 a	-14.2	-14.2	-14.3	---	---	22.6	S	0.38	26.1	-26.6	---	---	726.7	0.023	0.000	20.9	3	1
03/11/06	10:55 a	-14.3	-14.2	-14.3	---	---	21.7	S	0.36	26.1	-26.4	---	---	726.6	0.023	0.000	20.9	3	1
03/11/06	10:56 a	-14.3	-14.3	-14.3	---	---	23.5	S	0.39	27.0	-26.8	---	---	726.6	0.023	0.000	20.9	3	1
03/11/06	10:57 a	-14.3	-14.3	-14.3	---	---	23.5	S	0.39	27.8	-26.8	---	---	726.7	0.023	0.000	20.9	3	1
03/11/06	10:58 a	-14.3	-14.3	-14.3	---	---	23.5	S	0.39	27.0	-26.9	---	---	726.7	0.023	0.000	20.9	3	1
03/11/06	10:59 a	-14.3	-14.3	-14.3	---	---	19.1	S	0.32	24.3	-25.9	---	---	726.7	0.023	0.000	20.9	3	1
03/11/06	11:00 a	-14.3	-14.3	-14.3	---	---	18.3	S	0.30	23.5	-25.7	---	---	726.6	0.023	0.000	20.9	3	1
03/11/06	11:01 a	-14.3	-14.3	-14.4	---	---	20.0	S	0.33	23.5	-26.1	---	---	726.6	0.023	0.000	20.9	3	1
03/11/06	11:02 a	-14.3	-14.3	-14.4	---	---	19.1	S	0.32	23.5	-25.9	---	---	726.7	0.023	0.000	20.9	3	1
03/11/06	11:03 a	-14.4	-14.4	-14.4	---	---	18.3	S	0.30	20.9	-25.7	---	---	726.5	0.023	0.000	20.9	3	1
03/11/06	11:04 a	-14.4	-14.4	-14.4	---	---	18.3	S	0.30	21.7	-25.7	---	---	726.6	0.023	0.000	20.9	3	1
03/11/06	11:05 a	-14.4	-14.4	-14.4	---	---	20.9	S	0.35	24.3	-26.4	---	---	726.4	0.023	0.000	20.9	3	1
03/11/06	11:06 a	-14.4	-14.4	-14.4	---	---	20.9	S	0.35	24.3	-26.4	---	---	726.5	0.023	0.000	20.9	3	1
03/11/06	11:07 a	-14.4	-14.4	-14.4	---	---	20.0	S	0.33	22.6	-26.2	---	---	726.5	0.023	0.000	20.9	3	1
03/11/06	11:08 a	-14.4	-14.4	-14.4	---	---	20.0	S	0.33	22.6	-26.2	---	---	726.4	0.023	0.000	20.9	3	1
03/11/06	11:09 a	-14.4	-14.4	-14.4	---	---	21.7	S	0.36	27.0	-26.7	---	---	726.3	0.023	0.000	20.9	3	1
03/11/06	11:10 a	-14.4	-14.4	-14.5	---	---	19.1	SSE	0.32	23.5	-26.0	---	---	726.3	0.023	0.000	20.9	3	1
03/11/06	11:11 a	-14.5	-14.4	-14.5	---	---	21.7	SSE	0.36	24.3	-26.7	---	---	726.3	0.023	0.000	20.9	3	1
03/11/06	11:12 a	-14.5	-14.4	-14.5	---	---	20.9	SSE	0.35	23.5	-26.5	---	---	726.0	0.023	0.000	20.9	3	1
03/11/06	11:13 a	-14.5	-14.5	-14.5	---	---	21.7	SSE	0.36	23.5	-26.7	---	---	726.0	0.023	0.000	20.9	3	1
03/11/06	11:14 a	-14.5	-14.5	-14.5	---	---	22.6	SSE	0.38	25.2	-26.9	---	---	726.0	0.023	0.000	20.9	3	1
03/11/06	11:15 a	-14.5	-14.5	-14.6	---	---	23.5	SSE	0.39	27.0	-27.1	---	---	725.9	0.023	0.000	20.9	3	1
03/11/06	11:16 a	-14.5	-14.5	-14.5	---	---	25.2	SE	0.42	28.7	-27.4	---	---	725.9	0.023	0.000	20.9	3	1
03/11/06	11:17 a	-14.6	-14.6	-14.6	---	---	21.7	SE	0.36	27.8	-26.8	---	---	725.8	0.023	0.000	20.9	3	1
03/11/06	11:18 a	-14.6	-14.5	-14.6	---	---	27.8	SE	0.46	30.4	-28.1	---	---	725.7	0.023	0.000	20.9	3	1
03/11/06	11:19 a	-14.6	-14.5	-14.6	---	---	29.6	SE	0.49	33.9	-28.3	---	---	725.4	0.023	0.000	20.9	3	1
03/11/06	11:20 a	-14.6	-14.6	-14.6	---	---	28.7	SE	0.48	32.2	-28.2	---	---	725.6	0.023	0.000	20.9	3	1
03/11/06	11:21 a	-14.6	-14.6	-14.6	---	---	27.8	SE	0.46	33.0	-28.1	---	---	725.7	0.023	0.000	20.9	3	1
03/11/06	11:22 a	-14.6	-14.6	-14.6	---	---	27.8	ESE	0.46	31.3	-28.1	---	---	725.7	0.023	0.000	20.9	3	1
03/11/06	11:23 a	-14.6	-14.6	-14.6	---	---	30.4	SE	0.51	33.9	-28.6	---	---	725.6	0.023	0.000	20.9	3	1
03/11/06	11:24 a	-14.6	-14.6	-14.6	---	---	29.6	SE	0.49	33.0	-28.4	---	---	725.6	0.023	0.000	20.9	3	1
03/11/06	11:25 a	-14.6	-14.6	-14.7	---	---	29.6	SE	0.49	33.0	-28.4	---	---	725.5	0.023	0.000	20.9	3	1
03/11/06	11:26 a	-14.6	-14.6	-14.7	---	---	28.7	SE	0.48	31.3	-28.3	---	---	725.5	0.023	0.000	20.9	3	1
03/11/06	11:27 a	-14.7	-14.6	-14.7	---	---	33.0	SE	0.55	39.1	-29.1	---	---	725.3	0.023	0.000	20.9	3	1
03/11/06	11:28 a	-14.7	-14.6	-14.7	---	---	31.3	ESE	0.52	34.8	-28.8	---	---	725.4	0.023	0.000	20.9	3	1
03/11/06	11:29 a	-14.7	-14.7	-14.7	---	---	29.6	SE	0.49	30.4	-28.5	---	---	725.6	0.023	0.000	20.9	3	1
03/11/06	11:30 a	-14.7	-14.7	-14.7	---	---	30.4	SE	0.51	37.4	-28.7	---	---	725.4	0.023	0.000	20.9	3	1
03/11/06	11:31 a	-14.7	-14.7	-14.7	---	---	28.7	SE	0.48	34.8	-28.3	---	---	725.6	0.023	0.000	20.9	3	1
03/11/06	11:32 a	-14.7	-14.7	-14.7	---	---	27.8	SE	0.46	31.3	-28.2	---	---	725.6	0.023	0.000	20.9	3	1
03/11/06	11:33 a	-14.7	-14.7	-14.7	---	---	29.6	ESE	0.49	32.2	-28.6	---	---	725.6	0.023	0.000	20.9	3	1
03/11/06	11:34 a	-14.7	-14.7	-14.7	---	---	30.4	ESE	0.51	33.0	-28.7	---	---	725.5	0.023	0.000	20.9	3	1
03/11/06	11:35 a	-14.7	-14.7	-14.8	---	---	31.3	ESE	0.52	34.8	-28.9	---	---	725.3	0.023	0.000	20.9	3	1
03/11/06	11:36 a	-14.8	-14.8	-14.8	---	---	31.3	ESE	0.52	36.5	-28.9	---	---	725.7	0.023	0.000	20.9	3	1
03/11/06	11:37 a	-14.8	-14.8	-14.8	---	---	25.2	ESE	0.42	34.8	-27.8	---	---	725.7	0.023	0.000	20.8	3	1
03/11/06	11:38 a	-14.8	-14.8	-14.8	---	---	26.1	ESE	0.43	30.4	-28.0	---	---	725.6	0.023	0.000	20.8	3	1
03/11/06	11:39 a	-14.8	-14.8	-14.9	---	---	27.8	ESE	0.46	31.3	-28.4	---	---	725.6	0.023	0.000	20.8	3	1
03/11/06	11:40 a	-14.9	-14.9	-14.9	---	---	28.7	ESE	0.48	32.2	-28.7	---	---	725.6	0.023	0.000	20.8	3	1
03/11/06	11:41 a	-14.9	-14.9	-14.9	---	---	28.7	ESE	0.48	33.0	-28.7	---	---	725.5	0.023	0.000	20.8	3	1
03/11/06	11:42 a	-14.9	-14.9	-14.9	---	---	30.4	ESE	0.51	34.8	-28.9	---	---	725.4	0.023	0.000	20.8	3	1
03/11/06	11:43 a	-14.9	-14.9	-14.9	---	---	29.6	ESE	0.49	32.2	-28.9	---	---	725.5	0.023	0.000	20.8	3	1
03/11/06	11:44 a	-14.9	-14.9	-15.0	---	---	30.4	ESE	0.51	33.0	-29.1	---	---	725.5	0.023	0.000	20.8	3	1
03/11/06	11:45 a	-14.9	-14.9	-15.0	---	---	30.4	ESE	0.51	33.9	-29.1	---	---	725.6	0.023	0.000	20.8	3	1
03/11/06	11:46 a	-15.0	-15.0	-15.1	---	---	30.4	ESE	0.51	33.0	-29.1	---	---	725.4	0.023	0.000	20.8	3	1
03/11/06	11:47 a	-15.0	-15.0	-15.1	---	---	30.4	ESE	0.51	32.2	-29.1	---	---	725.4	0.023	0.000	20.8	3	1
03/11/06	11:48 a	-15.1	-15.1	-15.1	---	---	33.0	ESE	0.55	37.4	-29.6	---	---	725.4	0.023	0.000	20.8	3	1
03/11/06	11:49 a	-15.1	-15.1	-15.1	---	---	27.8	ESE	0.46	28.7	-28.7	---	---	725.5	0.023	0.000	20.8	3	1
03/11/06	11:50 a	-15.1	-15.1	-15.1	---	---	31.3	ESE	0.52	33.9	-29.4	---	---	725.2	0.023	0.000	20.8	3	1
03/11/06	11:51 a	-15.2	-15.1	-15.2	---	---	29.6	E	0.49	32.2	-29.2	---	---	725.4	0.023	0.000	20.8	3	1
03/11/06	11:52 a	-15.2	-15.2	-15.2	---	---	32.2	ESE	0.54	33.9	-29.7	---	---	725.4	0.023	0.000	20.8	3	1
03/11/06	11:53 a	-15.2	-15.2	-15.3	---	---	30.4	ESE	0.51	33.0	-29.4	---	---	725.6	0.023	0.000	20.8	3	1
03/11/06	11:54 a	-15.3	-15.2	-15.3	---	---	27.8	ESE	0.46	30.4	-29.1	---	---	725.4	0.023	0.000	20.7	4	1
03/11/06	11:55 a	-15.3	-15.3	-15.3	---	---	24.3	E	0.41	27.0	-28.3	---	---	725.4	0.023	0.000	20.7	3	1
03/11/06	11:56 a	-15.3	-15.3	-15.3	---	---	26.1	ESE	0.43	28.7	-28.8	---	---	725.3	0.023	0.000	20.7	3	1
03/11/06	11:57 a	-15.3	-15.3	-15.3	---	---	27.0	ESE	0.45	29.6	-28.9	---	---	725.6	0.023	0.000	20.8	3	1
03/11/06	11:58 a	-15.3	-15.3	-15.3	---	---	26.1	ESE	0.43	28.7	-28.8	---	---	725.4	0.023	0.000	20.7	3	1
03/11/06	11:59 a	-15.3	-15.3	-15.4	---	---	27.0	E	0.45	29.6	-28.9	---	---	725.4	0.023	0.000	20.7	3	1
03/11/06	12:00 p	-15.4	-15.4	-15.4	---	---	28.7	E	0.48	30.4	-29.3	---	---	725.4	0.023	0.000	20.7	3	1
03/11/06	12:01 p	-15.4	-15.4	-15.4	---	---	26.1	E	0.43	29.6	-28.8	---	---	725.4	0.023	0.000	20.7	3	1
03/11/06	12:02 p	-15.4	-15.4	-15.4	---	---	28.7	E	0.48	30.4	-29.4	---	---	725.4	0.023	0.000	20.8	3	1
03/11/06	12:03 p	-15.4	-15.4	-15.4	---	---	27.0	ESE	0.45	28.7	-29.1	---	---	725.3	0.023	0.000	20.8	4	1
03/11/06	12:04 p	-15.4	-15.4	-15.4	---	---	26.1	E	0.43	28.7	-28.9	---	---	725.4	0.023	0.000	20.8	3	1
03/11/06	12:05 p	-15.4	-15.4	-15.4	---	---	27.0	ESE	0.45	28.7	-29.1	---	---	725.3	0.023	0.000	20.8	3	1
03/11/06	12:06 p	-15.5	-15.5	-15.5	---	---	26.1	E	0.43	29.6	-29.0	---	---	725.4	0.023	0.000	20.8	3	1
03/11/06	12:07 p	-15.5	-15.4	-15.5	---	---	25.2	E	0.42	27.0	-28.8	---	---	725.4	0.023	0.000	20.8	3	1
03/11/06	12:08 p	-15.5	-15.5	-15.6	---	---	25.2	E	0.42	29.6	-28.8	---	---	725.4	0.023	0.000	20.8	3	1
03/11/06	12:09 p	-15.5	-15.5	-15.6	---	---	26.1	E	0.43	27.8	-29.0	---	---	725.4	0.023	0.000	20.8	3	1
03/11/06	12:10 p	-15.6	-15.6	-15.6	---	---	25.2	E	0.42	28.7	-28.9	---	---	725.4	0.024	0.000	20.8	3	1
03/11/06	12:11 p	-15.6	-15.6	-15.6	---	---	23.5	E	0.39	27.8	-28.6	---	---	725.4	0.024	0.000	20.8	3	1
03/11/06	12:12 p	-15.6	-15.6	-15.6	---	---	25.2	E	0.42	27.0	-28.9	---	---	725.4	0.024	0.000	20.8	3	1
03/11/06	12:13 p	-15.6	-15.6	-15.6	---	---	23.5	E	0.39	27.0	-28.6	---	---	725.4	0.024	0.000	20.8	3	1
03/11/06	12:14 p	-15.6	-15.6	-15.6	---	---	25.2	ESE	0.42	28.7	-29.0	---	---	725.5	0.024	0.000	20.8	3	1
03/11/06	12:15 p	-15.6	-15.6	-15.6	---	---	21.7	E	0.36	25.2	-28.2	---	---	725.6	0.024	0.000	20.8	3	1
03/11/06	12:16 p	-15.6	-15.6	-15.6	---	---	20.9	ESE	0.35	26.1	-28.0	---	---	725.5	0.024	0.000	20.8	3	1
03/11/06	12:17 p	-15.6	-15.6	-15.6	---	---	25.2	ESE	0.42	27.0	-29.0	---	---	725.5	0.024	0.000	20.8	3	1
03/11/06	12:18 p	-15.6	-15.6	-15.6	---	---	20.9	E	0.35	27.0	-28.0	---	---	725.5	0.024	0.000	20.8	3	1
03/11/06	12:19 p	-15.6	-15.6	-15.7	---	---	27.8	ESE	0.46	35.7	-29.5	---	---	725.4	0.024	0.000	20.8	3	1
03/11/06	12:20 p	-15.6	-15.6	-15.7	---	---	23.5	E	0.39	26.1	-28.6	---	---	725.4	0.024	0.000	20.8	3	1
03/11/06	12:21 p	-15.7	-15.6	-15.7	---	---	25.2	ESE	0.42	32.2	-29.1	---	---	725.5	0.024	0.000	20.8	3	1
03/11/06	12:22 p	-15.6	-15.6	-15.7	---	---	20.9	ESE	0.35	24.3	-28.0	---	---	725.4	0.024	0.000	20.8	3	1
03/11/06	12:23 p	-15.7	-15.7	-15.7	---	---	25.2	ESE	0.42	28.7	-29.1	---	---	725.4	0.024	0.000	20.8	3	1
03/11/06	12:24 p	-15.6	-15.6	-15.7	---	---	27.0	ESE	0.45	27.8	-29.3	---	---	725.4	0.024	0.000	20.8	3	1
03/11/06	12:25 p	-15.7	-15.6	-15.7	---	---	25.2	ESE	0.42	32.2	-29.1	---	---	725.5	0.024	0.000	20.7	3	1
03/11/06	12:26 p	-15.6	-15.6	-15.7	---	---	23.5	ESE	0.39	25.2	-28.6	---	---	725.6	0.024	0.000	20.8	3	1
03/11/06	12:27 p	-15.7	-15.7	-15.7	---	---	24.3	ESE	0.41	26.1	-28.9	---	---	725.5	0.024	0.000	20.7	3	1
03/11/06	12:28 p	-15.6	-15.6	-15.7	---	---	25.2	ESE	0.42	26.1	-29.0	---	---	725.5	0.024	0.000	20.7	3	1
03/11/06	12:29 p	-15.6	-15.6	-15.7	---	---	25.2	ESE	0.42	27.0	-29.0	---	---	725.5	0.024	0.000	20.7	3	1
03/11/06	12:30 p	-15.6	-15.6	-15.7	---	---	23.5	E	0.39	25.2	-28.6	---	---	725.6	0.024	0.000	20.7	3	1
03/11/06	12:31 p	-15.7	-15.6	-15.7	---	---	23.5	E	0.39	25.2	-28.7	---	---	725.6	0.024	0.000	20.7	3	1
03/11/06	12:32 p	-15.7	-15.6	-15.7	---	---	22.6	ESE	0.38	24.3	-28.5	---	---	725.8	0.024	0.000	20.7	3	1
03/11/06	12:33 p	-15.7	-15.6	-15.7	---	---	22.6	E	0.38	26.1	-28.5	---	---	725.7	0.024	0.000	20.7	3	1
03/11/06	12:34 p	-15.6	-15.6	-15.7	---	---	22.6	ESE	0.38	25.2	-28.4	---	---	725.7	0.024	0.000	20.7	3	1
03/11/06	12:35 p	-15.6	-15.6	-15.7	---	---	24.3	ESE	0.41	27.8	-28.8	---	---	725.6	0.024	0.000	20.7	3	1
03/11/06	12:36 p	-15.6	-15.6	-15.7	---	---	26.1	ESE	0.43	27.8	-29.2	---	---	725.5	0.024	0.000	20.7	3	1
03/11/06	12:37 p	-15.7	-15.7	-15.7	---	---	24.3	ESE	0.41	27.8	-28.9	---	---	725.5	0.024	0.000	20.7	3	1
03/11/06	12:38 p	-15.7	-15.7	-15.7	---	---	23.5	E	0.39	27.8	-28.7	---	---	725.5	0.024	0.000	20.7	3	1
03/11/06	12:39 p	-15.6	-15.6	-15.7	---	---	23.5	ESE	0.39	29.6	-28.6	---	---	725.4	0.024	0.000	20.7	3	1
03/11/06	12:40 p	-15.7	-15.7	-15.7	---	---	25.2	E	0.42	27.8	-29.1	---	---	725.5	0.024	0.000	20.7	3	1
03/11/06	12:41 p	-15.7	-15.7	-15.7	---	---	24.3	E	0.41	30.4	-28.9	---	---	725.6	0.024	0.000	20.7	3	1
03/11/06	12:42 p	-15.7	-15.7	-15.7	---	---	29.6	ESE	0.49	33.0	-29.9	---	---	725.5	0.024	0.000	20.7	3	1
03/11/06	12:43 p	-15.7	-15.7	-15.7	---	---	23.5	SE	0.39	33.0	-28.7	---	---	725.7	0.024	0.000	20.7	3	1
03/11/06	12:44 p	-15.7	-15.7	-15.7	---	---	21.7	ESE	0.36	24.3	-28.3	---	---	725.7	0.024	0.000	20.7	3	1
03/11/06	12:45 p	-15.7	-15.7	-15.7	---	---	21.7	ESE	0.36	27.0	-28.3	---	---	725.6	0.024	0.000	20.7	3	1
03/11/06	12:46 p	-15.7	-15.6	-15.7	---	---	20.0	ESE	0.33	23.5	-27.9	---	---	725.8	0.024	0.000	20.7	3	1
03/11/06	12:47 p	-15.7	-15.7	-15.7	---	---	18.3	ESE	0.30	20.0	-27.4	---	---	725.8	0.024	0.000	20.7	3	1
03/11/06	12:48 p	-15.7	-15.7	-15.7	---	---	18.3	ESE	0.30	19.1	-27.4	---	---	725.9	0.024	0.000	20.7	3	1
03/11/06	12:49 p	-15.7	-15.7	-15.7	---	---	17.4	SE	0.29	20.0	-27.2	---	---	725.8	0.024	0.000	20.7	3	1
03/11/06	12:50 p	-15.7	-15.7	-15.7	---	---	20.0	SE	0.33	22.6	-27.9	---	---	725.8	0.024	0.000	20.7	3	1
03/11/06	12:51 p	-15.7	-15.6	-15.7	---	---	18.3	ESE	0.30	21.7	-27.4	---	---	726.0	0.024	0.000	20.7	3	1
03/11/06	12:52 p	-15.7	-15.6	-15.7	---	---	16.5	ESE	0.28	19.1	-26.9	---	---	725.8	0.024	0.000	20.7	3	1
03/11/06	12:53 p	-15.7	-15.7	-15.7	---	---	18.3	SE	0.30	20.0	-27.4	---	---	725.8	0.024	0.000	20.7	3	1
03/11/06	12:54 p	-15.7	-15.6	-15.7	---	---	22.6	SSE	0.38	25.2	-28.5	---	---	725.7	0.024	0.000	20.7	3	1
03/11/06	12:55 p	-15.7	-15.6	-15.7	---	---	20.0	SSE	0.33	26.1	-27.9	---	---	725.9	0.024	0.000	20.7	3	1
03/11/06	12:56 p	-15.6	-15.6	-15.7	---	---	20.9	SE	0.35	24.3	-28.0	---	---	725.8	0.024	0.000	20.7	3	1
03/11/06	12:57 p	-15.6	-15.6	-15.7	---	---	18.3	SE	0.30	20.9	-27.3	---	---	725.9	0.024	0.000	20.7	3	1
03/11/06	12:58 p	-15.6	-15.6	-15.7	---	---	20.9	SE	0.35	23.5	-28.0	---	---	725.8	0.024	0.000	20.7	3	1
03/11/06	12:59 p	-15.6	-15.6	-15.6	---	---	18.3	SSE	0.30	22.6	-27.3	---	---	725.8	0.024	0.000	20.7	3	1
03/11/06	1:00 p	-15.6	-15.6	-15.6	---	---	19.1	SE	0.32	20.9	-27.6	---	---	725.7	0.024	0.000	20.7	3	1
03/11/06	1:01 p	-15.6	-15.6	-15.6	---	---	19.1	SE	0.32	23.5	-27.6	---	---	725.8	0.024	0.000	20.7	3	1
03/11/06	1:02 p	-15.6	-15.6	-15.6	---	---	20.0	SE	0.33	23.5	-27.7	---	---	725.7	0.024	0.000	20.7	3	1
03/11/06	1:03 p	-15.6	-15.6	-15.6	---	---	21.7	SE	0.36	26.1	-28.1	---	---	725.6	0.024	0.000	20.7	3	1
03/11/06	1:04 p	-15.6	-15.6	-15.6	---	---	23.5	SE	0.39	29.6	-28.6	---	---	725.7	0.024	0.000	20.7	3	1
03/11/06	1:05 p	-15.6	-15.5	-15.6	---	---	19.1	SE	0.32	22.6	-27.5	---	---	725.7	0.024	0.000	20.7	3	1
03/11/06	1:06 p	-15.5	-15.5	-15.5	---	---	18.3	SE	0.30	20.9	-27.2	---	---	725.7	0.023	0.000	20.7	3	1
03/11/06	1:07 p	-15.5	-15.5	-15.6	---	---	19.1	ESE	0.32	23.5	-27.4	---	---	725.6	0.023	0.000	20.7	3	1
03/11/06	1:08 p	-15.5	-15.5	-15.6	---	---	16.5	ESE	0.28	17.4	-26.7	---	---	725.7	0.023	0.000	20.7	3	1
03/11/06	1:09 p	-15.5	-15.5	-15.5	---	---	15.7	SE	0.26	19.1	-26.4	---	---	725.6	0.023	0.000	20.7	3	1
03/11/06	1:10 p	-15.5	-15.5	-15.5	---	---	19.1	SE	0.32	21.7	-27.4	---	---	725.7	0.023	0.000	20.7	3	1
03/11/06	1:11 p	-15.5	-15.4	-15.5	---	---	16.5	ESE	0.28	18.3	-26.7	---	---	725.7	0.023	0.000	20.7	3	1
03/11/06	1:12 p	-15.4	-15.4	-15.5	---	---	17.4	ESE	0.29	24.3	-26.9	---	---	725.7	0.023	0.000	20.7	3	1
03/11/06	1:13 p	-15.5	-15.4	-15.6	---	---	20.9	ESE	0.35	24.3	-27.8	---	---	725.7	0.023	0.000	20.7	3	1
03/11/06	1:14 p	-15.4	-15.4	-15.5	---	---	18.3	ESE	0.30	20.0	-27.1	---	---	725.7	0.023	0.000	20.7	3	1
03/11/06	1:15 p	-15.5	-15.4	-15.5	---	---	21.7	ESE	0.36	26.1	-28.1	---	---	725.5	0.023	0.000	20.7	3	1
03/11/06	1:16 p	-15.5	-15.5	-15.5	---	---	20.0	E	0.33	26.1	-27.7	---	---	725.4	0.023	0.000	20.7	3	1
03/11/06	1:17 p	-15.4	-15.4	-15.5	---	---	16.5	E	0.28	23.5	-26.6	---	---	725.5	0.023	0.000	20.7	3	1
03/11/06	1:18 p	-15.5	-15.5	-15.6	---	---	22.6	ESE	0.38	27.8	-28.3	---	---	725.4	0.023	0.000	20.7	3	1
03/11/06	1:19 p	-15.5	-15.5	-15.5	---	---	19.1	E	0.32	23.5	-27.4	---	---	725.3	0.023	0.000	20.7	3	1
03/11/06	1:20 p	-15.5	-15.4	-15.5	---	---	21.7	E	0.36	24.3	-28.1	---	---	725.4	0.023	0.000	20.7	3	1
03/11/06	1:21 p	-15.5	-15.5	-15.5	---	---	22.6	ESE	0.38	27.0	-28.3	---	---	725.3	0.023	0.000	20.7	3	1
03/11/06	1:22 p	-15.5	-15.5	-15.5	---	---	22.6	ESE	0.38	24.3	-28.3	---	---	725.3	0.023	0.000	20.7	3	1
03/11/06	1:23 p	-15.5	-15.5	-15.5	---	---	24.3	E	0.41	33.0	-28.7	---	---	725.1	0.023	0.000	20.7	3	1
03/11/06	1:24 p	-15.5	-15.4	-15.5	---	---	20.0	E	0.33	28.7	-27.7	---	---	725.3	0.023	0.000	20.7	3	1
03/11/06	1:25 p	-15.5	-15.4	-15.5	---	---	23.5	E	0.39	27.8	-28.4	---	---	725.3	0.023	0.000	20.7	3	1
03/11/06	1:26 p	-15.5	-15.5	-15.5	---	---	23.5	E	0.39	29.6	-28.4	---	---	725.3	0.023	0.000	20.7	3	1
03/11/06	1:27 p	-15.5	-15.4	-15.5	---	---	21.7	E	0.36	29.6	-28.1	---	---	725.1	0.023	0.000	20.7	3	1
03/11/06	1:28 p	-15.5	-15.5	-15.5	---	---	23.5	E	0.39	32.2	-28.4	---	---	725.1	0.023	0.000	20.8	3	1
03/11/06	1:29 p	-15.5	-15.4	-15.5	---	---	27.8	E	0.46	40.0	-29.3	---	---	725.0	0.023	0.000	20.8	4	1
03/11/06	1:30 p	-15.5	-15.5	-15.5	---	---	23.5	ENE	0.39	33.0	-28.4	---	---	725.2	0.023	0.000	20.8	3	1
03/11/06	1:31 p	-15.5	-15.5	-15.5	---	---	27.0	ESE	0.45	33.9	-29.2	---	---	725.1	0.023	0.000	20.8	3	1
03/11/06	1:32 p	-15.5	-15.5	-15.5	---	---	28.7	ESE	0.48	33.0	-29.5	---	---	725.1	0.023	0.000	20.8	3	1
03/11/06	1:33 p	-15.4	-15.4	-15.5	---	---	23.5	E	0.39	30.4	-28.4	---	---	725.1	0.023	0.000	20.8	3	1
03/11/06	1:34 p	-15.4	-15.4	-15.5	---	---	27.0	ESE	0.45	33.9	-29.1	---	---	725.2	0.023	0.000	20.8	3	1
03/11/06	1:35 p	-15.5	-15.4	-15.5	---	---	22.6	E	0.38	29.6	-28.3	---	---	725.4	0.023	0.000	20.8	3	1
03/11/06	1:36 p	-15.4	-15.4	-15.4	---	---	22.6	E	0.38	25.2	-28.2	---	---	725.2	0.023	0.000	20.8	3	1
03/11/06	1:37 p	-15.5	-15.4	-15.5	---	---	22.6	E	0.38	25.2	-28.3	---	---	725.2	0.023	0.000	20.8	3	1
03/11/06	1:38 p	-15.4	-15.4	-15.5	---	---	25.2	E	0.42	31.3	-28.7	---	---	725.3	0.023	0.000	20.8	3	1
03/11/06	1:39 p	-15.5	-15.4	-15.5	---	---	24.3	ESE	0.41	27.0	-28.7	---	---	725.1	0.023	0.000	20.8	3	1
03/11/06	1:40 p	-15.5	-15.5	-15.5	---	---	25.2	E	0.42	30.4	-28.8	---	---	725.1	0.023	0.000	20.8	3	1
03/11/06	1:41 p	-15.5	-15.5	-15.5	---	---	27.8	E	0.46	30.4	-29.3	---	---	725.1	0.023	0.000	20.8	3	1
03/11/06	1:42 p	-15.5	-15.5	-15.5	---	---	25.2	E	0.42	33.9	-28.8	---	---	725.4	0.023	0.000	20.8	3	1
03/11/06	1:43 p	-15.5	-15.5	-15.6	---	---	23.5	E	0.39	27.8	-28.4	---	---	725.4	0.023	0.000	20.8	3	1
03/11/06	1:44 p	-15.6	-15.6	-15.6	---	---	24.3	E	0.41	27.0	-28.7	---	---	725.3	0.024	0.000	20.8	3	1
03/11/06	1:45 p	-15.6	-15.6	-15.6	---	---	23.5	E	0.39	28.7	-28.6	---	---	725.2	0.024	0.000	20.8	3	1
03/11/06	1:46 p	-15.6	-15.6	-15.6	---	---	23.5	E	0.39	27.0	-28.6	---	---	725.3	0.024	0.000	20.8	3	1
03/11/06	1:47 p	-15.6	-15.6	-15.6	---	---	27.0	E	0.45	31.3	-29.3	---	---	725.1	0.024	0.000	20.8	3	1
03/11/06	1:48 p	-15.6	-15.6	-15.6	---	---	27.8	E	0.46	32.2	-29.5	---	---	725.0	0.024	0.000	20.8	3	1
03/11/06	1:49 p	-15.6	-15.6	-15.7	---	---	27.0	E	0.45	32.2	-29.3	---	---	724.9	0.024	0.000	20.8	3	1
03/11/06	1:50 p	-15.7	-15.6	-15.7	---	---	27.0	E	0.45	29.6	-29.4	---	---	724.8	0.024	0.000	20.8	3	1
03/11/06	1:51 p	-15.7	-15.7	-15.7	---	---	27.8	E	0.46	31.3	-29.6	---	---	725.0	0.024	0.000	20.8	3	1
03/11/06	1:52 p	-15.7	-15.7	-15.7	---	---	27.8	E	0.46	35.7	-29.6	---	---	724.7	0.024	0.000	20.8	3	1
03/11/06	1:53 p	-15.7	-15.7	-15.8	---	---	33.0	E	0.55	37.4	-30.6	---	---	724.6	0.024	0.000	20.8	3	1
03/11/06	1:54 p	-15.8	-15.7	-15.8	---	---	33.0	E	0.55	38.3	-30.6	---	---	724.3	0.024	0.000	20.8	3	1
03/11/06	1:55 p	-15.8	-15.8	-15.8	---	---	34.8	ESE	0.58	39.1	-30.9	---	---	724.5	0.024	0.000	20.8	3	1
03/11/06	1:56 p	-15.8	-15.8	-15.8	---	---	33.0	ESE	0.55	35.7	-30.7	---	---	724.5	0.024	0.000	20.8	3	1
03/11/06	1:57 p	-15.8	-15.8	-15.8	---	---	33.0	ESE	0.55	35.7	-30.7	---	---	724.5	0.024	0.000	20.8	3	1
03/11/06	1:58 p	-15.8	-15.8	-15.8	---	---	33.9	E	0.57	35.7	-30.8	---	---	724.5	0.024	0.000	20.8	3	1
03/11/06	1:59 p	-15.9	-15.8	-15.9	---	---	33.9	E	0.57	44.3	-30.9	---	---	724.2	0.024	0.000	20.8	3	1
03/11/06	2:00 p	-15.9	-15.9	-15.9	---	---	32.2	ESE	0.54	36.5	-30.7	---	---	724.6	0.024	0.000	20.8	3	1
03/11/06	2:01 p	-15.9	-15.9	-15.9	---	---	32.2	ESE	0.54	34.8	-30.7	---	---	724.5	0.024	0.000	20.8	3	1
03/11/06	2:02 p	-15.9	-15.9	-15.9	---	---	33.0	ESE	0.55	34.8	-30.8	---	---	724.6	0.024	0.000	20.8	3	1
03/11/06	2:03 p	-15.9	-15.9	-15.9	---	---	32.2	E	0.54	35.7	-30.7	---	---	724.7	0.024	0.000	20.8	3	1
03/11/06	2:04 p	-15.9	-15.9	-15.9	---	---	30.4	E	0.51	33.9	-30.4	---	---	724.7	0.024	0.000	20.8	3	1
03/11/06	2:05 p	-16.0	-15.9	-16.0	---	---	27.8	E	0.46	33.0	-30.0	---	---	724.5	0.024	0.000	20.8	3	1
03/11/06	2:06 p	-16.0	-16.0	-16.0	---	---	29.6	E	0.49	33.0	-30.3	---	---	724.7	0.024	0.000	20.8	3	1
03/11/06	2:07 p	-16.0	-16.0	-16.0	---	---	30.4	E	0.51	34.8	-30.5	---	---	724.6	0.024	0.000	20.8	3	1
03/11/06	2:08 p	-16.0	-16.0	-16.0	---	---	29.6	E	0.49	35.7	-30.3	---	---	724.6	0.024	0.000	20.8	3	1
03/11/06	2:09 p	-16.0	-16.0	-16.1	---	---	29.6	E	0.49	32.2	-30.3	---	---	724.4	0.024	0.000	20.8	3	1
03/11/06	2:10 p	-16.0	-16.0	-16.1	---	---	29.6	E	0.49	33.9	-30.3	---	---	724.4	0.024	0.000	20.8	3	1
03/11/06	2:11 p	-16.1	-16.0	-16.1	---	---	33.0	E	0.55	39.1	-31.0	---	---	724.5	0.024	0.000	20.8	3	1
03/11/06	2:12 p	-16.1	-16.1	-16.1	---	---	32.2	E	0.54	34.8	-30.9	---	---	724.5	0.024	0.000	20.8	3	1
03/11/06	2:13 p	-16.1	-16.1	-16.1	---	---	33.9	E	0.57	39.1	-31.2	---	---	724.7	0.024	0.000	20.8	3	1
03/11/06	2:14 p	-16.1	-16.1	-16.1	---	---	30.4	E	0.51	39.1	-30.6	---	---	724.5	0.024	0.000	20.8	3	1
03/11/06	2:15 p	-16.1	-16.1	-16.1	---	---	30.4	E	0.51	37.4	-30.6	---	---	724.4	0.024	0.000	20.8	3	1
03/11/06	2:16 p	-16.1	-16.1	-16.1	---	---	34.8	E	0.58	41.7	-31.3	---	---	724.6	0.024	0.000	20.8	3	1
03/11/06	2:17 p	-16.1	-16.1	-16.1	---	---	33.9	E	0.57	36.5	-31.2	---	---	724.6	0.024	0.000	20.8	3	1
03/11/06	2:18 p	-16.1	-16.1	-16.1	---	---	35.7	ESE	0.59	38.3	-31.4	---	---	724.6	0.024	0.000	20.8	3	1
03/11/06	2:19 p	-16.1	-16.1	-16.1	---	---	33.9	ESE	0.57	35.7	-31.2	---	---	724.8	0.024	0.000	20.8	3	1
03/11/06	2:20 p	-16.1	-16.1	-16.1	---	---	27.8	E	0.46	31.3	-30.2	---	---	724.7	0.024	0.000	20.8	3	1
03/11/06	2:21 p	-16.1	-16.1	-16.1	---	---	29.6	E	0.49	34.8	-30.5	---	---	724.8	0.024	0.000	20.8	3	1
03/11/06	2:22 p	-16.1	-16.1	-16.2	---	---	30.4	ESE	0.51	33.9	-30.7	---	---	724.8	0.024	0.000	20.8	3	1
03/11/06	2:23 p	-16.2	-16.1	-16.2	---	---	30.4	ESE	0.51	33.0	-30.7	---	---	724.9	0.024	0.000	20.8	3	1
03/11/06	2:24 p	-16.1	-16.1	-16.2	---	---	29.6	ESE	0.49	32.2	-30.5	---	---	725.0	0.024	0.000	20.8	3	1
03/11/06	2:25 p	-16.2	-16.1	-16.2	---	---	25.2	ESE	0.42	30.4	-29.7	---	---	725.1	0.024	0.000	20.8	3	1
03/11/06	2:26 p	-16.2	-16.2	-16.2	---	---	25.2	ESE	0.42	31.3	-29.7	---	---	725.3	0.024	0.000	20.7	3	1
03/11/06	2:27 p	-16.2	-16.2	-16.2	---	---	22.6	ESE	0.38	24.3	-29.2	---	---	725.2	0.024	0.000	20.7	3	1
03/11/06	2:28 p	-16.2	-16.2	-16.2	---	---	25.2	ESE	0.42	28.7	-29.7	---	---	725.1	0.024	0.000	20.7	3	1
03/11/06	2:29 p	-16.2	-16.1	-16.2	---	---	24.3	ESE	0.41	29.6	-29.6	---	---	725.4	0.024	0.000	20.7	3	1
03/11/06	2:30 p	-16.1	-16.1	-16.1	---	---	23.5	ESE	0.39	30.4	-29.3	---	---	725.1	0.024	0.000	20.8	3	1
03/11/06	2:31 p	-16.1	-16.1	-16.1	---	---	28.7	ESE	0.48	32.2	-30.3	---	---	725.0	0.024	0.000	20.7	3	1
03/11/06	2:32 p	-16.1	-16.1	-16.1	---	---	26.1	ESE	0.43	31.3	-29.8	---	---	725.3	0.024	0.000	20.7	3	1
03/11/06	2:33 p	-16.1	-16.1	-16.1	---	---	27.8	ESE	0.46	35.7	-30.1	---	---	724.9	0.024	0.000	20.7	3	1
03/11/06	2:34 p	-16.1	-16.1	-16.1	---	---	31.3	ESE	0.52	35.7	-30.7	---	---	725.2	0.024	0.000	20.7	3	1
03/11/06	2:35 p	-16.1	-16.0	-16.1	---	---	24.3	ESE	0.41	27.0	-29.4	---	---	725.3	0.024	0.000	20.7	3	1
03/11/06	2:36 p	-16.1	-16.0	-16.1	---	---	27.0	ESE	0.45	29.6	-29.9	---	---	725.3	0.024	0.000	20.7	3	1
03/11/06	2:37 p	-16.0	-16.0	-16.1	---	---	27.0	ESE	0.45	28.7	-29.8	---	---	725.3	0.024	0.000	20.7	3	1
03/11/06	2:38 p	-16.0	-16.0	-16.0	---	---	26.1	ESE	0.43	27.8	-29.7	---	---	725.3	0.024	0.000	20.7	3	1
03/11/06	2:39 p	-16.0	-15.9	-16.0	---	---	25.2	ESE	0.42	27.0	-29.5	---	---	725.3	0.024	0.000	20.7	3	1
03/11/06	2:40 p	-15.9	-15.9	-15.9	---	---	23.5	ESE	0.39	29.6	-29.1	---	---	725.4	0.024	0.000	20.7	3	1
03/11/06	2:41 p	-15.9	-15.9	-15.9	---	---	23.5	ESE	0.39	27.0	-29.1	---	---	725.2	0.024	0.000	20.7	3	1
03/11/06	2:42 p	-15.9	-15.9	-15.9	---	---	23.5	ESE	0.39	28.7	-29.1	---	---	725.4	0.024	0.000	20.7	3	1
03/11/06	2:43 p	-15.9	-15.9	-15.9	---	---	23.5	SSE	0.39	27.0	-29.0	---	---	725.4	0.024	0.000	20.7	3	1
03/11/06	2:44 p	-15.9	-15.8	-15.9	---	---	23.5	SSE	0.39	27.8	-29.0	---	---	725.3	0.024	0.000	20.7	3	1
03/11/06	2:45 p	-15.8	-15.8	-15.8	---	---	23.5	SE	0.39	25.2	-28.9	---	---	725.3	0.024	0.000	20.7	3	1
03/11/06	2:46 p	-15.8	-15.8	-15.8	---	---	22.6	ESE	0.38	25.2	-28.6	---	---	725.4	0.024	0.000	20.7	3	1
03/11/06	2:47 p	-15.8	-15.8	-15.8	---	---	25.2	ESE	0.42	27.0	-29.2	---	---	725.3	0.024	0.000	20.7	3	1
03/11/06	2:48 p	-15.8	-15.8	-15.8	---	---	25.2	ESE	0.42	27.0	-29.2	---	---	725.3	0.024	0.000	20.7	3	1
03/11/06	2:49 p	-15.7	-15.7	-15.8	---	---	24.3	E	0.41	27.8	-28.9	---	---	725.2	0.024	0.000	20.7	3	1
03/11/06	2:50 p	-15.7	-15.7	-15.7	---	---	25.2	E	0.42	28.7	-29.1	---	---	725.2	0.024	0.000	20.7	3	1
03/11/06	2:51 p	-15.7	-15.7	-15.7	---	---	27.0	E	0.45	28.7	-29.4	---	---	725.2	0.024	0.000	20.7	3	1
03/11/06	2:52 p	-15.7	-15.7	-15.7	---	---	26.1	ESE	0.43	27.8	-29.2	---	---	725.3	0.024	0.000	20.7	3	1
03/11/06	2:53 p	-15.7	-15.6	-15.7	---	---	27.8	E	0.46	30.4	-29.6	---	---	725.2	0.024	0.000	20.7	3	1
03/11/06	2:54 p	-15.7	-15.6	-15.7	---	---	27.0	E	0.45	30.4	-29.4	---	---	725.2	0.024	0.000	20.7	3	1
03/11/06	2:55 p	-15.6	-15.6	-15.7	---	---	24.3	ESE	0.41	28.7	-28.8	---	---	725.1	0.024	0.000	20.7	3	1
03/11/06	2:56 p	-15.6	-15.6	-15.7	---	---	27.0	E	0.45	29.6	-29.3	---	---	725.1	0.024	0.000	20.7	3	1
03/11/06	2:57 p	-15.7	-15.6	-15.7	---	---	26.1	ESE	0.43	28.7	-29.2	---	---	725.2	0.024	0.000	20.7	3	1
03/11/06	2:58 p	-15.6	-15.6	-15.6	---	---	25.2	ESE	0.42	27.0	-29.0	---	---	725.2	0.024	0.000	20.7	3	1
03/11/06	2:59 p	-15.6	-15.6	-15.7	---	---	23.5	E	0.39	27.0	-28.6	---	---	725.3	0.024	0.000	20.7	3	1
03/11/06	3:00 p	-15.6	-15.6	-15.6	---	---	26.1	E	0.43	30.4	-29.2	---	---	725.3	0.024	0.000	20.6	3	1
03/11/06	3:01 p	-15.6	-15.6	-15.6	---	---	22.6	E	0.38	27.0	-28.4	---	---	725.3	0.024	0.000	20.6	3	1
03/11/06	3:02 p	-15.6	-15.6	-15.7	---	---	21.7	E	0.36	25.2	-28.2	---	---	725.3	0.024	0.000	20.6	3	1
03/11/06	3:03 p	-15.6	-15.6	-15.6	---	---	24.3	E	0.41	25.2	-28.8	---	---	725.4	0.024	0.000	20.6	3	1
03/11/06	3:04 p	-15.6	-15.6	-15.6	---	---	27.0	E	0.45	31.3	-29.3	---	---	725.4	0.024	0.000	20.6	3	1
03/11/06	3:05 p	-15.6	-15.6	-15.6	---	---	25.2	ESE	0.42	27.0	-29.0	---	---	725.3	0.024	0.000	20.6	3	1
03/11/06	3:06 p	-15.6	-15.6	-15.6	---	---	22.6	E	0.38	27.0	-28.4	---	---	725.3	0.024	0.000	20.6	3	1
03/11/06	3:07 p	-15.6	-15.6	-15.6	---	---	26.1	ESE	0.43	28.7	-29.2	---	---	725.3	0.024	0.000	20.6	3	1
03/11/06	3:08 p	-15.6	-15.6	-15.6	---	---	24.3	E	0.41	28.7	-28.8	---	---	725.3	0.024	0.000	20.6	3	1
03/11/06	3:09 p	-15.6	-15.6	-15.6	---	---	21.7	E	0.36	28.7	-28.2	---	---	725.3	0.024	0.000	20.6	3	1
03/11/06	3:10 p	-15.6	-15.6	-15.6	---	---	27.0	E	0.45	31.3	-29.3	---	---	725.2	0.024	0.000	20.6	3	1
03/11/06	3:11 p	-15.6	-15.6	-15.6	---	---	25.2	E	0.42	30.4	-29.0	---	---	725.2	0.024	0.000	20.6	3	1
03/11/06	3:12 p	-15.6	-15.6	-15.6	---	---	25.2	ESE	0.42	28.7	-28.9	---	---	725.3	0.024	0.000	20.6	3	1
03/11/06	3:13 p	-15.6	-15.6	-15.6	---	---	25.2	E	0.42	30.4	-28.9	---	---	725.4	0.024	0.000	20.6	3	1
03/11/06	3:14 p	-15.6	-15.6	-15.6	---	---	22.6	E	0.38	27.8	-28.4	---	---	725.3	0.024	0.000	20.6	3	1
03/11/06	3:15 p	-15.6	-15.6	-15.6	---	---	23.5	E	0.39	29.6	-28.6	---	---	725.2	0.024	0.000	20.6	3	1
03/11/06	3:16 p	-15.6	-15.6	-15.6	---	---	23.5	E	0.39	28.7	-28.6	---	---	725.3	0.024	0.000	20.6	3	1
03/11/06	3:17 p	-15.6	-15.6	-15.6	---	---	27.8	E	0.46	28.7	-29.4	---	---	725.3	0.024	0.000	20.6	3	1
03/11/06	3:18 p	-15.6	-15.6	-15.6	---	---	27.8	ESE	0.46	30.4	-29.4	---	---	725.3	0.024	0.000	20.6	3	1
03/11/06	3:19 p	-15.6	-15.6	-15.6	---	---	29.6	E	0.49	32.2	-29.7	---	---	725.3	0.024	0.000	20.7	3	1
03/11/06	3:20 p	-15.6	-15.6	-15.6	---	---	28.7	ESE	0.48	33.0	-29.6	---	---	725.2	0.024	0.000	20.7	3	1
03/11/06	3:21 p	-15.6	-15.6	-15.6	---	---	27.0	ESE	0.45	32.2	-29.2	---	---	725.4	0.024	0.000	20.7	3	1
03/11/06	3:22 p	-15.6	-15.5	-15.6	---	---	28.7	ESE	0.48	34.8	-29.6	---	---	725.4	0.024	0.000	20.7	3	1
03/11/06	3:23 p	-15.6	-15.5	-15.6	---	---	22.6	ESE	0.38	27.8	-28.3	---	---	725.5	0.024	0.000	20.7	3	1
03/11/06	3:24 p	-15.6	-15.5	-15.6	---	---	21.7	ESE	0.36	25.2	-28.1	---	---	725.4	0.024	0.000	20.7	3	1
03/11/06	3:25 p	-15.6	-15.5	-15.6	---	---	23.5	E	0.39	27.0	-28.6	---	---	725.4	0.024	0.000	20.7	3	1
03/11/06	3:26 p	-15.6	-15.5	-15.6	---	---	23.5	E	0.39	30.4	-28.6	---	---	725.4	0.024	0.000	20.7	3	1
03/11/06	3:27 p	-15.5	-15.5	-15.6	---	---	21.7	ESE	0.36	25.2	-28.1	---	---	725.4	0.023	0.000	20.7	3	1
03/11/06	3:28 p	-15.5	-15.5	-15.6	---	---	20.9	E	0.35	24.3	-27.8	---	---	725.5	0.023	0.000	20.7	3	1
03/11/06	3:29 p	-15.5	-15.5	-15.5	---	---	20.0	E	0.33	23.5	-27.7	---	---	725.5	0.023	0.000	20.7	3	1
03/11/06	3:30 p	-15.5	-15.5	-15.6	---	---	18.3	E	0.30	24.3	-27.2	---	---	725.4	0.023	0.000	20.7	3	1
03/11/06	3:31 p	-15.5	-15.5	-15.6	---	---	22.6	ESE	0.38	27.0	-28.3	---	---	725.4	0.023	0.000	20.7	3	1
03/11/06	3:32 p	-15.5	-15.5	-15.6	---	---	22.6	ESE	0.38	26.1	-28.3	---	---	725.3	0.023	0.000	20.7	3	1
03/11/06	3:33 p	-15.5	-15.5	-15.6	---	---	23.5	SE	0.39	25.2	-28.4	---	---	725.3	0.023	0.000	20.7	3	1
03/11/06	3:34 p	-15.5	-15.5	-15.6	---	---	24.3	SE	0.41	26.1	-28.7	---	---	725.2	0.023	0.000	20.6	3	1
03/11/06	3:35 p	-15.5	-15.5	-15.5	---	---	26.1	SE	0.43	27.8	-29.0	---	---	725.2	0.023	0.000	20.6	3	1
03/11/06	3:36 p	-15.5	-15.5	-15.6	---	---	26.1	SE	0.43	29.6	-29.0	---	---	725.3	0.023	0.000	20.6	3	1
03/11/06	3:37 p	-15.5	-15.5	-15.5	---	---	25.2	SE	0.42	27.8	-28.8	---	---	725.2	0.023	0.000	20.6	3	1
03/11/06	3:38 p	-15.5	-15.5	-15.6	---	---	26.1	SE	0.43	27.8	-29.0	---	---	725.2	0.023	0.000	20.6	3	1
03/11/06	3:39 p	-15.5	-15.5	-15.5	---	---	27.0	SE	0.45	28.7	-29.2	---	---	725.2	0.023	0.000	20.6	3	1
03/11/06	3:40 p	-15.5	-15.5	-15.5	---	---	26.1	SE	0.43	28.7	-29.0	---	---	725.2	0.023	0.000	20.6	3	1
03/11/06	3:41 p	-15.5	-15.5	-15.5	---	---	27.8	SE	0.46	29.6	-29.3	---	---	725.1	0.023	0.000	20.6	3	1
03/11/06	3:42 p	-15.5	-15.5	-15.5	---	---	28.7	SE	0.48	33.0	-29.5	---	---	725.1	0.023	0.000	20.6	3	1
03/11/06	3:43 p	-15.4	-15.4	-15.5	---	---	29.6	SE	0.49	32.2	-29.6	---	---	725.2	0.023	0.000	20.6	3	1
03/11/06	3:44 p	-15.4	-15.4	-15.4	---	---	28.7	SE	0.48	30.4	-29.4	---	---	725.1	0.023	0.000	20.6	3	1
03/11/06	3:45 p	-15.4	-15.4	-15.5	---	---	30.4	SE	0.51	33.9	-29.7	---	---	725.1	0.023	0.000	20.6	3	1
03/11/06	3:46 p	-15.4	-15.4	-15.5	---	---	30.4	ESE	0.51	33.9	-29.7	---	---	725.2	0.023	0.000	20.6	3	1
03/11/06	3:47 p	-15.4	-15.4	-15.4	---	---	29.6	SE	0.49	33.9	-29.6	---	---	725.1	0.023	0.000	20.6	3	1
03/11/06	3:48 p	-15.4	-15.4	-15.4	---	---	29.6	ESE	0.49	32.2	-29.6	---	---	725.2	0.023	0.000	20.6	3	1
03/11/06	3:49 p	-15.4	-15.4	-15.4	---	---	31.3	SE	0.52	34.8	-29.9	---	---	725.1	0.023	0.000	20.6	3	1
03/11/06	3:50 p	-15.4	-15.4	-15.4	---	---	29.6	ESE	0.49	33.9	-29.5	---	---	725.1	0.023	0.000	20.6	3	1
03/11/06	3:51 p	-15.4	-15.4	-15.4	---	---	29.6	ESE	0.49	32.2	-29.6	---	---	725.2	0.023	0.000	20.6	3	1
03/11/06	3:52 p	-15.4	-15.4	-15.4	---	---	28.7	ESE	0.48	32.2	-29.4	---	---	725.2	0.023	0.000	20.6	3	1
03/11/06	3:53 p	-15.4	-15.4	-15.4	---	---	27.8	ESE	0.46	33.0	-29.2	---	---	725.4	0.023	0.000	20.6	3	1
03/11/06	3:54 p	-15.4	-15.4	-15.4	---	---	27.0	ESE	0.45	31.3	-29.0	---	---	725.3	0.023	0.000	20.6	3	1
03/11/06	3:55 p	-15.4	-15.4	-15.4	---	---	29.6	ESE	0.49	35.7	-29.5	---	---	725.3	0.023	0.000	20.6	3	1
03/11/06	3:56 p	-15.4	-15.4	-15.4	---	---	27.0	ESE	0.45	33.9	-29.0	---	---	725.3	0.023	0.000	20.6	3	1
03/11/06	3:57 p	-15.4	-15.4	-15.4	---	---	28.7	ESE	0.48	32.2	-29.3	---	---	725.2	0.023	0.000	20.6	3	1
03/11/06	3:58 p	-15.4	-15.4	-15.4	---	---	26.1	ESE	0.43	31.3	-28.8	---	---	725.3	0.023	0.000	20.6	3	1
03/11/06	3:59 p	-15.3	-15.3	-15.4	---	---	26.1	ESE	0.43	30.4	-28.8	---	---	725.2	0.023	0.000	20.6	3	1
03/11/06	4:00 p	-15.3	-15.3	-15.4	---	---	26.1	ESE	0.43	31.3	-28.8	---	---	725.3	0.023	0.000	20.6	3	1
03/11/06	4:01 p	-15.3	-15.3	-15.4	---	---	26.1	ESE	0.43	32.2	-28.8	---	---	725.3	0.023	0.000	20.6	3	1
03/11/06	4:02 p	-15.3	-15.3	-15.4	---	---	25.2	ESE	0.42	32.2	-28.6	---	---	725.3	0.023	0.000	20.6	3	1
03/11/06	4:03 p	-15.3	-15.3	-15.4	---	---	24.3	ESE	0.41	30.4	-28.4	---	---	725.3	0.023	0.000	20.6	3	1
03/11/06	4:04 p	-15.3	-15.3	-15.3	---	---	24.3	ESE	0.41	29.6	-28.4	---	---	725.3	0.023	0.000	20.6	3	1
03/11/06	4:05 p	-15.3	-15.3	-15.3	---	---	24.3	SE	0.41	28.7	-28.4	---	---	725.3	0.023	0.000	20.6	3	1
03/11/06	4:06 p	-15.3	-15.3	-15.3	---	---	24.3	ESE	0.41	29.6	-28.4	---	---	725.2	0.023	0.000	20.5	3	1
03/11/06	4:07 p	-15.3	-15.3	-15.3	---	---	25.2	ESE	0.42	29.6	-28.6	---	---	725.2	0.023	0.000	20.5	3	1
03/11/06	4:08 p	-15.3	-15.3	-15.3	---	---	27.0	ESE	0.45	30.4	-28.9	---	---	725.2	0.023	0.000	20.6	3	1
03/11/06	4:09 p	-15.3	-15.3	-15.3	---	---	23.5	ESE	0.39	26.1	-28.2	---	---	725.3	0.023	0.000	20.6	3	1
03/11/06	4:10 p	-15.3	-15.3	-15.3	---	---	24.3	ESE	0.41	26.1	-28.4	---	---	725.3	0.023	0.000	20.5	3	1
03/11/06	4:11 p	-15.3	-15.3	-15.3	---	---	21.7	ESE	0.36	24.3	-27.8	---	---	725.3	0.023	0.000	20.6	3	1
03/11/06	4:12 p	-15.3	-15.3	-15.3	---	---	25.2	ESE	0.42	27.8	-28.6	---	---	725.3	0.023	0.000	20.5	3	1
03/11/06	4:13 p	-15.3	-15.3	-15.3	---	---	25.2	ESE	0.42	29.6	-28.6	---	---	725.3	0.023	0.000	20.5	3	1
03/11/06	4:14 p	-15.3	-15.3	-15.3	---	---	25.2	ESE	0.42	28.7	-28.6	---	---	725.3	0.023	0.000	20.5	3	1
03/11/06	4:15 p	-15.3	-15.3	-15.3	---	---	27.0	ESE	0.45	33.0	-28.9	---	---	725.1	0.023	0.000	20.5	3	1
03/11/06	4:16 p	-15.3	-15.3	-15.3	---	---	27.8	ESE	0.46	30.4	-29.1	---	---	725.2	0.023	0.000	20.6	3	1
03/11/06	4:17 p	-15.3	-15.3	-15.3	---	---	29.6	ESE	0.49	33.9	-29.4	---	---	725.1	0.023	0.000	20.5	3	1
03/11/06	4:18 p	-15.3	-15.3	-15.3	---	---	26.1	SE	0.43	30.4	-28.7	---	---	725.3	0.023	0.000	20.5	3	1
03/11/06	4:19 p	-15.3	-15.3	-15.3	---	---	26.1	ESE	0.43	29.6	-28.7	---	---	725.3	0.023	0.000	20.5	3	1
03/11/06	4:20 p	-15.3	-15.3	-15.3	---	---	26.1	ESE	0.43	31.3	-28.7	---	---	725.4	0.023	0.000	20.6	3	1
03/11/06	4:21 p	-15.3	-15.3	-15.3	---	---	25.2	ESE	0.42	29.6	-28.5	---	---	725.4	0.023	0.000	20.6	3	1
03/11/06	4:22 p	-15.3	-15.3	-15.3	---	---	25.2	SE	0.42	28.7	-28.5	---	---	725.4	0.023	0.000	20.6	3	1
03/11/06	4:23 p	-15.3	-15.3	-15.3	---	---	24.3	SE	0.41	27.8	-28.3	---	---	725.4	0.023	0.000	20.6	3	1
03/11/06	4:24 p	-15.3	-15.3	-15.3	---	---	21.7	ESE	0.36	23.5	-27.8	---	---	725.5	0.023	0.000	20.6	3	1
03/11/06	4:25 p	-15.3	-15.2	-15.3	---	---	21.7	ESE	0.36	24.3	-27.8	---	---	725.5	0.023	0.000	20.6	3	1
03/11/06	4:26 p	-15.2	-15.2	-15.3	---	---	22.6	ESE	0.38	24.3	-27.9	---	---	725.4	0.023	0.000	20.6	3	1
03/11/06	4:27 p	-15.2	-15.2	-15.3	---	---	22.6	ESE	0.38	24.3	-27.9	---	---	725.4	0.023	0.000	20.6	3	1
03/11/06	4:28 p	-15.2	-15.2	-15.3	---	---	21.7	ESE	0.36	24.3	-27.7	---	---	725.4	0.023	0.000	20.6	3	1
03/11/06	4:29 p	-15.2	-15.2	-15.3	---	---	20.9	ESE	0.35	22.6	-27.5	---	---	725.4	0.023	0.000	20.6	3	1
03/11/06	4:30 p	-15.2	-15.2	-15.3	---	---	20.0	E	0.33	24.3	-27.3	---	---	725.3	0.023	0.000	20.6	3	1
03/11/06	4:31 p	-15.2	-15.2	-15.2	---	---	20.0	E	0.33	22.6	-27.3	---	---	725.3	0.023	0.000	20.6	3	1
03/11/06	4:32 p	-15.3	-15.2	-15.3	---	---	20.0	E	0.33	23.5	-27.3	---	---	725.4	0.023	0.000	20.6	3	1
03/11/06	4:33 p	-15.3	-15.2	-15.3	---	---	20.0	E	0.33	24.3	-27.3	---	---	725.3	0.023	0.000	20.6	3	1
03/11/06	4:34 p	-15.3	-15.3	-15.3	---	---	18.3	E	0.30	21.7	-26.9	---	---	725.3	0.023	0.000	20.6	3	1
03/11/06	4:35 p	-15.3	-15.3	-15.3	---	---	19.1	E	0.32	20.9	-27.1	---	---	725.3	0.023	0.000	20.6	3	1
03/11/06	4:36 p	-15.3	-15.3	-15.3	---	---	21.7	E	0.36	25.2	-27.8	---	---	725.3	0.023	0.000	20.6	3	1
03/11/06	4:37 p	-15.3	-15.3	-15.3	---	---	24.3	E	0.41	26.1	-28.3	---	---	725.3	0.023	0.000	20.6	3	1
03/11/06	4:38 p	-15.3	-15.3	-15.3	---	---	22.6	E	0.38	24.3	-28.1	---	---	725.2	0.023	0.000	20.6	3	1
03/11/06	4:39 p	-15.3	-15.3	-15.3	---	---	21.7	E	0.36	24.3	-27.8	---	---	725.1	0.023	0.000	20.6	3	1
03/11/06	4:40 p	-15.3	-15.3	-15.4	---	---	25.2	ESE	0.42	27.8	-28.6	---	---	725.1	0.023	0.000	20.6	3	1
03/11/06	4:41 p	-15.4	-15.4	-15.4	---	---	23.5	E	0.39	26.1	-28.3	---	---	725.2	0.023	0.000	20.6	3	1
03/11/06	4:42 p	-15.4	-15.4	-15.4	---	---	23.5	E	0.39	30.4	-28.3	---	---	725.0	0.023	0.000	20.6	3	1
03/11/06	4:43 p	-15.4	-15.4	-15.4	---	---	26.1	ESE	0.43	30.4	-28.9	---	---	725.0	0.023	0.000	20.6	3	1
03/11/06	4:44 p	-15.4	-15.4	-15.4	---	---	23.5	ESE	0.39	27.8	-28.4	---	---	725.0	0.023	0.000	20.6	3	1
03/11/06	4:45 p	-15.4	-15.4	-15.4	---	---	24.3	ESE	0.41	27.0	-28.6	---	---	725.0	0.023	0.000	20.6	3	1
03/11/06	4:46 p	-15.4	-15.4	-15.5	---	---	22.6	ESE	0.38	26.1	-28.2	---	---	725.1	0.023	0.000	20.5	3	1
03/11/06	4:47 p	-15.4	-15.4	-15.5	---	---	22.6	E	0.38	27.8	-28.2	---	---	725.0	0.023	0.000	20.6	3	1
03/11/06	4:48 p	-15.5	-15.5	-15.5	---	---	25.2	E	0.42	29.6	-28.8	---	---	725.0	0.023	0.000	20.6	3	1
03/11/06	4:49 p	-15.5	-15.5	-15.6	---	---	24.3	E	0.41	28.7	-28.7	---	---	724.8	0.023	0.000	20.6	3	1
03/11/06	4:50 p	-15.6	-15.5	-15.6	---	---	27.0	E	0.45	31.3	-29.2	---	---	725.0	0.024	0.000	20.6	3	1
03/11/06	4:51 p	-15.5	-15.5	-15.6	---	---	27.0	E	0.45	28.7	-29.2	---	---	724.9	0.023	0.000	20.6	3	1
03/11/06	4:52 p	-15.6	-15.5	-15.6	---	---	26.1	ESE	0.43	27.8	-29.1	---	---	725.0	0.024	0.000	20.5	3	1
03/11/06	4:53 p	-15.6	-15.6	-15.6	---	---	26.1	ESE	0.43	27.8	-29.1	---	---	725.0	0.024	0.000	20.5	3	1
03/11/06	4:54 p	-15.6	-15.6	-15.6	---	---	26.1	E	0.43	28.7	-29.1	---	---	725.0	0.024	0.000	20.5	3	1
03/11/06	4:55 p	-15.6	-15.6	-15.6	---	---	27.0	ESE	0.45	33.0	-29.2	---	---	724.9	0.024	0.000	20.5	3	1
03/11/06	4:56 p	-15.6	-15.6	-15.6	---	---	28.7	ESE	0.48	33.0	-29.7	---	---	725.1	0.024	0.000	20.5	3	1
03/11/06	4:57 p	-15.6	-15.6	-15.6	---	---	26.1	ESE	0.43	27.8	-29.2	---	---	725.0	0.024	0.000	20.5	3	1
03/11/06	4:58 p	-15.6	-15.6	-15.6	---	---	26.1	ESE	0.43	29.6	-29.2	---	---	725.1	0.024	0.000	20.5	3	1
03/11/06	4:59 p	-15.6	-15.6	-15.6	---	---	26.1	ESE	0.43	31.3	-29.2	---	---	725.1	0.024	0.000	20.5	3	1
03/11/06	5:00 p	-15.6	-15.6	-15.6	---	---	24.3	ESE	0.41	27.0	-28.8	---	---	725.1	0.024	0.000	20.5	3	1
03/11/06	5:01 p	-15.6	-15.6	-15.6	---	---	24.3	ESE	0.41	27.0	-28.8	---	---	725.1	0.024	0.000	20.5	3	1
03/11/06	5:02 p	-15.6	-15.6	-15.6	---	---	25.2	E	0.42	27.8	-29.0	---	---	725.0	0.024	0.000	20.5	3	1
03/11/06	5:03 p	-15.7	-15.6	-15.7	---	---	27.8	ESE	0.46	28.7	-29.6	---	---	725.1	0.024	0.000	20.5	3	1
03/11/06	5:04 p	-15.6	-15.6	-15.7	---	---	25.2	ESE	0.42	28.7	-29.0	---	---	725.1	0.024	0.000	20.5	3	1
03/11/06	5:05 p	-15.6	-15.6	-15.7	---	---	26.1	ESE	0.43	28.7	-29.2	---	---	725.1	0.024	0.000	20.5	3	1
03/11/06	5:06 p	-15.7	-15.6	-15.7	---	---	27.0	ESE	0.45	31.3	-29.4	---	---	725.1	0.024	0.000	20.5	3	1
03/11/06	5:07 p	-15.7	-15.6	-15.7	---	---	22.6	ESE	0.38	31.3	-28.5	---	---	725.0	0.024	0.000	20.5	3	1
03/11/06	5:08 p	-15.7	-15.7	-15.7	---	---	24.3	E	0.41	26.1	-28.9	---	---	725.1	0.024	0.000	20.5	3	1
03/11/06	5:09 p	-15.7	-15.7	-15.7	---	---	27.0	ESE	0.45	29.6	-29.4	---	---	725.0	0.024	0.000	20.5	3	1
03/11/06	5:10 p	-15.7	-15.7	-15.7	---	---	27.0	E	0.45	29.6	-29.4	---	---	724.9	0.024	0.000	20.5	3	1
03/11/06	5:11 p	-15.7	-15.6	-15.7	---	---	27.0	ESE	0.45	29.6	-29.4	---	---	725.0	0.024	0.000	20.5	3	1
03/11/06	5:12 p	-15.7	-15.7	-15.7	---	---	26.1	ESE	0.43	28.7	-29.2	---	---	725.1	0.024	0.000	20.5	3	1
03/11/06	5:13 p	-15.7	-15.7	-15.7	---	---	27.8	ESE	0.46	30.4	-29.6	---	---	725.0	0.024	0.000	20.5	3	1
03/11/06	5:14 p	-15.7	-15.7	-15.7	---	---	27.8	ESE	0.46	30.4	-29.6	---	---	724.9	0.024	0.000	20.5	3	1
03/11/06	5:15 p	-15.7	-15.7	-15.7	---	---	26.1	ESE	0.43	30.4	-29.2	---	---	725.0	0.024	0.000	20.5	3	1
03/11/06	5:16 p	-15.7	-15.7	-15.7	---	---	27.8	ESE	0.46	30.4	-29.6	---	---	725.0	0.024	0.000	20.5	3	1
03/11/06	5:17 p	-15.7	-15.7	-15.7	---	---	26.1	ESE	0.43	30.4	-29.2	---	---	725.0	0.024	0.000	20.5	3	1
03/11/06	5:18 p	-15.7	-15.7	-15.7	---	---	24.3	ESE	0.41	27.0	-28.9	---	---	725.1	0.024	0.000	20.5	3	1
03/11/06	5:19 p	-15.7	-15.7	-15.7	---	---	22.6	E	0.38	25.2	-28.5	---	---	725.1	0.024	0.000	20.5	3	1
03/11/06	5:20 p	-15.7	-15.7	-15.7	---	---	24.3	E	0.41	27.8	-28.9	---	---	725.0	0.024	0.000	20.5	3	1
03/11/06	5:21 p	-15.7	-15.7	-15.7	---	---	24.3	ESE	0.41	28.7	-28.9	---	---	725.2	0.024	0.000	20.5	3	1
03/11/06	5:22 p	-15.7	-15.7	-15.7	---	---	26.1	E	0.43	31.3	-29.2	---	---	725.1	0.024	0.000	20.5	3	1
03/11/06	5:23 p	-15.7	-15.7	-15.7	---	---	23.5	E	0.39	28.7	-28.7	---	---	725.1	0.024	0.000	20.5	3	1
03/11/06	5:24 p	-15.7	-15.7	-15.7	---	---	26.1	E	0.43	28.7	-29.2	---	---	725.0	0.024	0.000	20.5	3	1
03/11/06	5:25 p	-15.7	-15.7	-15.7	---	---	24.3	E	0.41	29.6	-28.9	---	---	725.0	0.024	0.000	20.5	3	1
03/11/06	5:26 p	-15.7	-15.7	-15.7	---	---	25.2	E	0.42	29.6	-29.1	---	---	725.1	0.024	0.000	20.5	3	1
03/11/06	5:27 p	-15.7	-15.7	-15.7	---	---	22.6	E	0.38	34.8	-28.5	---	---	725.2	0.024	0.000	20.5	3	1
03/11/06	5:28 p	-15.7	-15.7	-15.7	---	---	23.5	E	0.39	27.8	-28.7	---	---	725.1	0.024	0.000	20.5	3	1
03/11/06	5:29 p	-15.7	-15.7	-15.7	---	---	24.3	E	0.41	32.2	-28.9	---	---	725.2	0.024	0.000	20.5	3	1
03/11/06	5:30 p	-15.7	-15.7	-15.7	---	---	20.0	E	0.33	24.3	-27.9	---	---	725.2	0.024	0.000	20.5	3	1
03/11/06	5:31 p	-15.7	-15.7	-15.7	---	---	22.6	E	0.38	26.1	-28.5	---	---	725.1	0.024	0.000	20.6	3	1
03/11/06	5:32 p	-15.7	-15.7	-15.7	---	---	20.0	E	0.33	22.6	-27.9	---	---	725.3	0.024	0.000	20.5	3	1
03/11/06	5:33 p	-15.7	-15.7	-15.7	---	---	23.5	ESE	0.39	24.3	-28.7	---	---	725.3	0.024	0.000	20.6	3	1
03/11/06	5:34 p	-15.7	-15.7	-15.7	---	---	20.9	ESE	0.35	23.5	-28.1	---	---	725.3	0.024	0.000	20.6	3	1
03/11/06	5:35 p	-15.7	-15.6	-15.7	---	---	22.6	ESE	0.38	25.2	-28.5	---	---	725.3	0.024	0.000	20.6	3	1
03/11/06	5:36 p	-15.7	-15.7	-15.7	---	---	20.9	E	0.35	24.3	-28.1	---	---	725.3	0.024	0.000	20.6	3	1
03/11/06	5:37 p	-15.7	-15.7	-15.7	---	---	24.3	ESE	0.41	29.6	-28.9	---	---	725.4	0.024	0.000	20.6	3	1
03/11/06	5:38 p	-15.7	-15.7	-15.7	---	---	20.9	E	0.35	24.3	-28.1	---	---	725.3	0.024	0.000	20.6	3	1
03/11/06	5:39 p	-15.7	-15.7	-15.7	---	---	20.0	E	0.33	22.6	-27.9	---	---	725.3	0.024	0.000	20.6	3	1
03/11/06	5:40 p	-15.7	-15.7	-15.7	---	---	23.5	E	0.39	25.2	-28.7	---	---	725.3	0.024	0.000	20.6	3	1
03/11/06	5:41 p	-15.7	-15.7	-15.7	---	---	22.6	E	0.38	25.2	-28.5	---	---	725.4	0.024	0.000	20.6	3	1
03/11/06	5:42 p	-15.7	-15.7	-15.7	---	---	19.1	E	0.32	22.6	-27.7	---	---	725.4	0.024	0.000	20.6	3	1
03/11/06	5:43 p	-15.7	-15.7	-15.7	---	---	23.5	E	0.39	26.1	-28.7	---	---	725.3	0.024	0.000	20.6	3	1
03/11/06	5:44 p	-15.7	-15.7	-15.7	---	---	22.6	E	0.38	25.2	-28.5	---	---	725.5	0.024	0.000	20.6	3	1
03/11/06	5:45 p	-15.7	-15.7	-15.7	---	---	20.0	E	0.33	24.3	-27.9	---	---	725.3	0.024	0.000	20.6	3	1
03/11/06	5:46 p	-15.7	-15.7	-15.7	---	---	22.6	ESE	0.38	28.7	-28.5	---	---	725.4	0.024	0.000	20.6	3	1
03/11/06	5:47 p	-15.7	-15.7	-15.7	---	---	21.7	ESE	0.36	24.3	-28.3	---	---	725.3	0.024	0.000	20.6	3	1
03/11/06	5:48 p	-15.7	-15.7	-15.7	---	---	19.1	E	0.32	22.6	-27.7	---	---	725.2	0.024	0.000	20.6	3	1
03/11/06	5:49 p	-15.7	-15.7	-15.7	---	---	20.9	ESE	0.35	27.8	-28.1	---	---	725.4	0.024	0.000	20.6	3	1
03/11/06	5:50 p	-15.7	-15.7	-15.7	---	---	17.4	ESE	0.29	25.2	-27.2	---	---	725.3	0.024	0.000	20.6	3	1
03/11/06	5:51 p	-15.7	-15.7	-15.7	---	---	21.7	E	0.36	26.1	-28.3	---	---	725.3	0.024	0.000	20.6	3	1
03/11/06	5:52 p	-15.7	-15.7	-15.7	---	---	20.9	E	0.35	26.1	-28.1	---	---	725.4	0.024	0.000	20.5	3	1
03/11/06	5:53 p	-15.7	-15.7	-15.7	---	---	18.3	ESE	0.30	20.9	-27.4	---	---	725.3	0.024	0.000	20.6	3	1
03/11/06	5:54 p	-15.7	-15.7	-15.7	---	---	20.9	ESE	0.35	24.3	-28.1	---	---	725.3	0.024	0.000	20.6	3	1
03/11/06	5:55 p	-15.7	-15.7	-15.7	---	---	20.9	ESE	0.35	23.5	-28.1	---	---	725.4	0.024	0.000	20.5	3	1
03/11/06	5:56 p	-15.7	-15.7	-15.7	---	---	20.0	ESE	0.33	21.7	-27.9	---	---	725.4	0.024	0.000	20.5	3	1
03/11/06	5:57 p	-15.7	-15.7	-15.7	---	---	22.6	E	0.38	26.1	-28.6	---	---	725.2	0.024	0.000	20.5	3	1
03/11/06	5:58 p	-15.7	-15.7	-15.7	---	---	20.0	E	0.33	24.3	-27.9	---	---	725.4	0.024	0.000	20.6	3	1
03/11/06	5:59 p	-15.7	-15.7	-15.7	---	---	20.0	E	0.33	22.6	-27.9	---	---	725.3	0.024	0.000	20.6	3	1
03/11/06	6:00 p	-15.7	-15.7	-15.7	---	---	19.1	E	0.32	21.7	-27.7	---	---	725.4	0.024	0.000	20.6	3	1
03/11/06	6:01 p	-15.7	-15.7	-15.7	---	---	20.0	E	0.33	23.5	-27.9	---	---	725.3	0.024	0.000	20.5	3	1
03/11/06	6:02 p	-15.7	-15.7	-15.7	---	---	19.1	E	0.32	22.6	-27.7	---	---	725.4	0.024	0.000	20.5	3	1
03/11/06	6:03 p	-15.7	-15.7	-15.7	---	---	18.3	E	0.30	23.5	-27.4	---	---	725.3	0.024	0.000	20.5	3	1
03/11/06	6:04 p	-15.7	-15.7	-15.7	---	---	20.9	ESE	0.35	22.6	-28.1	---	---	725.4	0.024	0.000	20.5	3	1
03/11/06	6:05 p	-15.7	-15.7	-15.7	---	---	20.0	ESE	0.33	21.7	-27.9	---	---	725.4	0.024	0.000	20.5	3	1
03/11/06	6:06 p	-15.7	-15.7	-15.7	---	---	20.0	E	0.33	22.6	-27.9	---	---	725.4	0.024	0.000	20.5	3	1
03/11/06	6:07 p	-15.7	-15.7	-15.7	---	---	20.9	E	0.35	22.6	-28.2	---	---	725.4	0.024	0.000	20.5	3	1
03/11/06	6:08 p	-15.7	-15.7	-15.7	---	---	19.1	ESE	0.32	21.7	-27.7	---	---	725.3	0.024	0.000	20.5	3	1
03/11/06	6:09 p	-15.7	-15.7	-15.7	---	---	20.0	E	0.33	22.6	-27.9	---	---	725.3	0.024	0.000	20.5	3	1
03/11/06	6:10 p	-15.7	-15.7	-15.8	---	---	17.4	E	0.29	20.0	-27.2	---	---	725.3	0.024	0.000	20.6	3	1
03/11/06	6:11 p	-15.7	-15.7	-15.7	---	---	18.3	E	0.30	23.5	-27.5	---	---	725.5	0.024	0.000	20.5	3	1
03/11/06	6:12 p	-15.7	-15.7	-15.7	---	---	16.5	ESE	0.28	23.5	-27.0	---	---	725.3	0.024	0.000	20.5	3	1
03/11/06	6:13 p	-15.7	-15.7	-15.8	---	---	20.9	ESE	0.35	22.6	-28.2	---	---	725.4	0.024	0.000	20.5	3	1
03/11/06	6:14 p	-15.7	-15.7	-15.8	---	---	21.7	ESE	0.36	24.3	-28.3	---	---	725.4	0.024	0.000	20.6	3	1
03/11/06	6:15 p	-15.8	-15.7	-15.8	---	---	22.6	ESE	0.38	26.1	-28.6	---	---	725.3	0.024	0.000	20.5	3	1
03/11/06	6:16 p	-15.7	-15.7	-15.7	---	---	23.5	ESE	0.39	27.0	-28.8	---	---	725.4	0.024	0.000	20.5	3	1
03/11/06	6:17 p	-15.7	-15.7	-15.7	---	---	22.6	ESE	0.38	29.6	-28.5	---	---	725.4	0.024	0.000	20.6	3	1
03/11/06	6:18 p	-15.7	-15.7	-15.7	---	---	19.1	ESE	0.32	20.9	-27.7	---	---	725.6	0.024	0.000	20.5	3	1
03/11/06	6:19 p	-15.7	-15.7	-15.7	---	---	18.3	ESE	0.30	21.7	-27.5	---	---	725.6	0.024	0.000	20.5	3	1
03/11/06	6:20 p	-15.7	-15.7	-15.7	---	---	20.0	SE	0.33	22.6	-27.9	---	---	725.5	0.024	0.000	20.5	3	1
03/11/06	6:21 p	-15.7	-15.7	-15.7	---	---	20.9	SE	0.35	20.9	-28.1	---	---	725.6	0.024	0.000	20.5	3	1
03/11/06	6:22 p	-15.7	-15.6	-15.7	---	---	20.9	SE	0.35	22.6	-28.1	---	---	725.6	0.024	0.000	20.5	3	1
03/11/06	6:23 p	-15.6	-15.6	-15.7	---	---	20.0	SE	0.33	21.7	-27.8	---	---	725.6	0.024	0.000	20.5	3	1
03/11/06	6:24 p	-15.6	-15.6	-15.6	---	---	20.0	SE	0.33	21.7	-27.8	---	---	725.6	0.024	0.000	20.5	3	1
03/11/06	6:25 p	-15.6	-15.6	-15.6	---	---	20.9	SE	0.35	21.7	-28.0	---	---	725.6	0.024	0.000	20.5	3	1
03/11/06	6:26 p	-15.6	-15.6	-15.6	---	---	19.1	SE	0.32	20.9	-27.5	---	---	725.8	0.024	0.000	20.5	3	1
03/11/06	6:27 p	-15.6	-15.6	-15.6	---	---	19.1	SE	0.32	22.6	-27.5	---	---	725.7	0.024	0.000	20.5	3	1
03/11/06	6:28 p	-15.5	-15.5	-15.6	---	---	18.3	SSE	0.30	21.7	-27.2	---	---	725.8	0.023	0.000	20.5	3	1
03/11/06	6:29 p	-15.5	-15.4	-15.5	---	---	16.5	SSE	0.28	20.0	-26.7	---	---	725.8	0.023	0.000	20.6	3	1
03/11/06	6:30 p	-15.4	-15.4	-15.4	---	---	17.4	SSE	0.29	20.9	-26.9	---	---	725.9	0.023	0.000	20.6	3	1
03/11/06	6:31 p	-15.4	-15.4	-15.4	---	---	19.1	SSE	0.32	20.9	-27.3	---	---	725.8	0.023	0.000	20.6	3	1
03/11/06	6:32 p	-15.3	-15.3	-15.4	---	---	14.8	SSE	0.25	18.3	-25.9	---	---	725.9	0.023	0.000	20.6	3	1
03/11/06	6:33 p	-15.3	-15.3	-15.3	---	---	16.5	S	0.28	22.6	-26.5	---	---	725.8	0.023	0.000	20.6	3	1
03/11/06	6:34 p	-15.2	-15.2	-15.3	---	---	16.5	S	0.28	27.8	-26.3	---	---	725.9	0.023	0.000	20.6	3	1
03/11/06	6:35 p	-15.2	-15.2	-15.2	---	---	19.1	S	0.32	22.6	-27.1	---	---	725.8	0.023	0.000	20.6	3	1
03/11/06	6:36 p	-15.2	-15.1	-15.2	---	---	17.4	SSE	0.29	21.7	-26.5	---	---	725.8	0.023	0.000	20.6	3	1
03/11/06	6:37 p	-15.1	-15.1	-15.1	---	---	20.0	S	0.33	25.2	-27.1	---	---	725.8	0.023	0.000	20.6	3	1
03/11/06	6:38 p	-15.0	-15.0	-15.1	---	---	20.0	S	0.33	27.8	-27.0	---	---	725.8	0.023	0.000	20.6	3	1
03/11/06	6:39 p	-14.9	-14.9	-14.9	---	---	18.3	S	0.30	24.3	-26.4	---	---	725.8	0.023	0.000	20.6	3	1
03/11/06	6:40 p	-14.9	-14.8	-14.9	---	---	20.0	S	0.33	22.6	-26.8	---	---	725.8	0.023	0.000	20.6	3	1
03/11/06	6:41 p	-14.8	-14.8	-14.8	---	---	20.9	S	0.35	24.3	-26.9	---	---	725.7	0.023	0.000	20.6	3	1
03/11/06	6:42 p	-14.7	-14.7	-14.8	---	---	19.1	S	0.32	23.5	-26.4	---	---	726.0	0.023	0.000	20.6	3	1
03/11/06	6:43 p	-14.7	-14.7	-14.7	---	---	21.7	S	0.36	26.1	-26.9	---	---	725.7	0.023	0.000	20.6	3	1
03/11/06	6:44 p	-14.6	-14.6	-14.6	---	---	23.5	S	0.39	27.0	-27.3	---	---	725.7	0.023	0.000	20.6	3	1
03/11/06	6:45 p	-14.5	-14.5	-14.5	---	---	20.0	SSE	0.33	22.6	-26.3	---	---	725.8	0.023	0.000	20.6	3	1
03/11/06	6:46 p	-14.4	-14.4	-14.5	---	---	17.4	S	0.29	25.2	-25.6	---	---	725.7	0.023	0.000	20.6	3	1
03/11/06	6:47 p	-14.3	-14.3	-14.4	---	---	20.9	S	0.35	25.2	-26.3	---	---	725.8	0.023	0.000	20.6	3	1
03/11/06	6:48 p	-14.3	-14.3	-14.3	---	---	22.6	S	0.38	27.8	-26.6	---	---	725.6	0.023	0.000	20.6	3	1
03/11/06	6:49 p	-14.2	-14.2	-14.3	---	---	25.2	S	0.42	29.6	-27.1	---	---	725.7	0.023	0.000	20.6	3	1
03/11/06	6:50 p	-14.2	-14.1	-14.2	---	---	28.7	S	0.48	33.9	-27.7	---	---	725.6	0.023	0.000	20.6	3	1
03/11/06	6:51 p	-14.1	-14.1	-14.1	---	---	27.8	S	0.46	30.4	-27.4	---	---	725.5	0.023	0.000	20.6	3	1
03/11/06	6:52 p	-14.1	-14.0	-14.1	---	---	31.3	S	0.52	38.3	-27.9	---	---	725.3	0.022	0.000	20.6	3	1
03/11/06	6:53 p	-13.9	-13.9	-14.0	---	---	29.6	S	0.49	37.4	-27.5	---	---	725.4	0.022	0.000	20.6	3	1
03/11/06	6:54 p	-13.8	-13.8	-13.9	---	---	31.3	S	0.52	35.7	-27.7	---	---	725.4	0.022	0.000	20.6	3	1
03/11/06	6:55 p	-13.8	-13.7	-13.8	---	---	31.3	S	0.52	35.7	-27.6	---	---	725.4	0.022	0.000	20.6	3	1
03/11/06	6:56 p	-13.7	-13.7	-13.7	---	---	33.9	S	0.57	40.9	-27.9	---	---	725.3	0.022	0.000	20.6	3	1
03/11/06	6:57 p	-13.6	-13.6	-13.7	---	---	30.4	S	0.51	35.7	-27.2	---	---	725.5	0.022	0.000	20.6	3	1
03/11/06	6:58 p	-13.6	-13.5	-13.6	---	---	32.2	S	0.54	40.0	-27.4	---	---	725.5	0.022	0.000	20.6	3	1
03/11/06	6:59 p	-13.4	-13.4	-13.5	---	---	33.0	S	0.55	37.4	-27.4	---	---	725.4	0.022	0.000	20.6	3	1
03/11/06	7:00 p	-13.4	-13.4	-13.4	---	---	33.0	S	0.55	38.3	-27.3	---	---	725.4	0.022	0.000	20.6	3	1
03/11/06	7:01 p	-13.4	-13.4	-13.4	---	---	29.6	S	0.49	33.0	-26.8	---	---	725.5	0.022	0.000	20.6	3	1
03/11/06	7:02 p	-13.4	-13.4	-13.4	---	---	26.1	S	0.43	30.4	-26.1	---	---	725.6	0.022	0.000	20.6	3	1
03/11/06	7:03 p	-13.4	-13.3	-13.4	---	---	32.2	S	0.54	35.7	-27.2	---	---	725.5	0.022	0.000	20.6	3	1
03/11/06	7:04 p	-13.3	-13.3	-13.4	---	---	32.2	SSE	0.54	35.7	-27.1	---	---	725.5	0.022	0.000	20.6	3	1
03/11/06	7:05 p	-13.3	-13.3	-13.3	---	---	32.2	SSE	0.54	36.5	-27.1	---	---	725.4	0.022	0.000	20.6	3	1
03/11/06	7:06 p	-13.3	-13.3	-13.3	---	---	35.7	SSE	0.59	47.0	-27.7	---	---	725.3	0.022	0.000	20.6	3	1
03/11/06	7:07 p	-13.3	-13.3	-13.4	---	---	34.8	SSE	0.58	40.0	-27.5	---	---	725.3	0.022	0.000	20.6	3	1
03/11/06	7:08 p	-13.3	-13.3	-13.4	---	---	36.5	SSE	0.61	42.6	-27.8	---	---	725.3	0.022	0.000	20.6	3	1
03/11/06	7:09 p	-13.3	-13.3	-13.4	---	---	32.2	SSE	0.54	37.4	-27.1	---	---	725.3	0.022	0.000	20.6	4	1
03/11/06	7:10 p	-13.3	-13.3	-13.4	---	---	33.0	SSE	0.55	40.0	-27.2	---	---	725.3	0.022	0.000	20.6	3	1
03/11/06	7:11 p	-13.3	-13.3	-13.4	---	---	28.7	SSE	0.48	32.2	-26.6	---	---	725.4	0.022	0.000	20.6	3	1
03/11/06	7:12 p	-13.4	-13.3	-13.4	---	---	27.0	SSE	0.45	31.3	-26.3	---	---	725.4	0.022	0.000	20.6	4	1
03/11/06	7:13 p	-13.4	-13.4	-13.4	---	---	29.6	SSE	0.49	34.8	-26.8	---	---	725.5	0.022	0.000	20.6	4	1
03/11/06	7:14 p	-13.4	-13.4	-13.4	---	---	31.3	SSE	0.52	35.7	-27.1	---	---	725.3	0.022	0.000	20.6	3	1
03/11/06	7:15 p	-13.4	-13.3	-13.4	---	---	31.3	SSE	0.52	36.5	-27.1	---	---	725.3	0.022	0.000	20.6	3	1
03/11/06	7:16 p	-13.4	-13.4	-13.4	---	---	27.8	SSE	0.46	29.6	-26.6	---	---	725.4	0.022	0.000	20.6	3	1
03/11/06	7:17 p	-13.4	-13.4	-13.4	---	---	27.8	SSE	0.46	33.0	-26.6	---	---	725.4	0.022	0.000	20.7	3	1
03/11/06	7:18 p	-13.4	-13.4	-13.4	---	---	27.8	SSE	0.46	34.8	-26.6	---	---	725.4	0.022	0.000	20.7	3	1
03/11/06	7:19 p	-13.4	-13.4	-13.4	---	---	28.7	SSE	0.48	31.3	-26.7	---	---	725.3	0.022	0.000	20.7	3	1
03/11/06	7:20 p	-13.4	-13.4	-13.4	---	---	27.8	SE	0.46	29.6	-26.6	---	---	725.3	0.022	0.000	20.7	3	1
03/11/06	7:21 p	-13.5	-13.5	-13.5	---	---	27.0	SE	0.45	29.6	-26.4	---	---	725.4	0.022	0.000	20.7	3	1
03/11/06	7:22 p	-13.5	-13.4	-13.5	---	---	27.8	SE	0.46	31.3	-26.6	---	---	725.4	0.022	0.000	20.7	3	1
03/11/06	7:23 p	-13.5	-13.4	-13.6	---	---	29.6	SE	0.49	33.0	-26.9	---	---	725.4	0.022	0.000	20.7	3	1
03/11/06	7:24 p	-13.5	-13.5	-13.6	---	---	27.8	SE	0.46	29.6	-26.6	---	---	725.3	0.022	0.000	20.7	3	1
03/11/06	7:25 p	-13.6	-13.6	-13.6	---	---	27.8	SE	0.46	29.6	-26.7	---	---	725.4	0.022	0.000	20.6	3	1
03/11/06	7:26 p	-13.5	-13.5	-13.6	---	---	29.6	SE	0.49	31.3	-26.9	---	---	725.4	0.022	0.000	20.7	3	1
03/11/06	7:27 p	-13.6	-13.6	-13.6	---	---	29.6	SE	0.49	32.2	-27.0	---	---	725.3	0.022	0.000	20.7	3	1
03/11/06	7:28 p	-13.6	-13.6	-13.6	---	---	27.0	SSE	0.45	30.4	-26.5	---	---	725.4	0.022	0.000	20.6	4	1
03/11/06	7:29 p	-13.6	-13.6	-13.6	---	---	27.8	SE	0.46	32.2	-26.8	---	---	725.3	0.022	0.000	20.6	3	1
03/11/06	7:30 p	-13.6	-13.6	-13.6	---	---	27.8	SE	0.46	31.3	-26.8	---	---	725.4	0.022	0.000	20.6	3	1
03/11/06	7:31 p	-13.6	-13.6	-13.7	---	---	27.8	SSE	0.46	33.0	-26.8	---	---	725.4	0.022	0.000	20.6	4	1
03/11/06	7:32 p	-13.6	-13.6	-13.6	---	---	27.0	SE	0.45	29.6	-26.6	---	---	725.4	0.022	0.000	20.6	4	1
03/11/06	7:33 p	-13.7	-13.7	-13.7	---	---	25.2	SSE	0.42	28.7	-26.3	---	---	725.4	0.022	0.000	20.6	4	1
03/11/06	7:34 p	-13.7	-13.6	-13.7	---	---	26.1	SE	0.43	31.3	-26.5	---	---	725.4	0.022	0.000	20.6	4	1
03/11/06	7:35 p	-13.7	-13.7	-13.7	---	---	27.8	SE	0.46	31.3	-26.8	---	---	725.4	0.022	0.000	20.7	3	1
03/11/06	7:36 p	-13.7	-13.7	-13.7	---	---	28.7	SSE	0.48	33.9	-27.0	---	---	725.6	0.022	0.000	20.6	4	1
03/11/06	7:37 p	-13.7	-13.7	-13.7	---	---	26.1	SSE	0.43	27.8	-26.5	---	---	725.7	0.022	0.000	20.6	3	1
03/11/06	7:38 p	-13.7	-13.7	-13.7	---	---	26.1	SSE	0.43	34.8	-26.6	---	---	725.4	0.022	0.000	20.6	4	1
03/11/06	7:39 p	-13.7	-13.7	-13.7	---	---	28.7	SSE	0.48	33.9	-27.1	---	---	725.6	0.022	0.000	20.7	4	1
03/11/06	7:40 p	-13.7	-13.7	-13.7	---	---	34.8	SSE	0.58	42.6	-28.1	---	---	725.5	0.022	0.000	20.6	3	1
03/11/06	7:41 p	-13.7	-13.6	-13.7	---	---	36.5	SSE	0.61	46.1	-28.2	---	---	725.5	0.022	0.000	20.7	4	1
03/11/06	7:42 p	-13.6	-13.6	-13.6	---	---	37.4	SSE	0.62	42.6	-28.3	---	---	725.6	0.022	0.000	20.7	4	1
03/11/06	7:43 p	-13.5	-13.5	-13.6	---	---	38.3	SSE	0.64	44.3	-28.2	---	---	725.3	0.022	0.000	20.7	3	1
03/11/06	7:44 p	-13.4	-13.4	-13.5	---	---	39.1	SSE	0.65	43.5	-28.3	---	---	725.5	0.022	0.000	20.7	4	1
03/11/06	7:45 p	-13.4	-13.4	-13.4	---	---	34.8	SSE	0.58	45.2	-27.7	---	---	725.6	0.022	0.000	20.7	4	1
03/11/06	7:46 p	-13.4	-13.4	-13.4	---	---	40.9	SSE	0.68	47.0	-28.5	---	---	725.2	0.022	0.000	20.7	4	1
03/11/06	7:47 p	-13.4	-13.3	-13.4	---	---	37.4	SSE	0.62	47.0	-27.9	---	---	725.5	0.022	0.000	20.7	4	1
03/11/06	7:48 p	-13.4	-13.3	-13.4	---	---	40.0	SSE	0.67	46.1	-28.3	---	---	725.4	0.022	0.000	20.7	4	1
03/11/06	7:49 p	-13.3	-13.3	-13.3	---	---	36.5	SSE	0.61	41.7	-27.8	---	---	725.3	0.022	0.000	20.7	4	1
03/11/06	7:50 p	-13.3	-13.3	-13.3	---	---	35.7	SSE	0.59	38.3	-27.7	---	---	725.6	0.022	0.000	20.7	4	1
03/11/06	7:51 p	-13.3	-13.3	-13.3	---	---	34.8	S	0.58	41.7	-27.4	---	---	725.5	0.022	0.000	20.7	4	1
03/11/06	7:52 p	-13.3	-13.2	-13.3	---	---	40.0	S	0.67	47.0	-28.2	---	---	725.4	0.022	0.000	20.7	4	1
03/11/06	7:53 p	-13.3	-13.3	-13.3	---	---	34.8	S	0.58	39.1	-27.4	---	---	725.5	0.022	0.000	20.7	4	1
03/11/06	7:54 p	-13.3	-13.3	-13.3	---	---	36.5	SSE	0.61	43.5	-27.7	---	---	725.3	0.022	0.000	20.7	4	1
03/11/06	7:55 p	-13.3	-13.3	-13.3	---	---	36.5	SSE	0.61	40.0	-27.7	---	---	725.3	0.022	0.000	20.7	4	1
03/11/06	7:56 p	-13.3	-13.3	-13.3	---	---	36.5	SSE	0.61	47.8	-27.7	---	---	725.5	0.022	0.000	20.7	4	1
03/11/06	7:57 p	-13.3	-13.3	-13.3	---	---	37.4	SSE	0.62	43.5	-27.8	---	---	725.3	0.022	0.000	20.8	4	1
03/11/06	7:58 p	-13.3	-13.3	-13.3	---	---	33.9	SSE	0.57	36.5	-27.3	---	---	725.4	0.022	0.000	20.7	4	1
03/11/06	7:59 p	-13.3	-13.3	-13.3	---	---	33.9	SSE	0.57	38.3	-27.3	---	---	725.3	0.022	0.000	20.7	4	1
03/11/06	8:00 p	-13.3	-13.3	-13.3	---	---	29.6	SSE	0.49	36.5	-26.7	---	---	725.5	0.022	0.000	20.7	4	1
03/11/06	8:01 p	-13.3	-13.3	-13.3	---	---	30.4	SSE	0.51	35.7	-26.8	---	---	725.5	0.022	0.000	20.8	4	1
03/11/06	8:02 p	-13.4	-13.3	-13.4	---	---	27.0	SE	0.45	32.2	-26.3	---	---	725.4	0.022	0.000	20.7	4	1
03/11/06	8:03 p	-13.4	-13.4	-13.4	---	---	28.7	SE	0.48	31.3	-26.6	---	---	725.3	0.022	0.000	20.7	4	1
03/11/06	8:04 p	-13.4	-13.4	-13.5	---	---	29.6	SE	0.49	34.8	-26.8	---	---	725.5	0.022	0.000	20.7	4	1
03/11/06	8:05 p	-13.5	-13.4	-13.5	---	---	29.6	SE	0.49	35.7	-26.9	---	---	725.2	0.022	0.000	20.7	4	1
03/11/06	8:06 p	-13.5	-13.5	-13.6	---	---	28.7	SE	0.48	30.4	-26.8	---	---	725.3	0.022	0.000	20.7	4	1
03/11/06	8:07 p	-13.6	-13.6	-13.6	---	---	27.0	SE	0.45	29.6	-26.5	---	---	725.2	0.022	0.000	20.7	4	1
03/11/06	8:08 p	-13.6	-13.6	-13.7	---	---	28.7	SE	0.48	31.3	-26.9	---	---	725.3	0.022	0.000	20.7	4	1
03/11/06	8:09 p	-13.7	-13.6	-13.7	---	---	28.7	SE	0.48	34.8	-27.0	---	---	725.1	0.022	0.000	20.7	4	1
03/11/06	8:10 p	-13.7	-13.7	-13.7	---	---	27.8	SE	0.46	33.9	-26.9	---	---	725.2	0.022	0.000	20.7	4	1
03/11/06	8:11 p	-13.8	-13.8	-13.8	---	---	28.7	SE	0.48	32.2	-27.2	---	---	725.3	0.022	0.000	20.7	4	1
03/11/06	8:12 p	-13.8	-13.8	-13.8	---	---	29.6	SE	0.49	32.2	-27.4	---	---	725.0	0.022	0.000	20.7	4	1
03/11/06	8:13 p	-13.9	-13.9	-13.9	---	---	29.6	SE	0.49	33.9	-27.4	---	---	725.2	0.022	0.000	20.7	4	1
03/11/06	8:14 p	-13.9	-13.9	-13.9	---	---	30.4	SE	0.51	38.3	-27.7	---	---	725.1	0.022	0.000	20.7	4	1
03/11/06	8:15 p	-14.0	-13.9	-14.0	---	---	32.2	SE	0.54	39.1	-28.1	---	---	725.0	0.022	0.000	20.7	4	1
03/11/06	8:16 p	-14.1	-14.0	-14.1	---	---	31.3	SE	0.52	36.5	-27.9	---	---	725.1	0.022	0.000	20.7	4	1
03/11/06	8:17 p	-14.1	-14.1	-14.1	---	---	32.2	SE	0.54	36.5	-28.1	---	---	725.1	0.022	0.000	20.7	4	1
03/11/06	8:18 p	-14.1	-14.1	-14.1	---	---	32.2	SE	0.54	36.5	-28.2	---	---	725.1	0.023	0.000	20.7	4	1
03/11/06	8:19 p	-14.1	-14.1	-14.2	---	---	30.4	SE	0.51	38.3	-27.9	---	---	725.2	0.023	0.000	20.7	4	1
03/11/06	8:20 p	-14.2	-14.2	-14.2	---	---	32.2	SE	0.54	36.5	-28.3	---	---	725.0	0.023	0.000	20.7	4	1
03/11/06	8:21 p	-14.2	-14.2	-14.2	---	---	32.2	SE	0.54	34.8	-28.3	---	---	725.1	0.023	0.000	20.7	4	1
03/11/06	8:22 p	-14.2	-14.2	-14.2	---	---	31.3	SE	0.52	34.8	-28.2	---	---	725.1	0.023	0.000	20.7	4	1
03/11/06	8:23 p	-14.2	-14.2	-14.3	---	---	31.3	SE	0.52	33.9	-28.2	---	---	725.1	0.023	0.000	20.7	4	1
03/11/06	8:24 p	-14.3	-14.3	-14.3	---	---	28.7	SE	0.48	31.3	-27.8	---	---	725.2	0.023	0.000	20.7	4	1
03/11/06	8:25 p	-14.3	-14.3	-14.3	---	---	30.4	SE	0.51	34.8	-28.1	---	---	725.2	0.023	0.000	20.7	4	1
03/11/06	8:26 p	-14.3	-14.3	-14.3	---	---	28.7	SE	0.48	33.0	-27.9	---	---	725.1	0.023	0.000	20.7	4	1
03/11/06	8:27 p	-14.3	-14.3	-14.4	---	---	28.7	ESE	0.48	30.4	-27.9	---	---	725.1	0.023	0.000	20.7	4	1
03/11/06	8:28 p	-14.4	-14.3	-14.4	---	---	31.3	ESE	0.52	37.4	-28.4	---	---	724.9	0.023	0.000	20.7	4	1
03/11/06	8:29 p	-14.4	-14.4	-14.4	---	---	29.6	ESE	0.49	33.0	-28.1	---	---	725.1	0.023	0.000	20.7	4	1
03/11/06	8:30 p	-14.4	-14.4	-14.5	---	---	29.6	ESE	0.49	32.2	-28.2	---	---	725.0	0.023	0.000	20.7	4	1
03/11/06	8:31 p	-14.5	-14.5	-14.6	---	---	28.7	ESE	0.48	32.2	-28.1	---	---	725.1	0.023	0.000	20.7	4	1
03/11/06	8:32 p	-14.6	-14.6	-14.6	---	---	27.8	ESE	0.46	33.0	-28.1	---	---	725.0	0.023	0.000	20.7	4	1
03/11/06	8:33 p	-14.6	-14.6	-14.7	---	---	30.4	SE	0.51	35.7	-28.6	---	---	725.1	0.023	0.000	20.7	4	1
03/11/06	8:34 p	-14.7	-14.6	-14.7	---	---	27.0	SE	0.45	30.4	-28.1	---	---	725.2	0.023	0.000	20.7	4	1
03/11/06	8:35 p	-14.6	-14.6	-14.7	---	---	26.1	SE	0.43	29.6	-27.8	---	---	725.1	0.023	0.000	20.7	4	1
03/11/06	8:36 p	-14.7	-14.7	-14.7	---	---	25.2	SE	0.42	27.0	-27.7	---	---	725.2	0.023	0.000	20.7	4	1
03/11/06	8:37 p	-14.7	-14.7	-14.7	---	---	26.1	ESE	0.43	31.3	-27.9	---	---	725.3	0.023	0.000	20.7	4	1
03/11/06	8:38 p	-14.7	-14.7	-14.7	---	---	27.0	ESE	0.45	31.3	-28.1	---	---	725.2	0.023	0.000	20.7	4	1
03/11/06	8:39 p	-14.7	-14.7	-14.7	---	---	26.1	ESE	0.43	29.6	-27.9	---	---	725.2	0.023	0.000	20.7	4	1
03/11/06	8:40 p	-14.7	-14.7	-14.8	---	---	24.3	ESE	0.41	27.0	-27.6	---	---	725.3	0.023	0.000	20.6	4	1
03/11/06	8:41 p	-14.8	-14.8	-14.8	---	---	24.3	SE	0.41	26.1	-27.7	---	---	725.4	0.023	0.000	20.6	4	1
03/11/06	8:42 p	-14.8	-14.8	-14.8	---	---	24.3	ESE	0.41	27.0	-27.7	---	---	725.2	0.023	0.000	20.6	4	1
03/11/06	8:43 p	-14.9	-14.8	-14.9	---	---	25.2	ESE	0.42	27.0	-28.0	---	---	725.3	0.023	0.000	20.6	4	1
03/11/06	8:44 p	-14.9	-14.9	-14.9	---	---	26.1	ESE	0.43	27.8	-28.2	---	---	725.3	0.023	0.000	20.6	4	1
03/11/06	8:45 p	-14.9	-14.9	-15.0	---	---	26.1	ESE	0.43	28.7	-28.2	---	---	725.2	0.023	0.000	20.6	4	1
03/11/06	8:46 p	-15.0	-14.9	-15.0	---	---	24.3	ESE	0.41	27.0	-27.9	---	---	725.3	0.023	0.000	20.6	3	1
03/11/06	8:47 p	-15.0	-15.0	-15.1	---	---	24.3	ESE	0.41	27.8	-27.9	---	---	725.4	0.023	0.000	20.6	3	1
03/11/06	8:48 p	-15.1	-15.1	-15.1	---	---	24.3	ESE	0.41	27.8	-28.1	---	---	725.4	0.023	0.000	20.6	4	1
03/11/06	8:49 p	-15.1	-15.1	-15.1	---	---	26.1	ESE	0.43	29.6	-28.4	---	---	725.4	0.023	0.000	20.6	3	1
03/11/06	8:50 p	-15.1	-15.1	-15.1	---	---	26.1	ESE	0.43	27.8	-28.4	---	---	725.3	0.023	0.000	20.7	4	1
03/11/06	8:51 p	-15.2	-15.2	-15.2	---	---	26.1	ESE	0.43	31.3	-28.6	---	---	725.3	0.023	0.000	20.7	4	1
03/11/06	8:52 p	-15.3	-15.3	-15.3	---	---	24.3	ESE	0.41	27.8	-28.3	---	---	725.4	0.023	0.000	20.6	4	1
03/11/06	8:53 p	-15.3	-15.3	-15.3	---	---	26.1	ESE	0.43	28.7	-28.7	---	---	725.4	0.023	0.000	20.6	4	1
03/11/06	8:54 p	-15.3	-15.3	-15.3	---	---	26.1	ESE	0.43	29.6	-28.8	---	---	725.3	0.023	0.000	20.6	3	1
03/11/06	8:55 p	-15.3	-15.3	-15.4	---	---	23.5	E	0.39	27.8	-28.2	---	---	725.4	0.023	0.000	20.6	4	1
03/11/06	8:56 p	-15.4	-15.4	-15.4	---	---	24.3	ESE	0.41	26.1	-28.5	---	---	725.4	0.023	0.000	20.6	4	1
03/11/06	8:57 p	-15.4	-15.4	-15.4	---	---	26.1	ESE	0.43	30.4	-28.9	---	---	725.2	0.023	0.000	20.6	4	1
03/11/06	8:58 p	-15.4	-15.4	-15.5	---	---	25.2	ESE	0.42	30.4	-28.7	---	---	725.3	0.023	0.000	20.6	3	1
03/11/06	8:59 p	-15.5	-15.4	-15.5	---	---	25.2	SE	0.42	29.6	-28.8	---	---	725.4	0.023	0.000	20.6	4	1
03/11/06	9:00 p	-15.5	-15.4	-15.5	---	---	27.0	SE	0.45	33.0	-29.2	---	---	725.6	0.023	0.000	20.6	4	1
03/11/06	9:01 p	-15.5	-15.5	-15.5	---	---	23.5	SE	0.39	28.7	-28.4	---	---	725.6	0.023	0.000	20.6	3	1
03/11/06	9:02 p	-15.5	-15.5	-15.5	---	---	22.6	SE	0.38	26.1	-28.3	---	---	725.4	0.023	0.000	20.6	3	1
03/11/06	9:03 p	-15.5	-15.4	-15.5	---	---	20.0	ESE	0.33	24.3	-27.7	---	---	725.6	0.023	0.000	20.6	4	1
03/11/06	9:04 p	-15.5	-15.5	-15.5	---	---	24.3	SE	0.41	30.4	-28.7	---	---	725.6	0.023	0.000	20.6	4	1
03/11/06	9:05 p	-15.5	-15.4	-15.5	---	---	20.9	SE	0.35	26.1	-27.8	---	---	725.7	0.023	0.000	20.6	3	1
03/11/06	9:06 p	-15.5	-15.4	-15.5	---	---	20.9	SE	0.35	25.2	-27.8	---	---	725.6	0.023	0.000	20.6	4	1
03/11/06	9:07 p	-15.5	-15.4	-15.5	---	---	23.5	SE	0.39	26.1	-28.4	---	---	725.7	0.023	0.000	20.6	3	1
03/11/06	9:08 p	-15.5	-15.4	-15.5	---	---	22.6	SE	0.38	25.2	-28.3	---	---	725.7	0.023	0.000	20.6	3	1
03/11/06	9:09 p	-15.4	-15.4	-15.4	---	---	21.7	SE	0.36	27.0	-28.0	---	---	725.8	0.023	0.000	20.6	3	1
03/11/06	9:10 p	-15.4	-15.4	-15.4	---	---	23.5	SE	0.39	27.8	-28.4	---	---	725.7	0.023	0.000	20.6	4	1
03/11/06	9:11 p	-15.4	-15.4	-15.4	---	---	21.7	SE	0.36	26.1	-27.9	---	---	725.8	0.023	0.000	20.6	3	1
03/11/06	9:12 p	-15.4	-15.4	-15.4	---	---	20.9	SSE	0.35	24.3	-27.7	---	---	726.0	0.023	0.000	20.6	3	1
03/11/06	9:13 p	-15.3	-15.3	-15.3	---	---	20.0	SSE	0.33	23.5	-27.4	---	---	726.0	0.023	0.000	20.7	4	1
03/11/06	9:14 p	-15.3	-15.3	-15.3	---	---	24.3	SSE	0.41	31.3	-28.4	---	---	725.7	0.023	0.000	20.7	3	1
03/11/06	9:15 p	-15.3	-15.2	-15.3	---	---	22.6	SSE	0.38	25.2	-27.9	---	---	725.7	0.023	0.000	20.7	4	1
03/11/06	9:16 p	-15.2	-15.2	-15.2	---	---	21.7	SE	0.36	27.0	-27.6	---	---	725.8	0.023	0.000	20.7	4	1
03/11/06	9:17 p	-15.1	-15.1	-15.2	---	---	20.0	SE	0.33	24.3	-27.1	---	---	725.9	0.023	0.000	20.7	4	1
03/11/06	9:18 p	-15.1	-15.1	-15.1	---	---	20.0	SE	0.33	27.0	-27.1	---	---	725.8	0.023	0.000	20.7	4	1
03/11/06	9:19 p	-15.1	-15.0	-15.1	---	---	13.9	SSE	0.23	19.1	-25.3	---	---	726.1	0.023	0.000	20.7	3	1
03/11/06	9:20 p	-15.0	-15.0	-15.1	---	---	21.7	SSE	0.36	28.7	-27.4	---	---	725.9	0.023	0.000	20.7	4	1
03/11/06	9:21 p	-15.0	-14.9	-15.0	---	---	22.6	SE	0.38	31.3	-27.6	---	---	725.9	0.023	0.000	20.7	3	1
03/11/06	9:22 p	-14.9	-14.9	-14.9	---	---	18.3	SE	0.30	20.9	-26.4	---	---	725.9	0.023	0.000	20.7	4	1
03/11/06	9:23 p	-14.9	-14.9	-14.9	---	---	20.9	ESE	0.35	25.2	-27.1	---	---	726.0	0.023	0.000	20.7	3	1
03/11/06	9:24 p	-14.8	-14.8	-14.8	---	---	16.5	SE	0.28	20.9	-25.8	---	---	726.0	0.023	0.000	20.7	3	1
03/11/06	9:25 p	-14.8	-14.8	-14.8	---	---	14.8	E	0.25	20.0	-25.3	---	---	726.2	0.023	0.000	20.7	4	1
03/11/06	9:26 p	-14.8	-14.8	-14.8	---	---	13.9	E	0.23	17.4	-24.9	---	---	726.2	0.023	0.000	20.7	4	1
03/11/06	9:27 p	-14.8	-14.8	-14.8	---	---	13.9	E	0.23	18.3	-24.9	---	---	726.2	0.023	0.000	20.7	4	1
03/11/06	9:28 p	-14.8	-14.7	-14.8	---	---	13.0	E	0.22	15.7	-24.7	---	---	726.2	0.023	0.000	20.7	4	1
03/11/06	9:29 p	-14.8	-14.7	-14.8	---	---	14.8	E	0.25	17.4	-25.2	---	---	726.2	0.023	0.000	20.7	4	1
03/11/06	9:30 p	-14.7	-14.7	-14.8	---	---	13.9	E	0.23	17.4	-24.9	---	---	726.1	0.023	0.000	20.7	4	1
03/11/06	9:31 p	-14.7	-14.7	-14.7	---	---	10.4	E	0.17	13.9	-23.6	---	---	726.1	0.023	0.000	20.7	3	1
03/11/06	9:32 p	-14.7	-14.7	-14.8	---	---	14.8	E	0.25	23.5	-25.2	---	---	726.0	0.023	0.000	20.7	4	1
03/11/06	9:33 p	-14.7	-14.7	-14.8	---	---	13.0	E	0.22	17.4	-24.6	---	---	726.1	0.023	0.000	20.7	4	1
03/11/06	9:34 p	-14.7	-14.7	-14.7	---	---	17.4	E	0.29	20.0	-25.9	---	---	726.1	0.023	0.000	20.7	3	1
03/11/06	9:35 p	-14.8	-14.7	-14.8	---	---	13.0	E	0.22	16.5	-24.7	---	---	726.3	0.023	0.000	20.7	3	1
03/11/06	9:36 p	-14.8	-14.7	-14.8	---	---	13.9	E	0.23	17.4	-24.9	---	---	726.2	0.023	0.000	20.7	4	1
03/11/06	9:37 p	-14.8	-14.8	-14.8	---	---	13.9	E	0.23	17.4	-24.9	---	---	726.3	0.023	0.000	20.7	4	1
03/11/06	9:38 p	-14.8	-14.8	-14.8	---	---	13.0	E	0.22	16.5	-24.7	---	---	726.3	0.023	0.000	20.7	3	1
03/11/06	9:39 p	-14.8	-14.8	-14.8	---	---	13.0	E	0.22	14.8	-24.7	---	---	726.3	0.023	0.000	20.7	4	1
03/11/06	9:40 p	-14.8	-14.8	-14.8	---	---	13.0	E	0.22	14.8	-24.7	---	---	726.2	0.023	0.000	20.7	4	1
03/11/06	9:41 p	-14.8	-14.8	-14.9	---	---	13.9	E	0.23	16.5	-25.0	---	---	726.3	0.023	0.000	20.7	3	1
03/11/06	9:42 p	-14.8	-14.8	-14.9	---	---	13.9	E	0.23	20.0	-25.0	---	---	726.2	0.023	0.000	20.7	3	1
03/11/06	9:43 p	-14.9	-14.8	-14.9	---	---	14.8	E	0.25	17.4	-25.4	---	---	726.2	0.023	0.000	20.7	4	1
03/11/06	9:44 p	-14.8	-14.8	-14.9	---	---	13.0	E	0.22	17.4	-24.7	---	---	726.2	0.023	0.000	20.7	3	1
03/11/06	9:45 p	-14.9	-14.9	-14.9	---	---	13.9	E	0.23	17.4	-25.1	---	---	726.1	0.023	0.000	20.7	3	1
03/11/06	9:46 p	-14.9	-14.9	-14.9	---	---	17.4	E	0.29	22.6	-26.2	---	---	726.1	0.023	0.000	20.7	3	1
03/11/06	9:47 p	-14.9	-14.9	-14.9	---	---	15.7	E	0.26	23.5	-25.7	---	---	726.3	0.023	0.000	20.7	4	1
03/11/06	9:48 p	-14.9	-14.9	-14.9	---	---	12.2	E	0.20	17.4	-24.6	---	---	726.2	0.023	0.000	20.7	4	1
03/11/06	9:49 p	-14.9	-14.9	-14.9	---	---	13.0	E	0.22	14.8	-24.9	---	---	726.3	0.023	0.000	20.7	4	1
03/11/06	9:50 p	-14.9	-14.9	-15.0	---	---	12.2	E	0.20	14.8	-24.6	---	---	726.3	0.023	0.000	20.7	4	1
03/11/06	9:51 p	-15.0	-15.0	-15.0	---	---	15.7	E	0.26	20.0	-25.8	---	---	726.2	0.023	0.000	20.7	4	1
03/11/06	9:52 p	-15.0	-15.0	-15.0	---	---	15.7	ESE	0.26	22.6	-25.8	---	---	726.3	0.023	0.000	20.7	3	1
03/11/06	9:53 p	-15.0	-14.9	-15.0	---	---	12.2	ESE	0.20	15.7	-24.6	---	---	726.2	0.023	0.000	20.7	3	1
03/11/06	9:54 p	-15.0	-15.0	-15.0	---	---	11.3	E	0.19	14.8	-24.3	---	---	726.1	0.023	0.000	20.7	3	1
03/11/06	9:55 p	-15.0	-15.0	-15.1	---	---	13.0	ESE	0.22	16.5	-24.9	---	---	726.2	0.023	0.000	20.7	3	1
03/11/06	9:56 p	-15.0	-15.0	-15.1	---	---	11.3	E	0.19	15.7	-24.3	---	---	726.3	0.023	0.000	20.7	3	1
03/11/06	9:57 p	-15.0	-15.0	-15.1	---	---	13.0	ESE	0.22	14.8	-24.9	---	---	726.2	0.023	0.000	20.7	3	1
03/11/06	9:58 p	-15.0	-15.0	-15.0	---	---	13.0	ESE	0.22	14.8	-24.9	---	---	726.3	0.023	0.000	20.7	4	1
03/11/06	9:59 p	-15.0	-15.0	-15.0	---	---	14.8	E	0.25	17.4	-25.5	---	---	726.3	0.023	0.000	20.7	4	1
03/11/06	10:00 p	-15.0	-15.0	-15.1	---	---	11.3	ESE	0.19	13.9	-24.3	---	---	726.3	0.023	0.000	20.7	4	1
03/11/06	10:01 p	-15.0	-15.0	-15.0	---	---	15.7	SE	0.26	19.1	-25.8	---	---	726.2	0.023	0.000	20.7	3	1
03/11/06	10:02 p	-15.0	-15.0	-15.0	---	---	13.0	ESE	0.22	16.5	-24.9	---	---	726.2	0.023	0.000	20.7	4	1
03/11/06	10:03 p	-15.0	-14.9	-15.0	---	---	13.9	SE	0.23	17.4	-25.2	---	---	726.3	0.023	0.000	20.8	3	1
03/11/06	10:04 p	-14.9	-14.9	-15.0	---	---	15.7	SE	0.26	17.4	-25.7	---	---	726.3	0.023	0.000	20.8	4	1
03/11/06	10:05 p	-14.9	-14.9	-14.9	---	---	17.4	SE	0.29	20.0	-26.2	---	---	726.2	0.023	0.000	20.8	4	1
03/11/06	10:06 p	-14.9	-14.9	-14.9	---	---	16.5	SSE	0.28	22.6	-25.9	---	---	726.2	0.023	0.000	20.8	3	1
03/11/06	10:07 p	-14.9	-14.9	-14.9	---	---	21.7	SSE	0.36	24.3	-27.2	---	---	726.1	0.023	0.000	20.8	3	1
03/11/06	10:08 p	-14.8	-14.8	-14.9	---	---	23.5	S	0.39	28.7	-27.6	---	---	726.2	0.023	0.000	20.8	4	1
03/11/06	10:09 p	-14.8	-14.7	-14.8	---	---	16.5	S	0.28	20.9	-25.8	---	---	726.3	0.023	0.000	20.8	3	1
03/11/06	10:10 p	-14.7	-14.7	-14.7	---	---	18.3	SSE	0.30	23.5	-26.1	---	---	726.1	0.023	0.000	20.8	4	1
03/11/06	10:11 p	-14.6	-14.6	-14.7	---	---	17.4	SSE	0.29	20.9	-25.8	---	---	726.3	0.023	0.000	20.8	4	1
03/11/06	10:12 p	-14.6	-14.6	-14.6	---	---	17.4	SSE	0.29	20.9	-25.7	---	---	726.2	0.023	0.000	20.8	3	1
03/11/06	10:13 p	-14.5	-14.4	-14.6	---	---	20.0	S	0.33	23.5	-26.3	---	---	726.3	0.023	0.000	20.8	3	1
03/11/06	10:14 p	-14.4	-14.4	-14.5	---	---	19.1	SSE	0.32	26.1	-26.0	---	---	726.4	0.023	0.000	20.8	4	1
03/11/06	10:15 p	-14.4	-14.3	-14.4	---	---	15.7	SSE	0.26	17.4	-25.0	---	---	726.4	0.023	0.000	20.8	4	1
03/11/06	10:16 p	-14.3	-14.3	-14.3	---	---	15.7	SSE	0.26	20.0	-24.9	---	---	726.2	0.023	0.000	20.8	3	1
03/11/06	10:17 p	-14.3	-14.3	-14.3	---	---	18.3	SSE	0.30	20.9	-25.6	---	---	726.2	0.023	0.000	20.8	3	1
03/11/06	10:18 p	-14.2	-14.2	-14.3	---	---	18.3	SSE	0.30	24.3	-25.5	---	---	726.1	0.023	0.000	20.8	4	1
03/11/06	10:19 p	-14.2	-14.2	-14.2	---	---	22.6	SSE	0.38	28.7	-26.5	---	---	726.1	0.023	0.000	20.8	4	1
03/11/06	10:20 p	-14.1	-14.1	-14.2	---	---	17.4	SSE	0.29	22.6	-25.1	---	---	726.2	0.023	0.000	20.8	4	1
03/11/06	10:21 p	-14.1	-14.1	-14.1	---	---	19.1	SSE	0.32	22.6	-25.5	---	---	726.1	0.022	0.000	20.8	4	1
03/11/06	10:22 p	-14.0	-14.0	-14.1	---	---	18.3	SSE	0.30	22.6	-25.2	---	---	726.3	0.022	0.000	20.8	4	1
03/11/06	10:23 p	-14.0	-14.0	-14.0	---	---	14.8	SSE	0.25	17.4	-24.2	---	---	726.3	0.022	0.000	20.8	3	1
03/11/06	10:24 p	-13.9	-13.9	-13.9	---	---	19.1	SSE	0.32	22.6	-25.3	---	---	726.2	0.022	0.000	20.8	4	1
03/11/06	10:25 p	-13.8	-13.8	-13.9	---	---	20.9	S	0.35	25.2	-25.6	---	---	726.2	0.022	0.000	20.8	4	1
03/11/06	10:26 p	-13.8	-13.8	-13.8	---	---	22.6	SSE	0.38	35.7	-25.9	---	---	726.1	0.022	0.000	20.8	3	1
03/11/06	10:27 p	-13.8	-13.7	-13.8	---	---	20.9	S	0.35	26.1	-25.6	---	---	726.2	0.022	0.000	20.8	3	1
03/11/06	10:28 p	-13.7	-13.7	-13.7	---	---	23.5	S	0.39	30.4	-26.1	---	---	726.1	0.022	0.000	20.8	4	1
03/11/06	10:29 p	-13.6	-13.6	-13.6	---	---	19.1	SSE	0.32	27.0	-24.9	---	---	726.3	0.022	0.000	20.8	4	1
03/11/06	10:30 p	-13.6	-13.6	-13.6	---	---	17.4	S	0.29	22.6	-24.4	---	---	726.1	0.022	0.000	20.8	3	1
03/11/06	10:31 p	-13.5	-13.4	-13.6	---	---	20.0	SSE	0.33	23.5	-25.0	---	---	725.8	0.022	0.000	20.8	4	1
03/11/06	10:32 p	-13.4	-13.4	-13.5	---	---	18.3	SE	0.30	23.5	-24.5	---	---	726.2	0.022	0.000	20.8	3	1
03/11/06	10:33 p	-13.4	-13.4	-13.4	---	---	20.0	SSE	0.33	25.2	-24.8	---	---	726.2	0.022	0.000	20.8	4	1
03/11/06	10:34 p	-13.4	-13.3	-13.4	---	---	18.3	SSE	0.30	21.7	-24.4	---	---	726.2	0.022	0.000	20.8	4	1
03/11/06	10:35 p	-13.3	-13.3	-13.3	---	---	18.3	SSE	0.30	21.7	-24.3	---	---	726.2	0.022	0.000	20.8	4	1
03/11/06	10:36 p	-13.3	-13.3	-13.3	---	---	18.3	S	0.30	26.1	-24.3	---	---	726.1	0.022	0.000	20.8	4	1
03/11/06	10:37 p	-13.3	-13.2	-13.3	---	---	19.1	SSE	0.32	21.7	-24.5	---	---	726.2	0.022	0.000	20.8	4	1
03/11/06	10:38 p	-13.2	-13.2	-13.3	---	---	20.9	SSE	0.35	24.3	-24.8	---	---	726.2	0.022	0.000	20.8	4	1
03/11/06	10:39 p	-13.2	-13.2	-13.2	---	---	21.7	SSE	0.36	25.2	-25.0	---	---	726.2	0.022	0.000	20.8	4	1
03/11/06	10:40 p	-13.2	-13.2	-13.2	---	---	20.9	SSE	0.35	22.6	-24.7	---	---	726.1	0.022	0.000	20.8	4	1
03/11/06	10:41 p	-13.1	-13.1	-13.2	---	---	19.1	SSE	0.32	21.7	-24.3	---	---	726.1	0.022	0.000	20.8	4	1
03/11/06	10:42 p	-13.1	-13.1	-13.1	---	---	20.9	SSE	0.35	23.5	-24.7	---	---	726.3	0.022	0.000	20.8	4	1
03/11/06	10:43 p	-13.1	-13.0	-13.1	---	---	21.7	S	0.36	29.6	-24.8	---	---	726.0	0.022	0.000	20.8	4	1
03/11/06	10:44 p	-13.0	-12.9	-13.0	---	---	19.1	SSE	0.32	20.9	-24.1	---	---	726.2	0.022	0.000	20.8	4	1
03/11/06	10:45 p	-12.9	-12.9	-13.0	---	---	21.7	SSE	0.36	27.0	-24.7	---	---	726.1	0.022	0.000	20.8	4	1
03/11/06	10:46 p	-12.9	-12.9	-12.9	---	---	20.9	SSE	0.35	25.2	-24.4	---	---	726.1	0.022	0.000	20.8	4	1
03/11/06	10:47 p	-12.9	-12.8	-12.9	---	---	19.1	SSE	0.32	22.6	-23.9	---	---	726.2	0.022	0.000	20.8	4	1
03/11/06	10:48 p	-12.8	-12.8	-12.8	---	---	21.7	SSE	0.36	29.6	-24.5	---	---	726.2	0.022	0.000	20.8	4	1
03/11/06	10:49 p	-12.8	-12.8	-12.8	---	---	21.7	S	0.36	28.7	-24.5	---	---	726.2	0.022	0.000	20.8	4	1
03/11/06	10:50 p	-12.8	-12.7	-12.8	---	---	21.7	SSE	0.36	27.0	-24.4	---	---	726.1	0.022	0.000	20.8	4	1
03/11/06	10:51 p	-12.7	-12.7	-12.7	---	---	23.5	SSE	0.39	31.3	-24.7	---	---	726.4	0.022	0.000	20.9	4	1
03/11/06	10:52 p	-12.7	-12.7	-12.7	---	---	22.6	SSE	0.38	28.7	-24.6	---	---	726.1	0.022	0.000	20.9	4	1
03/11/06	10:53 p	-12.7	-12.7	-12.7	---	---	27.8	SSE	0.46	33.9	-25.4	---	---	726.0	0.022	0.000	20.9	4	1
03/11/06	10:54 p	-12.7	-12.7	-12.7	---	---	27.8	SSE	0.46	33.0	-25.4	---	---	726.2	0.022	0.000	20.9	4	1
03/11/06	10:55 p	-12.7	-12.6	-12.7	---	---	26.1	SSE	0.43	29.6	-25.2	---	---	726.1	0.022	0.000	20.9	4	1
03/11/06	10:56 p	-12.6	-12.6	-12.7	---	---	27.0	SSE	0.45	29.6	-25.2	---	---	726.1	0.021	0.000	20.9	4	1
03/11/06	10:57 p	-12.6	-12.6	-12.6	---	---	24.3	SSE	0.41	27.8	-24.7	---	---	726.0	0.021	0.000	20.9	4	1
03/11/06	10:58 p	-12.6	-12.6	-12.6	---	---	27.0	SSE	0.45	32.2	-25.2	---	---	726.0	0.021	0.000	20.8	4	1
03/11/06	10:59 p	-12.6	-12.6	-12.6	---	---	25.2	SE	0.42	32.2	-24.9	---	---	726.1	0.021	0.000	20.8	4	1
03/11/06	11:00 p	-12.6	-12.6	-12.6	---	---	28.7	SSE	0.48	32.2	-25.4	---	---	726.1	0.021	0.000	20.9	4	1
03/11/06	11:01 p	-12.6	-12.5	-12.6	---	---	24.3	SSE	0.41	29.6	-24.7	---	---	726.0	0.021	0.000	20.9	4	1
03/11/06	11:02 p	-12.5	-12.5	-12.5	---	---	26.1	SSE	0.43	31.3	-24.9	---	---	726.2	0.021	0.000	20.9	4	1
03/11/06	11:03 p	-12.5	-12.4	-12.5	---	---	26.1	SSE	0.43	33.9	-24.9	---	---	726.1	0.021	0.000	20.9	4	1
03/11/06	11:04 p	-12.4	-12.4	-12.4	---	---	24.3	SSE	0.41	27.8	-24.5	---	---	726.1	0.021	0.000	20.9	4	1
03/11/06	11:05 p	-12.4	-12.4	-12.4	---	---	25.2	SSE	0.42	30.4	-24.7	---	---	726.2	0.021	0.000	20.9	4	1
03/11/06	11:06 p	-12.4	-12.4	-12.4	---	---	22.6	SSE	0.38	30.4	-24.2	---	---	726.1	0.021	0.000	20.9	4	1
03/11/06	11:07 p	-12.4	-12.4	-12.4	---	---	24.3	SSE	0.41	29.6	-24.5	---	---	726.1	0.021	0.000	20.9	4	1
03/11/06	11:08 p	-12.4	-12.4	-12.4	---	---	26.1	SSE	0.43	32.2	-24.8	---	---	726.2	0.021	0.000	20.9	4	1
03/11/06	11:09 p	-12.4	-12.4	-12.4	---	---	26.1	SSE	0.43	31.3	-24.8	---	---	726.1	0.021	0.000	20.9	4	1
03/11/06	11:10 p	-12.4	-12.4	-12.4	---	---	23.5	SSE	0.39	28.7	-24.3	---	---	726.2	0.021	0.000	20.9	4	1
03/11/06	11:11 p	-12.4	-12.4	-12.4	---	---	24.3	SSE	0.41	29.6	-24.4	---	---	726.3	0.021	0.000	20.9	4	1
03/11/06	11:12 p	-12.4	-12.3	-12.4	---	---	30.4	SSE	0.51	33.9	-25.6	---	---	726.1	0.021	0.000	20.9	4	1
03/11/06	11:13 p	-12.4	-12.3	-12.4	---	---	27.0	S	0.45	30.4	-24.9	---	---	726.1	0.021	0.000	20.9	4	1
03/11/06	11:14 p	-12.4	-12.4	-12.4	---	---	26.1	S	0.43	31.3	-24.8	---	---	726.1	0.021	0.000	20.9	4	1
03/11/06	11:15 p	-12.4	-12.3	-12.4	---	---	27.8	S	0.46	33.9	-25.1	---	---	726.1	0.021	0.000	20.9	4	1
03/11/06	11:16 p	-12.3	-12.3	-12.3	---	---	28.7	S	0.48	33.9	-25.1	---	---	726.2	0.021	0.000	20.9	4	1
03/11/06	11:17 p	-12.3	-12.3	-12.3	---	---	27.8	S	0.46	33.0	-24.9	---	---	726.1	0.021	0.000	20.9	4	1
03/11/06	11:18 p	-12.3	-12.3	-12.3	---	---	28.7	S	0.48	33.0	-25.1	---	---	726.1	0.021	0.000	20.9	4	1
03/11/06	11:19 p	-12.3	-12.3	-12.3	---	---	27.8	S	0.46	32.2	-24.9	---	---	726.1	0.021	0.000	20.9	4	1
03/11/06	11:20 p	-12.2	-12.2	-12.2	---	---	28.7	S	0.48	36.5	-25.0	---	---	726.1	0.021	0.000	20.9	4	1
03/11/06	11:21 p	-12.2	-12.2	-12.2	---	---	25.2	S	0.42	29.6	-24.3	---	---	726.0	0.021	0.000	20.9	4	1
03/11/06	11:22 p	-12.2	-12.2	-12.2	---	---	24.3	S	0.41	27.8	-24.2	---	---	726.1	0.021	0.000	20.9	4	1
03/11/06	11:23 p	-12.1	-12.1	-12.2	---	---	26.1	SSE	0.43	29.6	-24.4	---	---	726.1	0.021	0.000	20.9	4	1
03/11/06	11:24 p	-12.1	-12.1	-12.1	---	---	27.0	S	0.45	31.3	-24.5	---	---	726.0	0.021	0.000	20.9	4	1
03/11/06	11:25 p	-12.1	-12.1	-12.1	---	---	27.0	S	0.45	30.4	-24.5	---	---	726.1	0.021	0.000	20.9	4	1
03/11/06	11:26 p	-12.1	-12.0	-12.1	---	---	29.6	S	0.49	33.0	-24.9	---	---	726.1	0.021	0.000	20.9	4	1
03/11/06	11:27 p	-12.0	-12.0	-12.1	---	---	27.8	S	0.46	33.9	-24.6	---	---	726.2	0.021	0.000	20.9	4	1
03/11/06	11:28 p	-12.0	-12.0	-12.1	---	---	28.7	S	0.48	34.8	-24.7	---	---	726.1	0.021	0.000	20.9	4	1
03/11/06	11:29 p	-12.0	-11.9	-12.0	---	---	24.3	S	0.41	28.7	-23.9	---	---	726.2	0.021	0.000	20.9	4	1
03/11/06	11:30 p	-12.0	-11.9	-12.0	---	---	24.3	S	0.41	27.8	-23.9	---	---	726.2	0.021	0.000	20.9	4	1
03/11/06	11:31 p	-11.9	-11.9	-12.0	---	---	27.0	S	0.45	32.2	-24.3	---	---	726.2	0.021	0.000	20.9	4	1
03/11/06	11:32 p	-11.9	-11.9	-11.9	---	---	26.1	SSE	0.43	28.7	-24.2	---	---	726.3	0.021	0.000	20.9	4	1
03/11/06	11:33 p	-11.9	-11.9	-11.9	---	---	28.7	S	0.48	32.2	-24.6	---	---	726.3	0.021	0.000	20.9	4	1
03/11/06	11:34 p	-11.9	-11.9	-11.9	---	---	25.2	S	0.42	30.4	-23.9	---	---	726.3	0.021	0.000	20.9	4	1
03/11/06	11:35 p	-11.9	-11.8	-11.9	---	---	27.0	S	0.45	32.2	-24.3	---	---	726.4	0.021	0.000	20.9	4	1
03/11/06	11:36 p	-11.9	-11.8	-11.9	---	---	21.7	S	0.36	25.2	-23.2	---	---	726.4	0.021	0.000	20.9	4	1
03/11/06	11:37 p	-11.8	-11.8	-11.8	---	---	25.2	S	0.42	29.6	-23.8	---	---	726.4	0.021	0.000	20.9	4	1
03/11/06	11:38 p	-11.9	-11.8	-11.9	---	---	22.6	S	0.38	27.0	-23.4	---	---	726.4	0.021	0.000	20.9	4	1
03/11/06	11:39 p	-11.8	-11.8	-11.9	---	---	19.1	S	0.32	24.3	-22.6	---	---	726.4	0.021	0.000	20.9	4	1
03/11/06	11:40 p	-11.8	-11.8	-11.8	---	---	23.5	SSE	0.39	27.8	-23.5	---	---	726.5	0.021	0.000	20.9	4	1
03/11/06	11:41 p	-11.8	-11.8	-11.8	---	---	21.7	SSE	0.36	22.6	-23.2	---	---	726.4	0.021	0.000	20.9	4	1
03/11/06	11:42 p	-11.8	-11.8	-11.8	---	---	20.9	S	0.35	25.2	-22.9	---	---	726.5	0.021	0.000	20.9	4	1
03/11/06	11:43 p	-11.8	-11.8	-11.8	---	---	21.7	S	0.36	23.5	-23.1	---	---	726.5	0.021	0.000	20.9	4	1
03/11/06	11:44 p	-11.8	-11.8	-11.8	---	---	19.1	S	0.32	20.9	-22.5	---	---	726.5	0.021	0.000	20.9	4	1
03/11/06	11:45 p	-11.8	-11.8	-11.8	---	---	20.0	SSE	0.33	21.7	-22.7	---	---	726.5	0.021	0.000	20.9	4	1
03/11/06	11:46 p	-11.8	-11.8	-11.8	---	---	21.7	SSE	0.36	24.3	-23.1	---	---	726.4	0.021	0.000	20.9	4	1
03/11/06	11:47 p	-11.8	-11.8	-11.8	---	---	20.0	SSE	0.33	21.7	-22.7	---	---	726.5	0.021	0.000	20.9	4	1
03/11/06	11:48 p	-11.8	-11.7	-11.8	---	---	22.6	SSE	0.38	24.3	-23.3	---	---	726.4	0.021	0.000	20.9	4	1
03/11/06	11:49 p	-11.8	-11.7	-11.8	---	---	24.3	SSE	0.41	30.4	-23.6	---	---	726.4	0.021	0.000	20.9	4	1
03/11/06	11:50 p	-11.7	-11.7	-11.8	---	---	25.2	SSE	0.42	30.4	-23.7	---	---	726.4	0.021	0.000	21.0	4	1
03/11/06	11:51 p	-11.7	-11.7	-11.7	---	---	24.3	SSE	0.41	30.4	-23.6	---	---	726.4	0.021	0.000	21.0	4	1
03/11/06	11:52 p	-11.7	-11.7	-11.7	---	---	26.1	SSE	0.43	29.6	-23.9	---	---	726.3	0.021	0.000	21.0	4	1
03/11/06	11:53 p	-11.7	-11.7	-11.7	---	---	24.3	SSE	0.41	27.8	-23.6	---	---	726.3	0.021	0.000	21.0	4	1
03/11/06	11:54 p	-11.7	-11.7	-11.7	---	---	25.2	SSE	0.42	29.6	-23.7	---	---	726.4	0.021	0.000	21.0	4	1
03/11/06	11:55 p	-11.7	-11.7	-11.7	---	---	28.7	SSE	0.48	32.2	-24.3	---	---	726.3	0.021	0.000	21.0	4	1
03/11/06	11:56 p	-11.7	-11.7	-11.7	---	---	29.6	SSE	0.49	36.5	-24.4	---	---	726.3	0.021	0.000	21.0	4	1
03/11/06	11:57 p	-11.7	-11.7	-11.7	---	---	28.7	SSE	0.48	32.2	-24.3	---	---	726.3	0.021	0.000	21.0	4	1
03/11/06	11:58 p	-11.7	-11.7	-11.7	---	---	24.3	SSE	0.41	27.8	-23.6	---	---	726.2	0.021	0.000	21.0	4	1
03/11/06	11:59 p	-11.7	-11.7	-11.7	---	---	25.2	SSE	0.42	27.8	-23.7	---	---	726.3	0.021	0.000	21.0	4	1
03/12/06	12:00 a	-11.7	-11.7	-11.7	---	---	23.5	SSE	0.39	26.1	-23.3	---	---	726.3	0.021	0.000	21.0	4	1
03/12/06	12:01 a	-11.7	-11.7	-11.7	---	---	25.2	SSE	0.42	31.3	-23.6	---	---	726.2	0.021	0.000	21.0	4	1
03/12/06	12:02 a	-11.7	-11.7	-11.7	---	---	27.0	SSE	0.45	30.4	-23.9	---	---	726.2	0.021	0.000	21.0	4	1
03/12/06	12:03 a	-11.7	-11.7	-11.7	---	---	21.7	SSE	0.36	23.5	-22.9	---	---	726.3	0.021	0.000	21.0	4	1
03/12/06	12:04 a	-11.7	-11.7	-11.7	---	---	22.6	SSE	0.38	27.0	-23.1	---	---	726.3	0.021	0.000	21.0	4	1
03/12/06	12:05 a	-11.7	-11.6	-11.7	---	---	21.7	SSE	0.36	26.1	-22.9	---	---	726.3	0.021	0.000	21.0	4	1
03/12/06	12:06 a	-11.7	-11.7	-11.7	---	---	20.9	SE	0.35	22.6	-22.7	---	---	726.3	0.021	0.000	21.0	4	1
03/12/06	12:07 a	-11.6	-11.6	-11.7	---	---	22.6	SE	0.38	24.3	-23.1	---	---	726.3	0.021	0.000	21.0	4	1
03/12/06	12:08 a	-11.6	-11.6	-11.6	---	---	25.2	SE	0.42	33.0	-23.6	---	---	726.1	0.021	0.000	21.0	4	1
03/12/06	12:09 a	-11.6	-11.6	-11.6	---	---	22.6	SE	0.38	24.3	-23.1	---	---	726.2	0.021	0.000	21.0	4	1
03/12/06	12:10 a	-11.6	-11.6	-11.6	---	---	23.5	SE	0.39	27.0	-23.2	---	---	726.2	0.021	0.000	21.0	4	1
03/12/06	12:11 a	-11.6	-11.6	-11.6	---	---	23.5	SE	0.39	26.1	-23.2	---	---	726.2	0.021	0.000	21.0	4	1
03/12/06	12:12 a	-11.6	-11.6	-11.6	---	---	22.6	SE	0.38	24.3	-22.9	---	---	726.3	0.021	0.000	21.0	4	1
03/12/06	12:13 a	-11.6	-11.6	-11.6	---	---	23.5	SE	0.39	27.0	-23.2	---	---	726.1	0.021	0.000	21.0	4	1
03/12/06	12:14 a	-11.6	-11.5	-11.6	---	---	27.0	SE	0.45	28.7	-23.8	---	---	726.0	0.021	0.000	21.0	4	1
03/12/06	12:15 a	-11.6	-11.5	-11.6	---	---	25.2	SE	0.42	27.8	-23.5	---	---	726.1	0.021	0.000	21.0	4	1
03/12/06	12:16 a	-11.6	-11.5	-11.6	---	---	26.1	SE	0.43	27.8	-23.7	---	---	726.1	0.021	0.000	21.0	4	1
03/12/06	12:17 a	-11.5	-11.5	-11.5	---	---	25.2	ESE	0.42	27.8	-23.4	---	---	726.1	0.021	0.000	21.0	4	1
03/12/06	12:18 a	-11.5	-11.5	-11.6	---	---	26.1	ESE	0.43	27.8	-23.6	---	---	725.9	0.021	0.000	21.0	4	1
03/12/06	12:19 a	-11.5	-11.4	-11.5	---	---	28.7	ESE	0.48	33.0	-24.0	---	---	726.0	0.021	0.000	21.0	4	1
03/12/06	12:20 a	-11.5	-11.4	-11.5	---	---	24.3	SE	0.41	27.0	-23.2	---	---	726.1	0.021	0.000	21.0	4	1
03/12/06	12:21 a	-11.5	-11.4	-11.5	---	---	26.1	SE	0.43	30.4	-23.6	---	---	726.1	0.021	0.000	21.0	4	1
03/12/06	12:22 a	-11.5	-11.4	-11.5	---	---	24.3	SE	0.41	27.8	-23.2	---	---	726.0	0.021	0.000	21.0	4	1
03/12/06	12:23 a	-11.4	-11.4	-11.5	---	---	25.2	SE	0.42	27.8	-23.3	---	---	726.0	0.021	0.000	21.0	4	1
03/12/06	12:24 a	-11.4	-11.4	-11.4	---	---	24.3	SE	0.41	26.1	-23.2	---	---	726.0	0.021	0.000	21.0	4	1
03/12/06	12:25 a	-11.4	-11.4	-11.5	---	---	23.5	SE	0.39	25.2	-23.0	---	---	726.0	0.021	0.000	21.0	4	1
03/12/06	12:26 a	-11.4	-11.4	-11.4	---	---	22.6	SE	0.38	24.3	-22.8	---	---	726.0	0.021	0.000	21.0	4	1
03/12/06	12:27 a	-11.4	-11.4	-11.5	---	---	21.7	SE	0.36	25.2	-22.7	---	---	726.0	0.021	0.000	21.0	4	1
03/12/06	12:28 a	-11.4	-11.4	-11.4	---	---	23.5	SE	0.39	25.2	-23.0	---	---	725.9	0.021	0.000	21.0	4	1
03/12/06	12:29 a	-11.4	-11.4	-11.5	---	---	23.5	SE	0.39	25.2	-23.0	---	---	726.0	0.021	0.000	21.0	4	1
03/12/06	12:30 a	-11.4	-11.4	-11.4	---	---	22.6	SE	0.38	24.3	-22.8	---	---	726.0	0.021	0.000	21.0	4	1
03/12/06	12:31 a	-11.5	-11.5	-11.5	---	---	25.2	SSE	0.42	27.8	-23.4	---	---	726.0	0.021	0.000	21.0	4	1
03/12/06	12:32 a	-11.5	-11.4	-11.5	---	---	21.7	SSE	0.36	25.2	-22.7	---	---	726.0	0.021	0.000	21.0	4	1
03/12/06	12:33 a	-11.5	-11.4	-11.6	---	---	25.2	SSE	0.42	29.6	-23.4	---	---	725.9	0.021	0.000	21.0	4	1
03/12/06	12:34 a	-11.5	-11.5	-11.5	---	---	27.0	SSE	0.45	30.4	-23.7	---	---	725.9	0.021	0.000	21.0	4	1
03/12/06	12:35 a	-11.5	-11.5	-11.5	---	---	28.7	SSE	0.48	34.8	-24.0	---	---	725.8	0.021	0.000	21.0	4	1
03/12/06	12:36 a	-11.5	-11.5	-11.6	---	---	26.1	SSE	0.43	29.6	-23.6	---	---	725.9	0.021	0.000	21.0	4	1
03/12/06	12:37 a	-11.6	-11.5	-11.6	---	---	25.2	SSE	0.42	31.3	-23.5	---	---	725.9	0.021	0.000	21.0	4	1
03/12/06	12:38 a	-11.6	-11.6	-11.6	---	---	25.2	SSE	0.42	29.6	-23.5	---	---	725.9	0.021	0.000	21.0	4	1
03/12/06	12:39 a	-11.6	-11.6	-11.6	---	---	26.1	SSE	0.43	34.8	-23.7	---	---	725.8	0.021	0.000	21.0	4	1
03/12/06	12:40 a	-11.6	-11.6	-11.6	---	---	27.0	SSE	0.45	33.9	-23.8	---	---	725.7	0.021	0.000	21.0	4	1
03/12/06	12:41 a	-11.6	-11.6	-11.6	---	---	27.8	SSE	0.46	32.2	-24.0	---	---	725.7	0.021	0.000	21.0	4	1
03/12/06	12:42 a	-11.6	-11.6	-11.7	---	---	27.0	SSE	0.45	32.2	-23.9	---	---	725.7	0.021	0.000	21.0	4	1
03/12/06	12:43 a	-11.6	-11.6	-11.6	---	---	27.0	SSE	0.45	34.8	-23.9	---	---	725.6	0.021	0.000	21.0	4	1
03/12/06	12:44 a	-11.7	-11.6	-11.7	---	---	27.8	SSE	0.46	30.4	-24.1	---	---	725.7	0.021	0.000	21.0	4	1
03/12/06	12:45 a	-11.7	-11.6	-11.7	---	---	27.8	SSE	0.46	32.2	-24.1	---	---	725.7	0.021	0.000	21.0	4	1
03/12/06	12:46 a	-11.7	-11.6	-11.7	---	---	27.0	SSE	0.45	32.2	-23.9	---	---	725.6	0.021	0.000	21.0	4	1
03/12/06	12:47 a	-11.7	-11.7	-11.7	---	---	26.1	SSE	0.43	31.3	-23.8	---	---	725.7	0.021	0.000	21.0	4	1
03/12/06	12:48 a	-11.7	-11.7	-11.7	---	---	24.3	SSE	0.41	28.7	-23.4	---	---	725.6	0.021	0.000	21.0	4	1
03/12/06	12:49 a	-11.7	-11.7	-11.7	---	---	26.1	SSE	0.43	29.6	-23.8	---	---	725.6	0.021	0.000	21.0	4	1
03/12/06	12:50 a	-11.7	-11.7	-11.7	---	---	24.3	SSE	0.41	28.7	-23.4	---	---	725.6	0.021	0.000	21.0	4	1
03/12/06	12:51 a	-11.7	-11.7	-11.7	---	---	23.5	SE	0.39	25.2	-23.3	---	---	725.7	0.021	0.000	21.0	4	1
03/12/06	12:52 a	-11.7	-11.7	-11.7	---	---	25.2	SSE	0.42	27.8	-23.6	---	---	725.7	0.021	0.000	21.0	4	1
03/12/06	12:53 a	-11.7	-11.6	-11.7	---	---	25.2	SSE	0.42	27.8	-23.6	---	---	725.7	0.021	0.000	21.0	4	1
03/12/06	12:54 a	-11.7	-11.7	-11.7	---	---	26.1	SSE	0.43	29.6	-23.8	---	---	725.7	0.021	0.000	21.1	4	1
03/12/06	12:55 a	-11.7	-11.6	-11.7	---	---	25.2	SSE	0.42	29.6	-23.6	---	---	725.8	0.021	0.000	21.1	4	1
03/12/06	12:56 a	-11.6	-11.6	-11.7	---	---	22.6	SSE	0.38	29.6	-23.1	---	---	725.9	0.021	0.000	21.1	4	1
03/12/06	12:57 a	-11.6	-11.6	-11.7	---	---	23.5	SSE	0.39	25.2	-23.2	---	---	725.9	0.021	0.000	21.1	4	1
03/12/06	12:58 a	-11.7	-11.6	-11.7	---	---	22.6	SSE	0.38	25.2	-23.1	---	---	726.2	0.021	0.000	21.1	4	1
03/12/06	12:59 a	-11.7	-11.6	-11.7	---	---	22.6	SSE	0.38	29.6	-23.1	---	---	726.1	0.021	0.000	21.1	4	1
03/12/06	1:00 a	-11.7	-11.7	-11.7	---	---	26.1	SSE	0.43	33.0	-23.8	---	---	725.9	0.021	0.000	21.1	4	1
03/12/06	1:01 a	-11.7	-11.6	-11.7	---	---	28.7	SSE	0.48	33.0	-24.2	---	---	726.1	0.021	0.000	21.1	4	1
03/12/06	1:02 a	-11.7	-11.7	-11.7	---	---	27.8	SSE	0.46	32.2	-24.1	---	---	725.9	0.021	0.000	21.1	4	1
03/12/06	1:03 a	-11.7	-11.7	-11.7	---	---	29.6	SSE	0.49	33.9	-24.4	---	---	726.0	0.021	0.000	21.1	4	1
03/12/06	1:04 a	-11.7	-11.7	-11.7	---	---	27.8	SSE	0.46	32.2	-24.1	---	---	726.0	0.021	0.000	21.1	4	1
03/12/06	1:05 a	-11.7	-11.7	-11.7	---	---	27.0	SSE	0.45	31.3	-24.0	---	---	726.0	0.021	0.000	21.1	4	1
03/12/06	1:06 a	-11.7	-11.7	-11.7	---	---	24.3	SSE	0.41	27.8	-23.6	---	---	726.1	0.021	0.000	21.1	4	1
03/12/06	1:07 a	-11.7	-11.7	-11.7	---	---	22.6	SSE	0.38	25.2	-23.2	---	---	726.1	0.021	0.000	21.1	4	1
03/12/06	1:08 a	-11.7	-11.7	-11.7	---	---	25.2	SSE	0.42	27.8	-23.7	---	---	726.1	0.021	0.000	21.1	4	1
03/12/06	1:09 a	-11.7	-11.7	-11.7	---	---	28.7	SSE	0.48	36.5	-24.3	---	---	725.9	0.021	0.000	21.1	4	1
03/12/06	1:10 a	-11.7	-11.7	-11.7	---	---	23.5	SSE	0.39	31.3	-23.4	---	---	726.2	0.021	0.000	21.1	4	1
03/12/06	1:11 a	-11.7	-11.7	-11.7	---	---	21.7	S	0.36	26.1	-23.0	---	---	726.2	0.021	0.000	21.1	4	1
03/12/06	1:12 a	-11.7	-11.7	-11.8	---	---	24.3	S	0.41	27.8	-23.6	---	---	726.3	0.021	0.000	21.1	4	1
03/12/06	1:13 a	-11.8	-11.8	-11.8	---	---	26.1	S	0.43	28.7	-23.9	---	---	726.2	0.021	0.000	21.1	4	1
03/12/06	1:14 a	-11.8	-11.8	-11.8	---	---	26.1	S	0.43	33.0	-23.9	---	---	726.1	0.021	0.000	21.1	4	1
03/12/06	1:15 a	-11.8	-11.8	-11.8	---	---	24.3	S	0.41	28.7	-23.6	---	---	726.1	0.021	0.000	21.1	4	1
03/12/06	1:16 a	-11.8	-11.8	-11.8	---	---	21.7	SSE	0.36	25.2	-23.2	---	---	726.0	0.021	0.000	21.1	4	1
03/12/06	1:17 a	-11.8	-11.8	-11.8	---	---	21.7	SSE	0.36	25.2	-23.2	---	---	726.1	0.021	0.000	21.1	4	1
03/12/06	1:18 a	-11.8	-11.8	-11.9	---	---	23.5	SSE	0.39	28.7	-23.5	---	---	726.3	0.021	0.000	21.1	4	1
03/12/06	1:19 a	-11.9	-11.8	-11.9	---	---	20.9	SSE	0.35	24.3	-23.1	---	---	726.0	0.021	0.000	21.1	4	1
03/12/06	1:20 a	-11.9	-11.9	-11.9	---	---	20.0	SSE	0.33	23.5	-22.8	---	---	726.2	0.021	0.000	21.1	4	1
03/12/06	1:21 a	-11.9	-11.8	-11.9	---	---	16.5	SSE	0.28	19.1	-22.0	---	---	726.4	0.021	0.000	21.1	4	1
03/12/06	1:22 a	-11.9	-11.9	-11.9	---	---	13.9	S	0.23	16.5	-21.2	---	---	726.5	0.021	0.000	21.1	4	1
03/12/06	1:23 a	-11.9	-11.9	-11.9	---	---	10.4	S	0.17	13.0	-20.0	---	---	726.3	0.021	0.000	21.1	4	1
03/12/06	1:24 a	-11.9	-11.8	-11.9	---	---	15.7	S	0.26	25.2	-21.7	---	---	726.2	0.021	0.000	21.1	4	1
03/12/06	1:25 a	-11.8	-11.8	-11.9	---	---	20.9	SSE	0.35	24.3	-22.9	---	---	726.4	0.021	0.000	21.1	4	1
03/12/06	1:26 a	-11.9	-11.8	-11.9	---	---	21.7	S	0.36	25.2	-23.2	---	---	726.3	0.021	0.000	21.1	4	1
03/12/06	1:27 a	-11.9	-11.9	-11.9	---	---	19.1	S	0.32	22.6	-22.7	---	---	726.6	0.021	0.000	21.1	4	1
03/12/06	1:28 a	-11.8	-11.8	-11.9	---	---	15.7	S	0.26	17.4	-21.7	---	---	726.6	0.021	0.000	21.1	4	1
03/12/06	1:29 a	-11.8	-11.8	-11.8	---	---	8.7	SW	0.14	11.3	-19.2	---	---	726.3	0.021	0.000	21.1	4	1
03/12/06	1:30 a	-11.8	-11.8	-11.8	---	---	6.1	SSW	0.10	8.7	-17.8	---	---	726.4	0.021	0.000	21.1	4	1
03/12/06	1:31 a	-11.8	-11.8	-11.8	---	---	11.3	SSW	0.19	18.3	-20.2	---	---	726.5	0.021	0.000	21.1	4	1
03/12/06	1:32 a	-11.8	-11.8	-11.8	---	---	15.7	S	0.26	22.6	-21.6	---	---	726.5	0.021	0.000	21.1	4	1
03/12/06	1:33 a	-11.7	-11.7	-11.8	---	---	14.8	S	0.25	22.6	-21.3	---	---	726.5	0.021	0.000	21.1	4	1
03/12/06	1:34 a	-11.7	-11.7	-11.7	---	---	13.0	S	0.22	14.8	-20.7	---	---	726.5	0.021	0.000	21.1	4	1
03/12/06	1:35 a	-11.7	-11.7	-11.7	---	---	16.5	S	0.28	20.0	-21.8	---	---	726.6	0.021	0.000	21.1	4	1
03/12/06	1:36 a	-11.7	-11.7	-11.7	---	---	15.7	S	0.26	17.4	-21.4	---	---	726.6	0.021	0.000	21.1	4	1
03/12/06	1:37 a	-11.7	-11.7	-11.7	---	---	14.8	S	0.25	16.5	-21.2	---	---	726.6	0.021	0.000	21.1	4	1
03/12/06	1:38 a	-11.7	-11.7	-11.7	---	---	15.7	S	0.26	19.1	-21.4	---	---	726.6	0.021	0.000	21.1	4	1
03/12/06	1:39 a	-11.7	-11.6	-11.7	---	---	14.8	S	0.25	19.1	-21.2	---	---	726.5	0.021	0.000	21.1	4	1
03/12/06	1:40 a	-11.7	-11.6	-11.7	---	---	13.9	S	0.23	18.3	-20.9	---	---	726.5	0.021	0.000	21.1	4	1
03/12/06	1:41 a	-11.6	-11.6	-11.7	---	---	14.8	S	0.25	18.3	-21.1	---	---	726.6	0.021	0.000	21.1	4	1
03/12/06	1:42 a	-11.6	-11.6	-11.6	---	---	15.7	S	0.26	19.1	-21.4	---	---	726.5	0.021	0.000	21.1	4	1
03/12/06	1:43 a	-11.6	-11.6	-11.7	---	---	15.7	S	0.26	19.1	-21.4	---	---	726.5	0.021	0.000	21.1	4	1
03/12/06	1:44 a	-11.6	-11.6	-11.6	---	---	15.7	S	0.26	20.0	-21.4	---	---	726.5	0.021	0.000	21.1	4	1
03/12/06	1:45 a	-11.6	-11.6	-11.7	---	---	17.4	S	0.29	21.7	-21.8	---	---	726.4	0.021	0.000	21.1	4	1
03/12/06	1:46 a	-11.6	-11.6	-11.7	---	---	18.3	S	0.30	20.0	-22.1	---	---	726.5	0.021	0.000	21.1	4	1
03/12/06	1:47 a	-11.7	-11.6	-11.7	---	---	17.4	S	0.29	20.0	-21.9	---	---	726.5	0.021	0.000	21.1	4	1
03/12/06	1:48 a	-11.7	-11.7	-11.7	---	---	15.7	S	0.26	18.3	-21.4	---	---	726.5	0.021	0.000	21.1	4	1
03/12/06	1:49 a	-11.7	-11.7	-11.7	---	---	17.4	S	0.29	19.1	-22.0	---	---	726.5	0.021	0.000	21.1	4	1
03/12/06	1:50 a	-11.7	-11.7	-11.7	---	---	14.8	S	0.25	18.3	-21.3	---	---	726.4	0.021	0.000	21.1	4	1
03/12/06	1:51 a	-11.7	-11.7	-11.8	---	---	14.8	S	0.25	17.4	-21.3	---	---	726.5	0.021	0.000	21.1	4	1
03/12/06	1:52 a	-11.8	-11.8	-11.8	---	---	15.7	S	0.26	17.4	-21.6	---	---	726.5	0.021	0.000	21.1	4	1
03/12/06	1:53 a	-11.8	-11.8	-11.8	---	---	13.9	S	0.23	17.4	-21.2	---	---	726.5	0.021	0.000	21.1	4	1
03/12/06	1:54 a	-11.8	-11.8	-11.8	---	---	13.9	S	0.23	16.5	-21.2	---	---	726.5	0.021	0.000	21.1	4	1
03/12/06	1:55 a	-11.9	-11.9	-11.9	---	---	14.8	S	0.25	17.4	-21.5	---	---	726.5	0.021	0.000	21.2	4	1
03/12/06	1:56 a	-11.9	-11.9	-11.9	---	---	15.7	SSE	0.26	19.1	-21.7	---	---	726.4	0.021	0.000	21.2	4	1
03/12/06	1:57 a	-11.9	-11.9	-11.9	---	---	14.8	SSE	0.25	17.4	-21.5	---	---	726.3	0.021	0.000	21.2	4	1
03/12/06	1:58 a	-11.9	-11.9	-11.9	---	---	16.5	SSE	0.28	18.3	-22.1	---	---	726.4	0.021	0.000	21.2	4	1
03/12/06	1:59 a	-12.0	-11.9	-12.0	---	---	18.3	SSE	0.30	20.9	-22.6	---	---	726.3	0.021	0.000	21.2	4	1
03/12/06	2:00 a	-12.0	-12.0	-12.1	---	---	20.0	SSE	0.33	22.6	-23.0	---	---	726.4	0.021	0.000	21.2	4	1
03/12/06	2:01 a	-12.1	-12.0	-12.1	---	---	20.0	SE	0.33	21.7	-23.1	---	---	726.4	0.021	0.000	21.2	4	1
03/12/06	2:02 a	-12.1	-12.1	-12.1	---	---	20.9	SE	0.35	22.6	-23.3	---	---	726.2	0.021	0.000	21.2	4	1
03/12/06	2:03 a	-12.1	-12.0	-12.1	---	---	19.1	SSE	0.32	20.9	-22.9	---	---	726.4	0.021	0.000	21.2	4	1
03/12/06	2:04 a	-12.1	-12.1	-12.1	---	---	18.3	SE	0.30	20.0	-22.7	---	---	726.4	0.021	0.000	21.2	4	1
03/12/06	2:05 a	-12.1	-12.1	-12.1	---	---	19.1	SE	0.32	20.9	-22.9	---	---	726.4	0.021	0.000	21.2	4	1
03/12/06	2:06 a	-12.1	-12.1	-12.1	---	---	20.9	SE	0.35	22.6	-23.3	---	---	726.3	0.021	0.000	21.2	4	1
03/12/06	2:07 a	-12.1	-12.1	-12.1	---	---	21.7	SE	0.36	23.5	-23.4	---	---	726.4	0.021	0.000	21.2	4	1
03/12/06	2:08 a	-12.1	-12.1	-12.1	---	---	19.1	ESE	0.32	26.1	-22.9	---	---	726.3	0.021	0.000	21.2	4	1
03/12/06	2:09 a	-12.1	-12.1	-12.1	---	---	20.0	ESE	0.33	24.3	-23.1	---	---	726.3	0.021	0.000	21.2	4	1
03/12/06	2:10 a	-12.1	-12.0	-12.1	---	---	22.6	ESE	0.38	26.1	-23.7	---	---	726.3	0.021	0.000	21.2	4	1
03/12/06	2:11 a	-12.1	-12.1	-12.1	---	---	23.5	SE	0.39	25.2	-23.8	---	---	726.2	0.021	0.000	21.2	4	1
03/12/06	2:12 a	-12.1	-12.1	-12.1	---	---	22.6	ESE	0.38	25.2	-23.7	---	---	726.1	0.021	0.000	21.2	4	1
03/12/06	2:13 a	-12.1	-12.1	-12.1	---	---	23.5	ESE	0.39	29.6	-23.8	---	---	726.3	0.021	0.000	21.2	4	1
03/12/06	2:14 a	-12.1	-12.0	-12.1	---	---	22.6	ESE	0.38	27.8	-23.7	---	---	726.2	0.021	0.000	21.2	4	1
03/12/06	2:15 a	-12.1	-12.0	-12.1	---	---	24.3	SE	0.41	30.4	-24.0	---	---	726.1	0.021	0.000	21.2	4	1
03/12/06	2:16 a	-12.1	-12.0	-12.1	---	---	27.8	SE	0.46	32.2	-24.6	---	---	725.9	0.021	0.000	21.2	4	1
03/12/06	2:17 a	-12.1	-12.0	-12.1	---	---	27.8	SSE	0.46	36.5	-24.6	---	---	726.2	0.021	0.000	21.2	4	1
03/12/06	2:18 a	-12.1	-12.0	-12.1	---	---	24.3	SE	0.41	29.6	-24.0	---	---	726.1	0.021	0.000	21.2	4	1
03/12/06	2:19 a	-12.1	-12.0	-12.1	---	---	24.3	SE	0.41	32.2	-24.0	---	---	726.4	0.021	0.000	21.2	4	1
03/12/06	2:20 a	-12.1	-12.0	-12.1	---	---	20.9	SE	0.35	26.1	-23.3	---	---	726.5	0.021	0.000	21.2	4	1
03/12/06	2:21 a	-12.1	-12.0	-12.1	---	---	16.5	ESE	0.28	27.0	-22.2	---	---	726.2	0.021	0.000	21.2	4	1
03/12/06	2:22 a	-12.1	-12.0	-12.1	---	---	20.9	ESE	0.35	25.2	-23.3	---	---	726.3	0.021	0.000	21.2	4	1
03/12/06	2:23 a	-12.1	-12.0	-12.1	---	---	20.9	SE	0.35	23.5	-23.3	---	---	726.3	0.021	0.000	21.2	4	1
03/12/06	2:24 a	-12.0	-12.0	-12.1	---	---	16.5	ESE	0.28	21.7	-22.1	---	---	726.4	0.021	0.000	21.2	4	1
03/12/06	2:25 a	-12.1	-12.0	-12.1	---	---	20.9	ESE	0.35	26.1	-23.3	---	---	726.3	0.021	0.000	21.2	4	1
03/12/06	2:26 a	-12.0	-12.0	-12.1	---	---	25.2	ESE	0.42	31.3	-24.1	---	---	726.3	0.021	0.000	21.2	4	1
03/12/06	2:27 a	-12.1	-12.1	-12.1	---	---	22.6	E	0.38	26.1	-23.7	---	---	726.2	0.021	0.000	21.2	4	1
03/12/06	2:28 a	-12.1	-12.1	-12.1	---	---	18.3	E	0.30	21.7	-22.7	---	---	726.3	0.021	0.000	21.2	4	1
03/12/06	2:29 a	-12.1	-12.1	-12.1	---	---	26.1	ESE	0.43	33.9	-24.3	---	---	726.2	0.021	0.000	21.2	4	1
03/12/06	2:30 a	-12.1	-12.1	-12.1	---	---	25.2	ESE	0.42	28.7	-24.2	---	---	726.2	0.021	0.000	21.2	4	1
03/12/06	2:31 a	-12.1	-12.1	-12.1	---	---	28.7	ESE	0.48	33.9	-24.8	---	---	726.2	0.021	0.000	21.2	4	1
03/12/06	2:32 a	-12.1	-12.1	-12.1	---	---	25.2	ESE	0.42	39.1	-24.2	---	---	726.3	0.021	0.000	21.2	4	1
03/12/06	2:33 a	-12.1	-12.1	-12.1	---	---	30.4	SE	0.51	39.1	-25.2	---	---	726.2	0.021	0.000	21.2	4	1
03/12/06	2:34 a	-12.1	-12.1	-12.2	---	---	18.3	ESE	0.30	27.0	-22.7	---	---	726.4	0.021	0.000	21.2	4	1
03/12/06	2:35 a	-12.2	-12.2	-12.2	---	---	22.6	E	0.38	33.9	-23.8	---	---	726.4	0.021	0.000	21.2	4	1
03/12/06	2:36 a	-12.2	-12.2	-12.2	---	---	17.4	ESE	0.29	20.9	-22.6	---	---	726.4	0.021	0.000	21.2	4	1
03/12/06	2:37 a	-12.2	-12.2	-12.2	---	---	15.7	SE	0.26	19.1	-22.1	---	---	726.6	0.021	0.000	21.2	4	1
03/12/06	2:38 a	-12.2	-12.2	-12.2	---	---	20.9	SE	0.35	26.1	-23.4	---	---	726.6	0.021	0.000	21.2	4	1
03/12/06	2:39 a	-12.2	-12.2	-12.3	---	---	21.7	SSE	0.36	31.3	-23.7	---	---	726.2	0.021	0.000	21.2	4	1
03/12/06	2:40 a	-12.3	-12.3	-12.3	---	---	27.0	SSE	0.45	33.0	-24.8	---	---	726.4	0.021	0.000	21.2	4	1
03/12/06	2:41 a	-12.3	-12.3	-12.3	---	---	24.3	SSE	0.41	31.3	-24.3	---	---	726.2	0.021	0.000	21.2	4	1
03/12/06	2:42 a	-12.3	-12.3	-12.3	---	---	28.7	SE	0.48	33.9	-25.1	---	---	726.1	0.021	0.000	21.2	4	1
03/12/06	2:43 a	-12.3	-12.3	-12.3	---	---	36.5	SE	0.61	44.3	-26.4	---	---	725.5	0.021	0.000	21.2	4	1
03/12/06	2:44 a	-12.3	-12.3	-12.3	---	---	37.4	SE	0.62	40.9	-26.5	---	---	725.6	0.021	0.000	21.2	4	1
03/12/06	2:45 a	-12.4	-12.3	-12.4	---	---	38.3	ESE	0.64	47.0	-26.7	---	---	725.6	0.021	0.000	21.2	4	1
03/12/06	2:46 a	-12.3	-12.3	-12.4	---	---	36.5	ESE	0.61	47.0	-26.4	---	---	725.2	0.021	0.000	21.2	4	1
03/12/06	2:47 a	-12.4	-12.3	-12.4	---	---	38.3	SE	0.64	47.8	-26.7	---	---	725.5	0.021	0.000	21.2	4	1
03/12/06	2:48 a	-12.4	-12.4	-12.4	---	---	39.1	SE	0.65	52.2	-26.8	---	---	725.2	0.021	0.000	21.1	4	1
03/12/06	2:49 a	-12.4	-12.3	-12.4	---	---	39.1	SE	0.65	55.7	-26.8	---	---	725.8	0.021	0.000	21.1	4	1
03/12/06	2:50 a	-12.4	-12.4	-12.4	---	---	31.3	SE	0.52	41.7	-25.7	---	---	725.7	0.021	0.000	21.1	4	1
03/12/06	2:51 a	-12.4	-12.4	-12.4	---	---	37.4	ESE	0.62	57.4	-26.6	---	---	725.4	0.021	0.000	21.1	4	1
03/12/06	2:52 a	-12.4	-12.4	-12.4	---	---	34.8	SE	0.58	40.9	-26.2	---	---	725.5	0.021	0.000	21.1	4	1
03/12/06	2:53 a	-12.4	-12.4	-12.4	---	---	38.3	SE	0.64	51.3	-26.7	---	---	725.3	0.021	0.000	21.1	4	1
03/12/06	2:54 a	-12.4	-12.4	-12.4	---	---	36.5	SE	0.61	41.7	-26.4	---	---	725.5	0.021	0.000	21.1	4	1
03/12/06	2:55 a	-12.4	-12.4	-12.4	---	---	34.8	SE	0.58	41.7	-26.3	---	---	725.7	0.021	0.000	21.1	4	1
03/12/06	2:56 a	-12.4	-12.4	-12.4	---	---	36.5	SE	0.61	47.8	-26.4	---	---	725.6	0.021	0.000	21.1	4	1
03/12/06	2:57 a	-12.4	-12.4	-12.4	---	---	34.8	SE	0.58	39.1	-26.2	---	---	725.7	0.021	0.000	21.1	4	1
03/12/06	2:58 a	-12.4	-12.4	-12.4	---	---	33.0	SE	0.55	38.3	-25.9	---	---	725.6	0.021	0.000	21.1	4	1
03/12/06	2:59 a	-12.4	-12.4	-12.4	---	---	37.4	SE	0.62	41.7	-26.7	---	---	725.6	0.021	0.000	21.1	4	1
03/12/06	3:00 a	-12.4	-12.4	-12.4	---	---	34.8	SE	0.58	40.9	-26.3	---	---	725.9	0.021	0.000	21.1	4	1
03/12/06	3:01 a	-12.4	-12.4	-12.4	---	---	32.2	SE	0.54	34.8	-25.9	---	---	725.9	0.021	0.000	21.1	4	1
03/12/06	3:02 a	-12.4	-12.4	-12.5	---	---	33.0	ESE	0.55	40.0	-26.0	---	---	725.6	0.021	0.000	21.1	4	1
03/12/06	3:03 a	-12.5	-12.4	-12.5	---	---	37.4	ESE	0.62	45.2	-26.7	---	---	725.5	0.021	0.000	21.1	4	1
03/12/06	3:04 a	-12.5	-12.4	-12.5	---	---	41.7	SE	0.70	47.8	-27.3	---	---	725.9	0.021	0.000	21.1	4	1
03/12/06	3:05 a	-12.5	-12.5	-12.5	---	---	31.3	SE	0.52	42.6	-25.8	---	---	725.9	0.021	0.000	21.1	4	1
03/12/06	3:06 a	-12.6	-12.5	-12.6	---	---	32.2	ESE	0.54	35.7	-26.1	---	---	726.0	0.021	0.000	21.1	4	1
03/12/06	3:07 a	-12.6	-12.5	-12.6	---	---	27.8	ESE	0.46	39.1	-25.3	---	---	726.0	0.021	0.000	21.1	4	1
03/12/06	3:08 a	-12.6	-12.6	-12.6	---	---	29.6	ESE	0.49	35.7	-25.6	---	---	726.0	0.021	0.000	21.1	4	1
03/12/06	3:09 a	-12.6	-12.6	-12.6	---	---	27.0	ESE	0.45	33.9	-25.2	---	---	725.9	0.021	0.000	21.1	4	1
03/12/06	3:10 a	-12.6	-12.6	-12.7	---	---	33.0	SE	0.55	35.7	-26.2	---	---	725.8	0.021	0.000	21.1	4	1
03/12/06	3:11 a	-12.7	-12.6	-12.7	---	---	33.9	SE	0.57	44.3	-26.4	---	---	726.1	0.022	0.000	21.1	4	1
03/12/06	3:12 a	-12.6	-12.6	-12.6	---	---	27.8	SE	0.46	32.2	-25.4	---	---	725.9	0.021	0.000	21.1	4	1
03/12/06	3:13 a	-12.7	-12.6	-12.7	---	---	31.3	ESE	0.52	36.5	-26.1	---	---	726.1	0.022	0.000	21.1	4	1
03/12/06	3:14 a	-12.7	-12.7	-12.7	---	---	24.3	SE	0.41	36.5	-24.8	---	---	726.2	0.022	0.000	21.1	4	1
03/12/06	3:15 a	-12.7	-12.7	-12.7	---	---	23.5	SE	0.39	29.6	-24.7	---	---	726.2	0.022	0.000	21.1	4	1
03/12/06	3:16 a	-12.7	-12.7	-12.7	---	---	24.3	ESE	0.41	28.7	-24.9	---	---	726.1	0.022	0.000	21.1	4	1
03/12/06	3:17 a	-12.7	-12.7	-12.7	---	---	29.6	ESE	0.49	37.4	-25.8	---	---	726.0	0.022	0.000	21.1	4	1
03/12/06	3:18 a	-12.7	-12.7	-12.8	---	---	26.1	ESE	0.43	35.7	-25.2	---	---	726.1	0.022	0.000	21.1	4	1
03/12/06	3:19 a	-12.8	-12.8	-12.8	---	---	30.4	ESE	0.51	39.1	-26.1	---	---	726.0	0.022	0.000	21.1	4	1
03/12/06	3:20 a	-12.8	-12.8	-12.8	---	---	28.7	ESE	0.48	39.1	-25.8	---	---	726.1	0.022	0.000	21.1	4	1
03/12/06	3:21 a	-12.8	-12.8	-12.8	---	---	26.1	ESE	0.43	33.0	-25.4	---	---	726.2	0.022	0.000	21.1	4	1
03/12/06	3:22 a	-12.8	-12.8	-12.9	---	---	28.7	ESE	0.48	40.9	-25.8	---	---	726.5	0.022	0.000	21.1	4	1
03/12/06	3:23 a	-12.9	-12.9	-12.9	---	---	29.6	ESE	0.49	39.1	-26.1	---	---	726.2	0.022	0.000	21.1	4	1
03/12/06	3:24 a	-12.9	-12.9	-12.9	---	---	27.0	ESE	0.45	36.5	-25.6	---	---	726.4	0.022	0.000	21.1	4	1
03/12/06	3:25 a	-12.9	-12.9	-12.9	---	---	28.7	ESE	0.48	36.5	-26.0	---	---	726.4	0.022	0.000	21.1	4	1
03/12/06	3:26 a	-12.9	-12.9	-13.0	---	---	26.1	ESE	0.43	36.5	-25.5	---	---	726.3	0.022	0.000	21.1	4	1
03/12/06	3:27 a	-13.0	-12.9	-13.1	---	---	27.0	E	0.45	37.4	-25.8	---	---	726.4	0.022	0.000	21.1	4	1
03/12/06	3:28 a	-13.1	-13.0	-13.1	---	---	25.2	ESE	0.42	30.4	-25.5	---	---	726.4	0.022	0.000	21.1	4	1
03/12/06	3:29 a	-13.1	-13.1	-13.1	---	---	25.2	ESE	0.42	29.6	-25.5	---	---	726.5	0.022	0.000	21.1	4	1
03/12/06	3:30 a	-13.1	-13.1	-13.1	---	---	23.5	E	0.39	31.3	-25.2	---	---	726.5	0.022	0.000	21.1	4	1
03/12/06	3:31 a	-13.1	-13.1	-13.2	---	---	20.9	E	0.35	25.2	-24.7	---	---	726.3	0.022	0.000	21.1	4	1
03/12/06	3:32 a	-13.2	-13.1	-13.2	---	---	22.6	E	0.38	26.1	-25.1	---	---	726.3	0.022	0.000	21.1	4	1
03/12/06	3:33 a	-13.2	-13.2	-13.2	---	---	21.7	E	0.36	26.1	-25.0	---	---	726.3	0.022	0.000	21.1	4	1
03/12/06	3:34 a	-13.3	-13.2	-13.3	---	---	23.5	E	0.39	26.1	-25.4	---	---	726.3	0.022	0.000	21.1	4	1
03/12/06	3:35 a	-13.3	-13.2	-13.3	---	---	23.5	E	0.39	27.8	-25.4	---	---	726.4	0.022	0.000	21.1	4	1
03/12/06	3:36 a	-13.3	-13.3	-13.3	---	---	22.6	E	0.38	26.1	-25.3	---	---	726.4	0.022	0.000	21.1	4	1
03/12/06	3:37 a	-13.3	-13.3	-13.4	---	---	24.3	E	0.41	28.7	-25.7	---	---	726.2	0.022	0.000	21.1	4	1
03/12/06	3:38 a	-13.4	-13.4	-13.4	---	---	26.1	E	0.43	31.3	-26.1	---	---	726.3	0.022	0.000	21.1	4	1
03/12/06	3:39 a	-13.4	-13.4	-13.4	---	---	26.1	ESE	0.43	32.2	-26.1	---	---	726.4	0.022	0.000	21.1	4	1
03/12/06	3:40 a	-13.4	-13.4	-13.5	---	---	26.1	ESE	0.43	31.3	-26.2	---	---	726.3	0.022	0.000	21.1	4	1
03/12/06	3:41 a	-13.5	-13.5	-13.6	---	---	27.8	ESE	0.46	30.4	-26.6	---	---	726.2	0.022	0.000	21.1	4	1
03/12/06	3:42 a	-13.6	-13.6	-13.6	---	---	27.8	ESE	0.46	34.8	-26.7	---	---	726.3	0.022	0.000	21.1	4	1
03/12/06	3:43 a	-13.6	-13.6	-13.6	---	---	26.1	E	0.43	32.2	-26.4	---	---	726.2	0.022	0.000	21.1	4	1
03/12/06	3:44 a	-13.6	-13.6	-13.7	---	---	28.7	ESE	0.48	34.8	-26.9	---	---	726.3	0.022	0.000	21.1	4	1
03/12/06	3:45 a	-13.7	-13.7	-13.7	---	---	27.8	ESE	0.46	29.6	-26.8	---	---	726.4	0.022	0.000	21.1	4	1
03/12/06	3:46 a	-13.7	-13.7	-13.8	---	---	31.3	ESE	0.52	38.3	-27.5	---	---	726.3	0.022	0.000	21.1	4	1
03/12/06	3:47 a	-13.8	-13.8	-13.8	---	---	27.0	E	0.45	33.0	-26.8	---	---	726.3	0.022	0.000	21.1	4	1
03/12/06	3:48 a	-13.8	-13.8	-13.8	---	---	26.1	E	0.43	29.6	-26.7	---	---	726.3	0.022	0.000	21.1	4	1
03/12/06	3:49 a	-13.8	-13.8	-13.9	---	---	26.1	ESE	0.43	33.9	-26.7	---	---	726.3	0.022	0.000	21.1	4	1
03/12/06	3:50 a	-13.9	-13.9	-13.9	---	---	26.1	E	0.43	32.2	-26.8	---	---	726.3	0.022	0.000	21.1	4	1
03/12/06	3:51 a	-13.9	-13.9	-13.9	---	---	29.6	E	0.49	33.9	-27.5	---	---	726.3	0.022	0.000	21.1	4	1
03/12/06	3:52 a	-13.9	-13.9	-14.0	---	---	26.1	E	0.43	32.2	-26.9	---	---	726.3	0.022	0.000	21.1	4	1
03/12/06	3:53 a	-14.0	-13.9	-14.0	---	---	27.8	E	0.46	35.7	-27.3	---	---	726.1	0.022	0.000	21.1	4	1
03/12/06	3:54 a	-14.0	-14.0	-14.1	---	---	30.4	ESE	0.51	33.0	-27.7	---	---	726.1	0.022	0.000	21.1	4	1
03/12/06	3:55 a	-14.1	-14.1	-14.1	---	---	28.7	ESE	0.48	36.5	-27.5	---	---	726.0	0.022	0.000	21.1	4	1
03/12/06	3:56 a	-14.1	-14.1	-14.1	---	---	29.6	ESE	0.49	33.9	-27.7	---	---	726.1	0.022	0.000	21.1	4	1
03/12/06	3:57 a	-14.1	-14.1	-14.1	---	---	31.3	ESE	0.52	34.8	-28.1	---	---	726.0	0.023	0.000	21.1	4	1
03/12/06	3:58 a	-14.1	-14.1	-14.1	---	---	31.3	ESE	0.52	35.7	-28.1	---	---	726.0	0.023	0.000	21.1	4	1
03/12/06	3:59 a	-14.2	-14.1	-14.2	---	---	30.4	ESE	0.51	34.8	-28.0	---	---	726.1	0.023	0.000	21.1	4	1
03/12/06	4:00 a	-14.2	-14.2	-14.2	---	---	33.0	ESE	0.55	36.5	-28.4	---	---	725.9	0.023	0.000	21.1	4	1
03/12/06	4:01 a	-14.2	-14.2	-14.2	---	---	29.6	ESE	0.49	35.7	-27.8	---	---	726.2	0.023	0.000	21.1	4	1
03/12/06	4:02 a	-14.2	-14.2	-14.2	---	---	32.2	SE	0.54	35.7	-28.3	---	---	726.0	0.023	0.000	21.0	4	1
03/12/06	4:03 a	-14.2	-14.2	-14.2	---	---	31.3	SE	0.52	35.7	-28.1	---	---	726.0	0.023	0.000	21.1	4	1
03/12/06	4:04 a	-14.2	-14.2	-14.2	---	---	32.2	SE	0.54	34.8	-28.3	---	---	725.9	0.023	0.000	21.0	4	1
03/12/06	4:05 a	-14.2	-14.2	-14.2	---	---	33.0	SE	0.55	36.5	-28.4	---	---	725.9	0.023	0.000	21.1	4	1
03/12/06	4:06 a	-14.2	-14.2	-14.2	---	---	33.9	SE	0.57	36.5	-28.6	---	---	725.8	0.023	0.000	21.0	4	1
03/12/06	4:07 a	-14.1	-14.1	-14.2	---	---	35.7	SE	0.59	40.0	-28.7	---	---	725.7	0.023	0.000	21.1	4	1
03/12/06	4:08 a	-14.1	-14.1	-14.2	---	---	38.3	SE	0.64	40.9	-29.1	---	---	725.6	0.023	0.000	21.0	4	1
03/12/06	4:09 a	-14.2	-14.1	-14.2	---	---	38.3	SE	0.64	41.7	-29.2	---	---	725.6	0.023	0.000	21.0	4	1
03/12/06	4:10 a	-14.1	-14.1	-14.1	---	---	35.7	SE	0.59	37.4	-28.7	---	---	725.7	0.023	0.000	21.0	4	1
03/12/06	4:11 a	-14.1	-14.1	-14.1	---	---	37.4	SE	0.62	41.7	-29.0	---	---	725.4	0.023	0.000	21.0	4	1
03/12/06	4:12 a	-14.1	-14.1	-14.1	---	---	39.1	SE	0.65	41.7	-29.2	---	---	725.6	0.023	0.000	21.0	4	1
03/12/06	4:13 a	-14.1	-14.1	-14.1	---	---	37.4	SE	0.62	41.7	-29.0	---	---	725.5	0.023	0.000	21.0	4	1
03/12/06	4:14 a	-14.1	-14.1	-14.1	---	---	38.3	SE	0.64	41.7	-29.0	---	---	725.4	0.022	0.000	21.0	4	1
03/12/06	4:15 a	-14.1	-14.1	-14.1	---	---	38.3	SE	0.64	40.9	-29.0	---	---	725.5	0.022	0.000	21.0	4	1
03/12/06	4:16 a	-14.1	-14.1	-14.1	---	---	38.3	SE	0.64	41.7	-29.0	---	---	725.7	0.022	0.000	21.0	4	1
03/12/06	4:17 a	-14.1	-14.1	-14.1	---	---	37.4	SE	0.62	40.9	-28.9	---	---	725.6	0.022	0.000	21.0	4	1
03/12/06	4:18 a	-14.1	-14.1	-14.1	---	---	34.8	SE	0.58	37.4	-28.5	---	---	725.7	0.022	0.000	21.0	4	1
03/12/06	4:19 a	-14.1	-14.1	-14.1	---	---	37.4	SE	0.62	39.1	-28.9	---	---	725.6	0.022	0.000	21.0	4	1
03/12/06	4:20 a	-14.1	-14.0	-14.1	---	---	36.5	SE	0.61	38.3	-28.8	---	---	725.5	0.022	0.000	21.0	4	1
03/12/06	4:21 a	-14.0	-14.0	-14.1	---	---	37.4	SE	0.62	39.1	-28.8	---	---	725.6	0.022	0.000	21.0	4	1
03/12/06	4:22 a	-14.0	-14.0	-14.1	---	---	39.1	SE	0.65	43.5	-29.1	---	---	725.5	0.022	0.000	21.0	4	1
03/12/06	4:23 a	-14.0	-14.0	-14.1	---	---	39.1	SE	0.65	41.7	-29.1	---	---	725.4	0.022	0.000	21.0	4	1
03/12/06	4:24 a	-14.0	-13.9	-14.1	---	---	38.3	SE	0.64	43.5	-28.9	---	---	725.4	0.022	0.000	20.9	4	1
03/12/06	4:25 a	-14.0	-14.0	-14.0	---	---	38.3	SE	0.64	40.9	-28.9	---	---	725.6	0.022	0.000	21.0	4	1
03/12/06	4:26 a	-14.0	-13.9	-14.1	---	---	38.3	SE	0.64	45.2	-28.9	---	---	725.4	0.022	0.000	20.9	4	1
03/12/06	4:27 a	-14.0	-14.0	-14.0	---	---	38.3	SE	0.64	39.1	-28.9	---	---	725.6	0.022	0.000	20.9	4	1
03/12/06	4:28 a	-14.0	-13.9	-14.1	---	---	38.3	SE	0.64	42.6	-28.9	---	---	725.6	0.022	0.000	20.9	4	1
03/12/06	4:29 a	-14.0	-13.9	-14.0	---	---	36.5	SE	0.61	39.1	-28.7	---	---	725.7	0.022	0.000	20.9	4	1
03/12/06	4:30 a	-14.0	-14.0	-14.1	---	---	36.5	SE	0.61	40.9	-28.7	---	---	725.7	0.022	0.000	20.9	4	1
03/12/06	4:31 a	-14.1	-14.0	-14.1	---	---	37.4	SE	0.62	40.9	-28.9	---	---	725.8	0.022	0.000	20.9	4	1
03/12/06	4:32 a	-14.1	-14.0	-14.1	---	---	35.7	SE	0.59	38.3	-28.7	---	---	725.8	0.022	0.000	20.9	4	1
03/12/06	4:33 a	-14.1	-14.0	-14.1	---	---	37.4	SE	0.62	40.9	-28.9	---	---	725.7	0.022	0.000	20.9	4	1
03/12/06	4:34 a	-14.1	-14.0	-14.1	---	---	35.7	SE	0.59	39.1	-28.7	---	---	725.6	0.022	0.000	20.9	4	1
03/12/06	4:35 a	-14.1	-14.0	-14.1	---	---	35.7	SE	0.59	39.1	-28.7	---	---	725.9	0.022	0.000	20.9	4	1
03/12/06	4:36 a	-14.1	-14.0	-14.1	---	---	36.5	SE	0.61	40.9	-28.8	---	---	725.8	0.022	0.000	20.9	4	1
03/12/06	4:37 a	-14.1	-14.1	-14.1	---	---	36.5	SE	0.61	39.1	-28.8	---	---	725.6	0.022	0.000	20.9	4	1
03/12/06	4:38 a	-14.1	-14.1	-14.1	---	---	36.5	SE	0.61	39.1	-28.8	---	---	725.9	0.022	0.000	20.9	4	1
03/12/06	4:39 a	-14.1	-14.1	-14.1	---	---	36.5	SE	0.61	40.9	-28.8	---	---	725.7	0.022	0.000	20.9	4	1
03/12/06	4:40 a	-14.1	-14.1	-14.1	---	---	39.1	SE	0.65	43.5	-29.2	---	---	725.7	0.022	0.000	20.9	4	1
03/12/06	4:41 a	-14.1	-14.1	-14.1	---	---	39.1	SE	0.65	43.5	-29.2	---	---	725.8	0.022	0.000	20.9	4	1
03/12/06	4:42 a	-14.1	-14.1	-14.1	---	---	37.4	SE	0.62	41.7	-28.9	---	---	725.7	0.022	0.000	20.9	4	1
03/12/06	4:43 a	-14.1	-14.1	-14.1	---	---	40.0	SE	0.67	43.5	-29.3	---	---	725.6	0.023	0.000	20.9	4	1
03/12/06	4:44 a	-14.1	-14.1	-14.1	---	---	38.3	SE	0.64	40.9	-29.1	---	---	725.6	0.023	0.000	20.9	4	1
03/12/06	4:45 a	-14.1	-14.1	-14.1	---	---	37.4	SE	0.62	40.0	-29.0	---	---	725.7	0.023	0.000	20.9	4	1
03/12/06	4:46 a	-14.1	-14.1	-14.1	---	---	39.1	SE	0.65	43.5	-29.2	---	---	725.7	0.023	0.000	20.9	4	1
03/12/06	4:47 a	-14.1	-14.1	-14.1	---	---	38.3	SE	0.64	40.9	-29.1	---	---	725.7	0.023	0.000	20.9	4	1
03/12/06	4:48 a	-14.1	-14.1	-14.2	---	---	40.0	SE	0.67	43.5	-29.3	---	---	725.6	0.023	0.000	20.9	4	1
03/12/06	4:49 a	-14.1	-14.1	-14.2	---	---	38.3	SE	0.64	42.6	-29.1	---	---	725.6	0.023	0.000	20.9	4	1
03/12/06	4:50 a	-14.2	-14.2	-14.2	---	---	40.0	SE	0.67	42.6	-29.4	---	---	725.6	0.023	0.000	20.9	4	1
03/12/06	4:51 a	-14.2	-14.2	-14.2	---	---	37.4	SE	0.62	42.6	-29.1	---	---	725.7	0.023	0.000	20.9	4	1
03/12/06	4:52 a	-14.2	-14.2	-14.2	---	---	37.4	SE	0.62	41.7	-29.1	---	---	725.7	0.023	0.000	20.9	4	1
03/12/06	4:53 a	-14.2	-14.2	-14.2	---	---	37.4	SE	0.62	40.0	-29.1	---	---	725.7	0.023	0.000	20.8	4	1
03/12/06	4:54 a	-14.2	-14.2	-14.2	---	---	37.4	SE	0.62	40.9	-29.1	---	---	725.7	0.023	0.000	20.9	4	1
03/12/06	4:55 a	-14.2	-14.2	-14.2	---	---	36.5	SE	0.61	44.3	-29.0	---	---	725.8	0.023	0.000	20.9	4	1
03/12/06	4:56 a	-14.2	-14.2	-14.2	---	---	35.7	SE	0.59	40.9	-28.8	---	---	725.9	0.023	0.000	20.9	4	1
03/12/06	4:57 a	-14.2	-14.2	-14.2	---	---	35.7	SE	0.59	40.9	-28.9	---	---	725.8	0.023	0.000	20.9	4	1
03/12/06	4:58 a	-14.2	-14.2	-14.2	---	---	35.7	SE	0.59	42.6	-28.9	---	---	725.7	0.023	0.000	20.9	4	1
03/12/06	4:59 a	-14.2	-14.2	-14.2	---	---	36.5	SE	0.61	41.7	-29.0	---	---	725.8	0.023	0.000	20.9	4	1
03/12/06	5:00 a	-14.2	-14.2	-14.2	---	---	37.4	SE	0.62	39.1	-29.1	---	---	725.8	0.023	0.000	20.9	4	1
03/12/06	5:01 a	-14.2	-14.2	-14.2	---	---	36.5	SE	0.61	40.9	-29.0	---	---	725.7	0.023	0.000	20.9	4	1
03/12/06	5:02 a	-14.2	-14.2	-14.2	---	---	35.7	SE	0.59	37.4	-28.9	---	---	725.8	0.023	0.000	20.9	4	1
03/12/06	5:03 a	-14.3	-14.3	-14.3	---	---	37.4	SE	0.62	40.9	-29.2	---	---	725.6	0.023	0.000	20.8	4	1
03/12/06	5:04 a	-14.3	-14.3	-14.3	---	---	35.7	SE	0.59	39.1	-28.9	---	---	725.7	0.023	0.000	20.8	4	1
03/12/06	5:05 a	-14.3	-14.3	-14.3	---	---	34.8	SE	0.58	40.0	-28.8	---	---	725.8	0.023	0.000	20.8	4	1
03/12/06	5:06 a	-14.3	-14.2	-14.3	---	---	36.5	SE	0.61	41.7	-29.1	---	---	725.8	0.023	0.000	20.8	4	1
03/12/06	5:07 a	-14.3	-14.3	-14.3	---	---	38.3	SE	0.64	42.6	-29.3	---	---	725.8	0.023	0.000	20.8	4	1
03/12/06	5:08 a	-14.3	-14.3	-14.3	---	---	33.9	SE	0.57	39.1	-28.7	---	---	725.8	0.023	0.000	20.9	4	1
03/12/06	5:09 a	-14.3	-14.3	-14.3	---	---	36.5	SE	0.61	39.1	-29.2	---	---	725.8	0.023	0.000	20.8	4	1
03/12/06	5:10 a	-14.3	-14.3	-14.3	---	---	35.7	SE	0.59	40.0	-28.9	---	---	725.8	0.023	0.000	20.8	4	1
03/12/06	5:11 a	-14.3	-14.3	-14.3	---	---	33.0	SE	0.55	36.5	-28.6	---	---	726.0	0.023	0.000	20.8	4	1
03/12/06	5:12 a	-14.3	-14.3	-14.3	---	---	35.7	SE	0.59	43.5	-29.1	---	---	725.9	0.023	0.000	20.8	4	1
03/12/06	5:13 a	-14.3	-14.3	-14.3	---	---	35.7	SSE	0.59	40.9	-29.1	---	---	725.9	0.023	0.000	20.8	4	1
03/12/06	5:14 a	-14.3	-14.3	-14.3	---	---	36.5	SSE	0.61	45.2	-29.2	---	---	725.8	0.023	0.000	20.8	4	1
03/12/06	5:15 a	-14.3	-14.3	-14.3	---	---	38.3	SSE	0.64	41.7	-29.4	---	---	726.0	0.023	0.000	20.8	4	1
03/12/06	5:16 a	-14.3	-14.3	-14.4	---	---	35.7	SSE	0.59	40.0	-29.1	---	---	726.0	0.023	0.000	20.8	4	1
03/12/06	5:17 a	-14.3	-14.3	-14.4	---	---	34.8	SSE	0.58	40.9	-28.9	---	---	725.9	0.023	0.000	20.8	4	1
03/12/06	5:18 a	-14.3	-14.3	-14.4	---	---	36.5	SSE	0.61	40.9	-29.2	---	---	725.9	0.023	0.000	20.8	4	1
03/12/06	5:19 a	-14.4	-14.4	-14.4	---	---	38.3	SSE	0.64	40.0	-29.5	---	---	725.9	0.023	0.000	20.9	4	1
03/12/06	5:20 a	-14.4	-14.4	-14.4	---	---	35.7	SSE	0.59	38.3	-29.1	---	---	726.0	0.023	0.000	20.8	4	1
03/12/06	5:21 a	-14.4	-14.4	-14.4	---	---	38.3	SSE	0.64	43.5	-29.5	---	---	726.0	0.023	0.000	20.8	4	1
03/12/06	5:22 a	-14.4	-14.4	-14.4	---	---	38.3	SSE	0.64	42.6	-29.5	---	---	726.0	0.023	0.000	20.8	4	1
03/12/06	5:23 a	-14.4	-14.4	-14.4	---	---	35.7	SSE	0.59	40.0	-29.1	---	---	726.1	0.023	0.000	20.8	4	1
03/12/06	5:24 a	-14.4	-14.4	-14.4	---	---	37.4	SSE	0.62	42.6	-29.4	---	---	725.9	0.023	0.000	20.8	4	1
03/12/06	5:25 a	-14.4	-14.4	-14.4	---	---	37.4	SSE	0.62	42.6	-29.4	---	---	726.1	0.023	0.000	20.8	4	1
03/12/06	5:26 a	-14.4	-14.4	-14.4	---	---	37.4	SSE	0.62	42.6	-29.4	---	---	726.1	0.023	0.000	20.8	4	1
03/12/06	5:27 a	-14.5	-14.4	-14.5	---	---	35.7	SSE	0.59	40.9	-29.3	---	---	726.1	0.023	0.000	20.8	4	1
03/12/06	5:28 a	-14.4	-14.4	-14.5	---	---	37.4	SSE	0.62	44.3	-29.4	---	---	726.1	0.023	0.000	20.9	4	1
03/12/06	5:29 a	-14.4	-14.4	-14.5	---	---	36.5	SSE	0.61	46.1	-29.3	---	---	726.0	0.023	0.000	20.8	4	1
03/12/06	5:30 a	-14.5	-14.4	-14.5	---	---	39.1	SSE	0.65	45.2	-29.8	---	---	726.0	0.023	0.000	20.9	4	1
03/12/06	5:31 a	-14.5	-14.5	-14.6	---	---	40.0	SSE	0.67	47.8	-29.9	---	---	725.9	0.023	0.000	20.8	4	1
03/12/06	5:32 a	-14.5	-14.5	-14.5	---	---	36.5	SSE	0.61	40.9	-29.4	---	---	726.1	0.023	0.000	20.8	4	1
03/12/06	5:33 a	-14.6	-14.6	-14.6	---	---	34.8	SSE	0.58	40.0	-29.2	---	---	726.1	0.023	0.000	20.9	4	1
03/12/06	5:34 a	-14.6	-14.5	-14.6	---	---	36.5	SSE	0.61	39.1	-29.5	---	---	726.0	0.023	0.000	20.9	4	1
03/12/06	5:35 a	-14.6	-14.6	-14.6	---	---	39.1	SSE	0.65	46.1	-29.8	---	---	726.1	0.023	0.000	20.8	4	1
03/12/06	5:36 a	-14.6	-14.6	-14.6	---	---	38.3	SSE	0.64	44.3	-29.7	---	---	726.1	0.023	0.000	20.9	4	1
03/12/06	5:37 a	-14.6	-14.6	-14.6	---	---	39.1	SSE	0.65	43.5	-29.8	---	---	726.0	0.023	0.000	20.9	4	1
03/12/06	5:38 a	-14.6	-14.6	-14.6	---	---	43.5	SSE	0.72	47.8	-30.5	---	---	725.8	0.023	0.000	20.9	4	1
03/12/06	5:39 a	-14.6	-14.6	-14.6	---	---	40.0	SSE	0.67	46.1	-30.1	---	---	726.2	0.023	0.000	20.9	4	1
03/12/06	5:40 a	-14.6	-14.6	-14.6	---	---	37.4	SSE	0.62	41.7	-29.7	---	---	726.0	0.023	0.000	20.9	4	1
03/12/06	5:41 a	-14.6	-14.6	-14.7	---	---	38.3	SSE	0.64	45.2	-29.8	---	---	726.0	0.023	0.000	20.9	5	1
03/12/06	5:42 a	-14.6	-14.6	-14.7	---	---	40.9	SSE	0.68	50.4	-30.2	---	---	726.1	0.023	0.000	20.9	4	1
03/12/06	5:43 a	-14.6	-14.6	-14.7	---	---	41.7	SSE	0.70	46.1	-30.3	---	---	726.1	0.023	0.000	20.9	4	1
03/12/06	5:44 a	-14.7	-14.6	-14.7	---	---	40.0	SSE	0.67	46.1	-30.1	---	---	725.8	0.023	0.000	20.9	4	1
03/12/06	5:45 a	-14.7	-14.7	-14.7	---	---	40.9	SSE	0.68	47.0	-30.2	---	---	726.0	0.023	0.000	20.9	4	1
03/12/06	5:46 a	-14.7	-14.7	-14.7	---	---	40.9	SSE	0.68	47.0	-30.2	---	---	726.1	0.023	0.000	20.9	4	1
03/12/06	5:47 a	-14.7	-14.7	-14.7	---	---	37.4	SSE	0.62	41.7	-29.8	---	---	726.1	0.023	0.000	20.9	4	1
03/12/06	5:48 a	-14.7	-14.7	-14.7	---	---	39.1	SSE	0.65	45.2	-30.0	---	---	726.2	0.023	0.000	20.9	4	1
03/12/06	5:49 a	-14.7	-14.7	-14.7	---	---	36.5	SSE	0.61	41.7	-29.7	---	---	726.2	0.023	0.000	20.9	4	1
03/12/06	5:50 a	-14.7	-14.7	-14.7	---	---	37.4	SSE	0.62	40.9	-29.8	---	---	726.2	0.023	0.000	20.9	4	1
03/12/06	5:51 a	-14.7	-14.7	-14.7	---	---	40.0	SSE	0.67	44.3	-30.2	---	---	726.1	0.023	0.000	20.9	4	1
03/12/06	5:52 a	-14.8	-14.7	-14.8	---	---	40.9	SSE	0.68	47.8	-30.4	---	---	726.2	0.023	0.000	20.9	4	1
03/12/06	5:53 a	-14.8	-14.8	-14.8	---	---	38.3	SSE	0.64	44.3	-30.1	---	---	726.1	0.023	0.000	20.9	4	1
03/12/06	5:54 a	-14.8	-14.8	-14.8	---	---	40.9	SSE	0.68	47.0	-30.4	---	---	725.9	0.023	0.000	20.9	4	1
03/12/06	5:55 a	-14.8	-14.8	-14.8	---	---	40.9	SSE	0.68	47.0	-30.4	---	---	726.0	0.023	0.000	20.9	5	1
03/12/06	5:56 a	-14.8	-14.8	-14.8	---	---	39.1	SSE	0.65	45.2	-30.2	---	---	726.1	0.023	0.000	20.9	5	1
03/12/06	5:57 a	-14.8	-14.8	-14.8	---	---	39.1	SSE	0.65	42.6	-30.2	---	---	726.2	0.023	0.000	20.9	5	1
03/12/06	5:58 a	-14.8	-14.8	-14.8	---	---	39.1	SSE	0.65	43.5	-30.2	---	---	726.2	0.023	0.000	20.9	4	1
03/12/06	5:59 a	-14.8	-14.8	-14.8	---	---	36.5	SSE	0.61	42.6	-29.9	---	---	726.4	0.023	0.000	20.9	5	1
03/12/06	6:00 a	-14.8	-14.8	-14.8	---	---	35.7	SSE	0.59	38.3	-29.7	---	---	726.5	0.023	0.000	20.9	4	1
03/12/06	6:01 a	-14.8	-14.8	-14.8	---	---	33.9	SE	0.57	39.1	-29.4	---	---	726.4	0.023	0.000	20.9	4	1
03/12/06	6:02 a	-14.8	-14.8	-14.8	---	---	33.9	SE	0.57	39.1	-29.4	---	---	726.5	0.023	0.000	20.9	4	1
03/12/06	6:03 a	-14.8	-14.8	-14.9	---	---	32.2	SE	0.54	34.8	-29.2	---	---	726.5	0.023	0.000	20.9	4	1
03/12/06	6:04 a	-14.8	-14.8	-14.9	---	---	31.3	SE	0.52	33.9	-29.1	---	---	726.7	0.023	0.000	20.9	4	1
03/12/06	6:05 a	-14.8	-14.8	-14.9	---	---	30.4	SE	0.51	36.5	-28.9	---	---	726.6	0.023	0.000	20.9	4	1
03/12/06	6:06 a	-14.8	-14.8	-14.9	---	---	30.4	SE	0.51	33.0	-28.9	---	---	726.6	0.023	0.000	20.9	4	1
03/12/06	6:07 a	-14.9	-14.8	-14.9	---	---	32.2	SE	0.54	36.5	-29.3	---	---	726.5	0.023	0.000	20.9	4	1
03/12/06	6:08 a	-14.9	-14.9	-14.9	---	---	33.0	SE	0.55	35.7	-29.4	---	---	726.5	0.023	0.000	20.9	4	1
03/12/06	6:09 a	-14.9	-14.8	-14.9	---	---	32.2	SSE	0.54	35.7	-29.3	---	---	726.5	0.023	0.000	20.9	4	1
03/12/06	6:10 a	-14.9	-14.9	-14.9	---	---	33.0	SE	0.55	37.4	-29.4	---	---	726.5	0.023	0.000	20.9	4	1
03/12/06	6:11 a	-14.9	-14.9	-14.9	---	---	36.5	SSE	0.61	42.6	-29.9	---	---	726.6	0.023	0.000	20.9	4	1
03/12/06	6:12 a	-14.9	-14.9	-14.9	---	---	33.9	SSE	0.57	38.3	-29.6	---	---	726.6	0.023	0.000	20.9	4	1
03/12/06	6:13 a	-14.9	-14.9	-14.9	---	---	33.9	SE	0.57	39.1	-29.6	---	---	726.6	0.023	0.000	20.9	4	1
03/12/06	6:14 a	-14.9	-14.9	-14.9	---	---	34.8	SSE	0.58	37.4	-29.7	---	---	726.6	0.023	0.000	20.9	4	1
03/12/06	6:15 a	-14.9	-14.9	-14.9	---	---	35.7	SE	0.59	39.1	-29.9	---	---	726.4	0.023	0.000	20.9	4	1
03/12/06	6:16 a	-14.9	-14.9	-14.9	---	---	37.4	SSE	0.62	41.7	-30.2	---	---	726.5	0.023	0.000	20.9	4	1
03/12/06	6:17 a	-14.9	-14.9	-14.9	---	---	38.3	SSE	0.64	41.7	-30.3	---	---	726.4	0.023	0.000	20.9	4	1
03/12/06	6:18 a	-14.9	-14.9	-14.9	---	---	34.8	SSE	0.58	39.1	-29.8	---	---	726.6	0.023	0.000	20.9	4	1
03/12/06	6:19 a	-15.0	-14.9	-15.0	---	---	33.9	SSE	0.57	37.4	-29.7	---	---	726.5	0.023	0.000	20.9	4	1
03/12/06	6:20 a	-15.0	-14.9	-15.0	---	---	36.5	SSE	0.61	42.6	-30.1	---	---	726.4	0.023	0.000	20.9	4	1
03/12/06	6:21 a	-15.0	-15.0	-15.0	---	---	37.4	SSE	0.62	44.3	-30.2	---	---	726.4	0.023	0.000	20.9	4	1
03/12/06	6:22 a	-15.0	-15.0	-15.1	---	---	37.4	SSE	0.62	41.7	-30.2	---	---	726.3	0.023	0.000	20.9	4	1
03/12/06	6:23 a	-15.0	-15.0	-15.1	---	---	36.5	SSE	0.61	41.7	-30.1	---	---	726.4	0.023	0.000	20.9	4	1
03/12/06	6:24 a	-15.0	-15.0	-15.1	---	---	37.4	SSE	0.62	40.9	-30.2	---	---	726.3	0.023	0.000	20.9	4	1
03/12/06	6:25 a	-15.0	-15.0	-15.1	---	---	40.0	SSE	0.67	45.2	-30.6	---	---	726.2	0.023	0.000	20.9	4	1
03/12/06	6:26 a	-15.0	-15.0	-15.1	---	---	38.3	SE	0.64	42.6	-30.3	---	---	726.2	0.023	0.000	20.9	4	1
03/12/06	6:27 a	-15.1	-15.0	-15.1	---	---	35.7	SSE	0.59	39.1	-30.1	---	---	726.5	0.023	0.000	20.9	4	1
03/12/06	6:28 a	-15.1	-15.1	-15.1	---	---	34.8	SE	0.58	39.1	-29.9	---	---	726.4	0.023	0.000	20.9	4	1
03/12/06	6:29 a	-15.1	-15.1	-15.1	---	---	36.5	SE	0.61	40.0	-30.2	---	---	726.4	0.023	0.000	20.9	4	1
03/12/06	6:30 a	-15.1	-15.0	-15.1	---	---	34.8	SE	0.58	36.5	-29.9	---	---	726.4	0.023	0.000	20.9	4	1
03/12/06	6:31 a	-15.1	-15.1	-15.1	---	---	33.0	SE	0.55	37.4	-29.6	---	---	726.6	0.023	0.000	20.9	5	1
03/12/06	6:32 a	-15.1	-15.1	-15.1	---	---	33.9	SE	0.57	38.3	-29.8	---	---	726.5	0.023	0.000	20.9	4	1
03/12/06	6:33 a	-15.1	-15.1	-15.1	---	---	35.7	SE	0.59	40.0	-30.1	---	---	726.3	0.023	0.000	20.9	4	1
03/12/06	6:34 a	-15.1	-15.1	-15.1	---	---	33.9	SE	0.57	35.7	-29.8	---	---	726.5	0.023	0.000	20.9	4	1
03/12/06	6:35 a	-15.1	-15.1	-15.1	---	---	35.7	SE	0.59	39.1	-30.1	---	---	726.5	0.023	0.000	20.9	4	1
03/12/06	6:36 a	-15.1	-15.1	-15.1	---	---	34.8	ESE	0.58	38.3	-30.0	---	---	726.5	0.023	0.000	20.9	4	1
03/12/06	6:37 a	-15.1	-15.1	-15.1	---	---	32.2	SE	0.54	37.4	-29.5	---	---	726.8	0.023	0.000	20.9	4	1
03/12/06	6:38 a	-15.1	-15.1	-15.1	---	---	30.4	SE	0.51	33.0	-29.2	---	---	726.7	0.023	0.000	20.9	4	1
03/12/06	6:39 a	-15.1	-15.1	-15.1	---	---	30.4	SE	0.51	33.9	-29.2	---	---	726.8	0.023	0.000	20.9	4	1
03/12/06	6:40 a	-15.1	-15.1	-15.1	---	---	28.7	SE	0.48	33.0	-28.9	---	---	726.9	0.023	0.000	20.9	4	1
03/12/06	6:41 a	-15.1	-15.1	-15.1	---	---	31.3	ESE	0.52	33.9	-29.4	---	---	726.7	0.023	0.000	20.9	4	1
03/12/06	6:42 a	-15.1	-15.1	-15.1	---	---	33.0	ESE	0.55	38.3	-29.7	---	---	726.7	0.023	0.000	20.9	4	1
03/12/06	6:43 a	-15.1	-15.1	-15.1	---	---	30.4	ESE	0.51	32.2	-29.3	---	---	726.7	0.023	0.000	20.9	4	1
03/12/06	6:44 a	-15.2	-15.1	-15.2	---	---	30.4	ESE	0.51	32.2	-29.3	---	---	726.8	0.023	0.000	20.9	4	1
03/12/06	6:45 a	-15.2	-15.2	-15.2	---	---	32.2	ESE	0.54	35.7	-29.7	---	---	726.7	0.023	0.000	20.9	4	1
03/12/06	6:46 a	-15.2	-15.2	-15.2	---	---	31.3	SE	0.52	37.4	-29.5	---	---	726.7	0.023	0.000	20.9	4	1
03/12/06	6:47 a	-15.2	-15.2	-15.2	---	---	29.6	ESE	0.49	33.0	-29.2	---	---	726.9	0.023	0.000	20.9	4	1
03/12/06	6:48 a	-15.2	-15.2	-15.2	---	---	32.2	ESE	0.54	39.1	-29.7	---	---	726.8	0.023	0.000	20.9	4	1
03/12/06	6:49 a	-15.2	-15.2	-15.3	---	---	30.4	ESE	0.51	33.0	-29.4	---	---	726.8	0.023	0.000	20.9	4	1
03/12/06	6:50 a	-15.3	-15.3	-15.3	---	---	30.4	ESE	0.51	34.8	-29.5	---	---	726.9	0.023	0.000	20.9	4	1
03/12/06	6:51 a	-15.3	-15.2	-15.3	---	---	30.4	ESE	0.51	33.0	-29.5	---	---	726.9	0.023	0.000	20.9	4	1
03/12/06	6:52 a	-15.3	-15.3	-15.3	---	---	27.8	SE	0.46	31.3	-29.1	---	---	726.8	0.023	0.000	20.9	4	1
03/12/06	6:53 a	-15.3	-15.3	-15.3	---	---	29.6	ESE	0.49	32.2	-29.3	---	---	727.0	0.023	0.000	20.9	4	1
03/12/06	6:54 a	-15.3	-15.3	-15.3	---	---	29.6	ESE	0.49	34.8	-29.3	---	---	727.0	0.023	0.000	20.9	4	1
03/12/06	6:55 a	-15.3	-15.3	-15.3	---	---	29.6	SE	0.49	34.8	-29.4	---	---	726.9	0.023	0.000	20.9	4	1
03/12/06	6:56 a	-15.3	-15.3	-15.3	---	---	31.3	SE	0.52	35.7	-29.7	---	---	726.9	0.023	0.000	20.9	4	1
03/12/06	6:57 a	-15.3	-15.3	-15.3	---	---	28.7	ESE	0.48	31.3	-29.3	---	---	727.0	0.023	0.000	20.9	4	1
03/12/06	6:58 a	-15.3	-15.3	-15.3	---	---	30.4	SE	0.51	35.7	-29.6	---	---	726.9	0.023	0.000	20.9	4	1
03/12/06	6:59 a	-15.3	-15.3	-15.4	---	---	31.3	SE	0.52	38.3	-29.7	---	---	727.0	0.023	0.000	20.9	4	1
03/12/06	7:00 a	-15.4	-15.3	-15.4	---	---	27.0	SE	0.45	33.9	-29.0	---	---	727.0	0.023	0.000	20.9	4	1
03/12/06	7:01 a	-15.3	-15.3	-15.4	---	---	27.8	ESE	0.46	33.0	-29.1	---	---	727.1	0.023	0.000	20.9	4	1
03/12/06	7:02 a	-15.4	-15.3	-15.4	---	---	30.4	ESE	0.51	36.5	-29.7	---	---	726.9	0.023	0.000	20.9	4	1
03/12/06	7:03 a	-15.4	-15.4	-15.4	---	---	32.2	ESE	0.54	39.1	-29.9	---	---	727.1	0.023	0.000	20.9	4	1
03/12/06	7:04 a	-15.4	-15.4	-15.4	---	---	28.7	ESE	0.48	32.2	-29.3	---	---	727.1	0.023	0.000	20.9	4	1
03/12/06	7:05 a	-15.4	-15.4	-15.4	---	---	30.4	ESE	0.51	35.7	-29.7	---	---	726.9	0.023	0.000	20.9	4	1
03/12/06	7:06 a	-15.4	-15.4	-15.4	---	---	31.3	ESE	0.52	36.5	-29.9	---	---	726.9	0.023	0.000	20.9	4	1
03/12/06	7:07 a	-15.4	-15.4	-15.4	---	---	27.0	ESE	0.45	30.4	-29.1	---	---	726.9	0.023	0.000	20.9	4	1
03/12/06	7:08 a	-15.4	-15.4	-15.4	---	---	28.7	SE	0.48	36.5	-29.4	---	---	727.1	0.023	0.000	20.9	4	1
03/12/06	7:09 a	-15.4	-15.4	-15.5	---	---	27.0	ESE	0.45	33.0	-29.1	---	---	726.9	0.023	0.000	20.9	4	1
03/12/06	7:10 a	-15.5	-15.4	-15.5	---	---	31.3	ESE	0.52	35.7	-29.9	---	---	726.9	0.023	0.000	20.8	4	1
03/12/06	7:11 a	-15.5	-15.5	-15.5	---	---	28.7	ESE	0.48	33.0	-29.5	---	---	726.9	0.023	0.000	20.8	4	1
03/12/06	7:12 a	-15.6	-15.5	-15.6	---	---	29.6	ESE	0.49	33.0	-29.7	---	---	726.9	0.024	0.000	20.8	4	1
03/12/06	7:13 a	-15.6	-15.6	-15.6	---	---	31.3	ESE	0.52	36.5	-30.1	---	---	727.0	0.024	0.000	20.8	4	1
03/12/06	7:14 a	-15.6	-15.6	-15.6	---	---	26.1	E	0.43	33.0	-29.1	---	---	726.8	0.024	0.000	20.8	4	1
03/12/06	7:15 a	-15.6	-15.6	-15.6	---	---	29.6	E	0.49	34.8	-29.8	---	---	726.8	0.024	0.000	20.8	4	1
03/12/06	7:16 a	-15.6	-15.6	-15.6	---	---	26.1	E	0.43	34.8	-29.2	---	---	726.8	0.024	0.000	20.8	4	1
03/12/06	7:17 a	-15.6	-15.6	-15.7	---	---	28.7	E	0.48	34.8	-29.7	---	---	726.9	0.024	0.000	20.8	4	1
03/12/06	7:18 a	-15.7	-15.6	-15.7	---	---	27.8	ESE	0.46	33.0	-29.6	---	---	726.8	0.024	0.000	20.8	4	1
03/12/06	7:19 a	-15.7	-15.7	-15.7	---	---	26.1	E	0.43	31.3	-29.2	---	---	726.7	0.024	0.000	20.9	4	1
03/12/06	7:20 a	-15.7	-15.7	-15.8	---	---	32.2	E	0.54	42.6	-30.4	---	---	726.7	0.024	0.000	20.8	4	1
03/12/06	7:21 a	-15.8	-15.8	-15.8	---	---	27.8	E	0.46	35.7	-29.7	---	---	726.7	0.024	0.000	20.8	4	1
03/12/06	7:22 a	-15.8	-15.8	-15.8	---	---	31.3	ESE	0.52	36.5	-30.4	---	---	726.8	0.024	0.000	20.8	4	1
03/12/06	7:23 a	-15.8	-15.8	-15.9	---	---	30.4	E	0.51	38.3	-30.3	---	---	726.7	0.024	0.000	20.8	4	1
03/12/06	7:24 a	-15.9	-15.9	-15.9	---	---	33.9	E	0.57	37.4	-30.9	---	---	726.7	0.024	0.000	20.8	4	1
03/12/06	7:25 a	-15.9	-15.9	-16.0	---	---	29.6	E	0.49	36.5	-30.3	---	---	726.8	0.024	0.000	20.8	4	1
03/12/06	7:26 a	-16.0	-16.0	-16.1	---	---	28.7	E	0.48	34.8	-30.2	---	---	726.6	0.024	0.000	20.8	4	1
03/12/06	7:27 a	-16.1	-16.1	-16.1	---	---	31.3	E	0.52	38.3	-30.7	---	---	726.7	0.024	0.000	20.8	4	1
03/12/06	7:28 a	-16.1	-16.1	-16.2	---	---	30.4	ESE	0.51	35.7	-30.7	---	---	727.0	0.024	0.000	20.8	4	1
03/12/06	7:29 a	-16.2	-16.1	-16.2	---	---	25.2	ESE	0.42	35.7	-29.7	---	---	727.2	0.024	0.000	20.8	4	1
03/12/06	7:30 a	-16.2	-16.2	-16.3	---	---	35.7	ESE	0.59	40.9	-31.7	---	---	726.7	0.024	0.000	20.8	4	1
03/12/06	7:31 a	-16.3	-16.2	-16.3	---	---	31.3	E	0.52	38.3	-31.1	---	---	727.0	0.024	0.000	20.8	4	1
03/12/06	7:32 a	-16.3	-16.3	-16.3	---	---	30.4	ESE	0.51	35.7	-30.9	---	---	727.0	0.024	0.000	20.8	4	1
03/12/06	7:33 a	-16.3	-16.3	-16.4	---	---	29.6	ESE	0.49	33.0	-30.8	---	---	727.3	0.024	0.000	20.8	4	1
03/12/06	7:34 a	-16.4	-16.4	-16.4	---	---	29.6	ESE	0.49	33.9	-30.9	---	---	727.2	0.024	0.000	20.8	4	1
03/12/06	7:35 a	-16.5	-16.4	-16.6	---	---	29.6	ESE	0.49	33.9	-31.1	---	---	727.1	0.024	0.000	20.8	4	1
03/12/06	7:36 a	-16.6	-16.5	-16.6	---	---	30.4	ESE	0.51	33.9	-31.3	---	---	727.1	0.024	0.000	20.8	4	1
03/12/06	7:37 a	-16.6	-16.6	-16.6	---	---	32.2	ESE	0.54	40.9	-31.6	---	---	726.8	0.024	0.000	20.8	4	1
03/12/06	7:38 a	-16.7	-16.6	-16.7	---	---	29.6	ESE	0.49	36.5	-31.3	---	---	727.1	0.024	0.000	20.8	4	1
03/12/06	7:39 a	-16.7	-16.7	-16.7	---	---	32.2	ESE	0.54	41.7	-31.7	---	---	727.0	0.024	0.000	20.8	4	1
03/12/06	7:40 a	-16.8	-16.7	-16.8	---	---	27.8	ESE	0.46	33.9	-31.1	---	---	727.2	0.024	0.000	20.8	4	1
03/12/06	7:41 a	-16.8	-16.8	-16.8	---	---	29.6	ESE	0.49	33.9	-31.4	---	---	727.4	0.024	0.000	20.8	4	1
03/12/06	7:42 a	-16.8	-16.8	-16.8	---	---	27.8	E	0.46	31.3	-31.2	---	---	727.3	0.024	0.000	20.8	4	1
03/12/06	7:43 a	-16.9	-16.8	-16.9	---	---	26.1	E	0.43	29.6	-30.9	---	---	727.3	0.024	0.000	20.8	4	1
03/12/06	7:44 a	-16.9	-16.9	-16.9	---	---	27.8	E	0.46	33.0	-31.2	---	---	727.3	0.024	0.000	20.8	4	1
03/12/06	7:45 a	-16.9	-16.9	-16.9	---	---	29.6	ESE	0.49	34.8	-31.7	---	---	727.4	0.024	0.000	20.8	4	1
03/12/06	7:46 a	-17.0	-16.9	-17.0	---	---	27.8	ESE	0.46	32.2	-31.4	---	---	727.3	0.025	0.000	20.8	4	1
03/12/06	7:47 a	-17.0	-17.0	-17.1	---	---	33.0	ESE	0.55	38.3	-32.3	---	---	727.2	0.025	0.000	20.8	4	1
03/12/06	7:48 a	-17.1	-17.0	-17.1	---	---	25.2	ESE	0.42	38.3	-30.9	---	---	727.4	0.025	0.000	20.8	4	1
03/12/06	7:49 a	-17.1	-17.1	-17.1	---	---	28.7	ESE	0.48	34.8	-31.6	---	---	727.4	0.025	0.000	20.8	4	1
03/12/06	7:50 a	-17.1	-17.1	-17.1	---	---	27.0	ESE	0.45	30.4	-31.3	---	---	727.4	0.025	0.000	20.8	4	1
03/12/06	7:51 a	-17.1	-17.1	-17.1	---	---	23.5	E	0.39	27.0	-30.6	---	---	727.2	0.025	0.000	20.8	4	1
03/12/06	7:52 a	-17.2	-17.2	-17.2	---	---	22.6	E	0.38	27.8	-30.5	---	---	727.3	0.025	0.000	20.8	4	1
03/12/06	7:53 a	-17.2	-17.2	-17.2	---	---	26.1	E	0.43	33.0	-31.3	---	---	727.2	0.025	0.000	20.8	4	1
03/12/06	7:54 a	-17.2	-17.2	-17.2	---	---	30.4	ESE	0.51	35.7	-32.1	---	---	727.0	0.025	0.000	20.8	4	1
03/12/06	7:55 a	-17.2	-17.2	-17.2	---	---	30.4	ESE	0.51	36.5	-32.2	---	---	727.0	0.025	0.000	20.8	4	1
03/12/06	7:56 a	-17.2	-17.2	-17.2	---	---	30.4	ESE	0.51	33.9	-32.2	---	---	727.2	0.025	0.000	20.8	4	1
03/12/06	7:57 a	-17.2	-17.2	-17.2	---	---	30.4	ESE	0.51	36.5	-32.2	---	---	727.1	0.025	0.000	20.8	4	1
03/12/06	7:58 a	-17.2	-17.2	-17.2	---	---	29.6	ESE	0.49	35.7	-32.0	---	---	727.0	0.025	0.000	20.8	4	1
03/12/06	7:59 a	-17.2	-17.2	-17.2	---	---	25.2	ESE	0.42	29.6	-31.1	---	---	727.1	0.025	0.000	20.8	4	1
03/12/06	8:00 a	-17.2	-17.2	-17.2	---	---	27.0	ESE	0.45	31.3	-31.4	---	---	727.0	0.025	0.000	20.8	4	1
03/12/06	8:01 a	-17.2	-17.2	-17.2	---	---	30.4	ESE	0.51	39.1	-32.2	---	---	726.7	0.025	0.000	20.8	4	1
03/12/06	8:02 a	-17.2	-17.2	-17.2	---	---	31.3	ESE	0.52	40.0	-32.3	---	---	726.7	0.025	0.000	20.8	4	1
03/12/06	8:03 a	-17.2	-17.2	-17.2	---	---	34.8	ESE	0.58	40.9	-32.8	---	---	726.4	0.025	0.000	20.8	4	1
03/12/06	8:04 a	-17.1	-17.1	-17.2	---	---	33.0	ESE	0.55	37.4	-32.5	---	---	726.6	0.025	0.000	20.8	4	1
03/12/06	8:05 a	-17.1	-17.1	-17.1	---	---	33.9	SE	0.57	39.1	-32.6	---	---	726.7	0.025	0.000	20.8	4	1
03/12/06	8:06 a	-17.1	-17.1	-17.1	---	---	34.8	ESE	0.58	41.7	-32.7	---	---	726.5	0.025	0.000	20.8	4	1
03/12/06	8:07 a	-17.1	-17.1	-17.1	---	---	32.2	SE	0.54	34.8	-32.3	---	---	726.6	0.025	0.000	20.8	4	1
03/12/06	8:08 a	-17.1	-17.1	-17.1	---	---	36.5	SE	0.61	47.8	-33.0	---	---	726.3	0.025	0.000	20.8	4	1
03/12/06	8:09 a	-17.1	-17.0	-17.1	---	---	39.1	ESE	0.65	44.3	-33.4	---	---	726.3	0.025	0.000	20.8	4	1
03/12/06	8:10 a	-17.0	-17.0	-17.1	---	---	33.9	ESE	0.57	36.5	-32.5	---	---	726.4	0.025	0.000	20.8	4	1
03/12/06	8:11 a	-17.0	-17.0	-17.1	---	---	37.4	ESE	0.62	43.5	-33.1	---	---	726.2	0.025	0.000	20.8	4	1
03/12/06	8:12 a	-17.0	-16.9	-17.0	---	---	39.1	ESE	0.65	45.2	-33.3	---	---	725.9	0.025	0.000	20.8	4	1
03/12/06	8:13 a	-16.9	-16.9	-17.0	---	---	41.7	SE	0.70	47.0	-33.6	---	---	725.9	0.024	0.000	20.8	4	1
03/12/06	8:14 a	-16.9	-16.9	-16.9	---	---	41.7	ESE	0.70	47.0	-33.6	---	---	725.7	0.024	0.000	20.8	4	1
03/12/06	8:15 a	-16.9	-16.9	-16.9	---	---	43.5	ESE	0.72	52.2	-33.8	---	---	725.4	0.024	0.000	20.8	4	1
03/12/06	8:16 a	-16.9	-16.9	-16.9	---	---	39.1	ESE	0.65	53.0	-33.1	---	---	725.9	0.024	0.000	20.8	4	1
03/12/06	8:17 a	-16.9	-16.9	-16.9	---	---	41.7	ESE	0.70	47.0	-33.5	---	---	725.6	0.024	0.000	20.8	4	1
03/12/06	8:18 a	-16.8	-16.8	-16.8	---	---	39.1	ESE	0.65	43.5	-33.1	---	---	725.9	0.024	0.000	20.8	4	1
03/12/06	8:19 a	-16.8	-16.8	-16.8	---	---	40.9	ESE	0.68	47.8	-33.3	---	---	725.9	0.024	0.000	20.8	4	1
03/12/06	8:20 a	-16.8	-16.8	-16.8	---	---	44.3	SE	0.74	51.3	-33.7	---	---	726.0	0.024	0.000	20.8	4	1
03/12/06	8:21 a	-16.8	-16.7	-16.8	---	---	40.9	SE	0.68	47.8	-33.2	---	---	725.7	0.024	0.000	20.8	4	1
03/12/06	8:22 a	-16.8	-16.7	-16.8	---	---	40.9	ESE	0.68	45.2	-33.2	---	---	725.9	0.024	0.000	20.8	4	1
03/12/06	8:23 a	-16.7	-16.7	-16.7	---	---	38.3	SE	0.64	41.7	-32.8	---	---	725.9	0.024	0.000	20.8	4	1
03/12/06	8:24 a	-16.7	-16.7	-16.7	---	---	43.5	SE	0.72	51.3	-33.5	---	---	725.7	0.024	0.000	20.7	4	1
03/12/06	8:25 a	-16.7	-16.7	-16.7	---	---	40.9	SE	0.68	50.4	-33.1	---	---	725.8	0.024	0.000	20.8	4	1
03/12/06	8:26 a	-16.6	-16.6	-16.6	---	---	40.9	SE	0.68	47.8	-33.0	---	---	726.0	0.024	0.000	20.8	4	1
03/12/06	8:27 a	-16.6	-16.6	-16.7	---	---	42.6	SE	0.71	53.9	-33.2	---	---	726.0	0.024	0.000	20.7	4	1
03/12/06	8:28 a	-16.6	-16.6	-16.6	---	---	38.3	SE	0.64	40.9	-32.6	---	---	726.1	0.024	0.000	20.7	4	1
03/12/06	8:29 a	-16.6	-16.6	-16.6	---	---	39.1	SE	0.65	45.2	-32.7	---	---	726.3	0.024	0.000	20.7	4	1
03/12/06	8:30 a	-16.6	-16.6	-16.6	---	---	37.4	SE	0.62	40.0	-32.4	---	---	726.2	0.024	0.000	20.7	4	1
03/12/06	8:31 a	-16.6	-16.6	-16.6	---	---	39.1	SE	0.65	41.7	-32.7	---	---	726.3	0.024	0.000	20.7	4	1
03/12/06	8:32 a	-16.5	-16.5	-16.6	---	---	37.4	SE	0.62	41.7	-32.3	---	---	726.3	0.024	0.000	20.7	4	1
03/12/06	8:33 a	-16.5	-16.5	-16.5	---	---	34.8	SE	0.58	40.9	-31.9	---	---	726.5	0.024	0.000	20.7	4	1
03/12/06	8:34 a	-16.5	-16.5	-16.5	---	---	37.4	ESE	0.62	40.0	-32.3	---	---	726.5	0.024	0.000	20.7	4	1
03/12/06	8:35 a	-16.5	-16.5	-16.5	---	---	37.4	SE	0.62	40.9	-32.3	---	---	726.5	0.024	0.000	20.7	4	1
03/12/06	8:36 a	-16.5	-16.4	-16.5	---	---	34.8	SE	0.58	38.3	-31.9	---	---	726.5	0.024	0.000	20.7	4	1
03/12/06	8:37 a	-16.4	-16.4	-16.4	---	---	34.8	ESE	0.58	38.3	-31.8	---	---	726.4	0.024	0.000	20.7	4	1
03/12/06	8:38 a	-16.4	-16.4	-16.4	---	---	35.7	ESE	0.59	39.1	-32.0	---	---	726.5	0.024	0.000	20.7	4	1
03/12/06	8:39 a	-16.4	-16.4	-16.4	---	---	36.5	ESE	0.61	40.0	-32.1	---	---	726.5	0.024	0.000	20.7	4	1
03/12/06	8:40 a	-16.4	-16.4	-16.4	---	---	34.8	ESE	0.58	37.4	-31.8	---	---	726.5	0.024	0.000	20.7	4	1
03/12/06	8:41 a	-16.4	-16.4	-16.4	---	---	36.5	ESE	0.61	40.9	-32.1	---	---	726.4	0.024	0.000	20.7	4	1
03/12/06	8:42 a	-16.4	-16.4	-16.4	---	---	33.0	ESE	0.55	34.8	-31.5	---	---	726.7	0.024	0.000	20.7	4	1
03/12/06	8:43 a	-16.4	-16.4	-16.4	---	---	34.8	ESE	0.58	37.4	-31.8	---	---	726.5	0.024	0.000	20.7	4	1
03/12/06	8:44 a	-16.4	-16.4	-16.4	---	---	33.9	ESE	0.57	38.3	-31.6	---	---	726.6	0.024	0.000	20.7	4	1
03/12/06	8:45 a	-16.4	-16.3	-16.4	---	---	31.3	ESE	0.52	33.9	-31.2	---	---	726.7	0.024	0.000	20.7	4	1
03/12/06	8:46 a	-16.3	-16.3	-16.4	---	---	31.3	ESE	0.52	33.0	-31.1	---	---	726.8	0.024	0.000	20.7	4	1
03/12/06	8:47 a	-16.4	-16.4	-16.4	---	---	33.0	ESE	0.55	35.7	-31.5	---	---	726.8	0.024	0.000	20.7	4	1
03/12/06	8:48 a	-16.4	-16.3	-16.4	---	---	33.0	ESE	0.55	33.9	-31.5	---	---	726.7	0.024	0.000	20.7	4	1
03/12/06	8:49 a	-16.4	-16.3	-16.4	---	---	33.9	ESE	0.57	36.5	-31.6	---	---	726.8	0.024	0.000	20.7	4	1
03/12/06	8:50 a	-16.4	-16.4	-16.4	---	---	33.9	ESE	0.57	37.4	-31.6	---	---	726.7	0.024	0.000	20.7	4	1
03/12/06	8:51 a	-16.4	-16.4	-16.4	---	---	32.2	ESE	0.54	34.8	-31.3	---	---	726.9	0.024	0.000	20.7	4	1
03/12/06	8:52 a	-16.4	-16.3	-16.4	---	---	32.2	ESE	0.54	35.7	-31.3	---	---	726.9	0.024	0.000	20.7	4	1
03/12/06	8:53 a	-16.4	-16.4	-16.4	---	---	32.2	ESE	0.54	34.8	-31.3	---	---	726.8	0.024	0.000	20.7	4	1
03/12/06	8:54 a	-16.4	-16.4	-16.4	---	---	32.2	ESE	0.54	33.9	-31.3	---	---	726.8	0.024	0.000	20.7	4	1
03/12/06	8:55 a	-16.4	-16.4	-16.4	---	---	32.2	ESE	0.54	34.8	-31.3	---	---	726.8	0.024	0.000	20.7	4	1
03/12/06	8:56 a	-16.4	-16.4	-16.4	---	---	33.9	E	0.57	37.4	-31.6	---	---	727.0	0.024	0.000	20.7	4	1
03/12/06	8:57 a	-16.4	-16.4	-16.4	---	---	32.2	ESE	0.54	36.5	-31.3	---	---	726.8	0.024	0.000	20.7	4	1
03/12/06	8:58 a	-16.4	-16.4	-16.4	---	---	27.8	ESE	0.46	34.8	-30.6	---	---	726.8	0.024	0.000	20.7	4	1
03/12/06	8:59 a	-16.4	-16.4	-16.4	---	---	27.8	ESE	0.46	32.2	-30.6	---	---	727.0	0.024	0.000	20.7	4	1
03/12/06	9:00 a	-16.4	-16.4	-16.4	---	---	31.3	ESE	0.52	33.9	-31.3	---	---	726.8	0.024	0.000	20.7	4	1
03/12/06	9:01 a	-16.4	-16.4	-16.4	---	---	28.7	E	0.48	32.2	-30.8	---	---	726.8	0.024	0.000	20.7	4	1
03/12/06	9:02 a	-16.4	-16.4	-16.4	---	---	28.7	E	0.48	33.0	-30.8	---	---	726.9	0.024	0.000	20.7	4	1
03/12/06	9:03 a	-16.4	-16.4	-16.4	---	---	28.7	ESE	0.48	31.3	-30.8	---	---	726.8	0.024	0.000	20.7	4	1
03/12/06	9:04 a	-16.4	-16.4	-16.4	---	---	30.4	ESE	0.51	32.2	-31.1	---	---	726.8	0.024	0.000	20.7	4	1
03/12/06	9:05 a	-16.5	-16.4	-16.5	---	---	30.4	ESE	0.51	36.5	-31.2	---	---	726.9	0.024	0.000	20.7	4	1
03/12/06	9:06 a	-16.5	-16.4	-16.5	---	---	20.9	E	0.35	23.5	-29.2	---	---	726.9	0.024	0.000	20.7	4	1
03/12/06	9:07 a	-16.5	-16.4	-16.5	---	---	24.3	E	0.41	28.7	-30.0	---	---	726.8	0.024	0.000	20.7	4	1
03/12/06	9:08 a	-16.5	-16.5	-16.5	---	---	27.0	E	0.45	33.0	-30.6	---	---	726.7	0.024	0.000	20.7	4	1
03/12/06	9:09 a	-16.5	-16.5	-16.5	---	---	28.7	E	0.48	30.4	-30.9	---	---	726.9	0.024	0.000	20.7	4	1
03/12/06	9:10 a	-16.5	-16.5	-16.6	---	---	27.8	ESE	0.46	31.3	-30.7	---	---	726.8	0.024	0.000	20.7	4	1
03/12/06	9:11 a	-16.5	-16.5	-16.6	---	---	28.7	ESE	0.48	36.5	-30.9	---	---	726.6	0.024	0.000	20.7	4	1
03/12/06	9:12 a	-16.5	-16.5	-16.6	---	---	27.0	E	0.45	34.8	-30.6	---	---	726.9	0.024	0.000	20.7	4	1
03/12/06	9:13 a	-16.6	-16.5	-16.6	---	---	23.5	E	0.39	27.0	-29.9	---	---	726.8	0.024	0.000	20.7	4	1
03/12/06	9:14 a	-16.6	-16.5	-16.6	---	---	23.5	E	0.39	25.2	-29.9	---	---	726.8	0.024	0.000	20.7	4	1
03/12/06	9:15 a	-16.6	-16.6	-16.6	---	---	25.2	ESE	0.42	29.6	-30.3	---	---	726.8	0.024	0.000	20.7	4	1
03/12/06	9:16 a	-16.6	-16.6	-16.6	---	---	25.2	ESE	0.42	27.8	-30.3	---	---	726.9	0.024	0.000	20.7	4	1
03/12/06	9:17 a	-16.6	-16.6	-16.6	---	---	23.5	E	0.39	27.8	-29.9	---	---	726.8	0.024	0.000	20.7	4	1
03/12/06	9:18 a	-16.6	-16.6	-16.6	---	---	25.2	E	0.42	29.6	-30.3	---	---	726.9	0.024	0.000	20.7	4	1
03/12/06	9:19 a	-16.6	-16.6	-16.6	---	---	22.6	E	0.38	28.7	-29.7	---	---	726.9	0.024	0.000	20.7	4	1
03/12/06	9:20 a	-16.6	-16.6	-16.6	---	---	25.2	ESE	0.42	27.0	-30.3	---	---	727.0	0.024	0.000	20.7	4	1
03/12/06	9:21 a	-16.6	-16.6	-16.6	---	---	23.5	ESE	0.39	27.8	-29.9	---	---	727.0	0.024	0.000	20.7	4	1
03/12/06	9:22 a	-16.6	-16.6	-16.6	---	---	23.5	E	0.39	26.1	-29.9	---	---	727.0	0.024	0.000	20.7	4	1
03/12/06	9:23 a	-16.6	-16.6	-16.6	---	---	22.6	E	0.38	26.1	-29.7	---	---	727.1	0.024	0.000	20.7	4	1
03/12/06	9:24 a	-16.6	-16.6	-16.6	---	---	23.5	E	0.39	28.7	-29.9	---	---	727.1	0.024	0.000	20.7	4	1
03/12/06	9:25 a	-16.6	-16.6	-16.6	---	---	25.2	E	0.42	28.7	-30.3	---	---	727.0	0.024	0.000	20.6	4	1
03/12/06	9:26 a	-16.6	-16.6	-16.6	---	---	20.0	E	0.33	27.8	-29.1	---	---	727.0	0.024	0.000	20.6	4	1
03/12/06	9:27 a	-16.6	-16.6	-16.6	---	---	19.1	ESE	0.32	23.5	-28.9	---	---	727.0	0.024	0.000	20.7	4	1
03/12/06	9:28 a	-16.6	-16.6	-16.6	---	---	20.9	E	0.35	27.0	-29.3	---	---	727.1	0.024	0.000	20.6	4	1
03/12/06	9:29 a	-16.6	-16.6	-16.6	---	---	24.3	E	0.41	27.8	-30.2	---	---	727.1	0.024	0.000	20.6	4	1
03/12/06	9:30 a	-16.6	-16.6	-16.6	---	---	27.0	ESE	0.45	29.6	-30.7	---	---	727.0	0.024	0.000	20.7	4	1
03/12/06	9:31 a	-16.6	-16.6	-16.6	---	---	23.5	ESE	0.39	27.8	-29.9	---	---	727.0	0.024	0.000	20.7	4	1
03/12/06	9:32 a	-16.6	-16.6	-16.6	---	---	20.9	E	0.35	25.2	-29.3	---	---	727.1	0.024	0.000	20.7	4	1
03/12/06	9:33 a	-16.6	-16.6	-16.6	---	---	20.9	E	0.35	28.7	-29.3	---	---	727.0	0.024	0.000	20.7	4	1
03/12/06	9:34 a	-16.6	-16.6	-16.6	---	---	23.5	ESE	0.39	26.1	-29.9	---	---	727.1	0.024	0.000	20.7	4	1
03/12/06	9:35 a	-16.6	-16.6	-16.6	---	---	20.0	E	0.33	25.2	-29.1	---	---	727.1	0.024	0.000	20.7	4	1
03/12/06	9:36 a	-16.6	-16.6	-16.6	---	---	22.6	E	0.38	27.8	-29.8	---	---	727.0	0.024	0.000	20.7	4	1
03/12/06	9:37 a	-16.6	-16.6	-16.6	---	---	22.6	E	0.38	27.0	-29.8	---	---	727.0	0.024	0.000	20.7	4	1
03/12/06	9:38 a	-16.6	-16.6	-16.6	---	---	21.7	E	0.36	27.0	-29.6	---	---	727.0	0.024	0.000	20.6	4	1
03/12/06	9:39 a	-16.6	-16.6	-16.6	---	---	26.1	ESE	0.43	27.8	-30.5	---	---	727.2	0.024	0.000	20.6	4	1
03/12/06	9:40 a	-16.6	-16.6	-16.6	---	---	25.2	ESE	0.42	27.8	-30.3	---	---	727.2	0.024	0.000	20.6	4	1
03/12/06	9:41 a	-16.6	-16.6	-16.6	---	---	25.2	ESE	0.42	27.8	-30.3	---	---	727.0	0.024	0.000	20.6	4	1
03/12/06	9:42 a	-16.6	-16.6	-16.6	---	---	20.9	E	0.35	23.5	-29.3	---	---	727.0	0.024	0.000	20.7	4	1
03/12/06	9:43 a	-16.6	-16.6	-16.6	---	---	23.5	E	0.39	27.8	-29.9	---	---	727.2	0.024	0.000	20.6	4	1
03/12/06	9:44 a	-16.6	-16.6	-16.6	---	---	25.2	ESE	0.42	27.8	-30.3	---	---	727.0	0.024	0.000	20.6	4	1
03/12/06	9:45 a	-16.6	-16.6	-16.6	---	---	28.7	E	0.48	32.2	-30.9	---	---	727.1	0.024	0.000	20.6	4	1
03/12/06	9:46 a	-16.6	-16.6	-16.6	---	---	27.8	E	0.46	32.2	-30.8	---	---	727.0	0.024	0.000	20.6	4	1
03/12/06	9:47 a	-16.6	-16.6	-16.6	---	---	27.0	E	0.45	28.7	-30.6	---	---	726.9	0.024	0.000	20.6	4	1
03/12/06	9:48 a	-16.6	-16.6	-16.6	---	---	26.1	E	0.43	31.3	-30.4	---	---	726.9	0.024	0.000	20.6	4	1
03/12/06	9:49 a	-16.6	-16.6	-16.6	---	---	24.3	E	0.41	27.8	-30.1	---	---	726.8	0.024	0.000	20.6	4	1
03/12/06	9:50 a	-16.6	-16.6	-16.6	---	---	24.3	E	0.41	35.7	-30.1	---	---	726.8	0.024	0.000	20.6	4	1
03/12/06	9:51 a	-16.6	-16.6	-16.6	---	---	25.2	E	0.42	29.6	-30.3	---	---	726.9	0.024	0.000	20.6	4	1
03/12/06	9:52 a	-16.6	-16.6	-16.6	---	---	27.8	E	0.46	32.2	-30.8	---	---	727.0	0.024	0.000	20.6	4	1
03/12/06	9:53 a	-16.6	-16.6	-16.6	---	---	24.3	E	0.41	27.8	-30.1	---	---	727.0	0.024	0.000	20.6	4	1
03/12/06	9:54 a	-16.6	-16.6	-16.6	---	---	26.1	E	0.43	29.6	-30.4	---	---	727.1	0.024	0.000	20.6	4	1
03/12/06	9:55 a	-16.6	-16.6	-16.6	---	---	27.8	E	0.46	30.4	-30.8	---	---	727.1	0.024	0.000	20.6	4	1
03/12/06	9:56 a	-16.6	-16.6	-16.6	---	---	27.8	ESE	0.46	34.8	-30.8	---	---	727.1	0.024	0.000	20.6	4	1
03/12/06	9:57 a	-16.6	-16.6	-16.6	---	---	22.6	E	0.38	27.8	-29.7	---	---	727.1	0.024	0.000	20.6	4	1
03/12/06	9:58 a	-16.6	-16.6	-16.6	---	---	27.8	ESE	0.46	30.4	-30.8	---	---	727.0	0.024	0.000	20.6	4	1
03/12/06	9:59 a	-16.6	-16.6	-16.6	---	---	28.7	ESE	0.48	30.4	-30.9	---	---	727.0	0.024	0.000	20.6	4	1
03/12/06	10:00 a	-16.6	-16.6	-16.6	---	---	29.6	ESE	0.49	32.2	-31.1	---	---	727.0	0.024	0.000	20.6	4	1
03/12/06	10:01 a	-16.6	-16.5	-16.6	---	---	32.2	ESE	0.54	33.0	-31.6	---	---	726.9	0.024	0.000	20.6	4	1
03/12/06	10:02 a	-16.6	-16.6	-16.6	---	---	33.0	ESE	0.55	36.5	-31.7	---	---	726.8	0.024	0.000	20.6	4	1
03/12/06	10:03 a	-16.6	-16.5	-16.6	---	---	28.7	E	0.48	35.7	-30.9	---	---	727.0	0.024	0.000	20.7	4	1
03/12/06	10:04 a	-16.6	-16.6	-16.6	---	---	22.6	ESE	0.38	39.1	-29.7	---	---	727.1	0.024	0.000	20.7	4	1
03/12/06	10:05 a	-16.6	-16.6	-16.6	---	---	23.5	E	0.39	29.6	-29.9	---	---	727.0	0.024	0.000	20.7	4	1
03/12/06	10:06 a	-16.6	-16.6	-16.6	---	---	22.6	E	0.38	27.0	-29.7	---	---	727.2	0.024	0.000	20.7	4	1
03/12/06	10:07 a	-16.6	-16.5	-16.6	---	---	22.6	E	0.38	27.8	-29.7	---	---	727.2	0.024	0.000	20.7	4	1
03/12/06	10:08 a	-16.5	-16.5	-16.6	---	---	20.9	E	0.35	26.1	-29.2	---	---	727.2	0.024	0.000	20.7	4	1
03/12/06	10:09 a	-16.6	-16.5	-16.6	---	---	22.6	E	0.38	26.1	-29.7	---	---	727.0	0.024	0.000	20.7	4	1
03/12/06	10:10 a	-16.6	-16.6	-16.6	---	---	24.3	E	0.41	28.7	-30.1	---	---	727.0	0.024	0.000	20.7	4	1
03/12/06	10:11 a	-16.6	-16.6	-16.6	---	---	21.7	E	0.36	30.4	-29.5	---	---	727.0	0.024	0.000	20.7	4	1
03/12/06	10:12 a	-16.6	-16.6	-16.6	---	---	24.3	ENE	0.41	30.4	-30.1	---	---	727.0	0.024	0.000	20.7	4	1
03/12/06	10:13 a	-16.6	-16.6	-16.6	---	---	20.9	NE	0.35	28.7	-29.3	---	---	727.2	0.024	0.000	20.7	4	1
03/12/06	10:14 a	-16.6	-16.6	-16.6	---	---	25.2	E	0.42	28.7	-30.3	---	---	727.1	0.024	0.000	20.7	4	1
03/12/06	10:15 a	-16.6	-16.6	-16.6	---	---	26.1	E	0.43	30.4	-30.4	---	---	727.1	0.024	0.000	20.7	4	1
03/12/06	10:16 a	-16.6	-16.6	-16.6	---	---	26.1	E	0.43	29.6	-30.4	---	---	727.0	0.024	0.000	20.7	4	1
03/12/06	10:17 a	-16.6	-16.6	-16.7	---	---	27.8	E	0.46	36.5	-30.8	---	---	726.9	0.024	0.000	20.7	4	1
03/12/06	10:18 a	-16.6	-16.6	-16.7	---	---	35.7	ESE	0.59	39.1	-32.2	---	---	726.9	0.024	0.000	20.7	4	1
03/12/06	10:19 a	-16.7	-16.6	-16.7	---	---	32.2	ESE	0.54	35.7	-31.7	---	---	726.8	0.024	0.000	20.7	4	1
03/12/06	10:20 a	-16.7	-16.7	-16.7	---	---	22.6	E	0.38	28.7	-29.8	---	---	727.3	0.024	0.000	20.6	4	1
03/12/06	10:21 a	-16.7	-16.7	-16.7	---	---	30.4	E	0.51	38.3	-31.4	---	---	726.8	0.024	0.000	20.6	4	1
03/12/06	10:22 a	-16.7	-16.7	-16.7	---	---	30.4	E	0.51	34.8	-31.5	---	---	726.8	0.024	0.000	20.6	4	1
03/12/06	10:23 a	-16.8	-16.7	-16.8	---	---	27.0	E	0.45	34.8	-30.9	---	---	727.0	0.024	0.000	20.6	4	1
03/12/06	10:24 a	-16.8	-16.8	-16.8	---	---	23.5	E	0.39	34.8	-30.2	---	---	727.2	0.024	0.000	20.6	4	1
03/12/06	10:25 a	-16.8	-16.8	-16.8	---	---	20.0	E	0.33	25.2	-29.4	---	---	727.2	0.024	0.000	20.6	4	1
03/12/06	10:26 a	-16.8	-16.8	-16.9	---	---	19.1	E	0.32	33.9	-29.2	---	---	727.5	0.024	0.000	20.6	4	1
03/12/06	10:27 a	-16.9	-16.8	-16.9	---	---	20.9	E	0.35	28.7	-29.7	---	---	727.2	0.024	0.000	20.6	4	1
03/12/06	10:28 a	-16.9	-16.9	-16.9	---	---	23.5	E	0.39	27.0	-30.4	---	---	727.3	0.024	0.000	20.6	4	1
03/12/06	10:29 a	-16.9	-16.9	-17.0	---	---	22.6	E	0.38	29.6	-30.2	---	---	727.3	0.024	0.000	20.6	4	1
03/12/06	10:30 a	-17.0	-17.0	-17.1	---	---	23.5	E	0.39	29.6	-30.5	---	---	727.4	0.025	0.000	20.6	4	1
03/12/06	10:31 a	-17.0	-17.0	-17.1	---	---	21.7	E	0.36	25.2	-30.1	---	---	727.4	0.025	0.000	20.6	4	1
03/12/06	10:32 a	-17.1	-17.1	-17.1	---	---	19.1	E	0.32	27.0	-29.5	---	---	727.5	0.025	0.000	20.6	4	1
03/12/06	10:33 a	-17.1	-17.1	-17.2	---	---	22.6	E	0.38	27.0	-30.4	---	---	727.5	0.025	0.000	20.6	4	1
03/12/06	10:34 a	-17.2	-17.2	-17.2	---	---	18.3	E	0.30	20.9	-29.4	---	---	727.6	0.025	0.000	20.6	4	1
03/12/06	10:35 a	-17.2	-17.2	-17.3	---	---	20.0	E	0.33	26.1	-29.9	---	---	727.6	0.025	0.000	20.6	4	1
03/12/06	10:36 a	-17.3	-17.2	-17.3	---	---	17.4	E	0.29	21.7	-29.3	---	---	727.6	0.025	0.000	20.6	4	1
03/12/06	10:37 a	-17.3	-17.3	-17.3	---	---	25.2	E	0.42	29.6	-31.2	---	---	727.5	0.025	0.000	20.6	4	1
03/12/06	10:38 a	-17.4	-17.3	-17.4	---	---	21.7	E	0.36	27.8	-30.6	---	---	727.4	0.025	0.000	20.6	4	1
03/12/06	10:39 a	-17.4	-17.3	-17.4	---	---	27.0	E	0.45	31.3	-31.7	---	---	727.6	0.025	0.000	20.6	4	1
03/12/06	10:40 a	-17.4	-17.4	-17.5	---	---	23.5	E	0.39	26.1	-31.1	---	---	727.6	0.025	0.000	20.6	4	1
03/12/06	10:41 a	-17.5	-17.4	-17.5	---	---	27.0	E	0.45	33.0	-31.9	---	---	727.4	0.025	0.000	20.6	4	1
03/12/06	10:42 a	-17.6	-17.5	-17.6	---	---	29.6	ESE	0.49	33.0	-32.5	---	---	727.2	0.025	0.000	20.6	4	1
03/12/06	10:43 a	-17.6	-17.6	-17.6	---	---	31.3	ESE	0.52	33.9	-32.9	---	---	727.2	0.025	0.000	20.6	4	1
03/12/06	10:44 a	-17.7	-17.7	-17.7	---	---	29.6	ESE	0.49	30.4	-32.6	---	---	727.2	0.025	0.000	20.6	4	1
03/12/06	10:45 a	-17.7	-17.7	-17.7	---	---	31.3	ESE	0.52	33.9	-33.1	---	---	727.1	0.025	0.000	20.6	4	1
03/12/06	10:46 a	-17.7	-17.7	-17.8	---	---	33.0	ESE	0.55	35.7	-33.3	---	---	726.9	0.025	0.000	20.6	4	1
03/12/06	10:47 a	-17.8	-17.8	-17.8	---	---	27.8	E	0.46	36.5	-32.4	---	---	727.2	0.025	0.000	20.6	4	1
03/12/06	10:48 a	-17.8	-17.8	-17.9	---	---	33.0	ESE	0.55	35.7	-33.5	---	---	727.0	0.025	0.000	20.6	4	1
03/12/06	10:49 a	-17.9	-17.9	-17.9	---	---	32.2	ESE	0.54	33.9	-33.4	---	---	727.0	0.025	0.000	20.6	4	1
03/12/06	10:50 a	-17.9	-17.9	-18.0	---	---	32.2	ESE	0.54	34.8	-33.5	---	---	727.1	0.025	0.000	20.6	4	1
03/12/06	10:51 a	-18.0	-18.0	-18.1	---	---	31.3	ESE	0.52	33.0	-33.4	---	---	727.2	0.025	0.000	20.6	4	1
03/12/06	10:52 a	-18.1	-18.0	-18.1	---	---	32.2	ESE	0.54	34.8	-33.7	---	---	727.0	0.025	0.000	20.6	4	1
03/12/06	10:53 a	-18.1	-18.1	-18.1	---	---	31.3	ESE	0.52	34.8	-33.6	---	---	726.9	0.025	0.000	20.6	4	1
03/12/06	10:54 a	-18.2	-18.1	-18.2	---	---	33.9	E	0.57	39.1	-34.1	---	---	726.7	0.025	0.000	20.6	4	1
03/12/06	10:55 a	-18.2	-18.2	-18.2	---	---	35.7	ESE	0.59	38.3	-34.4	---	---	726.8	0.025	0.000	20.6	4	1
03/12/06	10:56 a	-18.2	-18.2	-18.2	---	---	32.2	E	0.54	40.0	-33.9	---	---	726.8	0.025	0.000	20.6	4	1
03/12/06	10:57 a	-18.3	-18.2	-18.3	---	---	26.1	E	0.43	33.0	-32.8	---	---	726.8	0.025	0.000	20.6	4	1
03/12/06	10:58 a	-18.3	-18.3	-18.3	---	---	36.5	E	0.61	40.0	-34.8	---	---	726.8	0.025	0.000	20.6	4	1
03/12/06	10:59 a	-18.3	-18.3	-18.3	---	---	30.4	E	0.51	39.1	-33.7	---	---	726.8	0.025	0.000	20.6	4	1
03/12/06	11:00 a	-18.3	-18.3	-18.4	---	---	30.4	E	0.51	36.5	-33.7	---	---	726.8	0.025	0.000	20.6	4	1
03/12/06	11:01 a	-18.4	-18.4	-18.4	---	---	31.3	E	0.52	37.4	-33.9	---	---	726.7	0.026	0.000	20.6	4	1
03/12/06	11:02 a	-18.4	-18.4	-18.4	---	---	29.6	E	0.49	35.7	-33.7	---	---	726.8	0.026	0.000	20.6	4	1
03/12/06	11:03 a	-18.4	-18.4	-18.5	---	---	35.7	ESE	0.59	37.4	-34.8	---	---	726.8	0.026	0.000	20.6	4	1
03/12/06	11:04 a	-18.5	-18.5	-18.6	---	---	33.0	ESE	0.55	34.8	-34.4	---	---	727.2	0.026	0.000	20.6	4	1
03/12/06	11:05 a	-18.6	-18.5	-18.6	---	---	31.3	ESE	0.52	33.9	-34.2	---	---	727.1	0.026	0.000	20.6	4	1
03/12/06	11:06 a	-18.6	-18.5	-18.6	---	---	32.2	ESE	0.54	35.7	-34.3	---	---	726.9	0.026	0.000	20.6	4	1
03/12/06	11:07 a	-18.6	-18.6	-18.7	---	---	33.0	ESE	0.55	35.7	-34.6	---	---	726.9	0.026	0.000	20.6	4	1
03/12/06	11:08 a	-18.7	-18.6	-18.7	---	---	32.2	ESE	0.54	33.9	-34.5	---	---	727.1	0.026	0.000	20.6	4	1
03/12/06	11:09 a	-18.7	-18.6	-18.7	---	---	29.6	ESE	0.49	33.9	-34.0	---	---	727.2	0.026	0.000	20.6	4	1
03/12/06	11:10 a	-18.7	-18.7	-18.7	---	---	25.2	E	0.42	29.6	-33.2	---	---	727.0	0.026	0.000	20.6	4	1
03/12/06	11:11 a	-18.7	-18.7	-18.7	---	---	28.7	E	0.48	33.0	-33.9	---	---	727.1	0.026	0.000	20.6	4	1
03/12/06	11:12 a	-18.8	-18.7	-18.8	---	---	33.9	ESE	0.57	36.5	-34.9	---	---	727.2	0.026	0.000	20.6	4	1
03/12/06	11:13 a	-18.8	-18.8	-18.8	---	---	27.8	E	0.46	33.9	-33.8	---	---	727.1	0.026	0.000	20.6	4	1
03/12/06	11:14 a	-18.8	-18.8	-18.8	---	---	29.6	E	0.49	40.0	-34.2	---	---	727.0	0.026	0.000	20.6	4	1
03/12/06	11:15 a	-18.8	-18.8	-18.8	---	---	27.8	ESE	0.46	33.9	-33.9	---	---	727.5	0.026	0.000	20.6	4	1
03/12/06	11:16 a	-18.8	-18.8	-18.9	---	---	32.2	ESE	0.54	34.8	-34.7	---	---	727.5	0.026	0.000	20.6	4	1
03/12/06	11:17 a	-18.9	-18.9	-18.9	---	---	27.0	ESE	0.45	36.5	-33.8	---	---	727.3	0.026	0.000	20.6	4	1
03/12/06	11:18 a	-18.9	-18.9	-18.9	---	---	28.7	ESE	0.48	35.7	-34.2	---	---	727.5	0.026	0.000	20.6	4	1
03/12/06	11:19 a	-18.9	-18.9	-18.9	---	---	21.7	ESE	0.36	33.9	-32.6	---	---	727.6	0.026	0.000	20.6	4	1
03/12/06	11:20 a	-18.9	-18.9	-18.9	---	---	26.1	E	0.43	33.9	-33.7	---	---	727.6	0.026	0.000	20.6	4	1
03/12/06	11:21 a	-18.9	-18.9	-19.0	---	---	21.7	ESE	0.36	34.8	-32.7	---	---	727.7	0.026	0.000	20.6	4	1
03/12/06	11:22 a	-19.0	-18.9	-19.0	---	---	21.7	ESE	0.36	26.1	-32.7	---	---	727.5	0.026	0.000	20.6	4	1
03/12/06	11:23 a	-19.0	-18.9	-19.0	---	---	30.4	ESE	0.51	38.3	-34.6	---	---	727.3	0.026	0.000	20.6	4	1
03/12/06	11:24 a	-19.0	-18.9	-19.0	---	---	33.0	ESE	0.55	42.6	-35.1	---	---	727.4	0.026	0.000	20.6	4	1
03/12/06	11:25 a	-19.0	-19.0	-19.1	---	---	32.2	ESE	0.54	42.6	-34.9	---	---	727.6	0.026	0.000	20.6	4	1
03/12/06	11:26 a	-19.1	-19.1	-19.1	---	---	30.4	ESE	0.51	35.7	-34.7	---	---	727.4	0.026	0.000	20.5	4	1
03/12/06	11:27 a	-19.1	-19.1	-19.1	---	---	28.7	ESE	0.48	32.2	-34.4	---	---	727.4	0.026	0.000	20.6	4	1
03/12/06	11:28 a	-19.1	-19.1	-19.1	---	---	25.2	ESE	0.42	31.3	-33.7	---	---	727.6	0.026	0.000	20.6	4	1
03/12/06	11:29 a	-19.2	-19.1	-19.2	---	---	24.3	E	0.41	29.6	-33.6	---	---	727.5	0.026	0.000	20.6	4	1
03/12/06	11:30 a	-19.2	-19.2	-19.2	---	---	25.2	E	0.42	29.6	-33.9	---	---	727.5	0.026	0.000	20.5	4	1
03/12/06	11:31 a	-19.2	-19.2	-19.2	---	---	27.0	E	0.45	33.0	-34.2	---	---	727.4	0.026	0.000	20.5	4	1
03/12/06	11:32 a	-19.2	-19.2	-19.3	---	---	24.3	E	0.41	32.2	-33.7	---	---	727.3	0.026	0.000	20.5	4	1
03/12/06	11:33 a	-19.3	-19.2	-19.3	---	---	28.7	E	0.48	39.1	-34.7	---	---	727.3	0.026	0.000	20.5	4	1
03/12/06	11:34 a	-19.3	-19.3	-19.3	---	---	28.7	E	0.48	36.5	-34.7	---	---	727.3	0.026	0.000	20.5	4	1
03/12/06	11:35 a	-19.3	-19.3	-19.3	---	---	32.2	ESE	0.54	40.0	-35.3	---	---	726.8	0.026	0.000	20.5	4	1
03/12/06	11:36 a	-19.3	-19.3	-19.3	---	---	34.8	ESE	0.58	40.0	-35.9	---	---	727.0	0.026	0.000	20.5	4	1
03/12/06	11:37 a	-19.3	-19.3	-19.3	---	---	29.6	ESE	0.49	40.9	-34.9	---	---	727.2	0.026	0.000	20.5	4	1
03/12/06	11:38 a	-19.3	-19.3	-19.3	---	---	28.7	E	0.48	37.4	-34.7	---	---	727.2	0.026	0.000	20.5	4	1
03/12/06	11:39 a	-19.3	-19.3	-19.4	---	---	32.2	ESE	0.54	41.7	-35.4	---	---	726.9	0.026	0.000	20.5	4	1
03/12/06	11:40 a	-19.4	-19.4	-19.4	---	---	33.9	ESE	0.57	40.9	-35.8	---	---	727.1	0.026	0.000	20.5	4	1
03/12/06	11:41 a	-19.4	-19.4	-19.4	---	---	33.0	ESE	0.55	35.7	-35.7	---	---	727.2	0.026	0.000	20.4	4	1
03/12/06	11:42 a	-19.4	-19.4	-19.4	---	---	30.4	ESE	0.51	36.5	-35.2	---	---	727.1	0.026	0.000	20.4	4	1
03/12/06	11:43 a	-19.4	-19.4	-19.4	---	---	29.6	ESE	0.49	35.7	-35.1	---	---	727.0	0.026	0.000	20.4	4	1
03/12/06	11:44 a	-19.4	-19.4	-19.4	---	---	33.0	ESE	0.55	40.9	-35.7	---	---	726.8	0.026	0.000	20.4	4	1
03/12/06	11:45 a	-19.4	-19.4	-19.4	---	---	26.1	E	0.43	33.0	-34.3	---	---	727.2	0.026	0.000	20.4	4	1
03/12/06	11:46 a	-19.4	-19.4	-19.4	---	---	29.6	SE	0.49	33.0	-35.1	---	---	727.2	0.026	0.000	20.4	4	1
03/12/06	11:47 a	-19.4	-19.4	-19.4	---	---	27.8	ESE	0.46	33.0	-34.7	---	---	727.5	0.026	0.000	20.5	4	1
03/12/06	11:48 a	-19.4	-19.4	-19.5	---	---	28.7	ESE	0.48	37.4	-34.9	---	---	727.2	0.026	0.000	20.4	4	1
03/12/06	11:49 a	-19.4	-19.4	-19.5	---	---	24.3	ESE	0.41	32.2	-33.9	---	---	727.6	0.026	0.000	20.5	4	1
03/12/06	11:50 a	-19.5	-19.5	-19.5	---	---	25.2	ESE	0.42	30.4	-34.2	---	---	727.4	0.026	0.000	20.5	4	1
03/12/06	11:51 a	-19.5	-19.5	-19.5	---	---	21.7	ESE	0.36	27.8	-33.4	---	---	727.6	0.026	0.000	20.5	4	1
03/12/06	11:52 a	-19.5	-19.5	-19.5	---	---	27.0	ESE	0.45	34.8	-34.6	---	---	727.4	0.026	0.000	20.5	4	1
03/12/06	11:53 a	-19.5	-19.5	-19.5	---	---	24.3	E	0.41	31.3	-34.1	---	---	727.4	0.026	0.000	20.5	3	1
03/12/06	11:54 a	-19.5	-19.5	-19.5	---	---	24.3	E	0.41	31.3	-34.1	---	---	727.3	0.026	0.000	20.5	3	1
03/12/06	11:55 a	-19.5	-19.5	-19.5	---	---	22.6	ESE	0.38	31.3	-33.6	---	---	727.5	0.026	0.000	20.5	3	1
03/12/06	11:56 a	-19.5	-19.5	-19.5	---	---	31.3	ESE	0.52	38.3	-35.5	---	---	727.3	0.026	0.000	20.5	4	1
03/12/06	11:57 a	-19.5	-19.5	-19.5	---	---	30.4	E	0.51	44.3	-35.3	---	---	727.4	0.026	0.000	20.5	4	1
03/12/06	11:58 a	-19.5	-19.5	-19.5	---	---	25.2	E	0.42	27.8	-34.2	---	---	727.5	0.026	0.000	20.5	4	1
03/12/06	11:59 a	-19.5	-19.5	-19.5	---	---	27.8	E	0.46	33.9	-34.8	---	---	727.4	0.026	0.000	20.5	4	1
03/12/06	12:00 p	-19.5	-19.5	-19.5	---	---	27.0	E	0.45	31.3	-34.6	---	---	727.5	0.026	0.000	20.5	4	1
03/12/06	12:01 p	-19.5	-19.5	-19.5	---	---	25.2	E	0.42	30.4	-34.2	---	---	727.6	0.026	0.000	20.5	4	1
03/12/06	12:02 p	-19.5	-19.5	-19.6	---	---	23.5	E	0.39	29.6	-33.8	---	---	727.4	0.026	0.000	20.5	3	1
03/12/06	12:03 p	-19.6	-19.6	-19.6	---	---	26.1	ESE	0.43	31.3	-34.5	---	---	727.6	0.026	0.000	20.5	3	1
03/12/06	12:04 p	-19.6	-19.5	-19.6	---	---	24.3	E	0.41	28.7	-34.1	---	---	727.5	0.026	0.000	20.5	4	1
03/12/06	12:05 p	-19.6	-19.5	-19.6	---	---	25.2	E	0.42	37.4	-34.3	---	---	727.5	0.026	0.000	20.5	3	1
03/12/06	12:06 p	-19.6	-19.6	-19.6	---	---	25.2	E	0.42	28.7	-34.3	---	---	727.5	0.026	0.000	20.5	4	1
03/12/06	12:07 p	-19.6	-19.6	-19.6	---	---	27.8	E	0.46	33.0	-34.9	---	---	727.6	0.026	0.000	20.5	3	1
03/12/06	12:08 p	-19.6	-19.6	-19.6	---	---	23.5	E	0.39	28.7	-34.0	---	---	727.5	0.026	0.000	20.5	4	1
03/12/06	12:09 p	-19.6	-19.6	-19.6	---	---	28.7	E	0.48	34.8	-35.1	---	---	727.3	0.026	0.000	20.5	3	1
03/12/06	12:10 p	-19.6	-19.6	-19.6	---	---	27.0	E	0.45	32.2	-34.8	---	---	727.4	0.026	0.000	20.5	4	1
03/12/06	12:11 p	-19.7	-19.6	-19.7	---	---	26.1	E	0.43	33.9	-34.7	---	---	727.3	0.026	0.000	20.5	3	1
03/12/06	12:12 p	-19.7	-19.6	-19.7	---	---	28.7	ESE	0.48	32.2	-35.2	---	---	727.3	0.026	0.000	20.5	4	1
03/12/06	12:13 p	-19.7	-19.6	-19.7	---	---	33.0	E	0.55	40.0	-36.1	---	---	727.5	0.026	0.000	20.5	4	1
03/12/06	12:14 p	-19.7	-19.7	-19.7	---	---	29.6	E	0.49	35.7	-35.4	---	---	727.2	0.026	0.000	20.5	3	1
03/12/06	12:15 p	-19.7	-19.7	-19.7	---	---	32.2	E	0.54	38.3	-35.9	---	---	727.3	0.026	0.000	20.5	4	1
03/12/06	12:16 p	-19.8	-19.7	-19.8	---	---	32.2	E	0.54	34.8	-36.0	---	---	727.5	0.026	0.000	20.4	4	1
03/12/06	12:17 p	-19.8	-19.8	-19.8	---	---	32.2	ESE	0.54	39.1	-36.0	---	---	727.3	0.026	0.000	20.4	4	1
03/12/06	12:18 p	-19.8	-19.8	-19.8	---	---	30.4	E	0.51	33.9	-35.7	---	---	727.3	0.026	0.000	20.4	3	1
03/12/06	12:19 p	-19.8	-19.8	-19.8	---	---	32.2	E	0.54	42.6	-36.1	---	---	727.4	0.027	0.000	20.4	4	1
03/12/06	12:20 p	-19.8	-19.8	-19.9	---	---	33.0	ESE	0.55	37.4	-36.3	---	---	727.4	0.027	0.000	20.4	3	1
03/12/06	12:21 p	-19.9	-19.9	-19.9	---	---	32.2	E	0.54	38.3	-36.2	---	---	727.3	0.027	0.000	20.4	4	1
03/12/06	12:22 p	-19.9	-19.9	-19.9	---	---	36.5	ESE	0.61	41.7	-36.9	---	---	727.3	0.027	0.000	20.4	3	1
03/12/06	12:23 p	-19.9	-19.9	-19.9	---	---	33.9	E	0.57	40.0	-36.6	---	---	727.4	0.027	0.000	20.4	4	1
03/12/06	12:24 p	-19.9	-19.9	-19.9	---	---	35.7	ESE	0.59	39.1	-36.9	---	---	727.6	0.027	0.000	20.4	3	1
03/12/06	12:25 p	-20.0	-20.0	-20.0	---	---	36.5	ESE	0.61	40.9	-37.1	---	---	727.4	0.027	0.000	20.4	3	1
03/12/06	12:26 p	-20.1	-20.0	-20.1	---	---	33.9	E	0.57	41.7	-36.7	---	---	727.6	0.027	0.000	20.4	4	1
03/12/06	12:27 p	-20.1	-20.1	-20.1	---	---	32.2	E	0.54	36.5	-36.4	---	---	727.3	0.027	0.000	20.4	3	1
03/12/06	12:28 p	-20.1	-20.1	-20.1	---	---	29.6	E	0.49	32.2	-36.0	---	---	727.3	0.027	0.000	20.4	3	1
03/12/06	12:29 p	-20.1	-20.1	-20.2	---	---	37.4	E	0.62	43.5	-37.4	---	---	727.2	0.027	0.000	20.4	3	1
03/12/06	12:30 p	-20.2	-20.2	-20.2	---	---	36.5	E	0.61	40.9	-37.3	---	---	727.3	0.027	0.000	20.4	3	1
03/12/06	12:31 p	-20.2	-20.2	-20.2	---	---	32.2	E	0.54	35.7	-36.6	---	---	727.3	0.027	0.000	20.4	3	1
03/12/06	12:32 p	-20.2	-20.2	-20.2	---	---	31.3	E	0.52	36.5	-36.5	---	---	727.3	0.027	0.000	20.4	3	1
03/12/06	12:33 p	-20.2	-20.2	-20.3	---	---	33.9	E	0.57	38.3	-36.9	---	---	727.5	0.027	0.000	20.4	3	1
03/12/06	12:34 p	-20.3	-20.3	-20.3	---	---	29.6	E	0.49	33.9	-36.2	---	---	727.4	0.027	0.000	20.4	3	1
03/12/06	12:35 p	-20.3	-20.3	-20.3	---	---	35.7	E	0.59	39.1	-37.4	---	---	727.4	0.027	0.000	20.4	3	1
03/12/06	12:36 p	-20.4	-20.3	-20.4	---	---	33.9	ESE	0.57	39.1	-37.2	---	---	727.3	0.027	0.000	20.4	3	1
03/12/06	12:37 p	-20.4	-20.4	-20.4	---	---	33.0	E	0.55	38.3	-37.1	---	---	727.4	0.027	0.000	20.4	4	1
03/12/06	12:38 p	-20.4	-20.4	-20.4	---	---	32.2	E	0.54	36.5	-36.9	---	---	727.3	0.027	0.000	20.4	4	1
03/12/06	12:39 p	-20.4	-20.4	-20.4	---	---	32.2	E	0.54	36.5	-36.9	---	---	727.5	0.027	0.000	20.4	3	1
03/12/06	12:40 p	-20.5	-20.4	-20.5	---	---	31.3	E	0.52	36.5	-36.9	---	---	727.4	0.027	0.000	20.4	3	1
03/12/06	12:41 p	-20.6	-20.5	-20.6	---	---	32.2	E	0.54	38.3	-37.1	---	---	727.4	0.027	0.000	20.4	3	1
03/12/06	12:42 p	-20.6	-20.6	-20.6	---	---	34.8	E	0.58	39.1	-37.6	---	---	727.4	0.027	0.000	20.4	3	1
03/12/06	12:43 p	-20.6	-20.6	-20.6	---	---	30.4	E	0.51	36.5	-36.8	---	---	727.6	0.027	0.000	20.4	3	1
03/12/06	12:44 p	-20.6	-20.6	-20.7	---	---	31.3	E	0.52	38.3	-37.0	---	---	727.5	0.027	0.000	20.4	3	1
03/12/06	12:45 p	-20.7	-20.7	-20.7	---	---	34.8	E	0.58	38.3	-37.7	---	---	727.7	0.027	0.000	20.4	3	1
03/12/06	12:46 p	-20.7	-20.7	-20.7	---	---	30.4	E	0.51	35.7	-36.9	---	---	727.6	0.027	0.000	20.4	3	1
03/12/06	12:47 p	-20.7	-20.7	-20.8	---	---	30.4	E	0.51	33.0	-37.0	---	---	727.6	0.027	0.000	20.4	4	1
03/12/06	12:48 p	-20.8	-20.8	-20.8	---	---	32.2	E	0.54	37.4	-37.4	---	---	727.6	0.027	0.000	20.4	3	1
03/12/06	12:49 p	-20.8	-20.8	-20.8	---	---	29.6	E	0.49	34.8	-37.0	---	---	727.6	0.027	0.000	20.4	3	1
03/12/06	12:50 p	-20.8	-20.8	-20.9	---	---	34.8	E	0.58	39.1	-37.9	---	---	727.5	0.027	0.000	20.4	3	1
03/12/06	12:51 p	-20.8	-20.8	-20.9	---	---	32.2	ESE	0.54	39.1	-37.5	---	---	727.4	0.027	0.000	20.4	3	1
03/12/06	12:52 p	-20.9	-20.9	-20.9	---	---	33.0	E	0.55	38.3	-37.7	---	---	727.5	0.027	0.000	20.4	3	1
03/12/06	12:53 p	-20.9	-20.9	-20.9	---	---	31.3	E	0.52	35.7	-37.5	---	---	727.4	0.027	0.000	20.4	3	1
03/12/06	12:54 p	-20.9	-20.9	-21.0	---	---	32.2	E	0.54	40.9	-37.7	---	---	727.5	0.027	0.000	20.4	3	1
03/12/06	12:55 p	-21.0	-20.9	-21.0	---	---	32.2	E	0.54	35.7	-37.7	---	---	727.5	0.027	0.000	20.4	3	1
03/12/06	12:56 p	-21.0	-21.0	-21.1	---	---	34.8	E	0.58	40.9	-38.2	---	---	727.6	0.027	0.000	20.4	3	1
03/12/06	12:57 p	-21.1	-21.1	-21.1	---	---	32.2	E	0.54	39.1	-37.8	---	---	727.6	0.027	0.000	20.4	3	1
03/12/06	12:58 p	-21.1	-21.1	-21.1	---	---	33.9	E	0.57	38.3	-38.1	---	---	727.6	0.027	0.000	20.4	3	1
03/12/06	12:59 p	-21.1	-21.1	-21.1	---	---	36.5	E	0.61	40.0	-38.6	---	---	727.7	0.027	0.000	20.4	3	1
03/12/06	1:00 p	-21.1	-21.1	-21.1	---	---	33.9	E	0.57	37.4	-38.2	---	---	727.6	0.027	0.000	20.4	3	1
03/12/06	1:01 p	-21.2	-21.1	-21.2	---	---	35.7	ESE	0.59	40.0	-38.6	---	---	727.6	0.027	0.000	20.4	3	1
03/12/06	1:02 p	-21.2	-21.2	-21.2	---	---	34.8	E	0.58	39.1	-38.4	---	---	727.7	0.027	0.000	20.4	3	1
03/12/06	1:03 p	-21.2	-21.2	-21.2	---	---	32.2	E	0.54	34.8	-37.9	---	---	727.7	0.027	0.000	20.4	3	1
03/12/06	1:04 p	-21.2	-21.2	-21.2	---	---	33.9	E	0.57	37.4	-38.3	---	---	727.6	0.027	0.000	20.3	3	1
03/12/06	1:05 p	-21.2	-21.2	-21.2	---	---	33.9	E	0.57	40.0	-38.3	---	---	727.7	0.027	0.000	20.3	3	1
03/12/06	1:06 p	-21.2	-21.2	-21.3	---	---	33.0	E	0.55	38.3	-38.2	---	---	727.8	0.027	0.000	20.3	3	1
03/12/06	1:07 p	-21.2	-21.2	-21.3	---	---	31.3	E	0.52	38.3	-37.8	---	---	727.8	0.027	0.000	20.3	3	1
03/12/06	1:08 p	-21.3	-21.3	-21.3	---	---	33.0	E	0.55	40.0	-38.3	---	---	727.8	0.028	0.000	20.3	3	1
03/12/06	1:09 p	-21.3	-21.3	-21.3	---	---	33.0	E	0.55	38.3	-38.3	---	---	727.8	0.028	0.000	20.3	3	1
03/12/06	1:10 p	-21.3	-21.3	-21.3	---	---	30.4	E	0.51	34.8	-37.8	---	---	727.9	0.028	0.000	20.3	3	1
03/12/06	1:11 p	-21.3	-21.3	-21.4	---	---	31.3	E	0.52	36.5	-38.0	---	---	727.9	0.028	0.000	20.3	3	1
03/12/06	1:12 p	-21.3	-21.3	-21.3	---	---	31.3	E	0.52	35.7	-38.0	---	---	727.9	0.028	0.000	20.3	3	1
03/12/06	1:13 p	-21.3	-21.3	-21.4	---	---	32.2	E	0.54	36.5	-38.2	---	---	728.0	0.028	0.000	20.3	3	1
03/12/06	1:14 p	-21.4	-21.4	-21.4	---	---	30.4	E	0.51	34.8	-37.9	---	---	728.0	0.028	0.000	20.3	3	1
03/12/06	1:15 p	-21.4	-21.3	-21.4	---	---	32.2	ESE	0.54	37.4	-38.3	---	---	728.0	0.028	0.000	20.3	3	1
03/12/06	1:16 p	-21.4	-21.4	-21.4	---	---	33.0	E	0.55	36.5	-38.4	---	---	728.2	0.028	0.000	20.3	3	1
03/12/06	1:17 p	-21.4	-21.4	-21.5	---	---	33.0	E	0.55	37.4	-38.5	---	---	728.1	0.028	0.000	20.3	3	1
03/12/06	1:18 p	-21.4	-21.4	-21.4	---	---	30.4	E	0.51	35.7	-38.0	---	---	728.1	0.028	0.000	20.3	3	1
03/12/06	1:19 p	-21.4	-21.4	-21.4	---	---	32.2	E	0.54	34.8	-38.3	---	---	728.2	0.028	0.000	20.4	3	1
03/12/06	1:20 p	-21.4	-21.4	-21.5	---	---	30.4	E	0.51	34.8	-38.0	---	---	728.1	0.028	0.000	20.4	3	1
03/12/06	1:21 p	-21.5	-21.5	-21.5	---	---	30.4	E	0.51	33.9	-38.1	---	---	728.3	0.028	0.000	20.3	3	1
03/12/06	1:22 p	-21.6	-21.5	-21.6	---	---	27.8	E	0.46	33.0	-37.6	---	---	728.3	0.028	0.000	20.3	3	1
03/12/06	1:23 p	-21.6	-21.5	-21.6	---	---	28.7	E	0.48	31.3	-37.8	---	---	728.2	0.028	0.000	20.4	3	1
03/12/06	1:24 p	-21.6	-21.6	-21.6	---	---	28.7	E	0.48	33.0	-37.9	---	---	728.2	0.028	0.000	20.4	3	1
03/12/06	1:25 p	-21.6	-21.6	-21.7	---	---	31.3	E	0.52	34.8	-38.4	---	---	728.2	0.028	0.000	20.3	3	1
03/12/06	1:26 p	-21.6	-21.6	-21.7	---	---	29.6	E	0.49	34.8	-38.1	---	---	728.2	0.028	0.000	20.4	3	1
03/12/06	1:27 p	-21.6	-21.6	-21.7	---	---	29.6	E	0.49	34.8	-38.1	---	---	728.2	0.028	0.000	20.4	3	1
03/12/06	1:28 p	-21.7	-21.6	-21.7	---	---	31.3	E	0.52	39.1	-38.4	---	---	728.0	0.028	0.000	20.4	3	1
03/12/06	1:29 p	-21.7	-21.7	-21.7	---	---	29.6	E	0.49	35.7	-38.1	---	---	728.3	0.028	0.000	20.4	3	1
03/12/06	1:30 p	-21.7	-21.7	-21.7	---	---	28.7	E	0.48	33.0	-37.9	---	---	728.3	0.028	0.000	20.4	3	1
03/12/06	1:31 p	-21.7	-21.7	-21.7	---	---	31.3	E	0.52	33.9	-38.4	---	---	728.3	0.028	0.000	20.4	3	1
03/12/06	1:32 p	-21.7	-21.7	-21.7	---	---	31.3	E	0.52	34.8	-38.6	---	---	728.3	0.028	0.000	20.4	3	1
03/12/06	1:33 p	-21.7	-21.7	-21.7	---	---	30.4	E	0.51	37.4	-38.4	---	---	728.3	0.028	0.000	20.4	3	1
03/12/06	1:34 p	-21.7	-21.7	-21.7	---	---	32.2	E	0.54	39.1	-38.7	---	---	728.3	0.028	0.000	20.4	3	1
03/12/06	1:35 p	-21.7	-21.7	-21.8	---	---	28.7	E	0.48	33.9	-38.0	---	---	728.4	0.028	0.000	20.4	3	1
03/12/06	1:36 p	-21.8	-21.8	-21.8	---	---	28.7	E	0.48	32.2	-38.1	---	---	728.3	0.028	0.000	20.4	3	1
03/12/06	1:37 p	-21.8	-21.8	-21.8	---	---	28.7	E	0.48	34.8	-38.2	---	---	728.3	0.028	0.000	20.4	3	1
03/12/06	1:38 p	-21.8	-21.8	-21.8	---	---	30.4	E	0.51	36.5	-38.4	---	---	728.4	0.028	0.000	20.4	3	1
03/12/06	1:39 p	-21.8	-21.8	-21.8	---	---	30.4	E	0.51	35.7	-38.6	---	---	728.3	0.028	0.000	20.4	3	1
03/12/06	1:40 p	-21.8	-21.8	-21.9	---	---	33.0	E	0.55	40.9	-39.1	---	---	728.5	0.028	0.000	20.4	3	1
03/12/06	1:41 p	-21.8	-21.8	-21.8	---	---	33.0	E	0.55	37.4	-39.1	---	---	728.4	0.028	0.000	20.4	3	1
03/12/06	1:42 p	-21.8	-21.8	-21.9	---	---	28.7	E	0.48	35.7	-38.2	---	---	728.6	0.028	0.000	20.4	3	1
03/12/06	1:43 p	-21.9	-21.9	-21.9	---	---	29.6	E	0.49	35.7	-38.4	---	---	728.5	0.028	0.000	20.4	3	1
03/12/06	1:44 p	-21.9	-21.8	-21.9	---	---	30.4	E	0.51	34.8	-38.6	---	---	728.5	0.028	0.000	20.4	3	1
03/12/06	1:45 p	-21.9	-21.9	-21.9	---	---	27.0	E	0.45	35.7	-37.9	---	---	728.8	0.028	0.000	20.4	3	1
03/12/06	1:46 p	-21.9	-21.9	-21.9	---	---	25.2	ESE	0.42	32.2	-37.6	---	---	728.7	0.028	0.000	20.4	3	1
03/12/06	1:47 p	-21.9	-21.9	-21.9	---	---	23.5	E	0.39	28.7	-37.1	---	---	728.5	0.028	0.000	20.4	3	1
03/12/06	1:48 p	-21.9	-21.9	-21.9	---	---	27.0	ESE	0.45	35.7	-37.9	---	---	728.9	0.028	0.000	20.4	3	1
03/12/06	1:49 p	-21.9	-21.9	-21.9	---	---	26.1	E	0.43	33.9	-37.8	---	---	728.8	0.028	0.000	20.4	3	1
03/12/06	1:50 p	-21.9	-21.9	-21.9	---	---	23.5	E	0.39	27.8	-37.1	---	---	728.8	0.028	0.000	20.4	3	1
03/12/06	1:51 p	-21.9	-21.9	-21.9	---	---	22.6	E	0.38	30.4	-36.8	---	---	728.7	0.028	0.000	20.4	3	1
03/12/06	1:52 p	-21.9	-21.9	-21.9	---	---	25.2	E	0.42	33.0	-37.5	---	---	728.7	0.028	0.000	20.4	3	1
03/12/06	1:53 p	-21.9	-21.9	-21.9	---	---	22.6	E	0.38	30.4	-36.8	---	---	728.8	0.028	0.000	20.4	3	1
03/12/06	1:54 p	-21.9	-21.9	-21.9	---	---	23.5	E	0.39	33.0	-37.1	---	---	728.7	0.028	0.000	20.4	3	1
03/12/06	1:55 p	-21.9	-21.9	-21.9	---	---	25.2	E	0.42	31.3	-37.5	---	---	728.6	0.028	0.000	20.4	3	1
03/12/06	1:56 p	-21.9	-21.9	-21.9	---	---	25.2	E	0.42	34.8	-37.5	---	---	728.6	0.028	0.000	20.4	3	1
03/12/06	1:57 p	-21.9	-21.8	-21.9	---	---	24.3	E	0.41	30.4	-37.3	---	---	728.6	0.028	0.000	20.4	3	1
03/12/06	1:58 p	-21.8	-21.8	-21.9	---	---	25.2	E	0.42	32.2	-37.4	---	---	728.5	0.028	0.000	20.4	3	1
03/12/06	1:59 p	-21.9	-21.8	-21.9	---	---	27.8	E	0.46	43.5	-38.1	---	---	728.5	0.028	0.000	20.4	3	1
03/12/06	2:00 p	-21.9	-21.8	-21.9	---	---	27.8	E	0.46	37.4	-38.1	---	---	728.4	0.028	0.000	20.3	3	1
03/12/06	2:01 p	-21.8	-21.8	-21.9	---	---	31.3	E	0.52	39.1	-38.7	---	---	728.0	0.028	0.000	20.3	3	1
03/12/06	2:02 p	-21.8	-21.8	-21.8	---	---	30.4	E	0.51	33.9	-38.6	---	---	728.3	0.028	0.000	20.3	3	1
03/12/06	2:03 p	-21.8	-21.8	-21.8	---	---	30.4	E	0.51	37.4	-38.6	---	---	728.2	0.028	0.000	20.3	3	1
03/12/06	2:04 p	-21.8	-21.8	-21.8	---	---	26.1	ESE	0.43	40.0	-37.6	---	---	728.2	0.028	0.000	20.3	3	1
03/12/06	2:05 p	-21.8	-21.7	-21.8	---	---	28.7	E	0.48	33.9	-38.1	---	---	728.4	0.028	0.000	20.3	3	1
03/12/06	2:06 p	-21.7	-21.7	-21.7	---	---	29.6	E	0.49	33.9	-38.2	---	---	728.2	0.028	0.000	20.3	3	1
03/12/06	2:07 p	-21.7	-21.7	-21.8	---	---	28.7	E	0.48	33.9	-38.0	---	---	728.3	0.028	0.000	20.3	3	1
03/12/06	2:08 p	-21.7	-21.7	-21.8	---	---	28.7	E	0.48	35.7	-38.0	---	---	728.3	0.028	0.000	20.3	3	1
03/12/06	2:09 p	-21.7	-21.7	-21.8	---	---	32.2	E	0.54	36.5	-38.7	---	---	728.1	0.028	0.000	20.3	3	1
03/12/06	2:10 p	-21.7	-21.7	-21.8	---	---	32.2	ESE	0.54	35.7	-38.7	---	---	728.3	0.028	0.000	20.3	3	1
03/12/06	2:11 p	-21.7	-21.7	-21.7	---	---	27.8	E	0.46	33.9	-37.8	---	---	728.3	0.028	0.000	20.3	3	1
03/12/06	2:12 p	-21.7	-21.7	-21.7	---	---	29.6	E	0.49	37.4	-38.1	---	---	728.2	0.028	0.000	20.3	3	1
03/12/06	2:13 p	-21.7	-21.7	-21.7	---	---	28.7	E	0.48	33.0	-37.9	---	---	728.4	0.028	0.000	20.3	3	1
03/12/06	2:14 p	-21.7	-21.6	-21.7	---	---	28.7	E	0.48	32.2	-37.9	---	---	728.3	0.028	0.000	20.3	3	1
03/12/06	2:15 p	-21.6	-21.6	-21.7	---	---	30.4	ESE	0.51	36.5	-38.2	---	---	728.3	0.028	0.000	20.3	3	1
03/12/06	2:16 p	-21.6	-21.6	-21.7	---	---	30.4	ESE	0.51	32.2	-38.2	---	---	728.3	0.028	0.000	20.2	3	1
03/12/06	2:17 p	-21.6	-21.6	-21.6	---	---	30.4	E	0.51	43.5	-38.2	---	---	728.1	0.028	0.000	20.2	3	1
03/12/06	2:18 p	-21.6	-21.6	-21.6	---	---	27.8	E	0.46	35.7	-37.7	---	---	728.3	0.028	0.000	20.2	3	1
03/12/06	2:19 p	-21.6	-21.5	-21.6	---	---	32.2	ESE	0.54	37.4	-38.5	---	---	728.1	0.028	0.000	20.2	3	1
03/12/06	2:20 p	-21.6	-21.6	-21.6	---	---	33.9	ESE	0.57	38.3	-38.8	---	---	728.1	0.028	0.000	20.2	3	1
03/12/06	2:21 p	-21.6	-21.5	-21.6	---	---	33.9	ESE	0.57	36.5	-38.8	---	---	728.1	0.028	0.000	20.2	3	1
03/12/06	2:22 p	-21.5	-21.5	-21.5	---	---	33.0	ESE	0.55	35.7	-38.6	---	---	728.2	0.028	0.000	20.2	3	1
03/12/06	2:23 p	-21.5	-21.4	-21.5	---	---	30.4	ESE	0.51	36.5	-38.1	---	---	728.2	0.028	0.000	20.2	3	1
03/12/06	2:24 p	-21.5	-21.4	-21.5	---	---	31.3	ESE	0.52	34.8	-38.2	---	---	728.0	0.028	0.000	20.2	3	1
03/12/06	2:25 p	-21.4	-21.4	-21.4	---	---	33.0	ESE	0.55	34.8	-38.5	---	---	728.2	0.028	0.000	20.2	3	1
03/12/06	2:26 p	-21.4	-21.4	-21.4	---	---	33.0	ESE	0.55	38.3	-38.5	---	---	728.1	0.028	0.000	20.2	3	1
03/12/06	2:27 p	-21.4	-21.4	-21.4	---	---	31.3	ESE	0.52	33.9	-38.2	---	---	728.3	0.028	0.000	20.2	3	1
03/12/06	2:28 p	-21.4	-21.4	-21.4	---	---	32.2	ESE	0.54	34.8	-38.3	---	---	728.3	0.028	0.000	20.2	3	1
03/12/06	2:29 p	-21.4	-21.4	-21.4	---	---	33.0	ESE	0.55	36.5	-38.4	---	---	728.1	0.028	0.000	20.2	3	1
03/12/06	2:30 p	-21.4	-21.4	-21.4	---	---	30.4	ESE	0.51	33.9	-37.9	---	---	728.3	0.028	0.000	20.2	3	1
03/12/06	2:31 p	-21.4	-21.3	-21.4	---	---	32.2	ESE	0.54	36.5	-38.3	---	---	728.2	0.028	0.000	20.2	3	1
03/12/06	2:32 p	-21.4	-21.3	-21.4	---	---	31.3	ESE	0.52	40.9	-38.1	---	---	728.2	0.028	0.000	20.2	3	1
03/12/06	2:33 p	-21.4	-21.3	-21.4	---	---	30.4	ESE	0.51	38.3	-37.9	---	---	728.2	0.028	0.000	20.2	3	1
03/12/06	2:34 p	-21.3	-21.3	-21.4	---	---	33.0	ESE	0.55	39.1	-38.3	---	---	728.2	0.028	0.000	20.2	3	1
03/12/06	2:35 p	-21.3	-21.3	-21.4	---	---	33.9	ESE	0.57	39.1	-38.5	---	---	728.2	0.028	0.000	20.2	3	1
03/12/06	2:36 p	-21.3	-21.3	-21.4	---	---	30.4	ESE	0.51	39.1	-37.8	---	---	728.1	0.028	0.000	20.2	3	1
03/12/06	2:37 p	-21.3	-21.3	-21.3	---	---	30.4	ESE	0.51	35.7	-37.8	---	---	728.0	0.028	0.000	20.2	3	1
03/12/06	2:38 p	-21.3	-21.3	-21.3	---	---	33.9	ESE	0.57	38.3	-38.5	---	---	728.0	0.028	0.000	20.2	3	1
03/12/06	2:39 p	-21.3	-21.3	-21.3	---	---	31.3	ESE	0.52	35.7	-37.9	---	---	728.0	0.028	0.000	20.2	3	1
03/12/06	2:40 p	-21.3	-21.3	-21.3	---	---	31.3	ESE	0.52	36.5	-37.9	---	---	728.1	0.028	0.000	20.2	3	1
03/12/06	2:41 p	-21.3	-21.2	-21.3	---	---	33.0	ESE	0.55	37.4	-38.3	---	---	728.0	0.028	0.000	20.2	3	1
03/12/06	2:42 p	-21.2	-21.2	-21.3	---	---	33.9	SE	0.57	40.0	-38.3	---	---	728.0	0.027	0.000	20.2	3	1
03/12/06	2:43 p	-21.2	-21.2	-21.2	---	---	38.3	ESE	0.64	42.6	-39.1	---	---	727.8	0.027	0.000	20.2	3	1
03/12/06	2:44 p	-21.2	-21.2	-21.2	---	---	35.7	ESE	0.59	42.6	-38.6	---	---	728.1	0.027	0.000	20.1	3	1
03/12/06	2:45 p	-21.2	-21.2	-21.2	---	---	32.2	ESE	0.54	34.8	-37.9	---	---	728.1	0.027	0.000	20.1	3	1
03/12/06	2:46 p	-21.1	-21.1	-21.2	---	---	31.3	ESE	0.52	34.8	-37.7	---	---	728.2	0.027	0.000	20.1	3	1
03/12/06	2:47 p	-21.2	-21.1	-21.2	---	---	32.2	ESE	0.54	39.1	-37.9	---	---	727.9	0.027	0.000	20.1	3	1
03/12/06	2:48 p	-21.2	-21.1	-21.2	---	---	31.3	ESE	0.52	37.4	-37.8	---	---	728.0	0.027	0.000	20.1	3	1
03/12/06	2:49 p	-21.2	-21.1	-21.2	---	---	33.0	ESE	0.55	35.7	-38.1	---	---	727.8	0.027	0.000	20.1	3	1
03/12/06	2:50 p	-21.2	-21.2	-21.2	---	---	34.8	ESE	0.58	39.1	-38.4	---	---	727.6	0.027	0.000	20.1	3	1
03/12/06	2:51 p	-21.2	-21.2	-21.2	---	---	33.9	E	0.57	40.0	-38.3	---	---	727.4	0.027	0.000	20.1	3	1
03/12/06	2:52 p	-21.2	-21.2	-21.2	---	---	35.7	E	0.59	40.9	-38.6	---	---	727.5	0.027	0.000	20.1	3	1
03/12/06	2:53 p	-21.2	-21.2	-21.2	---	---	36.5	E	0.61	42.6	-38.7	---	---	727.5	0.027	0.000	20.1	3	1
03/12/06	2:54 p	-21.2	-21.2	-21.2	---	---	34.8	E	0.58	39.1	-38.4	---	---	727.6	0.027	0.000	20.1	3	1
03/12/06	2:55 p	-21.2	-21.2	-21.2	---	---	32.2	E	0.54	35.7	-37.9	---	---	727.6	0.027	0.000	20.1	3	1
03/12/06	2:56 p	-21.2	-21.2	-21.2	---	---	28.7	E	0.48	34.8	-37.3	---	---	727.6	0.027	0.000	20.1	3	1
03/12/06	2:57 p	-21.2	-21.2	-21.2	---	---	33.0	E	0.55	37.4	-38.2	---	---	727.8	0.027	0.000	20.1	3	1
03/12/06	2:58 p	-21.2	-21.2	-21.2	---	---	33.9	E	0.57	37.4	-38.3	---	---	727.6	0.027	0.000	20.1	3	1
03/12/06	2:59 p	-21.2	-21.2	-21.2	---	---	35.7	E	0.59	43.5	-38.7	---	---	727.5	0.027	0.000	20.1	3	1
03/12/06	3:00 p	-21.2	-21.2	-21.3	---	---	35.7	ESE	0.59	40.0	-38.7	---	---	727.7	0.027	0.000	20.1	3	1
03/12/06	3:01 p	-21.2	-21.2	-21.2	---	---	31.3	E	0.52	36.5	-37.8	---	---	727.7	0.027	0.000	20.1	3	1
03/12/06	3:02 p	-21.2	-21.2	-21.2	---	---	30.4	E	0.51	35.7	-37.7	---	---	727.7	0.027	0.000	20.0	3	1
03/12/06	3:03 p	-21.2	-21.2	-21.3	---	---	31.3	E	0.52	33.9	-37.8	---	---	727.7	0.027	0.000	20.0	3	1
03/12/06	3:04 p	-21.3	-21.2	-21.3	---	---	31.3	E	0.52	38.3	-37.9	---	---	727.6	0.028	0.000	20.0	3	1
03/12/06	3:05 p	-21.3	-21.2	-21.3	---	---	30.4	E	0.51	35.7	-37.8	---	---	727.6	0.028	0.000	20.0	3	1
03/12/06	3:06 p	-21.3	-21.3	-21.3	---	---	33.9	E	0.57	39.1	-38.4	---	---	727.5	0.028	0.000	20.0	3	1
03/12/06	3:07 p	-21.3	-21.2	-21.3	---	---	35.7	E	0.59	38.3	-38.7	---	---	727.5	0.028	0.000	20.0	3	1
03/12/06	3:08 p	-21.3	-21.2	-21.3	---	---	33.0	E	0.55	38.3	-38.3	---	---	727.6	0.028	0.000	20.0	3	1
03/12/06	3:09 p	-21.3	-21.3	-21.3	---	---	33.0	ESE	0.55	39.1	-38.3	---	---	727.6	0.028	0.000	20.0	3	1
03/12/06	3:10 p	-21.3	-21.3	-21.3	---	---	31.3	E	0.52	38.3	-37.9	---	---	727.7	0.028	0.000	20.0	3	1
03/12/06	3:11 p	-21.3	-21.3	-21.3	---	---	31.3	E	0.52	36.5	-37.9	---	---	727.8	0.028	0.000	20.0	3	1
03/12/06	3:12 p	-21.3	-21.3	-21.3	---	---	31.3	E	0.52	33.9	-37.9	---	---	727.8	0.028	0.000	20.0	3	1
03/12/06	3:13 p	-21.3	-21.3	-21.3	---	---	30.4	E	0.51	39.1	-37.8	---	---	727.7	0.028	0.000	20.0	3	1
03/12/06	3:14 p	-21.3	-21.3	-21.3	---	---	30.4	E	0.51	34.8	-37.8	---	---	727.8	0.028	0.000	20.0	3	1
03/12/06	3:15 p	-21.3	-21.3	-21.3	---	---	31.3	E	0.52	34.8	-37.9	---	---	727.7	0.028	0.000	20.0	3	1
03/12/06	3:16 p	-21.3	-21.3	-21.3	---	---	31.3	E	0.52	36.5	-37.9	---	---	727.7	0.028	0.000	20.0	3	1
03/12/06	3:17 p	-21.3	-21.3	-21.3	---	---	32.2	E	0.54	36.5	-38.1	---	---	727.8	0.028	0.000	20.0	3	1
03/12/06	3:18 p	-21.3	-21.3	-21.3	---	---	30.4	E	0.51	33.0	-37.8	---	---	727.8	0.028	0.000	20.0	3	1
03/12/06	3:19 p	-21.2	-21.2	-21.3	---	---	30.4	ESE	0.51	33.9	-37.7	---	---	727.8	0.027	0.000	20.0	3	1
03/12/06	3:20 p	-21.3	-21.2	-21.3	---	---	29.6	ESE	0.49	35.7	-37.6	---	---	727.6	0.028	0.000	20.0	3	1
03/12/06	3:21 p	-21.3	-21.2	-21.3	---	---	32.2	ESE	0.54	35.7	-38.1	---	---	727.7	0.028	0.000	20.0	3	1
03/12/06	3:22 p	-21.2	-21.2	-21.3	---	---	33.9	ESE	0.57	40.9	-38.3	---	---	727.7	0.027	0.000	20.0	3	1
03/12/06	3:23 p	-21.2	-21.2	-21.3	---	---	28.7	ESE	0.48	33.9	-37.3	---	---	727.8	0.027	0.000	20.0	3	1
03/12/06	3:24 p	-21.2	-21.2	-21.3	---	---	32.2	ESE	0.54	37.4	-38.0	---	---	727.7	0.027	0.000	20.0	3	1
03/12/06	3:25 p	-21.2	-21.2	-21.2	---	---	33.0	ESE	0.55	40.9	-38.2	---	---	727.9	0.027	0.000	20.0	3	1
03/12/06	3:26 p	-21.2	-21.2	-21.2	---	---	30.4	ESE	0.51	34.8	-37.7	---	---	727.7	0.027	0.000	20.0	3	1
03/12/06	3:27 p	-21.2	-21.2	-21.2	---	---	30.4	E	0.51	33.0	-37.6	---	---	727.7	0.027	0.000	20.0	3	1
03/12/06	3:28 p	-21.2	-21.1	-21.2	---	---	33.0	ESE	0.55	38.3	-38.1	---	---	727.7	0.027	0.000	20.0	3	1
03/12/06	3:29 p	-21.1	-21.1	-21.2	---	---	33.0	E	0.55	37.4	-38.1	---	---	727.8	0.027	0.000	20.0	3	1
03/12/06	3:30 p	-21.1	-21.1	-21.2	---	---	34.8	ESE	0.58	40.0	-38.3	---	---	727.7	0.027	0.000	19.9	3	1
03/12/06	3:31 p	-21.1	-21.1	-21.2	---	---	33.9	ESE	0.57	36.5	-38.2	---	---	727.7	0.027	0.000	20.0	3	1
03/12/06	3:32 p	-21.1	-21.1	-21.1	---	---	35.7	E	0.59	38.3	-38.5	---	---	727.6	0.027	0.000	19.9	3	1
03/12/06	3:33 p	-21.1	-21.1	-21.1	---	---	33.9	E	0.57	39.1	-38.1	---	---	727.4	0.027	0.000	19.9	3	1
03/12/06	3:34 p	-21.1	-21.1	-21.1	---	---	35.7	ESE	0.59	38.3	-38.4	---	---	727.6	0.027	0.000	19.9	3	1
03/12/06	3:35 p	-21.1	-21.0	-21.1	---	---	35.7	ESE	0.59	45.2	-38.4	---	---	727.4	0.027	0.000	19.9	3	1
03/12/06	3:36 p	-21.1	-21.0	-21.1	---	---	33.0	ESE	0.55	37.4	-37.9	---	---	727.5	0.027	0.000	19.9	3	1
03/12/06	3:37 p	-21.0	-21.0	-21.0	---	---	33.9	ESE	0.57	36.5	-38.1	---	---	727.6	0.027	0.000	19.9	3	1
03/12/06	3:38 p	-20.9	-20.9	-21.0	---	---	32.2	ESE	0.54	42.6	-37.7	---	---	727.6	0.027	0.000	19.9	3	1
03/12/06	3:39 p	-20.9	-20.9	-20.9	---	---	32.2	ESE	0.54	34.8	-37.7	---	---	727.8	0.027	0.000	19.9	3	1
03/12/06	3:40 p	-20.9	-20.9	-20.9	---	---	33.0	ESE	0.55	37.4	-37.8	---	---	727.4	0.027	0.000	19.8	3	1
03/12/06	3:41 p	-20.9	-20.9	-20.9	---	---	35.7	ESE	0.59	43.5	-38.2	---	---	727.3	0.027	0.000	19.8	3	1
03/12/06	3:42 p	-20.8	-20.8	-20.9	---	---	33.9	ESE	0.57	39.1	-37.8	---	---	727.5	0.027	0.000	19.8	3	1
03/12/06	3:43 p	-20.8	-20.8	-20.8	---	---	33.0	ESE	0.55	34.8	-37.7	---	---	727.6	0.027	0.000	19.8	3	1
03/12/06	3:44 p	-20.8	-20.8	-20.8	---	---	32.2	ESE	0.54	42.6	-37.5	---	---	727.6	0.027	0.000	19.8	3	1
03/12/06	3:45 p	-20.8	-20.7	-20.8	---	---	32.2	ESE	0.54	34.8	-37.4	---	---	727.7	0.027	0.000	19.8	3	1
03/12/06	3:46 p	-20.7	-20.7	-20.7	---	---	33.0	ESE	0.55	36.5	-37.5	---	---	727.8	0.027	0.000	19.8	3	1
03/12/06	3:47 p	-20.7	-20.7	-20.7	---	---	33.0	ESE	0.55	39.1	-37.4	---	---	727.5	0.027	0.000	19.8	3	1
03/12/06	3:48 p	-20.7	-20.7	-20.7	---	---	31.3	E	0.52	34.8	-37.1	---	---	727.8	0.027	0.000	19.8	3	1
03/12/06	3:49 p	-20.6	-20.6	-20.7	---	---	33.0	ESE	0.55	36.5	-37.3	---	---	727.5	0.027	0.000	19.8	3	1
03/12/06	3:50 p	-20.6	-20.6	-20.6	---	---	32.2	ESE	0.54	41.7	-37.2	---	---	727.9	0.027	0.000	19.8	3	1
03/12/06	3:51 p	-20.6	-20.6	-20.6	---	---	29.6	ESE	0.49	31.3	-36.7	---	---	727.8	0.027	0.000	19.8	3	1
03/12/06	3:52 p	-20.6	-20.5	-20.6	---	---	30.4	ESE	0.51	35.7	-36.8	---	---	727.8	0.027	0.000	19.8	3	1
03/12/06	3:53 p	-20.5	-20.4	-20.6	---	---	33.9	ESE	0.57	36.5	-37.3	---	---	727.7	0.027	0.000	19.8	3	1
03/12/06	3:54 p	-20.5	-20.4	-20.5	---	---	34.8	ESE	0.58	36.5	-37.5	---	---	727.7	0.027	0.000	19.8	3	1
03/12/06	3:55 p	-20.4	-20.4	-20.4	---	---	33.9	ESE	0.57	35.7	-37.3	---	---	727.8	0.027	0.000	19.8	3	1
03/12/06	3:56 p	-20.4	-20.4	-20.4	---	---	33.9	ESE	0.57	35.7	-37.2	---	---	727.7	0.027	0.000	19.8	3	1
03/12/06	3:57 p	-20.4	-20.3	-20.4	---	---	32.2	ESE	0.54	40.9	-36.9	---	---	727.8	0.027	0.000	19.8	3	1
03/12/06	3:58 p	-20.3	-20.3	-20.4	---	---	29.6	ESE	0.49	33.9	-36.3	---	---	727.6	0.027	0.000	19.8	3	1
03/12/06	3:59 p	-20.3	-20.3	-20.3	---	---	31.3	ESE	0.52	34.8	-36.6	---	---	727.7	0.027	0.000	19.8	3	1
03/12/06	4:00 p	-20.2	-20.2	-20.3	---	---	31.3	ESE	0.52	33.9	-36.5	---	---	727.8	0.027	0.000	19.8	3	1
03/12/06	4:01 p	-20.2	-20.2	-20.2	---	---	31.3	ESE	0.52	35.7	-36.5	---	---	727.9	0.027	0.000	19.8	3	1
03/12/06	4:02 p	-20.2	-20.2	-20.2	---	---	29.6	ESE	0.49	33.9	-36.2	---	---	727.9	0.027	0.000	19.8	3	1
03/12/06	4:03 p	-20.2	-20.1	-20.2	---	---	24.3	E	0.41	29.6	-34.9	---	---	728.0	0.027	0.000	19.8	3	1
03/12/06	4:04 p	-20.1	-20.1	-20.1	---	---	25.2	ESE	0.42	29.6	-35.1	---	---	728.0	0.027	0.000	19.8	3	1
03/12/06	4:05 p	-20.1	-20.1	-20.1	---	---	27.8	ESE	0.46	34.8	-35.6	---	---	728.0	0.027	0.000	19.8	3	1
03/12/06	4:06 p	-20.1	-20.1	-20.1	---	---	27.0	ESE	0.45	31.3	-35.4	---	---	728.2	0.027	0.000	19.8	3	1
03/12/06	4:07 p	-20.1	-20.0	-20.1	---	---	24.3	ESE	0.41	29.6	-34.8	---	---	728.2	0.027	0.000	19.8	3	1
03/12/06	4:08 p	-20.0	-20.0	-20.0	---	---	22.6	ESE	0.38	25.2	-34.3	---	---	728.4	0.027	0.000	19.8	3	1
03/12/06	4:09 p	-19.9	-19.9	-19.9	---	---	26.1	ESE	0.43	31.3	-35.1	---	---	728.3	0.027	0.000	19.8	3	1
03/12/06	4:10 p	-19.9	-19.9	-19.9	---	---	25.2	ESE	0.42	27.0	-34.8	---	---	728.4	0.027	0.000	19.8	3	1
03/12/06	4:11 p	-19.9	-19.8	-19.9	---	---	24.3	ESE	0.41	31.3	-34.6	---	---	728.3	0.027	0.000	19.8	3	1
03/12/06	4:12 p	-19.8	-19.8	-19.8	---	---	22.6	E	0.38	28.7	-34.1	---	---	728.3	0.027	0.000	19.9	3	1
03/12/06	4:13 p	-19.8	-19.8	-19.8	---	---	20.9	E	0.35	26.1	-33.6	---	---	728.1	0.027	0.000	19.9	3	1
03/12/06	4:14 p	-19.8	-19.8	-19.8	---	---	19.1	E	0.32	26.1	-33.2	---	---	728.2	0.027	0.000	19.9	3	1
03/12/06	4:15 p	-19.8	-19.8	-19.8	---	---	26.1	E	0.43	27.8	-34.8	---	---	728.2	0.026	0.000	19.8	3	1
03/12/06	4:16 p	-19.7	-19.7	-19.7	---	---	25.2	E	0.42	27.8	-34.6	---	---	728.2	0.026	0.000	19.8	3	1
03/12/06	4:17 p	-19.7	-19.7	-19.7	---	---	25.2	E	0.42	29.6	-34.6	---	---	728.0	0.026	0.000	19.8	3	1
03/12/06	4:18 p	-19.7	-19.7	-19.7	---	---	24.3	E	0.41	28.7	-34.3	---	---	728.1	0.026	0.000	19.8	3	1
03/12/06	4:19 p	-19.7	-19.6	-19.7	---	---	24.3	E	0.41	27.0	-34.3	---	---	727.9	0.026	0.000	19.8	3	1
03/12/06	4:20 p	-19.7	-19.6	-19.7	---	---	29.6	ESE	0.49	33.9	-35.4	---	---	727.8	0.026	0.000	19.8	3	1
03/12/06	4:21 p	-19.6	-19.6	-19.6	---	---	31.3	ESE	0.52	33.0	-35.6	---	---	727.9	0.026	0.000	19.8	3	1
03/12/06	4:22 p	-19.6	-19.6	-19.6	---	---	34.8	ESE	0.58	38.3	-36.2	---	---	727.6	0.026	0.000	19.8	3	1
03/12/06	4:23 p	-19.6	-19.5	-19.6	---	---	34.8	ESE	0.58	36.5	-36.2	---	---	727.6	0.026	0.000	19.8	3	1
03/12/06	4:24 p	-19.6	-19.5	-19.6	---	---	33.9	ESE	0.57	39.1	-36.1	---	---	727.8	0.026	0.000	19.8	3	1
03/12/06	4:25 p	-19.5	-19.5	-19.6	---	---	33.0	ESE	0.55	40.0	-35.8	---	---	727.7	0.026	0.000	19.8	3	1
03/12/06	4:26 p	-19.5	-19.5	-19.5	---	---	27.8	ESE	0.46	40.0	-34.8	---	---	727.8	0.026	0.000	19.8	3	1
03/12/06	4:27 p	-19.5	-19.5	-19.5	---	---	30.4	ESE	0.51	37.4	-35.3	---	---	727.9	0.026	0.000	19.8	3	1
03/12/06	4:28 p	-19.4	-19.4	-19.5	---	---	32.2	ESE	0.54	35.7	-35.6	---	---	727.9	0.026	0.000	19.8	3	1
03/12/06	4:29 p	-19.4	-19.4	-19.4	---	---	27.0	ESE	0.45	31.3	-34.6	---	---	728.0	0.026	0.000	19.8	3	1
03/12/06	4:30 p	-19.4	-19.4	-19.4	---	---	27.0	ESE	0.45	29.6	-34.4	---	---	728.1	0.026	0.000	19.8	3	1
03/12/06	4:31 p	-19.4	-19.4	-19.4	---	---	27.8	ESE	0.46	36.5	-34.7	---	---	728.2	0.026	0.000	19.7	3	1
03/12/06	4:32 p	-19.4	-19.4	-19.4	---	---	26.1	ESE	0.43	30.4	-34.3	---	---	728.2	0.026	0.000	19.7	3	1
03/12/06	4:33 p	-19.3	-19.3	-19.4	---	---	26.1	ESE	0.43	29.6	-34.2	---	---	728.2	0.026	0.000	19.7	3	1
03/12/06	4:34 p	-19.3	-19.3	-19.3	---	---	30.4	ESE	0.51	35.7	-35.1	---	---	728.1	0.026	0.000	19.8	3	1
03/12/06	4:35 p	-19.3	-19.3	-19.3	---	---	27.8	ESE	0.46	37.4	-34.6	---	---	728.1	0.026	0.000	19.7	3	1
03/12/06	4:36 p	-19.3	-19.3	-19.3	---	---	26.1	ESE	0.43	29.6	-34.1	---	---	728.1	0.026	0.000	19.7	3	1
03/12/06	4:37 p	-19.3	-19.3	-19.3	---	---	26.1	ESE	0.43	37.4	-34.1	---	---	728.2	0.026	0.000	19.7	3	1
03/12/06	4:38 p	-19.2	-19.2	-19.3	---	---	27.8	ESE	0.46	30.4	-34.4	---	---	728.1	0.026	0.000	19.7	3	1
03/12/06	4:39 p	-19.2	-19.2	-19.2	---	---	27.8	ESE	0.46	32.2	-34.4	---	---	728.0	0.026	0.000	19.7	3	1
03/12/06	4:40 p	-19.2	-19.2	-19.2	---	---	27.0	ESE	0.45	28.7	-34.2	---	---	728.2	0.026	0.000	19.7	3	1
03/12/06	4:41 p	-19.2	-19.2	-19.2	---	---	25.2	ESE	0.42	28.7	-33.9	---	---	728.2	0.026	0.000	19.7	3	1
03/12/06	4:42 p	-19.2	-19.2	-19.2	---	---	27.0	ESE	0.45	28.7	-34.2	---	---	728.0	0.026	0.000	19.7	3	1
03/12/06	4:43 p	-19.1	-19.1	-19.2	---	---	28.7	ESE	0.48	30.4	-34.4	---	---	728.0	0.026	0.000	19.7	3	1
03/12/06	4:44 p	-19.1	-19.1	-19.1	---	---	31.3	ESE	0.52	34.8	-34.9	---	---	727.7	0.026	0.000	19.7	3	1
03/12/06	4:45 p	-19.1	-19.1	-19.1	---	---	31.3	ESE	0.52	38.3	-34.9	---	---	727.6	0.026	0.000	19.7	3	1
03/12/06	4:46 p	-19.1	-19.1	-19.1	---	---	27.0	ESE	0.45	27.8	-34.1	---	---	728.0	0.026	0.000	19.7	3	1
03/12/06	4:47 p	-19.1	-19.1	-19.1	---	---	27.8	ESE	0.46	31.3	-34.2	---	---	727.9	0.026	0.000	19.7	3	1
03/12/06	4:48 p	-19.1	-19.0	-19.1	---	---	26.1	ESE	0.43	33.0	-33.8	---	---	728.2	0.026	0.000	19.7	3	1
03/12/06	4:49 p	-19.1	-19.0	-19.1	---	---	25.2	ESE	0.42	30.4	-33.6	---	---	728.1	0.026	0.000	19.7	3	1
03/12/06	4:50 p	-19.0	-19.0	-19.1	---	---	24.3	ESE	0.41	30.4	-33.4	---	---	728.0	0.026	0.000	19.7	3	1
03/12/06	4:51 p	-19.0	-19.0	-19.0	---	---	23.5	ESE	0.39	29.6	-33.2	---	---	728.1	0.026	0.000	19.7	3	1
03/12/06	4:52 p	-18.9	-18.9	-18.9	---	---	23.5	E	0.39	27.0	-33.1	---	---	728.2	0.026	0.000	19.7	3	1
03/12/06	4:53 p	-18.9	-18.9	-19.0	---	---	20.0	E	0.33	22.6	-32.2	---	---	728.2	0.026	0.000	19.7	3	1
03/12/06	4:54 p	-18.9	-18.9	-18.9	---	---	23.5	ESE	0.39	31.3	-33.1	---	---	728.2	0.026	0.000	19.7	3	1
03/12/06	4:55 p	-18.9	-18.9	-18.9	---	---	18.3	ESE	0.30	20.9	-31.7	---	---	728.4	0.026	0.000	19.8	3	1
03/12/06	4:56 p	-18.9	-18.9	-18.9	---	---	19.1	E	0.32	25.2	-31.9	---	---	728.3	0.026	0.000	19.7	3	1
03/12/06	4:57 p	-18.9	-18.8	-18.9	---	---	21.7	E	0.36	27.0	-32.6	---	---	728.3	0.026	0.000	19.8	3	1
03/12/06	4:58 p	-18.9	-18.8	-18.9	---	---	18.3	E	0.30	21.7	-31.7	---	---	728.3	0.026	0.000	19.8	3	1
03/12/06	4:59 p	-18.8	-18.8	-18.8	---	---	19.1	E	0.32	21.7	-31.8	---	---	728.3	0.026	0.000	19.8	3	1
03/12/06	5:00 p	-18.8	-18.8	-18.8	---	---	20.9	E	0.35	33.0	-32.3	---	---	728.3	0.026	0.000	19.8	3	1
03/12/06	5:01 p	-18.8	-18.8	-18.8	---	---	18.3	ESE	0.30	21.7	-31.6	---	---	728.5	0.026	0.000	19.8	3	1
03/12/06	5:02 p	-18.8	-18.8	-18.8	---	---	20.0	ESE	0.33	22.6	-32.0	---	---	728.5	0.026	0.000	19.8	3	1
03/12/06	5:03 p	-18.8	-18.8	-18.8	---	---	21.7	E	0.36	26.1	-32.4	---	---	728.3	0.026	0.000	19.8	3	1
03/12/06	5:04 p	-18.7	-18.7	-18.8	---	---	20.9	E	0.35	25.2	-32.2	---	---	728.4	0.026	0.000	19.8	3	1
03/12/06	5:05 p	-18.7	-18.7	-18.7	---	---	19.1	E	0.32	23.5	-31.7	---	---	728.4	0.026	0.000	19.8	3	1
03/12/06	5:06 p	-18.7	-18.7	-18.7	---	---	16.5	E	0.28	30.4	-30.8	---	---	728.3	0.026	0.000	19.8	3	1
03/12/06	5:07 p	-18.7	-18.7	-18.7	---	---	20.0	E	0.33	24.3	-31.8	---	---	728.5	0.026	0.000	19.8	3	1
03/12/06	5:08 p	-18.7	-18.7	-18.7	---	---	17.4	E	0.29	21.7	-31.1	---	---	728.4	0.026	0.000	19.8	3	1
03/12/06	5:09 p	-18.7	-18.6	-18.7	---	---	19.1	E	0.32	24.3	-31.6	---	---	728.5	0.026	0.000	19.7	3	1
03/12/06	5:10 p	-18.6	-18.6	-18.7	---	---	20.9	E	0.35	25.2	-32.0	---	---	728.3	0.026	0.000	19.7	3	1
03/12/06	5:11 p	-18.6	-18.6	-18.6	---	---	19.1	E	0.32	20.9	-31.6	---	---	728.3	0.026	0.000	19.7	3	1
03/12/06	5:12 p	-18.6	-18.6	-18.6	---	---	21.7	E	0.36	25.2	-32.2	---	---	728.3	0.026	0.000	19.7	3	1
03/12/06	5:13 p	-18.6	-18.6	-18.6	---	---	23.5	ESE	0.39	26.1	-32.7	---	---	728.2	0.026	0.000	19.7	3	1
03/12/06	5:14 p	-18.6	-18.6	-18.6	---	---	25.2	E	0.42	28.7	-33.1	---	---	728.2	0.026	0.000	19.7	3	1
03/12/06	5:15 p	-18.6	-18.6	-18.6	---	---	20.9	E	0.35	29.6	-31.9	---	---	728.2	0.026	0.000	19.7	3	1
03/12/06	5:16 p	-18.6	-18.6	-18.6	---	---	21.7	ESE	0.36	29.6	-32.2	---	---	728.4	0.026	0.000	19.7	3	1
03/12/06	5:17 p	-18.6	-18.5	-18.6	---	---	19.1	E	0.32	21.7	-31.4	---	---	728.3	0.026	0.000	19.7	3	1
03/12/06	5:18 p	-18.5	-18.5	-18.6	---	---	17.4	E	0.29	21.7	-30.9	---	---	728.4	0.026	0.000	19.7	3	1
03/12/06	5:19 p	-18.6	-18.5	-18.6	---	---	18.3	E	0.30	20.9	-31.2	---	---	728.4	0.026	0.000	19.7	3	1
03/12/06	5:20 p	-18.5	-18.4	-18.5	---	---	18.3	ESE	0.30	23.5	-31.2	---	---	728.4	0.026	0.000	19.7	3	1
03/12/06	5:21 p	-18.5	-18.5	-18.5	---	---	22.6	ESE	0.38	24.3	-32.3	---	---	728.5	0.026	0.000	19.7	3	1
03/12/06	5:22 p	-18.5	-18.4	-18.5	---	---	19.1	ESE	0.32	22.6	-31.4	---	---	728.5	0.026	0.000	19.7	3	1
03/12/06	5:23 p	-18.4	-18.4	-18.4	---	---	16.5	E	0.28	23.5	-30.6	---	---	728.5	0.026	0.000	19.7	3	1
03/12/06	5:24 p	-18.4	-18.4	-18.4	---	---	20.0	ENE	0.33	26.1	-31.6	---	---	728.5	0.026	0.000	19.7	3	1
03/12/06	5:25 p	-18.4	-18.4	-18.4	---	---	19.1	E	0.32	22.6	-31.3	---	---	728.6	0.026	0.000	19.7	3	1
03/12/06	5:26 p	-18.4	-18.4	-18.4	---	---	18.3	ESE	0.30	20.9	-31.1	---	---	728.7	0.026	0.000	19.7	3	1
03/12/06	5:27 p	-18.4	-18.4	-18.4	---	---	14.8	E	0.25	18.3	-29.9	---	---	728.8	0.026	0.000	19.7	3	1
03/12/06	5:28 p	-18.4	-18.4	-18.4	---	---	16.5	E	0.28	24.3	-30.5	---	---	728.7	0.026	0.000	19.7	3	1
03/12/06	5:29 p	-18.4	-18.4	-18.4	---	---	16.5	E	0.28	20.0	-30.5	---	---	728.9	0.026	0.000	19.7	3	1
03/12/06	5:30 p	-18.4	-18.4	-18.4	---	---	13.0	E	0.22	17.4	-29.3	---	---	729.0	0.026	0.000	19.7	3	1
03/12/06	5:31 p	-18.4	-18.3	-18.4	---	---	13.0	E	0.22	15.7	-29.3	---	---	728.9	0.026	0.000	19.7	3	1
03/12/06	5:32 p	-18.4	-18.3	-18.4	---	---	13.0	E	0.22	17.4	-29.3	---	---	728.9	0.026	0.000	19.7	3	1
03/12/06	5:33 p	-18.3	-18.3	-18.3	---	---	14.8	E	0.25	17.4	-29.8	---	---	728.8	0.025	0.000	19.7	3	1
03/12/06	5:34 p	-18.3	-18.3	-18.3	---	---	15.7	E	0.26	18.3	-30.1	---	---	728.8	0.025	0.000	19.7	3	1
03/12/06	5:35 p	-18.3	-18.3	-18.3	---	---	13.0	E	0.22	15.7	-29.2	---	---	728.8	0.025	0.000	19.7	3	1
03/12/06	5:36 p	-18.3	-18.3	-18.3	---	---	13.9	E	0.23	17.4	-29.6	---	---	728.8	0.025	0.000	19.7	3	1
03/12/06	5:37 p	-18.3	-18.3	-18.3	---	---	14.8	E	0.25	17.4	-29.8	---	---	728.8	0.025	0.000	19.7	3	1
03/12/06	5:38 p	-18.3	-18.3	-18.3	---	---	14.8	E	0.25	17.4	-29.8	---	---	728.6	0.025	0.000	19.7	3	1
03/12/06	5:39 p	-18.3	-18.3	-18.3	---	---	14.8	E	0.25	20.0	-29.8	---	---	728.5	0.025	0.000	19.7	3	1
03/12/06	5:40 p	-18.3	-18.3	-18.3	---	---	16.5	E	0.28	20.0	-30.4	---	---	728.5	0.025	0.000	19.8	3	1
03/12/06	5:41 p	-18.3	-18.3	-18.3	---	---	16.5	E	0.28	20.9	-30.3	---	---	728.5	0.025	0.000	19.8	3	1
03/12/06	5:42 p	-18.3	-18.3	-18.3	---	---	19.1	E	0.32	26.1	-31.2	---	---	728.4	0.025	0.000	19.8	3	1
03/12/06	5:43 p	-18.3	-18.3	-18.3	---	---	20.0	E	0.33	23.5	-31.4	---	---	728.5	0.025	0.000	19.8	3	1
03/12/06	5:44 p	-18.3	-18.3	-18.3	---	---	17.4	SE	0.29	28.7	-30.6	---	---	728.2	0.025	0.000	19.8	3	1
03/12/06	5:45 p	-18.3	-18.3	-18.3	---	---	21.7	ESE	0.36	26.1	-31.8	---	---	728.3	0.025	0.000	19.8	3	1
03/12/06	5:46 p	-18.3	-18.3	-18.3	---	---	25.2	E	0.42	27.8	-32.6	---	---	728.2	0.025	0.000	19.8	3	1
03/12/06	5:47 p	-18.3	-18.3	-18.3	---	---	23.5	E	0.39	27.0	-32.2	---	---	728.2	0.025	0.000	19.8	3	1
03/12/06	5:48 p	-18.3	-18.3	-18.3	---	---	19.1	E	0.32	25.2	-31.1	---	---	728.4	0.025	0.000	19.8	3	1
03/12/06	5:49 p	-18.3	-18.3	-18.3	---	---	23.5	E	0.39	31.3	-32.2	---	---	728.2	0.025	0.000	19.8	3	1
03/12/06	5:50 p	-18.3	-18.3	-18.3	---	---	21.7	E	0.36	26.1	-31.8	---	---	728.4	0.025	0.000	19.8	3	1
03/12/06	5:51 p	-18.3	-18.3	-18.3	---	---	19.1	E	0.32	23.5	-31.1	---	---	728.2	0.025	0.000	19.8	3	1
03/12/06	5:52 p	-18.3	-18.3	-18.3	---	---	20.9	E	0.35	26.1	-31.6	---	---	728.3	0.025	0.000	19.8	3	1
03/12/06	5:53 p	-18.3	-18.3	-18.3	---	---	26.1	E	0.43	27.8	-32.8	---	---	728.3	0.025	0.000	19.8	3	1
03/12/06	5:54 p	-18.3	-18.3	-18.3	---	---	24.3	E	0.41	27.8	-32.4	---	---	728.4	0.025	0.000	19.8	3	1
03/12/06	5:55 p	-18.3	-18.3	-18.3	---	---	20.0	E	0.33	25.2	-31.3	---	---	728.3	0.025	0.000	19.8	3	1
03/12/06	5:56 p	-18.3	-18.3	-18.3	---	---	23.5	E	0.39	27.0	-32.2	---	---	728.4	0.025	0.000	19.8	3	1
03/12/06	5:57 p	-18.3	-18.3	-18.3	---	---	25.2	E	0.42	27.8	-32.6	---	---	728.3	0.025	0.000	19.8	3	1
03/12/06	5:58 p	-18.3	-18.3	-18.3	---	---	22.6	ESE	0.38	27.0	-32.0	---	---	728.2	0.025	0.000	19.8	3	1
03/12/06	5:59 p	-18.3	-18.3	-18.3	---	---	22.6	ESE	0.38	27.0	-32.1	---	---	728.2	0.025	0.000	19.8	3	1
03/12/06	6:00 p	-18.3	-18.3	-18.3	---	---	26.1	ESE	0.43	28.7	-32.8	---	---	728.1	0.025	0.000	19.8	3	1
03/12/06	6:01 p	-18.3	-18.3	-18.3	---	---	22.6	ESE	0.38	25.2	-32.0	---	---	728.2	0.025	0.000	19.8	3	1
03/12/06	6:02 p	-18.3	-18.3	-18.3	---	---	20.9	E	0.35	26.1	-31.6	---	---	728.1	0.025	0.000	19.8	3	1
03/12/06	6:03 p	-18.3	-18.3	-18.3	---	---	24.3	E	0.41	31.3	-32.4	---	---	728.1	0.025	0.000	19.8	3	1
03/12/06	6:04 p	-18.3	-18.3	-18.4	---	---	25.2	E	0.42	27.8	-32.7	---	---	728.2	0.025	0.000	19.8	3	1
03/12/06	6:05 p	-18.4	-18.3	-18.4	---	---	20.0	E	0.33	24.3	-31.5	---	---	728.2	0.026	0.000	19.8	3	1
03/12/06	6:06 p	-18.4	-18.4	-18.4	---	---	18.3	E	0.30	23.5	-31.0	---	---	728.3	0.026	0.000	19.8	3	1
03/12/06	6:07 p	-18.4	-18.4	-18.4	---	---	20.0	E	0.33	23.5	-31.6	---	---	728.2	0.026	0.000	19.8	3	1
03/12/06	6:08 p	-18.5	-18.4	-18.5	---	---	22.6	E	0.38	25.2	-32.3	---	---	728.3	0.026	0.000	19.7	3	1
03/12/06	6:09 p	-18.5	-18.5	-18.6	---	---	18.3	E	0.30	22.6	-31.2	---	---	728.2	0.026	0.000	19.8	3	1
03/12/06	6:10 p	-18.5	-18.5	-18.6	---	---	27.8	E	0.46	36.5	-33.4	---	---	728.2	0.026	0.000	19.8	3	1
03/12/06	6:11 p	-18.6	-18.6	-18.6	---	---	20.0	E	0.33	23.5	-31.7	---	---	728.4	0.026	0.000	19.8	3	1
03/12/06	6:12 p	-18.6	-18.6	-18.6	---	---	20.0	E	0.33	25.2	-31.8	---	---	728.3	0.026	0.000	19.7	3	1
03/12/06	6:13 p	-18.6	-18.6	-18.6	---	---	20.9	E	0.35	25.2	-32.0	---	---	728.3	0.026	0.000	19.7	3	1
03/12/06	6:14 p	-18.7	-18.7	-18.7	---	---	21.7	E	0.36	25.2	-32.3	---	---	728.1	0.026	0.000	19.7	3	1
03/12/06	6:15 p	-18.7	-18.6	-18.7	---	---	22.6	E	0.38	27.0	-32.5	---	---	728.3	0.026	0.000	19.7	3	1
03/12/06	6:16 p	-18.7	-18.7	-18.7	---	---	20.9	E	0.35	26.1	-32.1	---	---	728.2	0.026	0.000	19.7	3	1
03/12/06	6:17 p	-18.7	-18.7	-18.7	---	---	22.6	E	0.38	28.7	-32.6	---	---	728.3	0.026	0.000	19.7	3	1
03/12/06	6:18 p	-18.8	-18.7	-18.8	---	---	19.1	E	0.32	21.7	-31.8	---	---	728.3	0.026	0.000	19.7	3	1
03/12/06	6:19 p	-18.8	-18.8	-18.8	---	---	20.9	E	0.35	27.0	-32.2	---	---	728.3	0.026	0.000	19.7	3	1
03/12/06	6:20 p	-18.8	-18.8	-18.8	---	---	20.9	E	0.35	25.2	-32.3	---	---	728.2	0.026	0.000	19.7	3	1
03/12/06	6:21 p	-18.9	-18.9	-18.9	---	---	20.0	E	0.33	23.5	-32.2	---	---	728.3	0.026	0.000	19.7	3	1
03/12/06	6:22 p	-18.9	-18.9	-18.9	---	---	24.3	E	0.41	33.0	-33.2	---	---	728.1	0.026	0.000	19.8	3	1
03/12/06	6:23 p	-18.9	-18.9	-18.9	---	---	25.2	E	0.42	28.7	-33.5	---	---	728.3	0.026	0.000	19.8	3	1
03/12/06	6:24 p	-18.9	-18.9	-19.0	---	---	24.3	E	0.41	28.7	-33.3	---	---	728.5	0.026	0.000	19.8	3	1
03/12/06	6:25 p	-19.0	-18.9	-19.0	---	---	20.0	ESE	0.33	21.7	-32.3	---	---	728.6	0.026	0.000	19.8	3	1
03/12/06	6:26 p	-19.0	-19.0	-19.1	---	---	19.1	E	0.32	22.6	-32.1	---	---	728.7	0.026	0.000	19.8	3	1
03/12/06	6:27 p	-19.1	-19.0	-19.1	---	---	16.5	E	0.28	18.3	-31.3	---	---	728.6	0.026	0.000	19.8	3	1
03/12/06	6:28 p	-19.1	-19.1	-19.1	---	---	20.9	ESE	0.35	25.2	-32.6	---	---	728.5	0.026	0.000	19.8	3	1
03/12/06	6:29 p	-19.2	-19.1	-19.2	---	---	20.0	E	0.33	27.0	-32.5	---	---	728.3	0.026	0.000	19.8	3	1
03/12/06	6:30 p	-19.2	-19.2	-19.2	---	---	19.1	E	0.32	24.3	-32.3	---	---	728.5	0.026	0.000	19.8	3	1
03/12/06	6:31 p	-19.2	-19.2	-19.2	---	---	18.3	E	0.30	23.5	-32.1	---	---	728.5	0.026	0.000	19.8	3	1
03/12/06	6:32 p	-19.2	-19.2	-19.2	---	---	18.3	E	0.30	23.5	-32.1	---	---	728.5	0.026	0.000	19.8	3	1
03/12/06	6:33 p	-19.2	-19.2	-19.2	---	---	17.4	E	0.29	20.9	-31.8	---	---	728.5	0.026	0.000	19.8	3	1
03/12/06	6:34 p	-19.3	-19.3	-19.3	---	---	19.1	E	0.32	22.6	-32.4	---	---	728.6	0.026	0.000	19.9	3	1
03/12/06	6:35 p	-19.3	-19.3	-19.3	---	---	19.1	E	0.32	22.6	-32.4	---	---	728.5	0.026	0.000	19.8	3	1
03/12/06	6:36 p	-19.3	-19.3	-19.3	---	---	19.1	E	0.32	21.7	-32.5	---	---	728.4	0.026	0.000	19.8	3	1
03/12/06	6:37 p	-19.3	-19.3	-19.3	---	---	19.1	E	0.32	24.3	-32.5	---	---	728.4	0.026	0.000	19.8	3	1
03/12/06	6:38 p	-19.3	-19.3	-19.3	---	---	20.0	E	0.33	25.2	-32.7	---	---	728.3	0.026	0.000	19.8	3	1
03/12/06	6:39 p	-19.3	-19.3	-19.3	---	---	16.5	ESE	0.28	23.5	-31.7	---	---	728.5	0.026	0.000	19.8	3	1
03/12/06	6:40 p	-19.3	-19.3	-19.3	---	---	14.8	E	0.25	18.3	-31.1	---	---	728.5	0.026	0.000	19.8	3	1
03/12/06	6:41 p	-19.3	-19.3	-19.3	---	---	16.5	E	0.28	22.6	-31.7	---	---	728.4	0.026	0.000	19.8	3	1
03/12/06	6:42 p	-19.3	-19.3	-19.3	---	---	19.1	E	0.32	24.3	-32.5	---	---	728.4	0.026	0.000	19.8	3	1
03/12/06	6:43 p	-19.3	-19.3	-19.3	---	---	14.8	E	0.25	19.1	-31.1	---	---	728.4	0.026	0.000	19.8	3	1
03/12/06	6:44 p	-19.3	-19.3	-19.3	---	---	17.4	E	0.29	22.6	-32.0	---	---	728.3	0.026	0.000	19.8	3	1
03/12/06	6:45 p	-19.3	-19.3	-19.4	---	---	17.4	E	0.29	24.3	-32.0	---	---	728.3	0.026	0.000	19.8	3	1
03/12/06	6:46 p	-19.3	-19.3	-19.3	---	---	14.8	E	0.25	20.9	-31.1	---	---	728.5	0.026	0.000	19.8	3	1
03/12/06	6:47 p	-19.3	-19.3	-19.4	---	---	19.1	E	0.32	22.6	-32.5	---	---	728.2	0.026	0.000	19.8	3	1
03/12/06	6:48 p	-19.3	-19.3	-19.3	---	---	20.0	E	0.33	23.5	-32.7	---	---	728.3	0.026	0.000	19.8	3	1
03/12/06	6:49 p	-19.3	-19.3	-19.3	---	---	18.3	E	0.30	20.9	-32.2	---	---	728.4	0.026	0.000	19.8	3	1
03/12/06	6:50 p	-19.3	-19.3	-19.3	---	---	19.1	E	0.32	21.7	-32.5	---	---	728.2	0.026	0.000	19.8	3	1
03/12/06	6:51 p	-19.3	-19.3	-19.4	---	---	19.1	E	0.32	22.6	-32.5	---	---	728.2	0.026	0.000	19.8	3	1
03/12/06	6:52 p	-19.3	-19.3	-19.4	---	---	20.9	E	0.35	23.5	-32.9	---	---	728.2	0.026	0.000	19.8	3	1
03/12/06	6:53 p	-19.4	-19.3	-19.4	---	---	19.1	E	0.32	21.7	-32.6	---	---	728.2	0.026	0.000	19.8	3	1
03/12/06	6:54 p	-19.4	-19.4	-19.4	---	---	19.1	E	0.32	21.7	-32.6	---	---	728.3	0.026	0.000	19.8	3	1
03/12/06	6:55 p	-19.4	-19.4	-19.4	---	---	18.3	E	0.30	22.6	-32.3	---	---	728.3	0.026	0.000	19.8	3	1
03/12/06	6:56 p	-19.4	-19.4	-19.4	---	---	20.9	E	0.35	23.5	-33.1	---	---	728.3	0.026	0.000	19.8	3	1
03/12/06	6:57 p	-19.4	-19.4	-19.4	---	---	20.9	E	0.35	24.3	-33.1	---	---	728.2	0.026	0.000	19.8	3	1
03/12/06	6:58 p	-19.4	-19.4	-19.4	---	---	22.6	E	0.38	27.8	-33.5	---	---	728.1	0.026	0.000	19.8	3	1
03/12/06	6:59 p	-19.4	-19.4	-19.4	---	---	22.6	E	0.38	27.8	-33.6	---	---	728.2	0.026	0.000	19.8	3	1
03/12/06	7:00 p	-19.4	-19.4	-19.4	---	---	21.7	E	0.36	25.2	-33.3	---	---	728.3	0.026	0.000	19.8	2	1
03/12/06	7:01 p	-19.4	-19.4	-19.4	---	---	19.1	E	0.32	23.5	-32.6	---	---	728.2	0.026	0.000	19.8	3	1
03/12/06	7:02 p	-19.4	-19.4	-19.4	---	---	21.7	E	0.36	29.6	-33.3	---	---	728.2	0.026	0.000	19.8	3	1
03/12/06	7:03 p	-19.4	-19.4	-19.4	---	---	24.3	E	0.41	27.8	-33.9	---	---	728.1	0.026	0.000	19.8	3	1
03/12/06	7:04 p	-19.4	-19.4	-19.4	---	---	21.7	E	0.36	25.2	-33.3	---	---	728.3	0.026	0.000	19.8	3	1
03/12/06	7:05 p	-19.4	-19.4	-19.4	---	---	20.9	E	0.35	24.3	-33.1	---	---	728.3	0.026	0.000	19.8	3	1
03/12/06	7:06 p	-19.4	-19.4	-19.4	---	---	19.1	E	0.32	22.6	-32.6	---	---	728.4	0.026	0.000	19.8	3	1
03/12/06	7:07 p	-19.4	-19.4	-19.4	---	---	19.1	E	0.32	24.3	-32.6	---	---	728.3	0.026	0.000	19.8	3	1
03/12/06	7:08 p	-19.4	-19.4	-19.4	---	---	20.0	E	0.33	25.2	-32.9	---	---	728.3	0.026	0.000	19.8	3	1
03/12/06	7:09 p	-19.4	-19.4	-19.5	---	---	20.9	E	0.35	23.5	-33.1	---	---	728.3	0.026	0.000	19.8	2	1
03/12/06	7:10 p	-19.5	-19.4	-19.5	---	---	18.3	E	0.30	23.5	-32.4	---	---	728.3	0.026	0.000	19.8	3	1
03/12/06	7:11 p	-19.5	-19.4	-19.5	---	---	19.1	E	0.32	24.3	-32.7	---	---	728.2	0.026	0.000	19.8	3	1
03/12/06	7:12 p	-19.5	-19.5	-19.5	---	---	20.0	E	0.33	23.5	-32.9	---	---	728.3	0.026	0.000	19.8	3	1
03/12/06	7:13 p	-19.5	-19.5	-19.5	---	---	25.2	ESE	0.42	27.8	-34.2	---	---	728.3	0.026	0.000	19.8	3	1
03/12/06	7:14 p	-19.5	-19.5	-19.5	---	---	20.0	E	0.33	25.2	-32.9	---	---	728.4	0.026	0.000	19.8	3	1
03/12/06	7:15 p	-19.5	-19.5	-19.5	---	---	24.3	E	0.41	27.8	-34.1	---	---	728.2	0.026	0.000	19.8	2	1
03/12/06	7:16 p	-19.5	-19.5	-19.6	---	---	21.7	E	0.36	25.2	-33.4	---	---	728.2	0.026	0.000	19.8	3	1
03/12/06	7:17 p	-19.5	-19.5	-19.6	---	---	22.6	E	0.38	25.2	-33.6	---	---	728.4	0.026	0.000	19.8	3	1
03/12/06	7:18 p	-19.6	-19.5	-19.6	---	---	18.3	ESE	0.30	27.0	-32.6	---	---	728.4	0.026	0.000	19.8	3	1
03/12/06	7:19 p	-19.6	-19.6	-19.6	---	---	23.5	ESE	0.39	27.0	-33.9	---	---	728.1	0.026	0.000	19.8	3	1
03/12/06	7:20 p	-19.6	-19.5	-19.6	---	---	25.2	ESE	0.42	28.7	-34.3	---	---	728.3	0.026	0.000	19.8	2	1
03/12/06	7:21 p	-19.6	-19.6	-19.6	---	---	22.6	ESE	0.38	26.1	-33.7	---	---	728.3	0.026	0.000	19.8	2	1
03/12/06	7:22 p	-19.6	-19.6	-19.6	---	---	20.9	E	0.35	23.5	-33.3	---	---	728.2	0.026	0.000	19.8	2	1
03/12/06	7:23 p	-19.6	-19.6	-19.6	---	---	22.6	E	0.38	27.0	-33.7	---	---	728.2	0.026	0.000	19.8	3	1
03/12/06	7:24 p	-19.6	-19.6	-19.6	---	---	20.9	E	0.35	24.3	-33.3	---	---	728.2	0.026	0.000	19.9	2	1
03/12/06	7:25 p	-19.6	-19.6	-19.6	---	---	21.7	E	0.36	24.3	-33.5	---	---	728.1	0.026	0.000	19.8	3	1
03/12/06	7:26 p	-19.6	-19.6	-19.6	---	---	21.7	E	0.36	25.2	-33.5	---	---	728.2	0.026	0.000	19.8	3	1
03/12/06	7:27 p	-19.6	-19.6	-19.6	---	---	20.9	E	0.35	24.3	-33.3	---	---	728.1	0.026	0.000	19.8	3	1
03/12/06	7:28 p	-19.6	-19.6	-19.6	---	---	20.0	E	0.33	24.3	-33.1	---	---	728.3	0.026	0.000	19.8	2	1
03/12/06	7:29 p	-19.6	-19.6	-19.7	---	---	20.9	E	0.35	23.5	-33.3	---	---	728.2	0.026	0.000	19.8	3	1
03/12/06	7:30 p	-19.6	-19.6	-19.7	---	---	22.6	E	0.38	25.2	-33.8	---	---	728.2	0.026	0.000	19.8	2	1
03/12/06	7:31 p	-19.6	-19.6	-19.7	---	---	20.9	E	0.35	24.3	-33.3	---	---	728.2	0.026	0.000	19.8	3	1
03/12/06	7:32 p	-19.6	-19.6	-19.7	---	---	25.2	E	0.42	28.7	-34.4	---	---	728.2	0.026	0.000	19.8	3	1
03/12/06	7:33 p	-19.7	-19.6	-19.7	---	---	27.0	ESE	0.45	27.8	-34.8	---	---	728.2	0.026	0.000	19.8	3	1
03/12/06	7:34 p	-19.7	-19.7	-19.7	---	---	27.0	ESE	0.45	29.6	-34.8	---	---	728.2	0.026	0.000	19.8	3	1
03/12/06	7:35 p	-19.7	-19.7	-19.7	---	---	26.1	E	0.43	28.7	-34.7	---	---	728.3	0.026	0.000	19.8	2	1
03/12/06	7:36 p	-19.7	-19.7	-19.7	---	---	22.6	E	0.38	27.0	-33.8	---	---	728.2	0.026	0.000	19.8	3	1
03/12/06	7:37 p	-19.7	-19.7	-19.7	---	---	21.7	E	0.36	24.3	-33.6	---	---	728.2	0.026	0.000	19.8	2	1
03/12/06	7:38 p	-19.7	-19.7	-19.7	---	---	20.0	E	0.33	25.2	-33.2	---	---	727.9	0.026	0.000	19.8	3	1
03/12/06	7:39 p	-19.7	-19.7	-19.7	---	---	19.1	E	0.32	25.2	-32.9	---	---	728.1	0.026	0.000	19.8	3	1
03/12/06	7:40 p	-19.7	-19.6	-19.7	---	---	20.9	E	0.35	24.3	-33.4	---	---	728.1	0.026	0.000	19.8	3	1
03/12/06	7:41 p	-19.7	-19.7	-19.7	---	---	23.5	E	0.39	27.0	-34.1	---	---	728.1	0.026	0.000	19.8	2	1
03/12/06	7:42 p	-19.7	-19.7	-19.7	---	---	25.2	E	0.42	27.8	-34.6	---	---	728.3	0.026	0.000	19.8	3	1
03/12/06	7:43 p	-19.7	-19.7	-19.7	---	---	20.0	E	0.33	23.5	-33.2	---	---	728.2	0.026	0.000	19.8	2	1
03/12/06	7:44 p	-19.7	-19.7	-19.7	---	---	20.0	E	0.33	22.6	-33.2	---	---	728.3	0.026	0.000	19.8	2	1
03/12/06	7:45 p	-19.7	-19.7	-19.7	---	---	20.0	E	0.33	23.5	-33.2	---	---	728.2	0.026	0.000	19.8	3	1
03/12/06	7:46 p	-19.7	-19.7	-19.7	---	---	19.1	E	0.32	24.3	-33.0	---	---	728.3	0.026	0.000	19.8	2	1
03/12/06	7:47 p	-19.7	-19.7	-19.7	---	---	19.1	E	0.32	24.3	-33.0	---	---	728.3	0.026	0.000	19.8	3	1
03/12/06	7:48 p	-19.7	-19.7	-19.7	---	---	19.1	E	0.32	21.7	-33.0	---	---	728.5	0.026	0.000	19.8	2	1
03/12/06	7:49 p	-19.7	-19.7	-19.7	---	---	19.1	E	0.32	21.7	-33.0	---	---	728.4	0.026	0.000	19.8	2	1
03/12/06	7:50 p	-19.7	-19.7	-19.8	---	---	20.9	E	0.35	25.2	-33.5	---	---	728.2	0.026	0.000	19.8	3	1
03/12/06	7:51 p	-19.8	-19.7	-19.8	---	---	22.6	E	0.38	27.8	-34.0	---	---	728.3	0.026	0.000	19.8	2	1
03/12/06	7:52 p	-19.7	-19.7	-19.8	---	---	22.6	E	0.38	27.8	-33.9	---	---	728.2	0.026	0.000	19.8	3	1
03/12/06	7:53 p	-19.7	-19.7	-19.8	---	---	20.0	E	0.33	23.5	-33.2	---	---	728.2	0.026	0.000	19.8	3	1
03/12/06	7:54 p	-19.8	-19.8	-19.8	---	---	19.1	ESE	0.32	27.8	-33.1	---	---	728.4	0.026	0.000	19.8	2	1
03/12/06	7:55 p	-19.8	-19.7	-19.8	---	---	18.3	E	0.30	23.5	-32.8	---	---	728.4	0.026	0.000	19.8	2	1
03/12/06	7:56 p	-19.7	-19.7	-19.8	---	---	18.3	E	0.30	22.6	-32.8	---	---	728.4	0.026	0.000	19.8	2	1
03/12/06	7:57 p	-19.7	-19.7	-19.8	---	---	19.1	E	0.32	24.3	-33.0	---	---	728.2	0.026	0.000	19.8	3	1
03/12/06	7:58 p	-19.7	-19.7	-19.7	---	---	20.9	ESE	0.35	24.3	-33.5	---	---	728.3	0.026	0.000	19.8	3	1
03/12/06	7:59 p	-19.7	-19.7	-19.7	---	---	17.4	E	0.29	22.6	-32.4	---	---	728.3	0.026	0.000	19.8	2	1
03/12/06	8:00 p	-19.7	-19.7	-19.7	---	---	23.5	E	0.39	28.7	-34.1	---	---	728.2	0.026	0.000	19.8	3	1
03/12/06	8:01 p	-19.7	-19.7	-19.7	---	---	24.3	E	0.41	26.1	-34.3	---	---	728.2	0.026	0.000	19.8	3	1
03/12/06	8:02 p	-19.7	-19.6	-19.7	---	---	21.7	E	0.36	25.2	-33.6	---	---	728.3	0.026	0.000	19.8	2	1
03/12/06	8:03 p	-19.7	-19.6	-19.7	---	---	20.9	E	0.35	26.1	-33.4	---	---	728.2	0.026	0.000	19.8	3	1
03/12/06	8:04 p	-19.7	-19.6	-19.7	---	---	22.6	E	0.38	28.7	-33.8	---	---	728.0	0.026	0.000	19.8	3	1
03/12/06	8:05 p	-19.6	-19.6	-19.7	---	---	21.7	E	0.36	27.0	-33.6	---	---	728.2	0.026	0.000	19.8	2	1
03/12/06	8:06 p	-19.6	-19.6	-19.7	---	---	22.6	E	0.38	27.8	-33.8	---	---	728.2	0.026	0.000	19.8	3	1
03/12/06	8:07 p	-19.6	-19.6	-19.6	---	---	21.7	E	0.36	26.1	-33.6	---	---	728.2	0.026	0.000	19.9	3	1
03/12/06	8:08 p	-19.6	-19.6	-19.6	---	---	21.7	E	0.36	25.2	-33.6	---	---	728.3	0.026	0.000	19.9	3	1
03/12/06	8:09 p	-19.6	-19.6	-19.6	---	---	20.9	E	0.35	23.5	-33.3	---	---	728.3	0.026	0.000	19.9	2	1
03/12/06	8:10 p	-19.6	-19.6	-19.6	---	---	20.0	E	0.33	24.3	-33.1	---	---	728.3	0.026	0.000	19.9	3	1
03/12/06	8:11 p	-19.6	-19.6	-19.6	---	---	18.3	E	0.30	21.7	-32.6	---	---	728.3	0.026	0.000	19.9	2	1
03/12/06	8:12 p	-19.6	-19.6	-19.6	---	---	19.1	E	0.32	21.7	-32.8	---	---	728.2	0.026	0.000	19.9	3	1
03/12/06	8:13 p	-19.6	-19.6	-19.6	---	---	19.1	E	0.32	23.5	-32.8	---	---	728.3	0.026	0.000	19.9	2	1
03/12/06	8:14 p	-19.6	-19.6	-19.6	---	---	18.3	E	0.30	20.9	-32.6	---	---	728.3	0.026	0.000	20.0	3	1
03/12/06	8:15 p	-19.6	-19.6	-19.6	---	---	17.4	E	0.29	23.5	-32.3	---	---	728.4	0.026	0.000	20.0	3	1
03/12/06	8:16 p	-19.6	-19.6	-19.6	---	---	21.7	E	0.36	27.0	-33.5	---	---	728.3	0.026	0.000	20.0	3	1
03/12/06	8:17 p	-19.6	-19.6	-19.6	---	---	20.0	E	0.33	25.2	-33.0	---	---	728.4	0.026	0.000	20.1	3	1
03/12/06	8:18 p	-19.6	-19.6	-19.6	---	---	20.9	E	0.35	24.3	-33.3	---	---	728.4	0.026	0.000	20.1	3	1
03/12/06	8:19 p	-19.6	-19.6	-19.6	---	---	20.0	E	0.33	23.5	-33.0	---	---	728.6	0.026	0.000	20.1	3	1
03/12/06	8:20 p	-19.6	-19.6	-19.6	---	---	17.4	E	0.29	20.9	-32.3	---	---	728.5	0.026	0.000	20.1	3	1
03/12/06	8:21 p	-19.6	-19.5	-19.6	---	---	18.3	E	0.30	20.9	-32.6	---	---	728.6	0.026	0.000	20.1	3	1
03/12/06	8:22 p	-19.5	-19.5	-19.6	---	---	18.3	E	0.30	20.9	-32.4	---	---	728.6	0.026	0.000	20.1	3	1
03/12/06	8:23 p	-19.6	-19.5	-19.6	---	---	17.4	E	0.29	21.7	-32.3	---	---	728.7	0.026	0.000	20.1	3	1
03/12/06	8:24 p	-19.5	-19.5	-19.5	---	---	19.1	E	0.32	24.3	-32.7	---	---	728.5	0.026	0.000	20.2	3	1
03/12/06	8:25 p	-19.5	-19.5	-19.6	---	---	20.0	ENE	0.33	24.3	-32.9	---	---	728.5	0.026	0.000	20.2	3	1
03/12/06	8:26 p	-19.5	-19.5	-19.6	---	---	19.1	E	0.32	23.5	-32.7	---	---	728.4	0.026	0.000	20.2	3	1
03/12/06	8:27 p	-19.5	-19.5	-19.6	---	---	21.7	E	0.36	24.3	-33.4	---	---	728.4	0.026	0.000	20.2	4	1
03/12/06	8:28 p	-19.5	-19.5	-19.6	---	---	20.9	E	0.35	23.5	-33.2	---	---	728.5	0.026	0.000	20.2	3	1
03/12/06	8:29 p	-19.6	-19.5	-19.6	---	---	19.1	E	0.32	21.7	-32.8	---	---	728.5	0.026	0.000	20.2	3	1
03/12/06	8:30 p	-19.6	-19.5	-19.6	---	---	21.7	E	0.36	27.0	-33.5	---	---	728.4	0.026	0.000	20.2	3	1
03/12/06	8:31 p	-19.6	-19.5	-19.6	---	---	20.0	ENE	0.33	24.3	-33.0	---	---	728.5	0.026	0.000	20.2	3	1
03/12/06	8:32 p	-19.6	-19.6	-19.6	---	---	21.7	ENE	0.36	25.2	-33.5	---	---	728.4	0.026	0.000	20.2	3	1
03/12/06	8:33 p	-19.6	-19.6	-19.6	---	---	17.4	E	0.29	23.5	-32.3	---	---	728.5	0.026	0.000	20.3	3	1
03/12/06	8:34 p	-19.6	-19.6	-19.6	---	---	20.0	E	0.33	24.3	-33.0	---	---	728.5	0.026	0.000	20.3	3	1
03/12/06	8:35 p	-19.6	-19.6	-19.6	---	---	20.0	E	0.33	23.5	-33.0	---	---	728.5	0.026	0.000	20.3	3	1
03/12/06	8:36 p	-19.6	-19.6	-19.6	---	---	18.3	E	0.30	20.9	-32.6	---	---	728.5	0.026	0.000	20.3	3	1
03/12/06	8:37 p	-19.6	-19.6	-19.6	---	---	20.0	E	0.33	26.1	-33.1	---	---	728.4	0.026	0.000	20.3	3	1
03/12/06	8:38 p	-19.6	-19.6	-19.6	---	---	19.1	E	0.32	22.6	-32.8	---	---	728.5	0.026	0.000	20.3	3	1
03/12/06	8:39 p	-19.6	-19.6	-19.6	---	---	20.9	E	0.35	26.1	-33.3	---	---	728.3	0.026	0.000	20.3	4	1
03/12/06	8:40 p	-19.6	-19.6	-19.6	---	---	20.9	E	0.35	26.1	-33.3	---	---	728.5	0.026	0.000	20.3	3	1
03/12/06	8:41 p	-19.6	-19.6	-19.6	---	---	18.3	E	0.30	22.6	-32.6	---	---	728.5	0.026	0.000	20.3	4	1
03/12/06	8:42 p	-19.6	-19.6	-19.6	---	---	16.5	E	0.28	20.0	-32.1	---	---	728.5	0.026	0.000	20.3	3	1
03/12/06	8:43 p	-19.6	-19.6	-19.6	---	---	20.0	ENE	0.33	22.6	-33.1	---	---	728.6	0.026	0.000	20.3	4	1
03/12/06	8:44 p	-19.6	-19.6	-19.6	---	---	18.3	E	0.30	23.5	-32.6	---	---	728.5	0.026	0.000	20.3	3	1
03/12/06	8:45 p	-19.6	-19.6	-19.6	---	---	20.0	E	0.33	24.3	-33.1	---	---	728.5	0.026	0.000	20.3	3	1
03/12/06	8:46 p	-19.6	-19.6	-19.7	---	---	21.7	E	0.36	28.7	-33.6	---	---	728.4	0.026	0.000	20.3	4	1
03/12/06	8:47 p	-19.7	-19.7	-19.7	---	---	23.5	E	0.39	27.0	-34.1	---	---	728.4	0.026	0.000	20.3	3	1
03/12/06	8:48 p	-19.7	-19.6	-19.7	---	---	17.4	E	0.29	20.0	-32.4	---	---	728.7	0.026	0.000	20.4	4	1
03/12/06	8:49 p	-19.7	-19.7	-19.7	---	---	19.1	E	0.32	21.7	-32.9	---	---	728.6	0.026	0.000	20.4	4	1
03/12/06	8:50 p	-19.7	-19.7	-19.7	---	---	18.3	E	0.30	27.0	-32.7	---	---	728.6	0.026	0.000	20.4	4	1
03/12/06	8:51 p	-19.7	-19.6	-19.7	---	---	18.3	E	0.30	22.6	-32.7	---	---	728.4	0.026	0.000	20.4	4	1
03/12/06	8:52 p	-19.7	-19.7	-19.7	---	---	19.1	E	0.32	24.3	-32.9	---	---	728.6	0.026	0.000	20.4	4	1
03/12/06	8:53 p	-19.7	-19.7	-19.7	---	---	19.1	E	0.32	24.3	-32.9	---	---	728.4	0.026	0.000	20.4	4	1
03/12/06	8:54 p	-19.7	-19.7	-19.7	---	---	20.0	E	0.33	22.6	-33.2	---	---	728.5	0.026	0.000	20.4	4	1
03/12/06	8:55 p	-19.7	-19.7	-19.7	---	---	19.1	E	0.32	21.7	-32.9	---	---	728.5	0.026	0.000	20.4	4	1
03/12/06	8:56 p	-19.7	-19.7	-19.7	---	---	20.0	E	0.33	26.1	-33.2	---	---	728.4	0.026	0.000	20.4	4	1
03/12/06	8:57 p	-19.7	-19.7	-19.7	---	---	23.5	E	0.39	26.1	-34.1	---	---	728.4	0.026	0.000	20.4	4	1
03/12/06	8:58 p	-19.7	-19.7	-19.7	---	---	22.6	E	0.38	30.4	-33.8	---	---	728.4	0.026	0.000	20.4	4	1
03/12/06	8:59 p	-19.7	-19.7	-19.7	---	---	20.9	E	0.35	26.1	-33.4	---	---	728.4	0.026	0.000	20.5	4	1
03/12/06	9:00 p	-19.7	-19.7	-19.7	---	---	20.0	E	0.33	26.1	-33.2	---	---	728.3	0.026	0.000	20.4	4	1
03/12/06	9:01 p	-19.7	-19.7	-19.7	---	---	18.3	E	0.30	21.7	-32.7	---	---	728.6	0.026	0.000	20.5	4	1
03/12/06	9:02 p	-19.7	-19.7	-19.7	---	---	17.4	E	0.29	23.5	-32.4	---	---	728.4	0.026	0.000	20.4	4	1
03/12/06	9:03 p	-19.7	-19.7	-19.7	---	---	20.0	E	0.33	26.1	-33.2	---	---	728.6	0.026	0.000	20.5	4	1
03/12/06	9:04 p	-19.7	-19.7	-19.7	---	---	17.4	E	0.29	21.7	-32.4	---	---	728.6	0.026	0.000	20.5	4	1
03/12/06	9:05 p	-19.7	-19.7	-19.7	---	---	20.0	E	0.33	25.2	-33.2	---	---	728.4	0.026	0.000	20.5	4	1
03/12/06	9:06 p	-19.7	-19.7	-19.7	---	---	20.0	E	0.33	27.0	-33.2	---	---	728.6	0.026	0.000	20.5	4	1
03/12/06	9:07 p	-19.7	-19.7	-19.7	---	---	17.4	E	0.29	26.1	-32.4	---	---	728.4	0.026	0.000	20.5	4	1
03/12/06	9:08 p	-19.7	-19.7	-19.7	---	---	22.6	E	0.38	27.0	-33.8	---	---	728.3	0.026	0.000	20.5	4	1
03/12/06	9:09 p	-19.7	-19.7	-19.7	---	---	20.9	E	0.35	24.3	-33.4	---	---	728.3	0.026	0.000	20.5	4	1
03/12/06	9:10 p	-19.7	-19.7	-19.7	---	---	19.1	E	0.32	26.1	-32.9	---	---	728.5	0.026	0.000	20.5	4	1
03/12/06	9:11 p	-19.7	-19.7	-19.7	---	---	21.7	ENE	0.36	29.6	-33.6	---	---	728.3	0.026	0.000	20.5	4	1
03/12/06	9:12 p	-19.7	-19.7	-19.7	---	---	22.6	E	0.38	28.7	-33.8	---	---	728.4	0.026	0.000	20.5	4	1
03/12/06	9:13 p	-19.7	-19.7	-19.7	---	---	21.7	ENE	0.36	29.6	-33.6	---	---	728.3	0.026	0.000	20.5	4	1
03/12/06	9:14 p	-19.7	-19.7	-19.7	---	---	21.7	E	0.36	26.1	-33.7	---	---	728.3	0.026	0.000	20.5	4	1
03/12/06	9:15 p	-19.7	-19.7	-19.7	---	---	23.5	E	0.39	28.7	-34.1	---	---	728.2	0.026	0.000	20.6	4	1
03/12/06	9:16 p	-19.7	-19.7	-19.7	---	---	22.6	E	0.38	30.4	-33.8	---	---	728.5	0.026	0.000	20.5	4	1
03/12/06	9:17 p	-19.7	-19.7	-19.7	---	---	26.1	ENE	0.43	33.0	-34.7	---	---	728.5	0.026	0.000	20.6	4	1
03/12/06	9:18 p	-19.7	-19.7	-19.7	---	---	20.9	E	0.35	23.5	-33.4	---	---	728.5	0.026	0.000	20.6	4	1
03/12/06	9:19 p	-19.7	-19.7	-19.7	---	---	22.6	E	0.38	28.7	-33.8	---	---	728.5	0.026	0.000	20.6	4	1
03/12/06	9:20 p	-19.7	-19.7	-19.7	---	---	23.5	E	0.39	27.8	-34.1	---	---	728.5	0.026	0.000	20.6	4	1
03/12/06	9:21 p	-19.7	-19.7	-19.7	---	---	24.3	E	0.41	27.0	-34.3	---	---	728.4	0.026	0.000	20.6	4	1
03/12/06	9:22 p	-19.7	-19.7	-19.7	---	---	26.1	E	0.43	32.2	-34.7	---	---	728.3	0.026	0.000	20.6	4	1
03/12/06	9:23 p	-19.7	-19.7	-19.7	---	---	27.8	E	0.46	33.9	-35.0	---	---	728.4	0.026	0.000	20.6	4	1
03/12/06	9:24 p	-19.7	-19.7	-19.7	---	---	26.1	ESE	0.43	45.2	-34.7	---	---	728.0	0.026	0.000	20.5	4	1
03/12/06	9:25 p	-19.7	-19.7	-19.7	---	---	25.2	E	0.42	29.6	-34.4	---	---	728.1	0.026	0.000	20.5	4	1
03/12/06	9:26 p	-19.7	-19.7	-19.7	---	---	24.3	E	0.41	34.8	-34.3	---	---	728.2	0.026	0.000	20.4	4	1
03/12/06	9:27 p	-19.6	-19.6	-19.6	---	---	23.5	ENE	0.39	29.6	-34.0	---	---	728.1	0.026	0.000	20.4	4	1
03/12/06	9:28 p	-19.6	-19.6	-19.7	---	---	26.1	E	0.43	31.3	-34.6	---	---	728.0	0.026	0.000	20.4	4	1
03/12/06	9:29 p	-19.7	-19.7	-19.7	---	---	23.5	E	0.39	30.4	-34.1	---	---	728.0	0.026	0.000	20.4	4	1
03/12/06	9:30 p	-19.7	-19.6	-19.7	---	---	33.9	E	0.57	40.0	-36.2	---	---	728.0	0.026	0.000	20.4	4	1
03/12/06	9:31 p	-19.7	-19.7	-19.7	---	---	30.4	E	0.51	33.9	-35.6	---	---	728.3	0.026	0.000	20.3	4	1
03/12/06	9:32 p	-19.7	-19.7	-19.7	---	---	27.8	E	0.46	31.3	-35.0	---	---	728.3	0.026	0.000	20.3	4	1
03/12/06	9:33 p	-19.7	-19.7	-19.7	---	---	30.4	E	0.51	33.9	-35.6	---	---	728.3	0.026	0.000	20.3	3	1
03/12/06	9:34 p	-19.7	-19.7	-19.7	---	---	26.1	E	0.43	31.3	-34.7	---	---	728.2	0.026	0.000	20.3	4	1
03/12/06	9:35 p	-19.7	-19.7	-19.7	---	---	21.7	E	0.36	27.0	-33.6	---	---	728.4	0.026	0.000	20.3	3	1
03/12/06	9:36 p	-19.7	-19.7	-19.7	---	---	26.1	ENE	0.43	36.5	-34.7	---	---	728.5	0.026	0.000	20.3	3	1
03/12/06	9:37 p	-19.7	-19.7	-19.7	---	---	15.7	ENE	0.26	20.0	-31.9	---	---	728.5	0.026	0.000	20.3	3	1
03/12/06	9:38 p	-19.7	-19.7	-19.7	---	---	24.3	E	0.41	32.2	-34.3	---	---	728.3	0.026	0.000	20.3	3	1
03/12/06	9:39 p	-19.7	-19.7	-19.7	---	---	26.1	E	0.43	32.2	-34.7	---	---	728.2	0.026	0.000	20.3	4	1
03/12/06	9:40 p	-19.8	-19.7	-19.8	---	---	26.1	E	0.43	30.4	-34.8	---	---	728.3	0.026	0.000	20.3	3	1
03/12/06	9:41 p	-19.8	-19.8	-19.8	---	---	23.5	E	0.39	27.8	-34.2	---	---	728.4	0.026	0.000	20.3	3	1
03/12/06	9:42 p	-19.8	-19.8	-19.8	---	---	25.2	ENE	0.42	29.6	-34.6	---	---	728.2	0.026	0.000	20.3	3	1
03/12/06	9:43 p	-19.8	-19.8	-19.8	---	---	23.5	ENE	0.39	31.3	-34.2	---	---	728.3	0.026	0.000	20.3	3	1
03/12/06	9:44 p	-19.8	-19.8	-19.8	---	---	12.2	E	0.20	15.7	-30.7	---	---	728.5	0.026	0.000	20.3	3	1
03/12/06	9:45 p	-19.8	-19.8	-19.8	---	---	26.1	SE	0.43	34.8	-34.8	---	---	728.0	0.026	0.000	20.3	3	1
03/12/06	9:46 p	-19.8	-19.8	-19.8	---	---	25.2	E	0.42	34.8	-34.6	---	---	728.1	0.026	0.000	20.3	3	1
03/12/06	9:47 p	-19.8	-19.8	-19.8	---	---	25.2	E	0.42	31.3	-34.6	---	---	728.1	0.026	0.000	20.3	3	1
03/12/06	9:48 p	-19.8	-19.8	-19.8	---	---	23.5	E	0.39	29.6	-34.3	---	---	728.3	0.027	0.000	20.3	3	1
03/12/06	9:49 p	-19.8	-19.8	-19.8	---	---	25.2	E	0.42	32.2	-34.7	---	---	728.1	0.027	0.000	20.3	3	1
03/12/06	9:50 p	-19.8	-19.8	-19.8	---	---	24.3	E	0.41	27.8	-34.5	---	---	728.1	0.027	0.000	20.3	3	1
03/12/06	9:51 p	-19.8	-19.8	-19.8	---	---	26.1	E	0.43	32.2	-34.9	---	---	728.1	0.027	0.000	20.3	3	1
03/12/06	9:52 p	-19.9	-19.9	-19.9	---	---	26.1	E	0.43	35.7	-34.9	---	---	728.2	0.027	0.000	20.3	3	1
03/12/06	9:53 p	-19.9	-19.9	-19.9	---	---	25.2	E	0.42	27.8	-34.8	---	---	728.1	0.027	0.000	20.3	3	1
03/12/06	9:54 p	-19.9	-19.9	-19.9	---	---	26.1	E	0.43	27.8	-35.1	---	---	728.1	0.027	0.000	20.3	3	1
03/12/06	9:55 p	-19.9	-19.9	-19.9	---	---	24.3	E	0.41	28.7	-34.7	---	---	728.1	0.027	0.000	20.2	3	1
03/12/06	9:56 p	-20.0	-19.9	-20.0	---	---	24.3	E	0.41	28.7	-34.7	---	---	728.1	0.027	0.000	20.2	3	1
03/12/06	9:57 p	-20.0	-20.0	-20.0	---	---	28.7	E	0.48	32.2	-35.7	---	---	728.0	0.027	0.000	20.2	3	1
03/12/06	9:58 p	-20.0	-20.0	-20.0	---	---	24.3	E	0.41	28.7	-34.7	---	---	728.0	0.027	0.000	20.2	3	1
03/12/06	9:59 p	-20.0	-20.0	-20.1	---	---	26.1	E	0.43	30.4	-35.1	---	---	728.0	0.027	0.000	20.2	3	1
03/12/06	10:00 p	-20.1	-20.0	-20.1	---	---	22.6	E	0.38	27.0	-34.4	---	---	728.2	0.027	0.000	20.2	3	1
03/12/06	10:01 p	-20.1	-20.0	-20.1	---	---	21.7	E	0.36	27.8	-34.2	---	---	728.1	0.027	0.000	20.2	3	1
03/12/06	10:02 p	-20.1	-20.1	-20.1	---	---	25.2	E	0.42	29.6	-35.0	---	---	728.2	0.027	0.000	20.2	3	1
03/12/06	10:03 p	-20.1	-20.1	-20.1	---	---	25.2	E	0.42	28.7	-35.1	---	---	728.2	0.027	0.000	20.2	3	1
03/12/06	10:04 p	-20.1	-20.1	-20.1	---	---	27.8	ENE	0.46	34.8	-35.6	---	---	728.1	0.027	0.000	20.2	3	1
03/12/06	10:05 p	-20.1	-20.1	-20.2	---	---	26.1	E	0.43	31.3	-35.3	---	---	728.2	0.027	0.000	20.2	3	1
03/12/06	10:06 p	-20.2	-20.1	-20.2	---	---	27.8	E	0.46	33.9	-35.7	---	---	728.3	0.027	0.000	20.2	3	1
03/12/06	10:07 p	-20.2	-20.2	-20.2	---	---	25.2	E	0.42	28.7	-35.2	---	---	728.3	0.027	0.000	20.2	3	1
03/12/06	10:08 p	-20.2	-20.2	-20.2	---	---	27.8	ENE	0.46	33.0	-35.7	---	---	728.1	0.027	0.000	20.2	3	1
03/12/06	10:09 p	-20.2	-20.2	-20.2	---	---	23.5	E	0.39	27.8	-34.8	---	---	728.4	0.027	0.000	20.2	3	1
03/12/06	10:10 p	-20.2	-20.2	-20.2	---	---	23.5	E	0.39	30.4	-34.8	---	---	728.3	0.027	0.000	20.2	3	1
03/12/06	10:11 p	-20.2	-20.2	-20.2	---	---	23.5	ENE	0.39	27.8	-34.8	---	---	728.4	0.027	0.000	20.2	3	1
03/12/06	10:12 p	-20.2	-20.2	-20.2	---	---	20.9	E	0.35	24.3	-34.2	---	---	728.5	0.027	0.000	20.2	3	1
03/12/06	10:13 p	-20.2	-20.2	-20.3	---	---	22.6	E	0.38	26.1	-34.6	---	---	728.4	0.027	0.000	20.2	3	1
03/12/06	10:14 p	-20.3	-20.2	-20.3	---	---	20.9	E	0.35	27.0	-34.2	---	---	728.5	0.027	0.000	20.2	3	1
03/12/06	10:15 p	-20.3	-20.3	-20.3	---	---	22.6	ESE	0.38	31.3	-34.7	---	---	728.3	0.027	0.000	20.1	3	1
03/12/06	10:16 p	-20.3	-20.3	-20.3	---	---	20.9	E	0.35	27.0	-34.2	---	---	728.3	0.027	0.000	20.2	3	1
03/12/06	10:17 p	-20.3	-20.3	-20.3	---	---	22.6	E	0.38	27.0	-34.7	---	---	728.4	0.027	0.000	20.2	3	1
03/12/06	10:18 p	-20.3	-20.3	-20.3	---	---	22.6	E	0.38	27.8	-34.7	---	---	728.4	0.027	0.000	20.2	3	1
03/12/06	10:19 p	-20.3	-20.3	-20.3	---	---	27.8	E	0.46	31.3	-35.9	---	---	728.4	0.027	0.000	20.2	3	1
03/12/06	10:20 p	-20.3	-20.3	-20.3	---	---	19.1	E	0.32	25.2	-33.7	---	---	728.3	0.027	0.000	20.1	3	1
03/12/06	10:21 p	-20.3	-20.3	-20.3	---	---	20.9	E	0.35	27.0	-34.3	---	---	728.3	0.027	0.000	20.1	3	1
03/12/06	10:22 p	-20.3	-20.3	-20.3	---	---	23.5	E	0.39	29.6	-34.9	---	---	728.4	0.027	0.000	20.1	3	1
03/12/06	10:23 p	-20.3	-20.3	-20.3	---	---	20.9	E	0.35	28.7	-34.3	---	---	728.4	0.027	0.000	20.1	3	1
03/12/06	10:24 p	-20.4	-20.3	-20.4	---	---	22.6	E	0.38	27.8	-34.8	---	---	728.6	0.027	0.000	20.1	3	1
03/12/06	10:25 p	-20.3	-20.3	-20.4	---	---	21.7	E	0.36	27.8	-34.5	---	---	728.5	0.027	0.000	20.2	3	1
03/12/06	10:26 p	-20.3	-20.3	-20.4	---	---	20.0	E	0.33	26.1	-34.1	---	---	728.5	0.027	0.000	20.2	3	1
03/12/06	10:27 p	-20.4	-20.3	-20.4	---	---	23.5	E	0.39	27.0	-35.1	---	---	728.5	0.027	0.000	20.2	3	1
03/12/06	10:28 p	-20.3	-20.3	-20.3	---	---	20.9	E	0.35	25.2	-34.3	---	---	728.4	0.027	0.000	20.2	3	1
03/12/06	10:29 p	-20.3	-20.3	-20.4	---	---	19.1	E	0.32	24.3	-33.8	---	---	728.4	0.027	0.000	20.2	3	1
03/12/06	10:30 p	-20.3	-20.3	-20.3	---	---	22.6	E	0.38	27.8	-34.7	---	---	728.3	0.027	0.000	20.2	3	1
03/12/06	10:31 p	-20.3	-20.3	-20.3	---	---	24.3	E	0.41	27.8	-35.2	---	---	728.2	0.027	0.000	20.2	3	1
03/12/06	10:32 p	-20.3	-20.3	-20.3	---	---	23.5	E	0.39	26.1	-34.9	---	---	728.1	0.027	0.000	20.2	3	1
03/12/06	10:33 p	-20.3	-20.3	-20.3	---	---	23.5	E	0.39	28.7	-34.9	---	---	728.2	0.027	0.000	20.2	3	1
03/12/06	10:34 p	-20.3	-20.3	-20.4	---	---	27.0	E	0.45	32.2	-35.8	---	---	728.0	0.027	0.000	20.2	3	1
03/12/06	10:35 p	-20.4	-20.3	-20.4	---	---	28.7	E	0.48	32.2	-36.2	---	---	728.0	0.027	0.000	20.2	3	1
03/12/06	10:36 p	-20.4	-20.4	-20.4	---	---	25.2	E	0.42	32.2	-35.4	---	---	728.2	0.027	0.000	20.2	3	1
03/12/06	10:37 p	-20.4	-20.3	-20.4	---	---	26.1	E	0.43	29.6	-35.6	---	---	728.1	0.027	0.000	20.2	3	1
03/12/06	10:38 p	-20.4	-20.4	-20.4	---	---	25.2	E	0.42	28.7	-35.4	---	---	728.2	0.027	0.000	20.2	3	1
03/12/06	10:39 p	-20.4	-20.4	-20.4	---	---	23.5	E	0.39	27.8	-35.1	---	---	728.3	0.027	0.000	20.2	3	1
03/12/06	10:40 p	-20.4	-20.4	-20.4	---	---	23.5	E	0.39	27.0	-35.1	---	---	728.2	0.027	0.000	20.2	3	1
03/12/06	10:41 p	-20.4	-20.4	-20.4	---	---	22.6	E	0.38	25.2	-34.8	---	---	728.2	0.027	0.000	20.1	3	1
03/12/06	10:42 p	-20.4	-20.4	-20.4	---	---	20.9	E	0.35	27.8	-34.4	---	---	728.2	0.027	0.000	20.1	3	1
03/12/06	10:43 p	-20.4	-20.4	-20.4	---	---	20.9	E	0.35	24.3	-34.4	---	---	728.2	0.027	0.000	20.1	3	1
03/12/06	10:44 p	-20.4	-20.3	-20.4	---	---	24.3	E	0.41	27.0	-35.2	---	---	728.0	0.027	0.000	20.1	3	1
03/12/06	10:45 p	-20.4	-20.4	-20.4	---	---	21.7	E	0.36	26.1	-34.6	---	---	728.3	0.027	0.000	20.1	3	1
03/12/06	10:46 p	-20.4	-20.4	-20.4	---	---	20.0	E	0.33	26.1	-34.1	---	---	728.3	0.027	0.000	20.1	3	1
03/12/06	10:47 p	-20.3	-20.3	-20.3	---	---	21.7	E	0.36	27.8	-34.5	---	---	728.3	0.027	0.000	20.1	3	1
03/12/06	10:48 p	-20.4	-20.4	-20.4	---	---	20.9	E	0.35	26.1	-34.4	---	---	728.4	0.027	0.000	20.1	3	1
03/12/06	10:49 p	-20.4	-20.4	-20.4	---	---	19.1	E	0.32	23.5	-33.9	---	---	728.4	0.027	0.000	20.1	3	1
03/12/06	10:50 p	-20.3	-20.3	-20.4	---	---	20.0	E	0.33	24.3	-34.1	---	---	728.5	0.027	0.000	20.1	3	1
03/12/06	10:51 p	-20.3	-20.3	-20.3	---	---	22.6	E	0.38	26.1	-34.7	---	---	728.3	0.027	0.000	20.1	3	1
03/12/06	10:52 p	-20.3	-20.3	-20.4	---	---	25.2	E	0.42	28.7	-35.4	---	---	728.3	0.027	0.000	20.1	3	1
03/12/06	10:53 p	-20.4	-20.3	-20.4	---	---	21.7	E	0.36	27.0	-34.6	---	---	728.3	0.027	0.000	20.1	3	1
03/12/06	10:54 p	-20.4	-20.3	-20.4	---	---	21.7	E	0.36	28.7	-34.6	---	---	728.2	0.027	0.000	20.1	3	1
03/12/06	10:55 p	-20.4	-20.3	-20.4	---	---	24.3	E	0.41	27.0	-35.2	---	---	728.3	0.027	0.000	20.1	3	1
03/12/06	10:56 p	-20.4	-20.3	-20.4	---	---	22.6	E	0.38	27.0	-34.8	---	---	728.1	0.027	0.000	20.1	3	1
03/12/06	10:57 p	-20.3	-20.3	-20.3	---	---	24.3	E	0.41	28.7	-35.2	---	---	728.0	0.027	0.000	20.1	3	1
03/12/06	10:58 p	-20.3	-20.3	-20.4	---	---	20.9	E	0.35	26.1	-34.3	---	---	728.2	0.027	0.000	20.1	3	1
03/12/06	10:59 p	-20.3	-20.3	-20.4	---	---	24.3	E	0.41	27.8	-35.2	---	---	728.2	0.027	0.000	20.1	3	1
03/12/06	11:00 p	-20.3	-20.3	-20.3	---	---	24.3	E	0.41	27.8	-35.2	---	---	728.3	0.027	0.000	20.1	3	1
03/12/06	11:01 p	-20.3	-20.3	-20.3	---	---	24.3	E	0.41	27.8	-35.2	---	---	728.2	0.027	0.000	20.1	3	1
03/12/06	11:02 p	-20.3	-20.3	-20.3	---	---	24.3	E	0.41	29.6	-35.2	---	---	728.3	0.027	0.000	20.1	3	1
03/12/06	11:03 p	-20.3	-20.3	-20.3	---	---	20.9	E	0.35	24.3	-34.3	---	---	728.3	0.027	0.000	20.1	2	1
03/12/06	11:04 p	-20.3	-20.3	-20.3	---	---	22.6	E	0.38	26.1	-34.7	---	---	728.3	0.027	0.000	20.1	3	1
03/12/06	11:05 p	-20.3	-20.3	-20.3	---	---	23.5	E	0.39	27.0	-34.9	---	---	728.4	0.027	0.000	20.1	2	1
03/12/06	11:06 p	-20.3	-20.3	-20.3	---	---	21.7	E	0.36	24.3	-34.5	---	---	728.4	0.027	0.000	20.1	2	1
03/12/06	11:07 p	-20.3	-20.3	-20.3	---	---	21.7	E	0.36	27.0	-34.4	---	---	728.2	0.027	0.000	20.1	2	1
03/12/06	11:08 p	-20.3	-20.3	-20.3	---	---	21.7	E	0.36	26.1	-34.4	---	---	728.4	0.027	0.000	20.1	2	1
03/12/06	11:09 p	-20.3	-20.3	-20.3	---	---	22.6	E	0.38	26.1	-34.7	---	---	728.5	0.027	0.000	20.1	2	1
03/12/06	11:10 p	-20.3	-20.3	-20.3	---	---	21.7	E	0.36	26.1	-34.4	---	---	728.4	0.027	0.000	20.1	2	1
03/12/06	11:11 p	-20.3	-20.3	-20.3	---	---	22.6	E	0.38	27.8	-34.7	---	---	728.3	0.027	0.000	20.1	2	1
03/12/06	11:12 p	-20.3	-20.3	-20.3	---	---	20.9	E	0.35	27.8	-34.3	---	---	728.3	0.027	0.000	20.1	3	1
03/12/06	11:13 p	-20.3	-20.3	-20.3	---	---	21.7	E	0.36	25.2	-34.4	---	---	728.3	0.027	0.000	20.1	2	1
03/12/06	11:14 p	-20.3	-20.3	-20.3	---	---	21.7	E	0.36	27.0	-34.4	---	---	728.3	0.027	0.000	20.1	2	1
03/12/06	11:15 p	-20.3	-20.3	-20.3	---	---	23.5	E	0.39	28.7	-34.9	---	---	728.2	0.027	0.000	20.1	2	1
03/12/06	11:16 p	-20.3	-20.3	-20.3	---	---	22.6	E	0.38	30.4	-34.7	---	---	728.2	0.027	0.000	20.1	3	1
03/12/06	11:17 p	-20.3	-20.3	-20.3	---	---	20.0	E	0.33	23.5	-34.0	---	---	728.3	0.027	0.000	20.1	2	1
03/12/06	11:18 p	-20.3	-20.3	-20.3	---	---	20.9	E	0.35	28.7	-34.2	---	---	728.4	0.027	0.000	20.1	2	1
03/12/06	11:19 p	-20.3	-20.3	-20.3	---	---	20.0	E	0.33	24.3	-34.0	---	---	728.3	0.027	0.000	20.1	2	1
03/12/06	11:20 p	-20.3	-20.3	-20.3	---	---	20.9	E	0.35	23.5	-34.2	---	---	728.3	0.027	0.000	20.1	2	1
03/12/06	11:21 p	-20.3	-20.3	-20.3	---	---	20.9	E	0.35	22.6	-34.2	---	---	728.2	0.027	0.000	20.1	2	1
03/12/06	11:22 p	-20.3	-20.3	-20.3	---	---	20.0	E	0.33	22.6	-34.0	---	---	728.3	0.027	0.000	20.1	2	1
03/12/06	11:23 p	-20.3	-20.3	-20.3	---	---	23.5	E	0.39	27.0	-34.9	---	---	728.3	0.027	0.000	20.1	3	1
03/12/06	11:24 p	-20.3	-20.2	-20.3	---	---	20.9	E	0.35	24.3	-34.2	---	---	728.2	0.027	0.000	20.1	2	1
03/12/06	11:25 p	-20.3	-20.2	-20.3	---	---	22.6	E	0.38	28.7	-34.7	---	---	728.2	0.027	0.000	20.1	2	1
03/12/06	11:26 p	-20.3	-20.3	-20.3	---	---	24.3	E	0.41	29.6	-35.1	---	---	728.1	0.027	0.000	20.1	2	1
03/12/06	11:27 p	-20.3	-20.2	-20.3	---	---	25.2	E	0.42	29.6	-35.3	---	---	727.9	0.027	0.000	20.1	2	1
03/12/06	11:28 p	-20.3	-20.2	-20.3	---	---	23.5	E	0.39	25.2	-34.9	---	---	728.1	0.027	0.000	20.1	2	1
03/12/06	11:29 p	-20.2	-20.2	-20.3	---	---	22.6	E	0.38	27.0	-34.6	---	---	728.1	0.027	0.000	20.1	2	1
03/12/06	11:30 p	-20.2	-20.2	-20.3	---	---	24.3	E	0.41	29.6	-35.0	---	---	728.2	0.027	0.000	20.1	2	1
03/12/06	11:31 p	-20.2	-20.2	-20.2	---	---	20.0	E	0.33	24.3	-33.9	---	---	728.1	0.027	0.000	20.1	2	1
03/12/06	11:32 p	-20.2	-20.2	-20.3	---	---	24.3	E	0.41	27.8	-35.0	---	---	728.1	0.027	0.000	20.1	2	1
03/12/06	11:33 p	-20.2	-20.2	-20.3	---	---	20.9	E	0.35	24.3	-34.2	---	---	728.2	0.027	0.000	20.1	2	1
03/12/06	11:34 p	-20.2	-20.2	-20.3	---	---	23.5	E	0.39	28.7	-34.8	---	---	728.2	0.027	0.000	20.1	2	1
03/12/06	11:35 p	-20.2	-20.2	-20.2	---	---	21.7	E	0.36	25.2	-34.4	---	---	728.1	0.027	0.000	20.1	2	1
03/12/06	11:36 p	-20.2	-20.2	-20.2	---	---	21.7	E	0.36	26.1	-34.4	---	---	728.2	0.027	0.000	20.1	2	1
03/12/06	11:37 p	-20.2	-20.2	-20.2	---	---	25.2	E	0.42	29.6	-35.2	---	---	728.1	0.027	0.000	20.1	2	1
03/12/06	11:38 p	-20.2	-20.2	-20.2	---	---	24.3	E	0.41	28.7	-35.0	---	---	728.2	0.027	0.000	20.1	2	1
03/12/06	11:39 p	-20.2	-20.2	-20.2	---	---	22.6	E	0.38	27.0	-34.6	---	---	728.2	0.027	0.000	20.0	2	1
03/12/06	11:40 p	-20.2	-20.2	-20.2	---	---	24.3	E	0.41	27.8	-35.0	---	---	728.2	0.027	0.000	20.0	2	1
03/12/06	11:41 p	-20.2	-20.2	-20.2	---	---	23.5	E	0.39	26.1	-34.8	---	---	728.1	0.027	0.000	20.0	2	1
03/12/06	11:42 p	-20.2	-20.2	-20.2	---	---	22.6	E	0.38	25.2	-34.6	---	---	728.2	0.027	0.000	20.0	2	1
03/12/06	11:43 p	-20.2	-20.2	-20.2	---	---	20.0	E	0.33	27.0	-33.9	---	---	728.3	0.027	0.000	20.0	2	1
03/12/06	11:44 p	-20.2	-20.2	-20.2	---	---	16.5	E	0.28	21.7	-32.9	---	---	728.3	0.027	0.000	20.0	2	1
03/12/06	11:45 p	-20.2	-20.2	-20.2	---	---	20.9	E	0.35	27.0	-34.2	---	---	728.3	0.027	0.000	20.0	2	1
03/12/06	11:46 p	-20.2	-20.2	-20.2	---	---	23.5	E	0.39	27.8	-34.8	---	---	728.3	0.027	0.000	20.0	2	1
03/12/06	11:47 p	-20.2	-20.2	-20.2	---	---	21.7	E	0.36	26.1	-34.4	---	---	728.3	0.027	0.000	20.0	2	1
03/12/06	11:48 p	-20.2	-20.2	-20.2	---	---	20.9	E	0.35	23.5	-34.2	---	---	728.3	0.027	0.000	20.0	2	1
03/12/06	11:49 p	-20.2	-20.2	-20.2	---	---	20.9	E	0.35	25.2	-34.2	---	---	728.4	0.027	0.000	20.0	2	1
03/12/06	11:50 p	-20.2	-20.2	-20.2	---	---	20.0	E	0.33	21.7	-33.9	---	---	728.3	0.027	0.000	20.0	2	1
03/12/06	11:51 p	-20.2	-20.2	-20.2	---	---	21.7	E	0.36	24.3	-34.4	---	---	728.2	0.027	0.000	20.0	2	1
03/12/06	11:52 p	-20.2	-20.2	-20.2	---	---	19.1	E	0.32	24.3	-33.7	---	---	728.3	0.027	0.000	20.0	2	1
03/12/06	11:53 p	-20.2	-20.2	-20.2	---	---	17.4	E	0.29	22.6	-33.2	---	---	728.3	0.027	0.000	20.0	2	1
03/12/06	11:54 p	-20.2	-20.2	-20.2	---	---	21.7	E	0.36	24.3	-34.3	---	---	728.3	0.027	0.000	20.0	2	1
03/12/06	11:55 p	-20.2	-20.2	-20.2	---	---	20.0	E	0.33	25.2	-33.9	---	---	728.5	0.027	0.000	20.0	2	1
03/12/06	11:56 p	-20.2	-20.2	-20.2	---	---	20.0	E	0.33	24.3	-33.8	---	---	728.3	0.027	0.000	20.0	2	1
03/12/06	11:57 p	-20.2	-20.2	-20.2	---	---	20.0	E	0.33	25.2	-33.8	---	---	728.3	0.027	0.000	20.0	2	1
03/12/06	11:58 p	-20.2	-20.2	-20.2	---	---	22.6	E	0.38	26.1	-34.5	---	---	728.2	0.027	0.000	20.0	2	1
03/12/06	11:59 p	-20.2	-20.2	-20.2	---	---	20.9	E	0.35	23.5	-34.1	---	---	728.3	0.027	0.000	20.0	2	1
03/13/06	12:00 a	-20.2	-20.2	-20.2	---	---	19.1	E	0.32	23.5	-33.6	---	---	728.4	0.027	0.000	20.0	2	1
03/13/06	12:01 a	-20.2	-20.2	-20.2	---	---	20.0	E	0.33	24.3	-33.8	---	---	728.2	0.027	0.000	20.0	2	1
03/13/06	12:02 a	-20.2	-20.2	-20.2	---	---	19.1	E	0.32	24.3	-33.6	---	---	728.2	0.027	0.000	20.1	2	1
03/13/06	12:03 a	-20.2	-20.2	-20.2	---	---	22.6	E	0.38	26.1	-34.5	---	---	728.2	0.027	0.000	20.1	2	1
03/13/06	12:04 a	-20.2	-20.2	-20.2	---	---	20.0	E	0.33	24.3	-33.8	---	---	728.2	0.027	0.000	20.1	2	1
03/13/06	12:05 a	-20.2	-20.2	-20.2	---	---	19.1	E	0.32	23.5	-33.6	---	---	728.4	0.027	0.000	20.1	2	1
03/13/06	12:06 a	-20.2	-20.1	-20.2	---	---	18.3	E	0.30	22.6	-33.3	---	---	728.4	0.027	0.000	20.1	2	1
03/13/06	12:07 a	-20.1	-20.1	-20.2	---	---	18.3	ENE	0.30	22.6	-33.3	---	---	728.3	0.027	0.000	20.1	2	1
03/13/06	12:08 a	-20.2	-20.1	-20.2	---	---	18.3	ENE	0.30	21.7	-33.3	---	---	728.4	0.027	0.000	20.1	2	1
03/13/06	12:09 a	-20.1	-20.1	-20.1	---	---	17.4	E	0.29	20.0	-33.0	---	---	728.4	0.027	0.000	20.1	2	1
03/13/06	12:10 a	-20.1	-20.1	-20.1	---	---	19.1	E	0.32	21.7	-33.5	---	---	728.5	0.027	0.000	20.1	2	1
03/13/06	12:11 a	-20.1	-20.1	-20.1	---	---	20.9	ENE	0.35	23.5	-34.0	---	---	728.4	0.027	0.000	20.1	2	1
03/13/06	12:12 a	-20.1	-20.1	-20.1	---	---	18.3	E	0.30	22.6	-33.3	---	---	728.3	0.027	0.000	20.1	2	1
03/13/06	12:13 a	-20.1	-20.1	-20.1	---	---	16.5	E	0.28	20.0	-32.7	---	---	728.4	0.027	0.000	20.1	2	1
03/13/06	12:14 a	-20.1	-20.1	-20.1	---	---	17.4	E	0.29	21.7	-33.0	---	---	728.4	0.027	0.000	20.1	2	1
03/13/06	12:15 a	-20.1	-20.1	-20.1	---	---	18.3	E	0.30	20.9	-33.2	---	---	728.4	0.027	0.000	20.1	2	1
03/13/06	12:16 a	-20.1	-20.1	-20.1	---	---	18.3	ENE	0.30	21.7	-33.2	---	---	728.5	0.027	0.000	20.1	2	1
03/13/06	12:17 a	-20.1	-20.1	-20.1	---	---	18.3	ENE	0.30	22.6	-33.2	---	---	728.4	0.027	0.000	20.1	2	1
03/13/06	12:18 a	-20.1	-20.1	-20.1	---	---	19.1	ENE	0.32	20.9	-33.4	---	---	728.5	0.027	0.000	20.1	2	1
03/13/06	12:19 a	-20.1	-20.0	-20.1	---	---	19.1	ENE	0.32	21.7	-33.4	---	---	728.4	0.027	0.000	20.1	2	1
03/13/06	12:20 a	-20.0	-20.0	-20.1	---	---	19.1	E	0.32	21.7	-33.4	---	---	728.4	0.027	0.000	20.1	2	1
03/13/06	12:21 a	-20.0	-20.0	-20.0	---	---	20.0	ENE	0.33	23.5	-33.6	---	---	728.4	0.027	0.000	20.1	2	1
03/13/06	12:22 a	-20.0	-20.0	-20.0	---	---	18.3	ENE	0.30	21.7	-33.1	---	---	728.5	0.027	0.000	20.1	2	1
03/13/06	12:23 a	-20.0	-20.0	-20.0	---	---	17.4	E	0.29	22.6	-32.8	---	---	728.3	0.027	0.000	20.1	2	1
03/13/06	12:24 a	-20.0	-20.0	-20.0	---	---	19.1	ENE	0.32	23.5	-33.4	---	---	728.3	0.027	0.000	20.0	2	1
03/13/06	12:25 a	-19.9	-19.9	-20.0	---	---	19.1	ENE	0.32	22.6	-33.3	---	---	728.3	0.027	0.000	20.0	2	1
03/13/06	12:26 a	-19.9	-19.9	-20.0	---	---	20.0	ENE	0.33	21.7	-33.6	---	---	728.3	0.027	0.000	20.0	2	1
03/13/06	12:27 a	-19.9	-19.9	-19.9	---	---	20.0	ENE	0.33	21.7	-33.6	---	---	728.3	0.027	0.000	20.0	2	1
03/13/06	12:28 a	-19.9	-19.9	-19.9	---	---	20.9	ENE	0.35	24.3	-33.8	---	---	728.4	0.027	0.000	20.0	2	1
03/13/06	12:29 a	-19.9	-19.9	-19.9	---	---	20.0	E	0.33	22.6	-33.4	---	---	728.5	0.027	0.000	20.0	2	1
03/13/06	12:30 a	-19.8	-19.8	-19.9	---	---	18.3	ENE	0.30	20.0	-32.9	---	---	728.5	0.027	0.000	20.0	2	1
03/13/06	12:31 a	-19.8	-19.8	-19.8	---	---	17.4	ENE	0.29	20.9	-32.6	---	---	728.4	0.027	0.000	20.0	2	1
03/13/06	12:32 a	-19.8	-19.8	-19.8	---	---	17.4	ENE	0.29	20.0	-32.6	---	---	728.4	0.027	0.000	20.0	2	1
03/13/06	12:33 a	-19.8	-19.8	-19.8	---	---	16.5	ENE	0.28	19.1	-32.4	---	---	728.5	0.027	0.000	20.0	2	1
03/13/06	12:34 a	-19.8	-19.8	-19.8	---	---	15.7	ENE	0.26	20.0	-32.0	---	---	728.2	0.026	0.000	20.0	2	1
03/13/06	12:35 a	-19.8	-19.7	-19.8	---	---	14.8	E	0.25	20.0	-31.7	---	---	728.3	0.026	0.000	20.0	2	1
03/13/06	12:36 a	-19.8	-19.7	-19.8	---	---	18.3	E	0.30	21.7	-32.8	---	---	728.4	0.026	0.000	20.0	2	1
03/13/06	12:37 a	-19.7	-19.7	-19.7	---	---	17.4	E	0.29	19.1	-32.5	---	---	728.4	0.026	0.000	20.0	2	1
03/13/06	12:38 a	-19.7	-19.7	-19.7	---	---	15.7	E	0.26	18.3	-31.9	---	---	728.4	0.026	0.000	20.0	2	1
03/13/06	12:39 a	-19.7	-19.7	-19.7	---	---	15.7	E	0.26	20.0	-31.9	---	---	728.4	0.026	0.000	20.0	2	1
03/13/06	12:40 a	-19.6	-19.6	-19.7	---	---	12.2	ENE	0.20	16.5	-30.5	---	---	728.5	0.026	0.000	20.0	2	1
03/13/06	12:41 a	-19.6	-19.6	-19.7	---	---	12.2	E	0.20	15.7	-30.5	---	---	728.5	0.026	0.000	20.0	2	1
03/13/06	12:42 a	-19.6	-19.6	-19.6	---	---	12.2	ENE	0.20	13.9	-30.4	---	---	728.4	0.026	0.000	20.0	2	1
03/13/06	12:43 a	-19.6	-19.6	-19.6	---	---	13.0	ENE	0.22	16.5	-30.8	---	---	728.4	0.026	0.000	20.0	2	1
03/13/06	12:44 a	-19.5	-19.5	-19.6	---	---	13.0	E	0.22	16.5	-30.7	---	---	728.4	0.026	0.000	20.0	2	1
03/13/06	12:45 a	-19.5	-19.5	-19.5	---	---	12.2	E	0.20	16.5	-30.3	---	---	728.4	0.026	0.000	20.1	2	1
03/13/06	12:46 a	-19.5	-19.4	-19.5	---	---	13.9	E	0.23	16.5	-31.1	---	---	728.4	0.026	0.000	20.1	2	1
03/13/06	12:47 a	-19.4	-19.4	-19.4	---	---	11.3	E	0.19	14.8	-29.9	---	---	728.5	0.026	0.000	20.1	2	1
03/13/06	12:48 a	-19.4	-19.4	-19.4	---	---	13.9	ENE	0.23	16.5	-30.9	---	---	728.4	0.026	0.000	20.1	2	1
03/13/06	12:49 a	-19.4	-19.4	-19.4	---	---	13.0	E	0.22	17.4	-30.6	---	---	728.4	0.026	0.000	20.1	2	1
03/13/06	12:50 a	-19.3	-19.3	-19.4	---	---	16.5	ENE	0.28	18.3	-31.7	---	---	728.4	0.026	0.000	20.1	2	1
03/13/06	12:51 a	-19.3	-19.3	-19.3	---	---	14.8	E	0.25	18.3	-31.1	---	---	728.5	0.026	0.000	20.1	2	1
03/13/06	12:52 a	-19.3	-19.3	-19.3	---	---	14.8	ENE	0.25	15.7	-31.1	---	---	728.4	0.026	0.000	20.1	2	1
03/13/06	12:53 a	-19.2	-19.2	-19.3	---	---	13.9	E	0.23	16.5	-30.7	---	---	728.5	0.026	0.000	20.1	2	1
03/13/06	12:54 a	-19.2	-19.2	-19.2	---	---	13.9	E	0.23	18.3	-30.7	---	---	728.4	0.026	0.000	20.1	2	1
03/13/06	12:55 a	-19.2	-19.2	-19.2	---	---	14.8	ENE	0.25	19.1	-30.9	---	---	728.4	0.026	0.000	20.1	2	1
03/13/06	12:56 a	-19.2	-19.2	-19.2	---	---	13.0	E	0.22	15.7	-30.3	---	---	728.5	0.026	0.000	20.1	2	1
03/13/06	12:57 a	-19.1	-19.1	-19.2	---	---	13.9	ENE	0.23	17.4	-30.6	---	---	728.5	0.026	0.000	20.1	2	1
03/13/06	12:58 a	-19.1	-19.1	-19.1	---	---	11.3	E	0.19	15.7	-29.4	---	---	728.5	0.026	0.000	20.1	2	1
03/13/06	12:59 a	-19.1	-19.1	-19.1	---	---	13.0	E	0.22	13.9	-30.1	---	---	728.5	0.026	0.000	20.1	2	1
03/13/06	1:00 a	-19.0	-19.0	-19.1	---	---	13.9	ENE	0.23	18.3	-30.4	---	---	728.4	0.026	0.000	20.1	2	1
03/13/06	1:01 a	-19.0	-18.9	-19.0	---	---	13.0	ENE	0.22	16.5	-30.1	---	---	728.4	0.026	0.000	20.1	2	1
03/13/06	1:02 a	-18.9	-18.9	-18.9	---	---	13.0	E	0.22	16.5	-30.0	---	---	728.5	0.026	0.000	20.1	2	1
03/13/06	1:03 a	-18.9	-18.9	-18.9	---	---	15.7	ENE	0.26	19.1	-30.9	---	---	728.5	0.026	0.000	20.1	2	1
03/13/06	1:04 a	-18.9	-18.9	-18.9	---	---	13.0	ENE	0.22	16.5	-29.9	---	---	728.4	0.026	0.000	20.1	2	1
03/13/06	1:05 a	-18.9	-18.9	-18.9	---	---	12.2	E	0.20	14.8	-29.6	---	---	728.5	0.026	0.000	20.1	2	1
03/13/06	1:06 a	-18.8	-18.8	-18.8	---	---	9.6	E	0.16	12.2	-28.3	---	---	728.5	0.026	0.000	20.1	2	1
03/13/06	1:07 a	-18.8	-18.8	-18.8	---	---	11.3	E	0.19	13.0	-29.2	---	---	728.5	0.026	0.000	20.1	2	1
03/13/06	1:08 a	-18.8	-18.8	-18.8	---	---	12.2	ENE	0.20	14.8	-29.4	---	---	728.3	0.026	0.000	20.1	2	1
03/13/06	1:09 a	-18.8	-18.8	-18.8	---	---	15.7	ENE	0.26	16.5	-30.7	---	---	728.3	0.026	0.000	20.1	2	1
03/13/06	1:10 a	-18.7	-18.7	-18.8	---	---	14.8	E	0.25	16.5	-30.3	---	---	728.3	0.026	0.000	20.1	2	1
03/13/06	1:11 a	-18.7	-18.7	-18.7	---	---	14.8	ENE	0.25	17.4	-30.3	---	---	728.4	0.026	0.000	20.0	2	1
03/13/06	1:12 a	-18.7	-18.7	-18.7	---	---	13.0	ENE	0.22	16.5	-29.6	---	---	728.4	0.026	0.000	20.1	2	1
03/13/06	1:13 a	-18.7	-18.6	-18.7	---	---	12.2	E	0.20	18.3	-29.3	---	---	728.3	0.026	0.000	20.1	2	1
03/13/06	1:14 a	-18.6	-18.6	-18.6	---	---	13.0	ENE	0.22	18.3	-29.6	---	---	728.3	0.026	0.000	20.1	2	1
03/13/06	1:15 a	-18.6	-18.6	-18.6	---	---	13.9	ENE	0.23	17.4	-29.9	---	---	728.2	0.026	0.000	20.1	2	1
03/13/06	1:16 a	-18.6	-18.5	-18.6	---	---	15.7	ENE	0.26	17.4	-30.4	---	---	728.2	0.026	0.000	20.1	2	1
03/13/06	1:17 a	-18.6	-18.5	-18.6	---	---	14.8	ENE	0.25	16.5	-30.1	---	---	728.3	0.026	0.000	20.1	2	1
03/13/06	1:18 a	-18.5	-18.5	-18.5	---	---	11.3	ENE	0.19	14.8	-28.7	---	---	728.3	0.026	0.000	20.1	2	1
03/13/06	1:19 a	-18.5	-18.5	-18.5	---	---	10.4	ENE	0.17	13.0	-28.3	---	---	728.3	0.026	0.000	20.0	2	1
03/13/06	1:20 a	-18.4	-18.4	-18.5	---	---	13.0	ENE	0.22	15.7	-29.3	---	---	728.3	0.026	0.000	20.0	2	1
03/13/06	1:21 a	-18.4	-18.4	-18.4	---	---	13.0	ENE	0.22	14.8	-29.3	---	---	728.3	0.026	0.000	20.1	2	1
03/13/06	1:22 a	-18.4	-18.4	-18.4	---	---	13.0	ENE	0.22	13.9	-29.3	---	---	728.3	0.026	0.000	20.1	2	1
03/13/06	1:23 a	-18.4	-18.4	-18.4	---	---	12.2	ENE	0.20	13.9	-28.9	---	---	728.3	0.026	0.000	20.1	2	1
03/13/06	1:24 a	-18.3	-18.3	-18.4	---	---	11.3	ENE	0.19	13.0	-28.5	---	---	728.3	0.025	0.000	20.1	2	1
03/13/06	1:25 a	-18.3	-18.3	-18.3	---	---	10.4	ENE	0.17	12.2	-28.1	---	---	728.3	0.025	0.000	20.1	2	1
03/13/06	1:26 a	-18.3	-18.3	-18.3	---	---	12.2	ENE	0.20	13.9	-28.9	---	---	728.2	0.025	0.000	20.1	2	1
03/13/06	1:27 a	-18.3	-18.3	-18.3	---	---	13.0	ENE	0.22	14.8	-29.2	---	---	728.2	0.025	0.000	20.1	2	1
03/13/06	1:28 a	-18.3	-18.3	-18.3	---	---	13.0	NE	0.22	13.9	-29.2	---	---	728.2	0.025	0.000	20.1	2	1
03/13/06	1:29 a	-18.3	-18.3	-18.3	---	---	12.2	NE	0.20	13.9	-28.8	---	---	728.2	0.025	0.000	20.1	2	1
03/13/06	1:30 a	-18.3	-18.2	-18.3	---	---	11.3	ENE	0.19	13.0	-28.4	---	---	728.3	0.025	0.000	20.1	2	1
03/13/06	1:31 a	-18.2	-18.2	-18.3	---	---	11.3	NE	0.19	13.0	-28.4	---	---	728.2	0.025	0.000	20.1	2	1
03/13/06	1:32 a	-18.2	-18.2	-18.2	---	---	10.4	NE	0.17	12.2	-28.0	---	---	728.2	0.025	0.000	20.1	2	1
03/13/06	1:33 a	-18.2	-18.2	-18.2	---	---	12.2	ENE	0.20	13.0	-28.7	---	---	728.3	0.025	0.000	20.1	2	1
03/13/06	1:34 a	-18.2	-18.2	-18.2	---	---	11.3	ENE	0.19	13.0	-28.3	---	---	728.1	0.025	0.000	20.1	2	1
03/13/06	1:35 a	-18.2	-18.2	-18.2	---	---	10.4	NE	0.17	12.2	-27.9	---	---	728.2	0.025	0.000	20.1	2	1
03/13/06	1:36 a	-18.2	-18.1	-18.2	---	---	9.6	NE	0.16	10.4	-27.5	---	---	728.3	0.025	0.000	20.1	2	1
03/13/06	1:37 a	-18.1	-18.1	-18.1	---	---	10.4	NE	0.17	11.3	-27.8	---	---	728.3	0.025	0.000	20.1	2	1
03/13/06	1:38 a	-18.1	-18.1	-18.1	---	---	10.4	NE	0.17	13.0	-27.8	---	---	728.3	0.025	0.000	20.1	2	1
03/13/06	1:39 a	-18.1	-18.1	-18.1	---	---	11.3	NE	0.19	13.9	-28.2	---	---	728.3	0.025	0.000	20.1	2	1
03/13/06	1:40 a	-18.1	-18.1	-18.1	---	---	11.3	NE	0.19	13.0	-28.2	---	---	728.3	0.025	0.000	20.1	2	1
03/13/06	1:41 a	-18.1	-18.1	-18.1	---	---	9.6	NE	0.16	10.4	-27.4	---	---	728.4	0.025	0.000	20.1	2	1
03/13/06	1:42 a	-18.1	-18.0	-18.1	---	---	9.6	NE	0.16	11.3	-27.4	---	---	728.3	0.025	0.000	20.1	2	1
03/13/06	1:43 a	-18.1	-18.0	-18.1	---	---	9.6	NE	0.16	13.0	-27.4	---	---	728.2	0.025	0.000	20.1	2	1
03/13/06	1:44 a	-18.0	-18.0	-18.0	---	---	10.4	NE	0.17	12.2	-27.7	---	---	728.3	0.025	0.000	20.2	2	1
03/13/06	1:45 a	-18.0	-17.9	-18.0	---	---	8.7	ENE	0.14	10.4	-26.8	---	---	728.3	0.025	0.000	20.2	2	1
03/13/06	1:46 a	-17.9	-17.9	-17.9	---	---	8.7	NE	0.14	9.6	-26.8	---	---	728.3	0.025	0.000	20.2	2	1
03/13/06	1:47 a	-17.9	-17.9	-17.9	---	---	7.8	NE	0.13	8.7	-26.3	---	---	728.3	0.025	0.000	20.1	2	1
03/13/06	1:48 a	-17.9	-17.9	-17.9	---	---	10.4	NE	0.17	11.3	-27.6	---	---	728.2	0.025	0.000	20.1	2	1
03/13/06	1:49 a	-17.9	-17.9	-17.9	---	---	10.4	NE	0.17	11.3	-27.6	---	---	728.3	0.025	0.000	20.1	2	1
03/13/06	1:50 a	-17.9	-17.9	-17.9	---	---	10.4	NE	0.17	11.3	-27.6	---	---	728.2	0.025	0.000	20.1	2	1
03/13/06	1:51 a	-17.8	-17.8	-17.9	---	---	8.7	ENE	0.14	9.6	-26.7	---	---	728.3	0.025	0.000	20.1	2	1
03/13/06	1:52 a	-17.8	-17.8	-17.8	---	---	10.4	ENE	0.17	11.3	-27.5	---	---	728.2	0.025	0.000	20.1	2	1
03/13/06	1:53 a	-17.8	-17.8	-17.8	---	---	12.2	ENE	0.20	13.0	-28.2	---	---	728.1	0.025	0.000	20.1	2	1
03/13/06	1:54 a	-17.8	-17.8	-17.8	---	---	13.0	ENE	0.22	14.8	-28.5	---	---	728.1	0.025	0.000	20.1	2	1
03/13/06	1:55 a	-17.8	-17.7	-17.8	---	---	10.4	ENE	0.17	12.2	-27.4	---	---	728.2	0.025	0.000	20.1	2	1
03/13/06	1:56 a	-17.7	-17.7	-17.7	---	---	9.6	ENE	0.16	13.0	-26.9	---	---	728.3	0.025	0.000	20.1	2	1
03/13/06	1:57 a	-17.7	-17.7	-17.7	---	---	10.4	ENE	0.17	12.2	-27.3	---	---	728.2	0.025	0.000	20.1	2	1
03/13/06	1:58 a	-17.7	-17.7	-17.7	---	---	9.6	ENE	0.16	10.4	-26.9	---	---	728.3	0.025	0.000	20.1	2	1
03/13/06	1:59 a	-17.7	-17.6	-17.7	---	---	10.4	ENE	0.17	13.0	-27.3	---	---	728.4	0.025	0.000	20.1	2	1
03/13/06	2:00 a	-17.6	-17.6	-17.6	---	---	7.0	ENE	0.12	8.7	-25.4	---	---	728.3	0.025	0.000	20.1	2	1
03/13/06	2:01 a	-17.6	-17.6	-17.6	---	---	9.6	ENE	0.16	11.3	-26.7	---	---	728.3	0.025	0.000	20.1	2	1
03/13/06	2:02 a	-17.6	-17.6	-17.6	---	---	11.3	NE	0.19	12.2	-27.5	---	---	728.2	0.025	0.000	20.1	2	1
03/13/06	2:03 a	-17.6	-17.5	-17.6	---	---	9.6	NE	0.16	10.4	-26.7	---	---	728.2	0.025	0.000	20.1	2	1
03/13/06	2:04 a	-17.5	-17.5	-17.5	---	---	9.6	NE	0.16	10.4	-26.7	---	---	728.2	0.025	0.000	20.1	2	1
03/13/06	2:05 a	-17.5	-17.4	-17.5	---	---	9.6	NE	0.16	10.4	-26.7	---	---	728.2	0.025	0.000	20.1	2	1
03/13/06	2:06 a	-17.4	-17.4	-17.4	---	---	9.6	ENE	0.16	11.3	-26.6	---	---	728.2	0.025	0.000	20.1	2	1
03/13/06	2:07 a	-17.4	-17.4	-17.4	---	---	9.6	ENE	0.16	10.4	-26.6	---	---	728.2	0.025	0.000	20.1	2	1
03/13/06	2:08 a	-17.4	-17.4	-17.4	---	---	10.4	ENE	0.17	13.0	-26.9	---	---	728.3	0.025	0.000	20.1	2	1
03/13/06	2:09 a	-17.3	-17.3	-17.3	---	---	11.3	NE	0.19	12.2	-27.2	---	---	728.3	0.025	0.000	20.1	2	1
03/13/06	2:10 a	-17.3	-17.3	-17.3	---	---	11.3	ENE	0.19	12.2	-27.2	---	---	728.2	0.025	0.000	20.1	2	1
03/13/06	2:11 a	-17.3	-17.2	-17.3	---	---	9.6	ENE	0.16	10.4	-26.4	---	---	728.2	0.025	0.000	20.1	2	1
03/13/06	2:12 a	-17.2	-17.2	-17.2	---	---	9.6	ENE	0.16	10.4	-26.3	---	---	728.2	0.025	0.000	20.1	2	1
03/13/06	2:13 a	-17.2	-17.2	-17.2	---	---	8.7	ENE	0.14	10.4	-25.9	---	---	728.3	0.025	0.000	20.1	2	1
03/13/06	2:14 a	-17.2	-17.2	-17.2	---	---	7.8	ENE	0.13	9.6	-25.3	---	---	728.2	0.025	0.000	20.1	2	1
03/13/06	2:15 a	-17.2	-17.1	-17.2	---	---	8.7	ENE	0.14	9.6	-25.8	---	---	728.3	0.025	0.000	20.1	2	1
03/13/06	2:16 a	-17.1	-17.1	-17.1	---	---	8.7	ENE	0.14	9.6	-25.7	---	---	728.2	0.025	0.000	20.1	2	1
03/13/06	2:17 a	-17.1	-17.1	-17.1	---	---	8.7	ENE	0.14	9.6	-25.7	---	---	728.2	0.025	0.000	20.1	2	1
03/13/06	2:18 a	-17.1	-17.1	-17.1	---	---	8.7	ENE	0.14	9.6	-25.7	---	---	728.2	0.025	0.000	20.1	2	1
03/13/06	2:19 a	-17.0	-17.0	-17.0	---	---	8.7	ENE	0.14	9.6	-25.6	---	---	728.2	0.025	0.000	20.1	2	1
03/13/06	2:20 a	-16.9	-16.9	-17.0	---	---	7.8	ENE	0.13	8.7	-25.1	---	---	728.2	0.024	0.000	20.1	2	1
03/13/06	2:21 a	-16.9	-16.9	-16.9	---	---	7.0	ENE	0.12	8.7	-24.6	---	---	728.2	0.024	0.000	20.1	2	1
03/13/06	2:22 a	-16.9	-16.9	-16.9	---	---	7.0	E	0.12	8.7	-24.5	---	---	728.1	0.024	0.000	20.2	2	1
03/13/06	2:23 a	-16.9	-16.9	-16.9	---	---	7.8	ENE	0.13	9.6	-25.0	---	---	728.1	0.024	0.000	20.2	2	1
03/13/06	2:24 a	-16.8	-16.8	-16.9	---	---	9.6	NE	0.16	10.4	-25.8	---	---	728.1	0.024	0.000	20.2	2	1
03/13/06	2:25 a	-16.8	-16.8	-16.8	---	---	10.4	NE	0.17	11.3	-26.2	---	---	728.1	0.024	0.000	20.2	2	1
03/13/06	2:26 a	-16.8	-16.8	-16.8	---	---	10.4	NE	0.17	10.4	-26.2	---	---	728.1	0.024	0.000	20.2	2	1
03/13/06	2:27 a	-16.7	-16.7	-16.8	---	---	9.6	NE	0.16	10.4	-25.7	---	---	728.1	0.024	0.000	20.2	2	1
03/13/06	2:28 a	-16.7	-16.7	-16.7	---	---	10.4	NE	0.17	11.3	-26.1	---	---	728.0	0.024	0.000	20.2	2	1
03/13/06	2:29 a	-16.7	-16.7	-16.7	---	---	10.4	ENE	0.17	11.3	-26.0	---	---	727.9	0.024	0.000	20.2	2	1
03/13/06	2:30 a	-16.7	-16.6	-16.7	---	---	11.3	ENE	0.19	12.2	-26.4	---	---	728.0	0.024	0.000	20.2	2	1
03/13/06	2:31 a	-16.6	-16.6	-16.6	---	---	11.3	ENE	0.19	13.0	-26.3	---	---	727.9	0.024	0.000	20.2	2	1
03/13/06	2:32 a	-16.6	-16.6	-16.6	---	---	10.4	ENE	0.17	12.2	-25.9	---	---	727.9	0.024	0.000	20.2	2	1
03/13/06	2:33 a	-16.6	-16.6	-16.6	---	---	9.6	ENE	0.16	11.3	-25.5	---	---	727.8	0.024	0.000	20.2	2	1
03/13/06	2:34 a	-16.5	-16.5	-16.6	---	---	10.4	ENE	0.17	10.4	-25.8	---	---	727.9	0.024	0.000	20.2	2	1
03/13/06	2:35 a	-16.5	-16.4	-16.5	---	---	9.6	ENE	0.16	10.4	-25.4	---	---	728.0	0.024	0.000	20.2	2	1
03/13/06	2:36 a	-16.4	-16.4	-16.4	---	---	7.8	ENE	0.13	9.6	-24.4	---	---	728.0	0.024	0.000	20.2	2	1
03/13/06	2:37 a	-16.4	-16.4	-16.4	---	---	7.0	ENE	0.12	7.8	-23.9	---	---	728.1	0.024	0.000	20.2	2	1
03/13/06	2:38 a	-16.4	-16.4	-16.4	---	---	8.7	ENE	0.14	10.4	-24.8	---	---	728.0	0.024	0.000	20.2	2	1
03/13/06	2:39 a	-16.3	-16.3	-16.4	---	---	8.7	ENE	0.14	11.3	-24.8	---	---	727.9	0.024	0.000	20.2	2	1
03/13/06	2:40 a	-16.3	-16.3	-16.3	---	---	7.8	E	0.13	9.6	-24.3	---	---	728.0	0.024	0.000	20.2	2	1
03/13/06	2:41 a	-16.3	-16.3	-16.3	---	---	7.8	E	0.13	8.7	-24.3	---	---	728.0	0.024	0.000	20.2	2	1
03/13/06	2:42 a	-16.3	-16.3	-16.3	---	---	6.1	E	0.10	8.7	-23.2	---	---	727.9	0.024	0.000	20.2	2	1
03/13/06	2:43 a	-16.3	-16.3	-16.3	---	---	8.7	E	0.14	11.3	-24.7	---	---	727.8	0.024	0.000	20.2	2	1
03/13/06	2:44 a	-16.2	-16.2	-16.3	---	---	9.6	ENE	0.16	10.4	-25.1	---	---	727.8	0.024	0.000	20.2	2	1
03/13/06	2:45 a	-16.2	-16.2	-16.2	---	---	8.7	E	0.14	10.4	-24.7	---	---	727.8	0.024	0.000	20.2	2	1
03/13/06	2:46 a	-16.2	-16.2	-16.2	---	---	8.7	E	0.14	10.4	-24.6	---	---	727.8	0.024	0.000	20.2	2	1
03/13/06	2:47 a	-16.2	-16.2	-16.2	---	---	7.8	E	0.13	9.6	-24.1	---	---	727.8	0.024	0.000	20.2	2	1
03/13/06	2:48 a	-16.2	-16.1	-16.2	---	---	7.8	E	0.13	9.6	-24.1	---	---	727.7	0.024	0.000	20.2	2	1
03/13/06	2:49 a	-16.1	-16.1	-16.1	---	---	8.7	E	0.14	10.4	-24.5	---	---	727.8	0.024	0.000	20.2	2	1
03/13/06	2:50 a	-16.1	-16.1	-16.1	---	---	9.6	E	0.16	12.2	-24.9	---	---	727.7	0.024	0.000	20.2	3	1
03/13/06	2:51 a	-16.1	-16.1	-16.1	---	---	9.6	E	0.16	11.3	-24.9	---	---	727.8	0.024	0.000	20.2	2	1
03/13/06	2:52 a	-16.1	-16.1	-16.1	---	---	8.7	E	0.14	10.4	-24.4	---	---	727.8	0.024	0.000	20.2	2	1
03/13/06	2:53 a	-16.1	-16.1	-16.1	---	---	8.7	E	0.14	10.4	-24.4	---	---	727.8	0.024	0.000	20.2	2	1
03/13/06	2:54 a	-16.1	-16.1	-16.1	---	---	7.8	E	0.13	9.6	-24.0	---	---	727.8	0.024	0.000	20.2	2	1
03/13/06	2:55 a	-16.0	-16.0	-16.1	---	---	7.0	E	0.12	9.6	-23.4	---	---	727.8	0.024	0.000	20.2	2	1
03/13/06	2:56 a	-16.0	-16.0	-16.0	---	---	7.0	E	0.12	8.7	-23.4	---	---	727.8	0.024	0.000	20.2	2	1
03/13/06	2:57 a	-16.0	-15.9	-16.0	---	---	7.8	E	0.13	9.6	-23.9	---	---	727.8	0.024	0.000	20.2	2	1
03/13/06	2:58 a	-15.9	-15.9	-15.9	---	---	8.7	E	0.14	10.4	-24.3	---	---	727.8	0.024	0.000	20.2	2	1
03/13/06	2:59 a	-15.9	-15.9	-16.0	---	---	7.8	E	0.13	9.6	-23.8	---	---	727.8	0.024	0.000	20.2	2	1
03/13/06	3:00 a	-15.9	-15.9	-15.9	---	---	7.8	E	0.13	8.7	-23.8	---	---	727.8	0.024	0.000	20.2	2	1
03/13/06	3:01 a	-15.9	-15.9	-15.9	---	---	7.8	E	0.13	9.6	-23.8	---	---	727.8	0.024	0.000	20.2	2	1
03/13/06	3:02 a	-15.9	-15.9	-15.9	---	---	7.0	E	0.12	8.7	-23.3	---	---	727.8	0.024	0.000	20.2	2	1
03/13/06	3:03 a	-15.9	-15.9	-15.9	---	---	7.8	E	0.13	9.6	-23.8	---	---	727.8	0.024	0.000	20.2	2	1
03/13/06	3:04 a	-15.9	-15.9	-15.9	---	---	7.0	E	0.12	8.7	-23.3	---	---	727.8	0.024	0.000	20.2	2	1
03/13/06	3:05 a	-15.9	-15.9	-15.9	---	---	7.8	E	0.13	10.4	-23.8	---	---	727.7	0.024	0.000	20.2	2	1
03/13/06	3:06 a	-15.9	-15.9	-15.9	---	---	8.7	E	0.14	10.4	-24.2	---	---	727.7	0.024	0.000	20.2	2	1
03/13/06	3:07 a	-15.9	-15.9	-15.9	---	---	9.6	E	0.16	11.3	-24.7	---	---	727.6	0.024	0.000	20.2	2	1
03/13/06	3:08 a	-15.9	-15.9	-15.9	---	---	9.6	E	0.16	12.2	-24.7	---	---	727.6	0.024	0.000	20.2	2	1
03/13/06	3:09 a	-15.9	-15.9	-15.9	---	---	10.4	E	0.17	11.3	-25.1	---	---	727.5	0.024	0.000	20.2	2	1
03/13/06	3:10 a	-15.9	-15.9	-15.9	---	---	10.4	E	0.17	12.2	-25.1	---	---	727.5	0.024	0.000	20.2	2	1
03/13/06	3:11 a	-15.9	-15.9	-15.9	---	---	8.7	E	0.14	11.3	-24.2	---	---	727.6	0.024	0.000	20.2	2	1
03/13/06	3:12 a	-15.9	-15.8	-15.9	---	---	10.4	E	0.17	12.2	-25.1	---	---	727.6	0.024	0.000	20.3	2	1
03/13/06	3:13 a	-15.9	-15.8	-15.9	---	---	11.3	E	0.19	12.2	-25.4	---	---	727.6	0.024	0.000	20.3	2	1
03/13/06	3:14 a	-15.8	-15.8	-15.9	---	---	10.4	E	0.17	12.2	-25.0	---	---	727.5	0.024	0.000	20.3	2	1
03/13/06	3:15 a	-15.9	-15.8	-15.9	---	---	9.6	E	0.16	11.3	-24.7	---	---	727.5	0.024	0.000	20.3	2	1
03/13/06	3:16 a	-15.8	-15.8	-15.9	---	---	9.6	E	0.16	11.3	-24.6	---	---	727.6	0.024	0.000	20.3	2	1
03/13/06	3:17 a	-15.9	-15.8	-15.9	---	---	8.7	E	0.14	10.4	-24.2	---	---	727.6	0.024	0.000	20.3	2	1
03/13/06	3:18 a	-15.8	-15.8	-15.9	---	---	9.6	E	0.16	10.4	-24.6	---	---	727.6	0.024	0.000	20.3	2	1
03/13/06	3:19 a	-15.8	-15.8	-15.8	---	---	7.8	E	0.13	9.6	-23.7	---	---	727.7	0.024	0.000	20.3	2	1
03/13/06	3:20 a	-15.8	-15.8	-15.8	---	---	7.8	E	0.13	8.7	-23.7	---	---	727.7	0.024	0.000	20.3	2	1
03/13/06	3:21 a	-15.8	-15.8	-15.8	---	---	6.1	E	0.10	7.0	-22.7	---	---	727.7	0.024	0.000	20.3	2	1
03/13/06	3:22 a	-15.8	-15.8	-15.8	---	---	6.1	E	0.10	7.8	-22.7	---	---	727.7	0.024	0.000	20.3	2	1
03/13/06	3:23 a	-15.8	-15.8	-15.8	---	---	5.2	E	0.09	7.0	-22.0	---	---	727.7	0.024	0.000	20.3	3	1
03/13/06	3:24 a	-15.8	-15.8	-15.8	---	---	5.2	E	0.09	7.0	-22.0	---	---	727.8	0.024	0.000	20.3	3	1
03/13/06	3:25 a	-15.8	-15.8	-15.8	---	---	5.2	E	0.09	7.0	-22.0	---	---	727.7	0.024	0.000	20.3	2	1
03/13/06	3:26 a	-15.8	-15.8	-15.8	---	---	6.1	E	0.10	7.8	-22.7	---	---	727.7	0.024	0.000	20.3	2	1
03/13/06	3:27 a	-15.8	-15.8	-15.8	---	---	7.0	E	0.12	7.8	-23.1	---	---	727.7	0.024	0.000	20.3	2	1
03/13/06	3:28 a	-15.8	-15.8	-15.8	---	---	7.0	E	0.12	7.8	-23.1	---	---	727.7	0.024	0.000	20.3	2	1
03/13/06	3:29 a	-15.8	-15.8	-15.8	---	---	7.0	ENE	0.12	7.8	-23.1	---	---	727.6	0.024	0.000	20.3	2	1
03/13/06	3:30 a	-15.8	-15.8	-15.8	---	---	6.1	E	0.10	7.0	-22.6	---	---	727.8	0.024	0.000	20.3	2	1
03/13/06	3:31 a	-15.8	-15.8	-15.8	---	---	6.1	E	0.10	7.0	-22.6	---	---	727.6	0.024	0.000	20.3	2	1
03/13/06	3:32 a	-15.8	-15.8	-15.8	---	---	6.1	ENE	0.10	7.0	-22.6	---	---	727.6	0.024	0.000	20.3	2	1
03/13/06	3:33 a	-15.8	-15.8	-15.8	---	---	7.0	ENE	0.12	7.8	-23.1	---	---	727.7	0.024	0.000	20.3	2	1
03/13/06	3:34 a	-15.8	-15.7	-15.8	---	---	6.1	ENE	0.10	7.0	-22.6	---	---	727.7	0.024	0.000	20.3	2	1
03/13/06	3:35 a	-15.8	-15.7	-15.8	---	---	6.1	ENE	0.10	7.0	-22.6	---	---	727.7	0.024	0.000	20.3	2	1
03/13/06	3:36 a	-15.7	-15.7	-15.7	---	---	6.1	ENE	0.10	7.0	-22.5	---	---	727.7	0.024	0.000	20.3	2	1
03/13/06	3:37 a	-15.7	-15.7	-15.7	---	---	5.2	ENE	0.09	6.1	-21.9	---	---	727.6	0.024	0.000	20.3	2	1
03/13/06	3:38 a	-15.7	-15.7	-15.7	---	---	4.3	E	0.07	6.1	-21.2	---	---	727.7	0.024	0.000	20.3	2	1
03/13/06	3:39 a	-15.7	-15.7	-15.7	---	---	5.2	ENE	0.09	6.1	-21.9	---	---	727.7	0.024	0.000	20.3	3	1
03/13/06	3:40 a	-15.7	-15.7	-15.7	---	---	5.2	ENE	0.09	7.0	-21.8	---	---	727.7	0.024	0.000	20.3	2	1
03/13/06	3:41 a	-15.7	-15.7	-15.7	---	---	7.0	ENE	0.12	7.8	-23.0	---	---	727.6	0.024	0.000	20.3	2	1
03/13/06	3:42 a	-15.7	-15.7	-15.7	---	---	7.0	ENE	0.12	7.8	-23.0	---	---	727.7	0.024	0.000	20.3	2	1
03/13/06	3:43 a	-15.7	-15.7	-15.7	---	---	7.0	ENE	0.12	7.8	-23.0	---	---	727.6	0.024	0.000	20.3	2	1
03/13/06	3:44 a	-15.7	-15.7	-15.7	---	---	5.2	ENE	0.09	6.1	-21.8	---	---	727.7	0.024	0.000	20.3	2	1
03/13/06	3:45 a	-15.7	-15.7	-15.7	---	---	4.3	ENE	0.07	7.0	-21.1	---	---	727.6	0.024	0.000	20.3	3	1
03/13/06	3:46 a	-15.7	-15.7	-15.7	---	---	6.1	ENE	0.10	7.0	-22.4	---	---	727.7	0.024	0.000	20.3	2	1
03/13/06	3:47 a	-15.7	-15.7	-15.7	---	---	6.1	ENE	0.10	7.8	-22.4	---	---	727.8	0.024	0.000	20.3	2	1
03/13/06	3:48 a	-15.6	-15.6	-15.7	---	---	5.2	ENE	0.09	6.1	-21.7	---	---	727.7	0.024	0.000	20.3	2	1
03/13/06	3:49 a	-15.6	-15.6	-15.6	---	---	5.2	ENE	0.09	8.7	-21.7	---	---	727.7	0.024	0.000	20.3	3	1
03/13/06	3:50 a	-15.7	-15.6	-15.7	---	---	7.0	ENE	0.12	8.7	-23.0	---	---	727.7	0.024	0.000	20.3	2	1
03/13/06	3:51 a	-15.6	-15.6	-15.6	---	---	4.3	ENE	0.07	6.1	-21.0	---	---	727.7	0.024	0.000	20.3	2	1
03/13/06	3:52 a	-15.6	-15.6	-15.6	---	---	5.2	ESE	0.09	7.8	-21.7	---	---	727.6	0.024	0.000	20.3	3	1
03/13/06	3:53 a	-15.6	-15.6	-15.6	---	---	7.0	ENE	0.12	7.8	-22.9	---	---	727.7	0.024	0.000	20.3	2	1
03/13/06	3:54 a	-15.6	-15.6	-15.6	---	---	7.0	ENE	0.12	7.8	-22.9	---	---	727.8	0.024	0.000	20.3	3	1
03/13/06	3:55 a	-15.6	-15.6	-15.6	---	---	6.1	ENE	0.10	7.0	-22.3	---	---	727.8	0.024	0.000	20.3	3	1
03/13/06	3:56 a	-15.6	-15.6	-15.6	---	---	4.3	ENE	0.07	5.2	-20.9	---	---	727.6	0.024	0.000	20.3	2	1
03/13/06	3:57 a	-15.6	-15.6	-15.6	---	---	3.5	ENE	0.06	5.2	-20.1	---	---	727.7	0.024	0.000	20.3	2	1
03/13/06	3:58 a	-15.6	-15.6	-15.6	---	---	6.1	ENE	0.10	7.8	-22.3	---	---	727.7	0.024	0.000	20.3	3	1
03/13/06	3:59 a	-15.6	-15.6	-15.6	---	---	7.8	ENE	0.13	8.7	-23.4	---	---	727.7	0.024	0.000	20.3	3	1
03/13/06	4:00 a	-15.6	-15.6	-15.6	---	---	7.0	ENE	0.12	7.8	-22.9	---	---	727.6	0.024	0.000	20.3	3	1
03/13/06	4:01 a	-15.6	-15.6	-15.6	---	---	7.8	ENE	0.13	8.7	-23.4	---	---	727.6	0.024	0.000	20.3	3	1
03/13/06	4:02 a	-15.6	-15.6	-15.6	---	---	7.8	ENE	0.13	8.7	-23.4	---	---	727.6	0.024	0.000	20.3	3	1
03/13/06	4:03 a	-15.5	-15.5	-15.5	---	---	7.0	E	0.12	8.7	-22.8	---	---	727.7	0.023	0.000	20.4	3	1
03/13/06	4:04 a	-15.6	-15.5	-15.6	---	---	7.0	E	0.12	7.8	-22.9	---	---	727.7	0.024	0.000	20.4	2	1
03/13/06	4:05 a	-15.6	-15.5	-15.6	---	---	6.1	E	0.10	7.0	-22.3	---	---	727.6	0.024	0.000	20.4	2	1
03/13/06	4:06 a	-15.5	-15.5	-15.5	---	---	7.0	ENE	0.12	7.8	-22.8	---	---	727.7	0.023	0.000	20.4	2	1
03/13/06	4:07 a	-15.5	-15.5	-15.5	---	---	7.0	E	0.12	7.8	-22.8	---	---	727.7	0.023	0.000	20.4	2	1
03/13/06	4:08 a	-15.5	-15.5	-15.5	---	---	7.8	E	0.13	9.6	-23.3	---	---	727.6	0.023	0.000	20.4	3	1
03/13/06	4:09 a	-15.5	-15.5	-15.5	---	---	7.0	E	0.12	8.7	-22.8	---	---	727.5	0.023	0.000	20.4	3	1
03/13/06	4:10 a	-15.5	-15.5	-15.5	---	---	7.8	ENE	0.13	8.7	-23.3	---	---	727.5	0.023	0.000	20.4	3	1
03/13/06	4:11 a	-15.5	-15.5	-15.5	---	---	7.0	E	0.12	7.8	-22.8	---	---	727.5	0.023	0.000	20.4	3	1
03/13/06	4:12 a	-15.5	-15.5	-15.5	---	---	6.1	E	0.10	8.7	-22.2	---	---	727.5	0.023	0.000	20.4	2	1
03/13/06	4:13 a	-15.5	-15.4	-15.5	---	---	9.6	E	0.16	11.3	-24.2	---	---	727.5	0.023	0.000	20.4	2	1
03/13/06	4:14 a	-15.5	-15.5	-15.5	---	---	8.7	E	0.14	10.4	-23.8	---	---	727.5	0.023	0.000	20.4	3	1
03/13/06	4:15 a	-15.5	-15.4	-15.5	---	---	7.8	E	0.13	9.6	-23.3	---	---	727.5	0.023	0.000	20.4	3	1
03/13/06	4:16 a	-15.4	-15.4	-15.4	---	---	8.7	ENE	0.14	10.4	-23.7	---	---	727.3	0.023	0.000	20.3	3	1
03/13/06	4:17 a	-15.4	-15.4	-15.4	---	---	8.7	E	0.14	9.6	-23.7	---	---	727.3	0.023	0.000	20.3	2	1
03/13/06	4:18 a	-15.4	-15.4	-15.4	---	---	8.7	E	0.14	9.6	-23.7	---	---	727.5	0.023	0.000	20.3	3	1
03/13/06	4:19 a	-15.4	-15.4	-15.4	---	---	7.8	E	0.13	10.4	-23.2	---	---	727.4	0.023	0.000	20.3	3	1
03/13/06	4:20 a	-15.4	-15.4	-15.4	---	---	7.8	E	0.13	9.6	-23.2	---	---	727.3	0.023	0.000	20.3	3	1
03/13/06	4:21 a	-15.4	-15.4	-15.4	---	---	7.8	E	0.13	11.3	-23.2	---	---	727.4	0.023	0.000	20.3	2	1
03/13/06	4:22 a	-15.4	-15.4	-15.4	---	---	8.7	E	0.14	9.6	-23.7	---	---	727.5	0.023	0.000	20.4	3	1
03/13/06	4:23 a	-15.4	-15.4	-15.4	---	---	7.0	E	0.12	8.7	-22.7	---	---	727.4	0.023	0.000	20.4	2	1
03/13/06	4:24 a	-15.4	-15.4	-15.4	---	---	9.6	ENE	0.16	10.4	-24.1	---	---	727.3	0.023	0.000	20.4	3	1
03/13/06	4:25 a	-15.4	-15.4	-15.4	---	---	8.7	ENE	0.14	10.4	-23.6	---	---	727.3	0.023	0.000	20.4	3	1
03/13/06	4:26 a	-15.4	-15.4	-15.4	---	---	7.8	E	0.13	8.7	-23.2	---	---	727.5	0.023	0.000	20.4	3	1
03/13/06	4:27 a	-15.4	-15.4	-15.4	---	---	7.0	E	0.12	8.7	-22.7	---	---	727.6	0.023	0.000	20.4	3	1
03/13/06	4:28 a	-15.4	-15.4	-15.4	---	---	6.1	E	0.10	7.8	-22.1	---	---	727.4	0.023	0.000	20.4	3	1
03/13/06	4:29 a	-15.4	-15.4	-15.4	---	---	6.1	E	0.10	7.8	-22.1	---	---	727.4	0.023	0.000	20.4	3	1
03/13/06	4:30 a	-15.4	-15.3	-15.4	---	---	7.8	ENE	0.13	8.7	-23.2	---	---	727.4	0.023	0.000	20.4	2	1
03/13/06	4:31 a	-15.3	-15.3	-15.3	---	---	7.8	ENE	0.13	8.7	-23.1	---	---	727.4	0.023	0.000	20.4	2	1
03/13/06	4:32 a	-15.3	-15.3	-15.3	---	---	6.1	E	0.10	7.0	-22.1	---	---	727.5	0.023	0.000	20.4	2	1
03/13/06	4:33 a	-15.3	-15.3	-15.3	---	---	6.1	E	0.10	7.8	-22.1	---	---	727.4	0.023	0.000	20.4	3	1
03/13/06	4:34 a	-15.3	-15.3	-15.3	---	---	7.0	E	0.12	8.7	-22.6	---	---	727.4	0.023	0.000	20.4	3	1
03/13/06	4:35 a	-15.3	-15.3	-15.3	---	---	7.8	E	0.13	9.6	-23.0	---	---	727.5	0.023	0.000	20.4	2	1
03/13/06	4:36 a	-15.3	-15.3	-15.3	---	---	7.0	E	0.12	8.7	-22.5	---	---	727.5	0.023	0.000	20.4	3	1
03/13/06	4:37 a	-15.3	-15.3	-15.3	---	---	6.1	ESE	0.10	7.8	-21.9	---	---	727.6	0.023	0.000	20.4	2	1
03/13/06	4:38 a	-15.3	-15.3	-15.3	---	---	7.0	E	0.12	7.0	-22.5	---	---	727.5	0.023	0.000	20.4	3	1
03/13/06	4:39 a	-15.3	-15.3	-15.3	---	---	6.1	E	0.10	7.0	-21.9	---	---	727.5	0.023	0.000	20.4	3	1
03/13/06	4:40 a	-15.3	-15.3	-15.3	---	---	5.2	E	0.09	6.1	-21.3	---	---	727.4	0.023	0.000	20.4	3	1
03/13/06	4:41 a	-15.2	-15.2	-15.2	---	---	5.2	E	0.09	6.1	-21.3	---	---	727.5	0.023	0.000	20.4	3	1
03/13/06	4:42 a	-15.2	-15.2	-15.2	---	---	6.1	ESE	0.10	7.0	-21.9	---	---	727.5	0.023	0.000	20.4	3	1
03/13/06	4:43 a	-15.2	-15.2	-15.2	---	---	6.1	E	0.10	7.0	-21.9	---	---	727.4	0.023	0.000	20.4	3	1
03/13/06	4:44 a	-15.2	-15.2	-15.2	---	---	4.3	E	0.07	6.1	-20.6	---	---	727.4	0.023	0.000	20.4	3	1
03/13/06	4:45 a	-15.2	-15.2	-15.2	---	---	3.5	E	0.06	4.3	-19.7	---	---	727.4	0.023	0.000	20.4	3	1
03/13/06	4:46 a	-15.2	-15.2	-15.2	---	---	3.5	E	0.06	4.3	-19.7	---	---	727.4	0.023	0.000	20.4	3	1
03/13/06	4:47 a	-15.2	-15.2	-15.2	---	---	4.3	E	0.07	5.2	-20.5	---	---	727.4	0.023	0.000	20.4	3	1
03/13/06	4:48 a	-15.2	-15.1	-15.2	---	---	5.2	ENE	0.09	6.1	-21.2	---	---	727.4	0.023	0.000	20.4	3	1
03/13/06	4:49 a	-15.2	-15.2	-15.2	---	---	5.2	ENE	0.09	6.1	-21.2	---	---	727.3	0.023	0.000	20.4	3	1
03/13/06	4:50 a	-15.1	-15.1	-15.1	---	---	6.1	ENE	0.10	7.0	-21.8	---	---	727.4	0.023	0.000	20.4	3	1
03/13/06	4:51 a	-15.1	-15.1	-15.1	---	---	6.1	ENE	0.10	7.0	-21.8	---	---	727.3	0.023	0.000	20.4	3	1
03/13/06	4:52 a	-15.1	-15.1	-15.1	---	---	6.1	ENE	0.10	7.0	-21.8	---	---	727.3	0.023	0.000	20.4	3	1
03/13/06	4:53 a	-15.1	-15.1	-15.1	---	---	5.2	ENE	0.09	6.1	-21.2	---	---	727.3	0.023	0.000	20.4	3	1
03/13/06	4:54 a	-15.1	-15.1	-15.1	---	---	4.3	ENE	0.07	5.2	-20.4	---	---	727.3	0.023	0.000	20.4	3	1
03/13/06	4:55 a	-15.1	-15.1	-15.1	---	---	4.3	E	0.07	5.2	-20.4	---	---	727.3	0.023	0.000	20.4	3	1
03/13/06	4:56 a	-15.1	-15.1	-15.1	---	---	3.5	E	0.06	4.3	-19.5	---	---	727.4	0.023	0.000	20.5	3	1
03/13/06	4:57 a	-15.1	-15.0	-15.1	---	---	3.5	E	0.06	4.3	-19.5	---	---	727.3	0.023	0.000	20.5	3	1
03/13/06	4:58 a	-15.0	-15.0	-15.0	---	---	3.5	E	0.06	3.5	-19.4	---	---	727.4	0.023	0.000	20.5	3	1
03/13/06	4:59 a	-15.0	-15.0	-15.0	---	---	3.5	E	0.06	3.5	-19.4	---	---	727.4	0.023	0.000	20.5	3	1
03/13/06	5:00 a	-15.0	-15.0	-15.0	---	---	2.6	E	0.04	3.5	-18.4	---	---	727.4	0.023	0.000	20.5	3	1
03/13/06	5:01 a	-15.0	-15.0	-15.0	---	---	2.6	E	0.04	3.5	-18.4	---	---	727.4	0.023	0.000	20.5	3	1
03/13/06	5:02 a	-14.9	-14.9	-15.0	---	---	3.5	E	0.06	3.5	-19.4	---	---	727.4	0.023	0.000	20.5	3	1
03/13/06	5:03 a	-14.9	-14.9	-15.0	---	---	2.6	E	0.04	3.5	-18.3	---	---	727.4	0.023	0.000	20.5	3	1
03/13/06	5:04 a	-14.9	-14.9	-14.9	---	---	2.6	E	0.04	3.5	-18.3	---	---	727.3	0.023	0.000	20.5	3	1
03/13/06	5:05 a	-14.9	-14.9	-14.9	---	---	2.6	E	0.04	3.5	-18.3	---	---	727.4	0.023	0.000	20.5	3	1
03/13/06	5:06 a	-14.9	-14.9	-14.9	---	---	1.7	E	0.03	1.7	-17.0	---	---	727.5	0.023	0.000	20.5	3	1
03/13/06	5:07 a	-14.9	-14.9	-14.9	---	---	1.7	E	0.03	2.6	-17.0	---	---	727.4	0.023	0.000	20.5	3	1
03/13/06	5:08 a	-14.9	-14.9	-14.9	---	---	1.7	E	0.03	2.6	-16.9	---	---	727.4	0.023	0.000	20.5	3	1
03/13/06	5:09 a	-14.9	-14.9	-14.9	---	---	2.6	E	0.04	2.6	-18.3	---	---	727.3	0.023	0.000	20.5	3	1
03/13/06	5:10 a	-14.9	-14.9	-14.9	---	---	1.7	E	0.03	2.6	-16.9	---	---	727.4	0.023	0.000	20.5	3	1
03/13/06	5:11 a	-14.9	-14.8	-14.9	---	---	0.9	E	0.01	1.7	-14.9	---	---	727.4	0.023	0.000	20.5	3	1
03/13/06	5:12 a	-14.8	-14.8	-14.8	---	---	0.9	E	0.01	1.7	-14.8	---	---	727.5	0.023	0.000	20.5	3	1
03/13/06	5:13 a	-14.8	-14.8	-14.8	---	---	1.7	E	0.03	3.5	-16.9	---	---	727.5	0.023	0.000	20.5	3	1
03/13/06	5:14 a	-14.8	-14.8	-14.8	---	---	6.1	SE	0.10	8.7	-21.4	---	---	727.5	0.023	0.000	20.5	3	1
03/13/06	5:15 a	-14.8	-14.8	-14.8	---	---	5.2	SSE	0.09	10.4	-20.8	---	---	727.4	0.023	0.000	20.5	3	1
03/13/06	5:16 a	-14.8	-14.8	-14.8	---	---	1.7	SSE	0.03	3.5	-16.9	---	---	727.5	0.023	0.000	20.5	3	1
03/13/06	5:17 a	-14.8	-14.8	-14.8	---	---	1.7	SSE	0.03	2.6	-16.9	---	---	727.5	0.023	0.000	20.5	3	1
03/13/06	5:18 a	-14.8	-14.8	-14.8	---	---	1.7	SSE	0.03	2.6	-16.8	---	---	727.5	0.023	0.000	20.5	3	1
03/13/06	5:19 a	-14.8	-14.8	-14.8	---	---	3.5	NE	0.06	4.3	-19.2	---	---	727.4	0.023	0.000	20.5	3	1
03/13/06	5:20 a	-14.8	-14.8	-14.8	---	---	3.5	NE	0.06	4.3	-19.2	---	---	727.5	0.023	0.000	20.5	3	1
03/13/06	5:21 a	-14.8	-14.8	-14.8	---	---	2.6	NE	0.04	7.8	-18.2	---	---	727.6	0.023	0.000	20.5	3	1
03/13/06	5:22 a	-14.8	-14.8	-14.8	---	---	9.6	SSE	0.16	14.8	-23.3	---	---	727.5	0.023	0.000	20.5	3	1
03/13/06	5:23 a	-14.8	-14.8	-14.8	---	---	8.7	ESE	0.14	12.2	-22.8	---	---	727.6	0.023	0.000	20.5	3	1
03/13/06	5:24 a	-14.8	-14.8	-14.8	---	---	6.1	E	0.10	7.8	-21.4	---	---	727.5	0.023	0.000	20.5	3	1
03/13/06	5:25 a	-14.8	-14.8	-14.8	---	---	5.2	ENE	0.09	7.0	-20.7	---	---	727.5	0.023	0.000	20.5	3	1
03/13/06	5:26 a	-14.8	-14.8	-14.8	---	---	4.3	ENE	0.07	4.3	-20.1	---	---	727.4	0.023	0.000	20.5	3	1
03/13/06	5:27 a	-14.8	-14.8	-14.8	---	---	2.6	ENE	0.04	3.5	-18.2	---	---	727.5	0.023	0.000	20.5	3	1
03/13/06	5:28 a	-14.8	-14.8	-14.8	---	---	2.6	ENE	0.04	3.5	-18.2	---	---	727.5	0.023	0.000	20.5	3	1
03/13/06	5:29 a	-14.8	-14.8	-14.8	---	---	1.7	ENE	0.03	2.6	-16.9	---	---	727.6	0.023	0.000	20.5	3	1
03/13/06	5:30 a	-14.8	-14.8	-14.8	---	---	1.7	ENE	0.03	2.6	-16.9	---	---	727.7	0.023	0.000	20.5	3	1
03/13/06	5:31 a	-14.8	-14.8	-14.8	---	---	1.7	ENE	0.03	2.6	-16.9	---	---	727.7	0.023	0.000	20.5	3	1
03/13/06	5:32 a	-14.8	-14.8	-14.8	---	---	0.9	ENE	0.01	2.6	-14.8	---	---	727.6	0.023	0.000	20.5	3	1
03/13/06	5:33 a	-14.8	-14.8	-14.8	---	---	1.7	ENE	0.03	2.6	-16.9	---	---	727.6	0.023	0.000	20.5	3	1
03/13/06	5:34 a	-14.8	-14.8	-14.8	---	---	2.6	ENE	0.04	4.3	-18.2	---	---	727.5	0.023	0.000	20.5	3	1
03/13/06	5:35 a	-14.8	-14.8	-14.8	---	---	2.6	ENE	0.04	2.6	-18.2	---	---	727.7	0.023	0.000	20.5	3	1
03/13/06	5:36 a	-14.8	-14.8	-14.8	---	---	2.6	E	0.04	3.5	-18.2	---	---	727.6	0.023	0.000	20.5	3	1
03/13/06	5:37 a	-14.8	-14.8	-14.8	---	---	2.6	E	0.04	2.6	-18.2	---	---	727.7	0.023	0.000	20.5	3	1
03/13/06	5:38 a	-14.8	-14.8	-14.8	---	---	3.5	E	0.06	4.3	-19.3	---	---	727.6	0.023	0.000	20.5	3	1
03/13/06	5:39 a	-14.8	-14.8	-14.8	---	---	5.2	ENE	0.09	7.0	-20.8	---	---	727.6	0.023	0.000	20.5	3	1
03/13/06	5:40 a	-14.8	-14.8	-14.8	---	---	6.1	ENE	0.10	7.0	-21.4	---	---	727.6	0.023	0.000	20.5	3	1
03/13/06	5:41 a	-14.8	-14.8	-14.8	---	---	3.5	ENE	0.06	5.2	-19.3	---	---	727.6	0.023	0.000	20.6	3	1
03/13/06	5:42 a	-14.9	-14.8	-14.9	---	---	3.5	ENE	0.06	4.3	-19.3	---	---	727.7	0.023	0.000	20.6	3	1
03/13/06	5:43 a	-14.9	-14.9	-14.9	---	---	4.3	ENE	0.07	5.2	-20.2	---	---	727.6	0.023	0.000	20.6	3	1
03/13/06	5:44 a	-14.9	-14.9	-14.9	---	---	3.5	ENE	0.06	4.3	-19.3	---	---	727.6	0.023	0.000	20.6	3	1
03/13/06	5:45 a	-14.9	-14.9	-14.9	---	---	3.5	E	0.06	4.3	-19.3	---	---	727.6	0.023	0.000	20.6	3	1
03/13/06	5:46 a	-14.9	-14.9	-14.9	---	---	2.6	E	0.04	3.5	-18.3	---	---	727.6	0.023	0.000	20.6	3	1
03/13/06	5:47 a	-14.9	-14.9	-14.9	---	---	1.7	E	0.03	3.5	-16.9	---	---	727.6	0.023	0.000	20.6	3	1
03/13/06	5:48 a	-14.9	-14.9	-14.9	---	---	2.6	E	0.04	4.3	-18.3	---	---	727.6	0.023	0.000	20.6	3	1
03/13/06	5:49 a	-14.9	-14.9	-14.9	---	---	3.5	E	0.06	5.2	-19.4	---	---	727.6	0.023	0.000	20.6	3	1
03/13/06	5:50 a	-14.9	-14.9	-14.9	---	---	3.5	E	0.06	4.3	-19.4	---	---	727.6	0.023	0.000	20.6	3	1
03/13/06	5:51 a	-14.9	-14.9	-14.9	---	---	2.6	E	0.04	3.5	-18.3	---	---	727.7	0.023	0.000	20.6	3	1
03/13/06	5:52 a	-14.9	-14.9	-14.9	---	---	3.5	E	0.06	4.3	-19.4	---	---	727.6	0.023	0.000	20.6	3	1
03/13/06	5:53 a	-14.9	-14.9	-15.0	---	---	1.7	E	0.03	3.5	-17.0	---	---	727.7	0.023	0.000	20.6	3	1
03/13/06	5:54 a	-14.9	-14.9	-15.0	---	---	1.7	ESE	0.03	2.6	-17.0	---	---	727.7	0.023	0.000	20.6	3	1
03/13/06	5:55 a	-15.0	-15.0	-15.0	---	---	2.6	ESE	0.04	5.2	-18.4	---	---	727.7	0.023	0.000	20.6	3	1
03/13/06	5:56 a	-15.0	-15.0	-15.0	---	---	3.5	SE	0.06	5.2	-19.4	---	---	727.6	0.023	0.000	20.6	3	1
03/13/06	5:57 a	-15.0	-15.0	-15.0	---	---	0.9	SE	0.01	2.6	-15.0	---	---	727.7	0.023	0.000	20.6	3	1
03/13/06	5:58 a	-15.0	-15.0	-15.0	---	---	1.7	SE	0.03	4.3	-17.1	---	---	727.7	0.023	0.000	20.7	3	1
03/13/06	5:59 a	-15.0	-15.0	-15.0	---	---	2.6	SE	0.04	3.5	-18.4	---	---	727.7	0.023	0.000	20.7	3	1
03/13/06	6:00 a	-15.0	-15.0	-15.0	---	---	2.6	SE	0.04	4.3	-18.4	---	---	727.6	0.023	0.000	20.7	3	1
03/13/06	6:01 a	-15.0	-15.0	-15.1	---	---	2.6	SE	0.04	3.5	-18.4	---	---	727.6	0.023	0.000	20.7	3	1
03/13/06	6:02 a	-15.0	-15.0	-15.1	---	---	3.5	SE	0.06	3.5	-19.4	---	---	727.6	0.023	0.000	20.7	3	1
03/13/06	6:03 a	-15.0	-15.0	-15.1	---	---	3.5	SE	0.06	4.3	-19.4	---	---	727.6	0.023	0.000	20.7	3	1
03/13/06	6:04 a	-15.1	-15.1	-15.1	---	---	3.5	SE	0.06	4.3	-19.5	---	---	727.5	0.023	0.000	20.6	3	1
03/13/06	6:05 a	-15.1	-15.1	-15.1	---	---	3.5	SE	0.06	4.3	-19.5	---	---	727.5	0.023	0.000	20.6	3	1
03/13/06	6:06 a	-15.1	-15.1	-15.1	---	---	1.7	SE	0.03	3.5	-17.1	---	---	727.5	0.023	0.000	20.7	3	1
03/13/06	6:07 a	-15.1	-15.1	-15.1	---	---	0.9	SE	0.01	1.7	-15.1	---	---	727.6	0.023	0.000	20.6	3	1
03/13/06	6:08 a	-15.1	-15.1	-15.1	---	---	2.6	SE	0.04	2.6	-18.4	---	---	727.5	0.023	0.000	20.6	3	1
03/13/06	6:09 a	-15.1	-15.1	-15.1	---	---	1.7	SE	0.03	2.6	-17.1	---	---	727.4	0.023	0.000	20.6	3	1
03/13/06	6:10 a	-15.1	-15.1	-15.1	---	---	1.7	SE	0.03	2.6	-17.1	---	---	727.4	0.023	0.000	20.6	3	1
03/13/06	6:11 a	-15.1	-15.1	-15.1	---	---	1.7	SE	0.03	2.6	-17.1	---	---	727.4	0.023	0.000	20.7	3	1
03/13/06	6:12 a	-15.1	-15.1	-15.1	---	---	0.9	SE	0.01	1.7	-15.1	---	---	727.4	0.023	0.000	20.6	3	1
03/13/06	6:13 a	-15.1	-15.1	-15.1	---	---	1.7	SE	0.03	2.6	-17.1	---	---	727.4	0.023	0.000	20.6	3	1
03/13/06	6:14 a	-15.1	-15.1	-15.1	---	---	1.7	SE	0.03	2.6	-17.2	---	---	727.4	0.023	0.000	20.7	3	1
03/13/06	6:15 a	-15.1	-15.1	-15.1	---	---	2.6	SE	0.04	3.5	-18.4	---	---	727.4	0.023	0.000	20.7	3	1
03/13/06	6:16 a	-15.1	-15.1	-15.1	---	---	2.6	SE	0.04	3.5	-18.4	---	---	727.3	0.023	0.000	20.7	3	1
03/13/06	6:17 a	-15.1	-15.1	-15.1	---	---	2.6	SE	0.04	4.3	-18.6	---	---	727.4	0.023	0.000	20.7	3	1
03/13/06	6:18 a	-15.1	-15.1	-15.1	---	---	2.6	SE	0.04	3.5	-18.6	---	---	727.4	0.023	0.000	20.7	3	1
03/13/06	6:19 a	-15.1	-15.1	-15.1	---	---	0.9	SE	0.01	1.7	-15.1	---	---	727.3	0.023	0.000	20.6	3	1
03/13/06	6:20 a	-15.1	-15.1	-15.1	---	---	1.7	SE	0.03	2.6	-17.2	---	---	727.4	0.023	0.000	20.7	3	1
03/13/06	6:21 a	-15.1	-15.1	-15.1	---	---	1.7	SE	0.03	3.5	-17.2	---	---	727.4	0.023	0.000	20.7	3	1
03/13/06	6:22 a	-15.1	-15.1	-15.1	---	---	2.6	SE	0.04	3.5	-18.6	---	---	727.3	0.023	0.000	20.7	3	1
03/13/06	6:23 a	-15.1	-15.1	-15.1	---	---	2.6	SE	0.04	3.5	-18.6	---	---	727.4	0.023	0.000	20.7	3	1
03/13/06	6:24 a	-15.1	-15.1	-15.1	---	---	1.7	SE	0.03	2.6	-17.2	---	---	727.4	0.023	0.000	20.7	3	1
03/13/06	6:25 a	-15.1	-15.1	-15.1	---	---	1.7	SE	0.03	2.6	-17.2	---	---	727.4	0.023	0.000	20.7	3	1
03/13/06	6:26 a	-15.1	-15.1	-15.1	---	---	2.6	SE	0.04	3.5	-18.6	---	---	727.4	0.023	0.000	20.7	3	1
03/13/06	6:27 a	-15.1	-15.1	-15.1	---	---	0.9	SE	0.01	2.6	-15.1	---	---	727.4	0.023	0.000	20.7	3	1
03/13/06	6:28 a	-15.1	-15.1	-15.1	---	---	2.6	SE	0.04	3.5	-18.6	---	---	727.4	0.023	0.000	20.7	3	1
03/13/06	6:29 a	-15.1	-15.1	-15.1	---	---	2.6	SE	0.04	2.6	-18.6	---	---	727.3	0.023	0.000	20.7	3	1
03/13/06	6:30 a	-15.1	-15.1	-15.2	---	---	1.7	SE	0.03	3.5	-17.2	---	---	727.3	0.023	0.000	20.7	3	1
03/13/06	6:31 a	-15.1	-15.1	-15.1	---	---	2.6	SE	0.04	3.5	-18.6	---	---	727.3	0.023	0.000	20.7	3	1
03/13/06	6:32 a	-15.1	-15.1	-15.1	---	---	3.5	SE	0.06	4.3	-19.6	---	---	727.4	0.023	0.000	20.7	3	1
03/13/06	6:33 a	-15.1	-15.1	-15.1	---	---	3.5	SE	0.06	4.3	-19.6	---	---	727.3	0.023	0.000	20.7	3	1
03/13/06	6:34 a	-15.1	-15.1	-15.2	---	---	4.3	S	0.07	5.2	-20.4	---	---	727.3	0.023	0.000	20.7	3	1
03/13/06	6:35 a	-15.1	-15.1	-15.1	---	---	5.2	SSW	0.09	5.2	-21.2	---	---	727.4	0.023	0.000	20.7	3	1
03/13/06	6:36 a	-15.2	-15.1	-15.2	---	---	4.3	SSW	0.07	5.2	-20.5	---	---	727.3	0.023	0.000	20.7	3	1
03/13/06	6:37 a	-15.2	-15.2	-15.2	---	---	3.5	SSW	0.06	4.3	-19.7	---	---	727.3	0.023	0.000	20.7	3	1
03/13/06	6:38 a	-15.2	-15.2	-15.2	---	---	4.3	SSW	0.07	5.2	-20.5	---	---	727.4	0.023	0.000	20.7	3	1
03/13/06	6:39 a	-15.2	-15.2	-15.2	---	---	5.2	SSW	0.09	6.1	-21.2	---	---	727.4	0.023	0.000	20.7	3	1
03/13/06	6:40 a	-15.2	-15.1	-15.2	---	---	4.3	SSW	0.07	6.1	-20.5	---	---	727.4	0.023	0.000	20.7	3	1
03/13/06	6:41 a	-15.2	-15.2	-15.2	---	---	4.3	SSW	0.07	5.2	-20.5	---	---	727.4	0.023	0.000	20.7	3	1
03/13/06	6:42 a	-15.2	-15.2	-15.2	---	---	3.5	SSW	0.06	4.3	-19.7	---	---	727.4	0.023	0.000	20.7	3	1
03/13/06	6:43 a	-15.2	-15.2	-15.2	---	---	3.5	SSW	0.06	4.3	-19.7	---	---	727.4	0.023	0.000	20.7	3	1
03/13/06	6:44 a	-15.2	-15.2	-15.2	---	---	4.3	SSW	0.07	6.1	-20.5	---	---	727.4	0.023	0.000	20.7	3	1
03/13/06	6:45 a	-15.2	-15.2	-15.2	---	---	4.3	SSW	0.07	5.2	-20.5	---	---	727.3	0.023	0.000	20.7	3	1
03/13/06	6:46 a	-15.2	-15.2	-15.2	---	---	3.5	SSW	0.06	4.3	-19.7	---	---	727.4	0.023	0.000	20.7	3	1
03/13/06	6:47 a	-15.2	-15.2	-15.2	---	---	4.3	SSW	0.07	5.2	-20.6	---	---	727.4	0.023	0.000	20.7	3	1
03/13/06	6:48 a	-15.2	-15.2	-15.2	---	---	4.3	SSW	0.07	5.2	-20.5	---	---	727.4	0.023	0.000	20.7	3	1
03/13/06	6:49 a	-15.2	-15.2	-15.2	---	---	4.3	SSW	0.07	5.2	-20.5	---	---	727.5	0.023	0.000	20.7	3	1
03/13/06	6:50 a	-15.2	-15.2	-15.2	---	---	4.3	SSW	0.07	6.1	-20.6	---	---	727.4	0.023	0.000	20.7	3	1
03/13/06	6:51 a	-15.2	-15.2	-15.2	---	---	4.3	SSW	0.07	5.2	-20.6	---	---	727.4	0.023	0.000	20.7	3	1
03/13/06	6:52 a	-15.2	-15.2	-15.2	---	---	4.3	SSW	0.07	4.3	-20.6	---	---	727.4	0.023	0.000	20.7	3	1
03/13/06	6:53 a	-15.2	-15.2	-15.2	---	---	3.5	SSW	0.06	4.3	-19.7	---	---	727.4	0.023	0.000	20.7	3	1
03/13/06	6:54 a	-15.3	-15.2	-15.3	---	---	3.5	SSW	0.06	4.3	-19.8	---	---	727.5	0.023	0.000	20.7	3	1
03/13/06	6:55 a	-15.3	-15.3	-15.3	---	---	4.3	SSW	0.07	5.2	-20.6	---	---	727.5	0.023	0.000	20.7	3	1
03/13/06	6:56 a	-15.3	-15.3	-15.3	---	---	4.3	SSW	0.07	5.2	-20.6	---	---	727.4	0.023	0.000	20.7	3	1
03/13/06	6:57 a	-15.3	-15.3	-15.3	---	---	3.5	SSW	0.06	4.3	-19.8	---	---	727.5	0.023	0.000	20.7	3	1
03/13/06	6:58 a	-15.3	-15.3	-15.3	---	---	4.3	SSW	0.07	5.2	-20.6	---	---	727.5	0.023	0.000	20.7	3	1
03/13/06	6:59 a	-15.3	-15.3	-15.3	---	---	3.5	SSW	0.06	4.3	-19.8	---	---	727.4	0.023	0.000	20.7	3	1
03/13/06	7:00 a	-15.3	-15.3	-15.3	---	---	3.5	SSW	0.06	4.3	-19.8	---	---	727.4	0.023	0.000	20.7	3	1
03/13/06	7:01 a	-15.3	-15.3	-15.3	---	---	3.5	SSW	0.06	4.3	-19.8	---	---	727.5	0.023	0.000	20.7	3	1
03/13/06	7:02 a	-15.3	-15.3	-15.3	---	---	4.3	SSW	0.07	6.1	-20.7	---	---	727.5	0.023	0.000	20.8	3	1
03/13/06	7:03 a	-15.3	-15.3	-15.3	---	---	5.2	SSW	0.09	6.1	-21.4	---	---	727.5	0.023	0.000	20.8	3	1
03/13/06	7:04 a	-15.3	-15.3	-15.4	---	---	3.5	SSW	0.06	4.3	-19.8	---	---	727.5	0.023	0.000	20.8	3	1
03/13/06	7:05 a	-15.4	-15.4	-15.4	---	---	3.5	SSW	0.06	3.5	-19.9	---	---	727.4	0.023	0.000	20.8	3	1
03/13/06	7:06 a	-15.4	-15.4	-15.4	---	---	3.5	SSW	0.06	4.3	-19.9	---	---	727.4	0.023	0.000	20.8	3	1
03/13/06	7:07 a	-15.4	-15.4	-15.4	---	---	4.3	SSW	0.07	5.2	-20.8	---	---	727.5	0.023	0.000	20.8	3	1
03/13/06	7:08 a	-15.4	-15.4	-15.4	---	---	3.5	SSW	0.06	4.3	-19.9	---	---	727.4	0.023	0.000	20.8	3	1
03/13/06	7:09 a	-15.4	-15.4	-15.4	---	---	3.5	SSW	0.06	4.3	-19.9	---	---	727.5	0.023	0.000	20.8	3	1
03/13/06	7:10 a	-15.4	-15.4	-15.4	---	---	3.5	SSW	0.06	4.3	-19.9	---	---	727.5	0.023	0.000	20.8	3	1
03/13/06	7:11 a	-15.4	-15.4	-15.4	---	---	3.5	SSW	0.06	4.3	-19.9	---	---	727.5	0.023	0.000	20.8	3	1
03/13/06	7:12 a	-15.4	-15.4	-15.4	---	---	3.5	SSW	0.06	4.3	-19.9	---	---	727.6	0.023	0.000	20.8	3	1
03/13/06	7:13 a	-15.5	-15.4	-15.5	---	---	2.6	S	0.04	4.3	-18.9	---	---	727.5	0.023	0.000	20.8	3	1
03/13/06	7:14 a	-15.5	-15.5	-15.5	---	---	4.3	ENE	0.07	6.1	-20.9	---	---	727.5	0.023	0.000	20.8	3	1
03/13/06	7:15 a	-15.5	-15.5	-15.5	---	---	4.3	ENE	0.07	5.2	-20.9	---	---	727.6	0.023	0.000	20.8	3	1
03/13/06	7:16 a	-15.5	-15.5	-15.6	---	---	4.3	ENE	0.07	6.1	-20.9	---	---	727.6	0.023	0.000	20.8	3	1
03/13/06	7:17 a	-15.6	-15.6	-15.6	---	---	4.3	NE	0.07	5.2	-20.9	---	---	727.5	0.024	0.000	20.8	3	1
03/13/06	7:18 a	-15.6	-15.6	-15.6	---	---	4.3	NE	0.07	5.2	-20.9	---	---	727.5	0.024	0.000	20.8	3	1
03/13/06	7:19 a	-15.6	-15.6	-15.6	---	---	4.3	NE	0.07	5.2	-20.9	---	---	727.5	0.024	0.000	20.8	3	1
03/13/06	7:20 a	-15.6	-15.6	-15.6	---	---	6.1	NE	0.10	7.0	-22.4	---	---	727.5	0.024	0.000	20.8	3	1
03/13/06	7:21 a	-15.6	-15.6	-15.7	---	---	7.0	NE	0.12	7.0	-22.9	---	---	727.5	0.024	0.000	20.8	3	1
03/13/06	7:22 a	-15.7	-15.7	-15.7	---	---	7.0	NE	0.12	7.0	-23.0	---	---	727.5	0.024	0.000	20.8	3	1
03/13/06	7:23 a	-15.7	-15.7	-15.7	---	---	7.8	ENE	0.13	8.7	-23.5	---	---	727.5	0.024	0.000	20.8	3	1
03/13/06	7:24 a	-15.7	-15.7	-15.7	---	---	6.1	NE	0.10	7.0	-22.5	---	---	727.5	0.024	0.000	20.8	3	1
03/13/06	7:25 a	-15.7	-15.7	-15.8	---	---	5.2	NE	0.09	6.1	-21.9	---	---	727.5	0.024	0.000	20.8	3	1
03/13/06	7:26 a	-15.8	-15.8	-15.8	---	---	4.3	NE	0.07	5.2	-21.2	---	---	727.5	0.024	0.000	20.8	3	1
03/13/06	7:27 a	-15.8	-15.8	-15.8	---	---	4.3	NE	0.07	6.1	-21.2	---	---	727.6	0.024	0.000	20.8	3	1
03/13/06	7:28 a	-15.8	-15.8	-15.8	---	---	7.0	NE	0.12	8.7	-23.2	---	---	727.5	0.024	0.000	20.8	3	1
03/13/06	7:29 a	-15.8	-15.8	-15.8	---	---	7.8	NE	0.13	9.6	-23.7	---	---	727.5	0.024	0.000	20.8	3	1
03/13/06	7:30 a	-15.8	-15.8	-15.9	---	---	10.4	ENE	0.17	11.3	-25.0	---	---	727.5	0.024	0.000	20.8	3	1
03/13/06	7:31 a	-15.9	-15.8	-15.9	---	---	8.7	ENE	0.14	10.4	-24.2	---	---	727.5	0.024	0.000	20.8	3	1
03/13/06	7:32 a	-15.9	-15.9	-15.9	---	---	7.8	ENE	0.13	9.6	-23.8	---	---	727.5	0.024	0.000	20.8	3	1
03/13/06	7:33 a	-15.9	-15.9	-15.9	---	---	8.7	NE	0.14	9.6	-24.3	---	---	727.5	0.024	0.000	20.8	3	1
03/13/06	7:34 a	-15.9	-15.9	-15.9	---	---	7.0	NE	0.12	7.8	-23.3	---	---	727.6	0.024	0.000	20.8	3	1
03/13/06	7:35 a	-16.0	-15.9	-16.0	---	---	7.8	ENE	0.13	8.7	-23.9	---	---	727.5	0.024	0.000	20.8	3	1
03/13/06	7:36 a	-16.0	-16.0	-16.1	---	---	8.7	ENE	0.14	9.6	-24.4	---	---	727.4	0.024	0.000	20.8	3	1
03/13/06	7:37 a	-16.1	-16.1	-16.1	---	---	7.8	ENE	0.13	9.6	-24.0	---	---	727.5	0.024	0.000	20.8	3	1
03/13/06	7:38 a	-16.1	-16.1	-16.1	---	---	8.7	ENE	0.14	9.6	-24.4	---	---	727.5	0.024	0.000	20.8	3	1
03/13/06	7:39 a	-16.1	-16.1	-16.1	---	---	8.7	ENE	0.14	10.4	-24.5	---	---	727.5	0.024	0.000	20.8	3	1
03/13/06	7:40 a	-16.2	-16.2	-16.2	---	---	9.6	ENE	0.16	12.2	-25.0	---	---	727.4	0.024	0.000	20.8	3	1
03/13/06	7:41 a	-16.2	-16.2	-16.2	---	---	10.4	ENE	0.17	11.3	-25.4	---	---	727.4	0.024	0.000	20.8	3	1
03/13/06	7:42 a	-16.2	-16.2	-16.2	---	---	10.4	ENE	0.17	11.3	-25.4	---	---	727.5	0.024	0.000	20.8	3	1
03/13/06	7:43 a	-16.2	-16.2	-16.2	---	---	8.7	ENE	0.14	11.3	-24.7	---	---	727.5	0.024	0.000	20.8	3	1
03/13/06	7:44 a	-16.3	-16.3	-16.3	---	---	8.7	ENE	0.14	12.2	-24.7	---	---	727.5	0.024	0.000	20.8	3	1
03/13/06	7:45 a	-16.3	-16.3	-16.3	---	---	7.8	ENE	0.13	9.6	-24.3	---	---	727.6	0.024	0.000	20.8	3	1
03/13/06	7:46 a	-16.3	-16.3	-16.4	---	---	8.7	E	0.14	10.4	-24.8	---	---	727.6	0.024	0.000	20.8	3	1
03/13/06	7:47 a	-16.3	-16.3	-16.4	---	---	7.0	E	0.12	9.6	-23.8	---	---	727.6	0.024	0.000	20.8	3	1
03/13/06	7:48 a	-16.4	-16.4	-16.4	---	---	7.8	E	0.13	9.6	-24.4	---	---	727.7	0.024	0.000	20.8	3	1
03/13/06	7:49 a	-16.4	-16.4	-16.4	---	---	8.7	ENE	0.14	11.3	-24.8	---	---	727.7	0.024	0.000	20.8	3	1
03/13/06	7:50 a	-16.4	-16.4	-16.4	---	---	11.3	E	0.19	13.0	-26.1	---	---	727.6	0.024	0.000	20.8	3	1
03/13/06	7:51 a	-16.4	-16.4	-16.4	---	---	10.4	E	0.17	13.9	-25.7	---	---	727.6	0.024	0.000	20.8	3	1
03/13/06	7:52 a	-16.5	-16.5	-16.5	---	---	10.4	E	0.17	14.8	-25.8	---	---	727.6	0.024	0.000	20.8	3	1
03/13/06	7:53 a	-16.5	-16.5	-16.6	---	---	12.2	ENE	0.20	16.5	-26.6	---	---	727.5	0.024	0.000	20.8	3	1
03/13/06	7:54 a	-16.6	-16.6	-16.6	---	---	14.8	ENE	0.25	16.5	-27.6	---	---	727.5	0.024	0.000	20.8	3	1
03/13/06	7:55 a	-16.6	-16.6	-16.6	---	---	10.4	E	0.17	13.9	-25.9	---	---	727.6	0.024	0.000	20.8	3	1
03/13/06	7:56 a	-16.6	-16.6	-16.6	---	---	13.9	ENE	0.23	16.5	-27.3	---	---	727.5	0.024	0.000	20.8	3	1
03/13/06	7:57 a	-16.7	-16.6	-16.7	---	---	14.8	ENE	0.25	16.5	-27.7	---	---	727.6	0.024	0.000	20.8	3	1
03/13/06	7:58 a	-16.7	-16.7	-16.7	---	---	11.3	ENE	0.19	13.0	-26.4	---	---	727.6	0.024	0.000	20.8	3	1
03/13/06	7:59 a	-16.7	-16.7	-16.7	---	---	13.0	ENE	0.22	16.5	-27.2	---	---	727.6	0.024	0.000	20.8	3	1
03/13/06	8:00 a	-16.7	-16.7	-16.8	---	---	13.0	ENE	0.22	14.8	-27.2	---	---	727.6	0.024	0.000	20.8	3	1
03/13/06	8:01 a	-16.8	-16.8	-16.8	---	---	13.9	ENE	0.23	15.7	-27.6	---	---	727.6	0.024	0.000	20.8	3	1
03/13/06	8:02 a	-16.8	-16.8	-16.8	---	---	13.9	ENE	0.23	14.8	-27.6	---	---	727.6	0.024	0.000	20.8	3	1
03/13/06	8:03 a	-16.8	-16.8	-16.8	---	---	12.2	ENE	0.20	14.8	-26.9	---	---	727.6	0.024	0.000	20.8	3	1
03/13/06	8:04 a	-16.8	-16.8	-16.9	---	---	12.2	ENE	0.20	13.0	-26.9	---	---	727.7	0.024	0.000	20.8	3	1
03/13/06	8:05 a	-16.9	-16.9	-16.9	---	---	11.3	ENE	0.19	14.8	-26.7	---	---	727.7	0.024	0.000	20.8	3	1
03/13/06	8:06 a	-16.9	-16.9	-16.9	---	---	13.0	ENE	0.22	15.7	-27.4	---	---	727.6	0.024	0.000	20.8	3	1
03/13/06	8:07 a	-16.9	-16.9	-16.9	---	---	12.2	ENE	0.20	13.9	-27.1	---	---	727.6	0.024	0.000	20.8	3	1
03/13/06	8:08 a	-16.9	-16.9	-17.0	---	---	13.0	ENE	0.22	13.9	-27.4	---	---	727.6	0.024	0.000	20.8	3	1
03/13/06	8:09 a	-17.0	-17.0	-17.0	---	---	13.0	ENE	0.22	13.9	-27.5	---	---	727.6	0.025	0.000	20.8	3	1
03/13/06	8:10 a	-17.0	-17.0	-17.0	---	---	12.2	ENE	0.20	13.0	-27.2	---	---	727.6	0.025	0.000	20.8	3	1
03/13/06	8:11 a	-17.1	-17.1	-17.1	---	---	11.3	ENE	0.19	13.0	-26.9	---	---	727.6	0.025	0.000	20.8	3	1
03/13/06	8:12 a	-17.1	-17.1	-17.1	---	---	11.3	NE	0.19	12.2	-26.9	---	---	727.7	0.025	0.000	20.8	3	1
03/13/06	8:13 a	-17.1	-17.1	-17.1	---	---	10.4	ENE	0.17	12.2	-26.6	---	---	727.6	0.025	0.000	20.8	3	1
03/13/06	8:14 a	-17.1	-17.1	-17.2	---	---	10.4	NE	0.17	12.2	-26.6	---	---	727.7	0.025	0.000	20.8	3	1
03/13/06	8:15 a	-17.2	-17.2	-17.2	---	---	10.4	NE	0.17	11.3	-26.7	---	---	727.6	0.025	0.000	20.9	3	1
03/13/06	8:16 a	-17.2	-17.2	-17.2	---	---	9.6	ENE	0.16	11.3	-26.3	---	---	727.6	0.025	0.000	20.8	3	1
03/13/06	8:17 a	-17.2	-17.2	-17.2	---	---	10.4	ENE	0.17	12.2	-26.7	---	---	727.6	0.025	0.000	20.8	3	1
03/13/06	8:18 a	-17.2	-17.2	-17.2	---	---	10.4	ENE	0.17	11.3	-26.7	---	---	727.6	0.025	0.000	20.8	3	1
03/13/06	8:19 a	-17.2	-17.2	-17.2	---	---	10.4	ENE	0.17	11.3	-26.7	---	---	727.6	0.025	0.000	20.9	3	1
03/13/06	8:20 a	-17.3	-17.2	-17.3	---	---	9.6	ENE	0.16	10.4	-26.4	---	---	727.6	0.025	0.000	20.9	3	1
03/13/06	8:21 a	-17.3	-17.3	-17.3	---	---	10.4	ENE	0.17	12.2	-26.8	---	---	727.5	0.025	0.000	20.9	3	1
03/13/06	8:22 a	-17.3	-17.3	-17.3	---	---	11.3	E	0.19	13.9	-27.2	---	---	727.6	0.025	0.000	20.9	3	1
03/13/06	8:23 a	-17.3	-17.3	-17.3	---	---	8.7	E	0.14	11.3	-26.0	---	---	727.6	0.025	0.000	20.9	3	1
03/13/06	8:24 a	-17.3	-17.3	-17.4	---	---	9.6	E	0.16	11.3	-26.4	---	---	727.5	0.025	0.000	20.9	3	1
03/13/06	8:25 a	-17.4	-17.3	-17.4	---	---	11.3	E	0.19	14.8	-27.3	---	---	727.5	0.025	0.000	20.9	3	1
03/13/06	8:26 a	-17.4	-17.4	-17.4	---	---	13.0	ENE	0.22	13.0	-28.0	---	---	727.6	0.025	0.000	20.9	3	1
03/13/06	8:27 a	-17.4	-17.4	-17.4	---	---	10.4	ENE	0.17	13.9	-26.9	---	---	727.6	0.025	0.000	20.9	3	1
03/13/06	8:28 a	-17.4	-17.4	-17.4	---	---	8.7	E	0.14	12.2	-26.1	---	---	727.5	0.025	0.000	20.9	3	1
03/13/06	8:29 a	-17.4	-17.4	-17.4	---	---	9.6	E	0.16	11.3	-26.6	---	---	727.6	0.025	0.000	20.9	3	1
03/13/06	8:30 a	-17.4	-17.4	-17.4	---	---	9.6	E	0.16	11.3	-26.6	---	---	727.5	0.025	0.000	20.9	3	1
03/13/06	8:31 a	-17.4	-17.4	-17.5	---	---	10.4	ENE	0.17	11.3	-27.0	---	---	727.5	0.025	0.000	20.9	3	1
03/13/06	8:32 a	-17.5	-17.4	-17.5	---	---	11.3	E	0.19	13.0	-27.4	---	---	727.5	0.025	0.000	20.9	3	1
03/13/06	8:33 a	-17.5	-17.5	-17.5	---	---	10.4	ENE	0.17	11.3	-27.1	---	---	727.5	0.025	0.000	20.9	3	1
03/13/06	8:34 a	-17.5	-17.5	-17.5	---	---	10.4	E	0.17	12.2	-27.1	---	---	727.6	0.025	0.000	20.9	3	1
03/13/06	8:35 a	-17.5	-17.5	-17.6	---	---	10.4	E	0.17	12.2	-27.1	---	---	727.4	0.025	0.000	20.9	3	1
03/13/06	8:36 a	-17.6	-17.5	-17.6	---	---	11.3	ENE	0.19	13.0	-27.5	---	---	727.4	0.025	0.000	20.9	3	1
03/13/06	8:37 a	-17.6	-17.5	-17.6	---	---	10.4	E	0.17	13.0	-27.2	---	---	727.5	0.025	0.000	20.9	3	1
03/13/06	8:38 a	-17.6	-17.6	-17.6	---	---	11.3	E	0.19	13.9	-27.5	---	---	727.5	0.025	0.000	20.9	3	1
03/13/06	8:39 a	-17.6	-17.6	-17.6	---	---	13.0	E	0.22	15.7	-28.2	---	---	727.5	0.025	0.000	20.9	3	1
03/13/06	8:40 a	-17.6	-17.6	-17.6	---	---	13.0	E	0.22	13.9	-28.2	---	---	727.5	0.025	0.000	20.9	3	1
03/13/06	8:41 a	-17.6	-17.6	-17.6	---	---	10.4	E	0.17	13.9	-27.2	---	---	727.5	0.025	0.000	20.9	3	1
03/13/06	8:42 a	-17.6	-17.6	-17.6	---	---	12.2	E	0.20	14.8	-27.9	---	---	727.4	0.025	0.000	20.9	3	1
03/13/06	8:43 a	-17.6	-17.6	-17.6	---	---	13.0	E	0.22	14.8	-28.3	---	---	727.5	0.025	0.000	20.9	3	1
03/13/06	8:44 a	-17.6	-17.6	-17.6	---	---	12.2	E	0.20	14.8	-27.9	---	---	727.5	0.025	0.000	20.9	3	1
03/13/06	8:45 a	-17.6	-17.6	-17.6	---	---	13.0	E	0.22	15.7	-28.3	---	---	727.4	0.025	0.000	20.9	3	1
03/13/06	8:46 a	-17.6	-17.6	-17.6	---	---	12.2	E	0.20	14.8	-27.9	---	---	727.5	0.025	0.000	20.9	3	1
03/13/06	8:47 a	-17.6	-17.6	-17.7	---	---	12.2	E	0.20	14.8	-27.9	---	---	727.4	0.025	0.000	20.9	3	1
03/13/06	8:48 a	-17.7	-17.6	-17.7	---	---	13.0	E	0.22	15.7	-28.3	---	---	727.5	0.025	0.000	20.9	3	1
03/13/06	8:49 a	-17.7	-17.6	-17.7	---	---	13.0	E	0.22	14.8	-28.3	---	---	727.4	0.025	0.000	20.9	3	1
03/13/06	8:50 a	-17.7	-17.7	-17.7	---	---	13.0	E	0.22	14.8	-28.3	---	---	727.4	0.025	0.000	20.9	3	1
03/13/06	8:51 a	-17.7	-17.7	-17.7	---	---	12.2	E	0.20	15.7	-28.0	---	---	727.5	0.025	0.000	20.9	3	1
03/13/06	8:52 a	-17.7	-17.7	-17.7	---	---	13.0	E	0.22	16.5	-28.3	---	---	727.3	0.025	0.000	20.9	3	1
03/13/06	8:53 a	-17.7	-17.7	-17.7	---	---	13.9	E	0.23	19.1	-28.7	---	---	727.4	0.025	0.000	20.9	3	1
03/13/06	8:54 a	-17.7	-17.7	-17.7	---	---	13.9	E	0.23	15.7	-28.7	---	---	727.5	0.025	0.000	20.9	3	1
03/13/06	8:55 a	-17.7	-17.7	-17.7	---	---	12.2	E	0.20	15.7	-28.1	---	---	727.6	0.025	0.000	20.9	3	1
03/13/06	8:56 a	-17.7	-17.7	-17.7	---	---	13.0	E	0.22	16.5	-28.4	---	---	727.5	0.025	0.000	20.9	3	1
03/13/06	8:57 a	-17.7	-17.7	-17.8	---	---	14.8	E	0.25	17.4	-29.1	---	---	727.5	0.025	0.000	20.9	3	1
03/13/06	8:58 a	-17.7	-17.7	-17.8	---	---	12.2	E	0.20	14.8	-28.1	---	---	727.6	0.025	0.000	20.9	3	1
03/13/06	8:59 a	-17.8	-17.7	-17.8	---	---	13.9	E	0.23	18.3	-28.8	---	---	727.5	0.025	0.000	20.9	3	1
03/13/06	9:00 a	-17.7	-17.7	-17.8	---	---	12.2	E	0.20	16.5	-28.1	---	---	727.6	0.025	0.000	20.9	3	1
03/13/06	9:01 a	-17.8	-17.8	-17.8	---	---	13.9	E	0.23	15.7	-28.8	---	---	727.6	0.025	0.000	20.9	3	1
03/13/06	9:02 a	-17.8	-17.8	-17.8	---	---	13.0	E	0.22	15.7	-28.5	---	---	727.6	0.025	0.000	20.9	3	1
03/13/06	9:03 a	-17.8	-17.8	-17.8	---	---	12.2	E	0.20	14.8	-28.2	---	---	727.6	0.025	0.000	20.9	3	1
03/13/06	9:04 a	-17.8	-17.8	-17.8	---	---	16.5	ENE	0.28	19.1	-29.7	---	---	727.6	0.025	0.000	20.9	3	1
03/13/06	9:05 a	-17.8	-17.8	-17.8	---	---	13.9	E	0.23	16.5	-28.9	---	---	727.6	0.025	0.000	20.9	3	1
03/13/06	9:06 a	-17.8	-17.8	-17.8	---	---	13.9	E	0.23	17.4	-28.9	---	---	727.7	0.025	0.000	20.9	3	1
03/13/06	9:07 a	-17.8	-17.8	-17.8	---	---	13.9	E	0.23	16.5	-28.9	---	---	727.6	0.025	0.000	20.9	3	1
03/13/06	9:08 a	-17.8	-17.8	-17.9	---	---	13.0	E	0.22	15.7	-28.6	---	---	727.6	0.025	0.000	20.9	3	1
03/13/06	9:09 a	-17.9	-17.9	-17.9	---	---	16.5	E	0.28	19.1	-29.8	---	---	727.6	0.025	0.000	20.9	3	1
03/13/06	9:10 a	-17.9	-17.9	-17.9	---	---	15.7	E	0.26	18.3	-29.6	---	---	727.6	0.025	0.000	20.9	3	1
03/13/06	9:11 a	-17.9	-17.9	-17.9	---	---	15.7	E	0.26	18.3	-29.6	---	---	727.6	0.025	0.000	20.9	3	1
03/13/06	9:12 a	-17.9	-17.9	-17.9	---	---	15.7	E	0.26	18.3	-29.6	---	---	727.5	0.025	0.000	20.9	3	1
03/13/06	9:13 a	-17.9	-17.9	-17.9	---	---	15.7	E	0.26	18.3	-29.6	---	---	727.6	0.025	0.000	20.9	3	1
03/13/06	9:14 a	-17.9	-17.9	-17.9	---	---	15.7	E	0.26	19.1	-29.6	---	---	727.6	0.025	0.000	20.9	3	1
03/13/06	9:15 a	-17.9	-17.9	-17.9	---	---	16.5	E	0.28	19.1	-29.9	---	---	727.6	0.025	0.000	20.9	3	1
03/13/06	9:16 a	-17.9	-17.9	-17.9	---	---	13.0	E	0.22	19.1	-28.7	---	---	727.6	0.025	0.000	20.9	3	1
03/13/06	9:17 a	-17.9	-17.9	-17.9	---	---	15.7	E	0.26	18.3	-29.6	---	---	727.6	0.025	0.000	20.9	3	1
03/13/06	9:18 a	-17.9	-17.9	-18.0	---	---	15.7	E	0.26	19.1	-29.6	---	---	727.6	0.025	0.000	20.9	3	1
03/13/06	9:19 a	-17.9	-17.9	-18.0	---	---	15.7	E	0.26	18.3	-29.6	---	---	727.6	0.025	0.000	20.9	3	1
03/13/06	9:20 a	-18.0	-18.0	-18.0	---	---	17.4	E	0.29	23.5	-30.2	---	---	727.5	0.025	0.000	20.9	3	1
03/13/06	9:21 a	-18.0	-18.0	-18.1	---	---	15.7	E	0.26	19.1	-29.7	---	---	727.6	0.025	0.000	20.9	3	1
03/13/06	9:22 a	-18.0	-18.0	-18.1	---	---	14.8	E	0.25	18.3	-29.4	---	---	727.6	0.025	0.000	20.9	3	1
03/13/06	9:23 a	-18.1	-18.0	-18.1	---	---	13.9	E	0.23	17.4	-29.2	---	---	727.6	0.025	0.000	20.9	3	1
03/13/06	9:24 a	-18.1	-18.1	-18.1	---	---	14.8	E	0.25	17.4	-29.5	---	---	727.6	0.025	0.000	20.9	3	1
03/13/06	9:25 a	-18.1	-18.1	-18.1	---	---	13.9	E	0.23	17.4	-29.2	---	---	727.6	0.025	0.000	20.9	3	1
03/13/06	9:26 a	-18.1	-18.1	-18.1	---	---	13.9	E	0.23	17.4	-29.2	---	---	727.6	0.025	0.000	20.9	3	1
03/13/06	9:27 a	-18.1	-18.1	-18.1	---	---	13.9	E	0.23	16.5	-29.2	---	---	727.7	0.025	0.000	20.9	3	1
03/13/06	9:28 a	-18.1	-18.1	-18.1	---	---	13.9	E	0.23	15.7	-29.2	---	---	727.5	0.025	0.000	20.9	3	1
03/13/06	9:29 a	-18.1	-18.1	-18.1	---	---	14.8	E	0.25	19.1	-29.6	---	---	727.5	0.025	0.000	20.9	3	1
03/13/06	9:30 a	-18.1	-18.1	-18.1	---	---	15.7	E	0.26	19.1	-29.8	---	---	727.5	0.025	0.000	20.9	3	1
03/13/06	9:31 a	-18.2	-18.1	-18.2	---	---	16.5	E	0.28	19.1	-30.2	---	---	727.5	0.025	0.000	20.9	3	1
03/13/06	9:32 a	-18.2	-18.2	-18.2	---	---	13.9	E	0.23	17.4	-29.3	---	---	727.6	0.025	0.000	20.9	3	1
03/13/06	9:33 a	-18.2	-18.2	-18.2	---	---	15.7	E	0.26	19.1	-29.9	---	---	727.5	0.025	0.000	20.9	3	1
03/13/06	9:34 a	-18.2	-18.2	-18.2	---	---	17.4	E	0.29	22.6	-30.4	---	---	727.5	0.025	0.000	20.9	3	1
03/13/06	9:35 a	-18.2	-18.2	-18.2	---	---	18.3	E	0.30	20.9	-30.8	---	---	727.4	0.025	0.000	20.9	3	1
03/13/06	9:36 a	-18.2	-18.2	-18.2	---	---	18.3	E	0.30	22.6	-30.8	---	---	727.4	0.025	0.000	20.9	3	1
03/13/06	9:37 a	-18.2	-18.2	-18.3	---	---	20.0	E	0.33	24.3	-31.3	---	---	727.3	0.025	0.000	20.9	3	1
03/13/06	9:38 a	-18.2	-18.2	-18.3	---	---	16.5	ENE	0.28	20.0	-30.3	---	---	727.5	0.025	0.000	20.9	3	1
03/13/06	9:39 a	-18.3	-18.2	-18.3	---	---	17.4	E	0.29	20.9	-30.6	---	---	727.4	0.025	0.000	20.9	3	1
03/13/06	9:40 a	-18.3	-18.3	-18.3	---	---	18.3	E	0.30	20.9	-30.8	---	---	727.5	0.025	0.000	20.9	3	1
03/13/06	9:41 a	-18.3	-18.3	-18.3	---	---	14.8	E	0.25	17.4	-29.8	---	---	727.5	0.025	0.000	20.9	3	1
03/13/06	9:42 a	-18.3	-18.3	-18.3	---	---	14.8	E	0.25	19.1	-29.8	---	---	727.6	0.025	0.000	20.9	3	1
03/13/06	9:43 a	-18.3	-18.3	-18.3	---	---	15.7	E	0.26	17.4	-30.1	---	---	727.5	0.025	0.000	20.9	3	1
03/13/06	9:44 a	-18.3	-18.3	-18.3	---	---	16.5	E	0.28	19.1	-30.4	---	---	727.5	0.025	0.000	20.9	3	1
03/13/06	9:45 a	-18.3	-18.3	-18.3	---	---	16.5	E	0.28	19.1	-30.4	---	---	727.6	0.025	0.000	20.9	3	1
03/13/06	9:46 a	-18.3	-18.3	-18.4	---	---	14.8	E	0.25	17.4	-29.8	---	---	727.6	0.025	0.000	20.9	3	1
03/13/06	9:47 a	-18.4	-18.3	-18.4	---	---	13.9	E	0.23	17.4	-29.6	---	---	727.6	0.026	0.000	20.9	3	1
03/13/06	9:48 a	-18.4	-18.4	-18.4	---	---	13.0	E	0.22	16.5	-29.3	---	---	727.6	0.026	0.000	20.9	3	1
03/13/06	9:49 a	-18.4	-18.4	-18.4	---	---	15.7	E	0.26	18.3	-30.2	---	---	727.6	0.026	0.000	20.9	3	1
03/13/06	9:50 a	-18.4	-18.4	-18.4	---	---	13.9	E	0.23	17.4	-29.6	---	---	727.5	0.026	0.000	20.9	3	1
03/13/06	9:51 a	-18.4	-18.4	-18.4	---	---	13.9	E	0.23	15.7	-29.7	---	---	727.6	0.026	0.000	20.9	3	1
03/13/06	9:52 a	-18.4	-18.4	-18.5	---	---	14.8	E	0.25	21.7	-30.0	---	---	727.5	0.026	0.000	20.9	3	1
03/13/06	9:53 a	-18.5	-18.4	-18.5	---	---	17.4	ENE	0.29	20.0	-30.9	---	---	727.5	0.026	0.000	20.9	3	1
03/13/06	9:54 a	-18.5	-18.5	-18.5	---	---	15.7	ENE	0.26	20.0	-30.3	---	---	727.6	0.026	0.000	20.9	3	1
03/13/06	9:55 a	-18.5	-18.5	-18.5	---	---	15.7	E	0.26	18.3	-30.3	---	---	727.5	0.026	0.000	20.9	3	1
03/13/06	9:56 a	-18.6	-18.6	-18.6	---	---	17.4	ENE	0.29	24.3	-30.9	---	---	727.6	0.026	0.000	20.9	3	1
03/13/06	9:57 a	-18.6	-18.6	-18.6	---	---	16.5	E	0.28	19.1	-30.7	---	---	727.6	0.026	0.000	20.9	3	1
03/13/06	9:58 a	-18.6	-18.6	-18.6	---	---	16.5	E	0.28	21.7	-30.7	---	---	727.5	0.026	0.000	20.9	3	1
03/13/06	9:59 a	-18.6	-18.6	-18.6	---	---	18.3	E	0.30	22.6	-31.3	---	---	727.6	0.026	0.000	20.9	3	1
03/13/06	10:00 a	-18.6	-18.6	-18.6	---	---	11.3	E	0.19	15.7	-28.8	---	---	727.7	0.026	0.000	20.9	3	1
03/13/06	10:01 a	-18.6	-18.6	-18.6	---	---	13.9	E	0.23	18.3	-29.9	---	---	727.6	0.026	0.000	20.9	3	1
03/13/06	10:02 a	-18.6	-18.6	-18.6	---	---	10.4	E	0.17	13.9	-28.5	---	---	727.7	0.026	0.000	20.9	3	1
03/13/06	10:03 a	-18.6	-18.6	-18.6	---	---	9.6	E	0.16	14.8	-28.1	---	---	727.6	0.026	0.000	20.9	3	1
03/13/06	10:04 a	-18.6	-18.6	-18.6	---	---	13.0	E	0.22	17.4	-29.6	---	---	727.6	0.026	0.000	20.9	3	1
03/13/06	10:05 a	-18.6	-18.6	-18.7	---	---	13.0	E	0.22	17.4	-29.6	---	---	727.7	0.026	0.000	20.9	3	1
03/13/06	10:06 a	-18.6	-18.6	-18.7	---	---	13.9	E	0.23	18.3	-29.9	---	---	727.7	0.026	0.000	20.9	3	1
03/13/06	10:07 a	-18.6	-18.6	-18.7	---	---	13.0	E	0.22	17.4	-29.6	---	---	727.6	0.026	0.000	20.9	3	1
03/13/06	10:08 a	-18.6	-18.6	-18.7	---	---	12.2	E	0.20	14.8	-29.2	---	---	727.7	0.026	0.000	20.9	3	1
03/13/06	10:09 a	-18.7	-18.7	-18.7	---	---	11.3	E	0.19	14.8	-28.9	---	---	727.7	0.026	0.000	20.9	3	1
03/13/06	10:10 a	-18.7	-18.6	-18.7	---	---	15.7	E	0.26	18.3	-30.6	---	---	727.7	0.026	0.000	20.9	3	1
03/13/06	10:11 a	-18.7	-18.6	-18.7	---	---	13.9	E	0.23	17.4	-29.9	---	---	727.7	0.026	0.000	20.9	3	1
03/13/06	10:12 a	-18.7	-18.7	-18.7	---	---	11.3	E	0.19	15.7	-28.9	---	---	727.8	0.026	0.000	20.9	3	1
03/13/06	10:13 a	-18.7	-18.7	-18.7	---	---	13.0	ENE	0.22	14.8	-29.6	---	---	727.8	0.026	0.000	20.9	3	1
03/13/06	10:14 a	-18.7	-18.7	-18.7	---	---	13.0	E	0.22	15.7	-29.7	---	---	727.8	0.026	0.000	20.9	3	1
03/13/06	10:15 a	-18.7	-18.7	-18.7	---	---	13.0	E	0.22	14.8	-29.6	---	---	727.9	0.026	0.000	20.9	3	1
03/13/06	10:16 a	-18.7	-18.7	-18.7	---	---	11.3	E	0.19	13.0	-28.9	---	---	727.9	0.026	0.000	20.9	3	1
03/13/06	10:17 a	-18.7	-18.7	-18.7	---	---	10.4	E	0.17	12.2	-28.6	---	---	727.9	0.026	0.000	20.9	3	1
03/13/06	10:18 a	-18.7	-18.7	-18.7	---	---	9.6	E	0.16	13.0	-28.2	---	---	727.8	0.026	0.000	20.9	3	1
03/13/06	10:19 a	-18.7	-18.7	-18.7	---	---	10.4	E	0.17	13.0	-28.6	---	---	727.8	0.026	0.000	20.9	3	1
03/13/06	10:20 a	-18.7	-18.7	-18.7	---	---	10.4	E	0.17	12.2	-28.6	---	---	727.8	0.026	0.000	20.9	3	1
03/13/06	10:21 a	-18.7	-18.7	-18.7	---	---	11.3	E	0.19	15.7	-29.0	---	---	727.8	0.026	0.000	20.9	3	1
03/13/06	10:22 a	-18.7	-18.7	-18.7	---	---	13.9	E	0.23	18.3	-30.1	---	---	727.8	0.026	0.000	20.9	3	1
03/13/06	10:23 a	-18.7	-18.7	-18.7	---	---	14.8	E	0.25	18.3	-30.3	---	---	727.8	0.026	0.000	20.9	3	1
03/13/06	10:24 a	-18.7	-18.7	-18.7	---	---	12.2	E	0.20	14.8	-29.4	---	---	727.9	0.026	0.000	20.9	3	1
03/13/06	10:25 a	-18.7	-18.7	-18.7	---	---	11.3	E	0.19	13.0	-29.0	---	---	727.9	0.026	0.000	20.9	3	1
03/13/06	10:26 a	-18.7	-18.7	-18.8	---	---	12.2	ENE	0.20	13.9	-29.4	---	---	727.9	0.026	0.000	20.9	3	1
03/13/06	10:27 a	-18.8	-18.7	-18.8	---	---	14.8	ENE	0.25	16.5	-30.4	---	---	727.9	0.026	0.000	20.9	3	1
03/13/06	10:28 a	-18.7	-18.7	-18.8	---	---	14.8	ENE	0.25	17.4	-30.3	---	---	727.9	0.026	0.000	21.0	3	1
03/13/06	10:29 a	-18.8	-18.7	-18.8	---	---	12.2	E	0.20	14.8	-29.4	---	---	727.9	0.026	0.000	20.9	3	1
03/13/06	10:30 a	-18.8	-18.7	-18.8	---	---	14.8	ENE	0.25	17.4	-30.4	---	---	727.9	0.026	0.000	21.0	3	1
03/13/06	10:31 a	-18.8	-18.7	-18.8	---	---	15.7	ENE	0.26	25.2	-30.7	---	---	728.0	0.026	0.000	21.0	3	1
03/13/06	10:32 a	-18.8	-18.8	-18.8	---	---	13.9	ENE	0.23	16.5	-30.1	---	---	727.9	0.026	0.000	20.9	3	1
03/13/06	10:33 a	-18.8	-18.8	-18.8	---	---	13.9	ENE	0.23	18.3	-30.1	---	---	727.9	0.026	0.000	20.9	3	1
03/13/06	10:34 a	-18.8	-18.7	-18.8	---	---	11.3	E	0.19	13.9	-29.1	---	---	728.0	0.026	0.000	20.9	3	1
03/13/06	10:35 a	-18.8	-18.7	-18.8	---	---	10.4	E	0.17	15.7	-28.7	---	---	728.0	0.026	0.000	20.9	3	1
03/13/06	10:36 a	-18.8	-18.7	-18.8	---	---	13.9	E	0.23	16.5	-30.1	---	---	727.9	0.026	0.000	20.9	3	1
03/13/06	10:37 a	-18.8	-18.8	-18.8	---	---	12.2	E	0.20	16.5	-29.4	---	---	727.9	0.026	0.000	20.9	3	1
03/13/06	10:38 a	-18.8	-18.7	-18.8	---	---	13.0	E	0.22	15.7	-29.8	---	---	728.1	0.026	0.000	20.9	3	1
03/13/06	10:39 a	-18.8	-18.8	-18.8	---	---	10.4	E	0.17	13.0	-28.7	---	---	728.1	0.026	0.000	20.9	3	1
03/13/06	10:40 a	-18.8	-18.8	-18.8	---	---	12.2	E	0.20	13.9	-29.4	---	---	728.1	0.026	0.000	20.9	3	1
03/13/06	10:41 a	-18.8	-18.8	-18.8	---	---	11.3	E	0.19	13.9	-29.1	---	---	728.1	0.026	0.000	20.9	3	1
03/13/06	10:42 a	-18.8	-18.8	-18.8	---	---	10.4	E	0.17	12.2	-28.7	---	---	728.1	0.026	0.000	20.9	3	1
03/13/06	10:43 a	-18.8	-18.8	-18.8	---	---	12.2	E	0.20	14.8	-29.4	---	---	728.1	0.026	0.000	20.9	3	1
03/13/06	10:44 a	-18.8	-18.8	-18.8	---	---	13.0	E	0.22	14.8	-29.8	---	---	728.1	0.026	0.000	20.9	3	1
03/13/06	10:45 a	-18.8	-18.8	-18.8	---	---	13.0	E	0.22	15.7	-29.8	---	---	728.0	0.026	0.000	20.9	3	1
03/13/06	10:46 a	-18.8	-18.8	-18.8	---	---	13.9	E	0.23	15.7	-30.1	---	---	727.9	0.026	0.000	20.9	3	1
03/13/06	10:47 a	-18.8	-18.8	-18.8	---	---	13.9	E	0.23	17.4	-30.1	---	---	728.1	0.026	0.000	20.9	3	1
03/13/06	10:48 a	-18.8	-18.8	-18.8	---	---	8.7	ESE	0.14	11.3	-27.8	---	---	728.1	0.026	0.000	20.9	3	1
03/13/06	10:49 a	-18.8	-18.8	-18.8	---	---	13.0	E	0.22	16.5	-29.8	---	---	728.1	0.026	0.000	20.9	3	1
03/13/06	10:50 a	-18.8	-18.8	-18.8	---	---	13.0	E	0.22	16.5	-29.8	---	---	728.1	0.026	0.000	20.9	3	1
03/13/06	10:51 a	-18.8	-18.8	-18.8	---	---	12.2	E	0.20	15.7	-29.4	---	---	728.0	0.026	0.000	20.9	3	1
03/13/06	10:52 a	-18.8	-18.8	-18.8	---	---	13.0	E	0.22	16.5	-29.8	---	---	728.0	0.026	0.000	20.9	3	1
03/13/06	10:53 a	-18.8	-18.8	-18.8	---	---	13.0	E	0.22	16.5	-29.8	---	---	727.9	0.026	0.000	20.9	3	1
03/13/06	10:54 a	-18.8	-18.8	-18.8	---	---	13.9	E	0.23	15.7	-30.1	---	---	728.1	0.026	0.000	20.9	3	1
03/13/06	10:55 a	-18.8	-18.8	-18.8	---	---	12.2	E	0.20	15.7	-29.4	---	---	728.1	0.026	0.000	20.9	3	1
03/13/06	10:56 a	-18.8	-18.8	-18.8	---	---	15.7	ENE	0.26	18.3	-30.7	---	---	728.0	0.026	0.000	20.9	3	1
03/13/06	10:57 a	-18.8	-18.8	-18.8	---	---	12.2	E	0.20	14.8	-29.4	---	---	728.0	0.026	0.000	20.9	3	1
03/13/06	10:58 a	-18.8	-18.8	-18.8	---	---	13.9	E	0.23	18.3	-30.2	---	---	728.0	0.026	0.000	20.9	3	1
03/13/06	10:59 a	-18.8	-18.8	-18.8	---	---	11.3	E	0.19	13.9	-29.2	---	---	728.0	0.026	0.000	20.9	3	1
03/13/06	11:00 a	-18.8	-18.8	-18.8	---	---	13.0	E	0.22	16.5	-29.8	---	---	728.0	0.026	0.000	20.9	3	1
03/13/06	11:01 a	-18.8	-18.8	-18.8	---	---	12.2	E	0.20	15.7	-29.5	---	---	728.1	0.026	0.000	20.9	3	1
03/13/06	11:02 a	-18.8	-18.8	-18.8	---	---	13.0	ESE	0.22	15.7	-29.8	---	---	728.0	0.026	0.000	20.9	3	1
03/13/06	11:03 a	-18.8	-18.8	-18.8	---	---	13.9	ESE	0.23	17.4	-30.2	---	---	728.0	0.026	0.000	20.9	3	1
03/13/06	11:04 a	-18.8	-18.8	-18.8	---	---	14.8	ESE	0.25	17.4	-30.5	---	---	728.0	0.026	0.000	20.9	3	1
03/13/06	11:05 a	-18.8	-18.8	-18.8	---	---	13.0	E	0.22	15.7	-29.8	---	---	728.0	0.026	0.000	20.9	3	1
03/13/06	11:06 a	-18.8	-18.8	-18.8	---	---	14.8	ESE	0.25	16.5	-30.4	---	---	728.0	0.026	0.000	20.9	3	1
03/13/06	11:07 a	-18.8	-18.8	-18.8	---	---	13.0	E	0.22	16.5	-29.8	---	---	728.1	0.026	0.000	20.9	3	1
03/13/06	11:08 a	-18.8	-18.8	-18.8	---	---	11.3	E	0.19	15.7	-29.1	---	---	727.9	0.026	0.000	20.9	3	1
03/13/06	11:09 a	-18.8	-18.8	-18.8	---	---	12.2	E	0.20	13.9	-29.4	---	---	727.9	0.026	0.000	20.9	3	1
03/13/06	11:10 a	-18.8	-18.8	-18.8	---	---	12.2	E	0.20	15.7	-29.4	---	---	728.1	0.026	0.000	20.9	3	1
03/13/06	11:11 a	-18.8	-18.8	-18.8	---	---	12.2	E	0.20	16.5	-29.4	---	---	728.1	0.026	0.000	20.9	3	1
03/13/06	11:12 a	-18.8	-18.7	-18.8	---	---	10.4	E	0.17	14.8	-28.7	---	---	728.1	0.026	0.000	20.9	3	1
03/13/06	11:13 a	-18.8	-18.7	-18.8	---	---	14.8	E	0.25	19.1	-30.4	---	---	728.1	0.026	0.000	20.9	3	1
03/13/06	11:14 a	-18.8	-18.7	-18.8	---	---	13.0	E	0.22	15.7	-29.8	---	---	728.2	0.026	0.000	20.9	2	1
03/13/06	11:15 a	-18.8	-18.7	-18.8	---	---	16.5	ESE	0.28	20.0	-31.0	---	---	728.1	0.026	0.000	20.9	3	1
03/13/06	11:16 a	-18.7	-18.7	-18.7	---	---	13.0	E	0.22	15.7	-29.7	---	---	728.0	0.026	0.000	20.9	3	1
03/13/06	11:17 a	-18.7	-18.7	-18.7	---	---	16.5	E	0.28	20.9	-30.9	---	---	728.0	0.026	0.000	20.9	3	1
03/13/06	11:18 a	-18.7	-18.7	-18.7	---	---	14.8	E	0.25	17.4	-30.3	---	---	728.0	0.026	0.000	20.9	2	1
03/13/06	11:19 a	-18.7	-18.7	-18.7	---	---	15.7	E	0.26	24.3	-30.6	---	---	728.0	0.026	0.000	20.9	3	1
03/13/06	11:20 a	-18.7	-18.7	-18.7	---	---	13.0	ESE	0.22	17.4	-29.7	---	---	728.0	0.026	0.000	20.9	3	1
03/13/06	11:21 a	-18.7	-18.7	-18.7	---	---	14.8	E	0.25	20.0	-30.3	---	---	728.0	0.026	0.000	20.9	3	1
03/13/06	11:22 a	-18.7	-18.7	-18.7	---	---	16.5	ESE	0.28	22.6	-30.8	---	---	728.0	0.026	0.000	20.9	3	1
03/13/06	11:23 a	-18.7	-18.7	-18.7	---	---	16.5	ESE	0.28	19.1	-30.8	---	---	728.1	0.026	0.000	20.9	3	1
03/13/06	11:24 a	-18.6	-18.6	-18.7	---	---	16.5	ESE	0.28	20.0	-30.8	---	---	728.1	0.026	0.000	20.9	3	1
03/13/06	11:25 a	-18.7	-18.6	-18.7	---	---	16.5	ESE	0.28	21.7	-30.8	---	---	728.0	0.026	0.000	20.9	3	1
03/13/06	11:26 a	-18.6	-18.6	-18.6	---	---	19.1	ESE	0.32	21.7	-31.6	---	---	728.0	0.026	0.000	20.9	3	1
03/13/06	11:27 a	-18.6	-18.6	-18.6	---	---	18.3	ESE	0.30	23.5	-31.3	---	---	728.1	0.026	0.000	20.9	2	1
03/13/06	11:28 a	-18.6	-18.6	-18.6	---	---	17.4	ESE	0.29	20.9	-31.1	---	---	728.0	0.026	0.000	20.9	3	1
03/13/06	11:29 a	-18.6	-18.6	-18.6	---	---	18.3	ESE	0.30	24.3	-31.3	---	---	727.8	0.026	0.000	20.9	2	1
03/13/06	11:30 a	-18.6	-18.6	-18.6	---	---	18.3	SE	0.30	20.9	-31.2	---	---	727.9	0.026	0.000	20.9	3	1
03/13/06	11:31 a	-18.6	-18.5	-18.6	---	---	21.7	ESE	0.36	26.1	-32.2	---	---	727.8	0.026	0.000	20.9	2	1
03/13/06	11:32 a	-18.6	-18.5	-18.6	---	---	16.5	ESE	0.28	20.0	-30.7	---	---	727.8	0.026	0.000	20.9	3	1
03/13/06	11:33 a	-18.6	-18.6	-18.6	---	---	20.0	ESE	0.33	22.6	-31.7	---	---	727.7	0.026	0.000	20.8	3	1
03/13/06	11:34 a	-18.5	-18.5	-18.6	---	---	20.0	ESE	0.33	23.5	-31.6	---	---	727.8	0.026	0.000	20.9	3	1
03/13/06	11:35 a	-18.5	-18.5	-18.5	---	---	22.6	ESE	0.38	27.0	-32.3	---	---	727.8	0.026	0.000	20.8	3	1
03/13/06	11:36 a	-18.5	-18.5	-18.5	---	---	19.1	SE	0.32	21.7	-31.4	---	---	727.8	0.026	0.000	20.9	3	1
03/13/06	11:37 a	-18.5	-18.5	-18.5	---	---	21.7	SE	0.36	24.3	-32.1	---	---	727.7	0.026	0.000	20.8	3	1
03/13/06	11:38 a	-18.4	-18.4	-18.5	---	---	19.1	SE	0.32	20.9	-31.3	---	---	727.8	0.026	0.000	20.8	3	1
03/13/06	11:39 a	-18.5	-18.4	-18.5	---	---	19.1	ESE	0.32	21.7	-31.4	---	---	727.9	0.026	0.000	20.9	2	1
03/13/06	11:40 a	-18.4	-18.4	-18.4	---	---	17.4	ESE	0.29	19.1	-30.8	---	---	727.8	0.026	0.000	20.9	2	1
03/13/06	11:41 a	-18.4	-18.4	-18.4	---	---	23.5	ESE	0.39	28.7	-32.4	---	---	727.8	0.026	0.000	20.9	2	1
03/13/06	11:42 a	-18.4	-18.4	-18.4	---	---	20.0	ESE	0.33	27.0	-31.5	---	---	727.8	0.026	0.000	20.9	2	1
03/13/06	11:43 a	-18.4	-18.4	-18.4	---	---	20.9	ESE	0.35	23.5	-31.7	---	---	727.8	0.026	0.000	20.9	2	1
03/13/06	11:44 a	-18.4	-18.3	-18.4	---	---	22.6	ESE	0.38	26.1	-32.1	---	---	727.7	0.026	0.000	20.9	3	1
03/13/06	11:45 a	-18.3	-18.3	-18.3	---	---	20.0	ESE	0.33	23.5	-31.4	---	---	727.7	0.025	0.000	20.9	2	1
03/13/06	11:46 a	-18.3	-18.3	-18.3	---	---	20.0	ESE	0.33	22.6	-31.4	---	---	727.7	0.025	0.000	20.9	2	1
03/13/06	11:47 a	-18.3	-18.3	-18.3	---	---	20.9	ESE	0.35	24.3	-31.6	---	---	727.6	0.025	0.000	20.9	3	1
03/13/06	11:48 a	-18.3	-18.3	-18.3	---	---	21.7	ESE	0.36	24.3	-31.8	---	---	727.6	0.025	0.000	20.9	2	1
03/13/06	11:49 a	-18.3	-18.3	-18.3	---	---	21.7	ESE	0.36	24.3	-31.8	---	---	727.7	0.025	0.000	20.9	2	1
03/13/06	11:50 a	-18.3	-18.3	-18.3	---	---	21.7	ESE	0.36	24.3	-31.8	---	---	727.7	0.025	0.000	20.9	3	1
03/13/06	11:51 a	-18.3	-18.2	-18.3	---	---	20.9	ESE	0.35	23.5	-31.6	---	---	727.7	0.025	0.000	20.9	2	1
03/13/06	11:52 a	-18.2	-18.2	-18.2	---	---	18.3	E	0.30	27.8	-30.8	---	---	727.6	0.025	0.000	20.9	2	1
03/13/06	11:53 a	-18.2	-18.2	-18.3	---	---	20.9	E	0.35	27.0	-31.5	---	---	727.6	0.025	0.000	20.9	2	1
03/13/06	11:54 a	-18.2	-18.2	-18.2	---	---	20.9	ESE	0.35	25.2	-31.5	---	---	727.6	0.025	0.000	20.9	2	1
03/13/06	11:55 a	-18.2	-18.2	-18.2	---	---	20.0	E	0.33	26.1	-31.3	---	---	727.8	0.025	0.000	20.9	3	1
03/13/06	11:56 a	-18.2	-18.2	-18.2	---	---	19.1	ESE	0.32	21.7	-30.9	---	---	727.7	0.025	0.000	20.9	2	1
03/13/06	11:57 a	-18.2	-18.2	-18.2	---	---	22.6	ESE	0.38	28.7	-31.8	---	---	727.7	0.025	0.000	20.9	2	1
03/13/06	11:58 a	-18.2	-18.1	-18.2	---	---	19.1	ESE	0.32	23.5	-30.9	---	---	727.8	0.025	0.000	20.9	2	1
03/13/06	11:59 a	-18.1	-18.1	-18.1	---	---	20.0	ESE	0.33	22.6	-31.1	---	---	727.7	0.025	0.000	20.9	3	1
03/13/06	12:00 p	-18.1	-18.1	-18.2	---	---	20.0	E	0.33	22.6	-31.1	---	---	727.7	0.025	0.000	20.9	2	1
03/13/06	12:01 p	-18.1	-18.1	-18.2	---	---	17.4	E	0.29	20.9	-30.4	---	---	727.6	0.025	0.000	20.9	2	1
03/13/06	12:02 p	-18.1	-18.1	-18.1	---	---	21.7	ESE	0.36	24.3	-31.6	---	---	727.5	0.025	0.000	20.9	2	1
03/13/06	12:03 p	-18.1	-18.1	-18.1	---	---	20.9	ESE	0.35	23.5	-31.3	---	---	727.7	0.025	0.000	20.8	2	1
03/13/06	12:04 p	-18.1	-18.1	-18.1	---	---	18.3	E	0.30	21.7	-30.6	---	---	727.7	0.025	0.000	20.9	2	1
03/13/06	12:05 p	-18.1	-18.1	-18.1	---	---	20.0	E	0.33	23.5	-31.1	---	---	727.6	0.025	0.000	20.8	2	1
03/13/06	12:06 p	-18.1	-18.1	-18.1	---	---	19.1	E	0.32	23.5	-30.8	---	---	727.6	0.025	0.000	20.9	2	1
03/13/06	12:07 p	-18.1	-18.0	-18.1	---	---	19.1	ESE	0.32	21.7	-30.8	---	---	727.8	0.025	0.000	20.8	3	1
03/13/06	12:08 p	-18.1	-18.1	-18.1	---	---	20.0	ESE	0.33	22.6	-31.1	---	---	727.8	0.025	0.000	20.8	2	1
03/13/06	12:09 p	-18.1	-18.0	-18.1	---	---	20.0	ESE	0.33	21.7	-31.1	---	---	727.9	0.025	0.000	20.8	2	1
03/13/06	12:10 p	-18.0	-18.0	-18.1	---	---	17.4	ESE	0.29	20.9	-30.2	---	---	727.8	0.025	0.000	20.8	2	1
03/13/06	12:11 p	-18.0	-18.0	-18.0	---	---	16.5	ESE	0.28	18.3	-29.9	---	---	728.0	0.025	0.000	20.8	2	1
03/13/06	12:12 p	-18.0	-18.0	-18.0	---	---	15.7	E	0.26	18.3	-29.7	---	---	728.0	0.025	0.000	20.8	2	1
03/13/06	12:13 p	-18.0	-17.9	-18.0	---	---	17.4	ESE	0.29	18.3	-30.2	---	---	727.9	0.025	0.000	20.8	2	1
03/13/06	12:14 p	-17.9	-17.9	-18.0	---	---	20.0	ESE	0.33	23.5	-30.9	---	---	727.8	0.025	0.000	20.8	3	1
03/13/06	12:15 p	-17.9	-17.9	-18.0	---	---	20.9	ESE	0.35	23.5	-31.1	---	---	727.9	0.025	0.000	20.8	2	1
03/13/06	12:16 p	-17.9	-17.9	-18.0	---	---	20.9	ESE	0.35	24.3	-31.1	---	---	727.7	0.025	0.000	20.8	2	1
03/13/06	12:17 p	-17.9	-17.9	-17.9	---	---	21.7	ESE	0.36	23.5	-31.3	---	---	727.7	0.025	0.000	20.8	2	1
03/13/06	12:18 p	-17.9	-17.9	-17.9	---	---	21.7	ESE	0.36	24.3	-31.3	---	---	727.7	0.025	0.000	20.8	2	1
03/13/06	12:19 p	-17.9	-17.9	-18.0	---	---	22.6	ESE	0.38	27.8	-31.6	---	---	727.6	0.025	0.000	20.8	2	1
03/13/06	12:20 p	-17.9	-17.9	-17.9	---	---	23.5	ESE	0.39	27.8	-31.7	---	---	727.6	0.025	0.000	20.8	2	1
03/13/06	12:21 p	-17.9	-17.9	-17.9	---	---	22.6	ESE	0.38	24.3	-31.6	---	---	727.6	0.025	0.000	20.8	2	1
03/13/06	12:22 p	-17.9	-17.9	-17.9	---	---	24.3	ESE	0.41	26.1	-31.9	---	---	727.5	0.025	0.000	20.8	2	1
03/13/06	12:23 p	-17.9	-17.9	-17.9	---	---	23.5	ESE	0.39	27.8	-31.7	---	---	727.6	0.025	0.000	20.8	2	1
03/13/06	12:24 p	-17.9	-17.9	-17.9	---	---	21.7	ESE	0.36	25.2	-31.3	---	---	727.8	0.025	0.000	20.8	2	1
03/13/06	12:25 p	-17.9	-17.8	-17.9	---	---	21.7	ESE	0.36	26.1	-31.3	---	---	727.7	0.025	0.000	20.8	2	1
03/13/06	12:26 p	-17.9	-17.8	-17.9	---	---	21.7	ESE	0.36	25.2	-31.3	---	---	727.7	0.025	0.000	20.8	2	1
03/13/06	12:27 p	-17.8	-17.8	-17.8	---	---	22.6	E	0.38	28.7	-31.4	---	---	727.6	0.025	0.000	20.8	2	1
03/13/06	12:28 p	-17.8	-17.8	-17.8	---	---	24.3	ESE	0.41	28.7	-31.8	---	---	727.7	0.025	0.000	20.8	2	1
03/13/06	12:29 p	-17.8	-17.8	-17.8	---	---	20.9	ESE	0.35	24.3	-30.9	---	---	727.6	0.025	0.000	20.8	2	1
03/13/06	12:30 p	-17.8	-17.8	-17.8	---	---	23.5	ESE	0.39	27.0	-31.6	---	---	727.7	0.025	0.000	20.7	2	1
03/13/06	12:31 p	-17.8	-17.8	-17.8	---	---	23.5	ESE	0.39	26.1	-31.6	---	---	727.7	0.025	0.000	20.7	3	1
03/13/06	12:32 p	-17.8	-17.8	-17.8	---	---	22.6	ESE	0.38	26.1	-31.4	---	---	727.6	0.025	0.000	20.7	2	1
03/13/06	12:33 p	-17.8	-17.8	-17.8	---	---	23.5	ESE	0.39	24.3	-31.5	---	---	727.7	0.025	0.000	20.7	2	1
03/13/06	12:34 p	-17.8	-17.8	-17.8	---	---	22.6	ESE	0.38	27.0	-31.3	---	---	727.7	0.025	0.000	20.7	2	1
03/13/06	12:35 p	-17.8	-17.8	-17.8	---	---	22.6	ESE	0.38	27.0	-31.3	---	---	727.6	0.025	0.000	20.7	2	1
03/13/06	12:36 p	-17.8	-17.8	-17.8	---	---	23.5	ESE	0.39	30.4	-31.5	---	---	727.7	0.025	0.000	20.7	2	1
03/13/06	12:37 p	-17.8	-17.8	-17.8	---	---	24.3	ESE	0.41	26.1	-31.7	---	---	727.6	0.025	0.000	20.7	2	1
03/13/06	12:38 p	-17.7	-17.7	-17.7	---	---	25.2	ESE	0.42	31.3	-31.8	---	---	727.5	0.025	0.000	20.7	2	1
03/13/06	12:39 p	-17.7	-17.7	-17.8	---	---	21.7	E	0.36	27.0	-31.1	---	---	727.6	0.025	0.000	20.7	2	1
03/13/06	12:40 p	-17.7	-17.7	-17.7	---	---	27.0	ESE	0.45	31.3	-32.2	---	---	727.7	0.025	0.000	20.7	2	1
03/13/06	12:41 p	-17.7	-17.7	-17.7	---	---	22.6	ESE	0.38	25.2	-31.2	---	---	727.6	0.025	0.000	20.7	2	1
03/13/06	12:42 p	-17.7	-17.7	-17.7	---	---	24.3	ESE	0.41	31.3	-31.6	---	---	727.8	0.025	0.000	20.8	2	1
03/13/06	12:43 p	-17.7	-17.7	-17.7	---	---	22.6	ESE	0.38	26.1	-31.2	---	---	727.7	0.025	0.000	20.8	2	1
03/13/06	12:44 p	-17.7	-17.7	-17.7	---	---	23.5	ESE	0.39	25.2	-31.4	---	---	727.8	0.025	0.000	20.8	2	1
03/13/06	12:45 p	-17.7	-17.7	-17.7	---	---	21.7	E	0.36	24.3	-30.9	---	---	728.0	0.025	0.000	20.8	2	1
03/13/06	12:46 p	-17.7	-17.7	-17.7	---	---	18.3	ESE	0.30	19.1	-30.1	---	---	727.9	0.025	0.000	20.8	3	1
03/13/06	12:47 p	-17.7	-17.7	-17.7	---	---	20.0	SE	0.33	23.5	-30.5	---	---	727.8	0.025	0.000	20.8	2	1
03/13/06	12:48 p	-17.7	-17.7	-17.7	---	---	22.6	ESE	0.38	25.2	-31.2	---	---	727.7	0.025	0.000	20.8	2	1
03/13/06	12:49 p	-17.7	-17.6	-17.7	---	---	21.7	ESE	0.36	24.3	-30.9	---	---	727.8	0.025	0.000	20.8	2	1
03/13/06	12:50 p	-17.7	-17.6	-17.7	---	---	21.7	ESE	0.36	24.3	-30.9	---	---	727.7	0.025	0.000	20.8	2	1
03/13/06	12:51 p	-17.6	-17.6	-17.6	---	---	22.6	ESE	0.38	24.3	-31.1	---	---	727.6	0.025	0.000	20.8	2	1
03/13/06	12:52 p	-17.6	-17.6	-17.7	---	---	21.7	ESE	0.36	24.3	-30.9	---	---	727.7	0.025	0.000	20.8	2	1
03/13/06	12:53 p	-17.6	-17.6	-17.6	---	---	20.9	ESE	0.35	23.5	-30.7	---	---	727.8	0.025	0.000	20.8	2	1
03/13/06	12:54 p	-17.6	-17.6	-17.6	---	---	20.9	SE	0.35	26.1	-30.7	---	---	728.0	0.025	0.000	20.8	2	1
03/13/06	12:55 p	-17.6	-17.6	-17.6	---	---	15.7	ESE	0.26	17.4	-29.2	---	---	728.0	0.025	0.000	20.8	2	1
03/13/06	12:56 p	-17.6	-17.6	-17.6	---	---	24.3	SE	0.41	33.0	-31.5	---	---	727.8	0.025	0.000	20.8	2	1
03/13/06	12:57 p	-17.6	-17.6	-17.6	---	---	24.3	SE	0.41	27.0	-31.5	---	---	727.7	0.025	0.000	20.8	2	1
03/13/06	12:58 p	-17.6	-17.6	-17.6	---	---	23.5	SE	0.39	27.0	-31.3	---	---	727.7	0.025	0.000	20.8	2	1
03/13/06	12:59 p	-17.6	-17.6	-17.6	---	---	21.7	SE	0.36	27.8	-30.9	---	---	727.8	0.025	0.000	20.8	2	1
03/13/06	1:00 p	-17.6	-17.6	-17.6	---	---	27.0	ESE	0.45	34.8	-32.1	---	---	727.5	0.025	0.000	20.8	2	1
03/13/06	1:01 p	-17.6	-17.6	-17.6	---	---	27.8	SE	0.46	33.0	-32.2	---	---	727.6	0.025	0.000	20.7	2	1
03/13/06	1:02 p	-17.6	-17.6	-17.6	---	---	25.2	SE	0.42	31.3	-31.7	---	---	727.6	0.025	0.000	20.7	2	1
03/13/06	1:03 p	-17.6	-17.6	-17.6	---	---	24.3	SE	0.41	27.8	-31.5	---	---	727.8	0.025	0.000	20.7	2	1
03/13/06	1:04 p	-17.6	-17.6	-17.6	---	---	26.1	ESE	0.43	31.3	-31.9	---	---	727.6	0.025	0.000	20.7	2	1
03/13/06	1:05 p	-17.6	-17.6	-17.6	---	---	29.6	SE	0.49	33.9	-32.6	---	---	727.6	0.025	0.000	20.7	2	1
03/13/06	1:06 p	-17.6	-17.6	-17.6	---	---	25.2	SE	0.42	28.7	-31.7	---	---	727.7	0.025	0.000	20.7	2	1
03/13/06	1:07 p	-17.6	-17.6	-17.6	---	---	28.7	SE	0.48	34.8	-32.4	---	---	727.7	0.025	0.000	20.7	2	1
03/13/06	1:08 p	-17.6	-17.6	-17.6	---	---	25.2	SE	0.42	27.0	-31.7	---	---	727.7	0.025	0.000	20.7	2	1
03/13/06	1:09 p	-17.6	-17.6	-17.6	---	---	27.0	SE	0.45	29.6	-31.9	---	---	727.8	0.025	0.000	20.7	2	1
03/13/06	1:10 p	-17.6	-17.6	-17.6	---	---	23.5	SE	0.39	27.8	-31.2	---	---	727.8	0.025	0.000	20.7	2	1
03/13/06	1:11 p	-17.6	-17.6	-17.6	---	---	26.1	SE	0.43	27.8	-31.8	---	---	727.8	0.025	0.000	20.7	2	1
03/13/06	1:12 p	-17.6	-17.6	-17.6	---	---	27.0	SE	0.45	31.3	-31.9	---	---	727.8	0.025	0.000	20.7	2	1
03/13/06	1:13 p	-17.6	-17.6	-17.6	---	---	26.1	SE	0.43	32.2	-31.8	---	---	727.8	0.025	0.000	20.7	2	1
03/13/06	1:14 p	-17.6	-17.6	-17.6	---	---	32.2	SE	0.54	37.4	-32.9	---	---	727.8	0.025	0.000	20.7	2	1
03/13/06	1:15 p	-17.6	-17.6	-17.6	---	---	27.8	SSE	0.46	29.6	-32.2	---	---	727.9	0.025	0.000	20.7	2	1
03/13/06	1:16 p	-17.6	-17.6	-17.6	---	---	20.9	SSE	0.35	24.3	-30.6	---	---	728.0	0.025	0.000	20.7	2	1
03/13/06	1:17 p	-17.6	-17.6	-17.6	---	---	20.0	SE	0.33	25.2	-30.4	---	---	727.9	0.025	0.000	20.7	2	1
03/13/06	1:18 p	-17.6	-17.6	-17.6	---	---	19.1	SE	0.32	24.3	-30.2	---	---	728.2	0.025	0.000	20.7	2	1
03/13/06	1:19 p	-17.6	-17.6	-17.6	---	---	20.9	SSE	0.35	28.7	-30.6	---	---	727.9	0.025	0.000	20.7	2	1
03/13/06	1:20 p	-17.6	-17.5	-17.6	---	---	22.6	SE	0.38	26.1	-31.0	---	---	728.1	0.025	0.000	20.7	2	1
03/13/06	1:21 p	-17.5	-17.5	-17.6	---	---	17.4	SE	0.29	19.1	-29.6	---	---	728.2	0.025	0.000	20.7	2	1
03/13/06	1:22 p	-17.6	-17.6	-17.6	---	---	20.9	SE	0.35	23.5	-30.6	---	---	728.1	0.025	0.000	20.7	2	1
03/13/06	1:23 p	-17.5	-17.5	-17.6	---	---	18.3	SE	0.30	23.5	-29.8	---	---	728.2	0.025	0.000	20.7	2	1
03/13/06	1:24 p	-17.5	-17.5	-17.6	---	---	21.7	SE	0.36	27.0	-30.7	---	---	728.2	0.025	0.000	20.7	2	1
03/13/06	1:25 p	-17.5	-17.5	-17.6	---	---	20.0	SSE	0.33	22.6	-30.3	---	---	728.3	0.025	0.000	20.7	2	1
03/13/06	1:26 p	-17.5	-17.5	-17.6	---	---	18.3	SSE	0.30	20.0	-29.8	---	---	728.2	0.025	0.000	20.7	2	1
03/13/06	1:27 p	-17.5	-17.5	-17.6	---	---	21.7	SSE	0.36	25.2	-30.7	---	---	728.2	0.025	0.000	20.7	2	1
03/13/06	1:28 p	-17.5	-17.5	-17.6	---	---	25.2	SE	0.42	27.8	-31.6	---	---	728.1	0.025	0.000	20.7	2	1
03/13/06	1:29 p	-17.5	-17.5	-17.6	---	---	25.2	SSE	0.42	28.7	-31.6	---	---	728.1	0.025	0.000	20.7	2	1
03/13/06	1:30 p	-17.5	-17.5	-17.5	---	---	25.2	SSE	0.42	27.8	-31.6	---	---	728.2	0.025	0.000	20.7	2	1
03/13/06	1:31 p	-17.5	-17.5	-17.5	---	---	22.6	SE	0.38	26.1	-30.9	---	---	728.3	0.025	0.000	20.7	2	1
03/13/06	1:32 p	-17.6	-17.5	-17.6	---	---	21.7	SE	0.36	26.1	-30.8	---	---	728.5	0.025	0.000	20.7	3	1
03/13/06	1:33 p	-17.5	-17.5	-17.6	---	---	24.3	SE	0.41	27.8	-31.3	---	---	728.3	0.025	0.000	20.7	2	1
03/13/06	1:34 p	-17.5	-17.5	-17.6	---	---	24.3	SE	0.41	28.7	-31.3	---	---	728.2	0.025	0.000	20.7	2	1
03/13/06	1:35 p	-17.5	-17.5	-17.6	---	---	24.3	SE	0.41	29.6	-31.3	---	---	728.3	0.025	0.000	20.7	2	1
03/13/06	1:36 p	-17.5	-17.5	-17.6	---	---	25.2	SE	0.42	27.8	-31.6	---	---	728.2	0.025	0.000	20.7	2	1
03/13/06	1:37 p	-17.5	-17.5	-17.6	---	---	23.5	SE	0.39	27.0	-31.2	---	---	728.2	0.025	0.000	20.7	2	1
03/13/06	1:38 p	-17.5	-17.5	-17.5	---	---	24.3	SE	0.41	28.7	-31.3	---	---	728.2	0.025	0.000	20.7	2	1
03/13/06	1:39 p	-17.5	-17.5	-17.6	---	---	24.3	SSE	0.41	25.2	-31.3	---	---	728.3	0.025	0.000	20.7	2	1
03/13/06	1:40 p	-17.5	-17.5	-17.6	---	---	25.2	SE	0.42	28.7	-31.6	---	---	728.2	0.025	0.000	20.7	2	1
03/13/06	1:41 p	-17.6	-17.5	-17.6	---	---	27.0	SE	0.45	28.7	-31.9	---	---	728.2	0.025	0.000	20.7	2	1
03/13/06	1:42 p	-17.6	-17.5	-17.6	---	---	27.0	SE	0.45	28.7	-31.9	---	---	728.2	0.025	0.000	20.7	2	1
03/13/06	1:43 p	-17.6	-17.6	-17.6	---	---	25.2	SE	0.42	27.0	-31.6	---	---	728.2	0.025	0.000	20.7	2	1
03/13/06	1:44 p	-17.6	-17.6	-17.6	---	---	27.0	SE	0.45	30.4	-31.9	---	---	728.1	0.025	0.000	20.7	2	1
03/13/06	1:45 p	-17.6	-17.6	-17.6	---	---	27.8	SE	0.46	30.4	-32.2	---	---	728.1	0.025	0.000	20.7	2	1
03/13/06	1:46 p	-17.6	-17.6	-17.6	---	---	26.1	SE	0.43	29.6	-31.8	---	---	728.1	0.025	0.000	20.7	2	1
03/13/06	1:47 p	-17.6	-17.6	-17.6	---	---	27.0	SE	0.45	28.7	-31.9	---	---	728.2	0.025	0.000	20.7	2	1
03/13/06	1:48 p	-17.6	-17.6	-17.6	---	---	26.1	SE	0.43	28.7	-31.8	---	---	728.1	0.025	0.000	20.7	2	1
03/13/06	1:49 p	-17.6	-17.6	-17.6	---	---	27.0	SE	0.45	29.6	-31.9	---	---	728.2	0.025	0.000	20.7	2	1
03/13/06	1:50 p	-17.6	-17.6	-17.6	---	---	27.0	SSE	0.45	29.6	-32.1	---	---	728.1	0.025	0.000	20.7	2	1
03/13/06	1:51 p	-17.6	-17.6	-17.6	---	---	29.6	SE	0.49	33.9	-32.6	---	---	728.0	0.025	0.000	20.7	2	1
03/13/06	1:52 p	-17.6	-17.6	-17.6	---	---	28.7	SE	0.48	31.3	-32.4	---	---	728.0	0.025	0.000	20.7	2	1
03/13/06	1:53 p	-17.6	-17.6	-17.6	---	---	30.4	SE	0.51	33.9	-32.7	---	---	728.0	0.025	0.000	20.8	2	1
03/13/06	1:54 p	-17.6	-17.6	-17.7	---	---	28.7	SE	0.48	32.2	-32.4	---	---	727.9	0.025	0.000	20.8	2	1
03/13/06	1:55 p	-17.6	-17.6	-17.7	---	---	32.2	SE	0.54	36.5	-33.1	---	---	728.0	0.025	0.000	20.8	2	1
03/13/06	1:56 p	-17.7	-17.6	-17.7	---	---	29.6	SE	0.49	34.8	-32.6	---	---	728.2	0.025	0.000	20.8	2	1
03/13/06	1:57 p	-17.7	-17.7	-17.7	---	---	29.6	SE	0.49	32.2	-32.6	---	---	728.3	0.025	0.000	20.8	3	1
03/13/06	1:58 p	-17.7	-17.7	-17.7	---	---	27.8	SE	0.46	33.0	-32.3	---	---	728.4	0.025	0.000	20.8	2	1
03/13/06	1:59 p	-17.7	-17.7	-17.7	---	---	25.2	SE	0.42	30.4	-31.8	---	---	728.5	0.025	0.000	20.8	2	1
03/13/06	2:00 p	-17.7	-17.7	-17.7	---	---	27.0	SE	0.45	29.6	-32.2	---	---	728.5	0.025	0.000	20.8	2	1
03/13/06	2:01 p	-17.7	-17.7	-17.7	---	---	25.2	SE	0.42	27.8	-31.8	---	---	728.6	0.025	0.000	20.8	2	1
03/13/06	2:02 p	-17.7	-17.7	-17.7	---	---	25.2	SSE	0.42	27.8	-31.8	---	---	728.5	0.025	0.000	20.8	2	1
03/13/06	2:03 p	-17.7	-17.7	-17.8	---	---	26.1	SE	0.43	31.3	-32.0	---	---	728.5	0.025	0.000	20.8	2	1
03/13/06	2:04 p	-17.8	-17.7	-17.8	---	---	20.0	ESE	0.33	21.7	-30.7	---	---	728.5	0.025	0.000	20.8	2	1
03/13/06	2:05 p	-17.8	-17.8	-17.8	---	---	24.3	SE	0.41	27.8	-31.7	---	---	728.3	0.025	0.000	20.7	2	1
03/13/06	2:06 p	-17.8	-17.8	-17.8	---	---	26.1	SE	0.43	31.3	-32.1	---	---	728.3	0.025	0.000	20.7	2	1
03/13/06	2:07 p	-17.8	-17.8	-17.8	---	---	26.1	SE	0.43	29.6	-32.1	---	---	728.1	0.025	0.000	20.7	2	1
03/13/06	2:08 p	-17.8	-17.8	-17.8	---	---	27.0	SE	0.45	30.4	-32.3	---	---	728.1	0.025	0.000	20.7	2	1
03/13/06	2:09 p	-17.8	-17.8	-17.8	---	---	28.7	SE	0.48	32.2	-32.7	---	---	728.1	0.025	0.000	20.7	2	1
03/13/06	2:10 p	-17.9	-17.8	-17.9	---	---	33.0	SE	0.55	37.4	-33.6	---	---	728.0	0.025	0.000	20.7	2	1
03/13/06	2:11 p	-17.9	-17.8	-17.9	---	---	32.2	SSE	0.54	35.7	-33.4	---	---	727.9	0.025	0.000	20.7	2	1
03/13/06	2:12 p	-17.9	-17.9	-17.9	---	---	34.8	SE	0.58	40.0	-33.8	---	---	727.8	0.025	0.000	20.7	2	1
03/13/06	2:13 p	-17.9	-17.9	-17.9	---	---	37.4	SSE	0.62	43.5	-34.3	---	---	727.7	0.025	0.000	20.7	2	1
03/13/06	2:14 p	-17.9	-17.9	-17.9	---	---	36.5	SSE	0.61	42.6	-34.2	---	---	728.0	0.025	0.000	20.7	2	1
03/13/06	2:15 p	-17.9	-17.9	-17.9	---	---	35.7	SSE	0.59	41.7	-34.1	---	---	728.2	0.025	0.000	20.7	2	1
03/13/06	2:16 p	-18.0	-17.9	-18.0	---	---	32.2	SSE	0.54	35.7	-33.6	---	---	728.2	0.025	0.000	20.7	2	1
03/13/06	2:17 p	-18.0	-18.0	-18.0	---	---	28.7	SSE	0.48	32.2	-32.9	---	---	728.4	0.025	0.000	20.7	2	1
03/13/06	2:18 p	-18.1	-18.0	-18.1	---	---	29.6	SSE	0.49	34.8	-33.2	---	---	728.4	0.025	0.000	20.7	2	1
03/13/06	2:19 p	-18.1	-18.1	-18.1	---	---	27.8	SSE	0.46	31.3	-32.8	---	---	728.4	0.025	0.000	20.7	2	1
03/13/06	2:20 p	-18.1	-18.1	-18.1	---	---	27.8	SSE	0.46	30.4	-32.8	---	---	728.5	0.025	0.000	20.7	2	1
03/13/06	2:21 p	-18.1	-18.1	-18.1	---	---	32.2	SSE	0.54	35.7	-33.7	---	---	728.4	0.025	0.000	20.7	2	1
03/13/06	2:22 p	-18.1	-18.1	-18.1	---	---	32.2	SSE	0.54	36.5	-33.7	---	---	728.4	0.025	0.000	20.7	2	1
03/13/06	2:23 p	-18.1	-18.1	-18.1	---	---	29.6	SSE	0.49	37.4	-33.2	---	---	728.5	0.025	0.000	20.7	2	1
03/13/06	2:24 p	-18.2	-18.2	-18.2	---	---	31.3	SSE	0.52	35.7	-33.7	---	---	728.4	0.025	0.000	20.7	2	1
03/13/06	2:25 p	-18.2	-18.2	-18.2	---	---	28.7	SSE	0.48	33.0	-33.2	---	---	728.5	0.025	0.000	20.6	2	1
03/13/06	2:26 p	-18.2	-18.2	-18.2	---	---	31.3	SSE	0.52	33.9	-33.7	---	---	728.4	0.025	0.000	20.6	2	1
03/13/06	2:27 p	-18.2	-18.2	-18.3	---	---	28.7	SSE	0.48	37.4	-33.2	---	---	728.4	0.025	0.000	20.6	3	1
03/13/06	2:28 p	-18.3	-18.3	-18.3	---	---	31.3	SSE	0.52	37.4	-33.8	---	---	728.3	0.025	0.000	20.6	2	1
03/13/06	2:29 p	-18.3	-18.3	-18.3	---	---	30.4	SSE	0.51	35.7	-33.7	---	---	728.3	0.025	0.000	20.6	2	1
03/13/06	2:30 p	-18.3	-18.3	-18.3	---	---	30.4	SSE	0.51	36.5	-33.7	---	---	728.3	0.025	0.000	20.6	2	1
03/13/06	2:31 p	-18.3	-18.3	-18.4	---	---	31.3	SSE	0.52	33.9	-33.9	---	---	728.5	0.025	0.000	20.6	2	1
03/13/06	2:32 p	-18.4	-18.4	-18.4	---	---	30.4	SSE	0.51	33.0	-33.8	---	---	728.4	0.026	0.000	20.6	2	1
03/13/06	2:33 p	-18.4	-18.4	-18.4	---	---	31.3	SSE	0.52	39.1	-33.9	---	---	728.3	0.026	0.000	20.6	2	1
03/13/06	2:34 p	-18.4	-18.4	-18.4	---	---	32.2	SSE	0.54	39.1	-34.2	---	---	728.4	0.026	0.000	20.6	2	1
03/13/06	2:35 p	-18.5	-18.4	-18.5	---	---	31.3	SSE	0.52	34.8	-34.1	---	---	728.4	0.026	0.000	20.6	2	1
03/13/06	2:36 p	-18.6	-18.5	-18.6	---	---	30.4	SSE	0.51	35.7	-34.0	---	---	728.5	0.026	0.000	20.6	2	1
03/13/06	2:37 p	-18.6	-18.6	-18.6	---	---	33.0	SSE	0.55	40.0	-34.5	---	---	728.3	0.026	0.000	20.6	2	1
03/13/06	2:38 p	-18.7	-18.6	-18.7	---	---	34.8	SSE	0.58	37.4	-34.9	---	---	728.3	0.026	0.000	20.6	2	1
03/13/06	2:39 p	-18.7	-18.6	-18.7	---	---	33.0	SSE	0.55	37.4	-34.7	---	---	728.4	0.026	0.000	20.6	3	1
03/13/06	2:40 p	-18.7	-18.7	-18.7	---	---	33.9	SSE	0.57	36.5	-34.9	---	---	728.3	0.026	0.000	20.6	2	1
03/13/06	2:41 p	-18.7	-18.7	-18.8	---	---	33.0	SSE	0.55	36.5	-34.7	---	---	728.3	0.026	0.000	20.6	2	1
03/13/06	2:42 p	-18.8	-18.8	-18.8	---	---	34.8	SSE	0.58	37.4	-35.1	---	---	728.2	0.026	0.000	20.6	3	1
03/13/06	2:43 p	-18.8	-18.8	-18.8	---	---	36.5	SSE	0.61	40.9	-35.4	---	---	728.0	0.026	0.000	20.6	2	1
03/13/06	2:44 p	-18.9	-18.8	-18.9	---	---	37.4	SSE	0.62	41.7	-35.7	---	---	728.0	0.026	0.000	20.7	2	1
03/13/06	2:45 p	-18.9	-18.9	-18.9	---	---	38.3	SSE	0.64	41.7	-35.8	---	---	728.0	0.026	0.000	20.7	3	1
03/13/06	2:46 p	-18.9	-18.9	-19.0	---	---	38.3	SSE	0.64	42.6	-35.9	---	---	728.0	0.026	0.000	20.7	2	1
03/13/06	2:47 p	-19.0	-19.0	-19.1	---	---	38.3	SSE	0.64	42.6	-35.9	---	---	728.0	0.026	0.000	20.7	2	1
03/13/06	2:48 p	-19.1	-19.1	-19.1	---	---	38.3	SE	0.64	41.7	-36.1	---	---	728.1	0.026	0.000	20.7	2	1
03/13/06	2:49 p	-19.1	-19.1	-19.1	---	---	41.7	SE	0.70	46.1	-36.7	---	---	728.0	0.026	0.000	20.7	2	1
03/13/06	2:50 p	-19.1	-19.1	-19.2	---	---	40.9	SE	0.68	44.3	-36.5	---	---	728.1	0.026	0.000	20.7	2	1
03/13/06	2:51 p	-19.2	-19.2	-19.2	---	---	40.0	SE	0.67	42.6	-36.5	---	---	728.1	0.026	0.000	20.7	3	1
03/13/06	2:52 p	-19.2	-19.2	-19.3	---	---	36.5	SE	0.61	41.7	-36.0	---	---	728.3	0.026	0.000	20.7	2	1
03/13/06	2:53 p	-19.3	-19.3	-19.3	---	---	35.7	SSE	0.59	40.9	-35.9	---	---	728.3	0.026	0.000	20.7	3	1
03/13/06	2:54 p	-19.3	-19.3	-19.3	---	---	37.4	SSE	0.62	44.3	-36.3	---	---	728.4	0.026	0.000	20.7	2	1
03/13/06	2:55 p	-19.4	-19.3	-19.4	---	---	35.7	SSE	0.59	40.0	-36.1	---	---	728.5	0.026	0.000	20.7	2	1
03/13/06	2:56 p	-19.4	-19.4	-19.4	---	---	32.2	SSE	0.54	34.8	-35.6	---	---	728.7	0.026	0.000	20.7	2	1
03/13/06	2:57 p	-19.5	-19.4	-19.5	---	---	31.3	SSE	0.52	34.8	-35.5	---	---	728.9	0.026	0.000	20.6	3	1
03/13/06	2:58 p	-19.5	-19.5	-19.6	---	---	28.7	SE	0.48	29.6	-35.0	---	---	728.9	0.026	0.000	20.6	3	1
03/13/06	2:59 p	-19.6	-19.6	-19.6	---	---	26.1	SE	0.43	29.6	-34.5	---	---	729.0	0.026	0.000	20.6	2	1
03/13/06	3:00 p	-19.6	-19.6	-19.6	---	---	27.0	SE	0.45	29.6	-34.8	---	---	728.9	0.026	0.000	20.6	2	1
03/13/06	3:01 p	-19.6	-19.6	-19.7	---	---	26.1	ESE	0.43	27.8	-34.6	---	---	729.1	0.026	0.000	20.6	2	1
03/13/06	3:02 p	-19.7	-19.7	-19.7	---	---	24.3	ESE	0.41	25.2	-34.3	---	---	729.2	0.026	0.000	20.6	2	1
03/13/06	3:03 p	-19.7	-19.7	-19.8	---	---	23.5	SE	0.39	25.2	-34.1	---	---	729.3	0.026	0.000	20.6	2	1
03/13/06	3:04 p	-19.8	-19.8	-19.8	---	---	22.6	ESE	0.38	23.5	-34.0	---	---	729.3	0.026	0.000	20.6	3	1
03/13/06	3:05 p	-19.8	-19.8	-19.9	---	---	21.7	ESE	0.36	23.5	-33.8	---	---	729.4	0.027	0.000	20.6	2	1
03/13/06	3:06 p	-19.9	-19.9	-19.9	---	---	20.0	ESE	0.33	21.7	-33.4	---	---	729.4	0.027	0.000	20.6	2	1
03/13/06	3:07 p	-19.9	-19.9	-19.9	---	---	20.0	ESE	0.33	21.7	-33.4	---	---	729.4	0.027	0.000	20.6	2	1
03/13/06	3:08 p	-19.9	-19.9	-20.0	---	---	20.0	ESE	0.33	21.7	-33.6	---	---	729.4	0.027	0.000	20.6	3	1
03/13/06	3:09 p	-20.0	-20.0	-20.1	---	---	20.0	ESE	0.33	20.9	-33.6	---	---	729.4	0.027	0.000	20.6	2	1
03/13/06	3:10 p	-20.1	-20.1	-20.1	---	---	20.0	ESE	0.33	21.7	-33.7	---	---	729.3	0.027	0.000	20.6	2	1
03/13/06	3:11 p	-20.1	-20.1	-20.1	---	---	22.6	ESE	0.38	23.5	-34.4	---	---	729.4	0.027	0.000	20.6	2	1
03/13/06	3:12 p	-20.2	-20.1	-20.2	---	---	21.7	E	0.36	23.5	-34.3	---	---	729.4	0.027	0.000	20.6	2	1
03/13/06	3:13 p	-20.2	-20.2	-20.2	---	---	21.7	E	0.36	25.2	-34.4	---	---	729.4	0.027	0.000	20.6	2	1
03/13/06	3:14 p	-20.2	-20.2	-20.3	---	---	25.2	ESE	0.42	27.0	-35.2	---	---	729.3	0.027	0.000	20.6	2	1
03/13/06	3:15 p	-20.3	-20.3	-20.3	---	---	23.5	ESE	0.39	26.1	-34.9	---	---	729.4	0.027	0.000	20.5	2	1
03/13/06	3:16 p	-20.4	-20.3	-20.4	---	---	24.3	ESE	0.41	26.1	-35.2	---	---	729.3	0.027	0.000	20.5	2	1
03/13/06	3:17 p	-20.4	-20.4	-20.4	---	---	25.2	E	0.42	28.7	-35.4	---	---	729.2	0.027	0.000	20.5	2	1
03/13/06	3:18 p	-20.4	-20.4	-20.4	---	---	20.9	E	0.35	23.5	-34.4	---	---	729.4	0.027	0.000	20.6	2	1
03/13/06	3:19 p	-20.4	-20.4	-20.5	---	---	20.0	E	0.33	23.5	-34.2	---	---	729.4	0.027	0.000	20.5	2	1
03/13/06	3:20 p	-20.5	-20.5	-20.6	---	---	24.3	ESE	0.41	27.0	-35.4	---	---	729.3	0.027	0.000	20.6	2	1
03/13/06	3:21 p	-20.6	-20.6	-20.6	---	---	23.5	ESE	0.39	25.2	-35.3	---	---	729.3	0.027	0.000	20.5	2	1
03/13/06	3:22 p	-20.6	-20.6	-20.6	---	---	25.2	ESE	0.42	27.0	-35.7	---	---	729.4	0.027	0.000	20.5	2	1
03/13/06	3:23 p	-20.6	-20.6	-20.6	---	---	24.3	ESE	0.41	25.2	-35.6	---	---	729.3	0.027	0.000	20.5	2	1
03/13/06	3:24 p	-20.7	-20.6	-20.7	---	---	27.0	ESE	0.45	29.6	-36.2	---	---	729.1	0.027	0.000	20.5	2	1
03/13/06	3:25 p	-20.7	-20.7	-20.7	---	---	24.3	E	0.41	28.7	-35.7	---	---	729.3	0.027	0.000	20.5	2	1
03/13/06	3:26 p	-20.8	-20.7	-20.8	---	---	22.6	E	0.38	25.2	-35.3	---	---	729.1	0.027	0.000	20.5	2	1
03/13/06	3:27 p	-20.8	-20.8	-20.8	---	---	26.1	E	0.43	29.6	-36.2	---	---	729.2	0.027	0.000	20.5	2	1
03/13/06	3:28 p	-20.8	-20.8	-20.8	---	---	25.2	E	0.42	27.8	-35.9	---	---	729.3	0.027	0.000	20.5	2	1
03/13/06	3:29 p	-20.9	-20.8	-20.9	---	---	25.2	E	0.42	27.8	-36.1	---	---	729.1	0.027	0.000	20.5	2	1
03/13/06	3:30 p	-20.9	-20.9	-20.9	---	---	25.2	E	0.42	29.6	-36.1	---	---	729.1	0.027	0.000	20.5	2	1
03/13/06	3:31 p	-20.9	-20.9	-20.9	---	---	25.2	E	0.42	29.6	-36.2	---	---	729.1	0.027	0.000	20.5	2	1
03/13/06	3:32 p	-20.9	-20.9	-21.0	---	---	21.7	E	0.36	25.2	-35.3	---	---	729.1	0.027	0.000	20.5	2	1
03/13/06	3:33 p	-21.0	-21.0	-21.0	---	---	25.2	E	0.42	28.7	-36.3	---	---	729.2	0.027	0.000	20.6	2	1
03/13/06	3:34 p	-21.0	-21.0	-21.1	---	---	24.3	E	0.41	29.6	-36.1	---	---	729.1	0.027	0.000	20.5	2	1
03/13/06	3:35 p	-21.1	-21.1	-21.1	---	---	20.0	E	0.33	25.2	-35.0	---	---	729.1	0.027	0.000	20.6	2	1
03/13/06	3:36 p	-21.1	-21.1	-21.1	---	---	22.6	E	0.38	26.1	-35.7	---	---	729.1	0.027	0.000	20.6	2	1
03/13/06	3:37 p	-21.1	-21.1	-21.1	---	---	25.2	E	0.42	29.6	-36.4	---	---	729.0	0.027	0.000	20.6	2	1
03/13/06	3:38 p	-21.1	-21.1	-21.2	---	---	25.2	E	0.42	28.7	-36.4	---	---	729.1	0.027	0.000	20.6	2	1
03/13/06	3:39 p	-21.2	-21.2	-21.2	---	---	26.1	E	0.43	31.3	-36.7	---	---	729.1	0.027	0.000	20.6	2	1
03/13/06	3:40 p	-21.2	-21.2	-21.2	---	---	25.2	E	0.42	28.7	-36.5	---	---	729.0	0.027	0.000	20.6	2	1
03/13/06	3:41 p	-21.2	-21.2	-21.2	---	---	27.8	E	0.46	33.9	-37.2	---	---	729.0	0.027	0.000	20.6	2	1
03/13/06	3:42 p	-21.2	-21.2	-21.2	---	---	27.0	ESE	0.45	33.0	-36.9	---	---	729.1	0.027	0.000	20.6	2	1
03/13/06	3:43 p	-21.3	-21.2	-21.3	---	---	23.5	E	0.39	27.8	-36.2	---	---	729.0	0.028	0.000	20.6	2	1
03/13/06	3:44 p	-21.3	-21.3	-21.3	---	---	27.0	ESE	0.45	34.8	-37.1	---	---	729.1	0.028	0.000	20.5	2	1
03/13/06	3:45 p	-21.3	-21.3	-21.3	---	---	26.1	E	0.43	33.0	-36.9	---	---	729.2	0.028	0.000	20.5	2	1
03/13/06	3:46 p	-21.3	-21.3	-21.3	---	---	27.8	E	0.46	32.2	-37.3	---	---	729.2	0.028	0.000	20.5	2	1
03/13/06	3:47 p	-21.4	-21.4	-21.4	---	---	29.6	ESE	0.49	33.9	-37.7	---	---	729.3	0.028	0.000	20.5	2	1
03/13/06	3:48 p	-21.4	-21.4	-21.4	---	---	27.0	ESE	0.45	32.2	-37.2	---	---	729.3	0.028	0.000	20.5	2	1
03/13/06	3:49 p	-21.4	-21.4	-21.4	---	---	27.0	SE	0.45	34.8	-37.2	---	---	729.3	0.028	0.000	20.5	2	1
03/13/06	3:50 p	-21.4	-21.4	-21.4	---	---	33.9	SE	0.57	41.7	-38.6	---	---	729.3	0.028	0.000	20.5	2	1
03/13/06	3:51 p	-21.4	-21.4	-21.4	---	---	34.8	SE	0.58	38.3	-38.8	---	---	729.1	0.028	0.000	20.5	2	1
03/13/06	3:52 p	-21.4	-21.4	-21.4	---	---	28.7	ESE	0.48	37.4	-37.7	---	---	729.1	0.028	0.000	20.5	2	1
03/13/06	3:53 p	-21.4	-21.4	-21.4	---	---	32.2	ESE	0.54	38.3	-38.3	---	---	729.2	0.028	0.000	20.4	2	1
03/13/06	3:54 p	-21.4	-21.4	-21.5	---	---	33.9	ESE	0.57	38.3	-38.7	---	---	729.2	0.028	0.000	20.4	2	1
03/13/06	3:55 p	-21.4	-21.4	-21.5	---	---	30.4	ESE	0.51	33.0	-38.0	---	---	729.1	0.028	0.000	20.4	2	1
03/13/06	3:56 p	-21.4	-21.4	-21.4	---	---	34.8	SE	0.58	40.0	-38.8	---	---	729.2	0.028	0.000	20.4	2	1
03/13/06	3:57 p	-21.4	-21.4	-21.4	---	---	33.9	SE	0.57	38.3	-38.7	---	---	729.2	0.028	0.000	20.4	2	1
03/13/06	3:58 p	-21.4	-21.4	-21.4	---	---	33.0	SE	0.55	40.0	-38.5	---	---	729.2	0.028	0.000	20.4	2	1
03/13/06	3:59 p	-21.4	-21.4	-21.4	---	---	36.5	SSE	0.61	40.9	-39.1	---	---	729.2	0.028	0.000	20.4	2	1
03/13/06	4:00 p	-21.4	-21.4	-21.4	---	---	36.5	SSE	0.61	42.6	-39.1	---	---	729.3	0.028	0.000	20.4	2	1
03/13/06	4:01 p	-21.4	-21.4	-21.4	---	---	32.2	SE	0.54	40.9	-38.3	---	---	729.1	0.028	0.000	20.4	2	1
03/13/06	4:02 p	-21.4	-21.4	-21.4	---	---	37.4	SE	0.62	45.2	-39.2	---	---	728.9	0.028	0.000	20.4	2	1
03/13/06	4:03 p	-21.4	-21.3	-21.4	---	---	40.9	SSE	0.68	45.2	-39.7	---	---	729.2	0.028	0.000	20.4	2	1
03/13/06	4:04 p	-21.3	-21.3	-21.3	---	---	36.5	SE	0.61	47.0	-38.9	---	---	729.2	0.028	0.000	20.4	2	1
03/13/06	4:05 p	-21.3	-21.2	-21.3	---	---	36.5	SE	0.61	41.7	-38.9	---	---	729.0	0.028	0.000	20.4	2	1
03/13/06	4:06 p	-21.2	-21.2	-21.2	---	---	40.9	SE	0.68	48.7	-39.5	---	---	728.9	0.027	0.000	20.4	2	1
03/13/06	4:07 p	-21.2	-21.1	-21.2	---	---	43.5	SE	0.72	47.8	-39.8	---	---	728.8	0.027	0.000	20.4	2	1
03/13/06	4:08 p	-21.1	-21.1	-21.2	---	---	43.5	SSE	0.72	51.3	-39.7	---	---	728.6	0.027	0.000	20.4	2	1
03/13/06	4:09 p	-21.1	-21.1	-21.1	---	---	38.3	SE	0.64	49.6	-38.8	---	---	728.8	0.027	0.000	20.4	2	1
03/13/06	4:10 p	-21.0	-21.0	-21.1	---	---	42.6	SE	0.71	46.1	-39.4	---	---	728.8	0.027	0.000	20.4	2	1
03/13/06	4:11 p	-21.0	-20.9	-21.0	---	---	43.5	SE	0.72	50.4	-39.6	---	---	728.5	0.027	0.000	20.4	2	1
03/13/06	4:12 p	-20.9	-20.9	-20.9	---	---	46.1	SE	0.77	50.4	-39.9	---	---	728.6	0.027	0.000	20.4	2	1
03/13/06	4:13 p	-20.9	-20.8	-20.9	---	---	46.1	SE	0.77	51.3	-39.8	---	---	728.6	0.027	0.000	20.4	2	1
03/13/06	4:14 p	-20.8	-20.8	-20.8	---	---	44.3	SE	0.74	50.4	-39.5	---	---	728.7	0.027	0.000	20.4	2	1
03/13/06	4:15 p	-20.8	-20.8	-20.8	---	---	40.0	SE	0.67	45.2	-38.7	---	---	728.8	0.027	0.000	20.4	2	1
03/13/06	4:16 p	-20.7	-20.7	-20.8	---	---	41.7	SE	0.70	47.0	-38.9	---	---	728.8	0.027	0.000	20.4	2	1
03/13/06	4:17 p	-20.7	-20.7	-20.7	---	---	44.3	SE	0.74	48.7	-39.2	---	---	728.6	0.027	0.000	20.4	2	1
03/13/06	4:18 p	-20.7	-20.7	-20.7	---	---	43.5	SE	0.72	49.6	-39.1	---	---	728.7	0.027	0.000	20.4	2	1
03/13/06	4:19 p	-20.7	-20.6	-20.7	---	---	42.6	SE	0.71	47.8	-39.0	---	---	728.6	0.027	0.000	20.4	2	1
03/13/06	4:20 p	-20.6	-20.6	-20.6	---	---	40.0	SE	0.67	43.5	-38.5	---	---	728.6	0.027	0.000	20.4	2	1
03/13/06	4:21 p	-20.6	-20.6	-20.6	---	---	39.1	SE	0.65	44.3	-38.3	---	---	728.8	0.027	0.000	20.4	2	1
03/13/06	4:22 p	-20.6	-20.5	-20.6	---	---	42.6	SE	0.71	47.8	-38.8	---	---	728.8	0.027	0.000	20.4	2	1
03/13/06	4:23 p	-20.5	-20.4	-20.5	---	---	44.3	SE	0.74	48.7	-39.0	---	---	728.7	0.027	0.000	20.4	2	1
03/13/06	4:24 p	-20.4	-20.4	-20.4	---	---	43.5	SE	0.72	49.6	-38.8	---	---	728.7	0.027	0.000	20.4	3	1
03/13/06	4:25 p	-20.4	-20.4	-20.4	---	---	43.5	SE	0.72	47.8	-38.8	---	---	728.7	0.027	0.000	20.4	3	1
03/13/06	4:26 p	-20.4	-20.4	-20.4	---	---	40.9	SE	0.68	45.2	-38.4	---	---	729.0	0.027	0.000	20.4	3	1
03/13/06	4:27 p	-20.4	-20.4	-20.4	---	---	42.6	SE	0.71	47.0	-38.7	---	---	729.1	0.027	0.000	20.4	3	1
03/13/06	4:28 p	-20.4	-20.3	-20.4	---	---	39.1	SE	0.65	45.2	-38.1	---	---	729.2	0.027	0.000	20.4	3	1
03/13/06	4:29 p	-20.4	-20.4	-20.4	---	---	38.3	SE	0.64	45.2	-37.9	---	---	729.0	0.027	0.000	20.4	3	1
03/13/06	4:30 p	-20.4	-20.4	-20.4	---	---	39.1	ESE	0.65	41.7	-38.1	---	---	729.2	0.027	0.000	20.4	3	1
03/13/06	4:31 p	-20.3	-20.3	-20.4	---	---	38.3	SE	0.64	47.8	-37.8	---	---	729.1	0.027	0.000	20.4	3	1
03/13/06	4:32 p	-20.3	-20.3	-20.3	---	---	40.0	SE	0.67	47.0	-38.1	---	---	728.9	0.027	0.000	20.4	3	1
03/13/06	4:33 p	-20.3	-20.3	-20.3	---	---	41.7	SE	0.70	45.2	-38.4	---	---	728.9	0.027	0.000	20.4	2	1
03/13/06	4:34 p	-20.3	-20.3	-20.3	---	---	42.6	SE	0.71	48.7	-38.5	---	---	728.9	0.027	0.000	20.4	3	1
03/13/06	4:35 p	-20.3	-20.3	-20.3	---	---	40.9	SE	0.68	45.2	-38.2	---	---	728.9	0.027	0.000	20.3	3	1
03/13/06	4:36 p	-20.3	-20.3	-20.3	---	---	40.0	SE	0.67	44.3	-38.1	---	---	729.0	0.027	0.000	20.3	3	1
03/13/06	4:37 p	-20.3	-20.3	-20.3	---	---	38.3	SE	0.64	46.1	-37.8	---	---	728.8	0.027	0.000	20.3	3	1
03/13/06	4:38 p	-20.3	-20.3	-20.3	---	---	36.5	ESE	0.61	40.9	-37.6	---	---	729.1	0.027	0.000	20.3	3	1
03/13/06	4:39 p	-20.3	-20.3	-20.3	---	---	38.3	ESE	0.64	41.7	-37.8	---	---	729.0	0.027	0.000	20.3	3	1
03/13/06	4:40 p	-20.3	-20.3	-20.3	---	---	38.3	ESE	0.64	42.6	-37.8	---	---	729.1	0.027	0.000	20.3	3	1
03/13/06	4:41 p	-20.3	-20.3	-20.3	---	---	35.7	ESE	0.59	40.9	-37.4	---	---	729.1	0.027	0.000	20.3	3	1
03/13/06	4:42 p	-20.3	-20.3	-20.3	---	---	33.9	SE	0.57	42.6	-37.1	---	---	729.3	0.027	0.000	20.3	3	1
03/13/06	4:43 p	-20.3	-20.3	-20.3	---	---	31.3	ESE	0.52	38.3	-36.6	---	---	729.4	0.027	0.000	20.3	3	1
03/13/06	4:44 p	-20.3	-20.3	-20.3	---	---	36.5	ESE	0.61	40.9	-37.6	---	---	729.1	0.027	0.000	20.3	2	1
03/13/06	4:45 p	-20.3	-20.3	-20.3	---	---	38.3	ESE	0.64	43.5	-37.8	---	---	729.3	0.027	0.000	20.2	3	1
03/13/06	4:46 p	-20.3	-20.3	-20.3	---	---	31.3	ESE	0.52	35.7	-36.6	---	---	729.4	0.027	0.000	20.2	2	1
03/13/06	4:47 p	-20.4	-20.3	-20.4	---	---	33.9	ESE	0.57	38.3	-37.2	---	---	729.4	0.027	0.000	20.2	2	1
03/13/06	4:48 p	-20.3	-20.3	-20.4	---	---	28.7	SE	0.48	33.0	-36.1	---	---	729.6	0.027	0.000	20.2	2	1
03/13/06	4:49 p	-20.4	-20.3	-20.4	---	---	28.7	ESE	0.48	33.0	-36.2	---	---	729.6	0.027	0.000	20.2	2	1
03/13/06	4:50 p	-20.4	-20.4	-20.4	---	---	29.6	ESE	0.49	31.3	-36.4	---	---	729.5	0.027	0.000	20.2	2	1
03/13/06	4:51 p	-20.4	-20.4	-20.4	---	---	29.6	ESE	0.49	33.0	-36.4	---	---	729.5	0.027	0.000	20.2	2	1
03/13/06	4:52 p	-20.4	-20.4	-20.4	---	---	28.7	E	0.48	33.0	-36.2	---	---	729.5	0.027	0.000	20.2	3	1
03/13/06	4:53 p	-20.4	-20.4	-20.4	---	---	28.7	E	0.48	34.8	-36.3	---	---	729.5	0.027	0.000	20.2	3	1
03/13/06	4:54 p	-20.4	-20.4	-20.4	---	---	30.4	ESE	0.51	34.8	-36.6	---	---	729.7	0.027	0.000	20.2	2	1
03/13/06	4:55 p	-20.4	-20.4	-20.5	---	---	31.3	ESE	0.52	35.7	-36.8	---	---	729.6	0.027	0.000	20.2	2	1
03/13/06	4:56 p	-20.4	-20.4	-20.5	---	---	30.4	E	0.51	40.9	-36.6	---	---	729.8	0.027	0.000	20.2	2	1
03/13/06	4:57 p	-20.5	-20.5	-20.6	---	---	28.7	ESE	0.48	36.5	-36.3	---	---	730.0	0.027	0.000	20.2	2	1
03/13/06	4:58 p	-20.6	-20.5	-20.6	---	---	27.8	ESE	0.46	30.4	-36.2	---	---	730.3	0.027	0.000	20.2	2	1
03/13/06	4:59 p	-20.5	-20.5	-20.5	---	---	16.5	E	0.28	26.1	-33.2	---	---	730.0	0.027	0.000	20.2	2	1
03/13/06	5:00 p	-20.6	-20.5	-20.6	---	---	23.5	E	0.39	28.7	-35.3	---	---	730.0	0.027	0.000	20.2	2	1
03/13/06	5:01 p	-20.6	-20.6	-20.6	---	---	25.2	ESE	0.42	29.6	-35.7	---	---	730.0	0.027	0.000	20.2	2	1
03/13/06	5:02 p	-20.6	-20.6	-20.6	---	---	27.0	ESE	0.45	33.0	-36.1	---	---	730.0	0.027	0.000	20.2	2	1
03/13/06	5:03 p	-20.6	-20.6	-20.6	---	---	25.2	E	0.42	35.7	-35.7	---	---	729.9	0.027	0.000	20.2	2	1
03/13/06	5:04 p	-20.6	-20.6	-20.6	---	---	28.7	E	0.48	39.1	-36.5	---	---	729.8	0.027	0.000	20.2	2	1
03/13/06	5:05 p	-20.6	-20.6	-20.6	---	---	30.4	ESE	0.51	34.8	-36.8	---	---	729.8	0.027	0.000	20.2	2	1
03/13/06	5:06 p	-20.6	-20.6	-20.6	---	---	30.4	ESE	0.51	35.7	-36.8	---	---	729.9	0.027	0.000	20.3	2	1
03/13/06	5:07 p	-20.6	-20.6	-20.6	---	---	25.2	SE	0.42	31.3	-35.7	---	---	730.0	0.027	0.000	20.3	3	1
03/13/06	5:08 p	-20.6	-20.6	-20.6	---	---	28.7	SE	0.48	32.2	-36.5	---	---	730.0	0.027	0.000	20.3	2	1
03/13/06	5:09 p	-20.6	-20.6	-20.6	---	---	29.6	SE	0.49	32.2	-36.7	---	---	729.8	0.027	0.000	20.3	2	1
03/13/06	5:10 p	-20.6	-20.6	-20.6	---	---	28.7	SE	0.48	32.2	-36.5	---	---	730.1	0.027	0.000	20.3	2	1
03/13/06	5:11 p	-20.6	-20.6	-20.6	---	---	25.2	SE	0.42	28.7	-35.7	---	---	730.0	0.027	0.000	20.3	2	1
03/13/06	5:12 p	-20.6	-20.6	-20.6	---	---	24.3	SE	0.41	27.0	-35.6	---	---	730.0	0.027	0.000	20.3	2	1
03/13/06	5:13 p	-20.6	-20.6	-20.6	---	---	24.3	ESE	0.41	26.1	-35.6	---	---	730.2	0.027	0.000	20.3	2	1
03/13/06	5:14 p	-20.6	-20.6	-20.6	---	---	20.0	ESE	0.33	21.7	-34.4	---	---	730.1	0.027	0.000	20.3	2	1
03/13/06	5:15 p	-20.6	-20.6	-20.6	---	---	19.1	ESE	0.32	21.7	-34.1	---	---	730.2	0.027	0.000	20.3	2	1
03/13/06	5:16 p	-20.6	-20.6	-20.6	---	---	19.1	ESE	0.32	20.0	-34.2	---	---	730.2	0.027	0.000	20.2	2	1
03/13/06	5:17 p	-20.6	-20.6	-20.6	---	---	20.9	ESE	0.35	22.6	-34.6	---	---	730.1	0.027	0.000	20.2	2	1
03/13/06	5:18 p	-20.6	-20.6	-20.6	---	---	20.9	ESE	0.35	22.6	-34.7	---	---	730.2	0.027	0.000	20.2	2	1
03/13/06	5:19 p	-20.6	-20.6	-20.6	---	---	20.9	ESE	0.35	21.7	-34.7	---	---	730.2	0.027	0.000	20.2	2	1
03/13/06	5:20 p	-20.6	-20.6	-20.6	---	---	20.0	ESE	0.33	22.6	-34.3	---	---	730.0	0.027	0.000	20.2	2	1
03/13/06	5:21 p	-20.6	-20.6	-20.6	---	---	20.9	E	0.35	25.2	-34.6	---	---	730.0	0.027	0.000	20.2	2	1
03/13/06	5:22 p	-20.6	-20.6	-20.6	---	---	20.9	E	0.35	25.2	-34.6	---	---	730.1	0.027	0.000	20.2	2	1
03/13/06	5:23 p	-20.6	-20.6	-20.6	---	---	20.0	E	0.33	25.2	-34.3	---	---	730.1	0.027	0.000	20.2	2	1
03/13/06	5:24 p	-20.6	-20.6	-20.6	---	---	18.3	E	0.30	23.5	-33.8	---	---	730.1	0.027	0.000	20.2	2	1
03/13/06	5:25 p	-20.6	-20.6	-20.6	---	---	20.9	E	0.35	25.2	-34.6	---	---	730.0	0.027	0.000	20.2	2	1
03/13/06	5:26 p	-20.6	-20.6	-20.6	---	---	21.7	E	0.36	25.2	-34.8	---	---	730.1	0.027	0.000	20.2	2	1
03/13/06	5:27 p	-20.6	-20.6	-20.6	---	---	20.0	ESE	0.33	23.5	-34.3	---	---	730.1	0.027	0.000	20.1	2	1
03/13/06	5:28 p	-20.6	-20.5	-20.6	---	---	19.1	ESE	0.32	24.3	-34.1	---	---	730.0	0.027	0.000	20.1	2	1
03/13/06	5:29 p	-20.6	-20.5	-20.6	---	---	17.4	E	0.29	20.9	-33.6	---	---	730.1	0.027	0.000	20.1	2	1
03/13/06	5:30 p	-20.5	-20.5	-20.6	---	---	20.0	ESE	0.33	24.3	-34.3	---	---	730.1	0.027	0.000	20.1	2	1
03/13/06	5:31 p	-20.5	-20.5	-20.5	---	---	19.1	ESE	0.32	21.7	-34.1	---	---	730.2	0.027	0.000	20.1	2	1
03/13/06	5:32 p	-20.5	-20.5	-20.5	---	---	20.0	ESE	0.33	23.5	-34.3	---	---	730.1	0.027	0.000	20.1	2	1
03/13/06	5:33 p	-20.5	-20.4	-20.5	---	---	20.9	ESE	0.35	22.6	-34.5	---	---	730.1	0.027	0.000	20.1	2	1
03/13/06	5:34 p	-20.5	-20.5	-20.5	---	---	19.1	ESE	0.32	22.6	-34.1	---	---	730.2	0.027	0.000	20.1	2	1
03/13/06	5:35 p	-20.4	-20.4	-20.5	---	---	19.1	ESE	0.32	21.7	-33.9	---	---	730.3	0.027	0.000	20.1	2	1
03/13/06	5:36 p	-20.4	-20.4	-20.5	---	---	18.3	ESE	0.30	20.9	-33.7	---	---	730.3	0.027	0.000	20.1	2	1
03/13/06	5:37 p	-20.4	-20.4	-20.4	---	---	19.1	ESE	0.32	20.9	-33.9	---	---	730.3	0.027	0.000	20.1	2	1
03/13/06	5:38 p	-20.4	-20.4	-20.4	---	---	17.4	ESE	0.29	19.1	-33.4	---	---	730.3	0.027	0.000	20.1	2	1
03/13/06	5:39 p	-20.4	-20.4	-20.4	---	---	20.0	ESE	0.33	24.3	-34.2	---	---	730.3	0.027	0.000	20.1	2	1
03/13/06	5:40 p	-20.4	-20.4	-20.4	---	---	17.4	ESE	0.29	20.0	-33.4	---	---	730.2	0.027	0.000	20.1	2	1
03/13/06	5:41 p	-20.4	-20.4	-20.4	---	---	16.5	E	0.28	20.9	-33.2	---	---	730.2	0.027	0.000	20.1	2	1
03/13/06	5:42 p	-20.4	-20.4	-20.4	---	---	16.5	E	0.28	20.0	-33.2	---	---	730.2	0.027	0.000	20.2	2	1
03/13/06	5:43 p	-20.4	-20.4	-20.4	---	---	20.0	ESE	0.33	21.7	-34.1	---	---	730.2	0.027	0.000	20.2	2	1
03/13/06	5:44 p	-20.4	-20.4	-20.4	---	---	20.0	ESE	0.33	21.7	-34.1	---	---	730.2	0.027	0.000	20.2	2	1
03/13/06	5:45 p	-20.4	-20.4	-20.4	---	---	20.0	ESE	0.33	21.7	-34.2	---	---	730.2	0.027	0.000	20.2	2	1
03/13/06	5:46 p	-20.4	-20.4	-20.4	---	---	17.4	ESE	0.29	19.1	-33.4	---	---	730.1	0.027	0.000	20.2	2	1
03/13/06	5:47 p	-20.4	-20.4	-20.4	---	---	18.3	ESE	0.30	20.9	-33.6	---	---	730.1	0.027	0.000	20.2	2	1
03/13/06	5:48 p	-20.4	-20.3	-20.4	---	---	18.3	ESE	0.30	20.9	-33.6	---	---	730.0	0.027	0.000	20.2	2	1
03/13/06	5:49 p	-20.4	-20.4	-20.4	---	---	19.1	ESE	0.32	20.9	-33.9	---	---	730.1	0.027	0.000	20.2	2	1
03/13/06	5:50 p	-20.4	-20.3	-20.4	---	---	20.0	ESE	0.33	21.7	-34.1	---	---	730.0	0.027	0.000	20.2	2	1
03/13/06	5:51 p	-20.4	-20.4	-20.4	---	---	18.3	E	0.30	20.0	-33.6	---	---	730.0	0.027	0.000	20.2	2	1
03/13/06	5:52 p	-20.4	-20.4	-20.4	---	---	18.3	E	0.30	20.9	-33.6	---	---	730.1	0.027	0.000	20.2	2	1
03/13/06	5:53 p	-20.4	-20.4	-20.4	---	---	16.5	E	0.28	19.1	-33.1	---	---	730.0	0.027	0.000	20.2	2	1
03/13/06	5:54 p	-20.4	-20.3	-20.4	---	---	16.5	E	0.28	20.9	-33.1	---	---	730.1	0.027	0.000	20.2	2	1
03/13/06	5:55 p	-20.3	-20.3	-20.4	---	---	14.8	ESE	0.25	18.3	-32.4	---	---	730.2	0.027	0.000	20.2	2	1
03/13/06	5:56 p	-20.3	-20.3	-20.3	---	---	14.8	E	0.25	16.5	-32.4	---	---	730.1	0.027	0.000	20.2	2	1
03/13/06	5:57 p	-20.3	-20.3	-20.3	---	---	14.8	E	0.25	17.4	-32.4	---	---	730.2	0.027	0.000	20.2	2	1
03/13/06	5:58 p	-20.3	-20.3	-20.3	---	---	14.8	E	0.25	19.1	-32.4	---	---	730.1	0.027	0.000	20.2	2	1
03/13/06	5:59 p	-20.3	-20.3	-20.3	---	---	13.0	E	0.22	15.7	-31.8	---	---	730.1	0.027	0.000	20.2	2	1
03/13/06	6:00 p	-20.3	-20.3	-20.3	---	---	13.9	E	0.23	16.5	-32.1	---	---	730.1	0.027	0.000	20.2	2	1
03/13/06	6:01 p	-20.3	-20.3	-20.3	---	---	13.0	E	0.22	16.5	-31.7	---	---	730.2	0.027	0.000	20.2	2	1
03/13/06	6:02 p	-20.3	-20.3	-20.3	---	---	13.9	E	0.23	14.8	-32.1	---	---	730.3	0.027	0.000	20.2	2	1
03/13/06	6:03 p	-20.3	-20.3	-20.3	---	---	13.9	E	0.23	15.7	-32.1	---	---	730.3	0.027	0.000	20.2	2	1
03/13/06	6:04 p	-20.3	-20.3	-20.3	---	---	15.7	E	0.26	17.4	-32.7	---	---	730.4	0.027	0.000	20.2	2	1
03/13/06	6:05 p	-20.3	-20.3	-20.3	---	---	14.8	E	0.25	17.4	-32.3	---	---	730.3	0.027	0.000	20.2	2	1
03/13/06	6:06 p	-20.3	-20.3	-20.3	---	---	15.7	E	0.26	18.3	-32.7	---	---	730.3	0.027	0.000	20.1	2	1
03/13/06	6:07 p	-20.3	-20.2	-20.3	---	---	16.5	E	0.28	18.3	-32.9	---	---	730.3	0.027	0.000	20.1	2	1
03/13/06	6:08 p	-20.2	-20.2	-20.3	---	---	15.7	E	0.26	17.4	-32.6	---	---	730.1	0.027	0.000	20.1	2	1
03/13/06	6:09 p	-20.2	-20.2	-20.3	---	---	14.8	E	0.25	18.3	-32.3	---	---	730.0	0.027	0.000	20.1	2	1
03/13/06	6:10 p	-20.2	-20.2	-20.2	---	---	16.5	E	0.28	19.1	-32.9	---	---	730.1	0.027	0.000	20.1	2	1
03/13/06	6:11 p	-20.2	-20.2	-20.2	---	---	17.4	E	0.29	20.0	-33.2	---	---	730.2	0.027	0.000	20.1	2	1
03/13/06	6:12 p	-20.2	-20.2	-20.2	---	---	17.4	E	0.29	20.0	-33.2	---	---	730.1	0.027	0.000	20.1	2	1
03/13/06	6:13 p	-20.2	-20.2	-20.2	---	---	16.5	E	0.28	20.0	-32.9	---	---	730.1	0.027	0.000	20.1	2	1
03/13/06	6:14 p	-20.2	-20.2	-20.2	---	---	15.7	E	0.26	18.3	-32.6	---	---	730.1	0.027	0.000	20.1	2	1
03/13/06	6:15 p	-20.2	-20.2	-20.2	---	---	15.7	E	0.26	17.4	-32.6	---	---	730.0	0.027	0.000	20.1	2	1
03/13/06	6:16 p	-20.2	-20.2	-20.2	---	---	17.4	E	0.29	20.0	-33.1	---	---	730.0	0.027	0.000	20.1	2	1
03/13/06	6:17 p	-20.2	-20.2	-20.2	---	---	18.3	E	0.30	20.0	-33.3	---	---	730.0	0.027	0.000	20.1	2	1
03/13/06	6:18 p	-20.2	-20.2	-20.2	---	---	19.1	ESE	0.32	20.0	-33.6	---	---	730.0	0.027	0.000	20.1	2	1
03/13/06	6:19 p	-20.2	-20.1	-20.2	---	---	19.1	ESE	0.32	20.0	-33.6	---	---	730.1	0.027	0.000	20.1	2	1
03/13/06	6:20 p	-20.1	-20.1	-20.2	---	---	20.0	E	0.33	21.7	-33.8	---	---	730.1	0.027	0.000	20.1	2	1
03/13/06	6:21 p	-20.1	-20.1	-20.2	---	---	20.0	ESE	0.33	20.9	-33.8	---	---	730.1	0.027	0.000	20.1	2	1
03/13/06	6:22 p	-20.1	-20.1	-20.1	---	---	20.0	ESE	0.33	21.7	-33.7	---	---	730.1	0.027	0.000	20.1	2	1
03/13/06	6:23 p	-20.1	-20.1	-20.1	---	---	20.9	ESE	0.35	21.7	-33.9	---	---	730.0	0.027	0.000	20.1	2	1
03/13/06	6:24 p	-20.1	-20.1	-20.1	---	---	20.0	E	0.33	20.9	-33.7	---	---	730.0	0.027	0.000	20.1	2	1
03/13/06	6:25 p	-20.1	-20.1	-20.1	---	---	18.3	E	0.30	21.7	-33.2	---	---	730.0	0.027	0.000	20.1	2	1
03/13/06	6:26 p	-20.1	-20.0	-20.1	---	---	19.1	E	0.32	21.7	-33.4	---	---	729.9	0.027	0.000	20.1	2	1
03/13/06	6:27 p	-20.0	-20.0	-20.1	---	---	18.3	E	0.30	20.9	-33.1	---	---	730.1	0.027	0.000	20.1	2	1
03/13/06	6:28 p	-20.0	-20.0	-20.0	---	---	20.0	E	0.33	21.7	-33.6	---	---	730.0	0.027	0.000	20.1	2	1
03/13/06	6:29 p	-20.0	-19.9	-20.0	---	---	20.0	ESE	0.33	21.7	-33.6	---	---	730.1	0.027	0.000	20.2	2	1
03/13/06	6:30 p	-19.9	-19.9	-20.0	---	---	20.0	ESE	0.33	21.7	-33.6	---	---	730.2	0.027	0.000	20.2	2	1
03/13/06	6:31 p	-19.9	-19.9	-19.9	---	---	20.0	ESE	0.33	21.7	-33.6	---	---	730.2	0.027	0.000	20.2	2	1
03/13/06	6:32 p	-19.9	-19.9	-19.9	---	---	20.0	ESE	0.33	20.9	-33.6	---	---	730.1	0.027	0.000	20.2	2	1
03/13/06	6:33 p	-19.9	-19.9	-19.9	---	---	20.0	ESE	0.33	21.7	-33.4	---	---	730.1	0.027	0.000	20.2	2	1
03/13/06	6:34 p	-19.9	-19.9	-19.9	---	---	20.0	E	0.33	23.5	-33.4	---	---	730.0	0.027	0.000	20.2	2	1
03/13/06	6:35 p	-19.9	-19.8	-19.9	---	---	20.0	E	0.33	21.7	-33.4	---	---	730.0	0.027	0.000	20.2	2	1
03/13/06	6:36 p	-19.8	-19.8	-19.8	---	---	22.6	E	0.38	32.2	-34.1	---	---	729.8	0.027	0.000	20.2	2	1
03/13/06	6:37 p	-19.8	-19.8	-19.8	---	---	23.5	E	0.39	27.8	-34.3	---	---	729.8	0.027	0.000	20.2	2	1
03/13/06	6:38 p	-19.8	-19.8	-19.8	---	---	21.7	ESE	0.36	25.2	-33.8	---	---	729.8	0.026	0.000	20.2	2	1
03/13/06	6:39 p	-19.8	-19.7	-19.8	---	---	23.5	E	0.39	27.0	-34.2	---	---	729.7	0.026	0.000	20.2	2	1
03/13/06	6:40 p	-19.7	-19.7	-19.7	---	---	23.5	E	0.39	29.6	-34.1	---	---	729.8	0.026	0.000	20.2	2	1
03/13/06	6:41 p	-19.7	-19.7	-19.7	---	---	25.2	E	0.42	32.2	-34.6	---	---	729.7	0.026	0.000	20.2	2	1
03/13/06	6:42 p	-19.7	-19.7	-19.7	---	---	23.5	ESE	0.39	27.8	-34.1	---	---	729.8	0.026	0.000	20.2	2	1
03/13/06	6:43 p	-19.7	-19.6	-19.7	---	---	24.3	ESE	0.41	28.7	-34.3	---	---	729.7	0.026	0.000	20.2	2	1
03/13/06	6:44 p	-19.6	-19.6	-19.6	---	---	23.5	E	0.39	26.1	-34.0	---	---	729.6	0.026	0.000	20.2	2	1
03/13/06	6:45 p	-19.6	-19.6	-19.6	---	---	21.7	E	0.36	25.2	-33.6	---	---	729.8	0.026	0.000	20.2	2	1
03/13/06	6:46 p	-19.6	-19.6	-19.6	---	---	22.6	ESE	0.38	25.2	-33.7	---	---	729.7	0.026	0.000	20.2	2	1
03/13/06	6:47 p	-19.6	-19.5	-19.6	---	---	24.3	E	0.41	25.2	-34.1	---	---	729.7	0.026	0.000	20.1	2	1
03/13/06	6:48 p	-19.6	-19.5	-19.6	---	---	25.2	E	0.42	30.4	-34.3	---	---	729.6	0.026	0.000	20.1	2	1
03/13/06	6:49 p	-19.5	-19.5	-19.5	---	---	27.0	E	0.45	30.4	-34.6	---	---	729.6	0.026	0.000	20.1	2	1
03/13/06	6:50 p	-19.5	-19.4	-19.5	---	---	27.8	E	0.46	30.4	-34.8	---	---	729.7	0.026	0.000	20.1	2	1
03/13/06	6:51 p	-19.4	-19.4	-19.4	---	---	29.6	ESE	0.49	37.4	-35.1	---	---	729.6	0.026	0.000	20.1	2	1
03/13/06	6:52 p	-19.4	-19.4	-19.4	---	---	28.7	ESE	0.48	31.3	-34.9	---	---	729.6	0.026	0.000	20.1	2	1
03/13/06	6:53 p	-19.4	-19.4	-19.4	---	---	27.0	ESE	0.45	31.3	-34.4	---	---	729.7	0.026	0.000	20.1	2	1
03/13/06	6:54 p	-19.3	-19.3	-19.4	---	---	29.6	ESE	0.49	34.8	-34.9	---	---	729.6	0.026	0.000	20.1	2	1
03/13/06	6:55 p	-19.3	-19.3	-19.3	---	---	27.8	ESE	0.46	36.5	-34.6	---	---	729.7	0.026	0.000	20.1	2	1
03/13/06	6:56 p	-19.3	-19.3	-19.3	---	---	28.7	ESE	0.48	31.3	-34.7	---	---	729.7	0.026	0.000	20.1	2	1
03/13/06	6:57 p	-19.3	-19.2	-19.3	---	---	27.8	ESE	0.46	32.2	-34.5	---	---	729.6	0.026	0.000	20.1	2	1
03/13/06	6:58 p	-19.2	-19.2	-19.2	---	---	31.3	ESE	0.52	33.9	-35.1	---	---	729.6	0.026	0.000	20.1	2	1
03/13/06	6:59 p	-19.2	-19.2	-19.2	---	---	30.4	ESE	0.51	33.0	-34.9	---	---	729.6	0.026	0.000	20.1	2	1
03/13/06	7:00 p	-19.2	-19.1	-19.2	---	---	27.8	ESE	0.46	33.9	-34.3	---	---	729.6	0.026	0.000	20.1	2	1
03/13/06	7:01 p	-19.2	-19.1	-19.2	---	---	27.8	ESE	0.46	30.4	-34.3	---	---	729.6	0.026	0.000	20.1	2	1
03/13/06	7:02 p	-19.1	-19.1	-19.1	---	---	26.1	ESE	0.43	30.4	-33.9	---	---	729.7	0.026	0.000	20.1	2	1
03/13/06	7:03 p	-19.1	-19.1	-19.1	---	---	27.0	ESE	0.45	28.7	-34.0	---	---	729.7	0.026	0.000	20.1	2	1
03/13/06	7:04 p	-19.1	-19.0	-19.1	---	---	28.7	ESE	0.48	32.2	-34.4	---	---	729.7	0.026	0.000	20.1	2	1
03/13/06	7:05 p	-19.0	-19.0	-19.0	---	---	28.7	ESE	0.48	32.2	-34.3	---	---	729.7	0.026	0.000	20.1	2	1
03/13/06	7:06 p	-18.9	-18.9	-19.0	---	---	27.0	ESE	0.45	31.3	-33.8	---	---	729.7	0.026	0.000	20.1	2	1
03/13/06	7:07 p	-18.9	-18.9	-19.0	---	---	24.3	ESE	0.41	27.8	-33.3	---	---	729.8	0.026	0.000	20.1	2	1
03/13/06	7:08 p	-18.9	-18.9	-18.9	---	---	23.5	ESE	0.39	25.2	-33.1	---	---	729.8	0.026	0.000	20.1	2	1
03/13/06	7:09 p	-18.9	-18.9	-18.9	---	---	25.2	ESE	0.42	27.8	-33.5	---	---	729.8	0.026	0.000	20.1	2	1
03/13/06	7:10 p	-18.9	-18.9	-18.9	---	---	25.2	ESE	0.42	28.7	-33.4	---	---	729.9	0.026	0.000	20.1	2	1
03/13/06	7:11 p	-18.9	-18.8	-18.9	---	---	26.1	ESE	0.43	27.8	-33.6	---	---	729.8	0.026	0.000	20.1	2	1
03/13/06	7:12 p	-18.8	-18.8	-18.8	---	---	23.5	E	0.39	26.1	-32.9	---	---	729.8	0.026	0.000	20.1	2	1
03/13/06	7:13 p	-18.8	-18.8	-18.8	---	---	23.5	ESE	0.39	27.0	-32.9	---	---	729.8	0.026	0.000	20.1	2	1
03/13/06	7:14 p	-18.8	-18.8	-18.8	---	---	26.1	ESE	0.43	28.7	-33.5	---	---	729.7	0.026	0.000	20.1	2	1
03/13/06	7:15 p	-18.8	-18.8	-18.8	---	---	25.2	ESE	0.42	27.8	-33.3	---	---	729.7	0.026	0.000	20.1	2	1
03/13/06	7:16 p	-18.8	-18.8	-18.8	---	---	28.7	ESE	0.48	34.8	-34.0	---	---	729.5	0.026	0.000	20.1	2	1
03/13/06	7:17 p	-18.8	-18.7	-18.8	---	---	27.8	ESE	0.46	29.6	-33.8	---	---	729.5	0.026	0.000	20.1	2	1
03/13/06	7:18 p	-18.7	-18.7	-18.8	---	---	29.6	ESE	0.49	34.8	-34.1	---	---	729.5	0.026	0.000	20.1	2	1
03/13/06	7:19 p	-18.7	-18.7	-18.7	---	---	27.0	E	0.45	29.6	-33.6	---	---	729.5	0.026	0.000	20.1	2	1
03/13/06	7:20 p	-18.7	-18.7	-18.7	---	---	27.8	E	0.46	30.4	-33.7	---	---	729.5	0.026	0.000	20.1	2	1
03/13/06	7:21 p	-18.7	-18.7	-18.7	---	---	27.8	E	0.46	30.4	-33.7	---	---	729.5	0.026	0.000	20.1	2	1
03/13/06	7:22 p	-18.7	-18.7	-18.7	---	---	28.7	ESE	0.48	32.2	-33.8	---	---	729.5	0.026	0.000	20.1	2	1
03/13/06	7:23 p	-18.7	-18.7	-18.7	---	---	28.7	ESE	0.48	31.3	-33.8	---	---	729.5	0.026	0.000	20.1	2	1
03/13/06	7:24 p	-18.7	-18.7	-18.7	---	---	28.7	E	0.48	31.3	-33.8	---	---	729.6	0.026	0.000	20.1	2	1
03/13/06	7:25 p	-18.7	-18.7	-18.7	---	---	27.0	E	0.45	30.4	-33.5	---	---	729.6	0.026	0.000	20.1	2	1
03/13/06	7:26 p	-18.7	-18.7	-18.7	---	---	24.3	E	0.41	27.0	-32.9	---	---	729.7	0.026	0.000	20.1	2	1
03/13/06	7:27 p	-18.7	-18.7	-18.7	---	---	26.1	E	0.43	27.8	-33.3	---	---	729.7	0.026	0.000	20.1	2	1
03/13/06	7:28 p	-18.7	-18.7	-18.7	---	---	25.2	E	0.42	28.7	-33.1	---	---	729.7	0.026	0.000	20.1	2	1
03/13/06	7:29 p	-18.7	-18.7	-18.7	---	---	25.2	E	0.42	30.4	-33.1	---	---	729.5	0.026	0.000	20.1	2	1
03/13/06	7:30 p	-18.6	-18.6	-18.6	---	---	25.2	E	0.42	28.7	-33.1	---	---	729.5	0.026	0.000	20.1	2	1
03/13/06	7:31 p	-18.6	-18.6	-18.7	---	---	26.1	E	0.43	28.7	-33.2	---	---	729.6	0.026	0.000	20.1	2	1
03/13/06	7:32 p	-18.6	-18.6	-18.6	---	---	26.1	E	0.43	27.8	-33.2	---	---	729.6	0.026	0.000	20.1	2	1
03/13/06	7:33 p	-18.6	-18.6	-18.6	---	---	26.1	E	0.43	29.6	-33.2	---	---	729.6	0.026	0.000	20.1	2	1
03/13/06	7:34 p	-18.6	-18.6	-18.6	---	---	25.2	E	0.42	29.6	-33.1	---	---	729.5	0.026	0.000	20.1	2	1
03/13/06	7:35 p	-18.6	-18.6	-18.6	---	---	26.1	E	0.43	33.9	-33.2	---	---	729.6	0.026	0.000	20.1	2	1
03/13/06	7:36 p	-18.6	-18.6	-18.6	---	---	26.1	E	0.43	29.6	-33.2	---	---	729.6	0.026	0.000	20.1	2	1
03/13/06	7:37 p	-18.6	-18.6	-18.6	---	---	24.3	E	0.41	27.8	-32.8	---	---	729.5	0.026	0.000	20.1	2	1
03/13/06	7:38 p	-18.6	-18.6	-18.6	---	---	26.1	E	0.43	29.6	-33.2	---	---	729.4	0.026	0.000	20.1	3	1
03/13/06	7:39 p	-18.6	-18.6	-18.6	---	---	27.0	E	0.45	30.4	-33.3	---	---	729.4	0.026	0.000	20.1	3	1
03/13/06	7:40 p	-18.6	-18.6	-18.6	---	---	26.1	E	0.43	30.4	-33.2	---	---	729.4	0.026	0.000	20.1	3	1
03/13/06	7:41 p	-18.6	-18.6	-18.6	---	---	29.6	ESE	0.49	33.9	-33.8	---	---	729.3	0.026	0.000	20.1	3	1
03/13/06	7:42 p	-18.6	-18.5	-18.6	---	---	29.6	ESE	0.49	32.2	-33.8	---	---	729.4	0.026	0.000	20.2	3	1
03/13/06	7:43 p	-18.5	-18.5	-18.5	---	---	28.7	ESE	0.48	31.3	-33.6	---	---	729.3	0.026	0.000	20.2	3	1
03/13/06	7:44 p	-18.5	-18.5	-18.5	---	---	30.4	E	0.51	33.9	-33.9	---	---	729.3	0.026	0.000	20.2	3	1
03/13/06	7:45 p	-18.4	-18.4	-18.5	---	---	32.2	ESE	0.54	34.8	-34.2	---	---	729.3	0.026	0.000	20.2	3	1
03/13/06	7:46 p	-18.4	-18.4	-18.4	---	---	29.6	ESE	0.49	33.0	-33.7	---	---	729.4	0.026	0.000	20.2	3	1
03/13/06	7:47 p	-18.4	-18.4	-18.4	---	---	29.6	ESE	0.49	31.3	-33.7	---	---	729.4	0.026	0.000	20.2	3	1
03/13/06	7:48 p	-18.4	-18.4	-18.4	---	---	28.7	ESE	0.48	30.4	-33.4	---	---	729.3	0.026	0.000	20.2	3	1
03/13/06	7:49 p	-18.4	-18.4	-18.4	---	---	28.7	ESE	0.48	32.2	-33.4	---	---	729.3	0.026	0.000	20.2	3	1
03/13/06	7:50 p	-18.3	-18.3	-18.4	---	---	31.3	ESE	0.52	35.7	-33.9	---	---	729.2	0.025	0.000	20.2	3	1
03/13/06	7:51 p	-18.3	-18.3	-18.4	---	---	31.3	ESE	0.52	37.4	-33.9	---	---	729.3	0.025	0.000	20.2	3	1
03/13/06	7:52 p	-18.3	-18.3	-18.4	---	---	29.6	ESE	0.49	30.4	-33.6	---	---	729.3	0.025	0.000	20.2	3	1
03/13/06	7:53 p	-18.3	-18.3	-18.3	---	---	30.4	ESE	0.51	32.2	-33.6	---	---	729.3	0.025	0.000	20.2	3	1
03/13/06	7:54 p	-18.3	-18.3	-18.3	---	---	31.3	ESE	0.52	34.8	-33.8	---	---	729.3	0.025	0.000	20.2	3	1
03/13/06	7:55 p	-18.3	-18.3	-18.3	---	---	30.4	E	0.51	31.3	-33.6	---	---	729.2	0.025	0.000	20.2	3	1
03/13/06	7:56 p	-18.3	-18.2	-18.3	---	---	29.6	ESE	0.49	31.3	-33.4	---	---	729.2	0.025	0.000	20.2	3	1
03/13/06	7:57 p	-18.2	-18.2	-18.2	---	---	29.6	ESE	0.49	31.3	-33.4	---	---	729.3	0.025	0.000	20.2	3	1
03/13/06	7:58 p	-18.2	-18.2	-18.2	---	---	30.4	ESE	0.51	33.0	-33.6	---	---	729.2	0.025	0.000	20.2	3	1
03/13/06	7:59 p	-18.2	-18.2	-18.2	---	---	29.6	E	0.49	33.9	-33.3	---	---	729.2	0.025	0.000	20.2	3	1
03/13/06	8:00 p	-18.2	-18.1	-18.2	---	---	30.4	E	0.51	33.0	-33.5	---	---	729.2	0.025	0.000	20.3	3	1
03/13/06	8:01 p	-18.2	-18.1	-18.2	---	---	29.6	E	0.49	33.0	-33.3	---	---	729.3	0.025	0.000	20.3	3	1
03/13/06	8:02 p	-18.1	-18.1	-18.1	---	---	32.2	ESE	0.54	34.8	-33.7	---	---	729.3	0.025	0.000	20.3	3	1
03/13/06	8:03 p	-18.1	-18.1	-18.1	---	---	29.6	ESE	0.49	33.0	-33.2	---	---	729.2	0.025	0.000	20.3	3	1
03/13/06	8:04 p	-18.1	-18.0	-18.1	---	---	32.2	ESE	0.54	36.5	-33.7	---	---	729.3	0.025	0.000	20.3	3	1
03/13/06	8:05 p	-18.0	-18.0	-18.1	---	---	28.7	ESE	0.48	30.4	-32.9	---	---	729.4	0.025	0.000	20.3	3	1
03/13/06	8:06 p	-18.0	-18.0	-18.0	---	---	29.6	ESE	0.49	31.3	-33.1	---	---	729.3	0.025	0.000	20.3	3	1
03/13/06	8:07 p	-18.0	-17.9	-18.0	---	---	32.2	ESE	0.54	36.5	-33.6	---	---	729.3	0.025	0.000	20.3	3	1
03/13/06	8:08 p	-17.9	-17.9	-17.9	---	---	31.3	ESE	0.52	33.9	-33.3	---	---	729.4	0.025	0.000	20.3	4	1
03/13/06	8:09 p	-17.9	-17.9	-17.9	---	---	28.7	ESE	0.48	31.3	-32.8	---	---	729.4	0.025	0.000	20.3	3	1
03/13/06	8:10 p	-17.9	-17.9	-17.9	---	---	29.6	ESE	0.49	37.4	-32.9	---	---	729.5	0.025	0.000	20.3	3	1
03/13/06	8:11 p	-17.9	-17.8	-17.9	---	---	28.7	ESE	0.48	30.4	-32.8	---	---	729.5	0.025	0.000	20.3	3	1
03/13/06	8:12 p	-17.8	-17.8	-17.8	---	---	28.7	ESE	0.48	31.3	-32.7	---	---	729.4	0.025	0.000	20.3	4	1
03/13/06	8:13 p	-17.8	-17.8	-17.8	---	---	29.6	ESE	0.49	32.2	-32.8	---	---	729.5	0.025	0.000	20.3	4	1
03/13/06	8:14 p	-17.8	-17.7	-17.8	---	---	29.6	ESE	0.49	33.0	-32.8	---	---	729.4	0.025	0.000	20.3	3	1
03/13/06	8:15 p	-17.7	-17.7	-17.7	---	---	28.7	ESE	0.48	30.4	-32.6	---	---	729.4	0.025	0.000	20.3	4	1
03/13/06	8:16 p	-17.7	-17.7	-17.7	---	---	30.4	ESE	0.51	33.9	-32.9	---	---	729.6	0.025	0.000	20.3	3	1
03/13/06	8:17 p	-17.7	-17.7	-17.7	---	---	29.6	ESE	0.49	31.3	-32.7	---	---	729.4	0.025	0.000	20.3	4	1
03/13/06	8:18 p	-17.7	-17.6	-17.7	---	---	29.6	ESE	0.49	33.0	-32.6	---	---	729.5	0.025	0.000	20.3	4	1
03/13/06	8:19 p	-17.6	-17.6	-17.6	---	---	27.0	ESE	0.45	29.6	-32.1	---	---	729.5	0.025	0.000	20.3	4	1
03/13/06	8:20 p	-17.6	-17.6	-17.6	---	---	27.0	ESE	0.45	28.7	-32.1	---	---	729.6	0.025	0.000	20.3	4	1
03/13/06	8:21 p	-17.6	-17.6	-17.6	---	---	27.8	ESE	0.46	28.7	-32.2	---	---	729.5	0.025	0.000	20.3	3	1
03/13/06	8:22 p	-17.6	-17.6	-17.6	---	---	27.8	ESE	0.46	30.4	-32.2	---	---	729.6	0.025	0.000	20.3	3	1
03/13/06	8:23 p	-17.5	-17.5	-17.6	---	---	27.0	ESE	0.45	30.4	-31.9	---	---	729.6	0.025	0.000	20.3	4	1
03/13/06	8:24 p	-17.5	-17.5	-17.5	---	---	27.8	ESE	0.46	30.4	-32.1	---	---	729.5	0.025	0.000	20.3	4	1
03/13/06	8:25 p	-17.5	-17.4	-17.5	---	---	27.0	E	0.45	30.4	-31.9	---	---	729.5	0.025	0.000	20.3	3	1
03/13/06	8:26 p	-17.4	-17.4	-17.4	---	---	28.7	ESE	0.48	31.3	-32.2	---	---	729.6	0.025	0.000	20.3	3	1
03/13/06	8:27 p	-17.4	-17.4	-17.4	---	---	28.7	ESE	0.48	30.4	-32.1	---	---	729.5	0.025	0.000	20.3	3	1
03/13/06	8:28 p	-17.4	-17.4	-17.4	---	---	27.8	ESE	0.46	30.4	-31.9	---	---	729.5	0.025	0.000	20.3	4	1
03/13/06	8:29 p	-17.3	-17.3	-17.4	---	---	27.8	ESE	0.46	29.6	-31.8	---	---	729.6	0.025	0.000	20.3	4	1
03/13/06	8:30 p	-17.3	-17.3	-17.3	---	---	27.0	ESE	0.45	28.7	-31.7	---	---	729.7	0.025	0.000	20.4	4	1
03/13/06	8:31 p	-17.3	-17.3	-17.3	---	---	27.0	ESE	0.45	28.7	-31.7	---	---	729.5	0.025	0.000	20.3	4	1
03/13/06	8:32 p	-17.3	-17.3	-17.3	---	---	28.7	ESE	0.48	30.4	-31.9	---	---	729.5	0.025	0.000	20.4	3	1
03/13/06	8:33 p	-17.3	-17.3	-17.3	---	---	28.7	ESE	0.48	29.6	-31.9	---	---	729.3	0.025	0.000	20.4	4	1
03/13/06	8:34 p	-17.3	-17.2	-17.3	---	---	28.7	ESE	0.48	31.3	-31.9	---	---	729.4	0.025	0.000	20.4	4	1
03/13/06	8:35 p	-17.2	-17.2	-17.2	---	---	27.0	E	0.45	30.4	-31.5	---	---	729.4	0.025	0.000	20.4	4	1
03/13/06	8:36 p	-17.2	-17.2	-17.2	---	---	27.0	E	0.45	28.7	-31.5	---	---	729.4	0.025	0.000	20.4	4	1
03/13/06	8:37 p	-17.2	-17.2	-17.2	---	---	27.0	ESE	0.45	28.7	-31.4	---	---	729.4	0.025	0.000	20.4	4	1
03/13/06	8:38 p	-17.2	-17.2	-17.2	---	---	27.8	ESE	0.46	29.6	-31.7	---	---	729.4	0.025	0.000	20.4	4	1
03/13/06	8:39 p	-17.2	-17.1	-17.2	---	---	27.8	E	0.46	30.4	-31.6	---	---	729.5	0.025	0.000	20.4	4	1
03/13/06	8:40 p	-17.2	-17.1	-17.2	---	---	26.1	E	0.43	31.3	-31.3	---	---	729.4	0.025	0.000	20.4	4	1
03/13/06	8:41 p	-17.1	-17.1	-17.2	---	---	28.7	ESE	0.48	32.2	-31.7	---	---	729.5	0.025	0.000	20.4	4	1
03/13/06	8:42 p	-17.1	-17.1	-17.1	---	---	25.2	ESE	0.42	27.0	-31.0	---	---	729.6	0.025	0.000	20.5	4	1
03/13/06	8:43 p	-17.1	-17.1	-17.1	---	---	26.1	ESE	0.43	30.4	-31.1	---	---	729.6	0.025	0.000	20.5	4	1
03/13/06	8:44 p	-17.1	-17.1	-17.1	---	---	26.1	ESE	0.43	30.4	-31.1	---	---	729.5	0.025	0.000	20.5	4	1
03/13/06	8:45 p	-17.0	-17.0	-17.1	---	---	28.7	E	0.48	35.7	-31.6	---	---	729.4	0.025	0.000	20.5	4	1
03/13/06	8:46 p	-17.0	-17.0	-17.1	---	---	25.2	ESE	0.42	32.2	-30.8	---	---	729.6	0.025	0.000	20.5	4	1
03/13/06	8:47 p	-17.0	-17.0	-17.1	---	---	25.2	ESE	0.42	27.8	-30.8	---	---	729.5	0.025	0.000	20.5	4	1
03/13/06	8:48 p	-17.0	-16.9	-17.0	---	---	25.2	ESE	0.42	26.1	-30.8	---	---	729.5	0.025	0.000	20.5	4	1
03/13/06	8:49 p	-16.9	-16.9	-16.9	---	---	22.6	ESE	0.38	27.8	-30.2	---	---	729.5	0.024	0.000	20.5	4	1
03/13/06	8:50 p	-16.9	-16.9	-16.9	---	---	26.1	ESE	0.43	29.6	-30.9	---	---	729.5	0.024	0.000	20.5	4	1
03/13/06	8:51 p	-16.9	-16.9	-16.9	---	---	25.2	ESE	0.42	28.7	-30.7	---	---	729.5	0.024	0.000	20.6	4	1
03/13/06	8:52 p	-16.8	-16.8	-16.9	---	---	28.7	ESE	0.48	31.3	-31.3	---	---	729.5	0.024	0.000	20.6	4	1
03/13/06	8:53 p	-16.8	-16.8	-16.9	---	---	25.2	ESE	0.42	26.1	-30.6	---	---	729.4	0.024	0.000	20.6	4	1
03/13/06	8:54 p	-16.8	-16.8	-16.8	---	---	26.1	ESE	0.43	29.6	-30.8	---	---	729.3	0.024	0.000	20.6	4	1
03/13/06	8:55 p	-16.8	-16.8	-16.8	---	---	26.1	ESE	0.43	28.7	-30.7	---	---	729.4	0.024	0.000	20.6	4	1
03/13/06	8:56 p	-16.7	-16.7	-16.8	---	---	23.5	ESE	0.39	24.3	-30.1	---	---	729.5	0.024	0.000	20.6	4	1
03/13/06	8:57 p	-16.7	-16.7	-16.7	---	---	27.0	ESE	0.45	28.7	-30.8	---	---	729.3	0.024	0.000	20.6	4	1
03/13/06	8:58 p	-16.7	-16.6	-16.7	---	---	28.7	SE	0.48	32.2	-31.1	---	---	729.5	0.024	0.000	20.6	4	1
03/13/06	8:59 p	-16.6	-16.6	-16.7	---	---	26.1	ESE	0.43	29.6	-30.5	---	---	729.3	0.024	0.000	20.6	4	1
03/13/06	9:00 p	-16.6	-16.6	-16.6	---	---	27.8	ESE	0.46	31.3	-30.8	---	---	729.5	0.024	0.000	20.6	4	1
03/13/06	9:01 p	-16.6	-16.6	-16.6	---	---	27.0	ESE	0.45	31.3	-30.6	---	---	729.6	0.024	0.000	20.6	4	1
03/13/06	9:02 p	-16.5	-16.5	-16.6	---	---	25.2	ESE	0.42	31.3	-30.2	---	---	729.4	0.024	0.000	20.6	4	1
03/13/06	9:03 p	-16.4	-16.4	-16.5	---	---	27.8	ESE	0.46	32.2	-30.6	---	---	729.4	0.024	0.000	20.6	4	1
03/13/06	9:04 p	-16.4	-16.4	-16.4	---	---	27.0	ESE	0.45	32.2	-30.4	---	---	729.4	0.024	0.000	20.6	4	1
03/13/06	9:05 p	-16.4	-16.4	-16.4	---	---	25.2	SE	0.42	27.8	-30.1	---	---	729.4	0.024	0.000	20.6	4	1
03/13/06	9:06 p	-16.4	-16.3	-16.4	---	---	26.1	ESE	0.43	28.7	-30.2	---	---	729.4	0.024	0.000	20.6	4	1
03/13/06	9:07 p	-16.3	-16.3	-16.3	---	---	26.1	SE	0.43	27.0	-30.1	---	---	729.4	0.024	0.000	20.6	4	1
03/13/06	9:08 p	-16.3	-16.3	-16.3	---	---	26.1	ESE	0.43	30.4	-30.1	---	---	729.3	0.024	0.000	20.6	4	1
03/13/06	9:09 p	-16.3	-16.2	-16.3	---	---	28.7	E	0.48	31.3	-30.6	---	---	729.1	0.024	0.000	20.6	4	1
03/13/06	9:10 p	-16.2	-16.2	-16.2	---	---	30.4	ESE	0.51	33.0	-30.8	---	---	729.3	0.024	0.000	20.6	4	1
03/13/06	9:11 p	-16.2	-16.2	-16.2	---	---	29.6	ESE	0.49	34.8	-30.6	---	---	729.3	0.024	0.000	20.6	4	1
03/13/06	9:12 p	-16.2	-16.2	-16.2	---	---	28.7	ESE	0.48	31.3	-30.4	---	---	729.3	0.024	0.000	20.6	4	1
03/13/06	9:13 p	-16.2	-16.1	-16.2	---	---	26.1	ESE	0.43	28.7	-29.9	---	---	729.4	0.024	0.000	20.6	4	1
03/13/06	9:14 p	-16.1	-16.1	-16.1	---	---	24.3	ESE	0.41	27.0	-29.4	---	---	729.5	0.024	0.000	20.6	4	1
03/13/06	9:15 p	-16.1	-16.1	-16.1	---	---	26.1	ESE	0.43	28.7	-29.8	---	---	729.4	0.024	0.000	20.7	4	1
03/13/06	9:16 p	-16.1	-16.0	-16.1	---	---	24.3	ESE	0.41	27.8	-29.4	---	---	729.4	0.024	0.000	20.7	4	1
03/13/06	9:17 p	-16.0	-16.0	-16.0	---	---	26.1	ESE	0.43	27.8	-29.7	---	---	729.4	0.024	0.000	20.7	4	1
03/13/06	9:18 p	-16.0	-15.9	-16.0	---	---	25.2	ESE	0.42	27.8	-29.5	---	---	729.4	0.024	0.000	20.7	4	1
03/13/06	9:19 p	-15.9	-15.9	-15.9	---	---	27.8	ESE	0.46	32.2	-29.9	---	---	729.4	0.024	0.000	20.7	4	1
03/13/06	9:20 p	-15.9	-15.9	-15.9	---	---	27.8	ESE	0.46	28.7	-29.9	---	---	729.3	0.024	0.000	20.7	4	1
03/13/06	9:21 p	-15.8	-15.8	-15.9	---	---	27.0	ESE	0.45	28.7	-29.6	---	---	729.3	0.024	0.000	20.7	4	1
03/13/06	9:22 p	-15.8	-15.8	-15.8	---	---	27.8	ESE	0.46	30.4	-29.8	---	---	729.4	0.024	0.000	20.7	4	1
03/13/06	9:23 p	-15.8	-15.8	-15.8	---	---	26.1	ESE	0.43	33.0	-29.4	---	---	729.3	0.024	0.000	20.7	4	1
03/13/06	9:24 p	-15.8	-15.8	-15.8	---	---	27.8	ESE	0.46	30.4	-29.7	---	---	729.4	0.024	0.000	20.7	4	1
03/13/06	9:25 p	-15.8	-15.8	-15.8	---	---	24.3	ESE	0.41	29.6	-29.0	---	---	729.5	0.024	0.000	20.7	4	1
03/13/06	9:26 p	-15.7	-15.7	-15.8	---	---	27.0	ESE	0.45	29.6	-29.4	---	---	729.5	0.024	0.000	20.7	4	1
03/13/06	9:27 p	-15.7	-15.7	-15.7	---	---	26.1	ESE	0.43	28.7	-29.2	---	---	729.5	0.024	0.000	20.7	4	1
03/13/06	9:28 p	-15.7	-15.6	-15.7	---	---	21.7	E	0.36	26.1	-28.3	---	---	729.5	0.024	0.000	20.7	4	1
03/13/06	9:29 p	-15.6	-15.6	-15.7	---	---	23.5	ESE	0.39	26.1	-28.6	---	---	729.5	0.024	0.000	20.7	4	1
03/13/06	9:30 p	-15.6	-15.6	-15.6	---	---	24.3	ESE	0.41	29.6	-28.8	---	---	729.4	0.024	0.000	20.7	4	1
03/13/06	9:31 p	-15.6	-15.6	-15.6	---	---	25.2	ESE	0.42	29.6	-28.9	---	---	729.5	0.024	0.000	20.7	4	1
03/13/06	9:32 p	-15.6	-15.5	-15.6	---	---	26.1	ESE	0.43	29.6	-29.1	---	---	729.6	0.024	0.000	20.7	4	1
03/13/06	9:33 p	-15.5	-15.4	-15.5	---	---	25.2	ESE	0.42	27.8	-28.8	---	---	729.6	0.023	0.000	20.8	4	1
03/13/06	9:34 p	-15.5	-15.4	-15.5	---	---	20.9	ESE	0.35	24.3	-27.8	---	---	729.7	0.023	0.000	20.8	4	1
03/13/06	9:35 p	-15.4	-15.4	-15.4	---	---	23.5	ESE	0.39	25.2	-28.4	---	---	729.7	0.023	0.000	20.8	4	1
03/13/06	9:37 p	-15.4	-15.3	-15.4	---	---	20.9	ESE	0.35	25.2	-27.7	---	---	729.7	0.023	0.000	20.8	4	1
03/13/06	9:38 p	-15.3	-15.3	-15.3	---	---	21.7	E	0.36	25.2	-27.8	---	---	729.7	0.023	0.000	20.8	4	1
03/13/06	9:39 p	-15.3	-15.3	-15.3	---	---	20.9	ESE	0.35	23.5	-27.6	---	---	729.6	0.023	0.000	20.8	4	1
03/13/06	9:40 p	-15.3	-15.3	-15.3	---	---	22.6	ESE	0.38	24.3	-27.9	---	---	729.7	0.023	0.000	20.8	4	1
03/13/06	9:41 p	-15.3	-15.3	-15.3	---	---	20.9	ESE	0.35	23.5	-27.6	---	---	729.6	0.023	0.000	20.8	4	1
03/13/06	9:42 p	-15.2	-15.2	-15.2	---	---	22.6	ESE	0.38	27.8	-27.9	---	---	729.6	0.023	0.000	20.8	4	1
03/13/06	9:43 p	-15.2	-15.2	-15.2	---	---	21.7	ESE	0.36	25.2	-27.7	---	---	729.7	0.023	0.000	20.8	4	1
03/13/06	9:44 p	-15.2	-15.2	-15.2	---	---	22.6	ESE	0.38	23.5	-27.8	---	---	729.7	0.023	0.000	20.9	4	1
03/13/06	9:45 p	-15.1	-15.1	-15.2	---	---	23.5	ESE	0.39	26.1	-27.9	---	---	729.6	0.023	0.000	20.9	4	1
03/13/06	9:46 p	-15.1	-15.1	-15.1	---	---	21.7	ESE	0.36	24.3	-27.6	---	---	729.5	0.023	0.000	20.9	4	1
03/13/06	9:47 p	-15.1	-15.1	-15.1	---	---	22.6	E	0.38	25.2	-27.7	---	---	729.4	0.023	0.000	20.9	4	1
03/13/06	9:48 p	-15.1	-15.1	-15.1	---	---	21.7	ESE	0.36	24.3	-27.4	---	---	729.6	0.023	0.000	20.8	4	1
03/13/06	9:49 p	-15.1	-15.0	-15.1	---	---	21.7	ESE	0.36	24.3	-27.4	---	---	729.7	0.023	0.000	20.8	4	1
03/13/06	9:50 p	-15.1	-15.1	-15.1	---	---	20.0	E	0.33	20.9	-27.1	---	---	729.6	0.023	0.000	20.8	4	1
03/13/06	9:51 p	-15.1	-15.0	-15.1	---	---	20.9	ESE	0.35	22.6	-27.3	---	---	729.6	0.023	0.000	20.8	5	1
03/13/06	9:52 p	-15.0	-15.0	-15.1	---	---	22.6	ESE	0.38	25.2	-27.6	---	---	729.6	0.023	0.000	20.8	5	1
03/13/06	9:53 p	-15.0	-15.0	-15.1	---	---	20.0	ESE	0.33	24.3	-27.0	---	---	729.4	0.023	0.000	20.8	5	1
03/13/06	9:54 p	-15.0	-15.0	-15.0	---	---	22.6	ESE	0.38	25.2	-27.6	---	---	729.5	0.023	0.000	20.8	5	1
03/13/06	9:55 p	-15.0	-14.9	-15.0	---	---	23.5	E	0.39	27.0	-27.8	---	---	729.5	0.023	0.000	20.9	5	1
03/13/06	9:56 p	-14.9	-14.9	-14.9	---	---	21.7	E	0.36	24.3	-27.3	---	---	729.6	0.023	0.000	20.9	5	1
03/13/06	9:57 p	-14.9	-14.9	-14.9	---	---	20.9	ESE	0.35	22.6	-27.1	---	---	729.6	0.023	0.000	20.9	5	1
03/13/06	9:58 p	-14.9	-14.9	-14.9	---	---	23.5	ESE	0.39	25.2	-27.7	---	---	729.5	0.023	0.000	20.9	5	1
03/13/06	9:59 p	-14.9	-14.9	-14.9	---	---	25.2	ESE	0.42	30.4	-28.0	---	---	729.5	0.023	0.000	20.9	5	1
03/13/06	10:00 p	-14.9	-14.9	-14.9	---	---	21.7	ESE	0.36	23.5	-27.2	---	---	729.4	0.023	0.000	20.9	5	1
03/13/06	10:01 p	-14.9	-14.8	-14.9	---	---	21.7	E	0.36	25.2	-27.2	---	---	729.4	0.023	0.000	20.9	5	1
03/13/06	10:02 p	-14.9	-14.9	-14.9	---	---	25.2	E	0.42	27.0	-28.0	---	---	729.5	0.023	0.000	20.9	5	1
03/13/06	10:03 p	-14.9	-14.8	-14.9	---	---	24.3	E	0.41	27.0	-27.8	---	---	729.4	0.023	0.000	20.9	5	1
03/13/06	10:04 p	-14.8	-14.8	-14.9	---	---	25.2	ESE	0.42	28.7	-27.9	---	---	729.4	0.023	0.000	20.9	5	1
03/13/06	10:05 p	-14.8	-14.8	-14.9	---	---	26.1	ESE	0.43	28.7	-28.1	---	---	729.5	0.023	0.000	20.9	5	1
03/13/06	10:06 p	-14.8	-14.8	-14.8	---	---	20.0	ESE	0.33	23.5	-26.8	---	---	729.5	0.023	0.000	20.9	5	1
03/13/06	10:07 p	-14.8	-14.8	-14.8	---	---	22.6	ESE	0.38	27.0	-27.3	---	---	729.6	0.023	0.000	20.9	5	1
03/13/06	10:08 p	-14.8	-14.8	-14.8	---	---	22.6	ESE	0.38	24.3	-27.3	---	---	729.7	0.023	0.000	20.9	5	1
03/13/06	10:09 p	-14.8	-14.8	-14.8	---	---	22.6	ESE	0.38	24.3	-27.3	---	---	729.6	0.023	0.000	20.9	5	1
03/13/06	10:10 p	-14.7	-14.7	-14.8	---	---	21.7	ESE	0.36	23.5	-27.0	---	---	729.7	0.023	0.000	20.9	5	1
03/13/06	10:11 p	-14.7	-14.7	-14.7	---	---	22.6	ESE	0.38	26.1	-27.2	---	---	729.6	0.023	0.000	20.9	5	1
03/13/06	10:12 p	-14.7	-14.7	-14.7	---	---	22.6	ESE	0.38	26.1	-27.2	---	---	729.5	0.023	0.000	21.0	5	1
03/13/06	10:13 p	-14.7	-14.7	-14.7	---	---	20.9	ESE	0.35	25.2	-26.7	---	---	729.5	0.023	0.000	21.0	5	1
03/13/06	10:14 p	-14.7	-14.6	-14.7	---	---	19.1	E	0.32	20.9	-26.3	---	---	729.7	0.023	0.000	21.0	5	1
03/13/06	10:15 p	-14.6	-14.6	-14.7	---	---	17.4	E	0.29	20.9	-25.8	---	---	729.8	0.023	0.000	20.9	5	1
03/13/06	10:16 p	-14.6	-14.6	-14.6	---	---	20.0	E	0.33	23.5	-26.4	---	---	729.7	0.023	0.000	20.9	5	1
03/13/06	10:17 p	-14.6	-14.6	-14.6	---	---	20.0	E	0.33	21.7	-26.4	---	---	730.1	0.023	0.000	20.9	5	1
03/13/06	10:18 p	-14.6	-14.6	-14.6	---	---	19.1	ESE	0.32	20.9	-26.2	---	---	729.8	0.023	0.000	20.9	5	1
03/13/06	10:19 p	-14.6	-14.6	-14.6	---	---	21.7	ESE	0.36	25.2	-26.9	---	---	729.7	0.023	0.000	20.9	5	1
03/13/06	10:20 p	-14.6	-14.5	-14.6	---	---	20.9	E	0.35	23.5	-26.6	---	---	729.8	0.023	0.000	20.9	5	1
03/13/06	10:21 p	-14.5	-14.5	-14.6	---	---	21.7	ESE	0.36	23.5	-26.7	---	---	729.8	0.023	0.000	20.9	5	1
03/13/06	10:22 p	-14.5	-14.5	-14.6	---	---	20.9	ESE	0.35	22.6	-26.5	---	---	729.8	0.023	0.000	20.8	5	1
03/13/06	10:23 p	-14.4	-14.4	-14.5	---	---	18.3	ESE	0.30	19.1	-25.8	---	---	729.9	0.023	0.000	20.8	5	1
03/13/06	10:24 p	-14.4	-14.4	-14.4	---	---	17.4	E	0.29	20.0	-25.6	---	---	729.8	0.023	0.000	20.8	5	1
03/13/06	10:25 p	-14.4	-14.4	-14.4	---	---	16.5	E	0.28	19.1	-25.3	---	---	729.8	0.023	0.000	20.8	5	1
03/13/06	10:26 p	-14.4	-14.4	-14.4	---	---	18.3	E	0.30	21.7	-25.7	---	---	729.9	0.023	0.000	20.8	5	1
03/13/06	10:27 p	-14.4	-14.3	-14.4	---	---	17.4	E	0.29	19.1	-25.5	---	---	730.0	0.023	0.000	20.8	5	1
03/13/06	10:28 p	-14.3	-14.3	-14.4	---	---	16.5	E	0.28	19.1	-25.2	---	---	729.9	0.023	0.000	20.8	5	1
03/13/06	10:29 p	-14.3	-14.3	-14.3	---	---	15.7	E	0.26	17.4	-24.9	---	---	729.9	0.023	0.000	20.8	5	1
03/13/06	10:30 p	-14.3	-14.3	-14.3	---	---	16.5	E	0.28	20.0	-25.1	---	---	729.9	0.023	0.000	20.8	5	1
03/13/06	10:31 p	-14.3	-14.3	-14.3	---	---	19.1	E	0.32	22.6	-25.8	---	---	729.8	0.023	0.000	20.8	5	1
03/13/06	10:32 p	-14.3	-14.3	-14.3	---	---	15.7	E	0.26	21.7	-24.8	---	---	730.0	0.023	0.000	20.8	5	1
03/13/06	10:33 p	-14.2	-14.2	-14.2	---	---	15.7	ENE	0.26	18.3	-24.8	---	---	729.9	0.023	0.000	20.8	5	1
03/13/06	10:34 p	-14.2	-14.2	-14.2	---	---	15.7	E	0.26	17.4	-24.8	---	---	729.9	0.023	0.000	20.8	5	1
03/13/06	10:35 p	-14.2	-14.2	-14.2	---	---	15.7	E	0.26	16.5	-24.8	---	---	729.9	0.023	0.000	20.8	5	1
03/13/06	10:36 p	-14.2	-14.2	-14.2	---	---	15.7	E	0.26	19.1	-24.7	---	---	729.8	0.023	0.000	20.8	5	1
03/13/06	10:37 p	-14.2	-14.2	-14.2	---	---	16.5	ENE	0.28	17.4	-24.9	---	---	729.9	0.023	0.000	20.8	5	1
03/13/06	10:38 p	-14.1	-14.1	-14.2	---	---	14.8	E	0.25	17.4	-24.4	---	---	730.0	0.023	0.000	20.7	5	1
03/13/06	10:39 p	-14.1	-14.1	-14.1	---	---	13.9	E	0.23	15.7	-24.1	---	---	729.9	0.023	0.000	20.7	5	1
03/13/06	10:40 p	-14.1	-14.1	-14.1	---	---	15.7	E	0.26	17.4	-24.6	---	---	729.8	0.022	0.000	20.8	5	1
03/13/06	10:41 p	-14.1	-14.1	-14.1	---	---	17.4	E	0.29	20.0	-25.1	---	---	729.8	0.022	0.000	20.8	5	1
03/13/06	10:42 p	-14.1	-14.0	-14.1	---	---	17.4	E	0.29	20.9	-25.1	---	---	729.8	0.022	0.000	20.8	5	1
03/13/06	10:43 p	-14.0	-14.0	-14.1	---	---	18.3	E	0.30	21.7	-25.2	---	---	729.7	0.022	0.000	20.8	5	1
03/13/06	10:44 p	-14.0	-13.9	-14.0	---	---	19.1	E	0.32	21.7	-25.4	---	---	729.7	0.022	0.000	20.8	5	1
03/13/06	10:45 p	-13.9	-13.9	-14.0	---	---	19.1	E	0.32	21.7	-25.4	---	---	729.6	0.022	0.000	20.8	5	1
03/13/06	10:46 p	-13.9	-13.9	-13.9	---	---	18.3	E	0.30	21.7	-25.2	---	---	729.6	0.022	0.000	20.8	4	1
03/13/06	10:47 p	-13.9	-13.9	-13.9	---	---	18.3	E	0.30	20.0	-25.1	---	---	729.6	0.022	0.000	20.8	5	1
03/13/06	10:48 p	-13.9	-13.9	-13.9	---	---	16.5	E	0.28	19.1	-24.6	---	---	729.6	0.022	0.000	20.8	5	1
03/13/06	10:49 p	-13.9	-13.8	-13.9	---	---	20.0	E	0.33	21.7	-25.5	---	---	729.5	0.022	0.000	20.7	4	1
03/13/06	10:50 p	-13.9	-13.8	-13.9	---	---	18.3	E	0.30	22.6	-25.1	---	---	729.5	0.022	0.000	20.7	4	1
03/13/06	10:51 p	-13.8	-13.8	-13.9	---	---	20.0	E	0.33	22.6	-25.4	---	---	729.5	0.022	0.000	20.7	4	1
03/13/06	10:52 p	-13.8	-13.8	-13.8	---	---	18.3	E	0.30	21.7	-25.0	---	---	729.5	0.022	0.000	20.7	4	1
03/13/06	10:53 p	-13.8	-13.8	-13.8	---	---	17.4	E	0.29	20.0	-24.7	---	---	729.5	0.022	0.000	20.7	4	1
03/13/06	10:54 p	-13.8	-13.8	-13.8	---	---	19.1	E	0.32	21.7	-25.2	---	---	729.4	0.022	0.000	20.7	4	1
03/13/06	10:55 p	-13.7	-13.7	-13.8	---	---	19.1	E	0.32	20.9	-25.1	---	---	729.4	0.022	0.000	20.7	4	1
03/13/06	10:56 p	-13.8	-13.7	-13.8	---	---	18.3	E	0.30	20.9	-24.9	---	---	729.4	0.022	0.000	20.7	4	1
03/13/06	10:57 p	-13.7	-13.7	-13.8	---	---	16.5	E	0.28	19.1	-24.4	---	---	729.4	0.022	0.000	20.7	4	1
03/13/06	10:58 p	-13.7	-13.7	-13.7	---	---	19.1	E	0.32	21.7	-25.1	---	---	729.5	0.022	0.000	20.7	4	1
03/13/06	10:59 p	-13.7	-13.7	-13.7	---	---	16.5	E	0.28	19.1	-24.4	---	---	729.5	0.022	0.000	20.7	4	1
03/13/06	11:00 p	-13.7	-13.7	-13.7	---	---	18.3	E	0.30	22.6	-24.8	---	---	729.3	0.022	0.000	20.7	4	1
03/13/06	11:01 p	-13.7	-13.7	-13.7	---	---	19.1	E	0.32	20.9	-25.1	---	---	729.4	0.022	0.000	20.7	4	1
03/13/06	11:02 p	-13.7	-13.7	-13.7	---	---	19.1	E	0.32	20.9	-25.0	---	---	729.4	0.022	0.000	20.7	4	1
03/13/06	11:03 p	-13.7	-13.6	-13.7	---	---	20.0	E	0.33	22.6	-25.2	---	---	729.3	0.022	0.000	20.7	4	1
03/13/06	11:04 p	-13.6	-13.6	-13.7	---	---	18.3	E	0.30	21.7	-24.7	---	---	729.2	0.022	0.000	20.7	4	1
03/13/06	11:05 p	-13.6	-13.5	-13.6	---	---	19.1	E	0.32	21.7	-24.8	---	---	729.4	0.022	0.000	20.7	4	1
03/13/06	11:06 p	-13.5	-13.5	-13.5	---	---	20.0	E	0.33	22.6	-25.0	---	---	729.3	0.022	0.000	20.7	4	1
03/13/06	11:07 p	-13.5	-13.4	-13.5	---	---	19.1	E	0.32	22.6	-24.8	---	---	729.4	0.022	0.000	20.7	4	1
03/13/06	11:08 p	-13.4	-13.4	-13.4	---	---	19.1	E	0.32	21.7	-24.6	---	---	729.3	0.022	0.000	20.7	4	1
03/13/06	11:09 p	-13.4	-13.4	-13.4	---	---	19.1	E	0.32	20.9	-24.6	---	---	729.3	0.022	0.000	20.7	4	1
03/13/06	11:10 p	-13.4	-13.3	-13.4	---	---	17.4	E	0.29	19.1	-24.2	---	---	729.4	0.022	0.000	20.7	4	1
03/13/06	11:11 p	-13.3	-13.3	-13.3	---	---	17.4	E	0.29	20.0	-24.1	---	---	729.4	0.022	0.000	20.7	4	1
03/13/06	11:12 p	-13.3	-13.2	-13.3	---	---	19.1	E	0.32	20.9	-24.5	---	---	729.3	0.022	0.000	20.7	4	1
03/13/06	11:13 p	-13.2	-13.2	-13.2	---	---	19.1	E	0.32	20.9	-24.4	---	---	729.3	0.022	0.000	20.7	4	1
03/13/06	11:14 p	-13.2	-13.1	-13.2	---	---	19.1	E	0.32	20.9	-24.3	---	---	729.4	0.022	0.000	20.7	4	1
03/13/06	11:15 p	-13.1	-13.1	-13.2	---	---	18.3	E	0.30	21.7	-24.1	---	---	729.5	0.022	0.000	20.7	4	1
03/13/06	11:16 p	-13.1	-13.1	-13.1	---	---	18.3	E	0.30	20.0	-24.0	---	---	729.4	0.022	0.000	20.7	4	1
03/13/06	11:17 p	-13.1	-13.0	-13.1	---	---	17.4	E	0.29	20.9	-23.7	---	---	729.4	0.022	0.000	20.7	4	1
03/13/06	11:18 p	-13.0	-12.9	-13.1	---	---	18.3	E	0.30	20.9	-23.9	---	---	729.4	0.022	0.000	20.7	4	1
03/13/06	11:19 p	-12.9	-12.8	-12.9	---	---	18.3	E	0.30	21.7	-23.8	---	---	729.4	0.022	0.000	20.7	4	1
03/13/06	11:20 p	-12.8	-12.8	-12.8	---	---	19.1	E	0.32	22.6	-23.9	---	---	729.3	0.022	0.000	20.7	4	1
03/13/06	11:21 p	-12.8	-12.8	-12.8	---	---	18.3	E	0.30	20.9	-23.6	---	---	729.2	0.022	0.000	20.7	4	1
03/13/06	11:22 p	-12.7	-12.7	-12.8	---	---	19.1	E	0.32	21.7	-23.7	---	---	729.2	0.022	0.000	20.7	4	1
03/13/06	11:23 p	-12.7	-12.6	-12.7	---	---	19.1	E	0.32	21.7	-23.7	---	---	729.3	0.022	0.000	20.7	4	1
03/13/06	11:24 p	-12.6	-12.6	-12.7	---	---	19.1	E	0.32	21.7	-23.6	---	---	729.2	0.021	0.000	20.7	4	1
03/13/06	11:25 p	-12.6	-12.6	-12.6	---	---	18.3	E	0.30	21.7	-23.3	---	---	729.1	0.021	0.000	20.7	4	1
03/13/06	11:26 p	-12.6	-12.5	-12.6	---	---	19.1	E	0.32	20.9	-23.6	---	---	729.2	0.021	0.000	20.7	4	1
03/13/06	11:27 p	-12.5	-12.4	-12.6	---	---	20.0	E	0.33	22.6	-23.7	---	---	729.2	0.021	0.000	20.7	4	1
03/13/06	11:28 p	-12.4	-12.4	-12.4	---	---	20.0	E	0.33	23.5	-23.5	---	---	729.1	0.021	0.000	20.7	4	1
03/13/06	11:29 p	-12.4	-12.4	-12.4	---	---	21.7	E	0.36	24.3	-23.9	---	---	729.1	0.021	0.000	20.7	4	1
03/13/06	11:30 p	-12.4	-12.4	-12.4	---	---	22.6	E	0.38	24.3	-24.1	---	---	729.0	0.021	0.000	20.7	4	1
03/13/06	11:31 p	-12.4	-12.3	-12.4	---	---	20.9	E	0.35	24.3	-23.7	---	---	729.1	0.021	0.000	20.7	4	1
03/13/06	11:32 p	-12.3	-12.3	-12.3	---	---	21.7	E	0.36	24.3	-23.8	---	---	729.1	0.021	0.000	20.7	4	1
03/13/06	11:33 p	-12.3	-12.3	-12.3	---	---	23.5	E	0.39	26.1	-24.1	---	---	729.0	0.021	0.000	20.7	4	1
03/13/06	11:34 p	-12.3	-12.3	-12.3	---	---	20.9	E	0.35	25.2	-23.6	---	---	729.1	0.021	0.000	20.7	4	1
03/13/06	11:35 p	-12.2	-12.2	-12.3	---	---	21.7	E	0.36	25.2	-23.7	---	---	729.0	0.021	0.000	20.7	4	1
03/13/06	11:36 p	-12.2	-12.2	-12.2	---	---	21.7	E	0.36	25.2	-23.7	---	---	729.1	0.021	0.000	20.7	4	1
03/13/06	11:37 p	-12.2	-12.1	-12.2	---	---	22.6	E	0.38	27.8	-23.8	---	---	729.0	0.021	0.000	20.7	4	1
03/13/06	11:38 p	-12.1	-12.1	-12.1	---	---	23.5	E	0.39	26.1	-23.9	---	---	729.0	0.021	0.000	20.7	4	1
03/13/06	11:39 p	-12.1	-12.1	-12.1	---	---	23.5	E	0.39	27.0	-23.9	---	---	729.1	0.021	0.000	20.7	4	1
03/13/06	11:40 p	-12.1	-12.1	-12.1	---	---	21.7	E	0.36	27.0	-23.6	---	---	729.0	0.021	0.000	20.7	4	1
03/13/06	11:41 p	-12.1	-12.1	-12.1	---	---	21.7	E	0.36	25.2	-23.6	---	---	729.1	0.021	0.000	20.7	4	1
03/13/06	11:42 p	-12.1	-12.1	-12.1	---	---	23.5	E	0.39	26.1	-23.9	---	---	729.0	0.021	0.000	20.7	4	1
03/13/06	11:43 p	-12.1	-12.1	-12.1	---	---	22.6	E	0.38	24.3	-23.7	---	---	729.0	0.021	0.000	20.7	4	1
03/13/06	11:44 p	-12.1	-12.1	-12.1	---	---	23.5	E	0.39	26.1	-23.9	---	---	729.1	0.021	0.000	20.7	4	1
03/13/06	11:45 p	-12.1	-12.1	-12.2	---	---	23.5	E	0.39	26.1	-23.9	---	---	729.1	0.021	0.000	20.7	4	1
03/13/06	11:46 p	-12.2	-12.2	-12.2	---	---	21.7	E	0.36	26.1	-23.6	---	---	729.1	0.021	0.000	20.7	4	1
03/13/06	11:47 p	-12.2	-12.2	-12.2	---	---	22.6	E	0.38	26.1	-23.9	---	---	729.1	0.021	0.000	20.7	4	1
03/13/06	11:48 p	-12.2	-12.2	-12.3	---	---	20.9	E	0.35	24.3	-23.5	---	---	728.9	0.021	0.000	20.7	4	1
03/13/06	11:49 p	-12.3	-12.3	-12.4	---	---	22.6	E	0.38	25.2	-24.0	---	---	728.9	0.021	0.000	20.7	4	1
03/13/06	11:50 p	-12.3	-12.3	-12.4	---	---	22.6	E	0.38	25.2	-24.0	---	---	729.0	0.021	0.000	20.7	4	1
03/13/06	11:51 p	-12.4	-12.4	-12.4	---	---	20.9	E	0.35	23.5	-23.7	---	---	729.0	0.021	0.000	20.7	4	1
03/13/06	11:52 p	-12.4	-12.4	-12.4	---	---	22.6	E	0.38	25.2	-24.2	---	---	729.0	0.021	0.000	20.7	4	1
03/13/06	11:53 p	-12.5	-12.4	-12.5	---	---	23.5	E	0.39	27.0	-24.4	---	---	729.1	0.021	0.000	20.7	4	1
03/13/06	11:54 p	-12.5	-12.5	-12.6	---	---	23.5	E	0.39	25.2	-24.4	---	---	728.9	0.021	0.000	20.7	4	1
03/13/06	11:55 p	-12.6	-12.6	-12.7	---	---	22.6	E	0.38	26.1	-24.4	---	---	728.8	0.021	0.000	20.7	4	1
03/13/06	11:56 p	-12.6	-12.6	-12.7	---	---	23.5	E	0.39	27.0	-24.6	---	---	728.9	0.021	0.000	20.7	4	1
03/13/06	11:57 p	-12.7	-12.7	-12.7	---	---	24.3	E	0.41	28.7	-24.8	---	---	728.9	0.022	0.000	20.7	4	1
03/13/06	11:58 p	-12.7	-12.7	-12.8	---	---	23.5	E	0.39	27.0	-24.7	---	---	728.8	0.022	0.000	20.7	4	1
03/13/06	11:59 p	-12.8	-12.8	-12.9	---	---	25.2	E	0.42	28.7	-25.2	---	---	728.8	0.022	0.000	20.7	4	1
03/14/06	12:00 a	-12.9	-12.9	-12.9	---	---	24.3	E	0.41	28.7	-25.1	---	---	728.7	0.022	0.000	20.7	4	1
03/14/06	12:01 a	-13.0	-12.9	-13.1	---	---	22.6	E	0.38	26.1	-24.9	---	---	728.8	0.022	0.000	20.7	4	1
03/14/06	12:02 a	-13.1	-13.1	-13.1	---	---	23.5	E	0.39	27.8	-25.2	---	---	728.9	0.022	0.000	20.7	4	1
03/14/06	12:03 a	-13.1	-13.1	-13.2	---	---	22.6	E	0.38	28.7	-25.1	---	---	728.9	0.022	0.000	20.7	4	1
03/14/06	12:04 a	-13.2	-13.1	-13.2	---	---	22.6	E	0.38	27.0	-25.1	---	---	728.9	0.022	0.000	20.7	4	1
03/14/06	12:05 a	-13.2	-13.2	-13.3	---	---	21.7	E	0.36	25.2	-25.0	---	---	728.9	0.022	0.000	20.7	4	1
03/14/06	12:06 a	-13.3	-13.3	-13.3	---	---	24.3	E	0.41	28.7	-25.7	---	---	728.8	0.022	0.000	20.7	4	1
03/14/06	12:07 a	-13.4	-13.3	-13.4	---	---	22.6	E	0.38	27.0	-25.4	---	---	728.8	0.022	0.000	20.7	4	1
03/14/06	12:08 a	-13.4	-13.4	-13.5	---	---	20.9	E	0.35	25.2	-25.1	---	---	728.9	0.022	0.000	20.7	4	1
03/14/06	12:09 a	-13.6	-13.5	-13.6	---	---	20.9	E	0.35	24.3	-25.3	---	---	729.0	0.022	0.000	20.7	4	1
03/14/06	12:10 a	-13.6	-13.5	-13.6	---	---	20.0	E	0.33	24.3	-25.1	---	---	728.9	0.022	0.000	20.7	4	1
03/14/06	12:11 a	-13.6	-13.6	-13.7	---	---	20.9	E	0.35	23.5	-25.3	---	---	729.0	0.022	0.000	20.7	3	1
03/14/06	12:12 a	-13.7	-13.7	-13.8	---	---	21.7	E	0.36	27.0	-25.7	---	---	728.9	0.022	0.000	20.7	4	1
03/14/06	12:13 a	-13.8	-13.7	-13.8	---	---	21.7	E	0.36	24.3	-25.8	---	---	728.9	0.022	0.000	20.7	4	1
03/14/06	12:14 a	-13.8	-13.8	-13.8	---	---	19.1	E	0.32	22.6	-25.2	---	---	729.0	0.022	0.000	20.7	3	1
03/14/06	12:15 a	-13.8	-13.8	-13.9	---	---	18.3	E	0.30	20.9	-25.0	---	---	729.0	0.022	0.000	20.7	4	1
03/14/06	12:16 a	-13.9	-13.8	-13.9	---	---	19.1	E	0.32	22.6	-25.3	---	---	729.0	0.022	0.000	20.7	4	1
03/14/06	12:17 a	-13.9	-13.9	-14.0	---	---	19.1	E	0.32	21.7	-25.4	---	---	728.9	0.022	0.000	20.7	3	1
03/14/06	12:18 a	-14.0	-14.0	-14.1	---	---	18.3	E	0.30	21.7	-25.2	---	---	728.9	0.022	0.000	20.7	3	1
03/14/06	12:19 a	-14.1	-14.1	-14.1	---	---	18.3	E	0.30	20.9	-25.3	---	---	729.0	0.022	0.000	20.7	3	1
03/14/06	12:20 a	-14.2	-14.1	-14.2	---	---	20.0	E	0.33	23.5	-25.9	---	---	728.8	0.023	0.000	20.7	3	1
03/14/06	12:21 a	-14.2	-14.2	-14.2	---	---	20.0	E	0.33	22.6	-25.9	---	---	729.0	0.023	0.000	20.7	3	1
03/14/06	12:22 a	-14.3	-14.3	-14.3	---	---	20.0	E	0.33	22.6	-26.0	---	---	729.1	0.023	0.000	20.7	3	1
03/14/06	12:23 a	-14.3	-14.3	-14.3	---	---	15.7	E	0.26	17.4	-24.9	---	---	729.0	0.023	0.000	20.7	4	1
03/14/06	12:24 a	-14.4	-14.3	-14.4	---	---	16.5	E	0.28	19.1	-25.3	---	---	729.1	0.023	0.000	20.7	4	1
03/14/06	12:25 a	-14.4	-14.4	-14.4	---	---	18.3	E	0.30	22.6	-25.8	---	---	729.1	0.023	0.000	20.7	3	1
03/14/06	12:26 a	-14.4	-14.4	-14.5	---	---	20.9	ENE	0.35	26.1	-26.4	---	---	729.0	0.023	0.000	20.7	3	1
03/14/06	12:27 a	-14.5	-14.5	-14.6	---	---	20.9	ENE	0.35	24.3	-26.5	---	---	729.0	0.023	0.000	20.7	4	1
03/14/06	12:28 a	-14.6	-14.6	-14.6	---	---	20.9	ENE	0.35	23.5	-26.6	---	---	729.0	0.023	0.000	20.7	3	1
03/14/06	12:29 a	-14.6	-14.6	-14.7	---	---	19.1	ENE	0.32	24.3	-26.2	---	---	729.1	0.023	0.000	20.7	3	1
03/14/06	12:30 a	-14.7	-14.7	-14.7	---	---	20.9	ENE	0.35	25.2	-26.7	---	---	728.9	0.023	0.000	20.7	3	1
03/14/06	12:31 a	-14.7	-14.7	-14.7	---	---	25.2	ENE	0.42	27.8	-27.7	---	---	729.0	0.023	0.000	20.7	3	1
03/14/06	12:32 a	-14.8	-14.7	-14.8	---	---	20.9	E	0.35	23.5	-26.9	---	---	729.1	0.023	0.000	20.7	3	1
03/14/06	12:33 a	-14.8	-14.8	-14.8	---	---	20.0	E	0.33	23.5	-26.7	---	---	729.2	0.023	0.000	20.7	3	1
03/14/06	12:34 a	-14.8	-14.8	-14.9	---	---	17.4	E	0.29	20.9	-26.1	---	---	729.1	0.023	0.000	20.7	3	1
03/14/06	12:35 a	-14.9	-14.9	-14.9	---	---	18.3	E	0.30	20.9	-26.4	---	---	729.1	0.023	0.000	20.7	4	1
03/14/06	12:36 a	-14.9	-14.9	-14.9	---	---	20.9	E	0.35	22.6	-27.1	---	---	729.2	0.023	0.000	20.7	3	1
03/14/06	12:37 a	-14.9	-14.9	-14.9	---	---	18.3	E	0.30	20.9	-26.4	---	---	729.3	0.023	0.000	20.7	3	1
03/14/06	12:38 a	-15.0	-14.9	-15.1	---	---	20.9	E	0.35	23.5	-27.2	---	---	729.1	0.023	0.000	20.7	3	1
03/14/06	12:39 a	-15.0	-15.0	-15.1	---	---	21.7	ENE	0.36	24.3	-27.4	---	---	729.1	0.023	0.000	20.7	3	1
03/14/06	12:40 a	-15.1	-15.1	-15.1	---	---	23.5	ENE	0.39	26.1	-27.8	---	---	728.9	0.023	0.000	20.7	3	1
03/14/06	12:41 a	-15.1	-15.1	-15.2	---	---	24.3	ENE	0.41	28.7	-28.1	---	---	728.9	0.023	0.000	20.7	3	1
03/14/06	12:42 a	-15.2	-15.2	-15.2	---	---	25.2	ENE	0.42	28.7	-28.4	---	---	728.8	0.023	0.000	20.7	3	1
03/14/06	12:43 a	-15.2	-15.2	-15.2	---	---	26.1	ENE	0.43	29.6	-28.6	---	---	728.9	0.023	0.000	20.7	3	1
03/14/06	12:44 a	-15.3	-15.2	-15.3	---	---	25.2	ENE	0.42	28.7	-28.5	---	---	728.9	0.023	0.000	20.7	3	1
03/14/06	12:45 a	-15.3	-15.3	-15.3	---	---	25.2	ENE	0.42	27.8	-28.5	---	---	729.0	0.023	0.000	20.7	3	1
03/14/06	12:46 a	-15.3	-15.3	-15.3	---	---	25.2	ENE	0.42	27.8	-28.6	---	---	729.0	0.023	0.000	20.7	3	1
03/14/06	12:47 a	-15.3	-15.3	-15.4	---	---	25.2	ENE	0.42	27.0	-28.6	---	---	729.0	0.023	0.000	20.7	3	1
03/14/06	12:48 a	-15.4	-15.4	-15.4	---	---	24.3	ENE	0.41	27.0	-28.5	---	---	728.9	0.023	0.000	20.7	3	1
03/14/06	12:49 a	-15.4	-15.4	-15.4	---	---	26.1	ENE	0.43	28.7	-28.9	---	---	729.0	0.023	0.000	20.7	3	1
03/14/06	12:50 a	-15.4	-15.4	-15.5	---	---	25.2	ENE	0.42	27.8	-28.7	---	---	728.9	0.023	0.000	20.7	4	1
03/14/06	12:51 a	-15.5	-15.5	-15.6	---	---	24.3	ENE	0.41	26.1	-28.7	---	---	729.0	0.023	0.000	20.7	3	1
03/14/06	12:52 a	-15.6	-15.6	-15.6	---	---	24.3	ENE	0.41	27.0	-28.7	---	---	728.9	0.024	0.000	20.7	3	1
03/14/06	12:53 a	-15.6	-15.6	-15.6	---	---	22.6	NE	0.38	27.8	-28.3	---	---	728.8	0.024	0.000	20.7	3	1
03/14/06	12:54 a	-15.6	-15.6	-15.7	---	---	23.5	ENE	0.39	27.0	-28.6	---	---	729.0	0.024	0.000	20.7	3	1
03/14/06	12:55 a	-15.6	-15.6	-15.7	---	---	18.3	E	0.30	23.5	-27.3	---	---	729.0	0.024	0.000	20.7	3	1
03/14/06	12:56 a	-15.7	-15.7	-15.7	---	---	25.2	ESE	0.42	28.7	-29.1	---	---	728.8	0.024	0.000	20.7	3	1
03/14/06	12:57 a	-15.7	-15.7	-15.7	---	---	27.0	ESE	0.45	30.4	-29.4	---	---	728.9	0.024	0.000	20.7	3	1
03/14/06	12:58 a	-15.7	-15.7	-15.7	---	---	23.5	E	0.39	26.1	-28.8	---	---	728.8	0.024	0.000	20.7	3	1
03/14/06	12:59 a	-15.7	-15.7	-15.8	---	---	27.0	E	0.45	30.4	-29.4	---	---	728.8	0.024	0.000	20.7	3	1
03/14/06	1:00 a	-15.8	-15.8	-15.8	---	---	27.0	ENE	0.45	30.4	-29.6	---	---	728.8	0.024	0.000	20.7	3	1
03/14/06	1:01 a	-15.8	-15.8	-15.8	---	---	20.0	E	0.33	23.5	-28.1	---	---	728.9	0.024	0.000	20.7	3	1
03/14/06	1:02 a	-15.8	-15.8	-15.9	---	---	23.5	E	0.39	29.6	-28.9	---	---	728.8	0.024	0.000	20.7	3	1
03/14/06	1:03 a	-15.9	-15.8	-15.9	---	---	24.3	ENE	0.41	27.0	-29.2	---	---	728.8	0.024	0.000	20.7	3	1
03/14/06	1:04 a	-15.9	-15.9	-15.9	---	---	22.6	E	0.38	25.2	-28.8	---	---	728.8	0.024	0.000	20.7	3	1
03/14/06	1:05 a	-15.9	-15.9	-15.9	---	---	22.6	E	0.38	27.0	-28.8	---	---	728.8	0.024	0.000	20.7	3	1
03/14/06	1:06 a	-15.9	-15.9	-16.0	---	---	22.6	ENE	0.38	29.6	-28.8	---	---	728.8	0.024	0.000	20.7	3	1
03/14/06	1:07 a	-16.0	-16.0	-16.0	---	---	24.3	ENE	0.41	25.2	-29.3	---	---	728.8	0.024	0.000	20.7	3	1
03/14/06	1:08 a	-16.0	-16.0	-16.1	---	---	23.5	ENE	0.39	29.6	-29.1	---	---	728.9	0.024	0.000	20.7	3	1
03/14/06	1:09 a	-16.1	-16.1	-16.1	---	---	23.5	ENE	0.39	25.2	-29.2	---	---	728.9	0.024	0.000	20.7	3	1
03/14/06	1:10 a	-16.1	-16.1	-16.1	---	---	25.2	ENE	0.42	28.7	-29.6	---	---	728.8	0.024	0.000	20.7	3	1
03/14/06	1:11 a	-16.1	-16.1	-16.1	---	---	27.8	ENE	0.46	30.4	-30.1	---	---	728.7	0.024	0.000	20.7	3	1
03/14/06	1:12 a	-16.1	-16.1	-16.1	---	---	24.3	ENE	0.41	27.0	-29.4	---	---	728.8	0.024	0.000	20.7	3	1
03/14/06	1:13 a	-16.1	-16.1	-16.1	---	---	23.5	ENE	0.39	27.8	-29.3	---	---	728.8	0.024	0.000	20.7	3	1
03/14/06	1:14 a	-16.2	-16.1	-16.2	---	---	24.3	ENE	0.41	27.8	-29.6	---	---	728.7	0.024	0.000	20.7	3	1
03/14/06	1:15 a	-16.2	-16.1	-16.2	---	---	23.5	ENE	0.39	27.0	-29.3	---	---	728.7	0.024	0.000	20.7	3	1
03/14/06	1:16 a	-16.2	-16.2	-16.2	---	---	22.6	E	0.38	24.3	-29.2	---	---	728.8	0.024	0.000	20.7	3	1
03/14/06	1:17 a	-16.2	-16.2	-16.2	---	---	21.7	E	0.36	25.2	-28.9	---	---	728.8	0.024	0.000	20.7	3	1
03/14/06	1:18 a	-16.2	-16.2	-16.2	---	---	23.5	E	0.39	25.2	-29.4	---	---	728.6	0.024	0.000	20.7	3	1
03/14/06	1:19 a	-16.2	-16.2	-16.3	---	---	24.3	ENE	0.41	28.7	-29.6	---	---	728.5	0.024	0.000	20.7	3	1
03/14/06	1:20 a	-16.2	-16.2	-16.3	---	---	27.0	ENE	0.45	29.6	-30.2	---	---	728.6	0.024	0.000	20.7	3	1
03/14/06	1:21 a	-16.3	-16.3	-16.3	---	---	24.3	ENE	0.41	27.8	-29.7	---	---	728.6	0.024	0.000	20.7	3	1
03/14/06	1:22 a	-16.3	-16.3	-16.3	---	---	24.3	ENE	0.41	27.0	-29.7	---	---	728.5	0.024	0.000	20.7	3	1
03/14/06	1:23 a	-16.3	-16.3	-16.3	---	---	23.5	ENE	0.39	26.1	-29.5	---	---	728.6	0.024	0.000	20.7	3	1
03/14/06	1:24 a	-16.3	-16.3	-16.3	---	---	24.3	ENE	0.41	26.1	-29.8	---	---	728.6	0.024	0.000	20.7	3	1
03/14/06	1:25 a	-16.3	-16.3	-16.3	---	---	22.6	ENE	0.38	27.0	-29.4	---	---	728.5	0.024	0.000	20.7	3	1
03/14/06	1:26 a	-16.3	-16.3	-16.3	---	---	24.3	E	0.41	28.7	-29.8	---	---	728.5	0.024	0.000	20.7	3	1
03/14/06	1:27 a	-16.3	-16.3	-16.3	---	---	25.2	E	0.42	27.0	-29.9	---	---	728.5	0.024	0.000	20.7	3	1
03/14/06	1:28 a	-16.3	-16.3	-16.4	---	---	24.3	ENE	0.41	27.8	-29.8	---	---	728.5	0.024	0.000	20.7	3	1
03/14/06	1:29 a	-16.4	-16.4	-16.4	---	---	25.2	ENE	0.42	28.7	-30.0	---	---	728.5	0.024	0.000	20.7	3	1
03/14/06	1:30 a	-16.4	-16.4	-16.4	---	---	24.3	ENE	0.41	27.0	-29.8	---	---	728.6	0.024	0.000	20.7	3	1
03/14/06	1:31 a	-16.4	-16.4	-16.4	---	---	26.1	ENE	0.43	27.8	-30.2	---	---	728.5	0.024	0.000	20.7	3	1
03/14/06	1:32 a	-16.4	-16.4	-16.4	---	---	23.5	E	0.39	27.0	-29.7	---	---	728.5	0.024	0.000	20.7	3	1
03/14/06	1:33 a	-16.4	-16.4	-16.4	---	---	23.5	E	0.39	27.0	-29.7	---	---	728.6	0.024	0.000	20.7	3	1
03/14/06	1:34 a	-16.4	-16.4	-16.4	---	---	20.9	E	0.35	23.5	-29.1	---	---	728.7	0.024	0.000	20.7	3	1
03/14/06	1:35 a	-16.4	-16.4	-16.4	---	---	22.6	E	0.38	26.1	-29.6	---	---	728.6	0.024	0.000	20.7	3	1
03/14/06	1:36 a	-16.4	-16.4	-16.4	---	---	22.6	E	0.38	26.1	-29.6	---	---	728.6	0.024	0.000	20.7	3	1
03/14/06	1:37 a	-16.4	-16.4	-16.4	---	---	24.3	E	0.41	27.8	-29.9	---	---	728.6	0.024	0.000	20.7	3	1
03/14/06	1:38 a	-16.4	-16.4	-16.4	---	---	25.2	E	0.42	29.6	-30.1	---	---	728.6	0.024	0.000	20.7	3	1
03/14/06	1:39 a	-16.4	-16.4	-16.4	---	---	26.1	ENE	0.43	28.7	-30.3	---	---	728.6	0.024	0.000	20.7	3	1
03/14/06	1:40 a	-16.4	-16.4	-16.4	---	---	25.2	ENE	0.42	27.8	-30.1	---	---	728.6	0.024	0.000	20.7	3	1
03/14/06	1:41 a	-16.4	-16.4	-16.4	---	---	23.5	ENE	0.39	27.0	-29.7	---	---	728.6	0.024	0.000	20.7	3	1
03/14/06	1:42 a	-16.4	-16.4	-16.4	---	---	25.2	ENE	0.42	27.8	-30.1	---	---	728.6	0.024	0.000	20.7	3	1
03/14/06	1:43 a	-16.4	-16.4	-16.4	---	---	24.3	ENE	0.41	26.1	-29.9	---	---	728.5	0.024	0.000	20.7	3	1
03/14/06	1:44 a	-16.4	-16.4	-16.4	---	---	23.5	ENE	0.39	26.1	-29.7	---	---	728.7	0.024	0.000	20.7	3	1
03/14/06	1:45 a	-16.4	-16.4	-16.4	---	---	22.6	ENE	0.38	25.2	-29.6	---	---	728.6	0.024	0.000	20.7	3	1
03/14/06	1:46 a	-16.4	-16.4	-16.4	---	---	24.3	ENE	0.41	29.6	-29.9	---	---	728.6	0.024	0.000	20.7	3	1
03/14/06	1:47 a	-16.4	-16.4	-16.4	---	---	26.1	ENE	0.43	29.6	-30.3	---	---	728.5	0.024	0.000	20.7	3	1
03/14/06	1:48 a	-16.4	-16.4	-16.4	---	---	20.9	ENE	0.35	27.0	-29.1	---	---	728.6	0.024	0.000	20.7	3	1
03/14/06	1:49 a	-16.4	-16.4	-16.4	---	---	25.2	E	0.42	30.4	-30.0	---	---	728.5	0.024	0.000	20.7	3	1
03/14/06	1:50 a	-16.4	-16.4	-16.4	---	---	24.3	E	0.41	27.8	-29.8	---	---	728.5	0.024	0.000	20.7	3	1
03/14/06	1:51 a	-16.4	-16.4	-16.4	---	---	24.3	E	0.41	28.7	-29.8	---	---	728.5	0.024	0.000	20.7	3	1
03/14/06	1:52 a	-16.4	-16.4	-16.4	---	---	23.5	E	0.39	26.1	-29.7	---	---	728.5	0.024	0.000	20.7	3	1
03/14/06	1:53 a	-16.3	-16.3	-16.4	---	---	27.0	E	0.45	32.2	-30.3	---	---	728.4	0.024	0.000	20.7	3	1
03/14/06	1:54 a	-16.3	-16.3	-16.3	---	---	24.3	E	0.41	27.8	-29.8	---	---	728.5	0.024	0.000	20.7	3	1
03/14/06	1:55 a	-16.3	-16.3	-16.3	---	---	26.1	ENE	0.43	28.7	-30.1	---	---	728.5	0.024	0.000	20.7	3	1
03/14/06	1:56 a	-16.3	-16.3	-16.3	---	---	26.1	ENE	0.43	28.7	-30.1	---	---	728.5	0.024	0.000	20.7	3	1
03/14/06	1:57 a	-16.3	-16.3	-16.3	---	---	27.0	ENE	0.45	28.7	-30.3	---	---	728.4	0.024	0.000	20.7	3	1
03/14/06	1:58 a	-16.3	-16.3	-16.3	---	---	24.3	E	0.41	27.8	-29.7	---	---	728.6	0.024	0.000	20.7	3	1
03/14/06	1:59 a	-16.3	-16.3	-16.3	---	---	25.2	ENE	0.42	28.7	-29.9	---	---	728.4	0.024	0.000	20.7	3	1
03/14/06	2:01 a	-16.2	-16.2	-16.3	---	---	24.3	E	0.41	28.7	-29.6	---	---	728.4	0.024	0.000	20.7	3	1
03/14/06	2:02 a	-16.2	-16.2	-16.2	---	---	24.3	E	0.41	27.8	-29.6	---	---	728.4	0.024	0.000	20.7	3	1
03/14/06	2:03 a	-16.2	-16.2	-16.2	---	---	22.6	E	0.38	28.7	-29.2	---	---	728.3	0.024	0.000	20.7	4	1
03/14/06	2:04 a	-16.2	-16.2	-16.2	---	---	25.2	ENE	0.42	27.8	-29.7	---	---	728.4	0.024	0.000	20.7	4	1
03/14/06	2:05 a	-16.2	-16.1	-16.2	---	---	26.1	ENE	0.43	27.8	-29.9	---	---	728.3	0.024	0.000	20.7	4	1
03/14/06	2:06 a	-16.1	-16.1	-16.2	---	---	24.3	ENE	0.41	27.8	-29.4	---	---	728.4	0.024	0.000	20.7	4	1
03/14/06	2:07 a	-16.1	-16.1	-16.1	---	---	27.8	ENE	0.46	28.7	-30.2	---	---	728.3	0.024	0.000	20.7	4	1
03/14/06	2:08 a	-16.1	-16.1	-16.1	---	---	25.2	ENE	0.42	28.7	-29.6	---	---	728.4	0.024	0.000	20.7	4	1
03/14/06	2:09 a	-16.0	-16.0	-16.0	---	---	21.7	E	0.36	24.3	-28.7	---	---	728.4	0.024	0.000	20.7	4	1
03/14/06	2:10 a	-16.0	-15.9	-16.0	---	---	24.3	ENE	0.41	27.8	-29.3	---	---	728.3	0.024	0.000	20.7	4	1
03/14/06	2:11 a	-15.9	-15.9	-15.9	---	---	24.3	E	0.41	27.8	-29.2	---	---	728.3	0.024	0.000	20.7	4	1
03/14/06	2:12 a	-15.9	-15.9	-15.9	---	---	20.9	E	0.35	24.3	-28.4	---	---	728.2	0.024	0.000	20.7	4	1
03/14/06	2:13 a	-15.9	-15.9	-15.9	---	---	23.5	E	0.39	27.0	-29.0	---	---	728.2	0.024	0.000	20.7	4	1
03/14/06	2:14 a	-15.9	-15.8	-15.9	---	---	24.3	E	0.41	29.6	-29.2	---	---	728.3	0.024	0.000	20.7	4	1
03/14/06	2:15 a	-15.8	-15.8	-15.9	---	---	22.6	E	0.38	29.6	-28.7	---	---	728.2	0.024	0.000	20.7	4	1
03/14/06	2:16 a	-15.8	-15.8	-15.8	---	---	22.6	E	0.38	26.1	-28.7	---	---	728.2	0.024	0.000	20.7	4	1
03/14/06	2:17 a	-15.8	-15.8	-15.8	---	---	23.5	E	0.39	26.1	-28.9	---	---	728.2	0.024	0.000	20.8	5	1
03/14/06	2:18 a	-15.8	-15.8	-15.8	---	---	25.2	ENE	0.42	30.4	-29.2	---	---	728.3	0.024	0.000	20.8	5	1
03/14/06	2:19 a	-15.8	-15.8	-15.8	---	---	26.1	E	0.43	29.6	-29.4	---	---	728.3	0.024	0.000	20.8	5	1
03/14/06	2:20 a	-15.8	-15.7	-15.8	---	---	26.1	E	0.43	29.6	-29.4	---	---	728.2	0.024	0.000	20.8	5	1
03/14/06	2:21 a	-15.7	-15.7	-15.7	---	---	21.7	E	0.36	26.1	-28.3	---	---	728.1	0.024	0.000	20.8	5	1
03/14/06	2:22 a	-15.7	-15.7	-15.7	---	---	23.5	E	0.39	27.0	-28.8	---	---	728.2	0.024	0.000	20.8	5	1
03/14/06	2:23 a	-15.7	-15.7	-15.7	---	---	23.5	E	0.39	27.8	-28.7	---	---	728.2	0.024	0.000	20.8	5	1
03/14/06	2:24 a	-15.7	-15.7	-15.7	---	---	25.2	E	0.42	27.8	-29.1	---	---	728.3	0.024	0.000	20.8	5	1
03/14/06	2:25 a	-15.7	-15.6	-15.7	---	---	26.1	ENE	0.43	29.6	-29.2	---	---	728.2	0.024	0.000	20.8	5	1
03/14/06	2:26 a	-15.6	-15.6	-15.6	---	---	26.1	E	0.43	29.6	-29.2	---	---	728.1	0.024	0.000	20.8	5	1
03/14/06	2:27 a	-15.6	-15.6	-15.6	---	---	23.5	E	0.39	27.0	-28.6	---	---	728.2	0.024	0.000	20.7	5	1
03/14/06	2:28 a	-15.6	-15.5	-15.6	---	---	23.5	E	0.39	27.8	-28.6	---	---	728.1	0.024	0.000	20.7	5	1
03/14/06	2:29 a	-15.5	-15.4	-15.5	---	---	25.2	E	0.42	28.7	-28.8	---	---	728.3	0.023	0.000	20.7	5	1
03/14/06	2:30 a	-15.4	-15.3	-15.4	---	---	24.3	E	0.41	29.6	-28.5	---	---	728.2	0.023	0.000	20.7	5	1
03/14/06	2:31 a	-15.3	-15.3	-15.3	---	---	24.3	E	0.41	29.6	-28.4	---	---	728.3	0.023	0.000	20.7	5	1
03/14/06	2:32 a	-15.3	-15.3	-15.3	---	---	21.7	E	0.36	27.0	-27.8	---	---	728.2	0.023	0.000	20.7	5	1
03/14/06	2:33 a	-15.3	-15.2	-15.3	---	---	23.5	E	0.39	27.0	-28.2	---	---	728.2	0.023	0.000	20.7	5	1
03/14/06	2:34 a	-15.2	-15.2	-15.2	---	---	24.3	ENE	0.41	27.0	-28.2	---	---	728.2	0.023	0.000	20.7	4	1
03/14/06	2:35 a	-15.1	-15.1	-15.2	---	---	23.5	ENE	0.39	27.0	-27.9	---	---	728.1	0.023	0.000	20.7	5	1
03/14/06	2:36 a	-15.1	-15.0	-15.1	---	---	25.2	ENE	0.42	27.8	-28.2	---	---	728.1	0.023	0.000	20.7	5	1
03/14/06	2:37 a	-14.9	-14.9	-15.0	---	---	21.7	E	0.36	27.8	-27.3	---	---	728.2	0.023	0.000	20.7	5	1
03/14/06	2:38 a	-14.9	-14.9	-14.9	---	---	24.3	ENE	0.41	27.0	-27.8	---	---	728.1	0.023	0.000	20.7	5	1
03/14/06	2:39 a	-14.8	-14.8	-14.8	---	---	24.3	E	0.41	27.8	-27.7	---	---	728.1	0.023	0.000	20.7	5	1
03/14/06	2:40 a	-14.8	-14.7	-14.8	---	---	24.3	E	0.41	27.0	-27.7	---	---	728.2	0.023	0.000	20.7	4	1
03/14/06	2:41 a	-14.7	-14.6	-14.7	---	---	24.3	E	0.41	28.7	-27.5	---	---	728.1	0.023	0.000	20.7	5	1
03/14/06	2:42 a	-14.6	-14.5	-14.6	---	---	23.5	E	0.39	26.1	-27.2	---	---	728.2	0.023	0.000	20.7	4	1
03/14/06	2:43 a	-14.4	-14.4	-14.5	---	---	24.3	E	0.41	27.8	-27.2	---	---	728.1	0.023	0.000	20.7	4	1
03/14/06	2:44 a	-14.3	-14.3	-14.4	---	---	25.2	E	0.42	27.8	-27.2	---	---	728.2	0.023	0.000	20.7	4	1
03/14/06	2:45 a	-14.2	-14.2	-14.3	---	---	25.2	ENE	0.42	28.7	-27.1	---	---	728.2	0.023	0.000	20.7	4	1
03/14/06	2:46 a	-14.2	-14.1	-14.2	---	---	25.2	ENE	0.42	28.7	-27.0	---	---	728.1	0.023	0.000	20.7	4	1
03/14/06	2:47 a	-14.1	-14.0	-14.1	---	---	25.2	ENE	0.42	28.7	-26.9	---	---	728.0	0.022	0.000	20.7	4	1
03/14/06	2:48 a	-13.9	-13.9	-14.0	---	---	25.2	ENE	0.42	28.7	-26.7	---	---	728.1	0.022	0.000	20.7	4	1
03/14/06	2:49 a	-13.8	-13.7	-13.9	---	---	26.1	ENE	0.43	30.4	-26.7	---	---	728.1	0.022	0.000	20.7	4	1
03/14/06	2:50 a	-13.7	-13.7	-13.8	---	---	25.2	ENE	0.42	27.8	-26.4	---	---	728.0	0.022	0.000	20.7	4	1
03/14/06	2:51 a	-13.7	-13.6	-13.7	---	---	25.2	ENE	0.42	28.7	-26.3	---	---	728.0	0.022	0.000	20.7	4	1
03/14/06	2:52 a	-13.5	-13.4	-13.6	---	---	24.3	E	0.41	27.0	-25.9	---	---	728.0	0.022	0.000	20.8	4	1
03/14/06	2:53 a	-13.4	-13.4	-13.5	---	---	26.1	ENE	0.43	28.7	-26.2	---	---	728.1	0.022	0.000	20.8	4	1
03/14/06	2:54 a	-13.4	-13.3	-13.4	---	---	24.3	E	0.41	27.0	-25.8	---	---	728.1	0.022	0.000	20.7	4	1
03/14/06	2:55 a	-13.3	-13.2	-13.3	---	---	24.3	E	0.41	27.8	-25.7	---	---	728.0	0.022	0.000	20.7	4	1
03/14/06	2:56 a	-13.2	-13.1	-13.2	---	---	22.6	E	0.38	27.0	-25.1	---	---	727.9	0.022	0.000	20.7	4	1
03/14/06	2:57 a	-13.1	-13.1	-13.1	---	---	25.2	ENE	0.42	27.8	-25.5	---	---	728.0	0.022	0.000	20.7	4	1
03/14/06	2:58 a	-12.9	-12.9	-13.0	---	---	27.0	ENE	0.45	28.7	-25.7	---	---	728.1	0.022	0.000	20.8	4	1
03/14/06	2:59 a	-12.9	-12.9	-12.9	---	---	27.0	ENE	0.45	29.6	-25.6	---	---	728.0	0.022	0.000	20.7	4	1
03/14/06	3:00 a	-12.8	-12.8	-12.8	---	---	26.1	ENE	0.43	28.7	-25.4	---	---	728.0	0.022	0.000	20.8	4	1
03/14/06	3:01 a	-12.8	-12.7	-12.8	---	---	25.2	ENE	0.42	28.7	-25.1	---	---	728.0	0.022	0.000	20.7	4	1
03/14/06	3:02 a	-12.7	-12.6	-12.7	---	---	26.1	ENE	0.43	28.7	-25.2	---	---	728.0	0.022	0.000	20.8	4	1
03/14/06	3:03 a	-12.6	-12.6	-12.7	---	---	26.1	ENE	0.43	28.7	-25.1	---	---	728.0	0.021	0.000	20.8	4	1
03/14/06	3:04 a	-12.6	-12.6	-12.6	---	---	27.0	ENE	0.45	29.6	-25.2	---	---	727.9	0.021	0.000	20.8	4	1
03/14/06	3:05 a	-12.5	-12.5	-12.5	---	---	27.8	ENE	0.46	31.3	-25.2	---	---	727.9	0.021	0.000	20.8	4	1
03/14/06	3:06 a	-12.4	-12.4	-12.5	---	---	27.0	ENE	0.45	30.4	-25.0	---	---	728.0	0.021	0.000	20.8	4	1
03/14/06	3:07 a	-12.4	-12.4	-12.4	---	---	27.8	ENE	0.46	29.6	-25.1	---	---	727.9	0.021	0.000	20.8	4	1
03/14/06	3:08 a	-12.4	-12.4	-12.4	---	---	24.3	E	0.41	27.8	-24.4	---	---	728.0	0.021	0.000	20.8	4	1
03/14/06	3:09 a	-12.3	-12.3	-12.3	---	---	27.0	ENE	0.45	29.6	-24.8	---	---	727.9	0.021	0.000	20.7	4	1
03/14/06	3:10 a	-12.2	-12.2	-12.3	---	---	24.3	ENE	0.41	27.8	-24.2	---	---	728.0	0.021	0.000	20.8	4	1
03/14/06	3:11 a	-12.2	-12.2	-12.2	---	---	27.0	ENE	0.45	29.6	-24.6	---	---	728.0	0.021	0.000	20.8	4	1
03/14/06	3:12 a	-12.2	-12.2	-12.2	---	---	27.0	ENE	0.45	28.7	-24.6	---	---	728.0	0.021	0.000	20.8	4	1
03/14/06	3:13 a	-12.1	-12.1	-12.1	---	---	27.0	ENE	0.45	29.6	-24.6	---	---	727.9	0.021	0.000	20.8	4	1
03/14/06	3:14 a	-12.0	-12.0	-12.0	---	---	27.0	E	0.45	29.6	-24.4	---	---	727.9	0.021	0.000	20.8	4	1
03/14/06	3:15 a	-12.0	-12.0	-12.1	---	---	24.3	E	0.41	28.7	-23.9	---	---	728.0	0.021	0.000	20.8	4	1
03/14/06	3:16 a	-12.0	-11.9	-12.0	---	---	25.2	ENE	0.42	28.7	-24.1	---	---	727.9	0.021	0.000	20.8	4	1
03/14/06	3:17 a	-12.0	-11.9	-12.0	---	---	26.1	E	0.43	29.6	-24.2	---	---	728.0	0.021	0.000	20.8	4	1
03/14/06	3:18 a	-12.0	-12.0	-12.1	---	---	25.2	E	0.42	29.6	-24.1	---	---	727.9	0.021	0.000	20.8	4	1
03/14/06	3:19 a	-12.1	-12.0	-12.1	---	---	24.3	ENE	0.41	27.0	-24.0	---	---	727.9	0.021	0.000	20.8	4	1
03/14/06	3:20 a	-12.1	-12.1	-12.1	---	---	24.3	E	0.41	27.8	-24.0	---	---	728.0	0.021	0.000	20.8	4	1
03/14/06	3:21 a	-12.1	-12.1	-12.1	---	---	23.5	ENE	0.39	27.0	-23.9	---	---	728.0	0.021	0.000	20.7	4	1
03/14/06	3:22 a	-12.1	-12.1	-12.1	---	---	26.1	ENE	0.43	28.7	-24.4	---	---	728.0	0.021	0.000	20.7	4	1
03/14/06	3:23 a	-12.1	-12.1	-12.1	---	---	26.1	ENE	0.43	27.8	-24.4	---	---	728.0	0.021	0.000	20.7	4	1
03/14/06	3:24 a	-12.2	-12.1	-12.2	---	---	24.3	E	0.41	27.0	-24.2	---	---	728.0	0.021	0.000	20.7	4	1
03/14/06	3:25 a	-12.2	-12.2	-12.2	---	---	25.2	ENE	0.42	27.0	-24.4	---	---	728.0	0.021	0.000	20.7	4	1
03/14/06	3:26 a	-12.2	-12.2	-12.3	---	---	26.1	ENE	0.43	28.7	-24.6	---	---	727.9	0.021	0.000	20.7	4	1
03/14/06	3:27 a	-12.3	-12.3	-12.3	---	---	24.3	ENE	0.41	27.0	-24.3	---	---	728.0	0.021	0.000	20.7	4	1
03/14/06	3:28 a	-12.3	-12.3	-12.3	---	---	23.5	ENE	0.39	26.1	-24.2	---	---	728.0	0.021	0.000	20.7	4	1
03/14/06	3:29 a	-12.4	-12.3	-12.4	---	---	25.2	ENE	0.42	27.8	-24.6	---	---	727.9	0.021	0.000	20.7	4	1
03/14/06	3:30 a	-12.4	-12.4	-12.4	---	---	26.1	ENE	0.43	28.7	-24.8	---	---	728.0	0.021	0.000	20.7	4	1
03/14/06	3:31 a	-12.4	-12.4	-12.4	---	---	25.2	ENE	0.42	27.8	-24.7	---	---	728.0	0.021	0.000	20.8	4	1
03/14/06	3:32 a	-12.5	-12.4	-12.6	---	---	23.5	ENE	0.39	28.7	-24.4	---	---	728.0	0.021	0.000	20.7	4	1
03/14/06	3:33 a	-12.6	-12.6	-12.6	---	---	25.2	ENE	0.42	27.0	-24.9	---	---	727.8	0.021	0.000	20.7	4	1
03/14/06	3:34 a	-12.6	-12.6	-12.7	---	---	23.5	ENE	0.39	26.1	-24.6	---	---	728.0	0.021	0.000	20.7	4	1
03/14/06	3:35 a	-12.7	-12.7	-12.7	---	---	23.5	ENE	0.39	25.2	-24.7	---	---	727.9	0.022	0.000	20.8	4	1
03/14/06	3:36 a	-12.8	-12.8	-12.8	---	---	21.7	ENE	0.36	25.2	-24.4	---	---	727.9	0.022	0.000	20.7	4	1
03/14/06	3:37 a	-12.9	-12.8	-12.9	---	---	25.2	ENE	0.42	26.1	-25.3	---	---	727.8	0.022	0.000	20.7	4	1
03/14/06	3:38 a	-12.9	-12.9	-13.1	---	---	24.3	ENE	0.41	27.8	-25.2	---	---	727.9	0.022	0.000	20.7	4	1
03/14/06	3:39 a	-13.1	-13.1	-13.1	---	---	24.3	ENE	0.41	27.0	-25.4	---	---	727.9	0.022	0.000	20.7	4	1
03/14/06	3:40 a	-13.2	-13.1	-13.2	---	---	26.1	ENE	0.43	27.8	-25.8	---	---	727.9	0.022	0.000	20.7	4	1
03/14/06	3:41 a	-13.2	-13.2	-13.3	---	---	25.2	ENE	0.42	27.8	-25.7	---	---	727.9	0.022	0.000	20.7	4	1
03/14/06	3:42 a	-13.3	-13.3	-13.4	---	---	25.2	ENE	0.42	27.0	-25.9	---	---	727.9	0.022	0.000	20.7	3	1
03/14/06	3:43 a	-13.4	-13.4	-13.4	---	---	25.2	ENE	0.42	27.0	-25.9	---	---	727.9	0.022	0.000	20.7	3	1
03/14/06	3:44 a	-13.4	-13.4	-13.5	---	---	25.2	ENE	0.42	27.8	-26.1	---	---	727.8	0.022	0.000	20.7	3	1
03/14/06	3:45 a	-13.5	-13.5	-13.6	---	---	25.2	ENE	0.42	27.8	-26.1	---	---	727.8	0.022	0.000	20.7	3	1
03/14/06	3:46 a	-13.6	-13.5	-13.6	---	---	26.1	ENE	0.43	27.8	-26.3	---	---	727.9	0.022	0.000	20.7	3	1
03/14/06	3:47 a	-13.6	-13.6	-13.7	---	---	25.2	ENE	0.42	27.0	-26.3	---	---	727.9	0.022	0.000	20.7	3	1
03/14/06	3:48 a	-13.7	-13.6	-13.7	---	---	24.3	ENE	0.41	26.1	-26.2	---	---	727.9	0.022	0.000	20.7	3	1
03/14/06	3:49 a	-13.7	-13.7	-13.8	---	---	23.5	ENE	0.39	27.0	-26.1	---	---	727.8	0.022	0.000	20.7	3	1
03/14/06	3:50 a	-13.8	-13.8	-13.8	---	---	23.5	ENE	0.39	25.2	-26.1	---	---	727.8	0.022	0.000	20.7	3	1
03/14/06	3:51 a	-13.9	-13.8	-13.9	---	---	23.5	ENE	0.39	26.1	-26.3	---	---	727.9	0.022	0.000	20.7	3	1
03/14/06	3:52 a	-13.9	-13.9	-13.9	---	---	23.5	ENE	0.39	25.2	-26.3	---	---	727.9	0.022	0.000	20.7	3	1
03/14/06	3:53 a	-14.0	-14.0	-14.1	---	---	22.6	ENE	0.38	25.2	-26.2	---	---	727.8	0.022	0.000	20.7	3	1
03/14/06	3:54 a	-14.1	-14.1	-14.1	---	---	23.5	ENE	0.39	25.2	-26.6	---	---	727.8	0.023	0.000	20.7	3	1
03/14/06	3:55 a	-14.2	-14.1	-14.2	---	---	24.3	ENE	0.41	26.1	-26.8	---	---	727.9	0.023	0.000	20.7	3	1
03/14/06	3:56 a	-14.2	-14.2	-14.2	---	---	23.5	ENE	0.39	25.2	-26.7	---	---	727.8	0.023	0.000	20.7	3	1
03/14/06	3:57 a	-14.2	-14.2	-14.3	---	---	23.5	ENE	0.39	25.2	-26.7	---	---	727.8	0.023	0.000	20.7	3	1
03/14/06	3:58 a	-14.3	-14.3	-14.3	---	---	24.3	ENE	0.41	25.2	-27.0	---	---	727.8	0.023	0.000	20.7	3	1
03/14/06	3:59 a	-14.3	-14.3	-14.3	---	---	23.5	ENE	0.39	26.1	-26.9	---	---	727.8	0.023	0.000	20.7	3	1
03/14/06	4:00 a	-14.4	-14.3	-14.4	---	---	23.5	ENE	0.39	25.2	-26.9	---	---	727.8	0.023	0.000	20.7	3	1
03/14/06	4:01 a	-14.4	-14.4	-14.4	---	---	22.6	ENE	0.38	25.2	-26.8	---	---	727.8	0.023	0.000	20.7	3	1
03/14/06	4:02 a	-14.4	-14.4	-14.5	---	---	23.5	ENE	0.39	24.3	-27.1	---	---	727.8	0.023	0.000	20.7	3	1
03/14/06	4:03 a	-14.5	-14.5	-14.5	---	---	23.5	ENE	0.39	24.3	-27.1	---	---	727.8	0.023	0.000	20.7	3	1
03/14/06	4:04 a	-14.5	-14.5	-14.6	---	---	23.5	ENE	0.39	26.1	-27.1	---	---	727.7	0.023	0.000	20.7	3	1
03/14/06	4:05 a	-14.6	-14.6	-14.6	---	---	22.6	ENE	0.38	24.3	-27.1	---	---	727.7	0.023	0.000	20.7	3	1
03/14/06	4:06 a	-14.7	-14.6	-14.7	---	---	23.5	ENE	0.39	25.2	-27.3	---	---	727.7	0.023	0.000	20.7	3	1
03/14/06	4:07 a	-14.7	-14.7	-14.7	---	---	24.3	ENE	0.41	25.2	-27.5	---	---	727.8	0.023	0.000	20.7	3	1
03/14/06	4:08 a	-14.7	-14.7	-14.7	---	---	23.5	ENE	0.39	25.2	-27.3	---	---	727.7	0.023	0.000	20.7	3	1
03/14/06	4:09 a	-14.7	-14.7	-14.8	---	---	23.5	ENE	0.39	24.3	-27.4	---	---	727.8	0.023	0.000	20.7	3	1
03/14/06	4:10 a	-14.8	-14.8	-14.8	---	---	21.7	ENE	0.36	24.3	-27.1	---	---	727.8	0.023	0.000	20.7	3	1
03/14/06	4:11 a	-14.8	-14.8	-14.8	---	---	22.6	ENE	0.38	25.2	-27.4	---	---	727.7	0.023	0.000	20.7	3	1
03/14/06	4:12 a	-14.8	-14.8	-14.9	---	---	23.5	ENE	0.39	25.2	-27.6	---	---	727.6	0.023	0.000	20.7	3	1
03/14/06	4:13 a	-14.9	-14.9	-14.9	---	---	23.5	ENE	0.39	25.2	-27.6	---	---	727.6	0.023	0.000	20.7	3	1
03/14/06	4:14 a	-14.9	-14.9	-14.9	---	---	24.3	ENE	0.41	25.2	-27.9	---	---	727.7	0.023	0.000	20.7	3	1
03/14/06	4:15 a	-14.9	-14.9	-15.0	---	---	23.5	ENE	0.39	25.2	-27.7	---	---	727.7	0.023	0.000	20.7	3	1
03/14/06	4:16 a	-15.0	-15.0	-15.0	---	---	22.6	ENE	0.38	25.2	-27.6	---	---	727.8	0.023	0.000	20.7	3	1
03/14/06	4:17 a	-15.0	-15.0	-15.1	---	---	21.7	ENE	0.36	23.5	-27.4	---	---	727.8	0.023	0.000	20.7	3	1
03/14/06	4:18 a	-15.1	-15.1	-15.1	---	---	22.6	ENE	0.38	24.3	-27.7	---	---	727.7	0.023	0.000	20.7	3	1
03/14/06	4:19 a	-15.1	-15.1	-15.1	---	---	21.7	ENE	0.36	24.3	-27.4	---	---	727.8	0.023	0.000	20.7	3	1
03/14/06	4:20 a	-15.1	-15.1	-15.2	---	---	22.6	ENE	0.38	24.3	-27.7	---	---	727.7	0.023	0.000	20.7	3	1
03/14/06	4:21 a	-15.2	-15.2	-15.2	---	---	23.5	ENE	0.39	24.3	-28.0	---	---	727.8	0.023	0.000	20.7	3	1
03/14/06	4:22 a	-15.2	-15.2	-15.2	---	---	22.6	ENE	0.38	24.3	-27.8	---	---	727.7	0.023	0.000	20.7	3	1
03/14/06	4:23 a	-15.2	-15.2	-15.3	---	---	21.7	ENE	0.36	23.5	-27.7	---	---	727.8	0.023	0.000	20.7	3	1
03/14/06	4:24 a	-15.3	-15.3	-15.3	---	---	22.6	ENE	0.38	23.5	-27.9	---	---	727.7	0.023	0.000	20.7	3	1
03/14/06	4:25 a	-15.3	-15.3	-15.3	---	---	21.7	ENE	0.36	23.5	-27.8	---	---	727.6	0.023	0.000	20.7	3	1
03/14/06	4:26 a	-15.3	-15.3	-15.4	---	---	22.6	ENE	0.38	24.3	-28.1	---	---	727.7	0.023	0.000	20.7	3	1
03/14/06	4:27 a	-15.4	-15.4	-15.4	---	---	21.7	ENE	0.36	24.3	-27.9	---	---	727.7	0.023	0.000	20.7	3	1
03/14/06	4:28 a	-15.4	-15.4	-15.4	---	---	21.7	ENE	0.36	23.5	-27.9	---	---	727.8	0.023	0.000	20.7	3	1
03/14/06	4:29 a	-15.4	-15.4	-15.4	---	---	20.9	ENE	0.35	22.6	-27.8	---	---	727.8	0.023	0.000	20.7	3	1
03/14/06	4:30 a	-15.4	-15.4	-15.4	---	---	20.0	ENE	0.33	21.7	-27.6	---	---	727.8	0.023	0.000	20.7	3	1
03/14/06	4:31 a	-15.5	-15.4	-15.5	---	---	20.9	ENE	0.35	21.7	-27.8	---	---	727.8	0.023	0.000	20.7	3	1
03/14/06	4:32 a	-15.6	-15.5	-15.6	---	---	21.7	ENE	0.36	23.5	-28.1	---	---	727.8	0.024	0.000	20.7	3	1
03/14/06	4:33 a	-15.6	-15.6	-15.6	---	---	20.9	ENE	0.35	23.5	-27.9	---	---	727.8	0.024	0.000	20.7	3	1
03/14/06	4:34 a	-15.6	-15.6	-15.6	---	---	21.7	ENE	0.36	23.5	-28.1	---	---	727.7	0.024	0.000	20.7	3	1
03/14/06	4:35 a	-15.6	-15.6	-15.6	---	---	20.9	ENE	0.35	22.6	-28.0	---	---	727.7	0.024	0.000	20.7	3	1
03/14/06	4:36 a	-15.6	-15.6	-15.7	---	---	21.7	ENE	0.36	23.5	-28.2	---	---	727.7	0.024	0.000	20.7	3	1
03/14/06	4:37 a	-15.7	-15.6	-15.7	---	---	20.9	ENE	0.35	21.7	-28.1	---	---	727.8	0.024	0.000	20.7	3	1
03/14/06	4:38 a	-15.7	-15.7	-15.7	---	---	20.9	ENE	0.35	22.6	-28.1	---	---	727.8	0.024	0.000	20.7	3	1
03/14/06	4:39 a	-15.7	-15.7	-15.7	---	---	20.0	ENE	0.33	21.7	-27.9	---	---	727.9	0.024	0.000	20.7	3	1
03/14/06	4:40 a	-15.7	-15.7	-15.7	---	---	18.3	ENE	0.30	20.0	-27.5	---	---	727.8	0.024	0.000	20.7	3	1
03/14/06	4:41 a	-15.7	-15.7	-15.7	---	---	19.1	ENE	0.32	20.9	-27.7	---	---	727.7	0.024	0.000	20.7	3	1
03/14/06	4:42 a	-15.8	-15.8	-15.8	---	---	20.0	ENE	0.33	21.7	-28.0	---	---	727.7	0.024	0.000	20.7	3	1
03/14/06	4:43 a	-15.8	-15.8	-15.8	---	---	20.0	ENE	0.33	21.7	-28.0	---	---	727.8	0.024	0.000	20.7	3	1
03/14/06	4:44 a	-15.8	-15.8	-15.8	---	---	20.0	ENE	0.33	21.7	-28.1	---	---	727.8	0.024	0.000	20.7	3	1
03/14/06	4:45 a	-15.8	-15.8	-15.8	---	---	20.0	ENE	0.33	20.9	-28.1	---	---	727.9	0.024	0.000	20.7	3	1
03/14/06	4:46 a	-15.8	-15.8	-15.9	---	---	19.1	ENE	0.32	20.0	-27.9	---	---	727.8	0.024	0.000	20.7	3	1
03/14/06	4:47 a	-15.9	-15.8	-15.9	---	---	18.3	ENE	0.30	20.0	-27.7	---	---	727.8	0.024	0.000	20.7	3	1
03/14/06	4:48 a	-15.9	-15.9	-15.9	---	---	19.1	ENE	0.32	20.9	-27.9	---	---	727.8	0.024	0.000	20.7	3	1
03/14/06	4:49 a	-15.9	-15.9	-15.9	---	---	19.1	ENE	0.32	20.9	-27.9	---	---	727.8	0.024	0.000	20.7	3	1
03/14/06	4:50 a	-15.9	-15.9	-15.9	---	---	19.1	ENE	0.32	20.9	-28.0	---	---	727.8	0.024	0.000	20.7	3	1
03/14/06	4:51 a	-15.9	-15.9	-15.9	---	---	18.3	ENE	0.30	20.9	-27.8	---	---	727.8	0.024	0.000	20.7	3	1
03/14/06	4:52 a	-15.9	-15.9	-15.9	---	---	18.3	ENE	0.30	19.1	-27.8	---	---	727.8	0.024	0.000	20.7	3	1
03/14/06	4:53 a	-16.0	-15.9	-16.0	---	---	18.3	ENE	0.30	20.0	-27.8	---	---	727.8	0.024	0.000	20.7	3	1
03/14/06	4:54 a	-16.0	-15.9	-16.0	---	---	17.4	NE	0.29	18.3	-27.6	---	---	727.8	0.024	0.000	20.7	3	1
03/14/06	4:55 a	-16.0	-16.0	-16.1	---	---	17.4	NE	0.29	19.1	-27.6	---	---	727.8	0.024	0.000	20.7	3	1
03/14/06	4:56 a	-16.0	-16.0	-16.1	---	---	18.3	NE	0.30	20.0	-27.8	---	---	727.8	0.024	0.000	20.7	3	1
03/14/06	4:57 a	-16.1	-16.0	-16.1	---	---	19.1	NE	0.32	20.9	-28.2	---	---	727.8	0.024	0.000	20.7	3	1
03/14/06	4:58 a	-16.1	-16.1	-16.1	---	---	19.1	NE	0.32	20.0	-28.2	---	---	727.8	0.024	0.000	20.7	3	1
03/14/06	4:59 a	-16.1	-16.1	-16.1	---	---	18.3	NE	0.30	20.0	-27.9	---	---	727.8	0.024	0.000	20.7	3	1
03/14/06	5:00 a	-16.1	-16.1	-16.1	---	---	17.4	NE	0.29	18.3	-27.7	---	---	727.8	0.024	0.000	20.7	3	1
03/14/06	5:01 a	-16.1	-16.1	-16.1	---	---	16.5	NE	0.28	17.4	-27.5	---	---	727.9	0.024	0.000	20.7	3	1
03/14/06	5:02 a	-16.1	-16.1	-16.1	---	---	16.5	ENE	0.28	19.1	-27.5	---	---	727.9	0.024	0.000	20.6	3	1
03/14/06	5:03 a	-16.1	-16.1	-16.1	---	---	17.4	ENE	0.29	19.1	-27.8	---	---	727.8	0.024	0.000	20.6	3	1
03/14/06	5:04 a	-16.1	-16.1	-16.1	---	---	17.4	ENE	0.29	18.3	-27.8	---	---	727.8	0.024	0.000	20.7	3	1
03/14/06	5:05 a	-16.1	-16.1	-16.2	---	---	18.3	ENE	0.30	19.1	-28.0	---	---	727.7	0.024	0.000	20.7	3	1
03/14/06	5:06 a	-16.2	-16.2	-16.2	---	---	17.4	ENE	0.29	18.3	-27.8	---	---	727.8	0.024	0.000	20.6	3	1
03/14/06	5:07 a	-16.2	-16.2	-16.2	---	---	18.3	ENE	0.30	19.1	-28.1	---	---	727.8	0.024	0.000	20.6	3	1
03/14/06	5:08 a	-16.2	-16.2	-16.2	---	---	17.4	ENE	0.29	18.3	-27.8	---	---	727.8	0.024	0.000	20.7	3	1
03/14/06	5:09 a	-16.2	-16.2	-16.2	---	---	14.8	ENE	0.25	16.5	-27.1	---	---	727.8	0.024	0.000	20.6	3	1
03/14/06	5:10 a	-16.2	-16.2	-16.2	---	---	15.7	ENE	0.26	17.4	-27.3	---	---	727.7	0.024	0.000	20.6	3	1
03/14/06	5:11 a	-16.2	-16.2	-16.2	---	---	16.5	ENE	0.28	18.3	-27.6	---	---	727.7	0.024	0.000	20.6	3	1
03/14/06	5:12 a	-16.2	-16.2	-16.2	---	---	15.7	ENE	0.26	17.4	-27.4	---	---	727.8	0.024	0.000	20.6	3	1
03/14/06	5:13 a	-16.2	-16.2	-16.2	---	---	13.9	ENE	0.23	15.7	-26.8	---	---	727.7	0.024	0.000	20.6	3	1
03/14/06	5:14 a	-16.2	-16.2	-16.2	---	---	15.7	ENE	0.26	18.3	-27.4	---	---	727.7	0.024	0.000	20.6	3	1
03/14/06	5:15 a	-16.2	-16.2	-16.2	---	---	13.9	ENE	0.23	15.7	-26.8	---	---	727.7	0.024	0.000	20.7	3	1
03/14/06	5:16 a	-16.2	-16.2	-16.2	---	---	14.8	ENE	0.25	16.5	-27.1	---	---	727.7	0.024	0.000	20.7	3	1
03/14/06	5:17 a	-16.2	-16.2	-16.2	---	---	15.7	ENE	0.26	18.3	-27.4	---	---	727.6	0.024	0.000	20.7	3	1
03/14/06	5:18 a	-16.2	-16.2	-16.2	---	---	16.5	ENE	0.28	17.4	-27.7	---	---	727.6	0.024	0.000	20.7	3	1
03/14/06	5:19 a	-16.2	-16.2	-16.2	---	---	15.7	ENE	0.26	17.4	-27.4	---	---	727.6	0.024	0.000	20.7	3	1
03/14/06	5:20 a	-16.2	-16.2	-16.2	---	---	16.5	ENE	0.28	18.3	-27.6	---	---	727.6	0.024	0.000	20.7	3	1
03/14/06	5:21 a	-16.2	-16.2	-16.2	---	---	16.5	ENE	0.28	19.1	-27.6	---	---	727.5	0.024	0.000	20.7	3	1
03/14/06	5:22 a	-16.1	-16.1	-16.1	---	---	15.7	ENE	0.26	17.4	-27.2	---	---	727.6	0.024	0.000	20.7	3	1
03/14/06	5:23 a	-16.1	-16.1	-16.1	---	---	15.7	ENE	0.26	17.4	-27.2	---	---	727.5	0.024	0.000	20.7	3	1
03/14/06	5:24 a	-16.1	-16.1	-16.1	---	---	17.4	ENE	0.29	19.1	-27.8	---	---	727.5	0.024	0.000	20.7	3	1
03/14/06	5:25 a	-16.1	-16.1	-16.1	---	---	17.4	ENE	0.29	20.0	-27.7	---	---	727.5	0.024	0.000	20.7	3	1
03/14/06	5:26 a	-16.1	-16.1	-16.1	---	---	16.5	ENE	0.28	18.3	-27.4	---	---	727.5	0.024	0.000	20.7	3	1
03/14/06	5:27 a	-16.1	-16.1	-16.1	---	---	17.4	ENE	0.29	19.1	-27.7	---	---	727.5	0.024	0.000	20.7	3	1
03/14/06	5:28 a	-16.1	-16.0	-16.1	---	---	17.4	ENE	0.29	20.0	-27.7	---	---	727.6	0.024	0.000	20.7	3	1
03/14/06	5:29 a	-16.0	-16.0	-16.1	---	---	15.7	ENE	0.26	18.3	-27.1	---	---	727.5	0.024	0.000	20.7	3	1
03/14/06	5:30 a	-16.0	-16.0	-16.1	---	---	17.4	ENE	0.29	18.3	-27.6	---	---	727.4	0.024	0.000	20.7	3	1
03/14/06	5:31 a	-16.0	-16.0	-16.0	---	---	19.1	ENE	0.32	21.7	-28.1	---	---	727.4	0.024	0.000	20.7	3	1
03/14/06	5:32 a	-16.0	-15.9	-16.0	---	---	16.5	NE	0.28	20.0	-27.3	---	---	727.4	0.024	0.000	20.7	3	1
03/14/06	5:33 a	-15.9	-15.9	-16.0	---	---	16.5	ENE	0.28	17.4	-27.3	---	---	727.5	0.024	0.000	20.7	3	1
03/14/06	5:34 a	-15.9	-15.9	-15.9	---	---	17.4	ENE	0.29	19.1	-27.6	---	---	727.4	0.024	0.000	20.7	3	1
03/14/06	5:35 a	-15.9	-15.9	-15.9	---	---	18.3	ENE	0.30	19.1	-27.8	---	---	727.4	0.024	0.000	20.7	3	1
03/14/06	5:36 a	-15.9	-15.9	-15.9	---	---	17.4	ENE	0.29	18.3	-27.6	---	---	727.4	0.024	0.000	20.7	3	1
03/14/06	5:37 a	-15.9	-15.9	-15.9	---	---	17.4	ENE	0.29	20.0	-27.6	---	---	727.4	0.024	0.000	20.7	3	1
03/14/06	5:38 a	-15.9	-15.9	-15.9	---	---	17.4	ENE	0.29	21.7	-27.6	---	---	727.4	0.024	0.000	20.7	3	1
03/14/06	5:39 a	-15.9	-15.9	-15.9	---	---	17.4	ENE	0.29	19.1	-27.4	---	---	727.4	0.024	0.000	20.7	3	1
03/14/06	5:40 a	-15.9	-15.9	-15.9	---	---	17.4	ENE	0.29	19.1	-27.4	---	---	727.4	0.024	0.000	20.7	3	1
03/14/06	5:41 a	-15.9	-15.9	-15.9	---	---	17.4	ENE	0.29	19.1	-27.4	---	---	727.4	0.024	0.000	20.7	3	1
03/14/06	5:42 a	-15.9	-15.8	-15.9	---	---	16.5	ENE	0.28	18.3	-27.2	---	---	727.4	0.024	0.000	20.7	3	1
03/14/06	5:43 a	-15.9	-15.8	-15.9	---	---	16.5	ENE	0.28	17.4	-27.2	---	---	727.4	0.024	0.000	20.7	3	1
03/14/06	5:44 a	-15.9	-15.8	-15.9	---	---	16.5	ENE	0.28	17.4	-27.2	---	---	727.4	0.024	0.000	20.7	3	1
03/14/06	5:45 a	-15.9	-15.8	-15.9	---	---	15.7	ENE	0.26	17.4	-26.9	---	---	727.4	0.024	0.000	20.7	3	1
03/14/06	5:46 a	-15.9	-15.9	-15.9	---	---	17.4	ENE	0.29	19.1	-27.4	---	---	727.2	0.024	0.000	20.7	3	1
03/14/06	5:47 a	-15.9	-15.9	-15.9	---	---	17.4	ENE	0.29	19.1	-27.4	---	---	727.2	0.024	0.000	20.7	3	1
03/14/06	5:48 a	-15.9	-15.9	-15.9	---	---	18.3	ENE	0.30	19.1	-27.7	---	---	727.3	0.024	0.000	20.7	3	1
03/14/06	5:49 a	-15.9	-15.9	-15.9	---	---	19.1	ENE	0.32	20.0	-27.9	---	---	727.3	0.024	0.000	20.7	3	1
03/14/06	5:50 a	-15.9	-15.8	-15.9	---	---	17.4	ENE	0.29	19.1	-27.4	---	---	727.3	0.024	0.000	20.7	3	1
03/14/06	5:51 a	-15.9	-15.8	-15.9	---	---	16.5	ENE	0.28	17.4	-27.2	---	---	727.3	0.024	0.000	20.7	3	1
03/14/06	5:52 a	-15.9	-15.8	-15.9	---	---	16.5	ENE	0.28	17.4	-27.2	---	---	727.3	0.024	0.000	20.7	3	1
03/14/06	5:53 a	-15.9	-15.9	-15.9	---	---	18.3	ENE	0.30	20.9	-27.7	---	---	727.2	0.024	0.000	20.7	3	1
03/14/06	5:54 a	-15.9	-15.9	-15.9	---	---	19.1	ENE	0.32	20.0	-27.9	---	---	727.2	0.024	0.000	20.7	3	1
03/14/06	5:55 a	-15.9	-15.9	-15.9	---	---	18.3	ENE	0.30	19.1	-27.7	---	---	727.3	0.024	0.000	20.7	3	1
03/14/06	5:56 a	-15.9	-15.9	-15.9	---	---	17.4	ENE	0.29	19.1	-27.4	---	---	727.2	0.024	0.000	20.7	3	1
03/14/06	5:57 a	-15.9	-15.9	-15.9	---	---	18.3	ENE	0.30	19.1	-27.7	---	---	727.2	0.024	0.000	20.7	3	1
03/14/06	5:58 a	-15.9	-15.9	-15.9	---	---	17.4	ENE	0.29	18.3	-27.4	---	---	727.3	0.024	0.000	20.7	3	1
03/14/06	5:59 a	-15.9	-15.9	-15.9	---	---	15.7	ENE	0.26	16.5	-26.9	---	---	727.3	0.024	0.000	20.7	3	1
03/14/06	6:00 a	-15.9	-15.9	-15.9	---	---	14.8	ENE	0.25	15.7	-26.7	---	---	727.4	0.024	0.000	20.7	3	1
03/14/06	6:01 a	-15.9	-15.9	-15.9	---	---	14.8	ENE	0.25	16.5	-26.7	---	---	727.2	0.024	0.000	20.7	3	1
03/14/06	6:02 a	-15.9	-15.9	-15.9	---	---	16.5	ENE	0.28	17.4	-27.2	---	---	727.2	0.024	0.000	20.7	3	1
03/14/06	6:03 a	-15.9	-15.9	-15.9	---	---	19.1	NE	0.32	21.7	-27.9	---	---	727.0	0.024	0.000	20.7	3	1
03/14/06	6:04 a	-15.9	-15.9	-15.9	---	---	17.4	ENE	0.29	22.6	-27.6	---	---	727.2	0.024	0.000	20.7	3	1
03/14/06	6:05 a	-15.9	-15.9	-15.9	---	---	16.5	NE	0.28	17.4	-27.2	---	---	727.2	0.024	0.000	20.7	3	1
03/14/06	6:06 a	-15.9	-15.9	-15.9	---	---	14.8	NE	0.25	15.7	-26.7	---	---	727.2	0.024	0.000	20.7	3	1
03/14/06	6:07 a	-15.9	-15.9	-15.9	---	---	16.5	NE	0.28	17.4	-27.2	---	---	727.1	0.024	0.000	20.7	3	1
03/14/06	6:08 a	-15.9	-15.9	-15.9	---	---	14.8	NE	0.25	16.5	-26.7	---	---	727.2	0.024	0.000	20.7	3	1
03/14/06	6:09 a	-15.9	-15.9	-15.9	---	---	15.7	NE	0.26	16.5	-26.9	---	---	727.1	0.024	0.000	20.7	3	1
03/14/06	6:10 a	-15.9	-15.9	-15.9	---	---	15.7	ENE	0.26	16.5	-27.0	---	---	727.1	0.024	0.000	20.7	3	1
03/14/06	6:11 a	-15.9	-15.9	-15.9	---	---	15.7	NE	0.26	17.4	-26.9	---	---	727.1	0.024	0.000	20.7	3	1
03/14/06	6:12 a	-15.9	-15.9	-15.9	---	---	16.5	NE	0.28	18.3	-27.2	---	---	727.2	0.024	0.000	20.7	3	1
03/14/06	6:13 a	-15.9	-15.9	-15.9	---	---	15.7	NE	0.26	16.5	-27.0	---	---	727.2	0.024	0.000	20.7	3	1
03/14/06	6:14 a	-15.9	-15.9	-15.9	---	---	13.9	NE	0.23	15.7	-26.4	---	---	727.1	0.024	0.000	20.7	3	1
03/14/06	6:15 a	-15.9	-15.9	-15.9	---	---	15.7	NE	0.26	16.5	-27.0	---	---	727.1	0.024	0.000	20.7	3	1
03/14/06	6:16 a	-15.9	-15.9	-15.9	---	---	13.9	NE	0.23	15.7	-26.4	---	---	727.2	0.024	0.000	20.8	3	1
03/14/06	6:17 a	-15.9	-15.9	-15.9	---	---	14.8	NE	0.25	17.4	-26.7	---	---	727.2	0.024	0.000	20.7	3	1
03/14/06	6:18 a	-15.9	-15.9	-15.9	---	---	13.9	NE	0.23	15.7	-26.4	---	---	727.2	0.024	0.000	20.7	3	1
03/14/06	6:19 a	-15.9	-15.9	-15.9	---	---	13.9	NE	0.23	15.7	-26.4	---	---	727.1	0.024	0.000	20.7	3	1
03/14/06	6:20 a	-15.9	-15.9	-15.9	---	---	13.9	NE	0.23	14.8	-26.4	---	---	727.1	0.024	0.000	20.8	3	1
03/14/06	6:21 a	-15.9	-15.9	-15.9	---	---	12.2	NE	0.20	13.9	-25.8	---	---	727.1	0.024	0.000	20.8	3	1
03/14/06	6:22 a	-15.9	-15.9	-15.9	---	---	13.9	NE	0.23	14.8	-26.4	---	---	727.1	0.024	0.000	20.8	3	1
03/14/06	6:23 a	-15.9	-15.9	-15.9	---	---	14.8	NE	0.25	17.4	-26.7	---	---	727.1	0.024	0.000	20.8	3	1
03/14/06	6:24 a	-15.9	-15.9	-16.0	---	---	15.7	NE	0.26	16.5	-27.0	---	---	727.1	0.024	0.000	20.8	3	1
03/14/06	6:25 a	-15.9	-15.9	-16.0	---	---	13.9	NE	0.23	15.7	-26.4	---	---	727.0	0.024	0.000	20.8	3	1
03/14/06	6:26 a	-16.0	-15.9	-16.0	---	---	15.7	NE	0.26	16.5	-27.1	---	---	727.0	0.024	0.000	20.8	3	1
03/14/06	6:27 a	-16.0	-16.0	-16.0	---	---	14.8	NE	0.25	16.5	-26.8	---	---	727.1	0.024	0.000	20.8	3	1
03/14/06	6:28 a	-16.0	-15.9	-16.0	---	---	14.8	NE	0.25	15.7	-26.8	---	---	727.1	0.024	0.000	20.7	3	1
03/14/06	6:29 a	-16.0	-15.9	-16.0	---	---	13.9	NE	0.23	14.8	-26.5	---	---	727.0	0.024	0.000	20.7	3	1
03/14/06	6:30 a	-16.0	-16.0	-16.1	---	---	13.9	NE	0.23	15.7	-26.5	---	---	726.9	0.024	0.000	20.7	3	1
03/14/06	6:31 a	-16.0	-16.0	-16.1	---	---	13.9	NE	0.23	15.7	-26.5	---	---	726.9	0.024	0.000	20.7	3	1
03/14/06	6:32 a	-16.0	-16.0	-16.1	---	---	14.8	NE	0.25	16.5	-26.8	---	---	727.1	0.024	0.000	20.8	3	1
03/14/06	6:33 a	-16.1	-16.0	-16.1	---	---	14.8	NE	0.25	15.7	-26.9	---	---	726.9	0.024	0.000	20.8	3	1
03/14/06	6:34 a	-16.1	-16.1	-16.1	---	---	14.8	NE	0.25	15.7	-26.9	---	---	727.0	0.024	0.000	20.7	3	1
03/14/06	6:35 a	-16.1	-16.1	-16.1	---	---	13.0	NE	0.22	13.9	-26.3	---	---	726.9	0.024	0.000	20.8	3	1
03/14/06	6:36 a	-16.1	-16.1	-16.1	---	---	13.0	NE	0.22	13.9	-26.3	---	---	726.9	0.024	0.000	20.7	3	1
03/14/06	6:37 a	-16.1	-16.1	-16.1	---	---	13.9	NE	0.23	15.7	-26.6	---	---	726.8	0.024	0.000	20.7	3	1
03/14/06	6:38 a	-16.1	-16.1	-16.1	---	---	13.9	NE	0.23	14.8	-26.6	---	---	726.9	0.024	0.000	20.7	3	1
03/14/06	6:39 a	-16.1	-16.1	-16.1	---	---	12.2	NE	0.20	13.0	-26.1	---	---	726.9	0.024	0.000	20.7	3	1
03/14/06	6:40 a	-16.1	-16.1	-16.1	---	---	12.2	NE	0.20	13.0	-26.1	---	---	726.9	0.024	0.000	20.7	3	1
03/14/06	6:41 a	-16.1	-16.1	-16.1	---	---	12.2	NE	0.20	13.0	-26.1	---	---	726.9	0.024	0.000	20.7	3	1
03/14/06	6:42 a	-16.1	-16.1	-16.1	---	---	9.6	NE	0.16	12.2	-24.9	---	---	726.8	0.024	0.000	20.7	3	1
03/14/06	6:43 a	-16.1	-16.1	-16.1	---	---	12.2	NE	0.20	13.0	-26.1	---	---	726.9	0.024	0.000	20.7	3	1
03/14/06	6:44 a	-16.1	-16.1	-16.1	---	---	9.6	NE	0.16	13.0	-24.9	---	---	726.9	0.024	0.000	20.7	3	1
03/14/06	6:45 a	-16.1	-16.1	-16.1	---	---	13.9	NE	0.23	15.7	-26.7	---	---	727.0	0.024	0.000	20.7	3	1
03/14/06	6:46 a	-16.1	-16.1	-16.1	---	---	13.0	NE	0.22	13.9	-26.4	---	---	726.9	0.024	0.000	20.7	3	1
03/14/06	6:47 a	-16.2	-16.1	-16.2	---	---	12.2	NE	0.20	13.0	-26.1	---	---	727.0	0.024	0.000	20.7	3	1
03/14/06	6:48 a	-16.2	-16.2	-16.2	---	---	10.4	NE	0.17	12.2	-25.4	---	---	727.0	0.024	0.000	20.7	3	1
03/14/06	6:49 a	-16.2	-16.2	-16.2	---	---	13.0	ENE	0.22	17.4	-26.4	---	---	726.8	0.024	0.000	20.7	3	1
03/14/06	6:50 a	-16.2	-16.2	-16.2	---	---	17.4	ENE	0.29	19.1	-27.8	---	---	726.9	0.024	0.000	20.7	3	1
03/14/06	6:51 a	-16.2	-16.2	-16.2	---	---	17.4	ENE	0.29	19.1	-27.9	---	---	726.8	0.024	0.000	20.7	3	1
03/14/06	6:52 a	-16.2	-16.2	-16.2	---	---	15.7	ENE	0.26	17.4	-27.4	---	---	727.0	0.024	0.000	20.7	3	1
03/14/06	6:53 a	-16.2	-16.2	-16.3	---	---	15.7	ENE	0.26	17.4	-27.4	---	---	726.9	0.024	0.000	20.7	3	1
03/14/06	6:54 a	-16.3	-16.2	-16.3	---	---	14.8	ENE	0.25	15.7	-27.2	---	---	727.0	0.024	0.000	20.7	3	1
03/14/06	6:55 a	-16.3	-16.3	-16.3	---	---	16.5	ENE	0.28	17.4	-27.7	---	---	726.9	0.024	0.000	20.7	3	1
03/14/06	6:56 a	-16.3	-16.3	-16.3	---	---	16.5	ENE	0.28	18.3	-27.8	---	---	727.0	0.024	0.000	20.7	3	1
03/14/06	6:57 a	-16.3	-16.3	-16.3	---	---	15.7	ENE	0.26	17.4	-27.5	---	---	727.0	0.024	0.000	20.7	3	1
03/14/06	6:58 a	-16.3	-16.3	-16.4	---	---	14.8	ENE	0.25	15.7	-27.2	---	---	727.0	0.024	0.000	20.7	3	1
03/14/06	6:59 a	-16.4	-16.4	-16.4	---	---	13.9	ENE	0.23	14.8	-27.1	---	---	727.0	0.024	0.000	20.7	3	1
03/14/06	7:00 a	-16.4	-16.4	-16.4	---	---	15.7	ENE	0.26	17.4	-27.6	---	---	727.0	0.024	0.000	20.7	3	1
03/14/06	7:01 a	-16.4	-16.4	-16.4	---	---	14.8	NE	0.25	17.4	-27.4	---	---	727.0	0.024	0.000	20.7	3	1
03/14/06	7:02 a	-16.4	-16.4	-16.5	---	---	15.7	NE	0.26	18.3	-27.7	---	---	726.9	0.024	0.000	20.7	3	1
03/14/06	7:03 a	-16.5	-16.5	-16.5	---	---	15.7	NE	0.26	17.4	-27.7	---	---	727.0	0.024	0.000	20.7	3	1
03/14/06	7:04 a	-16.6	-16.5	-16.6	---	---	16.5	ENE	0.28	18.3	-28.1	---	---	727.0	0.024	0.000	20.7	3	1
03/14/06	7:05 a	-16.6	-16.6	-16.6	---	---	16.5	ENE	0.28	17.4	-28.1	---	---	727.0	0.024	0.000	20.7	3	1
03/14/06	7:06 a	-16.6	-16.6	-16.6	---	---	16.5	ENE	0.28	17.4	-28.1	---	---	727.0	0.024	0.000	20.7	3	1
03/14/06	7:07 a	-16.6	-16.6	-16.7	---	---	17.4	NE	0.29	18.3	-28.4	---	---	727.0	0.024	0.000	20.7	3	1
03/14/06	7:08 a	-16.7	-16.7	-16.7	---	---	16.5	NE	0.28	17.4	-28.2	---	---	726.9	0.024	0.000	20.7	3	1
03/14/06	7:09 a	-16.7	-16.7	-16.7	---	---	15.7	NE	0.26	17.4	-27.9	---	---	727.0	0.024	0.000	20.7	3	1
03/14/06	7:10 a	-16.7	-16.7	-16.7	---	---	15.7	NE	0.26	17.4	-28.1	---	---	726.9	0.024	0.000	20.7	3	1
03/14/06	7:11 a	-16.8	-16.8	-16.8	---	---	16.5	NE	0.28	17.4	-28.4	---	---	726.9	0.024	0.000	20.7	3	1
03/14/06	7:12 a	-16.8	-16.8	-16.8	---	---	15.7	NE	0.26	17.4	-28.1	---	---	726.9	0.024	0.000	20.7	3	1
03/14/06	7:13 a	-16.8	-16.8	-16.8	---	---	15.7	ENE	0.26	16.5	-28.2	---	---	726.9	0.024	0.000	20.7	3	1
03/14/06	7:14 a	-16.9	-16.8	-16.9	---	---	15.7	ENE	0.26	17.4	-28.2	---	---	726.8	0.024	0.000	20.7	3	1
03/14/06	7:15 a	-16.9	-16.9	-16.9	---	---	16.5	ENE	0.28	17.4	-28.5	---	---	726.9	0.024	0.000	20.7	3	1
03/14/06	7:16 a	-16.9	-16.9	-16.9	---	---	16.5	ENE	0.28	17.4	-28.6	---	---	726.9	0.024	0.000	20.7	3	1
03/14/06	7:17 a	-16.9	-16.9	-17.0	---	---	17.4	ENE	0.29	18.3	-28.8	---	---	726.9	0.024	0.000	20.7	3	1
03/14/06	7:18 a	-17.0	-17.0	-17.0	---	---	16.5	ENE	0.28	17.4	-28.7	---	---	726.9	0.025	0.000	20.7	3	1
03/14/06	7:19 a	-17.0	-17.0	-17.0	---	---	15.7	ENE	0.26	16.5	-28.4	---	---	726.9	0.025	0.000	20.7	3	1
03/14/06	7:20 a	-17.1	-17.0	-17.1	---	---	15.7	ENE	0.26	18.3	-28.4	---	---	726.9	0.025	0.000	20.7	3	1
03/14/06	7:21 a	-17.1	-17.1	-17.1	---	---	16.5	ENE	0.28	18.3	-28.7	---	---	726.9	0.025	0.000	20.7	3	1
03/14/06	7:22 a	-17.1	-17.1	-17.1	---	---	16.5	ENE	0.28	17.4	-28.8	---	---	726.9	0.025	0.000	20.7	3	1
03/14/06	7:23 a	-17.1	-17.1	-17.2	---	---	15.7	ENE	0.26	16.5	-28.6	---	---	726.9	0.025	0.000	20.7	3	1
03/14/06	7:24 a	-17.2	-17.2	-17.2	---	---	15.7	ENE	0.26	18.3	-28.6	---	---	726.8	0.025	0.000	20.7	3	1
03/14/06	7:25 a	-17.2	-17.2	-17.2	---	---	15.7	ENE	0.26	17.4	-28.6	---	---	726.8	0.025	0.000	20.7	3	1
03/14/06	7:26 a	-17.2	-17.2	-17.2	---	---	16.5	ENE	0.28	17.4	-28.9	---	---	726.8	0.025	0.000	20.7	3	1
03/14/06	7:27 a	-17.2	-17.2	-17.2	---	---	16.5	ENE	0.28	17.4	-28.9	---	---	726.8	0.025	0.000	20.7	3	1
03/14/06	7:28 a	-17.3	-17.3	-17.3	---	---	16.5	ENE	0.28	18.3	-29.0	---	---	726.8	0.025	0.000	20.7	3	1
03/14/06	7:29 a	-17.3	-17.3	-17.3	---	---	17.4	ENE	0.29	18.3	-29.3	---	---	726.8	0.025	0.000	20.7	3	1
03/14/06	7:30 a	-17.3	-17.3	-17.3	---	---	17.4	ENE	0.29	18.3	-29.3	---	---	726.9	0.025	0.000	20.7	3	1
03/14/06	7:31 a	-17.3	-17.3	-17.3	---	---	16.5	ENE	0.28	18.3	-29.0	---	---	726.8	0.025	0.000	20.7	3	1
03/14/06	7:32 a	-17.3	-17.3	-17.4	---	---	16.5	ENE	0.28	18.3	-29.1	---	---	726.9	0.025	0.000	20.7	3	1
03/14/06	7:33 a	-17.4	-17.4	-17.4	---	---	15.7	ENE	0.26	16.5	-28.9	---	---	726.9	0.025	0.000	20.7	3	1
03/14/06	7:34 a	-17.4	-17.4	-17.4	---	---	14.8	ENE	0.25	17.4	-28.6	---	---	726.9	0.025	0.000	20.7	3	1
03/14/06	7:35 a	-17.4	-17.4	-17.4	---	---	15.7	ENE	0.26	16.5	-28.9	---	---	726.8	0.025	0.000	20.7	3	1
03/14/06	7:36 a	-17.4	-17.4	-17.5	---	---	16.5	ENE	0.28	18.3	-29.2	---	---	726.8	0.025	0.000	20.7	3	1
03/14/06	7:37 a	-17.4	-17.4	-17.5	---	---	16.5	ENE	0.28	18.3	-29.2	---	---	726.8	0.025	0.000	20.7	3	1
03/14/06	7:38 a	-17.5	-17.5	-17.5	---	---	16.5	ENE	0.28	18.3	-29.3	---	---	726.8	0.025	0.000	20.7	3	1
03/14/06	7:39 a	-17.5	-17.5	-17.5	---	---	16.5	ENE	0.28	17.4	-29.3	---	---	726.7	0.025	0.000	20.7	3	1
03/14/06	7:40 a	-17.5	-17.5	-17.6	---	---	16.5	ENE	0.28	18.3	-29.3	---	---	726.8	0.025	0.000	20.7	3	1
03/14/06	7:41 a	-17.6	-17.5	-17.6	---	---	16.5	ENE	0.28	18.3	-29.4	---	---	726.8	0.025	0.000	20.7	3	1
03/14/06	7:42 a	-17.6	-17.5	-17.6	---	---	15.7	ENE	0.26	17.4	-29.1	---	---	726.7	0.025	0.000	20.7	3	1
03/14/06	7:43 a	-17.6	-17.6	-17.6	---	---	15.7	ENE	0.26	17.4	-29.1	---	---	726.7	0.025	0.000	20.7	3	1
03/14/06	7:44 a	-17.6	-17.6	-17.6	---	---	16.5	ENE	0.28	18.3	-29.4	---	---	726.7	0.025	0.000	20.7	3	1
03/14/06	7:45 a	-17.6	-17.6	-17.6	---	---	16.5	ENE	0.28	18.3	-29.4	---	---	726.6	0.025	0.000	20.7	3	1
03/14/06	7:46 a	-17.6	-17.6	-17.7	---	---	16.5	ENE	0.28	17.4	-29.4	---	---	726.7	0.025	0.000	20.7	3	1
03/14/06	7:47 a	-17.7	-17.6	-17.7	---	---	15.7	ENE	0.26	17.4	-29.3	---	---	726.8	0.025	0.000	20.7	3	1
03/14/06	7:48 a	-17.6	-17.6	-17.7	---	---	15.7	ENE	0.26	17.4	-29.2	---	---	726.7	0.025	0.000	20.7	3	1
03/14/06	7:49 a	-17.7	-17.6	-17.7	---	---	17.4	ENE	0.29	19.1	-29.8	---	---	726.7	0.025	0.000	20.7	3	1
03/14/06	7:50 a	-17.7	-17.7	-17.7	---	---	16.5	ENE	0.28	19.1	-29.6	---	---	726.7	0.025	0.000	20.7	3	1
03/14/06	7:51 a	-17.7	-17.7	-17.7	---	---	15.7	ENE	0.26	17.4	-29.3	---	---	726.7	0.025	0.000	20.7	3	1
03/14/06	7:52 a	-17.7	-17.7	-17.7	---	---	17.4	ENE	0.29	20.0	-29.9	---	---	726.6	0.025	0.000	20.7	3	1
03/14/06	7:53 a	-17.7	-17.7	-17.8	---	---	18.3	ENE	0.30	20.0	-30.1	---	---	726.6	0.025	0.000	20.7	3	1
03/14/06	7:54 a	-17.7	-17.7	-17.7	---	---	16.5	ENE	0.28	17.4	-29.6	---	---	726.7	0.025	0.000	20.7	3	1
03/14/06	7:55 a	-17.7	-17.7	-17.7	---	---	14.8	ENE	0.25	17.4	-29.1	---	---	726.8	0.025	0.000	20.7	3	1
03/14/06	7:56 a	-17.7	-17.7	-17.7	---	---	13.9	ENE	0.23	16.5	-28.7	---	---	726.7	0.025	0.000	20.7	3	1
03/14/06	7:57 a	-17.7	-17.7	-17.8	---	---	14.8	ENE	0.25	17.4	-29.1	---	---	726.7	0.025	0.000	20.7	3	1
03/14/06	7:58 a	-17.8	-17.7	-17.8	---	---	16.5	ENE	0.28	19.1	-29.7	---	---	726.7	0.025	0.000	20.7	3	1
03/14/06	7:59 a	-17.7	-17.7	-17.8	---	---	18.3	ENE	0.30	20.9	-30.1	---	---	726.5	0.025	0.000	20.7	3	1
03/14/06	8:00 a	-17.8	-17.7	-17.8	---	---	18.3	ENE	0.30	21.7	-30.2	---	---	726.7	0.025	0.000	20.7	3	1
03/14/06	8:01 a	-17.8	-17.8	-17.8	---	---	16.5	ENE	0.28	18.3	-29.7	---	---	726.7	0.025	0.000	20.7	3	1
03/14/06	8:02 a	-17.8	-17.8	-17.8	---	---	15.7	ENE	0.26	18.3	-29.4	---	---	726.7	0.025	0.000	20.7	3	1
03/14/06	8:03 a	-17.8	-17.8	-17.8	---	---	15.7	ENE	0.26	18.3	-29.4	---	---	726.7	0.025	0.000	20.7	3	1
03/14/06	8:04 a	-17.8	-17.8	-17.8	---	---	17.4	ENE	0.29	19.1	-30.0	---	---	726.7	0.025	0.000	20.7	3	1
03/14/06	8:05 a	-17.8	-17.8	-17.8	---	---	16.5	ENE	0.28	18.3	-29.8	---	---	726.6	0.025	0.000	20.7	3	1
03/14/06	8:06 a	-17.8	-17.8	-17.8	---	---	17.4	ENE	0.29	19.1	-30.0	---	---	726.6	0.025	0.000	20.7	3	1
03/14/06	8:07 a	-17.8	-17.8	-17.8	---	---	19.1	ENE	0.32	20.9	-30.5	---	---	726.6	0.025	0.000	20.7	3	1
03/14/06	8:08 a	-17.8	-17.8	-17.8	---	---	18.3	ENE	0.30	19.1	-30.3	---	---	726.6	0.025	0.000	20.7	3	1
03/14/06	8:09 a	-17.8	-17.8	-17.8	---	---	18.3	ENE	0.30	20.9	-30.3	---	---	726.6	0.025	0.000	20.7	3	1
03/14/06	8:10 a	-17.8	-17.8	-17.9	---	---	18.3	ENE	0.30	20.9	-30.3	---	---	726.6	0.025	0.000	20.7	3	1
03/14/06	8:11 a	-17.8	-17.8	-17.9	---	---	16.5	ENE	0.28	20.0	-29.8	---	---	726.7	0.025	0.000	20.7	3	1
03/14/06	8:12 a	-17.8	-17.8	-17.9	---	---	15.7	ENE	0.26	18.3	-29.5	---	---	726.6	0.025	0.000	20.7	3	1
03/14/06	8:13 a	-17.8	-17.8	-17.9	---	---	14.8	E	0.25	17.4	-29.2	---	---	726.6	0.025	0.000	20.7	3	1
03/14/06	8:14 a	-17.9	-17.9	-17.9	---	---	16.5	E	0.28	18.3	-29.8	---	---	726.7	0.025	0.000	20.7	3	1
03/14/06	8:15 a	-17.9	-17.9	-17.9	---	---	14.8	E	0.25	18.3	-29.3	---	---	726.7	0.025	0.000	20.7	3	1
03/14/06	8:16 a	-17.9	-17.9	-17.9	---	---	16.5	E	0.28	19.1	-29.8	---	---	726.7	0.025	0.000	20.7	3	1
03/14/06	8:17 a	-17.9	-17.9	-17.9	---	---	15.7	E	0.26	19.1	-29.6	---	---	726.7	0.025	0.000	20.7	3	1
03/14/06	8:18 a	-17.9	-17.9	-17.9	---	---	16.5	E	0.28	19.1	-29.8	---	---	726.6	0.025	0.000	20.7	3	1
03/14/06	8:19 a	-17.9	-17.9	-17.9	---	---	16.5	ENE	0.28	20.0	-29.8	---	---	726.6	0.025	0.000	20.7	3	1
03/14/06	8:20 a	-17.9	-17.9	-17.9	---	---	18.3	E	0.30	20.0	-30.3	---	---	726.6	0.025	0.000	20.7	3	1
03/14/06	8:21 a	-17.9	-17.9	-17.9	---	---	16.5	E	0.28	18.3	-29.8	---	---	726.6	0.025	0.000	20.7	3	1
03/14/06	8:22 a	-17.9	-17.9	-17.9	---	---	17.4	ENE	0.29	20.0	-30.2	---	---	726.6	0.025	0.000	20.7	3	1
03/14/06	8:23 a	-17.9	-17.9	-17.9	---	---	17.4	ENE	0.29	20.0	-30.2	---	---	726.6	0.025	0.000	20.7	3	1
03/14/06	8:24 a	-17.9	-17.9	-17.9	---	---	15.7	E	0.26	19.1	-29.6	---	---	726.6	0.025	0.000	20.7	3	1
03/14/06	8:25 a	-17.9	-17.9	-17.9	---	---	16.5	E	0.28	19.1	-29.9	---	---	726.5	0.025	0.000	20.7	3	1
03/14/06	8:26 a	-17.9	-17.9	-17.9	---	---	17.4	ENE	0.29	19.1	-30.2	---	---	726.6	0.025	0.000	20.7	3	1
03/14/06	8:27 a	-17.9	-17.9	-17.9	---	---	16.5	E	0.28	18.3	-29.9	---	---	726.6	0.025	0.000	20.7	3	1
03/14/06	8:28 a	-17.9	-17.9	-17.9	---	---	16.5	E	0.28	19.1	-29.9	---	---	726.6	0.025	0.000	20.7	3	1
03/14/06	8:29 a	-17.9	-17.9	-17.9	---	---	15.7	E	0.26	17.4	-29.6	---	---	726.6	0.025	0.000	20.7	3	1
03/14/06	8:30 a	-17.9	-17.9	-17.9	---	---	15.7	E	0.26	18.3	-29.6	---	---	726.6	0.025	0.000	20.7	3	1
03/14/06	8:31 a	-17.9	-17.9	-17.9	---	---	16.5	E	0.28	18.3	-29.9	---	---	726.5	0.025	0.000	20.7	3	1
03/14/06	8:32 a	-17.9	-17.9	-17.9	---	---	15.7	E	0.26	18.3	-29.6	---	---	726.7	0.025	0.000	20.7	3	1
03/14/06	8:33 a	-17.9	-17.9	-17.9	---	---	15.7	E	0.26	18.3	-29.6	---	---	726.6	0.025	0.000	20.7	3	1
03/14/06	8:34 a	-17.9	-17.9	-17.9	---	---	14.8	E	0.25	17.4	-29.3	---	---	726.6	0.025	0.000	20.7	3	1
03/14/06	8:35 a	-17.9	-17.9	-17.9	---	---	13.9	E	0.23	15.7	-29.1	---	---	726.6	0.025	0.000	20.7	3	1
03/14/06	8:36 a	-17.9	-17.9	-17.9	---	---	13.9	E	0.23	14.8	-29.1	---	---	726.6	0.025	0.000	20.7	3	1
03/14/06	8:37 a	-17.9	-17.9	-17.9	---	---	13.9	E	0.23	15.7	-29.1	---	---	726.6	0.025	0.000	20.7	3	1
03/14/06	8:38 a	-17.9	-17.9	-17.9	---	---	13.9	E	0.23	16.5	-29.1	---	---	726.6	0.025	0.000	20.7	3	1
03/14/06	8:39 a	-17.9	-17.9	-17.9	---	---	13.9	E	0.23	16.5	-28.9	---	---	726.6	0.025	0.000	20.7	3	1
03/14/06	8:40 a	-17.9	-17.9	-17.9	---	---	13.9	E	0.23	15.7	-29.1	---	---	726.6	0.025	0.000	20.7	3	1
03/14/06	8:41 a	-17.9	-17.9	-17.9	---	---	16.5	E	0.28	19.1	-29.9	---	---	726.6	0.025	0.000	20.7	3	1
03/14/06	8:42 a	-17.9	-17.9	-17.9	---	---	15.7	E	0.26	17.4	-29.6	---	---	726.6	0.025	0.000	20.7	3	1
03/14/06	8:43 a	-17.9	-17.9	-17.9	---	---	15.7	E	0.26	18.3	-29.6	---	---	726.7	0.025	0.000	20.7	3	1
03/14/06	8:44 a	-17.9	-17.8	-17.9	---	---	15.7	E	0.26	17.4	-29.6	---	---	726.5	0.025	0.000	20.7	3	1
03/14/06	8:45 a	-17.8	-17.8	-17.9	---	---	15.7	E	0.26	17.4	-29.5	---	---	726.7	0.025	0.000	20.6	3	1
03/14/06	8:46 a	-17.8	-17.8	-17.9	---	---	14.8	E	0.25	19.1	-29.2	---	---	726.5	0.025	0.000	20.6	3	1
03/14/06	8:47 a	-17.8	-17.8	-17.8	---	---	13.9	E	0.23	16.5	-28.9	---	---	726.6	0.025	0.000	20.6	3	1
03/14/06	8:48 a	-17.8	-17.8	-17.8	---	---	14.8	E	0.25	17.4	-29.1	---	---	726.6	0.025	0.000	20.6	3	1
03/14/06	8:49 a	-17.8	-17.8	-17.8	---	---	14.8	E	0.25	16.5	-29.1	---	---	726.6	0.025	0.000	20.6	2	1
03/14/06	8:50 a	-17.8	-17.8	-17.8	---	---	13.9	E	0.23	17.4	-28.8	---	---	726.6	0.025	0.000	20.7	3	1
03/14/06	8:51 a	-17.8	-17.7	-17.8	---	---	13.9	E	0.23	17.4	-28.8	---	---	726.7	0.025	0.000	20.7	3	1
03/14/06	8:52 a	-17.7	-17.7	-17.8	---	---	13.9	E	0.23	16.5	-28.7	---	---	726.6	0.025	0.000	20.7	3	1
03/14/06	8:53 a	-17.7	-17.7	-17.8	---	---	13.9	E	0.23	18.3	-28.7	---	---	726.6	0.025	0.000	20.7	3	1
03/14/06	8:54 a	-17.7	-17.7	-17.7	---	---	14.8	E	0.25	17.4	-29.1	---	---	726.7	0.025	0.000	20.7	2	1
03/14/06	8:55 a	-17.7	-17.7	-17.7	---	---	18.3	E	0.30	20.9	-30.1	---	---	726.6	0.025	0.000	20.7	3	1
03/14/06	8:56 a	-17.7	-17.7	-17.7	---	---	18.3	E	0.30	20.0	-30.1	---	---	726.7	0.025	0.000	20.7	3	1
03/14/06	8:57 a	-17.7	-17.7	-17.7	---	---	18.3	E	0.30	20.0	-30.1	---	---	726.6	0.025	0.000	20.7	3	1
03/14/06	8:58 a	-17.6	-17.6	-17.7	---	---	19.1	E	0.32	20.0	-30.2	---	---	726.5	0.025	0.000	20.7	3	1
03/14/06	8:59 a	-17.6	-17.6	-17.7	---	---	18.3	E	0.30	20.9	-30.0	---	---	726.6	0.025	0.000	20.7	3	1
03/14/06	9:00 a	-17.6	-17.6	-17.6	---	---	18.3	E	0.30	19.1	-30.0	---	---	726.6	0.025	0.000	20.7	3	1
03/14/06	9:01 a	-17.6	-17.6	-17.6	---	---	17.4	E	0.29	20.0	-29.7	---	---	726.5	0.025	0.000	20.7	3	1
03/14/06	9:02 a	-17.6	-17.6	-17.6	---	---	18.3	E	0.30	20.0	-29.9	---	---	726.6	0.025	0.000	20.7	3	1
03/14/06	9:03 a	-17.6	-17.5	-17.6	---	---	19.1	E	0.32	20.9	-30.2	---	---	726.6	0.025	0.000	20.7	3	1
03/14/06	9:04 a	-17.5	-17.5	-17.6	---	---	18.3	E	0.30	20.0	-29.8	---	---	726.6	0.025	0.000	20.7	3	1
03/14/06	9:05 a	-17.5	-17.5	-17.5	---	---	17.4	E	0.29	20.0	-29.6	---	---	726.6	0.025	0.000	20.7	3	1
03/14/06	9:06 a	-17.5	-17.4	-17.5	---	---	17.4	E	0.29	19.1	-29.6	---	---	726.5	0.025	0.000	20.7	3	1
03/14/06	9:07 a	-17.5	-17.4	-17.5	---	---	16.5	E	0.28	19.1	-29.3	---	---	726.5	0.025	0.000	20.7	3	1
03/14/06	9:08 a	-17.4	-17.4	-17.5	---	---	17.4	E	0.29	19.1	-29.5	---	---	726.6	0.025	0.000	20.7	3	1
03/14/06	9:09 a	-17.4	-17.4	-17.4	---	---	17.4	E	0.29	20.0	-29.5	---	---	726.6	0.025	0.000	20.7	3	1
03/14/06	9:10 a	-17.4	-17.4	-17.4	---	---	17.4	E	0.29	19.1	-29.5	---	---	726.6	0.025	0.000	20.7	3	1
03/14/06	9:11 a	-17.4	-17.4	-17.4	---	---	17.4	E	0.29	19.1	-29.4	---	---	726.6	0.025	0.000	20.7	3	1
03/14/06	9:12 a	-17.4	-17.4	-17.4	---	---	17.4	E	0.29	19.1	-29.4	---	---	726.6	0.025	0.000	20.7	3	1
03/14/06	9:13 a	-17.3	-17.3	-17.4	---	---	18.3	E	0.30	20.0	-29.6	---	---	726.7	0.025	0.000	20.7	3	1
03/14/06	9:14 a	-17.3	-17.3	-17.4	---	---	19.1	E	0.32	20.9	-29.8	---	---	726.6	0.025	0.000	20.7	3	1
03/14/06	9:15 a	-17.3	-17.3	-17.3	---	---	19.1	E	0.32	20.9	-29.8	---	---	726.6	0.025	0.000	20.7	3	1
03/14/06	9:16 a	-17.3	-17.3	-17.3	---	---	19.1	E	0.32	20.9	-29.8	---	---	726.7	0.025	0.000	20.7	3	1
03/14/06	9:17 a	-17.3	-17.3	-17.3	---	---	17.4	E	0.29	20.0	-29.3	---	---	726.6	0.025	0.000	20.7	3	1
03/14/06	9:18 a	-17.3	-17.3	-17.3	---	---	17.4	E	0.29	20.0	-29.3	---	---	726.6	0.025	0.000	20.7	3	1
03/14/06	9:19 a	-17.3	-17.2	-17.3	---	---	15.7	E	0.26	19.1	-28.8	---	---	726.7	0.025	0.000	20.7	2	1
03/14/06	9:20 a	-17.2	-17.2	-17.3	---	---	15.7	E	0.26	19.1	-28.7	---	---	726.7	0.025	0.000	20.7	3	1
03/14/06	9:21 a	-17.2	-17.2	-17.3	---	---	15.7	E	0.26	18.3	-28.7	---	---	726.7	0.025	0.000	20.7	2	1
03/14/06	9:22 a	-17.2	-17.2	-17.2	---	---	15.7	E	0.26	19.1	-28.7	---	---	726.6	0.025	0.000	20.7	3	1
03/14/06	9:23 a	-17.2	-17.2	-17.2	---	---	16.5	E	0.28	18.3	-28.9	---	---	726.7	0.025	0.000	20.7	3	1
03/14/06	9:24 a	-17.2	-17.2	-17.2	---	---	15.7	E	0.26	18.3	-28.6	---	---	726.7	0.025	0.000	20.7	3	1
03/14/06	9:25 a	-17.2	-17.2	-17.2	---	---	17.4	E	0.29	18.3	-29.2	---	---	726.7	0.025	0.000	20.7	2	1
03/14/06	9:26 a	-17.2	-17.2	-17.2	---	---	15.7	E	0.26	17.4	-28.6	---	---	726.7	0.025	0.000	20.6	3	1
03/14/06	9:27 a	-17.2	-17.2	-17.2	---	---	16.5	E	0.28	19.1	-28.9	---	---	726.7	0.025	0.000	20.7	2	1
03/14/06	9:28 a	-17.2	-17.2	-17.2	---	---	18.3	E	0.30	20.0	-29.4	---	---	726.6	0.025	0.000	20.6	3	1
03/14/06	9:29 a	-17.1	-17.1	-17.2	---	---	18.3	ESE	0.30	20.0	-29.3	---	---	726.7	0.025	0.000	20.6	3	1
03/14/06	9:30 a	-17.1	-17.1	-17.1	---	---	18.3	ESE	0.30	20.9	-29.3	---	---	726.6	0.025	0.000	20.6	2	1
03/14/06	9:31 a	-17.1	-17.1	-17.1	---	---	17.4	ESE	0.29	20.0	-29.1	---	---	726.6	0.025	0.000	20.6	3	1
03/14/06	9:32 a	-17.1	-17.1	-17.1	---	---	19.1	E	0.32	20.9	-29.6	---	---	726.6	0.025	0.000	20.6	3	1
03/14/06	9:33 a	-17.1	-17.1	-17.1	---	---	19.1	E	0.32	20.9	-29.5	---	---	726.6	0.025	0.000	20.6	3	1
03/14/06	9:34 a	-17.1	-17.1	-17.1	---	---	20.0	E	0.33	20.9	-29.7	---	---	726.6	0.025	0.000	20.6	3	1
03/14/06	9:35 a	-17.1	-17.1	-17.1	---	---	20.9	ESE	0.35	21.7	-29.9	---	---	726.6	0.025	0.000	20.6	2	1
03/14/06	9:36 a	-17.1	-17.1	-17.1	---	---	20.0	ESE	0.33	20.9	-29.7	---	---	726.6	0.025	0.000	20.6	2	1
03/14/06	9:37 a	-17.1	-17.1	-17.1	---	---	19.1	E	0.32	20.9	-29.5	---	---	726.5	0.025	0.000	20.6	3	1
03/14/06	9:38 a	-17.1	-17.1	-17.1	---	---	20.9	ESE	0.35	22.6	-29.9	---	---	726.5	0.025	0.000	20.6	3	1
03/14/06	9:39 a	-17.0	-17.0	-17.1	---	---	20.9	ESE	0.35	21.7	-29.8	---	---	726.6	0.025	0.000	20.6	2	1
03/14/06	9:40 a	-17.0	-17.0	-17.0	---	---	20.9	ESE	0.35	22.6	-29.8	---	---	726.6	0.025	0.000	20.6	2	1
03/14/06	9:41 a	-17.0	-16.9	-17.0	---	---	20.0	ESE	0.33	21.7	-29.6	---	---	726.5	0.025	0.000	20.6	3	1
03/14/06	9:42 a	-16.9	-16.9	-17.0	---	---	20.0	ESE	0.33	21.7	-29.6	---	---	726.6	0.024	0.000	20.6	2	1
03/14/06	9:43 a	-16.9	-16.9	-16.9	---	---	21.7	ESE	0.36	23.5	-30.0	---	---	726.5	0.024	0.000	20.6	2	1
03/14/06	9:44 a	-16.9	-16.9	-16.9	---	---	20.0	ESE	0.33	22.6	-29.6	---	---	726.5	0.024	0.000	20.6	3	1
03/14/06	9:45 a	-16.9	-16.9	-16.9	---	---	20.0	ESE	0.33	22.6	-29.6	---	---	726.6	0.024	0.000	20.6	3	1
03/14/06	9:46 a	-16.9	-16.9	-16.9	---	---	20.0	ESE	0.33	22.6	-29.6	---	---	726.6	0.024	0.000	20.6	2	1
03/14/06	9:47 a	-16.9	-16.9	-16.9	---	---	19.1	SE	0.32	22.6	-29.3	---	---	726.6	0.024	0.000	20.6	2	1
03/14/06	9:48 a	-16.9	-16.9	-16.9	---	---	19.1	ESE	0.32	21.7	-29.3	---	---	726.5	0.024	0.000	20.6	2	1
03/14/06	9:49 a	-16.8	-16.8	-16.9	---	---	18.3	SE	0.30	23.5	-28.9	---	---	726.7	0.024	0.000	20.6	3	1
03/14/06	9:50 a	-16.8	-16.8	-16.8	---	---	19.1	ESE	0.32	21.7	-29.2	---	---	726.6	0.024	0.000	20.6	3	1
03/14/06	9:51 a	-16.8	-16.8	-16.8	---	---	17.4	ESE	0.29	19.1	-28.6	---	---	726.6	0.024	0.000	20.6	3	1
03/14/06	9:52 a	-16.7	-16.7	-16.7	---	---	16.5	SE	0.28	18.3	-28.3	---	---	726.7	0.024	0.000	20.6	2	1
03/14/06	9:53 a	-16.7	-16.7	-16.7	---	---	17.4	ESE	0.29	21.7	-28.6	---	---	726.6	0.024	0.000	20.6	3	1
03/14/06	9:54 a	-16.7	-16.7	-16.7	---	---	17.4	ESE	0.29	20.9	-28.5	---	---	726.6	0.024	0.000	20.6	3	1
03/14/06	9:55 a	-16.7	-16.7	-16.7	---	---	18.3	ESE	0.30	19.1	-28.7	---	---	726.6	0.024	0.000	20.6	3	1
03/14/06	9:56 a	-16.7	-16.7	-16.7	---	---	18.3	ESE	0.30	20.0	-28.7	---	---	726.6	0.024	0.000	20.6	2	1
03/14/06	9:57 a	-16.7	-16.6	-16.7	---	---	19.1	ESE	0.32	23.5	-28.9	---	---	726.6	0.024	0.000	20.6	3	1
03/14/06	9:58 a	-16.7	-16.6	-16.7	---	---	19.1	ESE	0.32	21.7	-28.9	---	---	726.6	0.024	0.000	20.6	2	1
03/14/06	9:59 a	-16.6	-16.6	-16.6	---	---	17.4	ESE	0.29	20.0	-28.4	---	---	726.6	0.024	0.000	20.6	2	1
03/14/06	10:00 a	-16.6	-16.6	-16.6	---	---	18.3	SE	0.30	20.9	-28.6	---	---	726.6	0.024	0.000	20.6	3	1
03/14/06	10:01 a	-16.6	-16.5	-16.6	---	---	15.7	SE	0.26	18.3	-27.8	---	---	726.7	0.024	0.000	20.6	2	1
03/14/06	10:02 a	-16.5	-16.5	-16.5	---	---	16.5	SE	0.28	18.3	-28.0	---	---	726.7	0.024	0.000	20.6	3	1
03/14/06	10:03 a	-16.4	-16.4	-16.5	---	---	16.5	ESE	0.28	20.0	-27.9	---	---	726.6	0.024	0.000	20.6	3	1
03/14/06	10:04 a	-16.4	-16.4	-16.4	---	---	17.4	ESE	0.29	22.6	-28.2	---	---	726.6	0.024	0.000	20.6	3	1
03/14/06	10:05 a	-16.4	-16.4	-16.5	---	---	17.4	ESE	0.29	19.1	-28.2	---	---	726.6	0.024	0.000	20.6	2	1
03/14/06	10:06 a	-16.4	-16.4	-16.4	---	---	17.4	ESE	0.29	18.3	-28.2	---	---	726.6	0.024	0.000	20.6	2	1
03/14/06	10:07 a	-16.4	-16.4	-16.4	---	---	17.4	ESE	0.29	18.3	-28.1	---	---	726.6	0.024	0.000	20.6	3	1
03/14/06	10:08 a	-16.3	-16.3	-16.4	---	---	16.5	E	0.28	18.3	-27.8	---	---	726.6	0.024	0.000	20.6	2	1
03/14/06	10:09 a	-16.3	-16.3	-16.4	---	---	14.8	E	0.25	17.4	-27.2	---	---	726.6	0.024	0.000	20.6	3	1
03/14/06	10:10 a	-16.3	-16.3	-16.3	---	---	16.5	E	0.28	20.0	-27.8	---	---	726.5	0.024	0.000	20.6	3	1
03/14/06	10:11 a	-16.3	-16.3	-16.3	---	---	16.5	E	0.28	18.3	-27.8	---	---	726.5	0.024	0.000	20.6	3	1
03/14/06	10:12 a	-16.3	-16.3	-16.3	---	---	17.4	E	0.29	19.1	-28.1	---	---	726.5	0.024	0.000	20.7	3	1
03/14/06	10:13 a	-16.3	-16.3	-16.3	---	---	17.4	E	0.29	19.1	-28.1	---	---	726.4	0.024	0.000	20.7	3	1
03/14/06	10:14 a	-16.3	-16.3	-16.3	---	---	17.4	E	0.29	20.0	-28.1	---	---	726.5	0.024	0.000	20.7	3	1
03/14/06	10:15 a	-16.3	-16.3	-16.3	---	---	17.4	E	0.29	19.1	-28.1	---	---	726.5	0.024	0.000	20.7	3	1
03/14/06	10:16 a	-16.3	-16.3	-16.3	---	---	18.3	ESE	0.30	20.0	-28.3	---	---	726.5	0.024	0.000	20.7	3	1
03/14/06	10:17 a	-16.3	-16.3	-16.3	---	---	18.3	ESE	0.30	20.9	-28.3	---	---	726.4	0.024	0.000	20.7	3	1
03/14/06	10:18 a	-16.3	-16.3	-16.3	---	---	18.3	ESE	0.30	20.0	-28.3	---	---	726.5	0.024	0.000	20.7	3	1
03/14/06	10:19 a	-16.3	-16.3	-16.3	---	---	20.9	ESE	0.35	23.5	-28.9	---	---	726.4	0.024	0.000	20.8	3	1
03/14/06	10:20 a	-16.3	-16.3	-16.3	---	---	19.1	ESE	0.32	20.9	-28.4	---	---	726.4	0.024	0.000	20.8	3	1
03/14/06	10:21 a	-16.3	-16.3	-16.3	---	---	20.0	ESE	0.33	22.6	-28.7	---	---	726.4	0.024	0.000	20.8	3	1
03/14/06	10:22 a	-16.3	-16.3	-16.3	---	---	20.0	ESE	0.33	23.5	-28.7	---	---	726.4	0.024	0.000	20.8	3	1
03/14/06	10:23 a	-16.3	-16.3	-16.3	---	---	20.0	E	0.33	21.7	-28.7	---	---	726.5	0.024	0.000	20.8	3	1
03/14/06	10:24 a	-16.3	-16.3	-16.3	---	---	20.9	ESE	0.35	22.6	-28.9	---	---	726.4	0.024	0.000	20.8	3	1
03/14/06	10:25 a	-16.3	-16.3	-16.3	---	---	20.0	ESE	0.33	22.6	-28.7	---	---	726.4	0.024	0.000	20.8	3	1
03/14/06	10:26 a	-16.3	-16.3	-16.3	---	---	20.0	ESE	0.33	22.6	-28.7	---	---	726.4	0.024	0.000	20.8	3	1
03/14/06	10:27 a	-16.3	-16.3	-16.3	---	---	19.1	ESE	0.32	22.6	-28.4	---	---	726.3	0.024	0.000	20.8	3	1
03/14/06	10:28 a	-16.3	-16.3	-16.3	---	---	20.0	E	0.33	23.5	-28.7	---	---	726.4	0.024	0.000	20.9	3	1
03/14/06	10:29 a	-16.3	-16.3	-16.3	---	---	20.0	ESE	0.33	24.3	-28.7	---	---	726.4	0.024	0.000	20.9	4	1
03/14/06	10:30 a	-16.3	-16.3	-16.3	---	---	21.7	ESE	0.36	27.8	-29.1	---	---	726.4	0.024	0.000	20.9	3	1
03/14/06	10:31 a	-16.3	-16.3	-16.3	---	---	20.0	E	0.33	23.5	-28.7	---	---	726.4	0.024	0.000	20.9	3	1
03/14/06	10:32 a	-16.3	-16.3	-16.3	---	---	21.7	ESE	0.36	23.5	-29.1	---	---	726.4	0.024	0.000	20.9	4	1
03/14/06	10:33 a	-16.3	-16.3	-16.3	---	---	20.0	E	0.33	22.6	-28.7	---	---	726.4	0.024	0.000	20.9	3	1
03/14/06	10:34 a	-16.3	-16.3	-16.3	---	---	18.3	E	0.30	22.6	-28.3	---	---	726.3	0.024	0.000	20.9	4	1
03/14/06	10:35 a	-16.3	-16.3	-16.3	---	---	21.7	ESE	0.36	23.5	-29.1	---	---	726.3	0.024	0.000	20.9	4	1
03/14/06	10:36 a	-16.3	-16.3	-16.3	---	---	23.5	ESE	0.39	28.7	-29.5	---	---	726.2	0.024	0.000	20.9	4	1
03/14/06	10:37 a	-16.3	-16.3	-16.3	---	---	22.6	E	0.38	27.8	-29.3	---	---	726.3	0.024	0.000	20.9	4	1
03/14/06	10:38 a	-16.3	-16.3	-16.3	---	---	22.6	ESE	0.38	27.0	-29.4	---	---	726.3	0.024	0.000	20.9	4	1
03/14/06	10:39 a	-16.3	-16.3	-16.3	---	---	20.0	E	0.33	24.3	-28.7	---	---	726.3	0.024	0.000	20.9	4	1
03/14/06	10:40 a	-16.3	-16.3	-16.3	---	---	18.3	E	0.30	23.5	-28.3	---	---	726.4	0.024	0.000	21.0	4	1
03/14/06	10:41 a	-16.3	-16.3	-16.3	---	---	20.9	E	0.35	26.1	-28.9	---	---	726.3	0.024	0.000	21.0	4	1
03/14/06	10:42 a	-16.3	-16.3	-16.3	---	---	23.5	E	0.39	27.0	-29.6	---	---	726.2	0.024	0.000	21.0	4	1
03/14/06	10:43 a	-16.3	-16.3	-16.3	---	---	25.2	ESE	0.42	29.6	-29.9	---	---	726.3	0.024	0.000	21.0	4	1
03/14/06	10:44 a	-16.3	-16.3	-16.3	---	---	23.5	ESE	0.39	30.4	-29.6	---	---	726.2	0.024	0.000	21.1	4	1
03/14/06	10:45 a	-16.3	-16.3	-16.3	---	---	26.1	ESE	0.43	29.6	-30.1	---	---	726.2	0.024	0.000	21.1	4	1
03/14/06	10:46 a	-16.3	-16.3	-16.3	---	---	24.3	ESE	0.41	28.7	-29.8	---	---	726.3	0.024	0.000	21.1	4	1
03/14/06	10:47 a	-16.3	-16.3	-16.3	---	---	23.5	ESE	0.39	30.4	-29.6	---	---	726.2	0.024	0.000	21.1	4	1
03/14/06	10:48 a	-16.3	-16.3	-16.4	---	---	25.2	ESE	0.42	30.4	-29.9	---	---	726.3	0.024	0.000	21.1	4	1
03/14/06	10:49 a	-16.3	-16.3	-16.4	---	---	23.5	ESE	0.39	26.1	-29.6	---	---	726.2	0.024	0.000	21.0	4	1
03/14/06	10:50 a	-16.3	-16.3	-16.4	---	---	29.6	ESE	0.49	33.9	-30.8	---	---	726.1	0.024	0.000	21.0	4	1
03/14/06	10:51 a	-16.4	-16.4	-16.4	---	---	26.1	SE	0.43	28.7	-30.2	---	---	726.1	0.024	0.000	21.0	4	1
03/14/06	10:52 a	-16.4	-16.4	-16.4	---	---	26.1	SE	0.43	31.3	-30.2	---	---	726.2	0.024	0.000	21.0	4	1
03/14/06	10:53 a	-16.4	-16.4	-16.4	---	---	25.2	SE	0.42	28.7	-30.0	---	---	726.1	0.024	0.000	21.0	4	1
03/14/06	10:54 a	-16.4	-16.4	-16.4	---	---	28.7	SE	0.48	32.2	-30.7	---	---	726.2	0.024	0.000	21.0	4	1
03/14/06	10:55 a	-16.4	-16.4	-16.4	---	---	27.0	SE	0.45	30.4	-30.4	---	---	726.1	0.024	0.000	21.0	4	1
03/14/06	10:56 a	-16.4	-16.3	-16.4	---	---	26.1	SE	0.43	28.7	-30.2	---	---	726.2	0.024	0.000	21.1	4	1
03/14/06	10:57 a	-16.4	-16.4	-16.4	---	---	27.0	ESE	0.45	30.4	-30.4	---	---	726.2	0.024	0.000	21.1	4	1
03/14/06	10:58 a	-16.4	-16.3	-16.4	---	---	26.1	SE	0.43	29.6	-30.2	---	---	726.2	0.024	0.000	21.1	4	1
03/14/06	10:59 a	-16.4	-16.4	-16.4	---	---	25.2	SE	0.42	27.8	-30.0	---	---	726.2	0.024	0.000	21.1	4	1
03/14/06	11:00 a	-16.4	-16.4	-16.4	---	---	24.3	ESE	0.41	27.8	-29.9	---	---	726.2	0.024	0.000	21.1	4	1
03/14/06	11:01 a	-16.4	-16.4	-16.4	---	---	24.3	SE	0.41	26.1	-29.9	---	---	726.3	0.024	0.000	21.1	4	1
03/14/06	11:02 a	-16.4	-16.4	-16.4	---	---	25.2	ESE	0.42	27.8	-30.1	---	---	726.2	0.024	0.000	21.1	4	1
03/14/06	11:03 a	-16.4	-16.4	-16.5	---	---	25.2	ESE	0.42	27.0	-30.1	---	---	726.3	0.024	0.000	21.1	4	1
03/14/06	11:04 a	-16.4	-16.4	-16.5	---	---	24.3	ESE	0.41	27.0	-29.9	---	---	726.2	0.024	0.000	21.1	4	1
03/14/06	11:05 a	-16.4	-16.4	-16.4	---	---	22.6	ESE	0.38	26.1	-29.6	---	---	726.3	0.024	0.000	21.1	4	1
03/14/06	11:06 a	-16.4	-16.4	-16.5	---	---	23.5	ESE	0.39	26.1	-29.7	---	---	726.2	0.024	0.000	21.1	4	1
03/14/06	11:07 a	-16.4	-16.4	-16.5	---	---	24.3	ESE	0.41	28.7	-29.9	---	---	726.3	0.024	0.000	21.1	4	1
03/14/06	11:08 a	-16.5	-16.4	-16.5	---	---	24.3	ESE	0.41	26.1	-30.0	---	---	726.2	0.024	0.000	21.1	4	1
03/14/06	11:09 a	-16.6	-16.5	-16.6	---	---	24.3	ESE	0.41	26.1	-30.1	---	---	726.2	0.024	0.000	21.1	4	1
03/14/06	11:10 a	-16.5	-16.5	-16.6	---	---	26.1	ESE	0.43	27.8	-30.3	---	---	726.2	0.024	0.000	21.1	4	1
03/14/06	11:11 a	-16.6	-16.6	-16.6	---	---	27.8	ESE	0.46	29.6	-30.8	---	---	725.9	0.024	0.000	21.1	4	1
03/14/06	11:12 a	-16.6	-16.6	-16.6	---	---	27.8	ESE	0.46	30.4	-30.8	---	---	726.0	0.024	0.000	21.1	4	1
03/14/06	11:13 a	-16.6	-16.6	-16.6	---	---	27.0	ESE	0.45	29.6	-30.6	---	---	726.1	0.024	0.000	21.1	4	1
03/14/06	11:14 a	-16.6	-16.6	-16.6	---	---	27.8	ESE	0.46	30.4	-30.8	---	---	726.1	0.024	0.000	21.1	4	1
03/14/06	11:15 a	-16.6	-16.6	-16.6	---	---	29.6	ESE	0.49	33.0	-31.2	---	---	726.0	0.024	0.000	21.1	4	1
03/14/06	11:16 a	-16.6	-16.6	-16.6	---	---	29.6	ESE	0.49	31.3	-31.2	---	---	726.0	0.024	0.000	21.1	4	1
03/14/06	11:17 a	-16.6	-16.6	-16.7	---	---	30.4	E	0.51	33.0	-31.3	---	---	726.0	0.024	0.000	21.1	4	1
03/14/06	11:18 a	-16.7	-16.7	-16.7	---	---	31.3	E	0.52	33.9	-31.6	---	---	725.9	0.024	0.000	21.1	4	1
03/14/06	11:19 a	-16.7	-16.6	-16.7	---	---	29.6	ESE	0.49	33.0	-31.3	---	---	726.0	0.024	0.000	21.1	4	1
03/14/06	11:20 a	-16.7	-16.7	-16.7	---	---	29.6	ESE	0.49	31.3	-31.3	---	---	726.1	0.024	0.000	21.1	4	1
03/14/06	11:21 a	-16.7	-16.7	-16.7	---	---	29.6	ESE	0.49	31.3	-31.3	---	---	726.0	0.024	0.000	21.1	4	1
03/14/06	11:22 a	-16.7	-16.7	-16.7	---	---	30.4	ESE	0.51	32.2	-31.5	---	---	725.9	0.024	0.000	21.1	4	1
03/14/06	11:23 a	-16.8	-16.7	-16.8	---	---	32.2	ESE	0.54	33.0	-31.9	---	---	725.9	0.024	0.000	21.1	4	1
03/14/06	11:24 a	-16.8	-16.8	-16.8	---	---	32.2	ESE	0.54	33.0	-31.9	---	---	725.8	0.024	0.000	21.1	4	1
03/14/06	11:25 a	-16.8	-16.8	-16.9	---	---	31.3	ESE	0.52	33.0	-31.8	---	---	725.8	0.024	0.000	21.0	4	1
03/14/06	11:26 a	-16.9	-16.8	-16.9	---	---	32.2	ESE	0.54	33.0	-32.1	---	---	725.8	0.024	0.000	21.0	4	1
03/14/06	11:27 a	-16.9	-16.9	-16.9	---	---	32.2	ESE	0.54	33.9	-32.1	---	---	725.8	0.024	0.000	21.0	4	1
03/14/06	11:28 a	-16.9	-16.9	-17.0	---	---	32.2	ESE	0.54	33.9	-32.1	---	---	725.9	0.024	0.000	21.0	4	1
03/14/06	11:29 a	-17.0	-16.9	-17.0	---	---	33.9	ESE	0.57	36.5	-32.5	---	---	725.8	0.025	0.000	21.0	4	1
03/14/06	11:30 a	-17.0	-17.0	-17.1	---	---	33.9	ESE	0.57	36.5	-32.5	---	---	725.8	0.025	0.000	21.0	4	1
03/14/06	11:31 a	-17.1	-17.1	-17.1	---	---	32.2	ESE	0.54	35.7	-32.3	---	---	725.9	0.025	0.000	21.0	4	1
03/14/06	11:32 a	-17.1	-17.1	-17.1	---	---	32.2	E	0.54	35.7	-32.3	---	---	725.8	0.025	0.000	20.9	4	1
03/14/06	11:33 a	-17.2	-17.1	-17.2	---	---	31.3	E	0.52	34.8	-32.3	---	---	726.0	0.025	0.000	20.9	4	1
03/14/06	11:34 a	-17.2	-17.2	-17.2	---	---	30.4	E	0.51	33.9	-32.1	---	---	725.9	0.025	0.000	20.9	4	1
03/14/06	11:35 a	-17.2	-17.2	-17.3	---	---	28.7	E	0.48	33.9	-31.8	---	---	725.8	0.025	0.000	20.9	4	1
03/14/06	11:36 a	-17.3	-17.3	-17.3	---	---	26.1	E	0.43	31.3	-31.4	---	---	725.9	0.025	0.000	20.9	4	1
03/14/06	11:37 a	-17.3	-17.3	-17.3	---	---	32.2	ESE	0.54	34.8	-32.7	---	---	725.8	0.025	0.000	20.9	4	1
03/14/06	11:38 a	-17.4	-17.3	-17.4	---	---	33.0	ESE	0.55	34.8	-32.9	---	---	725.9	0.025	0.000	20.9	4	1
03/14/06	11:39 a	-17.4	-17.4	-17.4	---	---	31.3	ESE	0.52	33.0	-32.7	---	---	725.9	0.025	0.000	20.9	4	1
03/14/06	11:40 a	-17.5	-17.5	-17.5	---	---	30.4	E	0.51	33.0	-32.6	---	---	725.8	0.025	0.000	20.9	4	1
03/14/06	11:41 a	-17.6	-17.6	-17.6	---	---	31.3	E	0.52	33.9	-32.8	---	---	725.9	0.025	0.000	20.9	4	1
03/14/06	11:42 a	-17.6	-17.6	-17.7	---	---	31.3	E	0.52	33.9	-32.9	---	---	726.0	0.025	0.000	20.9	4	1
03/14/06	11:43 a	-17.7	-17.7	-17.7	---	---	26.1	E	0.43	30.4	-31.9	---	---	726.0	0.025	0.000	20.8	4	1
03/14/06	11:44 a	-17.7	-17.7	-17.7	---	---	23.5	E	0.39	29.6	-31.4	---	---	726.0	0.025	0.000	20.8	4	1
03/14/06	11:45 a	-17.7	-17.7	-17.8	---	---	23.5	E	0.39	30.4	-31.4	---	---	725.9	0.025	0.000	20.9	4	1
03/14/06	11:46 a	-17.8	-17.7	-17.8	---	---	20.9	E	0.35	26.1	-30.9	---	---	726.0	0.025	0.000	20.8	4	1
03/14/06	11:47 a	-17.8	-17.8	-17.8	---	---	27.8	ESE	0.46	36.5	-32.5	---	---	725.8	0.025	0.000	20.8	4	1
03/14/06	11:48 a	-17.8	-17.8	-17.9	---	---	27.0	ESE	0.45	30.4	-32.3	---	---	725.8	0.025	0.000	20.8	4	1
03/14/06	11:49 a	-17.9	-17.9	-17.9	---	---	23.5	E	0.39	27.0	-31.7	---	---	725.7	0.025	0.000	20.8	4	1
03/14/06	11:50 a	-17.9	-17.9	-17.9	---	---	27.8	ESE	0.46	31.3	-32.7	---	---	725.9	0.025	0.000	20.8	4	1
03/14/06	11:51 a	-17.9	-17.9	-18.0	---	---	29.6	ESE	0.49	33.0	-33.0	---	---	725.7	0.025	0.000	20.8	4	1
03/14/06	11:52 a	-18.0	-18.0	-18.1	---	---	28.7	E	0.48	32.2	-32.9	---	---	725.6	0.025	0.000	20.8	4	1
03/14/06	11:53 a	-18.1	-18.0	-18.1	---	---	27.8	E	0.46	30.4	-32.8	---	---	725.7	0.025	0.000	20.8	4	1
03/14/06	11:54 a	-18.1	-18.0	-18.1	---	---	27.8	E	0.46	31.3	-32.8	---	---	725.8	0.025	0.000	20.8	4	1
03/14/06	11:55 a	-18.1	-18.1	-18.1	---	---	30.4	ESE	0.51	32.2	-33.3	---	---	726.0	0.025	0.000	20.8	4	1
03/14/06	11:56 a	-18.1	-18.1	-18.2	---	---	28.7	E	0.48	33.0	-33.1	---	---	726.0	0.025	0.000	20.8	4	1
03/14/06	11:57 a	-18.2	-18.1	-18.2	---	---	25.2	E	0.42	30.4	-32.4	---	---	725.9	0.025	0.000	20.8	4	1
03/14/06	11:58 a	-18.2	-18.2	-18.2	---	---	27.0	E	0.45	29.6	-32.8	---	---	725.9	0.025	0.000	20.8	4	1
03/14/06	11:59 a	-18.2	-18.2	-18.2	---	---	25.2	E	0.42	28.7	-32.5	---	---	726.0	0.025	0.000	20.8	4	1
03/14/06	12:00 p	-18.2	-18.2	-18.2	---	---	25.2	E	0.42	27.8	-32.5	---	---	725.9	0.025	0.000	20.8	4	1
03/14/06	12:01 p	-18.3	-18.2	-18.3	---	---	27.0	E	0.45	29.6	-32.9	---	---	725.9	0.025	0.000	20.8	4	1
03/14/06	12:02 p	-18.3	-18.2	-18.3	---	---	30.4	E	0.51	32.2	-33.6	---	---	726.0	0.025	0.000	20.8	4	1
03/14/06	12:03 p	-18.3	-18.3	-18.3	---	---	29.6	E	0.49	31.3	-33.4	---	---	726.0	0.025	0.000	20.8	4	1
03/14/06	12:04 p	-18.3	-18.3	-18.3	---	---	25.2	E	0.42	31.3	-32.6	---	---	725.9	0.025	0.000	20.8	4	1
03/14/06	12:05 p	-18.3	-18.3	-18.3	---	---	24.3	E	0.41	28.7	-32.4	---	---	726.0	0.025	0.000	20.8	4	1
03/14/06	12:06 p	-18.3	-18.3	-18.3	---	---	24.3	E	0.41	26.1	-32.4	---	---	726.2	0.025	0.000	20.8	4	1
03/14/06	12:07 p	-18.3	-18.3	-18.3	---	---	23.5	E	0.39	28.7	-32.3	---	---	726.1	0.025	0.000	20.8	4	1
03/14/06	12:08 p	-18.3	-18.3	-18.4	---	---	23.5	E	0.39	26.1	-32.3	---	---	726.1	0.025	0.000	20.8	4	1
03/14/06	12:09 p	-18.4	-18.3	-18.4	---	---	22.6	E	0.38	26.1	-32.1	---	---	726.1	0.026	0.000	20.8	4	1
03/14/06	12:10 p	-18.4	-18.4	-18.4	---	---	22.6	E	0.38	27.0	-32.1	---	---	726.1	0.026	0.000	20.8	4	1
03/14/06	12:11 p	-18.4	-18.4	-18.4	---	---	24.3	E	0.41	27.0	-32.6	---	---	726.1	0.026	0.000	20.8	4	1
03/14/06	12:12 p	-18.4	-18.4	-18.4	---	---	22.6	E	0.38	27.8	-32.1	---	---	726.0	0.026	0.000	20.8	4	1
03/14/06	12:13 p	-18.4	-18.4	-18.4	---	---	23.5	E	0.39	27.0	-32.3	---	---	726.2	0.026	0.000	20.8	4	1
03/14/06	12:14 p	-18.4	-18.4	-18.4	---	---	24.3	E	0.41	28.7	-32.6	---	---	726.0	0.026	0.000	20.8	4	1
03/14/06	12:15 p	-18.4	-18.4	-18.4	---	---	22.6	E	0.38	25.2	-32.2	---	---	726.0	0.026	0.000	20.8	4	1
03/14/06	12:16 p	-18.4	-18.4	-18.4	---	---	24.3	E	0.41	30.4	-32.6	---	---	726.0	0.026	0.000	20.8	4	1
03/14/06	12:17 p	-18.4	-18.4	-18.4	---	---	20.9	E	0.35	23.5	-31.8	---	---	726.0	0.026	0.000	20.8	4	1
03/14/06	12:18 p	-18.4	-18.4	-18.5	---	---	20.0	E	0.33	26.1	-31.6	---	---	726.0	0.026	0.000	20.8	4	1
03/14/06	12:19 p	-18.5	-18.4	-18.5	---	---	21.7	E	0.36	25.2	-32.1	---	---	726.0	0.026	0.000	20.8	4	1
03/14/06	12:21 p	-18.5	-18.5	-18.6	---	---	24.3	E	0.41	28.7	-32.7	---	---	725.9	0.026	0.000	20.8	4	1
03/14/06	12:22 p	-18.6	-18.5	-18.6	---	---	22.6	E	0.38	26.1	-32.3	---	---	726.1	0.026	0.000	20.8	4	1
03/14/06	12:23 p	-18.6	-18.6	-18.6	---	---	22.6	E	0.38	25.2	-32.3	---	---	726.1	0.026	0.000	20.8	4	1
03/14/06	12:24 p	-18.6	-18.6	-18.6	---	---	22.6	E	0.38	26.1	-32.3	---	---	726.1	0.026	0.000	20.8	4	1
03/14/06	12:25 p	-18.6	-18.6	-18.6	---	---	22.6	E	0.38	27.0	-32.4	---	---	726.2	0.026	0.000	20.8	4	1
03/14/06	12:26 p	-18.6	-18.6	-18.6	---	---	23.5	E	0.39	27.0	-32.7	---	---	725.9	0.026	0.000	20.8	4	1
03/14/06	12:27 p	-18.6	-18.6	-18.6	---	---	20.9	E	0.35	25.2	-32.0	---	---	726.1	0.026	0.000	20.8	4	1
03/14/06	12:28 p	-18.6	-18.6	-18.6	---	---	21.7	E	0.36	23.5	-32.2	---	---	726.0	0.026	0.000	20.8	4	1
03/14/06	12:29 p	-18.6	-18.6	-18.6	---	---	21.7	E	0.36	28.7	-32.2	---	---	725.9	0.026	0.000	20.8	4	1
03/14/06	12:30 p	-18.7	-18.7	-18.7	---	---	24.3	E	0.41	28.7	-32.9	---	---	726.0	0.026	0.000	20.8	4	1
03/14/06	12:31 p	-18.7	-18.7	-18.7	---	---	23.5	E	0.39	26.1	-32.7	---	---	726.0	0.026	0.000	20.7	4	1
03/14/06	12:32 p	-18.7	-18.7	-18.7	---	---	23.5	E	0.39	27.0	-32.7	---	---	725.9	0.026	0.000	20.7	4	1
03/14/06	12:33 p	-18.7	-18.7	-18.7	---	---	22.6	E	0.38	26.1	-32.5	---	---	726.1	0.026	0.000	20.7	4	1
03/14/06	12:34 p	-18.7	-18.7	-18.7	---	---	21.7	E	0.36	24.3	-32.4	---	---	726.0	0.026	0.000	20.7	4	1
03/14/06	12:35 p	-18.7	-18.7	-18.7	---	---	21.7	E	0.36	25.2	-32.4	---	---	726.0	0.026	0.000	20.7	4	1
03/14/06	12:36 p	-18.7	-18.7	-18.8	---	---	24.3	E	0.41	29.6	-33.0	---	---	725.9	0.026	0.000	20.7	4	1
03/14/06	12:37 p	-18.7	-18.7	-18.8	---	---	21.7	E	0.36	24.3	-32.4	---	---	726.0	0.026	0.000	20.7	4	1
03/14/06	12:38 p	-18.8	-18.7	-18.8	---	---	21.7	E	0.36	25.2	-32.4	---	---	726.0	0.026	0.000	20.7	4	1
03/14/06	12:39 p	-18.8	-18.8	-18.8	---	---	22.6	E	0.38	27.0	-32.7	---	---	726.0	0.026	0.000	20.7	4	1
03/14/06	12:40 p	-18.8	-18.8	-18.8	---	---	20.0	E	0.33	23.5	-32.0	---	---	726.0	0.026	0.000	20.8	4	1
03/14/06	12:41 p	-18.8	-18.7	-18.8	---	---	22.6	E	0.38	27.0	-32.7	---	---	725.9	0.026	0.000	20.8	4	1
03/14/06	12:42 p	-18.8	-18.8	-18.8	---	---	20.0	E	0.33	22.6	-32.0	---	---	725.9	0.026	0.000	20.8	4	1
03/14/06	12:43 p	-18.8	-18.8	-18.8	---	---	20.9	E	0.35	24.3	-32.2	---	---	726.0	0.026	0.000	20.8	4	1
03/14/06	12:44 p	-18.8	-18.8	-18.8	---	---	21.7	E	0.36	25.2	-32.4	---	---	725.9	0.026	0.000	20.8	4	1
03/14/06	12:45 p	-18.8	-18.8	-18.8	---	---	20.9	E	0.35	24.3	-32.2	---	---	725.9	0.026	0.000	20.8	4	1
03/14/06	12:46 p	-18.8	-18.8	-18.8	---	---	24.3	E	0.41	27.0	-33.1	---	---	725.9	0.026	0.000	20.8	4	1
03/14/06	12:47 p	-18.8	-18.8	-18.8	---	---	23.5	E	0.39	26.1	-32.9	---	---	725.9	0.026	0.000	20.8	4	1
03/14/06	12:48 p	-18.8	-18.8	-18.8	---	---	23.5	E	0.39	27.0	-32.9	---	---	725.8	0.026	0.000	20.7	4	1
03/14/06	12:49 p	-18.8	-18.8	-18.8	---	---	23.5	E	0.39	26.1	-32.9	---	---	725.9	0.026	0.000	20.7	4	1
03/14/06	12:50 p	-18.8	-18.8	-18.8	---	---	22.6	E	0.38	26.1	-32.7	---	---	725.9	0.026	0.000	20.7	4	1
03/14/06	12:51 p	-18.8	-18.8	-18.8	---	---	21.7	E	0.36	26.1	-32.4	---	---	725.9	0.026	0.000	20.7	4	1
03/14/06	12:52 p	-18.8	-18.8	-18.8	---	---	22.6	E	0.38	25.2	-32.7	---	---	725.9	0.026	0.000	20.7	4	1
03/14/06	12:53 p	-18.8	-18.8	-18.8	---	---	23.5	E	0.39	27.8	-32.9	---	---	725.9	0.026	0.000	20.7	4	1
03/14/06	12:54 p	-18.8	-18.7	-18.8	---	---	21.7	E	0.36	26.1	-32.4	---	---	726.0	0.026	0.000	20.7	4	1
03/14/06	12:55 p	-18.8	-18.7	-18.8	---	---	20.0	E	0.33	22.6	-32.0	---	---	725.9	0.026	0.000	20.7	4	1
03/14/06	12:56 p	-18.7	-18.7	-18.7	---	---	19.1	E	0.32	21.7	-31.7	---	---	726.0	0.026	0.000	20.7	4	1
03/14/06	12:57 p	-18.7	-18.7	-18.7	---	---	20.9	E	0.35	23.5	-32.2	---	---	726.0	0.026	0.000	20.7	4	1
03/14/06	12:58 p	-18.7	-18.7	-18.8	---	---	22.6	E	0.38	26.1	-32.6	---	---	726.0	0.026	0.000	20.7	4	1
03/14/06	12:59 p	-18.7	-18.7	-18.7	---	---	20.9	E	0.35	23.5	-32.1	---	---	725.9	0.026	0.000	20.7	4	1
03/14/06	1:00 p	-18.7	-18.7	-18.7	---	---	24.3	E	0.41	27.0	-33.0	---	---	726.1	0.026	0.000	20.7	4	1
03/14/06	1:01 p	-18.7	-18.7	-18.7	---	---	22.6	E	0.38	25.2	-32.5	---	---	726.1	0.026	0.000	20.7	4	1
03/14/06	1:02 p	-18.7	-18.7	-18.7	---	---	21.7	E	0.36	24.3	-32.3	---	---	726.1	0.026	0.000	20.7	4	1
03/14/06	1:03 p	-18.7	-18.6	-18.7	---	---	22.6	E	0.38	25.2	-32.5	---	---	726.1	0.026	0.000	20.7	4	1
03/14/06	1:04 p	-18.7	-18.6	-18.7	---	---	22.6	E	0.38	26.1	-32.5	---	---	726.1	0.026	0.000	20.7	4	1
03/14/06	1:05 p	-18.6	-18.6	-18.7	---	---	20.9	E	0.35	24.3	-32.0	---	---	726.1	0.026	0.000	20.7	4	1
03/14/06	1:06 p	-18.6	-18.6	-18.6	---	---	19.1	E	0.32	22.6	-31.6	---	---	726.1	0.026	0.000	20.7	4	1
03/14/06	1:07 p	-18.6	-18.6	-18.6	---	---	20.0	E	0.33	22.6	-31.8	---	---	726.0	0.026	0.000	20.7	4	1
03/14/06	1:08 p	-18.6	-18.6	-18.6	---	---	20.9	E	0.35	23.5	-32.0	---	---	726.0	0.026	0.000	20.7	4	1
03/14/06	1:09 p	-18.6	-18.6	-18.6	---	---	19.1	E	0.32	21.7	-31.6	---	---	726.1	0.026	0.000	20.6	4	1
03/14/06	1:10 p	-18.6	-18.6	-18.6	---	---	19.1	E	0.32	23.5	-31.4	---	---	726.1	0.026	0.000	20.6	4	1
03/14/06	1:11 p	-18.6	-18.6	-18.6	---	---	18.3	E	0.30	24.3	-31.2	---	---	726.1	0.026	0.000	20.6	4	1
03/14/06	1:12 p	-18.5	-18.5	-18.6	---	---	16.5	E	0.28	20.9	-30.6	---	---	726.1	0.026	0.000	20.7	4	1
03/14/06	1:13 p	-18.5	-18.5	-18.6	---	---	19.1	E	0.32	21.7	-31.4	---	---	726.1	0.026	0.000	20.6	3	1
03/14/06	1:14 p	-18.5	-18.5	-18.5	---	---	19.1	E	0.32	22.6	-31.4	---	---	726.1	0.026	0.000	20.7	3	1
03/14/06	1:15 p	-18.5	-18.5	-18.5	---	---	16.5	E	0.28	19.1	-30.6	---	---	726.2	0.026	0.000	20.6	3	1
03/14/06	1:16 p	-18.4	-18.4	-18.5	---	---	19.1	E	0.32	23.5	-31.3	---	---	726.2	0.026	0.000	20.7	4	1
03/14/06	1:17 p	-18.4	-18.4	-18.4	---	---	16.5	E	0.28	20.0	-30.6	---	---	726.2	0.026	0.000	20.7	3	1
03/14/06	1:18 p	-18.4	-18.4	-18.4	---	---	18.3	E	0.30	21.7	-31.1	---	---	726.2	0.026	0.000	20.7	3	1
03/14/06	1:19 p	-18.4	-18.4	-18.4	---	---	17.4	E	0.29	20.9	-30.8	---	---	726.3	0.026	0.000	20.7	3	1
03/14/06	1:20 p	-18.4	-18.4	-18.4	---	---	17.4	E	0.29	21.7	-30.7	---	---	726.3	0.026	0.000	20.7	3	1
03/14/06	1:21 p	-18.4	-18.4	-18.4	---	---	19.1	E	0.32	21.7	-31.2	---	---	726.3	0.026	0.000	20.7	3	1
03/14/06	1:22 p	-18.4	-18.4	-18.4	---	---	18.3	E	0.30	20.0	-31.0	---	---	726.4	0.026	0.000	20.7	3	1
03/14/06	1:23 p	-18.4	-18.4	-18.4	---	---	13.9	E	0.23	18.3	-29.6	---	---	726.2	0.026	0.000	20.7	3	1
03/14/06	1:24 p	-18.4	-18.4	-18.4	---	---	20.0	E	0.33	21.7	-31.5	---	---	726.2	0.026	0.000	20.7	3	1
03/14/06	1:25 p	-18.4	-18.3	-18.4	---	---	18.3	E	0.30	22.6	-31.0	---	---	726.3	0.026	0.000	20.7	3	1
03/14/06	1:26 p	-18.3	-18.3	-18.3	---	---	13.9	E	0.23	17.4	-29.6	---	---	726.3	0.025	0.000	20.7	3	1
03/14/06	1:27 p	-18.3	-18.3	-18.4	---	---	17.4	E	0.29	22.6	-30.7	---	---	726.3	0.025	0.000	20.7	3	1
03/14/06	1:28 p	-18.3	-18.3	-18.3	---	---	17.4	ENE	0.29	21.7	-30.7	---	---	726.3	0.025	0.000	20.7	3	1
03/14/06	1:29 p	-18.3	-18.3	-18.4	---	---	16.5	E	0.28	23.5	-30.4	---	---	726.2	0.025	0.000	20.7	3	1
03/14/06	1:30 p	-18.4	-18.3	-18.4	---	---	20.9	ENE	0.35	23.5	-31.7	---	---	726.2	0.026	0.000	20.7	3	1
03/14/06	1:31 p	-18.3	-18.3	-18.3	---	---	18.3	E	0.30	20.9	-30.9	---	---	726.2	0.025	0.000	20.7	3	1
03/14/06	1:32 p	-18.4	-18.3	-18.4	---	---	18.3	E	0.30	20.9	-31.0	---	---	726.1	0.026	0.000	20.7	3	1
03/14/06	1:33 p	-18.4	-18.3	-18.4	---	---	20.0	E	0.33	21.7	-31.5	---	---	726.3	0.026	0.000	20.7	3	1
03/14/06	1:34 p	-18.3	-18.3	-18.4	---	---	17.4	ENE	0.29	21.7	-30.7	---	---	726.3	0.025	0.000	20.7	3	1
03/14/06	1:35 p	-18.4	-18.3	-18.4	---	---	20.0	ENE	0.33	21.7	-31.5	---	---	726.2	0.026	0.000	20.7	3	1
03/14/06	1:36 p	-18.4	-18.3	-18.4	---	---	19.1	E	0.32	21.7	-31.2	---	---	726.1	0.026	0.000	20.7	3	1
03/14/06	1:37 p	-18.4	-18.4	-18.4	---	---	19.1	ENE	0.32	20.9	-31.2	---	---	726.2	0.026	0.000	20.7	3	1
03/14/06	1:38 p	-18.4	-18.4	-18.4	---	---	20.0	ENE	0.33	21.7	-31.5	---	---	726.1	0.026	0.000	20.7	3	1
03/14/06	1:39 p	-18.4	-18.4	-18.4	---	---	21.7	ENE	0.36	22.6	-31.9	---	---	726.1	0.026	0.000	20.7	3	1
03/14/06	1:40 p	-18.4	-18.4	-18.4	---	---	21.7	ENE	0.36	24.3	-31.9	---	---	726.1	0.026	0.000	20.7	3	1
03/14/06	1:41 p	-18.4	-18.4	-18.4	---	---	20.0	ENE	0.33	22.6	-31.5	---	---	726.2	0.026	0.000	20.7	3	1
03/14/06	1:42 p	-18.4	-18.4	-18.4	---	---	18.3	E	0.30	20.9	-31.0	---	---	726.0	0.026	0.000	20.7	3	1
03/14/06	1:43 p	-18.4	-18.4	-18.4	---	---	23.5	ENE	0.39	29.6	-32.3	---	---	726.1	0.026	0.000	20.7	3	1
03/14/06	1:44 p	-18.4	-18.3	-18.4	---	---	15.7	E	0.26	21.7	-30.2	---	---	726.1	0.026	0.000	20.7	3	1
03/14/06	1:45 p	-18.4	-18.4	-18.4	---	---	19.1	ENE	0.32	24.3	-31.2	---	---	726.1	0.026	0.000	20.7	3	1
03/14/06	1:46 p	-18.4	-18.4	-18.4	---	---	22.6	ENE	0.38	26.1	-32.1	---	---	726.1	0.026	0.000	20.7	3	1
03/14/06	1:47 p	-18.4	-18.4	-18.4	---	---	20.9	ENE	0.35	25.2	-31.7	---	---	726.1	0.026	0.000	20.7	3	1
03/14/06	1:48 p	-18.4	-18.4	-18.4	---	---	20.9	E	0.35	22.6	-31.7	---	---	726.1	0.026	0.000	20.8	3	1
03/14/06	1:49 p	-18.4	-18.4	-18.4	---	---	18.3	E	0.30	20.0	-31.0	---	---	726.1	0.026	0.000	20.8	3	1
03/14/06	1:50 p	-18.4	-18.4	-18.4	---	---	18.3	ESE	0.30	19.1	-31.0	---	---	726.2	0.026	0.000	20.8	3	1
03/14/06	1:51 p	-18.4	-18.3	-18.4	---	---	20.0	ENE	0.33	26.1	-31.5	---	---	726.0	0.026	0.000	20.8	3	1
03/14/06	1:52 p	-18.4	-18.4	-18.4	---	---	22.6	ENE	0.38	26.1	-32.1	---	---	726.1	0.026	0.000	20.7	3	1
03/14/06	1:53 p	-18.4	-18.3	-18.4	---	---	16.5	E	0.28	19.1	-30.5	---	---	726.1	0.026	0.000	20.7	3	1
03/14/06	1:54 p	-18.4	-18.3	-18.4	---	---	17.4	ESE	0.29	19.1	-30.7	---	---	726.0	0.026	0.000	20.8	3	1
03/14/06	1:55 p	-18.3	-18.3	-18.4	---	---	19.1	ESE	0.32	27.0	-31.2	---	---	725.9	0.025	0.000	20.8	3	1
03/14/06	1:56 p	-18.4	-18.3	-18.4	---	---	18.3	E	0.30	24.3	-31.0	---	---	726.1	0.026	0.000	20.7	3	1
03/14/06	1:57 p	-18.3	-18.3	-18.4	---	---	16.5	E	0.28	19.1	-30.4	---	---	726.0	0.025	0.000	20.7	3	1
03/14/06	1:58 p	-18.3	-18.3	-18.3	---	---	17.4	E	0.29	21.7	-30.7	---	---	726.1	0.025	0.000	20.7	3	1
03/14/06	1:59 p	-18.3	-18.3	-18.4	---	---	20.9	ENE	0.35	21.7	-31.6	---	---	726.0	0.025	0.000	20.7	3	1
03/14/06	2:00 p	-18.3	-18.3	-18.3	---	---	20.0	ENE	0.33	22.6	-31.4	---	---	726.0	0.025	0.000	20.7	3	1
03/14/06	2:01 p	-18.3	-18.3	-18.3	---	---	17.4	E	0.29	20.0	-30.7	---	---	726.1	0.025	0.000	20.7	3	1
03/14/06	2:02 p	-18.3	-18.3	-18.3	---	---	17.4	E	0.29	20.9	-30.6	---	---	726.0	0.025	0.000	20.7	3	1
03/14/06	2:03 p	-18.3	-18.3	-18.3	---	---	14.8	E	0.25	18.3	-29.8	---	---	726.0	0.025	0.000	20.7	3	1
03/14/06	2:04 p	-18.3	-18.3	-18.3	---	---	16.5	E	0.28	20.0	-30.3	---	---	725.9	0.025	0.000	20.7	3	1
03/14/06	2:05 p	-18.3	-18.3	-18.3	---	---	17.4	E	0.29	20.0	-30.6	---	---	725.9	0.025	0.000	20.7	3	1
03/14/06	2:06 p	-18.2	-18.2	-18.3	---	---	19.1	E	0.32	21.7	-31.0	---	---	725.9	0.025	0.000	20.7	3	1
03/14/06	2:07 p	-18.2	-18.2	-18.2	---	---	17.4	E	0.29	20.9	-30.5	---	---	725.9	0.025	0.000	20.7	3	1
03/14/06	2:08 p	-18.2	-18.2	-18.2	---	---	19.1	E	0.32	20.9	-31.0	---	---	725.8	0.025	0.000	20.7	3	1
03/14/06	2:09 p	-18.2	-18.2	-18.2	---	---	16.5	E	0.28	20.9	-30.3	---	---	725.9	0.025	0.000	20.7	3	1
03/14/06	2:10 p	-18.2	-18.2	-18.2	---	---	16.5	E	0.28	20.0	-30.3	---	---	725.8	0.025	0.000	20.7	3	1
03/14/06	2:11 p	-18.2	-18.2	-18.2	---	---	17.4	E	0.29	20.0	-30.4	---	---	725.8	0.025	0.000	20.7	3	1
03/14/06	2:12 p	-18.2	-18.2	-18.2	---	---	17.4	E	0.29	21.7	-30.4	---	---	725.8	0.025	0.000	20.7	3	1
03/14/06	2:13 p	-18.1	-18.1	-18.2	---	---	18.3	E	0.30	20.9	-30.6	---	---	725.8	0.025	0.000	20.7	3	1
03/14/06	2:14 p	-18.1	-18.1	-18.2	---	---	19.1	E	0.32	23.5	-30.9	---	---	725.8	0.025	0.000	20.7	3	1
03/14/06	2:15 p	-18.1	-18.1	-18.1	---	---	18.3	E	0.30	21.7	-30.6	---	---	725.7	0.025	0.000	20.7	3	1
03/14/06	2:16 p	-18.1	-18.1	-18.1	---	---	18.3	E	0.30	21.7	-30.6	---	---	725.8	0.025	0.000	20.7	3	1
03/14/06	2:17 p	-18.1	-18.1	-18.1	---	---	20.0	E	0.33	23.5	-31.1	---	---	725.7	0.025	0.000	20.7	3	1
03/14/06	2:18 p	-18.1	-18.1	-18.1	---	---	22.6	ENE	0.38	25.2	-31.7	---	---	725.7	0.025	0.000	20.7	3	1
03/14/06	2:19 p	-18.1	-18.0	-18.1	---	---	20.9	ENE	0.35	23.5	-31.3	---	---	725.7	0.025	0.000	20.7	3	1
03/14/06	2:20 p	-18.0	-17.9	-18.0	---	---	18.3	E	0.30	23.5	-30.5	---	---	725.8	0.025	0.000	20.7	3	1
03/14/06	2:21 p	-18.0	-17.9	-18.0	---	---	18.3	E	0.30	21.7	-30.5	---	---	725.8	0.025	0.000	20.7	3	1
03/14/06	2:22 p	-17.9	-17.9	-18.0	---	---	18.3	E	0.30	23.5	-30.4	---	---	725.7	0.025	0.000	20.6	3	1
03/14/06	2:23 p	-17.9	-17.9	-17.9	---	---	20.9	E	0.35	23.5	-31.1	---	---	725.7	0.025	0.000	20.6	3	1
03/14/06	2:24 p	-17.9	-17.9	-17.9	---	---	20.9	ENE	0.35	22.6	-31.1	---	---	725.7	0.025	0.000	20.6	3	1
03/14/06	2:25 p	-17.9	-17.9	-17.9	---	---	20.0	E	0.33	24.3	-30.8	---	---	725.7	0.025	0.000	20.6	3	1
03/14/06	2:26 p	-17.9	-17.9	-17.9	---	---	20.9	ENE	0.35	22.6	-31.1	---	---	725.7	0.025	0.000	20.6	3	1
03/14/06	2:27 p	-17.9	-17.8	-17.9	---	---	20.0	E	0.33	23.5	-30.8	---	---	725.6	0.025	0.000	20.6	3	1
03/14/06	2:28 p	-17.8	-17.8	-17.9	---	---	20.9	E	0.35	22.6	-30.9	---	---	725.7	0.025	0.000	20.6	3	1
03/14/06	2:29 p	-17.8	-17.8	-17.8	---	---	20.0	E	0.33	21.7	-30.7	---	---	725.6	0.025	0.000	20.6	3	1
03/14/06	2:30 p	-17.8	-17.8	-17.8	---	---	20.0	ENE	0.33	21.7	-30.7	---	---	725.7	0.025	0.000	20.6	3	1
03/14/06	2:31 p	-17.8	-17.8	-17.8	---	---	20.0	ENE	0.33	23.5	-30.7	---	---	725.6	0.025	0.000	20.6	3	1
03/14/06	2:32 p	-17.8	-17.8	-17.8	---	---	21.7	ENE	0.36	23.5	-31.1	---	---	725.7	0.025	0.000	20.6	3	1
03/14/06	2:33 p	-17.8	-17.7	-17.8	---	---	21.7	ENE	0.36	23.5	-31.1	---	---	725.7	0.025	0.000	20.6	3	1
03/14/06	2:34 p	-17.7	-17.7	-17.7	---	---	19.1	E	0.32	22.6	-30.4	---	---	725.6	0.025	0.000	20.6	3	1
03/14/06	2:35 p	-17.7	-17.7	-17.7	---	---	18.3	E	0.30	21.7	-30.1	---	---	725.6	0.025	0.000	20.6	3	1
03/14/06	2:36 p	-17.7	-17.7	-17.7	---	---	18.3	E	0.30	20.0	-30.1	---	---	725.6	0.025	0.000	20.6	3	1
03/14/06	2:37 p	-17.7	-17.7	-17.7	---	---	20.0	E	0.33	23.5	-30.5	---	---	725.5	0.025	0.000	20.6	3	1
03/14/06	2:38 p	-17.7	-17.7	-17.7	---	---	19.1	E	0.32	21.7	-30.3	---	---	725.5	0.025	0.000	20.6	3	1
03/14/06	2:39 p	-17.7	-17.6	-17.7	---	---	17.4	E	0.29	20.9	-29.8	---	---	725.6	0.025	0.000	20.6	3	1
03/14/06	2:40 p	-17.6	-17.6	-17.6	---	---	18.3	E	0.30	20.9	-30.0	---	---	725.5	0.025	0.000	20.6	3	1
03/14/06	2:41 p	-17.6	-17.6	-17.6	---	---	18.3	E	0.30	20.0	-30.0	---	---	725.5	0.025	0.000	20.6	3	1
03/14/06	2:42 p	-17.6	-17.6	-17.6	---	---	18.3	E	0.30	20.9	-30.0	---	---	725.5	0.025	0.000	20.6	3	1
03/14/06	2:43 p	-17.6	-17.6	-17.6	---	---	20.9	E	0.35	24.3	-30.6	---	---	725.5	0.025	0.000	20.6	3	1
03/14/06	2:44 p	-17.6	-17.6	-17.6	---	---	22.6	E	0.38	25.2	-31.0	---	---	725.5	0.025	0.000	20.6	3	1
03/14/06	2:45 p	-17.6	-17.5	-17.6	---	---	21.7	E	0.36	24.3	-30.8	---	---	725.3	0.025	0.000	20.6	3	1
03/14/06	2:46 p	-17.5	-17.5	-17.5	---	---	22.6	E	0.38	25.2	-30.9	---	---	725.4	0.025	0.000	20.6	3	1
03/14/06	2:47 p	-17.5	-17.4	-17.6	---	---	21.7	E	0.36	24.3	-30.7	---	---	725.4	0.025	0.000	20.6	3	1
03/14/06	2:48 p	-17.4	-17.4	-17.5	---	---	22.6	E	0.38	24.3	-30.9	---	---	725.4	0.025	0.000	20.6	3	1
03/14/06	2:49 p	-17.4	-17.4	-17.4	---	---	20.0	E	0.33	24.3	-30.2	---	---	725.4	0.025	0.000	20.6	3	1
03/14/06	2:50 p	-17.4	-17.4	-17.4	---	---	21.7	E	0.36	26.1	-30.6	---	---	725.4	0.025	0.000	20.6	3	1
03/14/06	2:51 p	-17.4	-17.4	-17.4	---	---	20.9	E	0.35	24.3	-30.4	---	---	725.4	0.025	0.000	20.6	3	1
03/14/06	2:52 p	-17.3	-17.3	-17.4	---	---	21.7	E	0.36	24.3	-30.5	---	---	725.4	0.025	0.000	20.6	3	1
03/14/06	2:53 p	-17.3	-17.3	-17.3	---	---	20.9	E	0.35	24.3	-30.3	---	---	725.4	0.025	0.000	20.6	3	1
03/14/06	2:54 p	-17.3	-17.3	-17.3	---	---	21.7	E	0.36	24.3	-30.5	---	---	725.4	0.025	0.000	20.6	3	1
03/14/06	2:55 p	-17.3	-17.3	-17.3	---	---	23.5	E	0.39	26.1	-30.8	---	---	725.4	0.025	0.000	20.6	3	1
03/14/06	2:56 p	-17.3	-17.2	-17.3	---	---	20.9	E	0.35	24.3	-30.2	---	---	725.4	0.025	0.000	20.6	3	1
03/14/06	2:57 p	-17.2	-17.2	-17.3	---	---	21.7	E	0.36	24.3	-30.4	---	---	725.4	0.025	0.000	20.6	3	1
03/14/06	2:58 p	-17.2	-17.2	-17.2	---	---	22.6	E	0.38	26.1	-30.6	---	---	725.3	0.025	0.000	20.6	3	1
03/14/06	2:59 p	-17.2	-17.2	-17.2	---	---	21.7	E	0.36	25.2	-30.3	---	---	725.4	0.025	0.000	20.6	3	1
03/14/06	3:00 p	-17.2	-17.2	-17.2	---	---	21.7	E	0.36	25.2	-30.3	---	---	725.4	0.025	0.000	20.6	3	1
03/14/06	3:01 p	-17.2	-17.1	-17.2	---	---	21.7	E	0.36	24.3	-30.3	---	---	725.4	0.025	0.000	20.6	3	1
03/14/06	3:02 p	-17.1	-17.1	-17.1	---	---	22.6	E	0.38	24.3	-30.4	---	---	725.4	0.025	0.000	20.6	3	1
03/14/06	3:03 p	-17.1	-17.1	-17.1	---	---	20.9	E	0.35	24.3	-29.9	---	---	725.4	0.025	0.000	20.6	3	1
03/14/06	3:04 p	-17.1	-17.1	-17.1	---	---	20.0	E	0.33	24.3	-29.7	---	---	725.3	0.025	0.000	20.6	3	1
03/14/06	3:05 p	-17.1	-17.0	-17.1	---	---	22.6	ENE	0.38	27.0	-30.3	---	---	725.4	0.025	0.000	20.6	3	1
03/14/06	3:06 p	-17.0	-17.0	-17.1	---	---	22.6	ENE	0.38	25.2	-30.3	---	---	725.4	0.025	0.000	20.6	3	1
03/14/06	3:07 p	-17.0	-17.0	-17.1	---	---	23.5	E	0.39	26.1	-30.5	---	---	725.4	0.025	0.000	20.6	3	1
03/14/06	3:08 p	-17.0	-16.9	-17.0	---	---	21.7	E	0.36	26.1	-30.1	---	---	725.4	0.025	0.000	20.6	3	1
03/14/06	3:09 p	-16.9	-16.9	-16.9	---	---	20.9	E	0.35	23.5	-29.8	---	---	725.4	0.024	0.000	20.6	3	1
03/14/06	3:10 p	-16.9	-16.9	-16.9	---	---	20.9	E	0.35	24.3	-29.8	---	---	725.5	0.024	0.000	20.6	3	1
03/14/06	3:11 p	-16.9	-16.9	-16.9	---	---	23.5	ENE	0.39	25.2	-30.3	---	---	725.3	0.024	0.000	20.6	3	1
03/14/06	3:12 p	-16.9	-16.9	-16.9	---	---	22.6	E	0.38	24.3	-30.1	---	---	725.4	0.024	0.000	20.6	3	1
03/14/06	3:13 p	-16.8	-16.8	-16.9	---	---	20.9	E	0.35	23.5	-29.6	---	---	725.4	0.024	0.000	20.6	3	1
03/14/06	3:14 p	-16.8	-16.8	-16.9	---	---	22.6	E	0.38	25.2	-30.1	---	---	725.3	0.024	0.000	20.6	3	1
03/14/06	3:15 p	-16.8	-16.8	-16.8	---	---	23.5	E	0.39	27.8	-30.2	---	---	725.3	0.024	0.000	20.6	3	1
03/14/06	3:16 p	-16.8	-16.8	-16.8	---	---	23.5	E	0.39	25.2	-30.2	---	---	725.4	0.024	0.000	20.6	3	1
03/14/06	3:17 p	-16.8	-16.8	-16.8	---	---	23.5	E	0.39	26.1	-30.2	---	---	725.4	0.024	0.000	20.6	3	1
03/14/06	3:18 p	-16.8	-16.8	-16.8	---	---	24.3	ENE	0.41	27.8	-30.4	---	---	725.3	0.024	0.000	20.5	3	1
03/14/06	3:19 p	-16.8	-16.8	-16.8	---	---	23.5	E	0.39	27.8	-30.2	---	---	725.3	0.024	0.000	20.5	3	1
03/14/06	3:20 p	-16.7	-16.7	-16.7	---	---	25.2	ENE	0.42	27.0	-30.5	---	---	725.3	0.024	0.000	20.5	3	1
03/14/06	3:21 p	-16.7	-16.7	-16.7	---	---	24.3	ENE	0.41	26.1	-30.3	---	---	725.4	0.024	0.000	20.5	3	1
03/14/06	3:22 p	-16.7	-16.7	-16.7	---	---	24.3	ENE	0.41	27.8	-30.3	---	---	725.2	0.024	0.000	20.5	3	1
03/14/06	3:23 p	-16.7	-16.7	-16.7	---	---	25.2	ENE	0.42	27.0	-30.5	---	---	725.4	0.024	0.000	20.5	3	1
03/14/06	3:24 p	-16.7	-16.7	-16.7	---	---	23.5	ENE	0.39	26.1	-30.0	---	---	725.2	0.024	0.000	20.5	3	1
03/14/06	3:25 p	-16.7	-16.7	-16.7	---	---	24.3	ENE	0.41	27.8	-30.2	---	---	725.2	0.024	0.000	20.5	3	1
03/14/06	3:26 p	-16.7	-16.6	-16.7	---	---	25.2	E	0.42	27.8	-30.4	---	---	725.3	0.024	0.000	20.5	3	1
03/14/06	3:27 p	-16.6	-16.6	-16.6	---	---	26.1	ENE	0.43	28.7	-30.5	---	---	725.3	0.024	0.000	20.5	3	1
03/14/06	3:28 p	-16.6	-16.6	-16.6	---	---	25.2	ENE	0.42	27.8	-30.3	---	---	725.2	0.024	0.000	20.5	3	1
03/14/06	3:29 p	-16.6	-16.6	-16.6	---	---	24.3	ENE	0.41	27.0	-30.2	---	---	725.3	0.024	0.000	20.5	3	1
03/14/06	3:30 p	-16.6	-16.6	-16.6	---	---	25.2	E	0.42	27.0	-30.3	---	---	725.2	0.024	0.000	20.5	3	1
03/14/06	3:31 p	-16.6	-16.6	-16.6	---	---	26.1	ENE	0.43	28.7	-30.4	---	---	725.3	0.024	0.000	20.5	3	1
03/14/06	3:32 p	-16.6	-16.6	-16.6	---	---	23.5	ENE	0.39	27.0	-29.9	---	---	725.4	0.024	0.000	20.5	3	1
03/14/06	3:33 p	-16.6	-16.6	-16.6	---	---	22.6	E	0.38	26.1	-29.7	---	---	725.3	0.024	0.000	20.5	3	1
03/14/06	3:34 p	-16.6	-16.6	-16.6	---	---	23.5	ENE	0.39	27.8	-29.9	---	---	725.3	0.024	0.000	20.5	3	1
03/14/06	3:35 p	-16.6	-16.6	-16.6	---	---	23.5	E	0.39	27.0	-29.9	---	---	725.4	0.024	0.000	20.5	3	1
03/14/06	3:36 p	-16.6	-16.6	-16.6	---	---	23.5	ENE	0.39	25.2	-29.9	---	---	725.3	0.024	0.000	20.5	3	1
03/14/06	3:37 p	-16.6	-16.6	-16.6	---	---	21.7	E	0.36	25.2	-29.5	---	---	725.3	0.024	0.000	20.5	3	1
03/14/06	3:38 p	-16.6	-16.6	-16.6	---	---	25.2	ENE	0.42	27.0	-30.3	---	---	725.3	0.024	0.000	20.5	3	1
03/14/06	3:39 p	-16.6	-16.6	-16.6	---	---	22.6	E	0.38	24.3	-29.7	---	---	725.3	0.024	0.000	20.5	3	1
03/14/06	3:40 p	-16.6	-16.6	-16.6	---	---	24.3	ENE	0.41	26.1	-30.1	---	---	725.3	0.024	0.000	20.5	3	1
03/14/06	3:41 p	-16.6	-16.6	-16.6	---	---	24.3	ENE	0.41	26.1	-30.1	---	---	725.3	0.024	0.000	20.5	3	1
03/14/06	3:42 p	-16.6	-16.6	-16.6	---	---	23.5	ENE	0.39	26.1	-29.9	---	---	725.3	0.024	0.000	20.6	3	1
03/14/06	3:43 p	-16.6	-16.6	-16.6	---	---	24.3	ENE	0.41	27.0	-30.1	---	---	725.3	0.024	0.000	20.6	3	1
03/14/06	3:44 p	-16.6	-16.6	-16.6	---	---	26.1	ENE	0.43	27.8	-30.4	---	---	725.3	0.024	0.000	20.6	3	1
03/14/06	3:45 p	-16.6	-16.6	-16.6	---	---	25.2	ENE	0.42	27.8	-30.3	---	---	725.3	0.024	0.000	20.6	3	1
03/14/06	3:46 p	-16.6	-16.6	-16.6	---	---	24.3	ENE	0.41	26.1	-30.1	---	---	725.3	0.024	0.000	20.6	3	1
03/14/06	3:47 p	-16.6	-16.6	-16.6	---	---	23.5	E	0.39	27.0	-29.9	---	---	725.4	0.024	0.000	20.5	3	1
03/14/06	3:48 p	-16.6	-16.6	-16.6	---	---	20.9	E	0.35	24.3	-29.3	---	---	725.3	0.024	0.000	20.5	3	1
03/14/06	3:49 p	-16.6	-16.6	-16.7	---	---	20.9	E	0.35	26.1	-29.3	---	---	725.4	0.024	0.000	20.5	3	1
03/14/06	3:50 p	-16.6	-16.6	-16.7	---	---	20.9	E	0.35	23.5	-29.3	---	---	725.4	0.024	0.000	20.5	3	1
03/14/06	3:51 p	-16.7	-16.7	-16.7	---	---	20.9	E	0.35	24.3	-29.4	---	---	725.4	0.024	0.000	20.5	3	1
03/14/06	3:52 p	-16.7	-16.7	-16.7	---	---	20.9	E	0.35	24.3	-29.4	---	---	725.4	0.024	0.000	20.5	3	1
03/14/06	3:53 p	-16.7	-16.7	-16.7	---	---	20.9	E	0.35	22.6	-29.4	---	---	725.5	0.024	0.000	20.5	3	1
03/14/06	3:54 p	-16.7	-16.7	-16.7	---	---	19.1	E	0.32	21.7	-29.1	---	---	725.4	0.024	0.000	20.5	3	1
03/14/06	3:55 p	-16.7	-16.7	-16.7	---	---	20.0	E	0.33	24.3	-29.3	---	---	725.5	0.024	0.000	20.5	3	1
03/14/06	3:56 p	-16.8	-16.8	-16.8	---	---	20.9	E	0.35	24.3	-29.6	---	---	725.4	0.024	0.000	20.5	3	1
03/14/06	3:57 p	-16.8	-16.8	-16.8	---	---	21.7	E	0.36	25.2	-29.8	---	---	725.4	0.024	0.000	20.5	3	1
03/14/06	3:58 p	-16.8	-16.8	-16.8	---	---	20.0	E	0.33	23.5	-29.3	---	---	725.4	0.024	0.000	20.5	3	1
03/14/06	3:59 p	-16.8	-16.8	-16.9	---	---	19.1	E	0.32	22.6	-29.2	---	---	725.4	0.024	0.000	20.5	3	1
03/14/06	4:00 p	-16.8	-16.8	-16.9	---	---	20.9	E	0.35	23.5	-29.6	---	---	725.4	0.024	0.000	20.5	3	1
03/14/06	4:01 p	-16.9	-16.9	-16.9	---	---	20.9	E	0.35	24.3	-29.7	---	---	725.4	0.024	0.000	20.5	3	1
03/14/06	4:02 p	-16.9	-16.9	-16.9	---	---	20.0	E	0.33	22.6	-29.5	---	---	725.4	0.024	0.000	20.5	3	1
03/14/06	4:03 p	-16.9	-16.9	-16.9	---	---	20.9	E	0.35	23.5	-29.8	---	---	725.4	0.024	0.000	20.4	3	1
03/14/06	4:04 p	-16.9	-16.9	-17.0	---	---	20.0	E	0.33	22.6	-29.6	---	---	725.6	0.024	0.000	20.4	3	1
03/14/06	4:05 p	-17.0	-16.9	-17.0	---	---	20.0	E	0.33	23.5	-29.6	---	---	725.6	0.025	0.000	20.4	3	1
03/14/06	4:06 p	-17.0	-16.9	-17.0	---	---	18.3	E	0.30	20.9	-29.2	---	---	725.6	0.025	0.000	20.4	3	1
03/14/06	4:07 p	-17.0	-17.0	-17.0	---	---	19.1	E	0.32	23.5	-29.4	---	---	725.6	0.025	0.000	20.4	3	1
03/14/06	4:08 p	-17.0	-17.0	-17.1	---	---	19.1	E	0.32	22.6	-29.4	---	---	725.6	0.025	0.000	20.4	3	1
03/14/06	4:09 p	-17.1	-17.1	-17.1	---	---	17.4	E	0.29	22.6	-29.0	---	---	725.7	0.025	0.000	20.4	3	1
03/14/06	4:10 p	-17.1	-17.1	-17.1	---	---	20.0	E	0.33	22.6	-29.7	---	---	725.7	0.025	0.000	20.4	3	1
03/14/06	4:11 p	-17.1	-17.1	-17.1	---	---	18.3	E	0.30	23.5	-29.2	---	---	725.7	0.025	0.000	20.4	2	1
03/14/06	4:12 p	-17.1	-17.1	-17.1	---	---	18.3	E	0.30	21.7	-29.3	---	---	725.6	0.025	0.000	20.4	3	1
03/14/06	4:13 p	-17.2	-17.1	-17.2	---	---	17.4	E	0.29	20.0	-29.2	---	---	725.8	0.025	0.000	20.4	3	1
03/14/06	4:14 p	-17.1	-17.1	-17.2	---	---	18.3	E	0.30	22.6	-29.3	---	---	725.7	0.025	0.000	20.4	2	1
03/14/06	4:15 p	-17.2	-17.2	-17.2	---	---	16.5	E	0.28	21.7	-28.9	---	---	725.7	0.025	0.000	20.4	2	1
03/14/06	4:16 p	-17.2	-17.2	-17.2	---	---	18.3	E	0.30	20.0	-29.4	---	---	725.7	0.025	0.000	20.4	3	1
03/14/06	4:17 p	-17.2	-17.2	-17.2	---	---	20.9	E	0.35	24.3	-30.2	---	---	725.5	0.025	0.000	20.4	2	1
03/14/06	4:18 p	-17.2	-17.2	-17.2	---	---	19.1	E	0.32	21.7	-29.7	---	---	725.7	0.025	0.000	20.4	2	1
03/14/06	4:19 p	-17.2	-17.2	-17.3	---	---	19.1	E	0.32	23.5	-29.7	---	---	725.6	0.025	0.000	20.4	2	1
03/14/06	4:20 p	-17.3	-17.3	-17.3	---	---	18.3	E	0.30	20.9	-29.6	---	---	725.6	0.025	0.000	20.4	2	1
03/14/06	4:21 p	-17.3	-17.3	-17.3	---	---	18.3	E	0.30	21.7	-29.6	---	---	725.7	0.025	0.000	20.4	2	1
03/14/06	4:22 p	-17.3	-17.3	-17.3	---	---	18.3	E	0.30	22.6	-29.6	---	---	725.7	0.025	0.000	20.4	3	1
03/14/06	4:23 p	-17.3	-17.3	-17.3	---	---	17.4	E	0.29	21.7	-29.3	---	---	725.7	0.025	0.000	20.4	3	1
03/14/06	4:24 p	-17.3	-17.3	-17.3	---	---	17.4	E	0.29	21.7	-29.3	---	---	725.7	0.025	0.000	20.4	3	1
03/14/06	4:25 p	-17.3	-17.3	-17.4	---	---	19.1	E	0.32	23.5	-29.8	---	---	725.7	0.025	0.000	20.4	3	1
03/14/06	4:26 p	-17.4	-17.3	-17.4	---	---	19.1	E	0.32	21.7	-29.9	---	---	725.6	0.025	0.000	20.4	3	1
03/14/06	4:27 p	-17.4	-17.3	-17.4	---	---	18.3	E	0.30	23.5	-29.7	---	---	725.7	0.025	0.000	20.4	3	1
03/14/06	4:28 p	-17.4	-17.4	-17.4	---	---	18.3	E	0.30	21.7	-29.7	---	---	725.7	0.025	0.000	20.4	3	1
03/14/06	4:29 p	-17.4	-17.4	-17.4	---	---	17.4	E	0.29	20.0	-29.4	---	---	725.7	0.025	0.000	20.4	2	1
03/14/06	4:30 p	-17.4	-17.4	-17.4	---	---	17.4	E	0.29	20.9	-29.5	---	---	725.7	0.025	0.000	20.4	3	1
03/14/06	4:31 p	-17.4	-17.4	-17.4	---	---	17.4	E	0.29	20.0	-29.5	---	---	725.7	0.025	0.000	20.4	3	1
03/14/06	4:32 p	-17.4	-17.4	-17.5	---	---	18.3	E	0.30	21.7	-29.8	---	---	725.7	0.025	0.000	20.5	2	1
03/14/06	4:33 p	-17.5	-17.5	-17.5	---	---	19.1	E	0.32	21.7	-30.1	---	---	725.7	0.025	0.000	20.5	2	1
03/14/06	4:34 p	-17.6	-17.5	-17.6	---	---	17.4	E	0.29	20.0	-29.7	---	---	725.7	0.025	0.000	20.4	2	1
03/14/06	4:35 p	-17.6	-17.6	-17.6	---	---	17.4	E	0.29	20.9	-29.7	---	---	725.7	0.025	0.000	20.4	3	1
03/14/06	4:36 p	-17.6	-17.6	-17.6	---	---	16.5	E	0.28	20.0	-29.4	---	---	725.7	0.025	0.000	20.4	2	1
03/14/06	4:37 p	-17.6	-17.6	-17.6	---	---	17.4	E	0.29	20.9	-29.7	---	---	725.7	0.025	0.000	20.4	2	1
03/14/06	4:38 p	-17.6	-17.6	-17.6	---	---	19.1	E	0.32	22.6	-30.2	---	---	725.7	0.025	0.000	20.4	2	1
03/14/06	4:39 p	-17.6	-17.6	-17.7	---	---	17.4	E	0.29	21.7	-29.7	---	---	725.7	0.025	0.000	20.4	2	1
03/14/06	4:40 p	-17.7	-17.7	-17.7	---	---	17.4	E	0.29	20.0	-29.8	---	---	725.7	0.025	0.000	20.4	2	1
03/14/06	4:41 p	-17.7	-17.7	-17.7	---	---	16.5	E	0.28	20.9	-29.6	---	---	725.8	0.025	0.000	20.4	3	1
03/14/06	4:42 p	-17.7	-17.7	-17.8	---	---	16.5	E	0.28	18.3	-29.6	---	---	725.8	0.025	0.000	20.4	2	1
03/14/06	4:43 p	-17.8	-17.8	-17.8	---	---	16.5	E	0.28	19.1	-29.7	---	---	725.7	0.025	0.000	20.4	3	1
03/14/06	4:44 p	-17.8	-17.8	-17.8	---	---	18.3	E	0.30	22.6	-30.2	---	---	725.7	0.025	0.000	20.4	3	1
03/14/06	4:45 p	-17.8	-17.8	-17.8	---	---	16.5	E	0.28	21.7	-29.8	---	---	725.8	0.025	0.000	20.4	2	1
03/14/06	4:46 p	-17.8	-17.8	-17.8	---	---	16.5	E	0.28	20.0	-29.8	---	---	725.7	0.025	0.000	20.4	3	1
03/14/06	4:47 p	-17.9	-17.8	-17.9	---	---	17.4	E	0.29	20.9	-30.1	---	---	725.7	0.025	0.000	20.4	2	1
03/14/06	4:48 p	-17.8	-17.8	-17.9	---	---	17.4	E	0.29	20.0	-30.0	---	---	725.7	0.025	0.000	20.4	2	1
03/14/06	4:49 p	-17.9	-17.9	-17.9	---	---	17.4	E	0.29	22.6	-30.2	---	---	725.7	0.025	0.000	20.4	2	1
03/14/06	4:50 p	-17.9	-17.9	-18.0	---	---	20.0	E	0.33	24.3	-30.9	---	---	725.7	0.025	0.000	20.4	2	1
03/14/06	4:51 p	-17.9	-17.9	-18.0	---	---	20.0	ENE	0.33	21.7	-30.9	---	---	725.7	0.025	0.000	20.4	2	1
03/14/06	4:52 p	-17.9	-17.9	-18.0	---	---	17.4	E	0.29	21.7	-30.2	---	---	725.7	0.025	0.000	20.4	2	1
03/14/06	4:53 p	-18.0	-18.0	-18.1	---	---	16.5	E	0.28	21.7	-29.9	---	---	725.7	0.025	0.000	20.4	2	1
03/14/06	4:54 p	-18.1	-18.0	-18.1	---	---	17.4	E	0.29	20.9	-30.3	---	---	725.8	0.025	0.000	20.4	2	1
03/14/06	4:55 p	-18.1	-18.1	-18.1	---	---	16.5	E	0.28	20.9	-30.1	---	---	725.7	0.025	0.000	20.4	2	1
03/14/06	4:56 p	-18.1	-18.1	-18.1	---	---	19.1	E	0.32	22.6	-30.9	---	---	725.6	0.025	0.000	20.4	3	1
03/14/06	4:57 p	-18.1	-18.1	-18.2	---	---	15.7	E	0.26	19.1	-29.8	---	---	725.7	0.025	0.000	20.4	2	1
03/14/06	4:58 p	-18.2	-18.1	-18.2	---	---	15.7	E	0.26	18.3	-29.9	---	---	725.7	0.025	0.000	20.4	2	1
03/14/06	4:59 p	-18.2	-18.2	-18.2	---	---	15.7	E	0.26	19.1	-29.9	---	---	725.6	0.025	0.000	20.4	2	1
03/14/06	5:00 p	-18.2	-18.2	-18.2	---	---	20.0	E	0.33	22.6	-31.3	---	---	725.6	0.025	0.000	20.4	2	1
03/14/06	5:01 p	-18.2	-18.2	-18.2	---	---	18.3	E	0.30	22.6	-30.8	---	---	725.7	0.025	0.000	20.4	2	1
03/14/06	5:02 p	-18.2	-18.2	-18.2	---	---	16.5	E	0.28	20.9	-30.3	---	---	725.6	0.025	0.000	20.4	2	1
03/14/06	5:03 p	-18.2	-18.2	-18.3	---	---	17.4	E	0.29	21.7	-30.5	---	---	725.7	0.025	0.000	20.4	2	1
03/14/06	5:04 p	-18.2	-18.2	-18.3	---	---	16.5	E	0.28	19.1	-30.3	---	---	725.6	0.025	0.000	20.4	2	1
03/14/06	5:05 p	-18.3	-18.3	-18.3	---	---	19.1	E	0.32	20.0	-31.1	---	---	725.6	0.025	0.000	20.4	2	1
03/14/06	5:06 p	-18.3	-18.3	-18.3	---	---	22.6	ENE	0.38	27.0	-32.1	---	---	725.6	0.025	0.000	20.4	3	1
03/14/06	5:07 p	-18.3	-18.3	-18.3	---	---	19.1	E	0.32	23.5	-31.2	---	---	725.7	0.025	0.000	20.4	2	1
03/14/06	5:08 p	-18.3	-18.3	-18.3	---	---	16.5	E	0.28	19.1	-30.4	---	---	725.7	0.025	0.000	20.4	2	1
03/14/06	5:09 p	-18.3	-18.3	-18.3	---	---	14.8	E	0.25	18.3	-29.8	---	---	725.7	0.025	0.000	20.4	2	1
03/14/06	5:10 p	-18.3	-18.3	-18.4	---	---	19.1	E	0.32	22.6	-31.2	---	---	725.5	0.025	0.000	20.4	2	1
03/14/06	5:11 p	-18.4	-18.3	-18.4	---	---	22.6	ENE	0.38	24.3	-32.1	---	---	725.6	0.026	0.000	20.4	2	1
03/14/06	5:12 p	-18.4	-18.4	-18.4	---	---	21.7	ENE	0.36	25.2	-31.9	---	---	725.5	0.026	0.000	20.4	2	1
03/14/06	5:13 p	-18.4	-18.4	-18.4	---	---	22.6	ENE	0.38	25.2	-32.1	---	---	725.6	0.026	0.000	20.4	2	1
03/14/06	5:14 p	-18.4	-18.4	-18.4	---	---	21.7	ENE	0.36	25.2	-32.0	---	---	725.5	0.026	0.000	20.4	2	1
03/14/06	5:15 p	-18.4	-18.4	-18.4	---	---	19.1	E	0.32	22.6	-31.2	---	---	725.5	0.026	0.000	20.4	2	1
03/14/06	5:16 p	-18.4	-18.4	-18.4	---	---	25.2	ENE	0.42	27.8	-32.8	---	---	725.4	0.026	0.000	20.4	2	1
03/14/06	5:17 p	-18.4	-18.4	-18.4	---	---	20.9	E	0.35	24.3	-31.8	---	---	725.6	0.026	0.000	20.4	2	1
03/14/06	5:18 p	-18.4	-18.4	-18.4	---	---	23.5	ENE	0.39	26.1	-32.4	---	---	725.5	0.026	0.000	20.4	2	1
03/14/06	5:19 p	-18.4	-18.4	-18.4	---	---	21.7	ENE	0.36	26.1	-32.0	---	---	725.5	0.026	0.000	20.4	2	1
03/14/06	5:20 p	-18.4	-18.4	-18.5	---	---	20.9	E	0.35	23.5	-31.8	---	---	725.6	0.026	0.000	20.4	2	1
03/14/06	5:21 p	-18.5	-18.4	-18.5	---	---	21.7	E	0.36	25.2	-32.1	---	---	725.5	0.026	0.000	20.4	2	1
03/14/06	5:22 p	-18.5	-18.4	-18.5	---	---	20.9	E	0.35	24.3	-31.8	---	---	725.5	0.026	0.000	20.4	2	1
03/14/06	5:23 p	-18.5	-18.5	-18.5	---	---	17.4	E	0.29	20.0	-30.9	---	---	725.6	0.026	0.000	20.4	2	1
03/14/06	5:24 p	-18.5	-18.5	-18.5	---	---	20.9	E	0.35	25.2	-31.8	---	---	725.5	0.026	0.000	20.4	2	1
03/14/06	5:25 p	-18.5	-18.5	-18.5	---	---	21.7	E	0.36	25.2	-32.1	---	---	725.5	0.026	0.000	20.4	2	1
03/14/06	5:26 p	-18.5	-18.4	-18.5	---	---	21.7	E	0.36	25.2	-32.1	---	---	725.5	0.026	0.000	20.4	2	1
03/14/06	5:27 p	-18.5	-18.5	-18.5	---	---	24.3	ENE	0.41	25.2	-32.7	---	---	725.4	0.026	0.000	20.4	2	1
03/14/06	5:28 p	-18.5	-18.5	-18.5	---	---	20.9	E	0.35	23.5	-31.8	---	---	725.6	0.026	0.000	20.4	2	1
03/14/06	5:29 p	-18.5	-18.5	-18.5	---	---	20.0	E	0.33	22.6	-31.6	---	---	725.6	0.026	0.000	20.4	2	1
03/14/06	5:30 p	-18.5	-18.5	-18.5	---	---	19.1	E	0.32	21.7	-31.4	---	---	725.5	0.026	0.000	20.4	2	1
03/14/06	5:31 p	-18.6	-18.5	-18.6	---	---	18.3	ENE	0.30	20.0	-31.2	---	---	725.6	0.026	0.000	20.4	2	1
03/14/06	5:32 p	-18.5	-18.5	-18.6	---	---	17.4	E	0.29	20.0	-30.9	---	---	725.6	0.026	0.000	20.4	2	1
03/14/06	5:33 p	-18.5	-18.5	-18.5	---	---	17.4	E	0.29	20.0	-30.9	---	---	725.6	0.026	0.000	20.4	2	1
03/14/06	5:34 p	-18.5	-18.5	-18.6	---	---	20.9	ENE	0.35	22.6	-31.8	---	---	725.6	0.026	0.000	20.4	2	1
03/14/06	5:35 p	-18.5	-18.5	-18.6	---	---	20.0	ENE	0.33	21.7	-31.6	---	---	725.7	0.026	0.000	20.4	2	1
03/14/06	5:36 p	-18.5	-18.5	-18.6	---	---	20.0	ENE	0.33	21.7	-31.6	---	---	725.6	0.026	0.000	20.4	2	1
03/14/06	5:37 p	-18.5	-18.5	-18.6	---	---	20.0	ENE	0.33	20.9	-31.6	---	---	725.6	0.026	0.000	20.4	2	1
03/14/06	5:38 p	-18.6	-18.5	-18.6	---	---	20.0	ENE	0.33	21.7	-31.7	---	---	725.6	0.026	0.000	20.4	2	1
03/14/06	5:39 p	-18.6	-18.5	-18.6	---	---	20.9	ENE	0.35	21.7	-31.9	---	---	725.6	0.026	0.000	20.4	2	1
03/14/06	5:40 p	-18.5	-18.5	-18.6	---	---	20.0	ENE	0.33	21.7	-31.6	---	---	725.7	0.026	0.000	20.4	2	1
03/14/06	5:41 p	-18.6	-18.5	-18.6	---	---	20.0	ENE	0.33	20.9	-31.7	---	---	725.7	0.026	0.000	20.4	2	1
03/14/06	5:42 p	-18.6	-18.5	-18.6	---	---	18.3	E	0.30	21.7	-31.2	---	---	725.7	0.026	0.000	20.3	2	1
03/14/06	5:43 p	-18.6	-18.5	-18.6	---	---	19.1	E	0.32	21.7	-31.4	---	---	725.7	0.026	0.000	20.4	2	1
03/14/06	5:44 p	-18.6	-18.5	-18.6	---	---	18.3	ENE	0.30	20.9	-31.2	---	---	725.7	0.026	0.000	20.4	2	1
03/14/06	5:45 p	-18.6	-18.6	-18.6	---	---	19.1	ENE	0.32	20.9	-31.4	---	---	725.8	0.026	0.000	20.4	2	1
03/14/06	5:46 p	-18.6	-18.5	-18.6	---	---	18.3	ENE	0.30	20.9	-31.2	---	---	725.7	0.026	0.000	20.4	2	1
03/14/06	5:47 p	-18.6	-18.5	-18.6	---	---	20.0	ENE	0.33	22.6	-31.7	---	---	725.8	0.026	0.000	20.3	2	1
03/14/06	5:48 p	-18.6	-18.6	-18.6	---	---	20.0	ENE	0.33	21.7	-31.7	---	---	725.7	0.026	0.000	20.3	2	1
03/14/06	5:49 p	-18.6	-18.6	-18.6	---	---	19.1	ENE	0.32	21.7	-31.4	---	---	725.7	0.026	0.000	20.3	3	1
03/14/06	5:50 p	-18.6	-18.6	-18.6	---	---	19.1	E	0.32	21.7	-31.4	---	---	725.7	0.026	0.000	20.3	2	1
03/14/06	5:51 p	-18.6	-18.6	-18.6	---	---	17.4	E	0.29	20.0	-30.9	---	---	725.7	0.026	0.000	20.3	2	1
03/14/06	5:52 p	-18.6	-18.6	-18.6	---	---	16.5	E	0.28	19.1	-30.7	---	---	725.8	0.026	0.000	20.3	2	1
03/14/06	5:53 p	-18.6	-18.6	-18.6	---	---	17.4	E	0.29	20.0	-30.9	---	---	725.8	0.026	0.000	20.3	2	1
03/14/06	5:54 p	-18.6	-18.6	-18.6	---	---	17.4	E	0.29	20.0	-30.9	---	---	725.7	0.026	0.000	20.3	2	1
03/14/06	5:55 p	-18.6	-18.6	-18.6	---	---	16.5	E	0.28	19.1	-30.7	---	---	725.8	0.026	0.000	20.3	2	1
03/14/06	5:56 p	-18.6	-18.6	-18.6	---	---	17.4	E	0.29	19.1	-30.9	---	---	725.8	0.026	0.000	20.3	2	1
03/14/06	5:57 p	-18.6	-18.6	-18.6	---	---	15.7	E	0.26	18.3	-30.4	---	---	725.8	0.026	0.000	20.3	2	1
03/14/06	5:58 p	-18.6	-18.6	-18.6	---	---	17.4	E	0.29	19.1	-30.9	---	---	725.8	0.026	0.000	20.3	2	1
03/14/06	5:59 p	-18.6	-18.6	-18.6	---	---	17.4	ENE	0.29	20.0	-30.9	---	---	725.8	0.026	0.000	20.3	2	1
03/14/06	6:00 p	-18.6	-18.6	-18.6	---	---	17.4	ENE	0.29	20.0	-30.9	---	---	725.9	0.026	0.000	20.3	2	1
03/14/06	6:01 p	-18.6	-18.5	-18.6	---	---	17.4	ENE	0.29	19.1	-30.9	---	---	725.8	0.026	0.000	20.3	2	1
03/14/06	6:02 p	-18.6	-18.6	-18.6	---	---	13.9	E	0.23	17.4	-29.8	---	---	725.9	0.026	0.000	20.3	2	1
03/14/06	6:03 p	-18.6	-18.6	-18.6	---	---	15.7	E	0.26	18.3	-30.4	---	---	725.9	0.026	0.000	20.3	2	1
03/14/06	6:04 p	-18.6	-18.6	-18.6	---	---	15.7	E	0.26	17.4	-30.4	---	---	725.9	0.026	0.000	20.3	2	1
03/14/06	6:05 p	-18.6	-18.6	-18.6	---	---	15.7	E	0.26	18.3	-30.5	---	---	726.1	0.026	0.000	20.3	2	1
03/14/06	6:06 p	-18.6	-18.6	-18.6	---	---	13.9	E	0.23	15.7	-29.8	---	---	725.9	0.026	0.000	20.4	2	1
03/14/06	6:07 p	-18.6	-18.6	-18.6	---	---	13.9	E	0.23	15.7	-29.8	---	---	726.0	0.026	0.000	20.4	2	1
03/14/06	6:08 p	-18.6	-18.6	-18.6	---	---	13.9	E	0.23	19.1	-29.8	---	---	726.0	0.026	0.000	20.4	2	1
03/14/06	6:09 p	-18.6	-18.6	-18.6	---	---	16.5	E	0.28	19.1	-30.7	---	---	726.0	0.026	0.000	20.4	2	1
03/14/06	6:10 p	-18.6	-18.6	-18.6	---	---	13.9	E	0.23	16.5	-29.8	---	---	725.9	0.026	0.000	20.4	2	1
03/14/06	6:11 p	-18.6	-18.6	-18.6	---	---	15.7	E	0.26	18.3	-30.5	---	---	725.9	0.026	0.000	20.4	2	1
03/14/06	6:12 p	-18.6	-18.6	-18.6	---	---	13.9	E	0.23	16.5	-29.9	---	---	726.0	0.026	0.000	20.4	2	1
03/14/06	6:13 p	-18.6	-18.6	-18.6	---	---	13.9	E	0.23	15.7	-29.9	---	---	726.0	0.026	0.000	20.4	2	1
03/14/06	6:14 p	-18.6	-18.6	-18.6	---	---	13.9	E	0.23	17.4	-29.9	---	---	726.0	0.026	0.000	20.4	2	1
03/14/06	6:15 p	-18.6	-18.6	-18.6	---	---	13.9	E	0.23	17.4	-29.8	---	---	726.1	0.026	0.000	20.4	2	1
03/14/06	6:16 p	-18.6	-18.6	-18.6	---	---	13.9	E	0.23	16.5	-29.8	---	---	726.0	0.026	0.000	20.4	2	1
03/14/06	6:17 p	-18.6	-18.6	-18.6	---	---	13.9	E	0.23	15.7	-29.9	---	---	726.0	0.026	0.000	20.4	2	1
03/14/06	6:18 p	-18.6	-18.6	-18.6	---	---	14.8	E	0.25	16.5	-30.2	---	---	725.9	0.026	0.000	20.4	2	1
03/14/06	6:19 p	-18.6	-18.6	-18.6	---	---	15.7	E	0.26	18.3	-30.5	---	---	726.0	0.026	0.000	20.4	2	1
03/14/06	6:20 p	-18.6	-18.6	-18.6	---	---	13.9	E	0.23	16.5	-29.9	---	---	726.0	0.026	0.000	20.4	2	1
03/14/06	6:21 p	-18.6	-18.6	-18.6	---	---	14.8	E	0.25	17.4	-30.2	---	---	726.0	0.026	0.000	20.4	2	1
03/14/06	6:22 p	-18.6	-18.6	-18.7	---	---	14.8	E	0.25	18.3	-30.2	---	---	726.0	0.026	0.000	20.4	2	1
03/14/06	6:23 p	-18.6	-18.6	-18.7	---	---	18.3	E	0.30	20.0	-31.3	---	---	726.0	0.026	0.000	20.4	2	1
03/14/06	6:24 p	-18.6	-18.6	-18.6	---	---	17.4	ESE	0.29	20.9	-31.1	---	---	726.1	0.026	0.000	20.4	2	1
03/14/06	6:25 p	-18.6	-18.6	-18.7	---	---	17.4	ESE	0.29	19.1	-31.1	---	---	726.2	0.026	0.000	20.4	2	1
03/14/06	6:26 p	-18.6	-18.6	-18.7	---	---	17.4	ESE	0.29	20.0	-31.1	---	---	726.1	0.026	0.000	20.4	2	1
03/14/06	6:27 p	-18.6	-18.6	-18.6	---	---	18.3	ESE	0.30	20.0	-31.3	---	---	726.1	0.026	0.000	20.4	2	1
03/14/06	6:28 p	-18.7	-18.6	-18.7	---	---	18.3	ESE	0.30	19.1	-31.4	---	---	726.1	0.026	0.000	20.3	2	1
03/14/06	6:29 p	-18.7	-18.6	-18.7	---	---	18.3	ESE	0.30	19.1	-31.4	---	---	726.1	0.026	0.000	20.3	2	1
03/14/06	6:30 p	-18.6	-18.6	-18.7	---	---	17.4	ESE	0.29	18.3	-31.1	---	---	726.0	0.026	0.000	20.3	2	1
03/14/06	6:31 p	-18.7	-18.6	-18.7	---	---	18.3	ESE	0.30	19.1	-31.4	---	---	726.0	0.026	0.000	20.3	2	1
03/14/06	6:32 p	-18.7	-18.6	-18.7	---	---	17.4	ESE	0.29	19.1	-31.1	---	---	726.1	0.026	0.000	20.3	2	1
03/14/06	6:33 p	-18.6	-18.6	-18.7	---	---	17.4	ESE	0.29	18.3	-31.1	---	---	726.2	0.026	0.000	20.3	2	1
03/14/06	6:34 p	-18.7	-18.6	-18.7	---	---	16.5	ESE	0.28	18.3	-30.8	---	---	726.2	0.026	0.000	20.3	2	1
03/14/06	6:35 p	-18.6	-18.6	-18.7	---	---	15.7	ESE	0.26	16.5	-30.5	---	---	726.1	0.026	0.000	20.3	2	1
03/14/06	6:36 p	-18.7	-18.6	-18.7	---	---	16.5	ESE	0.28	17.4	-30.8	---	---	726.2	0.026	0.000	20.3	2	1
03/14/06	6:37 p	-18.6	-18.6	-18.6	---	---	15.7	ESE	0.26	17.4	-30.5	---	---	726.3	0.026	0.000	20.3	2	1
03/14/06	6:38 p	-18.6	-18.6	-18.6	---	---	16.5	ESE	0.28	18.3	-30.8	---	---	726.1	0.026	0.000	20.3	2	1
03/14/06	6:39 p	-18.6	-18.6	-18.6	---	---	15.7	ESE	0.26	18.3	-30.5	---	---	726.2	0.026	0.000	20.3	2	1
03/14/06	6:40 p	-18.6	-18.6	-18.6	---	---	15.7	ESE	0.26	16.5	-30.5	---	---	726.1	0.026	0.000	20.3	2	1
03/14/06	6:41 p	-18.6	-18.6	-18.6	---	---	16.5	ESE	0.28	17.4	-30.8	---	---	726.1	0.026	0.000	20.3	2	1
03/14/06	6:42 p	-18.6	-18.6	-18.6	---	---	16.5	ESE	0.28	17.4	-30.8	---	---	726.1	0.026	0.000	20.3	2	1
03/14/06	6:43 p	-18.6	-18.5	-18.6	---	---	17.4	ESE	0.29	19.1	-30.9	---	---	726.1	0.026	0.000	20.3	2	1
03/14/06	6:44 p	-18.6	-18.5	-18.6	---	---	16.5	ESE	0.28	18.3	-30.7	---	---	726.1	0.026	0.000	20.3	2	1
03/14/06	6:45 p	-18.6	-18.6	-18.6	---	---	17.4	ESE	0.29	18.3	-30.9	---	---	726.0	0.026	0.000	20.3	2	1
03/14/06	6:46 p	-18.6	-18.5	-18.6	---	---	18.3	ESE	0.30	19.1	-31.2	---	---	726.1	0.026	0.000	20.3	2	1
03/14/06	6:47 p	-18.5	-18.5	-18.6	---	---	18.3	ESE	0.30	21.7	-31.2	---	---	726.0	0.026	0.000	20.3	2	1
03/14/06	6:48 p	-18.5	-18.5	-18.6	---	---	19.1	ESE	0.32	20.9	-31.4	---	---	726.0	0.026	0.000	20.2	2	1
03/14/06	6:49 p	-18.5	-18.4	-18.5	---	---	18.3	ESE	0.30	20.0	-31.2	---	---	726.2	0.026	0.000	20.2	2	1
03/14/06	6:50 p	-18.4	-18.4	-18.4	---	---	19.1	ESE	0.32	21.7	-31.3	---	---	726.1	0.026	0.000	20.2	2	1
03/14/06	6:51 p	-18.4	-18.4	-18.4	---	---	20.0	ESE	0.33	22.6	-31.6	---	---	726.2	0.026	0.000	20.2	2	1
03/14/06	6:52 p	-18.4	-18.4	-18.4	---	---	19.1	SE	0.32	20.9	-31.2	---	---	726.1	0.026	0.000	20.3	2	1
03/14/06	6:53 p	-18.4	-18.3	-18.4	---	---	19.1	SE	0.32	21.7	-31.2	---	---	726.1	0.026	0.000	20.3	2	1
03/14/06	6:54 p	-18.4	-18.3	-18.4	---	---	19.1	SE	0.32	20.9	-31.2	---	---	726.1	0.026	0.000	20.3	2	1
03/14/06	6:55 p	-18.3	-18.3	-18.3	---	---	19.1	SE	0.32	20.0	-31.1	---	---	726.1	0.025	0.000	20.3	2	1
03/14/06	6:56 p	-18.3	-18.3	-18.3	---	---	18.3	SE	0.30	19.1	-30.8	---	---	726.2	0.025	0.000	20.3	2	1
03/14/06	6:57 p	-18.2	-18.2	-18.3	---	---	19.1	SE	0.32	20.9	-31.0	---	---	726.1	0.025	0.000	20.3	2	1
03/14/06	6:58 p	-18.2	-18.2	-18.3	---	---	19.1	SE	0.32	20.0	-31.0	---	---	726.1	0.025	0.000	20.3	2	1
03/14/06	6:59 p	-18.2	-18.2	-18.2	---	---	18.3	SE	0.30	20.0	-30.7	---	---	726.2	0.025	0.000	20.3	2	1
03/14/06	7:00 p	-18.1	-18.1	-18.2	---	---	19.1	SE	0.32	20.9	-30.9	---	---	726.2	0.025	0.000	20.3	2	1
03/14/06	7:01 p	-18.1	-18.1	-18.1	---	---	19.1	ESE	0.32	20.0	-30.9	---	---	726.1	0.025	0.000	20.3	2	1
03/14/06	7:02 p	-18.1	-18.1	-18.1	---	---	20.0	SE	0.33	20.9	-31.1	---	---	726.1	0.025	0.000	20.3	2	1
03/14/06	7:03 p	-18.1	-18.1	-18.1	---	---	20.9	ESE	0.35	23.5	-31.3	---	---	726.1	0.025	0.000	20.3	2	1
03/14/06	7:04 p	-18.1	-18.1	-18.1	---	---	21.7	SE	0.36	23.5	-31.5	---	---	726.0	0.025	0.000	20.2	2	1
03/14/06	7:05 p	-18.0	-18.0	-18.1	---	---	20.0	SE	0.33	21.7	-30.9	---	---	726.1	0.025	0.000	20.2	2	1
03/14/06	7:06 p	-18.0	-18.0	-18.0	---	---	19.1	SE	0.32	20.0	-30.7	---	---	726.1	0.025	0.000	20.2	2	1
03/14/06	7:07 p	-17.9	-17.9	-18.0	---	---	19.1	ESE	0.32	20.0	-30.7	---	---	726.2	0.025	0.000	20.2	2	1
03/14/06	7:08 p	-17.9	-17.9	-17.9	---	---	19.1	ESE	0.32	20.0	-30.7	---	---	726.0	0.025	0.000	20.2	2	1
03/14/06	7:09 p	-17.9	-17.9	-17.9	---	---	19.1	ESE	0.32	20.9	-30.6	---	---	726.0	0.025	0.000	20.2	2	1
03/14/06	7:10 p	-17.9	-17.8	-17.9	---	---	20.0	ESE	0.33	21.7	-30.8	---	---	726.1	0.025	0.000	20.2	2	1
03/14/06	7:11 p	-17.8	-17.8	-17.9	---	---	19.1	SE	0.32	20.9	-30.5	---	---	726.1	0.025	0.000	20.2	2	1
03/14/06	7:12 p	-17.8	-17.8	-17.9	---	---	18.3	ESE	0.30	20.9	-30.3	---	---	726.1	0.025	0.000	20.2	2	1
03/14/06	7:14 p	-17.8	-17.8	-17.8	---	---	19.1	ESE	0.32	20.0	-30.4	---	---	726.2	0.025	0.000	20.2	2	1
03/14/06	7:15 p	-17.8	-17.7	-17.8	---	---	18.3	ESE	0.30	20.0	-30.2	---	---	726.1	0.025	0.000	20.2	2	1
03/14/06	7:16 p	-17.7	-17.7	-17.7	---	---	18.3	ESE	0.30	19.1	-30.1	---	---	726.2	0.025	0.000	20.2	2	1
03/14/06	7:17 p	-17.8	-17.7	-17.8	---	---	18.3	ESE	0.30	20.0	-30.2	---	---	726.0	0.025	0.000	20.2	2	1
03/14/06	7:18 p	-17.7	-17.7	-17.7	---	---	18.3	ESE	0.30	19.1	-30.1	---	---	726.2	0.025	0.000	20.2	2	1
03/14/06	7:19 p	-17.7	-17.7	-17.7	---	---	19.1	ESE	0.32	20.0	-30.4	---	---	726.1	0.025	0.000	20.2	2	1
03/14/06	7:20 p	-17.7	-17.7	-17.7	---	---	19.1	ESE	0.32	20.0	-30.3	---	---	726.2	0.025	0.000	20.2	2	1
03/14/06	7:21 p	-17.7	-17.7	-17.7	---	---	19.1	ESE	0.32	20.0	-30.3	---	---	726.2	0.025	0.000	20.2	2	1
03/14/06	7:22 p	-17.7	-17.7	-17.7	---	---	19.1	ESE	0.32	20.0	-30.3	---	---	726.1	0.025	0.000	20.2	2	1
03/14/06	7:23 p	-17.7	-17.6	-17.7	---	---	18.3	ESE	0.30	19.1	-30.1	---	---	726.2	0.025	0.000	20.1	2	1
03/14/06	7:24 p	-17.6	-17.6	-17.7	---	---	17.4	ESE	0.29	18.3	-29.7	---	---	726.1	0.025	0.000	20.2	2	1
03/14/06	7:25 p	-17.6	-17.6	-17.7	---	---	18.3	ESE	0.30	19.1	-30.0	---	---	726.2	0.025	0.000	20.1	2	1
03/14/06	7:26 p	-17.6	-17.6	-17.6	---	---	19.1	E	0.32	20.0	-30.2	---	---	726.2	0.025	0.000	20.2	2	1
03/14/06	7:27 p	-17.6	-17.6	-17.6	---	---	17.4	E	0.29	19.1	-29.7	---	---	726.2	0.025	0.000	20.2	2	1
03/14/06	7:28 p	-17.6	-17.6	-17.6	---	---	18.3	E	0.30	20.0	-30.0	---	---	726.3	0.025	0.000	20.2	2	1
03/14/06	7:29 p	-17.6	-17.6	-17.6	---	---	17.4	E	0.29	19.1	-29.7	---	---	726.2	0.025	0.000	20.2	2	1
03/14/06	7:30 p	-17.6	-17.5	-17.6	---	---	17.4	E	0.29	19.1	-29.7	---	---	726.2	0.025	0.000	20.2	2	1
03/14/06	7:31 p	-17.6	-17.5	-17.6	---	---	16.5	E	0.28	18.3	-29.4	---	---	726.3	0.025	0.000	20.2	2	1
03/14/06	7:32 p	-17.6	-17.6	-17.6	---	---	17.4	E	0.29	19.1	-29.7	---	---	726.2	0.025	0.000	20.2	2	1
03/14/06	7:33 p	-17.5	-17.5	-17.5	---	---	16.5	E	0.28	18.3	-29.3	---	---	726.2	0.025	0.000	20.2	2	1
03/14/06	7:34 p	-17.5	-17.5	-17.6	---	---	17.4	E	0.29	20.0	-29.6	---	---	726.3	0.025	0.000	20.2	2	1
03/14/06	7:35 p	-17.5	-17.5	-17.5	---	---	16.5	E	0.28	19.1	-29.3	---	---	726.2	0.025	0.000	20.2	2	1
03/14/06	7:36 p	-17.5	-17.5	-17.5	---	---	18.3	E	0.30	20.0	-29.8	---	---	726.2	0.025	0.000	20.2	2	1
03/14/06	7:37 p	-17.5	-17.5	-17.5	---	---	18.3	E	0.30	20.0	-29.8	---	---	726.2	0.025	0.000	20.2	2	1
03/14/06	7:38 p	-17.5	-17.5	-17.5	---	---	18.3	E	0.30	20.0	-29.8	---	---	726.2	0.025	0.000	20.2	2	1
03/14/06	7:39 p	-17.4	-17.4	-17.5	---	---	17.4	E	0.29	20.0	-29.5	---	---	726.2	0.025	0.000	20.2	2	1
03/14/06	7:40 p	-17.5	-17.4	-17.5	---	---	17.4	E	0.29	20.0	-29.6	---	---	726.1	0.025	0.000	20.2	2	1
03/14/06	7:41 p	-17.5	-17.5	-17.5	---	---	18.3	E	0.30	20.9	-29.8	---	---	726.2	0.025	0.000	20.2	2	1
03/14/06	7:42 p	-17.5	-17.4	-17.5	---	---	17.4	E	0.29	20.0	-29.6	---	---	726.1	0.025	0.000	20.2	2	1
03/14/06	7:43 p	-17.4	-17.4	-17.5	---	---	18.3	E	0.30	20.0	-29.8	---	---	726.1	0.025	0.000	20.2	2	1
03/14/06	7:44 p	-17.4	-17.4	-17.5	---	---	17.4	E	0.29	20.9	-29.5	---	---	726.1	0.025	0.000	20.2	2	1
03/14/06	7:45 p	-17.4	-17.4	-17.5	---	---	18.3	E	0.30	20.9	-29.8	---	---	726.2	0.025	0.000	20.3	2	1
03/14/06	7:46 p	-17.5	-17.4	-17.5	---	---	17.4	E	0.29	19.1	-29.6	---	---	726.2	0.025	0.000	20.3	2	1
03/14/06	7:47 p	-17.4	-17.4	-17.5	---	---	18.3	E	0.30	20.0	-29.8	---	---	726.1	0.025	0.000	20.3	2	1
03/14/06	7:48 p	-17.5	-17.4	-17.5	---	---	18.3	E	0.30	21.7	-29.8	---	---	726.1	0.025	0.000	20.3	2	1
03/14/06	7:49 p	-17.5	-17.5	-17.5	---	---	17.4	E	0.29	20.0	-29.6	---	---	726.1	0.025	0.000	20.2	2	1
03/14/06	7:50 p	-17.5	-17.5	-17.6	---	---	17.4	E	0.29	20.0	-29.6	---	---	726.1	0.025	0.000	20.2	2	1
03/14/06	7:51 p	-17.5	-17.5	-17.6	---	---	18.3	E	0.30	20.0	-29.8	---	---	726.1	0.025	0.000	20.3	2	1
03/14/06	7:52 p	-17.5	-17.5	-17.6	---	---	18.3	E	0.30	20.9	-29.8	---	---	726.1	0.025	0.000	20.3	2	1
03/14/06	7:53 p	-17.5	-17.5	-17.6	---	---	18.3	E	0.30	20.9	-29.8	---	---	726.2	0.025	0.000	20.3	2	1
03/14/06	7:54 p	-17.6	-17.5	-17.6	---	---	19.1	E	0.32	21.7	-30.2	---	---	726.1	0.025	0.000	20.3	2	1
03/14/06	7:55 p	-17.5	-17.5	-17.6	---	---	20.0	E	0.33	22.6	-30.3	---	---	726.1	0.025	0.000	20.3	2	1
03/14/06	7:56 p	-17.6	-17.5	-17.6	---	---	19.1	E	0.32	22.6	-30.2	---	---	726.1	0.025	0.000	20.3	2	1
03/14/06	7:57 p	-17.6	-17.6	-17.6	---	---	19.1	E	0.32	20.9	-30.2	---	---	726.1	0.025	0.000	20.3	2	1
03/14/06	7:58 p	-17.6	-17.6	-17.6	---	---	17.4	E	0.29	20.9	-29.7	---	---	726.1	0.025	0.000	20.3	2	1
03/14/06	7:59 p	-17.6	-17.6	-17.6	---	---	18.3	E	0.30	22.6	-29.9	---	---	726.1	0.025	0.000	20.3	2	1
03/14/06	8:00 p	-17.6	-17.6	-17.6	---	---	18.3	E	0.30	21.7	-29.9	---	---	726.2	0.025	0.000	20.3	2	1
03/14/06	8:01 p	-17.6	-17.6	-17.6	---	---	18.3	E	0.30	21.7	-29.9	---	---	726.1	0.025	0.000	20.3	2	1
03/14/06	8:02 p	-17.6	-17.6	-17.6	---	---	18.3	E	0.30	21.7	-29.9	---	---	726.2	0.025	0.000	20.3	2	1
03/14/06	8:03 p	-17.6	-17.6	-17.6	---	---	17.4	E	0.29	20.9	-29.7	---	---	726.2	0.025	0.000	20.3	2	1
03/14/06	8:04 p	-17.6	-17.6	-17.6	---	---	20.9	E	0.35	24.3	-30.7	---	---	726.1	0.025	0.000	20.3	2	1
03/14/06	8:05 p	-17.6	-17.6	-17.6	---	---	21.7	ENE	0.36	26.1	-30.9	---	---	726.1	0.025	0.000	20.3	2	1
03/14/06	8:06 p	-17.6	-17.6	-17.6	---	---	22.6	E	0.38	25.2	-31.1	---	---	726.1	0.025	0.000	20.3	2	1
03/14/06	8:07 p	-17.6	-17.6	-17.6	---	---	19.1	E	0.32	24.3	-30.2	---	---	726.1	0.025	0.000	20.3	2	1
03/14/06	8:08 p	-17.6	-17.6	-17.7	---	---	20.9	E	0.35	23.5	-30.7	---	---	726.2	0.025	0.000	20.3	2	1
03/14/06	8:09 p	-17.6	-17.6	-17.6	---	---	19.1	E	0.32	23.5	-30.2	---	---	726.2	0.025	0.000	20.3	2	1
03/14/06	8:10 p	-17.6	-17.6	-17.6	---	---	20.0	E	0.33	22.6	-30.4	---	---	726.3	0.025	0.000	20.3	2	1
03/14/06	8:11 p	-17.6	-17.6	-17.7	---	---	17.4	E	0.29	21.7	-29.7	---	---	726.2	0.025	0.000	20.3	2	1
03/14/06	8:12 p	-17.6	-17.6	-17.6	---	---	19.1	E	0.32	21.7	-30.2	---	---	726.3	0.025	0.000	20.3	2	1
03/14/06	8:13 p	-17.6	-17.6	-17.7	---	---	18.3	E	0.30	22.6	-30.0	---	---	726.3	0.025	0.000	20.3	2	1
03/14/06	8:14 p	-17.6	-17.6	-17.6	---	---	20.0	E	0.33	24.3	-30.4	---	---	726.4	0.025	0.000	20.3	2	1
03/14/06	8:15 p	-17.6	-17.6	-17.6	---	---	20.0	E	0.33	23.5	-30.4	---	---	726.3	0.025	0.000	20.3	2	1
03/14/06	8:16 p	-17.6	-17.6	-17.6	---	---	20.9	E	0.35	25.2	-30.7	---	---	726.2	0.025	0.000	20.3	2	1
03/14/06	8:17 p	-17.6	-17.6	-17.6	---	---	20.0	E	0.33	21.7	-30.4	---	---	726.2	0.025	0.000	20.3	2	1
03/14/06	8:18 p	-17.6	-17.6	-17.6	---	---	18.3	E	0.30	22.6	-29.9	---	---	726.2	0.025	0.000	20.3	2	1
03/14/06	8:19 p	-17.6	-17.6	-17.6	---	---	19.1	E	0.32	22.6	-30.2	---	---	726.3	0.025	0.000	20.3	2	1
03/14/06	8:20 p	-17.6	-17.6	-17.6	---	---	18.3	E	0.30	21.7	-29.9	---	---	726.3	0.025	0.000	20.3	2	1
03/14/06	8:21 p	-17.6	-17.6	-17.6	---	---	18.3	E	0.30	21.7	-29.9	---	---	726.3	0.025	0.000	20.3	2	1
03/14/06	8:22 p	-17.6	-17.5	-17.6	---	---	19.1	E	0.32	22.6	-30.2	---	---	726.3	0.025	0.000	20.3	2	1
03/14/06	8:23 p	-17.5	-17.5	-17.6	---	---	17.4	E	0.29	20.9	-29.6	---	---	726.3	0.025	0.000	20.3	2	1
03/14/06	8:24 p	-17.5	-17.5	-17.6	---	---	17.4	E	0.29	19.1	-29.6	---	---	726.2	0.025	0.000	20.3	2	1
03/14/06	8:25 p	-17.5	-17.5	-17.6	---	---	16.5	E	0.28	20.0	-29.3	---	---	726.4	0.025	0.000	20.3	2	1
03/14/06	8:26 p	-17.5	-17.4	-17.5	---	---	19.1	E	0.32	21.7	-30.1	---	---	726.3	0.025	0.000	20.3	2	1
03/14/06	8:27 p	-17.4	-17.4	-17.4	---	---	19.1	E	0.32	22.6	-30.0	---	---	726.3	0.025	0.000	20.3	2	1
03/14/06	8:28 p	-17.4	-17.4	-17.4	---	---	19.1	E	0.32	23.5	-30.0	---	---	726.5	0.025	0.000	20.3	2	1
03/14/06	8:29 p	-17.4	-17.4	-17.4	---	---	20.9	E	0.35	23.5	-30.4	---	---	726.3	0.025	0.000	20.3	2	1
03/14/06	8:30 p	-17.4	-17.4	-17.4	---	---	20.0	E	0.33	25.2	-30.2	---	---	726.4	0.025	0.000	20.3	2	1
03/14/06	8:31 p	-17.4	-17.4	-17.4	---	---	19.1	E	0.32	23.5	-29.9	---	---	726.4	0.025	0.000	20.3	2	1
03/14/06	8:32 p	-17.3	-17.3	-17.4	---	---	20.9	E	0.35	24.3	-30.3	---	---	726.4	0.025	0.000	20.3	2	1
03/14/06	8:33 p	-17.3	-17.3	-17.3	---	---	18.3	E	0.30	21.7	-29.6	---	---	726.5	0.025	0.000	20.3	2	1
03/14/06	8:34 p	-17.3	-17.3	-17.3	---	---	19.1	E	0.32	22.6	-29.8	---	---	726.4	0.025	0.000	20.3	2	1
03/14/06	8:35 p	-17.3	-17.3	-17.3	---	---	20.0	E	0.33	22.6	-30.0	---	---	726.5	0.025	0.000	20.3	2	1
03/14/06	8:36 p	-17.3	-17.3	-17.3	---	---	19.1	E	0.32	21.7	-29.8	---	---	726.4	0.025	0.000	20.3	2	1
03/14/06	8:37 p	-17.3	-17.2	-17.3	---	---	21.7	E	0.36	25.2	-30.4	---	---	726.4	0.025	0.000	20.3	2	1
03/14/06	8:38 p	-17.2	-17.2	-17.2	---	---	20.0	E	0.33	22.6	-29.9	---	---	726.3	0.025	0.000	20.3	2	1
03/14/06	8:39 p	-17.2	-17.2	-17.2	---	---	20.0	E	0.33	24.3	-29.9	---	---	726.3	0.025	0.000	20.3	2	1
03/14/06	8:40 p	-17.2	-17.2	-17.2	---	---	20.0	E	0.33	22.6	-29.8	---	---	726.4	0.025	0.000	20.3	2	1
03/14/06	8:41 p	-17.2	-17.1	-17.2	---	---	20.0	E	0.33	22.6	-29.8	---	---	726.4	0.025	0.000	20.3	2	1
03/14/06	8:42 p	-17.1	-17.1	-17.2	---	---	20.0	E	0.33	23.5	-29.8	---	---	726.3	0.025	0.000	20.3	2	1
03/14/06	8:43 p	-17.1	-17.1	-17.1	---	---	21.7	E	0.36	24.3	-30.2	---	---	726.3	0.025	0.000	20.3	2	1
03/14/06	8:44 p	-17.1	-17.1	-17.1	---	---	21.7	E	0.36	25.2	-30.2	---	---	726.3	0.025	0.000	20.3	2	1
03/14/06	8:45 p	-17.1	-17.1	-17.1	---	---	22.6	E	0.38	25.2	-30.3	---	---	726.3	0.025	0.000	20.3	2	1
03/14/06	8:46 p	-17.1	-17.0	-17.1	---	---	21.7	E	0.36	24.3	-30.2	---	---	726.3	0.025	0.000	20.3	2	1
03/14/06	8:47 p	-17.0	-17.0	-17.0	---	---	22.6	E	0.38	26.1	-30.3	---	---	726.3	0.025	0.000	20.3	2	1
03/14/06	8:48 p	-17.0	-17.0	-17.0	---	---	21.7	E	0.36	25.2	-30.1	---	---	726.2	0.025	0.000	20.3	2	1
03/14/06	8:49 p	-17.0	-17.0	-17.0	---	---	21.7	E	0.36	26.1	-30.1	---	---	726.2	0.025	0.000	20.3	2	1
03/14/06	8:50 p	-16.9	-16.9	-16.9	---	---	23.5	E	0.39	26.1	-30.4	---	---	726.3	0.024	0.000	20.3	2	1
03/14/06	8:51 p	-16.9	-16.9	-16.9	---	---	20.0	E	0.33	24.3	-29.6	---	---	726.3	0.024	0.000	20.3	2	1
03/14/06	8:52 p	-16.9	-16.9	-16.9	---	---	23.5	E	0.39	27.0	-30.4	---	---	726.2	0.024	0.000	20.3	2	1
03/14/06	8:53 p	-16.9	-16.9	-16.9	---	---	21.7	E	0.36	27.8	-29.9	---	---	726.3	0.024	0.000	20.3	2	1
03/14/06	8:54 p	-16.9	-16.9	-16.9	---	---	22.6	E	0.38	26.1	-30.1	---	---	726.4	0.024	0.000	20.3	3	1
03/14/06	8:55 p	-16.9	-16.8	-16.9	---	---	22.6	E	0.38	27.0	-30.1	---	---	726.4	0.024	0.000	20.3	2	1
03/14/06	8:56 p	-16.8	-16.8	-16.9	---	---	19.1	E	0.32	22.6	-29.2	---	---	726.3	0.024	0.000	20.3	3	1
03/14/06	8:57 p	-16.8	-16.8	-16.9	---	---	22.6	E	0.38	26.1	-30.1	---	---	726.5	0.024	0.000	20.3	2	1
03/14/06	8:58 p	-16.8	-16.8	-16.8	---	---	22.6	E	0.38	26.1	-30.0	---	---	726.5	0.024	0.000	20.4	3	1
03/14/06	8:59 p	-16.8	-16.8	-16.8	---	---	23.5	E	0.39	27.0	-30.2	---	---	726.4	0.024	0.000	20.3	3	1
03/14/06	9:00 p	-16.8	-16.8	-16.8	---	---	22.6	E	0.38	24.3	-30.0	---	---	726.4	0.024	0.000	20.3	3	1
03/14/06	9:01 p	-16.8	-16.7	-16.8	---	---	20.9	E	0.35	24.3	-29.6	---	---	726.5	0.024	0.000	20.3	3	1
03/14/06	9:02 p	-16.7	-16.7	-16.8	---	---	22.6	ESE	0.38	25.2	-29.9	---	---	726.5	0.024	0.000	20.3	2	1
03/14/06	9:03 p	-16.7	-16.7	-16.8	---	---	21.7	ESE	0.36	27.8	-29.7	---	---	726.6	0.024	0.000	20.3	3	1
03/14/06	9:04 p	-16.7	-16.7	-16.7	---	---	21.7	E	0.36	24.3	-29.6	---	---	726.4	0.024	0.000	20.3	3	1
03/14/06	9:05 p	-16.7	-16.7	-16.7	---	---	20.0	ESE	0.33	25.2	-29.3	---	---	726.4	0.024	0.000	20.3	3	1
03/14/06	9:06 p	-16.7	-16.7	-16.7	---	---	21.7	E	0.36	27.8	-29.7	---	---	726.5	0.024	0.000	20.3	3	1
03/14/06	9:07 p	-16.7	-16.6	-16.7	---	---	21.7	E	0.36	25.2	-29.6	---	---	726.4	0.024	0.000	20.3	3	1
03/14/06	9:08 p	-16.6	-16.6	-16.7	---	---	19.1	ESE	0.32	23.5	-28.9	---	---	726.5	0.024	0.000	20.3	3	1
03/14/06	9:09 p	-16.7	-16.7	-16.7	---	---	21.7	E	0.36	27.0	-29.6	---	---	726.4	0.024	0.000	20.3	3	1
03/14/06	9:10 p	-16.6	-16.6	-16.7	---	---	20.0	E	0.33	22.6	-29.1	---	---	726.5	0.024	0.000	20.3	3	1
03/14/06	9:11 p	-16.6	-16.6	-16.6	---	---	20.9	E	0.35	25.2	-29.3	---	---	726.5	0.024	0.000	20.3	3	1
03/14/06	9:12 p	-16.6	-16.6	-16.6	---	---	22.6	E	0.38	26.1	-29.8	---	---	726.5	0.024	0.000	20.3	3	1
03/14/06	9:13 p	-16.6	-16.6	-16.6	---	---	22.6	ESE	0.38	27.8	-29.8	---	---	726.5	0.024	0.000	20.3	3	1
03/14/06	9:14 p	-16.6	-16.6	-16.6	---	---	21.7	E	0.36	25.2	-29.6	---	---	726.4	0.024	0.000	20.3	3	1
03/14/06	9:15 p	-16.6	-16.6	-16.6	---	---	20.0	E	0.33	22.6	-29.1	---	---	726.5	0.024	0.000	20.3	3	1
03/14/06	9:16 p	-16.6	-16.6	-16.6	---	---	18.3	E	0.30	20.9	-28.6	---	---	726.3	0.024	0.000	20.3	3	1
03/14/06	9:17 p	-16.6	-16.6	-16.6	---	---	20.0	E	0.33	24.3	-29.1	---	---	726.5	0.024	0.000	20.3	3	1
03/14/06	9:18 p	-16.6	-16.6	-16.6	---	---	20.0	ESE	0.33	24.3	-29.1	---	---	726.5	0.024	0.000	20.3	3	1
03/14/06	9:19 p	-16.6	-16.5	-16.6	---	---	21.7	E	0.36	23.5	-29.5	---	---	726.5	0.024	0.000	20.3	3	1
03/14/06	9:20 p	-16.5	-16.5	-16.5	---	---	20.9	E	0.35	26.1	-29.2	---	---	726.4	0.024	0.000	20.3	3	1
03/14/06	9:21 p	-16.5	-16.5	-16.6	---	---	20.0	E	0.33	23.5	-28.9	---	---	726.3	0.024	0.000	20.3	3	1
03/14/06	9:23 p	-16.5	-16.5	-16.5	---	---	21.7	ESE	0.36	25.2	-29.4	---	---	726.4	0.024	0.000	20.3	3	1
03/14/06	9:24 p	-16.5	-16.5	-16.6	---	---	21.7	E	0.36	25.2	-29.4	---	---	726.4	0.024	0.000	20.3	3	1
03/14/06	9:25 p	-16.5	-16.4	-16.5	---	---	21.7	E	0.36	25.2	-29.4	---	---	726.4	0.024	0.000	20.3	3	1
03/14/06	9:26 p	-16.4	-16.4	-16.5	---	---	20.9	E	0.35	26.1	-29.1	---	---	726.5	0.024	0.000	20.3	3	1
03/14/06	9:27 p	-16.4	-16.4	-16.4	---	---	23.5	E	0.39	27.0	-29.7	---	---	726.4	0.024	0.000	20.3	3	1
03/14/06	9:28 p	-16.4	-16.4	-16.5	---	---	22.6	E	0.38	26.1	-29.6	---	---	726.4	0.024	0.000	20.3	3	1
03/14/06	9:29 p	-16.4	-16.4	-16.5	---	---	20.9	E	0.35	23.5	-29.1	---	---	726.5	0.024	0.000	20.4	3	1
03/14/06	9:30 p	-16.4	-16.4	-16.4	---	---	22.6	E	0.38	25.2	-29.6	---	---	726.4	0.024	0.000	20.4	3	1
03/14/06	9:31 p	-16.4	-16.4	-16.4	---	---	23.5	ESE	0.39	27.0	-29.7	---	---	726.4	0.024	0.000	20.3	3	1
03/14/06	9:32 p	-16.4	-16.4	-16.4	---	---	21.7	E	0.36	24.3	-29.3	---	---	726.4	0.024	0.000	20.3	3	1
03/14/06	9:33 p	-16.4	-16.4	-16.4	---	---	23.5	ESE	0.39	26.1	-29.7	---	---	726.4	0.024	0.000	20.3	3	1
03/14/06	9:34 p	-16.4	-16.4	-16.4	---	---	23.5	E	0.39	27.0	-29.7	---	---	726.4	0.024	0.000	20.3	3	1
03/14/06	9:35 p	-16.4	-16.4	-16.4	---	---	21.7	E	0.36	25.2	-29.3	---	---	726.4	0.024	0.000	20.3	3	1
03/14/06	9:36 p	-16.4	-16.4	-16.4	---	---	23.5	ESE	0.39	24.3	-29.7	---	---	726.4	0.024	0.000	20.3	3	1
03/14/06	9:37 p	-16.4	-16.4	-16.4	---	---	27.0	ESE	0.45	34.8	-30.4	---	---	726.3	0.024	0.000	20.3	3	1
03/14/06	9:38 p	-16.4	-16.4	-16.4	---	---	24.3	ESE	0.41	27.8	-29.8	---	---	726.4	0.024	0.000	20.3	3	1
03/14/06	9:39 p	-16.3	-16.3	-16.4	---	---	25.2	ESE	0.42	30.4	-29.9	---	---	726.4	0.024	0.000	20.3	3	1
03/14/06	9:40 p	-16.3	-16.3	-16.4	---	---	23.5	ESE	0.39	25.2	-29.6	---	---	726.5	0.024	0.000	20.3	3	1
03/14/06	9:41 p	-16.3	-16.3	-16.3	---	---	24.3	ESE	0.41	28.7	-29.8	---	---	726.6	0.024	0.000	20.3	3	1
03/14/06	9:42 p	-16.3	-16.3	-16.3	---	---	21.7	ESE	0.36	24.3	-29.2	---	---	726.3	0.024	0.000	20.3	3	1
03/14/06	9:43 p	-16.3	-16.3	-16.3	---	---	23.5	ESE	0.39	26.1	-29.6	---	---	726.5	0.024	0.000	20.3	3	1
03/14/06	9:44 p	-16.3	-16.3	-16.3	---	---	24.3	ESE	0.41	27.0	-29.8	---	---	726.4	0.024	0.000	20.3	3	1
03/14/06	9:45 p	-16.3	-16.3	-16.3	---	---	23.5	ESE	0.39	27.8	-29.6	---	---	726.5	0.024	0.000	20.3	3	1
03/14/06	9:46 p	-16.3	-16.3	-16.3	---	---	22.6	SE	0.38	26.1	-29.3	---	---	726.6	0.024	0.000	20.3	3	1
03/14/06	9:47 p	-16.3	-16.3	-16.3	---	---	20.9	ESE	0.35	23.5	-28.9	---	---	726.6	0.024	0.000	20.3	3	1
03/14/06	9:48 p	-16.3	-16.3	-16.3	---	---	20.9	ESE	0.35	21.7	-28.9	---	---	726.6	0.024	0.000	20.3	3	1
03/14/06	9:49 p	-16.3	-16.3	-16.3	---	---	20.9	ESE	0.35	23.5	-28.9	---	---	726.6	0.024	0.000	20.3	3	1
03/14/06	9:50 p	-16.3	-16.3	-16.3	---	---	22.6	ESE	0.38	25.2	-29.3	---	---	726.5	0.024	0.000	20.3	3	1
03/14/06	9:52 p	-16.3	-16.2	-16.3	---	---	24.3	ESE	0.41	28.7	-29.7	---	---	726.4	0.024	0.000	20.3	3	1
03/14/06	9:53 p	-16.2	-16.2	-16.3	---	---	23.5	ESE	0.39	26.1	-29.4	---	---	726.5	0.024	0.000	20.3	3	1
03/14/06	9:54 p	-16.2	-16.2	-16.2	---	---	24.3	ESE	0.41	29.6	-29.6	---	---	726.5	0.024	0.000	20.3	3	1
03/14/06	9:55 p	-16.2	-16.2	-16.2	---	---	24.3	ESE	0.41	27.0	-29.6	---	---	726.4	0.024	0.000	20.3	3	1
03/14/06	9:56 p	-16.2	-16.2	-16.2	---	---	26.1	ESE	0.43	27.0	-30.0	---	---	726.4	0.024	0.000	20.3	3	1
03/14/06	9:57 p	-16.2	-16.2	-16.2	---	---	25.2	ESE	0.42	28.7	-29.7	---	---	726.4	0.024	0.000	20.3	3	1
03/14/06	9:58 p	-16.2	-16.2	-16.2	---	---	23.5	ESE	0.39	24.3	-29.3	---	---	726.5	0.024	0.000	20.3	3	1
03/14/06	9:59 p	-16.2	-16.2	-16.2	---	---	25.2	ESE	0.42	27.8	-29.7	---	---	726.4	0.024	0.000	20.3	3	1
03/14/06	10:00 p	-16.2	-16.2	-16.2	---	---	26.1	ESE	0.43	29.6	-29.9	---	---	726.4	0.024	0.000	20.3	3	1
03/14/06	10:01 p	-16.2	-16.2	-16.2	---	---	26.1	ESE	0.43	31.3	-29.9	---	---	726.4	0.024	0.000	20.3	3	1
03/14/06	10:02 p	-16.1	-16.1	-16.2	---	---	25.2	ESE	0.42	27.0	-29.7	---	---	726.4	0.024	0.000	20.3	3	1
03/14/06	10:03 p	-16.1	-16.1	-16.1	---	---	26.1	ESE	0.43	27.8	-29.8	---	---	726.4	0.024	0.000	20.3	3	1
03/14/06	10:04 p	-16.1	-16.1	-16.1	---	---	27.0	ESE	0.45	28.7	-30.0	---	---	726.4	0.024	0.000	20.3	3	1
03/14/06	10:05 p	-16.1	-16.1	-16.1	---	---	25.2	ESE	0.42	27.0	-29.6	---	---	726.5	0.024	0.000	20.3	3	1
03/14/06	10:06 p	-16.1	-16.1	-16.1	---	---	24.3	ESE	0.41	26.1	-29.4	---	---	726.5	0.024	0.000	20.3	3	1
03/14/06	10:07 p	-16.1	-16.1	-16.1	---	---	24.3	ESE	0.41	26.1	-29.4	---	---	726.5	0.024	0.000	20.3	3	1
03/14/06	10:08 p	-16.1	-16.1	-16.1	---	---	24.3	ESE	0.41	26.1	-29.4	---	---	726.5	0.024	0.000	20.3	3	1
03/14/06	10:09 p	-16.1	-16.1	-16.1	---	---	25.2	ESE	0.42	27.8	-29.6	---	---	726.4	0.024	0.000	20.3	3	1
03/14/06	10:10 p	-16.1	-16.1	-16.1	---	---	25.2	ESE	0.42	26.1	-29.6	---	---	726.4	0.024	0.000	20.2	3	1
03/14/06	10:11 p	-16.1	-16.0	-16.1	---	---	25.2	ESE	0.42	26.1	-29.6	---	---	726.4	0.024	0.000	20.2	3	1
03/14/06	10:12 p	-16.0	-16.0	-16.0	---	---	27.0	ESE	0.45	29.6	-29.8	---	---	726.3	0.024	0.000	20.2	3	1
03/14/06	10:13 p	-16.0	-16.0	-16.1	---	---	27.8	ESE	0.46	29.6	-30.0	---	---	726.4	0.024	0.000	20.2	3	1
03/14/06	10:14 p	-16.0	-16.0	-16.0	---	---	27.0	ESE	0.45	27.8	-29.8	---	---	726.4	0.024	0.000	20.2	3	1
03/14/06	10:15 p	-16.0	-16.0	-16.0	---	---	26.1	ESE	0.43	27.8	-29.7	---	---	726.4	0.024	0.000	20.2	3	1
03/14/06	10:16 p	-16.0	-15.9	-16.0	---	---	26.1	ESE	0.43	27.8	-29.7	---	---	726.4	0.024	0.000	20.2	3	1
03/14/06	10:17 p	-16.0	-16.0	-16.0	---	---	26.1	ESE	0.43	27.0	-29.7	---	---	726.4	0.024	0.000	20.2	3	1
03/14/06	10:18 p	-15.9	-15.9	-16.0	---	---	27.0	ESE	0.45	27.8	-29.8	---	---	726.5	0.024	0.000	20.2	3	1
03/14/06	10:19 p	-15.9	-15.9	-16.0	---	---	27.0	ESE	0.45	28.7	-29.8	---	---	726.4	0.024	0.000	20.2	3	1
03/14/06	10:20 p	-15.9	-15.9	-15.9	---	---	27.0	ESE	0.45	28.7	-29.8	---	---	726.5	0.024	0.000	20.2	3	1
03/14/06	10:21 p	-15.9	-15.9	-15.9	---	---	27.0	ESE	0.45	28.7	-29.8	---	---	726.5	0.024	0.000	20.2	3	1
03/14/06	10:22 p	-15.9	-15.9	-15.9	---	---	27.0	ESE	0.45	27.8	-29.8	---	---	726.5	0.024	0.000	20.2	3	1
03/14/06	10:23 p	-15.9	-15.9	-15.9	---	---	27.0	ESE	0.45	28.7	-29.8	---	---	726.5	0.024	0.000	20.2	3	1
03/14/06	10:24 p	-15.9	-15.9	-15.9	---	---	27.0	ESE	0.45	28.7	-29.8	---	---	726.5	0.024	0.000	20.2	3	1
03/14/06	10:25 p	-15.9	-15.9	-15.9	---	---	27.0	ESE	0.45	28.7	-29.8	---	---	726.4	0.024	0.000	20.1	3	1
03/14/06	10:26 p	-15.9	-15.9	-15.9	---	---	27.8	ESE	0.46	29.6	-29.9	---	---	726.5	0.024	0.000	20.2	3	1
03/14/06	10:27 p	-15.9	-15.9	-15.9	---	---	27.8	ESE	0.46	28.7	-29.9	---	---	726.5	0.024	0.000	20.1	3	1
03/14/06	10:28 p	-15.9	-15.9	-15.9	---	---	27.0	ESE	0.45	27.8	-29.8	---	---	726.6	0.024	0.000	20.1	3	1
03/14/06	10:29 p	-15.9	-15.9	-15.9	---	---	28.7	ESE	0.48	30.4	-30.1	---	---	726.6	0.024	0.000	20.1	3	1
03/14/06	10:30 p	-15.9	-15.9	-15.9	---	---	27.8	ESE	0.46	30.4	-29.9	---	---	726.6	0.024	0.000	20.1	3	1
03/14/06	10:32 p	-15.9	-15.8	-15.9	---	---	27.0	ESE	0.45	27.0	-29.7	---	---	726.6	0.024	0.000	20.1	3	1
03/14/06	10:33 p	-15.8	-15.8	-15.9	---	---	27.0	ESE	0.45	28.7	-29.6	---	---	726.5	0.024	0.000	20.1	3	1
03/14/06	10:34 p	-15.9	-15.8	-15.9	---	---	27.8	ESE	0.46	29.6	-29.9	---	---	726.5	0.024	0.000	20.1	3	1
03/14/06	10:35 p	-15.8	-15.8	-15.9	---	---	27.8	ESE	0.46	28.7	-29.8	---	---	726.5	0.024	0.000	20.1	3	1
03/14/06	10:36 p	-15.8	-15.8	-15.8	---	---	29.6	ESE	0.49	32.2	-30.1	---	---	726.5	0.024	0.000	20.1	3	1
03/14/06	10:37 p	-15.8	-15.8	-15.8	---	---	28.7	ESE	0.48	31.3	-29.9	---	---	726.7	0.024	0.000	20.1	3	1
03/14/06	10:38 p	-15.8	-15.8	-15.8	---	---	28.7	ESE	0.48	30.4	-29.9	---	---	726.6	0.024	0.000	20.1	3	1
03/14/06	10:39 p	-15.8	-15.8	-15.8	---	---	28.7	ESE	0.48	32.2	-29.9	---	---	726.6	0.024	0.000	20.1	3	1
03/14/06	10:41 p	-15.8	-15.8	-15.8	---	---	27.8	ESE	0.46	28.7	-29.8	---	---	726.6	0.024	0.000	20.1	3	1
03/14/06	10:42 p	-15.8	-15.8	-15.8	---	---	28.7	SE	0.48	29.6	-29.9	---	---	726.7	0.024	0.000	20.1	3	1
03/14/06	10:43 p	-15.8	-15.8	-15.8	---	---	26.1	SE	0.43	27.8	-29.4	---	---	726.7	0.024	0.000	20.1	3	1
03/14/06	10:44 p	-15.8	-15.8	-15.8	---	---	26.1	ESE	0.43	28.7	-29.4	---	---	726.6	0.024	0.000	20.1	3	1
03/14/06	10:45 p	-15.8	-15.8	-15.8	---	---	28.7	SE	0.48	30.4	-29.9	---	---	726.5	0.024	0.000	20.1	3	1
03/14/06	10:46 p	-15.8	-15.7	-15.8	---	---	27.8	SE	0.46	30.4	-29.7	---	---	726.6	0.024	0.000	20.1	3	1
03/14/06	10:47 p	-15.7	-15.7	-15.7	---	---	27.8	ESE	0.46	32.2	-29.7	---	---	726.6	0.024	0.000	20.1	3	1
03/14/06	10:48 p	-15.7	-15.7	-15.7	---	---	30.4	ESE	0.51	32.2	-30.1	---	---	726.5	0.024	0.000	20.1	3	1
03/14/06	10:49 p	-15.7	-15.7	-15.7	---	---	29.6	ESE	0.49	33.0	-29.9	---	---	726.6	0.024	0.000	20.1	2	1
03/14/06	10:50 p	-15.7	-15.7	-15.7	---	---	29.6	ESE	0.49	31.3	-29.9	---	---	726.5	0.024	0.000	20.1	2	1
03/14/06	10:51 p	-15.7	-15.7	-15.7	---	---	29.6	ESE	0.49	31.3	-29.9	---	---	726.6	0.024	0.000	20.1	3	1
03/14/06	10:52 p	-15.7	-15.7	-15.7	---	---	28.7	ESE	0.48	32.2	-29.7	---	---	726.7	0.024	0.000	20.1	3	1
03/14/06	10:53 p	-15.7	-15.7	-15.7	---	---	27.8	ESE	0.46	29.6	-29.6	---	---	726.6	0.024	0.000	20.1	3	1
03/14/06	10:54 p	-15.6	-15.6	-15.6	---	---	28.7	ESE	0.48	32.2	-29.7	---	---	726.6	0.024	0.000	20.1	3	1
03/14/06	10:55 p	-15.6	-15.6	-15.6	---	---	29.6	SE	0.49	33.0	-29.8	---	---	726.7	0.024	0.000	20.1	3	1
03/14/06	10:56 p	-15.6	-15.6	-15.6	---	---	32.2	SE	0.54	35.7	-30.3	---	---	726.6	0.024	0.000	20.1	2	1
03/14/06	10:57 p	-15.6	-15.6	-15.6	---	---	29.6	SE	0.49	32.2	-29.8	---	---	726.7	0.024	0.000	20.1	3	1
03/14/06	10:58 p	-15.6	-15.6	-15.6	---	---	29.6	ESE	0.49	32.2	-29.7	---	---	726.7	0.024	0.000	20.1	2	1
03/14/06	10:59 p	-15.6	-15.6	-15.6	---	---	27.8	ESE	0.46	33.0	-29.4	---	---	726.7	0.024	0.000	20.1	2	1
03/14/06	11:00 p	-15.5	-15.5	-15.5	---	---	28.7	ESE	0.48	33.0	-29.5	---	---	726.8	0.023	0.000	20.1	2	1
03/14/06	11:01 p	-15.5	-15.5	-15.6	---	---	28.7	SE	0.48	33.9	-29.5	---	---	726.9	0.023	0.000	20.1	2	1
03/14/06	11:02 p	-15.5	-15.5	-15.5	---	---	26.1	SE	0.43	27.8	-29.0	---	---	726.9	0.023	0.000	20.1	2	1
03/14/06	11:03 p	-15.5	-15.5	-15.5	---	---	24.3	SE	0.41	27.8	-28.7	---	---	727.0	0.023	0.000	20.0	2	1
03/14/06	11:04 p	-15.4	-15.4	-15.5	---	---	23.5	SE	0.39	27.0	-28.4	---	---	726.9	0.023	0.000	20.0	3	1
03/14/06	11:05 p	-15.4	-15.4	-15.4	---	---	27.8	ESE	0.46	30.4	-29.3	---	---	726.8	0.023	0.000	20.0	2	1
03/14/06	11:06 p	-15.4	-15.4	-15.4	---	---	27.8	ESE	0.46	30.4	-29.3	---	---	726.9	0.023	0.000	20.0	2	1
03/14/06	11:07 p	-15.4	-15.4	-15.4	---	---	27.8	ESE	0.46	30.4	-29.3	---	---	726.9	0.023	0.000	20.0	2	1
03/14/06	11:08 p	-15.4	-15.4	-15.4	---	---	27.0	SE	0.45	32.2	-29.1	---	---	726.9	0.023	0.000	20.0	3	1
03/14/06	11:09 p	-15.4	-15.4	-15.4	---	---	27.0	ESE	0.45	30.4	-29.1	---	---	727.0	0.023	0.000	20.0	2	1
03/14/06	11:10 p	-15.4	-15.4	-15.4	---	---	25.2	ESE	0.42	28.7	-28.7	---	---	727.0	0.023	0.000	20.0	2	1
03/14/06	11:11 p	-15.4	-15.3	-15.4	---	---	24.3	ESE	0.41	26.1	-28.5	---	---	727.1	0.023	0.000	20.0	2	1
03/14/06	11:12 p	-15.3	-15.3	-15.4	---	---	26.1	ESE	0.43	30.4	-28.8	---	---	727.0	0.023	0.000	20.0	2	1
03/14/06	11:13 p	-15.3	-15.3	-15.3	---	---	27.0	SE	0.45	30.4	-28.9	---	---	727.0	0.023	0.000	20.0	2	1
03/14/06	11:14 p	-15.3	-15.3	-15.3	---	---	23.5	ESE	0.39	26.1	-28.2	---	---	727.1	0.023	0.000	20.0	3	1
03/14/06	11:15 p	-15.3	-15.3	-15.3	---	---	24.3	ESE	0.41	26.1	-28.4	---	---	727.1	0.023	0.000	19.9	2	1
03/14/06	11:16 p	-15.3	-15.3	-15.3	---	---	27.0	ESE	0.45	29.6	-28.9	---	---	727.2	0.023	0.000	19.9	2	1
03/14/06	11:17 p	-15.3	-15.3	-15.3	---	---	26.1	ESE	0.43	28.7	-28.8	---	---	727.3	0.023	0.000	19.9	2	1
03/14/06	11:18 p	-15.3	-15.3	-15.3	---	---	21.7	ESE	0.36	23.5	-27.8	---	---	727.3	0.023	0.000	19.9	2	1
03/14/06	11:19 p	-15.3	-15.3	-15.3	---	---	22.6	ESE	0.38	28.7	-27.9	---	---	727.1	0.023	0.000	19.9	2	1
03/14/06	11:20 p	-15.3	-15.2	-15.3	---	---	25.2	ESE	0.42	27.8	-28.5	---	---	727.1	0.023	0.000	19.9	2	1
03/14/06	11:21 p	-15.2	-15.2	-15.3	---	---	24.3	ESE	0.41	26.1	-28.3	---	---	727.2	0.023	0.000	19.9	2	1
03/14/06	11:22 p	-15.2	-15.2	-15.2	---	---	26.1	ESE	0.43	27.8	-28.6	---	---	727.0	0.023	0.000	19.9	2	1
03/14/06	11:23 p	-15.2	-15.2	-15.2	---	---	25.2	SE	0.42	28.7	-28.4	---	---	727.2	0.023	0.000	19.9	2	1
03/14/06	11:24 p	-15.2	-15.2	-15.2	---	---	23.5	ESE	0.39	25.2	-28.1	---	---	727.1	0.023	0.000	19.9	2	1
03/14/06	11:25 p	-15.2	-15.2	-15.2	---	---	23.5	ESE	0.39	25.2	-28.1	---	---	727.1	0.023	0.000	19.9	2	1
03/14/06	11:26 p	-15.2	-15.2	-15.2	---	---	24.3	ESE	0.41	25.2	-28.2	---	---	727.2	0.023	0.000	19.9	2	1
03/14/06	11:27 p	-15.2	-15.2	-15.2	---	---	24.3	ESE	0.41	27.0	-28.2	---	---	727.2	0.023	0.000	19.9	2	1
03/14/06	11:28 p	-15.2	-15.2	-15.2	---	---	24.3	ESE	0.41	27.0	-28.2	---	---	727.2	0.023	0.000	19.9	2	1
03/14/06	11:29 p	-15.2	-15.2	-15.2	---	---	23.5	ESE	0.39	25.2	-28.0	---	---	727.3	0.023	0.000	19.9	2	1
03/14/06	11:30 p	-15.2	-15.2	-15.2	---	---	21.7	ESE	0.36	23.5	-27.6	---	---	727.3	0.023	0.000	19.9	2	1
03/14/06	11:31 p	-15.2	-15.2	-15.2	---	---	25.2	ESE	0.42	27.8	-28.4	---	---	727.3	0.023	0.000	19.9	2	1
03/14/06	11:32 p	-15.2	-15.2	-15.2	---	---	25.2	ESE	0.42	27.0	-28.4	---	---	727.2	0.023	0.000	19.9	2	1
03/14/06	11:33 p	-15.1	-15.1	-15.1	---	---	26.1	ESE	0.43	27.0	-28.4	---	---	727.1	0.023	0.000	19.9	2	1
03/14/06	11:34 p	-15.2	-15.2	-15.2	---	---	24.3	ESE	0.41	27.8	-28.2	---	---	727.2	0.023	0.000	19.9	2	1
03/14/06	11:35 p	-15.1	-15.1	-15.2	---	---	23.5	ESE	0.39	26.1	-27.9	---	---	727.2	0.023	0.000	19.9	2	1
03/14/06	11:36 p	-15.1	-15.1	-15.1	---	---	24.3	ESE	0.41	26.1	-28.1	---	---	727.2	0.023	0.000	19.9	2	1
03/14/06	11:37 p	-15.1	-15.1	-15.1	---	---	23.5	ESE	0.39	26.1	-27.9	---	---	727.1	0.023	0.000	19.9	2	1
03/14/06	11:38 p	-15.1	-15.1	-15.1	---	---	24.3	ESE	0.41	25.2	-28.1	---	---	727.1	0.023	0.000	19.9	2	1
03/14/06	11:39 p	-15.1	-15.1	-15.1	---	---	24.3	ESE	0.41	26.1	-28.1	---	---	727.1	0.023	0.000	19.9	2	1
03/14/06	11:40 p	-15.1	-15.1	-15.1	---	---	27.8	ESE	0.46	30.4	-28.8	---	---	727.1	0.023	0.000	19.9	2	1
03/14/06	11:41 p	-15.1	-15.1	-15.1	---	---	23.5	E	0.39	26.1	-27.9	---	---	727.1	0.023	0.000	19.9	2	1
03/14/06	11:42 p	-15.1	-15.1	-15.1	---	---	26.1	E	0.43	28.7	-28.4	---	---	727.2	0.023	0.000	19.9	2	1
03/14/06	11:43 p	-15.1	-15.1	-15.1	---	---	25.2	E	0.42	28.7	-28.3	---	---	727.1	0.023	0.000	19.9	2	1
03/14/06	11:44 p	-15.1	-15.1	-15.1	---	---	27.8	E	0.46	29.6	-28.8	---	---	727.1	0.023	0.000	19.9	2	1
03/14/06	11:45 p	-15.1	-15.1	-15.1	---	---	28.7	E	0.48	32.2	-28.9	---	---	727.2	0.023	0.000	19.9	2	1
03/14/06	11:46 p	-15.1	-15.1	-15.1	---	---	26.1	E	0.43	28.7	-28.4	---	---	727.2	0.023	0.000	19.9	2	1
03/14/06	11:47 p	-15.1	-15.1	-15.1	---	---	27.8	E	0.46	28.7	-28.8	---	---	727.1	0.023	0.000	19.9	2	1
03/14/06	11:48 p	-15.1	-15.1	-15.1	---	---	25.2	E	0.42	28.7	-28.3	---	---	727.2	0.023	0.000	19.9	2	1
03/14/06	11:49 p	-15.1	-15.1	-15.1	---	---	23.5	E	0.39	27.8	-27.9	---	---	727.1	0.023	0.000	19.9	3	1
03/14/06	11:50 p	-15.1	-15.1	-15.1	---	---	27.0	E	0.45	31.3	-28.7	---	---	727.0	0.023	0.000	19.9	2	1
03/14/06	11:51 p	-15.1	-15.1	-15.1	---	---	28.7	E	0.48	33.0	-28.9	---	---	727.2	0.023	0.000	19.9	2	1
03/14/06	11:52 p	-15.2	-15.1	-15.2	---	---	29.6	E	0.49	35.7	-29.2	---	---	727.0	0.023	0.000	19.9	2	1
03/14/06	11:53 p	-15.2	-15.2	-15.2	---	---	27.0	E	0.45	33.0	-28.7	---	---	727.2	0.023	0.000	19.9	2	1
03/14/06	11:54 p	-15.2	-15.2	-15.2	---	---	26.1	E	0.43	29.6	-28.6	---	---	727.3	0.023	0.000	19.9	2	1
03/14/06	11:55 p	-15.2	-15.2	-15.2	---	---	28.7	E	0.48	33.0	-29.1	---	---	727.2	0.023	0.000	19.9	2	1
03/14/06	11:56 p	-15.2	-15.2	-15.2	---	---	28.7	E	0.48	32.2	-29.1	---	---	727.2	0.023	0.000	19.9	2	1
03/14/06	11:57 p	-15.2	-15.2	-15.3	---	---	27.0	E	0.45	30.4	-28.8	---	---	727.3	0.023	0.000	19.9	2	1
03/14/06	11:58 p	-15.3	-15.3	-15.3	---	---	26.1	E	0.43	29.6	-28.7	---	---	727.2	0.023	0.000	19.9	2	1
03/14/06	11:59 p	-15.3	-15.3	-15.3	---	---	27.8	E	0.46	31.3	-29.1	---	---	727.3	0.023	0.000	19.9	2	1
03/15/06	12:00 a	-15.3	-15.3	-15.3	---	---	26.1	E	0.43	30.4	-28.8	---	---	727.2	0.023	0.000	19.9	2	1
03/15/06	12:01 a	-15.3	-15.3	-15.4	---	---	29.6	ESE	0.49	32.2	-29.4	---	---	727.2	0.023	0.000	19.9	2	1
03/15/06	12:02 a	-15.4	-15.4	-15.4	---	---	27.0	E	0.45	29.6	-29.0	---	---	727.1	0.023	0.000	19.9	2	1
03/15/06	12:03 a	-15.4	-15.4	-15.4	---	---	27.8	E	0.46	29.6	-29.3	---	---	727.1	0.023	0.000	19.9	2	1
03/15/06	12:04 a	-15.4	-15.4	-15.5	---	---	26.1	E	0.43	29.6	-28.9	---	---	727.1	0.023	0.000	19.9	2	1
03/15/06	12:05 a	-15.5	-15.5	-15.5	---	---	25.2	E	0.42	28.7	-28.8	---	---	727.2	0.023	0.000	19.9	2	1
03/15/06	12:06 a	-15.5	-15.5	-15.6	---	---	27.0	E	0.45	30.4	-29.2	---	---	727.1	0.023	0.000	19.9	3	1
03/15/06	12:07 a	-15.6	-15.6	-15.6	---	---	24.3	E	0.41	28.7	-28.7	---	---	727.1	0.024	0.000	19.9	2	1
03/15/06	12:08 a	-15.6	-15.6	-15.7	---	---	28.7	E	0.48	33.9	-29.7	---	---	727.0	0.024	0.000	19.9	2	1
03/15/06	12:09 a	-15.7	-15.7	-15.7	---	---	29.6	E	0.49	32.2	-29.9	---	---	727.0	0.024	0.000	19.9	2	1
03/15/06	12:10 a	-15.7	-15.7	-15.7	---	---	27.8	E	0.46	32.2	-29.6	---	---	727.0	0.024	0.000	19.9	2	1
03/15/06	12:11 a	-15.7	-15.7	-15.8	---	---	30.4	E	0.51	36.5	-30.1	---	---	726.9	0.024	0.000	19.9	2	1
03/15/06	12:12 a	-15.8	-15.8	-15.8	---	---	34.8	E	0.58	38.3	-31.0	---	---	726.9	0.024	0.000	19.9	2	1
03/15/06	12:13 a	-15.8	-15.8	-15.8	---	---	33.0	E	0.55	36.5	-30.7	---	---	726.8	0.024	0.000	19.9	2	1
03/15/06	12:14 a	-15.9	-15.9	-15.9	---	---	33.9	E	0.57	37.4	-30.9	---	---	726.9	0.024	0.000	19.9	2	1
03/15/06	12:15 a	-15.9	-15.9	-16.0	---	---	28.7	E	0.48	34.8	-30.1	---	---	726.9	0.024	0.000	19.9	2	1
03/15/06	12:16 a	-16.0	-16.0	-16.0	---	---	30.4	E	0.51	34.8	-30.5	---	---	726.8	0.024	0.000	19.9	2	1
03/15/06	12:17 a	-16.1	-16.1	-16.1	---	---	33.9	E	0.57	36.5	-31.2	---	---	726.8	0.024	0.000	19.9	2	1
03/15/06	12:18 a	-16.1	-16.1	-16.1	---	---	34.8	ESE	0.58	38.3	-31.4	---	---	726.8	0.024	0.000	19.9	2	1
03/15/06	12:19 a	-16.1	-16.1	-16.2	---	---	36.5	E	0.61	38.3	-31.7	---	---	726.8	0.024	0.000	19.9	2	1
03/15/06	12:20 a	-16.2	-16.2	-16.2	---	---	33.0	E	0.55	39.1	-31.3	---	---	726.9	0.024	0.000	19.9	2	1
03/15/06	12:21 a	-16.3	-16.3	-16.3	---	---	36.5	E	0.61	38.3	-31.9	---	---	727.0	0.024	0.000	19.9	2	1
03/15/06	12:22 a	-16.3	-16.3	-16.3	---	---	34.8	ESE	0.58	37.4	-31.6	---	---	727.1	0.024	0.000	19.9	2	1
03/15/06	12:23 a	-16.3	-16.3	-16.4	---	---	31.3	E	0.52	34.8	-31.1	---	---	726.9	0.024	0.000	19.9	2	1
03/15/06	12:24 a	-16.4	-16.4	-16.4	---	---	30.4	E	0.51	39.1	-31.1	---	---	726.9	0.024	0.000	19.9	2	1
03/15/06	12:25 a	-16.4	-16.4	-16.5	---	---	32.2	E	0.54	40.0	-31.4	---	---	726.9	0.024	0.000	19.9	2	1
03/15/06	12:26 a	-16.6	-16.5	-16.6	---	---	40.0	ESE	0.67	42.6	-32.8	---	---	727.0	0.024	0.000	19.9	2	1
03/15/06	12:27 a	-16.6	-16.6	-16.6	---	---	39.1	ESE	0.65	41.7	-32.7	---	---	727.0	0.024	0.000	19.9	2	1
03/15/06	12:28 a	-16.7	-16.6	-16.7	---	---	33.0	E	0.55	38.3	-31.9	---	---	727.0	0.024	0.000	19.9	2	1
03/15/06	12:29 a	-16.7	-16.7	-16.7	---	---	32.2	E	0.54	35.7	-31.8	---	---	727.0	0.024	0.000	19.9	2	1
03/15/06	12:30 a	-16.7	-16.7	-16.8	---	---	29.6	E	0.49	35.7	-31.3	---	---	727.1	0.024	0.000	19.9	2	1
03/15/06	12:31 a	-16.8	-16.8	-16.8	---	---	30.4	E	0.51	39.1	-31.7	---	---	727.1	0.024	0.000	19.9	2	1
03/15/06	12:32 a	-16.8	-16.8	-16.9	---	---	36.5	ESE	0.61	40.0	-32.7	---	---	727.2	0.024	0.000	19.9	2	1
03/15/06	12:33 a	-16.9	-16.9	-16.9	---	---	32.2	E	0.54	34.8	-32.1	---	---	727.1	0.024	0.000	19.9	2	1
03/15/06	12:34 a	-16.9	-16.9	-17.0	---	---	33.0	E	0.55	36.5	-32.3	---	---	727.2	0.024	0.000	19.9	2	1
03/15/06	12:35 a	-17.0	-17.0	-17.1	---	---	34.8	E	0.58	37.4	-32.6	---	---	727.1	0.025	0.000	19.9	2	1
03/15/06	12:36 a	-17.1	-17.1	-17.1	---	---	32.2	E	0.54	36.5	-32.3	---	---	727.2	0.025	0.000	19.9	2	1
03/15/06	12:37 a	-17.1	-17.1	-17.2	---	---	29.6	E	0.49	33.0	-31.9	---	---	727.2	0.025	0.000	19.9	2	1
03/15/06	12:38 a	-17.2	-17.2	-17.2	---	---	33.0	E	0.55	36.5	-32.6	---	---	727.1	0.025	0.000	19.9	2	1
03/15/06	12:39 a	-17.2	-17.2	-17.2	---	---	36.5	ESE	0.61	38.3	-33.1	---	---	727.0	0.025	0.000	19.9	2	1
03/15/06	12:40 a	-17.3	-17.2	-17.3	---	---	37.4	ESE	0.62	39.1	-33.4	---	---	727.0	0.025	0.000	19.9	2	1
03/15/06	12:41 a	-17.3	-17.3	-17.4	---	---	36.5	E	0.61	40.0	-33.4	---	---	727.0	0.025	0.000	19.9	2	1
03/15/06	12:42 a	-17.4	-17.4	-17.4	---	---	32.2	E	0.54	34.8	-32.7	---	---	727.1	0.025	0.000	19.9	2	1
03/15/06	12:43 a	-17.4	-17.4	-17.4	---	---	33.9	E	0.57	36.5	-33.1	---	---	727.1	0.025	0.000	19.9	2	1
03/15/06	12:44 a	-17.5	-17.4	-17.6	---	---	32.2	E	0.54	37.4	-32.9	---	---	727.2	0.025	0.000	19.9	2	1
03/15/06	12:45 a	-17.6	-17.6	-17.6	---	---	28.7	E	0.48	32.2	-32.3	---	---	727.2	0.025	0.000	19.9	2	1
03/15/06	12:46 a	-17.6	-17.6	-17.6	---	---	31.3	E	0.52	36.5	-32.8	---	---	727.2	0.025	0.000	19.9	2	1
03/15/06	12:47 a	-17.6	-17.6	-17.7	---	---	32.2	E	0.54	36.5	-33.1	---	---	727.2	0.025	0.000	19.9	2	1
03/15/06	12:48 a	-17.7	-17.7	-17.7	---	---	32.2	E	0.54	36.5	-33.1	---	---	727.2	0.025	0.000	19.8	2	1
03/15/06	12:49 a	-17.7	-17.7	-17.8	---	---	33.9	E	0.57	36.5	-33.5	---	---	727.4	0.025	0.000	19.8	2	1
03/15/06	12:50 a	-17.8	-17.8	-17.8	---	---	32.2	E	0.54	36.5	-33.3	---	---	727.2	0.025	0.000	19.9	2	1
03/15/06	12:51 a	-17.9	-17.8	-17.9	---	---	33.9	E	0.57	36.5	-33.7	---	---	727.2	0.025	0.000	19.9	2	1
03/15/06	12:52 a	-17.9	-17.9	-17.9	---	---	29.6	E	0.49	34.8	-32.9	---	---	727.4	0.025	0.000	19.9	2	1
03/15/06	12:53 a	-17.9	-17.9	-17.9	---	---	27.8	E	0.46	31.3	-32.7	---	---	727.3	0.025	0.000	19.9	2	1
03/15/06	12:54 a	-18.0	-17.9	-18.0	---	---	29.6	E	0.49	33.0	-33.1	---	---	727.2	0.025	0.000	19.9	2	1
03/15/06	12:55 a	-18.0	-18.0	-18.0	---	---	31.3	E	0.52	34.8	-33.4	---	---	727.2	0.025	0.000	19.9	2	1
03/15/06	12:56 a	-18.1	-18.1	-18.1	---	---	28.7	E	0.48	33.9	-33.0	---	---	727.2	0.025	0.000	19.9	2	1
03/15/06	12:57 a	-18.1	-18.1	-18.1	---	---	28.7	E	0.48	33.0	-33.0	---	---	727.3	0.025	0.000	19.9	2	1
03/15/06	12:58 a	-18.1	-18.1	-18.1	---	---	28.7	E	0.48	32.2	-33.1	---	---	727.3	0.025	0.000	19.9	2	1
03/15/06	12:59 a	-18.2	-18.2	-18.2	---	---	33.0	E	0.55	36.5	-33.9	---	---	727.3	0.025	0.000	19.8	2	1
03/15/06	1:00 a	-18.2	-18.2	-18.2	---	---	33.0	E	0.55	38.3	-34.0	---	---	727.3	0.025	0.000	19.9	2	1
03/15/06	1:01 a	-18.2	-18.2	-18.2	---	---	33.0	E	0.55	36.5	-34.0	---	---	727.2	0.025	0.000	19.9	2	1
03/15/06	1:02 a	-18.3	-18.3	-18.3	---	---	31.3	E	0.52	33.9	-33.8	---	---	727.3	0.025	0.000	19.8	2	1
03/15/06	1:03 a	-18.3	-18.3	-18.3	---	---	30.4	E	0.51	33.9	-33.6	---	---	727.3	0.025	0.000	19.8	2	1
03/15/06	1:04 a	-18.3	-18.3	-18.3	---	---	33.0	E	0.55	37.4	-34.2	---	---	727.2	0.025	0.000	19.8	2	1
03/15/06	1:05 a	-18.3	-18.3	-18.4	---	---	32.2	E	0.54	34.8	-34.1	---	---	727.2	0.025	0.000	19.8	2	1
03/15/06	1:06 a	-18.4	-18.4	-18.4	---	---	33.0	E	0.55	35.7	-34.3	---	---	727.3	0.026	0.000	19.8	2	1
03/15/06	1:07 a	-18.4	-18.4	-18.5	---	---	34.8	E	0.58	37.4	-34.6	---	---	727.3	0.026	0.000	19.8	2	1
03/15/06	1:08 a	-18.4	-18.4	-18.5	---	---	34.8	E	0.58	37.4	-34.6	---	---	727.2	0.026	0.000	19.8	2	1
03/15/06	1:09 a	-18.5	-18.5	-18.6	---	---	35.7	E	0.59	38.3	-34.8	---	---	727.2	0.026	0.000	19.8	2	1
03/15/06	1:10 a	-18.6	-18.5	-18.6	---	---	33.0	E	0.55	37.4	-34.5	---	---	727.3	0.026	0.000	19.8	2	1
03/15/06	1:11 a	-18.6	-18.6	-18.6	---	---	33.9	E	0.57	36.5	-34.7	---	---	727.4	0.026	0.000	19.8	2	1
03/15/06	1:12 a	-18.6	-18.6	-18.7	---	---	33.9	E	0.57	35.7	-34.7	---	---	727.4	0.026	0.000	19.8	2	1
03/15/06	1:13 a	-18.7	-18.6	-18.7	---	---	34.8	E	0.58	36.5	-34.9	---	---	727.3	0.026	0.000	19.8	2	1
03/15/06	1:14 a	-18.7	-18.7	-18.7	---	---	33.9	ESE	0.57	37.4	-34.9	---	---	727.5	0.026	0.000	19.8	2	1
03/15/06	1:15 a	-18.7	-18.7	-18.7	---	---	32.2	ESE	0.54	34.8	-34.6	---	---	727.5	0.026	0.000	19.8	2	1
03/15/06	1:16 a	-18.8	-18.8	-18.8	---	---	33.9	ESE	0.57	35.7	-34.9	---	---	727.4	0.026	0.000	19.8	2	1
03/15/06	1:17 a	-18.8	-18.8	-18.8	---	---	34.8	ESE	0.58	37.4	-35.1	---	---	727.4	0.026	0.000	19.8	2	1
03/15/06	1:18 a	-18.8	-18.8	-18.9	---	---	34.8	E	0.58	37.4	-35.2	---	---	727.2	0.026	0.000	19.8	2	1
03/15/06	1:19 a	-18.9	-18.9	-18.9	---	---	33.0	E	0.55	36.5	-34.9	---	---	727.3	0.026	0.000	19.9	2	1
03/15/06	1:20 a	-18.9	-18.9	-18.9	---	---	31.3	E	0.52	34.8	-34.7	---	---	727.3	0.026	0.000	19.9	3	1
03/15/06	1:21 a	-18.9	-18.9	-18.9	---	---	27.8	E	0.46	33.0	-34.1	---	---	727.4	0.026	0.000	19.9	3	1
03/15/06	1:22 a	-19.0	-18.9	-19.0	---	---	28.7	E	0.48	34.8	-34.3	---	---	727.3	0.026	0.000	19.9	3	1
03/15/06	1:23 a	-19.0	-19.0	-19.0	---	---	27.8	E	0.46	31.3	-34.1	---	---	727.5	0.026	0.000	19.9	3	1
03/15/06	1:24 a	-19.0	-19.0	-19.1	---	---	27.8	E	0.46	31.3	-34.1	---	---	727.5	0.026	0.000	19.9	3	1
03/15/06	1:25 a	-19.1	-19.1	-19.1	---	---	29.6	E	0.49	33.9	-34.6	---	---	727.5	0.026	0.000	19.8	3	1
03/15/06	1:26 a	-19.1	-19.1	-19.1	---	---	29.6	E	0.49	33.0	-34.6	---	---	727.5	0.026	0.000	19.8	3	1
03/15/06	1:27 a	-19.1	-19.1	-19.1	---	---	27.0	E	0.45	29.6	-34.1	---	---	727.5	0.026	0.000	19.8	3	1
03/15/06	1:28 a	-19.1	-19.1	-19.1	---	---	27.8	E	0.46	31.3	-34.3	---	---	727.5	0.026	0.000	19.8	3	1
03/15/06	1:29 a	-19.1	-19.1	-19.2	---	---	31.3	E	0.52	33.9	-34.9	---	---	727.5	0.026	0.000	19.8	3	1
03/15/06	1:30 a	-19.1	-19.1	-19.2	---	---	31.3	E	0.52	33.9	-34.9	---	---	727.4	0.026	0.000	19.8	3	1
03/15/06	1:31 a	-19.2	-19.1	-19.2	---	---	32.2	E	0.54	33.9	-35.2	---	---	727.5	0.026	0.000	19.8	3	1
03/15/06	1:32 a	-19.2	-19.2	-19.2	---	---	33.0	E	0.55	37.4	-35.3	---	---	727.4	0.026	0.000	19.8	3	1
03/15/06	1:33 a	-19.2	-19.2	-19.2	---	---	32.2	E	0.54	34.8	-35.3	---	---	727.4	0.026	0.000	19.8	3	1
03/15/06	1:34 a	-19.2	-19.2	-19.2	---	---	31.3	E	0.52	33.9	-35.1	---	---	727.4	0.026	0.000	19.8	3	1
03/15/06	1:35 a	-19.2	-19.2	-19.2	---	---	28.7	E	0.48	35.7	-34.6	---	---	727.5	0.026	0.000	19.8	3	1
03/15/06	1:36 a	-19.3	-19.2	-19.3	---	---	31.3	E	0.52	36.5	-35.2	---	---	727.4	0.026	0.000	19.8	3	1
03/15/06	1:37 a	-19.3	-19.2	-19.3	---	---	31.3	E	0.52	34.8	-35.2	---	---	727.3	0.026	0.000	19.8	3	1
03/15/06	1:38 a	-19.3	-19.3	-19.3	---	---	33.0	E	0.55	36.5	-35.5	---	---	727.4	0.026	0.000	19.8	3	1
03/15/06	1:39 a	-19.3	-19.3	-19.3	---	---	32.2	E	0.54	35.7	-35.3	---	---	727.4	0.026	0.000	19.8	3	1
03/15/06	1:40 a	-19.3	-19.3	-19.3	---	---	34.8	E	0.58	36.5	-35.9	---	---	727.5	0.026	0.000	19.8	3	1
03/15/06	1:41 a	-19.3	-19.3	-19.3	---	---	33.9	E	0.57	35.7	-35.7	---	---	727.4	0.026	0.000	19.8	3	1
03/15/06	1:42 a	-19.3	-19.3	-19.3	---	---	33.9	E	0.57	37.4	-35.7	---	---	727.4	0.026	0.000	19.8	3	1
03/15/06	1:43 a	-19.3	-19.3	-19.3	---	---	33.0	E	0.55	35.7	-35.6	---	---	727.3	0.026	0.000	19.8	3	1
03/15/06	1:44 a	-19.3	-19.3	-19.3	---	---	33.0	E	0.55	35.7	-35.6	---	---	727.3	0.026	0.000	19.8	3	1
03/15/06	1:45 a	-19.3	-19.3	-19.3	---	---	34.8	E	0.58	35.7	-35.9	---	---	727.4	0.026	0.000	19.8	3	1
03/15/06	1:46 a	-19.4	-19.4	-19.4	---	---	35.7	E	0.59	38.3	-36.1	---	---	727.3	0.026	0.000	19.8	3	1
03/15/06	1:47 a	-19.4	-19.4	-19.4	---	---	33.9	ESE	0.57	35.7	-35.8	---	---	727.5	0.026	0.000	19.8	3	1
03/15/06	1:48 a	-19.4	-19.4	-19.4	---	---	29.6	ESE	0.49	34.8	-35.0	---	---	727.5	0.026	0.000	19.7	3	1
03/15/06	1:49 a	-19.4	-19.4	-19.4	---	---	31.3	E	0.52	35.7	-35.4	---	---	727.5	0.026	0.000	19.7	3	1
03/15/06	1:50 a	-19.4	-19.4	-19.4	---	---	34.8	ESE	0.58	36.5	-36.0	---	---	727.5	0.026	0.000	19.7	3	1
03/15/06	1:51 a	-19.4	-19.4	-19.4	---	---	33.9	ESE	0.57	35.7	-35.9	---	---	727.4	0.026	0.000	19.7	3	1
03/15/06	1:52 a	-19.4	-19.4	-19.5	---	---	35.7	E	0.59	37.4	-36.2	---	---	727.4	0.026	0.000	19.7	3	1
03/15/06	1:53 a	-19.5	-19.5	-19.5	---	---	33.9	E	0.57	36.5	-35.9	---	---	727.5	0.026	0.000	19.7	3	1
03/15/06	1:54 a	-19.5	-19.5	-19.5	---	---	30.4	E	0.51	35.7	-35.3	---	---	727.5	0.026	0.000	19.7	3	1
03/15/06	1:55 a	-19.5	-19.5	-19.5	---	---	33.9	E	0.57	36.5	-35.9	---	---	727.5	0.026	0.000	19.7	3	1
03/15/06	1:56 a	-19.5	-19.5	-19.5	---	---	33.0	E	0.55	36.5	-35.8	---	---	727.6	0.026	0.000	19.7	3	1
03/15/06	1:57 a	-19.6	-19.5	-19.6	---	---	32.2	E	0.54	37.4	-35.7	---	---	727.5	0.026	0.000	19.7	3	1
03/15/06	1:58 a	-19.6	-19.5	-19.6	---	---	28.7	E	0.48	32.2	-35.1	---	---	727.5	0.026	0.000	19.7	3	1
03/15/06	1:59 a	-19.6	-19.5	-19.6	---	---	28.7	E	0.48	32.2	-35.1	---	---	727.5	0.026	0.000	19.7	3	1
03/15/06	2:00 a	-19.6	-19.6	-19.6	---	---	31.3	E	0.52	35.7	-35.6	---	---	727.6	0.026	0.000	19.7	3	1
03/15/06	2:01 a	-19.6	-19.6	-19.6	---	---	29.6	E	0.49	32.2	-35.3	---	---	727.6	0.026	0.000	19.7	3	1
03/15/06	2:02 a	-19.6	-19.6	-19.6	---	---	33.0	E	0.55	37.4	-35.9	---	---	727.6	0.026	0.000	19.7	3	1
03/15/06	2:03 a	-19.6	-19.6	-19.6	---	---	34.8	E	0.58	36.5	-36.3	---	---	727.7	0.026	0.000	19.7	2	1
03/15/06	2:04 a	-19.6	-19.6	-19.6	---	---	32.2	E	0.54	34.8	-35.8	---	---	727.7	0.026	0.000	19.7	2	1
03/15/06	2:05 a	-19.7	-19.7	-19.7	---	---	33.0	E	0.55	37.4	-36.1	---	---	727.6	0.026	0.000	19.7	3	1
03/15/06	2:06 a	-19.7	-19.7	-19.7	---	---	29.6	E	0.49	32.2	-35.4	---	---	727.5	0.026	0.000	19.7	3	1
03/15/06	2:07 a	-19.7	-19.7	-19.7	---	---	29.6	E	0.49	32.2	-35.4	---	---	727.5	0.026	0.000	19.7	3	1
03/15/06	2:08 a	-19.7	-19.7	-19.7	---	---	30.4	E	0.51	33.9	-35.6	---	---	727.6	0.026	0.000	19.7	3	1
03/15/06	2:09 a	-19.7	-19.7	-19.7	---	---	31.3	E	0.52	33.9	-35.8	---	---	727.7	0.026	0.000	19.7	2	1
03/15/06	2:10 a	-19.7	-19.7	-19.7	---	---	27.8	E	0.46	32.2	-35.1	---	---	727.6	0.026	0.000	19.7	2	1
03/15/06	2:11 a	-19.7	-19.7	-19.7	---	---	30.4	E	0.51	33.0	-35.6	---	---	727.7	0.026	0.000	19.7	2	1
03/15/06	2:12 a	-19.7	-19.7	-19.8	---	---	28.7	E	0.48	32.2	-35.3	---	---	727.7	0.026	0.000	19.7	2	1
03/15/06	2:13 a	-19.8	-19.8	-19.8	---	---	29.6	E	0.49	31.3	-35.6	---	---	727.8	0.026	0.000	19.7	2	1
03/15/06	2:14 a	-19.8	-19.8	-19.8	---	---	27.0	E	0.45	30.4	-35.0	---	---	727.8	0.026	0.000	19.7	2	1
03/15/06	2:15 a	-19.8	-19.8	-19.8	---	---	27.0	E	0.45	30.4	-35.0	---	---	727.7	0.026	0.000	19.7	2	1
03/15/06	2:16 a	-19.8	-19.8	-19.8	---	---	27.0	E	0.45	31.3	-35.0	---	---	727.6	0.026	0.000	19.8	2	1
03/15/06	2:17 a	-19.8	-19.8	-19.8	---	---	27.0	E	0.45	29.6	-35.0	---	---	727.8	0.026	0.000	19.7	2	1
03/15/06	2:18 a	-19.8	-19.8	-19.8	---	---	25.2	E	0.42	29.6	-34.7	---	---	727.7	0.027	0.000	19.7	2	1
03/15/06	2:19 a	-19.8	-19.8	-19.8	---	---	26.1	E	0.43	30.4	-34.8	---	---	727.8	0.026	0.000	19.8	2	1
03/15/06	2:20 a	-19.8	-19.8	-19.8	---	---	27.8	E	0.46	32.2	-35.3	---	---	727.7	0.027	0.000	19.8	2	1
03/15/06	2:21 a	-19.8	-19.8	-19.8	---	---	27.8	E	0.46	31.3	-35.3	---	---	727.8	0.027	0.000	19.7	2	1
03/15/06	2:22 a	-19.8	-19.8	-19.8	---	---	27.8	E	0.46	31.3	-35.3	---	---	727.8	0.027	0.000	19.7	2	1
03/15/06	2:23 a	-19.8	-19.8	-19.8	---	---	27.0	E	0.45	30.4	-35.1	---	---	727.9	0.027	0.000	19.7	2	1
03/15/06	2:24 a	-19.8	-19.8	-19.8	---	---	28.7	E	0.48	32.2	-35.4	---	---	727.8	0.027	0.000	19.7	2	1
03/15/06	2:25 a	-19.8	-19.8	-19.8	---	---	27.8	E	0.46	30.4	-35.3	---	---	727.8	0.027	0.000	19.7	2	1
03/15/06	2:26 a	-19.8	-19.8	-19.8	---	---	30.4	E	0.51	34.8	-35.8	---	---	727.8	0.027	0.000	19.7	2	1
03/15/06	2:27 a	-19.8	-19.8	-19.9	---	---	27.0	E	0.45	31.3	-35.1	---	---	727.8	0.027	0.000	19.7	2	1
03/15/06	2:28 a	-19.9	-19.8	-19.9	---	---	27.0	E	0.45	31.3	-35.2	---	---	727.8	0.027	0.000	19.7	2	1
03/15/06	2:29 a	-19.9	-19.9	-19.9	---	---	27.0	E	0.45	32.2	-35.2	---	---	727.8	0.027	0.000	19.7	2	1
03/15/06	2:30 a	-19.8	-19.8	-19.9	---	---	29.6	E	0.49	35.7	-35.6	---	---	727.7	0.027	0.000	19.7	2	1
03/15/06	2:31 a	-19.8	-19.8	-19.9	---	---	29.6	E	0.49	35.7	-35.6	---	---	727.8	0.027	0.000	19.7	2	1
03/15/06	2:32 a	-19.8	-19.8	-19.9	---	---	30.4	E	0.51	37.4	-35.8	---	---	727.8	0.027	0.000	19.7	2	1
03/15/06	2:33 a	-19.8	-19.8	-19.8	---	---	31.3	E	0.52	33.9	-35.9	---	---	727.7	0.027	0.000	19.7	2	1
03/15/06	2:34 a	-19.8	-19.8	-19.9	---	---	29.6	E	0.49	33.9	-35.6	---	---	727.8	0.027	0.000	19.7	2	1
03/15/06	2:35 a	-19.8	-19.8	-19.8	---	---	30.4	E	0.51	35.7	-35.8	---	---	727.8	0.027	0.000	19.7	2	1
03/15/06	2:36 a	-19.8	-19.8	-19.9	---	---	31.3	E	0.52	35.7	-35.9	---	---	727.8	0.027	0.000	19.7	2	1
03/15/06	2:37 a	-19.9	-19.8	-19.9	---	---	31.3	E	0.52	34.8	-36.0	---	---	727.8	0.027	0.000	19.7	2	1
03/15/06	2:38 a	-19.8	-19.8	-19.8	---	---	30.4	E	0.51	36.5	-35.8	---	---	727.7	0.027	0.000	19.7	2	1
03/15/06	2:39 a	-19.8	-19.8	-19.9	---	---	30.4	E	0.51	32.2	-35.8	---	---	727.8	0.027	0.000	19.7	2	1
03/15/06	2:40 a	-19.9	-19.8	-19.9	---	---	29.6	E	0.49	35.7	-35.7	---	---	727.8	0.027	0.000	19.7	2	1
03/15/06	2:41 a	-19.9	-19.8	-19.9	---	---	31.3	E	0.52	35.7	-36.0	---	---	727.7	0.027	0.000	19.7	2	1
03/15/06	2:42 a	-19.8	-19.8	-19.8	---	---	32.2	E	0.54	37.4	-36.1	---	---	727.7	0.027	0.000	19.7	2	1
03/15/06	2:43 a	-19.8	-19.8	-19.8	---	---	33.0	E	0.55	36.5	-36.3	---	---	727.6	0.027	0.000	19.7	2	1
03/15/06	2:44 a	-19.8	-19.8	-19.8	---	---	32.2	E	0.54	36.5	-36.1	---	---	727.8	0.027	0.000	19.7	2	1
03/15/06	2:45 a	-19.8	-19.8	-19.8	---	---	28.7	E	0.48	33.9	-35.4	---	---	727.9	0.027	0.000	19.6	2	1
03/15/06	2:46 a	-19.8	-19.8	-19.8	---	---	31.3	E	0.52	38.3	-35.9	---	---	727.8	0.027	0.000	19.7	2	1
03/15/06	2:47 a	-19.8	-19.8	-19.8	---	---	29.6	E	0.49	33.0	-35.6	---	---	727.8	0.027	0.000	19.7	2	1
03/15/06	2:48 a	-19.8	-19.8	-19.8	---	---	31.3	E	0.52	34.8	-35.9	---	---	727.9	0.027	0.000	19.7	2	1
03/15/06	2:49 a	-19.8	-19.8	-19.8	---	---	31.3	E	0.52	34.8	-35.9	---	---	727.8	0.027	0.000	19.7	2	1
03/15/06	2:50 a	-19.8	-19.8	-19.8	---	---	31.3	E	0.52	37.4	-35.9	---	---	727.7	0.027	0.000	19.7	2	1
03/15/06	2:51 a	-19.8	-19.8	-19.8	---	---	33.9	E	0.57	38.3	-36.4	---	---	727.8	0.027	0.000	19.7	2	1
03/15/06	2:52 a	-19.8	-19.8	-19.8	---	---	33.9	E	0.57	39.1	-36.4	---	---	727.8	0.027	0.000	19.7	2	1
03/15/06	2:53 a	-19.8	-19.8	-19.8	---	---	33.9	E	0.57	38.3	-36.3	---	---	727.7	0.026	0.000	19.7	2	1
03/15/06	2:54 a	-19.8	-19.8	-19.8	---	---	31.3	E	0.52	34.8	-35.9	---	---	727.7	0.027	0.000	19.7	2	1
03/15/06	2:55 a	-19.8	-19.8	-19.8	---	---	32.2	E	0.54	36.5	-36.1	---	---	727.8	0.027	0.000	19.7	2	1
03/15/06	2:56 a	-19.8	-19.8	-19.8	---	---	31.3	E	0.52	38.3	-35.9	---	---	727.8	0.027	0.000	19.7	2	1
03/15/06	2:57 a	-19.8	-19.8	-19.8	---	---	30.4	E	0.51	34.8	-35.7	---	---	727.7	0.026	0.000	19.7	2	1
03/15/06	2:58 a	-19.8	-19.8	-19.8	---	---	30.4	E	0.51	35.7	-35.7	---	---	727.8	0.026	0.000	19.7	2	1
03/15/06	2:59 a	-19.8	-19.8	-19.8	---	---	31.3	E	0.52	35.7	-35.9	---	---	727.8	0.026	0.000	19.7	2	1
03/15/06	3:00 a	-19.8	-19.8	-19.8	---	---	32.2	E	0.54	35.7	-36.0	---	---	728.1	0.026	0.000	19.7	2	1
03/15/06	3:01 a	-19.8	-19.7	-19.8	---	---	30.4	E	0.51	33.9	-35.7	---	---	727.9	0.026	0.000	19.7	2	1
03/15/06	3:02 a	-19.7	-19.7	-19.8	---	---	30.4	E	0.51	34.8	-35.6	---	---	728.0	0.026	0.000	19.7	2	1
03/15/06	3:03 a	-19.7	-19.7	-19.7	---	---	28.7	E	0.48	33.9	-35.3	---	---	727.9	0.026	0.000	19.7	2	1
03/15/06	3:04 a	-19.7	-19.7	-19.7	---	---	33.0	E	0.55	36.5	-36.1	---	---	727.8	0.026	0.000	19.7	2	1
03/15/06	3:05 a	-19.7	-19.7	-19.7	---	---	29.6	E	0.49	33.9	-35.4	---	---	727.9	0.026	0.000	19.7	2	1
03/15/06	3:06 a	-19.7	-19.6	-19.7	---	---	28.7	E	0.48	33.0	-35.2	---	---	727.9	0.026	0.000	19.7	2	1
03/15/06	3:07 a	-19.6	-19.6	-19.7	---	---	29.6	E	0.49	40.9	-35.3	---	---	727.9	0.026	0.000	19.7	2	1
03/15/06	3:08 a	-19.6	-19.6	-19.7	---	---	30.4	E	0.51	34.8	-35.4	---	---	727.9	0.026	0.000	19.7	2	1
03/15/06	3:09 a	-19.6	-19.6	-19.6	---	---	30.4	E	0.51	34.8	-35.4	---	---	727.8	0.026	0.000	19.7	2	1
03/15/06	3:10 a	-19.6	-19.6	-19.6	---	---	32.2	E	0.54	38.3	-35.7	---	---	727.9	0.026	0.000	19.7	2	1
03/15/06	3:11 a	-19.6	-19.5	-19.6	---	---	31.3	E	0.52	33.9	-35.6	---	---	727.7	0.026	0.000	19.7	2	1
03/15/06	3:12 a	-19.5	-19.5	-19.5	---	---	30.4	E	0.51	34.8	-35.3	---	---	727.8	0.026	0.000	19.6	2	1
03/15/06	3:13 a	-19.5	-19.5	-19.5	---	---	33.0	E	0.55	36.5	-35.8	---	---	727.7	0.026	0.000	19.6	2	1
03/15/06	3:14 a	-19.4	-19.4	-19.4	---	---	33.9	E	0.57	38.3	-35.9	---	---	727.8	0.026	0.000	19.6	2	1
03/15/06	3:15 a	-19.4	-19.4	-19.4	---	---	33.0	E	0.55	39.1	-35.7	---	---	727.8	0.026	0.000	19.6	2	1
03/15/06	3:16 a	-19.4	-19.4	-19.4	---	---	31.3	E	0.52	36.5	-35.3	---	---	727.8	0.026	0.000	19.6	2	1
03/15/06	3:17 a	-19.3	-19.3	-19.4	---	---	33.9	E	0.57	35.7	-35.7	---	---	727.8	0.026	0.000	19.6	2	1
03/15/06	3:18 a	-19.3	-19.3	-19.3	---	---	33.0	E	0.55	42.6	-35.5	---	---	727.7	0.026	0.000	19.6	2	1
03/15/06	3:19 a	-19.3	-19.3	-19.3	---	---	32.2	E	0.54	39.1	-35.3	---	---	727.6	0.026	0.000	19.6	2	1
03/15/06	3:20 a	-19.2	-19.2	-19.2	---	---	33.9	E	0.57	40.9	-35.6	---	---	727.8	0.026	0.000	19.6	2	1
03/15/06	3:21 a	-19.2	-19.2	-19.2	---	---	32.2	E	0.54	35.7	-35.2	---	---	727.9	0.026	0.000	19.6	2	1
03/15/06	3:22 a	-19.1	-19.1	-19.1	---	---	30.4	E	0.51	36.5	-34.8	---	---	727.8	0.026	0.000	19.6	2	1
03/15/06	3:23 a	-19.1	-19.1	-19.1	---	---	31.3	E	0.52	35.7	-34.9	---	---	727.9	0.026	0.000	19.6	2	1
03/15/06	3:24 a	-19.1	-19.0	-19.1	---	---	31.3	E	0.52	35.7	-34.9	---	---	727.7	0.026	0.000	19.6	2	1
03/15/06	3:25 a	-19.0	-18.9	-19.0	---	---	32.2	E	0.54	34.8	-34.9	---	---	727.8	0.026	0.000	19.6	2	1
03/15/06	3:26 a	-18.9	-18.9	-18.9	---	---	30.4	E	0.51	35.7	-34.6	---	---	727.9	0.026	0.000	19.6	2	1
03/15/06	3:27 a	-18.9	-18.9	-18.9	---	---	33.0	E	0.55	36.5	-35.1	---	---	727.8	0.026	0.000	19.6	2	1
03/15/06	3:28 a	-18.9	-18.9	-18.9	---	---	29.6	E	0.49	35.7	-34.3	---	---	727.7	0.026	0.000	19.6	2	1
03/15/06	3:29 a	-18.9	-18.8	-18.9	---	---	32.2	E	0.54	35.7	-34.8	---	---	727.8	0.026	0.000	19.6	2	1
03/15/06	3:30 a	-18.8	-18.8	-18.8	---	---	33.0	E	0.55	35.7	-34.9	---	---	727.7	0.026	0.000	19.6	2	1
03/15/06	3:31 a	-18.8	-18.8	-18.8	---	---	30.4	E	0.51	36.5	-34.3	---	---	727.8	0.026	0.000	19.6	2	1
03/15/06	3:32 a	-18.8	-18.7	-18.8	---	---	31.3	E	0.52	34.8	-34.5	---	---	727.8	0.026	0.000	19.6	2	1
03/15/06	3:33 a	-18.8	-18.7	-18.8	---	---	31.3	E	0.52	34.8	-34.5	---	---	727.9	0.026	0.000	19.6	2	1
03/15/06	3:34 a	-18.7	-18.7	-18.7	---	---	32.2	E	0.54	35.7	-34.6	---	---	727.8	0.026	0.000	19.6	2	1
03/15/06	3:35 a	-18.7	-18.7	-18.7	---	---	33.0	E	0.55	36.5	-34.7	---	---	727.7	0.026	0.000	19.5	2	1
03/15/06	3:36 a	-18.7	-18.7	-18.7	---	---	29.6	E	0.49	35.7	-34.0	---	---	727.7	0.026	0.000	19.5	2	1
03/15/06	3:37 a	-18.7	-18.6	-18.7	---	---	33.0	E	0.55	36.5	-34.7	---	---	727.7	0.026	0.000	19.6	2	1
03/15/06	3:38 a	-18.6	-18.6	-18.7	---	---	33.9	E	0.57	39.1	-34.7	---	---	727.9	0.026	0.000	19.5	2	1
03/15/06	3:39 a	-18.7	-18.6	-18.7	---	---	33.9	E	0.57	36.5	-34.8	---	---	728.0	0.026	0.000	19.6	2	1
03/15/06	3:40 a	-18.6	-18.6	-18.6	---	---	29.6	E	0.49	32.2	-33.9	---	---	728.0	0.026	0.000	19.6	2	1
03/15/06	3:41 a	-18.6	-18.6	-18.6	---	---	30.4	E	0.51	33.9	-34.1	---	---	727.9	0.026	0.000	19.6	2	1
03/15/06	3:42 a	-18.6	-18.6	-18.6	---	---	31.3	E	0.52	35.7	-34.2	---	---	727.8	0.026	0.000	19.6	2	1
03/15/06	3:43 a	-18.5	-18.5	-18.6	---	---	30.4	E	0.51	34.8	-33.9	---	---	727.7	0.026	0.000	19.6	2	1
03/15/06	3:44 a	-18.5	-18.5	-18.5	---	---	32.2	E	0.54	38.3	-34.3	---	---	727.8	0.026	0.000	19.6	2	1
03/15/06	3:45 a	-18.5	-18.5	-18.5	---	---	33.0	E	0.55	38.3	-34.4	---	---	727.8	0.026	0.000	19.6	2	1
03/15/06	3:46 a	-18.5	-18.4	-18.5	---	---	32.2	E	0.54	36.5	-34.3	---	---	727.8	0.026	0.000	19.6	1	1
03/15/06	3:47 a	-18.4	-18.4	-18.4	---	---	30.4	E	0.51	35.7	-33.9	---	---	727.8	0.026	0.000	19.6	2	1
03/15/06	3:48 a	-18.4	-18.4	-18.4	---	---	31.3	E	0.52	34.8	-34.0	---	---	727.8	0.026	0.000	19.6	1	1
03/15/06	3:49 a	-18.4	-18.4	-18.4	---	---	32.2	E	0.54	35.7	-34.1	---	---	727.9	0.026	0.000	19.6	1	1
03/15/06	3:50 a	-18.4	-18.4	-18.4	---	---	33.0	E	0.55	36.5	-34.3	---	---	728.1	0.026	0.000	19.6	2	1
03/15/06	3:51 a	-18.4	-18.4	-18.4	---	---	27.8	E	0.46	31.3	-33.3	---	---	727.9	0.026	0.000	19.6	1	1
03/15/06	3:52 a	-18.4	-18.4	-18.4	---	---	33.9	E	0.57	36.5	-34.4	---	---	727.7	0.026	0.000	19.6	1	1
03/15/06	3:53 a	-18.4	-18.3	-18.4	---	---	33.0	E	0.55	37.4	-34.3	---	---	727.8	0.026	0.000	19.6	2	1
03/15/06	3:54 a	-18.3	-18.3	-18.3	---	---	30.4	E	0.51	36.5	-33.7	---	---	727.9	0.025	0.000	19.6	1	1
03/15/06	3:55 a	-18.3	-18.3	-18.3	---	---	34.8	E	0.58	38.3	-34.4	---	---	728.0	0.025	0.000	19.6	1	1
03/15/06	3:57 a	-18.3	-18.3	-18.3	---	---	32.2	E	0.54	36.5	-33.9	---	---	727.7	0.025	0.000	19.5	2	1
03/15/06	3:58 a	-18.2	-18.2	-18.3	---	---	33.0	E	0.55	36.5	-34.0	---	---	727.8	0.025	0.000	19.5	2	1
03/15/06	3:59 a	-18.2	-18.2	-18.2	---	---	31.3	E	0.52	35.7	-33.7	---	---	727.8	0.025	0.000	19.5	2	1
03/15/06	4:00 a	-18.2	-18.2	-18.2	---	---	32.2	E	0.54	34.8	-33.9	---	---	727.9	0.025	0.000	19.5	1	1
03/15/06	4:01 a	-18.2	-18.2	-18.2	---	---	32.2	E	0.54	36.5	-33.9	---	---	727.9	0.025	0.000	19.5	1	1
03/15/06	4:02 a	-18.2	-18.2	-18.2	---	---	30.4	E	0.51	33.0	-33.5	---	---	727.8	0.025	0.000	19.5	2	1
03/15/06	4:03 a	-18.2	-18.1	-18.2	---	---	31.3	E	0.52	35.7	-33.7	---	---	727.9	0.025	0.000	19.5	2	1
03/15/06	4:04 a	-18.1	-18.1	-18.1	---	---	31.3	E	0.52	34.8	-33.6	---	---	727.9	0.025	0.000	19.5	2	1
03/15/06	4:05 a	-18.1	-18.1	-18.1	---	---	32.2	E	0.54	37.4	-33.7	---	---	727.9	0.025	0.000	19.5	2	1
03/15/06	4:06 a	-18.1	-18.1	-18.1	---	---	30.4	E	0.51	34.8	-33.3	---	---	727.8	0.025	0.000	19.5	2	1
03/15/06	4:07 a	-18.1	-18.1	-18.1	---	---	30.4	E	0.51	34.8	-33.3	---	---	727.8	0.025	0.000	19.4	1	1
03/15/06	4:08 a	-18.1	-18.1	-18.1	---	---	33.9	E	0.57	40.0	-33.9	---	---	727.8	0.025	0.000	19.4	1	1
03/15/06	4:09 a	-18.1	-18.1	-18.1	---	---	32.2	E	0.54	37.4	-33.7	---	---	727.9	0.025	0.000	19.4	1	1
03/15/06	4:10 a	-18.0	-18.0	-18.1	---	---	30.4	E	0.51	34.8	-33.3	---	---	727.9	0.025	0.000	19.4	2	1
03/15/06	4:11 a	-18.0	-18.0	-18.0	---	---	34.8	E	0.58	39.1	-34.0	---	---	727.7	0.025	0.000	19.4	1	1
03/15/06	4:12 a	-18.0	-18.0	-18.1	---	---	33.0	E	0.55	35.7	-33.7	---	---	728.0	0.025	0.000	19.4	1	1
03/15/06	4:13 a	-18.0	-18.0	-18.0	---	---	33.0	E	0.55	36.5	-33.7	---	---	727.8	0.025	0.000	19.4	1	1
03/15/06	4:14 a	-17.9	-17.9	-18.0	---	---	31.3	E	0.52	33.9	-33.3	---	---	727.8	0.025	0.000	19.4	2	1
03/15/06	4:15 a	-17.9	-17.9	-17.9	---	---	32.2	E	0.54	37.4	-33.5	---	---	727.9	0.025	0.000	19.4	1	1
03/15/06	4:16 a	-17.9	-17.9	-17.9	---	---	29.6	E	0.49	33.9	-32.9	---	---	728.0	0.025	0.000	19.4	1	1
03/15/06	4:17 a	-17.9	-17.9	-17.9	---	---	31.3	E	0.52	35.7	-33.3	---	---	727.9	0.025	0.000	19.4	2	1
03/15/06	4:18 a	-17.9	-17.9	-17.9	---	---	30.4	E	0.51	33.0	-33.1	---	---	728.0	0.025	0.000	19.4	2	1
03/15/06	4:19 a	-17.9	-17.8	-17.9	---	---	30.4	E	0.51	34.8	-33.1	---	---	727.9	0.025	0.000	19.4	1	1
03/15/06	4:20 a	-17.9	-17.8	-17.9	---	---	29.6	E	0.49	36.5	-32.9	---	---	727.9	0.025	0.000	19.4	1	1
03/15/06	4:21 a	-17.8	-17.8	-17.9	---	---	30.4	E	0.51	34.8	-33.0	---	---	727.9	0.025	0.000	19.4	1	1
03/15/06	4:22 a	-17.8	-17.8	-17.8	---	---	29.6	E	0.49	33.9	-32.8	---	---	727.9	0.025	0.000	19.4	1	1
03/15/06	4:23 a	-17.8	-17.8	-17.8	---	---	32.2	E	0.54	36.5	-33.3	---	---	728.0	0.025	0.000	19.4	1	1
03/15/06	4:24 a	-17.8	-17.8	-17.8	---	---	33.0	E	0.55	37.4	-33.5	---	---	728.0	0.025	0.000	19.4	1	1
03/15/06	4:25 a	-17.8	-17.8	-17.8	---	---	31.3	E	0.52	34.8	-33.2	---	---	727.9	0.025	0.000	19.4	1	1
03/15/06	4:26 a	-17.8	-17.8	-17.8	---	---	31.3	E	0.52	33.9	-33.1	---	---	728.0	0.025	0.000	19.4	1	1
03/15/06	4:27 a	-17.8	-17.8	-17.8	---	---	30.4	E	0.51	33.9	-32.9	---	---	727.8	0.025	0.000	19.4	1	1
03/15/06	4:28 a	-17.8	-17.8	-17.8	---	---	31.3	E	0.52	34.8	-33.1	---	---	727.9	0.025	0.000	19.4	1	1
03/15/06	4:29 a	-17.7	-17.7	-17.7	---	---	30.4	E	0.51	33.9	-32.9	---	---	727.8	0.025	0.000	19.4	1	1
03/15/06	4:30 a	-17.7	-17.7	-17.7	---	---	29.6	E	0.49	33.9	-32.7	---	---	727.9	0.025	0.000	19.4	1	1
03/15/06	4:31 a	-17.7	-17.7	-17.7	---	---	31.3	E	0.52	34.8	-33.1	---	---	727.9	0.025	0.000	19.4	1	1
03/15/06	4:32 a	-17.7	-17.7	-17.7	---	---	31.3	E	0.52	34.8	-33.1	---	---	728.0	0.025	0.000	19.4	1	1
03/15/06	4:33 a	-17.7	-17.7	-17.7	---	---	32.2	E	0.54	34.8	-33.1	---	---	727.9	0.025	0.000	19.4	1	1
03/15/06	4:34 a	-17.7	-17.7	-17.7	---	---	31.3	E	0.52	34.8	-33.1	---	---	728.0	0.025	0.000	19.4	1	1
03/15/06	4:35 a	-17.7	-17.7	-17.7	---	---	29.6	E	0.49	33.9	-32.6	---	---	728.0	0.025	0.000	19.4	1	1
03/15/06	4:36 a	-17.7	-17.7	-17.7	---	---	30.4	E	0.51	33.9	-32.8	---	---	728.1	0.025	0.000	19.4	1	1
03/15/06	4:37 a	-17.7	-17.7	-17.7	---	---	31.3	E	0.52	33.9	-32.9	---	---	728.1	0.025	0.000	19.4	1	1
03/15/06	4:38 a	-17.7	-17.7	-17.7	---	---	30.4	E	0.51	33.0	-32.8	---	---	728.1	0.025	0.000	19.4	1	1
03/15/06	4:39 a	-17.6	-17.6	-17.6	---	---	30.4	E	0.51	33.9	-32.7	---	---	728.2	0.025	0.000	19.4	1	1
03/15/06	4:40 a	-17.7	-17.6	-17.7	---	---	30.4	E	0.51	33.9	-32.8	---	---	728.2	0.025	0.000	19.4	1	1
03/15/06	4:41 a	-17.6	-17.6	-17.6	---	---	27.8	E	0.46	33.0	-32.2	---	---	728.2	0.025	0.000	19.4	1	1
03/15/06	4:42 a	-17.6	-17.6	-17.6	---	---	26.1	E	0.43	30.4	-31.9	---	---	728.2	0.025	0.000	19.4	1	1
03/15/06	4:43 a	-17.6	-17.6	-17.6	---	---	28.7	E	0.48	30.4	-32.4	---	---	728.2	0.025	0.000	19.4	1	1
03/15/06	4:44 a	-17.6	-17.6	-17.6	---	---	28.7	E	0.48	32.2	-32.4	---	---	728.3	0.025	0.000	19.4	1	1
03/15/06	4:45 a	-17.6	-17.6	-17.6	---	---	29.6	E	0.49	32.2	-32.6	---	---	728.2	0.025	0.000	19.4	1	1
03/15/06	4:46 a	-17.6	-17.6	-17.6	---	---	29.6	E	0.49	33.0	-32.6	---	---	728.2	0.025	0.000	19.4	1	1
03/15/06	4:47 a	-17.6	-17.6	-17.6	---	---	31.3	E	0.52	33.9	-32.8	---	---	728.2	0.025	0.000	19.4	1	1
03/15/06	4:48 a	-17.6	-17.6	-17.6	---	---	27.8	E	0.46	32.2	-32.2	---	---	728.3	0.025	0.000	19.4	1	1
03/15/06	4:49 a	-17.6	-17.6	-17.6	---	---	27.0	E	0.45	29.6	-32.1	---	---	728.3	0.025	0.000	19.4	1	1
03/15/06	4:50 a	-17.6	-17.6	-17.6	---	---	25.2	E	0.42	29.6	-31.7	---	---	728.4	0.025	0.000	19.4	1	1
03/15/06	4:51 a	-17.6	-17.6	-17.6	---	---	25.2	E	0.42	31.3	-31.6	---	---	728.4	0.025	0.000	19.4	1	1
03/15/06	4:52 a	-17.6	-17.6	-17.6	---	---	26.1	E	0.43	28.7	-31.9	---	---	728.5	0.025	0.000	19.4	1	1
03/15/06	4:53 a	-17.6	-17.6	-17.6	---	---	24.3	E	0.41	27.8	-31.5	---	---	728.5	0.025	0.000	19.4	1	1
03/15/06	4:54 a	-17.6	-17.6	-17.6	---	---	24.3	E	0.41	28.7	-31.5	---	---	728.4	0.025	0.000	19.4	1	1
03/15/06	4:55 a	-17.6	-17.6	-17.6	---	---	26.1	E	0.43	28.7	-31.9	---	---	728.6	0.025	0.000	19.4	1	1
03/15/06	4:56 a	-17.6	-17.6	-17.6	---	---	23.5	E	0.39	33.0	-31.3	---	---	728.6	0.025	0.000	19.3	1	1
03/15/06	4:57 a	-17.6	-17.6	-17.6	---	---	25.2	E	0.42	27.0	-31.7	---	---	728.5	0.025	0.000	19.3	1	1
03/15/06	4:58 a	-17.6	-17.6	-17.7	---	---	23.5	E	0.39	27.8	-31.3	---	---	728.7	0.025	0.000	19.3	1	1
03/15/06	4:59 a	-17.6	-17.6	-17.6	---	---	23.5	E	0.39	27.8	-31.3	---	---	728.6	0.025	0.000	19.3	1	1
03/15/06	5:00 a	-17.7	-17.7	-17.7	---	---	23.5	ENE	0.39	28.7	-31.4	---	---	728.7	0.025	0.000	19.3	1	1
03/15/06	5:01 a	-17.7	-17.7	-17.7	---	---	23.5	ENE	0.39	27.0	-31.4	---	---	728.6	0.025	0.000	19.3	1	1
03/15/06	5:02 a	-17.7	-17.7	-17.7	---	---	23.5	ENE	0.39	26.1	-31.4	---	---	728.6	0.025	0.000	19.3	1	1
03/15/06	5:03 a	-17.8	-17.8	-17.8	---	---	20.9	E	0.35	24.3	-30.9	---	---	728.8	0.025	0.000	19.3	1	1
03/15/06	5:04 a	-17.8	-17.8	-17.8	---	---	21.7	E	0.36	26.1	-31.1	---	---	728.7	0.025	0.000	19.3	1	1
03/15/06	5:05 a	-17.8	-17.8	-17.8	---	---	24.3	ENE	0.41	28.7	-31.7	---	---	728.8	0.025	0.000	19.3	1	1
03/15/06	5:06 a	-17.8	-17.8	-17.8	---	---	22.6	ENE	0.38	26.1	-31.4	---	---	728.7	0.025	0.000	19.3	1	1
03/15/06	5:07 a	-17.8	-17.8	-17.8	---	---	23.5	ENE	0.39	26.1	-31.6	---	---	728.8	0.025	0.000	19.3	1	1
03/15/06	5:08 a	-17.8	-17.8	-17.8	---	---	24.3	ENE	0.41	26.1	-31.8	---	---	728.8	0.025	0.000	19.3	1	1
03/15/06	5:09 a	-17.8	-17.8	-17.8	---	---	24.3	ENE	0.41	27.8	-31.8	---	---	728.7	0.025	0.000	19.3	1	1
03/15/06	5:10 a	-17.9	-17.9	-17.9	---	---	25.2	ENE	0.42	27.0	-32.1	---	---	728.7	0.025	0.000	19.3	1	1
03/15/06	5:11 a	-17.9	-17.9	-17.9	---	---	21.7	E	0.36	25.2	-31.3	---	---	728.7	0.025	0.000	19.3	1	1
03/15/06	5:12 a	-17.9	-17.9	-17.9	---	---	25.2	ENE	0.42	28.7	-32.1	---	---	728.7	0.025	0.000	19.2	1	1
03/15/06	5:13 a	-17.9	-17.9	-17.9	---	---	20.9	E	0.35	22.6	-31.1	---	---	728.7	0.025	0.000	19.2	1	1
03/15/06	5:14 a	-17.9	-17.9	-17.9	---	---	23.5	ENE	0.39	28.7	-31.7	---	---	728.6	0.025	0.000	19.2	1	1
03/15/06	5:15 a	-17.9	-17.9	-17.9	---	---	25.2	ENE	0.42	27.8	-32.1	---	---	728.7	0.025	0.000	19.2	1	1
03/15/06	5:16 a	-18.0	-17.9	-18.0	---	---	20.9	E	0.35	24.3	-31.2	---	---	728.6	0.025	0.000	19.2	1	1
03/15/06	5:17 a	-18.0	-18.0	-18.0	---	---	25.2	E	0.42	30.4	-32.2	---	---	728.5	0.025	0.000	19.2	1	1
03/15/06	5:18 a	-18.1	-18.0	-18.1	---	---	28.7	E	0.48	31.3	-33.0	---	---	728.6	0.025	0.000	19.2	1	1
03/15/06	5:19 a	-18.1	-18.1	-18.1	---	---	23.5	E	0.39	27.0	-31.9	---	---	728.6	0.025	0.000	19.2	1	1
03/15/06	5:20 a	-18.1	-18.1	-18.1	---	---	24.3	E	0.41	27.0	-32.2	---	---	728.5	0.025	0.000	19.2	1	1
03/15/06	5:21 a	-18.2	-18.2	-18.2	---	---	24.3	E	0.41	26.1	-32.2	---	---	728.5	0.025	0.000	19.2	1	1
03/15/06	5:22 a	-18.2	-18.2	-18.2	---	---	22.6	E	0.38	25.2	-31.8	---	---	728.7	0.025	0.000	19.2	1	1
03/15/06	5:23 a	-18.2	-18.2	-18.3	---	---	21.7	E	0.36	24.3	-31.7	---	---	728.7	0.025	0.000	19.2	1	1
03/15/06	5:24 a	-18.3	-18.2	-18.3	---	---	21.7	E	0.36	25.2	-31.8	---	---	728.7	0.025	0.000	19.2	1	1
03/15/06	5:25 a	-18.3	-18.3	-18.3	---	---	22.6	E	0.38	26.1	-32.0	---	---	728.7	0.025	0.000	19.2	1	1
03/15/06	5:26 a	-18.3	-18.3	-18.3	---	---	23.5	E	0.39	26.1	-32.2	---	---	728.7	0.025	0.000	19.2	1	1
03/15/06	5:27 a	-18.3	-18.3	-18.3	---	---	22.6	E	0.38	24.3	-32.1	---	---	728.8	0.025	0.000	19.2	1	1
03/15/06	5:28 a	-18.4	-18.4	-18.4	---	---	22.6	E	0.38	25.2	-32.1	---	---	728.8	0.026	0.000	19.2	1	1
03/15/06	5:29 a	-18.4	-18.4	-18.4	---	---	23.5	E	0.39	26.1	-32.3	---	---	728.7	0.026	0.000	19.2	1	1
03/15/06	5:30 a	-18.4	-18.4	-18.5	---	---	22.6	E	0.38	25.2	-32.2	---	---	728.6	0.026	0.000	19.2	1	1
03/15/06	5:31 a	-18.5	-18.5	-18.6	---	---	22.6	E	0.38	26.1	-32.3	---	---	728.6	0.026	0.000	19.2	1	1
03/15/06	5:32 a	-18.6	-18.5	-18.6	---	---	24.3	E	0.41	27.8	-32.8	---	---	728.6	0.026	0.000	19.2	1	1
03/15/06	5:33 a	-18.6	-18.6	-18.6	---	---	25.2	E	0.42	28.7	-32.9	---	---	728.7	0.026	0.000	19.2	1	1
03/15/06	5:34 a	-18.6	-18.6	-18.6	---	---	25.2	E	0.42	27.8	-33.1	---	---	728.6	0.026	0.000	19.2	1	1
03/15/06	5:35 a	-18.7	-18.6	-18.7	---	---	26.1	E	0.43	28.7	-33.3	---	---	728.6	0.026	0.000	19.2	1	1
03/15/06	5:36 a	-18.7	-18.7	-18.7	---	---	25.2	E	0.42	29.6	-33.2	---	---	728.6	0.026	0.000	19.2	1	1
03/15/06	5:37 a	-18.7	-18.7	-18.8	---	---	25.2	E	0.42	29.6	-33.2	---	---	728.5	0.026	0.000	19.2	1	1
03/15/06	5:38 a	-18.8	-18.8	-18.8	---	---	26.1	E	0.43	29.6	-33.4	---	---	728.5	0.026	0.000	19.2	1	1
03/15/06	5:39 a	-18.8	-18.8	-18.8	---	---	24.3	E	0.41	27.8	-33.2	---	---	728.6	0.026	0.000	19.2	1	1
03/15/06	5:40 a	-18.9	-18.9	-18.9	---	---	21.7	E	0.36	27.0	-32.6	---	---	728.6	0.026	0.000	19.2	1	1
03/15/06	5:41 a	-18.9	-18.9	-18.9	---	---	24.3	E	0.41	29.6	-33.2	---	---	728.6	0.026	0.000	19.2	1	1
03/15/06	5:42 a	-18.9	-18.9	-18.9	---	---	21.7	E	0.36	27.0	-32.7	---	---	728.6	0.026	0.000	19.2	1	1
03/15/06	5:43 a	-18.9	-18.9	-19.0	---	---	25.2	E	0.42	27.8	-33.5	---	---	728.6	0.026	0.000	19.2	1	1
03/15/06	5:44 a	-19.0	-19.0	-19.0	---	---	24.3	E	0.41	26.1	-33.4	---	---	728.6	0.026	0.000	19.2	1	1
03/15/06	5:45 a	-19.0	-19.0	-19.1	---	---	24.3	E	0.41	27.8	-33.4	---	---	728.6	0.026	0.000	19.2	1	1
03/15/06	5:46 a	-19.1	-19.1	-19.1	---	---	27.8	E	0.46	31.3	-34.2	---	---	728.6	0.026	0.000	19.2	1	1
03/15/06	5:47 a	-19.1	-19.1	-19.2	---	---	26.1	ENE	0.43	30.4	-33.9	---	---	728.6	0.026	0.000	19.2	1	1
03/15/06	5:48 a	-19.2	-19.2	-19.2	---	---	27.8	E	0.46	31.3	-34.3	---	---	728.5	0.026	0.000	19.2	1	1
03/15/06	5:49 a	-19.2	-19.2	-19.2	---	---	24.3	E	0.41	27.8	-33.7	---	---	728.8	0.026	0.000	19.2	1	1
03/15/06	5:50 a	-19.3	-19.2	-19.3	---	---	23.5	E	0.39	26.1	-33.6	---	---	728.9	0.026	0.000	19.2	1	1
03/15/06	5:51 a	-19.3	-19.3	-19.3	---	---	25.2	E	0.42	27.8	-33.9	---	---	728.8	0.026	0.000	19.1	1	1
03/15/06	5:52 a	-19.3	-19.3	-19.3	---	---	23.5	E	0.39	28.7	-33.6	---	---	728.8	0.026	0.000	19.1	1	1
03/15/06	5:53 a	-19.3	-19.3	-19.3	---	---	26.1	E	0.43	29.6	-34.2	---	---	728.7	0.026	0.000	19.1	1	1
03/15/06	5:54 a	-19.4	-19.3	-19.4	---	---	24.3	E	0.41	27.0	-33.9	---	---	728.8	0.026	0.000	19.1	1	1
03/15/06	5:55 a	-19.4	-19.4	-19.4	---	---	24.3	E	0.41	27.0	-33.9	---	---	728.7	0.026	0.000	19.1	1	1
03/15/06	5:56 a	-19.4	-19.4	-19.5	---	---	25.2	E	0.42	29.6	-34.2	---	---	728.7	0.026	0.000	19.1	1	1
03/15/06	5:57 a	-19.5	-19.5	-19.5	---	---	26.1	E	0.43	29.6	-34.4	---	---	728.6	0.026	0.000	19.1	1	1
03/15/06	5:58 a	-19.5	-19.5	-19.5	---	---	24.3	E	0.41	27.8	-34.1	---	---	728.7	0.026	0.000	19.1	1	1
03/15/06	5:59 a	-19.5	-19.5	-19.6	---	---	23.5	E	0.39	27.0	-33.8	---	---	728.7	0.026	0.000	19.1	1	1
03/15/06	6:00 a	-19.6	-19.6	-19.6	---	---	22.6	E	0.38	27.0	-33.7	---	---	728.6	0.026	0.000	19.1	1	1
03/15/06	6:01 a	-19.6	-19.6	-19.6	---	---	26.1	E	0.43	29.6	-34.6	---	---	728.7	0.026	0.000	19.1	1	1
03/15/06	6:02 a	-19.6	-19.6	-19.6	---	---	23.5	E	0.39	27.8	-34.0	---	---	728.6	0.026	0.000	19.1	1	1
03/15/06	6:03 a	-19.7	-19.6	-19.7	---	---	27.0	E	0.45	30.4	-34.8	---	---	728.6	0.026	0.000	19.1	1	1
03/15/06	6:04 a	-19.7	-19.7	-19.7	---	---	29.6	ENE	0.49	34.8	-35.4	---	---	728.8	0.026	0.000	19.1	1	1
03/15/06	6:05 a	-19.7	-19.7	-19.8	---	---	25.2	E	0.42	29.6	-34.6	---	---	728.7	0.026	0.000	19.1	1	1
03/15/06	6:06 a	-19.8	-19.8	-19.8	---	---	24.3	E	0.41	27.8	-34.4	---	---	728.7	0.026	0.000	19.1	1	1
03/15/06	6:07 a	-19.8	-19.8	-19.8	---	---	26.1	E	0.43	29.6	-34.9	---	---	728.7	0.027	0.000	19.1	1	1
03/15/06	6:08 a	-19.8	-19.8	-19.8	---	---	26.1	E	0.43	27.8	-34.9	---	---	728.6	0.027	0.000	19.1	1	1
03/15/06	6:09 a	-19.8	-19.8	-19.9	---	---	26.1	E	0.43	29.6	-34.9	---	---	728.7	0.027	0.000	19.1	1	1
03/15/06	6:10 a	-19.9	-19.9	-19.9	---	---	22.6	E	0.38	26.1	-34.2	---	---	728.8	0.027	0.000	19.1	1	1
03/15/06	6:11 a	-19.9	-19.9	-19.9	---	---	26.1	E	0.43	30.4	-34.9	---	---	728.7	0.027	0.000	19.0	1	1
03/15/06	6:12 a	-19.9	-19.9	-20.0	---	---	26.1	E	0.43	29.6	-35.1	---	---	728.7	0.027	0.000	19.1	1	1
03/15/06	6:13 a	-20.0	-19.9	-20.0	---	---	24.3	E	0.41	27.8	-34.7	---	---	728.8	0.027	0.000	19.1	1	1
03/15/06	6:14 a	-20.0	-20.0	-20.0	---	---	23.5	E	0.39	27.0	-34.5	---	---	728.7	0.027	0.000	19.1	1	1
03/15/06	6:15 a	-20.0	-20.0	-20.1	---	---	24.3	E	0.41	27.0	-34.7	---	---	728.8	0.027	0.000	19.1	1	1
03/15/06	6:16 a	-20.1	-20.1	-20.1	---	---	25.2	E	0.42	27.8	-35.0	---	---	728.7	0.027	0.000	19.1	1	1
03/15/06	6:17 a	-20.1	-20.1	-20.1	---	---	24.3	E	0.41	28.7	-34.8	---	---	728.9	0.027	0.000	19.1	1	1
03/15/06	6:18 a	-20.1	-20.1	-20.1	---	---	21.7	E	0.36	26.1	-34.2	---	---	728.7	0.027	0.000	19.1	1	1
03/15/06	6:19 a	-20.1	-20.1	-20.1	---	---	24.3	ENE	0.41	27.8	-34.9	---	---	728.8	0.027	0.000	19.1	1	1
03/15/06	6:20 a	-20.1	-20.1	-20.1	---	---	24.3	E	0.41	28.7	-34.9	---	---	728.8	0.027	0.000	19.1	1	1
03/15/06	6:21 a	-20.1	-20.1	-20.1	---	---	25.2	ENE	0.42	27.8	-35.1	---	---	728.7	0.027	0.000	19.1	1	1
03/15/06	6:22 a	-20.1	-20.1	-20.1	---	---	25.2	E	0.42	29.6	-35.1	---	---	728.7	0.027	0.000	19.1	1	1
03/15/06	6:23 a	-20.2	-20.1	-20.2	---	---	24.3	E	0.41	26.1	-34.9	---	---	728.8	0.027	0.000	19.1	1	1
03/15/06	6:24 a	-20.2	-20.2	-20.2	---	---	25.2	E	0.42	27.8	-35.2	---	---	728.8	0.027	0.000	19.1	1	1
03/15/06	6:25 a	-20.2	-20.2	-20.2	---	---	26.1	E	0.43	29.6	-35.3	---	---	728.8	0.027	0.000	19.1	1	1
03/15/06	6:26 a	-20.2	-20.2	-20.2	---	---	24.3	E	0.41	27.8	-34.9	---	---	728.8	0.027	0.000	19.2	1	1
03/15/06	6:27 a	-20.2	-20.2	-20.2	---	---	24.3	E	0.41	27.0	-34.9	---	---	728.9	0.027	0.000	19.2	1	1
03/15/06	6:28 a	-20.2	-20.2	-20.2	---	---	23.5	E	0.39	27.8	-34.8	---	---	728.9	0.027	0.000	19.2	1	1
03/15/06	6:29 a	-20.2	-20.2	-20.2	---	---	24.3	E	0.41	26.1	-35.0	---	---	728.9	0.027	0.000	19.2	1	1
03/15/06	6:30 a	-20.2	-20.2	-20.2	---	---	23.5	E	0.39	26.1	-34.8	---	---	729.0	0.027	0.000	19.2	1	1
03/15/06	6:31 a	-20.2	-20.2	-20.2	---	---	24.3	E	0.41	26.1	-34.9	---	---	728.9	0.027	0.000	19.2	1	1
03/15/06	6:32 a	-20.2	-20.2	-20.2	---	---	23.5	E	0.39	28.7	-34.8	---	---	728.9	0.027	0.000	19.2	1	1
03/15/06	6:33 a	-20.2	-20.2	-20.2	---	---	23.5	E	0.39	28.7	-34.8	---	---	728.8	0.027	0.000	19.3	1	1
03/15/06	6:34 a	-20.2	-20.2	-20.2	---	---	26.1	E	0.43	30.4	-35.4	---	---	728.9	0.027	0.000	19.3	1	1
03/15/06	6:35 a	-20.2	-20.2	-20.2	---	---	23.5	E	0.39	27.8	-34.8	---	---	728.9	0.027	0.000	19.3	1	1
03/15/06	6:36 a	-20.2	-20.2	-20.2	---	---	25.2	E	0.42	30.4	-35.2	---	---	728.9	0.027	0.000	19.3	1	1
03/15/06	6:37 a	-20.2	-20.2	-20.2	---	---	23.5	E	0.39	26.1	-34.8	---	---	729.0	0.027	0.000	19.3	1	1
03/15/06	6:38 a	-20.2	-20.2	-20.2	---	---	22.6	E	0.38	26.1	-34.6	---	---	729.0	0.027	0.000	19.3	1	1
03/15/06	6:39 a	-20.2	-20.2	-20.2	---	---	22.6	E	0.38	25.2	-34.6	---	---	728.9	0.027	0.000	19.3	1	1
03/15/06	6:40 a	-20.3	-20.2	-20.3	---	---	22.6	E	0.38	24.3	-34.7	---	---	729.0	0.027	0.000	19.3	1	1
03/15/06	6:41 a	-20.3	-20.2	-20.3	---	---	22.6	E	0.38	26.1	-34.7	---	---	729.0	0.027	0.000	19.2	1	1
03/15/06	6:42 a	-20.3	-20.3	-20.3	---	---	22.6	E	0.38	25.2	-34.7	---	---	728.8	0.027	0.000	19.2	1	1
03/15/06	6:43 a	-20.3	-20.3	-20.3	---	---	24.3	E	0.41	27.0	-35.1	---	---	728.9	0.027	0.000	19.2	1	1
03/15/06	6:44 a	-20.3	-20.3	-20.3	---	---	23.5	E	0.39	27.0	-34.9	---	---	728.9	0.027	0.000	19.2	1	1
03/15/06	6:45 a	-20.3	-20.3	-20.3	---	---	23.5	E	0.39	27.8	-34.9	---	---	728.9	0.027	0.000	19.2	1	1
03/15/06	6:46 a	-20.3	-20.3	-20.3	---	---	25.2	E	0.42	27.8	-35.4	---	---	728.9	0.027	0.000	19.2	1	1
03/15/06	6:47 a	-20.3	-20.3	-20.3	---	---	24.3	E	0.41	27.8	-35.2	---	---	728.9	0.027	0.000	19.1	1	1
03/15/06	6:48 a	-20.3	-20.3	-20.3	---	---	23.5	E	0.39	27.0	-34.9	---	---	729.0	0.027	0.000	19.1	1	1
03/15/06	6:49 a	-20.3	-20.3	-20.4	---	---	24.3	E	0.41	27.8	-35.2	---	---	728.9	0.027	0.000	19.1	1	1
03/15/06	6:50 a	-20.4	-20.4	-20.4	---	---	21.7	E	0.36	25.2	-34.6	---	---	728.9	0.027	0.000	19.1	1	1
03/15/06	6:51 a	-20.4	-20.4	-20.4	---	---	23.5	E	0.39	26.1	-35.1	---	---	728.9	0.027	0.000	19.1	1	1
03/15/06	6:52 a	-20.4	-20.4	-20.4	---	---	23.5	E	0.39	27.0	-35.1	---	---	728.9	0.027	0.000	19.1	1	1
03/15/06	6:53 a	-20.4	-20.4	-20.4	---	---	25.2	E	0.42	27.8	-35.5	---	---	729.0	0.027	0.000	19.1	1	1
03/15/06	6:54 a	-20.4	-20.4	-20.5	---	---	23.5	E	0.39	27.0	-35.1	---	---	729.0	0.027	0.000	19.0	1	1
03/15/06	6:55 a	-20.5	-20.4	-20.5	---	---	24.3	E	0.41	28.7	-35.4	---	---	728.9	0.027	0.000	19.0	1	1
03/15/06	6:56 a	-20.5	-20.5	-20.6	---	---	26.1	E	0.43	29.6	-35.8	---	---	729.0	0.027	0.000	19.0	1	1
03/15/06	6:57 a	-20.6	-20.5	-20.6	---	---	23.5	E	0.39	26.1	-35.3	---	---	728.9	0.027	0.000	18.9	1	1
03/15/06	6:58 a	-20.5	-20.5	-20.6	---	---	23.5	E	0.39	26.1	-35.2	---	---	729.0	0.027	0.000	18.9	1	1
03/15/06	6:59 a	-20.6	-20.5	-20.6	---	---	23.5	E	0.39	26.1	-35.3	---	---	728.9	0.027	0.000	18.9	1	1
03/15/06	7:00 a	-20.6	-20.6	-20.6	---	---	23.5	E	0.39	26.1	-35.3	---	---	729.0	0.027	0.000	18.9	1	1
03/15/06	7:01 a	-20.6	-20.6	-20.6	---	---	26.1	E	0.43	28.7	-35.9	---	---	728.8	0.027	0.000	18.9	1	1
03/15/06	7:02 a	-20.6	-20.6	-20.6	---	---	25.2	E	0.42	27.0	-35.7	---	---	728.9	0.027	0.000	18.9	1	1
03/15/06	7:03 a	-20.6	-20.6	-20.6	---	---	25.2	E	0.42	28.7	-35.7	---	---	728.9	0.027	0.000	18.9	1	1
03/15/06	7:04 a	-20.6	-20.6	-20.6	---	---	27.0	E	0.45	29.6	-36.1	---	---	728.9	0.027	0.000	18.9	1	1
03/15/06	7:05 a	-20.6	-20.6	-20.7	---	---	24.3	E	0.41	27.0	-35.6	---	---	728.9	0.027	0.000	18.9	1	1
03/15/06	7:06 a	-20.6	-20.6	-20.7	---	---	23.5	E	0.39	27.0	-35.3	---	---	729.0	0.027	0.000	18.9	1	1
03/15/06	7:07 a	-20.6	-20.6	-20.7	---	---	23.5	E	0.39	26.1	-35.3	---	---	729.0	0.027	0.000	18.9	1	1
03/15/06	7:08 a	-20.7	-20.6	-20.7	---	---	22.6	E	0.38	26.1	-35.2	---	---	729.0	0.027	0.000	18.9	1	1
03/15/06	7:09 a	-20.7	-20.7	-20.7	---	---	26.1	E	0.43	27.8	-36.0	---	---	728.9	0.027	0.000	18.9	1	1
03/15/06	7:10 a	-20.7	-20.6	-20.7	---	---	26.1	E	0.43	28.7	-36.0	---	---	728.9	0.027	0.000	18.9	1	1
03/15/06	7:11 a	-20.6	-20.6	-20.7	---	---	25.2	E	0.42	30.4	-35.7	---	---	729.2	0.027	0.000	18.9	1	1
03/15/06	7:12 a	-20.7	-20.6	-20.7	---	---	27.0	ENE	0.45	30.4	-36.2	---	---	729.0	0.027	0.000	18.9	1	1
03/15/06	7:13 a	-20.7	-20.7	-20.7	---	---	25.2	ENE	0.42	28.7	-35.8	---	---	728.9	0.027	0.000	18.9	1	1
03/15/06	7:14 a	-20.7	-20.7	-20.7	---	---	27.0	ENE	0.45	30.4	-36.2	---	---	728.9	0.027	0.000	18.9	1	1
03/15/06	7:15 a	-20.7	-20.7	-20.7	---	---	26.1	E	0.43	29.6	-36.0	---	---	728.9	0.027	0.000	18.9	1	1
03/15/06	7:16 a	-20.7	-20.7	-20.7	---	---	27.0	E	0.45	33.9	-36.2	---	---	729.1	0.027	0.000	18.9	1	1
03/15/06	7:17 a	-20.7	-20.7	-20.7	---	---	26.1	E	0.43	30.4	-36.0	---	---	729.0	0.027	0.000	18.9	1	1
03/15/06	7:18 a	-20.7	-20.7	-20.7	---	---	26.1	E	0.43	28.7	-36.0	---	---	729.0	0.027	0.000	18.9	1	1
03/15/06	7:19 a	-20.7	-20.7	-20.7	---	---	24.3	E	0.41	27.0	-35.7	---	---	728.9	0.027	0.000	18.9	1	1
03/15/06	7:20 a	-20.7	-20.7	-20.7	---	---	27.8	E	0.46	31.3	-36.4	---	---	729.0	0.027	0.000	18.9	1	1
03/15/06	7:21 a	-20.7	-20.7	-20.7	---	---	27.0	E	0.45	30.4	-36.3	---	---	729.0	0.027	0.000	18.9	1	1
03/15/06	7:22 a	-20.7	-20.7	-20.7	---	---	25.2	E	0.42	28.7	-35.9	---	---	729.0	0.027	0.000	18.9	1	1
03/15/06	7:23 a	-20.8	-20.7	-20.8	---	---	27.8	E	0.46	30.4	-36.6	---	---	729.0	0.027	0.000	18.9	1	1
03/15/06	7:24 a	-20.7	-20.7	-20.7	---	---	27.0	ENE	0.45	31.3	-36.3	---	---	729.0	0.027	0.000	18.9	1	1
03/15/06	7:25 a	-20.8	-20.7	-20.8	---	---	26.1	E	0.43	29.6	-36.2	---	---	729.0	0.027	0.000	18.9	1	1
03/15/06	7:26 a	-20.8	-20.7	-20.8	---	---	25.2	E	0.42	33.0	-35.9	---	---	729.1	0.027	0.000	18.9	1	1
03/15/06	7:27 a	-20.7	-20.7	-20.8	---	---	22.6	E	0.38	27.8	-35.3	---	---	729.0	0.027	0.000	18.9	1	1
03/15/06	7:28 a	-20.8	-20.7	-20.8	---	---	25.2	E	0.42	28.7	-35.9	---	---	728.9	0.027	0.000	18.9	1	1
03/15/06	7:29 a	-20.8	-20.8	-20.8	---	---	27.0	E	0.45	32.2	-36.3	---	---	728.9	0.027	0.000	18.9	1	1
03/15/06	7:30 a	-20.8	-20.7	-20.8	---	---	27.0	E	0.45	33.0	-36.3	---	---	728.9	0.027	0.000	18.9	1	1
03/15/06	7:31 a	-20.8	-20.8	-20.8	---	---	27.8	E	0.46	29.6	-36.6	---	---	729.0	0.027	0.000	18.9	1	1
03/15/06	7:32 a	-20.8	-20.8	-20.8	---	---	25.2	E	0.42	28.7	-35.9	---	---	729.0	0.027	0.000	18.9	1	1
03/15/06	7:33 a	-20.8	-20.8	-20.8	---	---	24.3	E	0.41	27.8	-35.8	---	---	729.1	0.027	0.000	18.9	1	1
03/15/06	7:34 a	-20.8	-20.8	-20.8	---	---	23.5	E	0.39	28.7	-35.6	---	---	729.0	0.027	0.000	18.9	1	1
03/15/06	7:35 a	-20.8	-20.8	-20.8	---	---	25.2	E	0.42	29.6	-36.1	---	---	729.0	0.027	0.000	18.9	1	1
03/15/06	7:36 a	-20.8	-20.8	-20.8	---	---	24.3	E	0.41	28.7	-35.8	---	---	728.9	0.027	0.000	18.9	1	1
03/15/06	7:37 a	-20.8	-20.8	-20.8	---	---	25.2	E	0.42	28.7	-36.1	---	---	728.9	0.027	0.000	18.9	1	1
03/15/06	7:38 a	-20.9	-20.8	-20.9	---	---	26.1	E	0.43	28.7	-36.3	---	---	729.1	0.027	0.000	18.8	1	1
03/15/06	7:39 a	-20.9	-20.8	-20.9	---	---	24.3	E	0.41	33.9	-35.9	---	---	729.0	0.027	0.000	18.8	1	1
03/15/06	7:40 a	-20.9	-20.8	-20.9	---	---	25.2	E	0.42	28.7	-36.1	---	---	729.2	0.027	0.000	18.8	1	1
03/15/06	7:41 a	-20.9	-20.8	-20.9	---	---	25.2	E	0.42	33.9	-36.1	---	---	729.0	0.027	0.000	18.8	1	1
03/15/06	7:42 a	-20.9	-20.9	-20.9	---	---	28.7	ENE	0.48	32.2	-36.9	---	---	729.0	0.027	0.000	18.8	1	1
03/15/06	7:43 a	-20.9	-20.9	-20.9	---	---	28.7	ENE	0.48	30.4	-36.9	---	---	729.0	0.027	0.000	18.8	1	1
03/15/06	7:44 a	-20.9	-20.9	-20.9	---	---	25.2	E	0.42	27.8	-36.1	---	---	729.1	0.027	0.000	18.8	1	1
03/15/06	7:45 a	-20.9	-20.9	-20.9	---	---	25.2	E	0.42	29.6	-36.1	---	---	729.0	0.027	0.000	18.8	1	1
03/15/06	7:46 a	-20.9	-20.9	-20.9	---	---	25.2	E	0.42	28.7	-36.2	---	---	729.1	0.027	0.000	18.8	1	1
03/15/06	7:47 a	-20.9	-20.9	-20.9	---	---	25.2	E	0.42	27.0	-36.2	---	---	729.0	0.027	0.000	18.8	1	1
03/15/06	7:48 a	-20.9	-20.9	-20.9	---	---	24.3	E	0.41	31.3	-36.0	---	---	729.0	0.027	0.000	18.8	1	1
03/15/06	7:49 a	-21.0	-20.9	-21.0	---	---	26.1	ENE	0.43	32.2	-36.4	---	---	729.1	0.027	0.000	18.8	1	1
03/15/06	7:50 a	-21.0	-20.9	-21.0	---	---	25.2	E	0.42	27.8	-36.3	---	---	729.2	0.027	0.000	18.8	1	1
03/15/06	7:51 a	-20.9	-20.9	-20.9	---	---	23.5	E	0.39	25.2	-35.8	---	---	729.1	0.027	0.000	18.8	1	1
03/15/06	7:52 a	-21.0	-21.0	-21.0	---	---	24.3	ESE	0.41	28.7	-36.1	---	---	729.1	0.027	0.000	18.8	1	1
03/15/06	7:53 a	-21.0	-21.0	-21.0	---	---	26.1	ESE	0.43	28.7	-36.4	---	---	729.0	0.027	0.000	18.8	1	1
03/15/06	7:54 a	-21.0	-21.0	-21.0	---	---	26.1	ESE	0.43	27.8	-36.4	---	---	729.2	0.027	0.000	18.8	1	1
03/15/06	7:55 a	-21.0	-21.0	-21.1	---	---	27.0	ESE	0.45	30.4	-36.7	---	---	729.1	0.027	0.000	18.7	1	1
03/15/06	7:56 a	-21.0	-21.0	-21.1	---	---	24.3	E	0.41	28.7	-36.1	---	---	729.1	0.027	0.000	18.8	1	1
03/15/06	7:57 a	-21.1	-21.1	-21.1	---	---	23.5	E	0.39	26.1	-35.9	---	---	729.1	0.027	0.000	18.7	1	1
03/15/06	7:58 a	-21.1	-21.1	-21.1	---	---	26.1	E	0.43	28.7	-36.6	---	---	729.0	0.027	0.000	18.7	1	1
03/15/06	7:59 a	-21.1	-21.1	-21.1	---	---	27.0	E	0.45	29.6	-36.7	---	---	729.0	0.027	0.000	18.7	1	1
03/15/06	8:00 a	-21.1	-21.1	-21.1	---	---	27.0	E	0.45	31.3	-36.7	---	---	728.9	0.027	0.000	18.7	1	1
03/15/06	8:01 a	-21.1	-21.1	-21.1	---	---	23.5	E	0.39	27.0	-35.9	---	---	729.0	0.027	0.000	18.7	1	1
03/15/06	8:02 a	-21.1	-21.1	-21.1	---	---	24.3	E	0.41	28.7	-36.2	---	---	729.0	0.027	0.000	18.7	1	1
03/15/06	8:03 a	-21.1	-21.1	-21.1	---	---	24.3	E	0.41	28.7	-36.2	---	---	729.0	0.027	0.000	18.7	1	1
03/15/06	8:04 a	-21.1	-21.1	-21.1	---	---	24.3	E	0.41	27.8	-36.2	---	---	729.0	0.027	0.000	18.7	1	1
03/15/06	8:05 a	-21.1	-21.1	-21.1	---	---	26.1	E	0.43	30.4	-36.6	---	---	729.0	0.027	0.000	18.7	1	1
03/15/06	8:06 a	-21.1	-21.1	-21.2	---	---	24.3	E	0.41	27.0	-36.2	---	---	729.0	0.027	0.000	18.7	1	1
03/15/06	8:07 a	-21.1	-21.1	-21.2	---	---	26.1	E	0.43	27.8	-36.6	---	---	729.0	0.027	0.000	18.7	1	1
03/15/06	8:08 a	-21.2	-21.1	-21.2	---	---	25.2	E	0.42	29.6	-36.5	---	---	729.1	0.027	0.000	18.7	1	1
03/15/06	8:09 a	-21.2	-21.1	-21.2	---	---	25.2	E	0.42	27.0	-36.5	---	---	729.1	0.027	0.000	18.7	1	1
03/15/06	8:10 a	-21.2	-21.2	-21.2	---	---	25.2	E	0.42	28.7	-36.5	---	---	729.0	0.027	0.000	18.7	1	1
03/15/06	8:11 a	-21.2	-21.1	-21.2	---	---	25.2	E	0.42	27.8	-36.5	---	---	729.0	0.027	0.000	18.7	1	1
03/15/06	8:12 a	-21.2	-21.2	-21.2	---	---	24.3	E	0.41	27.8	-36.3	---	---	729.1	0.027	0.000	18.7	1	1
03/15/06	8:13 a	-21.2	-21.2	-21.2	---	---	26.1	E	0.43	32.2	-36.7	---	---	729.0	0.027	0.000	18.7	1	1
03/15/06	8:14 a	-21.2	-21.2	-21.2	---	---	25.2	E	0.42	29.6	-36.5	---	---	728.8	0.027	0.000	18.7	1	1
03/15/06	8:15 a	-21.2	-21.2	-21.2	---	---	27.0	E	0.45	31.3	-36.9	---	---	729.0	0.027	0.000	18.7	1	1
03/15/06	8:16 a	-21.2	-21.2	-21.2	---	---	25.2	E	0.42	29.6	-36.5	---	---	729.0	0.027	0.000	18.7	1	1
03/15/06	8:17 a	-21.2	-21.2	-21.2	---	---	26.1	E	0.43	30.4	-36.7	---	---	729.0	0.027	0.000	18.7	1	1
03/15/06	8:18 a	-21.2	-21.2	-21.2	---	---	25.2	E	0.42	29.6	-36.5	---	---	729.0	0.027	0.000	18.7	1	1
03/15/06	8:19 a	-21.2	-21.2	-21.2	---	---	27.8	E	0.46	30.4	-37.2	---	---	729.0	0.027	0.000	18.7	1	1
03/15/06	8:20 a	-21.2	-21.2	-21.2	---	---	27.0	E	0.45	31.3	-36.9	---	---	729.1	0.027	0.000	18.7	1	1
03/15/06	8:21 a	-21.2	-21.2	-21.2	---	---	21.7	E	0.36	33.0	-35.7	---	---	729.0	0.027	0.000	18.7	1	1
03/15/06	8:22 a	-21.2	-21.2	-21.2	---	---	22.6	E	0.38	27.0	-35.9	---	---	729.0	0.027	0.000	18.7	1	1
03/15/06	8:23 a	-21.2	-21.2	-21.2	---	---	25.2	E	0.42	29.6	-36.5	---	---	729.2	0.027	0.000	18.7	1	1
03/15/06	8:24 a	-21.2	-21.2	-21.2	---	---	23.5	E	0.39	29.6	-36.2	---	---	729.1	0.027	0.000	18.7	1	1
03/15/06	8:25 a	-21.2	-21.2	-21.2	---	---	24.3	E	0.41	29.6	-36.3	---	---	729.1	0.027	0.000	18.7	1	1
03/15/06	8:26 a	-21.2	-21.2	-21.2	---	---	23.5	E	0.39	29.6	-36.2	---	---	729.1	0.027	0.000	18.7	1	1
03/15/06	8:27 a	-21.2	-21.2	-21.2	---	---	24.3	E	0.41	26.1	-36.4	---	---	729.1	0.027	0.000	18.7	1	1
03/15/06	8:28 a	-21.2	-21.2	-21.2	---	---	22.6	E	0.38	25.2	-35.9	---	---	729.2	0.027	0.000	18.7	1	1
03/15/06	8:29 a	-21.2	-21.2	-21.2	---	---	22.6	E	0.38	27.8	-35.9	---	---	729.0	0.027	0.000	18.7	1	1
03/15/06	8:30 a	-21.2	-21.2	-21.2	---	---	24.3	E	0.41	29.6	-36.4	---	---	729.0	0.027	0.000	18.7	1	1
03/15/06	8:31 a	-21.2	-21.2	-21.2	---	---	23.5	E	0.39	25.2	-36.2	---	---	729.2	0.027	0.000	18.7	1	1
03/15/06	8:32 a	-21.2	-21.2	-21.2	---	---	23.5	E	0.39	27.0	-36.2	---	---	729.1	0.027	0.000	18.7	1	1
03/15/06	8:33 a	-21.2	-21.2	-21.2	---	---	22.6	E	0.38	26.1	-35.9	---	---	729.2	0.027	0.000	18.7	1	1
03/15/06	8:34 a	-21.2	-21.2	-21.2	---	---	23.5	ESE	0.39	28.7	-36.2	---	---	729.1	0.027	0.000	18.7	1	1
03/15/06	8:35 a	-21.2	-21.2	-21.2	---	---	24.3	E	0.41	26.1	-36.4	---	---	729.2	0.027	0.000	18.7	1	1
03/15/06	8:36 a	-21.2	-21.2	-21.2	---	---	21.7	E	0.36	25.2	-35.7	---	---	729.0	0.027	0.000	18.7	1	1
03/15/06	8:37 a	-21.2	-21.2	-21.2	---	---	22.6	E	0.38	26.1	-35.9	---	---	729.0	0.027	0.000	18.7	1	1
03/15/06	8:38 a	-21.2	-21.2	-21.2	---	---	24.3	E	0.41	27.0	-36.3	---	---	729.1	0.027	0.000	18.7	1	1
03/15/06	8:39 a	-21.2	-21.2	-21.2	---	---	25.2	E	0.42	29.6	-36.6	---	---	729.1	0.027	0.000	18.7	1	1
03/15/06	8:40 a	-21.2	-21.2	-21.2	---	---	23.5	E	0.39	27.8	-36.1	---	---	729.0	0.027	0.000	18.7	1	1
03/15/06	8:41 a	-21.2	-21.2	-21.2	---	---	25.2	ENE	0.42	29.6	-36.6	---	---	729.1	0.027	0.000	18.7	1	1
03/15/06	8:42 a	-21.2	-21.2	-21.2	---	---	26.1	E	0.43	28.7	-36.8	---	---	729.1	0.027	0.000	18.7	1	1
03/15/06	8:43 a	-21.2	-21.2	-21.2	---	---	26.1	ENE	0.43	28.7	-36.8	---	---	729.1	0.027	0.000	18.7	1	1
03/15/06	8:44 a	-21.2	-21.2	-21.2	---	---	26.1	ENE	0.43	28.7	-36.8	---	---	729.1	0.027	0.000	18.7	1	1
03/15/06	8:45 a	-21.2	-21.2	-21.2	---	---	25.2	ENE	0.42	27.0	-36.6	---	---	729.2	0.027	0.000	18.7	1	1
03/15/06	8:46 a	-21.2	-21.2	-21.2	---	---	22.6	E	0.38	26.1	-35.9	---	---	729.1	0.027	0.000	18.7	1	1
03/15/06	8:47 a	-21.2	-21.2	-21.2	---	---	22.6	E	0.38	25.2	-35.9	---	---	729.2	0.027	0.000	18.7	1	1
03/15/06	8:48 a	-21.2	-21.2	-21.2	---	---	23.5	E	0.39	28.7	-36.1	---	---	729.2	0.027	0.000	18.7	1	1
03/15/06	8:49 a	-21.2	-21.2	-21.2	---	---	21.7	E	0.36	25.2	-35.6	---	---	729.2	0.027	0.000	18.6	1	1
03/15/06	8:50 a	-21.2	-21.2	-21.2	---	---	21.7	E	0.36	26.1	-35.7	---	---	729.2	0.027	0.000	18.6	1	1
03/15/06	8:51 a	-21.2	-21.2	-21.2	---	---	23.5	ENE	0.39	27.8	-36.2	---	---	729.2	0.027	0.000	18.6	1	1
03/15/06	8:52 a	-21.2	-21.2	-21.2	---	---	26.1	ENE	0.43	28.7	-36.8	---	---	729.1	0.027	0.000	18.6	1	1
03/15/06	8:53 a	-21.2	-21.2	-21.2	---	---	27.8	ENE	0.46	30.4	-37.2	---	---	729.0	0.027	0.000	18.6	1	1
03/15/06	8:54 a	-21.2	-21.2	-21.2	---	---	27.8	ENE	0.46	29.6	-37.2	---	---	729.2	0.027	0.000	18.6	1	1
03/15/06	8:55 a	-21.2	-21.2	-21.2	---	---	25.2	ENE	0.42	29.6	-36.6	---	---	729.4	0.027	0.000	18.6	1	1
03/15/06	8:56 a	-21.2	-21.2	-21.2	---	---	24.3	ENE	0.41	29.6	-36.4	---	---	729.2	0.027	0.000	18.6	1	1
03/15/06	8:57 a	-21.2	-21.2	-21.2	---	---	23.5	ENE	0.39	27.0	-36.1	---	---	729.2	0.027	0.000	18.6	1	1
03/15/06	8:58 a	-21.2	-21.2	-21.2	---	---	24.3	E	0.41	27.0	-36.3	---	---	729.2	0.027	0.000	18.6	1	1
03/15/06	8:59 a	-21.2	-21.2	-21.2	---	---	23.5	E	0.39	27.0	-36.2	---	---	729.2	0.027	0.000	18.6	1	1
03/15/06	9:00 a	-21.2	-21.2	-21.2	---	---	22.6	E	0.38	26.1	-35.9	---	---	729.2	0.027	0.000	18.6	1	1
03/15/06	9:01 a	-21.2	-21.2	-21.2	---	---	20.9	E	0.35	24.3	-35.4	---	---	729.2	0.027	0.000	18.6	1	1
03/15/06	9:02 a	-21.2	-21.2	-21.2	---	---	24.3	ENE	0.41	26.1	-36.3	---	---	729.2	0.027	0.000	18.6	1	1
03/15/06	9:03 a	-21.2	-21.2	-21.2	---	---	23.5	E	0.39	26.1	-36.1	---	---	729.2	0.027	0.000	18.6	1	1
03/15/06	9:04 a	-21.2	-21.2	-21.2	---	---	22.6	E	0.38	24.3	-35.9	---	---	729.3	0.027	0.000	18.6	1	1
03/15/06	9:05 a	-21.2	-21.2	-21.2	---	---	22.6	E	0.38	26.1	-35.9	---	---	729.3	0.027	0.000	18.6	1	1
03/15/06	9:06 a	-21.2	-21.2	-21.2	---	---	22.6	ENE	0.38	25.2	-35.9	---	---	729.3	0.027	0.000	18.6	1	1
03/15/06	9:07 a	-21.2	-21.2	-21.2	---	---	23.5	ENE	0.39	26.1	-36.1	---	---	729.3	0.027	0.000	18.6	1	1
03/15/06	9:08 a	-21.2	-21.2	-21.2	---	---	23.5	ENE	0.39	26.1	-36.1	---	---	729.3	0.027	0.000	18.6	1	1
03/15/06	9:09 a	-21.2	-21.2	-21.2	---	---	23.5	ENE	0.39	26.1	-36.1	---	---	729.3	0.027	0.000	18.6	1	1
03/15/06	9:10 a	-21.2	-21.2	-21.2	---	---	23.5	E	0.39	27.0	-36.1	---	---	729.3	0.027	0.000	18.6	1	1
03/15/06	9:11 a	-21.2	-21.2	-21.2	---	---	21.7	E	0.36	25.2	-35.6	---	---	729.4	0.027	0.000	18.6	1	1
03/15/06	9:12 a	-21.2	-21.1	-21.2	---	---	22.6	E	0.38	26.1	-35.9	---	---	729.3	0.027	0.000	18.6	1	1
03/15/06	9:13 a	-21.2	-21.2	-21.2	---	---	20.0	E	0.33	23.5	-35.2	---	---	729.4	0.027	0.000	18.6	1	1
03/15/06	9:14 a	-21.2	-21.2	-21.2	---	---	21.7	E	0.36	26.1	-35.6	---	---	729.3	0.027	0.000	18.6	1	1
03/15/06	9:15 a	-21.2	-21.1	-21.2	---	---	22.6	ENE	0.38	25.2	-35.9	---	---	729.3	0.027	0.000	18.6	1	1
03/15/06	9:16 a	-21.2	-21.2	-21.2	---	---	24.3	ENE	0.41	26.1	-36.3	---	---	729.2	0.027	0.000	18.6	1	1
03/15/06	9:17 a	-21.2	-21.1	-21.2	---	---	20.9	E	0.35	25.2	-35.4	---	---	729.2	0.027	0.000	18.6	1	1
03/15/06	9:18 a	-21.1	-21.1	-21.1	---	---	20.0	ENE	0.33	24.3	-35.1	---	---	729.3	0.027	0.000	18.6	1	1
03/15/06	9:19 a	-21.2	-21.1	-21.2	---	---	22.6	E	0.38	25.2	-35.9	---	---	729.3	0.027	0.000	18.6	1	1
03/15/06	9:20 a	-21.1	-21.1	-21.1	---	---	21.7	E	0.36	25.2	-35.6	---	---	729.3	0.027	0.000	18.6	1	1
03/15/06	9:21 a	-21.1	-21.1	-21.1	---	---	24.3	ENE	0.41	26.1	-36.2	---	---	729.3	0.027	0.000	18.6	1	1
03/15/06	9:22 a	-21.1	-21.1	-21.1	---	---	21.7	ENE	0.36	28.7	-35.6	---	---	729.2	0.027	0.000	18.6	1	1
03/15/06	9:23 a	-21.1	-21.1	-21.1	---	---	23.5	ENE	0.39	27.0	-36.0	---	---	729.2	0.027	0.000	18.6	1	1
03/15/06	9:24 a	-21.1	-21.1	-21.2	---	---	23.5	ENE	0.39	26.1	-36.0	---	---	729.3	0.027	0.000	18.6	1	1
03/15/06	9:25 a	-21.1	-21.1	-21.1	---	---	24.3	ENE	0.41	27.0	-36.2	---	---	729.3	0.027	0.000	18.6	1	1
03/15/06	9:26 a	-21.1	-21.1	-21.1	---	---	23.5	ENE	0.39	27.0	-36.0	---	---	729.4	0.027	0.000	18.6	1	1
03/15/06	9:27 a	-21.1	-21.1	-21.1	---	---	24.3	ENE	0.41	27.8	-36.2	---	---	729.3	0.027	0.000	18.6	1	1
03/15/06	9:28 a	-21.1	-21.1	-21.1	---	---	23.5	ENE	0.39	26.1	-36.0	---	---	729.3	0.027	0.000	18.6	1	1
03/15/06	9:29 a	-21.1	-21.1	-21.1	---	---	22.6	E	0.38	26.1	-35.8	---	---	729.3	0.027	0.000	18.6	1	1
03/15/06	9:30 a	-21.1	-21.1	-21.1	---	---	23.5	ENE	0.39	26.1	-36.0	---	---	729.3	0.027	0.000	18.6	1	1
03/15/06	9:31 a	-21.1	-21.1	-21.1	---	---	20.9	ENE	0.35	24.3	-35.3	---	---	729.2	0.027	0.000	18.6	1	1
03/15/06	9:32 a	-21.1	-21.1	-21.1	---	---	24.3	ENE	0.41	25.2	-36.2	---	---	729.3	0.027	0.000	18.6	1	1
03/15/06	9:33 a	-21.1	-21.1	-21.1	---	---	22.6	ENE	0.38	24.3	-35.7	---	---	729.3	0.027	0.000	18.6	1	1
03/15/06	9:34 a	-21.1	-21.1	-21.1	---	---	22.6	ENE	0.38	24.3	-35.7	---	---	729.4	0.027	0.000	18.6	1	1
03/15/06	9:35 a	-21.1	-21.1	-21.1	---	---	22.6	ENE	0.38	24.3	-35.7	---	---	729.3	0.027	0.000	18.6	1	1
03/15/06	9:36 a	-21.1	-21.1	-21.1	---	---	23.5	ENE	0.39	26.1	-35.9	---	---	729.2	0.027	0.000	18.6	1	1
03/15/06	9:37 a	-21.1	-21.1	-21.1	---	---	22.6	E	0.38	25.2	-35.7	---	---	729.3	0.027	0.000	18.6	1	1
03/15/06	9:38 a	-21.1	-21.0	-21.1	---	---	20.9	ENE	0.35	23.5	-35.3	---	---	729.4	0.027	0.000	18.6	1	1
03/15/06	9:39 a	-21.1	-21.0	-21.1	---	---	20.0	ENE	0.33	21.7	-35.0	---	---	729.3	0.027	0.000	18.6	1	1
03/15/06	9:40 a	-21.1	-21.0	-21.1	---	---	20.9	ENE	0.35	23.5	-35.3	---	---	729.2	0.027	0.000	18.6	1	1
03/15/06	9:41 a	-21.0	-21.0	-21.1	---	---	21.7	ENE	0.36	25.2	-35.4	---	---	729.2	0.027	0.000	18.6	1	1
03/15/06	9:42 a	-21.0	-21.0	-21.0	---	---	23.5	ENE	0.39	27.0	-35.8	---	---	729.2	0.027	0.000	18.6	1	1
03/15/06	9:43 a	-21.0	-21.0	-21.0	---	---	24.3	ENE	0.41	26.1	-36.1	---	---	729.3	0.027	0.000	18.6	1	1
03/15/06	9:44 a	-21.0	-21.0	-21.0	---	---	21.7	ENE	0.36	23.5	-35.4	---	---	729.4	0.027	0.000	18.6	1	1
03/15/06	9:45 a	-21.0	-21.0	-21.0	---	---	21.7	ENE	0.36	25.2	-35.4	---	---	729.3	0.027	0.000	18.6	1	1
03/15/06	9:46 a	-21.0	-20.9	-21.0	---	---	20.0	ENE	0.33	21.7	-34.9	---	---	729.3	0.027	0.000	18.6	1	1
03/15/06	9:47 a	-21.0	-20.9	-21.0	---	---	20.9	E	0.35	21.7	-35.2	---	---	729.3	0.027	0.000	18.6	1	1
03/15/06	9:48 a	-20.9	-20.9	-21.0	---	---	20.0	ENE	0.33	21.7	-34.9	---	---	729.4	0.027	0.000	18.6	1	1
03/15/06	9:49 a	-20.9	-20.9	-20.9	---	---	18.3	ENE	0.30	20.0	-34.4	---	---	729.4	0.027	0.000	18.6	1	1
03/15/06	9:50 a	-20.9	-20.9	-20.9	---	---	20.0	ENE	0.33	21.7	-34.9	---	---	729.4	0.027	0.000	18.6	1	1
03/15/06	9:51 a	-20.9	-20.9	-20.9	---	---	19.1	ENE	0.32	20.0	-34.6	---	---	729.4	0.027	0.000	18.6	1	1
03/15/06	9:52 a	-20.9	-20.9	-20.9	---	---	19.1	E	0.32	20.0	-34.6	---	---	729.3	0.027	0.000	18.6	1	1
03/15/06	9:53 a	-20.9	-20.9	-20.9	---	---	19.1	ENE	0.32	22.6	-34.6	---	---	729.4	0.027	0.000	18.6	1	1
03/15/06	9:54 a	-20.9	-20.9	-20.9	---	---	18.3	E	0.30	20.0	-34.3	---	---	729.5	0.027	0.000	18.6	1	1
03/15/06	9:55 a	-20.9	-20.9	-20.9	---	---	22.6	ENE	0.38	24.3	-35.5	---	---	729.4	0.027	0.000	18.6	1	1
03/15/06	9:56 a	-20.9	-20.9	-20.9	---	---	20.9	ENE	0.35	22.6	-35.1	---	---	729.3	0.027	0.000	18.6	1	1
03/15/06	9:57 a	-20.9	-20.9	-20.9	---	---	21.7	ENE	0.36	27.0	-35.3	---	---	729.4	0.027	0.000	18.6	1	1
03/15/06	9:58 a	-20.9	-20.8	-20.9	---	---	23.5	ENE	0.39	25.2	-35.7	---	---	729.4	0.027	0.000	18.6	1	1
03/15/06	9:59 a	-20.8	-20.8	-20.8	---	---	25.2	ENE	0.42	27.8	-36.1	---	---	729.4	0.027	0.000	18.6	1	1
03/15/06	10:00 a	-20.8	-20.8	-20.9	---	---	23.5	ENE	0.39	26.1	-35.6	---	---	729.5	0.027	0.000	18.6	1	1
03/15/06	10:01 a	-20.8	-20.8	-20.8	---	---	21.7	ENE	0.36	27.0	-35.2	---	---	729.5	0.027	0.000	18.6	1	1
03/15/06	10:02 a	-20.8	-20.8	-20.8	---	---	20.0	E	0.33	21.7	-34.7	---	---	729.3	0.027	0.000	18.6	1	1
03/15/06	10:03 a	-20.8	-20.8	-20.8	---	---	20.0	E	0.33	26.1	-34.7	---	---	729.5	0.027	0.000	18.6	1	1
03/15/06	10:04 a	-20.8	-20.8	-20.8	---	---	17.4	E	0.29	20.0	-33.9	---	---	729.4	0.027	0.000	18.6	1	1
03/15/06	10:05 a	-20.8	-20.8	-20.8	---	---	20.0	E	0.33	24.3	-34.7	---	---	729.3	0.027	0.000	18.5	1	1
03/15/06	10:06 a	-20.8	-20.8	-20.8	---	---	20.0	E	0.33	21.7	-34.7	---	---	729.4	0.027	0.000	18.5	1	1
03/15/06	10:07 a	-20.8	-20.8	-20.8	---	---	20.9	E	0.35	22.6	-34.9	---	---	729.3	0.027	0.000	18.5	1	1
03/15/06	10:08 a	-20.8	-20.8	-20.8	---	---	20.9	E	0.35	23.5	-34.9	---	---	729.4	0.027	0.000	18.5	1	1
03/15/06	10:09 a	-20.8	-20.8	-20.8	---	---	20.9	ESE	0.35	22.6	-34.9	---	---	729.4	0.027	0.000	18.5	1	1
03/15/06	10:10 a	-20.7	-20.7	-20.8	---	---	21.7	ESE	0.36	23.5	-35.1	---	---	729.4	0.027	0.000	18.5	1	1
03/15/06	10:11 a	-20.8	-20.8	-20.8	---	---	18.3	ESE	0.30	19.1	-34.2	---	---	729.4	0.027	0.000	18.5	1	1
03/15/06	10:12 a	-20.7	-20.7	-20.8	---	---	15.7	E	0.26	21.7	-33.2	---	---	729.4	0.027	0.000	18.5	1	1
03/15/06	10:13 a	-20.7	-20.7	-20.7	---	---	21.7	E	0.36	24.3	-35.1	---	---	729.3	0.027	0.000	18.5	1	1
03/15/06	10:14 a	-20.7	-20.7	-20.8	---	---	18.3	E	0.30	20.9	-34.1	---	---	729.5	0.027	0.000	18.5	1	1
03/15/06	10:15 a	-20.7	-20.7	-20.7	---	---	17.4	E	0.29	20.0	-33.8	---	---	729.4	0.027	0.000	18.5	1	1
03/15/06	10:16 a	-20.7	-20.7	-20.7	---	---	15.7	E	0.26	20.9	-33.2	---	---	729.5	0.027	0.000	18.6	1	1
03/15/06	10:17 a	-20.7	-20.7	-20.7	---	---	16.5	E	0.28	19.1	-33.4	---	---	729.4	0.027	0.000	18.6	1	1
03/15/06	10:18 a	-20.7	-20.7	-20.7	---	---	19.1	E	0.32	21.7	-34.3	---	---	729.5	0.027	0.000	18.5	1	1
03/15/06	10:19 a	-20.7	-20.7	-20.7	---	---	17.4	E	0.29	19.1	-33.7	---	---	729.4	0.027	0.000	18.5	1	1
03/15/06	10:20 a	-20.7	-20.7	-20.7	---	---	17.4	E	0.29	20.0	-33.7	---	---	729.5	0.027	0.000	18.6	1	1
03/15/06	10:21 a	-20.7	-20.7	-20.7	---	---	18.3	E	0.30	20.9	-34.0	---	---	729.4	0.027	0.000	18.6	1	1
03/15/06	10:22 a	-20.7	-20.7	-20.7	---	---	15.7	E	0.26	20.0	-33.2	---	---	729.6	0.027	0.000	18.6	1	1
03/15/06	10:23 a	-20.7	-20.7	-20.7	---	---	16.5	E	0.28	20.0	-33.4	---	---	729.5	0.027	0.000	18.6	1	1
03/15/06	10:24 a	-20.7	-20.7	-20.7	---	---	16.5	E	0.28	20.0	-33.4	---	---	729.5	0.027	0.000	18.6	1	1
03/15/06	10:25 a	-20.6	-20.6	-20.6	---	---	17.4	ESE	0.29	18.3	-33.7	---	---	729.5	0.027	0.000	18.6	1	1
03/15/06	10:26 a	-20.7	-20.7	-20.7	---	---	14.8	E	0.25	17.4	-32.8	---	---	729.5	0.027	0.000	18.6	1	1
03/15/06	10:27 a	-20.7	-20.7	-20.7	---	---	16.5	E	0.28	20.0	-33.4	---	---	729.4	0.027	0.000	18.6	1	1
03/15/06	10:28 a	-20.7	-20.7	-20.7	---	---	17.4	E	0.29	20.9	-33.7	---	---	729.4	0.027	0.000	18.6	1	1
03/15/06	10:29 a	-20.7	-20.7	-20.7	---	---	18.3	E	0.30	20.9	-34.0	---	---	729.5	0.027	0.000	18.6	1	1
03/15/06	10:30 a	-20.6	-20.6	-20.7	---	---	16.5	E	0.28	19.1	-33.4	---	---	729.4	0.027	0.000	18.6	1	1
03/15/06	10:31 a	-20.6	-20.6	-20.7	---	---	17.4	ENE	0.29	19.1	-33.7	---	---	729.4	0.027	0.000	18.6	1	1
03/15/06	10:32 a	-20.6	-20.6	-20.7	---	---	17.4	ENE	0.29	20.0	-33.7	---	---	729.5	0.027	0.000	18.6	1	1
03/15/06	10:33 a	-20.6	-20.6	-20.7	---	---	17.4	ENE	0.29	20.0	-33.7	---	---	729.5	0.027	0.000	18.6	1	1
03/15/06	10:34 a	-20.7	-20.6	-20.7	---	---	16.5	ENE	0.28	18.3	-33.4	---	---	729.4	0.027	0.000	18.6	1	1
03/15/06	10:35 a	-20.7	-20.7	-20.7	---	---	17.4	E	0.29	20.0	-33.7	---	---	729.3	0.027	0.000	18.6	1	1
03/15/06	10:36 a	-20.6	-20.6	-20.7	---	---	19.1	ENE	0.32	21.7	-34.2	---	---	729.4	0.027	0.000	18.6	1	1
03/15/06	10:37 a	-20.7	-20.6	-20.7	---	---	18.3	ENE	0.30	20.9	-34.0	---	---	729.3	0.027	0.000	18.6	1	1
03/15/06	10:38 a	-20.7	-20.7	-20.7	---	---	20.0	ENE	0.33	21.7	-34.5	---	---	729.4	0.027	0.000	18.6	1	1
03/15/06	10:39 a	-20.7	-20.6	-20.7	---	---	18.3	ENE	0.30	21.7	-34.0	---	---	729.4	0.027	0.000	18.6	1	1
03/15/06	10:40 a	-20.6	-20.6	-20.7	---	---	17.4	ENE	0.29	20.9	-33.7	---	---	729.3	0.027	0.000	18.6	1	1
03/15/06	10:41 a	-20.7	-20.7	-20.7	---	---	20.9	ENE	0.35	22.6	-34.7	---	---	729.3	0.027	0.000	18.6	1	1
03/15/06	10:42 a	-20.7	-20.7	-20.7	---	---	18.3	ENE	0.30	20.9	-34.0	---	---	729.4	0.027	0.000	18.6	1	1
03/15/06	10:43 a	-20.7	-20.7	-20.7	---	---	20.0	E	0.33	24.3	-34.5	---	---	729.2	0.027	0.000	18.6	1	1
03/15/06	10:44 a	-20.7	-20.7	-20.7	---	---	21.7	ENE	0.36	22.6	-34.9	---	---	729.2	0.027	0.000	18.6	1	1
03/15/06	10:45 a	-20.7	-20.7	-20.7	---	---	20.0	ENE	0.33	22.6	-34.5	---	---	729.3	0.027	0.000	18.6	1	1
03/15/06	10:46 a	-20.7	-20.7	-20.7	---	---	21.7	ENE	0.36	23.5	-34.9	---	---	729.3	0.027	0.000	18.6	1	1
03/15/06	10:47 a	-20.7	-20.7	-20.7	---	---	18.3	ENE	0.30	21.7	-34.1	---	---	729.4	0.027	0.000	18.6	1	1
03/15/06	10:48 a	-20.7	-20.7	-20.7	---	---	20.0	ENE	0.33	24.3	-34.6	---	---	729.3	0.027	0.000	18.6	1	1
03/15/06	10:49 a	-20.7	-20.7	-20.7	---	---	18.3	ENE	0.30	22.6	-34.1	---	---	729.3	0.027	0.000	18.6	1	1
03/15/06	10:50 a	-20.7	-20.7	-20.7	---	---	17.4	ENE	0.29	20.9	-33.8	---	---	729.4	0.027	0.000	18.6	1	1
03/15/06	10:51 a	-20.7	-20.7	-20.7	---	---	16.5	E	0.28	19.1	-33.5	---	---	729.3	0.027	0.000	18.6	1	1
03/15/06	10:52 a	-20.7	-20.7	-20.7	---	---	13.0	E	0.22	15.7	-32.3	---	---	729.5	0.027	0.000	18.6	1	1
03/15/06	10:53 a	-20.7	-20.7	-20.7	---	---	16.5	E	0.28	24.3	-33.5	---	---	729.4	0.027	0.000	18.6	1	1
03/15/06	10:54 a	-20.7	-20.7	-20.8	---	---	23.5	ESE	0.39	27.8	-35.5	---	---	729.5	0.027	0.000	18.6	1	1
03/15/06	10:55 a	-20.7	-20.7	-20.8	---	---	18.3	E	0.30	26.1	-34.1	---	---	729.3	0.027	0.000	18.6	1	1
03/15/06	10:56 a	-20.7	-20.7	-20.7	---	---	17.4	E	0.29	20.9	-33.8	---	---	729.5	0.027	0.000	18.6	1	1
03/15/06	10:57 a	-20.7	-20.7	-20.8	---	---	17.4	E	0.29	20.0	-33.8	---	---	729.5	0.027	0.000	18.6	1	1
03/15/06	10:58 a	-20.7	-20.7	-20.8	---	---	16.5	E	0.28	19.1	-33.5	---	---	729.5	0.027	0.000	18.6	1	1
03/15/06	10:59 a	-20.8	-20.8	-20.8	---	---	16.5	E	0.28	19.1	-33.6	---	---	729.5	0.027	0.000	18.6	1	1
03/15/06	11:00 a	-20.8	-20.8	-20.8	---	---	14.8	E	0.25	17.4	-33.0	---	---	729.6	0.027	0.000	18.6	1	1
03/15/06	11:01 a	-20.8	-20.8	-20.8	---	---	14.8	E	0.25	17.4	-33.0	---	---	729.5	0.027	0.000	18.6	1	1
03/15/06	11:02 a	-20.8	-20.8	-20.8	---	---	16.5	ENE	0.28	19.1	-33.6	---	---	729.5	0.027	0.000	18.6	1	1
03/15/06	11:03 a	-20.8	-20.8	-20.8	---	---	17.4	ENE	0.29	19.1	-33.9	---	---	729.5	0.027	0.000	18.6	1	1
03/15/06	11:04 a	-20.8	-20.8	-20.8	---	---	16.5	ENE	0.28	18.3	-33.6	---	---	729.5	0.027	0.000	18.6	1	1
03/15/06	11:05 a	-20.8	-20.8	-20.8	---	---	15.7	ENE	0.26	17.4	-33.3	---	---	729.5	0.027	0.000	18.6	1	1
03/15/06	11:06 a	-20.8	-20.8	-20.8	---	---	14.8	ENE	0.25	16.5	-33.0	---	---	729.5	0.027	0.000	18.6	1	1
03/15/06	11:07 a	-20.8	-20.8	-20.8	---	---	15.7	ENE	0.26	18.3	-33.3	---	---	729.5	0.027	0.000	18.6	1	1
03/15/06	11:08 a	-20.8	-20.8	-20.8	---	---	17.4	ENE	0.29	19.1	-33.9	---	---	729.4	0.027	0.000	18.6	1	1
03/15/06	11:09 a	-20.8	-20.8	-20.8	---	---	16.5	ENE	0.28	17.4	-33.7	---	---	729.6	0.027	0.000	18.6	1	1
03/15/06	11:10 a	-20.8	-20.8	-20.8	---	---	16.5	ENE	0.28	18.3	-33.7	---	---	729.6	0.027	0.000	18.6	1	1
03/15/06	11:11 a	-20.8	-20.8	-20.8	---	---	14.8	ENE	0.25	20.0	-33.1	---	---	729.6	0.027	0.000	18.5	1	1
03/15/06	11:12 a	-20.8	-20.8	-20.8	---	---	16.5	ENE	0.28	19.1	-33.7	---	---	729.6	0.027	0.000	18.5	1	1
03/15/06	11:13 a	-20.8	-20.8	-20.8	---	---	16.5	ENE	0.28	17.4	-33.7	---	---	729.6	0.027	0.000	18.5	1	1
03/15/06	11:14 a	-20.9	-20.8	-20.9	---	---	14.8	ENE	0.25	17.4	-33.2	---	---	729.6	0.027	0.000	18.5	1	1
03/15/06	11:15 a	-20.9	-20.8	-20.9	---	---	13.9	ENE	0.23	14.8	-32.8	---	---	729.7	0.027	0.000	18.5	1	1
03/15/06	11:16 a	-20.8	-20.8	-20.9	---	---	12.2	ENE	0.20	13.0	-32.1	---	---	729.8	0.027	0.000	18.5	1	1
03/15/06	11:17 a	-20.9	-20.8	-20.9	---	---	11.3	ENE	0.19	12.2	-31.7	---	---	729.7	0.027	0.000	18.5	1	1
03/15/06	11:18 a	-20.9	-20.9	-20.9	---	---	11.3	ENE	0.19	14.8	-31.7	---	---	729.7	0.027	0.000	18.6	1	1
03/15/06	11:19 a	-20.9	-20.9	-20.9	---	---	13.0	ENE	0.22	14.8	-32.5	---	---	729.8	0.027	0.000	18.6	1	1
03/15/06	11:20 a	-20.9	-20.9	-20.9	---	---	13.0	ENE	0.22	14.8	-32.6	---	---	729.6	0.027	0.000	18.6	1	1
03/15/06	11:21 a	-20.9	-20.9	-20.9	---	---	13.0	ENE	0.22	14.8	-32.6	---	---	729.7	0.027	0.000	18.6	1	1
03/15/06	11:22 a	-20.9	-20.9	-20.9	---	---	13.0	ENE	0.22	15.7	-32.6	---	---	729.7	0.027	0.000	18.6	1	1
03/15/06	11:23 a	-20.9	-20.9	-20.9	---	---	13.0	ENE	0.22	15.7	-32.6	---	---	729.7	0.027	0.000	18.6	1	1
03/15/06	11:24 a	-20.9	-20.9	-21.0	---	---	13.0	ENE	0.22	14.8	-32.6	---	---	729.7	0.027	0.000	18.6	1	1
03/15/06	11:25 a	-21.0	-21.0	-21.0	---	---	12.2	ENE	0.20	13.9	-32.3	---	---	729.7	0.027	0.000	18.6	1	1
03/15/06	11:26 a	-21.0	-21.0	-21.0	---	---	13.0	ENE	0.22	14.8	-32.6	---	---	729.7	0.027	0.000	18.6	1	1
03/15/06	11:27 a	-21.0	-21.0	-21.0	---	---	13.9	ENE	0.23	15.7	-32.9	---	---	729.7	0.027	0.000	18.6	1	1
03/15/06	11:28 a	-21.1	-21.0	-21.1	---	---	15.7	ENE	0.26	17.4	-33.7	---	---	729.7	0.027	0.000	18.6	1	1
03/15/06	11:29 a	-21.1	-21.1	-21.1	---	---	13.9	ENE	0.23	16.5	-33.1	---	---	729.6	0.027	0.000	18.6	1	1
03/15/06	11:30 a	-21.1	-21.0	-21.1	---	---	13.9	ENE	0.23	15.7	-33.1	---	---	729.7	0.027	0.000	18.6	1	1
03/15/06	11:31 a	-21.1	-21.1	-21.1	---	---	13.0	ENE	0.22	15.7	-32.7	---	---	729.6	0.027	0.000	18.6	1	1
03/15/06	11:32 a	-21.1	-21.1	-21.1	---	---	13.9	ENE	0.23	15.7	-33.1	---	---	729.7	0.027	0.000	18.6	1	1
03/15/06	11:33 a	-21.1	-21.1	-21.1	---	---	15.7	ENE	0.26	17.4	-33.7	---	---	729.6	0.027	0.000	18.6	1	1
03/15/06	11:34 a	-21.1	-21.1	-21.1	---	---	14.8	ENE	0.25	17.4	-33.3	---	---	729.6	0.027	0.000	18.6	1	1
03/15/06	11:35 a	-21.1	-21.1	-21.1	---	---	14.8	ENE	0.25	16.5	-33.3	---	---	729.7	0.027	0.000	18.6	1	1
03/15/06	11:36 a	-21.1	-21.1	-21.1	---	---	15.7	ENE	0.26	18.3	-33.7	---	---	729.6	0.027	0.000	18.6	1	1
03/15/06	11:37 a	-21.1	-21.1	-21.2	---	---	16.5	ENE	0.28	18.3	-34.1	---	---	729.5	0.027	0.000	18.6	1	1
03/15/06	11:38 a	-21.2	-21.2	-21.2	---	---	15.7	ENE	0.26	17.4	-33.8	---	---	729.6	0.027	0.000	18.6	1	1
03/15/06	11:39 a	-21.2	-21.2	-21.2	---	---	17.4	ENE	0.29	19.1	-34.4	---	---	729.6	0.027	0.000	18.6	1	1
03/15/06	11:40 a	-21.2	-21.2	-21.2	---	---	17.4	ENE	0.29	19.1	-34.4	---	---	729.6	0.027	0.000	18.6	1	1
03/15/06	11:41 a	-21.2	-21.2	-21.2	---	---	19.1	ENE	0.32	20.9	-34.9	---	---	729.6	0.027	0.000	18.6	1	1
03/15/06	11:42 a	-21.2	-21.2	-21.2	---	---	17.4	ENE	0.29	19.1	-34.4	---	---	729.6	0.027	0.000	18.6	1	1
03/15/06	11:43 a	-21.2	-21.2	-21.2	---	---	17.4	ENE	0.29	19.1	-34.4	---	---	729.5	0.027	0.000	18.6	1	1
03/15/06	11:44 a	-21.2	-21.2	-21.2	---	---	19.1	ENE	0.32	20.0	-34.9	---	---	729.5	0.027	0.000	18.6	1	1
03/15/06	11:45 a	-21.2	-21.2	-21.2	---	---	18.3	ENE	0.30	20.0	-34.7	---	---	729.6	0.027	0.000	18.6	1	1
03/15/06	11:46 a	-21.2	-21.2	-21.2	---	---	19.1	ENE	0.32	20.0	-35.0	---	---	729.6	0.027	0.000	18.6	1	1
03/15/06	11:47 a	-21.2	-21.2	-21.2	---	---	17.4	ENE	0.29	19.1	-34.4	---	---	729.6	0.027	0.000	18.6	1	1
03/15/06	11:48 a	-21.2	-21.2	-21.3	---	---	18.3	ENE	0.30	20.0	-34.7	---	---	729.5	0.027	0.000	18.6	1	1
03/15/06	11:49 a	-21.2	-21.2	-21.2	---	---	18.3	ENE	0.30	20.0	-34.7	---	---	729.5	0.027	0.000	18.6	1	1
03/15/06	11:50 a	-21.2	-21.2	-21.3	---	---	20.0	ENE	0.33	22.6	-35.2	---	---	729.4	0.027	0.000	18.6	1	1
03/15/06	11:51 a	-21.3	-21.2	-21.3	---	---	20.9	ENE	0.35	22.6	-35.6	---	---	729.5	0.028	0.000	18.6	1	1
03/15/06	11:52 a	-21.3	-21.2	-21.3	---	---	17.4	ENE	0.29	20.9	-34.6	---	---	729.4	0.028	0.000	18.6	1	1
03/15/06	11:53 a	-21.3	-21.2	-21.3	---	---	20.0	ENE	0.33	21.7	-35.3	---	---	729.3	0.028	0.000	18.6	1	1
03/15/06	11:54 a	-21.3	-21.2	-21.3	---	---	20.0	ENE	0.33	23.5	-35.3	---	---	729.4	0.028	0.000	18.6	1	1
03/15/06	11:55 a	-21.3	-21.3	-21.3	---	---	19.1	ENE	0.32	23.5	-35.1	---	---	729.3	0.028	0.000	18.6	1	1
03/15/06	11:56 a	-21.3	-21.3	-21.3	---	---	21.7	ENE	0.36	23.5	-35.8	---	---	729.3	0.028	0.000	18.6	1	1
03/15/06	11:57 a	-21.3	-21.3	-21.3	---	---	20.0	ENE	0.33	22.6	-35.3	---	---	729.3	0.028	0.000	18.6	1	1
03/15/06	11:58 a	-21.3	-21.3	-21.3	---	---	21.7	ENE	0.36	23.5	-35.8	---	---	729.3	0.028	0.000	18.6	1	1
03/15/06	11:59 a	-21.3	-21.3	-21.3	---	---	20.9	ENE	0.35	22.6	-35.6	---	---	729.3	0.028	0.000	18.6	1	1
03/15/06	12:00 p	-21.3	-21.3	-21.3	---	---	19.1	ENE	0.32	21.7	-35.1	---	---	729.4	0.028	0.000	18.6	1	1
03/15/06	12:01 p	-21.3	-21.3	-21.3	---	---	20.0	ENE	0.33	20.9	-35.3	---	---	729.4	0.028	0.000	18.6	1	1
03/15/06	12:02 p	-21.3	-21.3	-21.3	---	---	20.9	ENE	0.35	22.6	-35.6	---	---	729.3	0.028	0.000	18.6	1	1
03/15/06	12:03 p	-21.3	-21.3	-21.3	---	---	20.9	ENE	0.35	22.6	-35.6	---	---	729.3	0.028	0.000	18.6	1	1
03/15/06	12:04 p	-21.3	-21.3	-21.3	---	---	20.0	ENE	0.33	20.9	-35.4	---	---	729.5	0.028	0.000	18.6	1	1
03/15/06	12:05 p	-21.3	-21.3	-21.3	---	---	19.1	ENE	0.32	20.9	-35.1	---	---	729.4	0.028	0.000	18.6	1	1
03/15/06	12:06 p	-21.3	-21.3	-21.3	---	---	19.1	ENE	0.32	20.0	-35.1	---	---	729.4	0.028	0.000	18.6	1	1
03/15/06	12:07 p	-21.3	-21.3	-21.3	---	---	18.3	ENE	0.30	20.0	-34.9	---	---	729.5	0.028	0.000	18.6	1	1
03/15/06	12:08 p	-21.3	-21.3	-21.3	---	---	19.1	ENE	0.32	20.0	-35.1	---	---	729.4	0.028	0.000	18.6	1	1
03/15/06	12:09 p	-21.3	-21.3	-21.3	---	---	20.0	ENE	0.33	20.9	-35.3	---	---	729.3	0.028	0.000	18.6	1	1
03/15/06	12:10 p	-21.3	-21.3	-21.3	---	---	19.1	ENE	0.32	20.9	-35.1	---	---	729.3	0.028	0.000	18.6	1	1
03/15/06	12:11 p	-21.3	-21.3	-21.3	---	---	18.3	ENE	0.30	20.0	-34.9	---	---	729.4	0.028	0.000	18.6	1	1
03/15/06	12:12 p	-21.3	-21.3	-21.3	---	---	18.3	ENE	0.30	20.0	-34.9	---	---	729.4	0.028	0.000	18.6	1	1
03/15/06	12:13 p	-21.3	-21.3	-21.3	---	---	18.3	ENE	0.30	20.0	-34.9	---	---	729.4	0.028	0.000	18.6	1	1
03/15/06	12:14 p	-21.3	-21.3	-21.3	---	---	17.4	ENE	0.29	19.1	-34.6	---	---	729.4	0.028	0.000	18.6	1	1
03/15/06	12:15 p	-21.3	-21.3	-21.3	---	---	18.3	ENE	0.30	19.1	-34.9	---	---	729.4	0.028	0.000	18.6	1	1
03/15/06	12:16 p	-21.3	-21.3	-21.3	---	---	18.3	ENE	0.30	20.0	-34.9	---	---	729.3	0.028	0.000	18.6	1	1
03/15/06	12:17 p	-21.3	-21.3	-21.3	---	---	17.4	ENE	0.29	18.3	-34.6	---	---	729.4	0.028	0.000	18.6	1	1
03/15/06	12:18 p	-21.3	-21.3	-21.3	---	---	18.3	ENE	0.30	19.1	-34.9	---	---	729.4	0.028	0.000	18.6	1	1
03/15/06	12:19 p	-21.3	-21.3	-21.3	---	---	17.4	ENE	0.29	19.1	-34.6	---	---	729.3	0.028	0.000	18.6	1	1
03/15/06	12:20 p	-21.3	-21.3	-21.4	---	---	20.0	ENE	0.33	23.5	-35.4	---	---	729.4	0.028	0.000	18.6	1	1
03/15/06	12:21 p	-21.3	-21.3	-21.4	---	---	18.3	ENE	0.30	20.0	-34.9	---	---	729.3	0.028	0.000	18.6	1	1
03/15/06	12:22 p	-21.3	-21.3	-21.4	---	---	19.1	ENE	0.32	20.9	-35.1	---	---	729.4	0.028	0.000	18.6	1	1
03/15/06	12:23 p	-21.3	-21.3	-21.4	---	---	19.1	ENE	0.32	20.9	-35.1	---	---	729.4	0.028	0.000	18.6	1	1
03/15/06	12:24 p	-21.4	-21.3	-21.4	---	---	16.5	ENE	0.28	20.9	-34.4	---	---	729.3	0.028	0.000	18.6	1	1
03/15/06	12:25 p	-21.3	-21.3	-21.3	---	---	14.8	ENE	0.25	19.1	-33.7	---	---	729.4	0.028	0.000	18.6	1	1
03/15/06	12:26 p	-21.3	-21.3	-21.3	---	---	16.5	ENE	0.28	20.9	-34.3	---	---	729.3	0.028	0.000	18.6	1	1
03/15/06	12:27 p	-21.3	-21.3	-21.3	---	---	20.0	ENE	0.33	21.7	-35.4	---	---	729.3	0.028	0.000	18.6	1	1
03/15/06	12:28 p	-21.3	-21.3	-21.3	---	---	17.4	ENE	0.29	21.7	-34.6	---	---	729.3	0.028	0.000	18.6	1	1
03/15/06	12:29 p	-21.3	-21.3	-21.3	---	---	20.0	ENE	0.33	22.6	-35.4	---	---	729.2	0.028	0.000	18.6	1	1
03/15/06	12:30 p	-21.3	-21.3	-21.3	---	---	20.0	ENE	0.33	21.7	-35.4	---	---	729.3	0.028	0.000	18.6	1	1
03/15/06	12:31 p	-21.3	-21.3	-21.3	---	---	18.3	ENE	0.30	20.0	-34.9	---	---	729.3	0.028	0.000	18.6	1	1
03/15/06	12:32 p	-21.3	-21.3	-21.3	---	---	19.1	ENE	0.32	21.7	-35.1	---	---	729.2	0.028	0.000	18.6	1	1
03/15/06	12:33 p	-21.3	-21.3	-21.3	---	---	17.4	ENE	0.29	20.0	-34.6	---	---	729.3	0.028	0.000	18.6	1	1
03/15/06	12:34 p	-21.3	-21.3	-21.3	---	---	18.3	ENE	0.30	20.9	-34.9	---	---	729.2	0.028	0.000	18.6	1	1
03/15/06	12:35 p	-21.3	-21.3	-21.3	---	---	19.1	ENE	0.32	20.9	-35.1	---	---	729.2	0.028	0.000	18.6	1	1
03/15/06	12:36 p	-21.3	-21.3	-21.3	---	---	21.7	ENE	0.36	22.6	-35.8	---	---	729.2	0.028	0.000	18.6	1	1
03/15/06	12:37 p	-21.3	-21.3	-21.3	---	---	20.0	ENE	0.33	24.3	-35.4	---	---	729.3	0.028	0.000	18.6	1	1
03/15/06	12:38 p	-21.3	-21.3	-21.3	---	---	18.3	ENE	0.30	19.1	-34.8	---	---	729.3	0.028	0.000	18.6	1	1
03/15/06	12:39 p	-21.3	-21.3	-21.3	---	---	18.3	ENE	0.30	20.9	-34.8	---	---	729.3	0.028	0.000	18.6	1	1
03/15/06	12:40 p	-21.3	-21.3	-21.3	---	---	17.4	ENE	0.29	20.9	-34.6	---	---	729.3	0.028	0.000	18.6	1	1
03/15/06	12:41 p	-21.3	-21.3	-21.3	---	---	18.3	ENE	0.30	20.9	-34.8	---	---	729.3	0.028	0.000	18.6	1	1
03/15/06	12:42 p	-21.3	-21.3	-21.3	---	---	17.4	ENE	0.29	19.1	-34.6	---	---	729.3	0.028	0.000	18.6	1	1
03/15/06	12:43 p	-21.3	-21.3	-21.3	---	---	20.0	ENE	0.33	21.7	-35.3	---	---	729.3	0.028	0.000	18.6	1	1
03/15/06	12:44 p	-21.3	-21.3	-21.3	---	---	17.4	ENE	0.29	20.0	-34.6	---	---	729.4	0.028	0.000	18.6	1	1
03/15/06	12:45 p	-21.3	-21.3	-21.3	---	---	18.3	ENE	0.30	21.7	-34.8	---	---	729.4	0.028	0.000	18.6	1	1
03/15/06	12:46 p	-21.3	-21.3	-21.3	---	---	19.1	ENE	0.32	20.9	-35.1	---	---	729.3	0.028	0.000	18.6	1	1
03/15/06	12:47 p	-21.3	-21.3	-21.3	---	---	18.3	ENE	0.30	20.0	-34.8	---	---	729.3	0.028	0.000	18.6	1	1
03/15/06	12:48 p	-21.3	-21.2	-21.3	---	---	19.1	ENE	0.32	20.0	-35.1	---	---	729.3	0.028	0.000	18.6	1	1
03/15/06	12:49 p	-21.3	-21.2	-21.3	---	---	16.5	ENE	0.28	20.0	-34.3	---	---	729.3	0.028	0.000	18.6	1	1
03/15/06	12:50 p	-21.3	-21.3	-21.3	---	---	17.4	ENE	0.29	19.1	-34.6	---	---	729.3	0.028	0.000	18.6	1	1
03/15/06	12:51 p	-21.3	-21.3	-21.3	---	---	18.3	ENE	0.30	20.0	-34.8	---	---	729.2	0.028	0.000	18.6	1	1
03/15/06	12:52 p	-21.3	-21.3	-21.3	---	---	17.4	ENE	0.29	19.1	-34.6	---	---	729.3	0.028	0.000	18.6	1	1
03/15/06	12:53 p	-21.3	-21.2	-21.3	---	---	16.5	ENE	0.28	18.3	-34.3	---	---	729.4	0.028	0.000	18.6	1	1
03/15/06	12:54 p	-21.2	-21.2	-21.3	---	---	15.7	ENE	0.26	17.4	-33.9	---	---	729.3	0.027	0.000	18.6	1	1
03/15/06	12:55 p	-21.3	-21.3	-21.3	---	---	15.7	ENE	0.26	17.4	-33.9	---	---	729.3	0.028	0.000	18.6	1	1
03/15/06	12:56 p	-21.3	-21.3	-21.3	---	---	17.4	ENE	0.29	19.1	-34.6	---	---	729.3	0.028	0.000	18.6	1	1
03/15/06	12:57 p	-21.3	-21.3	-21.3	---	---	17.4	ENE	0.29	18.3	-34.6	---	---	729.2	0.028	0.000	18.6	1	1
03/15/06	12:58 p	-21.3	-21.2	-21.3	---	---	18.3	ENE	0.30	19.1	-34.8	---	---	729.3	0.028	0.000	18.6	1	1
03/15/06	12:59 p	-21.3	-21.3	-21.3	---	---	16.5	ENE	0.28	18.3	-34.3	---	---	729.3	0.028	0.000	18.6	1	1
03/15/06	1:00 p	-21.3	-21.3	-21.3	---	---	16.5	ENE	0.28	17.4	-34.3	---	---	729.3	0.028	0.000	18.6	1	1
03/15/06	1:01 p	-21.3	-21.2	-21.3	---	---	17.4	ENE	0.29	18.3	-34.6	---	---	729.2	0.028	0.000	18.6	1	1
03/15/06	1:02 p	-21.3	-21.2	-21.3	---	---	17.4	ENE	0.29	19.1	-34.6	---	---	729.4	0.028	0.000	18.6	1	1
03/15/06	1:03 p	-21.2	-21.2	-21.3	---	---	18.3	ENE	0.30	20.0	-34.7	---	---	729.3	0.027	0.000	18.7	1	1
03/15/06	1:04 p	-21.3	-21.2	-21.3	---	---	17.4	ENE	0.29	20.0	-34.6	---	---	729.3	0.028	0.000	18.6	1	1
03/15/06	1:05 p	-21.3	-21.3	-21.3	---	---	17.4	ENE	0.29	19.1	-34.6	---	---	729.3	0.028	0.000	18.6	1	1
03/15/06	1:06 p	-21.3	-21.2	-21.3	---	---	17.4	ENE	0.29	20.0	-34.6	---	---	729.3	0.028	0.000	18.6	1	1
03/15/06	1:07 p	-21.3	-21.3	-21.3	---	---	17.4	ENE	0.29	20.0	-34.6	---	---	729.3	0.028	0.000	18.6	1	1
03/15/06	1:08 p	-21.3	-21.3	-21.3	---	---	18.3	ENE	0.30	19.1	-34.8	---	---	729.3	0.028	0.000	18.6	1	1
03/15/06	1:09 p	-21.3	-21.2	-21.3	---	---	17.4	E	0.29	18.3	-34.6	---	---	729.3	0.028	0.000	18.6	1	1
03/15/06	1:10 p	-21.3	-21.3	-21.3	---	---	18.3	ENE	0.30	20.9	-34.8	---	---	729.2	0.028	0.000	18.6	1	1
03/15/06	1:11 p	-21.3	-21.3	-21.3	---	---	19.1	ENE	0.32	20.0	-35.1	---	---	729.3	0.028	0.000	18.6	1	1
03/15/06	1:12 p	-21.3	-21.3	-21.3	---	---	18.3	ENE	0.30	20.0	-34.8	---	---	729.3	0.028	0.000	18.6	1	1
03/15/06	1:13 p	-21.3	-21.3	-21.3	---	---	18.3	ENE	0.30	20.9	-34.9	---	---	729.3	0.028	0.000	18.7	1	1
03/15/06	1:14 p	-21.3	-21.3	-21.3	---	---	17.4	E	0.29	20.0	-34.6	---	---	729.2	0.028	0.000	18.7	1	1
03/15/06	1:15 p	-21.3	-21.3	-21.3	---	---	19.1	ENE	0.32	20.9	-35.1	---	---	729.2	0.028	0.000	18.7	1	1
03/15/06	1:16 p	-21.3	-21.3	-21.3	---	---	19.1	ENE	0.32	20.9	-35.1	---	---	729.2	0.028	0.000	18.7	1	1
03/15/06	1:17 p	-21.3	-21.3	-21.3	---	---	19.1	ENE	0.32	20.9	-35.1	---	---	729.3	0.028	0.000	18.7	1	1
03/15/06	1:18 p	-21.3	-21.3	-21.3	---	---	19.1	ENE	0.32	21.7	-35.1	---	---	729.3	0.028	0.000	18.7	1	1
03/15/06	1:19 p	-21.3	-21.3	-21.3	---	---	20.0	ENE	0.33	21.7	-35.4	---	---	729.3	0.028	0.000	18.7	1	1
03/15/06	1:20 p	-21.3	-21.3	-21.3	---	---	17.4	E	0.29	20.9	-34.6	---	---	729.2	0.028	0.000	18.7	1	1
03/15/06	1:21 p	-21.3	-21.3	-21.3	---	---	17.4	E	0.29	19.1	-34.6	---	---	729.2	0.028	0.000	18.7	1	1
03/15/06	1:22 p	-21.4	-21.3	-21.4	---	---	18.3	E	0.30	20.9	-34.9	---	---	729.2	0.028	0.000	18.7	1	1
03/15/06	1:23 p	-21.4	-21.4	-21.4	---	---	19.1	ENE	0.32	20.9	-35.2	---	---	729.2	0.028	0.000	18.7	1	1
03/15/06	1:24 p	-21.4	-21.4	-21.4	---	---	20.0	ENE	0.33	21.7	-35.4	---	---	729.2	0.028	0.000	18.7	1	1
03/15/06	1:25 p	-21.4	-21.4	-21.4	---	---	19.1	ENE	0.32	20.9	-35.2	---	---	729.3	0.028	0.000	18.7	1	1
03/15/06	1:26 p	-21.4	-21.4	-21.4	---	---	19.1	ENE	0.32	21.7	-35.2	---	---	729.2	0.028	0.000	18.7	1	1
03/15/06	1:27 p	-21.4	-21.4	-21.4	---	---	19.1	E	0.32	20.9	-35.2	---	---	729.2	0.028	0.000	18.7	1	1
03/15/06	1:28 p	-21.4	-21.4	-21.4	---	---	20.9	ENE	0.35	23.5	-35.8	---	---	729.1	0.028	0.000	18.7	1	1
03/15/06	1:29 p	-21.4	-21.4	-21.4	---	---	22.6	ENE	0.38	23.5	-36.2	---	---	729.1	0.028	0.000	18.7	1	1
03/15/06	1:30 p	-21.4	-21.4	-21.5	---	---	20.9	ENE	0.35	22.6	-35.8	---	---	729.1	0.028	0.000	18.7	1	1
03/15/06	1:31 p	-21.4	-21.4	-21.4	---	---	20.9	ENE	0.35	21.7	-35.8	---	---	729.1	0.028	0.000	18.7	1	1
03/15/06	1:32 p	-21.4	-21.4	-21.4	---	---	20.9	ENE	0.35	22.6	-35.8	---	---	729.1	0.028	0.000	18.7	1	1
03/15/06	1:33 p	-21.5	-21.4	-21.5	---	---	20.9	ENE	0.35	22.6	-35.8	---	---	729.1	0.028	0.000	18.7	1	1
03/15/06	1:34 p	-21.5	-21.4	-21.5	---	---	21.7	ENE	0.36	22.6	-36.1	---	---	729.1	0.028	0.000	18.7	1	1
03/15/06	1:35 p	-21.5	-21.5	-21.5	---	---	21.7	ENE	0.36	23.5	-36.1	---	---	729.1	0.028	0.000	18.7	1	1
03/15/06	1:36 p	-21.5	-21.5	-21.5	---	---	20.0	ENE	0.33	21.7	-35.6	---	---	729.1	0.028	0.000	18.7	1	1
03/15/06	1:37 p	-21.6	-21.5	-21.6	---	---	20.9	E	0.35	21.7	-35.9	---	---	729.1	0.028	0.000	18.7	1	1
03/15/06	1:38 p	-21.6	-21.5	-21.6	---	---	20.9	ENE	0.35	22.6	-35.9	---	---	729.2	0.028	0.000	18.7	1	1
03/15/06	1:39 p	-21.6	-21.6	-21.6	---	---	19.1	ENE	0.32	21.7	-35.4	---	---	729.1	0.028	0.000	18.7	1	1
03/15/06	1:40 p	-21.6	-21.6	-21.6	---	---	20.9	ENE	0.35	23.5	-36.0	---	---	729.1	0.028	0.000	18.7	1	1
03/15/06	1:41 p	-21.6	-21.6	-21.6	---	---	20.9	ENE	0.35	22.6	-36.0	---	---	729.2	0.028	0.000	18.7	1	1
03/15/06	1:42 p	-21.6	-21.6	-21.6	---	---	20.0	ENE	0.33	21.7	-35.8	---	---	729.1	0.028	0.000	18.7	1	1
03/15/06	1:43 p	-21.6	-21.6	-21.6	---	---	21.7	ENE	0.36	23.5	-36.2	---	---	729.2	0.028	0.000	18.7	1	1
03/15/06	1:44 p	-21.6	-21.6	-21.6	---	---	20.9	ENE	0.35	22.6	-36.0	---	---	729.1	0.028	0.000	18.7	1	1
03/15/06	1:45 p	-21.7	-21.7	-21.7	---	---	20.9	ENE	0.35	22.6	-36.1	---	---	729.1	0.028	0.000	18.7	1	1
03/15/06	1:46 p	-21.7	-21.6	-21.7	---	---	19.1	E	0.32	20.9	-35.6	---	---	729.1	0.028	0.000	18.7	1	1
03/15/06	1:47 p	-21.7	-21.7	-21.7	---	---	20.0	ENE	0.33	20.9	-35.8	---	---	729.2	0.028	0.000	18.7	1	1
03/15/06	1:48 p	-21.7	-21.7	-21.7	---	---	20.0	ENE	0.33	21.7	-35.8	---	---	729.2	0.028	0.000	18.7	1	1
03/15/06	1:49 p	-21.7	-21.7	-21.7	---	---	18.3	ENE	0.30	20.0	-35.3	---	---	729.2	0.028	0.000	18.7	1	1
03/15/06	1:50 p	-21.7	-21.7	-21.7	---	---	19.1	ENE	0.32	20.9	-35.6	---	---	729.2	0.028	0.000	18.7	1	1
03/15/06	1:51 p	-21.7	-21.7	-21.7	---	---	16.5	E	0.28	18.3	-34.8	---	---	729.2	0.028	0.000	18.7	1	1
03/15/06	1:52 p	-21.7	-21.7	-21.7	---	---	17.4	E	0.29	19.1	-35.1	---	---	729.3	0.028	0.000	18.7	1	1
03/15/06	1:53 p	-21.7	-21.7	-21.7	---	---	18.3	ENE	0.30	19.1	-35.4	---	---	729.2	0.028	0.000	18.7	1	1
03/15/06	1:54 p	-21.7	-21.7	-21.8	---	---	17.4	ENE	0.29	18.3	-35.1	---	---	729.2	0.028	0.000	18.7	1	1
03/15/06	1:55 p	-21.8	-21.7	-21.8	---	---	18.3	ENE	0.30	20.0	-35.4	---	---	729.1	0.028	0.000	18.7	1	1
03/15/06	1:56 p	-21.8	-21.8	-21.8	---	---	17.4	ENE	0.29	19.1	-35.2	---	---	729.2	0.028	0.000	18.7	1	1
03/15/06	1:57 p	-21.8	-21.8	-21.8	---	---	17.4	ENE	0.29	18.3	-35.2	---	---	729.3	0.028	0.000	18.7	1	1
03/15/06	1:58 p	-21.8	-21.8	-21.8	---	---	16.5	ENE	0.28	18.3	-34.9	---	---	729.2	0.028	0.000	18.7	1	1
03/15/06	1:59 p	-21.8	-21.8	-21.8	---	---	18.3	ENE	0.30	20.9	-35.6	---	---	729.3	0.028	0.000	18.8	1	1
03/15/06	2:00 p	-21.8	-21.8	-21.8	---	---	19.1	ENE	0.32	20.0	-35.8	---	---	729.2	0.028	0.000	18.8	1	1
03/15/06	2:01 p	-21.8	-21.8	-21.8	---	---	19.1	E	0.32	21.7	-35.8	---	---	729.3	0.028	0.000	18.8	1	1
03/15/06	2:02 p	-21.8	-21.8	-21.8	---	---	17.4	E	0.29	20.0	-35.3	---	---	729.2	0.028	0.000	18.7	1	1
03/15/06	2:03 p	-21.8	-21.8	-21.9	---	---	19.1	ENE	0.32	20.0	-35.8	---	---	729.2	0.028	0.000	18.7	1	1
03/15/06	2:04 p	-21.9	-21.8	-21.9	---	---	20.0	ENE	0.33	22.6	-36.1	---	---	729.3	0.028	0.000	18.7	1	1
03/15/06	2:05 p	-21.9	-21.9	-21.9	---	---	19.1	E	0.32	20.9	-35.9	---	---	729.2	0.028	0.000	18.7	1	1
03/15/06	2:06 p	-21.9	-21.9	-21.9	---	---	19.1	E	0.32	22.6	-35.9	---	---	729.3	0.028	0.000	18.7	1	1
03/15/06	2:07 p	-21.9	-21.9	-21.9	---	---	18.3	E	0.30	20.9	-35.6	---	---	729.2	0.028	0.000	18.8	1	1
03/15/06	2:08 p	-21.9	-21.9	-21.9	---	---	19.1	E	0.32	21.7	-35.9	---	---	729.2	0.028	0.000	18.8	1	1
03/15/06	2:09 p	-21.9	-21.9	-21.9	---	---	19.1	E	0.32	21.7	-35.9	---	---	729.3	0.028	0.000	18.7	1	1
03/15/06	2:10 p	-21.9	-21.9	-21.9	---	---	20.0	ENE	0.33	23.5	-36.2	---	---	729.2	0.028	0.000	18.7	1	1
03/15/06	2:11 p	-21.9	-21.9	-22.0	---	---	20.0	ENE	0.33	22.6	-36.2	---	---	729.3	0.028	0.000	18.7	1	1
03/15/06	2:12 p	-21.9	-21.9	-22.0	---	---	19.1	E	0.32	20.9	-35.9	---	---	729.2	0.028	0.000	18.7	1	1
03/15/06	2:13 p	-22.0	-21.9	-22.0	---	---	20.0	ENE	0.33	20.9	-36.3	---	---	729.2	0.028	0.000	18.7	1	1
03/15/06	2:14 p	-22.0	-21.9	-22.0	---	---	19.1	ENE	0.32	20.9	-36.0	---	---	729.2	0.028	0.000	18.7	1	1
03/15/06	2:15 p	-22.0	-21.9	-22.0	---	---	19.1	ENE	0.32	20.0	-36.0	---	---	729.3	0.028	0.000	18.7	1	1
03/15/06	2:16 p	-22.0	-21.9	-22.1	---	---	18.3	ENE	0.30	20.9	-35.8	---	---	729.2	0.028	0.000	18.7	1	1
03/15/06	2:17 p	-22.0	-22.0	-22.1	---	---	20.0	ENE	0.33	21.7	-36.3	---	---	729.2	0.028	0.000	18.7	1	1
03/15/06	2:18 p	-22.1	-22.0	-22.1	---	---	19.1	ENE	0.32	20.9	-36.1	---	---	729.3	0.028	0.000	18.7	1	1
03/15/06	2:19 p	-22.1	-22.0	-22.1	---	---	18.3	ENE	0.30	20.9	-35.8	---	---	729.2	0.028	0.000	18.7	1	1
03/15/06	2:20 p	-22.1	-22.1	-22.1	---	---	17.4	ENE	0.29	20.0	-35.6	---	---	729.2	0.028	0.000	18.7	1	1
03/15/06	2:21 p	-22.1	-22.1	-22.1	---	---	19.1	ENE	0.32	21.7	-36.1	---	---	729.3	0.028	0.000	18.7	1	1
03/15/06	2:22 p	-22.1	-22.1	-22.1	---	---	19.1	ENE	0.32	20.9	-36.1	---	---	729.2	0.028	0.000	18.7	1	1
03/15/06	2:23 p	-22.1	-22.1	-22.1	---	---	20.0	ENE	0.33	21.7	-36.4	---	---	729.2	0.028	0.000	18.7	1	1
03/15/06	2:24 p	-22.1	-22.1	-22.1	---	---	20.9	ENE	0.35	21.7	-36.7	---	---	729.2	0.028	0.000	18.7	1	1
03/15/06	2:25 p	-22.1	-22.1	-22.1	---	---	19.1	ENE	0.32	21.7	-36.2	---	---	729.3	0.028	0.000	18.7	1	1
03/15/06	2:26 p	-22.1	-22.1	-22.1	---	---	20.9	ENE	0.35	21.7	-36.7	---	---	729.3	0.028	0.000	18.7	1	1
03/15/06	2:27 p	-22.1	-22.1	-22.2	---	---	20.0	ENE	0.33	21.7	-36.4	---	---	729.2	0.028	0.000	18.7	1	1
03/15/06	2:28 p	-22.1	-22.1	-22.2	---	---	20.0	E	0.33	21.7	-36.4	---	---	729.2	0.028	0.000	18.7	1	1
03/15/06	2:29 p	-22.2	-22.2	-22.2	---	---	20.0	E	0.33	21.7	-36.5	---	---	729.2	0.028	0.000	18.7	1	1
03/15/06	2:30 p	-22.2	-22.1	-22.2	---	---	19.1	E	0.32	21.7	-36.2	---	---	729.2	0.028	0.000	18.7	1	1
03/15/06	2:31 p	-22.2	-22.1	-22.2	---	---	20.9	ENE	0.35	23.5	-36.7	---	---	729.2	0.028	0.000	18.7	1	1
03/15/06	2:32 p	-22.2	-22.2	-22.2	---	---	20.0	ENE	0.33	21.7	-36.5	---	---	729.2	0.028	0.000	18.6	1	1
03/15/06	2:33 p	-22.2	-22.2	-22.2	---	---	21.7	ENE	0.36	23.5	-37.0	---	---	729.1	0.028	0.000	18.6	1	1
03/15/06	2:34 p	-22.2	-22.2	-22.2	---	---	19.1	E	0.32	21.7	-36.2	---	---	729.2	0.028	0.000	18.6	1	1
03/15/06	2:35 p	-22.2	-22.2	-22.2	---	---	20.9	ENE	0.35	23.5	-36.8	---	---	729.2	0.028	0.000	18.7	1	1
03/15/06	2:36 p	-22.2	-22.2	-22.2	---	---	20.9	ENE	0.35	22.6	-36.8	---	---	729.2	0.028	0.000	18.7	1	1
03/15/06	2:37 p	-22.2	-22.2	-22.2	---	---	21.7	ENE	0.36	23.5	-37.1	---	---	729.1	0.028	0.000	18.7	1	1
03/15/06	2:38 p	-22.2	-22.2	-22.2	---	---	19.1	E	0.32	21.7	-36.3	---	---	729.2	0.028	0.000	18.7	1	1
03/15/06	2:39 p	-22.2	-22.2	-22.2	---	---	20.0	E	0.33	22.6	-36.6	---	---	729.2	0.028	0.000	18.7	1	1
03/15/06	2:40 p	-22.3	-22.2	-22.3	---	---	20.0	ENE	0.33	22.6	-36.7	---	---	729.1	0.028	0.000	18.7	1	1
03/15/06	2:41 p	-22.3	-22.3	-22.3	---	---	20.9	ENE	0.35	22.6	-36.9	---	---	729.2	0.028	0.000	18.7	1	1
03/15/06	2:42 p	-22.3	-22.3	-22.3	---	---	20.0	ENE	0.33	22.6	-36.7	---	---	729.2	0.028	0.000	18.7	1	1
03/15/06	2:43 p	-22.3	-22.3	-22.3	---	---	20.0	ENE	0.33	22.6	-36.7	---	---	729.2	0.028	0.000	18.7	1	1
03/15/06	2:44 p	-22.3	-22.3	-22.3	---	---	19.1	E	0.32	21.7	-36.4	---	---	729.1	0.028	0.000	18.7	1	1
03/15/06	2:45 p	-22.3	-22.3	-22.3	---	---	20.0	E	0.33	21.7	-36.7	---	---	729.2	0.028	0.000	18.7	1	1
03/15/06	2:46 p	-22.3	-22.3	-22.3	---	---	20.9	ENE	0.35	22.6	-36.9	---	---	729.1	0.028	0.000	18.7	1	1
03/15/06	2:47 p	-22.3	-22.3	-22.3	---	---	20.9	E	0.35	23.5	-36.9	---	---	729.1	0.028	0.000	18.7	1	1
03/15/06	2:48 p	-22.3	-22.3	-22.3	---	---	20.9	E	0.35	22.6	-36.9	---	---	729.1	0.028	0.000	18.7	1	1
03/15/06	2:49 p	-22.3	-22.3	-22.3	---	---	19.1	E	0.32	22.6	-36.4	---	---	729.1	0.028	0.000	18.7	1	1
03/15/06	2:50 p	-22.4	-22.3	-22.4	---	---	20.9	ENE	0.35	23.5	-37.1	---	---	729.2	0.028	0.000	18.7	1	1
03/15/06	2:51 p	-22.4	-22.3	-22.4	---	---	21.7	ENE	0.36	22.6	-37.3	---	---	729.1	0.028	0.000	18.7	1	1
03/15/06	2:52 p	-22.4	-22.3	-22.4	---	---	21.7	ENE	0.36	23.5	-37.3	---	---	729.1	0.028	0.000	18.7	1	1
03/15/06	2:53 p	-22.4	-22.4	-22.4	---	---	20.9	ENE	0.35	22.6	-37.1	---	---	729.2	0.028	0.000	18.7	1	1
03/15/06	2:54 p	-22.4	-22.4	-22.4	---	---	20.0	ENE	0.33	22.6	-36.8	---	---	729.1	0.028	0.000	18.7	1	1
03/15/06	2:55 p	-22.4	-22.4	-22.4	---	---	20.9	E	0.35	22.6	-37.1	---	---	729.2	0.028	0.000	18.7	1	1
03/15/06	2:56 p	-22.4	-22.4	-22.4	---	---	21.7	ENE	0.36	22.6	-37.3	---	---	729.2	0.028	0.000	18.7	1	1
03/15/06	2:57 p	-22.4	-22.4	-22.4	---	---	21.7	ENE	0.36	22.6	-37.3	---	---	729.2	0.028	0.000	18.7	1	1
03/15/06	2:58 p	-22.4	-22.4	-22.4	---	---	21.7	ENE	0.36	23.5	-37.3	---	---	729.1	0.028	0.000	18.7	1	1
03/15/06	2:59 p	-22.4	-22.4	-22.5	---	---	21.7	ENE	0.36	23.5	-37.3	---	---	729.1	0.028	0.000	18.7	1	1
03/15/06	3:00 p	-22.5	-22.4	-22.5	---	---	21.7	ENE	0.36	22.6	-37.4	---	---	729.2	0.028	0.000	18.7	1	1
03/15/06	3:01 p	-22.5	-22.4	-22.5	---	---	20.9	ENE	0.35	22.6	-37.2	---	---	729.2	0.028	0.000	18.7	1	1
03/15/06	3:02 p	-22.5	-22.5	-22.5	---	---	21.7	ENE	0.36	23.5	-37.4	---	---	729.1	0.028	0.000	18.7	1	1
03/15/06	3:03 p	-22.5	-22.5	-22.5	---	---	21.7	ENE	0.36	23.5	-37.4	---	---	729.2	0.028	0.000	18.7	1	1
03/15/06	3:04 p	-22.6	-22.5	-22.6	---	---	21.7	E	0.36	23.5	-37.5	---	---	729.2	0.028	0.000	18.7	1	1
03/15/06	3:05 p	-22.6	-22.5	-22.6	---	---	21.7	ENE	0.36	23.5	-37.5	---	---	729.1	0.028	0.000	18.7	1	1
03/15/06	3:06 p	-22.6	-22.6	-22.6	---	---	20.9	ENE	0.35	22.6	-37.3	---	---	729.2	0.028	0.000	18.7	1	1
03/15/06	3:07 p	-22.6	-22.6	-22.6	---	---	20.0	E	0.33	22.6	-37.0	---	---	729.2	0.028	0.000	18.7	1	1
03/15/06	3:08 p	-22.6	-22.6	-22.6	---	---	20.0	E	0.33	21.7	-37.0	---	---	729.2	0.028	0.000	18.7	1	1
03/15/06	3:09 p	-22.6	-22.6	-22.6	---	---	20.9	E	0.35	24.3	-37.3	---	---	729.2	0.028	0.000	18.7	1	1
03/15/06	3:10 p	-22.6	-22.6	-22.6	---	---	22.6	ENE	0.38	24.3	-37.7	---	---	729.1	0.028	0.000	18.7	1	1
03/15/06	3:11 p	-22.6	-22.6	-22.6	---	---	21.7	E	0.36	23.5	-37.6	---	---	729.1	0.028	0.000	18.7	1	1
03/15/06	3:12 p	-22.6	-22.6	-22.6	---	---	22.6	E	0.38	23.5	-37.8	---	---	729.1	0.028	0.000	18.7	1	1
03/15/06	3:13 p	-22.6	-22.6	-22.6	---	---	21.7	ENE	0.36	24.3	-37.6	---	---	729.2	0.028	0.000	18.7	1	1
03/15/06	3:14 p	-22.6	-22.6	-22.6	---	---	22.6	E	0.38	25.2	-37.8	---	---	729.2	0.028	0.000	18.7	1	1
03/15/06	3:15 p	-22.6	-22.6	-22.6	---	---	20.9	ENE	0.35	24.3	-37.3	---	---	729.2	0.028	0.000	18.7	1	1
03/15/06	3:16 p	-22.6	-22.6	-22.7	---	---	21.7	E	0.36	24.3	-37.6	---	---	729.2	0.028	0.000	18.7	1	1
03/15/06	3:17 p	-22.7	-22.6	-22.7	---	---	21.7	E	0.36	24.3	-37.7	---	---	729.1	0.028	0.000	18.7	1	1
03/15/06	3:18 p	-22.7	-22.7	-22.7	---	---	22.6	E	0.38	23.5	-37.9	---	---	729.1	0.028	0.000	18.7	1	1
03/15/06	3:19 p	-22.7	-22.7	-22.7	---	---	22.6	ENE	0.38	25.2	-37.9	---	---	729.1	0.028	0.000	18.7	1	1
03/15/06	3:20 p	-22.7	-22.7	-22.7	---	---	22.6	E	0.38	24.3	-37.9	---	---	729.1	0.028	0.000	18.7	1	1
03/15/06	3:21 p	-22.7	-22.7	-22.7	---	---	22.6	E	0.38	25.2	-37.9	---	---	729.2	0.029	0.000	18.7	1	1
03/15/06	3:22 p	-22.7	-22.7	-22.7	---	---	23.5	E	0.39	25.2	-38.2	---	---	729.1	0.029	0.000	18.7	1	1
03/15/06	3:23 p	-22.7	-22.7	-22.8	---	---	22.6	E	0.38	25.2	-37.9	---	---	729.1	0.029	0.000	18.7	1	1
03/15/06	3:24 p	-22.7	-22.7	-22.8	---	---	23.5	E	0.39	26.1	-38.2	---	---	729.0	0.029	0.000	18.7	1	1
03/15/06	3:25 p	-22.7	-22.7	-22.8	---	---	24.3	E	0.41	26.1	-38.4	---	---	729.1	0.029	0.000	18.7	1	1
03/15/06	3:26 p	-22.7	-22.7	-22.8	---	---	24.3	E	0.41	27.0	-38.4	---	---	729.1	0.029	0.000	18.7	1	1
03/15/06	3:27 p	-22.8	-22.7	-22.8	---	---	23.5	E	0.39	26.1	-38.2	---	---	729.1	0.029	0.000	18.7	1	1
03/15/06	3:28 p	-22.8	-22.8	-22.8	---	---	22.6	E	0.38	26.1	-38.0	---	---	729.1	0.029	0.000	18.7	1	1
03/15/06	3:29 p	-22.8	-22.8	-22.8	---	---	23.5	E	0.39	25.2	-38.2	---	---	729.1	0.029	0.000	18.7	1	1
03/15/06	3:30 p	-22.8	-22.8	-22.8	---	---	22.6	E	0.38	25.2	-38.1	---	---	729.2	0.029	0.000	18.7	1	1
03/15/06	3:31 p	-22.8	-22.8	-22.8	---	---	23.5	E	0.39	26.1	-38.3	---	---	729.1	0.029	0.000	18.7	1	1
03/15/06	3:32 p	-22.8	-22.8	-22.8	---	---	24.3	E	0.41	26.1	-38.6	---	---	729.1	0.029	0.000	18.6	1	1
03/15/06	3:33 p	-22.8	-22.8	-22.8	---	---	25.2	E	0.42	27.0	-38.8	---	---	729.2	0.029	0.000	18.6	1	1
03/15/06	3:34 p	-22.8	-22.8	-22.8	---	---	24.3	ENE	0.41	27.0	-38.6	---	---	729.2	0.029	0.000	18.6	1	1
03/15/06	3:35 p	-22.8	-22.8	-22.9	---	---	23.5	E	0.39	26.1	-38.3	---	---	729.1	0.029	0.000	18.6	1	1
03/15/06	3:36 p	-22.9	-22.9	-22.9	---	---	23.5	E	0.39	26.1	-38.4	---	---	729.1	0.029	0.000	18.6	1	1
03/15/06	3:37 p	-22.9	-22.9	-22.9	---	---	22.6	E	0.38	25.2	-38.2	---	---	729.2	0.029	0.000	18.6	1	1
03/15/06	3:38 p	-22.9	-22.9	-22.9	---	---	24.3	E	0.41	27.0	-38.6	---	---	729.1	0.029	0.000	18.6	1	1
03/15/06	3:39 p	-22.9	-22.9	-22.9	---	---	23.5	ENE	0.39	26.1	-38.5	---	---	729.1	0.029	0.000	18.6	1	1
03/15/06	3:40 p	-22.9	-22.9	-22.9	---	---	23.5	E	0.39	25.2	-38.5	---	---	729.2	0.029	0.000	18.6	1	1
03/15/06	3:41 p	-22.9	-22.9	-23.0	---	---	23.5	E	0.39	26.1	-38.5	---	---	729.2	0.029	0.000	18.6	1	1
03/15/06	3:42 p	-23.0	-22.9	-23.0	---	---	22.6	E	0.38	24.3	-38.3	---	---	729.1	0.029	0.000	18.6	1	1
03/15/06	3:43 p	-23.0	-22.9	-23.0	---	---	22.6	E	0.38	24.3	-38.3	---	---	729.2	0.029	0.000	18.6	1	1
03/15/06	3:44 p	-23.0	-22.9	-23.0	---	---	20.9	E	0.35	23.5	-37.8	---	---	729.2	0.029	0.000	18.6	1	1
03/15/06	3:45 p	-23.0	-22.9	-23.0	---	---	24.3	E	0.41	27.0	-38.8	---	---	729.2	0.029	0.000	18.6	1	1
03/15/06	3:46 p	-23.0	-23.0	-23.0	---	---	24.3	E	0.41	26.1	-38.8	---	---	729.3	0.029	0.000	18.6	1	1
03/15/06	3:47 p	-23.0	-23.0	-23.1	---	---	22.6	E	0.38	26.1	-38.3	---	---	729.1	0.029	0.000	18.6	1	1
03/15/06	3:48 p	-23.1	-23.0	-23.1	---	---	22.6	E	0.38	24.3	-38.4	---	---	729.2	0.029	0.000	18.6	1	1
03/15/06	3:49 p	-23.1	-23.1	-23.1	---	---	22.6	E	0.38	25.2	-38.4	---	---	729.2	0.029	0.000	18.6	1	1
03/15/06	3:50 p	-23.1	-23.1	-23.1	---	---	24.3	E	0.41	27.0	-38.8	---	---	729.2	0.029	0.000	18.6	1	1
03/15/06	3:51 p	-23.1	-23.1	-23.1	---	---	24.3	E	0.41	27.0	-38.8	---	---	729.1	0.029	0.000	18.6	1	1
03/15/06	3:52 p	-23.1	-23.1	-23.1	---	---	25.2	E	0.42	27.0	-39.1	---	---	729.2	0.029	0.000	18.6	1	1
03/15/06	3:53 p	-23.1	-23.1	-23.2	---	---	23.5	E	0.39	26.1	-38.7	---	---	729.1	0.029	0.000	18.6	1	1
03/15/06	3:54 p	-23.1	-23.1	-23.1	---	---	22.6	E	0.38	26.1	-38.4	---	---	729.2	0.029	0.000	18.6	1	1
03/15/06	3:55 p	-23.1	-23.1	-23.2	---	---	25.2	E	0.42	27.0	-39.1	---	---	729.2	0.029	0.000	18.6	1	1
03/15/06	3:56 p	-23.2	-23.1	-23.2	---	---	25.2	E	0.42	27.0	-39.2	---	---	729.1	0.029	0.000	18.6	1	1
03/15/06	3:57 p	-23.2	-23.2	-23.2	---	---	23.5	E	0.39	27.0	-38.8	---	---	729.2	0.029	0.000	18.6	1	1
03/15/06	3:58 p	-23.2	-23.2	-23.2	---	---	23.5	E	0.39	26.1	-38.8	---	---	729.2	0.029	0.000	18.6	1	1
03/15/06	3:59 p	-23.2	-23.2	-23.2	---	---	26.1	ENE	0.43	28.7	-39.4	---	---	729.1	0.029	0.000	18.6	1	1
03/15/06	4:00 p	-23.2	-23.2	-23.2	---	---	26.1	ENE	0.43	28.7	-39.5	---	---	729.1	0.029	0.000	18.6	1	1
03/15/06	4:01 p	-23.2	-23.2	-23.2	---	---	26.1	ENE	0.43	28.7	-39.5	---	---	729.1	0.029	0.000	18.6	1	1
03/15/06	4:02 p	-23.2	-23.2	-23.2	---	---	24.3	E	0.41	28.7	-39.1	---	---	729.2	0.029	0.000	18.6	1	1
03/15/06	4:03 p	-23.2	-23.2	-23.3	---	---	24.3	E	0.41	27.8	-39.1	---	---	729.1	0.029	0.000	18.6	1	1
03/15/06	4:04 p	-23.2	-23.2	-23.3	---	---	25.2	E	0.42	27.8	-39.3	---	---	729.1	0.029	0.000	18.6	1	1
03/15/06	4:05 p	-23.3	-23.3	-23.3	---	---	24.3	E	0.41	27.0	-39.2	---	---	729.2	0.029	0.000	18.6	1	1
03/15/06	4:06 p	-23.3	-23.3	-23.3	---	---	23.5	E	0.39	26.1	-38.9	---	---	729.2	0.029	0.000	18.6	1	1
03/15/06	4:07 p	-23.3	-23.3	-23.3	---	---	23.5	E	0.39	27.0	-38.9	---	---	729.1	0.029	0.000	18.6	1	1
03/15/06	4:08 p	-23.3	-23.3	-23.3	---	---	23.5	E	0.39	27.0	-38.9	---	---	729.2	0.029	0.000	18.6	1	1
03/15/06	4:09 p	-23.3	-23.3	-23.3	---	---	26.1	E	0.43	27.8	-39.6	---	---	729.2	0.029	0.000	18.6	1	1
03/15/06	4:10 p	-23.3	-23.3	-23.3	---	---	25.2	E	0.42	27.0	-39.4	---	---	729.2	0.029	0.000	18.6	1	1
03/15/06	4:11 p	-23.3	-23.3	-23.4	---	---	24.3	E	0.41	27.0	-39.2	---	---	729.2	0.029	0.000	18.6	1	1
03/15/06	4:12 p	-23.3	-23.3	-23.3	---	---	23.5	E	0.39	26.1	-39.0	---	---	729.2	0.029	0.000	18.6	1	1
03/15/06	4:13 p	-23.4	-23.3	-23.4	---	---	25.2	E	0.42	27.0	-39.5	---	---	729.2	0.029	0.000	18.6	1	1
03/15/06	4:14 p	-23.4	-23.4	-23.4	---	---	24.3	E	0.41	27.0	-39.3	---	---	729.1	0.029	0.000	18.6	1	1
03/15/06	4:15 p	-23.4	-23.4	-23.4	---	---	25.2	E	0.42	28.7	-39.5	---	---	729.2	0.029	0.000	18.6	1	1
03/15/06	4:16 p	-23.4	-23.4	-23.4	---	---	23.5	E	0.39	26.1	-39.1	---	---	729.1	0.029	0.000	18.6	1	1
03/15/06	4:17 p	-23.4	-23.4	-23.4	---	---	24.3	E	0.41	27.0	-39.4	---	---	729.2	0.029	0.000	18.6	1	1
03/15/06	4:18 p	-23.4	-23.4	-23.4	---	---	25.2	E	0.42	27.0	-39.6	---	---	729.1	0.029	0.000	18.6	1	1
03/15/06	4:19 p	-23.4	-23.4	-23.4	---	---	24.3	E	0.41	27.0	-39.4	---	---	729.1	0.029	0.000	18.6	1	1
03/15/06	4:20 p	-23.4	-23.4	-23.5	---	---	26.1	E	0.43	27.8	-39.8	---	---	729.1	0.029	0.000	18.6	1	1
03/15/06	4:21 p	-23.5	-23.5	-23.5	---	---	27.0	ENE	0.45	29.6	-40.1	---	---	729.1	0.029	0.000	18.6	1	1
03/15/06	4:22 p	-23.5	-23.5	-23.5	---	---	26.1	ENE	0.43	28.7	-39.9	---	---	729.1	0.029	0.000	18.6	1	1
03/15/06	4:23 p	-23.5	-23.5	-23.5	---	---	26.1	ENE	0.43	28.7	-39.9	---	---	729.0	0.029	0.000	18.6	1	1
03/15/06	4:24 p	-23.5	-23.5	-23.5	---	---	25.2	ENE	0.42	28.7	-39.7	---	---	729.2	0.029	0.000	18.6	1	1
03/15/06	4:25 p	-23.6	-23.5	-23.6	---	---	23.5	E	0.39	26.1	-39.3	---	---	729.1	0.029	0.000	18.6	1	1
03/15/06	4:26 p	-23.6	-23.6	-23.6	---	---	24.3	E	0.41	27.0	-39.5	---	---	729.1	0.029	0.000	18.6	1	1
03/15/06	4:27 p	-23.6	-23.6	-23.6	---	---	24.3	E	0.41	27.0	-39.5	---	---	729.2	0.029	0.000	18.6	1	1
03/15/06	4:28 p	-23.6	-23.6	-23.6	---	---	25.2	E	0.42	27.0	-39.7	---	---	729.1	0.029	0.000	18.6	1	1
03/15/06	4:29 p	-23.6	-23.6	-23.6	---	---	25.2	E	0.42	27.0	-39.8	---	---	729.1	0.029	0.000	18.6	1	1
03/15/06	4:30 p	-23.6	-23.6	-23.6	---	---	24.3	E	0.41	27.0	-39.6	---	---	729.1	0.029	0.000	18.6	1	1
03/15/06	4:31 p	-23.6	-23.6	-23.6	---	---	24.3	E	0.41	27.0	-39.6	---	---	729.1	0.029	0.000	18.6	1	1
03/15/06	4:32 p	-23.6	-23.6	-23.7	---	---	24.3	E	0.41	26.1	-39.6	---	---	729.1	0.029	0.000	18.6	1	1
03/15/06	4:33 p	-23.7	-23.7	-23.7	---	---	24.3	E	0.41	27.0	-39.7	---	---	729.1	0.029	0.000	18.6	1	1
03/15/06	4:34 p	-23.7	-23.6	-23.7	---	---	24.3	E	0.41	26.1	-39.7	---	---	729.1	0.029	0.000	18.6	1	1
03/15/06	4:35 p	-23.7	-23.7	-23.7	---	---	23.5	E	0.39	27.0	-39.4	---	---	729.2	0.029	0.000	18.6	1	1
03/15/06	4:36 p	-23.7	-23.7	-23.7	---	---	23.5	E	0.39	26.1	-39.4	---	---	729.1	0.029	0.000	18.6	1	1
03/15/06	4:37 p	-23.7	-23.7	-23.7	---	---	24.3	E	0.41	27.0	-39.7	---	---	729.1	0.029	0.000	18.6	1	1
03/15/06	4:38 p	-23.7	-23.7	-23.7	---	---	24.3	E	0.41	27.0	-39.7	---	---	729.1	0.029	0.000	18.6	1	1
03/15/06	4:39 p	-23.7	-23.7	-23.7	---	---	24.3	E	0.41	27.0	-39.7	---	---	729.0	0.029	0.000	18.6	1	1
03/15/06	4:40 p	-23.7	-23.7	-23.7	---	---	25.2	E	0.42	27.8	-39.9	---	---	729.1	0.029	0.000	18.6	1	1
03/15/06	4:41 p	-23.7	-23.7	-23.7	---	---	24.3	E	0.41	27.0	-39.7	---	---	729.0	0.029	0.000	18.6	1	1
03/15/06	4:42 p	-23.7	-23.7	-23.8	---	---	25.2	E	0.42	27.0	-39.9	---	---	729.0	0.029	0.000	18.5	1	1
03/15/06	4:43 p	-23.7	-23.7	-23.8	---	---	24.3	E	0.41	27.0	-39.7	---	---	729.0	0.029	0.000	18.5	1	1
03/15/06	4:44 p	-23.7	-23.7	-23.8	---	---	24.3	E	0.41	27.0	-39.7	---	---	729.0	0.029	0.000	18.5	1	1
03/15/06	4:45 p	-23.8	-23.8	-23.8	---	---	25.2	E	0.42	27.0	-40.1	---	---	729.1	0.029	0.000	18.5	1	1
03/15/06	4:46 p	-23.8	-23.8	-23.8	---	---	24.3	E	0.41	27.8	-39.8	---	---	729.0	0.029	0.000	18.5	1	1
03/15/06	4:47 p	-23.8	-23.8	-23.8	---	---	24.3	E	0.41	27.8	-39.8	---	---	729.1	0.029	0.000	18.5	1	1
03/15/06	4:48 p	-23.8	-23.8	-23.8	---	---	25.2	E	0.42	28.7	-40.1	---	---	729.0	0.029	0.000	18.5	1	1
03/15/06	4:49 p	-23.8	-23.8	-23.8	---	---	24.3	E	0.41	26.1	-39.8	---	---	729.1	0.029	0.000	18.5	1	1
03/15/06	4:50 p	-23.8	-23.8	-23.8	---	---	23.5	E	0.39	26.1	-39.7	---	---	729.0	0.029	0.000	18.4	1	1
03/15/06	4:51 p	-23.8	-23.8	-23.8	---	---	24.3	E	0.41	26.1	-39.9	---	---	729.0	0.029	0.000	18.4	1	1
03/15/06	4:52 p	-23.8	-23.8	-23.8	---	---	24.3	E	0.41	27.0	-39.9	---	---	729.1	0.029	0.000	18.4	1	1
03/15/06	4:53 p	-23.8	-23.8	-23.8	---	---	24.3	E	0.41	27.0	-39.9	---	---	729.0	0.029	0.000	18.4	1	1
03/15/06	4:54 p	-23.8	-23.8	-23.8	---	---	25.2	E	0.42	27.0	-40.1	---	---	729.0	0.029	0.000	18.4	1	1
03/15/06	4:55 p	-23.8	-23.8	-23.8	---	---	23.5	E	0.39	27.0	-39.6	---	---	729.0	0.029	0.000	18.4	1	1
03/15/06	4:56 p	-23.8	-23.8	-23.8	---	---	24.3	E	0.41	27.0	-39.9	---	---	729.0	0.029	0.000	18.4	1	1
03/15/06	4:57 p	-23.8	-23.8	-23.8	---	---	23.5	E	0.39	26.1	-39.7	---	---	729.0	0.029	0.000	18.4	1	1
03/15/06	4:58 p	-23.8	-23.8	-23.8	---	---	23.5	E	0.39	26.1	-39.7	---	---	729.0	0.029	0.000	18.4	1	1
03/15/06	4:59 p	-23.8	-23.8	-23.8	---	---	24.3	E	0.41	27.0	-39.9	---	---	729.0	0.029	0.000	18.4	1	1
03/15/06	5:00 p	-23.8	-23.8	-23.8	---	---	25.2	E	0.42	27.0	-40.1	---	---	729.0	0.029	0.000	18.4	1	1
03/15/06	5:01 p	-23.8	-23.8	-23.8	---	---	25.2	E	0.42	27.8	-40.1	---	---	729.0	0.029	0.000	18.4	1	1
03/15/06	5:02 p	-23.8	-23.8	-23.8	---	---	25.2	E	0.42	29.6	-40.1	---	---	729.0	0.029	0.000	18.4	1	1
03/15/06	5:03 p	-23.8	-23.8	-23.8	---	---	24.3	E	0.41	28.7	-39.9	---	---	729.0	0.029	0.000	18.4	1	1
03/15/06	5:04 p	-23.8	-23.8	-23.8	---	---	24.3	E	0.41	26.1	-39.9	---	---	729.0	0.029	0.000	18.4	1	1
03/15/06	5:05 p	-23.8	-23.8	-23.8	---	---	26.1	E	0.43	28.7	-40.3	---	---	729.0	0.029	0.000	18.4	1	1
03/15/06	5:06 p	-23.8	-23.8	-23.8	---	---	24.3	E	0.41	27.8	-39.8	---	---	729.0	0.029	0.000	18.4	1	1
03/15/06	5:07 p	-23.8	-23.8	-23.8	---	---	25.2	E	0.42	27.0	-40.1	---	---	729.0	0.029	0.000	18.4	1	1
03/15/06	5:08 p	-23.8	-23.8	-23.8	---	---	24.3	E	0.41	27.0	-39.8	---	---	729.0	0.029	0.000	18.4	1	1
03/15/06	5:09 p	-23.8	-23.8	-23.8	---	---	25.2	E	0.42	28.7	-40.1	---	---	728.9	0.029	0.000	18.4	1	1
03/15/06	5:10 p	-23.8	-23.8	-23.8	---	---	25.2	E	0.42	27.8	-40.1	---	---	729.0	0.029	0.000	18.4	1	1
03/15/06	5:11 p	-23.8	-23.8	-23.8	---	---	24.3	E	0.41	27.0	-39.8	---	---	728.9	0.029	0.000	18.4	1	1
03/15/06	5:12 p	-23.8	-23.7	-23.8	---	---	25.2	E	0.42	27.8	-40.1	---	---	729.0	0.029	0.000	18.4	1	1
03/15/06	5:13 p	-23.7	-23.7	-23.8	---	---	25.2	E	0.42	28.7	-39.9	---	---	729.0	0.029	0.000	18.4	1	1
03/15/06	5:14 p	-23.8	-23.7	-23.8	---	---	25.2	E	0.42	27.0	-40.1	---	---	728.9	0.029	0.000	18.4	1	1
03/15/06	5:15 p	-23.7	-23.7	-23.8	---	---	25.2	E	0.42	27.0	-39.9	---	---	728.9	0.029	0.000	18.4	1	1
03/15/06	5:16 p	-23.7	-23.7	-23.7	---	---	25.2	E	0.42	29.6	-39.9	---	---	728.9	0.029	0.000	18.4	1	1
03/15/06	5:17 p	-23.7	-23.7	-23.7	---	---	26.1	E	0.43	28.7	-40.2	---	---	729.0	0.029	0.000	18.4	1	1
03/15/06	5:18 p	-23.7	-23.7	-23.7	---	---	26.1	E	0.43	27.8	-40.2	---	---	728.9	0.029	0.000	18.4	1	1
03/15/06	5:19 p	-23.7	-23.7	-23.7	---	---	26.1	E	0.43	29.6	-40.2	---	---	729.0	0.029	0.000	18.4	1	1
03/15/06	5:20 p	-23.7	-23.7	-23.7	---	---	25.2	E	0.42	28.7	-39.9	---	---	729.0	0.029	0.000	18.4	1	1
03/15/06	5:21 p	-23.7	-23.7	-23.7	---	---	25.2	E	0.42	27.0	-39.9	---	---	729.1	0.029	0.000	18.4	1	1
03/15/06	5:22 p	-23.7	-23.7	-23.7	---	---	25.2	E	0.42	27.0	-39.9	---	---	729.0	0.029	0.000	18.4	1	1
03/15/06	5:23 p	-23.7	-23.6	-23.7	---	---	25.2	E	0.42	27.8	-39.9	---	---	729.0	0.029	0.000	18.4	1	1
03/15/06	5:24 p	-23.6	-23.6	-23.6	---	---	25.2	E	0.42	28.7	-39.8	---	---	729.0	0.029	0.000	18.4	1	1
03/15/06	5:25 p	-23.6	-23.6	-23.6	---	---	26.1	E	0.43	28.7	-40.0	---	---	729.0	0.029	0.000	18.4	1	1
03/15/06	5:26 p	-23.6	-23.6	-23.6	---	---	25.2	E	0.42	27.8	-39.8	---	---	729.0	0.029	0.000	18.4	1	1
03/15/06	5:27 p	-23.6	-23.6	-23.6	---	---	25.2	E	0.42	27.8	-39.8	---	---	729.0	0.029	0.000	18.4	1	1
03/15/06	5:28 p	-23.6	-23.6	-23.6	---	---	25.2	E	0.42	27.0	-39.8	---	---	729.0	0.029	0.000	18.4	1	1
03/15/06	5:29 p	-23.6	-23.6	-23.6	---	---	25.2	E	0.42	27.8	-39.7	---	---	729.1	0.029	0.000	18.4	1	1
03/15/06	5:30 p	-23.6	-23.6	-23.6	---	---	25.2	E	0.42	28.7	-39.7	---	---	729.1	0.029	0.000	18.4	1	1
03/15/06	5:31 p	-23.6	-23.6	-23.6	---	---	24.3	E	0.41	27.0	-39.5	---	---	729.0	0.029	0.000	18.4	1	1
03/15/06	5:32 p	-23.6	-23.6	-23.6	---	---	26.1	E	0.43	28.7	-39.9	---	---	729.0	0.029	0.000	18.4	1	1
03/15/06	5:33 p	-23.6	-23.5	-23.6	---	---	26.1	E	0.43	28.7	-39.9	---	---	729.0	0.029	0.000	18.4	1	1
03/15/06	5:34 p	-23.5	-23.5	-23.6	---	---	25.2	E	0.42	28.7	-39.7	---	---	729.0	0.029	0.000	18.4	1	1
03/15/06	5:35 p	-23.5	-23.5	-23.5	---	---	25.2	E	0.42	27.8	-39.7	---	---	729.1	0.029	0.000	18.4	1	1
03/15/06	5:36 p	-23.5	-23.5	-23.5	---	---	25.2	E	0.42	28.7	-39.7	---	---	729.0	0.029	0.000	18.4	1	1
03/15/06	5:37 p	-23.6	-23.5	-23.6	---	---	25.2	E	0.42	27.0	-39.7	---	---	728.9	0.029	0.000	18.4	1	1
03/15/06	5:38 p	-23.5	-23.5	-23.5	---	---	26.1	E	0.43	28.7	-39.9	---	---	729.0	0.029	0.000	18.4	1	1
03/15/06	5:39 p	-23.5	-23.5	-23.5	---	---	27.0	E	0.45	28.7	-40.1	---	---	729.0	0.029	0.000	18.4	1	1
03/15/06	5:40 p	-23.5	-23.5	-23.5	---	---	26.1	E	0.43	28.7	-39.9	---	---	729.0	0.029	0.000	18.4	1	1
03/15/06	5:41 p	-23.5	-23.4	-23.5	---	---	26.1	E	0.43	28.7	-39.9	---	---	729.0	0.029	0.000	18.4	1	1
03/15/06	5:42 p	-23.5	-23.5	-23.5	---	---	26.1	E	0.43	28.7	-39.9	---	---	729.0	0.029	0.000	18.4	1	1
03/15/06	5:43 p	-23.5	-23.4	-23.5	---	---	26.1	E	0.43	29.6	-39.9	---	---	729.0	0.029	0.000	18.4	1	1
03/15/06	5:44 p	-23.4	-23.4	-23.5	---	---	26.1	E	0.43	28.7	-39.8	---	---	728.9	0.029	0.000	18.4	1	1
03/15/06	5:45 p	-23.5	-23.4	-23.5	---	---	26.1	E	0.43	27.8	-39.9	---	---	729.0	0.029	0.000	18.4	1	1
03/15/06	5:46 p	-23.5	-23.4	-23.5	---	---	25.2	E	0.42	28.7	-39.7	---	---	729.0	0.029	0.000	18.4	1	1
03/15/06	5:47 p	-23.5	-23.5	-23.5	---	---	24.3	E	0.41	27.0	-39.4	---	---	728.9	0.029	0.000	18.4	1	1
03/15/06	5:48 p	-23.5	-23.5	-23.5	---	---	25.2	E	0.42	27.8	-39.7	---	---	728.9	0.029	0.000	18.4	1	1
03/15/06	5:49 p	-23.5	-23.5	-23.5	---	---	25.2	E	0.42	28.7	-39.7	---	---	728.9	0.029	0.000	18.4	1	1
03/15/06	5:50 p	-23.5	-23.4	-23.5	---	---	26.1	E	0.43	28.7	-39.9	---	---	729.0	0.029	0.000	18.4	1	1
03/15/06	5:51 p	-23.5	-23.5	-23.5	---	---	24.3	E	0.41	27.8	-39.4	---	---	728.9	0.029	0.000	18.4	1	1
03/15/06	5:52 p	-23.5	-23.5	-23.5	---	---	23.5	E	0.39	27.0	-39.2	---	---	728.8	0.029	0.000	18.4	1	1
03/15/06	5:53 p	-23.5	-23.5	-23.5	---	---	24.3	E	0.41	27.0	-39.4	---	---	728.9	0.029	0.000	18.4	1	1
03/15/06	5:54 p	-23.5	-23.5	-23.6	---	---	24.3	E	0.41	27.8	-39.4	---	---	728.8	0.029	0.000	18.4	1	1
03/15/06	5:55 p	-23.5	-23.5	-23.6	---	---	24.3	E	0.41	27.0	-39.4	---	---	728.9	0.029	0.000	18.4	1	1
03/15/06	5:56 p	-23.6	-23.5	-23.6	---	---	25.2	E	0.42	27.0	-39.7	---	---	728.8	0.029	0.000	18.4	1	1
03/15/06	5:57 p	-23.6	-23.6	-23.6	---	---	25.2	E	0.42	27.0	-39.7	---	---	728.9	0.029	0.000	18.4	1	1
03/15/06	5:58 p	-23.6	-23.5	-23.6	---	---	25.2	E	0.42	27.8	-39.7	---	---	728.8	0.029	0.000	18.4	1	1
03/15/06	5:59 p	-23.6	-23.6	-23.6	---	---	24.3	E	0.41	27.8	-39.5	---	---	728.9	0.029	0.000	18.4	1	1
03/15/06	6:00 p	-23.6	-23.5	-23.6	---	---	26.1	E	0.43	28.7	-39.9	---	---	728.9	0.029	0.000	18.3	1	1
03/15/06	6:01 p	-23.6	-23.6	-23.6	---	---	26.1	E	0.43	27.8	-39.9	---	---	728.9	0.029	0.000	18.3	1	1
03/15/06	6:02 p	-23.6	-23.6	-23.6	---	---	25.2	E	0.42	27.8	-39.7	---	---	728.9	0.029	0.000	18.3	1	1
03/15/06	6:03 p	-23.6	-23.6	-23.6	---	---	25.2	E	0.42	28.7	-39.8	---	---	728.9	0.029	0.000	18.3	1	1
03/15/06	6:04 p	-23.6	-23.6	-23.6	---	---	25.2	E	0.42	28.7	-39.8	---	---	728.9	0.029	0.000	18.3	1	1
03/15/06	6:05 p	-23.6	-23.6	-23.6	---	---	25.2	E	0.42	27.8	-39.8	---	---	728.9	0.029	0.000	18.3	1	1
03/15/06	6:06 p	-23.6	-23.6	-23.6	---	---	26.1	E	0.43	28.7	-40.0	---	---	728.9	0.029	0.000	18.3	1	1
03/15/06	6:07 p	-23.6	-23.6	-23.6	---	---	25.2	E	0.42	28.7	-39.8	---	---	728.9	0.029	0.000	18.3	1	1
03/15/06	6:08 p	-23.6	-23.6	-23.6	---	---	25.2	E	0.42	27.8	-39.8	---	---	728.9	0.029	0.000	18.3	1	1
03/15/06	6:09 p	-23.6	-23.6	-23.6	---	---	26.1	E	0.43	27.8	-40.0	---	---	729.0	0.029	0.000	18.3	1	1
03/15/06	6:10 p	-23.6	-23.6	-23.7	---	---	24.3	E	0.41	27.0	-39.6	---	---	729.0	0.029	0.000	18.3	1	1
03/15/06	6:11 p	-23.6	-23.6	-23.7	---	---	25.2	E	0.42	27.8	-39.8	---	---	729.0	0.029	0.000	18.3	1	1
03/15/06	6:12 p	-23.6	-23.6	-23.6	---	---	25.2	E	0.42	28.7	-39.8	---	---	728.9	0.029	0.000	18.3	1	1
03/15/06	6:13 p	-23.7	-23.6	-23.7	---	---	27.0	E	0.45	29.6	-40.3	---	---	729.0	0.029	0.000	18.3	1	1
03/15/06	6:14 p	-23.7	-23.7	-23.7	---	---	25.2	E	0.42	27.8	-39.9	---	---	728.9	0.029	0.000	18.3	1	1
03/15/06	6:15 p	-23.7	-23.6	-23.7	---	---	25.2	E	0.42	27.8	-39.9	---	---	728.9	0.029	0.000	18.3	1	1
03/15/06	6:16 p	-23.7	-23.7	-23.7	---	---	26.1	E	0.43	28.7	-40.1	---	---	728.9	0.029	0.000	18.3	1	1
03/15/06	6:17 p	-23.7	-23.7	-23.7	---	---	25.2	E	0.42	27.0	-39.9	---	---	728.9	0.029	0.000	18.3	1	1
03/15/06	6:18 p	-23.7	-23.6	-23.7	---	---	25.2	E	0.42	27.0	-39.9	---	---	729.0	0.029	0.000	18.3	1	1
03/15/06	6:19 p	-23.7	-23.7	-23.7	---	---	25.2	E	0.42	27.8	-39.9	---	---	729.0	0.029	0.000	18.3	1	1
03/15/06	6:20 p	-23.7	-23.7	-23.7	---	---	25.2	E	0.42	27.8	-39.9	---	---	729.0	0.029	0.000	18.3	1	1
03/15/06	6:21 p	-23.7	-23.7	-23.7	---	---	25.2	E	0.42	28.7	-39.9	---	---	729.0	0.029	0.000	18.3	1	1
03/15/06	6:22 p	-23.7	-23.7	-23.7	---	---	26.1	E	0.43	27.8	-40.1	---	---	729.0	0.029	0.000	18.3	1	1
03/15/06	6:23 p	-23.7	-23.7	-23.7	---	---	24.3	E	0.41	27.0	-39.7	---	---	729.1	0.029	0.000	18.3	1	1
03/15/06	6:24 p	-23.7	-23.7	-23.7	---	---	22.6	E	0.38	26.1	-39.2	---	---	729.1	0.029	0.000	18.3	1	1
03/15/06	6:25 p	-23.7	-23.7	-23.7	---	---	24.3	E	0.41	27.0	-39.7	---	---	729.1	0.029	0.000	18.3	1	1
03/15/06	6:26 p	-23.7	-23.7	-23.7	---	---	23.5	E	0.39	25.2	-39.5	---	---	729.1	0.029	0.000	18.3	1	1
03/15/06	6:27 p	-23.7	-23.7	-23.7	---	---	22.6	E	0.38	24.3	-39.2	---	---	729.1	0.029	0.000	18.3	1	1
03/15/06	6:28 p	-23.7	-23.7	-23.7	---	---	23.5	E	0.39	27.0	-39.4	---	---	729.1	0.029	0.000	18.3	1	1
03/15/06	6:29 p	-23.7	-23.7	-23.7	---	---	25.2	E	0.42	27.0	-39.9	---	---	729.1	0.029	0.000	18.3	1	1
03/15/06	6:30 p	-23.7	-23.7	-23.7	---	---	25.2	E	0.42	27.0	-39.9	---	---	729.2	0.029	0.000	18.3	1	1
03/15/06	6:31 p	-23.7	-23.7	-23.7	---	---	23.5	E	0.39	25.2	-39.4	---	---	729.1	0.029	0.000	18.3	1	1
03/15/06	6:32 p	-23.7	-23.7	-23.7	---	---	24.3	E	0.41	26.1	-39.7	---	---	729.1	0.029	0.000	18.3	1	1
03/15/06	6:33 p	-23.7	-23.7	-23.7	---	---	24.3	E	0.41	27.0	-39.7	---	---	729.1	0.029	0.000	18.3	1	1
03/15/06	6:34 p	-23.7	-23.7	-23.7	---	---	23.5	E	0.39	26.1	-39.5	---	---	729.2	0.029	0.000	18.3	1	1
03/15/06	6:35 p	-23.7	-23.7	-23.7	---	---	21.7	E	0.36	24.3	-39.0	---	---	729.2	0.029	0.000	18.3	1	1
03/15/06	6:36 p	-23.7	-23.7	-23.7	---	---	22.6	E	0.38	25.2	-39.3	---	---	729.2	0.029	0.000	18.2	1	1
03/15/06	6:37 p	-23.7	-23.7	-23.7	---	---	20.0	E	0.33	23.5	-38.6	---	---	729.2	0.029	0.000	18.3	1	1
03/15/06	6:38 p	-23.7	-23.7	-23.7	---	---	21.7	E	0.36	24.3	-39.1	---	---	729.1	0.029	0.000	18.2	1	1
03/15/06	6:39 p	-23.7	-23.7	-23.7	---	---	23.5	E	0.39	26.1	-39.5	---	---	729.0	0.029	0.000	18.2	1	1
03/15/06	6:40 p	-23.7	-23.7	-23.7	---	---	23.5	E	0.39	25.2	-39.5	---	---	729.2	0.029	0.000	18.2	1	1
03/15/06	6:41 p	-23.7	-23.7	-23.7	---	---	24.3	ENE	0.41	26.1	-39.7	---	---	729.2	0.029	0.000	18.2	1	1
03/15/06	6:42 p	-23.7	-23.7	-23.7	---	---	25.2	ENE	0.42	27.8	-39.9	---	---	729.2	0.029	0.000	18.2	1	1
03/15/06	6:43 p	-23.7	-23.7	-23.7	---	---	24.3	ENE	0.41	25.2	-39.7	---	---	729.2	0.029	0.000	18.2	1	1
03/15/06	6:44 p	-23.7	-23.7	-23.8	---	---	23.5	ENE	0.39	26.1	-39.5	---	---	729.1	0.029	0.000	18.2	1	1
03/15/06	6:45 p	-23.7	-23.7	-23.7	---	---	24.3	ENE	0.41	26.1	-39.7	---	---	729.2	0.029	0.000	18.2	1	1
03/15/06	6:46 p	-23.7	-23.7	-23.7	---	---	24.3	ENE	0.41	27.0	-39.7	---	---	729.2	0.029	0.000	18.3	1	1
03/15/06	6:47 p	-23.7	-23.7	-23.8	---	---	20.0	ENE	0.33	23.5	-38.6	---	---	729.3	0.029	0.000	18.3	1	1
03/15/06	6:48 p	-23.7	-23.7	-23.8	---	---	20.0	E	0.33	21.7	-38.6	---	---	729.4	0.029	0.000	18.3	1	1
03/15/06	6:49 p	-23.8	-23.7	-23.8	---	---	21.7	E	0.36	23.5	-39.1	---	---	729.3	0.029	0.000	18.3	1	1
03/15/06	6:50 p	-23.8	-23.7	-23.8	---	---	20.9	E	0.35	24.3	-38.9	---	---	729.3	0.029	0.000	18.3	1	1
03/15/06	6:51 p	-23.8	-23.8	-23.8	---	---	23.5	ENE	0.39	24.3	-39.6	---	---	729.3	0.029	0.000	18.3	1	1
03/15/06	6:52 p	-23.8	-23.7	-23.8	---	---	21.7	ENE	0.36	24.3	-39.1	---	---	729.3	0.029	0.000	18.3	1	1
03/15/06	6:53 p	-23.8	-23.7	-23.8	---	---	22.6	E	0.38	24.3	-39.4	---	---	729.3	0.029	0.000	18.3	1	1
03/15/06	6:54 p	-23.8	-23.7	-23.8	---	---	22.6	ENE	0.38	24.3	-39.4	---	---	729.4	0.029	0.000	18.3	1	1
03/15/06	6:55 p	-23.8	-23.7	-23.8	---	---	21.7	ENE	0.36	24.3	-39.1	---	---	729.3	0.029	0.000	18.3	1	1
03/15/06	6:56 p	-23.8	-23.8	-23.8	---	---	22.6	ENE	0.38	26.1	-39.4	---	---	729.4	0.029	0.000	18.3	1	1
03/15/06	6:57 p	-23.8	-23.8	-23.8	---	---	22.6	E	0.38	24.3	-39.4	---	---	729.3	0.029	0.000	18.3	1	1
03/15/06	6:58 p	-23.8	-23.8	-23.8	---	---	22.6	ENE	0.38	25.2	-39.4	---	---	729.3	0.029	0.000	18.2	1	1
03/15/06	6:59 p	-23.8	-23.8	-23.8	---	---	22.6	ENE	0.38	24.3	-39.4	---	---	729.3	0.029	0.000	18.2	1	1
03/15/06	7:00 p	-23.8	-23.8	-23.8	---	---	21.7	ENE	0.36	24.3	-39.2	---	---	729.4	0.029	0.000	18.2	1	1
03/15/06	7:01 p	-23.8	-23.8	-23.8	---	---	20.9	E	0.35	22.6	-38.9	---	---	729.4	0.029	0.000	18.2	1	1
03/15/06	7:02 p	-23.8	-23.8	-23.8	---	---	20.0	E	0.33	21.7	-38.6	---	---	729.4	0.029	0.000	18.3	1	1
03/15/06	7:03 p	-23.8	-23.8	-23.8	---	---	19.1	E	0.32	22.6	-38.4	---	---	729.4	0.029	0.000	18.2	1	1
03/15/06	7:04 p	-23.8	-23.8	-23.8	---	---	20.9	E	0.35	22.6	-38.9	---	---	729.4	0.029	0.000	18.2	1	1
03/15/06	7:05 p	-23.8	-23.8	-23.8	---	---	20.9	E	0.35	22.6	-38.9	---	---	729.4	0.029	0.000	18.2	1	1
03/15/06	7:06 p	-23.8	-23.8	-23.8	---	---	20.9	ENE	0.35	21.7	-38.9	---	---	729.4	0.029	0.000	18.2	1	1
03/15/06	7:07 p	-23.8	-23.8	-23.9	---	---	21.7	E	0.36	24.3	-39.2	---	---	729.4	0.029	0.000	18.2	1	1
03/15/06	7:08 p	-23.8	-23.8	-23.9	---	---	21.7	E	0.36	23.5	-39.2	---	---	729.4	0.029	0.000	18.3	1	1
03/15/06	7:09 p	-23.8	-23.8	-23.8	---	---	20.9	E	0.35	22.6	-38.9	---	---	729.4	0.029	0.000	18.3	1	1
03/15/06	7:10 p	-23.8	-23.8	-23.9	---	---	21.7	E	0.36	23.5	-39.2	---	---	729.4	0.029	0.000	18.2	1	1
03/15/06	7:11 p	-23.9	-23.9	-23.9	---	---	21.7	ENE	0.36	24.3	-39.3	---	---	729.4	0.029	0.000	18.2	1	1
03/15/06	7:12 p	-23.9	-23.8	-23.9	---	---	20.9	E	0.35	23.5	-39.1	---	---	729.4	0.029	0.000	18.2	1	1
03/15/06	7:13 p	-23.9	-23.8	-23.9	---	---	21.7	E	0.36	25.2	-39.3	---	---	729.4	0.029	0.000	18.2	1	1
03/15/06	7:14 p	-23.9	-23.9	-23.9	---	---	22.6	ENE	0.38	24.3	-39.5	---	---	729.4	0.029	0.000	18.2	1	1
03/15/06	7:15 p	-23.9	-23.9	-23.9	---	---	21.7	E	0.36	24.3	-39.3	---	---	729.4	0.029	0.000	18.2	1	1
03/15/06	7:16 p	-23.9	-23.9	-23.9	---	---	20.9	E	0.35	22.6	-39.1	---	---	729.4	0.029	0.000	18.2	1	1
03/15/06	7:17 p	-23.9	-23.9	-23.9	---	---	20.9	E	0.35	22.6	-39.1	---	---	729.6	0.029	0.000	18.2	1	1
03/15/06	7:18 p	-23.9	-23.9	-23.9	---	---	20.9	E	0.35	22.6	-39.1	---	---	729.5	0.029	0.000	18.2	1	1
03/15/06	7:19 p	-23.9	-23.9	-23.9	---	---	20.0	E	0.33	21.7	-38.8	---	---	729.5	0.029	0.000	18.2	1	1
03/15/06	7:20 p	-23.9	-23.9	-23.9	---	---	20.0	E	0.33	21.7	-38.8	---	---	729.5	0.029	0.000	18.2	1	1
03/15/06	7:21 p	-23.9	-23.9	-23.9	---	---	20.0	E	0.33	22.6	-38.8	---	---	729.5	0.029	0.000	18.2	1	1
03/15/06	7:22 p	-23.9	-23.9	-23.9	---	---	20.0	E	0.33	22.6	-38.8	---	---	729.5	0.029	0.000	18.2	1	1
03/15/06	7:23 p	-23.9	-23.9	-23.9	---	---	20.9	E	0.35	22.6	-39.1	---	---	729.5	0.029	0.000	18.2	1	1
03/15/06	7:24 p	-23.9	-23.9	-23.9	---	---	20.0	E	0.33	22.6	-38.8	---	---	729.5	0.029	0.000	18.2	1	1
03/15/06	7:25 p	-23.9	-23.9	-23.9	---	---	20.0	E	0.33	21.7	-38.8	---	---	729.5	0.029	0.000	18.2	1	1
03/15/06	7:26 p	-23.9	-23.9	-23.9	---	---	20.0	E	0.33	22.6	-38.8	---	---	729.5	0.029	0.000	18.2	1	1
03/15/06	7:27 p	-23.9	-23.9	-23.9	---	---	19.1	E	0.32	21.7	-38.6	---	---	729.5	0.029	0.000	18.2	1	1
03/15/06	7:28 p	-23.9	-23.9	-23.9	---	---	20.9	E	0.35	23.5	-39.1	---	---	729.5	0.029	0.000	18.2	1	1
03/15/06	7:29 p	-23.9	-23.9	-23.9	---	---	21.7	E	0.36	22.6	-39.3	---	---	729.6	0.029	0.000	18.2	1	1
03/15/06	7:30 p	-23.9	-23.9	-23.9	---	---	20.9	E	0.35	22.6	-39.1	---	---	729.5	0.029	0.000	18.2	1	1
03/15/06	7:31 p	-23.9	-23.9	-23.9	---	---	20.9	E	0.35	23.5	-39.1	---	---	729.5	0.029	0.000	18.2	1	1
03/15/06	7:32 p	-23.9	-23.9	-23.9	---	---	20.9	E	0.35	23.5	-39.1	---	---	729.6	0.029	0.000	18.2	1	1
03/15/06	7:34 p	-23.9	-23.9	-23.9	---	---	20.0	E	0.33	21.7	-38.8	---	---	729.5	0.029	0.000	18.2	1	1
03/15/06	7:35 p	-23.9	-23.9	-23.9	---	---	20.9	E	0.35	22.6	-39.1	---	---	729.5	0.029	0.000	18.2	1	1
03/15/06	7:36 p	-23.9	-23.9	-23.9	---	---	20.9	E	0.35	23.5	-39.1	---	---	729.5	0.029	0.000	18.2	1	1
03/15/06	7:37 p	-23.9	-23.9	-23.9	---	---	20.9	E	0.35	22.6	-39.1	---	---	729.5	0.029	0.000	18.2	1	1
03/15/06	7:38 p	-23.9	-23.9	-23.9	---	---	19.1	E	0.32	20.9	-38.6	---	---	729.5	0.029	0.000	18.2	1	1
03/15/06	7:39 p	-23.9	-23.9	-23.9	---	---	20.0	E	0.33	21.7	-38.8	---	---	729.6	0.029	0.000	18.2	1	1
03/15/06	7:40 p	-23.9	-23.9	-23.9	---	---	19.1	E	0.32	22.6	-38.6	---	---	729.6	0.029	0.000	18.2	1	1
03/15/06	7:41 p	-23.9	-23.9	-23.9	---	---	20.9	ENE	0.35	23.5	-39.1	---	---	729.6	0.029	0.000	18.2	1	1
03/15/06	7:42 p	-23.9	-23.9	-23.9	---	---	20.9	E	0.35	22.6	-39.1	---	---	729.6	0.029	0.000	18.2	1	1
03/15/06	7:43 p	-23.9	-23.9	-23.9	---	---	20.0	E	0.33	20.9	-38.8	---	---	729.6	0.029	0.000	18.2	1	1
03/15/06	7:44 p	-23.9	-23.9	-23.9	---	---	20.0	E	0.33	22.6	-38.8	---	---	729.6	0.029	0.000	18.2	1	1
03/15/06	7:45 p	-23.9	-23.9	-23.9	---	---	20.9	ENE	0.35	22.6	-39.1	---	---	729.6	0.029	0.000	18.2	1	1
03/15/06	7:46 p	-23.9	-23.9	-23.9	---	---	20.0	ENE	0.33	22.6	-38.8	---	---	729.6	0.029	0.000	18.2	1	1
03/15/06	7:47 p	-23.9	-23.8	-23.9	---	---	20.9	ENE	0.35	21.7	-39.1	---	---	729.6	0.029	0.000	18.2	1	1
03/15/06	7:48 p	-23.8	-23.8	-23.9	---	---	20.9	ENE	0.35	21.7	-38.9	---	---	729.6	0.029	0.000	18.2	1	1
03/15/06	7:49 p	-23.8	-23.8	-23.9	---	---	19.1	E	0.32	20.9	-38.4	---	---	729.6	0.029	0.000	18.2	1	1
03/15/06	7:50 p	-23.8	-23.8	-23.8	---	---	20.0	ENE	0.33	21.7	-38.7	---	---	729.6	0.029	0.000	18.2	1	1
03/15/06	7:51 p	-23.8	-23.8	-23.8	---	---	20.9	ENE	0.35	21.7	-38.9	---	---	729.5	0.029	0.000	18.2	1	1
03/15/06	7:52 p	-23.8	-23.8	-23.8	---	---	20.0	E	0.33	22.6	-38.6	---	---	729.6	0.029	0.000	18.2	1	1
03/15/06	7:53 p	-23.8	-23.8	-23.8	---	---	20.0	ENE	0.33	20.9	-38.6	---	---	729.6	0.029	0.000	18.2	1	1
03/15/06	7:54 p	-23.8	-23.8	-23.8	---	---	20.0	ENE	0.33	21.7	-38.6	---	---	729.6	0.029	0.000	18.2	1	1
03/15/06	7:55 p	-23.8	-23.8	-23.8	---	---	20.0	ENE	0.33	20.9	-38.7	---	---	729.6	0.029	0.000	18.2	1	1
03/15/06	7:56 p	-23.8	-23.8	-23.8	---	---	20.0	ENE	0.33	21.7	-38.6	---	---	729.6	0.029	0.000	18.2	1	1
03/15/06	7:57 p	-23.7	-23.7	-23.7	---	---	20.0	ENE	0.33	20.9	-38.6	---	---	729.6	0.029	0.000	18.2	1	1
03/15/06	7:58 p	-23.7	-23.7	-23.7	---	---	19.1	ENE	0.32	21.7	-38.3	---	---	729.6	0.029	0.000	18.2	1	1
03/15/06	7:59 p	-23.7	-23.7	-23.7	---	---	20.9	E	0.35	21.7	-38.8	---	---	729.6	0.029	0.000	18.2	1	1
03/15/06	8:00 p	-23.7	-23.7	-23.7	---	---	20.0	E	0.33	21.7	-38.6	---	---	729.6	0.029	0.000	18.2	1	1
03/15/06	8:01 p	-23.7	-23.7	-23.7	---	---	20.0	ENE	0.33	21.7	-38.5	---	---	729.6	0.029	0.000	18.2	1	1
03/15/06	8:02 p	-23.7	-23.7	-23.7	---	---	20.0	E	0.33	22.6	-38.5	---	---	729.6	0.029	0.000	18.2	1	1
03/15/06	8:03 p	-23.7	-23.7	-23.7	---	---	20.0	E	0.33	20.9	-38.5	---	---	729.7	0.029	0.000	18.2	1	1
03/15/06	8:04 p	-23.7	-23.7	-23.7	---	---	19.1	E	0.32	20.9	-38.2	---	---	729.7	0.029	0.000	18.2	1	1
03/15/06	8:05 p	-23.7	-23.6	-23.7	---	---	19.1	E	0.32	21.7	-38.2	---	---	729.6	0.029	0.000	18.2	1	1
03/15/06	8:06 p	-23.7	-23.6	-23.7	---	---	19.1	E	0.32	21.7	-38.2	---	---	729.6	0.029	0.000	18.2	1	1
03/15/06	8:07 p	-23.6	-23.6	-23.6	---	---	19.1	E	0.32	20.9	-38.2	---	---	729.7	0.029	0.000	18.2	1	1
03/15/06	8:08 p	-23.6	-23.6	-23.6	---	---	19.1	E	0.32	20.9	-38.2	---	---	729.7	0.029	0.000	18.2	1	1
03/15/06	8:09 p	-23.6	-23.6	-23.6	---	---	20.0	E	0.33	21.7	-38.4	---	---	729.7	0.029	0.000	18.2	1	1
03/15/06	8:10 p	-23.6	-23.6	-23.6	---	---	19.1	E	0.32	21.7	-38.1	---	---	729.8	0.029	0.000	18.2	1	1
03/15/06	8:11 p	-23.6	-23.6	-23.6	---	---	19.1	E	0.32	20.9	-38.1	---	---	729.7	0.029	0.000	18.2	1	1
03/15/06	8:12 p	-23.6	-23.6	-23.6	---	---	19.1	ENE	0.32	20.9	-38.1	---	---	729.8	0.029	0.000	18.2	1	1
03/15/06	8:13 p	-23.5	-23.5	-23.6	---	---	18.3	E	0.30	20.9	-37.7	---	---	730.0	0.029	0.000	18.2	1	1
03/15/06	8:14 p	-23.5	-23.5	-23.5	---	---	18.3	E	0.30	20.0	-37.7	---	---	729.7	0.029	0.000	18.2	1	1
03/15/06	8:15 p	-23.5	-23.4	-23.5	---	---	19.1	ENE	0.32	20.9	-38.0	---	---	729.7	0.029	0.000	18.1	1	1
03/15/06	8:16 p	-23.5	-23.4	-23.5	---	---	19.1	ENE	0.32	20.0	-38.0	---	---	729.8	0.029	0.000	18.1	1	1
03/15/06	8:17 p	-23.4	-23.4	-23.4	---	---	20.0	ENE	0.33	21.7	-38.2	---	---	729.7	0.029	0.000	18.1	1	1
03/15/06	8:18 p	-23.4	-23.4	-23.5	---	---	19.1	ENE	0.32	20.9	-37.9	---	---	729.7	0.029	0.000	18.1	1	1
03/15/06	8:19 p	-23.4	-23.4	-23.4	---	---	19.1	ENE	0.32	20.9	-37.9	---	---	729.7	0.029	0.000	18.1	1	1
03/15/06	8:20 p	-23.4	-23.4	-23.4	---	---	20.0	ENE	0.33	21.7	-38.2	---	---	729.8	0.029	0.000	18.1	1	1
03/15/06	8:21 p	-23.4	-23.4	-23.4	---	---	19.1	ENE	0.32	20.9	-37.9	---	---	729.7	0.029	0.000	18.1	1	1
03/15/06	8:22 p	-23.4	-23.4	-23.4	---	---	18.3	ENE	0.30	20.9	-37.7	---	---	729.7	0.029	0.000	18.1	1	1
03/15/06	8:23 p	-23.4	-23.4	-23.4	---	---	18.3	E	0.30	19.1	-37.6	---	---	729.6	0.029	0.000	18.1	1	1
03/15/06	8:24 p	-23.4	-23.3	-23.4	---	---	18.3	ENE	0.30	20.0	-37.6	---	---	729.7	0.029	0.000	18.1	1	1
03/15/06	8:25 p	-23.3	-23.3	-23.3	---	---	18.3	E	0.30	19.1	-37.5	---	---	729.7	0.029	0.000	18.1	1	1
03/15/06	8:26 p	-23.3	-23.3	-23.3	---	---	20.0	ENE	0.33	21.7	-38.1	---	---	729.7	0.029	0.000	18.1	1	1
03/15/06	8:27 p	-23.3	-23.3	-23.3	---	---	20.0	ENE	0.33	20.9	-38.1	---	---	729.6	0.029	0.000	18.1	1	1
03/15/06	8:28 p	-23.3	-23.3	-23.3	---	---	19.1	ENE	0.32	20.9	-37.8	---	---	729.6	0.029	0.000	18.0	1	1
03/15/06	8:29 p	-23.3	-23.3	-23.3	---	---	20.0	ENE	0.33	20.9	-38.1	---	---	729.6	0.029	0.000	18.1	1	1
03/15/06	8:30 p	-23.3	-23.3	-23.3	---	---	19.1	ENE	0.32	20.0	-37.7	---	---	729.7	0.029	0.000	18.1	1	1
03/15/06	8:31 p	-23.3	-23.3	-23.3	---	---	19.1	E	0.32	20.9	-37.7	---	---	729.6	0.029	0.000	18.0	1	1
03/15/06	8:32 p	-23.2	-23.2	-23.3	---	---	19.1	E	0.32	20.0	-37.6	---	---	729.6	0.029	0.000	18.1	1	1
03/15/06	8:33 p	-23.2	-23.2	-23.2	---	---	19.1	E	0.32	20.0	-37.6	---	---	729.6	0.029	0.000	18.1	1	1
03/15/06	8:34 p	-23.2	-23.2	-23.2	---	---	19.1	ENE	0.32	20.9	-37.6	---	---	729.6	0.029	0.000	18.1	1	1
03/15/06	8:35 p	-23.2	-23.2	-23.2	---	---	19.1	ENE	0.32	20.9	-37.6	---	---	729.6	0.029	0.000	18.1	1	1
03/15/06	8:36 p	-23.2	-23.2	-23.2	---	---	18.3	ENE	0.30	20.0	-37.4	---	---	729.6	0.029	0.000	18.1	1	1
03/15/06	8:37 p	-23.2	-23.2	-23.2	---	---	19.1	ENE	0.32	20.9	-37.6	---	---	729.7	0.029	0.000	18.1	1	1
03/15/06	8:38 p	-23.2	-23.2	-23.2	---	---	19.1	E	0.32	20.9	-37.6	---	---	729.7	0.029	0.000	18.1	1	1
03/15/06	8:39 p	-23.2	-23.1	-23.2	---	---	18.3	E	0.30	20.0	-37.3	---	---	729.7	0.029	0.000	18.1	1	1
03/15/06	8:40 p	-23.2	-23.2	-23.2	---	---	18.3	ENE	0.30	20.0	-37.3	---	---	729.7	0.029	0.000	18.1	1	1
03/15/06	8:41 p	-23.1	-23.1	-23.1	---	---	18.3	ENE	0.30	19.1	-37.2	---	---	729.7	0.029	0.000	18.1	1	1
03/15/06	8:42 p	-23.1	-23.1	-23.1	---	---	19.1	ENE	0.32	20.9	-37.5	---	---	729.9	0.029	0.000	18.1	1	1
03/15/06	8:43 p	-23.1	-23.1	-23.1	---	---	18.3	ENE	0.30	20.9	-37.2	---	---	729.6	0.029	0.000	18.1	1	1
03/15/06	8:44 p	-23.1	-23.1	-23.1	---	---	18.3	E	0.30	19.1	-37.2	---	---	729.7	0.029	0.000	18.1	1	1
03/15/06	8:45 p	-23.1	-23.1	-23.1	---	---	19.1	ENE	0.32	20.0	-37.4	---	---	729.6	0.029	0.000	18.1	1	1
03/15/06	8:46 p	-23.1	-23.0	-23.1	---	---	18.3	ENE	0.30	19.1	-37.2	---	---	729.7	0.029	0.000	18.1	1	1
03/15/06	8:47 p	-23.0	-23.0	-23.0	---	---	19.1	ENE	0.32	20.0	-37.3	---	---	729.7	0.029	0.000	18.1	1	1
03/15/06	8:48 p	-23.0	-23.0	-23.0	---	---	18.3	ENE	0.30	20.0	-37.1	---	---	729.7	0.029	0.000	18.1	1	1
03/15/06	8:49 p	-23.0	-23.0	-23.0	---	---	20.0	ENE	0.33	20.9	-37.6	---	---	729.7	0.029	0.000	18.1	1	1
03/15/06	8:50 p	-23.0	-22.9	-23.0	---	---	18.3	ENE	0.30	20.0	-37.1	---	---	729.7	0.029	0.000	18.0	1	1
03/15/06	8:51 p	-22.9	-22.9	-22.9	---	---	18.3	E	0.30	20.0	-37.0	---	---	729.7	0.029	0.000	18.0	1	1
03/15/06	8:52 p	-22.9	-22.9	-22.9	---	---	19.1	ENE	0.32	20.9	-37.3	---	---	729.6	0.029	0.000	18.0	1	1
03/15/06	8:53 p	-22.9	-22.9	-22.9	---	---	19.1	ENE	0.32	20.9	-37.3	---	---	729.7	0.029	0.000	18.0	1	1
03/15/06	8:54 p	-22.9	-22.9	-22.9	---	---	18.3	ENE	0.30	20.9	-36.9	---	---	729.7	0.029	0.000	18.0	1	1
03/15/06	8:55 p	-22.9	-22.9	-22.9	---	---	17.4	E	0.29	20.0	-36.7	---	---	729.6	0.029	0.000	17.9	1	1
03/15/06	8:56 p	-22.9	-22.8	-22.9	---	---	20.0	ENE	0.33	21.7	-37.4	---	---	729.7	0.029	0.000	17.9	1	1
03/15/06	8:57 p	-22.8	-22.8	-22.8	---	---	19.1	E	0.32	20.0	-37.1	---	---	729.7	0.029	0.000	17.9	1	1
03/15/06	8:58 p	-22.8	-22.8	-22.8	---	---	18.3	ENE	0.30	20.0	-36.8	---	---	729.6	0.029	0.000	17.9	1	1
03/15/06	8:59 p	-22.8	-22.8	-22.8	---	---	18.3	E	0.30	20.0	-36.8	---	---	729.7	0.029	0.000	17.9	1	1
03/15/06	9:00 p	-22.8	-22.8	-22.8	---	---	19.1	E	0.32	20.0	-37.1	---	---	729.7	0.029	0.000	17.9	1	1
03/15/06	9:01 p	-22.8	-22.8	-22.8	---	---	17.4	E	0.29	19.1	-36.5	---	---	729.6	0.029	0.000	17.9	1	1
03/15/06	9:02 p	-22.8	-22.7	-22.8	---	---	19.1	ENE	0.32	20.0	-37.1	---	---	729.6	0.029	0.000	17.9	1	1
03/15/06	9:03 p	-22.7	-22.7	-22.8	---	---	19.1	ENE	0.32	20.9	-37.0	---	---	729.7	0.029	0.000	17.9	1	1
03/15/06	9:04 p	-22.7	-22.7	-22.7	---	---	18.3	E	0.30	20.0	-36.6	---	---	729.7	0.028	0.000	17.9	1	1
03/15/06	9:05 p	-22.7	-22.7	-22.7	---	---	18.3	ENE	0.30	20.0	-36.6	---	---	729.8	0.028	0.000	17.9	1	1
03/15/06	9:06 p	-22.6	-22.6	-22.7	---	---	18.3	E	0.30	20.0	-36.6	---	---	729.8	0.028	0.000	17.9	1	1
03/15/06	9:07 p	-22.6	-22.6	-22.6	---	---	19.1	E	0.32	20.0	-36.8	---	---	729.7	0.028	0.000	17.9	1	1
03/15/06	9:08 p	-22.6	-22.6	-22.6	---	---	17.4	E	0.29	19.1	-36.2	---	---	729.7	0.028	0.000	17.9	1	1
03/15/06	9:09 p	-22.6	-22.5	-22.6	---	---	17.4	E	0.29	19.1	-36.2	---	---	729.8	0.028	0.000	17.9	1	1
03/15/06	9:10 p	-22.6	-22.5	-22.6	---	---	16.5	E	0.28	18.3	-35.9	---	---	729.7	0.028	0.000	17.9	1	1
03/15/06	9:11 p	-22.5	-22.4	-22.5	---	---	18.3	E	0.30	20.0	-36.4	---	---	729.8	0.028	0.000	18.0	1	1
03/15/06	9:12 p	-22.4	-22.4	-22.4	---	---	18.3	ENE	0.30	20.0	-36.3	---	---	729.7	0.028	0.000	18.0	1	1
03/15/06	9:13 p	-22.4	-22.4	-22.4	---	---	17.4	E	0.29	19.1	-36.0	---	---	729.8	0.028	0.000	18.1	1	1
03/15/06	9:14 p	-22.4	-22.4	-22.4	---	---	19.1	ENE	0.32	20.9	-36.6	---	---	729.7	0.028	0.000	18.1	1	1
03/15/06	9:15 p	-22.3	-22.3	-22.3	---	---	18.3	ENE	0.30	20.9	-36.2	---	---	729.8	0.028	0.000	18.1	1	1
03/15/06	9:16 p	-22.3	-22.3	-22.4	---	---	17.4	E	0.29	18.3	-35.9	---	---	729.8	0.028	0.000	18.2	1	1
03/15/06	9:17 p	-22.3	-22.3	-22.3	---	---	18.3	E	0.30	20.0	-36.1	---	---	729.8	0.028	0.000	18.2	1	1
03/15/06	9:18 p	-22.3	-22.3	-22.3	---	---	17.4	E	0.29	19.1	-35.8	---	---	729.7	0.028	0.000	18.2	1	1
03/15/06	9:19 p	-22.3	-22.2	-22.3	---	---	19.1	ENE	0.32	20.0	-36.4	---	---	729.8	0.028	0.000	18.2	1	1
03/15/06	9:20 p	-22.2	-22.2	-22.3	---	---	20.0	ENE	0.33	20.9	-36.6	---	---	729.8	0.028	0.000	18.3	1	1
03/15/06	9:21 p	-22.2	-22.2	-22.2	---	---	19.1	ENE	0.32	20.0	-36.3	---	---	729.8	0.028	0.000	18.3	1	1
03/15/06	9:22 p	-22.2	-22.2	-22.2	---	---	19.1	ENE	0.32	20.9	-36.2	---	---	729.8	0.028	0.000	18.3	1	1
03/15/06	9:23 p	-22.2	-22.1	-22.2	---	---	19.1	E	0.32	20.0	-36.2	---	---	729.8	0.028	0.000	18.3	1	1
03/15/06	9:24 p	-22.1	-22.1	-22.1	---	---	18.3	E	0.30	20.0	-35.9	---	---	729.9	0.028	0.000	18.3	1	1
03/15/06	9:25 p	-22.1	-22.1	-22.1	---	---	17.4	E	0.29	19.1	-35.6	---	---	729.8	0.028	0.000	18.3	1	1
03/15/06	9:26 p	-22.1	-22.0	-22.1	---	---	18.3	E	0.30	20.0	-35.8	---	---	729.8	0.028	0.000	18.3	1	1
03/15/06	9:27 p	-22.0	-21.9	-22.1	---	---	18.3	ENE	0.30	20.0	-35.8	---	---	729.8	0.028	0.000	18.3	1	1
03/15/06	9:28 p	-22.0	-21.9	-22.0	---	---	18.3	ENE	0.30	20.9	-35.8	---	---	729.9	0.028	0.000	18.3	1	1
03/15/06	9:29 p	-22.0	-21.9	-22.0	---	---	19.1	ENE	0.32	20.9	-36.0	---	---	729.8	0.028	0.000	18.3	2	1
03/15/06	9:30 p	-21.9	-21.9	-21.9	---	---	18.3	E	0.30	20.0	-35.7	---	---	729.9	0.028	0.000	18.3	1	1
03/15/06	9:31 p	-21.9	-21.9	-21.9	---	---	19.1	ENE	0.32	20.0	-35.9	---	---	729.9	0.028	0.000	18.3	1	1
03/15/06	9:32 p	-21.9	-21.8	-21.9	---	---	19.1	E	0.32	20.9	-35.9	---	---	729.8	0.028	0.000	18.3	2	1
03/15/06	9:33 p	-21.9	-21.8	-21.9	---	---	18.3	E	0.30	20.0	-35.6	---	---	729.8	0.028	0.000	18.3	1	1
03/15/06	9:34 p	-21.8	-21.8	-21.8	---	---	17.4	ENE	0.29	20.0	-35.3	---	---	729.9	0.028	0.000	18.3	1	1
03/15/06	9:35 p	-21.8	-21.7	-21.8	---	---	19.1	ENE	0.32	20.9	-35.7	---	---	729.8	0.028	0.000	18.3	2	1
03/15/06	9:36 p	-21.8	-21.7	-21.8	---	---	17.4	E	0.29	19.1	-35.2	---	---	729.8	0.028	0.000	18.3	1	1
03/15/06	9:37 p	-21.7	-21.7	-21.7	---	---	18.3	E	0.30	19.1	-35.4	---	---	729.8	0.028	0.000	18.3	1	1
03/15/06	9:38 p	-21.7	-21.7	-21.7	---	---	18.3	ENE	0.30	20.0	-35.3	---	---	729.8	0.028	0.000	18.3	2	1
03/15/06	9:39 p	-21.7	-21.6	-21.7	---	---	19.1	ENE	0.32	20.0	-35.6	---	---	729.9	0.028	0.000	18.3	2	1
03/15/06	9:40 p	-21.7	-21.6	-21.7	---	---	19.1	E	0.32	20.9	-35.6	---	---	729.9	0.028	0.000	18.3	2	1
03/15/06	9:41 p	-21.6	-21.6	-21.6	---	---	17.4	E	0.29	19.1	-34.9	---	---	729.8	0.028	0.000	18.3	2	1
03/15/06	9:42 p	-21.6	-21.6	-21.6	---	---	18.3	E	0.30	20.9	-35.2	---	---	729.8	0.028	0.000	18.3	2	1
03/15/06	9:43 p	-21.6	-21.5	-21.6	---	---	18.3	E	0.30	19.1	-35.2	---	---	729.9	0.028	0.000	18.3	2	1
03/15/06	9:44 p	-21.5	-21.5	-21.6	---	---	18.3	E	0.30	20.0	-35.1	---	---	729.9	0.028	0.000	18.3	1	1
03/15/06	9:45 p	-21.4	-21.4	-21.5	---	---	18.3	E	0.30	19.1	-35.0	---	---	729.8	0.028	0.000	18.3	2	1
03/15/06	9:46 p	-21.4	-21.4	-21.5	---	---	17.4	ENE	0.29	19.1	-34.8	---	---	729.9	0.028	0.000	18.3	2	1
03/15/06	9:47 p	-21.4	-21.4	-21.4	---	---	17.4	ENE	0.29	19.1	-34.8	---	---	729.9	0.028	0.000	18.3	2	1
03/15/06	9:48 p	-21.4	-21.4	-21.4	---	---	18.3	ENE	0.30	19.1	-34.9	---	---	729.9	0.028	0.000	18.3	2	1
03/15/06	9:49 p	-21.4	-21.4	-21.4	---	---	18.3	E	0.30	20.0	-34.9	---	---	729.9	0.028	0.000	18.3	2	1
03/15/06	9:50 p	-21.3	-21.3	-21.4	---	---	19.1	ENE	0.32	20.9	-35.1	---	---	729.9	0.028	0.000	18.3	1	1
03/15/06	9:51 p	-21.3	-21.3	-21.3	---	---	18.3	E	0.30	19.1	-34.9	---	---	729.8	0.028	0.000	18.3	2	1
03/15/06	9:52 p	-21.3	-21.3	-21.3	---	---	18.3	E	0.30	20.0	-34.8	---	---	729.9	0.028	0.000	18.3	2	1
03/15/06	9:53 p	-21.3	-21.2	-21.3	---	---	19.1	ENE	0.32	20.0	-35.1	---	---	729.7	0.028	0.000	18.4	2	1
03/15/06	9:54 p	-21.2	-21.2	-21.3	---	---	19.1	ENE	0.32	20.9	-35.0	---	---	729.9	0.027	0.000	18.4	2	1
03/15/06	9:55 p	-21.2	-21.2	-21.2	---	---	18.3	E	0.30	20.0	-34.7	---	---	729.8	0.027	0.000	18.4	2	1
03/15/06	9:56 p	-21.2	-21.2	-21.2	---	---	18.3	E	0.30	20.0	-34.7	---	---	729.9	0.027	0.000	18.4	2	1
03/15/06	9:57 p	-21.2	-21.1	-21.2	---	---	18.3	ENE	0.30	20.0	-34.7	---	---	729.9	0.027	0.000	18.4	2	1
03/15/06	9:58 p	-21.1	-21.1	-21.1	---	---	18.3	E	0.30	20.0	-34.5	---	---	729.9	0.027	0.000	18.4	2	1
03/15/06	9:59 p	-21.1	-21.1	-21.1	---	---	18.3	ENE	0.30	20.0	-34.5	---	---	729.8	0.027	0.000	18.4	2	1
03/15/06	10:00 p	-21.1	-21.0	-21.1	---	---	18.3	ENE	0.30	20.0	-34.5	---	---	729.9	0.027	0.000	18.4	2	1
03/15/06	10:01 p	-21.0	-21.0	-21.0	---	---	19.1	ENE	0.32	20.0	-34.7	---	---	729.8	0.027	0.000	18.4	2	1
03/15/06	10:02 p	-20.9	-20.9	-21.0	---	---	18.3	E	0.30	20.9	-34.4	---	---	729.8	0.027	0.000	18.4	2	1
03/15/06	10:03 p	-20.9	-20.9	-20.9	---	---	18.3	E	0.30	19.1	-34.4	---	---	729.9	0.027	0.000	18.4	2	1
03/15/06	10:04 p	-20.9	-20.9	-20.9	---	---	18.3	E	0.30	20.0	-34.3	---	---	729.9	0.027	0.000	18.3	2	1
03/15/06	10:05 p	-20.9	-20.8	-20.9	---	---	19.1	ENE	0.32	20.0	-34.6	---	---	729.9	0.027	0.000	18.3	2	1
03/15/06	10:06 p	-20.8	-20.8	-20.9	---	---	18.3	ENE	0.30	19.1	-34.2	---	---	729.9	0.027	0.000	18.3	2	1
03/15/06	10:07 p	-20.8	-20.8	-20.8	---	---	18.3	ENE	0.30	20.0	-34.2	---	---	729.9	0.027	0.000	18.3	2	1
03/15/06	10:08 p	-20.8	-20.8	-20.8	---	---	18.3	ENE	0.30	19.1	-34.2	---	---	730.0	0.027	0.000	18.3	2	1
03/15/06	10:09 p	-20.8	-20.8	-20.8	---	---	17.4	ENE	0.29	19.1	-33.9	---	---	730.0	0.027	0.000	18.3	2	1
03/15/06	10:10 p	-20.7	-20.7	-20.8	---	---	18.3	ENE	0.30	19.1	-34.1	---	---	729.9	0.027	0.000	18.3	2	1
03/15/06	10:11 p	-20.7	-20.7	-20.7	---	---	17.4	ENE	0.29	19.1	-33.7	---	---	729.9	0.027	0.000	18.3	2	1
03/15/06	10:12 p	-20.7	-20.7	-20.7	---	---	17.4	ENE	0.29	18.3	-33.7	---	---	729.9	0.027	0.000	18.3	2	1
03/15/06	10:13 p	-20.7	-20.6	-20.7	---	---	17.4	E	0.29	19.1	-33.7	---	---	729.9	0.027	0.000	18.3	2	1
03/15/06	10:14 p	-20.6	-20.6	-20.6	---	---	17.4	E	0.29	19.1	-33.7	---	---	729.9	0.027	0.000	18.2	2	1
03/15/06	10:15 p	-20.6	-20.6	-20.6	---	---	18.3	ENE	0.30	19.1	-33.9	---	---	729.9	0.027	0.000	18.3	2	1
03/15/06	10:16 p	-20.6	-20.6	-20.6	---	---	17.4	ENE	0.29	18.3	-33.6	---	---	729.9	0.027	0.000	18.3	2	1
03/15/06	10:17 p	-20.6	-20.5	-20.6	---	---	17.4	ENE	0.29	19.1	-33.6	---	---	729.9	0.027	0.000	18.3	1	1
03/15/06	10:18 p	-20.5	-20.5	-20.6	---	---	18.3	E	0.30	19.1	-33.8	---	---	729.9	0.027	0.000	18.3	1	1
03/15/06	10:19 p	-20.5	-20.5	-20.5	---	---	18.3	E	0.30	19.1	-33.8	---	---	730.0	0.027	0.000	18.3	2	1
03/15/06	10:20 p	-20.4	-20.4	-20.5	---	---	17.4	E	0.29	20.0	-33.4	---	---	730.0	0.027	0.000	18.3	2	1
03/15/06	10:21 p	-20.4	-20.4	-20.4	---	---	18.3	E	0.30	19.1	-33.7	---	---	729.9	0.027	0.000	18.3	1	1
03/15/06	10:22 p	-20.4	-20.4	-20.4	---	---	18.3	ENE	0.30	19.1	-33.7	---	---	729.9	0.027	0.000	18.3	2	1
03/15/06	10:23 p	-20.4	-20.4	-20.4	---	---	17.4	E	0.29	19.1	-33.4	---	---	729.9	0.027	0.000	18.3	2	1
03/15/06	10:24 p	-20.4	-20.3	-20.4	---	---	17.4	E	0.29	18.3	-33.4	---	---	730.0	0.027	0.000	18.3	1	1
03/15/06	10:25 p	-20.4	-20.4	-20.4	---	---	16.5	E	0.28	18.3	-33.1	---	---	729.9	0.027	0.000	18.3	1	1
03/15/06	10:26 p	-20.3	-20.3	-20.3	---	---	16.5	E	0.28	18.3	-33.0	---	---	730.0	0.027	0.000	18.3	1	1
03/15/06	10:27 p	-20.3	-20.3	-20.3	---	---	17.4	E	0.29	19.1	-33.3	---	---	730.0	0.027	0.000	18.3	1	1
03/15/06	10:28 p	-20.3	-20.3	-20.3	---	---	17.4	E	0.29	19.1	-33.2	---	---	730.0	0.027	0.000	18.3	1	1
03/15/06	10:29 p	-20.3	-20.3	-20.3	---	---	17.4	E	0.29	19.1	-33.2	---	---	730.0	0.027	0.000	18.3	1	1
03/15/06	10:30 p	-20.3	-20.2	-20.3	---	---	17.4	E	0.29	18.3	-33.2	---	---	730.0	0.027	0.000	18.3	1	1
03/15/06	10:31 p	-20.2	-20.2	-20.3	---	---	17.4	E	0.29	19.1	-33.2	---	---	730.0	0.027	0.000	18.3	1	1
03/15/06	10:32 p	-20.2	-20.2	-20.2	---	---	17.4	E	0.29	19.1	-33.2	---	---	730.0	0.027	0.000	18.3	1	1
03/15/06	10:33 p	-20.2	-20.2	-20.2	---	---	16.5	E	0.28	18.3	-32.9	---	---	730.0	0.027	0.000	18.3	1	1
03/15/06	10:34 p	-20.2	-20.2	-20.2	---	---	18.3	ENE	0.30	19.1	-33.4	---	---	730.0	0.027	0.000	18.3	1	1
03/15/06	10:35 p	-20.2	-20.2	-20.2	---	---	17.4	E	0.29	18.3	-33.1	---	---	730.0	0.027	0.000	18.3	1	1
03/15/06	10:36 p	-20.2	-20.2	-20.2	---	---	17.4	E	0.29	19.1	-33.1	---	---	730.0	0.027	0.000	18.3	1	1
03/15/06	10:37 p	-20.2	-20.2	-20.2	---	---	17.4	ENE	0.29	19.1	-33.1	---	---	729.9	0.027	0.000	18.3	1	1
03/15/06	10:38 p	-20.2	-20.2	-20.2	---	---	16.5	E	0.28	18.3	-32.8	---	---	730.0	0.027	0.000	18.3	1	1
03/15/06	10:39 p	-20.1	-20.1	-20.1	---	---	17.4	E	0.29	19.1	-33.0	---	---	730.0	0.027	0.000	18.3	1	1
03/15/06	10:40 p	-20.1	-20.1	-20.1	---	---	18.3	E	0.30	20.0	-33.3	---	---	729.9	0.027	0.000	18.3	1	1
03/15/06	10:41 p	-20.1	-20.1	-20.1	---	---	17.4	ENE	0.29	19.1	-33.0	---	---	730.0	0.027	0.000	18.3	1	1
03/15/06	10:42 p	-20.1	-20.1	-20.1	---	---	18.3	ENE	0.30	19.1	-33.2	---	---	729.9	0.027	0.000	18.3	1	1
03/15/06	10:43 p	-20.1	-20.1	-20.1	---	---	17.4	ENE	0.29	19.1	-32.9	---	---	730.0	0.027	0.000	18.3	1	1
03/15/06	10:44 p	-20.1	-20.1	-20.1	---	---	17.4	E	0.29	19.1	-32.9	---	---	730.0	0.027	0.000	18.3	1	1
03/15/06	10:45 p	-20.1	-20.1	-20.1	---	---	17.4	E	0.29	19.1	-32.9	---	---	730.0	0.027	0.000	18.3	1	1
03/15/06	10:46 p	-20.1	-20.1	-20.1	---	---	17.4	E	0.29	18.3	-32.9	---	---	730.0	0.027	0.000	18.3	1	1
03/15/06	10:47 p	-20.1	-20.0	-20.1	---	---	18.3	E	0.30	19.1	-33.2	---	---	729.9	0.027	0.000	18.3	1	1
03/15/06	10:48 p	-20.0	-20.0	-20.0	---	---	17.4	E	0.29	18.3	-32.8	---	---	730.0	0.027	0.000	18.4	1	1
03/15/06	10:49 p	-20.0	-20.0	-20.0	---	---	17.4	ENE	0.29	18.3	-32.8	---	---	729.9	0.027	0.000	18.4	1	1
03/15/06	10:50 p	-20.0	-19.9	-20.0	---	---	17.4	ENE	0.29	19.1	-32.8	---	---	729.9	0.027	0.000	18.4	1	1
03/15/06	10:51 p	-19.9	-19.9	-19.9	---	---	17.4	E	0.29	19.1	-32.8	---	---	729.9	0.027	0.000	18.4	1	1
03/15/06	10:52 p	-19.9	-19.8	-19.9	---	---	17.4	E	0.29	18.3	-32.7	---	---	729.9	0.027	0.000	18.4	1	1
03/15/06	10:53 p	-19.8	-19.8	-19.8	---	---	17.4	E	0.29	18.3	-32.6	---	---	729.9	0.027	0.000	18.4	1	1
03/15/06	10:54 p	-19.8	-19.7	-19.8	---	---	16.5	E	0.28	19.1	-32.3	---	---	730.0	0.026	0.000	18.4	1	1
03/15/06	10:55 p	-19.7	-19.7	-19.7	---	---	16.5	E	0.28	18.3	-32.2	---	---	730.0	0.026	0.000	18.4	1	1
03/15/06	10:56 p	-19.6	-19.6	-19.7	---	---	17.4	E	0.29	19.1	-32.3	---	---	730.0	0.026	0.000	18.4	1	1
03/15/06	10:57 p	-19.6	-19.6	-19.7	---	---	18.3	E	0.30	20.0	-32.6	---	---	729.9	0.026	0.000	18.4	1	1
03/15/06	10:58 p	-19.6	-19.6	-19.6	---	---	17.4	E	0.29	19.1	-32.3	---	---	730.0	0.026	0.000	18.4	1	1
03/15/06	10:59 p	-19.6	-19.5	-19.6	---	---	17.4	E	0.29	18.3	-32.3	---	---	729.9	0.026	0.000	18.4	1	1
03/15/06	11:00 p	-19.5	-19.5	-19.6	---	---	17.4	E	0.29	19.1	-32.2	---	---	729.9	0.026	0.000	18.4	1	1
03/15/06	11:01 p	-19.5	-19.5	-19.5	---	---	16.5	E	0.28	19.1	-31.9	---	---	729.9	0.026	0.000	18.4	1	1
03/15/06	11:02 p	-19.5	-19.4	-19.5	---	---	17.4	E	0.29	19.1	-32.2	---	---	729.9	0.026	0.000	18.4	1	1
03/15/06	11:03 p	-19.4	-19.4	-19.4	---	---	17.4	E	0.29	19.1	-32.1	---	---	729.9	0.026	0.000	18.4	1	1
03/15/06	11:04 p	-19.4	-19.4	-19.4	---	---	17.4	E	0.29	19.1	-32.1	---	---	730.0	0.026	0.000	18.4	1	1
03/15/06	11:05 p	-19.3	-19.3	-19.4	---	---	16.5	E	0.28	19.1	-31.7	---	---	730.0	0.026	0.000	18.4	1	1
03/15/06	11:06 p	-19.3	-19.3	-19.3	---	---	15.7	E	0.26	18.3	-31.4	---	---	729.9	0.026	0.000	18.4	1	1
03/15/06	11:07 p	-19.3	-19.2	-19.3	---	---	15.7	E	0.26	17.4	-31.3	---	---	730.0	0.026	0.000	18.4	1	1
03/15/06	11:08 p	-19.2	-19.2	-19.2	---	---	14.8	E	0.25	18.3	-31.0	---	---	730.1	0.026	0.000	18.4	1	1
03/15/06	11:09 p	-19.2	-19.1	-19.2	---	---	16.5	E	0.28	18.3	-31.5	---	---	730.0	0.026	0.000	18.4	1	1
03/15/06	11:10 p	-19.1	-19.1	-19.1	---	---	15.7	E	0.26	18.3	-31.2	---	---	730.0	0.026	0.000	18.4	1	1
03/15/06	11:11 p	-19.1	-18.9	-19.1	---	---	16.5	E	0.28	18.3	-31.3	---	---	730.0	0.026	0.000	18.4	1	1
03/15/06	11:12 p	-18.9	-18.9	-19.0	---	---	14.8	E	0.25	17.4	-30.6	---	---	730.0	0.026	0.000	18.4	1	1
03/15/06	11:13 p	-18.9	-18.9	-18.9	---	---	14.8	E	0.25	16.5	-30.6	---	---	730.0	0.026	0.000	18.4	1	1
03/15/06	11:14 p	-18.9	-18.8	-18.9	---	---	14.8	E	0.25	17.4	-30.6	---	---	730.0	0.026	0.000	18.4	1	1
03/15/06	11:15 p	-18.8	-18.8	-18.8	---	---	15.7	E	0.26	16.5	-30.8	---	---	730.1	0.026	0.000	18.4	1	1
03/15/06	11:16 p	-18.8	-18.7	-18.8	---	---	15.7	E	0.26	17.4	-30.7	---	---	730.0	0.026	0.000	18.4	1	1
03/15/06	11:17 p	-18.7	-18.7	-18.7	---	---	15.7	E	0.26	16.5	-30.6	---	---	730.0	0.026	0.000	18.4	1	1
03/15/06	11:18 p	-18.7	-18.6	-18.7	---	---	16.5	E	0.28	17.4	-30.8	---	---	730.0	0.026	0.000	18.4	1	1
03/15/06	11:19 p	-18.6	-18.6	-18.6	---	---	16.5	ENE	0.28	18.3	-30.8	---	---	730.0	0.026	0.000	18.4	1	1
03/15/06	11:20 p	-18.6	-18.6	-18.6	---	---	17.4	ENE	0.29	17.4	-30.9	---	---	729.9	0.026	0.000	18.4	1	1
03/15/06	11:21 p	-18.5	-18.5	-18.6	---	---	16.5	ENE	0.28	18.3	-30.6	---	---	729.9	0.026	0.000	18.4	1	1
03/15/06	11:22 p	-18.4	-18.4	-18.4	---	---	17.4	ENE	0.29	18.3	-30.8	---	---	730.1	0.026	0.000	18.4	1	1
03/15/06	11:23 p	-18.4	-18.4	-18.4	---	---	16.5	ENE	0.28	18.3	-30.5	---	---	730.0	0.026	0.000	18.5	1	1
03/15/06	11:24 p	-18.3	-18.3	-18.4	---	---	17.4	ENE	0.29	18.3	-30.7	---	---	730.0	0.025	0.000	18.5	1	1
03/15/06	11:25 p	-18.3	-18.3	-18.3	---	---	15.7	ENE	0.26	18.3	-30.1	---	---	730.0	0.025	0.000	18.5	1	1
03/15/06	11:26 p	-18.2	-18.2	-18.3	---	---	16.5	ENE	0.28	17.4	-30.3	---	---	730.0	0.025	0.000	18.5	1	1
03/15/06	11:27 p	-18.2	-18.2	-18.3	---	---	16.5	ENE	0.28	16.5	-30.3	---	---	730.1	0.025	0.000	18.5	1	1
03/15/06	11:28 p	-18.2	-18.2	-18.2	---	---	15.7	ENE	0.26	16.5	-29.9	---	---	730.0	0.025	0.000	18.4	1	1
03/15/06	11:29 p	-18.1	-18.1	-18.2	---	---	15.7	ENE	0.26	16.5	-29.8	---	---	730.1	0.025	0.000	18.5	1	1
03/15/06	11:30 p	-18.1	-18.1	-18.1	---	---	14.8	ENE	0.25	17.4	-29.6	---	---	730.1	0.025	0.000	18.5	1	1
03/15/06	11:31 p	-18.1	-18.0	-18.1	---	---	15.7	ENE	0.26	18.3	-29.8	---	---	730.0	0.025	0.000	18.5	1	1
03/15/06	11:32 p	-18.0	-18.0	-18.1	---	---	15.7	ENE	0.26	16.5	-29.7	---	---	730.0	0.025	0.000	18.4	1	1
03/15/06	11:33 p	-17.9	-17.9	-18.0	---	---	14.8	ENE	0.25	17.4	-29.3	---	---	730.0	0.025	0.000	18.4	1	1
03/15/06	11:34 p	-17.9	-17.9	-17.9	---	---	15.7	ENE	0.26	16.5	-29.6	---	---	730.1	0.025	0.000	18.4	1	1
03/15/06	11:35 p	-17.9	-17.9	-17.9	---	---	14.8	E	0.25	16.5	-29.3	---	---	730.1	0.025	0.000	18.4	1	1
03/15/06	11:36 p	-17.9	-17.9	-17.9	---	---	15.7	ENE	0.26	17.4	-29.6	---	---	730.2	0.025	0.000	18.5	1	1
03/15/06	11:37 p	-17.9	-17.8	-17.9	---	---	15.7	ENE	0.26	17.4	-29.6	---	---	730.2	0.025	0.000	18.5	1	1
03/15/06	11:38 p	-17.8	-17.8	-17.8	---	---	15.7	ENE	0.26	17.4	-29.5	---	---	730.2	0.025	0.000	18.5	1	1
03/15/06	11:39 p	-17.8	-17.8	-17.8	---	---	15.7	ENE	0.26	17.4	-29.5	---	---	730.2	0.025	0.000	18.5	1	1
03/15/06	11:40 p	-17.8	-17.8	-17.8	---	---	15.7	ENE	0.26	16.5	-29.4	---	---	730.1	0.025	0.000	18.5	1	1
03/15/06	11:41 p	-17.8	-17.8	-17.8	---	---	15.7	ENE	0.26	18.3	-29.4	---	---	730.1	0.025	0.000	18.4	1	1
03/15/06	11:42 p	-17.8	-17.7	-17.8	---	---	15.7	ENE	0.26	17.4	-29.4	---	---	730.2	0.025	0.000	18.4	1	1
03/15/06	11:43 p	-17.8	-17.7	-17.8	---	---	16.5	ENE	0.28	17.4	-29.7	---	---	730.0	0.025	0.000	18.4	1	1
03/15/06	11:44 p	-17.7	-17.7	-17.7	---	---	16.5	ENE	0.28	18.3	-29.6	---	---	730.1	0.025	0.000	18.5	1	1
03/15/06	11:45 p	-17.7	-17.7	-17.7	---	---	16.5	ENE	0.28	17.4	-29.6	---	---	730.1	0.025	0.000	18.5	1	1
03/15/06	11:46 p	-17.7	-17.7	-17.7	---	---	16.5	ENE	0.28	17.4	-29.6	---	---	730.1	0.025	0.000	18.5	1	1
03/15/06	11:47 p	-17.7	-17.7	-17.7	---	---	16.5	ENE	0.28	17.4	-29.6	---	---	730.2	0.025	0.000	18.5	1	1
03/15/06	11:48 p	-17.7	-17.7	-17.7	---	---	16.5	ENE	0.28	17.4	-29.6	---	---	730.1	0.025	0.000	18.5	1	1
03/15/06	11:49 p	-17.7	-17.7	-17.7	---	---	15.7	ENE	0.26	17.4	-29.3	---	---	730.1	0.025	0.000	18.5	1	1
03/15/06	11:50 p	-17.7	-17.7	-17.7	---	---	14.8	E	0.25	16.5	-29.0	---	---	730.1	0.025	0.000	18.5	1	1
03/15/06	11:51 p	-17.7	-17.7	-17.7	---	---	13.9	E	0.23	16.5	-28.7	---	---	730.1	0.025	0.000	18.5	1	1
03/15/06	11:52 p	-17.7	-17.6	-17.7	---	---	15.7	ENE	0.26	16.5	-29.3	---	---	730.1	0.025	0.000	18.6	1	1
03/15/06	11:53 p	-17.7	-17.6	-17.7	---	---	15.7	E	0.26	17.4	-29.3	---	---	730.1	0.025	0.000	18.5	1	1
03/15/06	11:54 p	-17.6	-17.6	-17.6	---	---	15.7	ENE	0.26	17.4	-29.2	---	---	730.1	0.025	0.000	18.6	1	1
03/15/06	11:55 p	-17.6	-17.6	-17.6	---	---	15.7	ENE	0.26	17.4	-29.2	---	---	730.1	0.025	0.000	18.6	1	1
03/15/06	11:56 p	-17.6	-17.6	-17.6	---	---	15.7	E	0.26	16.5	-29.2	---	---	730.1	0.025	0.000	18.6	1	1
03/15/06	11:57 p	-17.6	-17.6	-17.7	---	---	16.5	ENE	0.28	17.4	-29.4	---	---	730.0	0.025	0.000	18.6	1	1
03/15/06	11:58 p	-17.6	-17.6	-17.6	---	---	15.7	E	0.26	17.4	-29.2	---	---	730.1	0.025	0.000	18.6	1	1
03/15/06	11:59 p	-17.6	-17.6	-17.6	---	---	15.7	E	0.26	17.4	-29.2	---	---	730.1	0.025	0.000	18.6	1	1
03/16/06	12:00 a	-17.6	-17.6	-17.6	---	---	13.9	E	0.23	16.5	-28.6	---	---	730.1	0.025	0.000	18.6	1	1
03/16/06	12:01 a	-17.6	-17.6	-17.6	---	---	15.7	E	0.26	17.4	-29.1	---	---	730.0	0.025	0.000	18.6	1	1
03/16/06	12:02 a	-17.6	-17.6	-17.6	---	---	15.7	ENE	0.26	18.3	-29.1	---	---	730.1	0.025	0.000	18.6	1	1
03/16/06	12:03 a	-17.6	-17.5	-17.6	---	---	16.5	ENE	0.28	18.3	-29.4	---	---	730.1	0.025	0.000	18.6	1	1
03/16/06	12:04 a	-17.6	-17.5	-17.6	---	---	16.5	ENE	0.28	18.3	-29.4	---	---	730.1	0.025	0.000	18.6	1	1
03/16/06	12:05 a	-17.5	-17.5	-17.6	---	---	15.7	ENE	0.26	17.4	-29.1	---	---	730.0	0.025	0.000	18.6	1	1
03/16/06	12:06 a	-17.5	-17.5	-17.6	---	---	16.5	ENE	0.28	17.4	-29.3	---	---	730.0	0.025	0.000	18.6	1	1
03/16/06	12:07 a	-17.5	-17.5	-17.5	---	---	16.5	ENE	0.28	18.3	-29.3	---	---	730.1	0.025	0.000	18.6	1	1
03/16/06	12:08 a	-17.5	-17.4	-17.5	---	---	14.8	ENE	0.25	16.5	-28.8	---	---	730.1	0.025	0.000	18.6	1	1
03/16/06	12:09 a	-17.5	-17.4	-17.5	---	---	15.7	ENE	0.26	17.4	-29.1	---	---	730.0	0.025	0.000	18.6	1	1
03/16/06	12:10 a	-17.5	-17.4	-17.5	---	---	16.5	ENE	0.28	18.3	-29.3	---	---	730.1	0.025	0.000	18.6	1	1
03/16/06	12:11 a	-17.4	-17.4	-17.4	---	---	16.5	ENE	0.28	18.3	-29.2	---	---	730.0	0.025	0.000	18.6	1	1
03/16/06	12:12 a	-17.4	-17.4	-17.4	---	---	17.4	ENE	0.29	18.3	-29.5	---	---	730.0	0.025	0.000	18.6	2	1
03/16/06	12:13 a	-17.4	-17.4	-17.4	---	---	17.4	ENE	0.29	18.3	-29.5	---	---	730.1	0.025	0.000	18.6	2	1
03/16/06	12:14 a	-17.4	-17.4	-17.4	---	---	17.4	ENE	0.29	18.3	-29.5	---	---	730.1	0.025	0.000	18.6	1	1
03/16/06	12:15 a	-17.4	-17.4	-17.4	---	---	16.5	ENE	0.28	18.3	-29.2	---	---	730.1	0.025	0.000	18.6	2	1
03/16/06	12:16 a	-17.4	-17.4	-17.4	---	---	17.4	ENE	0.29	19.1	-29.4	---	---	730.1	0.025	0.000	18.6	2	1
03/16/06	12:17 a	-17.4	-17.4	-17.4	---	---	15.7	ENE	0.26	17.4	-28.9	---	---	730.1	0.025	0.000	18.6	2	1
03/16/06	12:18 a	-17.4	-17.4	-17.4	---	---	16.5	ENE	0.28	18.3	-29.2	---	---	730.1	0.025	0.000	18.6	2	1
03/16/06	12:19 a	-17.3	-17.3	-17.4	---	---	16.5	ENE	0.28	18.3	-29.1	---	---	730.1	0.025	0.000	18.6	2	1
03/16/06	12:20 a	-17.3	-17.3	-17.3	---	---	16.5	ENE	0.28	18.3	-29.1	---	---	730.1	0.025	0.000	18.6	2	1
03/16/06	12:21 a	-17.3	-17.3	-17.3	---	---	15.7	E	0.26	18.3	-28.8	---	---	730.3	0.025	0.000	18.7	2	1
03/16/06	12:22 a	-17.3	-17.3	-17.3	---	---	16.5	ENE	0.28	18.3	-29.1	---	---	730.1	0.025	0.000	18.7	2	1
03/16/06	12:23 a	-17.3	-17.3	-17.3	---	---	15.7	ENE	0.26	17.4	-28.8	---	---	730.2	0.025	0.000	18.7	2	1
03/16/06	12:24 a	-17.3	-17.3	-17.3	---	---	14.8	E	0.25	16.5	-28.4	---	---	730.1	0.025	0.000	18.7	2	1
03/16/06	12:25 a	-17.3	-17.2	-17.3	---	---	13.9	E	0.23	16.5	-28.2	---	---	730.2	0.025	0.000	18.7	2	1
03/16/06	12:26 a	-17.2	-17.2	-17.3	---	---	13.9	ENE	0.23	16.5	-28.1	---	---	730.1	0.025	0.000	18.7	2	1
03/16/06	12:27 a	-17.2	-17.2	-17.2	---	---	14.8	E	0.25	17.4	-28.4	---	---	730.3	0.025	0.000	18.7	2	1
03/16/06	12:28 a	-17.2	-17.2	-17.2	---	---	16.5	ENE	0.28	18.3	-28.9	---	---	730.2	0.025	0.000	18.7	2	1
03/16/06	12:29 a	-17.2	-17.2	-17.2	---	---	17.4	ENE	0.29	19.1	-29.2	---	---	730.2	0.025	0.000	18.7	2	1
03/16/06	12:30 a	-17.2	-17.2	-17.2	---	---	17.4	ENE	0.29	19.1	-29.2	---	---	730.2	0.025	0.000	18.7	2	1
03/16/06	12:31 a	-17.2	-17.1	-17.2	---	---	16.5	ENE	0.28	18.3	-28.9	---	---	730.2	0.025	0.000	18.7	2	1
03/16/06	12:32 a	-17.1	-17.1	-17.2	---	---	15.7	ENE	0.26	17.4	-28.6	---	---	730.2	0.025	0.000	18.7	2	1
03/16/06	12:33 a	-17.1	-17.1	-17.1	---	---	16.5	ENE	0.28	20.9	-28.8	---	---	730.2	0.025	0.000	18.7	2	1
03/16/06	12:34 a	-17.1	-17.1	-17.1	---	---	16.5	ENE	0.28	18.3	-28.7	---	---	730.2	0.025	0.000	18.7	2	1
03/16/06	12:35 a	-17.1	-17.1	-17.1	---	---	14.8	E	0.25	16.5	-28.2	---	---	730.3	0.025	0.000	18.8	2	1
03/16/06	12:36 a	-17.1	-17.0	-17.1	---	---	16.5	E	0.28	18.3	-28.7	---	---	730.2	0.025	0.000	18.7	2	1
03/16/06	12:37 a	-17.1	-17.0	-17.1	---	---	16.5	ENE	0.28	18.3	-28.7	---	---	730.1	0.025	0.000	18.7	2	1
03/16/06	12:38 a	-17.0	-17.0	-17.1	---	---	17.4	ENE	0.29	18.3	-28.9	---	---	730.1	0.025	0.000	18.7	2	1
03/16/06	12:39 a	-17.0	-17.0	-17.1	---	---	17.4	ENE	0.29	18.3	-28.9	---	---	730.2	0.025	0.000	18.7	2	1
03/16/06	12:40 a	-17.1	-17.0	-17.1	---	---	17.4	ENE	0.29	19.1	-29.0	---	---	730.0	0.025	0.000	18.7	2	1
03/16/06	12:41 a	-17.0	-17.0	-17.0	---	---	17.4	ENE	0.29	18.3	-28.9	---	---	730.1	0.025	0.000	18.7	2	1
03/16/06	12:42 a	-17.0	-17.0	-17.0	---	---	18.3	ENE	0.30	20.0	-29.2	---	---	730.1	0.025	0.000	18.8	2	1
03/16/06	12:43 a	-17.1	-17.0	-17.1	---	---	18.3	ENE	0.30	20.0	-29.2	---	---	730.2	0.025	0.000	18.8	2	1
03/16/06	12:44 a	-17.0	-17.0	-17.0	---	---	17.4	ENE	0.29	19.1	-28.9	---	---	730.1	0.025	0.000	18.8	2	1
03/16/06	12:45 a	-17.0	-16.9	-17.0	---	---	16.5	ENE	0.28	18.3	-28.7	---	---	730.1	0.025	0.000	18.8	2	1
03/16/06	12:46 a	-16.9	-16.9	-17.0	---	---	15.7	E	0.26	18.3	-28.3	---	---	730.0	0.024	0.000	18.8	2	1
03/16/06	12:47 a	-16.9	-16.9	-17.0	---	---	17.4	ENE	0.29	18.3	-28.8	---	---	730.1	0.024	0.000	18.8	2	1
03/16/06	12:48 a	-16.9	-16.9	-16.9	---	---	17.4	ENE	0.29	19.1	-28.8	---	---	730.1	0.024	0.000	18.8	2	1
03/16/06	12:49 a	-16.9	-16.9	-16.9	---	---	17.4	ENE	0.29	18.3	-28.8	---	---	730.1	0.024	0.000	18.8	2	1
03/16/06	12:50 a	-16.9	-16.8	-16.9	---	---	18.3	ENE	0.30	19.1	-29.0	---	---	730.1	0.024	0.000	18.8	2	1
03/16/06	12:51 a	-16.8	-16.8	-16.9	---	---	16.5	ENE	0.28	18.3	-28.4	---	---	730.0	0.024	0.000	18.8	2	1
03/16/06	12:52 a	-16.8	-16.8	-16.8	---	---	17.4	ENE	0.29	19.1	-28.7	---	---	730.1	0.024	0.000	18.8	2	1
03/16/06	12:53 a	-16.8	-16.8	-16.8	---	---	17.4	ENE	0.29	20.0	-28.6	---	---	730.0	0.024	0.000	18.8	2	1
03/16/06	12:54 a	-16.8	-16.8	-16.8	---	---	18.3	ENE	0.30	19.1	-28.9	---	---	730.1	0.024	0.000	18.8	2	1
03/16/06	12:55 a	-16.8	-16.8	-16.8	---	---	18.3	ENE	0.30	20.0	-28.9	---	---	730.1	0.024	0.000	18.8	2	1
03/16/06	12:56 a	-16.7	-16.7	-16.7	---	---	18.3	ENE	0.30	20.0	-28.8	---	---	730.0	0.024	0.000	18.8	2	1
03/16/06	12:57 a	-16.7	-16.7	-16.7	---	---	17.4	ENE	0.29	19.1	-28.6	---	---	730.2	0.024	0.000	18.8	2	1
03/16/06	12:58 a	-16.7	-16.7	-16.7	---	---	15.7	E	0.26	18.3	-27.9	---	---	730.1	0.024	0.000	18.8	2	1
03/16/06	12:59 a	-16.7	-16.7	-16.7	---	---	14.8	ENE	0.25	17.4	-27.7	---	---	730.1	0.024	0.000	18.8	2	1
03/16/06	1:00 a	-16.7	-16.7	-16.7	---	---	16.5	ENE	0.28	18.3	-28.2	---	---	730.1	0.024	0.000	18.8	2	1
03/16/06	1:01 a	-16.7	-16.6	-16.7	---	---	17.4	ENE	0.29	19.1	-28.5	---	---	730.1	0.024	0.000	18.8	2	1
03/16/06	1:02 a	-16.7	-16.6	-16.7	---	---	16.5	E	0.28	19.1	-28.2	---	---	730.1	0.024	0.000	18.8	2	1
03/16/06	1:03 a	-16.6	-16.6	-16.6	---	---	16.5	E	0.28	18.3	-28.2	---	---	730.0	0.024	0.000	18.8	2	1
03/16/06	1:04 a	-16.6	-16.6	-16.6	---	---	16.5	ENE	0.28	17.4	-28.2	---	---	730.0	0.024	0.000	18.8	2	1
03/16/06	1:05 a	-16.6	-16.6	-16.6	---	---	14.8	ENE	0.25	18.3	-27.6	---	---	730.0	0.024	0.000	18.8	2	1
03/16/06	1:06 a	-16.6	-16.6	-16.6	---	---	16.5	ENE	0.28	18.3	-28.1	---	---	730.0	0.024	0.000	18.8	2	1
03/16/06	1:07 a	-16.6	-16.6	-16.6	---	---	16.5	ENE	0.28	19.1	-28.1	---	---	730.0	0.024	0.000	18.8	2	1
03/16/06	1:08 a	-16.6	-16.6	-16.6	---	---	18.3	ENE	0.30	20.0	-28.6	---	---	730.0	0.024	0.000	18.8	2	1
03/16/06	1:09 a	-16.5	-16.5	-16.6	---	---	17.4	ENE	0.29	18.3	-28.3	---	---	730.1	0.024	0.000	18.8	2	1
03/16/06	1:10 a	-16.5	-16.5	-16.6	---	---	18.3	ENE	0.30	19.1	-28.5	---	---	730.0	0.024	0.000	18.8	2	1
03/16/06	1:11 a	-16.5	-16.5	-16.6	---	---	18.3	ENE	0.30	20.0	-28.5	---	---	730.0	0.024	0.000	18.8	2	1
03/16/06	1:12 a	-16.5	-16.5	-16.6	---	---	18.3	ENE	0.30	20.0	-28.5	---	---	730.1	0.024	0.000	18.8	2	1
03/16/06	1:13 a	-16.5	-16.5	-16.6	---	---	18.3	ENE	0.30	20.0	-28.5	---	---	730.0	0.024	0.000	18.8	2	1
03/16/06	1:14 a	-16.5	-16.5	-16.5	---	---	19.1	ENE	0.32	20.0	-28.7	---	---	730.0	0.024	0.000	18.8	2	1
03/16/06	1:15 a	-16.5	-16.5	-16.6	---	---	18.3	ENE	0.30	20.0	-28.5	---	---	730.0	0.024	0.000	18.8	2	1
03/16/06	1:16 a	-16.5	-16.5	-16.5	---	---	18.3	ENE	0.30	20.0	-28.5	---	---	730.0	0.024	0.000	18.8	2	1
03/16/06	1:17 a	-16.5	-16.4	-16.5	---	---	18.3	ENE	0.30	20.9	-28.5	---	---	730.0	0.024	0.000	18.9	2	1
03/16/06	1:18 a	-16.5	-16.5	-16.5	---	---	19.1	ENE	0.32	20.0	-28.7	---	---	730.0	0.024	0.000	18.9	2	1
03/16/06	1:19 a	-16.5	-16.5	-16.5	---	---	19.1	E	0.32	21.7	-28.7	---	---	730.0	0.024	0.000	18.9	2	1
03/16/06	1:20 a	-16.5	-16.5	-16.5	---	---	19.1	ENE	0.32	20.9	-28.7	---	---	729.9	0.024	0.000	18.9	2	1
03/16/06	1:21 a	-16.5	-16.5	-16.5	---	---	19.1	ENE	0.32	20.9	-28.7	---	---	729.9	0.024	0.000	18.9	2	1
03/16/06	1:22 a	-16.5	-16.5	-16.5	---	---	20.0	ENE	0.33	20.9	-28.9	---	---	730.0	0.024	0.000	18.9	2	1
03/16/06	1:23 a	-16.5	-16.5	-16.5	---	---	18.3	E	0.30	20.9	-28.5	---	---	730.0	0.024	0.000	18.9	2	1
03/16/06	1:24 a	-16.5	-16.5	-16.5	---	---	20.0	ENE	0.33	22.6	-28.9	---	---	729.9	0.024	0.000	18.9	2	1
03/16/06	1:25 a	-16.5	-16.4	-16.5	---	---	20.0	ENE	0.33	22.6	-28.9	---	---	729.9	0.024	0.000	18.9	2	1
03/16/06	1:26 a	-16.5	-16.5	-16.5	---	---	19.1	ENE	0.32	21.7	-28.7	---	---	730.0	0.024	0.000	18.9	2	1
03/16/06	1:27 a	-16.5	-16.5	-16.5	---	---	20.0	ENE	0.33	21.7	-28.9	---	---	730.0	0.024	0.000	18.9	2	1
03/16/06	1:28 a	-16.5	-16.5	-16.5	---	---	20.0	ENE	0.33	22.6	-28.9	---	---	730.0	0.024	0.000	18.9	2	1
03/16/06	1:29 a	-16.5	-16.5	-16.6	---	---	21.7	ENE	0.36	22.6	-29.4	---	---	729.9	0.024	0.000	18.9	2	1
03/16/06	1:30 a	-16.5	-16.5	-16.6	---	---	20.0	E	0.33	22.6	-28.9	---	---	730.0	0.024	0.000	18.9	2	1
03/16/06	1:31 a	-16.6	-16.5	-16.6	---	---	20.0	E	0.33	21.7	-29.1	---	---	729.9	0.024	0.000	18.9	2	1
03/16/06	1:32 a	-16.5	-16.5	-16.5	---	---	18.3	E	0.30	20.9	-28.5	---	---	729.9	0.024	0.000	18.9	2	1
03/16/06	1:33 a	-16.6	-16.5	-16.6	---	---	20.0	ENE	0.33	21.7	-29.1	---	---	729.9	0.024	0.000	18.9	2	1
03/16/06	1:34 a	-16.5	-16.5	-16.6	---	---	19.1	E	0.32	20.9	-28.7	---	---	729.9	0.024	0.000	19.0	2	1
03/16/06	1:35 a	-16.6	-16.6	-16.6	---	---	19.1	ENE	0.32	20.9	-28.8	---	---	729.9	0.024	0.000	18.9	2	1
03/16/06	1:36 a	-16.6	-16.5	-16.6	---	---	20.0	ENE	0.33	21.7	-29.1	---	---	729.9	0.024	0.000	19.0	2	1
03/16/06	1:37 a	-16.5	-16.5	-16.6	---	---	20.0	ENE	0.33	22.6	-28.9	---	---	730.0	0.024	0.000	19.0	2	1
03/16/06	1:38 a	-16.6	-16.6	-16.6	---	---	20.0	ENE	0.33	21.7	-29.1	---	---	729.9	0.024	0.000	19.0	2	1
03/16/06	1:39 a	-16.6	-16.6	-16.6	---	---	19.1	E	0.32	21.7	-28.8	---	---	730.0	0.024	0.000	19.0	2	1
03/16/06	1:40 a	-16.6	-16.6	-16.6	---	---	19.1	E	0.32	20.9	-28.8	---	---	729.9	0.024	0.000	19.0	2	1
03/16/06	1:41 a	-16.6	-16.6	-16.6	---	---	20.0	E	0.33	21.7	-29.1	---	---	730.0	0.024	0.000	19.0	2	1
03/16/06	1:42 a	-16.6	-16.6	-16.6	---	---	20.9	ENE	0.35	22.6	-29.3	---	---	729.9	0.024	0.000	19.0	2	1
03/16/06	1:43 a	-16.6	-16.6	-16.6	---	---	20.0	E	0.33	21.7	-29.1	---	---	729.9	0.024	0.000	19.0	2	1
03/16/06	1:44 a	-16.6	-16.6	-16.6	---	---	20.0	E	0.33	22.6	-29.1	---	---	729.9	0.024	0.000	19.0	2	1
03/16/06	1:45 a	-16.6	-16.6	-16.6	---	---	20.0	E	0.33	22.6	-29.1	---	---	729.9	0.024	0.000	19.0	2	1
03/16/06	1:46 a	-16.6	-16.6	-16.6	---	---	18.3	E	0.30	21.7	-28.6	---	---	730.0	0.024	0.000	19.0	2	1
03/16/06	1:47 a	-16.6	-16.6	-16.6	---	---	19.1	E	0.32	21.7	-28.9	---	---	729.9	0.024	0.000	19.0	2	1
03/16/06	1:48 a	-16.6	-16.6	-16.6	---	---	20.0	E	0.33	22.6	-29.1	---	---	730.0	0.024	0.000	19.1	2	1
03/16/06	1:49 a	-16.6	-16.6	-16.6	---	---	20.9	E	0.35	22.6	-29.3	---	---	729.9	0.024	0.000	19.0	2	1
03/16/06	1:50 a	-16.6	-16.6	-16.6	---	---	20.9	E	0.35	22.6	-29.3	---	---	730.0	0.024	0.000	19.1	2	1
03/16/06	1:51 a	-16.6	-16.6	-16.6	---	---	22.6	ENE	0.38	23.5	-29.8	---	---	729.9	0.024	0.000	19.0	2	1
03/16/06	1:52 a	-16.6	-16.6	-16.6	---	---	20.9	ENE	0.35	23.5	-29.3	---	---	729.9	0.024	0.000	19.0	2	1
03/16/06	1:53 a	-16.6	-16.6	-16.6	---	---	21.7	ENE	0.36	24.3	-29.6	---	---	730.0	0.024	0.000	19.1	2	1
03/16/06	1:54 a	-16.6	-16.6	-16.6	---	---	21.7	ENE	0.36	23.5	-29.6	---	---	730.0	0.024	0.000	19.1	2	1
03/16/06	1:55 a	-16.6	-16.6	-16.6	---	---	21.7	ENE	0.36	24.3	-29.6	---	---	730.0	0.024	0.000	19.1	2	1
03/16/06	1:56 a	-16.6	-16.6	-16.6	---	---	21.7	ENE	0.36	23.5	-29.6	---	---	730.0	0.024	0.000	19.1	2	1
03/16/06	1:57 a	-16.6	-16.6	-16.6	---	---	21.7	ENE	0.36	23.5	-29.6	---	---	730.0	0.024	0.000	19.1	2	1
03/16/06	1:58 a	-16.6	-16.6	-16.7	---	---	21.7	ENE	0.36	23.5	-29.6	---	---	730.0	0.024	0.000	19.0	2	1
03/16/06	1:59 a	-16.6	-16.6	-16.6	---	---	21.7	ENE	0.36	23.5	-29.6	---	---	730.1	0.024	0.000	19.0	2	1
03/16/06	2:00 a	-16.6	-16.6	-16.6	---	---	20.9	E	0.35	22.6	-29.3	---	---	730.1	0.024	0.000	19.1	2	1
03/16/06	2:01 a	-16.6	-16.6	-16.6	---	---	20.0	ENE	0.33	22.6	-29.1	---	---	730.1	0.024	0.000	19.1	2	1
03/16/06	2:02 a	-16.6	-16.6	-16.6	---	---	20.9	ENE	0.35	21.7	-29.3	---	---	730.2	0.024	0.000	19.1	2	1
03/16/06	2:03 a	-16.6	-16.6	-16.6	---	---	20.9	ENE	0.35	22.6	-29.3	---	---	730.2	0.024	0.000	19.1	2	1
03/16/06	2:04 a	-16.6	-16.6	-16.6	---	---	20.9	ENE	0.35	21.7	-29.3	---	---	730.2	0.024	0.000	19.1	2	1
03/16/06	2:05 a	-16.6	-16.6	-16.6	---	---	21.7	ENE	0.36	24.3	-29.5	---	---	730.1	0.024	0.000	19.1	2	1
03/16/06	2:06 a	-16.6	-16.6	-16.6	---	---	21.7	ENE	0.36	23.5	-29.5	---	---	730.0	0.024	0.000	19.1	2	1
03/16/06	2:07 a	-16.6	-16.6	-16.6	---	---	21.7	ENE	0.36	23.5	-29.5	---	---	730.0	0.024	0.000	19.1	2	1
03/16/06	2:08 a	-16.6	-16.6	-16.6	---	---	21.7	ENE	0.36	22.6	-29.5	---	---	730.0	0.024	0.000	19.1	2	1
03/16/06	2:09 a	-16.5	-16.5	-16.5	---	---	20.0	ENE	0.33	22.6	-28.9	---	---	730.0	0.024	0.000	19.1	2	1
03/16/06	2:10 a	-16.5	-16.4	-16.5	---	---	21.7	ENE	0.36	23.5	-29.4	---	---	730.1	0.024	0.000	19.1	2	1
03/16/06	2:11 a	-16.4	-16.4	-16.5	---	---	20.9	ENE	0.35	23.5	-29.1	---	---	730.1	0.024	0.000	19.1	2	1
03/16/06	2:12 a	-16.4	-16.4	-16.4	---	---	20.9	ENE	0.35	22.6	-29.1	---	---	730.1	0.024	0.000	19.1	2	1
03/16/06	2:13 a	-16.4	-16.4	-16.4	---	---	20.9	ENE	0.35	22.6	-29.1	---	---	730.1	0.024	0.000	19.1	2	1
03/16/06	2:14 a	-16.4	-16.4	-16.4	---	---	20.9	ENE	0.35	22.6	-29.1	---	---	730.1	0.024	0.000	19.1	2	1
03/16/06	2:15 a	-16.3	-16.3	-16.4	---	---	21.7	ENE	0.36	22.6	-29.2	---	---	730.1	0.024	0.000	19.1	2	1
03/16/06	2:16 a	-16.3	-16.3	-16.3	---	---	21.7	ENE	0.36	23.5	-29.2	---	---	730.0	0.024	0.000	19.1	2	1
03/16/06	2:17 a	-16.3	-16.3	-16.3	---	---	20.9	ENE	0.35	23.5	-28.9	---	---	730.2	0.024	0.000	19.1	2	1
03/16/06	2:18 a	-16.3	-16.2	-16.3	---	---	20.9	ENE	0.35	22.6	-28.9	---	---	730.1	0.024	0.000	19.1	2	1
03/16/06	2:19 a	-16.2	-16.2	-16.3	---	---	19.1	ENE	0.32	20.9	-28.4	---	---	730.2	0.024	0.000	19.1	2	1
03/16/06	2:20 a	-16.3	-16.2	-16.3	---	---	20.0	E	0.33	22.6	-28.7	---	---	730.3	0.024	0.000	19.1	2	1
03/16/06	2:21 a	-16.3	-16.2	-16.3	---	---	20.0	ENE	0.33	21.7	-28.7	---	---	730.1	0.024	0.000	19.1	2	1
03/16/06	2:22 a	-16.3	-16.2	-16.3	---	---	21.7	ENE	0.36	23.5	-29.1	---	---	730.1	0.024	0.000	19.1	2	1
03/16/06	2:23 a	-16.2	-16.2	-16.2	---	---	20.9	ENE	0.35	22.6	-28.8	---	---	730.1	0.024	0.000	19.1	2	1
03/16/06	2:24 a	-16.2	-16.2	-16.2	---	---	20.9	ENE	0.35	22.6	-28.7	---	---	730.0	0.024	0.000	19.1	2	1
03/16/06	2:25 a	-16.1	-16.1	-16.2	---	---	21.7	ENE	0.36	22.6	-28.9	---	---	730.1	0.024	0.000	19.1	2	1
03/16/06	2:26 a	-16.1	-16.1	-16.1	---	---	21.7	ENE	0.36	22.6	-28.9	---	---	730.1	0.024	0.000	19.1	2	1
03/16/06	2:27 a	-16.1	-16.1	-16.1	---	---	21.7	ENE	0.36	23.5	-28.8	---	---	730.0	0.024	0.000	19.1	2	1
03/16/06	2:28 a	-16.1	-16.1	-16.1	---	---	21.7	ENE	0.36	22.6	-28.8	---	---	730.1	0.024	0.000	19.1	2	1
03/16/06	2:29 a	-16.0	-16.0	-16.1	---	---	20.0	ENE	0.33	21.7	-28.3	---	---	730.1	0.024	0.000	19.2	2	1
03/16/06	2:30 a	-16.0	-16.0	-16.0	---	---	20.9	ENE	0.35	21.7	-28.5	---	---	730.1	0.024	0.000	19.2	2	1
03/16/06	2:31 a	-16.0	-16.0	-16.1	---	---	20.0	ENE	0.33	21.7	-28.3	---	---	730.1	0.024	0.000	19.1	2	1
03/16/06	2:32 a	-16.1	-16.0	-16.1	---	---	20.9	ENE	0.35	22.6	-28.6	---	---	730.2	0.024	0.000	19.2	2	1
03/16/06	2:33 a	-16.1	-16.1	-16.1	---	---	20.0	ENE	0.33	21.7	-28.4	---	---	730.2	0.024	0.000	19.2	2	1
03/16/06	2:34 a	-16.1	-16.1	-16.1	---	---	20.0	ENE	0.33	20.9	-28.4	---	---	730.0	0.024	0.000	19.2	2	1
03/16/06	2:35 a	-16.1	-16.1	-16.1	---	---	20.9	ENE	0.35	22.6	-28.6	---	---	730.1	0.024	0.000	19.2	2	1
03/16/06	2:36 a	-16.1	-16.1	-16.1	---	---	21.7	ENE	0.36	22.6	-28.8	---	---	730.1	0.024	0.000	19.2	2	1
03/16/06	2:37 a	-16.1	-16.1	-16.1	---	---	20.9	ENE	0.35	22.6	-28.6	---	---	730.1	0.024	0.000	19.2	2	1
03/16/06	2:38 a	-16.1	-16.1	-16.1	---	---	22.6	ENE	0.38	23.5	-29.1	---	---	730.0	0.024	0.000	19.2	2	1
03/16/06	2:39 a	-16.2	-16.1	-16.2	---	---	22.6	ENE	0.38	24.3	-29.2	---	---	730.0	0.024	0.000	19.2	2	1
03/16/06	2:40 a	-16.2	-16.2	-16.2	---	---	20.9	ENE	0.35	22.6	-28.8	---	---	730.1	0.024	0.000	19.2	2	1
03/16/06	2:41 a	-16.2	-16.2	-16.3	---	---	21.7	ENE	0.36	23.5	-29.1	---	---	730.1	0.024	0.000	19.2	2	1
03/16/06	2:42 a	-16.3	-16.3	-16.3	---	---	21.7	ENE	0.36	23.5	-29.1	---	---	730.1	0.024	0.000	19.2	2	1
03/16/06	2:43 a	-16.3	-16.3	-16.3	---	---	20.9	ENE	0.35	22.6	-28.9	---	---	730.0	0.024	0.000	19.1	2	1
03/16/06	2:44 a	-16.4	-16.3	-16.4	---	---	21.7	ENE	0.36	22.6	-29.3	---	---	730.1	0.024	0.000	19.1	2	1
03/16/06	2:45 a	-16.4	-16.4	-16.4	---	---	21.7	ENE	0.36	22.6	-29.3	---	---	730.0	0.024	0.000	19.1	2	1
03/16/06	2:46 a	-16.5	-16.4	-16.6	---	---	21.7	ENE	0.36	23.5	-29.4	---	---	730.0	0.024	0.000	19.1	2	1
03/16/06	2:47 a	-16.6	-16.5	-16.6	---	---	21.7	ENE	0.36	23.5	-29.5	---	---	730.2	0.024	0.000	19.1	2	1
03/16/06	2:48 a	-16.6	-16.6	-16.6	---	---	21.7	ENE	0.36	23.5	-29.5	---	---	730.1	0.024	0.000	19.1	2	1
03/16/06	2:49 a	-16.7	-16.6	-16.7	---	---	21.7	ENE	0.36	22.6	-29.6	---	---	730.1	0.024	0.000	19.1	3	1
03/16/06	2:50 a	-16.7	-16.7	-16.7	---	---	21.7	ENE	0.36	22.6	-29.6	---	---	730.2	0.024	0.000	19.1	3	1
03/16/06	2:51 a	-16.8	-16.7	-16.8	---	---	21.7	ENE	0.36	23.5	-29.8	---	---	730.1	0.024	0.000	19.1	3	1
03/16/06	2:52 a	-16.8	-16.8	-16.9	---	---	21.7	ENE	0.36	22.6	-29.8	---	---	730.1	0.024	0.000	19.1	3	1
03/16/06	2:53 a	-16.9	-16.9	-16.9	---	---	21.7	ENE	0.36	23.5	-29.9	---	---	730.1	0.024	0.000	19.2	3	1
03/16/06	2:54 a	-16.9	-16.9	-16.9	---	---	21.7	ENE	0.36	23.5	-30.0	---	---	730.1	0.024	0.000	19.1	3	1
03/16/06	2:55 a	-17.0	-17.0	-17.1	---	---	21.7	ENE	0.36	22.6	-30.1	---	---	730.0	0.025	0.000	19.1	3	1
03/16/06	2:56 a	-17.1	-17.1	-17.1	---	---	21.7	ENE	0.36	22.6	-30.2	---	---	730.3	0.025	0.000	19.2	3	1
03/16/06	2:57 a	-17.2	-17.1	-17.2	---	---	21.7	ENE	0.36	24.3	-30.3	---	---	730.1	0.025	0.000	19.2	3	1
03/16/06	2:58 a	-17.2	-17.2	-17.2	---	---	20.9	ENE	0.35	22.6	-30.1	---	---	730.0	0.025	0.000	19.2	3	1
03/16/06	2:59 a	-17.3	-17.2	-17.3	---	---	21.7	ENE	0.36	22.6	-30.4	---	---	730.0	0.025	0.000	19.2	3	1
03/16/06	3:00 a	-17.3	-17.3	-17.4	---	---	20.9	ENE	0.35	22.6	-30.3	---	---	730.0	0.025	0.000	19.2	3	1
03/16/06	3:01 a	-17.4	-17.3	-17.4	---	---	21.7	ENE	0.36	22.6	-30.6	---	---	730.2	0.025	0.000	19.2	3	1
03/16/06	3:02 a	-17.4	-17.4	-17.5	---	---	21.7	ENE	0.36	23.5	-30.7	---	---	730.0	0.025	0.000	19.1	3	1
03/16/06	3:03 a	-17.6	-17.5	-17.6	---	---	21.7	ENE	0.36	23.5	-30.8	---	---	730.1	0.025	0.000	19.1	3	1
03/16/06	3:04 a	-17.6	-17.6	-17.6	---	---	21.7	ENE	0.36	23.5	-30.9	---	---	730.1	0.025	0.000	19.1	3	1
03/16/06	3:05 a	-17.7	-17.6	-17.7	---	---	21.7	ENE	0.36	23.5	-30.9	---	---	730.1	0.025	0.000	19.1	3	1
03/16/06	3:06 a	-17.7	-17.7	-17.7	---	---	22.6	ENE	0.38	23.5	-31.2	---	---	730.1	0.025	0.000	19.1	3	1
03/16/06	3:07 a	-17.7	-17.7	-17.8	---	---	21.7	ENE	0.36	22.6	-31.1	---	---	730.1	0.025	0.000	19.1	3	1
03/16/06	3:08 a	-17.8	-17.8	-17.9	---	---	21.7	ENE	0.36	22.6	-31.2	---	---	730.1	0.025	0.000	19.1	3	1
03/16/06	3:09 a	-17.9	-17.9	-17.9	---	---	21.7	ENE	0.36	22.6	-31.3	---	---	730.1	0.025	0.000	19.1	3	1
03/16/06	3:10 a	-17.9	-17.9	-18.0	---	---	21.7	ENE	0.36	23.5	-31.3	---	---	730.1	0.025	0.000	19.1	3	1
03/16/06	3:11 a	-18.0	-17.9	-18.0	---	---	21.7	ENE	0.36	23.5	-31.4	---	---	730.1	0.025	0.000	19.1	3	1
03/16/06	3:12 a	-18.1	-18.0	-18.1	---	---	20.9	ENE	0.35	22.6	-31.3	---	---	730.0	0.025	0.000	19.1	3	1
03/16/06	3:13 a	-18.1	-18.1	-18.1	---	---	20.9	ENE	0.35	23.5	-31.3	---	---	730.1	0.025	0.000	19.1	3	1
03/16/06	3:14 a	-18.2	-18.1	-18.2	---	---	21.7	ENE	0.36	23.5	-31.6	---	---	730.0	0.025	0.000	19.2	3	1
03/16/06	3:15 a	-18.2	-18.2	-18.2	---	---	21.7	ENE	0.36	23.5	-31.7	---	---	730.0	0.025	0.000	19.2	3	1
03/16/06	3:16 a	-18.2	-18.2	-18.3	---	---	21.7	ENE	0.36	23.5	-31.7	---	---	730.0	0.025	0.000	19.2	3	1
03/16/06	3:17 a	-18.3	-18.3	-18.3	---	---	21.7	ENE	0.36	23.5	-31.8	---	---	730.1	0.025	0.000	19.2	3	1
03/16/06	3:18 a	-18.3	-18.3	-18.3	---	---	20.9	ENE	0.35	22.6	-31.6	---	---	730.0	0.025	0.000	19.2	3	1
03/16/06	3:19 a	-18.4	-18.4	-18.4	---	---	20.9	ENE	0.35	23.5	-31.7	---	---	730.0	0.026	0.000	19.2	3	1
03/16/06	3:20 a	-18.4	-18.4	-18.4	---	---	21.7	ENE	0.36	23.5	-32.0	---	---	730.0	0.026	0.000	19.2	3	1
03/16/06	3:21 a	-18.4	-18.4	-18.5	---	---	21.7	ENE	0.36	23.5	-32.0	---	---	730.0	0.026	0.000	19.2	3	1
03/16/06	3:22 a	-18.6	-18.5	-18.6	---	---	21.7	ENE	0.36	22.6	-32.2	---	---	730.0	0.026	0.000	19.2	3	1
03/16/06	3:23 a	-18.6	-18.6	-18.6	---	---	21.7	ENE	0.36	22.6	-32.2	---	---	730.0	0.026	0.000	19.2	3	1
03/16/06	3:24 a	-18.6	-18.6	-18.7	---	---	20.9	ENE	0.35	22.6	-32.0	---	---	730.0	0.026	0.000	19.2	3	1
03/16/06	3:25 a	-18.7	-18.6	-18.7	---	---	20.9	ENE	0.35	22.6	-32.1	---	---	730.0	0.026	0.000	19.2	3	1
03/16/06	3:26 a	-18.7	-18.7	-18.7	---	---	20.9	NE	0.35	21.7	-32.1	---	---	730.0	0.026	0.000	19.3	3	1
03/16/06	3:27 a	-18.7	-18.7	-18.8	---	---	20.0	NE	0.33	21.7	-31.9	---	---	730.0	0.026	0.000	19.3	3	1
03/16/06	3:28 a	-18.8	-18.8	-18.8	---	---	20.9	ENE	0.35	21.7	-32.2	---	---	730.0	0.026	0.000	19.3	3	1
03/16/06	3:29 a	-18.8	-18.8	-18.8	---	---	20.9	ENE	0.35	22.6	-32.3	---	---	729.9	0.026	0.000	19.3	3	1
03/16/06	3:30 a	-18.8	-18.8	-18.9	---	---	20.0	ENE	0.33	22.6	-32.1	---	---	730.0	0.026	0.000	19.3	3	1
03/16/06	3:31 a	-18.9	-18.9	-18.9	---	---	20.0	ENE	0.33	21.7	-32.2	---	---	730.0	0.026	0.000	19.2	3	1
03/16/06	3:32 a	-18.9	-18.9	-18.9	---	---	20.0	ENE	0.33	21.7	-32.2	---	---	729.9	0.026	0.000	19.2	3	1
03/16/06	3:33 a	-18.9	-18.9	-18.9	---	---	20.0	ENE	0.33	21.7	-32.2	---	---	730.0	0.026	0.000	19.2	3	1
03/16/06	3:34 a	-19.0	-18.9	-19.0	---	---	20.0	ENE	0.33	20.9	-32.3	---	---	730.0	0.026	0.000	19.2	3	1
03/16/06	3:35 a	-19.0	-19.0	-19.0	---	---	20.0	ENE	0.33	20.9	-32.3	---	---	730.0	0.026	0.000	19.3	3	1
03/16/06	3:36 a	-19.1	-19.0	-19.1	---	---	20.0	ENE	0.33	21.7	-32.4	---	---	730.0	0.026	0.000	19.3	3	1
03/16/06	3:37 a	-19.1	-19.0	-19.1	---	---	19.1	ENE	0.32	20.9	-32.1	---	---	730.0	0.026	0.000	19.3	3	1
03/16/06	3:38 a	-19.1	-19.1	-19.1	---	---	20.9	ENE	0.35	21.7	-32.6	---	---	730.0	0.026	0.000	19.3	3	1
03/16/06	3:39 a	-19.1	-19.1	-19.1	---	---	19.1	ENE	0.32	21.7	-32.2	---	---	730.0	0.026	0.000	19.3	3	1
03/16/06	3:40 a	-19.1	-19.1	-19.2	---	---	20.0	ENE	0.33	20.9	-32.4	---	---	730.0	0.026	0.000	19.3	3	1
03/16/06	3:41 a	-19.2	-19.2	-19.2	---	---	20.0	ENE	0.33	21.7	-32.5	---	---	730.1	0.026	0.000	19.3	3	1
03/16/06	3:42 a	-19.2	-19.2	-19.2	---	---	20.0	ENE	0.33	21.7	-32.5	---	---	730.0	0.026	0.000	19.3	3	1
03/16/06	3:43 a	-19.2	-19.2	-19.2	---	---	19.1	ENE	0.32	20.9	-32.3	---	---	729.9	0.026	0.000	19.3	3	1
03/16/06	3:44 a	-19.2	-19.2	-19.2	---	---	20.0	ENE	0.33	21.7	-32.6	---	---	730.0	0.026	0.000	19.3	3	1
03/16/06	3:45 a	-19.2	-19.2	-19.3	---	---	20.0	ENE	0.33	21.7	-32.6	---	---	730.0	0.026	0.000	19.3	3	1
03/16/06	3:46 a	-19.3	-19.2	-19.3	---	---	20.9	ENE	0.35	21.7	-32.9	---	---	730.0	0.026	0.000	19.3	3	1
03/16/06	3:47 a	-19.3	-19.3	-19.3	---	---	20.0	ENE	0.33	21.7	-32.7	---	---	730.0	0.026	0.000	19.3	3	1
03/16/06	3:48 a	-19.3	-19.3	-19.3	---	---	20.9	ENE	0.35	22.6	-32.9	---	---	730.0	0.026	0.000	19.3	3	1
03/16/06	3:49 a	-19.3	-19.3	-19.3	---	---	20.0	ENE	0.33	21.7	-32.7	---	---	730.0	0.026	0.000	19.2	3	1
03/16/06	3:50 a	-19.3	-19.3	-19.3	---	---	20.0	ENE	0.33	22.6	-32.7	---	---	730.0	0.026	0.000	19.2	3	1
03/16/06	3:51 a	-19.3	-19.3	-19.3	---	---	20.0	ENE	0.33	20.9	-32.7	---	---	730.0	0.026	0.000	19.2	3	1
03/16/06	3:52 a	-19.3	-19.3	-19.3	---	---	19.1	ENE	0.32	20.9	-32.5	---	---	730.0	0.026	0.000	19.2	3	1
03/16/06	3:53 a	-19.3	-19.3	-19.3	---	---	19.1	ENE	0.32	20.9	-32.5	---	---	730.1	0.026	0.000	19.2	3	1
03/16/06	3:54 a	-19.3	-19.3	-19.4	---	---	20.9	ENE	0.35	22.6	-32.9	---	---	730.0	0.026	0.000	19.2	3	1
03/16/06	3:55 a	-19.3	-19.3	-19.4	---	---	20.0	ENE	0.33	20.9	-32.7	---	---	730.0	0.026	0.000	19.2	3	1
03/16/06	3:56 a	-19.4	-19.3	-19.4	---	---	20.9	ENE	0.35	22.6	-33.1	---	---	730.1	0.026	0.000	19.2	3	1
03/16/06	3:57 a	-19.4	-19.3	-19.4	---	---	18.3	ENE	0.30	20.0	-32.3	---	---	730.0	0.026	0.000	19.2	3	1
03/16/06	3:58 a	-19.4	-19.4	-19.4	---	---	20.0	ENE	0.33	21.7	-32.8	---	---	730.0	0.026	0.000	19.2	3	1
03/16/06	3:59 a	-19.4	-19.4	-19.4	---	---	20.0	ENE	0.33	22.6	-32.8	---	---	730.0	0.026	0.000	19.2	3	1
03/16/06	4:00 a	-19.4	-19.4	-19.4	---	---	20.9	ENE	0.35	21.7	-33.1	---	---	730.1	0.026	0.000	19.2	3	1
03/16/06	4:01 a	-19.4	-19.4	-19.4	---	---	20.9	ENE	0.35	21.7	-33.1	---	---	730.0	0.026	0.000	19.2	3	1
03/16/06	4:02 a	-19.4	-19.4	-19.4	---	---	20.9	ENE	0.35	22.6	-33.1	---	---	730.0	0.026	0.000	19.2	3	1
03/16/06	4:03 a	-19.4	-19.4	-19.4	---	---	20.9	ENE	0.35	21.7	-33.1	---	---	730.0	0.026	0.000	19.2	3	1
03/16/06	4:04 a	-19.4	-19.4	-19.4	---	---	20.9	ENE	0.35	23.5	-33.1	---	---	730.0	0.026	0.000	19.2	3	1
03/16/06	4:05 a	-19.4	-19.4	-19.5	---	---	20.9	ENE	0.35	21.7	-33.1	---	---	730.1	0.026	0.000	19.2	3	1
03/16/06	4:06 a	-19.5	-19.4	-19.5	---	---	20.9	ENE	0.35	23.5	-33.2	---	---	730.0	0.026	0.000	19.2	3	1
03/16/06	4:07 a	-19.5	-19.5	-19.5	---	---	21.7	ENE	0.36	24.3	-33.4	---	---	730.0	0.026	0.000	19.2	3	1
03/16/06	4:08 a	-19.5	-19.5	-19.5	---	---	20.9	ENE	0.35	23.5	-33.2	---	---	730.0	0.026	0.000	19.2	3	1
03/16/06	4:09 a	-19.5	-19.5	-19.5	---	---	20.9	ENE	0.35	22.6	-33.2	---	---	730.1	0.026	0.000	19.2	3	1
03/16/06	4:10 a	-19.5	-19.5	-19.5	---	---	20.9	ENE	0.35	22.6	-33.2	---	---	730.0	0.026	0.000	19.2	3	1
03/16/06	4:11 a	-19.5	-19.5	-19.6	---	---	20.0	ENE	0.33	21.7	-32.9	---	---	730.0	0.026	0.000	19.2	3	1
03/16/06	4:12 a	-19.5	-19.5	-19.6	---	---	20.9	ENE	0.35	23.5	-33.2	---	---	730.1	0.026	0.000	19.2	3	1
03/16/06	4:13 a	-19.6	-19.5	-19.6	---	---	21.7	ENE	0.36	22.6	-33.5	---	---	730.0	0.026	0.000	19.2	3	1
03/16/06	4:14 a	-19.6	-19.6	-19.6	---	---	20.9	ENE	0.35	22.6	-33.3	---	---	730.0	0.026	0.000	19.2	3	1
03/16/06	4:15 a	-19.6	-19.5	-19.6	---	---	20.0	ENE	0.33	22.6	-33.0	---	---	730.1	0.026	0.000	19.2	3	1
03/16/06	4:16 a	-19.6	-19.6	-19.6	---	---	20.9	ENE	0.35	21.7	-33.3	---	---	730.0	0.026	0.000	19.2	3	1
03/16/06	4:17 a	-19.6	-19.6	-19.6	---	---	20.9	ENE	0.35	22.6	-33.3	---	---	730.0	0.026	0.000	19.2	3	1
03/16/06	4:18 a	-19.6	-19.5	-19.6	---	---	20.9	ENE	0.35	23.5	-33.3	---	---	730.0	0.026	0.000	19.2	3	1
03/16/06	4:19 a	-19.6	-19.5	-19.6	---	---	20.0	ENE	0.33	20.9	-33.0	---	---	730.0	0.026	0.000	19.2	3	1
03/16/06	4:20 a	-19.6	-19.5	-19.6	---	---	20.9	ENE	0.35	22.6	-33.3	---	---	730.0	0.026	0.000	19.2	3	1
03/16/06	4:21 a	-19.6	-19.5	-19.6	---	---	20.9	ENE	0.35	22.6	-33.3	---	---	730.1	0.026	0.000	19.2	3	1
03/16/06	4:22 a	-19.5	-19.5	-19.5	---	---	20.0	ENE	0.33	20.9	-32.9	---	---	730.1	0.026	0.000	19.2	3	1
03/16/06	4:23 a	-19.4	-19.4	-19.4	---	---	20.0	ENE	0.33	21.7	-32.9	---	---	730.0	0.026	0.000	19.2	3	1
03/16/06	4:24 a	-19.4	-19.4	-19.4	---	---	19.1	ENE	0.32	20.9	-32.6	---	---	730.0	0.026	0.000	19.2	3	1
03/16/06	4:25 a	-19.4	-19.4	-19.4	---	---	19.1	ENE	0.32	21.7	-32.6	---	---	730.0	0.026	0.000	19.3	2	1
03/16/06	4:26 a	-19.4	-19.4	-19.4	---	---	20.0	ENE	0.33	20.9	-32.9	---	---	730.1	0.026	0.000	19.3	3	1
03/16/06	4:27 a	-19.4	-19.3	-19.4	---	---	19.1	ENE	0.32	21.7	-32.6	---	---	730.0	0.026	0.000	19.3	3	1
03/16/06	4:28 a	-19.3	-19.3	-19.3	---	---	20.0	ENE	0.33	20.9	-32.7	---	---	730.0	0.026	0.000	19.3	3	1
03/16/06	4:29 a	-19.3	-19.3	-19.3	---	---	19.1	ENE	0.32	20.9	-32.5	---	---	730.0	0.026	0.000	19.3	3	1
03/16/06	4:30 a	-19.3	-19.3	-19.3	---	---	19.1	ENE	0.32	20.9	-32.5	---	---	730.0	0.026	0.000	19.3	3	1
03/16/06	4:31 a	-19.3	-19.3	-19.3	---	---	18.3	ENE	0.30	20.0	-32.2	---	---	730.0	0.026	0.000	19.3	2	1
03/16/06	4:32 a	-19.3	-19.3	-19.3	---	---	18.3	ENE	0.30	20.0	-32.2	---	---	729.9	0.026	0.000	19.3	2	1
03/16/06	4:33 a	-19.3	-19.3	-19.3	---	---	19.1	ENE	0.32	20.9	-32.5	---	---	730.0	0.026	0.000	19.3	2	1
03/16/06	4:34 a	-19.3	-19.3	-19.3	---	---	17.4	ENE	0.29	20.9	-32.0	---	---	730.0	0.026	0.000	19.3	2	1
03/16/06	4:35 a	-19.3	-19.3	-19.3	---	---	18.3	ENE	0.30	21.7	-32.2	---	---	730.0	0.026	0.000	19.3	2	1
03/16/06	4:36 a	-19.3	-19.3	-19.3	---	---	18.3	ENE	0.30	20.0	-32.2	---	---	730.0	0.026	0.000	19.3	2	1
03/16/06	4:37 a	-19.3	-19.3	-19.3	---	---	19.1	ENE	0.32	20.9	-32.4	---	---	730.0	0.026	0.000	19.3	2	1
03/16/06	4:38 a	-19.3	-19.3	-19.3	---	---	17.4	ENE	0.29	21.7	-31.9	---	---	730.0	0.026	0.000	19.3	2	1
03/16/06	4:39 a	-19.3	-19.3	-19.3	---	---	19.1	ENE	0.32	22.6	-32.4	---	---	730.1	0.026	0.000	19.3	2	1
03/16/06	4:40 a	-19.3	-19.3	-19.3	---	---	16.5	ENE	0.28	21.7	-31.7	---	---	730.1	0.026	0.000	19.3	2	1
03/16/06	4:41 a	-19.3	-19.2	-19.3	---	---	18.3	ENE	0.30	23.5	-32.2	---	---	730.0	0.026	0.000	19.3	2	1
03/16/06	4:42 a	-19.2	-19.2	-19.3	---	---	17.4	ENE	0.29	22.6	-31.8	---	---	730.1	0.026	0.000	19.3	2	1
03/16/06	4:43 a	-19.2	-19.2	-19.3	---	---	17.4	ENE	0.29	20.9	-31.8	---	---	730.0	0.026	0.000	19.3	2	1
03/16/06	4:44 a	-19.3	-19.2	-19.3	---	---	18.3	ENE	0.30	21.7	-32.2	---	---	730.0	0.026	0.000	19.3	2	1
03/16/06	4:45 a	-19.3	-19.3	-19.3	---	---	14.8	ENE	0.25	20.0	-31.1	---	---	730.1	0.026	0.000	19.3	2	1
03/16/06	4:46 a	-19.3	-19.3	-19.3	---	---	16.5	ENE	0.28	20.9	-31.7	---	---	730.1	0.026	0.000	19.3	2	1
03/16/06	4:47 a	-19.3	-19.3	-19.3	---	---	17.4	ENE	0.29	20.0	-31.9	---	---	730.0	0.026	0.000	19.3	2	1
03/16/06	4:48 a	-19.3	-19.3	-19.3	---	---	15.7	ENE	0.26	22.6	-31.3	---	---	730.0	0.026	0.000	19.3	2	1
03/16/06	4:49 a	-19.3	-19.3	-19.3	---	---	17.4	ENE	0.29	22.6	-32.0	---	---	730.1	0.026	0.000	19.2	2	1
03/16/06	4:50 a	-19.3	-19.3	-19.3	---	---	18.3	ENE	0.30	20.9	-32.2	---	---	730.2	0.026	0.000	19.2	2	1
03/16/06	4:51 a	-19.3	-19.3	-19.4	---	---	16.5	ENE	0.28	22.6	-31.7	---	---	729.9	0.026	0.000	19.2	2	1
03/16/06	4:52 a	-19.4	-19.3	-19.4	---	---	17.4	ENE	0.29	21.7	-32.1	---	---	730.1	0.026	0.000	19.2	2	1
03/16/06	4:53 a	-19.4	-19.3	-19.4	---	---	17.4	ENE	0.29	19.1	-32.1	---	---	730.1	0.026	0.000	19.2	2	1
03/16/06	4:54 a	-19.4	-19.4	-19.4	---	---	18.3	ENE	0.30	21.7	-32.3	---	---	730.0	0.026	0.000	19.2	2	1
03/16/06	4:55 a	-19.4	-19.4	-19.4	---	---	19.1	ENE	0.32	20.9	-32.6	---	---	730.0	0.026	0.000	19.2	2	1
03/16/06	4:56 a	-19.4	-19.4	-19.5	---	---	20.0	ENE	0.33	25.2	-32.9	---	---	730.1	0.026	0.000	19.2	2	1
03/16/06	4:57 a	-19.5	-19.4	-19.5	---	---	19.1	ENE	0.32	21.7	-32.7	---	---	730.1	0.026	0.000	19.2	2	1
03/16/06	4:58 a	-19.5	-19.5	-19.5	---	---	19.1	ENE	0.32	21.7	-32.7	---	---	730.1	0.026	0.000	19.2	2	1
03/16/06	4:59 a	-19.5	-19.5	-19.5	---	---	20.0	ENE	0.33	22.6	-32.9	---	---	730.0	0.026	0.000	19.2	2	1
03/16/06	5:00 a	-19.6	-19.5	-19.6	---	---	19.1	ENE	0.32	21.7	-32.8	---	---	730.1	0.026	0.000	19.2	2	1
03/16/06	5:01 a	-19.6	-19.6	-19.6	---	---	20.9	ENE	0.35	22.6	-33.3	---	---	730.1	0.026	0.000	19.2	2	1
03/16/06	5:02 a	-19.6	-19.6	-19.6	---	---	18.3	ENE	0.30	20.9	-32.6	---	---	730.1	0.026	0.000	19.2	2	1
03/16/06	5:03 a	-19.7	-19.6	-19.7	---	---	18.3	ENE	0.30	21.7	-32.7	---	---	730.1	0.026	0.000	19.2	2	1
03/16/06	5:04 a	-19.7	-19.7	-19.7	---	---	17.4	ENE	0.29	19.1	-32.4	---	---	730.1	0.026	0.000	19.2	2	1
03/16/06	5:05 a	-19.7	-19.7	-19.8	---	---	18.3	ENE	0.30	21.7	-32.8	---	---	730.1	0.026	0.000	19.2	2	1
03/16/06	5:06 a	-19.8	-19.8	-19.8	---	---	17.4	ENE	0.29	20.9	-32.6	---	---	730.1	0.026	0.000	19.2	2	1
03/16/06	5:07 a	-19.8	-19.8	-19.8	---	---	17.4	ENE	0.29	19.1	-32.6	---	---	730.2	0.027	0.000	19.2	2	1
03/16/06	5:08 a	-19.8	-19.8	-19.9	---	---	19.1	ENE	0.32	21.7	-33.2	---	---	730.1	0.027	0.000	19.2	2	1
03/16/06	5:09 a	-19.9	-19.9	-19.9	---	---	15.7	ENE	0.26	19.1	-32.2	---	---	730.1	0.027	0.000	19.2	2	1
03/16/06	5:10 a	-20.0	-19.9	-20.0	---	---	18.3	ENE	0.30	20.0	-33.1	---	---	730.2	0.027	0.000	19.2	2	1
03/16/06	5:11 a	-20.0	-20.0	-20.0	---	---	18.3	ENE	0.30	20.9	-33.1	---	---	730.2	0.027	0.000	19.2	2	1
03/16/06	5:12 a	-20.1	-20.0	-20.1	---	---	18.3	ENE	0.30	20.9	-33.2	---	---	730.2	0.027	0.000	19.2	2	1
03/16/06	5:13 a	-20.1	-20.1	-20.2	---	---	18.3	ENE	0.30	20.9	-33.3	---	---	730.1	0.027	0.000	19.2	2	1
03/16/06	5:14 a	-20.2	-20.1	-20.2	---	---	19.1	ENE	0.32	21.7	-33.6	---	---	730.1	0.027	0.000	19.2	2	1
03/16/06	5:15 a	-20.2	-20.2	-20.2	---	---	18.3	ENE	0.30	20.0	-33.4	---	---	730.2	0.027	0.000	19.2	2	1
03/16/06	5:16 a	-20.3	-20.2	-20.3	---	---	19.1	ENE	0.32	21.7	-33.7	---	---	730.1	0.027	0.000	19.2	2	1
03/16/06	5:17 a	-20.3	-20.3	-20.3	---	---	20.0	ENE	0.33	21.7	-34.1	---	---	730.1	0.027	0.000	19.2	2	1
03/16/06	5:18 a	-20.4	-20.3	-20.4	---	---	20.0	ENE	0.33	21.7	-34.1	---	---	730.1	0.027	0.000	19.2	2	1
03/16/06	5:19 a	-20.4	-20.4	-20.4	---	---	21.7	ENE	0.36	23.5	-34.6	---	---	730.1	0.027	0.000	19.2	2	1
03/16/06	5:20 a	-20.4	-20.4	-20.5	---	---	20.0	ENE	0.33	22.6	-34.2	---	---	730.1	0.027	0.000	19.2	2	1
03/16/06	5:21 a	-20.5	-20.5	-20.6	---	---	19.1	ENE	0.32	20.9	-34.1	---	---	730.1	0.027	0.000	19.2	2	1
03/16/06	5:22 a	-20.6	-20.6	-20.6	---	---	20.0	ENE	0.33	21.7	-34.3	---	---	730.1	0.027	0.000	19.2	2	1
03/16/06	5:23 a	-20.6	-20.6	-20.6	---	---	20.0	ENE	0.33	22.6	-34.4	---	---	730.2	0.027	0.000	19.2	2	1
03/16/06	5:24 a	-20.7	-20.7	-20.7	---	---	19.1	ENE	0.32	21.7	-34.3	---	---	730.2	0.027	0.000	19.2	2	1
03/16/06	5:25 a	-20.7	-20.7	-20.8	---	---	19.1	ENE	0.32	20.9	-34.3	---	---	730.2	0.027	0.000	19.2	2	1
03/16/06	5:26 a	-20.8	-20.8	-20.8	---	---	18.3	ENE	0.30	21.7	-34.2	---	---	730.2	0.027	0.000	19.2	2	1
03/16/06	5:27 a	-20.8	-20.8	-20.9	---	---	19.1	ENE	0.32	20.9	-34.5	---	---	730.1	0.027	0.000	19.2	2	1
03/16/06	5:28 a	-20.9	-20.9	-20.9	---	---	18.3	ENE	0.30	20.0	-34.3	---	---	730.2	0.027	0.000	19.2	2	1
03/16/06	5:29 a	-20.9	-20.9	-21.0	---	---	17.4	ENE	0.29	20.0	-34.1	---	---	730.2	0.027	0.000	19.2	2	1
03/16/06	5:30 a	-21.0	-21.0	-21.1	---	---	19.1	ENE	0.32	20.0	-34.7	---	---	730.1	0.027	0.000	19.2	2	1
03/16/06	5:31 a	-21.1	-21.1	-21.1	---	---	19.1	ENE	0.32	20.9	-34.8	---	---	730.1	0.027	0.000	19.2	2	1
03/16/06	5:32 a	-21.2	-21.1	-21.2	---	---	18.3	ENE	0.30	20.9	-34.7	---	---	730.2	0.027	0.000	19.2	2	1
03/16/06	5:33 a	-21.2	-21.2	-21.2	---	---	18.3	ENE	0.30	20.0	-34.7	---	---	730.2	0.027	0.000	19.2	2	1
03/16/06	5:34 a	-21.3	-21.2	-21.3	---	---	17.4	ENE	0.29	20.0	-34.6	---	---	730.2	0.028	0.000	19.2	2	1
03/16/06	5:35 a	-21.3	-21.3	-21.3	---	---	19.1	ENE	0.32	20.9	-35.1	---	---	730.1	0.028	0.000	19.2	2	1
03/16/06	5:36 a	-21.3	-21.3	-21.4	---	---	18.3	ENE	0.30	20.0	-34.9	---	---	730.1	0.028	0.000	19.2	2	1
03/16/06	5:37 a	-21.4	-21.4	-21.4	---	---	18.3	ENE	0.30	20.0	-34.9	---	---	730.2	0.028	0.000	19.2	2	1
03/16/06	5:38 a	-21.4	-21.4	-21.5	---	---	20.0	ENE	0.33	20.9	-35.6	---	---	730.0	0.028	0.000	19.2	2	1
03/16/06	5:39 a	-21.5	-21.5	-21.6	---	---	20.0	ENE	0.33	21.7	-35.6	---	---	730.1	0.028	0.000	19.2	2	1
03/16/06	5:40 a	-21.6	-21.6	-21.7	---	---	20.0	ENE	0.33	22.6	-35.7	---	---	730.0	0.028	0.000	19.2	2	1
03/16/06	5:41 a	-21.7	-21.6	-21.7	---	---	21.7	ENE	0.36	23.5	-36.3	---	---	730.0	0.028	0.000	19.2	2	1
03/16/06	5:42 a	-21.7	-21.7	-21.7	---	---	21.7	ENE	0.36	23.5	-36.3	---	---	730.0	0.028	0.000	19.2	2	1
03/16/06	5:43 a	-21.7	-21.7	-21.8	---	---	22.6	ENE	0.38	24.3	-36.6	---	---	730.0	0.028	0.000	19.2	2	1
03/16/06	5:44 a	-21.8	-21.8	-21.8	---	---	21.7	ENE	0.36	23.5	-36.4	---	---	730.1	0.028	0.000	19.2	2	1
03/16/06	5:45 a	-21.8	-21.8	-21.8	---	---	22.6	ENE	0.38	24.3	-36.8	---	---	730.0	0.028	0.000	19.2	2	1
03/16/06	5:46 a	-21.9	-21.8	-21.9	---	---	22.6	ENE	0.38	24.3	-36.8	---	---	730.0	0.028	0.000	19.2	2	1
03/16/06	5:47 a	-21.9	-21.9	-22.0	---	---	23.5	ENE	0.39	25.2	-37.1	---	---	729.9	0.028	0.000	19.2	2	1
03/16/06	5:48 a	-22.0	-21.9	-22.1	---	---	22.6	ENE	0.38	24.3	-37.0	---	---	730.0	0.028	0.000	19.2	2	1
03/16/06	5:49 a	-22.1	-22.0	-22.1	---	---	22.6	ENE	0.38	24.3	-37.1	---	---	730.0	0.028	0.000	19.2	2	1
03/16/06	5:50 a	-22.1	-22.1	-22.2	---	---	23.5	ENE	0.39	25.2	-37.3	---	---	729.9	0.028	0.000	19.2	2	1
03/16/06	5:51 a	-22.2	-22.2	-22.2	---	---	24.3	ENE	0.41	25.2	-37.7	---	---	730.0	0.028	0.000	19.2	2	1
03/16/06	5:52 a	-22.2	-22.2	-22.2	---	---	24.3	ENE	0.41	26.1	-37.7	---	---	730.0	0.028	0.000	19.2	2	1
03/16/06	5:53 a	-22.2	-22.2	-22.3	---	---	23.5	ENE	0.39	25.2	-37.5	---	---	730.0	0.028	0.000	19.2	2	1
03/16/06	5:54 a	-22.3	-22.3	-22.3	---	---	24.3	ENE	0.41	26.1	-37.8	---	---	730.0	0.028	0.000	19.2	2	1
03/16/06	5:55 a	-22.3	-22.3	-22.3	---	---	24.3	ENE	0.41	26.1	-37.9	---	---	730.0	0.028	0.000	19.2	2	1
03/16/06	5:56 a	-22.4	-22.4	-22.4	---	---	24.3	ENE	0.41	26.1	-37.9	---	---	729.9	0.028	0.000	19.1	2	1
03/16/06	5:57 a	-22.4	-22.4	-22.4	---	---	23.5	ENE	0.39	25.2	-37.8	---	---	730.0	0.028	0.000	19.1	2	1
03/16/06	5:58 a	-22.5	-22.5	-22.5	---	---	24.3	ENE	0.41	25.2	-38.1	---	---	730.0	0.028	0.000	19.1	2	1
03/16/06	5:59 a	-22.5	-22.5	-22.6	---	---	24.3	ENE	0.41	26.1	-38.1	---	---	730.0	0.028	0.000	19.1	1	1
03/16/06	6:00 a	-22.6	-22.6	-22.6	---	---	25.2	ENE	0.42	27.0	-38.4	---	---	730.0	0.028	0.000	19.1	2	1
03/16/06	6:01 a	-22.6	-22.6	-22.6	---	---	24.3	ENE	0.41	26.1	-38.2	---	---	730.0	0.028	0.000	19.1	1	1
03/16/06	6:02 a	-22.7	-22.6	-22.7	---	---	24.3	ENE	0.41	26.1	-38.3	---	---	730.0	0.028	0.000	19.1	1	1
03/16/06	6:03 a	-22.7	-22.7	-22.7	---	---	24.3	ENE	0.41	26.1	-38.4	---	---	730.0	0.029	0.000	19.1	1	1
03/16/06	6:04 a	-22.7	-22.7	-22.7	---	---	25.2	ENE	0.42	26.1	-38.6	---	---	730.1	0.029	0.000	19.1	1	1
03/16/06	6:05 a	-22.8	-22.7	-22.8	---	---	25.2	ENE	0.42	27.8	-38.7	---	---	730.1	0.029	0.000	19.1	1	1
03/16/06	6:06 a	-22.8	-22.8	-22.8	---	---	26.1	ENE	0.43	27.0	-38.9	---	---	730.0	0.029	0.000	19.1	1	1
03/16/06	6:07 a	-22.8	-22.8	-22.9	---	---	25.2	ENE	0.42	26.1	-38.8	---	---	730.0	0.029	0.000	19.1	1	1
03/16/06	6:08 a	-22.9	-22.9	-22.9	---	---	25.2	ENE	0.42	27.0	-38.8	---	---	729.9	0.029	0.000	19.1	1	1
03/16/06	6:09 a	-22.9	-22.9	-22.9	---	---	24.3	ENE	0.41	26.1	-38.7	---	---	730.0	0.029	0.000	19.1	1	1
03/16/06	6:10 a	-22.9	-22.9	-22.9	---	---	26.1	ENE	0.43	27.0	-39.1	---	---	730.0	0.029	0.000	19.1	1	1
03/16/06	6:11 a	-23.0	-22.9	-23.0	---	---	26.1	ENE	0.43	27.0	-39.2	---	---	730.0	0.029	0.000	19.1	1	1
03/16/06	6:12 a	-23.0	-23.0	-23.0	---	---	24.3	ENE	0.41	26.1	-38.8	---	---	730.1	0.029	0.000	19.1	1	1
03/16/06	6:13 a	-23.1	-23.1	-23.1	---	---	24.3	ENE	0.41	26.1	-38.8	---	---	730.1	0.029	0.000	19.1	1	1
03/16/06	6:14 a	-23.1	-23.1	-23.1	---	---	25.2	ENE	0.42	26.1	-39.1	---	---	730.0	0.029	0.000	19.1	1	1
03/16/06	6:15 a	-23.1	-23.1	-23.1	---	---	26.1	ENE	0.43	27.0	-39.3	---	---	730.0	0.029	0.000	19.1	1	1
03/16/06	6:16 a	-23.2	-23.1	-23.2	---	---	25.2	ENE	0.42	26.1	-39.2	---	---	730.1	0.029	0.000	19.1	1	1
03/16/06	6:17 a	-23.2	-23.2	-23.2	---	---	24.3	ENE	0.41	26.1	-39.0	---	---	730.0	0.029	0.000	19.1	1	1
03/16/06	6:18 a	-23.2	-23.2	-23.2	---	---	26.1	ENE	0.43	27.8	-39.5	---	---	730.0	0.029	0.000	19.1	1	1
03/16/06	6:19 a	-23.2	-23.2	-23.2	---	---	26.1	ENE	0.43	27.8	-39.5	---	---	730.1	0.029	0.000	19.1	1	1
03/16/06	6:20 a	-23.3	-23.2	-23.3	---	---	24.3	ENE	0.41	25.2	-39.2	---	---	730.0	0.029	0.000	19.1	1	1
03/16/06	6:21 a	-23.3	-23.3	-23.3	---	---	25.2	ENE	0.42	27.0	-39.3	---	---	730.1	0.029	0.000	19.1	1	1
03/16/06	6:22 a	-23.3	-23.3	-23.3	---	---	25.2	ENE	0.42	26.1	-39.3	---	---	730.0	0.029	0.000	19.1	1	1
03/16/06	6:23 a	-23.3	-23.3	-23.3	---	---	25.2	ENE	0.42	26.1	-39.4	---	---	730.2	0.029	0.000	19.1	1	1
03/16/06	6:24 a	-23.3	-23.3	-23.4	---	---	25.2	ENE	0.42	27.0	-39.4	---	---	730.0	0.029	0.000	19.1	1	1
03/16/06	6:25 a	-23.4	-23.4	-23.4	---	---	25.2	ENE	0.42	27.0	-39.5	---	---	730.1	0.029	0.000	19.1	1	1
03/16/06	6:26 a	-23.4	-23.4	-23.4	---	---	24.3	ENE	0.41	27.0	-39.3	---	---	730.1	0.029	0.000	19.1	1	1
03/16/06	6:27 a	-23.4	-23.4	-23.4	---	---	25.2	ENE	0.42	27.8	-39.6	---	---	730.1	0.029	0.000	19.1	1	1
03/16/06	6:28 a	-23.4	-23.4	-23.5	---	---	23.5	ENE	0.39	25.2	-39.2	---	---	730.1	0.029	0.000	19.1	1	1
03/16/06	6:29 a	-23.4	-23.4	-23.5	---	---	25.2	ENE	0.42	27.0	-39.6	---	---	730.0	0.029	0.000	19.1	1	1
03/16/06	6:30 a	-23.5	-23.5	-23.5	---	---	24.3	ENE	0.41	26.1	-39.4	---	---	730.1	0.029	0.000	19.1	1	1
03/16/06	6:31 a	-23.5	-23.5	-23.5	---	---	23.5	ENE	0.39	25.2	-39.2	---	---	730.2	0.029	0.000	19.1	1	1
03/16/06	6:32 a	-23.5	-23.5	-23.6	---	---	24.3	ENE	0.41	27.0	-39.4	---	---	730.1	0.029	0.000	19.1	1	1
03/16/06	6:33 a	-23.6	-23.5	-23.6	---	---	26.1	ENE	0.43	27.8	-39.9	---	---	730.1	0.029	0.000	19.1	1	1
03/16/06	6:34 a	-23.6	-23.6	-23.6	---	---	24.3	ENE	0.41	26.1	-39.5	---	---	730.2	0.029	0.000	19.1	1	1
03/16/06	6:35 a	-23.6	-23.6	-23.6	---	---	24.3	ENE	0.41	25.2	-39.5	---	---	730.0	0.029	0.000	19.1	1	1
03/16/06	6:36 a	-23.6	-23.6	-23.6	---	---	26.1	ENE	0.43	27.0	-39.9	---	---	730.0	0.029	0.000	19.1	1	1
03/16/06	6:37 a	-23.6	-23.6	-23.6	---	---	23.5	ENE	0.39	26.1	-39.4	---	---	730.2	0.029	0.000	19.1	1	1
03/16/06	6:38 a	-23.6	-23.6	-23.6	---	---	22.6	ENE	0.38	25.2	-39.2	---	---	730.1	0.029	0.000	19.1	1	1
03/16/06	6:39 a	-23.6	-23.6	-23.7	---	---	25.2	ENE	0.42	27.0	-39.8	---	---	730.1	0.029	0.000	19.1	1	1
03/16/06	6:40 a	-23.7	-23.6	-23.7	---	---	24.3	ENE	0.41	25.2	-39.7	---	---	730.1	0.029	0.000	19.1	1	1
03/16/06	6:41 a	-23.7	-23.6	-23.7	---	---	23.5	ENE	0.39	25.2	-39.4	---	---	730.1	0.029	0.000	19.1	1	1
03/16/06	6:42 a	-23.7	-23.6	-23.7	---	---	23.5	ENE	0.39	25.2	-39.4	---	---	730.2	0.029	0.000	19.1	1	1
03/16/06	6:43 a	-23.7	-23.6	-23.7	---	---	25.2	ENE	0.42	27.8	-39.9	---	---	730.0	0.029	0.000	19.1	1	1
03/16/06	6:44 a	-23.7	-23.7	-23.7	---	---	24.3	ENE	0.41	27.0	-39.7	---	---	730.2	0.029	0.000	19.1	1	1
03/16/06	6:45 a	-23.7	-23.7	-23.7	---	---	22.6	ENE	0.38	23.5	-39.2	---	---	730.1	0.029	0.000	19.1	1	1
03/16/06	6:46 a	-23.7	-23.7	-23.7	---	---	24.3	ENE	0.41	27.0	-39.7	---	---	730.3	0.029	0.000	19.1	1	1
03/16/06	6:47 a	-23.7	-23.7	-23.7	---	---	20.9	ENE	0.35	27.0	-38.7	---	---	730.0	0.029	0.000	19.1	1	1
03/16/06	6:48 a	-23.7	-23.7	-23.7	---	---	24.3	ENE	0.41	27.8	-39.7	---	---	730.3	0.029	0.000	19.1	1	1
03/16/06	6:49 a	-23.7	-23.7	-23.7	---	---	20.0	ENE	0.33	24.3	-38.5	---	---	730.0	0.029	0.000	19.1	1	1
03/16/06	6:50 a	-23.7	-23.7	-23.7	---	---	26.1	ENE	0.43	28.7	-40.1	---	---	730.3	0.029	0.000	19.0	1	1
03/16/06	6:51 a	-23.7	-23.7	-23.7	---	---	19.1	ENE	0.32	23.5	-38.2	---	---	730.4	0.029	0.000	19.0	1	1
03/16/06	6:52 a	-23.7	-23.7	-23.7	---	---	20.0	ENE	0.33	27.8	-38.5	---	---	730.0	0.029	0.000	19.0	1	1
03/16/06	6:53 a	-23.7	-23.7	-23.7	---	---	24.3	ENE	0.41	27.8	-39.7	---	---	730.2	0.029	0.000	19.0	1	1
03/16/06	6:54 a	-23.7	-23.7	-23.7	---	---	20.0	ENE	0.33	27.0	-38.5	---	---	730.0	0.029	0.000	19.0	1	1
03/16/06	6:55 a	-23.7	-23.7	-23.7	---	---	25.2	ENE	0.42	27.8	-39.9	---	---	730.3	0.029	0.000	19.0	1	1
03/16/06	6:56 a	-23.7	-23.6	-23.7	---	---	22.6	ENE	0.38	24.3	-39.2	---	---	730.2	0.029	0.000	19.0	1	1
03/16/06	6:57 a	-23.7	-23.6	-23.7	---	---	22.6	ENE	0.38	24.3	-39.2	---	---	730.3	0.029	0.000	19.0	1	1
03/16/06	6:58 a	-23.6	-23.6	-23.7	---	---	22.6	ENE	0.38	26.1	-39.2	---	---	730.1	0.029	0.000	19.0	1	1
03/16/06	6:59 a	-23.6	-23.6	-23.7	---	---	26.1	ENE	0.43	27.8	-40.0	---	---	730.3	0.029	0.000	19.0	1	1
03/16/06	7:00 a	-23.6	-23.6	-23.7	---	---	20.9	ENE	0.35	23.5	-38.7	---	---	730.4	0.029	0.000	19.0	1	1
03/16/06	7:01 a	-23.6	-23.6	-23.7	---	---	21.7	ENE	0.36	25.2	-38.9	---	---	730.1	0.029	0.000	19.0	1	1
03/16/06	7:02 a	-23.6	-23.6	-23.6	---	---	26.1	ENE	0.43	27.0	-40.0	---	---	730.2	0.029	0.000	19.0	1	1
03/16/06	7:03 a	-23.6	-23.6	-23.6	---	---	21.7	ENE	0.36	23.5	-38.9	---	---	730.3	0.029	0.000	19.0	1	1
03/16/06	7:04 a	-23.6	-23.6	-23.6	---	---	23.5	ENE	0.39	25.2	-39.4	---	---	730.3	0.029	0.000	18.9	1	1
03/16/06	7:05 a	-23.6	-23.6	-23.6	---	---	21.7	ENE	0.36	28.7	-38.9	---	---	730.0	0.029	0.000	18.9	1	1
03/16/06	7:06 a	-23.6	-23.6	-23.6	---	---	29.6	ENE	0.49	31.3	-40.8	---	---	730.1	0.029	0.000	18.9	1	1
03/16/06	7:07 a	-23.6	-23.6	-23.6	---	---	22.6	ENE	0.38	26.1	-39.2	---	---	730.5	0.029	0.000	19.0	1	1
03/16/06	7:08 a	-23.6	-23.6	-23.6	---	---	13.9	ENE	0.23	19.1	-36.3	---	---	730.3	0.029	0.000	18.9	1	1
03/16/06	7:09 a	-23.6	-23.6	-23.6	---	---	24.3	ENE	0.41	28.7	-39.5	---	---	730.2	0.029	0.000	18.9	1	1
03/16/06	7:10 a	-23.6	-23.6	-23.6	---	---	25.2	ENE	0.42	28.7	-39.7	---	---	730.4	0.029	0.000	18.9	1	1
03/16/06	7:11 a	-23.6	-23.6	-23.6	---	---	18.3	ENE	0.30	21.7	-37.8	---	---	730.5	0.029	0.000	18.9	1	1
03/16/06	7:12 a	-23.6	-23.6	-23.6	---	---	18.3	ENE	0.30	22.6	-37.8	---	---	730.3	0.029	0.000	18.9	1	1
03/16/06	7:13 a	-23.6	-23.6	-23.6	---	---	24.3	NE	0.41	27.0	-39.5	---	---	730.2	0.029	0.000	18.9	1	1
03/16/06	7:14 a	-23.6	-23.6	-23.6	---	---	24.3	NE	0.41	26.1	-39.5	---	---	730.4	0.029	0.000	18.9	1	1
03/16/06	7:15 a	-23.6	-23.6	-23.6	---	---	20.9	ENE	0.35	22.6	-38.6	---	---	730.4	0.029	0.000	18.9	1	1
03/16/06	7:16 a	-23.6	-23.6	-23.6	---	---	14.8	ENE	0.25	19.1	-36.6	---	---	730.5	0.029	0.000	18.9	1	1
03/16/06	7:17 a	-23.5	-23.5	-23.6	---	---	20.9	ENE	0.35	25.2	-38.5	---	---	730.3	0.029	0.000	18.9	1	1
03/16/06	7:18 a	-23.5	-23.5	-23.6	---	---	25.2	ENE	0.42	26.1	-39.7	---	---	730.4	0.029	0.000	18.9	1	1
03/16/06	7:19 a	-23.5	-23.5	-23.5	---	---	23.5	ENE	0.39	25.2	-39.2	---	---	730.3	0.029	0.000	18.9	1	1
03/16/06	7:20 a	-23.5	-23.4	-23.5	---	---	19.1	ENE	0.32	21.7	-38.0	---	---	730.5	0.029	0.000	18.9	1	1
03/16/06	7:21 a	-23.4	-23.4	-23.4	---	---	15.7	ENE	0.26	18.3	-36.8	---	---	730.5	0.029	0.000	18.9	1	1
03/16/06	7:22 a	-23.4	-23.4	-23.4	---	---	23.5	ENE	0.39	27.0	-39.2	---	---	730.3	0.029	0.000	18.9	1	1
03/16/06	7:23 a	-23.4	-23.4	-23.4	---	---	26.1	ENE	0.43	27.8	-39.7	---	---	730.3	0.029	0.000	18.9	1	1
03/16/06	7:24 a	-23.3	-23.3	-23.4	---	---	21.7	ENE	0.36	26.1	-38.6	---	---	730.5	0.029	0.000	18.9	1	1
03/16/06	7:25 a	-23.3	-23.3	-23.3	---	---	17.4	ENE	0.29	20.0	-37.2	---	---	730.4	0.029	0.000	18.9	1	1
03/16/06	7:26 a	-23.3	-23.2	-23.3	---	---	24.3	ENE	0.41	27.0	-39.2	---	---	730.3	0.029	0.000	18.9	1	1
03/16/06	7:27 a	-23.2	-23.2	-23.2	---	---	23.5	ENE	0.39	25.2	-38.8	---	---	730.4	0.029	0.000	18.9	1	1
03/16/06	7:28 a	-23.2	-23.2	-23.3	---	---	20.0	ENE	0.33	21.7	-37.9	---	---	730.4	0.029	0.000	18.9	1	1
03/16/06	7:29 a	-23.2	-23.2	-23.2	---	---	20.9	ENE	0.35	23.5	-38.2	---	---	730.4	0.029	0.000	18.9	1	1
03/16/06	7:30 a	-23.2	-23.2	-23.2	---	---	27.0	ENE	0.45	31.3	-39.7	---	---	730.3	0.029	0.000	18.9	1	1
03/16/06	7:31 a	-23.2	-23.2	-23.2	---	---	24.3	ENE	0.41	28.7	-39.0	---	---	730.4	0.029	0.000	18.9	1	1
03/16/06	7:32 a	-23.1	-23.1	-23.1	---	---	24.3	ENE	0.41	27.0	-38.9	---	---	730.5	0.029	0.000	18.9	1	1
03/16/06	7:33 a	-23.1	-23.1	-23.1	---	---	19.1	ENE	0.32	22.6	-37.4	---	---	730.5	0.029	0.000	18.9	1	1
03/16/06	7:34 a	-23.1	-23.1	-23.1	---	---	18.3	ENE	0.30	21.7	-37.2	---	---	730.5	0.029	0.000	18.9	1	1
03/16/06	7:35 a	-23.1	-23.1	-23.1	---	---	20.9	ENE	0.35	22.6	-38.0	---	---	730.5	0.029	0.000	18.9	1	1
03/16/06	7:36 a	-23.1	-23.1	-23.1	---	---	16.5	ENE	0.28	21.7	-36.6	---	---	730.4	0.029	0.000	18.9	1	1
03/16/06	7:37 a	-23.1	-23.1	-23.1	---	---	26.1	ENE	0.43	27.8	-39.3	---	---	730.3	0.029	0.000	18.9	1	1
03/16/06	7:38 a	-23.1	-23.1	-23.1	---	---	25.2	ENE	0.42	26.1	-39.1	---	---	730.3	0.029	0.000	18.9	1	1
03/16/06	7:39 a	-23.1	-23.1	-23.1	---	---	23.5	ENE	0.39	27.0	-38.6	---	---	730.5	0.029	0.000	18.9	1	1
03/16/06	7:40 a	-23.1	-23.1	-23.1	---	---	19.1	E	0.32	20.9	-37.4	---	---	730.5	0.029	0.000	18.9	1	1
03/16/06	7:41 a	-23.1	-23.0	-23.1	---	---	18.3	E	0.30	21.7	-37.2	---	---	730.4	0.029	0.000	19.0	1	1
03/16/06	7:42 a	-23.1	-23.1	-23.1	---	---	23.5	ENE	0.39	26.1	-38.6	---	---	730.3	0.029	0.000	18.9	1	1
03/16/06	7:43 a	-23.1	-23.1	-23.1	---	---	26.1	ENE	0.43	27.8	-39.3	---	---	730.3	0.029	0.000	18.9	1	1
03/16/06	7:44 a	-23.1	-23.1	-23.1	---	---	26.1	ENE	0.43	27.8	-39.3	---	---	730.3	0.029	0.000	18.9	1	1
03/16/06	7:45 a	-23.1	-23.1	-23.1	---	---	26.1	ENE	0.43	27.0	-39.3	---	---	730.3	0.029	0.000	18.9	1	1
03/16/06	7:46 a	-23.1	-23.1	-23.1	---	---	26.1	ENE	0.43	27.0	-39.3	---	---	730.4	0.029	0.000	18.9	1	1
03/16/06	7:47 a	-23.1	-23.1	-23.1	---	---	22.6	ENE	0.38	24.3	-38.4	---	---	730.4	0.029	0.000	18.9	1	1
03/16/06	7:48 a	-23.1	-23.1	-23.1	---	---	18.3	E	0.30	21.7	-37.2	---	---	730.4	0.029	0.000	18.9	1	1
03/16/06	7:49 a	-23.1	-23.1	-23.1	---	---	18.3	E	0.30	23.5	-37.2	---	---	730.3	0.029	0.000	18.9	1	1
03/16/06	7:50 a	-23.1	-23.1	-23.1	---	---	26.1	ENE	0.43	27.8	-39.3	---	---	730.3	0.029	0.000	18.9	1	1
03/16/06	7:51 a	-23.1	-23.1	-23.1	---	---	28.7	ENE	0.48	28.7	-39.9	---	---	730.3	0.029	0.000	18.9	1	1
03/16/06	7:52 a	-23.1	-23.1	-23.1	---	---	26.1	ENE	0.43	28.7	-39.3	---	---	730.4	0.029	0.000	18.9	1	1
03/16/06	7:53 a	-23.2	-23.1	-23.2	---	---	21.7	ENE	0.36	24.3	-38.3	---	---	730.5	0.029	0.000	18.9	1	1
03/16/06	7:54 a	-23.2	-23.1	-23.2	---	---	21.7	ENE	0.36	24.3	-38.3	---	---	730.4	0.029	0.000	18.9	1	1
03/16/06	7:55 a	-23.2	-23.2	-23.2	---	---	26.1	ENE	0.43	27.8	-39.4	---	---	730.3	0.029	0.000	18.9	1	1
03/16/06	7:56 a	-23.2	-23.2	-23.2	---	---	25.2	ENE	0.42	26.1	-39.2	---	---	730.4	0.029	0.000	18.9	1	1
03/16/06	7:57 a	-23.2	-23.2	-23.2	---	---	22.6	ENE	0.38	24.3	-38.6	---	---	730.5	0.029	0.000	18.9	1	1
03/16/06	7:58 a	-23.2	-23.2	-23.2	---	---	22.6	ENE	0.38	26.1	-38.6	---	---	730.4	0.029	0.000	18.9	1	1
03/16/06	7:59 a	-23.2	-23.2	-23.3	---	---	21.7	ENE	0.36	25.2	-38.4	---	---	730.4	0.029	0.000	18.9	1	1
03/16/06	8:00 a	-23.3	-23.2	-23.3	---	---	25.2	ENE	0.42	28.7	-39.3	---	---	730.2	0.029	0.000	18.9	1	1
03/16/06	8:01 a	-23.3	-23.3	-23.3	---	---	27.0	ENE	0.45	29.6	-39.8	---	---	730.4	0.029	0.000	18.9	1	1
03/16/06	8:02 a	-23.3	-23.3	-23.3	---	---	21.7	ENE	0.36	25.2	-38.4	---	---	730.5	0.029	0.000	18.9	1	1
03/16/06	8:03 a	-23.3	-23.3	-23.3	---	---	23.5	ENE	0.39	26.1	-38.9	---	---	730.3	0.029	0.000	18.8	1	1
03/16/06	8:04 a	-23.3	-23.3	-23.3	---	---	27.0	ENE	0.45	29.6	-39.8	---	---	730.3	0.029	0.000	18.9	1	1
03/16/06	8:05 a	-23.3	-23.3	-23.4	---	---	27.0	ENE	0.45	27.8	-39.8	---	---	730.4	0.029	0.000	18.9	1	1
03/16/06	8:06 a	-23.3	-23.3	-23.4	---	---	24.3	ENE	0.41	26.1	-39.2	---	---	730.3	0.029	0.000	18.9	1	1
03/16/06	8:07 a	-23.3	-23.3	-23.4	---	---	23.5	E	0.39	26.1	-39.0	---	---	730.4	0.029	0.000	18.8	1	1
03/16/06	8:08 a	-23.4	-23.4	-23.4	---	---	21.7	E	0.36	26.1	-38.6	---	---	730.2	0.029	0.000	18.8	1	1
03/16/06	8:09 a	-23.4	-23.4	-23.4	---	---	26.1	ENE	0.43	28.7	-39.7	---	---	730.1	0.029	0.000	18.8	1	1
03/16/06	8:10 a	-23.4	-23.4	-23.4	---	---	30.4	ENE	0.51	31.3	-40.7	---	---	730.2	0.029	0.000	18.9	1	1
03/16/06	8:11 a	-23.4	-23.4	-23.4	---	---	27.0	ENE	0.45	30.4	-39.9	---	---	730.4	0.029	0.000	18.9	1	1
03/16/06	8:12 a	-23.4	-23.4	-23.4	---	---	24.3	ENE	0.41	27.0	-39.4	---	---	730.3	0.029	0.000	18.8	1	1
03/16/06	8:13 a	-23.4	-23.4	-23.4	---	---	25.2	ENE	0.42	27.0	-39.6	---	---	730.2	0.029	0.000	18.8	1	1
03/16/06	8:14 a	-23.4	-23.4	-23.4	---	---	26.1	ENE	0.43	28.7	-39.8	---	---	730.2	0.029	0.000	18.8	1	1
03/16/06	8:15 a	-23.4	-23.4	-23.5	---	---	27.8	ENE	0.46	29.6	-40.2	---	---	730.4	0.029	0.000	18.8	1	1
03/16/06	8:16 a	-23.4	-23.4	-23.5	---	---	27.8	ENE	0.46	29.6	-40.2	---	---	730.3	0.029	0.000	18.8	1	1
03/16/06	8:17 a	-23.5	-23.4	-23.5	---	---	22.6	ENE	0.38	25.2	-39.0	---	---	730.5	0.029	0.000	18.8	1	1
03/16/06	8:18 a	-23.5	-23.4	-23.5	---	---	18.3	E	0.30	22.6	-37.7	---	---	730.2	0.029	0.000	18.8	1	1
03/16/06	8:19 a	-23.5	-23.5	-23.5	---	---	26.1	ENE	0.43	30.4	-39.9	---	---	730.0	0.029	0.000	18.8	1	1
03/16/06	8:20 a	-23.5	-23.4	-23.5	---	---	28.7	ENE	0.48	30.4	-40.4	---	---	730.2	0.029	0.000	18.8	1	1
03/16/06	8:21 a	-23.5	-23.5	-23.6	---	---	26.1	ENE	0.43	28.7	-39.9	---	---	730.2	0.029	0.000	18.8	1	1
03/16/06	8:22 a	-23.5	-23.5	-23.6	---	---	25.2	ENE	0.42	27.8	-39.7	---	---	730.3	0.029	0.000	18.8	1	1
03/16/06	8:23 a	-23.5	-23.5	-23.6	---	---	25.2	ENE	0.42	27.8	-39.7	---	---	730.1	0.029	0.000	18.8	1	1
03/16/06	8:24 a	-23.6	-23.5	-23.6	---	---	27.0	ENE	0.45	28.7	-40.2	---	---	730.1	0.029	0.000	18.8	1	1
03/16/06	8:25 a	-23.6	-23.6	-23.6	---	---	26.1	ENE	0.43	28.7	-39.9	---	---	730.4	0.029	0.000	18.8	1	1
03/16/06	8:26 a	-23.6	-23.5	-23.6	---	---	22.6	E	0.38	26.1	-39.1	---	---	730.1	0.029	0.000	18.8	1	1
03/16/06	8:27 a	-23.6	-23.6	-23.6	---	---	26.1	ENE	0.43	29.6	-39.9	---	---	730.0	0.029	0.000	18.8	1	1
03/16/06	8:28 a	-23.6	-23.6	-23.6	---	---	27.0	ENE	0.45	30.4	-40.2	---	---	730.1	0.029	0.000	18.8	1	1
03/16/06	8:29 a	-23.6	-23.6	-23.6	---	---	29.6	ENE	0.49	31.3	-40.7	---	---	730.1	0.029	0.000	18.8	1	1
03/16/06	8:30 a	-23.6	-23.6	-23.6	---	---	27.0	ENE	0.45	29.6	-40.2	---	---	730.2	0.029	0.000	18.8	1	1
03/16/06	8:31 a	-23.6	-23.6	-23.6	---	---	27.8	ENE	0.46	30.4	-40.4	---	---	730.0	0.029	0.000	18.8	1	1
03/16/06	8:32 a	-23.6	-23.6	-23.6	---	---	27.8	ENE	0.46	30.4	-40.4	---	---	730.1	0.029	0.000	18.8	1	1
03/16/06	8:33 a	-23.6	-23.6	-23.6	---	---	24.3	ENE	0.41	27.0	-39.6	---	---	730.3	0.029	0.000	18.8	1	1
03/16/06	8:34 a	-23.6	-23.6	-23.6	---	---	26.1	ENE	0.43	29.6	-40.0	---	---	730.0	0.029	0.000	18.8	1	1
03/16/06	8:35 a	-23.6	-23.6	-23.6	---	---	27.8	ENE	0.46	30.4	-40.4	---	---	730.2	0.029	0.000	18.8	1	1
03/16/06	8:36 a	-23.6	-23.6	-23.6	---	---	26.1	ENE	0.43	28.7	-40.0	---	---	730.1	0.029	0.000	18.8	1	1
03/16/06	8:37 a	-23.6	-23.6	-23.6	---	---	26.1	ENE	0.43	27.0	-40.0	---	---	730.1	0.029	0.000	18.8	1	1
03/16/06	8:38 a	-23.6	-23.6	-23.6	---	---	27.8	ENE	0.46	28.7	-40.4	---	---	730.1	0.029	0.000	18.8	1	1
03/16/06	8:39 a	-23.6	-23.6	-23.6	---	---	27.0	ENE	0.45	28.7	-40.2	---	---	730.1	0.029	0.000	18.8	1	1
03/16/06	8:40 a	-23.6	-23.6	-23.7	---	---	28.7	ENE	0.48	31.3	-40.6	---	---	730.0	0.029	0.000	18.8	1	1
03/16/06	8:41 a	-23.6	-23.6	-23.7	---	---	27.0	ENE	0.45	28.7	-40.2	---	---	730.0	0.029	0.000	18.8	1	1
03/16/06	8:42 a	-23.6	-23.6	-23.6	---	---	27.8	ENE	0.46	29.6	-40.4	---	---	730.1	0.029	0.000	18.8	1	1
03/16/06	8:43 a	-23.6	-23.6	-23.7	---	---	27.0	ENE	0.45	29.6	-40.2	---	---	730.0	0.029	0.000	18.8	1	1
03/16/06	8:44 a	-23.7	-23.6	-23.7	---	---	26.1	ENE	0.43	29.6	-40.1	---	---	730.0	0.029	0.000	18.8	1	1
03/16/06	8:45 a	-23.7	-23.6	-23.7	---	---	27.8	ENE	0.46	30.4	-40.5	---	---	730.0	0.029	0.000	18.8	1	1
03/16/06	8:46 a	-23.6	-23.6	-23.7	---	---	27.8	ENE	0.46	30.4	-40.4	---	---	730.1	0.029	0.000	18.8	1	1
03/16/06	8:47 a	-23.7	-23.6	-23.7	---	---	27.8	ENE	0.46	31.3	-40.5	---	---	730.0	0.029	0.000	18.8	1	1
03/16/06	8:48 a	-23.7	-23.7	-23.7	---	---	28.7	ENE	0.48	30.4	-40.7	---	---	730.1	0.029	0.000	18.8	1	1
03/16/06	8:49 a	-23.7	-23.7	-23.7	---	---	25.2	ENE	0.42	27.8	-39.9	---	---	730.2	0.029	0.000	18.8	1	1
03/16/06	8:50 a	-23.7	-23.6	-23.7	---	---	27.8	ENE	0.46	30.4	-40.5	---	---	729.9	0.029	0.000	18.8	1	1
03/16/06	8:51 a	-23.6	-23.6	-23.7	---	---	27.8	ENE	0.46	29.6	-40.4	---	---	730.0	0.029	0.000	18.8	1	1
03/16/06	8:52 a	-23.7	-23.6	-23.7	---	---	27.8	ENE	0.46	29.6	-40.5	---	---	730.2	0.029	0.000	18.8	1	1
03/16/06	8:53 a	-23.7	-23.7	-23.7	---	---	22.6	ENE	0.38	27.0	-39.2	---	---	730.0	0.029	0.000	18.8	1	1
03/16/06	8:54 a	-23.7	-23.7	-23.7	---	---	28.7	ENE	0.48	30.4	-40.7	---	---	730.0	0.029	0.000	18.8	1	1
03/16/06	8:55 a	-23.7	-23.6	-23.7	---	---	26.1	ENE	0.43	28.7	-40.1	---	---	729.9	0.029	0.000	18.8	1	1
03/16/06	8:56 a	-23.6	-23.6	-23.7	---	---	29.6	ENE	0.49	32.2	-40.8	---	---	730.0	0.029	0.000	18.8	1	1
03/16/06	8:57 a	-23.7	-23.6	-23.7	---	---	27.0	ENE	0.45	29.6	-40.3	---	---	730.0	0.029	0.000	18.8	1	1
03/16/06	8:58 a	-23.7	-23.6	-23.7	---	---	27.8	ENE	0.46	31.3	-40.5	---	---	730.0	0.029	0.000	18.8	1	1
03/16/06	8:59 a	-23.7	-23.7	-23.7	---	---	27.0	ENE	0.45	29.6	-40.3	---	---	730.0	0.029	0.000	18.8	1	1
03/16/06	9:00 a	-23.7	-23.6	-23.7	---	---	26.1	ENE	0.43	28.7	-40.1	---	---	730.1	0.029	0.000	18.7	1	1
03/16/06	9:01 a	-23.7	-23.6	-23.7	---	---	26.1	ENE	0.43	28.7	-40.1	---	---	730.0	0.029	0.000	18.8	1	1
03/16/06	9:02 a	-23.7	-23.6	-23.7	---	---	26.1	ENE	0.43	28.7	-40.1	---	---	729.9	0.029	0.000	18.7	1	1
03/16/06	9:03 a	-23.6	-23.6	-23.7	---	---	27.0	E	0.45	30.4	-40.2	---	---	729.8	0.029	0.000	18.7	1	1
03/16/06	9:04 a	-23.6	-23.6	-23.7	---	---	28.7	ENE	0.48	31.3	-40.6	---	---	730.0	0.029	0.000	18.7	1	1
03/16/06	9:05 a	-23.6	-23.6	-23.6	---	---	26.1	ENE	0.43	27.8	-40.0	---	---	730.0	0.029	0.000	18.7	1	1
03/16/06	9:06 a	-23.6	-23.6	-23.6	---	---	27.0	ENE	0.45	30.4	-40.2	---	---	730.0	0.029	0.000	18.7	1	1
03/16/06	9:07 a	-23.6	-23.6	-23.6	---	---	27.0	ENE	0.45	28.7	-40.2	---	---	730.0	0.029	0.000	18.7	1	1
03/16/06	9:08 a	-23.6	-23.6	-23.6	---	---	27.0	ENE	0.45	29.6	-40.2	---	---	730.1	0.029	0.000	18.7	1	1
03/16/06	9:09 a	-23.6	-23.6	-23.6	---	---	27.0	ENE	0.45	29.6	-40.2	---	---	730.1	0.029	0.000	18.7	1	1
03/16/06	9:10 a	-23.6	-23.6	-23.6	---	---	24.3	ENE	0.41	27.8	-39.6	---	---	730.0	0.029	0.000	18.7	1	1
03/16/06	9:11 a	-23.6	-23.6	-23.6	---	---	26.1	ENE	0.43	27.8	-40.0	---	---	730.1	0.029	0.000	18.7	1	1
03/16/06	9:12 a	-23.6	-23.6	-23.6	---	---	27.8	ENE	0.46	30.4	-40.3	---	---	730.0	0.029	0.000	18.7	1	1
03/16/06	9:13 a	-23.6	-23.6	-23.6	---	---	26.1	ENE	0.43	29.6	-40.0	---	---	730.3	0.029	0.000	18.7	1	1
03/16/06	9:14 a	-23.6	-23.6	-23.6	---	---	23.5	ENE	0.39	27.8	-39.3	---	---	730.1	0.029	0.000	18.7	1	1
03/16/06	9:15 a	-23.6	-23.5	-23.6	---	---	27.0	ENE	0.45	31.3	-40.2	---	---	730.1	0.029	0.000	18.7	1	1
03/16/06	9:16 a	-23.6	-23.6	-23.6	---	---	27.8	ENE	0.46	29.6	-40.3	---	---	730.1	0.029	0.000	18.7	1	1
03/16/06	9:17 a	-23.6	-23.5	-23.6	---	---	25.2	ENE	0.42	27.8	-39.7	---	---	730.0	0.029	0.000	18.7	1	1
03/16/06	9:18 a	-23.6	-23.6	-23.6	---	---	25.2	ENE	0.42	29.6	-39.7	---	---	730.1	0.029	0.000	18.7	1	1
03/16/06	9:19 a	-23.6	-23.5	-23.6	---	---	27.0	ENE	0.45	29.6	-40.2	---	---	730.1	0.029	0.000	18.7	1	1
03/16/06	9:20 a	-23.6	-23.5	-23.6	---	---	25.2	ENE	0.42	27.8	-39.7	---	---	730.3	0.029	0.000	18.7	1	1
03/16/06	9:21 a	-23.5	-23.5	-23.6	---	---	24.3	ENE	0.41	27.8	-39.4	---	---	730.1	0.029	0.000	18.7	1	1
03/16/06	9:22 a	-23.5	-23.5	-23.6	---	---	25.2	ENE	0.42	27.8	-39.7	---	---	730.1	0.029	0.000	18.7	1	1
03/16/06	9:23 a	-23.5	-23.5	-23.6	---	---	21.7	ENE	0.36	27.0	-38.8	---	---	730.0	0.029	0.000	18.7	1	1
03/16/06	9:24 a	-23.5	-23.5	-23.5	---	---	27.8	ENE	0.46	29.6	-40.3	---	---	730.0	0.029	0.000	18.7	1	1
03/16/06	9:25 a	-23.5	-23.5	-23.5	---	---	22.6	ENE	0.38	27.0	-39.0	---	---	730.1	0.029	0.000	18.7	1	1
03/16/06	9:26 a	-23.5	-23.4	-23.5	---	---	27.0	ENE	0.45	30.4	-40.1	---	---	730.1	0.029	0.000	18.6	1	1
03/16/06	9:27 a	-23.5	-23.5	-23.5	---	---	22.6	ENE	0.38	25.2	-39.0	---	---	730.2	0.029	0.000	18.6	1	1
03/16/06	9:28 a	-23.5	-23.5	-23.5	---	---	26.1	ENE	0.43	27.8	-39.9	---	---	730.1	0.029	0.000	18.6	1	1
03/16/06	9:29 a	-23.5	-23.5	-23.5	---	---	26.1	ENE	0.43	29.6	-39.9	---	---	730.0	0.029	0.000	18.6	1	1
03/16/06	9:30 a	-23.5	-23.5	-23.5	---	---	26.1	ENE	0.43	27.8	-39.9	---	---	730.2	0.029	0.000	18.6	1	1
03/16/06	9:31 a	-23.5	-23.5	-23.5	---	---	23.5	ENE	0.39	26.1	-39.2	---	---	730.2	0.029	0.000	18.6	1	1
03/16/06	9:32 a	-23.5	-23.5	-23.6	---	---	23.5	ENE	0.39	27.0	-39.2	---	---	730.2	0.029	0.000	18.6	1	1
03/16/06	9:33 a	-23.5	-23.5	-23.5	---	---	25.2	ENE	0.42	27.8	-39.7	---	---	730.2	0.029	0.000	18.6	1	1
03/16/06	9:34 a	-23.5	-23.5	-23.5	---	---	24.3	ENE	0.41	26.1	-39.4	---	---	730.1	0.029	0.000	18.6	1	1
03/16/06	9:35 a	-23.5	-23.5	-23.5	---	---	24.3	ENE	0.41	25.2	-39.4	---	---	730.2	0.029	0.000	18.6	1	1
03/16/06	9:36 a	-23.5	-23.5	-23.5	---	---	25.2	ENE	0.42	27.8	-39.7	---	---	730.2	0.029	0.000	18.6	1	1
03/16/06	9:37 a	-23.5	-23.5	-23.5	---	---	24.3	ENE	0.41	26.1	-39.4	---	---	730.3	0.029	0.000	18.6	1	1
03/16/06	9:38 a	-23.5	-23.5	-23.5	---	---	22.6	ENE	0.38	25.2	-39.0	---	---	730.1	0.029	0.000	18.6	1	1
03/16/06	9:39 a	-23.5	-23.5	-23.6	---	---	25.2	ENE	0.42	28.7	-39.7	---	---	730.1	0.029	0.000	18.6	1	1
03/16/06	9:40 a	-23.5	-23.5	-23.5	---	---	26.1	ENE	0.43	29.6	-39.9	---	---	730.2	0.029	0.000	18.6	1	1
03/16/06	9:41 a	-23.5	-23.5	-23.6	---	---	21.7	ENE	0.36	24.3	-38.8	---	---	730.2	0.029	0.000	18.6	1	1
03/16/06	9:42 a	-23.5	-23.5	-23.5	---	---	23.5	ENE	0.39	26.1	-39.2	---	---	730.2	0.029	0.000	18.6	1	1
03/16/06	9:43 a	-23.5	-23.5	-23.5	---	---	21.7	ENE	0.36	25.2	-38.8	---	---	730.3	0.029	0.000	18.6	1	1
03/16/06	9:44 a	-23.5	-23.5	-23.6	---	---	24.3	ENE	0.41	26.1	-39.4	---	---	730.3	0.029	0.000	18.6	1	1
03/16/06	9:45 a	-23.5	-23.5	-23.6	---	---	22.6	ENE	0.38	25.2	-39.0	---	---	730.2	0.029	0.000	18.6	1	1
03/16/06	9:46 a	-23.5	-23.5	-23.6	---	---	26.1	ENE	0.43	27.8	-39.9	---	---	730.3	0.029	0.000	18.6	1	1
03/16/06	9:47 a	-23.5	-23.5	-23.6	---	---	24.3	ENE	0.41	25.2	-39.4	---	---	730.3	0.029	0.000	18.6	1	1
03/16/06	9:48 a	-23.6	-23.5	-23.6	---	---	23.5	ENE	0.39	26.1	-39.3	---	---	730.1	0.029	0.000	18.6	1	1
03/16/06	9:49 a	-23.6	-23.5	-23.6	---	---	24.3	ENE	0.41	25.2	-39.5	---	---	730.3	0.029	0.000	18.6	1	1
03/16/06	9:50 a	-23.6	-23.6	-23.6	---	---	24.3	ENE	0.41	26.1	-39.5	---	---	730.1	0.029	0.000	18.6	1	1
03/16/06	9:51 a	-23.6	-23.6	-23.6	---	---	25.2	ENE	0.42	27.8	-39.7	---	---	730.1	0.029	0.000	18.6	1	1
03/16/06	9:52 a	-23.6	-23.5	-23.6	---	---	24.3	ENE	0.41	27.0	-39.5	---	---	730.3	0.029	0.000	18.6	1	1
03/16/06	9:53 a	-23.6	-23.6	-23.6	---	---	24.3	ENE	0.41	25.2	-39.5	---	---	730.3	0.029	0.000	18.6	1	1
03/16/06	9:54 a	-23.6	-23.6	-23.6	---	---	21.7	ENE	0.36	26.1	-38.8	---	---	730.1	0.029	0.000	18.6	1	1
03/16/06	9:55 a	-23.6	-23.6	-23.6	---	---	25.2	ENE	0.42	26.1	-39.8	---	---	730.1	0.029	0.000	18.6	1	1
03/16/06	9:56 a	-23.6	-23.6	-23.6	---	---	23.5	ENE	0.39	27.0	-39.3	---	---	730.3	0.029	0.000	18.6	1	1
03/16/06	9:57 a	-23.6	-23.6	-23.6	---	---	22.6	ENE	0.38	25.2	-39.1	---	---	730.2	0.029	0.000	18.6	1	1
03/16/06	9:58 a	-23.6	-23.6	-23.6	---	---	20.9	ENE	0.35	25.2	-38.7	---	---	730.2	0.029	0.000	18.6	1	1
03/16/06	9:59 a	-23.6	-23.6	-23.6	---	---	22.6	ENE	0.38	25.2	-39.2	---	---	730.2	0.029	0.000	18.6	1	1
03/16/06	10:00 a	-23.6	-23.6	-23.6	---	---	21.7	ENE	0.36	23.5	-38.9	---	---	730.2	0.029	0.000	18.6	1	1
03/16/06	10:01 a	-23.6	-23.6	-23.6	---	---	22.6	ENE	0.38	24.3	-39.2	---	---	730.3	0.029	0.000	18.6	1	1
03/16/06	10:02 a	-23.6	-23.6	-23.6	---	---	21.7	ENE	0.36	24.3	-38.9	---	---	730.2	0.029	0.000	18.6	1	1
03/16/06	10:03 a	-23.6	-23.6	-23.6	---	---	20.0	ENE	0.33	24.3	-38.4	---	---	730.3	0.029	0.000	18.6	1	1
03/16/06	10:04 a	-23.6	-23.6	-23.7	---	---	22.6	ENE	0.38	25.2	-39.2	---	---	730.3	0.029	0.000	18.6	1	1
03/16/06	10:05 a	-23.6	-23.6	-23.6	---	---	18.3	ENE	0.30	22.6	-37.9	---	---	730.3	0.029	0.000	18.6	1	1
03/16/06	10:06 a	-23.6	-23.6	-23.6	---	---	22.6	ENE	0.38	25.2	-39.2	---	---	730.2	0.029	0.000	18.6	1	1
03/16/06	10:07 a	-23.6	-23.6	-23.7	---	---	15.7	E	0.26	20.0	-37.0	---	---	730.3	0.029	0.000	18.6	1	1
03/16/06	10:08 a	-23.6	-23.6	-23.6	---	---	15.7	ENE	0.26	20.9	-37.0	---	---	730.4	0.029	0.000	18.6	1	1
03/16/06	10:09 a	-23.6	-23.6	-23.6	---	---	22.6	ENE	0.38	25.2	-39.2	---	---	730.2	0.029	0.000	18.6	1	1
03/16/06	10:10 a	-23.6	-23.6	-23.7	---	---	20.9	ENE	0.35	24.3	-38.7	---	---	730.3	0.029	0.000	18.5	1	1
03/16/06	10:11 a	-23.6	-23.6	-23.6	---	---	17.4	E	0.29	20.9	-37.6	---	---	730.3	0.029	0.000	18.6	1	1
03/16/06	10:12 a	-23.6	-23.6	-23.6	---	---	21.7	ENE	0.36	24.3	-38.9	---	---	730.2	0.029	0.000	18.6	1	1
03/16/06	10:13 a	-23.6	-23.6	-23.7	---	---	21.7	ENE	0.36	24.3	-38.9	---	---	730.3	0.029	0.000	18.6	1	1
03/16/06	10:14 a	-23.6	-23.6	-23.6	---	---	20.9	ENE	0.35	21.7	-38.7	---	---	730.3	0.029	0.000	18.6	1	1
03/16/06	10:15 a	-23.6	-23.6	-23.7	---	---	20.9	ENE	0.35	27.8	-38.7	---	---	730.1	0.029	0.000	18.6	1	1
03/16/06	10:16 a	-23.6	-23.6	-23.6	---	---	23.5	ENE	0.39	27.0	-39.4	---	---	730.3	0.029	0.000	18.6	1	1
03/16/06	10:17 a	-23.6	-23.6	-23.7	---	---	19.1	ENE	0.32	20.9	-38.2	---	---	730.3	0.029	0.000	18.6	1	1
03/16/06	10:18 a	-23.6	-23.6	-23.6	---	---	20.0	ENE	0.33	25.2	-38.4	---	---	730.1	0.029	0.000	18.6	1	1
03/16/06	10:19 a	-23.6	-23.6	-23.7	---	---	22.6	ENE	0.38	25.2	-39.2	---	---	730.2	0.029	0.000	18.6	1	1
03/16/06	10:20 a	-23.6	-23.6	-23.7	---	---	20.0	ENE	0.33	22.6	-38.4	---	---	730.3	0.029	0.000	18.6	1	1
03/16/06	10:21 a	-23.7	-23.6	-23.7	---	---	21.7	ENE	0.36	24.3	-39.0	---	---	730.2	0.029	0.000	18.6	1	1
03/16/06	10:22 a	-23.7	-23.6	-23.7	---	---	24.3	ENE	0.41	27.0	-39.7	---	---	730.2	0.029	0.000	18.6	1	1
03/16/06	10:23 a	-23.7	-23.7	-23.7	---	---	20.9	ENE	0.35	25.2	-38.7	---	---	730.2	0.029	0.000	18.6	1	1
03/16/06	10:24 a	-23.7	-23.7	-23.7	---	---	22.6	ENE	0.38	24.3	-39.2	---	---	730.1	0.029	0.000	18.6	1	1
03/16/06	10:25 a	-23.7	-23.6	-23.7	---	---	21.7	ENE	0.36	23.5	-39.0	---	---	730.2	0.029	0.000	18.6	1	1
03/16/06	10:26 a	-23.7	-23.7	-23.7	---	---	22.6	ENE	0.38	24.3	-39.2	---	---	730.1	0.029	0.000	18.6	1	1
03/16/06	10:27 a	-23.7	-23.7	-23.7	---	---	21.7	ENE	0.36	25.2	-39.0	---	---	730.1	0.029	0.000	18.6	1	1
03/16/06	10:28 a	-23.7	-23.7	-23.7	---	---	22.6	ENE	0.38	25.2	-39.2	---	---	730.1	0.029	0.000	18.6	1	1
03/16/06	10:29 a	-23.7	-23.7	-23.7	---	---	21.7	ENE	0.36	23.5	-39.0	---	---	730.2	0.029	0.000	18.6	1	1
03/16/06	10:30 a	-23.7	-23.7	-23.7	---	---	19.1	ENE	0.32	22.6	-38.2	---	---	730.2	0.029	0.000	18.6	1	1
03/16/06	10:31 a	-23.7	-23.7	-23.7	---	---	22.6	ENE	0.38	24.3	-39.2	---	---	730.1	0.029	0.000	18.6	1	1
03/16/06	10:32 a	-23.7	-23.7	-23.7	---	---	21.7	ENE	0.36	24.3	-39.0	---	---	730.2	0.029	0.000	18.5	1	1
03/16/06	10:33 a	-23.7	-23.7	-23.7	---	---	16.5	E	0.28	20.0	-37.4	---	---	730.3	0.029	0.000	18.6	1	1
03/16/06	10:34 a	-23.7	-23.7	-23.7	---	---	21.7	ENE	0.36	23.5	-39.0	---	---	730.1	0.029	0.000	18.6	1	1
03/16/06	10:35 a	-23.7	-23.7	-23.7	---	---	20.0	ENE	0.33	20.9	-38.5	---	---	730.2	0.029	0.000	18.5	1	1
03/16/06	10:36 a	-23.7	-23.7	-23.7	---	---	20.0	ENE	0.33	21.7	-38.6	---	---	730.1	0.029	0.000	18.5	1	1
03/16/06	10:37 a	-23.7	-23.7	-23.7	---	---	20.9	ENE	0.35	22.6	-38.8	---	---	730.1	0.029	0.000	18.5	1	1
03/16/06	10:38 a	-23.7	-23.7	-23.7	---	---	20.9	ENE	0.35	22.6	-38.8	---	---	730.1	0.029	0.000	18.5	1	1
03/16/06	10:39 a	-23.7	-23.7	-23.7	---	---	22.6	ENE	0.38	23.5	-39.3	---	---	730.2	0.029	0.000	18.5	1	1
03/16/06	10:40 a	-23.7	-23.7	-23.7	---	---	16.5	ENE	0.28	20.0	-37.4	---	---	730.1	0.029	0.000	18.5	1	1
03/16/06	10:41 a	-23.7	-23.7	-23.8	---	---	20.0	ENE	0.33	21.7	-38.6	---	---	730.1	0.029	0.000	18.5	1	1
03/16/06	10:42 a	-23.7	-23.7	-23.8	---	---	20.9	ENE	0.35	24.3	-38.8	---	---	730.0	0.029	0.000	18.5	1	1
03/16/06	10:43 a	-23.7	-23.7	-23.8	---	---	21.7	ENE	0.36	23.5	-39.1	---	---	730.1	0.029	0.000	18.5	1	1
03/16/06	10:44 a	-23.7	-23.7	-23.8	---	---	22.6	ENE	0.38	25.2	-39.3	---	---	730.1	0.029	0.000	18.5	1	1
03/16/06	10:45 a	-23.8	-23.7	-23.8	---	---	21.7	ENE	0.36	22.6	-39.1	---	---	730.0	0.029	0.000	18.5	1	1
03/16/06	10:46 a	-23.8	-23.7	-23.8	---	---	21.7	ENE	0.36	23.5	-39.1	---	---	730.1	0.029	0.000	18.5	1	1
03/16/06	10:47 a	-23.8	-23.7	-23.8	---	---	16.5	E	0.28	20.0	-37.5	---	---	730.1	0.029	0.000	18.5	1	1
03/16/06	10:48 a	-23.7	-23.7	-23.8	---	---	16.5	E	0.28	21.7	-37.4	---	---	730.1	0.029	0.000	18.5	1	1
03/16/06	10:49 a	-23.7	-23.7	-23.8	---	---	19.1	ENE	0.32	21.7	-38.3	---	---	730.1	0.029	0.000	18.5	1	1
03/16/06	10:50 a	-23.7	-23.7	-23.8	---	---	20.9	ENE	0.35	21.7	-38.8	---	---	730.0	0.029	0.000	18.5	1	1
03/16/06	10:51 a	-23.7	-23.7	-23.8	---	---	20.0	ENE	0.33	22.6	-38.6	---	---	730.0	0.029	0.000	18.5	1	1
03/16/06	10:52 a	-23.7	-23.7	-23.8	---	---	20.0	ENE	0.33	22.6	-38.6	---	---	730.1	0.029	0.000	18.5	1	1
03/16/06	10:53 a	-23.7	-23.7	-23.8	---	---	21.7	ENE	0.36	23.5	-39.1	---	---	730.1	0.029	0.000	18.5	1	1
03/16/06	10:54 a	-23.8	-23.7	-23.8	---	---	20.9	NE	0.35	23.5	-38.9	---	---	730.1	0.029	0.000	18.5	1	1
03/16/06	10:55 a	-23.8	-23.8	-23.8	---	---	22.6	ENE	0.38	24.3	-39.4	---	---	730.0	0.029	0.000	18.5	1	1
03/16/06	10:56 a	-23.8	-23.7	-23.8	---	---	18.3	ENE	0.30	20.9	-38.1	---	---	730.0	0.029	0.000	18.5	1	1
03/16/06	10:57 a	-23.8	-23.8	-23.8	---	---	20.0	ENE	0.33	21.7	-38.6	---	---	730.0	0.029	0.000	18.5	1	1
03/16/06	10:58 a	-23.8	-23.8	-23.8	---	---	21.7	ENE	0.36	24.3	-39.1	---	---	729.9	0.029	0.000	18.5	1	1
03/16/06	10:59 a	-23.8	-23.8	-23.8	---	---	20.0	ENE	0.33	22.6	-38.6	---	---	730.0	0.029	0.000	18.5	1	1
03/16/06	11:00 a	-23.8	-23.8	-23.8	---	---	23.5	ENE	0.39	25.2	-39.6	---	---	730.0	0.029	0.000	18.6	1	1
03/16/06	11:01 a	-23.8	-23.8	-23.8	---	---	20.0	ENE	0.33	23.5	-38.6	---	---	730.1	0.029	0.000	18.5	1	1
03/16/06	11:02 a	-23.8	-23.8	-23.8	---	---	20.9	ENE	0.35	22.6	-38.9	---	---	730.0	0.029	0.000	18.5	1	1
03/16/06	11:03 a	-23.8	-23.8	-23.8	---	---	20.9	ENE	0.35	22.6	-38.9	---	---	729.9	0.029	0.000	18.5	1	1
03/16/06	11:04 a	-23.8	-23.8	-23.8	---	---	23.5	ENE	0.39	24.3	-39.7	---	---	730.0	0.029	0.000	18.5	1	1
03/16/06	11:05 a	-23.8	-23.8	-23.8	---	---	20.9	ENE	0.35	22.6	-38.9	---	---	730.0	0.029	0.000	18.5	1	1
03/16/06	11:06 a	-23.8	-23.8	-23.8	---	---	19.1	ENE	0.32	20.9	-38.4	---	---	730.0	0.029	0.000	18.5	1	1
03/16/06	11:07 a	-23.8	-23.8	-23.8	---	---	20.0	ENE	0.33	23.5	-38.7	---	---	729.9	0.029	0.000	18.5	1	1
03/16/06	11:08 a	-23.8	-23.8	-23.8	---	---	20.9	ENE	0.35	23.5	-38.9	---	---	730.1	0.029	0.000	18.5	1	1
03/16/06	11:09 a	-23.8	-23.8	-23.8	---	---	20.0	ENE	0.33	22.6	-38.7	---	---	730.1	0.029	0.000	18.4	1	1
03/16/06	11:10 a	-23.8	-23.8	-23.8	---	---	21.7	ENE	0.36	25.2	-39.2	---	---	729.9	0.029	0.000	18.4	1	1
03/16/06	11:11 a	-23.8	-23.8	-23.8	---	---	21.7	ENE	0.36	24.3	-39.2	---	---	729.9	0.029	0.000	18.4	1	1
03/16/06	11:12 a	-23.8	-23.8	-23.9	---	---	19.1	ENE	0.32	25.2	-38.4	---	---	730.1	0.029	0.000	18.4	1	1
03/16/06	11:13 a	-23.9	-23.8	-23.9	---	---	22.6	ENE	0.38	25.2	-39.5	---	---	730.0	0.029	0.000	18.4	1	1
03/16/06	11:14 a	-23.9	-23.8	-23.9	---	---	19.1	ENE	0.32	20.9	-38.5	---	---	730.1	0.029	0.000	18.4	1	1
03/16/06	11:15 a	-23.9	-23.8	-23.9	---	---	20.0	ENE	0.33	25.2	-38.8	---	---	730.0	0.029	0.000	18.4	1	1
03/16/06	11:16 a	-23.9	-23.9	-23.9	---	---	19.1	ENE	0.32	20.9	-38.5	---	---	730.0	0.029	0.000	18.4	1	1
03/16/06	11:17 a	-23.9	-23.8	-23.9	---	---	19.1	ENE	0.32	21.7	-38.5	---	---	730.0	0.029	0.000	18.4	1	1
03/16/06	11:18 a	-23.9	-23.8	-23.9	---	---	19.1	ENE	0.32	21.7	-38.5	---	---	730.0	0.029	0.000	18.4	1	1
03/16/06	11:19 a	-23.9	-23.9	-23.9	---	---	18.3	ENE	0.30	21.7	-38.2	---	---	730.0	0.029	0.000	18.4	1	1
03/16/06	11:20 a	-23.9	-23.9	-23.9	---	---	18.3	ENE	0.30	21.7	-38.2	---	---	730.0	0.029	0.000	18.4	1	1
03/16/06	11:21 a	-23.9	-23.9	-23.9	---	---	18.3	ENE	0.30	23.5	-38.2	---	---	729.9	0.029	0.000	18.4	1	1
03/16/06	11:22 a	-23.9	-23.9	-23.9	---	---	20.9	ENE	0.35	23.5	-39.1	---	---	729.9	0.029	0.000	18.4	1	1
03/16/06	11:23 a	-23.9	-23.9	-23.9	---	---	18.3	ENE	0.30	21.7	-38.2	---	---	730.1	0.029	0.000	18.4	1	1
03/16/06	11:24 a	-23.9	-23.9	-23.9	---	---	13.9	ENE	0.23	26.1	-36.7	---	---	729.8	0.029	0.000	18.4	1	1
03/16/06	11:25 a	-23.9	-23.9	-23.9	---	---	21.7	ENE	0.36	27.8	-39.3	---	---	729.9	0.029	0.000	18.4	1	1
03/16/06	11:26 a	-23.9	-23.9	-23.9	---	---	20.0	ENE	0.33	21.7	-38.8	---	---	730.0	0.029	0.000	18.4	1	1
03/16/06	11:27 a	-23.9	-23.9	-23.9	---	---	17.4	ENE	0.29	20.9	-38.1	---	---	730.0	0.029	0.000	18.4	1	1
03/16/06	11:28 a	-23.9	-23.9	-23.9	---	---	17.4	ENE	0.29	24.3	-38.1	---	---	729.8	0.029	0.000	18.4	1	1
03/16/06	11:29 a	-23.9	-23.9	-23.9	---	---	20.9	ENE	0.35	25.2	-39.1	---	---	730.0	0.029	0.000	18.4	1	1
03/16/06	11:30 a	-23.9	-23.9	-23.9	---	---	15.7	ENE	0.26	17.4	-37.4	---	---	730.0	0.029	0.000	18.4	1	1
03/16/06	11:31 a	-23.9	-23.9	-23.9	---	---	13.0	ENE	0.22	16.5	-36.4	---	---	729.9	0.029	0.000	18.4	1	1
03/16/06	11:32 a	-23.9	-23.9	-23.9	---	---	20.9	NE	0.35	23.5	-39.1	---	---	729.8	0.029	0.000	18.4	1	1
03/16/06	11:33 a	-23.9	-23.9	-23.9	---	---	20.9	NE	0.35	22.6	-39.1	---	---	729.8	0.029	0.000	18.4	1	1
03/16/06	11:34 a	-23.9	-23.9	-23.9	---	---	17.4	ENE	0.29	21.7	-38.1	---	---	729.9	0.029	0.000	18.4	1	1
03/16/06	11:35 a	-23.9	-23.9	-23.9	---	---	21.7	ENE	0.36	24.3	-39.3	---	---	729.8	0.029	0.000	18.4	1	1
03/16/06	11:36 a	-23.9	-23.9	-23.9	---	---	21.7	ENE	0.36	24.3	-39.3	---	---	729.8	0.029	0.000	18.4	1	1
03/16/06	11:37 a	-23.9	-23.9	-23.9	---	---	19.1	ENE	0.32	21.7	-38.6	---	---	729.8	0.029	0.000	18.4	1	1
03/16/06	11:38 a	-23.9	-23.9	-23.9	---	---	11.3	ENE	0.19	17.4	-35.6	---	---	729.9	0.029	0.000	18.4	1	1
03/16/06	11:39 a	-23.9	-23.9	-23.9	---	---	16.5	ENE	0.28	23.5	-37.7	---	---	729.7	0.029	0.000	18.4	1	1
03/16/06	11:40 a	-23.9	-23.9	-23.9	---	---	22.6	ENE	0.38	23.5	-39.5	---	---	729.8	0.029	0.000	18.4	1	1
03/16/06	11:41 a	-23.9	-23.9	-23.9	---	---	20.9	ENE	0.35	24.3	-39.1	---	---	729.8	0.029	0.000	18.4	1	1
03/16/06	11:42 a	-23.9	-23.9	-23.9	---	---	20.0	ENE	0.33	23.5	-38.8	---	---	729.7	0.029	0.000	18.4	1	1
03/16/06	11:43 a	-23.9	-23.9	-23.9	---	---	20.9	ENE	0.35	23.5	-39.1	---	---	729.8	0.029	0.000	18.4	1	1
03/16/06	11:44 a	-23.9	-23.9	-23.9	---	---	18.3	ENE	0.30	23.5	-38.2	---	---	729.7	0.029	0.000	18.4	1	1
03/16/06	11:45 a	-23.9	-23.8	-23.9	---	---	21.7	ENE	0.36	24.3	-39.3	---	---	729.7	0.029	0.000	18.4	1	1
03/16/06	11:46 a	-23.9	-23.8	-23.9	---	---	20.0	ENE	0.33	25.2	-38.8	---	---	729.7	0.029	0.000	18.4	1	1
03/16/06	11:47 a	-23.9	-23.9	-23.9	---	---	20.9	ENE	0.35	22.6	-39.1	---	---	729.9	0.029	0.000	18.4	1	1
03/16/06	11:48 a	-23.9	-23.9	-23.9	---	---	16.5	ENE	0.28	19.1	-37.7	---	---	729.8	0.029	0.000	18.4	1	1
03/16/06	11:49 a	-23.9	-23.8	-23.9	---	---	15.7	ENE	0.26	18.3	-37.3	---	---	729.8	0.029	0.000	18.4	1	1
03/16/06	11:50 a	-23.9	-23.8	-23.9	---	---	20.0	ENE	0.33	23.5	-38.8	---	---	729.7	0.029	0.000	18.4	1	1
03/16/06	11:51 a	-23.9	-23.8	-23.9	---	---	20.9	ENE	0.35	25.2	-39.1	---	---	729.7	0.029	0.000	18.4	1	1
03/16/06	11:52 a	-23.9	-23.8	-23.9	---	---	20.9	ENE	0.35	23.5	-39.1	---	---	729.8	0.029	0.000	18.4	1	1
03/16/06	11:53 a	-23.9	-23.9	-23.9	---	---	13.0	NE	0.22	23.5	-36.3	---	---	729.6	0.029	0.000	18.4	1	1
03/16/06	11:54 a	-23.9	-23.8	-23.9	---	---	23.5	NE	0.39	27.8	-39.7	---	---	729.8	0.029	0.000	18.4	1	1
03/16/06	11:55 a	-23.9	-23.8	-23.9	---	---	13.9	NE	0.23	20.0	-36.7	---	---	729.8	0.029	0.000	18.4	1	1
03/16/06	11:56 a	-23.9	-23.8	-23.9	---	---	22.6	NE	0.38	25.2	-39.5	---	---	729.8	0.029	0.000	18.4	1	1
03/16/06	11:57 a	-23.9	-23.8	-23.9	---	---	20.0	NE	0.33	21.7	-38.8	---	---	729.8	0.029	0.000	18.4	1	1
03/16/06	11:58 a	-23.9	-23.9	-23.9	---	---	15.7	NE	0.26	20.0	-37.3	---	---	729.7	0.029	0.000	18.4	1	1
03/16/06	11:59 a	-23.9	-23.8	-23.9	---	---	22.6	ENE	0.38	25.2	-39.5	---	---	729.7	0.029	0.000	18.4	1	1
03/16/06	12:00 p	-23.9	-23.9	-23.9	---	---	19.1	NE	0.32	23.5	-38.5	---	---	729.8	0.029	0.000	18.4	1	1
03/16/06	12:01 p	-23.9	-23.9	-23.9	---	---	20.0	NE	0.33	24.3	-38.8	---	---	729.8	0.029	0.000	18.4	1	1
03/16/06	12:02 p	-23.9	-23.9	-23.9	---	---	20.9	NE	0.35	26.1	-39.1	---	---	729.7	0.029	0.000	18.4	1	1
03/16/06	12:03 p	-23.9	-23.9	-23.9	---	---	19.1	NE	0.32	26.1	-38.5	---	---	729.6	0.029	0.000	18.4	1	1
03/16/06	12:04 p	-23.9	-23.9	-23.9	---	---	23.5	NE	0.39	25.2	-39.7	---	---	729.7	0.029	0.000	18.4	1	1
03/16/06	12:05 p	-23.9	-23.9	-23.9	---	---	17.4	ENE	0.29	20.9	-37.9	---	---	729.9	0.029	0.000	18.4	1	1
03/16/06	12:06 p	-23.9	-23.9	-23.9	---	---	17.4	ENE	0.29	27.0	-37.9	---	---	729.6	0.029	0.000	18.4	1	1
03/16/06	12:07 p	-23.9	-23.9	-23.9	---	---	23.5	NE	0.39	27.0	-39.7	---	---	729.7	0.029	0.000	18.4	1	1
03/16/06	12:08 p	-23.9	-23.9	-23.9	---	---	20.0	NE	0.33	22.6	-38.8	---	---	729.7	0.029	0.000	18.4	1	1
03/16/06	12:09 p	-23.9	-23.9	-23.9	---	---	20.0	NE	0.33	22.6	-38.8	---	---	729.7	0.029	0.000	18.4	1	1
03/16/06	12:10 p	-23.9	-23.9	-23.9	---	---	20.0	NE	0.33	22.6	-38.8	---	---	729.7	0.029	0.000	18.4	1	1
03/16/06	12:11 p	-23.9	-23.9	-23.9	---	---	19.1	ENE	0.32	22.6	-38.6	---	---	729.8	0.029	0.000	18.4	1	1
03/16/06	12:12 p	-23.9	-23.9	-24.0	---	---	17.4	ENE	0.29	21.7	-38.1	---	---	729.7	0.029	0.000	18.4	1	1
03/16/06	12:13 p	-23.9	-23.9	-23.9	---	---	18.3	ENE	0.30	21.7	-38.3	---	---	729.8	0.029	0.000	18.4	1	1
03/16/06	12:14 p	-23.9	-23.9	-23.9	---	---	18.3	NE	0.30	20.9	-38.3	---	---	729.7	0.029	0.000	18.4	1	1
03/16/06	12:15 p	-24.0	-23.9	-24.0	---	---	20.0	NE	0.33	24.3	-38.9	---	---	729.7	0.029	0.000	18.4	1	1
03/16/06	12:16 p	-24.0	-23.9	-24.0	---	---	19.1	NE	0.32	21.7	-38.7	---	---	729.7	0.029	0.000	18.4	1	1
03/16/06	12:17 p	-24.0	-24.0	-24.0	---	---	20.0	NE	0.33	22.6	-38.9	---	---	729.8	0.029	0.000	18.4	1	1
03/16/06	12:18 p	-24.0	-24.0	-24.1	---	---	20.0	ENE	0.33	23.5	-38.9	---	---	729.6	0.029	0.000	18.4	1	1
03/16/06	12:19 p	-24.0	-24.0	-24.0	---	---	19.1	NE	0.32	22.6	-38.7	---	---	729.6	0.029	0.000	18.4	1	1
03/16/06	12:20 p	-24.0	-24.0	-24.0	---	---	20.9	ENE	0.35	23.5	-39.2	---	---	729.7	0.029	0.000	18.4	1	1
03/16/06	12:21 p	-24.0	-24.0	-24.0	---	---	14.8	NE	0.25	24.3	-37.2	---	---	729.6	0.029	0.000	18.4	1	1
03/16/06	12:22 p	-24.0	-24.0	-24.1	---	---	20.9	ENE	0.35	25.2	-39.2	---	---	729.7	0.029	0.000	18.4	1	1
03/16/06	12:23 p	-24.0	-24.0	-24.1	---	---	15.7	ENE	0.26	20.0	-37.5	---	---	729.9	0.029	0.000	18.4	1	1
03/16/06	12:24 p	-24.1	-24.0	-24.1	---	---	20.0	NE	0.33	23.5	-39.0	---	---	729.7	0.029	0.000	18.4	1	1
03/16/06	12:25 p	-24.0	-24.0	-24.1	---	---	13.9	NE	0.23	20.9	-36.8	---	---	729.7	0.029	0.000	18.4	1	1
03/16/06	12:26 p	-24.1	-24.0	-24.1	---	---	18.3	NE	0.30	21.7	-38.4	---	---	729.6	0.029	0.000	18.4	1	1
03/16/06	12:27 p	-24.1	-24.0	-24.1	---	---	13.9	NE	0.23	20.9	-36.9	---	---	729.6	0.029	0.000	18.4	1	1
03/16/06	12:28 p	-24.1	-24.1	-24.1	---	---	15.7	NE	0.26	20.9	-37.6	---	---	729.8	0.029	0.000	18.4	1	1
03/16/06	12:29 p	-24.1	-24.0	-24.1	---	---	12.2	NE	0.20	22.6	-36.2	---	---	729.6	0.029	0.000	18.4	1	1
03/16/06	12:30 p	-24.1	-24.0	-24.1	---	---	14.8	NE	0.25	20.0	-37.2	---	---	729.7	0.029	0.000	18.4	1	1
03/16/06	12:31 p	-24.1	-24.1	-24.1	---	---	17.4	NE	0.29	21.7	-38.2	---	---	729.7	0.029	0.000	18.4	1	1
03/16/06	12:32 p	-24.1	-24.0	-24.1	---	---	9.6	NE	0.16	17.4	-34.8	---	---	729.8	0.029	0.000	18.4	1	1
03/16/06	12:33 p	-24.0	-24.0	-24.0	---	---	7.0	NNW	0.12	20.9	-33.2	---	---	729.7	0.029	0.000	18.4	1	1
03/16/06	12:34 p	-24.0	-24.0	-24.1	---	---	17.4	NE	0.29	20.0	-38.1	---	---	729.7	0.029	0.000	18.4	1	1
03/16/06	12:35 p	-24.1	-24.0	-24.1	---	---	13.9	NE	0.23	15.7	-36.9	---	---	729.9	0.029	0.000	18.4	1	1
03/16/06	12:36 p	-24.0	-24.0	-24.1	---	---	7.8	NNE	0.13	13.9	-33.7	---	---	729.7	0.029	0.000	18.4	1	1
03/16/06	12:37 p	-24.1	-24.0	-24.1	---	---	11.3	N	0.19	20.0	-35.8	---	---	729.6	0.029	0.000	18.4	1	1
03/16/06	12:38 p	-24.0	-24.0	-24.1	---	---	15.7	NE	0.26	17.4	-37.5	---	---	729.8	0.029	0.000	18.4	1	1
03/16/06	12:39 p	-24.0	-24.0	-24.1	---	---	7.0	NE	0.12	13.0	-33.2	---	---	729.7	0.029	0.000	18.4	1	1
03/16/06	12:40 p	-24.0	-24.0	-24.1	---	---	14.8	NE	0.25	17.4	-37.2	---	---	729.6	0.029	0.000	18.4	1	1
03/16/06	12:41 p	-24.0	-24.0	-24.1	---	---	13.0	NE	0.22	20.0	-36.4	---	---	729.7	0.029	0.000	18.4	1	1
03/16/06	12:42 p	-24.0	-24.0	-24.0	---	---	16.5	NE	0.28	18.3	-37.8	---	---	729.7	0.029	0.000	18.4	1	1
03/16/06	12:43 p	-24.0	-23.9	-24.0	---	---	6.1	NE	0.10	14.8	-32.5	---	---	729.8	0.029	0.000	18.4	1	1
03/16/06	12:44 p	-24.0	-23.9	-24.0	---	---	11.3	NE	0.19	14.8	-35.7	---	---	729.7	0.029	0.000	18.3	1	1
03/16/06	12:45 p	-23.9	-23.9	-24.0	---	---	10.4	NE	0.17	16.5	-35.2	---	---	729.7	0.029	0.000	18.3	1	1
03/16/06	12:46 p	-23.9	-23.9	-24.0	---	---	14.8	NE	0.25	16.5	-37.1	---	---	729.7	0.029	0.000	18.3	1	1
03/16/06	12:47 p	-23.9	-23.9	-24.0	---	---	16.5	NE	0.28	20.9	-37.7	---	---	729.7	0.029	0.000	18.3	1	1
03/16/06	12:48 p	-23.9	-23.9	-24.0	---	---	9.6	NE	0.16	13.0	-34.7	---	---	729.8	0.029	0.000	18.3	1	1
03/16/06	12:49 p	-23.9	-23.9	-23.9	---	---	13.0	ENE	0.22	19.1	-36.4	---	---	729.6	0.029	0.000	18.3	1	1
03/16/06	12:50 p	-23.9	-23.9	-23.9	---	---	14.8	NE	0.25	18.3	-37.0	---	---	729.6	0.029	0.000	18.3	1	1
03/16/06	12:51 p	-23.9	-23.9	-23.9	---	---	15.7	NE	0.26	20.0	-37.4	---	---	729.7	0.029	0.000	18.3	1	1
03/16/06	12:52 p	-23.9	-23.9	-23.9	---	---	12.2	NE	0.20	14.8	-35.9	---	---	729.7	0.029	0.000	18.4	1	1
03/16/06	12:53 p	-23.9	-23.9	-23.9	---	---	13.9	NE	0.23	17.4	-36.7	---	---	729.7	0.029	0.000	18.4	1	1
03/16/06	12:54 p	-23.9	-23.9	-23.9	---	---	12.2	NE	0.20	16.5	-35.9	---	---	729.6	0.029	0.000	18.4	1	1
03/16/06	12:55 p	-23.9	-23.9	-23.9	---	---	14.8	NE	0.25	20.9	-37.0	---	---	729.6	0.029	0.000	18.4	1	1
03/16/06	12:56 p	-23.9	-23.9	-23.9	---	---	11.3	NE	0.19	16.5	-35.6	---	---	729.7	0.029	0.000	18.4	1	1
03/16/06	12:57 p	-23.9	-23.8	-23.9	---	---	14.8	NE	0.25	19.1	-37.0	---	---	729.7	0.029	0.000	18.4	1	1
03/16/06	12:58 p	-23.9	-23.8	-23.9	---	---	10.4	NE	0.17	17.4	-35.1	---	---	729.7	0.029	0.000	18.4	1	1
03/16/06	12:59 p	-23.8	-23.8	-23.8	---	---	10.4	NE	0.17	18.3	-35.1	---	---	729.5	0.029	0.000	18.4	1	1
03/16/06	1:00 p	-23.8	-23.8	-23.8	---	---	16.5	NE	0.28	19.1	-37.6	---	---	729.8	0.029	0.000	18.4	1	1
03/16/06	1:01 p	-23.8	-23.8	-23.8	---	---	16.5	NE	0.28	18.3	-37.6	---	---	729.6	0.029	0.000	18.4	1	1
03/16/06	1:02 p	-23.8	-23.8	-23.8	---	---	16.5	NE	0.28	20.0	-37.6	---	---	729.7	0.029	0.000	18.4	1	1
03/16/06	1:03 p	-23.8	-23.8	-23.8	---	---	12.2	NE	0.20	15.7	-35.9	---	---	729.7	0.029	0.000	18.4	1	1
03/16/06	1:04 p	-23.8	-23.8	-23.8	---	---	13.9	NE	0.23	18.3	-36.6	---	---	729.7	0.029	0.000	18.4	1	1
03/16/06	1:05 p	-23.8	-23.8	-23.8	---	---	13.0	NE	0.22	17.4	-36.2	---	---	729.6	0.029	0.000	18.4	1	1
03/16/06	1:06 p	-23.8	-23.8	-23.8	---	---	13.9	NE	0.23	14.8	-36.6	---	---	729.6	0.029	0.000	18.4	1	1
03/16/06	1:07 p	-23.8	-23.8	-23.8	---	---	12.2	ENE	0.20	18.3	-35.8	---	---	729.7	0.029	0.000	18.4	1	1
03/16/06	1:08 p	-23.8	-23.8	-23.8	---	---	15.7	NNE	0.26	20.0	-37.2	---	---	729.7	0.029	0.000	18.4	1	1
03/16/06	1:09 p	-23.8	-23.8	-23.8	---	---	12.2	NNE	0.20	14.8	-35.8	---	---	729.7	0.029	0.000	18.4	1	1
03/16/06	1:10 p	-23.8	-23.8	-23.8	---	---	11.3	NE	0.19	15.7	-35.4	---	---	729.7	0.029	0.000	18.4	1	1
03/16/06	1:11 p	-23.8	-23.8	-23.8	---	---	13.0	NE	0.22	18.3	-36.2	---	---	729.6	0.029	0.000	18.4	1	1
03/16/06	1:12 p	-23.8	-23.8	-23.8	---	---	15.7	NE	0.26	20.9	-37.2	---	---	729.6	0.029	0.000	18.4	1	1
03/16/06	1:13 p	-23.8	-23.8	-23.8	---	---	15.7	NE	0.26	20.0	-37.2	---	---	729.7	0.029	0.000	18.4	1	1
03/16/06	1:14 p	-23.8	-23.8	-23.8	---	---	9.6	NE	0.16	19.1	-34.5	---	---	729.6	0.029	0.000	18.5	1	1
03/16/06	1:15 p	-23.8	-23.8	-23.8	---	---	12.2	NNE	0.20	20.0	-35.8	---	---	729.6	0.029	0.000	18.5	1	1
03/16/06	1:16 p	-23.8	-23.8	-23.8	---	---	17.4	ENE	0.29	21.7	-37.8	---	---	729.7	0.029	0.000	18.5	1	1
03/16/06	1:17 p	-23.8	-23.7	-23.8	---	---	13.9	NE	0.23	20.0	-36.6	---	---	729.5	0.029	0.000	18.5	1	1
03/16/06	1:18 p	-23.8	-23.7	-23.8	---	---	13.9	ENE	0.23	19.1	-36.6	---	---	729.6	0.029	0.000	18.5	1	1
03/16/06	1:19 p	-23.8	-23.7	-23.8	---	---	13.9	NE	0.23	16.5	-36.6	---	---	729.6	0.029	0.000	18.6	1	1
03/16/06	1:20 p	-23.8	-23.8	-23.8	---	---	15.7	NE	0.26	19.1	-37.2	---	---	729.6	0.029	0.000	18.6	1	1
03/16/06	1:21 p	-23.8	-23.7	-23.8	---	---	11.3	NE	0.19	19.1	-35.4	---	---	729.6	0.029	0.000	18.6	1	1
03/16/06	1:22 p	-23.8	-23.8	-23.8	---	---	11.3	NE	0.19	16.5	-35.4	---	---	729.7	0.029	0.000	18.6	1	1
03/16/06	1:23 p	-23.8	-23.8	-23.8	---	---	14.8	ENE	0.25	18.3	-36.9	---	---	729.7	0.029	0.000	18.6	1	1
03/16/06	1:24 p	-23.8	-23.8	-23.8	---	---	17.4	NE	0.29	20.0	-37.8	---	---	729.7	0.029	0.000	18.6	1	1
03/16/06	1:25 p	-23.8	-23.8	-23.8	---	---	11.3	NE	0.19	16.5	-35.4	---	---	729.7	0.029	0.000	18.6	1	1
03/16/06	1:26 p	-23.8	-23.8	-23.8	---	---	12.2	NE	0.20	19.1	-35.8	---	---	729.7	0.029	0.000	18.6	1	1
03/16/06	1:27 p	-23.8	-23.8	-23.8	---	---	13.9	NE	0.23	19.1	-36.6	---	---	729.6	0.029	0.000	18.6	1	1
03/16/06	1:28 p	-23.8	-23.8	-23.8	---	---	13.9	NE	0.23	17.4	-36.6	---	---	729.6	0.029	0.000	18.6	1	1
03/16/06	1:29 p	-23.8	-23.8	-23.8	---	---	17.4	NE	0.29	19.1	-37.8	---	---	729.6	0.029	0.000	18.6	1	1
03/16/06	1:30 p	-23.8	-23.8	-23.8	---	---	16.5	NE	0.28	18.3	-37.5	---	---	729.6	0.029	0.000	18.6	1	1
03/16/06	1:31 p	-23.8	-23.8	-23.8	---	---	13.9	NE	0.23	16.5	-36.6	---	---	729.6	0.029	0.000	18.6	1	1
03/16/06	1:32 p	-23.8	-23.8	-23.8	---	---	16.5	NE	0.28	20.9	-37.5	---	---	729.6	0.029	0.000	18.6	1	1
03/16/06	1:33 p	-23.8	-23.8	-23.8	---	---	10.4	NNE	0.17	14.8	-34.9	---	---	729.6	0.029	0.000	18.5	1	1
03/16/06	1:34 p	-23.8	-23.8	-23.8	---	---	16.5	ENE	0.28	20.9	-37.5	---	---	729.7	0.029	0.000	18.5	1	1
03/16/06	1:35 p	-23.8	-23.8	-23.8	---	---	10.4	NE	0.17	15.7	-34.9	---	---	729.6	0.029	0.000	18.5	1	1
03/16/06	1:36 p	-23.8	-23.7	-23.8	---	---	13.9	NE	0.23	19.1	-36.6	---	---	729.6	0.029	0.000	18.5	1	1
03/16/06	1:37 p	-23.8	-23.7	-23.8	---	---	16.5	NE	0.28	20.0	-37.5	---	---	729.6	0.029	0.000	18.5	1	1
03/16/06	1:38 p	-23.8	-23.8	-23.8	---	---	9.6	NE	0.16	16.5	-34.5	---	---	729.6	0.029	0.000	18.5	1	1
03/16/06	1:39 p	-23.8	-23.8	-23.8	---	---	16.5	NE	0.28	20.0	-37.5	---	---	729.5	0.029	0.000	18.5	1	1
03/16/06	1:40 p	-23.8	-23.8	-23.8	---	---	13.9	NE	0.23	19.1	-36.6	---	---	729.5	0.029	0.000	18.5	1	1
03/16/06	1:41 p	-23.8	-23.8	-23.8	---	---	13.9	ENE	0.23	20.0	-36.6	---	---	729.5	0.029	0.000	18.5	1	1
03/16/06	1:42 p	-23.8	-23.8	-23.8	---	---	15.7	NE	0.26	20.9	-37.2	---	---	729.5	0.029	0.000	18.5	1	1
03/16/06	1:43 p	-23.8	-23.8	-23.8	---	---	15.7	NE	0.26	18.3	-37.2	---	---	729.4	0.029	0.000	18.5	1	1
03/16/06	1:44 p	-23.8	-23.8	-23.8	---	---	20.0	ENE	0.33	21.7	-38.6	---	---	729.5	0.029	0.000	18.4	1	1
03/16/06	1:45 p	-23.8	-23.8	-23.8	---	---	13.9	ENE	0.23	19.1	-36.6	---	---	729.5	0.029	0.000	18.4	1	1
03/16/06	1:46 p	-23.8	-23.8	-23.8	---	---	16.5	ENE	0.28	20.9	-37.5	---	---	729.5	0.029	0.000	18.4	1	1
03/16/06	1:47 p	-23.8	-23.8	-23.8	---	---	15.7	NE	0.26	19.1	-37.2	---	---	729.6	0.029	0.000	18.4	1	1
03/16/06	1:48 p	-23.8	-23.8	-23.8	---	---	16.5	NE	0.28	20.0	-37.6	---	---	729.5	0.029	0.000	18.4	1	1
03/16/06	1:49 p	-23.8	-23.8	-23.8	---	---	12.2	ENE	0.20	19.1	-35.9	---	---	729.4	0.029	0.000	18.4	1	1
03/16/06	1:50 p	-23.8	-23.8	-23.8	---	---	16.5	NE	0.28	21.7	-37.6	---	---	729.5	0.029	0.000	18.4	1	1
03/16/06	1:51 p	-23.8	-23.8	-23.8	---	---	13.0	NE	0.22	20.0	-36.3	---	---	729.5	0.029	0.000	18.4	1	1
03/16/06	1:52 p	-23.8	-23.8	-23.8	---	---	17.4	ENE	0.29	20.9	-37.9	---	---	729.6	0.029	0.000	18.4	1	1
03/16/06	1:53 p	-23.8	-23.8	-23.9	---	---	13.9	NE	0.23	16.5	-36.6	---	---	729.5	0.029	0.000	18.4	1	1
03/16/06	1:54 p	-23.9	-23.8	-23.9	---	---	17.4	NE	0.29	21.7	-37.9	---	---	729.5	0.029	0.000	18.4	1	1
03/16/06	1:55 p	-23.9	-23.8	-23.9	---	---	12.2	ENE	0.20	20.0	-35.9	---	---	729.5	0.029	0.000	18.4	1	1
03/16/06	1:56 p	-23.9	-23.8	-23.9	---	---	13.9	NE	0.23	19.1	-36.7	---	---	729.4	0.029	0.000	18.4	1	1
03/16/06	1:57 p	-23.9	-23.8	-23.9	---	---	13.9	NE	0.23	20.0	-36.7	---	---	729.4	0.029	0.000	18.4	1	1
03/16/06	1:58 p	-23.9	-23.8	-23.9	---	---	15.7	NE	0.26	19.1	-37.3	---	---	729.5	0.029	0.000	18.4	1	1
03/16/06	1:59 p	-23.8	-23.8	-23.9	---	---	16.5	NE	0.28	20.9	-37.6	---	---	729.5	0.029	0.000	18.4	1	1
03/16/06	2:00 p	-23.9	-23.8	-23.9	---	---	12.2	ENE	0.20	19.1	-35.9	---	---	729.4	0.029	0.000	18.4	1	1
03/16/06	2:01 p	-23.9	-23.9	-23.9	---	---	16.5	NE	0.28	20.0	-37.7	---	---	729.5	0.029	0.000	18.4	1	1
03/16/06	2:02 p	-23.9	-23.9	-23.9	---	---	9.6	NE	0.16	19.1	-34.7	---	---	729.4	0.029	0.000	18.4	1	1
03/16/06	2:03 p	-23.9	-23.9	-23.9	---	---	16.5	ENE	0.28	20.0	-37.7	---	---	729.4	0.029	0.000	18.4	1	1
03/16/06	2:04 p	-23.9	-23.9	-23.9	---	---	13.9	NE	0.23	20.9	-36.7	---	---	729.3	0.029	0.000	18.4	1	1
03/16/06	2:05 p	-23.9	-23.9	-23.9	---	---	14.8	NE	0.25	20.9	-37.0	---	---	729.4	0.029	0.000	18.4	1	1
03/16/06	2:06 p	-23.9	-23.9	-23.9	---	---	15.7	ENE	0.26	22.6	-37.3	---	---	729.4	0.029	0.000	18.4	1	1
03/16/06	2:07 p	-23.9	-23.9	-23.9	---	---	20.0	NE	0.33	24.3	-38.8	---	---	729.3	0.029	0.000	18.4	1	1
03/16/06	2:08 p	-23.9	-23.9	-23.9	---	---	7.8	N	0.13	15.7	-33.6	---	---	729.4	0.029	0.000	18.4	1	1
03/16/06	2:09 p	-23.9	-23.9	-23.9	---	---	15.7	ENE	0.26	21.7	-37.4	---	---	729.3	0.029	0.000	18.4	1	1
03/16/06	2:10 p	-23.9	-23.9	-23.9	---	---	7.8	NE	0.13	15.7	-33.6	---	---	729.3	0.029	0.000	18.4	1	1
03/16/06	2:11 p	-23.9	-23.9	-23.9	---	---	19.1	ENE	0.32	22.6	-38.5	---	---	729.3	0.029	0.000	18.4	1	1
03/16/06	2:12 p	-23.9	-23.9	-23.9	---	---	13.0	ENE	0.22	17.4	-36.4	---	---	729.4	0.029	0.000	18.4	1	1
03/16/06	2:13 p	-23.9	-23.9	-23.9	---	---	10.4	ENE	0.17	20.9	-35.1	---	---	729.3	0.029	0.000	18.4	1	1
03/16/06	2:14 p	-23.9	-23.9	-23.9	---	---	20.0	ENE	0.33	23.5	-38.8	---	---	729.3	0.029	0.000	18.4	1	1
03/16/06	2:15 p	-23.9	-23.9	-23.9	---	---	12.2	ENE	0.20	19.1	-36.0	---	---	729.3	0.029	0.000	18.4	1	1
03/16/06	2:16 p	-23.9	-23.9	-23.9	---	---	14.8	ENE	0.25	18.3	-37.1	---	---	729.3	0.029	0.000	18.4	1	1
03/16/06	2:17 p	-23.9	-23.9	-23.9	---	---	19.1	ENE	0.32	21.7	-38.6	---	---	729.3	0.029	0.000	18.4	1	1
03/16/06	2:18 p	-24.0	-23.9	-24.0	---	---	8.7	ENE	0.14	15.7	-34.3	---	---	729.4	0.029	0.000	18.4	1	1
03/16/06	2:19 p	-24.0	-23.9	-24.0	---	---	17.4	ENE	0.29	22.6	-38.1	---	---	729.2	0.029	0.000	18.4	1	1
03/16/06	2:20 p	-23.9	-23.9	-24.0	---	---	13.9	ENE	0.23	20.0	-36.8	---	---	729.3	0.029	0.000	18.4	1	1
03/16/06	2:21 p	-24.0	-23.9	-24.0	---	---	12.2	ENE	0.20	20.9	-36.1	---	---	729.2	0.029	0.000	18.4	1	1
03/16/06	2:22 p	-24.0	-24.0	-24.0	---	---	15.7	NE	0.26	19.1	-37.5	---	---	729.3	0.029	0.000	18.4	1	1
03/16/06	2:23 p	-24.0	-24.0	-24.1	---	---	18.3	ENE	0.30	23.5	-38.4	---	---	729.1	0.029	0.000	18.4	1	1
03/16/06	2:24 p	-24.1	-24.0	-24.1	---	---	13.0	ENE	0.22	19.1	-36.6	---	---	729.2	0.029	0.000	18.4	1	1
03/16/06	2:25 p	-24.1	-24.0	-24.1	---	---	18.3	ENE	0.30	23.5	-38.4	---	---	729.1	0.029	0.000	18.4	1	1
03/16/06	2:26 p	-24.1	-24.0	-24.1	---	---	15.7	ENE	0.26	18.3	-37.6	---	---	729.2	0.029	0.000	18.4	1	1
03/16/06	2:27 p	-24.1	-24.1	-24.1	---	---	20.0	ENE	0.33	24.3	-39.0	---	---	729.1	0.029	0.000	18.4	1	1
03/16/06	2:28 p	-24.1	-24.1	-24.1	---	---	13.0	NE	0.22	21.7	-36.6	---	---	729.2	0.029	0.000	18.4	1	1
03/16/06	2:29 p	-24.1	-24.1	-24.1	---	---	19.1	NE	0.32	23.5	-38.7	---	---	729.0	0.029	0.000	18.4	1	1
03/16/06	2:30 p	-24.1	-24.1	-24.1	---	---	21.7	ENE	0.36	24.3	-39.6	---	---	729.1	0.029	0.000	18.4	1	1
03/16/06	2:31 p	-24.1	-24.1	-24.1	---	---	11.3	NE	0.19	20.9	-35.8	---	---	729.2	0.029	0.000	18.4	1	1
03/16/06	2:32 p	-24.1	-24.1	-24.1	---	---	20.0	ENE	0.33	23.5	-39.1	---	---	729.1	0.029	0.000	18.4	1	1
03/16/06	2:33 p	-24.1	-24.1	-24.1	---	---	15.7	NE	0.26	24.3	-37.7	---	---	729.2	0.029	0.000	18.4	1	1
03/16/06	2:34 p	-24.1	-24.1	-24.1	---	---	13.9	ENE	0.23	20.0	-36.9	---	---	729.3	0.029	0.000	18.4	1	1
03/16/06	2:35 p	-24.1	-24.1	-24.1	---	---	17.4	ENE	0.29	22.6	-38.3	---	---	729.1	0.029	0.000	18.4	1	1
03/16/06	2:36 p	-24.1	-24.1	-24.1	---	---	13.0	ENE	0.22	17.4	-36.6	---	---	729.2	0.029	0.000	18.4	1	1
03/16/06	2:37 p	-24.2	-24.1	-24.2	---	---	14.8	ENE	0.25	18.3	-37.4	---	---	729.2	0.030	0.000	18.4	1	1
03/16/06	2:38 p	-24.2	-24.2	-24.2	---	---	19.1	ENE	0.32	21.7	-38.9	---	---	729.1	0.030	0.000	18.4	1	1
03/16/06	2:39 p	-24.2	-24.2	-24.2	---	---	13.9	NE	0.23	20.9	-37.1	---	---	729.1	0.030	0.000	18.4	1	1
03/16/06	2:40 p	-24.2	-24.2	-24.2	---	---	20.0	ENE	0.33	23.5	-39.2	---	---	729.2	0.030	0.000	18.4	1	1
03/16/06	2:41 p	-24.2	-24.2	-24.2	---	---	14.8	NE	0.25	19.1	-37.4	---	---	729.2	0.030	0.000	18.4	1	1
03/16/06	2:42 p	-24.2	-24.2	-24.2	---	---	20.0	ENE	0.33	24.3	-39.2	---	---	729.0	0.030	0.000	18.4	1	1
03/16/06	2:43 p	-24.2	-24.2	-24.3	---	---	18.3	ENE	0.30	22.6	-38.7	---	---	729.2	0.030	0.000	18.4	1	1
03/16/06	2:44 p	-24.2	-24.2	-24.3	---	---	15.7	NE	0.26	20.9	-37.8	---	---	729.1	0.030	0.000	18.4	1	1
03/16/06	2:45 p	-24.2	-24.2	-24.2	---	---	20.0	ENE	0.33	27.0	-39.2	---	---	729.0	0.030	0.000	18.4	1	1
03/16/06	2:46 p	-24.2	-24.2	-24.2	---	---	20.0	ENE	0.33	26.1	-39.2	---	---	729.2	0.030	0.000	18.4	1	1
03/16/06	2:47 p	-24.2	-24.2	-24.2	---	---	11.3	NE	0.19	17.4	-35.9	---	---	729.1	0.030	0.000	18.4	1	1
03/16/06	2:48 p	-24.2	-24.2	-24.3	---	---	20.0	NE	0.33	26.1	-39.2	---	---	729.0	0.030	0.000	18.4	1	1
03/16/06	2:49 p	-24.2	-24.2	-24.2	---	---	20.0	ENE	0.33	22.6	-39.2	---	---	729.1	0.030	0.000	18.4	1	1
03/16/06	2:50 p	-24.2	-24.2	-24.2	---	---	18.3	ENE	0.30	20.9	-38.7	---	---	729.1	0.030	0.000	18.4	1	1
03/16/06	2:51 p	-24.2	-24.2	-24.2	---	---	19.1	ENE	0.32	22.6	-38.9	---	---	729.1	0.030	0.000	18.4	1	1
03/16/06	2:52 p	-24.2	-24.2	-24.3	---	---	20.0	NE	0.33	23.5	-39.2	---	---	729.0	0.030	0.000	18.4	1	1
03/16/06	2:53 p	-24.3	-24.2	-24.3	---	---	17.4	ENE	0.29	21.7	-38.4	---	---	729.1	0.030	0.000	18.4	1	1
03/16/06	2:54 p	-24.3	-24.2	-24.3	---	---	16.5	ENE	0.28	23.5	-38.2	---	---	729.0	0.030	0.000	18.4	1	1
03/16/06	2:55 p	-24.3	-24.2	-24.3	---	---	20.0	ENE	0.33	22.6	-39.3	---	---	729.2	0.030	0.000	18.4	1	1
03/16/06	2:56 p	-24.3	-24.3	-24.3	---	---	13.9	ENE	0.23	21.7	-37.2	---	---	729.0	0.030	0.000	18.4	1	1
03/16/06	2:57 p	-24.3	-24.3	-24.3	---	---	22.6	ENE	0.38	24.3	-40.1	---	---	729.0	0.030	0.000	18.4	1	1
03/16/06	2:58 p	-24.3	-24.3	-24.3	---	---	20.0	ENE	0.33	24.3	-39.3	---	---	729.0	0.030	0.000	18.4	1	1
03/16/06	2:59 p	-24.3	-24.3	-24.3	---	---	17.4	NE	0.29	20.0	-38.4	---	---	729.2	0.030	0.000	18.4	1	1
03/16/06	3:00 p	-24.3	-24.3	-24.3	---	---	15.7	NE	0.26	24.3	-37.8	---	---	728.9	0.030	0.000	18.4	1	1
03/16/06	3:01 p	-24.3	-24.3	-24.3	---	---	21.7	NE	0.36	23.5	-39.8	---	---	729.1	0.030	0.000	18.4	1	1
03/16/06	3:02 p	-24.3	-24.3	-24.3	---	---	18.3	NE	0.30	21.7	-38.8	---	---	729.3	0.030	0.000	18.4	1	1
03/16/06	3:03 p	-24.3	-24.3	-24.3	---	---	10.4	NE	0.17	16.5	-35.7	---	---	729.1	0.030	0.000	18.4	1	1
03/16/06	3:04 p	-24.3	-24.2	-24.3	---	---	17.4	NE	0.29	22.6	-38.4	---	---	729.1	0.030	0.000	18.4	1	1
03/16/06	3:05 p	-24.3	-24.3	-24.3	---	---	17.4	ENE	0.29	22.6	-38.4	---	---	729.1	0.030	0.000	18.4	1	1
03/16/06	3:06 p	-24.3	-24.3	-24.3	---	---	16.5	NE	0.28	20.0	-38.2	---	---	729.0	0.030	0.000	18.4	1	1
03/16/06	3:07 p	-24.3	-24.3	-24.3	---	---	21.7	ENE	0.36	26.1	-39.9	---	---	729.0	0.030	0.000	18.4	1	1
03/16/06	3:08 p	-24.3	-24.3	-24.3	---	---	15.7	ENE	0.26	21.7	-37.9	---	---	729.2	0.030	0.000	18.4	1	1
03/16/06	3:09 p	-24.3	-24.3	-24.3	---	---	19.1	NE	0.32	25.2	-39.1	---	---	729.1	0.030	0.000	18.4	1	1
03/16/06	3:10 p	-24.3	-24.3	-24.3	---	---	15.7	NE	0.26	20.0	-37.9	---	---	729.1	0.030	0.000	18.4	1	1
03/16/06	3:11 p	-24.3	-24.3	-24.3	---	---	14.8	ENE	0.25	25.2	-37.6	---	---	729.1	0.030	0.000	18.4	1	1
03/16/06	3:12 p	-24.3	-24.3	-24.3	---	---	20.9	NE	0.35	24.3	-39.6	---	---	729.1	0.030	0.000	18.4	1	1
03/16/06	3:13 p	-24.3	-24.3	-24.3	---	---	13.9	NNE	0.23	22.6	-37.3	---	---	729.1	0.030	0.000	18.4	1	1
03/16/06	3:14 p	-24.3	-24.3	-24.3	---	---	19.1	NE	0.32	25.2	-39.1	---	---	729.1	0.030	0.000	18.4	1	1
03/16/06	3:15 p	-24.3	-24.3	-24.4	---	---	20.0	ENE	0.33	23.5	-39.4	---	---	729.1	0.030	0.000	18.4	1	1
03/16/06	3:16 p	-24.3	-24.3	-24.4	---	---	16.5	NE	0.28	21.7	-38.2	---	---	729.1	0.030	0.000	18.4	1	1
03/16/06	3:17 p	-24.4	-24.3	-24.4	---	---	12.2	NE	0.20	21.7	-36.6	---	---	729.1	0.030	0.000	18.4	1	1
03/16/06	3:18 p	-24.4	-24.3	-24.4	---	---	22.6	ENE	0.38	23.5	-40.2	---	---	729.1	0.030	0.000	18.4	1	1
03/16/06	3:19 p	-24.4	-24.3	-24.4	---	---	16.5	NE	0.28	20.9	-38.3	---	---	729.1	0.030	0.000	18.4	1	1
03/16/06	3:20 p	-24.4	-24.3	-24.4	---	---	18.3	ENE	0.30	23.5	-38.9	---	---	729.0	0.030	0.000	18.4	1	1
03/16/06	3:21 p	-24.4	-24.3	-24.4	---	---	20.9	NE	0.35	23.5	-39.7	---	---	729.0	0.030	0.000	18.4	1	1
03/16/06	3:22 p	-24.4	-24.4	-24.4	---	---	19.1	ENE	0.32	22.6	-39.2	---	---	729.1	0.030	0.000	18.4	1	1
03/16/06	3:23 p	-24.4	-24.3	-24.4	---	---	12.2	N	0.20	19.1	-36.6	---	---	729.0	0.030	0.000	18.4	1	1
03/16/06	3:24 p	-24.4	-24.3	-24.4	---	---	21.7	ENE	0.36	26.1	-39.9	---	---	729.0	0.030	0.000	18.4	1	1
03/16/06	3:25 p	-24.4	-24.4	-24.4	---	---	21.7	ENE	0.36	25.2	-39.9	---	---	729.0	0.030	0.000	18.4	1	1
03/16/06	3:26 p	-24.4	-24.3	-24.4	---	---	15.7	N	0.26	21.7	-38.0	---	---	729.1	0.030	0.000	18.4	1	1
03/16/06	3:27 p	-24.3	-24.3	-24.3	---	---	14.8	ENE	0.25	23.5	-37.6	---	---	729.0	0.030	0.000	18.4	1	1
03/16/06	3:28 p	-24.3	-24.3	-24.4	---	---	22.6	ENE	0.38	27.0	-40.1	---	---	729.0	0.030	0.000	18.4	1	1
03/16/06	3:29 p	-24.3	-24.3	-24.3	---	---	14.8	ENE	0.25	22.6	-37.6	---	---	729.2	0.030	0.000	18.4	1	1
03/16/06	3:30 p	-24.3	-24.3	-24.3	---	---	16.5	NE	0.28	20.9	-38.2	---	---	729.1	0.030	0.000	18.4	1	1
03/16/06	3:31 p	-24.3	-24.3	-24.4	---	---	19.1	NE	0.32	22.6	-39.1	---	---	729.1	0.030	0.000	18.4	1	1
03/16/06	3:32 p	-24.3	-24.3	-24.3	---	---	13.9	NE	0.23	17.4	-37.3	---	---	729.2	0.030	0.000	18.4	1	1
03/16/06	3:33 p	-24.3	-24.3	-24.3	---	---	13.0	ENE	0.22	23.5	-36.9	---	---	729.1	0.030	0.000	18.4	1	1
03/16/06	3:34 p	-24.3	-24.3	-24.3	---	---	19.1	ENE	0.32	21.7	-39.1	---	---	729.0	0.030	0.000	18.4	1	1
03/16/06	3:35 p	-24.3	-24.3	-24.3	---	---	17.4	ENE	0.29	20.9	-38.6	---	---	729.1	0.030	0.000	18.4	1	1
03/16/06	3:36 p	-24.3	-24.3	-24.3	---	---	19.1	ENE	0.32	22.6	-39.1	---	---	729.1	0.030	0.000	18.4	1	1
03/16/06	3:37 p	-24.3	-24.3	-24.3	---	---	20.0	ENE	0.33	22.6	-39.4	---	---	729.1	0.030	0.000	18.4	1	1
03/16/06	3:38 p	-24.3	-24.3	-24.3	---	---	18.3	ENE	0.30	21.7	-38.8	---	---	729.2	0.030	0.000	18.4	1	1
03/16/06	3:39 p	-24.3	-24.3	-24.3	---	---	14.8	NE	0.25	18.3	-37.6	---	---	729.2	0.030	0.000	18.4	1	1
03/16/06	3:40 p	-24.3	-24.3	-24.3	---	---	13.9	ENE	0.23	19.1	-37.3	---	---	729.0	0.030	0.000	18.4	1	1
03/16/06	3:41 p	-24.3	-24.3	-24.3	---	---	20.9	ENE	0.35	23.5	-39.6	---	---	729.0	0.030	0.000	18.4	1	1
03/16/06	3:42 p	-24.3	-24.3	-24.3	---	---	20.9	ENE	0.35	22.6	-39.6	---	---	728.9	0.030	0.000	18.4	1	1
03/16/06	3:43 p	-24.3	-24.3	-24.3	---	---	21.7	ENE	0.36	23.5	-39.9	---	---	729.1	0.030	0.000	18.4	1	1
03/16/06	3:44 p	-24.3	-24.3	-24.3	---	---	16.5	ENE	0.28	20.9	-38.2	---	---	729.1	0.030	0.000	18.4	1	1
03/16/06	3:45 p	-24.3	-24.3	-24.3	---	---	13.0	NE	0.22	16.5	-36.9	---	---	729.0	0.030	0.000	18.4	1	1
03/16/06	3:46 p	-24.3	-24.3	-24.3	---	---	20.9	ENE	0.35	25.2	-39.6	---	---	729.0	0.030	0.000	18.4	1	1
03/16/06	3:47 p	-24.3	-24.3	-24.3	---	---	21.7	ENE	0.36	23.5	-39.9	---	---	729.1	0.030	0.000	18.4	1	1
03/16/06	3:48 p	-24.3	-24.3	-24.4	---	---	17.4	NE	0.29	20.0	-38.6	---	---	729.1	0.030	0.000	18.4	1	1
03/16/06	3:49 p	-24.3	-24.3	-24.3	---	---	20.0	ENE	0.33	21.7	-39.4	---	---	729.0	0.030	0.000	18.4	1	1
03/16/06	3:50 p	-24.3	-24.3	-24.3	---	---	16.5	ENE	0.28	19.1	-38.2	---	---	729.0	0.030	0.000	18.4	1	1
03/16/06	3:51 p	-24.3	-24.3	-24.4	---	---	20.0	NE	0.33	20.9	-39.4	---	---	729.1	0.030	0.000	18.4	1	1
03/16/06	3:52 p	-24.3	-24.3	-24.4	---	---	14.8	NE	0.25	19.1	-37.6	---	---	728.9	0.030	0.000	18.4	1	1
03/16/06	3:53 p	-24.3	-24.3	-24.3	---	---	13.0	ENE	0.22	20.9	-36.9	---	---	729.0	0.030	0.000	18.4	1	1
03/16/06	3:54 p	-24.3	-24.3	-24.3	---	---	26.1	ENE	0.43	29.6	-41.0	---	---	728.9	0.030	0.000	18.4	1	1
03/16/06	3:55 p	-24.3	-24.3	-24.3	---	---	22.6	ENE	0.38	25.2	-40.1	---	---	729.1	0.030	0.000	18.4	1	1
03/16/06	3:56 p	-24.4	-24.3	-24.4	---	---	20.9	ENE	0.35	21.7	-39.7	---	---	729.1	0.030	0.000	18.4	1	1
03/16/06	3:57 p	-24.3	-24.3	-24.3	---	---	16.5	ENE	0.28	19.1	-38.2	---	---	729.1	0.030	0.000	18.4	1	1
03/16/06	3:58 p	-24.3	-24.3	-24.3	---	---	12.2	ENE	0.20	15.7	-36.5	---	---	729.3	0.030	0.000	18.4	1	1
03/16/06	3:59 p	-24.3	-24.3	-24.3	---	---	12.2	ENE	0.20	23.5	-36.5	---	---	729.0	0.030	0.000	18.4	1	1
03/16/06	4:00 p	-24.3	-24.3	-24.3	---	---	22.6	NE	0.38	25.2	-40.1	---	---	728.9	0.030	0.000	18.4	1	1
03/16/06	4:01 p	-24.3	-24.3	-24.3	---	---	23.5	ENE	0.39	26.1	-40.3	---	---	728.8	0.030	0.000	18.4	1	1
03/16/06	4:02 p	-24.3	-24.3	-24.3	---	---	20.0	ENE	0.33	21.7	-39.4	---	---	729.0	0.030	0.000	18.3	1	1
03/16/06	4:03 p	-24.3	-24.3	-24.3	---	---	12.2	ENE	0.20	16.5	-36.5	---	---	729.3	0.030	0.000	18.3	1	1
03/16/06	4:04 p	-24.3	-24.3	-24.3	---	---	5.2	NE	0.09	8.7	-32.1	---	---	729.1	0.030	0.000	18.3	1	1
03/16/06	4:05 p	-24.3	-24.3	-24.3	---	---	13.9	ENE	0.23	22.6	-37.3	---	---	729.0	0.030	0.000	18.3	1	1
03/16/06	4:06 p	-24.3	-24.3	-24.3	---	---	22.6	ENE	0.38	24.3	-40.1	---	---	729.0	0.030	0.000	18.3	1	1
03/16/06	4:07 p	-24.3	-24.3	-24.3	---	---	20.9	ENE	0.35	22.6	-39.6	---	---	729.1	0.030	0.000	18.3	1	1
03/16/06	4:08 p	-24.3	-24.3	-24.3	---	---	10.4	ENE	0.17	20.0	-35.7	---	---	729.1	0.030	0.000	18.3	1	1
03/16/06	4:09 p	-24.3	-24.3	-24.3	---	---	23.5	ENE	0.39	25.2	-40.3	---	---	729.0	0.030	0.000	18.3	1	1
03/16/06	4:10 p	-24.3	-24.3	-24.3	---	---	19.1	ENE	0.32	21.7	-39.1	---	---	729.1	0.030	0.000	18.3	1	1
03/16/06	4:11 p	-24.3	-24.3	-24.3	---	---	17.4	ENE	0.29	19.1	-38.6	---	---	729.2	0.030	0.000	18.3	1	1
03/16/06	4:12 p	-24.3	-24.3	-24.3	---	---	21.7	ENE	0.36	26.1	-39.9	---	---	728.9	0.030	0.000	18.3	1	1
03/16/06	4:13 p	-24.3	-24.3	-24.3	---	---	25.2	ENE	0.42	27.0	-40.8	---	---	729.0	0.030	0.000	18.3	1	1
03/16/06	4:14 p	-24.3	-24.3	-24.3	---	---	18.3	ENE	0.30	24.3	-38.8	---	---	729.2	0.030	0.000	18.3	1	1
03/16/06	4:15 p	-24.3	-24.3	-24.4	---	---	18.3	ENE	0.30	20.9	-38.8	---	---	729.1	0.030	0.000	18.3	1	1
03/16/06	4:16 p	-24.4	-24.3	-24.4	---	---	14.8	ENE	0.25	20.0	-37.7	---	---	729.1	0.030	0.000	18.3	1	1
03/16/06	4:17 p	-24.3	-24.3	-24.3	---	---	15.7	ENE	0.26	25.2	-37.9	---	---	728.8	0.030	0.000	18.3	1	1
03/16/06	4:18 p	-24.3	-24.3	-24.4	---	---	27.0	ENE	0.45	28.7	-41.2	---	---	728.7	0.030	0.000	18.3	1	1
03/16/06	4:19 p	-24.3	-24.3	-24.4	---	---	24.3	ENE	0.41	28.7	-40.6	---	---	728.9	0.030	0.000	18.3	1	1
03/16/06	4:20 p	-24.3	-24.3	-24.4	---	---	18.3	ENE	0.30	22.6	-38.8	---	---	729.0	0.030	0.000	18.3	1	1
03/16/06	4:21 p	-24.3	-24.3	-24.3	---	---	22.6	ENE	0.38	25.2	-40.1	---	---	728.9	0.030	0.000	18.3	1	1
03/16/06	4:22 p	-24.3	-24.3	-24.4	---	---	21.7	ENE	0.36	24.3	-39.9	---	---	729.1	0.030	0.000	18.3	1	1
03/16/06	4:23 p	-24.4	-24.3	-24.4	---	---	17.4	ENE	0.29	19.1	-38.6	---	---	729.1	0.030	0.000	18.3	1	1
03/16/06	4:24 p	-24.3	-24.3	-24.4	---	---	20.0	ENE	0.33	22.6	-39.4	---	---	729.0	0.030	0.000	18.3	1	1
03/16/06	4:25 p	-24.4	-24.3	-24.4	---	---	18.3	ENE	0.30	20.0	-38.9	---	---	729.0	0.030	0.000	18.3	1	1
03/16/06	4:26 p	-24.3	-24.3	-24.4	---	---	25.2	ENE	0.42	27.8	-40.8	---	---	729.0	0.030	0.000	18.3	1	1
03/16/06	4:27 p	-24.4	-24.3	-24.4	---	---	21.7	ENE	0.36	24.3	-39.9	---	---	728.9	0.030	0.000	18.3	1	1
03/16/06	4:28 p	-24.3	-24.3	-24.4	---	---	19.1	ENE	0.32	22.6	-39.1	---	---	729.0	0.030	0.000	18.3	1	1
03/16/06	4:29 p	-24.3	-24.3	-24.4	---	---	16.5	ENE	0.28	18.3	-38.2	---	---	729.1	0.030	0.000	18.3	1	1
03/16/06	4:30 p	-24.4	-24.3	-24.4	---	---	22.6	ENE	0.38	26.1	-40.2	---	---	729.0	0.030	0.000	18.3	1	1
03/16/06	4:31 p	-24.4	-24.4	-24.4	---	---	20.0	ENE	0.33	21.7	-39.4	---	---	729.0	0.030	0.000	18.3	1	1
03/16/06	4:32 p	-24.4	-24.3	-24.4	---	---	15.7	ENE	0.26	20.0	-38.0	---	---	728.8	0.030	0.000	18.3	1	1
03/16/06	4:33 p	-24.4	-24.3	-24.4	---	---	21.7	ENE	0.36	25.2	-39.9	---	---	728.8	0.030	0.000	18.3	1	1
03/16/06	4:34 p	-24.3	-24.3	-24.4	---	---	20.9	ENE	0.35	24.3	-39.6	---	---	729.0	0.030	0.000	18.3	1	1
03/16/06	4:35 p	-24.3	-24.3	-24.3	---	---	22.6	ENE	0.38	27.0	-40.1	---	---	728.9	0.030	0.000	18.3	1	1
03/16/06	4:36 p	-24.3	-24.3	-24.3	---	---	22.6	ENE	0.38	24.3	-40.1	---	---	728.9	0.030	0.000	18.3	1	1
03/16/06	4:37 p	-24.3	-24.3	-24.3	---	---	19.1	NE	0.32	22.6	-39.1	---	---	729.0	0.030	0.000	18.3	1	1
03/16/06	4:38 p	-24.3	-24.3	-24.3	---	---	20.0	ENE	0.33	24.3	-39.4	---	---	728.9	0.030	0.000	18.3	1	1
03/16/06	4:39 p	-24.3	-24.3	-24.3	---	---	21.7	ENE	0.36	22.6	-39.9	---	---	728.9	0.030	0.000	18.2	1	1
03/16/06	4:40 p	-24.3	-24.3	-24.3	---	---	19.1	ENE	0.32	20.9	-39.1	---	---	729.0	0.030	0.000	18.2	1	1
03/16/06	4:41 p	-24.3	-24.3	-24.3	---	---	20.0	ENE	0.33	22.6	-39.4	---	---	728.9	0.030	0.000	18.3	1	1
03/16/06	4:42 p	-24.3	-24.3	-24.3	---	---	20.0	NE	0.33	21.7	-39.4	---	---	728.9	0.030	0.000	18.3	1	1
03/16/06	4:43 p	-24.3	-24.3	-24.3	---	---	20.0	ENE	0.33	21.7	-39.4	---	---	728.9	0.030	0.000	18.3	1	1
03/16/06	4:44 p	-24.3	-24.3	-24.3	---	---	20.9	ENE	0.35	24.3	-39.6	---	---	728.9	0.030	0.000	18.3	1	1
03/16/06	4:45 p	-24.3	-24.3	-24.3	---	---	20.0	ENE	0.33	22.6	-39.4	---	---	728.8	0.030	0.000	18.3	1	1
03/16/06	4:46 p	-24.3	-24.3	-24.3	---	---	21.7	ENE	0.36	24.3	-39.8	---	---	729.0	0.030	0.000	18.3	1	1
03/16/06	4:47 p	-24.3	-24.3	-24.3	---	---	19.1	ENE	0.32	22.6	-39.1	---	---	728.8	0.030	0.000	18.3	1	1
03/16/06	4:48 p	-24.3	-24.3	-24.3	---	---	21.7	ENE	0.36	22.6	-39.8	---	---	728.9	0.030	0.000	18.3	1	1
03/16/06	4:49 p	-24.3	-24.2	-24.3	---	---	17.4	ENE	0.29	20.0	-38.4	---	---	728.9	0.030	0.000	18.3	1	1
03/16/06	4:50 p	-24.3	-24.2	-24.3	---	---	20.9	ENE	0.35	25.2	-39.6	---	---	728.8	0.030	0.000	18.3	1	1
03/16/06	4:51 p	-24.2	-24.2	-24.3	---	---	24.3	ENE	0.41	27.0	-40.4	---	---	728.9	0.030	0.000	18.3	1	1
03/16/06	4:52 p	-24.3	-24.2	-24.3	---	---	21.7	ENE	0.36	24.3	-39.8	---	---	728.8	0.030	0.000	18.3	1	1
03/16/06	4:53 p	-24.2	-24.2	-24.3	---	---	20.0	ENE	0.33	23.5	-39.2	---	---	728.9	0.030	0.000	18.3	1	1
03/16/06	4:54 p	-24.2	-24.2	-24.2	---	---	22.6	ENE	0.38	24.3	-39.9	---	---	728.8	0.030	0.000	18.3	1	1
03/16/06	4:55 p	-24.2	-24.2	-24.2	---	---	20.0	ENE	0.33	21.7	-39.2	---	---	728.9	0.030	0.000	18.3	1	1
03/16/06	4:56 p	-24.2	-24.2	-24.2	---	---	18.3	ENE	0.30	19.1	-38.6	---	---	728.8	0.030	0.000	18.3	1	1
03/16/06	4:57 p	-24.2	-24.2	-24.2	---	---	19.1	ENE	0.32	20.9	-38.9	---	---	728.8	0.030	0.000	18.3	1	1
03/16/06	4:58 p	-24.2	-24.2	-24.2	---	---	17.4	ENE	0.29	20.0	-38.3	---	---	728.8	0.030	0.000	18.3	1	1
03/16/06	4:59 p	-24.2	-24.1	-24.2	---	---	20.0	ENE	0.33	22.6	-39.2	---	---	728.8	0.030	0.000	18.3	1	1
03/16/06	5:00 p	-24.1	-24.1	-24.2	---	---	20.0	ENE	0.33	20.9	-39.1	---	---	728.8	0.029	0.000	18.3	1	1
03/16/06	5:01 p	-24.1	-24.1	-24.1	---	---	21.7	ENE	0.36	24.3	-39.6	---	---	728.8	0.029	0.000	18.3	1	1
03/16/06	5:02 p	-24.1	-24.1	-24.1	---	---	25.2	ENE	0.42	28.7	-40.5	---	---	728.6	0.029	0.000	18.3	1	1
03/16/06	5:03 p	-24.1	-24.1	-24.1	---	---	20.9	ENE	0.35	27.0	-39.3	---	---	728.8	0.029	0.000	18.3	1	1
03/16/06	5:04 p	-24.1	-24.0	-24.1	---	---	24.3	ENE	0.41	27.0	-40.2	---	---	728.6	0.029	0.000	18.3	1	1
03/16/06	5:05 p	-24.0	-24.0	-24.1	---	---	22.6	ENE	0.38	23.5	-39.7	---	---	728.7	0.029	0.000	18.3	1	1
03/16/06	5:06 p	-24.0	-24.0	-24.0	---	---	20.9	ENE	0.35	22.6	-39.2	---	---	728.8	0.029	0.000	18.3	1	1
03/16/06	5:07 p	-24.0	-23.9	-24.0	---	---	21.7	ENE	0.36	23.5	-39.4	---	---	728.8	0.029	0.000	18.3	1	1
03/16/06	5:08 p	-23.9	-23.9	-24.0	---	---	19.1	NE	0.32	21.7	-38.6	---	---	728.9	0.029	0.000	18.3	1	1
03/16/06	5:09 p	-23.9	-23.9	-23.9	---	---	17.4	NE	0.29	19.1	-38.1	---	---	728.9	0.029	0.000	18.3	1	1
03/16/06	5:10 p	-23.9	-23.9	-23.9	---	---	20.9	ENE	0.35	23.5	-39.1	---	---	728.6	0.029	0.000	18.3	1	1
03/16/06	5:11 p	-23.9	-23.9	-23.9	---	---	25.2	ENE	0.42	28.7	-40.2	---	---	728.6	0.029	0.000	18.3	1	1
03/16/06	5:12 p	-23.8	-23.8	-23.9	---	---	25.2	ENE	0.42	27.8	-40.1	---	---	728.6	0.029	0.000	18.3	1	1
03/16/06	5:13 p	-23.8	-23.8	-23.9	---	---	19.1	E	0.32	24.3	-38.4	---	---	728.8	0.029	0.000	18.3	1	1
03/16/06	5:14 p	-23.8	-23.8	-23.8	---	---	14.8	E	0.25	17.4	-36.9	---	---	728.7	0.029	0.000	18.3	1	1
03/16/06	5:15 p	-23.8	-23.8	-23.8	---	---	21.7	ENE	0.36	26.1	-39.1	---	---	728.6	0.029	0.000	18.3	1	1
03/16/06	5:16 p	-23.8	-23.8	-23.8	---	---	24.3	ENE	0.41	25.2	-39.8	---	---	728.7	0.029	0.000	18.3	1	1
03/16/06	5:17 p	-23.7	-23.7	-23.7	---	---	24.3	ENE	0.41	25.2	-39.7	---	---	728.7	0.029	0.000	18.3	1	1
03/16/06	5:18 p	-23.7	-23.7	-23.7	---	---	21.7	ENE	0.36	23.5	-39.0	---	---	728.8	0.029	0.000	18.3	1	1
03/16/06	5:19 p	-23.7	-23.7	-23.7	---	---	20.0	ENE	0.33	22.6	-38.5	---	---	728.8	0.029	0.000	18.3	1	1
03/16/06	5:20 p	-23.7	-23.7	-23.7	---	---	18.3	NE	0.30	20.9	-37.9	---	---	728.8	0.029	0.000	18.3	1	1
03/16/06	5:21 p	-23.6	-23.6	-23.7	---	---	20.9	ENE	0.35	22.6	-38.7	---	---	728.8	0.029	0.000	18.3	1	1
03/16/06	5:22 p	-23.6	-23.6	-23.6	---	---	20.0	ENE	0.33	22.6	-38.4	---	---	728.9	0.029	0.000	18.3	1	1
03/16/06	5:23 p	-23.6	-23.6	-23.6	---	---	20.0	ENE	0.33	22.6	-38.3	---	---	728.7	0.029	0.000	18.3	1	1
03/16/06	5:24 p	-23.6	-23.5	-23.6	---	---	22.6	ENE	0.38	24.3	-39.1	---	---	728.6	0.029	0.000	18.3	1	1
03/16/06	5:25 p	-23.5	-23.5	-23.6	---	---	24.3	ENE	0.41	26.1	-39.4	---	---	728.5	0.029	0.000	18.3	1	1
03/16/06	5:26 p	-23.5	-23.4	-23.5	---	---	25.2	ENE	0.42	27.0	-39.7	---	---	728.6	0.029	0.000	18.3	1	1
03/16/06	5:27 p	-23.4	-23.4	-23.4	---	---	23.5	ENE	0.39	25.2	-39.2	---	---	728.8	0.029	0.000	18.3	1	1
03/16/06	5:28 p	-23.4	-23.4	-23.4	---	---	20.0	NE	0.33	22.6	-38.2	---	---	728.7	0.029	0.000	18.3	1	1
03/16/06	5:29 p	-23.4	-23.4	-23.4	---	---	19.1	ENE	0.32	21.7	-37.9	---	---	728.6	0.029	0.000	18.2	1	1
03/16/06	5:30 p	-23.4	-23.4	-23.4	---	---	26.1	ENE	0.43	28.7	-39.7	---	---	728.7	0.029	0.000	18.3	1	1
03/16/06	5:31 p	-23.4	-23.3	-23.4	---	---	22.6	ENE	0.38	25.2	-38.8	---	---	728.7	0.029	0.000	18.2	1	1
03/16/06	5:32 p	-23.3	-23.3	-23.3	---	---	18.3	ENE	0.30	20.0	-37.5	---	---	728.8	0.029	0.000	18.3	1	1
03/16/06	5:33 p	-23.3	-23.3	-23.3	---	---	20.0	ENE	0.33	23.5	-37.9	---	---	728.6	0.029	0.000	18.3	1	1
03/16/06	5:34 p	-23.3	-23.2	-23.3	---	---	24.3	ENE	0.41	26.1	-39.2	---	---	728.6	0.029	0.000	18.3	1	1
03/16/06	5:35 p	-23.2	-23.2	-23.2	---	---	24.3	ENE	0.41	25.2	-39.1	---	---	728.6	0.029	0.000	18.3	1	1
03/16/06	5:36 p	-23.2	-23.2	-23.2	---	---	25.2	ENE	0.42	27.0	-39.3	---	---	728.7	0.029	0.000	18.3	1	1
03/16/06	5:37 p	-23.2	-23.2	-23.2	---	---	20.0	ENE	0.33	20.9	-37.8	---	---	728.8	0.029	0.000	18.2	1	1
03/16/06	5:38 p	-23.2	-23.1	-23.2	---	---	20.9	ENE	0.35	21.7	-38.1	---	---	728.7	0.029	0.000	18.3	1	1
03/16/06	5:39 p	-23.2	-23.1	-23.2	---	---	19.1	ENE	0.32	20.9	-37.6	---	---	728.7	0.029	0.000	18.3	1	1
03/16/06	5:40 p	-23.1	-23.1	-23.1	---	---	22.6	ENE	0.38	24.3	-38.4	---	---	728.6	0.029	0.000	18.3	1	1
03/16/06	5:41 p	-23.1	-23.1	-23.1	---	---	22.6	ENE	0.38	23.5	-38.4	---	---	728.6	0.029	0.000	18.3	1	1
03/16/06	5:42 p	-23.0	-23.0	-23.0	---	---	21.7	ENE	0.36	24.3	-38.1	---	---	728.5	0.029	0.000	18.3	1	1
03/16/06	5:43 p	-23.0	-23.0	-23.0	---	---	21.7	ENE	0.36	24.3	-38.1	---	---	728.5	0.029	0.000	18.2	1	1
03/16/06	5:44 p	-23.0	-22.9	-23.0	---	---	23.5	ENE	0.39	25.2	-38.6	---	---	728.5	0.029	0.000	18.2	1	1
03/16/06	5:45 p	-22.9	-22.9	-23.0	---	---	23.5	ENE	0.39	25.2	-38.5	---	---	728.5	0.029	0.000	18.2	1	1
03/16/06	5:46 p	-22.9	-22.9	-22.9	---	---	23.5	ENE	0.39	25.2	-38.5	---	---	728.5	0.029	0.000	18.2	1	1
03/16/06	5:47 p	-22.9	-22.9	-22.9	---	---	20.9	ENE	0.35	22.6	-37.7	---	---	728.6	0.029	0.000	18.2	1	1
03/16/06	5:48 p	-22.9	-22.8	-22.9	---	---	20.9	ENE	0.35	23.5	-37.7	---	---	728.6	0.029	0.000	18.3	1	1
03/16/06	5:49 p	-22.8	-22.8	-22.8	---	---	22.6	ENE	0.38	24.3	-38.1	---	---	728.6	0.029	0.000	18.2	1	1
03/16/06	5:50 p	-22.8	-22.8	-22.8	---	---	20.9	ENE	0.35	23.5	-37.6	---	---	728.6	0.029	0.000	18.2	1	1
03/16/06	5:51 p	-22.8	-22.8	-22.8	---	---	20.9	ENE	0.35	24.3	-37.6	---	---	728.6	0.029	0.000	18.3	1	1
03/16/06	5:52 p	-22.8	-22.8	-22.8	---	---	23.5	ENE	0.39	26.1	-38.2	---	---	728.5	0.029	0.000	18.2	1	1
03/16/06	5:53 p	-22.8	-22.8	-22.8	---	---	22.6	ENE	0.38	23.5	-38.0	---	---	728.6	0.029	0.000	18.2	1	1
03/16/06	5:54 p	-22.8	-22.7	-22.8	---	---	21.7	ENE	0.36	24.3	-37.8	---	---	728.6	0.029	0.000	18.2	1	1
03/16/06	5:55 p	-22.8	-22.7	-22.8	---	---	23.5	ENE	0.39	26.1	-38.2	---	---	728.5	0.029	0.000	18.2	1	1
03/16/06	5:56 p	-22.7	-22.7	-22.8	---	---	22.6	ENE	0.38	27.0	-37.9	---	---	728.5	0.029	0.000	18.2	1	1
03/16/06	5:57 p	-22.7	-22.7	-22.7	---	---	22.6	ENE	0.38	25.2	-37.9	---	---	728.5	0.029	0.000	18.2	1	1
03/16/06	5:58 p	-22.7	-22.7	-22.7	---	---	22.6	ENE	0.38	26.1	-37.9	---	---	728.6	0.029	0.000	18.3	1	1
03/16/06	5:59 p	-22.7	-22.7	-22.7	---	---	20.0	ENE	0.33	21.7	-37.2	---	---	728.5	0.028	0.000	18.3	1	1
03/16/06	6:00 p	-22.7	-22.6	-22.7	---	---	22.6	ENE	0.38	24.3	-37.9	---	---	728.5	0.028	0.000	18.3	1	1
03/16/06	6:01 p	-22.7	-22.7	-22.7	---	---	24.3	ENE	0.41	25.2	-38.3	---	---	728.5	0.028	0.000	18.3	1	1
03/16/06	6:02 p	-22.7	-22.6	-22.7	---	---	21.7	ENE	0.36	25.2	-37.7	---	---	728.5	0.028	0.000	18.3	1	1
03/16/06	6:03 p	-22.6	-22.6	-22.7	---	---	25.2	ENE	0.42	27.0	-38.4	---	---	728.4	0.028	0.000	18.3	1	1
03/16/06	6:04 p	-22.6	-22.6	-22.6	---	---	23.5	ENE	0.39	26.1	-38.0	---	---	728.5	0.028	0.000	18.2	1	1
03/16/06	6:05 p	-22.6	-22.6	-22.6	---	---	21.7	ENE	0.36	24.3	-37.6	---	---	728.5	0.028	0.000	18.3	1	1
03/16/06	6:06 p	-22.6	-22.6	-22.6	---	---	24.3	ENE	0.41	26.1	-38.2	---	---	728.5	0.028	0.000	18.2	1	1
03/16/06	6:07 p	-22.6	-22.6	-22.6	---	---	24.3	ENE	0.41	26.1	-38.2	---	---	728.4	0.028	0.000	18.2	1	1
03/16/06	6:08 p	-22.6	-22.6	-22.6	---	---	25.2	ENE	0.42	26.1	-38.4	---	---	728.5	0.028	0.000	18.2	1	1
03/16/06	6:09 p	-22.6	-22.6	-22.6	---	---	22.6	ENE	0.38	25.2	-37.7	---	---	728.5	0.028	0.000	18.2	1	1
03/16/06	6:10 p	-22.6	-22.6	-22.6	---	---	23.5	ENE	0.39	25.2	-37.9	---	---	728.3	0.028	0.000	18.2	1	1
03/16/06	6:11 p	-22.6	-22.5	-22.6	---	---	22.6	ENE	0.38	24.3	-37.7	---	---	728.4	0.028	0.000	18.2	1	1
03/16/06	6:12 p	-22.6	-22.5	-22.6	---	---	23.5	ENE	0.39	25.2	-37.9	---	---	728.5	0.028	0.000	18.2	1	1
03/16/06	6:13 p	-22.5	-22.5	-22.6	---	---	20.9	ENE	0.35	22.6	-37.2	---	---	728.5	0.028	0.000	18.2	1	1
03/16/06	6:14 p	-22.5	-22.5	-22.6	---	---	24.3	ENE	0.41	26.1	-38.1	---	---	728.4	0.028	0.000	18.2	1	1
03/16/06	6:15 p	-22.5	-22.5	-22.5	---	---	23.5	ENE	0.39	26.1	-37.9	---	---	728.5	0.028	0.000	18.2	1	1
03/16/06	6:16 p	-22.5	-22.5	-22.5	---	---	17.4	ENE	0.29	22.6	-36.1	---	---	728.4	0.028	0.000	18.2	1	1
03/16/06	6:17 p	-22.4	-22.4	-22.5	---	---	26.1	ENE	0.43	29.6	-38.4	---	---	728.0	0.028	0.000	18.2	1	1
03/16/06	6:18 p	-22.4	-22.4	-22.5	---	---	30.4	ENE	0.51	33.9	-39.4	---	---	728.4	0.028	0.000	18.2	1	1
03/16/06	6:19 p	-22.4	-22.4	-22.4	---	---	21.7	ENE	0.36	27.0	-37.3	---	---	728.6	0.028	0.000	18.2	1	1
03/16/06	6:20 p	-22.4	-22.4	-22.5	---	---	18.3	ENE	0.30	20.0	-36.3	---	---	728.5	0.028	0.000	18.2	1	1
03/16/06	6:21 p	-22.4	-22.4	-22.4	---	---	18.3	ENE	0.30	20.0	-36.3	---	---	728.5	0.028	0.000	18.2	1	1
03/16/06	6:22 p	-22.4	-22.4	-22.4	---	---	22.6	ENE	0.38	28.7	-37.6	---	---	728.2	0.028	0.000	18.2	1	1
03/16/06	6:23 p	-22.4	-22.4	-22.4	---	---	27.8	ENE	0.46	30.4	-38.8	---	---	728.1	0.028	0.000	18.2	1	1
03/16/06	6:24 p	-22.4	-22.4	-22.4	---	---	27.8	ENE	0.46	31.3	-38.7	---	---	728.5	0.028	0.000	18.2	1	1
03/16/06	6:25 p	-22.4	-22.4	-22.4	---	---	22.6	ENE	0.38	23.5	-37.6	---	---	728.5	0.028	0.000	18.2	1	1
03/16/06	6:26 p	-22.4	-22.3	-22.4	---	---	16.5	ENE	0.28	20.9	-35.7	---	---	728.7	0.028	0.000	18.2	1	1
03/16/06	6:27 p	-22.3	-22.3	-22.4	---	---	12.2	ENE	0.20	13.9	-33.9	---	---	728.6	0.028	0.000	18.2	1	1
03/16/06	6:28 p	-22.3	-22.3	-22.3	---	---	22.6	ENE	0.38	29.6	-37.4	---	---	728.1	0.028	0.000	18.2	1	1
03/16/06	6:29 p	-22.3	-22.3	-22.3	---	---	29.6	ENE	0.49	30.4	-39.1	---	---	728.1	0.028	0.000	18.2	1	1
03/16/06	6:30 p	-22.3	-22.3	-22.3	---	---	25.2	ENE	0.42	28.7	-38.1	---	---	728.4	0.028	0.000	18.2	1	1
03/16/06	6:31 p	-22.3	-22.3	-22.3	---	---	20.9	ENE	0.35	23.5	-36.9	---	---	728.5	0.028	0.000	18.2	1	1
03/16/06	6:32 p	-22.3	-22.3	-22.3	---	---	14.8	ENE	0.25	18.3	-35.0	---	---	728.4	0.028	0.000	18.2	1	1
03/16/06	6:33 p	-22.3	-22.3	-22.3	---	---	20.0	ENE	0.33	26.1	-36.7	---	---	728.2	0.028	0.000	18.2	1	1
03/16/06	6:34 p	-22.3	-22.3	-22.3	---	---	27.8	ENE	0.46	30.4	-38.6	---	---	728.2	0.028	0.000	18.2	1	1
03/16/06	6:35 p	-22.3	-22.3	-22.3	---	---	22.6	ENE	0.38	26.1	-37.3	---	---	728.5	0.028	0.000	18.2	1	1
03/16/06	6:36 p	-22.3	-22.2	-22.3	---	---	17.4	ENE	0.29	20.9	-35.8	---	---	728.5	0.028	0.000	18.2	1	1
03/16/06	6:37 p	-22.3	-22.2	-22.3	---	---	16.5	E	0.28	21.7	-35.6	---	---	728.3	0.028	0.000	18.2	1	1
03/16/06	6:38 p	-22.2	-22.2	-22.3	---	---	26.1	E	0.43	33.9	-38.1	---	---	727.9	0.028	0.000	18.2	1	1
03/16/06	6:39 p	-22.2	-22.2	-22.2	---	---	27.8	ENE	0.46	33.0	-38.5	---	---	728.4	0.028	0.000	18.2	1	1
03/16/06	6:40 p	-22.2	-22.2	-22.2	---	---	20.9	ENE	0.35	22.6	-36.8	---	---	728.4	0.028	0.000	18.2	1	1
03/16/06	6:41 p	-22.2	-22.2	-22.2	---	---	20.9	ENE	0.35	23.5	-36.8	---	---	728.3	0.028	0.000	18.2	1	1
03/16/06	6:42 p	-22.2	-22.2	-22.2	---	---	23.5	E	0.39	27.8	-37.4	---	---	728.2	0.028	0.000	18.2	1	1
03/16/06	6:43 p	-22.2	-22.2	-22.2	---	---	24.3	ENE	0.41	27.8	-37.7	---	---	728.3	0.028	0.000	18.2	1	1
03/16/06	6:44 p	-22.2	-22.1	-22.2	---	---	22.6	E	0.38	25.2	-37.2	---	---	728.3	0.028	0.000	18.2	1	1
03/16/06	6:45 p	-22.2	-22.1	-22.2	---	---	23.5	ENE	0.39	26.1	-37.4	---	---	728.4	0.028	0.000	18.2	1	1
03/16/06	6:46 p	-22.2	-22.1	-22.2	---	---	21.7	ENE	0.36	23.5	-37.0	---	---	728.3	0.028	0.000	18.2	1	1
03/16/06	6:47 p	-22.1	-22.1	-22.2	---	---	22.6	E	0.38	27.8	-37.1	---	---	728.1	0.028	0.000	18.2	1	1
03/16/06	6:48 p	-22.1	-22.1	-22.2	---	---	27.0	ENE	0.45	27.8	-38.2	---	---	728.2	0.028	0.000	18.2	1	1
03/16/06	6:49 p	-22.1	-22.1	-22.1	---	---	23.5	ENE	0.39	27.0	-37.3	---	---	728.3	0.028	0.000	18.2	1	1
03/16/06	6:50 p	-22.1	-22.1	-22.1	---	---	20.0	ENE	0.33	24.3	-36.3	---	---	728.4	0.028	0.000	18.2	1	1
03/16/06	6:51 p	-22.1	-22.1	-22.1	---	---	22.6	E	0.38	26.1	-37.1	---	---	728.2	0.028	0.000	18.2	1	1
03/16/06	6:52 p	-22.1	-22.1	-22.1	---	---	23.5	ENE	0.39	25.2	-37.3	---	---	728.2	0.028	0.000	18.2	1	1
03/16/06	6:53 p	-22.0	-22.0	-22.1	---	---	23.5	ENE	0.39	27.8	-37.2	---	---	728.1	0.028	0.000	18.2	1	1
03/16/06	6:54 p	-22.1	-22.0	-22.1	---	---	27.0	ENE	0.45	30.4	-38.1	---	---	728.2	0.028	0.000	18.2	1	1
03/16/06	6:55 p	-22.0	-22.0	-22.1	---	---	23.5	ENE	0.39	27.0	-37.2	---	---	728.3	0.028	0.000	18.2	1	1
03/16/06	6:56 p	-22.0	-21.9	-22.0	---	---	20.9	ENE	0.35	23.5	-36.5	---	---	728.4	0.028	0.000	18.2	1	1
03/16/06	6:57 p	-22.0	-21.9	-22.0	---	---	20.9	E	0.35	24.3	-36.5	---	---	728.1	0.028	0.000	18.2	1	1
03/16/06	6:58 p	-21.9	-21.9	-21.9	---	---	21.7	E	0.36	25.2	-36.7	---	---	728.2	0.028	0.000	18.2	1	1
03/16/06	6:59 p	-21.9	-21.9	-21.9	---	---	21.7	E	0.36	26.1	-36.7	---	---	728.3	0.028	0.000	18.2	1	1
03/16/06	7:00 p	-21.9	-21.9	-21.9	---	---	22.6	ENE	0.38	24.3	-36.9	---	---	728.3	0.028	0.000	18.2	1	1
03/16/06	7:01 p	-21.9	-21.9	-21.9	---	---	22.6	ENE	0.38	27.0	-36.9	---	---	728.2	0.028	0.000	18.2	1	1
03/16/06	7:02 p	-21.9	-21.9	-21.9	---	---	22.6	E	0.38	25.2	-36.8	---	---	728.2	0.028	0.000	18.2	1	1
03/16/06	7:03 p	-21.9	-21.9	-21.9	---	---	22.6	ENE	0.38	25.2	-36.8	---	---	728.3	0.028	0.000	18.2	1	1
03/16/06	7:04 p	-21.9	-21.9	-21.9	---	---	20.0	ENE	0.33	23.5	-36.1	---	---	728.3	0.028	0.000	18.2	1	1
03/16/06	7:05 p	-21.9	-21.9	-21.9	---	---	20.0	E	0.33	26.1	-36.1	---	---	728.2	0.028	0.000	18.2	1	1
03/16/06	7:06 p	-21.9	-21.9	-21.9	---	---	22.6	E	0.38	27.0	-36.8	---	---	728.2	0.028	0.000	18.2	1	1
03/16/06	7:07 p	-21.9	-21.8	-21.9	---	---	20.9	E	0.35	22.6	-36.4	---	---	728.3	0.028	0.000	18.2	1	1
03/16/06	7:08 p	-21.8	-21.8	-21.9	---	---	20.9	ENE	0.35	24.3	-36.3	---	---	728.2	0.028	0.000	18.2	1	1
03/16/06	7:09 p	-21.9	-21.8	-21.9	---	---	21.7	ENE	0.36	26.1	-36.6	---	---	728.2	0.028	0.000	18.2	1	1
03/16/06	7:10 p	-21.9	-21.8	-21.9	---	---	21.7	ENE	0.36	25.2	-36.6	---	---	728.3	0.028	0.000	18.2	1	1
03/16/06	7:11 p	-21.8	-21.8	-21.8	---	---	18.3	ENE	0.30	21.7	-35.6	---	---	728.2	0.028	0.000	18.2	1	1
03/16/06	7:12 p	-21.8	-21.8	-21.8	---	---	19.1	E	0.32	24.3	-35.8	---	---	728.1	0.028	0.000	18.2	1	1
03/16/06	7:13 p	-21.8	-21.8	-21.9	---	---	21.7	E	0.36	25.2	-36.6	---	---	728.0	0.028	0.000	18.2	1	1
03/16/06	7:14 p	-21.8	-21.8	-21.8	---	---	25.2	ENE	0.42	27.0	-37.4	---	---	728.2	0.028	0.000	18.2	1	1
03/16/06	7:15 p	-21.8	-21.8	-21.9	---	---	22.6	ENE	0.38	26.1	-36.8	---	---	728.3	0.028	0.000	18.2	1	1
03/16/06	7:16 p	-21.8	-21.8	-21.9	---	---	19.1	E	0.32	22.6	-35.8	---	---	728.2	0.028	0.000	18.2	1	1
03/16/06	7:17 p	-21.8	-21.8	-21.8	---	---	20.0	E	0.33	24.3	-36.1	---	---	728.1	0.028	0.000	18.2	1	1
03/16/06	7:18 p	-21.8	-21.8	-21.8	---	---	22.6	ENE	0.38	24.3	-36.8	---	---	728.0	0.028	0.000	18.2	1	1
03/16/06	7:19 p	-21.8	-21.8	-21.8	---	---	20.0	ENE	0.33	25.2	-36.1	---	---	728.1	0.028	0.000	18.2	1	1
03/16/06	7:20 p	-21.8	-21.8	-21.8	---	---	21.7	ENE	0.36	25.2	-36.6	---	---	728.1	0.028	0.000	18.2	1	1
03/16/06	7:21 p	-21.8	-21.8	-21.8	---	---	24.3	ENE	0.41	26.1	-37.2	---	---	728.2	0.028	0.000	18.2	1	1
03/16/06	7:22 p	-21.8	-21.8	-21.8	---	---	21.7	ENE	0.36	24.3	-36.6	---	---	728.2	0.028	0.000	18.2	1	1
03/16/06	7:23 p	-21.8	-21.8	-21.8	---	---	20.0	E	0.33	21.7	-36.1	---	---	728.1	0.028	0.000	18.2	1	1
03/16/06	7:24 p	-21.8	-21.8	-21.8	---	---	22.6	E	0.38	24.3	-36.8	---	---	728.0	0.028	0.000	18.2	1	1
03/16/06	7:25 p	-21.8	-21.8	-21.8	---	---	22.6	ENE	0.38	25.2	-36.8	---	---	728.0	0.028	0.000	18.2	1	1
03/16/06	7:26 p	-21.8	-21.8	-21.8	---	---	20.0	E	0.33	24.3	-36.1	---	---	728.1	0.028	0.000	18.2	1	1
03/16/06	7:27 p	-21.8	-21.8	-21.8	---	---	23.5	E	0.39	25.2	-37.0	---	---	728.0	0.028	0.000	18.2	1	1
03/16/06	7:28 p	-21.8	-21.8	-21.8	---	---	21.7	E	0.36	24.3	-36.6	---	---	728.1	0.028	0.000	18.2	1	1
03/16/06	7:29 p	-21.8	-21.8	-21.8	---	---	20.0	E	0.33	22.6	-36.0	---	---	728.1	0.028	0.000	18.2	1	1
03/16/06	7:30 p	-21.8	-21.8	-21.8	---	---	21.7	E	0.36	26.1	-36.6	---	---	728.0	0.028	0.000	18.2	1	1
03/16/06	7:31 p	-21.8	-21.8	-21.8	---	---	22.6	E	0.38	26.1	-36.8	---	---	728.0	0.028	0.000	18.2	1	1
03/16/06	7:32 p	-21.8	-21.8	-21.8	---	---	21.7	E	0.36	26.1	-36.4	---	---	728.2	0.028	0.000	18.2	1	1
03/16/06	7:33 p	-21.8	-21.8	-21.8	---	---	18.3	E	0.30	20.9	-35.4	---	---	728.1	0.028	0.000	18.2	1	1
03/16/06	7:34 p	-21.8	-21.8	-21.8	---	---	20.0	E	0.33	24.3	-36.0	---	---	727.9	0.028	0.000	18.2	1	1
03/16/06	7:35 p	-21.8	-21.8	-21.8	---	---	22.6	E	0.38	26.1	-36.7	---	---	728.0	0.028	0.000	18.2	1	1
03/16/06	7:36 p	-21.8	-21.8	-21.8	---	---	22.6	ENE	0.38	26.1	-36.7	---	---	727.9	0.028	0.000	18.2	1	1
03/16/06	7:37 p	-21.8	-21.8	-21.8	---	---	23.5	E	0.39	26.1	-36.9	---	---	728.0	0.028	0.000	18.2	1	1
03/16/06	7:38 p	-21.8	-21.8	-21.8	---	---	21.7	ENE	0.36	25.2	-36.6	---	---	728.1	0.028	0.000	18.2	1	1
03/16/06	7:39 p	-21.8	-21.8	-21.8	---	---	22.6	E	0.38	25.2	-36.8	---	---	728.0	0.028	0.000	18.2	1	1
03/16/06	7:40 p	-21.8	-21.8	-21.8	---	---	21.7	ENE	0.36	24.3	-36.6	---	---	728.0	0.028	0.000	18.2	1	1
03/16/06	7:41 p	-21.8	-21.8	-21.8	---	---	21.7	E	0.36	23.5	-36.6	---	---	727.8	0.028	0.000	18.2	1	1
03/16/06	7:42 p	-21.8	-21.8	-21.8	---	---	22.6	E	0.38	25.2	-36.8	---	---	728.0	0.028	0.000	18.2	1	1
03/16/06	7:43 p	-21.8	-21.8	-21.8	---	---	22.6	ENE	0.38	25.2	-36.8	---	---	727.9	0.028	0.000	18.2	1	1
03/16/06	7:44 p	-21.8	-21.8	-21.8	---	---	21.7	ENE	0.36	24.3	-36.6	---	---	728.0	0.028	0.000	18.2	1	1
03/16/06	7:45 p	-21.8	-21.8	-21.8	---	---	20.9	E	0.35	24.3	-36.3	---	---	727.9	0.028	0.000	18.2	1	1
03/16/06	7:46 p	-21.8	-21.8	-21.8	---	---	22.6	E	0.38	25.2	-36.8	---	---	728.1	0.028	0.000	18.2	1	1
03/16/06	7:47 p	-21.8	-21.8	-21.8	---	---	19.1	E	0.32	22.6	-35.8	---	---	728.0	0.028	0.000	18.2	1	1
03/16/06	7:48 p	-21.8	-21.8	-21.9	---	---	19.1	E	0.32	22.6	-35.8	---	---	728.0	0.028	0.000	18.2	1	1
03/16/06	7:49 p	-21.8	-21.8	-21.8	---	---	19.1	E	0.32	20.9	-35.8	---	---	728.0	0.028	0.000	18.2	1	1
03/16/06	7:50 p	-21.8	-21.8	-21.8	---	---	21.7	E	0.36	24.3	-36.6	---	---	727.9	0.028	0.000	18.2	1	1
03/16/06	7:51 p	-21.8	-21.8	-21.8	---	---	21.7	ENE	0.36	24.3	-36.6	---	---	728.0	0.028	0.000	18.2	1	1
03/16/06	7:52 p	-21.8	-21.8	-21.9	---	---	20.0	E	0.33	23.5	-36.1	---	---	728.0	0.028	0.000	18.2	1	1
03/16/06	7:53 p	-21.8	-21.8	-21.8	---	---	19.1	E	0.32	21.7	-35.8	---	---	728.1	0.028	0.000	18.2	1	1
03/16/06	7:54 p	-21.8	-21.8	-21.9	---	---	18.3	E	0.30	21.7	-35.6	---	---	728.0	0.028	0.000	18.2	1	1
03/16/06	7:55 p	-21.8	-21.8	-21.9	---	---	20.0	ENE	0.33	21.7	-36.1	---	---	727.9	0.028	0.000	18.2	1	1
03/16/06	7:56 p	-21.8	-21.8	-21.9	---	---	19.1	E	0.32	22.6	-35.8	---	---	727.8	0.028	0.000	18.2	1	1
03/16/06	7:57 p	-21.8	-21.8	-21.9	---	---	20.0	E	0.33	21.7	-36.1	---	---	728.0	0.028	0.000	18.2	1	1
03/16/06	7:58 p	-21.9	-21.8	-21.9	---	---	20.0	ENE	0.33	22.6	-36.1	---	---	727.9	0.028	0.000	18.2	1	1
03/16/06	7:59 p	-21.9	-21.9	-21.9	---	---	20.9	E	0.35	23.5	-36.4	---	---	727.9	0.028	0.000	18.2	1	1
03/16/06	8:00 p	-21.9	-21.9	-21.9	---	---	21.7	ENE	0.36	23.5	-36.6	---	---	728.0	0.028	0.000	18.2	1	1
03/16/06	8:01 p	-21.9	-21.9	-21.9	---	---	17.4	ENE	0.29	19.1	-35.3	---	---	728.0	0.028	0.000	18.2	1	1
03/16/06	8:02 p	-21.9	-21.8	-21.9	---	---	19.1	ENE	0.32	22.6	-35.9	---	---	727.8	0.028	0.000	18.2	1	1
03/16/06	8:03 p	-21.9	-21.9	-21.9	---	---	21.7	E	0.36	24.3	-36.6	---	---	727.8	0.028	0.000	18.2	1	1
03/16/06	8:04 p	-21.9	-21.9	-21.9	---	---	21.7	E	0.36	24.3	-36.6	---	---	727.9	0.028	0.000	18.2	1	1
03/16/06	8:05 p	-21.9	-21.9	-21.9	---	---	20.9	ENE	0.35	22.6	-36.4	---	---	727.9	0.028	0.000	18.2	1	1
03/16/06	8:06 p	-21.9	-21.9	-22.0	---	---	19.1	ENE	0.32	21.7	-35.9	---	---	727.9	0.028	0.000	18.2	1	1
03/16/06	8:07 p	-21.9	-21.9	-21.9	---	---	20.9	ENE	0.35	24.3	-36.4	---	---	727.8	0.028	0.000	18.2	1	1
03/16/06	8:08 p	-21.9	-21.9	-21.9	---	---	21.7	ENE	0.36	23.5	-36.7	---	---	727.8	0.028	0.000	18.2	1	1
03/16/06	8:09 p	-21.9	-21.9	-22.0	---	---	19.1	E	0.32	22.6	-35.9	---	---	727.9	0.028	0.000	18.2	1	1
03/16/06	8:10 p	-21.9	-21.9	-22.0	---	---	20.0	E	0.33	22.6	-36.2	---	---	727.8	0.028	0.000	18.2	1	1
03/16/06	8:11 p	-21.9	-21.9	-21.9	---	---	21.7	ENE	0.36	24.3	-36.7	---	---	727.9	0.028	0.000	18.2	1	1
03/16/06	8:12 p	-21.9	-21.9	-21.9	---	---	18.3	ENE	0.30	20.9	-35.7	---	---	728.0	0.028	0.000	18.2	1	1
03/16/06	8:13 p	-22.0	-21.9	-22.0	---	---	17.4	E	0.29	20.9	-35.5	---	---	727.9	0.028	0.000	18.2	1	1
03/16/06	8:14 p	-22.0	-22.0	-22.1	---	---	20.9	E	0.35	24.3	-36.5	---	---	727.8	0.028	0.000	18.2	1	1
03/16/06	8:15 p	-22.0	-21.9	-22.0	---	---	23.5	ENE	0.39	25.2	-37.2	---	---	727.8	0.028	0.000	18.2	1	1
03/16/06	8:16 p	-22.0	-22.0	-22.0	---	---	22.6	ENE	0.38	27.0	-37.0	---	---	727.9	0.028	0.000	18.2	1	1
03/16/06	8:17 p	-22.0	-22.0	-22.1	---	---	14.8	ENE	0.25	20.0	-34.6	---	---	728.0	0.028	0.000	18.2	1	1
03/16/06	8:18 p	-22.1	-22.0	-22.1	---	---	21.7	ENE	0.36	26.1	-36.8	---	---	727.8	0.028	0.000	18.2	1	1
03/16/06	8:19 p	-22.0	-22.0	-22.1	---	---	20.9	E	0.35	24.3	-36.5	---	---	727.9	0.028	0.000	18.2	1	1
03/16/06	8:20 p	-22.1	-22.0	-22.1	---	---	19.1	E	0.32	20.9	-36.1	---	---	727.8	0.028	0.000	18.2	1	1
03/16/06	8:21 p	-22.1	-22.0	-22.1	---	---	17.4	E	0.29	20.0	-35.6	---	---	728.0	0.028	0.000	18.2	1	1
03/16/06	8:22 p	-22.1	-22.0	-22.1	---	---	14.8	E	0.25	17.4	-34.7	---	---	727.9	0.028	0.000	18.2	1	1
03/16/06	8:23 p	-22.1	-22.1	-22.1	---	---	16.5	E	0.28	20.9	-35.3	---	---	728.0	0.028	0.000	18.2	1	1
03/16/06	8:24 p	-22.1	-22.1	-22.1	---	---	20.0	ENE	0.33	21.7	-36.3	---	---	727.8	0.028	0.000	18.2	1	1
03/16/06	8:25 p	-22.1	-22.1	-22.1	---	---	19.1	E	0.32	22.6	-36.1	---	---	727.8	0.028	0.000	18.2	1	1
03/16/06	8:26 p	-22.1	-22.1	-22.1	---	---	19.1	E	0.32	20.9	-36.2	---	---	727.8	0.028	0.000	18.2	1	1
03/16/06	8:27 p	-22.1	-22.1	-22.1	---	---	18.3	ENE	0.30	21.7	-35.8	---	---	727.8	0.028	0.000	18.2	1	1
03/16/06	8:28 p	-22.1	-22.1	-22.1	---	---	19.1	E	0.32	22.6	-36.1	---	---	727.9	0.028	0.000	18.2	1	1
03/16/06	8:29 p	-22.1	-22.1	-22.1	---	---	20.0	E	0.33	22.6	-36.3	---	---	727.8	0.028	0.000	18.2	1	1
03/16/06	8:30 p	-22.1	-22.1	-22.1	---	---	18.3	ENE	0.30	20.0	-35.8	---	---	727.9	0.028	0.000	18.2	1	1
03/16/06	8:31 p	-22.1	-22.1	-22.1	---	---	18.3	ENE	0.30	20.0	-35.8	---	---	727.9	0.028	0.000	18.2	1	1
03/16/06	8:32 p	-22.1	-22.1	-22.1	---	---	18.3	E	0.30	20.9	-35.9	---	---	727.8	0.028	0.000	18.2	1	1
03/16/06	8:33 p	-22.1	-22.1	-22.1	---	---	20.0	ENE	0.33	22.6	-36.3	---	---	727.9	0.028	0.000	18.2	1	1
03/16/06	8:34 p	-22.1	-22.1	-22.1	---	---	18.3	ENE	0.30	20.0	-35.9	---	---	727.9	0.028	0.000	18.2	1	1
03/16/06	8:35 p	-22.1	-22.1	-22.1	---	---	17.4	ENE	0.29	19.1	-35.6	---	---	727.8	0.028	0.000	18.2	1	1
03/16/06	8:36 p	-22.1	-22.1	-22.1	---	---	19.1	E	0.32	22.6	-36.2	---	---	727.8	0.028	0.000	18.2	1	1
03/16/06	8:37 p	-22.1	-22.1	-22.1	---	---	20.0	ENE	0.33	22.6	-36.4	---	---	727.9	0.028	0.000	18.2	1	1
03/16/06	8:38 p	-22.1	-22.1	-22.1	---	---	15.7	E	0.26	20.0	-35.1	---	---	727.8	0.028	0.000	18.2	1	1
03/16/06	8:39 p	-22.1	-22.1	-22.1	---	---	18.3	E	0.30	20.9	-35.9	---	---	727.8	0.028	0.000	18.2	1	1
03/16/06	8:40 p	-22.1	-22.1	-22.1	---	---	18.3	ENE	0.30	20.0	-35.9	---	---	728.0	0.028	0.000	18.2	1	1
03/16/06	8:41 p	-22.1	-22.1	-22.1	---	---	15.7	ENE	0.26	17.4	-35.1	---	---	727.9	0.028	0.000	18.2	1	1
03/16/06	8:42 p	-22.1	-22.1	-22.2	---	---	18.3	E	0.30	21.7	-35.9	---	---	727.7	0.028	0.000	18.3	1	1
03/16/06	8:43 p	-22.1	-22.1	-22.1	---	---	20.0	ENE	0.33	23.5	-36.4	---	---	727.7	0.028	0.000	18.2	1	1
03/16/06	8:44 p	-22.1	-22.1	-22.1	---	---	20.9	ENE	0.35	23.5	-36.7	---	---	727.8	0.028	0.000	18.2	1	1
03/16/06	8:45 p	-22.1	-22.1	-22.1	---	---	19.1	ENE	0.32	20.9	-36.2	---	---	727.8	0.028	0.000	18.2	1	1
03/16/06	8:46 p	-22.1	-22.1	-22.2	---	---	19.1	ENE	0.32	20.0	-36.2	---	---	727.9	0.028	0.000	18.2	1	1
03/16/06	8:47 p	-22.1	-22.1	-22.1	---	---	16.5	ENE	0.28	18.3	-35.3	---	---	727.8	0.028	0.000	18.2	1	1
03/16/06	8:48 p	-22.1	-22.1	-22.1	---	---	19.1	ENE	0.32	22.6	-36.2	---	---	727.7	0.028	0.000	18.2	1	1
03/16/06	8:49 p	-22.2	-22.1	-22.2	---	---	20.9	ENE	0.35	24.3	-36.7	---	---	727.8	0.028	0.000	18.2	1	1
03/16/06	8:50 p	-22.1	-22.1	-22.2	---	---	20.0	ENE	0.33	20.9	-36.4	---	---	727.9	0.028	0.000	18.2	1	1
03/16/06	8:51 p	-22.2	-22.1	-22.2	---	---	17.4	ENE	0.29	20.0	-35.7	---	---	728.0	0.028	0.000	18.2	1	1
03/16/06	8:52 p	-22.1	-22.1	-22.2	---	---	18.3	ENE	0.30	20.9	-35.9	---	---	727.9	0.028	0.000	18.2	1	1
03/16/06	8:53 p	-22.2	-22.1	-22.2	---	---	18.3	ENE	0.30	19.1	-36.0	---	---	727.8	0.028	0.000	18.2	1	1
03/16/06	8:54 p	-22.2	-22.1	-22.2	---	---	17.4	ENE	0.29	19.1	-35.7	---	---	727.8	0.028	0.000	18.2	1	1
03/16/06	8:55 p	-22.2	-22.2	-22.2	---	---	16.5	ENE	0.28	20.0	-35.4	---	---	727.8	0.028	0.000	18.2	1	1
03/16/06	8:56 p	-22.2	-22.2	-22.2	---	---	16.5	ENE	0.28	18.3	-35.4	---	---	727.8	0.028	0.000	18.2	1	1
03/16/06	8:57 p	-22.2	-22.2	-22.2	---	---	18.3	ENE	0.30	20.0	-36.0	---	---	727.7	0.028	0.000	18.2	1	1
03/16/06	8:58 p	-22.2	-22.2	-22.2	---	---	19.1	ENE	0.32	20.9	-36.2	---	---	727.7	0.028	0.000	18.2	1	1
03/16/06	8:59 p	-22.2	-22.2	-22.2	---	---	16.5	ENE	0.28	19.1	-35.4	---	---	727.8	0.028	0.000	18.2	1	1
03/16/06	9:00 p	-22.2	-22.2	-22.2	---	---	17.4	ENE	0.29	20.9	-35.7	---	---	727.6	0.028	0.000	18.2	1	1
03/16/06	9:01 p	-22.2	-22.2	-22.2	---	---	19.1	ENE	0.32	21.7	-36.2	---	---	727.7	0.028	0.000	18.2	1	1
03/16/06	9:02 p	-22.2	-22.2	-22.2	---	---	18.3	ENE	0.30	21.7	-36.0	---	---	727.7	0.028	0.000	18.2	1	1
03/16/06	9:03 p	-22.2	-22.2	-22.2	---	---	18.3	ENE	0.30	20.9	-36.1	---	---	727.8	0.028	0.000	18.2	1	1
03/16/06	9:04 p	-22.2	-22.2	-22.2	---	---	16.5	ENE	0.28	19.1	-35.4	---	---	727.8	0.028	0.000	18.2	1	1
03/16/06	9:05 p	-22.2	-22.2	-22.2	---	---	16.5	ENE	0.28	18.3	-35.4	---	---	727.6	0.028	0.000	18.2	1	1
03/16/06	9:06 p	-22.2	-22.2	-22.2	---	---	18.3	ENE	0.30	20.0	-36.0	---	---	727.7	0.028	0.000	18.2	1	1
03/16/06	9:07 p	-22.2	-22.2	-22.2	---	---	18.3	ENE	0.30	20.0	-36.0	---	---	727.6	0.028	0.000	18.2	1	1
03/16/06	9:08 p	-22.2	-22.2	-22.2	---	---	17.4	ENE	0.29	20.0	-35.7	---	---	727.7	0.028	0.000	18.2	1	1
03/16/06	9:09 p	-22.2	-22.2	-22.2	---	---	19.1	ENE	0.32	20.9	-36.3	---	---	727.6	0.028	0.000	18.2	1	1
03/16/06	9:10 p	-22.2	-22.2	-22.2	---	---	19.1	ENE	0.32	20.9	-36.3	---	---	727.6	0.028	0.000	18.2	1	1
03/16/06	9:11 p	-22.2	-22.2	-22.2	---	---	19.1	ENE	0.32	20.0	-36.2	---	---	727.6	0.028	0.000	18.2	1	1
03/16/06	9:12 p	-22.2	-22.2	-22.2	---	---	18.3	ENE	0.30	20.0	-36.0	---	---	727.8	0.028	0.000	18.2	1	1
03/16/06	9:13 p	-22.2	-22.2	-22.2	---	---	17.4	ENE	0.29	20.0	-35.7	---	---	727.6	0.028	0.000	18.2	1	1
03/16/06	9:14 p	-22.2	-22.2	-22.2	---	---	17.4	ENE	0.29	20.0	-35.7	---	---	727.6	0.028	0.000	18.2	1	1
03/16/06	9:15 p	-22.2	-22.2	-22.2	---	---	18.3	ENE	0.30	20.9	-36.1	---	---	727.7	0.028	0.000	18.2	1	1
03/16/06	9:16 p	-22.2	-22.2	-22.2	---	---	18.3	ENE	0.30	20.9	-36.1	---	---	727.6	0.028	0.000	18.2	1	1
03/16/06	9:17 p	-22.2	-22.2	-22.2	---	---	18.3	ENE	0.30	21.7	-36.1	---	---	727.5	0.028	0.000	18.2	1	1
03/16/06	9:18 p	-22.2	-22.2	-22.2	---	---	20.0	ENE	0.33	21.7	-36.6	---	---	727.6	0.028	0.000	18.2	1	1
03/16/06	9:19 p	-22.2	-22.2	-22.2	---	---	18.3	ENE	0.30	21.7	-36.1	---	---	727.6	0.028	0.000	18.2	1	1
03/16/06	9:20 p	-22.2	-22.2	-22.2	---	---	20.0	ENE	0.33	21.7	-36.6	---	---	727.6	0.028	0.000	18.2	1	1
03/16/06	9:21 p	-22.2	-22.2	-22.2	---	---	17.4	ENE	0.29	20.0	-35.7	---	---	727.6	0.028	0.000	18.2	1	1
03/16/06	9:22 p	-22.2	-22.2	-22.2	---	---	16.5	ENE	0.28	20.0	-35.5	---	---	727.5	0.028	0.000	18.2	1	1
03/16/06	9:23 p	-22.2	-22.2	-22.2	---	---	19.1	ENE	0.32	21.7	-36.2	---	---	727.6	0.028	0.000	18.2	1	1
03/16/06	9:24 p	-22.2	-22.2	-22.2	---	---	19.1	ENE	0.32	21.7	-36.2	---	---	727.6	0.028	0.000	18.2	1	1
03/16/06	9:25 p	-22.2	-22.2	-22.2	---	---	16.5	ENE	0.28	20.0	-35.5	---	---	727.6	0.028	0.000	18.2	1	1
03/16/06	9:26 p	-22.2	-22.2	-22.2	---	---	18.3	ENE	0.30	20.0	-36.1	---	---	727.5	0.028	0.000	18.2	1	1
03/16/06	9:27 p	-22.2	-22.2	-22.2	---	---	18.3	E	0.30	20.9	-36.1	---	---	727.5	0.028	0.000	18.2	1	1
03/16/06	9:28 p	-22.2	-22.2	-22.2	---	---	20.0	ENE	0.33	21.7	-36.6	---	---	727.6	0.028	0.000	18.2	1	1
03/16/06	9:29 p	-22.2	-22.2	-22.2	---	---	18.3	ENE	0.30	20.9	-36.0	---	---	727.6	0.028	0.000	18.2	1	1
03/16/06	9:30 p	-22.2	-22.2	-22.2	---	---	18.3	ENE	0.30	19.1	-36.1	---	---	727.6	0.028	0.000	18.2	1	1
03/16/06	9:31 p	-22.2	-22.2	-22.2	---	---	18.3	ENE	0.30	20.9	-36.1	---	---	727.5	0.028	0.000	18.2	1	1
03/16/06	9:32 p	-22.2	-22.2	-22.2	---	---	19.1	ENE	0.32	21.7	-36.3	---	---	727.6	0.028	0.000	18.2	1	1
03/16/06	9:33 p	-22.2	-22.2	-22.3	---	---	17.4	ENE	0.29	20.0	-35.8	---	---	727.6	0.028	0.000	18.2	1	1
03/16/06	9:34 p	-22.2	-22.2	-22.2	---	---	17.4	ENE	0.29	20.0	-35.8	---	---	727.5	0.028	0.000	18.2	1	1
03/16/06	9:35 p	-22.2	-22.2	-22.2	---	---	19.1	ENE	0.32	20.9	-36.3	---	---	727.5	0.028	0.000	18.2	1	1
03/16/06	9:36 p	-22.2	-22.2	-22.2	---	---	19.1	ENE	0.32	20.9	-36.3	---	---	727.4	0.028	0.000	18.2	1	1
03/16/06	9:37 p	-22.2	-22.2	-22.2	---	---	20.9	ENE	0.35	23.5	-36.8	---	---	727.4	0.028	0.000	18.2	1	1
03/16/06	9:38 p	-22.2	-22.2	-22.2	---	---	20.0	ENE	0.33	20.9	-36.6	---	---	727.5	0.028	0.000	18.2	1	1
03/16/06	9:39 p	-22.2	-22.2	-22.2	---	---	19.1	ENE	0.32	21.7	-36.3	---	---	727.4	0.028	0.000	18.2	1	1
03/16/06	9:40 p	-22.2	-22.2	-22.3	---	---	21.7	ENE	0.36	24.3	-37.1	---	---	727.3	0.028	0.000	18.2	1	1
03/16/06	9:41 p	-22.3	-22.2	-22.3	---	---	20.0	ENE	0.33	21.7	-36.7	---	---	727.4	0.028	0.000	18.2	1	1
03/16/06	9:42 p	-22.2	-22.2	-22.3	---	---	21.7	ENE	0.36	24.3	-37.1	---	---	727.4	0.028	0.000	18.2	1	1
03/16/06	9:43 p	-22.3	-22.2	-22.3	---	---	20.0	ENE	0.33	23.5	-36.7	---	---	727.4	0.028	0.000	18.2	1	1
03/16/06	9:44 p	-22.3	-22.3	-22.3	---	---	19.1	ENE	0.32	20.0	-36.4	---	---	727.4	0.028	0.000	18.2	1	1
03/16/06	9:45 p	-22.3	-22.2	-22.3	---	---	19.1	E	0.32	21.7	-36.4	---	---	727.3	0.028	0.000	18.2	1	1
03/16/06	9:46 p	-22.3	-22.3	-22.3	---	---	18.3	E	0.30	20.9	-36.1	---	---	727.4	0.028	0.000	18.2	1	1
03/16/06	9:47 p	-22.3	-22.3	-22.3	---	---	20.9	ENE	0.35	23.5	-36.9	---	---	727.3	0.028	0.000	18.2	1	1
03/16/06	9:48 p	-22.3	-22.3	-22.3	---	---	20.9	ENE	0.35	23.5	-36.9	---	---	727.4	0.028	0.000	18.2	1	1
03/16/06	9:49 p	-22.3	-22.3	-22.3	---	---	20.0	ENE	0.33	22.6	-36.7	---	---	727.4	0.028	0.000	18.2	1	1
03/16/06	9:50 p	-22.3	-22.3	-22.3	---	---	20.0	ENE	0.33	22.6	-36.7	---	---	727.3	0.028	0.000	18.2	1	1
03/16/06	9:51 p	-22.3	-22.3	-22.3	---	---	20.9	ENE	0.35	22.6	-36.9	---	---	727.4	0.028	0.000	18.2	1	1
03/16/06	9:52 p	-22.3	-22.3	-22.3	---	---	20.9	ENE	0.35	22.6	-36.9	---	---	727.3	0.028	0.000	18.2	1	1
03/16/06	9:53 p	-22.3	-22.3	-22.3	---	---	20.0	ENE	0.33	23.5	-36.7	---	---	727.3	0.028	0.000	18.3	1	1
03/16/06	9:54 p	-22.3	-22.3	-22.3	---	---	21.7	ENE	0.36	22.6	-37.2	---	---	727.4	0.028	0.000	18.2	1	1
03/16/06	9:55 p	-22.3	-22.3	-22.3	---	---	20.9	ENE	0.35	23.5	-36.9	---	---	727.3	0.028	0.000	18.2	1	1
03/16/06	9:56 p	-22.3	-22.3	-22.3	---	---	20.9	ENE	0.35	22.6	-36.9	---	---	727.3	0.028	0.000	18.2	1	1
03/16/06	9:57 p	-22.3	-22.3	-22.3	---	---	19.1	ENE	0.32	20.9	-36.4	---	---	727.3	0.028	0.000	18.3	1	1
03/16/06	9:58 p	-22.3	-22.3	-22.3	---	---	18.3	E	0.30	21.7	-36.2	---	---	727.3	0.028	0.000	18.3	1	1
03/16/06	9:59 p	-22.3	-22.3	-22.4	---	---	21.7	ENE	0.36	24.3	-37.2	---	---	727.3	0.028	0.000	18.3	1	1
03/16/06	10:00 p	-22.3	-22.3	-22.4	---	---	20.9	ENE	0.35	22.6	-36.9	---	---	727.3	0.028	0.000	18.3	1	1
03/16/06	10:01 p	-22.4	-22.3	-22.4	---	---	20.0	ENE	0.33	24.3	-36.8	---	---	727.3	0.028	0.000	18.3	1	1
03/16/06	10:02 p	-22.4	-22.3	-22.4	---	---	19.1	ENE	0.32	21.7	-36.6	---	---	727.3	0.028	0.000	18.3	1	1
03/16/06	10:03 p	-22.4	-22.3	-22.4	---	---	20.0	ENE	0.33	21.7	-36.8	---	---	727.3	0.028	0.000	18.3	1	1
03/16/06	10:04 p	-22.4	-22.4	-22.4	---	---	20.0	ENE	0.33	23.5	-36.8	---	---	727.3	0.028	0.000	18.3	1	1
03/16/06	10:05 p	-22.4	-22.4	-22.4	---	---	20.9	E	0.35	24.3	-37.1	---	---	727.3	0.028	0.000	18.3	1	1
03/16/06	10:06 p	-22.4	-22.4	-22.4	---	---	20.9	ENE	0.35	23.5	-37.1	---	---	727.2	0.028	0.000	18.3	1	1
03/16/06	10:07 p	-22.4	-22.4	-22.4	---	---	20.0	ENE	0.33	21.7	-36.8	---	---	727.3	0.028	0.000	18.3	1	1
03/16/06	10:08 p	-22.4	-22.4	-22.4	---	---	19.1	ENE	0.32	21.7	-36.6	---	---	727.3	0.028	0.000	18.3	1	1
03/16/06	10:09 p	-22.4	-22.4	-22.4	---	---	18.3	ENE	0.30	21.7	-36.3	---	---	727.2	0.028	0.000	18.3	1	1
03/16/06	10:10 p	-22.4	-22.4	-22.4	---	---	20.0	ENE	0.33	21.7	-36.9	---	---	727.3	0.028	0.000	18.3	1	1
03/16/06	10:11 p	-22.4	-22.4	-22.5	---	---	20.9	ENE	0.35	22.6	-37.1	---	---	727.1	0.028	0.000	18.3	1	1
03/16/06	10:12 p	-22.4	-22.4	-22.4	---	---	21.7	ENE	0.36	23.5	-37.3	---	---	727.3	0.028	0.000	18.3	1	1
03/16/06	10:13 p	-22.4	-22.4	-22.5	---	---	20.9	ENE	0.35	22.6	-37.1	---	---	727.2	0.028	0.000	18.3	1	1
03/16/06	10:14 p	-22.4	-22.4	-22.5	---	---	20.9	ENE	0.35	22.6	-37.1	---	---	727.2	0.028	0.000	18.3	1	1
03/16/06	10:15 p	-22.4	-22.4	-22.5	---	---	20.9	ENE	0.35	22.6	-37.1	---	---	727.2	0.028	0.000	18.3	1	1
03/16/06	10:16 p	-22.4	-22.4	-22.4	---	---	20.0	ENE	0.33	22.6	-36.9	---	---	727.2	0.028	0.000	18.3	1	1
03/16/06	10:17 p	-22.4	-22.4	-22.4	---	---	20.0	ENE	0.33	21.7	-36.9	---	---	727.2	0.028	0.000	18.3	1	1
03/16/06	10:18 p	-22.4	-22.4	-22.5	---	---	20.9	ENE	0.35	22.6	-37.1	---	---	727.1	0.028	0.000	18.3	1	1
03/16/06	10:19 p	-22.5	-22.4	-22.5	---	---	20.9	ENE	0.35	22.6	-37.2	---	---	727.1	0.028	0.000	18.3	1	1
03/16/06	10:20 p	-22.5	-22.5	-22.5	---	---	20.9	ENE	0.35	22.6	-37.2	---	---	727.2	0.028	0.000	18.3	1	1
03/16/06	10:21 p	-22.5	-22.5	-22.5	---	---	19.1	ENE	0.32	22.6	-36.7	---	---	727.2	0.028	0.000	18.3	1	1
03/16/06	10:22 p	-22.5	-22.5	-22.5	---	---	21.7	ENE	0.36	24.3	-37.4	---	---	727.1	0.028	0.000	18.3	1	1
03/16/06	10:23 p	-22.5	-22.5	-22.5	---	---	22.6	ENE	0.38	24.3	-37.7	---	---	727.1	0.028	0.000	18.3	1	1
03/16/06	10:24 p	-22.5	-22.5	-22.5	---	---	20.9	ENE	0.35	24.3	-37.2	---	---	727.1	0.028	0.000	18.3	1	1
03/16/06	10:25 p	-22.5	-22.5	-22.5	---	---	20.9	ENE	0.35	22.6	-37.2	---	---	727.1	0.028	0.000	18.3	1	1
03/16/06	10:26 p	-22.5	-22.5	-22.6	---	---	20.9	ENE	0.35	22.6	-37.2	---	---	727.2	0.028	0.000	18.3	1	1
03/16/06	10:27 p	-22.6	-22.5	-22.6	---	---	20.0	ENE	0.33	21.7	-37.0	---	---	727.1	0.028	0.000	18.3	1	1
03/16/06	10:28 p	-22.6	-22.5	-22.6	---	---	20.9	ENE	0.35	23.5	-37.3	---	---	727.0	0.028	0.000	18.3	1	1
03/16/06	10:29 p	-22.6	-22.6	-22.6	---	---	21.7	ENE	0.36	23.5	-37.5	---	---	727.1	0.028	0.000	18.3	1	1
03/16/06	10:30 p	-22.6	-22.6	-22.6	---	---	20.0	ENE	0.33	21.7	-37.0	---	---	727.1	0.028	0.000	18.3	1	1
03/16/06	10:31 p	-22.6	-22.6	-22.6	---	---	20.9	ENE	0.35	22.6	-37.3	---	---	727.1	0.028	0.000	18.3	1	1
03/16/06	10:32 p	-22.6	-22.6	-22.6	---	---	20.9	ENE	0.35	22.6	-37.3	---	---	727.1	0.028	0.000	18.3	1	1
03/16/06	10:33 p	-22.6	-22.6	-22.6	---	---	19.1	ENE	0.32	21.7	-36.8	---	---	727.2	0.028	0.000	18.3	1	1
03/16/06	10:34 p	-22.6	-22.6	-22.6	---	---	20.9	ENE	0.35	21.7	-37.3	---	---	727.1	0.028	0.000	18.3	1	1
03/16/06	10:35 p	-22.6	-22.6	-22.6	---	---	20.9	ENE	0.35	21.7	-37.3	---	---	727.2	0.028	0.000	18.3	1	1
03/16/06	10:36 p	-22.6	-22.6	-22.6	---	---	20.0	ENE	0.33	21.7	-37.0	---	---	727.1	0.028	0.000	18.3	1	1
03/16/06	10:37 p	-22.6	-22.6	-22.6	---	---	19.1	ENE	0.32	21.7	-36.8	---	---	727.1	0.028	0.000	18.3	1	1
03/16/06	10:38 p	-22.6	-22.6	-22.6	---	---	20.0	ENE	0.33	22.6	-37.1	---	---	727.1	0.028	0.000	18.3	1	1
03/16/06	10:39 p	-22.6	-22.6	-22.6	---	---	20.0	ENE	0.33	21.7	-37.1	---	---	727.1	0.028	0.000	18.3	1	1
03/16/06	10:40 p	-22.6	-22.6	-22.6	---	---	21.7	ENE	0.36	23.5	-37.6	---	---	727.2	0.028	0.000	18.3	1	1
03/16/06	10:41 p	-22.6	-22.6	-22.7	---	---	20.9	ENE	0.35	22.6	-37.3	---	---	727.0	0.028	0.000	18.3	1	1
03/16/06	10:42 p	-22.7	-22.6	-22.7	---	---	19.1	ENE	0.32	22.6	-36.9	---	---	727.1	0.028	0.000	18.3	1	1
03/16/06	10:43 p	-22.7	-22.6	-22.7	---	---	19.1	ENE	0.32	20.9	-36.9	---	---	727.1	0.028	0.000	18.3	1	1
03/16/06	10:44 p	-22.7	-22.6	-22.7	---	---	17.4	ENE	0.29	20.0	-36.3	---	---	727.1	0.028	0.000	18.3	1	1
03/16/06	10:45 p	-22.6	-22.6	-22.7	---	---	19.1	ENE	0.32	21.7	-36.8	---	---	727.0	0.028	0.000	18.3	1	1
03/16/06	10:46 p	-22.7	-22.7	-22.7	---	---	20.0	ENE	0.33	21.7	-37.2	---	---	727.2	0.028	0.000	18.3	1	1
03/16/06	10:47 p	-22.7	-22.6	-22.7	---	---	15.7	ENE	0.26	20.9	-35.8	---	---	727.0	0.028	0.000	18.3	1	1
03/16/06	10:48 p	-22.7	-22.7	-22.7	---	---	20.9	ENE	0.35	22.6	-37.4	---	---	727.1	0.028	0.000	18.3	1	1
03/16/06	10:49 p	-22.7	-22.7	-22.7	---	---	17.4	NE	0.29	19.1	-36.3	---	---	727.1	0.028	0.000	18.3	1	1
03/16/06	10:50 p	-22.7	-22.7	-22.7	---	---	18.3	ENE	0.30	20.9	-36.6	---	---	727.1	0.028	0.000	18.3	1	1
03/16/06	10:51 p	-22.7	-22.7	-22.7	---	---	20.0	ENE	0.33	20.9	-37.2	---	---	727.1	0.029	0.000	18.3	1	1
03/16/06	10:52 p	-22.7	-22.7	-22.7	---	---	18.3	ENE	0.30	20.9	-36.7	---	---	727.1	0.029	0.000	18.3	1	1
03/16/06	10:53 p	-22.7	-22.7	-22.7	---	---	19.1	ENE	0.32	20.9	-37.0	---	---	727.0	0.029	0.000	18.3	1	1
03/16/06	10:54 p	-22.7	-22.7	-22.7	---	---	20.0	ENE	0.33	21.7	-37.2	---	---	727.0	0.029	0.000	18.3	1	1
03/16/06	10:55 p	-22.7	-22.7	-22.7	---	---	20.0	ENE	0.33	21.7	-37.2	---	---	727.0	0.029	0.000	18.3	1	1
03/16/06	10:56 p	-22.7	-22.7	-22.8	---	---	20.0	ENE	0.33	21.7	-37.2	---	---	727.0	0.029	0.000	18.3	1	1
03/16/06	10:57 p	-22.7	-22.7	-22.8	---	---	20.0	ENE	0.33	20.9	-37.2	---	---	727.1	0.029	0.000	18.3	1	1
03/16/06	10:58 p	-22.7	-22.7	-22.8	---	---	19.1	ENE	0.32	20.9	-37.0	---	---	727.0	0.029	0.000	18.3	1	1
03/16/06	10:59 p	-22.7	-22.7	-22.8	---	---	19.1	ENE	0.32	20.9	-37.0	---	---	727.0	0.029	0.000	18.3	1	1
03/16/06	11:00 p	-22.8	-22.7	-22.8	---	---	18.3	ENE	0.30	20.9	-36.8	---	---	727.1	0.029	0.000	18.3	1	1
03/16/06	11:01 p	-22.8	-22.8	-22.8	---	---	18.3	ENE	0.30	20.0	-36.8	---	---	727.1	0.029	0.000	18.3	1	1
03/16/06	11:02 p	-22.8	-22.8	-22.8	---	---	19.1	ENE	0.32	21.7	-37.1	---	---	727.1	0.029	0.000	18.3	1	1
03/16/06	11:03 p	-22.8	-22.8	-22.8	---	---	19.1	ENE	0.32	21.7	-37.1	---	---	727.0	0.029	0.000	18.3	1	1
03/16/06	11:04 p	-22.8	-22.8	-22.8	---	---	20.0	ENE	0.33	22.6	-37.3	---	---	727.1	0.029	0.000	18.3	1	1
03/16/06	11:05 p	-22.8	-22.8	-22.8	---	---	16.5	ENE	0.28	18.3	-36.2	---	---	727.2	0.029	0.000	18.3	1	1
03/16/06	11:06 p	-22.8	-22.8	-22.8	---	---	18.3	ENE	0.30	20.0	-36.8	---	---	727.1	0.029	0.000	18.3	1	1
03/16/06	11:07 p	-22.8	-22.8	-22.8	---	---	19.1	ENE	0.32	20.9	-37.1	---	---	727.0	0.029	0.000	18.3	1	1
03/16/06	11:08 p	-22.8	-22.8	-22.8	---	---	20.0	NE	0.33	20.9	-37.4	---	---	727.0	0.029	0.000	18.3	1	1
03/16/06	11:09 p	-22.8	-22.8	-22.8	---	---	18.3	NE	0.30	20.0	-36.8	---	---	727.1	0.029	0.000	18.3	1	1
03/16/06	11:10 p	-22.8	-22.8	-22.8	---	---	19.1	ENE	0.32	20.9	-37.1	---	---	727.1	0.029	0.000	18.3	1	1
03/16/06	11:11 p	-22.8	-22.8	-22.8	---	---	19.1	ENE	0.32	20.9	-37.1	---	---	727.0	0.029	0.000	18.3	1	1
03/16/06	11:12 p	-22.8	-22.8	-22.8	---	---	18.3	ENE	0.30	20.0	-36.8	---	---	727.0	0.029	0.000	18.3	1	1
03/16/06	11:13 p	-22.8	-22.8	-22.8	---	---	19.1	ENE	0.32	20.0	-37.1	---	---	727.0	0.029	0.000	18.3	1	1
03/16/06	11:14 p	-22.8	-22.8	-22.8	---	---	19.1	ENE	0.32	20.9	-37.1	---	---	727.0	0.029	0.000	18.3	1	1
03/16/06	11:15 p	-22.8	-22.8	-22.8	---	---	20.0	ENE	0.33	21.7	-37.4	---	---	727.1	0.029	0.000	18.3	1	1
03/16/06	11:16 p	-22.8	-22.8	-22.9	---	---	18.3	ENE	0.30	20.0	-36.8	---	---	727.0	0.029	0.000	18.3	1	1
03/16/06	11:17 p	-22.9	-22.8	-22.9	---	---	19.1	ENE	0.32	20.9	-37.2	---	---	727.0	0.029	0.000	18.3	1	1
03/16/06	11:18 p	-22.9	-22.9	-22.9	---	---	18.3	ENE	0.30	20.0	-36.9	---	---	727.0	0.029	0.000	18.3	1	1
03/16/06	11:19 p	-22.9	-22.9	-22.9	---	---	17.4	ENE	0.29	20.0	-36.7	---	---	727.0	0.029	0.000	18.3	1	1
03/16/06	11:20 p	-22.9	-22.9	-22.9	---	---	19.1	ENE	0.32	20.9	-37.2	---	---	727.0	0.029	0.000	18.3	1	1
03/16/06	11:21 p	-22.9	-22.9	-22.9	---	---	19.1	ENE	0.32	20.9	-37.2	---	---	727.0	0.029	0.000	18.3	1	1
03/16/06	11:22 p	-22.9	-22.9	-22.9	---	---	18.3	ENE	0.30	20.0	-36.9	---	---	727.0	0.029	0.000	18.3	1	1
03/16/06	11:23 p	-22.9	-22.9	-22.9	---	---	19.1	ENE	0.32	20.0	-37.2	---	---	726.9	0.029	0.000	18.3	1	1
03/16/06	11:24 p	-22.9	-22.9	-22.9	---	---	18.3	ENE	0.30	20.0	-36.9	---	---	727.0	0.029	0.000	18.3	1	1
03/16/06	11:25 p	-22.9	-22.9	-22.9	---	---	19.1	ENE	0.32	20.0	-37.2	---	---	726.9	0.029	0.000	18.3	1	1
03/16/06	11:26 p	-22.9	-22.9	-22.9	---	---	18.3	ENE	0.30	19.1	-37.0	---	---	727.0	0.029	0.000	18.3	1	1
03/16/06	11:27 p	-22.9	-22.9	-22.9	---	---	17.4	ENE	0.29	18.3	-36.7	---	---	726.9	0.029	0.000	18.3	1	1
03/16/06	11:28 p	-22.9	-22.9	-22.9	---	---	18.3	ENE	0.30	19.1	-37.0	---	---	726.9	0.029	0.000	18.3	1	1
03/16/06	11:29 p	-22.9	-22.9	-22.9	---	---	18.3	ENE	0.30	20.0	-37.0	---	---	727.0	0.029	0.000	18.3	1	1
03/16/06	11:30 p	-22.9	-22.9	-22.9	---	---	19.1	ENE	0.32	21.7	-37.3	---	---	726.9	0.029	0.000	18.3	1	1
03/16/06	11:31 p	-22.9	-22.9	-22.9	---	---	18.3	ENE	0.30	20.0	-37.0	---	---	726.9	0.029	0.000	18.3	1	1
03/16/06	11:32 p	-22.9	-22.9	-22.9	---	---	19.1	ENE	0.32	20.9	-37.3	---	---	726.9	0.029	0.000	18.3	1	1
03/16/06	11:33 p	-22.9	-22.9	-22.9	---	---	18.3	ENE	0.30	20.0	-37.0	---	---	726.9	0.029	0.000	18.3	1	1
03/16/06	11:34 p	-22.9	-22.9	-22.9	---	---	18.3	ENE	0.30	20.0	-37.0	---	---	726.9	0.029	0.000	18.3	1	1
03/16/06	11:35 p	-22.9	-22.9	-22.9	---	---	19.1	ENE	0.32	20.9	-37.3	---	---	726.9	0.029	0.000	18.3	1	1
03/16/06	11:36 p	-22.9	-22.9	-22.9	---	---	19.1	ENE	0.32	20.9	-37.3	---	---	727.0	0.029	0.000	18.3	1	1
03/16/06	11:37 p	-22.9	-22.9	-22.9	---	---	16.5	ENE	0.28	19.1	-36.4	---	---	726.9	0.029	0.000	18.3	1	1
03/16/06	11:38 p	-22.9	-22.9	-22.9	---	---	18.3	ENE	0.30	20.0	-37.0	---	---	726.8	0.029	0.000	18.3	1	1
03/16/06	11:39 p	-22.9	-22.9	-22.9	---	---	20.0	ENE	0.33	20.9	-37.5	---	---	726.9	0.029	0.000	18.3	1	1
03/16/06	11:40 p	-22.9	-22.9	-22.9	---	---	20.0	ENE	0.33	20.9	-37.5	---	---	726.9	0.029	0.000	18.3	1	1
03/16/06	11:41 p	-22.9	-22.9	-22.9	---	---	20.0	ENE	0.33	20.9	-37.5	---	---	726.8	0.029	0.000	18.3	1	1
03/16/06	11:42 p	-22.9	-22.9	-22.9	---	---	17.4	ENE	0.29	20.0	-36.7	---	---	726.8	0.029	0.000	18.3	1	1
03/16/06	11:43 p	-22.9	-22.9	-22.9	---	---	19.1	ENE	0.32	21.7	-37.3	---	---	726.8	0.029	0.000	18.3	1	1
03/16/06	11:44 p	-22.9	-22.9	-22.9	---	---	20.0	ENE	0.33	21.7	-37.5	---	---	726.8	0.029	0.000	18.3	1	1
03/16/06	11:45 p	-22.9	-22.9	-22.9	---	---	20.0	ENE	0.33	21.7	-37.5	---	---	726.7	0.029	0.000	18.3	1	1
03/16/06	11:46 p	-22.9	-22.9	-22.9	---	---	19.1	ENE	0.32	22.6	-37.3	---	---	726.9	0.029	0.000	18.3	1	1
03/16/06	11:47 p	-22.9	-22.9	-22.9	---	---	19.1	ENE	0.32	20.9	-37.3	---	---	726.9	0.029	0.000	18.3	1	1
03/16/06	11:48 p	-22.9	-22.9	-22.9	---	---	19.1	ENE	0.32	21.7	-37.3	---	---	726.8	0.029	0.000	18.3	1	1
03/16/06	11:49 p	-22.9	-22.9	-22.9	---	---	20.0	ENE	0.33	20.9	-37.5	---	---	726.8	0.029	0.000	18.3	1	1
03/16/06	11:50 p	-22.9	-22.9	-22.9	---	---	19.1	ENE	0.32	20.9	-37.3	---	---	726.8	0.029	0.000	18.3	1	1
03/16/06	11:51 p	-22.9	-22.9	-22.9	---	---	19.1	ENE	0.32	21.7	-37.3	---	---	726.8	0.029	0.000	18.3	1	1
03/16/06	11:52 p	-22.9	-22.9	-22.9	---	---	19.1	ENE	0.32	21.7	-37.2	---	---	726.7	0.029	0.000	18.3	1	1
03/16/06	11:53 p	-22.9	-22.9	-22.9	---	---	19.1	ENE	0.32	21.7	-37.2	---	---	726.8	0.029	0.000	18.3	1	1
03/16/06	11:54 p	-22.9	-22.9	-22.9	---	---	19.1	ENE	0.32	21.7	-37.2	---	---	726.8	0.029	0.000	18.3	1	1
03/16/06	11:55 p	-22.9	-22.9	-22.9	---	---	20.0	ENE	0.33	20.9	-37.4	---	---	726.8	0.029	0.000	18.3	1	1
03/16/06	11:56 p	-22.9	-22.9	-22.9	---	---	20.9	ENE	0.35	23.5	-37.7	---	---	726.8	0.029	0.000	18.3	1	1
03/16/06	11:57 p	-22.9	-22.9	-22.9	---	---	20.0	ENE	0.33	23.5	-37.4	---	---	726.7	0.029	0.000	18.3	1	1
03/16/06	11:58 p	-22.9	-22.9	-22.9	---	---	21.7	ENE	0.36	23.5	-37.9	---	---	726.7	0.029	0.000	18.4	1	1
03/16/06	11:59 p	-22.8	-22.8	-22.9	---	---	20.0	ENE	0.33	22.6	-37.4	---	---	726.7	0.029	0.000	18.4	1	1
03/17/06	12:00 a	-22.8	-22.8	-22.9	---	---	20.9	ENE	0.35	24.3	-37.6	---	---	726.7	0.029	0.000	18.4	1	1
03/17/06	12:01 a	-22.8	-22.8	-22.8	---	---	21.7	ENE	0.36	24.3	-37.9	---	---	726.7	0.029	0.000	18.4	1	1
03/17/06	12:02 a	-22.8	-22.8	-22.8	---	---	20.9	E	0.35	23.5	-37.6	---	---	726.7	0.029	0.000	18.4	1	1
03/17/06	12:03 a	-22.8	-22.8	-22.8	---	---	22.6	ENE	0.38	23.5	-38.1	---	---	726.7	0.029	0.000	18.4	1	1
03/17/06	12:04 a	-22.8	-22.8	-22.8	---	---	21.7	ENE	0.36	24.3	-37.8	---	---	726.7	0.029	0.000	18.4	1	1
03/17/06	12:05 a	-22.8	-22.8	-22.8	---	---	22.6	ENE	0.38	25.2	-38.0	---	---	726.7	0.029	0.000	18.4	1	1
03/17/06	12:06 a	-22.8	-22.8	-22.8	---	---	21.7	ENE	0.36	24.3	-37.8	---	---	726.7	0.029	0.000	18.4	1	1
03/17/06	12:07 a	-22.8	-22.8	-22.8	---	---	21.7	ENE	0.36	23.5	-37.8	---	---	726.8	0.029	0.000	18.4	1	1
03/17/06	12:08 a	-22.8	-22.7	-22.8	---	---	20.9	ENE	0.35	21.7	-37.6	---	---	726.7	0.029	0.000	18.4	1	1
03/17/06	12:09 a	-22.8	-22.7	-22.8	---	---	20.9	ENE	0.35	23.5	-37.6	---	---	726.7	0.029	0.000	18.4	1	1
03/17/06	12:10 a	-22.7	-22.7	-22.7	---	---	21.7	ENE	0.36	25.2	-37.7	---	---	726.7	0.029	0.000	18.4	1	1
03/17/06	12:11 a	-22.7	-22.7	-22.8	---	---	21.7	ENE	0.36	25.2	-37.7	---	---	726.7	0.029	0.000	18.4	1	1
03/17/06	12:12 a	-22.7	-22.7	-22.7	---	---	19.1	ENE	0.32	22.6	-37.0	---	---	726.7	0.029	0.000	18.3	1	1
03/17/06	12:13 a	-22.7	-22.7	-22.7	---	---	21.7	ENE	0.36	23.5	-37.7	---	---	726.6	0.029	0.000	18.3	1	1
03/17/06	12:14 a	-22.7	-22.7	-22.7	---	---	22.6	ENE	0.38	24.3	-37.9	---	---	726.6	0.028	0.000	18.3	1	1
03/17/06	12:15 a	-22.7	-22.7	-22.7	---	---	23.5	ENE	0.39	25.2	-38.1	---	---	726.6	0.028	0.000	18.3	1	1
03/17/06	12:16 a	-22.7	-22.6	-22.7	---	---	21.7	ENE	0.36	23.5	-37.7	---	---	726.6	0.028	0.000	18.3	1	1
03/17/06	12:17 a	-22.7	-22.6	-22.7	---	---	23.5	ENE	0.39	25.2	-38.1	---	---	726.5	0.028	0.000	18.3	1	1
03/17/06	12:18 a	-22.7	-22.6	-22.7	---	---	23.5	ENE	0.39	26.1	-38.1	---	---	726.6	0.028	0.000	18.3	1	1
03/17/06	12:19 a	-22.6	-22.6	-22.6	---	---	22.6	ENE	0.38	25.2	-37.8	---	---	726.6	0.028	0.000	18.3	1	1
03/17/06	12:20 a	-22.6	-22.6	-22.6	---	---	22.6	ENE	0.38	24.3	-37.7	---	---	726.6	0.028	0.000	18.3	1	1
03/17/06	12:21 a	-22.6	-22.6	-22.6	---	---	21.7	ENE	0.36	23.5	-37.6	---	---	726.6	0.028	0.000	18.3	1	1
03/17/06	12:22 a	-22.6	-22.6	-22.6	---	---	20.9	ENE	0.35	23.5	-37.3	---	---	726.7	0.028	0.000	18.3	1	1
03/17/06	12:23 a	-22.6	-22.6	-22.6	---	---	22.6	ENE	0.38	24.3	-37.7	---	---	726.6	0.028	0.000	18.3	1	1
03/17/06	12:24 a	-22.6	-22.5	-22.6	---	---	20.0	ENE	0.33	23.5	-37.0	---	---	726.7	0.028	0.000	18.3	1	1
03/17/06	12:25 a	-22.5	-22.5	-22.6	---	---	20.9	ENE	0.35	23.5	-37.2	---	---	726.6	0.028	0.000	18.3	1	1
03/17/06	12:26 a	-22.5	-22.5	-22.5	---	---	21.7	ENE	0.36	24.3	-37.4	---	---	726.6	0.028	0.000	18.3	1	1
03/17/06	12:27 a	-22.5	-22.4	-22.5	---	---	22.6	ENE	0.38	23.5	-37.7	---	---	726.6	0.028	0.000	18.3	1	1
03/17/06	12:28 a	-22.4	-22.4	-22.4	---	---	21.7	ENE	0.36	24.3	-37.3	---	---	726.6	0.028	0.000	18.3	1	1
03/17/06	12:29 a	-22.4	-22.4	-22.5	---	---	22.6	ENE	0.38	23.5	-37.6	---	---	726.6	0.028	0.000	18.3	1	1
03/17/06	12:30 a	-22.4	-22.4	-22.4	---	---	21.7	ENE	0.36	23.5	-37.3	---	---	726.6	0.028	0.000	18.3	1	1
03/17/06	12:31 a	-22.4	-22.4	-22.4	---	---	20.9	ENE	0.35	23.5	-37.1	---	---	726.6	0.028	0.000	18.3	1	1
03/17/06	12:32 a	-22.4	-22.4	-22.4	---	---	21.7	ENE	0.36	22.6	-37.3	---	---	726.7	0.028	0.000	18.3	1	1
03/17/06	12:33 a	-22.4	-22.4	-22.4	---	---	21.7	ENE	0.36	24.3	-37.3	---	---	726.5	0.028	0.000	18.3	1	1
03/17/06	12:34 a	-22.4	-22.3	-22.4	---	---	21.7	ENE	0.36	24.3	-37.3	---	---	726.6	0.028	0.000	18.3	1	1
03/17/06	12:35 a	-22.3	-22.3	-22.4	---	---	21.7	ENE	0.36	24.3	-37.2	---	---	726.6	0.028	0.000	18.3	1	1
03/17/06	12:36 a	-22.3	-22.3	-22.4	---	---	21.7	ENE	0.36	23.5	-37.2	---	---	726.6	0.028	0.000	18.3	1	1
03/17/06	12:37 a	-22.3	-22.3	-22.4	---	---	22.6	ENE	0.38	24.3	-37.4	---	---	726.7	0.028	0.000	18.3	1	1
03/17/06	12:38 a	-22.3	-22.3	-22.3	---	---	21.7	ENE	0.36	23.5	-37.2	---	---	726.7	0.028	0.000	18.3	1	1
03/17/06	12:39 a	-22.3	-22.3	-22.3	---	---	21.7	ENE	0.36	24.3	-37.2	---	---	726.7	0.028	0.000	18.3	1	1
03/17/06	12:40 a	-22.3	-22.3	-22.3	---	---	21.7	ENE	0.36	24.3	-37.2	---	---	726.5	0.028	0.000	18.3	1	1
03/17/06	12:41 a	-22.3	-22.3	-22.3	---	---	22.6	ENE	0.38	23.5	-37.4	---	---	726.5	0.028	0.000	18.3	1	1
03/17/06	12:42 a	-22.3	-22.3	-22.3	---	---	21.7	ENE	0.36	23.5	-37.1	---	---	726.5	0.028	0.000	18.3	1	1
03/17/06	12:43 a	-22.3	-22.3	-22.3	---	---	21.7	ENE	0.36	23.5	-37.1	---	---	726.4	0.028	0.000	18.3	1	1
03/17/06	12:44 a	-22.2	-22.2	-22.3	---	---	20.0	ENE	0.33	21.7	-36.6	---	---	726.5	0.028	0.000	18.3	1	1
03/17/06	12:45 a	-22.2	-22.2	-22.2	---	---	20.9	E	0.35	23.5	-36.8	---	---	726.5	0.028	0.000	18.3	1	1
03/17/06	12:46 a	-22.2	-22.2	-22.2	---	---	20.9	E	0.35	24.3	-36.8	---	---	726.5	0.028	0.000	18.3	1	1
03/17/06	12:47 a	-22.2	-22.2	-22.2	---	---	20.9	ENE	0.35	23.5	-36.8	---	---	726.5	0.028	0.000	18.3	1	1
03/17/06	12:48 a	-22.2	-22.2	-22.2	---	---	20.9	ENE	0.35	22.6	-36.8	---	---	726.5	0.028	0.000	18.3	1	1
03/17/06	12:49 a	-22.2	-22.2	-22.2	---	---	20.0	ENE	0.33	23.5	-36.5	---	---	726.5	0.028	0.000	18.3	1	1
03/17/06	12:50 a	-22.2	-22.2	-22.2	---	---	21.7	ENE	0.36	23.5	-37.0	---	---	726.5	0.028	0.000	18.3	1	1
03/17/06	12:51 a	-22.2	-22.2	-22.2	---	---	20.9	ENE	0.35	22.6	-36.7	---	---	726.5	0.028	0.000	18.3	1	1
03/17/06	12:52 a	-22.2	-22.2	-22.2	---	---	20.0	ENE	0.33	22.6	-36.5	---	---	726.5	0.028	0.000	18.3	1	1
03/17/06	12:53 a	-22.2	-22.1	-22.2	---	---	20.9	E	0.35	24.3	-36.7	---	---	726.5	0.028	0.000	18.3	1	1
03/17/06	12:54 a	-22.1	-22.1	-22.2	---	---	20.0	E	0.33	22.6	-36.4	---	---	726.4	0.028	0.000	18.3	1	1
03/17/06	12:55 a	-22.1	-22.1	-22.1	---	---	22.6	ENE	0.38	24.3	-37.1	---	---	726.4	0.028	0.000	18.3	1	1
03/17/06	12:56 a	-22.1	-22.1	-22.1	---	---	21.7	ENE	0.36	23.5	-36.9	---	---	726.5	0.028	0.000	18.3	1	1
03/17/06	12:57 a	-22.1	-22.1	-22.1	---	---	20.9	ENE	0.35	22.6	-36.7	---	---	726.5	0.028	0.000	18.3	1	1
03/17/06	12:58 a	-22.1	-22.1	-22.1	---	---	21.7	ENE	0.36	23.5	-36.9	---	---	726.4	0.028	0.000	18.3	1	1
03/17/06	12:59 a	-22.1	-22.1	-22.1	---	---	20.0	ENE	0.33	23.5	-36.4	---	---	726.4	0.028	0.000	18.3	1	1
03/17/06	1:00 a	-22.1	-22.1	-22.1	---	---	20.9	E	0.35	23.5	-36.6	---	---	726.4	0.028	0.000	18.3	1	1
03/17/06	1:01 a	-22.1	-22.1	-22.1	---	---	20.9	E	0.35	24.3	-36.6	---	---	726.4	0.028	0.000	18.3	1	1
03/17/06	1:02 a	-22.0	-22.0	-22.1	---	---	20.9	E	0.35	23.5	-36.5	---	---	726.4	0.028	0.000	18.3	1	1
03/17/06	1:03 a	-22.0	-22.0	-22.0	---	---	22.6	ENE	0.38	24.3	-37.0	---	---	726.4	0.028	0.000	18.3	1	1
03/17/06	1:04 a	-22.0	-22.0	-22.0	---	---	21.7	ENE	0.36	25.2	-36.8	---	---	726.3	0.028	0.000	18.3	1	1
03/17/06	1:05 a	-22.0	-22.0	-22.0	---	---	23.5	ENE	0.39	24.3	-37.2	---	---	726.4	0.028	0.000	18.3	1	1
03/17/06	1:06 a	-21.9	-21.9	-22.0	---	---	20.0	ENE	0.33	23.5	-36.2	---	---	726.4	0.028	0.000	18.3	1	1
03/17/06	1:07 a	-21.9	-21.9	-21.9	---	---	20.9	ENE	0.35	25.2	-36.4	---	---	726.4	0.028	0.000	18.3	1	1
03/17/06	1:08 a	-21.9	-21.9	-22.0	---	---	21.7	ENE	0.36	24.3	-36.7	---	---	726.4	0.028	0.000	18.3	1	1
03/17/06	1:09 a	-21.9	-21.9	-21.9	---	---	20.9	E	0.35	23.5	-36.4	---	---	726.5	0.028	0.000	18.3	1	1
03/17/06	1:10 a	-21.9	-21.9	-21.9	---	---	22.6	ENE	0.38	25.2	-36.9	---	---	726.4	0.028	0.000	18.3	1	1
03/17/06	1:11 a	-21.9	-21.9	-21.9	---	---	21.7	ENE	0.36	23.5	-36.7	---	---	726.4	0.028	0.000	18.3	1	1
03/17/06	1:12 a	-21.9	-21.9	-21.9	---	---	22.6	ENE	0.38	24.3	-36.8	---	---	726.3	0.028	0.000	18.3	1	1
03/17/06	1:13 a	-21.9	-21.9	-21.9	---	---	22.6	ENE	0.38	25.2	-36.9	---	---	726.3	0.028	0.000	18.3	1	1
03/17/06	1:14 a	-21.9	-21.9	-21.9	---	---	21.7	ENE	0.36	23.5	-36.6	---	---	726.3	0.028	0.000	18.3	1	1
03/17/06	1:15 a	-21.9	-21.9	-21.9	---	---	20.9	E	0.35	22.6	-36.4	---	---	726.5	0.028	0.000	18.3	1	1
03/17/06	1:16 a	-21.9	-21.9	-21.9	---	---	20.9	E	0.35	23.5	-36.4	---	---	726.4	0.028	0.000	18.3	1	1
03/17/06	1:17 a	-21.9	-21.9	-21.9	---	---	21.7	E	0.36	24.3	-36.6	---	---	726.4	0.028	0.000	18.3	1	1
03/17/06	1:18 a	-21.9	-21.8	-21.9	---	---	19.1	ENE	0.32	21.7	-35.9	---	---	726.4	0.028	0.000	18.3	1	1
03/17/06	1:19 a	-21.8	-21.8	-21.9	---	---	22.6	ENE	0.38	26.1	-36.8	---	---	726.3	0.028	0.000	18.3	1	1
03/17/06	1:20 a	-21.8	-21.8	-21.9	---	---	20.9	E	0.35	24.3	-36.3	---	---	726.4	0.028	0.000	18.3	1	1
03/17/06	1:21 a	-21.8	-21.8	-21.8	---	---	19.1	E	0.32	22.6	-35.8	---	---	726.4	0.028	0.000	18.3	1	1
03/17/06	1:22 a	-21.8	-21.8	-21.8	---	---	22.6	E	0.38	25.2	-36.8	---	---	726.3	0.028	0.000	18.3	1	1
03/17/06	1:23 a	-21.8	-21.8	-21.8	---	---	20.9	E	0.35	22.6	-36.3	---	---	726.2	0.028	0.000	18.3	1	1
03/17/06	1:24 a	-21.8	-21.8	-21.8	---	---	23.5	E	0.39	27.0	-37.0	---	---	726.3	0.028	0.000	18.3	1	1
03/17/06	1:25 a	-21.8	-21.8	-21.8	---	---	21.7	E	0.36	25.2	-36.6	---	---	726.4	0.028	0.000	18.3	1	1
03/17/06	1:26 a	-21.8	-21.8	-21.8	---	---	21.7	E	0.36	24.3	-36.6	---	---	726.2	0.028	0.000	18.3	1	1
03/17/06	1:27 a	-21.8	-21.8	-21.8	---	---	20.0	E	0.33	23.5	-36.1	---	---	726.3	0.028	0.000	18.3	1	1
03/17/06	1:28 a	-21.8	-21.8	-21.8	---	---	20.0	E	0.33	22.6	-36.1	---	---	726.4	0.028	0.000	18.3	1	1
03/17/06	1:29 a	-21.8	-21.8	-21.8	---	---	20.0	E	0.33	23.5	-36.1	---	---	726.3	0.028	0.000	18.3	1	1
03/17/06	1:30 a	-21.8	-21.8	-21.8	---	---	21.7	ENE	0.36	24.3	-36.6	---	---	726.3	0.028	0.000	18.3	1	1
03/17/06	1:31 a	-21.8	-21.8	-21.8	---	---	21.7	E	0.36	24.3	-36.6	---	---	726.4	0.028	0.000	18.3	1	1
03/17/06	1:32 a	-21.8	-21.8	-21.8	---	---	21.7	ENE	0.36	24.3	-36.4	---	---	726.3	0.028	0.000	18.3	1	1
03/17/06	1:33 a	-21.8	-21.8	-21.8	---	---	20.0	E	0.33	23.5	-36.0	---	---	726.4	0.028	0.000	18.3	1	1
03/17/06	1:34 a	-21.8	-21.8	-21.8	---	---	20.9	E	0.35	23.5	-36.2	---	---	726.4	0.028	0.000	18.3	1	1
03/17/06	1:35 a	-21.8	-21.8	-21.8	---	---	18.3	E	0.30	21.7	-35.6	---	---	726.4	0.028	0.000	18.3	1	1
03/17/06	1:36 a	-21.8	-21.8	-21.8	---	---	20.9	E	0.35	24.3	-36.2	---	---	726.4	0.028	0.000	18.3	1	1
03/17/06	1:37 a	-21.8	-21.8	-21.8	---	---	20.9	E	0.35	24.3	-36.2	---	---	726.3	0.028	0.000	18.3	1	1
03/17/06	1:38 a	-21.8	-21.8	-21.8	---	---	20.0	E	0.33	22.6	-36.0	---	---	726.3	0.028	0.000	18.3	1	1
03/17/06	1:39 a	-21.8	-21.8	-21.8	---	---	20.9	E	0.35	23.5	-36.2	---	---	726.3	0.028	0.000	18.3	1	1
03/17/06	1:40 a	-21.8	-21.7	-21.8	---	---	22.6	ENE	0.38	24.3	-36.7	---	---	726.3	0.028	0.000	18.3	1	1
03/17/06	1:41 a	-21.8	-21.7	-21.8	---	---	20.9	E	0.35	24.3	-36.2	---	---	726.3	0.028	0.000	18.3	1	1
03/17/06	1:42 a	-21.8	-21.7	-21.8	---	---	21.7	E	0.36	24.3	-36.4	---	---	726.3	0.028	0.000	18.3	1	1
03/17/06	1:43 a	-21.8	-21.8	-21.8	---	---	20.0	E	0.33	23.5	-36.0	---	---	726.4	0.028	0.000	18.3	1	1
03/17/06	1:44 a	-21.8	-21.8	-21.8	---	---	22.6	ENE	0.38	26.1	-36.7	---	---	726.4	0.028	0.000	18.3	1	1
03/17/06	1:45 a	-21.7	-21.7	-21.8	---	---	21.7	ENE	0.36	25.2	-36.4	---	---	726.3	0.028	0.000	18.3	1	1
03/17/06	1:46 a	-21.7	-21.7	-21.8	---	---	20.9	E	0.35	23.5	-36.2	---	---	726.3	0.028	0.000	18.3	1	1
03/17/06	1:47 a	-21.8	-21.7	-21.8	---	---	19.1	E	0.32	22.6	-35.7	---	---	726.3	0.028	0.000	18.3	1	1
03/17/06	1:48 a	-21.8	-21.8	-21.8	---	---	20.0	ENE	0.33	22.6	-36.0	---	---	726.3	0.028	0.000	18.3	1	1
03/17/06	1:49 a	-21.8	-21.7	-21.8	---	---	21.7	ENE	0.36	23.5	-36.4	---	---	726.4	0.028	0.000	18.3	1	1
03/17/06	1:50 a	-21.8	-21.8	-21.8	---	---	22.6	ENE	0.38	24.3	-36.7	---	---	726.3	0.028	0.000	18.3	1	1
03/17/06	1:51 a	-21.8	-21.7	-21.8	---	---	21.7	ENE	0.36	24.3	-36.4	---	---	726.3	0.028	0.000	18.2	1	1
03/17/06	1:52 a	-21.8	-21.8	-21.8	---	---	21.7	ENE	0.36	24.3	-36.4	---	---	726.4	0.028	0.000	18.2	1	1
03/17/06	1:53 a	-21.8	-21.8	-21.8	---	---	20.0	E	0.33	22.6	-36.0	---	---	726.3	0.028	0.000	18.2	1	1
03/17/06	1:54 a	-21.8	-21.8	-21.8	---	---	20.0	E	0.33	22.6	-36.0	---	---	726.3	0.028	0.000	18.2	1	1
03/17/06	1:55 a	-21.7	-21.7	-21.7	---	---	21.7	E	0.36	24.3	-36.4	---	---	726.2	0.028	0.000	18.2	1	1
03/17/06	1:56 a	-21.8	-21.7	-21.8	---	---	21.7	ENE	0.36	24.3	-36.4	---	---	726.3	0.028	0.000	18.2	1	1
03/17/06	1:57 a	-21.8	-21.8	-21.8	---	---	19.1	E	0.32	23.5	-35.7	---	---	726.3	0.028	0.000	18.2	1	1
03/17/06	1:58 a	-21.8	-21.7	-21.8	---	---	22.6	ENE	0.38	24.3	-36.7	---	---	726.3	0.028	0.000	18.2	1	1
03/17/06	1:59 a	-21.8	-21.8	-21.8	---	---	22.6	ENE	0.38	24.3	-36.7	---	---	726.3	0.028	0.000	18.2	1	1
03/17/06	2:00 a	-21.8	-21.8	-21.8	---	---	22.6	ENE	0.38	24.3	-36.7	---	---	726.4	0.028	0.000	18.2	1	1
03/17/06	2:01 a	-21.8	-21.8	-21.8	---	---	21.7	ENE	0.36	23.5	-36.4	---	---	726.4	0.028	0.000	18.2	1	1
03/17/06	2:02 a	-21.8	-21.8	-21.8	---	---	19.1	E	0.32	22.6	-35.7	---	---	726.4	0.028	0.000	18.2	1	1
03/17/06	2:03 a	-21.8	-21.8	-21.8	---	---	20.0	ENE	0.33	23.5	-36.1	---	---	726.3	0.028	0.000	18.2	1	1
03/17/06	2:04 a	-21.8	-21.8	-21.8	---	---	19.1	E	0.32	24.3	-35.7	---	---	726.3	0.028	0.000	18.2	1	1
03/17/06	2:05 a	-21.8	-21.8	-21.8	---	---	20.0	E	0.33	22.6	-36.1	---	---	726.2	0.028	0.000	18.2	1	1
03/17/06	2:06 a	-21.8	-21.8	-21.8	---	---	21.7	E	0.36	24.3	-36.6	---	---	726.2	0.028	0.000	18.2	1	1
03/17/06	2:07 a	-21.8	-21.8	-21.8	---	---	20.0	E	0.33	22.6	-36.1	---	---	726.2	0.028	0.000	18.2	1	1
03/17/06	2:08 a	-21.8	-21.8	-21.8	---	---	20.9	E	0.35	23.5	-36.3	---	---	726.2	0.028	0.000	18.2	1	1
03/17/06	2:09 a	-21.8	-21.8	-21.8	---	---	20.0	ENE	0.33	23.5	-36.1	---	---	726.3	0.028	0.000	18.2	1	1
03/17/06	2:10 a	-21.8	-21.8	-21.9	---	---	20.0	E	0.33	24.3	-36.1	---	---	726.3	0.028	0.000	18.2	1	1
03/17/06	2:11 a	-21.9	-21.8	-21.9	---	---	20.9	E	0.35	24.3	-36.4	---	---	726.2	0.028	0.000	18.2	1	1
03/17/06	2:12 a	-21.9	-21.9	-21.9	---	---	20.0	E	0.33	25.2	-36.1	---	---	726.3	0.028	0.000	18.2	1	1
03/17/06	2:13 a	-21.9	-21.9	-21.9	---	---	22.6	ENE	0.38	25.2	-36.8	---	---	726.2	0.028	0.000	18.2	1	1
03/17/06	2:14 a	-21.9	-21.9	-21.9	---	---	20.0	ENE	0.33	22.6	-36.1	---	---	726.3	0.028	0.000	18.2	1	1
03/17/06	2:15 a	-21.9	-21.9	-21.9	---	---	20.9	E	0.35	25.2	-36.4	---	---	726.2	0.028	0.000	18.2	1	1
03/17/06	2:16 a	-21.9	-21.9	-21.9	---	---	22.6	ENE	0.38	25.2	-36.9	---	---	726.2	0.028	0.000	18.2	1	1
03/17/06	2:17 a	-21.9	-21.9	-21.9	---	---	20.9	ENE	0.35	25.2	-36.4	---	---	726.1	0.028	0.000	18.2	1	1
03/17/06	2:18 a	-21.9	-21.9	-21.9	---	---	21.7	ENE	0.36	24.3	-36.7	---	---	726.3	0.028	0.000	18.2	1	1
03/17/06	2:19 a	-21.9	-21.9	-21.9	---	---	21.7	ENE	0.36	25.2	-36.7	---	---	726.2	0.028	0.000	18.2	1	1
03/17/06	2:20 a	-21.9	-21.9	-21.9	---	---	20.9	E	0.35	23.5	-36.4	---	---	726.2	0.028	0.000	18.2	1	1
03/17/06	2:21 a	-22.0	-21.9	-22.0	---	---	20.9	E	0.35	24.3	-36.5	---	---	726.1	0.028	0.000	18.2	1	1
03/17/06	2:22 a	-21.9	-21.9	-21.9	---	---	20.9	ENE	0.35	23.5	-36.4	---	---	726.1	0.028	0.000	18.2	1	1
03/17/06	2:23 a	-21.9	-21.9	-22.0	---	---	20.9	ENE	0.35	21.7	-36.4	---	---	726.2	0.028	0.000	18.2	1	1
03/17/06	2:24 a	-22.0	-22.0	-22.0	---	---	21.7	E	0.36	24.3	-36.8	---	---	726.2	0.028	0.000	18.2	1	1
03/17/06	2:25 a	-22.0	-22.0	-22.0	---	---	21.7	ENE	0.36	24.3	-36.8	---	---	726.1	0.028	0.000	18.2	1	1
03/17/06	2:26 a	-22.0	-22.0	-22.0	---	---	20.9	ENE	0.35	23.5	-36.5	---	---	726.1	0.028	0.000	18.2	1	1
03/17/06	2:27 a	-22.1	-22.0	-22.1	---	---	20.0	ENE	0.33	23.5	-36.3	---	---	726.2	0.028	0.000	18.2	1	1
03/17/06	2:28 a	-22.1	-22.0	-22.1	---	---	19.1	ENE	0.32	21.7	-36.1	---	---	726.1	0.028	0.000	18.2	1	1
03/17/06	2:29 a	-22.1	-22.1	-22.1	---	---	21.7	ENE	0.36	23.5	-36.8	---	---	726.1	0.028	0.000	18.2	1	1
03/17/06	2:30 a	-22.1	-22.1	-22.1	---	---	20.0	ENE	0.33	21.7	-36.3	---	---	726.1	0.028	0.000	18.2	1	1
03/17/06	2:31 a	-22.1	-22.1	-22.1	---	---	19.1	ENE	0.32	21.7	-36.1	---	---	726.2	0.028	0.000	18.2	1	1
03/17/06	2:32 a	-22.1	-22.1	-22.1	---	---	18.3	E	0.30	21.7	-35.9	---	---	726.1	0.028	0.000	18.2	1	1
03/17/06	2:33 a	-22.1	-22.1	-22.1	---	---	20.0	ENE	0.33	22.6	-36.3	---	---	726.0	0.028	0.000	18.2	1	1
03/17/06	2:34 a	-22.1	-22.1	-22.1	---	---	20.9	ENE	0.35	24.3	-36.7	---	---	726.1	0.028	0.000	18.2	1	1
03/17/06	2:35 a	-22.1	-22.1	-22.1	---	---	20.9	ENE	0.35	23.5	-36.7	---	---	726.1	0.028	0.000	18.2	1	1
03/17/06	2:36 a	-22.1	-22.1	-22.1	---	---	19.1	E	0.32	22.6	-36.2	---	---	726.1	0.028	0.000	18.2	1	1
03/17/06	2:37 a	-22.1	-22.1	-22.1	---	---	20.9	E	0.35	23.5	-36.7	---	---	726.1	0.028	0.000	18.2	1	1
03/17/06	2:38 a	-22.1	-22.1	-22.1	---	---	21.7	E	0.36	24.3	-36.9	---	---	726.0	0.028	0.000	18.2	1	1
03/17/06	2:39 a	-22.1	-22.1	-22.1	---	---	20.9	ENE	0.35	22.6	-36.7	---	---	726.0	0.028	0.000	18.2	1	1
03/17/06	2:40 a	-22.1	-22.1	-22.1	---	---	19.1	ENE	0.32	21.7	-36.2	---	---	726.1	0.028	0.000	18.2	1	1
03/17/06	2:41 a	-22.1	-22.1	-22.2	---	---	20.0	ENE	0.33	21.7	-36.4	---	---	726.0	0.028	0.000	18.2	1	1
03/17/06	2:42 a	-22.2	-22.1	-22.2	---	---	21.7	ENE	0.36	24.3	-37.0	---	---	726.1	0.028	0.000	18.2	1	1
03/17/06	2:43 a	-22.2	-22.2	-22.2	---	---	20.0	ENE	0.33	21.7	-36.5	---	---	726.0	0.028	0.000	18.2	1	1
03/17/06	2:44 a	-22.2	-22.2	-22.2	---	---	19.1	E	0.32	20.9	-36.2	---	---	726.0	0.028	0.000	18.2	1	1
03/17/06	2:45 a	-22.2	-22.2	-22.2	---	---	20.9	ENE	0.35	23.5	-36.7	---	---	726.0	0.028	0.000	18.2	1	1
03/17/06	2:46 a	-22.2	-22.2	-22.2	---	---	20.9	E	0.35	23.5	-36.7	---	---	726.1	0.028	0.000	18.2	1	1
03/17/06	2:47 a	-22.2	-22.2	-22.2	---	---	20.9	ENE	0.35	23.5	-36.7	---	---	726.1	0.028	0.000	18.2	1	1
03/17/06	2:48 a	-22.2	-22.2	-22.2	---	---	20.9	E	0.35	23.5	-36.7	---	---	726.1	0.028	0.000	18.2	1	1
03/17/06	2:49 a	-22.2	-22.2	-22.2	---	---	20.9	ENE	0.35	24.3	-36.8	---	---	726.1	0.028	0.000	18.2	1	1
03/17/06	2:50 a	-22.2	-22.2	-22.2	---	---	20.0	E	0.33	22.6	-36.6	---	---	726.0	0.028	0.000	18.2	1	1
03/17/06	2:51 a	-22.2	-22.2	-22.3	---	---	20.9	ENE	0.35	23.5	-36.8	---	---	726.1	0.028	0.000	18.2	1	1
03/17/06	2:52 a	-22.3	-22.3	-22.3	---	---	20.0	ENE	0.33	21.7	-36.7	---	---	726.0	0.028	0.000	18.2	1	1
03/17/06	2:53 a	-22.3	-22.2	-22.3	---	---	20.9	ENE	0.35	23.5	-36.9	---	---	726.0	0.028	0.000	18.2	1	1
03/17/06	2:54 a	-22.3	-22.3	-22.3	---	---	22.6	ENE	0.38	24.3	-37.3	---	---	726.0	0.028	0.000	18.2	1	1
03/17/06	2:55 a	-22.3	-22.3	-22.3	---	---	20.9	ENE	0.35	23.5	-36.9	---	---	726.0	0.028	0.000	18.2	1	1
03/17/06	2:56 a	-22.3	-22.3	-22.3	---	---	21.7	ENE	0.36	23.5	-37.2	---	---	726.1	0.028	0.000	18.2	1	1
03/17/06	2:57 a	-22.3	-22.3	-22.3	---	---	21.7	ENE	0.36	23.5	-37.1	---	---	726.0	0.028	0.000	18.2	1	1
03/17/06	2:58 a	-22.3	-22.3	-22.3	---	---	21.7	ENE	0.36	23.5	-37.1	---	---	726.0	0.028	0.000	18.2	1	1
03/17/06	2:59 a	-22.3	-22.3	-22.3	---	---	20.9	ENE	0.35	23.5	-36.9	---	---	726.0	0.028	0.000	18.2	1	1
03/17/06	3:00 a	-22.3	-22.3	-22.3	---	---	20.0	ENE	0.33	22.6	-36.7	---	---	726.0	0.028	0.000	18.2	1	1
03/17/06	3:01 a	-22.3	-22.3	-22.3	---	---	20.9	ENE	0.35	21.7	-36.9	---	---	726.0	0.028	0.000	18.2	1	1
03/17/06	3:02 a	-22.3	-22.3	-22.3	---	---	20.0	ENE	0.33	23.5	-36.7	---	---	726.0	0.028	0.000	18.2	1	1
03/17/06	3:03 a	-22.3	-22.3	-22.4	---	---	20.0	ENE	0.33	22.6	-36.7	---	---	725.9	0.028	0.000	18.2	1	1
03/17/06	3:04 a	-22.4	-22.3	-22.4	---	---	20.9	ENE	0.35	22.6	-37.1	---	---	726.0	0.028	0.000	18.2	1	1
03/17/06	3:05 a	-22.4	-22.4	-22.4	---	---	20.9	ENE	0.35	22.6	-37.1	---	---	726.0	0.028	0.000	18.2	1	1
03/17/06	3:06 a	-22.4	-22.4	-22.4	---	---	19.1	ENE	0.32	21.7	-36.6	---	---	726.0	0.028	0.000	18.2	1	1
03/17/06	3:07 a	-22.4	-22.4	-22.4	---	---	20.9	ENE	0.35	22.6	-37.1	---	---	726.0	0.028	0.000	18.2	1	1
03/17/06	3:08 a	-22.4	-22.4	-22.4	---	---	20.9	ENE	0.35	22.6	-37.1	---	---	726.0	0.028	0.000	18.2	1	1
03/17/06	3:09 a	-22.4	-22.4	-22.4	---	---	20.0	ENE	0.33	22.6	-36.8	---	---	725.9	0.028	0.000	18.2	1	1
03/17/06	3:10 a	-22.4	-22.4	-22.4	---	---	21.7	ENE	0.36	23.5	-37.3	---	---	726.0	0.028	0.000	18.2	1	1
03/17/06	3:11 a	-22.4	-22.4	-22.4	---	---	20.9	ENE	0.35	22.6	-37.1	---	---	725.8	0.028	0.000	18.2	1	1
03/17/06	3:12 a	-22.4	-22.4	-22.4	---	---	20.9	ENE	0.35	22.6	-37.1	---	---	725.9	0.028	0.000	18.2	1	1
03/17/06	3:13 a	-22.4	-22.4	-22.5	---	---	20.0	ENE	0.33	22.6	-36.9	---	---	725.9	0.028	0.000	18.2	1	1
03/17/06	3:14 a	-22.5	-22.4	-22.5	---	---	20.9	ENE	0.35	23.5	-37.2	---	---	725.9	0.028	0.000	18.2	1	1
03/17/06	3:15 a	-22.5	-22.4	-22.5	---	---	20.0	ENE	0.33	22.6	-36.9	---	---	726.0	0.028	0.000	18.2	1	1
03/17/06	3:16 a	-22.5	-22.5	-22.5	---	---	20.0	E	0.33	23.5	-36.9	---	---	726.0	0.028	0.000	18.2	1	1
03/17/06	3:17 a	-22.5	-22.5	-22.5	---	---	20.0	E	0.33	22.6	-36.9	---	---	725.9	0.028	0.000	18.2	1	1
03/17/06	3:18 a	-22.5	-22.5	-22.5	---	---	20.9	ENE	0.35	23.5	-37.2	---	---	725.9	0.028	0.000	18.2	1	1
03/17/06	3:19 a	-22.6	-22.5	-22.6	---	---	20.0	E	0.33	22.6	-37.0	---	---	725.9	0.028	0.000	18.2	1	1
03/17/06	3:20 a	-22.6	-22.5	-22.6	---	---	19.1	E	0.32	20.9	-36.8	---	---	725.8	0.028	0.000	18.2	1	1
03/17/06	3:21 a	-22.6	-22.6	-22.6	---	---	20.9	ENE	0.35	22.6	-37.3	---	---	725.8	0.028	0.000	18.2	1	1
03/17/06	3:22 a	-22.6	-22.6	-22.6	---	---	20.0	ENE	0.33	22.6	-37.0	---	---	725.8	0.028	0.000	18.2	1	1
03/17/06	3:23 a	-22.6	-22.6	-22.6	---	---	19.1	ENE	0.32	21.7	-36.8	---	---	725.8	0.028	0.000	18.2	1	1
03/17/06	3:24 a	-22.6	-22.6	-22.6	---	---	19.1	E	0.32	21.7	-36.8	---	---	725.8	0.028	0.000	18.2	1	1
03/17/06	3:25 a	-22.6	-22.6	-22.6	---	---	20.9	ENE	0.35	22.6	-37.3	---	---	725.8	0.028	0.000	18.2	1	1
03/17/06	3:26 a	-22.6	-22.6	-22.6	---	---	19.1	E	0.32	21.7	-36.8	---	---	725.7	0.028	0.000	18.2	1	1
03/17/06	3:27 a	-22.6	-22.6	-22.6	---	---	21.7	ENE	0.36	23.5	-37.6	---	---	725.8	0.028	0.000	18.2	1	1
03/17/06	3:28 a	-22.6	-22.6	-22.6	---	---	20.9	ENE	0.35	22.6	-37.3	---	---	725.8	0.028	0.000	18.2	1	1
03/17/06	3:29 a	-22.6	-22.6	-22.6	---	---	20.9	ENE	0.35	21.7	-37.3	---	---	725.7	0.028	0.000	18.2	1	1
03/17/06	3:30 a	-22.6	-22.6	-22.6	---	---	20.9	ENE	0.35	22.6	-37.3	---	---	725.8	0.028	0.000	18.2	1	1
03/17/06	3:31 a	-22.6	-22.6	-22.6	---	---	20.9	ENE	0.35	21.7	-37.3	---	---	725.8	0.028	0.000	18.1	1	1
03/17/06	3:32 a	-22.6	-22.6	-22.6	---	---	19.1	E	0.32	21.7	-36.8	---	---	725.7	0.028	0.000	18.1	1	1
03/17/06	3:33 a	-22.6	-22.6	-22.6	---	---	19.1	ENE	0.32	23.5	-36.8	---	---	725.7	0.028	0.000	18.1	1	1
03/17/06	3:34 a	-22.6	-22.6	-22.6	---	---	21.7	ENE	0.36	23.5	-37.6	---	---	725.7	0.028	0.000	18.1	1	1
03/17/06	3:35 a	-22.6	-22.6	-22.6	---	---	20.9	ENE	0.35	22.6	-37.3	---	---	725.7	0.028	0.000	18.1	1	1
03/17/06	3:36 a	-22.6	-22.6	-22.6	---	---	20.9	ENE	0.35	22.6	-37.3	---	---	725.8	0.028	0.000	18.1	1	1
03/17/06	3:37 a	-22.7	-22.6	-22.7	---	---	20.9	ENE	0.35	22.6	-37.4	---	---	725.7	0.028	0.000	18.1	1	1
03/17/06	3:38 a	-22.7	-22.6	-22.7	---	---	20.9	ENE	0.35	23.5	-37.4	---	---	725.8	0.028	0.000	18.1	1	1
03/17/06	3:39 a	-22.7	-22.6	-22.7	---	---	20.0	ENE	0.33	21.7	-37.2	---	---	725.7	0.028	0.000	18.1	1	1
03/17/06	3:40 a	-22.7	-22.7	-22.7	---	---	20.9	ENE	0.35	22.6	-37.4	---	---	725.7	0.028	0.000	18.1	1	1
03/17/06	3:41 a	-22.7	-22.7	-22.7	---	---	20.0	ENE	0.33	22.6	-37.2	---	---	725.7	0.028	0.000	18.1	1	1
03/17/06	3:42 a	-22.7	-22.7	-22.7	---	---	20.9	E	0.35	23.5	-37.4	---	---	725.7	0.028	0.000	18.1	1	1
03/17/06	3:43 a	-22.7	-22.7	-22.7	---	---	20.9	ENE	0.35	22.6	-37.4	---	---	725.8	0.028	0.000	18.1	1	1
03/17/06	3:44 a	-22.7	-22.7	-22.7	---	---	19.1	ENE	0.32	21.7	-36.9	---	---	725.8	0.028	0.000	18.1	1	1
03/17/06	3:45 a	-22.7	-22.7	-22.7	---	---	20.9	ENE	0.35	23.5	-37.4	---	---	725.8	0.028	0.000	18.1	1	1
03/17/06	3:46 a	-22.7	-22.7	-22.7	---	---	23.5	ENE	0.39	24.3	-38.2	---	---	725.8	0.029	0.000	18.1	1	1
03/17/06	3:47 a	-22.7	-22.7	-22.7	---	---	20.9	ENE	0.35	22.6	-37.5	---	---	725.8	0.029	0.000	18.1	1	1
03/17/06	3:48 a	-22.7	-22.7	-22.7	---	---	20.0	ENE	0.33	21.7	-37.2	---	---	725.8	0.029	0.000	18.1	1	1
03/17/06	3:49 a	-22.7	-22.7	-22.7	---	---	20.0	ENE	0.33	21.7	-37.2	---	---	725.7	0.029	0.000	18.1	1	1
03/17/06	3:50 a	-22.7	-22.7	-22.7	---	---	20.0	ENE	0.33	22.6	-37.2	---	---	725.7	0.029	0.000	18.1	1	1
03/17/06	3:51 a	-22.7	-22.7	-22.8	---	---	20.9	ENE	0.35	23.5	-37.5	---	---	725.7	0.029	0.000	18.1	1	1
03/17/06	3:52 a	-22.8	-22.8	-22.8	---	---	22.6	ENE	0.38	24.3	-38.0	---	---	725.7	0.029	0.000	18.1	1	1
03/17/06	3:53 a	-22.8	-22.7	-22.8	---	---	21.7	ENE	0.36	23.5	-37.8	---	---	725.7	0.029	0.000	18.1	1	1
03/17/06	3:54 a	-22.8	-22.8	-22.8	---	---	20.9	ENE	0.35	22.6	-37.6	---	---	725.8	0.029	0.000	18.1	1	1
03/17/06	3:55 a	-22.8	-22.8	-22.8	---	---	20.9	ENE	0.35	22.6	-37.6	---	---	725.7	0.029	0.000	18.1	1	1
03/17/06	3:56 a	-22.8	-22.8	-22.8	---	---	19.1	ENE	0.32	20.0	-37.1	---	---	725.7	0.029	0.000	18.1	1	1
03/17/06	3:57 a	-22.8	-22.8	-22.8	---	---	20.0	ENE	0.33	22.6	-37.4	---	---	725.8	0.029	0.000	18.1	1	1
03/17/06	3:58 a	-22.8	-22.8	-22.8	---	---	21.7	ENE	0.36	22.6	-37.9	---	---	725.7	0.029	0.000	18.1	1	1
03/17/06	3:59 a	-22.8	-22.8	-22.8	---	---	21.7	ENE	0.36	23.5	-37.9	---	---	725.7	0.029	0.000	18.1	1	1
03/17/06	4:00 a	-22.9	-22.9	-22.9	---	---	21.7	ENE	0.36	23.5	-37.9	---	---	725.7	0.029	0.000	18.1	1	1
03/17/06	4:01 a	-22.9	-22.9	-22.9	---	---	22.6	ENE	0.38	23.5	-38.2	---	---	725.7	0.029	0.000	18.1	1	1
03/17/06	4:02 a	-22.9	-22.9	-22.9	---	---	21.7	ENE	0.36	23.5	-37.9	---	---	725.7	0.029	0.000	18.1	1	1
03/17/06	4:03 a	-22.9	-22.9	-22.9	---	---	20.9	ENE	0.35	22.6	-37.7	---	---	725.8	0.029	0.000	18.1	1	1
03/17/06	4:04 a	-22.9	-22.9	-22.9	---	---	19.1	ENE	0.32	20.9	-37.2	---	---	725.7	0.029	0.000	18.1	1	1
03/17/06	4:05 a	-22.9	-22.9	-22.9	---	---	20.9	ENE	0.35	22.6	-37.7	---	---	725.7	0.029	0.000	18.1	1	1
03/17/06	4:06 a	-22.9	-22.9	-22.9	---	---	20.9	ENE	0.35	21.7	-37.8	---	---	725.7	0.029	0.000	18.1	1	1
03/17/06	4:07 a	-22.9	-22.9	-23.0	---	---	20.9	ENE	0.35	22.6	-37.8	---	---	725.7	0.029	0.000	18.1	1	1
03/17/06	4:08 a	-23.0	-22.9	-23.0	---	---	21.7	ENE	0.36	23.5	-38.1	---	---	725.8	0.029	0.000	18.1	1	1
03/17/06	4:09 a	-23.0	-23.0	-23.0	---	---	22.6	ENE	0.38	24.3	-38.3	---	---	725.6	0.029	0.000	18.1	1	1
03/17/06	4:10 a	-23.0	-23.0	-23.0	---	---	21.7	ENE	0.36	24.3	-38.1	---	---	725.7	0.029	0.000	18.1	1	1
03/17/06	4:11 a	-23.0	-23.0	-23.0	---	---	21.7	ENE	0.36	24.3	-38.1	---	---	725.6	0.029	0.000	18.1	1	1
03/17/06	4:12 a	-23.1	-23.0	-23.1	---	---	21.7	ENE	0.36	23.5	-38.2	---	---	725.6	0.029	0.000	18.1	1	1
03/17/06	4:13 a	-23.1	-23.0	-23.1	---	---	22.6	ENE	0.38	25.2	-38.4	---	---	725.6	0.029	0.000	18.1	1	1
03/17/06	4:14 a	-23.1	-23.1	-23.1	---	---	21.7	ENE	0.36	24.3	-38.2	---	---	725.7	0.029	0.000	18.1	1	1
03/17/06	4:15 a	-23.1	-23.1	-23.1	---	---	22.6	ENE	0.38	25.2	-38.4	---	---	725.7	0.029	0.000	18.1	1	1
03/17/06	4:16 a	-23.1	-23.1	-23.1	---	---	21.7	ENE	0.36	23.5	-38.2	---	---	725.7	0.029	0.000	18.1	1	1
03/17/06	4:17 a	-23.1	-23.1	-23.1	---	---	21.7	ENE	0.36	24.3	-38.2	---	---	725.7	0.029	0.000	18.1	1	1
03/17/06	4:18 a	-23.1	-23.1	-23.1	---	---	20.9	ENE	0.35	23.5	-37.9	---	---	725.6	0.029	0.000	18.1	1	1
03/17/06	4:19 a	-23.1	-23.1	-23.1	---	---	23.5	ENE	0.39	26.1	-38.7	---	---	725.6	0.029	0.000	18.1	1	1
03/17/06	4:20 a	-23.1	-23.1	-23.1	---	---	24.3	ENE	0.41	27.0	-38.9	---	---	725.6	0.029	0.000	18.1	1	1
03/17/06	4:21 a	-23.1	-23.1	-23.1	---	---	22.6	ENE	0.38	26.1	-38.4	---	---	725.6	0.029	0.000	18.1	1	1
03/17/06	4:22 a	-23.1	-23.1	-23.1	---	---	23.5	ENE	0.39	26.1	-38.7	---	---	725.6	0.029	0.000	18.1	1	1
03/17/06	4:23 a	-23.1	-23.1	-23.1	---	---	23.5	ENE	0.39	25.2	-38.7	---	---	725.6	0.029	0.000	18.1	1	1
03/17/06	4:24 a	-23.1	-23.1	-23.2	---	---	22.6	ENE	0.38	26.1	-38.4	---	---	725.5	0.029	0.000	18.1	1	1
03/17/06	4:25 a	-23.1	-23.1	-23.1	---	---	22.6	ENE	0.38	25.2	-38.4	---	---	725.6	0.029	0.000	18.1	1	1
03/17/06	4:26 a	-23.2	-23.1	-23.2	---	---	21.7	ENE	0.36	24.3	-38.3	---	---	725.6	0.029	0.000	18.1	1	1
03/17/06	4:27 a	-23.2	-23.2	-23.2	---	---	22.6	ENE	0.38	25.2	-38.6	---	---	725.6	0.029	0.000	18.1	1	1
03/17/06	4:28 a	-23.2	-23.1	-23.2	---	---	24.3	ENE	0.41	26.1	-39.0	---	---	725.6	0.029	0.000	18.1	1	1
03/17/06	4:29 a	-23.2	-23.2	-23.2	---	---	23.5	ENE	0.39	26.1	-38.8	---	---	725.6	0.029	0.000	18.1	1	1
03/17/06	4:30 a	-23.2	-23.2	-23.2	---	---	23.5	ENE	0.39	26.1	-38.8	---	---	725.6	0.029	0.000	18.1	1	1
03/17/06	4:31 a	-23.2	-23.2	-23.2	---	---	25.2	ENE	0.42	27.0	-39.3	---	---	725.5	0.029	0.000	18.1	1	1
03/17/06	4:32 a	-23.2	-23.2	-23.2	---	---	22.6	ENE	0.38	26.1	-38.6	---	---	725.6	0.029	0.000	18.1	1	1
03/17/06	4:33 a	-23.2	-23.2	-23.2	---	---	22.6	ENE	0.38	26.1	-38.6	---	---	725.5	0.029	0.000	18.1	1	1
03/17/06	4:34 a	-23.2	-23.2	-23.2	---	---	23.5	ENE	0.39	26.1	-38.8	---	---	725.6	0.029	0.000	18.1	1	1
03/17/06	4:35 a	-23.2	-23.2	-23.3	---	---	22.6	ENE	0.38	26.1	-38.6	---	---	725.5	0.029	0.000	18.1	1	1
03/17/06	4:36 a	-23.2	-23.2	-23.3	---	---	22.6	ENE	0.38	25.2	-38.6	---	---	725.6	0.029	0.000	18.1	1	1
03/17/06	4:37 a	-23.2	-23.2	-23.3	---	---	22.6	ENE	0.38	24.3	-38.6	---	---	725.6	0.029	0.000	18.1	1	1
03/17/06	4:38 a	-23.3	-23.2	-23.3	---	---	23.5	ENE	0.39	26.1	-38.9	---	---	725.6	0.029	0.000	18.1	1	1
03/17/06	4:39 a	-23.3	-23.2	-23.3	---	---	22.6	ENE	0.38	26.1	-38.7	---	---	725.7	0.029	0.000	18.1	1	1
03/17/06	4:40 a	-23.3	-23.3	-23.3	---	---	22.6	ENE	0.38	26.1	-38.7	---	---	725.5	0.029	0.000	18.1	1	1
03/17/06	4:41 a	-23.3	-23.3	-23.3	---	---	21.7	ENE	0.36	24.3	-38.4	---	---	725.6	0.029	0.000	18.1	1	1
03/17/06	4:42 a	-23.3	-23.3	-23.3	---	---	23.5	ENE	0.39	25.2	-38.9	---	---	725.6	0.029	0.000	18.1	1	1
03/17/06	4:43 a	-23.3	-23.3	-23.3	---	---	22.6	ENE	0.38	24.3	-38.8	---	---	725.6	0.029	0.000	18.1	1	1
03/17/06	4:44 a	-23.3	-23.3	-23.3	---	---	21.7	ENE	0.36	25.2	-38.6	---	---	725.6	0.029	0.000	18.1	1	1
03/17/06	4:45 a	-23.3	-23.3	-23.3	---	---	22.6	ENE	0.38	25.2	-38.8	---	---	725.5	0.029	0.000	18.1	1	1
03/17/06	4:46 a	-23.3	-23.3	-23.3	---	---	23.5	ENE	0.39	26.1	-39.0	---	---	725.5	0.029	0.000	18.1	1	1
03/17/06	4:47 a	-23.3	-23.3	-23.3	---	---	23.5	ENE	0.39	27.0	-39.0	---	---	725.5	0.029	0.000	18.1	1	1
03/17/06	4:48 a	-23.4	-23.3	-23.4	---	---	23.5	ENE	0.39	26.1	-39.1	---	---	725.6	0.029	0.000	18.1	1	1
03/17/06	4:49 a	-23.4	-23.4	-23.4	---	---	23.5	ENE	0.39	27.0	-39.1	---	---	725.6	0.029	0.000	18.1	1	1
03/17/06	4:50 a	-23.4	-23.4	-23.4	---	---	23.5	ENE	0.39	24.3	-39.1	---	---	725.5	0.029	0.000	18.1	1	1
03/17/06	4:51 a	-23.4	-23.3	-23.4	---	---	23.5	ENE	0.39	26.1	-39.1	---	---	725.5	0.029	0.000	18.1	1	1
03/17/06	4:52 a	-23.4	-23.4	-23.4	---	---	23.5	ENE	0.39	26.1	-39.1	---	---	725.5	0.029	0.000	18.1	1	1
03/17/06	4:53 a	-23.4	-23.4	-23.4	---	---	23.5	ENE	0.39	27.0	-39.2	---	---	725.5	0.029	0.000	18.1	1	1
03/17/06	4:54 a	-23.4	-23.4	-23.4	---	---	23.5	ENE	0.39	26.1	-39.2	---	---	725.5	0.029	0.000	18.1	1	1
03/17/06	4:55 a	-23.4	-23.4	-23.4	---	---	23.5	ENE	0.39	26.1	-39.2	---	---	725.5	0.029	0.000	18.1	1	1
03/17/06	4:56 a	-23.4	-23.4	-23.4	---	---	24.3	ENE	0.41	26.1	-39.4	---	---	725.6	0.029	0.000	18.1	1	1
03/17/06	4:57 a	-23.4	-23.4	-23.4	---	---	23.5	ENE	0.39	26.1	-39.2	---	---	725.6	0.029	0.000	18.1	1	1
03/17/06	4:58 a	-23.4	-23.4	-23.5	---	---	22.6	ENE	0.38	25.2	-38.9	---	---	725.6	0.029	0.000	18.1	1	1
03/17/06	4:59 a	-23.5	-23.4	-23.5	---	---	23.5	ENE	0.39	26.1	-39.2	---	---	725.6	0.029	0.000	18.1	1	1
03/17/06	5:00 a	-23.4	-23.4	-23.5	---	---	23.5	ENE	0.39	25.2	-39.2	---	---	725.6	0.029	0.000	18.1	1	1
03/17/06	5:01 a	-23.5	-23.5	-23.5	---	---	23.5	ENE	0.39	26.1	-39.2	---	---	725.6	0.029	0.000	18.1	1	1
03/17/06	5:02 a	-23.5	-23.5	-23.5	---	---	23.5	ENE	0.39	25.2	-39.2	---	---	725.6	0.029	0.000	18.1	1	1
03/17/06	5:03 a	-23.5	-23.5	-23.5	---	---	22.6	E	0.38	26.1	-39.0	---	---	725.6	0.029	0.000	18.1	1	1
03/17/06	5:04 a	-23.5	-23.5	-23.6	---	---	22.6	ENE	0.38	27.0	-39.0	---	---	725.5	0.029	0.000	18.1	1	1
03/17/06	5:05 a	-23.6	-23.6	-23.6	---	---	23.5	ENE	0.39	26.1	-39.3	---	---	725.5	0.029	0.000	18.1	1	1
03/17/06	5:06 a	-23.6	-23.6	-23.6	---	---	22.6	ENE	0.38	26.1	-39.1	---	---	725.5	0.029	0.000	18.0	1	1
03/17/06	5:07 a	-23.6	-23.6	-23.6	---	---	23.5	ENE	0.39	26.1	-39.3	---	---	725.5	0.029	0.000	18.0	1	1
03/17/06	5:08 a	-23.6	-23.6	-23.6	---	---	22.6	ENE	0.38	25.2	-39.1	---	---	725.6	0.029	0.000	18.0	1	1
03/17/06	5:09 a	-23.6	-23.6	-23.6	---	---	22.6	ENE	0.38	24.3	-39.1	---	---	725.6	0.029	0.000	18.0	1	1
03/17/06	5:10 a	-23.6	-23.6	-23.6	---	---	22.6	ENE	0.38	27.8	-39.1	---	---	725.6	0.029	0.000	18.0	1	1
03/17/06	5:11 a	-23.6	-23.6	-23.6	---	---	23.5	ENE	0.39	28.7	-39.4	---	---	725.5	0.029	0.000	18.0	1	1
03/17/06	5:12 a	-23.6	-23.6	-23.6	---	---	21.7	ENE	0.36	24.3	-38.9	---	---	725.7	0.029	0.000	18.0	1	1
03/17/06	5:13 a	-23.6	-23.6	-23.6	---	---	22.6	ENE	0.38	26.1	-39.2	---	---	725.6	0.029	0.000	18.0	1	1
03/17/06	5:14 a	-23.6	-23.6	-23.6	---	---	22.6	ENE	0.38	25.2	-39.2	---	---	725.6	0.029	0.000	18.0	1	1
03/17/06	5:15 a	-23.6	-23.6	-23.6	---	---	22.6	ENE	0.38	27.0	-39.2	---	---	725.6	0.029	0.000	18.0	1	1
03/17/06	5:16 a	-23.6	-23.6	-23.6	---	---	23.5	ENE	0.39	27.0	-39.4	---	---	725.6	0.029	0.000	17.9	1	1
03/17/06	5:17 a	-23.6	-23.6	-23.7	---	---	22.6	ENE	0.38	26.1	-39.2	---	---	725.6	0.029	0.000	17.9	1	1
03/17/06	5:18 a	-23.7	-23.7	-23.7	---	---	21.7	ENE	0.36	27.8	-39.0	---	---	725.7	0.029	0.000	17.9	1	1
03/17/06	5:19 a	-23.7	-23.7	-23.7	---	---	22.6	ENE	0.38	25.2	-39.2	---	---	725.6	0.029	0.000	17.9	1	1
03/17/06	5:20 a	-23.7	-23.7	-23.7	---	---	22.6	ENE	0.38	26.1	-39.2	---	---	725.6	0.029	0.000	17.9	1	1
03/17/06	5:21 a	-23.7	-23.7	-23.7	---	---	22.6	ENE	0.38	24.3	-39.2	---	---	725.5	0.029	0.000	17.9	1	1
03/17/06	5:22 a	-23.7	-23.7	-23.7	---	---	21.7	ENE	0.36	24.3	-39.0	---	---	725.6	0.029	0.000	17.9	1	1
03/17/06	5:23 a	-23.7	-23.7	-23.7	---	---	21.7	ENE	0.36	23.5	-39.0	---	---	725.6	0.029	0.000	17.9	1	1
03/17/06	5:24 a	-23.7	-23.7	-23.7	---	---	22.6	ENE	0.38	25.2	-39.3	---	---	725.6	0.029	0.000	17.9	1	1
03/17/06	5:25 a	-23.7	-23.7	-23.7	---	---	21.7	ENE	0.36	25.2	-39.1	---	---	725.6	0.029	0.000	17.9	1	1
03/17/06	5:26 a	-23.7	-23.7	-23.7	---	---	22.6	ENE	0.38	27.0	-39.3	---	---	725.6	0.029	0.000	17.9	1	1
03/17/06	5:27 a	-23.7	-23.7	-23.8	---	---	22.6	ENE	0.38	25.2	-39.3	---	---	725.5	0.029	0.000	17.9	1	1
03/17/06	5:28 a	-23.8	-23.8	-23.8	---	---	20.9	ENE	0.35	24.3	-38.9	---	---	725.5	0.029	0.000	17.9	1	1
03/17/06	5:29 a	-23.8	-23.7	-23.8	---	---	21.7	ENE	0.36	24.3	-39.1	---	---	725.6	0.029	0.000	17.9	1	1
03/17/06	5:30 a	-23.7	-23.7	-23.8	---	---	22.6	ENE	0.38	26.1	-39.3	---	---	725.5	0.029	0.000	17.9	1	1
03/17/06	5:31 a	-23.8	-23.8	-23.8	---	---	23.5	ENE	0.39	25.2	-39.6	---	---	725.6	0.029	0.000	17.9	1	1
03/17/06	5:32 a	-23.8	-23.8	-23.8	---	---	21.7	ENE	0.36	27.0	-39.1	---	---	725.6	0.029	0.000	17.9	1	1
03/17/06	5:33 a	-23.8	-23.8	-23.8	---	---	21.7	ENE	0.36	24.3	-39.1	---	---	725.5	0.029	0.000	17.9	1	1
03/17/06	5:34 a	-23.8	-23.8	-23.8	---	---	20.0	ENE	0.33	23.5	-38.7	---	---	725.6	0.029	0.000	17.9	1	1
03/17/06	5:35 a	-23.8	-23.8	-23.8	---	---	22.6	ENE	0.38	26.1	-39.4	---	---	725.6	0.029	0.000	17.9	1	1
03/17/06	5:36 a	-23.8	-23.8	-23.8	---	---	20.9	ENE	0.35	24.3	-38.9	---	---	725.6	0.029	0.000	17.9	1	1
03/17/06	5:37 a	-23.8	-23.8	-23.9	---	---	21.7	ENE	0.36	24.3	-39.2	---	---	725.6	0.029	0.000	17.9	1	1
03/17/06	5:38 a	-23.8	-23.8	-23.9	---	---	22.6	ENE	0.38	25.2	-39.4	---	---	725.5	0.029	0.000	17.9	1	1
03/17/06	5:39 a	-23.8	-23.8	-23.9	---	---	21.7	ENE	0.36	24.3	-39.2	---	---	725.6	0.029	0.000	17.9	1	1
03/17/06	5:40 a	-23.9	-23.9	-23.9	---	---	22.6	ENE	0.38	26.1	-39.5	---	---	725.5	0.029	0.000	18.0	1	1
03/17/06	5:41 a	-23.9	-23.9	-23.9	---	---	23.5	ENE	0.39	26.1	-39.7	---	---	725.4	0.029	0.000	17.9	1	1
03/17/06	5:42 a	-23.9	-23.9	-23.9	---	---	23.5	ENE	0.39	25.2	-39.7	---	---	725.5	0.029	0.000	18.0	1	1
03/17/06	5:43 a	-23.9	-23.9	-23.9	---	---	21.7	ENE	0.36	24.3	-39.3	---	---	725.4	0.029	0.000	17.9	1	1
03/17/06	5:44 a	-23.9	-23.9	-23.9	---	---	22.6	ENE	0.38	24.3	-39.5	---	---	725.4	0.029	0.000	18.0	1	1
03/17/06	5:45 a	-23.9	-23.9	-23.9	---	---	22.6	ENE	0.38	26.1	-39.5	---	---	725.5	0.029	0.000	18.0	1	1
03/17/06	5:46 a	-23.9	-23.9	-23.9	---	---	22.6	ENE	0.38	25.2	-39.6	---	---	725.5	0.029	0.000	17.9	1	1
03/17/06	5:47 a	-23.9	-23.9	-23.9	---	---	22.6	ENE	0.38	26.1	-39.6	---	---	725.4	0.029	0.000	17.9	1	1
03/17/06	5:48 a	-23.9	-23.9	-23.9	---	---	21.7	ENE	0.36	24.3	-39.3	---	---	725.6	0.029	0.000	17.9	1	1
03/17/06	5:49 a	-23.9	-23.9	-23.9	---	---	22.6	ENE	0.38	24.3	-39.6	---	---	725.5	0.029	0.000	18.0	1	1
03/17/06	5:50 a	-23.9	-23.9	-24.0	---	---	20.0	ENE	0.33	23.5	-38.8	---	---	725.6	0.029	0.000	17.9	1	1
03/17/06	5:51 a	-23.9	-23.9	-24.0	---	---	21.7	ENE	0.36	23.5	-39.3	---	---	725.4	0.029	0.000	18.0	1	1
03/17/06	5:52 a	-23.9	-23.9	-24.0	---	---	21.7	ENE	0.36	23.5	-39.3	---	---	725.6	0.029	0.000	18.0	1	1
03/17/06	5:53 a	-24.0	-24.0	-24.0	---	---	22.6	ENE	0.38	24.3	-39.7	---	---	725.5	0.029	0.000	18.0	1	1
03/17/06	5:54 a	-24.0	-24.0	-24.0	---	---	21.7	ENE	0.36	24.3	-39.4	---	---	725.4	0.029	0.000	18.0	1	1
03/17/06	5:55 a	-24.0	-24.0	-24.0	---	---	22.6	ENE	0.38	25.2	-39.7	---	---	725.4	0.029	0.000	17.9	1	1
03/17/06	5:56 a	-24.0	-24.0	-24.1	---	---	22.6	ENE	0.38	23.5	-39.7	---	---	725.5	0.029	0.000	17.9	1	1
03/17/06	5:57 a	-24.0	-24.0	-24.1	---	---	22.6	ENE	0.38	24.3	-39.7	---	---	725.6	0.029	0.000	17.9	1	1
03/17/06	5:58 a	-24.1	-24.0	-24.1	---	---	22.6	ENE	0.38	24.3	-39.7	---	---	725.4	0.029	0.000	17.9	1	1
03/17/06	5:59 a	-24.1	-24.0	-24.1	---	---	21.7	ENE	0.36	23.5	-39.5	---	---	725.5	0.029	0.000	17.9	1	1
03/17/06	6:00 a	-24.1	-24.1	-24.1	---	---	22.6	ENE	0.38	25.2	-39.7	---	---	725.5	0.029	0.000	17.9	1	1
03/17/06	6:01 a	-24.1	-24.1	-24.1	---	---	22.6	ENE	0.38	24.3	-39.7	---	---	725.4	0.029	0.000	17.9	1	1
03/17/06	6:02 a	-24.1	-24.1	-24.1	---	---	20.9	ENE	0.35	23.5	-39.3	---	---	725.4	0.029	0.000	17.9	1	1
03/17/06	6:03 a	-24.1	-24.1	-24.1	---	---	21.7	ENE	0.36	27.0	-39.6	---	---	725.6	0.029	0.000	17.9	1	1
03/17/06	6:04 a	-24.1	-24.1	-24.1	---	---	21.7	ENE	0.36	23.5	-39.6	---	---	725.4	0.029	0.000	17.9	1	1
03/17/06	6:05 a	-24.1	-24.1	-24.1	---	---	21.7	ENE	0.36	27.0	-39.6	---	---	725.4	0.029	0.000	17.9	1	1
03/17/06	6:06 a	-24.1	-24.1	-24.1	---	---	20.9	ENE	0.35	24.3	-39.3	---	---	725.4	0.029	0.000	17.9	1	1
03/17/06	6:07 a	-24.1	-24.1	-24.1	---	---	22.6	ENE	0.38	25.2	-39.8	---	---	725.4	0.029	0.000	17.9	1	1
03/17/06	6:08 a	-24.2	-24.1	-24.2	---	---	22.6	ENE	0.38	25.2	-39.9	---	---	725.5	0.030	0.000	17.9	1	1
03/17/06	6:09 a	-24.2	-24.2	-24.2	---	---	20.9	ENE	0.35	24.3	-39.4	---	---	725.4	0.030	0.000	17.9	1	1
03/17/06	6:10 a	-24.2	-24.2	-24.2	---	---	20.9	ENE	0.35	25.2	-39.4	---	---	725.3	0.030	0.000	17.9	1	1
03/17/06	6:11 a	-24.2	-24.2	-24.2	---	---	23.5	ENE	0.39	26.1	-40.1	---	---	725.6	0.030	0.000	17.9	1	1
03/17/06	6:12 a	-24.2	-24.2	-24.2	---	---	17.4	ENE	0.29	25.2	-38.3	---	---	725.4	0.030	0.000	17.9	1	1
03/17/06	6:13 a	-24.2	-24.2	-24.2	---	---	20.9	ENE	0.35	27.0	-39.4	---	---	725.3	0.030	0.000	17.9	1	1
03/17/06	6:14 a	-24.2	-24.2	-24.2	---	---	19.1	ENE	0.32	23.5	-38.9	---	---	725.4	0.030	0.000	17.9	1	1
03/17/06	6:15 a	-24.2	-24.2	-24.2	---	---	21.7	ENE	0.36	27.0	-39.7	---	---	725.5	0.030	0.000	17.9	1	1
03/17/06	6:16 a	-24.2	-24.2	-24.2	---	---	23.5	ENE	0.39	27.0	-40.2	---	---	725.5	0.030	0.000	17.9	1	1
03/17/06	6:17 a	-24.2	-24.2	-24.2	---	---	20.0	ENE	0.33	23.5	-39.2	---	---	725.2	0.030	0.000	17.9	1	1
03/17/06	6:18 a	-24.2	-24.2	-24.3	---	---	21.7	ENE	0.36	26.1	-39.7	---	---	725.5	0.030	0.000	17.9	1	1
03/17/06	6:19 a	-24.2	-24.2	-24.3	---	---	22.6	ENE	0.38	26.1	-39.9	---	---	725.3	0.030	0.000	17.9	1	1
03/17/06	6:20 a	-24.3	-24.2	-24.3	---	---	21.7	ENE	0.36	27.0	-39.8	---	---	725.2	0.030	0.000	17.9	1	1
03/17/06	6:21 a	-24.3	-24.2	-24.3	---	---	20.0	ENE	0.33	27.0	-39.3	---	---	725.4	0.030	0.000	17.9	1	1
03/17/06	6:22 a	-24.3	-24.3	-24.3	---	---	20.9	ENE	0.35	27.8	-39.6	---	---	725.4	0.030	0.000	17.9	1	1
03/17/06	6:23 a	-24.3	-24.3	-24.3	---	---	20.9	ENE	0.35	27.0	-39.6	---	---	725.4	0.030	0.000	17.9	1	1
03/17/06	6:24 a	-24.3	-24.3	-24.3	---	---	18.3	ENE	0.30	23.5	-38.8	---	---	725.4	0.030	0.000	17.9	1	1
03/17/06	6:25 a	-24.3	-24.3	-24.3	---	---	21.7	ENE	0.36	24.3	-39.8	---	---	725.3	0.030	0.000	17.9	1	1
03/17/06	6:26 a	-24.3	-24.3	-24.3	---	---	20.9	ENE	0.35	24.3	-39.6	---	---	725.3	0.030	0.000	17.9	1	1
03/17/06	6:27 a	-24.3	-24.3	-24.3	---	---	20.9	ENE	0.35	26.1	-39.6	---	---	725.4	0.030	0.000	17.9	1	1
03/17/06	6:28 a	-24.3	-24.3	-24.3	---	---	20.9	ENE	0.35	23.5	-39.6	---	---	725.3	0.030	0.000	17.9	1	1
03/17/06	6:29 a	-24.3	-24.3	-24.3	---	---	22.6	ENE	0.38	26.1	-40.1	---	---	725.2	0.030	0.000	17.9	1	1
03/17/06	6:30 a	-24.3	-24.3	-24.3	---	---	20.9	ENE	0.35	23.5	-39.6	---	---	725.2	0.030	0.000	17.9	1	1
03/17/06	6:31 a	-24.3	-24.3	-24.4	---	---	21.7	ENE	0.36	25.2	-39.9	---	---	725.3	0.030	0.000	17.9	1	1
03/17/06	6:32 a	-24.3	-24.3	-24.4	---	---	22.6	ENE	0.38	25.2	-40.1	---	---	725.4	0.030	0.000	17.9	1	1
03/17/06	6:33 a	-24.3	-24.3	-24.4	---	---	22.6	ENE	0.38	25.2	-40.1	---	---	725.2	0.030	0.000	17.9	1	1
03/17/06	6:34 a	-24.4	-24.3	-24.4	---	---	22.6	ENE	0.38	25.2	-40.2	---	---	725.3	0.030	0.000	17.9	1	1
03/17/06	6:35 a	-24.4	-24.4	-24.4	---	---	21.7	ENE	0.36	24.3	-39.9	---	---	725.3	0.030	0.000	17.9	1	1
03/17/06	6:36 a	-24.4	-24.4	-24.4	---	---	21.7	ENE	0.36	24.3	-39.9	---	---	725.3	0.030	0.000	17.9	1	1
03/17/06	6:37 a	-24.4	-24.4	-24.4	---	---	22.6	ENE	0.38	25.2	-40.2	---	---	725.3	0.030	0.000	17.9	1	1
03/17/06	6:38 a	-24.4	-24.4	-24.4	---	---	22.6	ENE	0.38	24.3	-40.3	---	---	725.2	0.030	0.000	17.9	1	1
03/17/06	6:39 a	-24.4	-24.4	-24.4	---	---	22.6	ENE	0.38	25.2	-40.3	---	---	725.3	0.030	0.000	17.9	1	1
03/17/06	6:40 a	-24.4	-24.4	-24.4	---	---	21.7	ENE	0.36	25.2	-40.0	---	---	725.4	0.030	0.000	17.9	1	1
03/17/06	6:41 a	-24.4	-24.4	-24.4	---	---	21.7	ENE	0.36	23.5	-40.0	---	---	725.2	0.030	0.000	17.9	1	1
03/17/06	6:42 a	-24.4	-24.4	-24.4	---	---	20.9	ENE	0.35	22.6	-39.8	---	---	725.3	0.030	0.000	17.9	1	1
03/17/06	6:43 a	-24.4	-24.4	-24.5	---	---	21.7	ENE	0.36	24.3	-40.0	---	---	725.3	0.030	0.000	17.9	1	1
03/17/06	6:44 a	-24.5	-24.4	-24.5	---	---	21.7	ENE	0.36	22.6	-40.1	---	---	725.3	0.030	0.000	17.9	1	1
03/17/06	6:45 a	-24.4	-24.4	-24.5	---	---	21.7	ENE	0.36	25.2	-40.0	---	---	725.2	0.030	0.000	17.9	1	1
03/17/06	6:46 a	-24.5	-24.4	-24.5	---	---	21.7	ENE	0.36	25.2	-40.1	---	---	725.2	0.030	0.000	17.9	1	1
03/17/06	6:47 a	-24.5	-24.4	-24.5	---	---	20.0	E	0.33	27.8	-39.6	---	---	725.1	0.030	0.000	17.9	1	1
03/17/06	6:48 a	-24.5	-24.4	-24.5	---	---	19.1	E	0.32	22.6	-39.3	---	---	725.3	0.030	0.000	17.9	1	1
03/17/06	6:49 a	-24.5	-24.5	-24.5	---	---	21.7	ENE	0.36	24.3	-40.1	---	---	725.3	0.030	0.000	17.9	1	1
03/17/06	6:50 a	-24.5	-24.5	-24.5	---	---	19.1	E	0.32	23.5	-39.3	---	---	725.1	0.030	0.000	17.9	1	1
03/17/06	6:51 a	-24.5	-24.5	-24.5	---	---	20.0	E	0.33	25.2	-39.6	---	---	725.1	0.030	0.000	17.9	1	1
03/17/06	6:52 a	-24.5	-24.5	-24.5	---	---	19.1	E	0.32	25.2	-39.3	---	---	725.2	0.030	0.000	17.9	1	1
03/17/06	6:53 a	-24.5	-24.5	-24.5	---	---	19.1	E	0.32	25.2	-39.3	---	---	725.1	0.030	0.000	17.9	1	1
03/17/06	6:54 a	-24.5	-24.5	-24.6	---	---	20.9	E	0.35	23.5	-39.8	---	---	725.2	0.030	0.000	17.9	1	1
03/17/06	6:55 a	-24.6	-24.5	-24.6	---	---	20.0	E	0.33	24.3	-39.7	---	---	725.2	0.030	0.000	17.9	1	1
03/17/06	6:56 a	-24.5	-24.5	-24.6	---	---	20.0	E	0.33	23.5	-39.6	---	---	725.1	0.030	0.000	17.9	1	1
03/17/06	6:57 a	-24.5	-24.5	-24.6	---	---	20.9	E	0.35	24.3	-39.8	---	---	725.2	0.030	0.000	17.9	1	1
03/17/06	6:58 a	-24.5	-24.5	-24.6	---	---	18.3	E	0.30	24.3	-39.1	---	---	725.1	0.030	0.000	17.9	1	1
03/17/06	6:59 a	-24.6	-24.5	-24.6	---	---	19.1	E	0.32	21.7	-39.4	---	---	725.1	0.030	0.000	17.9	1	1
03/17/06	7:00 a	-24.6	-24.5	-24.6	---	---	20.0	E	0.33	22.6	-39.7	---	---	725.1	0.030	0.000	17.9	1	1
03/17/06	7:01 a	-24.6	-24.5	-24.6	---	---	19.1	E	0.32	22.6	-39.4	---	---	725.2	0.030	0.000	17.9	1	1
03/17/06	7:02 a	-24.5	-24.5	-24.6	---	---	19.1	E	0.32	20.9	-39.3	---	---	725.1	0.030	0.000	17.9	1	1
03/17/06	7:03 a	-24.6	-24.5	-24.6	---	---	18.3	E	0.30	23.5	-39.1	---	---	725.2	0.030	0.000	17.9	1	1
03/17/06	7:04 a	-24.6	-24.5	-24.6	---	---	20.9	E	0.35	23.5	-39.9	---	---	725.1	0.030	0.000	17.9	1	1
03/17/06	7:05 a	-24.6	-24.5	-24.6	---	---	20.9	E	0.35	23.5	-39.9	---	---	725.1	0.030	0.000	17.9	1	1
03/17/06	7:06 a	-24.6	-24.5	-24.6	---	---	20.9	E	0.35	24.3	-39.9	---	---	725.2	0.030	0.000	17.9	1	1
03/17/06	7:07 a	-24.6	-24.5	-24.6	---	---	20.0	E	0.33	23.5	-39.7	---	---	725.2	0.030	0.000	17.9	1	1
03/17/06	7:08 a	-24.6	-24.5	-24.6	---	---	21.7	E	0.36	26.1	-40.2	---	---	725.2	0.030	0.000	17.9	1	1
03/17/06	7:09 a	-24.6	-24.5	-24.6	---	---	20.0	E	0.33	23.5	-39.7	---	---	725.2	0.030	0.000	17.9	1	1
03/17/06	7:10 a	-24.6	-24.5	-24.6	---	---	21.7	E	0.36	24.3	-40.2	---	---	725.1	0.030	0.000	17.9	1	1
03/17/06	7:11 a	-24.5	-24.5	-24.6	---	---	20.9	E	0.35	23.5	-39.8	---	---	725.2	0.030	0.000	17.9	1	1
03/17/06	7:12 a	-24.6	-24.5	-24.6	---	---	20.9	E	0.35	23.5	-39.9	---	---	725.1	0.030	0.000	17.9	1	1
03/17/06	7:13 a	-24.6	-24.5	-24.6	---	---	18.3	E	0.30	21.7	-39.1	---	---	725.1	0.030	0.000	17.9	1	1
03/17/06	7:14 a	-24.6	-24.5	-24.6	---	---	20.9	E	0.35	23.5	-39.9	---	---	725.2	0.030	0.000	17.9	1	1
03/17/06	7:15 a	-24.6	-24.5	-24.6	---	---	20.0	E	0.33	25.2	-39.7	---	---	725.0	0.030	0.000	17.9	1	1
03/17/06	7:16 a	-24.6	-24.6	-24.6	---	---	18.3	E	0.30	25.2	-39.1	---	---	725.2	0.030	0.000	17.9	1	1
03/17/06	7:17 a	-24.6	-24.6	-24.6	---	---	20.0	E	0.33	24.3	-39.7	---	---	725.0	0.030	0.000	17.9	1	1
03/17/06	7:18 a	-24.6	-24.6	-24.6	---	---	20.9	E	0.35	24.3	-39.9	---	---	725.1	0.030	0.000	17.9	1	1
03/17/06	7:19 a	-24.6	-24.5	-24.6	---	---	20.9	E	0.35	24.3	-39.9	---	---	725.0	0.030	0.000	17.9	1	1
03/17/06	7:20 a	-24.6	-24.6	-24.6	---	---	20.9	E	0.35	25.2	-39.9	---	---	725.1	0.030	0.000	17.9	1	1
03/17/06	7:21 a	-24.6	-24.6	-24.6	---	---	19.1	E	0.32	22.6	-39.4	---	---	725.0	0.030	0.000	17.9	1	1
03/17/06	7:22 a	-24.6	-24.6	-24.6	---	---	21.7	E	0.36	25.2	-40.2	---	---	725.1	0.030	0.000	17.9	1	1
03/17/06	7:23 a	-24.6	-24.6	-24.6	---	---	20.0	E	0.33	25.2	-39.7	---	---	724.8	0.030	0.000	17.9	1	1
03/17/06	7:24 a	-24.6	-24.6	-24.6	---	---	20.0	E	0.33	27.0	-39.7	---	---	724.9	0.030	0.000	17.9	1	1
03/17/06	7:25 a	-24.6	-24.6	-24.6	---	---	22.6	E	0.38	27.0	-40.4	---	---	725.2	0.030	0.000	17.9	1	1
03/17/06	7:26 a	-24.6	-24.6	-24.6	---	---	18.3	E	0.30	22.6	-39.1	---	---	725.0	0.030	0.000	17.9	1	1
03/17/06	7:27 a	-24.6	-24.5	-24.6	---	---	20.0	E	0.33	24.3	-39.7	---	---	725.1	0.030	0.000	17.9	1	1
03/17/06	7:28 a	-24.6	-24.6	-24.6	---	---	20.0	E	0.33	25.2	-39.7	---	---	725.1	0.030	0.000	17.9	1	1
03/17/06	7:29 a	-24.6	-24.6	-24.6	---	---	20.0	E	0.33	23.5	-39.7	---	---	725.1	0.030	0.000	17.9	1	1
03/17/06	7:30 a	-24.6	-24.6	-24.6	---	---	19.1	E	0.32	21.7	-39.4	---	---	725.1	0.030	0.000	17.8	1	1
03/17/06	7:31 a	-24.6	-24.6	-24.6	---	---	22.6	E	0.38	26.1	-40.4	---	---	725.1	0.030	0.000	17.8	1	1
03/17/06	7:32 a	-24.6	-24.5	-24.6	---	---	20.9	E	0.35	24.3	-39.9	---	---	725.2	0.030	0.000	17.8	1	1
03/17/06	7:33 a	-24.5	-24.5	-24.6	---	---	21.7	E	0.36	27.8	-40.1	---	---	724.9	0.030	0.000	17.8	1	1
03/17/06	7:34 a	-24.6	-24.5	-24.6	---	---	21.7	E	0.36	26.1	-40.2	---	---	725.2	0.030	0.000	17.8	1	1
03/17/06	7:35 a	-24.5	-24.5	-24.5	---	---	20.0	E	0.33	24.3	-39.6	---	---	725.0	0.030	0.000	17.8	1	1
03/17/06	7:36 a	-24.5	-24.5	-24.6	---	---	20.0	E	0.33	23.5	-39.6	---	---	725.0	0.030	0.000	17.8	1	1
03/17/06	7:37 a	-24.6	-24.5	-24.6	---	---	24.3	E	0.41	27.8	-40.9	---	---	725.1	0.030	0.000	17.8	1	1
03/17/06	7:38 a	-24.5	-24.5	-24.5	---	---	20.0	E	0.33	24.3	-39.6	---	---	725.1	0.030	0.000	17.8	1	1
03/17/06	7:39 a	-24.5	-24.5	-24.5	---	---	22.6	E	0.38	27.8	-40.3	---	---	724.9	0.030	0.000	17.8	1	1
03/17/06	7:40 a	-24.5	-24.5	-24.5	---	---	21.7	E	0.36	31.3	-40.1	---	---	725.1	0.030	0.000	17.8	1	1
03/17/06	7:41 a	-24.5	-24.5	-24.5	---	---	21.7	E	0.36	27.8	-40.1	---	---	724.8	0.030	0.000	17.8	1	1
03/17/06	7:42 a	-24.5	-24.5	-24.5	---	---	19.1	E	0.32	28.7	-39.3	---	---	725.2	0.030	0.000	17.8	1	1
03/17/06	7:43 a	-24.5	-24.5	-24.5	---	---	20.9	E	0.35	27.8	-39.8	---	---	725.0	0.030	0.000	17.9	1	1
03/17/06	7:44 a	-24.5	-24.5	-24.5	---	---	20.0	E	0.33	24.3	-39.6	---	---	725.0	0.030	0.000	17.9	1	1
03/17/06	7:45 a	-24.5	-24.5	-24.5	---	---	22.6	E	0.38	26.1	-40.3	---	---	725.0	0.030	0.000	17.9	1	1
03/17/06	7:46 a	-24.5	-24.5	-24.5	---	---	21.7	E	0.36	24.3	-40.1	---	---	725.0	0.030	0.000	17.9	1	1
03/17/06	7:47 a	-24.5	-24.5	-24.5	---	---	22.6	E	0.38	25.2	-40.3	---	---	724.9	0.030	0.000	18.0	1	1
03/17/06	7:48 a	-24.5	-24.5	-24.5	---	---	20.9	E	0.35	26.1	-39.8	---	---	725.0	0.030	0.000	18.0	1	1
03/17/06	7:49 a	-24.5	-24.5	-24.5	---	---	21.7	E	0.36	27.0	-40.1	---	---	724.8	0.030	0.000	18.1	1	1
03/17/06	7:50 a	-24.5	-24.5	-24.5	---	---	20.0	E	0.33	23.5	-39.6	---	---	725.0	0.030	0.000	18.1	1	1
03/17/06	7:51 a	-24.5	-24.5	-24.5	---	---	22.6	E	0.38	26.1	-40.3	---	---	725.1	0.030	0.000	18.1	1	1
03/17/06	7:52 a	-24.5	-24.5	-24.5	---	---	22.6	E	0.38	27.0	-40.3	---	---	724.9	0.030	0.000	18.1	1	1
03/17/06	7:53 a	-24.5	-24.4	-24.5	---	---	21.7	E	0.36	25.2	-40.1	---	---	725.0	0.030	0.000	18.1	1	1
03/17/06	7:54 a	-24.5	-24.5	-24.5	---	---	23.5	E	0.39	27.0	-40.6	---	---	724.9	0.030	0.000	18.1	1	1
03/17/06	7:55 a	-24.5	-24.4	-24.5	---	---	19.1	E	0.32	24.3	-39.3	---	---	724.9	0.030	0.000	18.1	1	1
03/17/06	7:56 a	-24.5	-24.5	-24.5	---	---	22.6	E	0.38	27.0	-40.3	---	---	724.9	0.030	0.000	18.1	1	1
03/17/06	7:57 a	-24.5	-24.5	-24.5	---	---	19.1	E	0.32	24.3	-39.3	---	---	725.0	0.030	0.000	18.1	1	1
03/17/06	7:58 a	-24.5	-24.5	-24.5	---	---	21.7	E	0.36	24.3	-40.1	---	---	724.9	0.030	0.000	18.1	1	1
03/17/06	7:59 a	-24.5	-24.5	-24.5	---	---	20.9	E	0.35	24.3	-39.8	---	---	724.9	0.030	0.000	18.1	1	1
03/17/06	8:00 a	-24.5	-24.5	-24.5	---	---	20.9	E	0.35	26.1	-39.8	---	---	724.9	0.030	0.000	18.1	1	1
03/17/06	8:01 a	-24.5	-24.5	-24.5	---	---	22.6	E	0.38	27.8	-40.3	---	---	724.8	0.030	0.000	18.1	1	1
03/17/06	8:02 a	-24.5	-24.5	-24.5	---	---	23.5	E	0.39	27.8	-40.6	---	---	724.9	0.030	0.000	18.1	1	1
03/17/06	8:03 a	-24.5	-24.5	-24.5	---	---	22.6	E	0.38	27.0	-40.3	---	---	725.0	0.030	0.000	18.1	1	1
03/17/06	8:04 a	-24.5	-24.5	-24.5	---	---	19.1	E	0.32	24.3	-39.3	---	---	724.9	0.030	0.000	18.1	1	1
03/17/06	8:05 a	-24.5	-24.5	-24.5	---	---	23.5	E	0.39	31.3	-40.6	---	---	724.8	0.030	0.000	18.0	1	1
03/17/06	8:06 a	-24.5	-24.5	-24.6	---	---	19.1	E	0.32	28.7	-39.3	---	---	724.9	0.030	0.000	18.0	1	1
03/17/06	8:07 a	-24.6	-24.6	-24.6	---	---	22.6	E	0.38	27.0	-40.4	---	---	724.9	0.030	0.000	18.0	1	1
03/17/06	8:08 a	-24.5	-24.5	-24.5	---	---	21.7	E	0.36	25.2	-40.1	---	---	724.9	0.030	0.000	18.0	1	1
03/17/06	8:09 a	-24.5	-24.5	-24.6	---	---	20.9	E	0.35	25.2	-39.8	---	---	724.8	0.030	0.000	18.0	1	1
03/17/06	8:10 a	-24.6	-24.6	-24.6	---	---	20.9	E	0.35	28.7	-39.9	---	---	724.9	0.030	0.000	18.0	1	1
03/17/06	8:11 a	-24.6	-24.5	-24.6	---	---	20.0	E	0.33	21.7	-39.7	---	---	724.8	0.030	0.000	18.0	1	1
03/17/06	8:12 a	-24.6	-24.5	-24.6	---	---	20.0	E	0.33	24.3	-39.7	---	---	724.9	0.030	0.000	18.0	1	1
03/17/06	8:13 a	-24.5	-24.5	-24.6	---	---	20.0	E	0.33	25.2	-39.6	---	---	724.8	0.030	0.000	18.0	1	1
03/17/06	8:14 a	-24.6	-24.6	-24.6	---	---	20.9	E	0.35	26.1	-39.9	---	---	724.8	0.030	0.000	18.0	1	1
03/17/06	8:15 a	-24.6	-24.6	-24.6	---	---	22.6	E	0.38	30.4	-40.4	---	---	724.7	0.030	0.000	18.0	1	1
03/17/06	8:16 a	-24.6	-24.6	-24.6	---	---	20.9	E	0.35	27.8	-39.9	---	---	724.9	0.030	0.000	18.0	1	1
03/17/06	8:17 a	-24.6	-24.6	-24.6	---	---	23.5	E	0.39	28.7	-40.7	---	---	724.9	0.030	0.000	17.9	1	1
03/17/06	8:18 a	-24.6	-24.6	-24.6	---	---	21.7	E	0.36	27.0	-40.2	---	---	724.8	0.030	0.000	18.0	1	1
03/17/06	8:19 a	-24.6	-24.6	-24.6	---	---	20.9	E	0.35	26.1	-39.9	---	---	724.9	0.030	0.000	18.0	1	1
03/17/06	8:20 a	-24.6	-24.6	-24.6	---	---	20.9	E	0.35	25.2	-39.9	---	---	724.8	0.030	0.000	17.9	1	1
03/17/06	8:21 a	-24.6	-24.6	-24.6	---	---	21.7	E	0.36	25.2	-40.2	---	---	724.9	0.030	0.000	17.9	1	1
03/17/06	8:22 a	-24.6	-24.6	-24.6	---	---	19.1	E	0.32	24.3	-39.4	---	---	724.9	0.030	0.000	17.9	1	1
03/17/06	8:23 a	-24.6	-24.6	-24.6	---	---	20.9	E	0.35	27.0	-39.9	---	---	724.9	0.030	0.000	17.9	1	1
03/17/06	8:24 a	-24.6	-24.6	-24.6	---	---	23.5	E	0.39	27.8	-40.7	---	---	724.8	0.030	0.000	17.9	1	1
03/17/06	8:25 a	-24.6	-24.6	-24.6	---	---	21.7	E	0.36	25.2	-40.2	---	---	724.8	0.030	0.000	17.9	1	1
03/17/06	8:26 a	-24.6	-24.6	-24.6	---	---	20.9	E	0.35	25.2	-40.0	---	---	724.9	0.030	0.000	17.9	1	1
03/17/06	8:27 a	-24.6	-24.6	-24.6	---	---	22.6	E	0.38	27.0	-40.5	---	---	724.8	0.030	0.000	17.9	1	1
03/17/06	8:28 a	-24.6	-24.6	-24.6	---	---	23.5	E	0.39	28.7	-40.7	---	---	724.7	0.030	0.000	17.9	1	1
03/17/06	8:29 a	-24.6	-24.6	-24.6	---	---	24.3	E	0.41	27.8	-40.9	---	---	724.9	0.030	0.000	17.9	1	1
03/17/06	8:30 a	-24.6	-24.6	-24.6	---	---	22.6	E	0.38	26.1	-40.5	---	---	724.8	0.030	0.000	17.9	1	1
03/17/06	8:31 a	-24.6	-24.6	-24.6	---	---	21.7	E	0.36	26.1	-40.2	---	---	724.8	0.030	0.000	17.9	1	1
03/17/06	8:32 a	-24.6	-24.6	-24.6	---	---	20.0	E	0.33	26.1	-39.7	---	---	724.8	0.030	0.000	17.9	1	1
03/17/06	8:33 a	-24.6	-24.6	-24.6	---	---	20.9	E	0.35	26.1	-40.0	---	---	724.8	0.030	0.000	17.9	1	1
03/17/06	8:34 a	-24.7	-24.6	-24.7	---	---	20.0	E	0.33	24.3	-39.8	---	---	724.9	0.030	0.000	17.9	1	1
03/17/06	8:35 a	-24.6	-24.6	-24.6	---	---	21.7	E	0.36	24.3	-40.2	---	---	724.9	0.030	0.000	17.9	1	1
03/17/06	8:36 a	-24.6	-24.6	-24.7	---	---	22.6	E	0.38	27.8	-40.5	---	---	724.8	0.030	0.000	17.9	1	1
03/17/06	8:37 a	-24.7	-24.6	-24.7	---	---	21.7	E	0.36	28.7	-40.3	---	---	724.9	0.030	0.000	17.9	1	1
03/17/06	8:38 a	-24.7	-24.6	-24.7	---	---	20.9	E	0.35	24.3	-40.1	---	---	724.8	0.030	0.000	17.9	1	1
03/17/06	8:39 a	-24.7	-24.7	-24.7	---	---	22.6	E	0.38	27.8	-40.6	---	---	724.8	0.030	0.000	17.9	1	1
03/17/06	8:40 a	-24.7	-24.6	-24.7	---	---	20.9	E	0.35	25.2	-40.1	---	---	724.9	0.030	0.000	17.9	1	1
03/17/06	8:41 a	-24.7	-24.6	-24.7	---	---	22.6	E	0.38	28.7	-40.6	---	---	725.0	0.030	0.000	17.9	1	1
03/17/06	8:42 a	-24.7	-24.7	-24.7	---	---	20.0	E	0.33	23.5	-39.8	---	---	724.9	0.030	0.000	17.9	1	1
03/17/06	8:43 a	-24.7	-24.7	-24.7	---	---	20.0	E	0.33	22.6	-39.8	---	---	724.9	0.030	0.000	17.9	1	1
03/17/06	8:44 a	-24.7	-24.7	-24.7	---	---	21.7	E	0.36	24.3	-40.3	---	---	724.8	0.030	0.000	17.9	1	1
03/17/06	8:45 a	-24.7	-24.7	-24.7	---	---	20.9	E	0.35	24.3	-40.1	---	---	724.9	0.030	0.000	17.9	1	1
03/17/06	8:46 a	-24.7	-24.7	-24.7	---	---	22.6	E	0.38	25.2	-40.6	---	---	724.9	0.030	0.000	17.9	1	1
03/17/06	8:47 a	-24.7	-24.7	-24.7	---	---	20.9	E	0.35	27.0	-40.1	---	---	724.8	0.030	0.000	17.9	1	1
03/17/06	8:48 a	-24.7	-24.7	-24.7	---	---	21.7	E	0.36	25.2	-40.4	---	---	724.8	0.030	0.000	17.8	1	1
03/17/06	8:49 a	-24.7	-24.7	-24.7	---	---	23.5	E	0.39	27.8	-40.9	---	---	724.8	0.030	0.000	17.9	1	1
03/17/06	8:50 a	-24.7	-24.7	-24.7	---	---	23.5	E	0.39	27.0	-40.9	---	---	724.8	0.030	0.000	17.9	1	1
03/17/06	8:51 a	-24.7	-24.7	-24.7	---	---	23.5	E	0.39	28.7	-40.9	---	---	724.8	0.030	0.000	17.8	1	1
03/17/06	8:52 a	-24.7	-24.7	-24.7	---	---	22.6	E	0.38	27.0	-40.6	---	---	724.8	0.030	0.000	17.8	1	1
03/17/06	8:53 a	-24.7	-24.7	-24.7	---	---	23.5	E	0.39	27.0	-40.9	---	---	724.7	0.030	0.000	17.8	1	1
03/17/06	8:54 a	-24.7	-24.7	-24.7	---	---	24.3	E	0.41	26.1	-41.1	---	---	724.8	0.030	0.000	17.8	1	1
03/17/06	8:55 a	-24.7	-24.7	-24.8	---	---	22.6	E	0.38	26.1	-40.6	---	---	724.8	0.030	0.000	17.8	1	1
03/17/06	8:56 a	-24.7	-24.7	-24.8	---	---	23.5	E	0.39	27.8	-40.9	---	---	724.8	0.030	0.000	17.8	1	1
03/17/06	8:57 a	-24.7	-24.7	-24.8	---	---	23.5	E	0.39	27.0	-40.9	---	---	724.7	0.030	0.000	17.8	1	1
03/17/06	8:58 a	-24.7	-24.7	-24.8	---	---	23.5	E	0.39	27.8	-40.9	---	---	724.7	0.030	0.000	17.8	1	1
03/17/06	8:59 a	-24.7	-24.7	-24.8	---	---	23.5	E	0.39	26.1	-40.9	---	---	724.7	0.030	0.000	17.8	1	1
03/17/06	9:00 a	-24.8	-24.8	-24.8	---	---	23.5	E	0.39	27.0	-40.9	---	---	724.8	0.030	0.000	17.8	1	1
03/17/06	9:01 a	-24.8	-24.8	-24.8	---	---	23.5	E	0.39	26.1	-40.9	---	---	724.8	0.030	0.000	17.8	1	1
03/17/06	9:02 a	-24.8	-24.8	-24.8	---	---	22.6	E	0.38	25.2	-40.7	---	---	724.8	0.030	0.000	17.8	1	1
03/17/06	9:03 a	-24.8	-24.8	-24.8	---	---	22.6	E	0.38	27.0	-40.7	---	---	724.8	0.030	0.000	17.9	1	1
03/17/06	9:04 a	-24.8	-24.8	-24.8	---	---	23.5	E	0.39	27.8	-40.9	---	---	724.8	0.030	0.000	17.9	1	1
03/17/06	9:05 a	-24.8	-24.8	-24.8	---	---	23.5	E	0.39	26.1	-40.9	---	---	724.9	0.030	0.000	17.9	1	1
03/17/06	9:06 a	-24.8	-24.8	-24.8	---	---	21.7	E	0.36	25.2	-40.6	---	---	724.8	0.030	0.000	17.9	1	1
03/17/06	9:07 a	-24.8	-24.8	-24.8	---	---	22.6	ENE	0.38	27.0	-40.7	---	---	724.9	0.030	0.000	18.0	1	1
03/17/06	9:08 a	-24.8	-24.8	-24.8	---	---	21.7	E	0.36	25.2	-40.6	---	---	724.8	0.030	0.000	18.1	1	1
03/17/06	9:09 a	-24.8	-24.8	-24.8	---	---	21.7	E	0.36	25.2	-40.6	---	---	724.8	0.030	0.000	18.1	1	1
03/17/06	9:10 a	-24.8	-24.8	-24.8	---	---	22.6	E	0.38	26.1	-40.8	---	---	724.8	0.030	0.000	18.1	1	1
03/17/06	9:11 a	-24.8	-24.8	-24.8	---	---	21.7	E	0.36	24.3	-40.6	---	---	724.9	0.030	0.000	18.2	1	1
03/17/06	9:12 a	-24.8	-24.8	-24.8	---	---	22.6	E	0.38	26.1	-40.8	---	---	724.8	0.030	0.000	18.2	1	1
03/17/06	9:13 a	-24.8	-24.8	-24.9	---	---	23.5	E	0.39	26.1	-41.0	---	---	724.8	0.030	0.000	18.2	1	1
03/17/06	9:14 a	-24.8	-24.8	-24.8	---	---	23.5	E	0.39	25.2	-41.0	---	---	724.8	0.030	0.000	18.2	1	1
03/17/06	9:15 a	-24.8	-24.8	-24.9	---	---	22.6	E	0.38	26.1	-40.8	---	---	724.8	0.030	0.000	18.2	1	1
03/17/06	9:16 a	-24.9	-24.9	-24.9	---	---	21.7	E	0.36	24.3	-40.6	---	---	724.8	0.030	0.000	18.2	1	1
03/17/06	9:17 a	-24.9	-24.9	-24.9	---	---	20.0	E	0.33	28.7	-40.1	---	---	724.8	0.030	0.000	18.2	1	1
03/17/06	9:18 a	-24.9	-24.9	-24.9	---	---	22.6	E	0.38	26.1	-40.8	---	---	724.8	0.030	0.000	18.2	1	1
03/17/06	9:19 a	-24.9	-24.9	-24.9	---	---	22.6	E	0.38	27.0	-40.8	---	---	724.7	0.030	0.000	18.2	1	1
03/17/06	9:20 a	-24.9	-24.9	-24.9	---	---	22.6	E	0.38	26.1	-40.8	---	---	724.8	0.030	0.000	18.2	1	1
03/17/06	9:21 a	-24.9	-24.9	-24.9	---	---	21.7	E	0.36	27.0	-40.6	---	---	724.8	0.030	0.000	18.2	1	1
03/17/06	9:22 a	-24.9	-24.9	-24.9	---	---	21.7	E	0.36	25.2	-40.6	---	---	724.7	0.030	0.000	18.2	1	1
03/17/06	9:23 a	-24.9	-24.9	-24.9	---	---	22.6	E	0.38	26.1	-40.8	---	---	724.7	0.030	0.000	18.1	1	1
03/17/06	9:24 a	-24.9	-24.9	-24.9	---	---	22.6	E	0.38	26.1	-40.9	---	---	724.8	0.030	0.000	18.1	1	1
03/17/06	9:25 a	-24.9	-24.9	-24.9	---	---	22.6	E	0.38	27.0	-40.9	---	---	724.7	0.030	0.000	18.1	1	1
03/17/06	9:26 a	-24.9	-24.9	-24.9	---	---	21.7	E	0.36	24.3	-40.7	---	---	724.8	0.030	0.000	18.1	1	1
03/17/06	9:27 a	-24.9	-24.9	-24.9	---	---	21.7	E	0.36	26.1	-40.7	---	---	724.7	0.030	0.000	18.1	1	1
03/17/06	9:28 a	-24.9	-24.9	-24.9	---	---	20.9	E	0.35	25.2	-40.4	---	---	724.7	0.030	0.000	18.1	1	1
03/17/06	9:29 a	-24.9	-24.9	-24.9	---	---	21.7	E	0.36	25.2	-40.7	---	---	724.8	0.030	0.000	18.1	1	1
03/17/06	9:30 a	-24.9	-24.9	-24.9	---	---	22.6	E	0.38	25.2	-40.9	---	---	724.7	0.030	0.000	18.1	1	1
03/17/06	9:31 a	-24.9	-24.9	-24.9	---	---	22.6	E	0.38	24.3	-40.9	---	---	724.7	0.030	0.000	18.1	1	1
03/17/06	9:32 a	-24.9	-24.9	-24.9	---	---	23.5	E	0.39	27.0	-41.2	---	---	724.7	0.030	0.000	18.1	1	1
03/17/06	9:33 a	-24.9	-24.9	-25.0	---	---	21.7	E	0.36	27.0	-40.7	---	---	724.7	0.030	0.000	18.1	1	1
03/17/06	9:34 a	-24.9	-24.9	-25.0	---	---	22.6	E	0.38	26.1	-40.9	---	---	724.7	0.030	0.000	18.1	1	1
03/17/06	9:35 a	-24.9	-24.9	-25.0	---	---	23.5	E	0.39	28.7	-41.2	---	---	724.8	0.030	0.000	18.1	1	1
03/17/06	9:36 a	-24.9	-24.9	-24.9	---	---	21.7	E	0.36	26.1	-40.7	---	---	724.7	0.030	0.000	18.1	1	1
03/17/06	9:37 a	-24.9	-24.9	-25.0	---	---	21.7	E	0.36	27.8	-40.7	---	---	724.7	0.030	0.000	18.1	1	1
03/17/06	9:38 a	-25.0	-25.0	-25.0	---	---	20.9	E	0.35	25.2	-40.5	---	---	724.6	0.030	0.000	18.1	1	1
03/17/06	9:39 a	-25.0	-25.0	-25.0	---	---	22.6	E	0.38	25.2	-41.0	---	---	724.7	0.030	0.000	18.1	1	1
03/17/06	9:40 a	-25.0	-25.0	-25.0	---	---	21.7	E	0.36	25.2	-40.8	---	---	724.6	0.030	0.000	18.0	1	1
03/17/06	9:41 a	-25.0	-25.0	-25.0	---	---	20.9	E	0.35	26.1	-40.5	---	---	724.6	0.030	0.000	18.0	1	1
03/17/06	9:42 a	-25.0	-25.0	-25.0	---	---	21.7	E	0.36	25.2	-40.8	---	---	724.6	0.030	0.000	18.0	1	1
03/17/06	9:43 a	-25.0	-25.0	-25.0	---	---	21.7	E	0.36	25.2	-40.8	---	---	724.5	0.030	0.000	18.0	1	1
03/17/06	9:44 a	-25.1	-25.0	-25.1	---	---	22.6	E	0.38	25.2	-41.1	---	---	724.5	0.030	0.000	18.0	1	1
03/17/06	9:45 a	-25.0	-25.0	-25.1	---	---	22.6	E	0.38	26.1	-41.0	---	---	724.5	0.030	0.000	18.0	1	1
03/17/06	9:46 a	-25.1	-25.1	-25.1	---	---	22.6	E	0.38	27.8	-41.1	---	---	724.5	0.030	0.000	18.0	1	1
03/17/06	9:47 a	-25.0	-25.0	-25.1	---	---	23.5	E	0.39	27.8	-41.2	---	---	724.5	0.030	0.000	18.0	1	1
03/17/06	9:48 a	-25.0	-25.0	-25.1	---	---	21.7	E	0.36	25.2	-40.8	---	---	724.6	0.030	0.000	18.0	1	1
03/17/06	9:49 a	-25.1	-25.0	-25.1	---	---	21.7	E	0.36	27.8	-40.8	---	---	724.6	0.030	0.000	18.0	1	1
03/17/06	9:50 a	-25.0	-25.0	-25.1	---	---	22.6	E	0.38	27.8	-41.0	---	---	724.5	0.030	0.000	18.0	1	1
03/17/06	9:51 a	-25.1	-25.0	-25.1	---	---	22.6	E	0.38	27.0	-41.1	---	---	724.5	0.030	0.000	17.9	1	1
03/17/06	9:52 a	-25.1	-25.0	-25.1	---	---	22.6	E	0.38	27.0	-41.1	---	---	724.6	0.030	0.000	17.9	1	1
03/17/06	9:53 a	-25.1	-25.1	-25.1	---	---	22.6	E	0.38	26.1	-41.1	---	---	724.4	0.030	0.000	18.0	1	1
03/17/06	9:54 a	-25.1	-25.1	-25.1	---	---	21.7	E	0.36	24.3	-40.8	---	---	724.5	0.030	0.000	17.9	1	1
03/17/06	9:55 a	-25.1	-25.1	-25.1	---	---	21.7	E	0.36	26.1	-40.8	---	---	724.5	0.030	0.000	17.9	1	1
03/17/06	9:56 a	-25.1	-25.1	-25.1	---	---	23.5	E	0.39	26.1	-41.3	---	---	724.5	0.030	0.000	17.9	1	1
03/17/06	9:57 a	-25.1	-25.1	-25.1	---	---	22.6	E	0.38	27.0	-41.2	---	---	724.5	0.030	0.000	17.9	1	1
03/17/06	9:58 a	-25.1	-25.1	-25.1	---	---	21.7	E	0.36	27.8	-40.9	---	---	724.5	0.030	0.000	17.9	1	1
03/17/06	9:59 a	-25.1	-25.1	-25.1	---	---	22.6	E	0.38	27.8	-41.2	---	---	724.5	0.030	0.000	17.9	1	1
03/17/06	10:00 a	-25.1	-25.1	-25.1	---	---	22.6	E	0.38	27.8	-41.1	---	---	724.5	0.030	0.000	17.9	1	1
03/17/06	10:01 a	-25.1	-25.1	-25.1	---	---	21.7	E	0.36	25.2	-40.9	---	---	724.4	0.030	0.000	17.9	1	1
03/17/06	10:02 a	-25.1	-25.1	-25.1	---	---	22.6	E	0.38	26.1	-41.2	---	---	724.5	0.030	0.000	17.9	1	1
03/17/06	10:03 a	-25.1	-25.1	-25.1	---	---	20.9	E	0.35	25.2	-40.7	---	---	724.6	0.030	0.000	17.9	1	1
03/17/06	10:04 a	-25.1	-25.1	-25.1	---	---	22.6	E	0.38	27.0	-41.2	---	---	724.5	0.030	0.000	17.9	1	1
03/17/06	10:05 a	-25.1	-25.1	-25.1	---	---	21.7	E	0.36	26.1	-40.9	---	---	724.5	0.030	0.000	17.9	1	1
03/17/06	10:06 a	-25.1	-25.1	-25.1	---	---	23.5	E	0.39	27.8	-41.4	---	---	724.5	0.030	0.000	17.9	1	1
03/17/06	10:07 a	-25.1	-25.1	-25.2	---	---	25.2	E	0.42	30.4	-41.8	---	---	724.4	0.030	0.000	17.9	1	1
03/17/06	10:08 a	-25.1	-25.1	-25.1	---	---	24.3	E	0.41	27.8	-41.6	---	---	724.5	0.030	0.000	17.9	1	1
03/17/06	10:09 a	-25.1	-25.1	-25.1	---	---	22.6	E	0.38	27.0	-41.2	---	---	724.7	0.030	0.000	17.9	1	1
03/17/06	10:10 a	-25.1	-25.1	-25.2	---	---	23.5	E	0.39	27.8	-41.4	---	---	724.5	0.030	0.000	17.9	1	1
03/17/06	10:11 a	-25.2	-25.1	-25.2	---	---	21.7	E	0.36	26.1	-41.0	---	---	724.5	0.030	0.000	17.9	1	1
03/17/06	10:12 a	-25.1	-25.1	-25.2	---	---	19.1	E	0.32	24.3	-40.1	---	---	724.6	0.030	0.000	17.9	1	1
03/17/06	10:13 a	-25.1	-25.1	-25.2	---	---	21.7	E	0.36	26.1	-40.9	---	---	724.6	0.030	0.000	17.9	1	1
03/17/06	10:14 a	-25.1	-25.1	-25.2	---	---	23.5	E	0.39	27.0	-41.4	---	---	724.5	0.030	0.000	17.9	1	1
03/17/06	10:15 a	-25.2	-25.1	-25.2	---	---	21.7	E	0.36	25.2	-41.0	---	---	724.5	0.030	0.000	17.9	1	1
03/17/06	10:16 a	-25.2	-25.1	-25.2	---	---	22.6	E	0.38	27.0	-41.2	---	---	724.5	0.030	0.000	17.9	1	1
03/17/06	10:17 a	-25.2	-25.2	-25.2	---	---	21.7	E	0.36	25.2	-41.0	---	---	724.6	0.030	0.000	17.9	1	1
03/17/06	10:18 a	-25.2	-25.2	-25.2	---	---	20.0	E	0.33	26.1	-40.5	---	---	724.5	0.030	0.000	17.9	1	1
03/17/06	10:19 a	-25.2	-25.2	-25.2	---	---	21.7	E	0.36	25.2	-41.0	---	---	724.6	0.030	0.000	17.9	1	1
03/17/06	10:20 a	-25.2	-25.2	-25.2	---	---	23.5	E	0.39	26.1	-41.4	---	---	724.5	0.030	0.000	17.9	1	1
03/17/06	10:21 a	-25.2	-25.2	-25.2	---	---	22.6	E	0.38	26.1	-41.2	---	---	724.5	0.030	0.000	17.9	1	1
03/17/06	10:22 a	-25.2	-25.2	-25.2	---	---	21.7	E	0.36	27.0	-41.0	---	---	724.5	0.030	0.000	17.9	1	1
03/17/06	10:23 a	-25.2	-25.2	-25.2	---	---	22.6	E	0.38	27.8	-41.2	---	---	724.6	0.030	0.000	17.9	1	1
03/17/06	10:24 a	-25.2	-25.2	-25.2	---	---	20.0	E	0.33	26.1	-40.5	---	---	724.5	0.030	0.000	18.0	1	1
03/17/06	10:25 a	-25.2	-25.2	-25.2	---	---	21.7	E	0.36	27.0	-41.0	---	---	724.5	0.030	0.000	18.1	1	1
03/17/06	10:26 a	-25.2	-25.2	-25.2	---	---	19.1	E	0.32	24.3	-40.2	---	---	724.5	0.030	0.000	18.1	1	1
03/17/06	10:27 a	-25.2	-25.2	-25.2	---	---	21.7	E	0.36	27.0	-41.1	---	---	724.5	0.030	0.000	18.1	1	1
03/17/06	10:28 a	-25.2	-25.2	-25.2	---	---	20.0	E	0.33	23.5	-40.6	---	---	724.6	0.030	0.000	18.1	1	1
03/17/06	10:29 a	-25.2	-25.2	-25.2	---	---	21.7	E	0.36	27.0	-41.1	---	---	724.6	0.030	0.000	18.1	1	1
03/17/06	10:30 a	-25.2	-25.2	-25.2	---	---	20.9	E	0.35	24.3	-40.8	---	---	724.6	0.030	0.000	18.1	1	1
03/17/06	10:31 a	-25.2	-25.2	-25.2	---	---	21.7	E	0.36	24.3	-41.1	---	---	724.5	0.030	0.000	18.1	1	1
03/17/06	10:32 a	-25.2	-25.2	-25.2	---	---	21.7	ENE	0.36	24.3	-41.1	---	---	724.6	0.030	0.000	18.1	1	1
03/17/06	10:33 a	-25.2	-25.2	-25.2	---	---	21.7	E	0.36	24.3	-41.1	---	---	724.6	0.030	0.000	18.1	1	1
03/17/06	10:34 a	-25.2	-25.2	-25.2	---	---	20.9	E	0.35	24.3	-40.7	---	---	724.6	0.030	0.000	18.1	1	1
03/17/06	10:35 a	-25.2	-25.2	-25.2	---	---	20.9	E	0.35	24.3	-40.8	---	---	724.6	0.030	0.000	18.1	1	1
03/17/06	10:36 a	-25.2	-25.2	-25.2	---	---	20.9	E	0.35	26.1	-40.8	---	---	724.6	0.030	0.000	18.1	1	1
03/17/06	10:37 a	-25.2	-25.2	-25.2	---	---	20.9	E	0.35	24.3	-40.8	---	---	724.5	0.030	0.000	18.1	1	1
03/17/06	10:38 a	-25.2	-25.2	-25.2	---	---	20.0	E	0.33	23.5	-40.6	---	---	724.6	0.030	0.000	18.1	1	1
03/17/06	10:39 a	-25.2	-25.2	-25.2	---	---	20.0	E	0.33	22.6	-40.6	---	---	724.6	0.030	0.000	18.1	1	1
03/17/06	10:40 a	-25.2	-25.2	-25.2	---	---	21.7	E	0.36	25.2	-41.1	---	---	724.5	0.030	0.000	18.1	1	1
03/17/06	10:41 a	-25.2	-25.2	-25.2	---	---	20.0	E	0.33	25.2	-40.6	---	---	724.6	0.030	0.000	18.0	1	1
03/17/06	10:42 a	-25.2	-25.2	-25.2	---	---	22.6	E	0.38	25.2	-41.3	---	---	724.5	0.030	0.000	18.0	1	1
03/17/06	10:43 a	-25.2	-25.2	-25.3	---	---	22.6	E	0.38	26.1	-41.3	---	---	724.6	0.030	0.000	18.0	1	1
03/17/06	10:44 a	-25.2	-25.2	-25.3	---	---	18.3	E	0.30	21.7	-40.0	---	---	724.6	0.030	0.000	18.0	1	1
03/17/06	10:45 a	-25.3	-25.2	-25.3	---	---	23.5	E	0.39	28.7	-41.6	---	---	724.5	0.030	0.000	18.0	1	1
03/17/06	10:46 a	-25.2	-25.2	-25.2	---	---	20.0	E	0.33	26.1	-40.6	---	---	724.6	0.030	0.000	17.9	1	1
03/17/06	10:47 a	-25.3	-25.2	-25.3	---	---	21.7	E	0.36	25.2	-41.1	---	---	724.4	0.030	0.000	17.9	1	1
03/17/06	10:48 a	-25.3	-25.3	-25.3	---	---	20.0	E	0.33	29.6	-40.6	---	---	724.6	0.030	0.000	17.9	1	1
03/17/06	10:49 a	-25.3	-25.3	-25.3	---	---	20.9	E	0.35	23.5	-40.9	---	---	724.4	0.030	0.000	17.9	1	1
03/17/06	10:50 a	-25.3	-25.3	-25.3	---	---	20.9	E	0.35	25.2	-40.9	---	---	724.5	0.030	0.000	17.9	1	1
03/17/06	10:51 a	-25.3	-25.2	-25.3	---	---	20.9	E	0.35	24.3	-40.9	---	---	724.5	0.030	0.000	17.9	1	1
03/17/06	10:52 a	-25.3	-25.2	-25.3	---	---	20.9	E	0.35	23.5	-40.9	---	---	724.5	0.030	0.000	17.9	1	1
03/17/06	10:53 a	-25.2	-25.2	-25.3	---	---	20.0	E	0.33	23.5	-40.6	---	---	724.4	0.030	0.000	17.9	1	1
03/17/06	10:54 a	-25.3	-25.2	-25.3	---	---	21.7	E	0.36	26.1	-41.1	---	---	724.5	0.030	0.000	17.8	1	1
03/17/06	10:55 a	-25.3	-25.3	-25.3	---	---	21.7	E	0.36	26.1	-41.1	---	---	724.4	0.030	0.000	17.8	1	1
03/17/06	10:56 a	-25.3	-25.3	-25.3	---	---	21.7	E	0.36	25.2	-41.1	---	---	724.3	0.030	0.000	17.8	1	1
03/17/06	10:57 a	-25.3	-25.3	-25.3	---	---	22.6	E	0.38	26.1	-41.4	---	---	724.3	0.030	0.000	17.8	1	1
03/17/06	10:58 a	-25.3	-25.3	-25.3	---	---	20.9	E	0.35	24.3	-40.9	---	---	724.3	0.030	0.000	17.8	1	1
03/17/06	10:59 a	-25.3	-25.3	-25.3	---	---	20.9	E	0.35	24.3	-40.9	---	---	724.3	0.030	0.000	17.8	1	1
03/17/06	11:00 a	-25.3	-25.3	-25.3	---	---	21.7	E	0.36	25.2	-41.2	---	---	724.4	0.030	0.000	17.8	1	1
03/17/06	11:01 a	-25.3	-25.3	-25.3	---	---	21.7	E	0.36	26.1	-41.1	---	---	724.3	0.030	0.000	17.8	1	1
03/17/06	11:02 a	-25.3	-25.3	-25.3	---	---	22.6	E	0.38	25.2	-41.4	---	---	724.3	0.030	0.000	17.8	1	1
03/17/06	11:03 a	-25.3	-25.3	-25.3	---	---	22.6	E	0.38	24.3	-41.4	---	---	724.4	0.030	0.000	17.8	1	1
03/17/06	11:04 a	-25.3	-25.3	-25.3	---	---	21.7	E	0.36	27.0	-41.1	---	---	724.3	0.030	0.000	17.8	1	1
03/17/06	11:05 a	-25.3	-25.3	-25.3	---	---	20.9	E	0.35	25.2	-40.9	---	---	724.3	0.030	0.000	17.8	1	1
03/17/06	11:06 a	-25.3	-25.3	-25.3	---	---	20.9	E	0.35	26.1	-40.9	---	---	724.4	0.030	0.000	17.8	1	1
03/17/06	11:07 a	-25.3	-25.3	-25.3	---	---	21.7	E	0.36	27.0	-41.2	---	---	724.3	0.030	0.000	17.8	1	1
03/17/06	11:08 a	-25.3	-25.3	-25.3	---	---	22.6	E	0.38	25.2	-41.4	---	---	724.4	0.030	0.000	17.9	1	1
03/17/06	11:09 a	-25.3	-25.3	-25.3	---	---	21.7	E	0.36	26.1	-41.2	---	---	724.3	0.030	0.000	17.9	1	1
03/17/06	11:10 a	-25.3	-25.3	-25.3	---	---	21.7	E	0.36	26.1	-41.2	---	---	724.3	0.030	0.000	17.9	1	1
03/17/06	11:11 a	-25.3	-25.3	-25.3	---	---	22.6	E	0.38	26.1	-41.4	---	---	724.3	0.030	0.000	17.9	1	1
03/17/06	11:12 a	-25.3	-25.3	-25.3	---	---	22.6	E	0.38	25.2	-41.4	---	---	724.3	0.030	0.000	18.0	1	1
03/17/06	11:13 a	-25.3	-25.3	-25.3	---	---	22.6	E	0.38	25.2	-41.4	---	---	724.4	0.030	0.000	18.1	1	1
03/17/06	11:14 a	-25.3	-25.3	-25.3	---	---	21.7	E	0.36	24.3	-41.2	---	---	724.4	0.030	0.000	18.1	1	1
03/17/06	11:15 a	-25.3	-25.3	-25.3	---	---	22.6	E	0.38	26.1	-41.4	---	---	724.4	0.030	0.000	18.1	1	1
03/17/06	11:16 a	-25.3	-25.3	-25.3	---	---	21.7	E	0.36	26.1	-41.2	---	---	724.4	0.030	0.000	18.1	1	1
03/17/06	11:17 a	-25.3	-25.3	-25.4	---	---	21.7	E	0.36	24.3	-41.2	---	---	724.3	0.030	0.000	18.1	1	1
03/17/06	11:18 a	-25.3	-25.3	-25.4	---	---	22.6	E	0.38	25.2	-41.4	---	---	724.3	0.030	0.000	18.1	1	1
03/17/06	11:19 a	-25.3	-25.3	-25.3	---	---	20.9	E	0.35	27.0	-40.9	---	---	724.3	0.030	0.000	18.1	1	1
03/17/06	11:20 a	-25.3	-25.3	-25.3	---	---	22.6	E	0.38	26.1	-41.4	---	---	724.3	0.030	0.000	18.1	1	1
03/17/06	11:21 a	-25.4	-25.4	-25.4	---	---	20.9	E	0.35	25.2	-41.1	---	---	724.2	0.030	0.000	18.1	1	1
03/17/06	11:22 a	-25.4	-25.4	-25.4	---	---	20.9	E	0.35	27.0	-41.1	---	---	724.3	0.030	0.000	18.1	1	1
03/17/06	11:23 a	-25.3	-25.3	-25.3	---	---	21.7	E	0.36	27.0	-41.2	---	---	724.4	0.030	0.000	18.1	1	1
03/17/06	11:24 a	-25.4	-25.3	-25.4	---	---	21.7	E	0.36	26.1	-41.3	---	---	724.3	0.030	0.000	18.1	1	1
03/17/06	11:25 a	-25.4	-25.3	-25.4	---	---	21.7	E	0.36	25.2	-41.3	---	---	724.3	0.030	0.000	18.0	1	1
03/17/06	11:26 a	-25.3	-25.3	-25.3	---	---	21.7	E	0.36	25.2	-41.2	---	---	724.3	0.030	0.000	18.0	1	1
03/17/06	11:27 a	-25.3	-25.3	-25.4	---	---	22.6	E	0.38	27.0	-41.4	---	---	724.3	0.030	0.000	18.0	1	1
03/17/06	11:28 a	-25.3	-25.3	-25.4	---	---	22.6	E	0.38	27.0	-41.4	---	---	724.3	0.030	0.000	18.0	1	1
03/17/06	11:29 a	-25.3	-25.3	-25.4	---	---	22.6	E	0.38	25.2	-41.4	---	---	724.3	0.030	0.000	18.0	1	1
03/17/06	11:30 a	-25.3	-25.3	-25.4	---	---	24.3	E	0.41	27.8	-41.9	---	---	724.2	0.030	0.000	17.9	1	1
03/17/06	11:31 a	-25.4	-25.3	-25.4	---	---	21.7	E	0.36	23.5	-41.3	---	---	724.3	0.030	0.000	17.9	1	1
03/17/06	11:32 a	-25.4	-25.4	-25.4	---	---	21.7	E	0.36	27.0	-41.3	---	---	724.3	0.030	0.000	17.9	1	1
03/17/06	11:33 a	-25.3	-25.3	-25.3	---	---	20.0	E	0.33	24.3	-40.7	---	---	724.3	0.030	0.000	17.9	1	1
03/17/06	11:34 a	-25.3	-25.3	-25.3	---	---	22.6	E	0.38	26.1	-41.4	---	---	724.2	0.030	0.000	17.9	1	1
03/17/06	11:35 a	-25.4	-25.3	-25.4	---	---	21.7	E	0.36	25.2	-41.3	---	---	724.3	0.030	0.000	17.9	1	1
03/17/06	11:36 a	-25.3	-25.3	-25.4	---	---	21.7	E	0.36	26.1	-41.2	---	---	724.3	0.030	0.000	17.9	1	1
03/17/06	11:37 a	-25.3	-25.3	-25.3	---	---	22.6	E	0.38	25.2	-41.4	---	---	724.3	0.030	0.000	17.9	1	1
03/17/06	11:38 a	-25.3	-25.3	-25.3	---	---	20.9	E	0.35	23.5	-40.9	---	---	724.3	0.030	0.000	17.9	1	1
03/17/06	11:39 a	-25.4	-25.4	-25.4	---	---	21.7	E	0.36	25.2	-41.3	---	---	724.4	0.030	0.000	17.9	1	1
03/17/06	11:40 a	-25.3	-25.3	-25.3	---	---	20.9	E	0.35	26.1	-40.9	---	---	724.3	0.030	0.000	17.9	1	1
03/17/06	11:41 a	-25.3	-25.3	-25.3	---	---	21.7	E	0.36	25.2	-41.2	---	---	724.4	0.030	0.000	17.9	1	1
03/17/06	11:42 a	-25.3	-25.3	-25.3	---	---	19.1	E	0.32	24.3	-40.4	---	---	724.3	0.030	0.000	17.9	1	1
03/17/06	11:43 a	-25.3	-25.3	-25.4	---	---	21.7	E	0.36	27.8	-41.2	---	---	724.4	0.030	0.000	17.9	1	1
03/17/06	11:44 a	-25.4	-25.3	-25.4	---	---	20.9	E	0.35	23.5	-41.1	---	---	724.3	0.030	0.000	17.9	1	1
03/17/06	11:45 a	-25.3	-25.3	-25.3	---	---	20.9	E	0.35	26.1	-40.9	---	---	724.3	0.030	0.000	17.9	1	1
03/17/06	11:46 a	-25.4	-25.3	-25.4	---	---	20.0	E	0.33	26.1	-40.8	---	---	724.3	0.030	0.000	17.9	1	1
03/17/06	11:47 a	-25.4	-25.3	-25.4	---	---	20.9	E	0.35	24.3	-41.1	---	---	724.4	0.030	0.000	17.9	1	1
03/17/06	11:48 a	-25.4	-25.3	-25.4	---	---	19.1	E	0.32	25.2	-40.5	---	---	724.3	0.030	0.000	17.9	1	1
03/17/06	11:49 a	-25.3	-25.3	-25.4	---	---	20.9	E	0.35	23.5	-40.9	---	---	724.4	0.030	0.000	17.9	1	1
03/17/06	11:50 a	-25.3	-25.3	-25.4	---	---	21.7	E	0.36	24.3	-41.2	---	---	724.3	0.030	0.000	17.8	1	1
03/17/06	11:51 a	-25.4	-25.3	-25.4	---	---	20.9	E	0.35	25.2	-41.1	---	---	724.3	0.030	0.000	17.8	1	1
03/17/06	11:52 a	-25.4	-25.3	-25.4	---	---	20.9	E	0.35	25.2	-41.1	---	---	724.3	0.030	0.000	17.8	1	1
03/17/06	11:53 a	-25.4	-25.3	-25.4	---	---	20.0	E	0.33	25.2	-40.8	---	---	724.2	0.030	0.000	17.8	1	1
03/17/06	11:54 a	-25.3	-25.3	-25.4	---	---	18.3	E	0.30	23.5	-40.2	---	---	724.2	0.030	0.000	17.8	1	1
03/17/06	11:55 a	-25.3	-25.3	-25.3	---	---	20.9	E	0.35	24.3	-40.9	---	---	724.2	0.030	0.000	17.8	1	1
03/17/06	11:56 a	-25.4	-25.4	-25.4	---	---	19.1	E	0.32	23.5	-40.5	---	---	724.2	0.030	0.000	17.8	1	1
03/17/06	11:57 a	-25.4	-25.3	-25.4	---	---	20.0	E	0.33	24.3	-40.8	---	---	724.2	0.030	0.000	17.8	1	1
03/17/06	11:58 a	-25.4	-25.3	-25.4	---	---	20.9	E	0.35	24.3	-41.1	---	---	724.3	0.030	0.000	17.8	1	1
03/17/06	11:59 a	-25.3	-25.3	-25.3	---	---	21.7	E	0.36	24.3	-41.2	---	---	724.2	0.030	0.000	17.8	1	1
03/17/06	12:00 p	-25.4	-25.3	-25.4	---	---	20.0	E	0.33	26.1	-40.8	---	---	724.2	0.030	0.000	17.9	1	1
03/17/06	12:01 p	-25.3	-25.3	-25.3	---	---	22.6	E	0.38	26.1	-41.4	---	---	724.1	0.030	0.000	17.9	1	1
03/17/06	12:02 p	-25.4	-25.4	-25.4	---	---	20.0	E	0.33	23.5	-40.8	---	---	724.2	0.030	0.000	17.9	1	1
03/17/06	12:03 p	-25.4	-25.3	-25.4	---	---	20.9	E	0.35	24.3	-41.1	---	---	724.1	0.030	0.000	17.9	1	1
03/17/06	12:04 p	-25.4	-25.3	-25.4	---	---	22.6	E	0.38	27.0	-41.5	---	---	724.2	0.030	0.000	18.0	1	1
03/17/06	12:05 p	-25.4	-25.4	-25.4	---	---	20.9	E	0.35	25.2	-41.1	---	---	724.1	0.030	0.000	18.1	1	1
03/17/06	12:06 p	-25.4	-25.3	-25.4	---	---	23.5	E	0.39	27.8	-41.8	---	---	724.2	0.030	0.000	18.1	1	1
03/17/06	12:07 p	-25.4	-25.3	-25.4	---	---	20.9	E	0.35	25.2	-41.1	---	---	724.2	0.030	0.000	18.1	1	1
03/17/06	12:08 p	-25.4	-25.4	-25.4	---	---	22.6	E	0.38	24.3	-41.5	---	---	724.2	0.030	0.000	18.1	1	1
03/17/06	12:09 p	-25.4	-25.3	-25.4	---	---	22.6	E	0.38	26.1	-41.5	---	---	724.1	0.030	0.000	18.2	1	1
03/17/06	12:10 p	-25.4	-25.3	-25.4	---	---	20.9	E	0.35	25.2	-41.1	---	---	724.0	0.030	0.000	18.2	1	1
03/17/06	12:11 p	-25.4	-25.3	-25.4	---	---	21.7	E	0.36	26.1	-41.3	---	---	724.1	0.030	0.000	18.2	1	1
03/17/06	12:12 p	-25.4	-25.4	-25.4	---	---	20.9	E	0.35	27.0	-41.1	---	---	724.2	0.030	0.000	18.2	1	1
03/17/06	12:13 p	-25.4	-25.4	-25.4	---	---	21.7	E	0.36	26.1	-41.3	---	---	724.1	0.030	0.000	18.1	1	1
03/17/06	12:14 p	-25.4	-25.4	-25.4	---	---	20.9	E	0.35	27.0	-41.1	---	---	724.1	0.030	0.000	18.1	1	1
03/17/06	12:15 p	-25.4	-25.3	-25.4	---	---	20.9	E	0.35	27.0	-41.1	---	---	724.2	0.030	0.000	18.1	1	1
03/17/06	12:16 p	-25.4	-25.4	-25.4	---	---	20.9	E	0.35	25.2	-41.1	---	---	724.2	0.030	0.000	18.1	1	1
03/17/06	12:17 p	-25.4	-25.3	-25.4	---	---	22.6	E	0.38	25.2	-41.5	---	---	724.2	0.030	0.000	18.1	1	1
03/17/06	12:18 p	-25.4	-25.4	-25.4	---	---	22.6	E	0.38	26.1	-41.5	---	---	724.0	0.030	0.000	18.1	1	1
03/17/06	12:19 p	-25.4	-25.4	-25.4	---	---	21.7	E	0.36	27.0	-41.3	---	---	724.2	0.030	0.000	18.1	1	1
03/17/06	12:20 p	-25.4	-25.4	-25.4	---	---	20.9	E	0.35	24.3	-41.1	---	---	724.1	0.030	0.000	18.1	1	1
03/17/06	12:21 p	-25.4	-25.4	-25.4	---	---	20.9	E	0.35	25.2	-41.1	---	---	724.2	0.030	0.000	18.1	1	1
03/17/06	12:22 p	-25.4	-25.4	-25.4	---	---	21.7	E	0.36	27.8	-41.3	---	---	724.3	0.030	0.000	18.0	1	1
03/17/06	12:23 p	-25.4	-25.4	-25.4	---	---	21.7	E	0.36	25.2	-41.3	---	---	724.2	0.030	0.000	18.0	1	1
03/17/06	12:24 p	-25.4	-25.4	-25.4	---	---	20.9	E	0.35	23.5	-41.1	---	---	724.1	0.030	0.000	18.0	1	1
03/17/06	12:25 p	-25.4	-25.4	-25.4	---	---	20.9	E	0.35	24.3	-41.1	---	---	724.2	0.030	0.000	18.0	1	1
03/17/06	12:26 p	-25.4	-25.4	-25.4	---	---	20.9	E	0.35	25.2	-41.1	---	---	724.2	0.030	0.000	18.0	1	1
03/17/06	12:27 p	-25.4	-25.4	-25.4	---	---	21.7	E	0.36	24.3	-41.3	---	---	724.2	0.030	0.000	18.0	1	1
03/17/06	12:28 p	-25.4	-25.4	-25.4	---	---	20.0	E	0.33	24.3	-40.8	---	---	724.1	0.030	0.000	18.0	1	1
03/17/06	12:29 p	-25.4	-25.4	-25.4	---	---	22.6	E	0.38	26.1	-41.5	---	---	724.1	0.030	0.000	18.0	1	1
03/17/06	12:30 p	-25.4	-25.4	-25.4	---	---	20.9	E	0.35	24.3	-41.1	---	---	724.2	0.030	0.000	18.0	1	1
03/17/06	12:31 p	-25.4	-25.4	-25.4	---	---	22.6	E	0.38	26.1	-41.5	---	---	724.1	0.030	0.000	17.9	1	1
03/17/06	12:32 p	-25.4	-25.4	-25.4	---	---	20.0	E	0.33	23.5	-40.8	---	---	724.1	0.030	0.000	17.9	1	1
03/17/06	12:33 p	-25.4	-25.4	-25.4	---	---	21.7	E	0.36	25.2	-41.3	---	---	724.1	0.030	0.000	17.9	1	1
03/17/06	12:34 p	-25.4	-25.4	-25.4	---	---	20.9	E	0.35	23.5	-41.1	---	---	724.1	0.030	0.000	17.9	1	1
03/17/06	12:35 p	-25.4	-25.4	-25.4	---	---	23.5	E	0.39	26.1	-41.8	---	---	724.1	0.030	0.000	17.9	1	1
03/17/06	12:36 p	-25.4	-25.4	-25.4	---	---	21.7	E	0.36	24.3	-41.3	---	---	724.2	0.030	0.000	17.9	1	1
03/17/06	12:37 p	-25.4	-25.4	-25.4	---	---	22.6	E	0.38	26.1	-41.5	---	---	724.1	0.030	0.000	17.9	1	1
03/17/06	12:38 p	-25.4	-25.4	-25.4	---	---	20.9	E	0.35	26.1	-41.1	---	---	724.1	0.030	0.000	17.9	1	1
03/17/06	12:39 p	-25.4	-25.4	-25.4	---	---	20.0	E	0.33	24.3	-40.8	---	---	724.1	0.030	0.000	17.9	1	1
03/17/06	12:40 p	-25.4	-25.4	-25.4	---	---	21.7	E	0.36	24.3	-41.3	---	---	724.1	0.030	0.000	17.9	1	1
03/17/06	12:41 p	-25.4	-25.4	-25.4	---	---	21.7	E	0.36	25.2	-41.3	---	---	724.0	0.030	0.000	17.9	1	1
03/17/06	12:42 p	-25.4	-25.4	-25.4	---	---	20.0	E	0.33	26.1	-40.8	---	---	724.2	0.030	0.000	17.9	1	1
03/17/06	12:43 p	-25.4	-25.4	-25.4	---	---	20.0	E	0.33	23.5	-40.8	---	---	724.1	0.030	0.000	17.9	1	1
03/17/06	12:44 p	-25.4	-25.4	-25.4	---	---	21.7	E	0.36	26.1	-41.3	---	---	724.1	0.030	0.000	17.9	1	1
03/17/06	12:45 p	-25.4	-25.4	-25.4	---	---	21.7	E	0.36	27.8	-41.3	---	---	724.0	0.030	0.000	17.9	1	1
03/17/06	12:46 p	-25.4	-25.4	-25.4	---	---	21.7	E	0.36	26.1	-41.3	---	---	724.1	0.030	0.000	17.9	1	1
03/17/06	12:47 p	-25.4	-25.4	-25.4	---	---	22.6	E	0.38	26.1	-41.5	---	---	724.1	0.030	0.000	17.9	1	1
03/17/06	12:48 p	-25.4	-25.4	-25.4	---	---	21.7	E	0.36	27.0	-41.3	---	---	724.0	0.030	0.000	17.9	1	1
03/17/06	12:49 p	-25.4	-25.4	-25.4	---	---	22.6	E	0.38	25.2	-41.5	---	---	724.1	0.030	0.000	17.9	1	1
03/17/06	12:50 p	-25.4	-25.4	-25.4	---	---	22.6	E	0.38	26.1	-41.5	---	---	724.0	0.030	0.000	17.9	1	1
03/17/06	12:51 p	-25.4	-25.4	-25.4	---	---	22.6	E	0.38	26.1	-41.5	---	---	724.1	0.030	0.000	17.9	1	1
03/17/06	12:52 p	-25.4	-25.4	-25.4	---	---	22.6	E	0.38	25.2	-41.5	---	---	723.9	0.030	0.000	17.8	1	1
03/17/06	12:53 p	-25.4	-25.4	-25.4	---	---	21.7	E	0.36	25.2	-41.3	---	---	723.8	0.030	0.000	17.8	1	1
03/17/06	12:54 p	-25.4	-25.4	-25.4	---	---	22.6	E	0.38	26.1	-41.6	---	---	724.0	0.030	0.000	17.8	1	1
03/17/06	12:55 p	-25.4	-25.4	-25.4	---	---	24.3	E	0.41	27.8	-42.1	---	---	723.9	0.030	0.000	17.8	1	1
03/17/06	12:56 p	-25.4	-25.4	-25.4	---	---	23.5	E	0.39	27.8	-41.8	---	---	723.8	0.030	0.000	17.8	1	1
03/17/06	12:57 p	-25.4	-25.4	-25.4	---	---	20.0	E	0.33	24.3	-40.8	---	---	724.0	0.030	0.000	17.8	1	1
03/17/06	12:58 p	-25.4	-25.4	-25.4	---	---	20.9	E	0.35	25.2	-41.1	---	---	724.0	0.030	0.000	17.8	1	1
03/17/06	12:59 p	-25.4	-25.4	-25.4	---	---	23.5	E	0.39	28.7	-41.8	---	---	724.0	0.030	0.000	17.9	1	1
03/17/06	1:00 p	-25.4	-25.4	-25.4	---	---	22.6	E	0.38	27.8	-41.6	---	---	724.0	0.030	0.000	17.9	1	1
03/17/06	1:01 p	-25.4	-25.4	-25.4	---	---	21.7	E	0.36	26.1	-41.3	---	---	724.0	0.030	0.000	17.9	1	1
03/17/06	1:02 p	-25.4	-25.4	-25.4	---	---	20.9	E	0.35	26.1	-41.1	---	---	724.0	0.030	0.000	18.0	1	1
03/17/06	1:03 p	-25.4	-25.4	-25.4	---	---	22.6	E	0.38	24.3	-41.6	---	---	724.0	0.030	0.000	18.1	1	1
03/17/06	1:04 p	-25.4	-25.4	-25.4	---	---	20.9	E	0.35	23.5	-41.1	---	---	723.9	0.030	0.000	18.1	1	1
03/17/06	1:05 p	-25.4	-25.4	-25.4	---	---	21.7	E	0.36	27.0	-41.3	---	---	723.9	0.030	0.000	18.1	1	1
03/17/06	1:06 p	-25.4	-25.4	-25.4	---	---	22.6	E	0.38	25.2	-41.6	---	---	724.0	0.030	0.000	18.1	1	1
03/17/06	1:07 p	-25.4	-25.4	-25.4	---	---	23.5	E	0.39	27.8	-41.8	---	---	723.9	0.030	0.000	18.2	1	1
03/17/06	1:08 p	-25.4	-25.4	-25.4	---	---	21.7	E	0.36	27.0	-41.3	---	---	723.9	0.030	0.000	18.2	1	1
03/17/06	1:09 p	-25.4	-25.4	-25.4	---	---	23.5	E	0.39	28.7	-41.8	---	---	724.0	0.030	0.000	18.2	1	1
03/17/06	1:10 p	-25.4	-25.4	-25.4	---	---	21.7	E	0.36	24.3	-41.3	---	---	724.0	0.030	0.000	18.2	1	1
03/17/06	1:11 p	-25.4	-25.4	-25.4	---	---	23.5	E	0.39	27.0	-41.8	---	---	723.9	0.030	0.000	18.2	1	1
03/17/06	1:12 p	-25.4	-25.4	-25.4	---	---	20.9	E	0.35	25.2	-41.1	---	---	723.9	0.030	0.000	18.2	1	1
03/17/06	1:13 p	-25.4	-25.4	-25.4	---	---	21.7	E	0.36	26.1	-41.3	---	---	723.9	0.030	0.000	18.2	1	1
03/17/06	1:14 p	-25.4	-25.4	-25.4	---	---	22.6	E	0.38	25.2	-41.5	---	---	723.9	0.030	0.000	18.2	1	1
03/17/06	1:15 p	-25.4	-25.4	-25.4	---	---	21.7	E	0.36	25.2	-41.3	---	---	724.0	0.030	0.000	18.2	1	1
03/17/06	1:16 p	-25.4	-25.4	-25.4	---	---	22.6	E	0.38	26.1	-41.6	---	---	724.0	0.030	0.000	18.2	1	1
03/17/06	1:17 p	-25.4	-25.4	-25.4	---	---	21.7	E	0.36	26.1	-41.3	---	---	723.9	0.030	0.000	18.2	1	1
03/17/06	1:18 p	-25.4	-25.4	-25.4	---	---	22.6	E	0.38	27.0	-41.6	---	---	724.0	0.030	0.000	18.2	1	1
03/17/06	1:19 p	-25.4	-25.4	-25.4	---	---	22.6	E	0.38	27.0	-41.6	---	---	723.8	0.030	0.000	18.2	1	1
03/17/06	1:20 p	-25.4	-25.4	-25.4	---	---	23.5	E	0.39	26.1	-41.8	---	---	724.0	0.030	0.000	18.2	1	1
03/17/06	1:21 p	-25.4	-25.4	-25.4	---	---	21.7	E	0.36	26.1	-41.3	---	---	723.9	0.030	0.000	18.2	1	1
03/17/06	1:22 p	-25.4	-25.4	-25.4	---	---	22.6	E	0.38	26.1	-41.6	---	---	724.0	0.030	0.000	18.1	1	1
03/17/06	1:23 p	-25.4	-25.4	-25.4	---	---	20.9	E	0.35	26.1	-41.1	---	---	723.9	0.030	0.000	18.1	1	1
03/17/06	1:24 p	-25.4	-25.4	-25.4	---	---	21.7	E	0.36	24.3	-41.3	---	---	723.9	0.030	0.000	18.1	1	1
03/17/06	1:25 p	-25.4	-25.4	-25.4	---	---	24.3	E	0.41	27.8	-42.1	---	---	724.0	0.030	0.000	18.1	1	1
03/17/06	1:26 p	-25.4	-25.4	-25.4	---	---	21.7	E	0.36	26.1	-41.3	---	---	723.9	0.030	0.000	18.2	1	1
03/17/06	1:27 p	-25.4	-25.4	-25.4	---	---	21.7	E	0.36	27.0	-41.3	---	---	723.9	0.030	0.000	18.2	1	1
03/17/06	1:28 p	-25.4	-25.4	-25.4	---	---	20.0	E	0.33	22.6	-40.8	---	---	724.0	0.030	0.000	18.1	1	1
03/17/06	1:29 p	-25.4	-25.4	-25.4	---	---	20.9	E	0.35	25.2	-41.1	---	---	723.9	0.030	0.000	18.1	1	1
03/17/06	1:30 p	-25.4	-25.4	-25.4	---	---	21.7	E	0.36	26.1	-41.3	---	---	723.8	0.030	0.000	18.1	1	1
03/17/06	1:31 p	-25.4	-25.4	-25.4	---	---	22.6	E	0.38	25.2	-41.6	---	---	723.9	0.030	0.000	18.1	1	1
03/17/06	1:32 p	-25.4	-25.4	-25.4	---	---	21.7	E	0.36	25.2	-41.3	---	---	723.9	0.030	0.000	18.1	1	1
03/17/06	1:33 p	-25.4	-25.4	-25.4	---	---	20.9	E	0.35	24.3	-41.1	---	---	724.0	0.030	0.000	18.1	1	1
03/17/06	1:34 p	-25.4	-25.4	-25.4	---	---	21.7	E	0.36	23.5	-41.3	---	---	723.9	0.030	0.000	18.1	1	1
03/17/06	1:35 p	-25.4	-25.4	-25.4	---	---	21.7	E	0.36	25.2	-41.3	---	---	723.9	0.030	0.000	18.1	1	1
03/17/06	1:36 p	-25.4	-25.4	-25.4	---	---	20.9	E	0.35	24.3	-41.1	---	---	723.9	0.030	0.000	18.1	1	1
03/17/06	1:37 p	-25.4	-25.4	-25.5	---	---	20.9	E	0.35	23.5	-41.1	---	---	723.9	0.030	0.000	18.1	1	1
03/17/06	1:38 p	-25.4	-25.4	-25.4	---	---	20.0	E	0.33	22.6	-40.8	---	---	723.9	0.030	0.000	18.1	1	1
03/17/06	1:39 p	-25.4	-25.4	-25.4	---	---	19.1	E	0.32	21.7	-40.6	---	---	723.8	0.030	0.000	18.1	1	1
03/17/06	1:40 p	-25.4	-25.4	-25.5	---	---	22.6	E	0.38	25.2	-41.6	---	---	723.9	0.030	0.000	18.1	1	1
03/17/06	1:41 p	-25.4	-25.4	-25.4	---	---	21.7	E	0.36	24.3	-41.3	---	---	723.9	0.030	0.000	18.0	1	1
03/17/06	1:42 p	-25.4	-25.4	-25.4	---	---	22.6	E	0.38	26.1	-41.6	---	---	723.8	0.030	0.000	18.0	1	1
03/17/06	1:43 p	-25.4	-25.4	-25.4	---	---	21.7	E	0.36	25.2	-41.3	---	---	723.8	0.030	0.000	18.0	1	1
03/17/06	1:44 p	-25.4	-25.4	-25.4	---	---	20.9	E	0.35	25.2	-41.1	---	---	723.9	0.030	0.000	18.0	1	1
03/17/06	1:45 p	-25.4	-25.4	-25.5	---	---	21.7	E	0.36	26.1	-41.3	---	---	723.8	0.030	0.000	17.9	1	1
03/17/06	1:46 p	-25.4	-25.4	-25.4	---	---	23.5	E	0.39	25.2	-41.8	---	---	723.8	0.030	0.000	17.9	1	1
03/17/06	1:47 p	-25.4	-25.4	-25.5	---	---	20.9	ENE	0.35	27.0	-41.1	---	---	723.8	0.030	0.000	17.9	1	1
03/17/06	1:48 p	-25.4	-25.4	-25.4	---	---	22.6	E	0.38	27.0	-41.6	---	---	723.8	0.030	0.000	17.9	1	1
03/17/06	1:49 p	-25.4	-25.4	-25.4	---	---	20.9	E	0.35	26.1	-41.1	---	---	723.8	0.030	0.000	17.9	1	1
03/17/06	1:50 p	-25.4	-25.4	-25.4	---	---	22.6	E	0.38	26.1	-41.6	---	---	723.7	0.030	0.000	17.9	1	1
03/17/06	1:51 p	-25.4	-25.4	-25.4	---	---	23.5	E	0.39	25.2	-41.8	---	---	723.8	0.030	0.000	17.9	1	1
03/17/06	1:52 p	-25.4	-25.4	-25.4	---	---	22.6	E	0.38	25.2	-41.6	---	---	723.8	0.030	0.000	17.9	1	1
03/17/06	1:53 p	-25.4	-25.4	-25.5	---	---	20.0	E	0.33	24.3	-40.8	---	---	723.7	0.030	0.000	17.9	1	1
03/17/06	1:54 p	-25.5	-25.4	-25.5	---	---	20.9	E	0.35	25.2	-41.2	---	---	723.8	0.030	0.000	17.8	1	1
03/17/06	1:55 p	-25.4	-25.4	-25.4	---	---	22.6	E	0.38	24.3	-41.6	---	---	723.7	0.030	0.000	17.8	1	1
03/17/06	1:56 p	-25.4	-25.4	-25.5	---	---	21.7	E	0.36	25.2	-41.3	---	---	723.7	0.030	0.000	17.8	1	1
03/17/06	1:57 p	-25.4	-25.4	-25.4	---	---	20.0	E	0.33	23.5	-40.8	---	---	723.8	0.030	0.000	17.9	1	1
03/17/06	1:58 p	-25.4	-25.4	-25.5	---	---	22.6	E	0.38	25.2	-41.6	---	---	723.7	0.030	0.000	17.9	1	1
03/17/06	1:59 p	-25.5	-25.4	-25.5	---	---	20.9	E	0.35	24.3	-41.2	---	---	723.7	0.030	0.000	17.9	1	1
03/17/06	2:00 p	-25.4	-25.4	-25.5	---	---	22.6	E	0.38	25.2	-41.6	---	---	723.8	0.030	0.000	17.9	1	1
03/17/06	2:01 p	-25.5	-25.4	-25.5	---	---	23.5	E	0.39	27.0	-41.9	---	---	723.7	0.030	0.000	18.0	1	1
03/17/06	2:02 p	-25.4	-25.4	-25.5	---	---	24.3	E	0.41	26.1	-42.1	---	---	723.7	0.030	0.000	18.0	1	1
03/17/06	2:03 p	-25.4	-25.4	-25.5	---	---	22.6	E	0.38	27.0	-41.6	---	---	723.8	0.030	0.000	18.1	1	1
03/17/06	2:04 p	-25.5	-25.4	-25.5	---	---	21.7	E	0.36	25.2	-41.4	---	---	723.7	0.030	0.000	18.1	1	1
03/17/06	2:05 p	-25.5	-25.4	-25.5	---	---	21.7	E	0.36	27.0	-41.4	---	---	723.7	0.030	0.000	18.1	1	1
03/17/06	2:06 p	-25.4	-25.4	-25.5	---	---	22.6	E	0.38	27.0	-41.6	---	---	723.7	0.030	0.000	18.2	1	1
03/17/06	2:07 p	-25.4	-25.4	-25.5	---	---	20.9	E	0.35	25.2	-41.1	---	---	723.7	0.030	0.000	18.2	1	1
03/17/06	2:08 p	-25.5	-25.4	-25.5	---	---	24.3	E	0.41	27.0	-42.2	---	---	723.7	0.030	0.000	18.2	1	1
03/17/06	2:09 p	-25.5	-25.5	-25.5	---	---	23.5	E	0.39	26.1	-41.9	---	---	723.7	0.030	0.000	18.2	1	1
03/17/06	2:10 p	-25.5	-25.5	-25.5	---	---	20.9	E	0.35	25.2	-41.2	---	---	723.6	0.030	0.000	18.2	1	1
03/17/06	2:11 p	-25.5	-25.5	-25.5	---	---	21.7	E	0.36	24.3	-41.4	---	---	723.7	0.030	0.000	18.2	1	1
03/17/06	2:12 p	-25.5	-25.4	-25.5	---	---	22.6	E	0.38	23.5	-41.7	---	---	723.7	0.030	0.000	18.2	1	1
03/17/06	2:13 p	-25.5	-25.4	-25.5	---	---	23.5	E	0.39	26.1	-41.9	---	---	723.6	0.030	0.000	18.2	1	1
03/17/06	2:14 p	-25.5	-25.4	-25.5	---	---	22.6	E	0.38	25.2	-41.7	---	---	723.6	0.030	0.000	18.2	1	1
03/17/06	2:15 p	-25.5	-25.5	-25.5	---	---	22.6	E	0.38	26.1	-41.7	---	---	723.7	0.030	0.000	18.2	1	1
03/17/06	2:16 p	-25.5	-25.5	-25.5	---	---	21.7	E	0.36	26.1	-41.4	---	---	723.6	0.030	0.000	18.2	1	1
03/17/06	2:17 p	-25.5	-25.5	-25.5	---	---	22.6	ENE	0.38	25.2	-41.7	---	---	723.6	0.030	0.000	18.1	1	1
03/17/06	2:18 p	-25.5	-25.5	-25.5	---	---	23.5	E	0.39	26.1	-41.9	---	---	723.7	0.030	0.000	18.1	1	1
03/17/06	2:19 p	-25.5	-25.5	-25.5	---	---	23.5	E	0.39	27.0	-41.9	---	---	723.6	0.030	0.000	18.1	1	1
03/17/06	2:20 p	-25.5	-25.5	-25.5	---	---	22.6	E	0.38	25.2	-41.7	---	---	723.6	0.030	0.000	18.1	1	1
03/17/06	2:21 p	-25.5	-25.5	-25.5	---	---	22.6	E	0.38	27.0	-41.7	---	---	723.6	0.030	0.000	18.1	1	1
03/17/06	2:22 p	-25.5	-25.5	-25.5	---	---	22.6	E	0.38	25.2	-41.7	---	---	723.7	0.030	0.000	18.1	1	1
03/17/06	2:23 p	-25.5	-25.5	-25.5	---	---	20.0	E	0.33	24.3	-40.9	---	---	723.7	0.030	0.000	18.1	1	1
03/17/06	2:24 p	-25.5	-25.5	-25.6	---	---	21.7	E	0.36	26.1	-41.4	---	---	723.5	0.030	0.000	18.1	1	1
03/17/06	2:25 p	-25.5	-25.5	-25.6	---	---	22.6	E	0.38	25.2	-41.7	---	---	723.7	0.030	0.000	18.1	1	1
03/17/06	2:26 p	-25.5	-25.5	-25.6	---	---	20.9	E	0.35	26.1	-41.2	---	---	723.6	0.030	0.000	18.1	1	1
03/17/06	2:27 p	-25.6	-25.5	-25.6	---	---	22.6	E	0.38	25.2	-41.8	---	---	723.6	0.030	0.000	18.1	1	1
03/17/06	2:28 p	-25.6	-25.5	-25.6	---	---	21.7	E	0.36	26.1	-41.5	---	---	723.7	0.030	0.000	18.0	1	1
03/17/06	2:29 p	-25.6	-25.5	-25.6	---	---	20.9	E	0.35	25.2	-41.3	---	---	723.7	0.030	0.000	18.0	1	1
03/17/06	2:30 p	-25.6	-25.5	-25.6	---	---	21.7	E	0.36	25.2	-41.5	---	---	723.7	0.030	0.000	18.0	1	1
03/17/06	2:31 p	-25.5	-25.5	-25.6	---	---	20.9	E	0.35	24.3	-41.2	---	---	723.7	0.030	0.000	18.0	1	1
03/17/06	2:32 p	-25.5	-25.5	-25.6	---	---	22.6	E	0.38	26.1	-41.7	---	---	723.6	0.030	0.000	18.0	1	1
03/17/06	2:33 p	-25.6	-25.5	-25.6	---	---	22.6	E	0.38	27.0	-41.8	---	---	723.6	0.030	0.000	18.0	1	1
03/17/06	2:34 p	-25.6	-25.6	-25.6	---	---	22.6	E	0.38	25.2	-41.8	---	---	723.7	0.030	0.000	18.0	1	1
03/17/06	2:35 p	-25.6	-25.5	-25.6	---	---	20.9	ENE	0.35	23.5	-41.3	---	---	723.6	0.030	0.000	18.0	1	1
03/17/06	2:36 p	-25.6	-25.5	-25.6	---	---	22.6	ENE	0.38	24.3	-41.8	---	---	723.7	0.030	0.000	17.9	1	1
03/17/06	2:37 p	-25.6	-25.5	-25.6	---	---	22.6	ENE	0.38	26.1	-41.8	---	---	723.7	0.030	0.000	17.9	1	1
03/17/06	2:38 p	-25.5	-25.5	-25.6	---	---	20.9	E	0.35	25.2	-41.2	---	---	723.7	0.030	0.000	17.9	1	1
03/17/06	2:39 p	-25.6	-25.6	-25.6	---	---	22.6	E	0.38	25.2	-41.8	---	---	723.7	0.030	0.000	17.9	1	1
03/17/06	2:40 p	-25.6	-25.6	-25.6	---	---	21.7	ENE	0.36	24.3	-41.5	---	---	723.6	0.030	0.000	17.9	1	1
03/17/06	2:41 p	-25.6	-25.6	-25.6	---	---	23.5	ENE	0.39	26.1	-42.0	---	---	723.7	0.030	0.000	17.9	1	1
03/17/06	2:42 p	-25.6	-25.6	-25.6	---	---	21.7	ENE	0.36	25.2	-41.5	---	---	723.6	0.030	0.000	17.9	1	1
03/17/06	2:43 p	-25.6	-25.6	-25.6	---	---	22.6	ENE	0.38	25.2	-41.8	---	---	723.7	0.030	0.000	17.9	1	1
03/17/06	2:44 p	-25.6	-25.6	-25.6	---	---	22.6	ENE	0.38	24.3	-41.8	---	---	723.7	0.030	0.000	17.9	1	1
03/17/06	2:45 p	-25.6	-25.6	-25.6	---	---	20.9	ENE	0.35	25.2	-41.3	---	---	723.6	0.030	0.000	17.9	1	1
03/17/06	2:46 p	-25.6	-25.6	-25.6	---	---	22.6	ENE	0.38	25.2	-41.8	---	---	723.6	0.030	0.000	17.9	1	1
03/17/06	2:47 p	-25.6	-25.6	-25.6	---	---	23.5	ENE	0.39	26.1	-42.0	---	---	723.6	0.030	0.000	17.9	1	1
03/17/06	2:48 p	-25.6	-25.6	-25.6	---	---	22.6	ENE	0.38	24.3	-41.8	---	---	723.6	0.031	0.000	17.9	1	1
03/17/06	2:49 p	-25.6	-25.6	-25.6	---	---	21.7	ENE	0.36	23.5	-41.5	---	---	723.7	0.030	0.000	17.9	1	1
03/17/06	2:50 p	-25.6	-25.6	-25.6	---	---	21.7	E	0.36	25.2	-41.5	---	---	723.7	0.030	0.000	17.9	1	1
03/17/06	2:51 p	-25.6	-25.6	-25.6	---	---	21.7	ENE	0.36	23.5	-41.6	---	---	723.6	0.031	0.000	17.9	1	1
03/17/06	2:52 p	-25.6	-25.6	-25.6	---	---	20.9	ENE	0.35	24.3	-41.3	---	---	723.6	0.031	0.000	17.9	1	1
03/17/06	2:53 p	-25.6	-25.6	-25.6	---	---	22.6	ENE	0.38	25.2	-41.8	---	---	723.6	0.030	0.000	17.9	1	1
03/17/06	2:54 p	-25.6	-25.6	-25.6	---	---	22.6	ENE	0.38	25.2	-41.8	---	---	723.6	0.031	0.000	17.9	1	1
03/17/06	2:55 p	-25.6	-25.6	-25.6	---	---	21.7	E	0.36	27.0	-41.5	---	---	723.6	0.030	0.000	17.9	1	1
03/17/06	2:56 p	-25.6	-25.6	-25.6	---	---	23.5	E	0.39	26.1	-42.1	---	---	723.6	0.031	0.000	17.8	1	1
03/17/06	2:57 p	-25.6	-25.6	-25.6	---	---	21.7	E	0.36	24.3	-41.6	---	---	723.6	0.031	0.000	17.9	1	1
03/17/06	2:58 p	-25.6	-25.6	-25.6	---	---	23.5	E	0.39	26.1	-42.1	---	---	723.6	0.031	0.000	17.9	1	1
03/17/06	2:59 p	-25.6	-25.6	-25.6	---	---	22.6	E	0.38	25.2	-41.8	---	---	723.6	0.031	0.000	17.9	1	1
03/17/06	3:00 p	-25.6	-25.6	-25.6	---	---	20.9	ENE	0.35	24.3	-41.3	---	---	723.6	0.030	0.000	17.9	1	1
03/17/06	3:01 p	-25.6	-25.6	-25.6	---	---	20.9	E	0.35	24.3	-41.3	---	---	723.7	0.031	0.000	17.9	1	1
03/17/06	3:02 p	-25.6	-25.6	-25.6	---	---	21.7	E	0.36	25.2	-41.5	---	---	723.6	0.030	0.000	18.0	1	1
03/17/06	3:03 p	-25.6	-25.6	-25.6	---	---	20.9	E	0.35	25.2	-41.3	---	---	723.6	0.031	0.000	18.0	1	1
03/17/06	3:04 p	-25.6	-25.6	-25.6	---	---	23.5	E	0.39	26.1	-42.1	---	---	723.6	0.031	0.000	18.1	1	1
03/17/06	3:05 p	-25.6	-25.6	-25.6	---	---	21.7	E	0.36	25.2	-41.6	---	---	723.5	0.031	0.000	18.1	1	1
03/17/06	3:06 p	-25.6	-25.6	-25.6	---	---	21.7	E	0.36	25.2	-41.6	---	---	723.5	0.031	0.000	18.1	1	1
03/17/06	3:07 p	-25.6	-25.6	-25.6	---	---	22.6	ENE	0.38	26.1	-41.8	---	---	723.5	0.031	0.000	18.1	1	1
03/17/06	3:08 p	-25.6	-25.6	-25.6	---	---	22.6	ENE	0.38	24.3	-41.8	---	---	723.5	0.031	0.000	18.1	1	1
03/17/06	3:09 p	-25.6	-25.6	-25.6	---	---	21.7	E	0.36	24.3	-41.6	---	---	723.6	0.031	0.000	18.1	1	1
03/17/06	3:10 p	-25.6	-25.6	-25.6	---	---	20.0	E	0.33	22.6	-41.1	---	---	723.6	0.031	0.000	18.1	1	1
03/17/06	3:11 p	-25.6	-25.6	-25.6	---	---	20.9	E	0.35	25.2	-41.3	---	---	723.6	0.031	0.000	18.1	1	1
03/17/06	3:12 p	-25.6	-25.6	-25.6	---	---	21.7	E	0.36	25.2	-41.6	---	---	723.5	0.031	0.000	18.1	1	1
03/17/06	3:13 p	-25.6	-25.6	-25.6	---	---	21.7	E	0.36	25.2	-41.6	---	---	723.5	0.031	0.000	18.1	1	1
03/17/06	3:14 p	-25.6	-25.6	-25.6	---	---	23.5	E	0.39	26.1	-42.1	---	---	723.5	0.031	0.000	18.1	1	1
03/17/06	3:15 p	-25.6	-25.6	-25.6	---	---	23.5	E	0.39	27.0	-42.0	---	---	723.5	0.030	0.000	18.1	1	1
03/17/06	3:16 p	-25.6	-25.6	-25.6	---	---	21.7	E	0.36	25.2	-41.6	---	---	723.5	0.031	0.000	18.1	1	1
03/17/06	3:17 p	-25.6	-25.6	-25.6	---	---	22.6	E	0.38	26.1	-41.8	---	---	723.6	0.031	0.000	18.1	1	1
03/17/06	3:18 p	-25.6	-25.6	-25.6	---	---	21.7	E	0.36	26.1	-41.6	---	---	723.5	0.031	0.000	18.1	1	1
03/17/06	3:19 p	-25.6	-25.6	-25.6	---	---	22.6	E	0.38	26.1	-41.8	---	---	723.5	0.031	0.000	18.0	1	1
03/17/06	3:20 p	-25.6	-25.6	-25.6	---	---	20.9	E	0.35	25.2	-41.3	---	---	723.6	0.031	0.000	18.0	1	1
03/17/06	3:21 p	-25.6	-25.6	-25.6	---	---	21.7	E	0.36	24.3	-41.6	---	---	723.5	0.031	0.000	18.0	1	1
03/17/06	3:22 p	-25.6	-25.6	-25.6	---	---	21.7	E	0.36	25.2	-41.6	---	---	723.5	0.031	0.000	18.0	1	1
03/17/06	3:23 p	-25.6	-25.6	-25.6	---	---	21.7	E	0.36	24.3	-41.6	---	---	723.4	0.031	0.000	18.0	1	1
03/17/06	3:24 p	-25.6	-25.6	-25.6	---	---	21.7	E	0.36	25.2	-41.6	---	---	723.5	0.031	0.000	18.0	1	1
03/17/06	3:25 p	-25.6	-25.6	-25.6	---	---	20.9	E	0.35	26.1	-41.3	---	---	723.5	0.031	0.000	17.9	1	1
03/17/06	3:26 p	-25.6	-25.6	-25.6	---	---	23.5	E	0.39	27.8	-42.0	---	---	723.4	0.030	0.000	17.9	1	1
03/17/06	3:27 p	-25.6	-25.6	-25.6	---	---	22.6	E	0.38	27.8	-41.8	---	---	723.5	0.031	0.000	17.9	1	1
03/17/06	3:28 p	-25.6	-25.6	-25.6	---	---	22.6	E	0.38	25.2	-41.8	---	---	723.4	0.030	0.000	17.9	1	1
03/17/06	3:29 p	-25.6	-25.6	-25.6	---	---	25.2	E	0.42	28.7	-42.4	---	---	723.4	0.030	0.000	17.9	1	1
03/17/06	3:30 p	-25.6	-25.6	-25.6	---	---	21.7	E	0.36	26.1	-41.6	---	---	723.4	0.031	0.000	17.9	1	1
03/17/06	3:31 p	-25.6	-25.6	-25.6	---	---	20.9	E	0.35	26.1	-41.3	---	---	723.4	0.031	0.000	17.9	1	1
03/17/06	3:32 p	-25.6	-25.6	-25.6	---	---	21.7	E	0.36	25.2	-41.5	---	---	723.4	0.030	0.000	17.9	1	1
03/17/06	3:33 p	-25.6	-25.6	-25.6	---	---	21.7	E	0.36	26.1	-41.6	---	---	723.5	0.031	0.000	17.9	1	1
03/17/06	3:34 p	-25.6	-25.6	-25.6	---	---	23.5	E	0.39	26.1	-42.0	---	---	723.5	0.030	0.000	17.9	1	1
03/17/06	3:35 p	-25.6	-25.6	-25.6	---	---	23.5	E	0.39	26.1	-42.0	---	---	723.4	0.030	0.000	17.9	1	1
03/17/06	3:36 p	-25.6	-25.6	-25.6	---	---	22.6	E	0.38	27.0	-41.8	---	---	723.4	0.030	0.000	17.9	1	1
03/17/06	3:37 p	-25.6	-25.6	-25.6	---	---	23.5	E	0.39	27.0	-42.1	---	---	723.4	0.031	0.000	17.9	1	1
03/17/06	3:38 p	-25.6	-25.6	-25.6	---	---	24.3	E	0.41	27.8	-42.2	---	---	723.4	0.030	0.000	17.9	1	1
03/17/06	3:39 p	-25.6	-25.6	-25.6	---	---	21.7	E	0.36	27.0	-41.5	---	---	723.4	0.030	0.000	17.9	1	1
03/17/06	3:40 p	-25.6	-25.6	-25.6	---	---	23.5	E	0.39	26.1	-42.1	---	---	723.5	0.031	0.000	17.9	1	1
03/17/06	3:41 p	-25.6	-25.6	-25.6	---	---	23.5	E	0.39	27.0	-42.0	---	---	723.4	0.030	0.000	17.8	1	1
03/17/06	3:42 p	-25.6	-25.6	-25.6	---	---	24.3	ENE	0.41	27.8	-42.2	---	---	723.3	0.030	0.000	17.8	1	1
03/17/06	3:43 p	-25.6	-25.6	-25.6	---	---	24.3	E	0.41	27.0	-42.3	---	---	723.4	0.031	0.000	17.8	1	1
03/17/06	3:44 p	-25.6	-25.6	-25.6	---	---	24.3	E	0.41	27.0	-42.2	---	---	723.5	0.030	0.000	17.8	1	1
03/17/06	3:45 p	-25.6	-25.6	-25.6	---	---	22.6	E	0.38	26.1	-41.8	---	---	723.4	0.030	0.000	17.8	1	1
03/17/06	3:46 p	-25.6	-25.6	-25.6	---	---	22.6	E	0.38	27.0	-41.8	---	---	723.5	0.030	0.000	17.8	1	1
03/17/06	3:47 p	-25.6	-25.6	-25.6	---	---	23.5	ENE	0.39	26.1	-42.1	---	---	723.4	0.031	0.000	17.8	1	1
03/17/06	3:48 p	-25.6	-25.6	-25.6	---	---	24.3	E	0.41	27.0	-42.3	---	---	723.4	0.031	0.000	17.9	1	1
03/17/06	3:49 p	-25.6	-25.6	-25.6	---	---	23.5	E	0.39	27.0	-42.1	---	---	723.5	0.031	0.000	17.9	1	1
03/17/06	3:50 p	-25.6	-25.6	-25.6	---	---	23.5	E	0.39	26.1	-42.0	---	---	723.5	0.030	0.000	17.9	1	1
03/17/06	3:51 p	-25.6	-25.6	-25.6	---	---	23.5	E	0.39	27.0	-42.1	---	---	723.4	0.031	0.000	17.9	1	1
03/17/06	3:52 p	-25.6	-25.6	-25.6	---	---	23.5	E	0.39	25.2	-42.0	---	---	723.5	0.030	0.000	18.0	1	1
03/17/06	3:53 p	-25.6	-25.6	-25.6	---	---	23.5	ENE	0.39	27.0	-42.1	---	---	723.5	0.031	0.000	18.0	1	1
03/17/06	3:54 p	-25.6	-25.6	-25.6	---	---	24.3	E	0.41	27.0	-42.3	---	---	723.4	0.031	0.000	18.1	1	1
03/17/06	3:55 p	-25.6	-25.6	-25.6	---	---	23.5	E	0.39	27.8	-42.1	---	---	723.5	0.031	0.000	18.1	1	1
03/17/06	3:56 p	-25.6	-25.6	-25.6	---	---	22.6	E	0.38	27.0	-41.8	---	---	723.4	0.031	0.000	18.1	1	1
03/17/06	3:57 p	-25.6	-25.6	-25.6	---	---	24.3	E	0.41	27.0	-42.3	---	---	723.4	0.031	0.000	18.1	1	1
03/17/06	3:58 p	-25.6	-25.6	-25.6	---	---	23.5	ENE	0.39	27.0	-42.1	---	---	723.4	0.031	0.000	18.1	1	1
03/17/06	3:59 p	-25.6	-25.6	-25.6	---	---	22.6	E	0.38	25.2	-41.8	---	---	723.4	0.031	0.000	18.1	1	1
03/17/06	4:00 p	-25.6	-25.6	-25.6	---	---	24.3	E	0.41	27.0	-42.3	---	---	723.4	0.031	0.000	18.1	1	1
03/17/06	4:01 p	-25.6	-25.6	-25.6	---	---	23.5	E	0.39	25.2	-42.1	---	---	723.5	0.031	0.000	18.1	1	1
03/17/06	4:02 p	-25.6	-25.6	-25.6	---	---	22.6	E	0.38	25.2	-41.8	---	---	723.5	0.031	0.000	18.1	1	1
03/17/06	4:03 p	-25.6	-25.6	-25.6	---	---	24.3	E	0.41	27.0	-42.3	---	---	723.4	0.031	0.000	18.1	1	1
03/17/06	4:04 p	-25.6	-25.6	-25.6	---	---	21.7	E	0.36	26.1	-41.6	---	---	723.5	0.031	0.000	18.1	1	1
03/17/06	4:05 p	-25.6	-25.6	-25.6	---	---	21.7	E	0.36	25.2	-41.6	---	---	723.5	0.031	0.000	18.1	1	1
03/17/06	4:06 p	-25.6	-25.6	-25.6	---	---	24.3	ENE	0.41	27.8	-42.3	---	---	723.4	0.031	0.000	18.1	1	1
03/17/06	4:07 p	-25.6	-25.6	-25.6	---	---	23.5	E	0.39	26.1	-42.1	---	---	723.4	0.031	0.000	18.1	1	1
03/17/06	4:08 p	-25.6	-25.6	-25.6	---	---	23.5	ENE	0.39	25.2	-42.1	---	---	723.4	0.031	0.000	18.1	1	1
03/17/06	4:09 p	-25.6	-25.6	-25.6	---	---	22.6	ENE	0.38	25.2	-41.8	---	---	723.4	0.031	0.000	18.0	1	1
03/17/06	4:10 p	-25.6	-25.6	-25.6	---	---	22.6	E	0.38	25.2	-41.8	---	---	723.4	0.031	0.000	18.0	1	1
03/17/06	4:11 p	-25.6	-25.6	-25.7	---	---	25.2	ENE	0.42	27.0	-42.5	---	---	723.4	0.031	0.000	18.0	1	1
03/17/06	4:12 p	-25.6	-25.6	-25.7	---	---	25.2	ENE	0.42	27.0	-42.5	---	---	723.4	0.031	0.000	18.0	1	1
03/17/06	4:13 p	-25.7	-25.6	-25.7	---	---	21.7	ENE	0.36	24.3	-41.7	---	---	723.5	0.031	0.000	18.0	1	1
03/17/06	4:14 p	-25.6	-25.6	-25.7	---	---	21.7	E	0.36	27.0	-41.6	---	---	723.3	0.031	0.000	18.0	1	1
03/17/06	4:15 p	-25.7	-25.6	-25.7	---	---	25.2	ENE	0.42	27.8	-42.6	---	---	723.4	0.031	0.000	17.9	1	1
03/17/06	4:16 p	-25.6	-25.6	-25.6	---	---	24.3	E	0.41	27.8	-42.3	---	---	723.4	0.031	0.000	17.9	1	1
03/17/06	4:17 p	-25.6	-25.6	-25.7	---	---	24.3	E	0.41	27.0	-42.3	---	---	723.3	0.031	0.000	17.9	1	1
03/17/06	4:18 p	-25.7	-25.6	-25.7	---	---	22.6	E	0.38	26.1	-41.9	---	---	723.3	0.031	0.000	17.9	1	1
03/17/06	4:19 p	-25.7	-25.6	-25.7	---	---	22.6	E	0.38	26.1	-41.9	---	---	723.4	0.031	0.000	17.9	1	1
03/17/06	4:20 p	-25.6	-25.6	-25.6	---	---	22.6	E	0.38	26.1	-41.8	---	---	723.4	0.031	0.000	17.9	1	1
03/17/06	4:21 p	-25.7	-25.6	-25.7	---	---	25.2	E	0.42	27.8	-42.6	---	---	723.4	0.031	0.000	17.9	1	1
03/17/06	4:22 p	-25.7	-25.6	-25.7	---	---	22.6	E	0.38	26.1	-41.9	---	---	723.4	0.031	0.000	17.9	1	1
03/17/06	4:23 p	-25.7	-25.7	-25.7	---	---	21.7	E	0.36	25.2	-41.7	---	---	723.3	0.031	0.000	17.9	1	1
03/17/06	4:24 p	-25.7	-25.7	-25.7	---	---	24.3	E	0.41	27.8	-42.4	---	---	723.4	0.031	0.000	17.9	1	1
03/17/06	4:25 p	-25.7	-25.6	-25.7	---	---	23.5	E	0.39	26.1	-42.1	---	---	723.4	0.031	0.000	17.9	1	1
03/17/06	4:26 p	-25.7	-25.6	-25.7	---	---	22.6	E	0.38	26.1	-41.9	---	---	723.3	0.031	0.000	17.9	1	1
03/17/06	4:27 p	-25.7	-25.7	-25.7	---	---	24.3	E	0.41	27.0	-42.4	---	---	723.3	0.031	0.000	17.9	1	1
03/17/06	4:28 p	-25.7	-25.7	-25.7	---	---	25.2	E	0.42	28.7	-42.6	---	---	723.3	0.031	0.000	17.9	1	1
03/17/06	4:29 p	-25.7	-25.6	-25.7	---	---	25.2	E	0.42	27.0	-42.6	---	---	723.3	0.031	0.000	17.9	1	1
03/17/06	4:30 p	-25.6	-25.6	-25.7	---	---	23.5	E	0.39	27.0	-42.1	---	---	723.4	0.031	0.000	17.9	1	1
03/17/06	4:31 p	-25.7	-25.6	-25.7	---	---	24.3	E	0.41	27.8	-42.4	---	---	723.3	0.031	0.000	17.8	1	1
03/17/06	4:32 p	-25.7	-25.6	-25.7	---	---	23.5	E	0.39	26.1	-42.1	---	---	723.3	0.031	0.000	17.8	1	1
03/17/06	4:33 p	-25.7	-25.6	-25.7	---	---	24.3	E	0.41	27.0	-42.4	---	---	723.3	0.031	0.000	17.8	1	1
03/17/06	4:34 p	-25.6	-25.6	-25.7	---	---	22.6	E	0.38	25.2	-41.8	---	---	723.3	0.031	0.000	17.8	1	1
03/17/06	4:35 p	-25.7	-25.6	-25.7	---	---	22.6	E	0.38	27.0	-41.9	---	---	723.3	0.031	0.000	17.8	1	1
03/17/06	4:36 p	-25.7	-25.6	-25.7	---	---	24.3	E	0.41	26.1	-42.4	---	---	723.3	0.031	0.000	17.8	1	1
03/17/06	4:37 p	-25.7	-25.6	-25.7	---	---	22.6	E	0.38	27.0	-41.9	---	---	723.3	0.031	0.000	17.8	1	1
03/17/06	4:38 p	-25.7	-25.7	-25.7	---	---	21.7	E	0.36	25.2	-41.7	---	---	723.2	0.031	0.000	17.8	1	1
03/17/06	4:39 p	-25.7	-25.7	-25.7	---	---	24.3	E	0.41	28.7	-42.4	---	---	723.4	0.031	0.000	17.8	1	1
03/17/06	4:40 p	-25.7	-25.6	-25.7	---	---	22.6	E	0.38	25.2	-41.9	---	---	723.3	0.031	0.000	17.8	1	1
03/17/06	4:41 p	-25.7	-25.6	-25.7	---	---	23.5	E	0.39	27.0	-42.1	---	---	723.3	0.031	0.000	17.9	1	1
03/17/06	4:42 p	-25.6	-25.6	-25.7	---	---	24.3	E	0.41	27.8	-42.3	---	---	723.3	0.031	0.000	17.9	1	1
03/17/06	4:43 p	-25.7	-25.6	-25.7	---	---	23.5	E	0.39	27.0	-42.1	---	---	723.3	0.031	0.000	17.9	1	1
03/17/06	4:44 p	-25.7	-25.7	-25.7	---	---	22.6	E	0.38	26.1	-41.9	---	---	723.3	0.031	0.000	17.9	1	1
03/17/06	4:45 p	-25.7	-25.7	-25.7	---	---	24.3	E	0.41	27.0	-42.4	---	---	723.3	0.031	0.000	18.0	1	1
03/17/06	4:46 p	-25.7	-25.7	-25.7	---	---	22.6	E	0.38	25.2	-41.9	---	---	723.3	0.031	0.000	18.1	1	1
03/17/06	4:47 p	-25.7	-25.7	-25.7	---	---	23.5	E	0.39	27.0	-42.1	---	---	723.2	0.031	0.000	18.1	1	1
03/17/06	4:48 p	-25.7	-25.7	-25.7	---	---	24.3	E	0.41	28.7	-42.4	---	---	723.3	0.031	0.000	18.1	1	1
03/17/06	4:49 p	-25.7	-25.6	-25.7	---	---	24.3	E	0.41	27.0	-42.4	---	---	723.3	0.031	0.000	18.1	1	1
03/17/06	4:50 p	-25.7	-25.6	-25.7	---	---	24.3	E	0.41	27.0	-42.4	---	---	723.2	0.031	0.000	18.1	1	1
03/17/06	4:51 p	-25.7	-25.7	-25.7	---	---	25.2	E	0.42	27.0	-42.6	---	---	723.3	0.031	0.000	18.1	1	1
03/17/06	4:52 p	-25.7	-25.6	-25.7	---	---	24.3	E	0.41	27.0	-42.4	---	---	723.3	0.031	0.000	18.1	1	1
03/17/06	4:53 p	-25.7	-25.6	-25.7	---	---	23.5	E	0.39	26.1	-42.1	---	---	723.2	0.031	0.000	18.1	1	1
03/17/06	4:54 p	-25.7	-25.6	-25.7	---	---	23.5	E	0.39	26.1	-42.1	---	---	723.2	0.031	0.000	18.1	1	1
03/17/06	4:55 p	-25.7	-25.6	-25.7	---	---	24.3	E	0.41	27.8	-42.4	---	---	723.2	0.031	0.000	18.1	1	1
03/17/06	4:56 p	-25.7	-25.6	-25.7	---	---	24.3	E	0.41	28.7	-42.4	---	---	723.2	0.031	0.000	18.1	1	1
03/17/06	4:57 p	-25.7	-25.6	-25.7	---	---	24.3	E	0.41	27.0	-42.4	---	---	723.2	0.031	0.000	18.1	1	1
03/17/06	4:58 p	-25.7	-25.6	-25.7	---	---	25.2	E	0.42	27.8	-42.6	---	---	723.2	0.031	0.000	18.0	1	1
03/17/06	4:59 p	-25.7	-25.7	-25.7	---	---	25.2	E	0.42	27.8	-42.6	---	---	723.2	0.031	0.000	18.0	1	1
03/17/06	5:00 p	-25.7	-25.6	-25.7	---	---	25.2	E	0.42	27.8	-42.6	---	---	723.2	0.031	0.000	18.0	1	1
03/17/06	5:01 p	-25.7	-25.7	-25.7	---	---	24.3	E	0.41	27.8	-42.4	---	---	723.2	0.031	0.000	18.0	1	1
03/17/06	5:02 p	-25.7	-25.7	-25.7	---	---	24.3	E	0.41	28.7	-42.4	---	---	723.2	0.031	0.000	18.0	1	1
03/17/06	5:03 p	-25.7	-25.7	-25.7	---	---	24.3	E	0.41	26.1	-42.4	---	---	723.2	0.031	0.000	17.9	1	1
03/17/06	5:04 p	-25.7	-25.6	-25.7	---	---	24.3	E	0.41	27.0	-42.4	---	---	723.1	0.031	0.000	17.9	1	1
03/17/06	5:05 p	-25.7	-25.7	-25.7	---	---	25.2	E	0.42	27.8	-42.6	---	---	723.2	0.031	0.000	17.9	1	1
03/17/06	5:06 p	-25.7	-25.7	-25.7	---	---	24.3	E	0.41	28.7	-42.4	---	---	723.1	0.031	0.000	17.9	1	1
03/17/06	5:07 p	-25.7	-25.7	-25.7	---	---	22.6	E	0.38	27.0	-41.9	---	---	723.1	0.031	0.000	17.9	1	1
03/17/06	5:08 p	-25.7	-25.7	-25.7	---	---	22.6	ENE	0.38	27.0	-41.9	---	---	723.1	0.031	0.000	17.9	1	1
03/17/06	5:09 p	-25.7	-25.7	-25.7	---	---	25.2	E	0.42	27.8	-42.7	---	---	723.1	0.031	0.000	17.9	1	1
03/17/06	5:10 p	-25.7	-25.7	-25.7	---	---	25.2	E	0.42	27.8	-42.6	---	---	723.1	0.031	0.000	17.9	1	1
03/17/06	5:11 p	-25.7	-25.7	-25.7	---	---	25.2	E	0.42	29.6	-42.6	---	---	723.1	0.031	0.000	17.9	1	1
03/17/06	5:12 p	-25.7	-25.7	-25.7	---	---	24.3	E	0.41	28.7	-42.4	---	---	723.1	0.031	0.000	17.9	1	1
03/17/06	5:13 p	-25.7	-25.7	-25.7	---	---	24.3	E	0.41	27.8	-42.4	---	---	723.1	0.031	0.000	17.9	1	1
03/17/06	5:14 p	-25.7	-25.7	-25.7	---	---	24.3	E	0.41	27.8	-42.4	---	---	723.1	0.031	0.000	17.9	1	1
03/17/06	5:15 p	-25.7	-25.7	-25.7	---	---	24.3	E	0.41	28.7	-42.4	---	---	723.0	0.031	0.000	17.9	1	1
03/17/06	5:16 p	-25.7	-25.7	-25.7	---	---	23.5	E	0.39	27.8	-42.2	---	---	723.1	0.031	0.000	17.9	1	1
03/17/06	5:17 p	-25.7	-25.7	-25.7	---	---	24.3	E	0.41	28.7	-42.4	---	---	723.1	0.031	0.000	17.9	1	1
03/17/06	5:18 p	-25.7	-25.7	-25.7	---	---	24.3	E	0.41	26.1	-42.4	---	---	723.1	0.031	0.000	17.8	1	1
03/17/06	5:19 p	-25.7	-25.7	-25.7	---	---	23.5	E	0.39	27.0	-42.2	---	---	723.1	0.031	0.000	17.8	1	1
03/17/06	5:20 p	-25.7	-25.7	-25.7	---	---	24.3	E	0.41	27.0	-42.4	---	---	723.1	0.031	0.000	17.8	1	1
03/17/06	5:21 p	-25.7	-25.7	-25.8	---	---	25.2	E	0.42	28.7	-42.7	---	---	723.0	0.031	0.000	17.8	1	1
03/17/06	5:22 p	-25.8	-25.7	-25.8	---	---	24.3	E	0.41	27.8	-42.5	---	---	723.0	0.031	0.000	17.8	1	1
03/17/06	5:23 p	-25.8	-25.7	-25.8	---	---	24.3	E	0.41	28.7	-42.5	---	---	723.1	0.031	0.000	17.8	1	1
03/17/06	5:24 p	-25.7	-25.7	-25.7	---	---	24.3	E	0.41	29.6	-42.4	---	---	723.0	0.031	0.000	17.8	1	1
03/17/06	5:25 p	-25.7	-25.7	-25.8	---	---	25.2	E	0.42	27.8	-42.7	---	---	723.1	0.031	0.000	17.8	1	1
03/17/06	5:26 p	-25.8	-25.7	-25.8	---	---	24.3	E	0.41	27.8	-42.5	---	---	723.0	0.031	0.000	17.8	1	1
03/17/06	5:27 p	-25.8	-25.7	-25.8	---	---	24.3	E	0.41	29.6	-42.5	---	---	723.1	0.031	0.000	17.8	1	1
03/17/06	5:28 p	-25.8	-25.7	-25.8	---	---	22.6	E	0.38	27.0	-42.1	---	---	723.0	0.031	0.000	17.8	1	1
03/17/06	5:29 p	-25.8	-25.8	-25.8	---	---	24.3	E	0.41	27.0	-42.5	---	---	723.1	0.031	0.000	17.8	1	1
03/17/06	5:30 p	-25.8	-25.8	-25.8	---	---	23.5	E	0.39	27.0	-42.3	---	---	723.0	0.031	0.000	17.9	1	1
03/17/06	5:31 p	-25.8	-25.8	-25.8	---	---	23.5	E	0.39	27.8	-42.3	---	---	723.1	0.031	0.000	17.9	1	1
03/17/06	5:32 p	-25.8	-25.8	-25.8	---	---	22.6	E	0.38	27.8	-42.1	---	---	723.1	0.031	0.000	17.9	1	1
03/17/06	5:33 p	-25.8	-25.8	-25.8	---	---	23.5	E	0.39	29.6	-42.3	---	---	723.0	0.031	0.000	18.0	1	1
03/17/06	5:34 p	-25.8	-25.8	-25.8	---	---	24.3	E	0.41	29.6	-42.5	---	---	722.9	0.031	0.000	18.0	1	1
03/17/06	5:35 p	-25.8	-25.8	-25.8	---	---	24.3	E	0.41	29.6	-42.5	---	---	723.0	0.031	0.000	18.1	1	1
03/17/06	5:36 p	-25.8	-25.8	-25.8	---	---	24.3	E	0.41	27.0	-42.5	---	---	722.9	0.031	0.000	18.1	1	1
03/17/06	5:37 p	-25.8	-25.8	-25.8	---	---	24.3	E	0.41	27.0	-42.6	---	---	723.0	0.031	0.000	18.1	1	1
03/17/06	5:38 p	-25.8	-25.8	-25.8	---	---	23.5	E	0.39	26.1	-42.3	---	---	722.9	0.031	0.000	18.1	1	1
03/17/06	5:39 p	-25.8	-25.8	-25.8	---	---	23.5	E	0.39	27.8	-42.4	---	---	722.9	0.031	0.000	18.1	1	1
03/17/06	5:40 p	-25.8	-25.8	-25.8	---	---	24.3	E	0.41	28.7	-42.5	---	---	722.9	0.031	0.000	18.1	1	1
03/17/06	5:41 p	-25.8	-25.8	-25.8	---	---	23.5	E	0.39	29.6	-42.4	---	---	723.0	0.031	0.000	18.1	1	1
03/17/06	5:42 p	-25.8	-25.8	-25.8	---	---	26.1	E	0.43	27.8	-43.1	---	---	722.9	0.031	0.000	18.1	1	1
03/17/06	5:43 p	-25.8	-25.8	-25.8	---	---	25.2	E	0.42	30.4	-42.8	---	---	723.0	0.031	0.000	18.1	1	1
03/17/06	5:44 p	-25.8	-25.8	-25.8	---	---	25.2	E	0.42	27.0	-42.8	---	---	723.1	0.031	0.000	18.1	1	1
03/17/06	5:45 p	-25.8	-25.8	-25.8	---	---	24.3	E	0.41	27.8	-42.6	---	---	723.1	0.031	0.000	18.0	1	1
03/17/06	5:46 p	-25.8	-25.8	-25.8	---	---	24.3	E	0.41	27.0	-42.6	---	---	723.1	0.031	0.000	18.0	1	1
03/17/06	5:47 p	-25.8	-25.8	-25.9	---	---	24.3	E	0.41	27.0	-42.6	---	---	723.1	0.031	0.000	18.0	1	1
03/17/06	5:48 p	-25.8	-25.8	-25.8	---	---	26.1	E	0.43	29.6	-43.1	---	---	723.1	0.031	0.000	18.0	1	1
03/17/06	5:49 p	-25.8	-25.8	-25.8	---	---	25.2	E	0.42	28.7	-42.8	---	---	723.0	0.031	0.000	17.9	1	1
03/17/06	5:50 p	-25.9	-25.9	-25.9	---	---	26.1	E	0.43	29.6	-43.1	---	---	723.0	0.031	0.000	17.9	1	1
03/17/06	5:51 p	-25.9	-25.8	-25.9	---	---	25.2	E	0.42	27.8	-42.9	---	---	723.1	0.031	0.000	17.9	1	1
03/17/06	5:52 p	-25.8	-25.8	-25.9	---	---	25.2	E	0.42	30.4	-42.8	---	---	723.0	0.031	0.000	17.9	1	1
03/17/06	5:53 p	-25.9	-25.8	-25.9	---	---	25.2	E	0.42	27.8	-42.9	---	---	723.0	0.031	0.000	17.9	1	1
03/17/06	5:54 p	-25.9	-25.8	-25.9	---	---	26.1	E	0.43	29.6	-43.1	---	---	723.0	0.031	0.000	17.9	1	1
03/17/06	5:55 p	-25.9	-25.9	-25.9	---	---	25.2	E	0.42	28.7	-42.9	---	---	723.0	0.031	0.000	17.9	1	1
03/17/06	5:56 p	-25.9	-25.9	-25.9	---	---	23.5	E	0.39	27.8	-42.4	---	---	723.1	0.031	0.000	17.9	1	1
03/17/06	5:57 p	-25.9	-25.9	-25.9	---	---	24.3	E	0.41	29.6	-42.7	---	---	723.0	0.031	0.000	17.9	1	1
03/17/06	5:58 p	-25.9	-25.9	-25.9	---	---	24.3	E	0.41	27.8	-42.7	---	---	723.0	0.031	0.000	17.9	1	1
03/17/06	5:59 p	-25.9	-25.9	-25.9	---	---	24.3	E	0.41	27.8	-42.7	---	---	723.0	0.031	0.000	17.9	1	1
03/17/06	6:00 p	-25.9	-25.9	-25.9	---	---	26.1	E	0.43	31.3	-43.2	---	---	723.0	0.031	0.000	17.9	1	1
03/17/06	6:01 p	-25.9	-25.9	-25.9	---	---	27.0	E	0.45	30.4	-43.4	---	---	722.9	0.031	0.000	17.9	1	1
03/17/06	6:02 p	-25.9	-25.9	-25.9	---	---	25.2	E	0.42	28.7	-42.9	---	---	723.0	0.031	0.000	17.8	1	1
03/17/06	6:03 p	-25.9	-25.9	-25.9	---	---	24.3	E	0.41	27.8	-42.7	---	---	723.1	0.031	0.000	17.8	1	1
03/17/06	6:04 p	-25.9	-25.9	-25.9	---	---	25.2	E	0.42	28.7	-42.9	---	---	723.0	0.031	0.000	17.8	1	1
03/17/06	6:05 p	-25.9	-25.9	-25.9	---	---	23.5	E	0.39	27.8	-42.5	---	---	722.9	0.031	0.000	17.8	1	1
03/17/06	6:06 p	-25.9	-25.9	-25.9	---	---	25.2	E	0.42	28.7	-42.9	---	---	722.8	0.031	0.000	17.8	1	1
03/17/06	6:07 p	-25.9	-25.9	-25.9	---	---	26.1	E	0.43	29.6	-43.2	---	---	722.9	0.031	0.000	17.8	1	1
03/17/06	6:08 p	-25.9	-25.9	-25.9	---	---	26.1	E	0.43	30.4	-43.2	---	---	723.0	0.031	0.000	17.8	1	1
03/17/06	6:09 p	-25.9	-25.9	-25.9	---	---	26.1	E	0.43	28.7	-43.2	---	---	722.9	0.031	0.000	17.8	1	1
03/17/06	6:10 p	-25.9	-25.9	-25.9	---	---	26.1	E	0.43	30.4	-43.2	---	---	723.0	0.031	0.000	17.8	1	1
03/17/06	6:11 p	-25.9	-25.9	-25.9	---	---	25.2	E	0.42	28.7	-42.9	---	---	723.0	0.031	0.000	17.8	1	1
03/17/06	6:12 p	-25.9	-25.9	-25.9	---	---	25.2	E	0.42	28.7	-42.9	---	---	722.9	0.031	0.000	17.8	1	1
03/17/06	6:13 p	-25.9	-25.9	-25.9	---	---	25.2	E	0.42	28.7	-42.9	---	---	722.9	0.031	0.000	17.8	1	1
03/17/06	6:14 p	-25.9	-25.9	-26.0	---	---	24.3	E	0.41	27.8	-42.7	---	---	722.9	0.031	0.000	17.8	1	1
03/17/06	6:15 p	-25.9	-25.9	-25.9	---	---	26.1	E	0.43	30.4	-43.2	---	---	722.9	0.031	0.000	17.8	1	1
03/17/06	6:16 p	-25.9	-25.9	-25.9	---	---	24.3	E	0.41	28.7	-42.7	---	---	722.9	0.031	0.000	17.8	1	1
03/17/06	6:17 p	-25.9	-25.9	-25.9	---	---	26.1	E	0.43	30.4	-43.2	---	---	722.8	0.031	0.000	17.9	1	1
03/17/06	6:18 p	-25.9	-25.9	-25.9	---	---	26.1	E	0.43	31.3	-43.2	---	---	722.9	0.031	0.000	17.9	1	1
03/17/06	6:19 p	-25.9	-25.9	-25.9	---	---	25.2	E	0.42	29.6	-42.9	---	---	722.9	0.031	0.000	17.9	1	1
03/17/06	6:20 p	-25.9	-25.9	-26.0	---	---	27.0	E	0.45	29.6	-43.4	---	---	722.9	0.031	0.000	18.0	1	1
03/17/06	6:21 p	-26.0	-25.9	-26.0	---	---	26.1	E	0.43	28.7	-43.3	---	---	722.9	0.031	0.000	18.0	1	1
03/17/06	6:22 p	-25.9	-25.9	-25.9	---	---	25.2	E	0.42	28.7	-42.9	---	---	722.9	0.031	0.000	18.1	1	1
03/17/06	6:23 p	-25.9	-25.9	-26.0	---	---	26.1	E	0.43	29.6	-43.2	---	---	722.8	0.031	0.000	18.1	1	1
03/17/06	6:24 p	-25.9	-25.9	-26.0	---	---	26.1	E	0.43	29.6	-43.2	---	---	722.7	0.031	0.000	18.1	1	1
03/17/06	6:25 p	-26.0	-25.9	-26.0	---	---	27.0	E	0.45	28.7	-43.4	---	---	722.7	0.031	0.000	18.1	1	1
03/17/06	6:26 p	-26.0	-26.0	-26.0	---	---	25.2	E	0.42	28.7	-43.1	---	---	722.8	0.031	0.000	18.1	1	1
03/17/06	6:27 p	-25.9	-25.9	-25.9	---	---	25.2	E	0.42	28.7	-42.9	---	---	722.8	0.031	0.000	18.1	1	1
03/17/06	6:28 p	-25.9	-25.9	-26.0	---	---	26.1	E	0.43	29.6	-43.2	---	---	722.8	0.031	0.000	18.1	1	1
03/17/06	6:29 p	-26.0	-26.0	-26.0	---	---	25.2	E	0.42	28.7	-43.1	---	---	722.8	0.031	0.000	18.0	1	1
03/17/06	6:30 p	-25.9	-25.9	-26.0	---	---	26.1	E	0.43	32.2	-43.2	---	---	722.7	0.031	0.000	18.0	1	1
03/17/06	6:31 p	-25.9	-25.9	-26.0	---	---	27.0	E	0.45	29.6	-43.4	---	---	722.7	0.031	0.000	18.0	1	1
03/17/06	6:32 p	-26.0	-25.9	-26.0	---	---	25.2	E	0.42	32.2	-43.1	---	---	722.8	0.031	0.000	18.0	1	1
03/17/06	6:33 p	-26.0	-25.9	-26.0	---	---	26.1	E	0.43	29.6	-43.3	---	---	722.7	0.031	0.000	18.0	1	1
03/17/06	6:34 p	-26.0	-26.0	-26.0	---	---	27.0	E	0.45	29.6	-43.4	---	---	722.9	0.031	0.000	17.9	1	1
03/17/06	6:35 p	-26.0	-26.0	-26.0	---	---	25.2	E	0.42	28.7	-43.1	---	---	722.8	0.031	0.000	17.9	1	1
03/17/06	6:36 p	-26.0	-26.0	-26.0	---	---	25.2	E	0.42	28.7	-43.1	---	---	722.8	0.031	0.000	17.9	1	1
03/17/06	6:37 p	-26.0	-26.0	-26.0	---	---	26.1	E	0.43	29.6	-43.3	---	---	722.8	0.031	0.000	17.9	1	1
03/17/06	6:38 p	-26.0	-26.0	-26.0	---	---	25.2	E	0.42	27.8	-43.1	---	---	722.8	0.031	0.000	17.9	1	1
03/17/06	6:39 p	-26.0	-26.0	-26.0	---	---	25.2	E	0.42	30.4	-43.1	---	---	722.8	0.031	0.000	17.9	1	1
03/17/06	6:40 p	-26.0	-26.0	-26.0	---	---	24.3	E	0.41	27.8	-42.8	---	---	722.8	0.031	0.000	17.9	1	1
03/17/06	6:41 p	-26.0	-26.0	-26.0	---	---	25.2	E	0.42	29.6	-43.1	---	---	722.7	0.031	0.000	17.9	1	1
03/17/06	6:42 p	-26.0	-26.0	-26.0	---	---	27.0	E	0.45	32.2	-43.4	---	---	722.7	0.031	0.000	17.9	1	1
03/17/06	6:43 p	-26.0	-26.0	-26.0	---	---	26.1	E	0.43	31.3	-43.3	---	---	722.7	0.031	0.000	17.8	1	1
03/17/06	6:44 p	-26.0	-26.0	-26.0	---	---	24.3	E	0.41	28.7	-42.8	---	---	722.7	0.031	0.000	17.8	1	1
03/17/06	6:45 p	-26.1	-26.0	-26.1	---	---	26.1	E	0.43	28.7	-43.3	---	---	722.7	0.031	0.000	17.8	1	1
03/17/06	6:46 p	-26.0	-26.0	-26.1	---	---	24.3	E	0.41	28.7	-42.8	---	---	722.7	0.031	0.000	17.8	1	1
03/17/06	6:47 p	-26.0	-26.0	-26.0	---	---	25.2	E	0.42	27.8	-43.1	---	---	722.8	0.031	0.000	17.8	1	1
03/17/06	6:48 p	-26.0	-26.0	-26.0	---	---	25.2	E	0.42	28.7	-43.1	---	---	722.7	0.031	0.000	17.8	1	1
03/17/06	6:49 p	-26.0	-26.0	-26.0	---	---	27.0	E	0.45	30.4	-43.4	---	---	722.7	0.031	0.000	17.8	1	1
03/17/06	6:50 p	-26.0	-26.0	-26.0	---	---	27.0	E	0.45	29.6	-43.4	---	---	722.7	0.031	0.000	17.8	1	1
03/17/06	6:51 p	-26.0	-26.0	-26.0	---	---	27.8	E	0.46	32.2	-43.7	---	---	722.7	0.031	0.000	17.8	1	1
03/17/06	6:52 p	-26.0	-26.0	-26.1	---	---	27.0	E	0.45	30.4	-43.4	---	---	722.7	0.031	0.000	17.8	1	1
03/17/06	6:53 p	-26.0	-26.0	-26.0	---	---	26.1	E	0.43	30.4	-43.3	---	---	722.8	0.031	0.000	17.8	1	1
03/17/06	6:54 p	-26.0	-26.0	-26.1	---	---	27.8	E	0.46	30.4	-43.7	---	---	722.8	0.031	0.000	17.8	1	1
03/17/06	6:55 p	-26.0	-26.0	-26.1	---	---	27.0	E	0.45	29.6	-43.4	---	---	722.8	0.031	0.000	17.8	1	1
03/17/06	6:56 p	-26.0	-26.0	-26.0	---	---	27.8	E	0.46	30.4	-43.7	---	---	722.7	0.031	0.000	17.8	1	1
03/17/06	6:57 p	-26.1	-26.0	-26.1	---	---	27.8	E	0.46	31.3	-43.8	---	---	722.7	0.031	0.000	17.8	1	1
03/17/06	6:58 p	-26.0	-26.0	-26.0	---	---	27.0	E	0.45	29.6	-43.4	---	---	722.7	0.031	0.000	17.8	1	1
03/17/06	6:59 p	-26.0	-26.0	-26.0	---	---	23.5	E	0.39	28.7	-42.6	---	---	722.7	0.031	0.000	17.8	1	1
03/17/06	7:00 p	-26.0	-26.0	-26.0	---	---	26.1	E	0.43	30.4	-43.3	---	---	722.7	0.031	0.000	17.8	1	1
03/17/06	7:01 p	-26.0	-26.0	-26.1	---	---	26.1	E	0.43	29.6	-43.3	---	---	722.7	0.031	0.000	17.9	1	1
03/17/06	7:02 p	-26.0	-26.0	-26.0	---	---	26.1	E	0.43	32.2	-43.3	---	---	722.7	0.031	0.000	17.9	1	1
03/17/06	7:03 p	-26.0	-26.0	-26.0	---	---	26.1	E	0.43	31.3	-43.3	---	---	722.8	0.031	0.000	17.9	1	1
03/17/06	7:04 p	-26.0	-26.0	-26.1	---	---	27.0	E	0.45	30.4	-43.4	---	---	722.7	0.031	0.000	18.0	1	1
03/17/06	7:05 p	-26.1	-26.0	-26.1	---	---	26.1	E	0.43	30.4	-43.3	---	---	722.7	0.031	0.000	18.0	1	1
03/17/06	7:06 p	-26.1	-26.1	-26.1	---	---	26.1	E	0.43	31.3	-43.3	---	---	722.7	0.031	0.000	18.1	1	1
03/17/06	7:07 p	-26.0	-26.0	-26.1	---	---	27.0	E	0.45	29.6	-43.4	---	---	722.7	0.031	0.000	18.1	1	1
03/17/06	7:08 p	-26.1	-26.0	-26.1	---	---	26.1	E	0.43	31.3	-43.3	---	---	722.6	0.031	0.000	18.1	1	1
03/17/06	7:09 p	-26.1	-26.1	-26.1	---	---	27.0	E	0.45	30.4	-43.6	---	---	722.7	0.031	0.000	18.1	1	1
03/17/06	7:10 p	-26.1	-26.0	-26.1	---	---	25.2	E	0.42	30.4	-43.1	---	---	722.8	0.031	0.000	18.1	1	1
03/17/06	7:11 p	-26.1	-26.0	-26.1	---	---	25.2	E	0.42	28.7	-43.1	---	---	722.7	0.031	0.000	18.1	1	1
03/17/06	7:12 p	-26.1	-26.1	-26.1	---	---	26.1	E	0.43	28.7	-43.3	---	---	722.6	0.031	0.000	18.1	1	1
03/17/06	7:13 p	-26.1	-26.1	-26.1	---	---	27.0	E	0.45	30.4	-43.6	---	---	722.5	0.031	0.000	18.0	1	1
03/17/06	7:14 p	-26.1	-26.0	-26.1	---	---	26.1	E	0.43	31.3	-43.3	---	---	722.6	0.031	0.000	18.0	1	1
03/17/06	7:15 p	-26.0	-26.0	-26.1	---	---	27.8	E	0.46	31.3	-43.7	---	---	722.7	0.031	0.000	18.0	1	1
03/17/06	7:16 p	-26.1	-26.1	-26.1	---	---	25.2	E	0.42	29.6	-43.1	---	---	722.7	0.031	0.000	18.0	1	1
03/17/06	7:17 p	-26.1	-26.1	-26.1	---	---	26.1	E	0.43	30.4	-43.3	---	---	722.6	0.031	0.000	18.0	1	1
03/17/06	7:18 p	-26.1	-26.0	-26.1	---	---	27.0	E	0.45	31.3	-43.6	---	---	722.6	0.031	0.000	17.9	1	1
03/17/06	7:19 p	-26.1	-26.0	-26.1	---	---	27.8	E	0.46	32.2	-43.8	---	---	722.5	0.031	0.000	17.9	1	1
03/17/06	7:20 p	-26.0	-26.0	-26.1	---	---	27.8	E	0.46	31.3	-43.7	---	---	722.6	0.031	0.000	17.9	1	1
03/17/06	7:21 p	-26.1	-26.0	-26.1	---	---	27.8	E	0.46	31.3	-43.8	---	---	722.7	0.031	0.000	17.9	1	1
03/17/06	7:22 p	-26.1	-26.0	-26.1	---	---	26.1	E	0.43	28.7	-43.3	---	---	722.7	0.031	0.000	17.9	1	1
03/17/06	7:23 p	-26.0	-26.0	-26.0	---	---	27.0	E	0.45	29.6	-43.4	---	---	722.7	0.031	0.000	17.9	1	1
03/17/06	7:24 p	-26.1	-26.0	-26.1	---	---	27.8	E	0.46	30.4	-43.8	---	---	722.5	0.031	0.000	17.9	1	1
03/17/06	7:25 p	-26.1	-26.0	-26.1	---	---	28.7	E	0.48	33.9	-43.9	---	---	722.5	0.031	0.000	17.9	1	1
03/17/06	7:26 p	-26.0	-26.0	-26.1	---	---	27.0	E	0.45	30.4	-43.4	---	---	722.6	0.031	0.000	17.9	1	1
03/17/06	7:27 p	-26.0	-26.0	-26.0	---	---	27.0	E	0.45	30.4	-43.4	---	---	722.7	0.031	0.000	17.9	1	1
03/17/06	7:28 p	-26.0	-26.0	-26.0	---	---	27.0	E	0.45	29.6	-43.4	---	---	722.5	0.031	0.000	17.8	1	1
03/17/06	7:29 p	-26.0	-26.0	-26.0	---	---	27.8	E	0.46	30.4	-43.7	---	---	722.6	0.031	0.000	17.8	1	1
03/17/06	7:30 p	-26.0	-26.0	-26.1	---	---	28.7	E	0.48	33.0	-43.9	---	---	722.7	0.031	0.000	17.8	1	1
03/17/06	7:31 p	-26.0	-26.0	-26.0	---	---	27.0	E	0.45	31.3	-43.4	---	---	722.7	0.031	0.000	17.8	1	1
03/17/06	7:32 p	-26.0	-26.0	-26.0	---	---	26.1	E	0.43	30.4	-43.3	---	---	722.7	0.031	0.000	17.8	1	1
03/17/06	7:33 p	-26.0	-26.0	-26.0	---	---	27.0	E	0.45	32.2	-43.4	---	---	722.5	0.031	0.000	17.8	1	1
03/17/06	7:34 p	-26.0	-26.0	-26.0	---	---	28.7	E	0.48	32.2	-43.9	---	---	722.5	0.031	0.000	17.8	1	1
03/17/06	7:35 p	-26.0	-26.0	-26.0	---	---	28.7	E	0.48	33.9	-43.9	---	---	722.6	0.031	0.000	17.8	1	1
03/17/06	7:36 p	-26.0	-26.0	-26.0	---	---	28.7	E	0.48	31.3	-43.9	---	---	722.7	0.031	0.000	17.8	1	1
03/17/06	7:37 p	-26.0	-26.0	-26.0	---	---	27.8	E	0.46	31.3	-43.7	---	---	722.6	0.031	0.000	17.8	1	1
03/17/06	7:38 p	-26.0	-25.9	-26.0	---	---	27.0	E	0.45	31.3	-43.4	---	---	722.8	0.031	0.000	17.8	1	1
03/17/06	7:39 p	-26.0	-26.0	-26.0	---	---	27.0	E	0.45	32.2	-43.4	---	---	722.7	0.031	0.000	17.8	1	1
03/17/06	7:40 p	-26.0	-25.9	-26.0	---	---	27.0	E	0.45	30.4	-43.4	---	---	722.6	0.031	0.000	17.8	1	1
03/17/06	7:41 p	-26.0	-26.0	-26.0	---	---	27.0	E	0.45	32.2	-43.4	---	---	722.5	0.031	0.000	17.8	1	1
03/17/06	7:42 p	-26.0	-25.9	-26.0	---	---	30.4	E	0.51	33.9	-44.3	---	---	722.5	0.031	0.000	17.8	1	1
03/17/06	7:43 p	-25.9	-25.9	-25.9	---	---	30.4	E	0.51	35.7	-44.2	---	---	722.6	0.031	0.000	17.8	1	1
03/17/06	7:44 p	-25.9	-25.9	-25.9	---	---	28.7	E	0.48	32.2	-43.8	---	---	722.7	0.031	0.000	17.9	1	1
03/17/06	7:45 p	-25.9	-25.9	-26.0	---	---	27.0	E	0.45	30.4	-43.4	---	---	722.8	0.031	0.000	17.9	1	1
03/17/06	7:46 p	-25.9	-25.9	-25.9	---	---	25.2	E	0.42	29.6	-42.9	---	---	722.8	0.031	0.000	17.9	1	1
03/17/06	7:47 p	-25.9	-25.9	-25.9	---	---	27.0	E	0.45	33.0	-43.4	---	---	722.6	0.031	0.000	18.0	1	1
03/17/06	7:48 p	-25.9	-25.9	-25.9	---	---	30.4	E	0.51	36.5	-44.2	---	---	722.5	0.031	0.000	18.0	1	1
03/17/06	7:49 p	-25.9	-25.9	-25.9	---	---	31.3	E	0.52	36.5	-44.3	---	---	722.5	0.031	0.000	18.1	1	1
03/17/06	7:50 p	-25.9	-25.9	-25.9	---	---	30.4	E	0.51	34.8	-44.2	---	---	722.6	0.031	0.000	18.1	1	1
03/17/06	7:51 p	-25.9	-25.9	-25.9	---	---	28.7	E	0.48	31.3	-43.7	---	---	722.7	0.031	0.000	18.1	1	1
03/17/06	7:52 p	-25.9	-25.9	-25.9	---	---	27.8	E	0.46	31.3	-43.6	---	---	722.8	0.031	0.000	18.1	1	1
03/17/06	7:53 p	-25.9	-25.9	-25.9	---	---	27.8	E	0.46	32.2	-43.5	---	---	722.6	0.031	0.000	18.1	1	1
03/17/06	7:54 p	-25.9	-25.9	-25.9	---	---	27.0	E	0.45	31.3	-43.3	---	---	722.6	0.031	0.000	18.1	1	1
03/17/06	7:55 p	-25.9	-25.8	-25.9	---	---	28.7	E	0.48	34.8	-43.7	---	---	722.4	0.031	0.000	18.1	1	1
03/17/06	7:56 p	-25.8	-25.8	-25.9	---	---	31.3	E	0.52	34.8	-44.2	---	---	722.6	0.031	0.000	18.1	1	1
03/17/06	7:57 p	-25.9	-25.8	-25.9	---	---	29.6	E	0.49	33.0	-43.9	---	---	722.6	0.031	0.000	18.1	1	1
03/17/06	7:58 p	-25.8	-25.8	-25.9	---	---	29.6	E	0.49	33.0	-43.8	---	---	722.6	0.031	0.000	18.1	1	1
03/17/06	7:59 p	-25.8	-25.8	-25.9	---	---	28.7	E	0.48	33.9	-43.7	---	---	722.6	0.031	0.000	18.1	1	1
03/17/06	8:00 p	-25.8	-25.8	-25.8	---	---	27.8	E	0.46	31.3	-43.4	---	---	722.6	0.031	0.000	18.0	1	1
03/17/06	8:01 p	-25.8	-25.8	-25.8	---	---	30.4	E	0.51	35.7	-44.1	---	---	722.5	0.031	0.000	18.0	1	1
03/17/06	8:02 p	-25.8	-25.8	-25.8	---	---	29.6	E	0.49	33.0	-43.8	---	---	722.6	0.031	0.000	18.0	1	1
03/17/06	8:03 p	-25.8	-25.8	-25.8	---	---	28.7	E	0.48	34.8	-43.7	---	---	722.6	0.031	0.000	17.9	1	1
03/17/06	8:04 p	-25.8	-25.8	-25.8	---	---	28.7	E	0.48	33.0	-43.7	---	---	722.6	0.031	0.000	17.9	1	1
03/17/06	8:05 p	-25.8	-25.8	-25.8	---	---	30.4	E	0.51	33.9	-44.1	---	---	722.6	0.031	0.000	17.9	1	1
03/17/06	8:06 p	-25.8	-25.8	-25.8	---	---	30.4	E	0.51	33.9	-43.9	---	---	722.5	0.031	0.000	17.9	1	1
03/17/06	8:07 p	-25.8	-25.8	-25.8	---	---	31.3	E	0.52	33.9	-44.2	---	---	722.6	0.031	0.000	17.9	1	1
03/17/06	8:08 p	-25.8	-25.8	-25.8	---	---	30.4	E	0.51	33.9	-43.9	---	---	722.6	0.031	0.000	17.9	1	1
03/17/06	8:09 p	-25.8	-25.8	-25.8	---	---	29.6	E	0.49	33.0	-43.8	---	---	722.6	0.031	0.000	17.9	1	1
03/17/06	8:10 p	-25.8	-25.8	-25.8	---	---	30.4	E	0.51	33.0	-44.1	---	---	722.6	0.031	0.000	17.8	1	1
03/17/06	8:11 p	-25.8	-25.8	-25.8	---	---	28.7	E	0.48	33.9	-43.6	---	---	722.6	0.031	0.000	17.8	1	1
03/17/06	8:12 p	-25.8	-25.8	-25.8	---	---	29.6	E	0.49	33.9	-43.8	---	---	722.5	0.031	0.000	17.8	1	1
03/17/06	8:13 p	-25.8	-25.7	-25.8	---	---	29.6	E	0.49	33.9	-43.8	---	---	722.5	0.031	0.000	17.8	1	1
03/17/06	8:14 p	-25.8	-25.8	-25.8	---	---	29.6	E	0.49	35.7	-43.8	---	---	722.5	0.031	0.000	17.8	1	1
03/17/06	8:15 p	-25.8	-25.8	-25.8	---	---	32.2	E	0.54	36.5	-44.3	---	---	722.5	0.031	0.000	17.8	1	1
03/17/06	8:16 p	-25.8	-25.7	-25.8	---	---	31.3	E	0.52	35.7	-44.2	---	---	722.6	0.031	0.000	17.8	1	1
03/17/06	8:17 p	-25.7	-25.7	-25.8	---	---	30.4	E	0.51	34.8	-43.9	---	---	722.6	0.031	0.000	17.8	1	1
03/17/06	8:18 p	-25.7	-25.7	-25.8	---	---	30.4	E	0.51	35.7	-43.9	---	---	722.6	0.031	0.000	17.8	1	1
03/17/06	8:19 p	-25.7	-25.7	-25.7	---	---	29.6	E	0.49	33.9	-43.7	---	---	722.6	0.031	0.000	17.7	1	1
03/17/06	8:20 p	-25.7	-25.7	-25.7	---	---	29.6	E	0.49	33.9	-43.7	---	---	722.6	0.031	0.000	17.7	1	1
03/17/06	8:21 p	-25.7	-25.7	-25.7	---	---	27.0	E	0.45	32.2	-43.1	---	---	722.6	0.031	0.000	17.7	1	1
03/17/06	8:22 p	-25.7	-25.7	-25.7	---	---	30.4	E	0.51	33.0	-43.9	---	---	722.6	0.031	0.000	17.7	1	1
03/17/06	8:23 p	-25.7	-25.7	-25.7	---	---	31.3	E	0.52	34.8	-44.0	---	---	722.6	0.031	0.000	17.7	1	1
03/17/06	8:24 p	-25.7	-25.7	-25.7	---	---	30.4	E	0.51	33.0	-43.9	---	---	722.6	0.031	0.000	17.7	1	1
03/17/06	8:25 p	-25.7	-25.7	-25.7	---	---	28.7	E	0.48	31.3	-43.4	---	---	722.6	0.031	0.000	17.7	1	1
03/17/06	8:26 p	-25.7	-25.7	-25.7	---	---	29.6	E	0.49	32.2	-43.7	---	---	722.5	0.031	0.000	17.8	1	1
03/17/06	8:27 p	-25.7	-25.7	-25.7	---	---	30.4	E	0.51	33.9	-43.9	---	---	722.5	0.031	0.000	17.8	1	1
03/17/06	8:28 p	-25.7	-25.7	-25.7	---	---	31.3	E	0.52	34.8	-44.0	---	---	722.6	0.031	0.000	17.8	1	1
03/17/06	8:29 p	-25.7	-25.7	-25.7	---	---	28.7	E	0.48	35.7	-43.4	---	---	722.6	0.031	0.000	17.9	1	1
03/17/06	8:30 p	-25.7	-25.7	-25.7	---	---	29.6	E	0.49	33.0	-43.6	---	---	722.7	0.031	0.000	17.9	1	1
03/17/06	8:31 p	-25.6	-25.6	-25.6	---	---	30.4	E	0.51	34.8	-43.7	---	---	722.6	0.031	0.000	17.9	1	1
03/17/06	8:32 p	-25.6	-25.6	-25.6	---	---	29.6	E	0.49	36.5	-43.6	---	---	722.5	0.031	0.000	18.0	1	1
03/17/06	8:33 p	-25.6	-25.6	-25.6	---	---	31.3	ESE	0.52	35.7	-43.9	---	---	722.4	0.031	0.000	18.0	1	1
03/17/06	8:34 p	-25.6	-25.6	-25.7	---	---	32.2	E	0.54	35.7	-44.1	---	---	722.5	0.031	0.000	18.0	1	1
03/17/06	8:35 p	-25.6	-25.6	-25.7	---	---	30.4	E	0.51	33.0	-43.7	---	---	722.6	0.031	0.000	18.0	1	1
03/17/06	8:36 p	-25.7	-25.6	-25.7	---	---	29.6	E	0.49	33.9	-43.6	---	---	722.5	0.031	0.000	18.0	1	1
03/17/06	8:37 p	-25.6	-25.6	-25.6	---	---	31.3	E	0.52	34.8	-43.9	---	---	722.4	0.031	0.000	18.0	1	1
03/17/06	8:38 p	-25.6	-25.6	-25.6	---	---	33.0	E	0.55	36.5	-44.3	---	---	722.4	0.031	0.000	18.0	1	1
03/17/06	8:39 p	-25.6	-25.6	-25.6	---	---	32.2	E	0.54	36.5	-44.1	---	---	722.4	0.031	0.000	18.0	1	1
03/17/06	8:40 p	-25.6	-25.6	-25.6	---	---	30.4	E	0.51	35.7	-43.7	---	---	722.5	0.030	0.000	18.0	1	1
03/17/06	8:41 p	-25.6	-25.6	-25.6	---	---	30.4	E	0.51	33.9	-43.7	---	---	722.6	0.031	0.000	17.9	1	1
03/17/06	8:42 p	-25.6	-25.6	-25.6	---	---	30.4	E	0.51	36.5	-43.7	---	---	722.5	0.031	0.000	17.9	1	1
03/17/06	8:43 p	-25.6	-25.6	-25.6	---	---	30.4	E	0.51	34.8	-43.7	---	---	722.5	0.031	0.000	17.9	1	1
03/17/06	8:44 p	-25.6	-25.6	-25.6	---	---	32.2	E	0.54	36.5	-44.1	---	---	722.4	0.031	0.000	17.9	1	1
03/17/06	8:45 p	-25.6	-25.6	-25.6	---	---	33.0	E	0.55	37.4	-44.3	---	---	722.5	0.031	0.000	17.9	1	1
03/17/06	8:46 p	-25.6	-25.6	-25.6	---	---	33.0	E	0.55	38.3	-44.3	---	---	722.4	0.031	0.000	17.8	1	1
03/17/06	8:47 p	-25.6	-25.6	-25.6	---	---	32.2	E	0.54	34.8	-44.1	---	---	722.5	0.031	0.000	17.8	1	1
03/17/06	8:48 p	-25.6	-25.6	-25.6	---	---	31.3	E	0.52	34.8	-43.9	---	---	722.5	0.031	0.000	17.8	1	1
03/17/06	8:49 p	-25.6	-25.6	-25.6	---	---	33.0	E	0.55	37.4	-44.3	---	---	722.4	0.031	0.000	17.8	1	1
03/17/06	8:50 p	-25.6	-25.6	-25.6	---	---	34.8	E	0.58	38.3	-44.6	---	---	722.5	0.031	0.000	17.8	1	1
03/17/06	8:51 p	-25.6	-25.6	-25.6	---	---	32.2	E	0.54	35.7	-44.1	---	---	722.6	0.031	0.000	17.8	1	1
03/17/06	8:52 p	-25.6	-25.6	-25.6	---	---	30.4	E	0.51	33.9	-43.7	---	---	722.6	0.031	0.000	17.8	1	1
03/17/06	8:53 p	-25.6	-25.6	-25.6	---	---	30.4	E	0.51	33.9	-43.7	---	---	722.4	0.031	0.000	17.8	1	1
03/17/06	8:54 p	-25.6	-25.6	-25.6	---	---	30.4	E	0.51	35.7	-43.7	---	---	722.4	0.031	0.000	17.7	1	1
03/17/06	8:55 p	-25.6	-25.6	-25.6	---	---	31.3	E	0.52	33.9	-43.9	---	---	722.5	0.031	0.000	17.7	1	1
03/17/06	8:56 p	-25.6	-25.6	-25.6	---	---	29.6	E	0.49	35.7	-43.4	---	---	722.6	0.030	0.000	17.7	1	1
03/17/06	8:57 p	-25.6	-25.6	-25.6	---	---	28.7	E	0.48	33.0	-43.3	---	---	722.7	0.030	0.000	17.7	1	1
03/17/06	8:58 p	-25.6	-25.6	-25.6	---	---	29.6	E	0.49	33.9	-43.4	---	---	722.6	0.030	0.000	17.7	1	1
03/17/06	8:59 p	-25.6	-25.6	-25.6	---	---	30.4	E	0.51	33.9	-43.7	---	---	722.5	0.030	0.000	17.7	1	1
03/17/06	9:00 p	-25.6	-25.6	-25.6	---	---	30.4	E	0.51	36.5	-43.7	---	---	722.5	0.031	0.000	17.7	1	1
03/17/06	9:01 p	-25.6	-25.6	-25.6	---	---	31.3	E	0.52	33.9	-43.9	---	---	722.5	0.031	0.000	17.7	1	1
03/17/06	9:02 p	-25.6	-25.6	-25.6	---	---	30.4	E	0.51	35.7	-43.7	---	---	722.5	0.031	0.000	17.7	1	1
03/17/06	9:03 p	-25.6	-25.6	-25.6	---	---	29.6	ESE	0.49	32.2	-43.6	---	---	722.6	0.031	0.000	17.7	1	1
03/17/06	9:04 p	-25.6	-25.6	-25.6	---	---	30.4	E	0.51	33.0	-43.7	---	---	722.5	0.031	0.000	17.7	1	1
03/17/06	9:05 p	-25.6	-25.6	-25.6	---	---	29.6	E	0.49	33.0	-43.6	---	---	722.5	0.031	0.000	17.8	1	1
03/17/06	9:06 p	-25.6	-25.6	-25.6	---	---	29.6	E	0.49	33.0	-43.4	---	---	722.4	0.030	0.000	17.8	1	1
03/17/06	9:07 p	-25.6	-25.6	-25.6	---	---	30.4	E	0.51	33.0	-43.7	---	---	722.5	0.031	0.000	17.9	1	1
03/17/06	9:08 p	-25.6	-25.6	-25.6	---	---	29.6	E	0.49	32.2	-43.4	---	---	722.5	0.030	0.000	17.9	1	1
03/17/06	9:09 p	-25.6	-25.6	-25.6	---	---	30.4	E	0.51	33.9	-43.7	---	---	722.5	0.030	0.000	17.9	1	1
03/17/06	9:10 p	-25.6	-25.6	-25.6	---	---	29.6	E	0.49	32.2	-43.4	---	---	722.6	0.030	0.000	17.9	1	1
03/17/06	9:11 p	-25.6	-25.6	-25.6	---	---	29.6	E	0.49	32.2	-43.4	---	---	722.5	0.030	0.000	18.0	1	1
03/17/06	9:12 p	-25.6	-25.6	-25.6	---	---	30.4	E	0.51	33.9	-43.7	---	---	722.4	0.030	0.000	18.0	1	1
03/17/06	9:13 p	-25.6	-25.6	-25.6	---	---	30.4	E	0.51	37.4	-43.7	---	---	722.4	0.030	0.000	18.0	1	1
03/17/06	9:14 p	-25.6	-25.5	-25.6	---	---	31.3	E	0.52	35.7	-43.8	---	---	722.5	0.030	0.000	18.0	1	1
03/17/06	9:15 p	-25.6	-25.6	-25.6	---	---	30.4	E	0.51	33.9	-43.7	---	---	722.5	0.030	0.000	18.0	1	1
03/17/06	9:16 p	-25.6	-25.6	-25.6	---	---	30.4	E	0.51	34.8	-43.7	---	---	722.6	0.030	0.000	18.0	1	1
03/17/06	9:17 p	-25.6	-25.6	-25.6	---	---	28.7	E	0.48	32.2	-43.3	---	---	722.6	0.030	0.000	17.9	1	1
03/17/06	9:18 p	-25.5	-25.5	-25.6	---	---	30.4	E	0.51	34.8	-43.6	---	---	722.5	0.030	0.000	17.9	1	1
03/17/06	9:19 p	-25.5	-25.5	-25.6	---	---	30.4	E	0.51	34.8	-43.6	---	---	722.5	0.030	0.000	17.9	1	1
03/17/06	9:20 p	-25.5	-25.5	-25.5	---	---	30.4	E	0.51	35.7	-43.6	---	---	722.4	0.030	0.000	17.9	1	1
03/17/06	9:21 p	-25.5	-25.5	-25.5	---	---	30.4	E	0.51	32.2	-43.6	---	---	722.6	0.030	0.000	17.9	1	1
03/17/06	9:22 p	-25.5	-25.5	-25.5	---	---	28.7	E	0.48	32.2	-43.2	---	---	722.5	0.030	0.000	17.9	1	1
03/17/06	9:23 p	-25.5	-25.5	-25.5	---	---	29.6	E	0.49	33.9	-43.4	---	---	722.5	0.030	0.000	17.9	1	1
03/17/06	9:24 p	-25.5	-25.4	-25.6	---	---	31.3	E	0.52	34.8	-43.8	---	---	722.5	0.030	0.000	17.8	1	1
03/17/06	9:25 p	-25.5	-25.5	-25.5	---	---	28.7	E	0.48	31.3	-43.2	---	---	722.5	0.030	0.000	17.8	1	1
03/17/06	9:26 p	-25.5	-25.5	-25.5	---	---	29.6	E	0.49	33.0	-43.4	---	---	722.6	0.030	0.000	17.8	1	1
03/17/06	9:27 p	-25.5	-25.4	-25.5	---	---	27.8	E	0.46	33.0	-43.0	---	---	722.6	0.030	0.000	17.8	1	1
03/17/06	9:28 p	-25.4	-25.4	-25.4	---	---	29.6	E	0.49	31.3	-43.3	---	---	722.5	0.030	0.000	17.8	1	1
03/17/06	9:29 p	-25.5	-25.4	-25.5	---	---	30.4	E	0.51	34.8	-43.6	---	---	722.3	0.030	0.000	17.8	1	1
03/17/06	9:30 p	-25.5	-25.4	-25.5	---	---	31.3	E	0.52	35.7	-43.8	---	---	722.3	0.030	0.000	17.8	1	1
03/17/06	9:31 p	-25.4	-25.4	-25.5	---	---	31.3	E	0.52	36.5	-43.7	---	---	722.5	0.030	0.000	17.8	1	1
03/17/06	9:32 p	-25.4	-25.4	-25.4	---	---	30.4	E	0.51	33.9	-43.5	---	---	722.5	0.030	0.000	17.8	1	1
03/17/06	9:33 p	-25.4	-25.4	-25.4	---	---	29.6	E	0.49	33.0	-43.3	---	---	722.6	0.030	0.000	17.7	1	1
03/17/06	9:34 p	-25.4	-25.4	-25.4	---	---	28.7	E	0.48	31.3	-43.1	---	---	722.6	0.030	0.000	17.7	1	1
03/17/06	9:35 p	-25.4	-25.4	-25.4	---	---	28.7	E	0.48	33.9	-43.1	---	---	722.4	0.030	0.000	17.7	1	1
03/17/06	9:36 p	-25.4	-25.4	-25.4	---	---	29.6	E	0.49	34.8	-43.3	---	---	722.4	0.030	0.000	17.7	1	1
03/17/06	9:37 p	-25.4	-25.4	-25.4	---	---	31.3	E	0.52	35.7	-43.7	---	---	722.4	0.030	0.000	17.7	1	1
03/17/06	9:38 p	-25.4	-25.4	-25.4	---	---	29.6	E	0.49	34.8	-43.2	---	---	722.5	0.030	0.000	17.7	1	1
03/17/06	9:39 p	-25.4	-25.4	-25.4	---	---	29.6	E	0.49	33.9	-43.2	---	---	722.6	0.030	0.000	17.7	1	1
03/17/06	9:40 p	-25.4	-25.3	-25.4	---	---	28.7	E	0.48	33.9	-43.1	---	---	722.4	0.030	0.000	17.7	1	1
03/17/06	9:41 p	-25.4	-25.4	-25.4	---	---	31.3	E	0.52	33.9	-43.6	---	---	722.5	0.030	0.000	17.7	1	1
03/17/06	9:42 p	-25.4	-25.3	-25.4	---	---	30.4	E	0.51	33.9	-43.4	---	---	722.5	0.030	0.000	17.8	1	1
03/17/06	9:43 p	-25.3	-25.3	-25.4	---	---	29.6	E	0.49	33.9	-43.2	---	---	722.6	0.030	0.000	17.8	1	1
03/17/06	9:44 p	-25.3	-25.3	-25.4	---	---	27.8	E	0.46	31.3	-42.8	---	---	722.6	0.030	0.000	17.8	1	1
03/17/06	9:45 p	-25.3	-25.3	-25.3	---	---	28.7	E	0.48	31.3	-42.9	---	---	722.5	0.030	0.000	17.9	1	1
03/17/06	9:46 p	-25.3	-25.3	-25.3	---	---	31.3	E	0.52	35.7	-43.6	---	---	722.5	0.030	0.000	17.9	1	1
03/17/06	9:47 p	-25.3	-25.3	-25.3	---	---	29.6	E	0.49	33.9	-43.2	---	---	722.6	0.030	0.000	17.9	1	1
03/17/06	9:48 p	-25.3	-25.3	-25.3	---	---	29.6	E	0.49	34.8	-43.2	---	---	722.5	0.030	0.000	17.9	1	1
03/17/06	9:49 p	-25.3	-25.3	-25.3	---	---	31.3	E	0.52	34.8	-43.6	---	---	722.4	0.030	0.000	18.0	1	1
03/17/06	9:50 p	-25.3	-25.3	-25.3	---	---	30.4	E	0.51	34.8	-43.3	---	---	722.6	0.030	0.000	18.0	1	1
03/17/06	9:51 p	-25.3	-25.3	-25.3	---	---	27.8	E	0.46	32.2	-42.8	---	---	722.7	0.030	0.000	18.0	1	1
03/17/06	9:52 p	-25.3	-25.3	-25.3	---	---	27.0	E	0.45	31.3	-42.5	---	---	722.6	0.030	0.000	18.0	1	1
03/17/06	9:53 p	-25.3	-25.3	-25.3	---	---	28.7	E	0.48	33.9	-42.9	---	---	722.5	0.030	0.000	18.0	1	1
03/17/06	9:54 p	-25.2	-25.2	-25.3	---	---	31.3	E	0.52	34.8	-43.4	---	---	722.4	0.030	0.000	18.0	1	1
03/17/06	9:55 p	-25.2	-25.2	-25.3	---	---	30.4	E	0.51	34.8	-43.2	---	---	722.6	0.030	0.000	18.0	1	1
03/17/06	9:56 p	-25.2	-25.2	-25.2	---	---	29.6	E	0.49	32.2	-43.0	---	---	722.7	0.030	0.000	17.9	1	1
03/17/06	9:57 p	-25.2	-25.2	-25.2	---	---	27.8	E	0.46	32.2	-42.6	---	---	722.6	0.030	0.000	17.9	1	1
03/17/06	9:58 p	-25.2	-25.2	-25.2	---	---	29.6	E	0.49	32.2	-43.0	---	---	722.5	0.030	0.000	17.9	1	1
03/17/06	9:59 p	-25.2	-25.2	-25.2	---	---	30.4	E	0.51	33.9	-43.1	---	---	722.5	0.030	0.000	17.9	1	1
03/17/06	10:00 p	-25.2	-25.2	-25.2	---	---	30.4	E	0.51	36.5	-43.2	---	---	722.5	0.030	0.000	17.9	1	1
03/17/06	10:01 p	-25.2	-25.2	-25.2	---	---	30.4	E	0.51	33.9	-43.1	---	---	722.6	0.030	0.000	17.9	1	1
03/17/06	10:02 p	-25.2	-25.2	-25.2	---	---	29.6	E	0.49	32.2	-42.9	---	---	722.6	0.030	0.000	17.9	1	1
03/17/06	10:03 p	-25.2	-25.2	-25.2	---	---	29.6	E	0.49	33.9	-42.9	---	---	722.6	0.030	0.000	17.9	1	1
03/17/06	10:04 p	-25.1	-25.1	-25.2	---	---	31.3	E	0.52	34.8	-43.2	---	---	722.6	0.030	0.000	17.8	1	1
03/17/06	10:05 p	-25.1	-25.1	-25.2	---	---	27.0	E	0.45	33.0	-42.3	---	---	722.5	0.030	0.000	17.8	1	1
03/17/06	10:06 p	-25.1	-25.1	-25.1	---	---	30.4	E	0.51	34.8	-43.1	---	---	722.4	0.030	0.000	17.8	1	1
03/17/06	10:07 p	-25.1	-25.1	-25.1	---	---	30.4	E	0.51	32.2	-43.1	---	---	722.6	0.030	0.000	17.8	1	1
03/17/06	10:08 p	-25.1	-25.1	-25.1	---	---	29.6	E	0.49	33.9	-42.8	---	---	722.5	0.030	0.000	17.8	1	1
03/17/06	10:09 p	-25.1	-25.1	-25.1	---	---	29.6	E	0.49	33.0	-42.8	---	---	722.5	0.030	0.000	17.8	1	1
03/17/06	10:10 p	-25.1	-25.0	-25.1	---	---	29.6	E	0.49	33.0	-42.8	---	---	722.5	0.030	0.000	17.8	1	1
03/17/06	10:11 p	-25.1	-25.0	-25.1	---	---	30.4	E	0.51	33.0	-42.9	---	---	722.4	0.030	0.000	17.8	1	1
03/17/06	10:12 p	-25.0	-25.0	-25.0	---	---	30.4	E	0.51	33.9	-42.9	---	---	722.5	0.030	0.000	17.8	1	1
03/17/06	10:13 p	-25.0	-25.0	-25.0	---	---	29.6	E	0.49	33.0	-42.7	---	---	722.5	0.030	0.000	17.7	1	1
03/17/06	10:14 p	-24.9	-24.9	-25.0	---	---	28.7	E	0.48	33.0	-42.4	---	---	722.5	0.030	0.000	17.7	1	1
03/17/06	10:15 p	-24.9	-24.9	-24.9	---	---	29.6	E	0.49	34.8	-42.6	---	---	722.4	0.030	0.000	17.7	1	1
03/17/06	10:16 p	-24.9	-24.9	-24.9	---	---	30.4	E	0.51	33.9	-42.8	---	---	722.5	0.030	0.000	17.7	1	1
03/17/06	10:17 p	-24.9	-24.9	-24.9	---	---	29.6	E	0.49	34.8	-42.6	---	---	722.5	0.030	0.000	17.7	1	1
03/17/06	10:18 p	-24.9	-24.9	-24.9	---	---	29.6	E	0.49	33.9	-42.6	---	---	722.6	0.030	0.000	17.7	1	1
03/17/06	10:19 p	-24.9	-24.8	-24.9	---	---	30.4	E	0.51	33.0	-42.7	---	---	722.6	0.030	0.000	17.8	1	1
03/17/06	10:20 p	-24.8	-24.8	-24.8	---	---	28.7	E	0.48	33.0	-42.3	---	---	722.7	0.030	0.000	17.8	1	1
03/17/06	10:21 p	-24.8	-24.8	-24.8	---	---	29.6	E	0.49	33.9	-42.4	---	---	722.6	0.030	0.000	17.8	1	1
03/17/06	10:22 p	-24.8	-24.8	-24.8	---	---	30.4	E	0.51	34.8	-42.7	---	---	722.6	0.030	0.000	17.9	1	1
03/17/06	10:23 p	-24.8	-24.8	-24.8	---	---	29.6	E	0.49	33.0	-42.4	---	---	722.6	0.030	0.000	17.9	1	1
03/17/06	10:24 p	-24.8	-24.8	-24.8	---	---	27.0	E	0.45	32.2	-41.8	---	---	722.6	0.030	0.000	17.9	1	1
03/17/06	10:25 p	-24.8	-24.7	-24.8	---	---	30.4	E	0.51	33.9	-42.6	---	---	722.5	0.030	0.000	18.0	1	1
03/17/06	10:26 p	-24.7	-24.7	-24.8	---	---	30.4	E	0.51	34.8	-42.5	---	---	722.6	0.030	0.000	18.0	1	1
03/17/06	10:27 p	-24.7	-24.7	-24.7	---	---	29.6	E	0.49	33.9	-42.3	---	---	722.5	0.030	0.000	18.0	1	1
03/17/06	10:28 p	-24.7	-24.7	-24.7	---	---	31.3	E	0.52	34.8	-42.6	---	---	722.5	0.030	0.000	18.1	1	1
03/17/06	10:29 p	-24.7	-24.7	-24.7	---	---	29.6	E	0.49	33.9	-42.3	---	---	722.6	0.030	0.000	18.1	1	1
03/17/06	10:30 p	-24.7	-24.7	-24.7	---	---	28.7	E	0.48	32.2	-42.1	---	---	722.6	0.030	0.000	18.1	1	1
03/17/06	10:31 p	-24.7	-24.7	-24.7	---	---	29.6	E	0.49	33.0	-42.3	---	---	722.5	0.030	0.000	18.1	1	1
03/17/06	10:32 p	-24.7	-24.7	-24.7	---	---	29.6	E	0.49	35.7	-42.2	---	---	722.5	0.030	0.000	18.0	1	1
03/17/06	10:33 p	-24.7	-24.6	-24.7	---	---	29.6	E	0.49	33.9	-42.2	---	---	722.5	0.030	0.000	18.0	1	1
03/17/06	10:34 p	-24.7	-24.7	-24.7	---	---	30.4	E	0.51	35.7	-42.4	---	---	722.4	0.030	0.000	18.0	1	1
03/17/06	10:35 p	-24.7	-24.6	-24.7	---	---	30.4	E	0.51	36.5	-42.4	---	---	722.6	0.030	0.000	17.9	1	1
03/17/06	10:36 p	-24.6	-24.6	-24.6	---	---	30.4	E	0.51	34.8	-42.3	---	---	722.6	0.030	0.000	17.9	1	1
03/17/06	10:37 p	-24.6	-24.6	-24.6	---	---	29.6	E	0.49	33.0	-42.2	---	---	722.5	0.030	0.000	17.9	1	1
03/17/06	10:38 p	-24.6	-24.6	-24.6	---	---	31.3	E	0.52	35.7	-42.6	---	---	722.5	0.030	0.000	17.9	1	1
03/17/06	10:39 p	-24.6	-24.6	-24.6	---	---	29.6	E	0.49	34.8	-42.1	---	---	722.7	0.030	0.000	17.9	1	1
03/17/06	10:40 p	-24.6	-24.6	-24.6	---	---	27.8	E	0.46	31.3	-41.7	---	---	722.6	0.030	0.000	17.9	1	1
03/17/06	10:41 p	-24.6	-24.6	-24.6	---	---	29.6	E	0.49	32.2	-42.1	---	---	722.5	0.030	0.000	17.9	1	1
03/17/06	10:42 p	-24.6	-24.5	-24.6	---	---	30.4	E	0.51	33.9	-42.3	---	---	722.6	0.030	0.000	17.9	1	1
03/17/06	10:43 p	-24.5	-24.4	-24.5	---	---	28.7	E	0.48	33.0	-41.8	---	---	722.7	0.030	0.000	17.8	1	1
03/17/06	10:44 p	-24.5	-24.4	-24.5	---	---	28.7	E	0.48	32.2	-41.8	---	---	722.6	0.030	0.000	17.8	1	1
03/17/06	10:45 p	-24.4	-24.4	-24.5	---	---	31.3	E	0.52	33.9	-42.3	---	---	722.6	0.030	0.000	17.8	1	1
03/17/06	10:46 p	-24.4	-24.4	-24.4	---	---	30.4	E	0.51	34.8	-42.1	---	---	722.7	0.030	0.000	17.8	1	1
03/17/06	10:47 p	-24.4	-24.4	-24.4	---	---	29.6	E	0.49	33.0	-41.9	---	---	722.5	0.030	0.000	17.8	1	1
03/17/06	10:48 p	-24.4	-24.4	-24.4	---	---	27.8	E	0.46	32.2	-41.5	---	---	722.6	0.030	0.000	17.8	1	1
03/17/06	10:49 p	-24.4	-24.4	-24.4	---	---	31.3	E	0.52	34.8	-42.2	---	---	722.5	0.030	0.000	17.8	1	1
03/17/06	10:50 p	-24.3	-24.3	-24.3	---	---	29.6	E	0.49	34.8	-41.8	---	---	722.5	0.030	0.000	17.8	1	1
03/17/06	10:51 p	-24.4	-24.3	-24.4	---	---	28.7	E	0.48	33.0	-41.7	---	---	722.6	0.030	0.000	17.7	1	1
03/17/06	10:52 p	-24.3	-24.3	-24.3	---	---	29.6	E	0.49	33.9	-41.7	---	---	722.5	0.030	0.000	17.7	1	1
03/17/06	10:53 p	-24.3	-24.3	-24.3	---	---	30.4	E	0.51	34.8	-41.9	---	---	722.5	0.030	0.000	17.7	1	1
03/17/06	10:54 p	-24.2	-24.2	-24.2	---	---	28.7	E	0.48	33.9	-41.4	---	---	722.8	0.030	0.000	17.7	1	1
03/17/06	10:55 p	-24.2	-24.2	-24.2	---	---	29.6	E	0.49	32.2	-41.6	---	---	722.7	0.030	0.000	17.7	1	1
03/17/06	10:56 p	-24.2	-24.2	-24.2	---	---	28.7	E	0.48	33.9	-41.4	---	---	722.7	0.030	0.000	17.7	1	1
03/17/06	10:57 p	-24.1	-24.1	-24.2	---	---	28.7	E	0.48	33.0	-41.3	---	---	722.6	0.029	0.000	17.7	1	1
03/17/06	10:58 p	-24.1	-24.1	-24.2	---	---	27.8	E	0.46	33.9	-41.1	---	---	722.4	0.029	0.000	17.8	1	1
03/17/06	10:59 p	-24.1	-24.1	-24.1	---	---	31.3	E	0.52	34.8	-41.8	---	---	722.5	0.029	0.000	17.8	1	1
03/17/06	11:00 p	-24.1	-24.0	-24.1	---	---	30.4	E	0.51	33.0	-41.6	---	---	722.7	0.029	0.000	17.8	1	1
03/17/06	11:01 p	-24.1	-24.0	-24.1	---	---	28.7	E	0.48	32.2	-41.2	---	---	722.6	0.029	0.000	17.9	1	1
03/17/06	11:02 p	-24.0	-23.9	-24.0	---	---	30.4	E	0.51	34.8	-41.5	---	---	722.6	0.029	0.000	17.9	1	1
03/17/06	11:03 p	-23.9	-23.9	-23.9	---	---	30.4	E	0.51	33.9	-41.4	---	---	722.6	0.029	0.000	17.9	1	1
03/17/06	11:04 p	-24.0	-23.9	-24.0	---	---	29.6	E	0.49	35.7	-41.3	---	---	722.7	0.029	0.000	18.0	1	1
03/17/06	11:05 p	-23.9	-23.9	-23.9	---	---	28.7	E	0.48	33.0	-41.1	---	---	722.6	0.029	0.000	18.0	1	1
03/17/06	11:06 p	-23.9	-23.9	-23.9	---	---	29.6	E	0.49	34.8	-41.3	---	---	722.6	0.029	0.000	18.1	1	1
03/17/06	11:07 p	-23.9	-23.9	-23.9	---	---	28.7	E	0.48	33.9	-41.1	---	---	722.6	0.029	0.000	18.1	1	1
03/17/06	11:08 p	-23.9	-23.9	-23.9	---	---	29.6	E	0.49	33.0	-41.2	---	---	722.6	0.029	0.000	18.1	1	1
03/17/06	11:09 p	-23.9	-23.9	-23.9	---	---	29.6	E	0.49	33.0	-41.2	---	---	722.5	0.029	0.000	18.1	1	1
03/17/06	11:10 p	-23.8	-23.8	-23.8	---	---	31.3	E	0.52	35.7	-41.4	---	---	722.7	0.029	0.000	18.1	1	1
03/17/06	11:11 p	-23.8	-23.8	-23.8	---	---	28.7	E	0.48	33.0	-40.8	---	---	722.7	0.029	0.000	18.2	1	1
03/17/06	11:12 p	-23.8	-23.7	-23.8	---	---	32.2	E	0.54	35.7	-41.6	---	---	722.7	0.029	0.000	18.2	1	1
03/17/06	11:13 p	-23.7	-23.7	-23.7	---	---	27.8	E	0.46	32.2	-40.6	---	---	722.6	0.029	0.000	18.2	1	1
03/17/06	11:14 p	-23.7	-23.7	-23.8	---	---	32.2	E	0.54	34.8	-41.5	---	---	722.5	0.029	0.000	18.2	1	1
03/17/06	11:15 p	-23.7	-23.7	-23.8	---	---	29.6	E	0.49	33.0	-40.9	---	---	722.6	0.029	0.000	18.2	1	1
03/17/06	11:16 p	-23.7	-23.7	-23.8	---	---	29.6	E	0.49	33.9	-40.9	---	---	722.7	0.029	0.000	18.2	1	1
03/17/06	11:17 p	-23.7	-23.7	-23.8	---	---	30.4	E	0.51	34.8	-41.1	---	---	722.6	0.029	0.000	18.2	1	1
03/17/06	11:18 p	-23.8	-23.7	-23.8	---	---	27.8	E	0.46	31.3	-40.7	---	---	722.6	0.029	0.000	18.2	1	1
03/17/06	11:19 p	-23.7	-23.7	-23.7	---	---	30.4	E	0.51	33.9	-41.1	---	---	722.5	0.029	0.000	18.2	1	1
03/17/06	11:20 p	-23.7	-23.7	-23.7	---	---	31.3	E	0.52	36.5	-41.2	---	---	722.6	0.029	0.000	18.2	1	1
03/17/06	11:21 p	-23.7	-23.7	-23.7	---	---	27.8	E	0.46	31.3	-40.5	---	---	722.6	0.029	0.000	18.2	1	1
03/17/06	11:22 p	-23.7	-23.7	-23.7	---	---	29.6	E	0.49	34.8	-40.9	---	---	722.5	0.029	0.000	18.2	1	1
03/17/06	11:23 p	-23.7	-23.7	-23.7	---	---	31.3	E	0.52	35.7	-41.2	---	---	722.5	0.029	0.000	18.2	1	1
03/17/06	11:24 p	-23.7	-23.7	-23.7	---	---	28.7	E	0.48	33.9	-40.7	---	---	722.6	0.029	0.000	18.1	1	1
03/17/06	11:25 p	-23.7	-23.7	-23.7	---	---	29.6	E	0.49	33.9	-40.9	---	---	722.6	0.029	0.000	18.1	1	1
03/17/06	11:26 p	-23.7	-23.7	-23.7	---	---	29.6	E	0.49	33.0	-40.9	---	---	722.5	0.029	0.000	18.1	1	1
03/17/06	11:27 p	-23.7	-23.7	-23.7	---	---	30.4	E	0.51	33.9	-41.1	---	---	722.6	0.029	0.000	18.1	1	1
03/17/06	11:28 p	-23.7	-23.7	-23.7	---	---	29.6	E	0.49	33.9	-40.9	---	---	722.5	0.029	0.000	18.1	1	1
03/17/06	11:29 p	-23.7	-23.7	-23.7	---	---	29.6	E	0.49	33.0	-40.9	---	---	722.6	0.029	0.000	18.1	1	1
03/17/06	11:30 p	-23.7	-23.7	-23.7	---	---	29.6	E	0.49	34.8	-40.9	---	---	722.6	0.029	0.000	18.0	1	1
03/17/06	11:31 p	-23.7	-23.7	-23.7	---	---	30.4	E	0.51	33.9	-41.1	---	---	722.6	0.029	0.000	18.0	1	1
03/17/06	11:32 p	-23.7	-23.7	-23.7	---	---	28.7	E	0.48	32.2	-40.7	---	---	722.6	0.029	0.000	18.0	1	1
03/17/06	11:33 p	-23.7	-23.7	-23.7	---	---	30.4	E	0.51	37.4	-41.1	---	---	722.5	0.029	0.000	18.0	1	1
03/17/06	11:34 p	-23.7	-23.7	-23.7	---	---	30.4	E	0.51	34.8	-41.1	---	---	722.7	0.029	0.000	17.9	1	1
03/17/06	11:35 p	-23.7	-23.7	-23.7	---	---	30.4	E	0.51	33.9	-41.1	---	---	722.7	0.029	0.000	17.9	1	1
03/17/06	11:36 p	-23.7	-23.7	-23.8	---	---	31.3	E	0.52	36.5	-41.3	---	---	722.5	0.029	0.000	17.9	1	1
03/17/06	11:37 p	-23.8	-23.7	-23.8	---	---	31.3	E	0.52	35.7	-41.4	---	---	722.6	0.029	0.000	17.9	1	1
03/17/06	11:38 p	-23.8	-23.7	-23.8	---	---	30.4	E	0.51	34.8	-41.2	---	---	722.8	0.029	0.000	17.9	1	1
03/17/06	11:39 p	-23.8	-23.8	-23.8	---	---	29.6	E	0.49	33.9	-41.0	---	---	722.8	0.029	0.000	17.9	1	1
03/17/06	11:40 p	-23.8	-23.8	-23.8	---	---	27.8	E	0.46	33.9	-40.7	---	---	722.5	0.029	0.000	17.9	1	1
03/17/06	11:41 p	-23.8	-23.8	-23.8	---	---	32.2	E	0.54	34.8	-41.6	---	---	722.7	0.029	0.000	17.9	1	1
03/17/06	11:42 p	-23.7	-23.7	-23.8	---	---	30.4	E	0.51	34.8	-41.1	---	---	722.9	0.029	0.000	17.9	1	1
03/17/06	11:43 p	-23.7	-23.7	-23.7	---	---	28.7	E	0.48	33.9	-40.8	---	---	722.8	0.029	0.000	17.8	1	1
03/17/06	11:44 p	-23.7	-23.7	-23.7	---	---	30.4	E	0.51	34.8	-41.1	---	---	722.5	0.029	0.000	17.8	1	1
03/17/06	11:45 p	-23.7	-23.7	-23.7	---	---	31.3	E	0.52	40.0	-41.3	---	---	722.6	0.029	0.000	17.8	1	1
03/17/06	11:46 p	-23.7	-23.7	-23.7	---	---	29.6	E	0.49	35.7	-40.9	---	---	722.8	0.029	0.000	17.8	1	1
03/17/06	11:47 p	-23.7	-23.7	-23.7	---	---	30.4	E	0.51	33.9	-41.1	---	---	722.7	0.029	0.000	17.8	1	1
03/17/06	11:48 p	-23.7	-23.7	-23.7	---	---	30.4	E	0.51	35.7	-41.1	---	---	722.7	0.029	0.000	17.8	1	1
03/17/06	11:49 p	-23.7	-23.7	-23.7	---	---	32.2	E	0.54	37.4	-41.5	---	---	722.7	0.029	0.000	17.8	1	1
03/17/06	11:50 p	-23.7	-23.7	-23.8	---	---	29.6	E	0.49	35.7	-40.9	---	---	722.8	0.029	0.000	17.8	1	1
03/17/06	11:51 p	-23.8	-23.7	-23.8	---	---	28.7	E	0.48	34.8	-40.8	---	---	722.6	0.029	0.000	17.8	1	1
03/17/06	11:52 p	-23.8	-23.7	-23.8	---	---	32.2	E	0.54	37.4	-41.6	---	---	722.7	0.029	0.000	17.9	1	1
03/17/06	11:53 p	-23.8	-23.8	-23.8	---	---	31.3	E	0.52	35.7	-41.4	---	---	722.8	0.029	0.000	17.9	1	1
03/17/06	11:54 p	-23.8	-23.8	-23.8	---	---	30.4	E	0.51	33.9	-41.2	---	---	722.8	0.029	0.000	17.9	1	1
03/17/06	11:55 p	-23.7	-23.7	-23.7	---	---	28.7	E	0.48	33.9	-40.8	---	---	722.8	0.029	0.000	18.0	1	1
03/17/06	11:56 p	-23.8	-23.7	-23.8	---	---	29.6	E	0.49	34.8	-41.0	---	---	722.8	0.029	0.000	18.1	1	1
03/17/06	11:57 p	-23.8	-23.8	-23.8	---	---	30.4	E	0.51	34.8	-41.2	---	---	722.6	0.029	0.000	18.1	1	1
03/17/06	11:58 p	-23.8	-23.8	-23.8	---	---	32.2	E	0.54	34.8	-41.6	---	---	722.7	0.029	0.000	18.1	1	1
03/17/06	11:59 p	-23.9	-23.8	-23.9	---	---	28.7	E	0.48	35.7	-41.0	---	---	722.8	0.029	0.000	18.1	1	1
03/18/06	12:00 a	-23.9	-23.8	-23.9	---	---	28.7	E	0.48	33.9	-41.0	---	---	722.8	0.029	0.000	18.1	1	1
03/18/06	12:01 a	-23.9	-23.9	-23.9	---	---	27.8	E	0.46	32.2	-40.8	---	---	723.0	0.029	0.000	18.1	1	1
03/18/06	12:02 a	-23.9	-23.9	-23.9	---	---	26.1	E	0.43	29.6	-40.4	---	---	722.7	0.029	0.000	18.1	1	1
03/18/06	12:03 a	-23.9	-23.9	-23.9	---	---	29.6	E	0.49	33.9	-41.2	---	---	722.7	0.029	0.000	18.0	1	1
03/18/06	12:04 a	-23.9	-23.9	-23.9	---	---	30.4	E	0.51	35.7	-41.3	---	---	722.7	0.029	0.000	18.0	1	1
03/18/06	12:05 a	-23.9	-23.9	-23.9	---	---	31.3	E	0.52	34.8	-41.6	---	---	722.7	0.029	0.000	18.0	1	1
03/18/06	12:06 a	-23.9	-23.9	-23.9	---	---	30.4	E	0.51	33.9	-41.3	---	---	722.9	0.029	0.000	18.0	1	1
03/18/06	12:07 a	-23.9	-23.9	-23.9	---	---	28.7	E	0.48	32.2	-41.1	---	---	722.9	0.029	0.000	17.9	1	1
03/18/06	12:08 a	-23.9	-23.9	-23.9	---	---	27.8	E	0.46	33.0	-40.9	---	---	723.0	0.029	0.000	17.9	1	1
03/18/06	12:09 a	-23.9	-23.9	-24.0	---	---	29.6	E	0.49	37.4	-41.3	---	---	722.7	0.029	0.000	17.9	1	1
03/18/06	12:10 a	-23.9	-23.9	-23.9	---	---	32.2	E	0.54	35.7	-41.8	---	---	722.7	0.029	0.000	17.9	1	1
03/18/06	12:11 a	-23.9	-23.9	-24.0	---	---	28.7	E	0.48	33.0	-41.1	---	---	722.8	0.029	0.000	17.9	1	1
03/18/06	12:12 a	-24.0	-24.0	-24.0	---	---	27.0	E	0.45	31.3	-40.7	---	---	722.7	0.029	0.000	17.9	1	1
03/18/06	12:13 a	-24.0	-24.0	-24.0	---	---	30.4	E	0.51	33.9	-41.5	---	---	722.8	0.029	0.000	17.9	1	1
03/18/06	12:14 a	-24.0	-24.0	-24.0	---	---	27.8	E	0.46	31.3	-40.9	---	---	722.9	0.029	0.000	17.9	1	1
03/18/06	12:15 a	-24.0	-23.9	-24.0	---	---	27.8	E	0.46	34.8	-40.9	---	---	722.7	0.029	0.000	17.9	1	1
03/18/06	12:16 a	-24.0	-23.9	-24.0	---	---	30.4	E	0.51	33.9	-41.5	---	---	722.6	0.029	0.000	17.8	1	1
03/18/06	12:17 a	-24.0	-24.0	-24.0	---	---	27.8	E	0.46	33.0	-40.9	---	---	722.8	0.029	0.000	17.8	1	1
03/18/06	12:18 a	-23.9	-23.9	-24.0	---	---	26.1	E	0.43	30.4	-40.4	---	---	722.8	0.029	0.000	17.8	1	1
03/18/06	12:19 a	-23.9	-23.9	-23.9	---	---	31.3	E	0.52	35.7	-41.6	---	---	722.6	0.029	0.000	17.8	1	1
03/18/06	12:20 a	-23.9	-23.9	-24.0	---	---	28.7	E	0.48	32.2	-41.1	---	---	722.7	0.029	0.000	17.8	1	1
03/18/06	12:21 a	-24.0	-23.9	-24.0	---	---	28.7	E	0.48	32.2	-41.1	---	---	722.7	0.029	0.000	17.8	1	1
03/18/06	12:22 a	-24.0	-23.9	-24.0	---	---	28.7	E	0.48	32.2	-41.1	---	---	722.6	0.029	0.000	17.8	1	1
03/18/06	12:23 a	-23.9	-23.9	-23.9	---	---	30.4	E	0.51	34.8	-41.4	---	---	722.7	0.029	0.000	17.8	1	1
03/18/06	12:24 a	-23.9	-23.9	-23.9	---	---	29.6	E	0.49	32.2	-41.3	---	---	722.7	0.029	0.000	17.8	1	1
03/18/06	12:25 a	-23.9	-23.9	-23.9	---	---	30.4	E	0.51	33.9	-41.4	---	---	722.6	0.029	0.000	17.8	1	1
03/18/06	12:26 a	-23.9	-23.9	-23.9	---	---	30.4	E	0.51	33.0	-41.4	---	---	722.7	0.029	0.000	17.8	1	1
03/18/06	12:27 a	-23.9	-23.9	-23.9	---	---	27.8	E	0.46	32.2	-40.9	---	---	722.8	0.029	0.000	17.8	1	1
03/18/06	12:28 a	-23.9	-23.9	-23.9	---	---	28.7	E	0.48	32.2	-41.1	---	---	722.7	0.029	0.000	17.9	1	1
03/18/06	12:29 a	-23.9	-23.9	-23.9	---	---	28.7	E	0.48	33.0	-41.1	---	---	722.7	0.029	0.000	17.9	1	1
03/18/06	12:30 a	-23.9	-23.9	-24.0	---	---	30.4	E	0.51	34.8	-41.4	---	---	722.6	0.029	0.000	17.9	1	1
03/18/06	12:31 a	-24.0	-23.9	-24.0	---	---	30.4	E	0.51	33.9	-41.5	---	---	722.8	0.029	0.000	18.0	1	1
03/18/06	12:32 a	-24.0	-24.0	-24.1	---	---	27.8	E	0.46	32.2	-40.9	---	---	722.7	0.029	0.000	18.0	1	1
03/18/06	12:33 a	-24.1	-24.0	-24.1	---	---	28.7	E	0.48	34.8	-41.2	---	---	722.6	0.029	0.000	18.1	1	1
03/18/06	12:34 a	-24.0	-24.0	-24.0	---	---	29.6	E	0.49	32.2	-41.3	---	---	722.7	0.029	0.000	18.1	1	1
03/18/06	12:35 a	-24.0	-23.9	-24.0	---	---	30.4	E	0.51	34.8	-41.5	---	---	722.7	0.029	0.000	18.1	1	1
03/18/06	12:36 a	-24.0	-24.0	-24.1	---	---	30.4	E	0.51	33.9	-41.5	---	---	722.7	0.029	0.000	18.1	1	1
03/18/06	12:37 a	-24.1	-24.1	-24.1	---	---	28.7	E	0.48	33.9	-41.2	---	---	722.8	0.029	0.000	18.2	1	1
03/18/06	12:38 a	-24.1	-24.1	-24.1	---	---	30.4	E	0.51	33.0	-41.6	---	---	722.7	0.029	0.000	18.2	1	1
03/18/06	12:39 a	-24.1	-24.1	-24.2	---	---	30.4	E	0.51	35.7	-41.7	---	---	722.7	0.029	0.000	18.2	1	1
03/18/06	12:40 a	-24.2	-24.2	-24.2	---	---	27.8	E	0.46	32.2	-41.2	---	---	722.8	0.030	0.000	18.1	1	1
03/18/06	12:41 a	-24.2	-24.2	-24.2	---	---	28.7	E	0.48	33.9	-41.4	---	---	722.7	0.030	0.000	18.1	1	1
03/18/06	12:42 a	-24.2	-24.2	-24.3	---	---	28.7	E	0.48	32.2	-41.4	---	---	722.8	0.030	0.000	18.1	1	1
03/18/06	12:43 a	-24.3	-24.3	-24.3	---	---	30.4	E	0.51	33.9	-41.9	---	---	722.6	0.030	0.000	18.1	1	1
03/18/06	12:44 a	-24.3	-24.3	-24.3	---	---	30.4	E	0.51	33.9	-41.9	---	---	722.7	0.030	0.000	18.1	1	1
03/18/06	12:45 a	-24.3	-24.3	-24.4	---	---	29.6	E	0.49	33.9	-41.8	---	---	722.8	0.030	0.000	18.1	1	1
03/18/06	12:46 a	-24.4	-24.4	-24.4	---	---	30.4	E	0.51	33.0	-42.1	---	---	722.7	0.030	0.000	18.1	1	1
03/18/06	12:47 a	-24.4	-24.4	-24.4	---	---	32.2	E	0.54	35.7	-42.4	---	---	722.7	0.030	0.000	18.0	1	1
03/18/06	12:48 a	-24.4	-24.4	-24.5	---	---	32.2	E	0.54	35.7	-42.5	---	---	722.8	0.030	0.000	18.0	1	1
03/18/06	12:49 a	-24.5	-24.4	-24.6	---	---	31.3	E	0.52	34.8	-42.4	---	---	722.7	0.030	0.000	18.0	1	1
03/18/06	12:50 a	-24.6	-24.6	-24.6	---	---	28.7	E	0.48	33.9	-41.9	---	---	722.7	0.030	0.000	17.9	1	1
03/18/06	12:51 a	-24.6	-24.6	-24.6	---	---	29.6	E	0.49	33.9	-42.2	---	---	722.8	0.030	0.000	17.9	1	1
03/18/06	12:52 a	-24.6	-24.6	-24.7	---	---	29.6	E	0.49	33.0	-42.2	---	---	722.8	0.030	0.000	17.9	1	1
03/18/06	12:53 a	-24.7	-24.7	-24.7	---	---	29.6	E	0.49	32.2	-42.2	---	---	722.7	0.030	0.000	17.9	1	1
03/18/06	12:54 a	-24.7	-24.7	-24.8	---	---	28.7	E	0.48	33.9	-42.1	---	---	722.6	0.030	0.000	17.9	1	1
03/18/06	12:55 a	-24.8	-24.7	-24.8	---	---	29.6	E	0.49	33.0	-42.4	---	---	722.8	0.030	0.000	17.9	1	1
03/18/06	12:56 a	-24.8	-24.8	-24.8	---	---	29.6	E	0.49	33.0	-42.4	---	---	722.7	0.030	0.000	17.9	1	1
03/18/06	12:57 a	-24.8	-24.8	-24.9	---	---	30.4	E	0.51	34.8	-42.7	---	---	722.7	0.030	0.000	17.9	1	1
03/18/06	12:58 a	-24.9	-24.9	-24.9	---	---	29.6	E	0.49	33.0	-42.6	---	---	722.6	0.030	0.000	17.9	1	1
03/18/06	12:59 a	-24.9	-24.9	-24.9	---	---	30.4	E	0.51	34.8	-42.8	---	---	722.7	0.030	0.000	17.9	1	1
03/18/06	1:00 a	-25.0	-24.9	-25.0	---	---	28.7	E	0.48	32.2	-42.5	---	---	722.7	0.030	0.000	17.9	1	1
03/18/06	1:01 a	-25.0	-25.0	-25.0	---	---	27.8	E	0.46	33.0	-42.3	---	---	722.6	0.030	0.000	17.9	1	1
03/18/06	1:02 a	-25.0	-25.0	-25.1	---	---	28.7	E	0.48	32.2	-42.5	---	---	722.6	0.030	0.000	17.8	1	1
03/18/06	1:03 a	-25.1	-25.0	-25.1	---	---	29.6	E	0.49	33.9	-42.8	---	---	722.7	0.030	0.000	17.8	1	1
03/18/06	1:04 a	-25.1	-25.1	-25.1	---	---	28.7	E	0.48	33.0	-42.6	---	---	722.7	0.030	0.000	17.8	1	1
03/18/06	1:05 a	-25.1	-25.1	-25.1	---	---	29.6	E	0.49	33.9	-42.8	---	---	722.7	0.030	0.000	17.8	1	1
03/18/06	1:06 a	-25.1	-25.1	-25.2	---	---	28.7	E	0.48	33.0	-42.7	---	---	722.7	0.030	0.000	17.8	1	1
03/18/06	1:07 a	-25.2	-25.1	-25.2	---	---	30.4	E	0.51	33.9	-43.1	---	---	722.6	0.030	0.000	17.8	1	1
03/18/06	1:08 a	-25.2	-25.2	-25.2	---	---	28.7	E	0.48	33.0	-42.7	---	---	722.8	0.030	0.000	17.8	1	1
03/18/06	1:09 a	-25.2	-25.2	-25.2	---	---	29.6	E	0.49	33.9	-43.0	---	---	722.7	0.030	0.000	17.8	1	1
03/18/06	1:10 a	-25.2	-25.2	-25.3	---	---	29.6	E	0.49	32.2	-43.0	---	---	722.7	0.030	0.000	17.8	1	1
03/18/06	1:11 a	-25.3	-25.3	-25.3	---	---	30.4	E	0.51	35.7	-43.3	---	---	722.6	0.030	0.000	17.8	1	1
03/18/06	1:12 a	-25.3	-25.3	-25.3	---	---	30.4	E	0.51	35.7	-43.3	---	---	722.7	0.030	0.000	17.8	1	1
03/18/06	1:13 a	-25.3	-25.3	-25.3	---	---	32.2	E	0.54	34.8	-43.7	---	---	722.7	0.030	0.000	17.8	1	1
03/18/06	1:14 a	-25.3	-25.3	-25.3	---	---	30.4	E	0.51	34.8	-43.3	---	---	722.7	0.030	0.000	17.9	1	1
03/18/06	1:15 a	-25.3	-25.3	-25.3	---	---	29.6	E	0.49	33.0	-43.2	---	---	722.7	0.030	0.000	18.0	1	1
03/18/06	1:16 a	-25.3	-25.3	-25.4	---	---	31.3	E	0.52	35.7	-43.6	---	---	722.6	0.030	0.000	18.0	1	1
03/18/06	1:17 a	-25.4	-25.4	-25.4	---	---	31.3	E	0.52	34.8	-43.6	---	---	722.6	0.030	0.000	18.1	1	1
03/18/06	1:18 a	-25.4	-25.4	-25.4	---	---	27.0	E	0.45	32.2	-42.6	---	---	722.7	0.030	0.000	18.1	1	1
03/18/06	1:19 a	-25.4	-25.4	-25.4	---	---	30.4	E	0.51	33.0	-43.4	---	---	722.6	0.030	0.000	18.1	1	1
03/18/06	1:20 a	-25.4	-25.4	-25.4	---	---	30.4	E	0.51	33.0	-43.4	---	---	722.7	0.030	0.000	18.2	1	1
03/18/06	1:21 a	-25.4	-25.3	-25.4	---	---	30.4	E	0.51	33.0	-43.4	---	---	722.7	0.030	0.000	18.2	1	1
03/18/06	1:22 a	-25.4	-25.3	-25.4	---	---	30.4	E	0.51	35.7	-43.4	---	---	722.6	0.030	0.000	18.2	1	1
03/18/06	1:23 a	-25.4	-25.3	-25.4	---	---	32.2	E	0.54	34.8	-43.8	---	---	722.6	0.030	0.000	18.2	1	1
03/18/06	1:24 a	-25.4	-25.4	-25.4	---	---	32.2	E	0.54	35.7	-43.8	---	---	722.7	0.030	0.000	18.2	1	1
03/18/06	1:25 a	-25.4	-25.4	-25.4	---	---	30.4	E	0.51	35.7	-43.4	---	---	722.6	0.030	0.000	18.2	1	1
03/18/06	1:26 a	-25.4	-25.3	-25.4	---	---	31.3	E	0.52	35.7	-43.6	---	---	722.5	0.030	0.000	18.2	1	1
03/18/06	1:27 a	-25.4	-25.3	-25.4	---	---	29.6	E	0.49	33.9	-43.2	---	---	722.7	0.030	0.000	18.2	1	1
03/18/06	1:28 a	-25.4	-25.3	-25.4	---	---	29.6	E	0.49	33.9	-43.2	---	---	722.6	0.030	0.000	18.2	1	1
03/18/06	1:29 a	-25.4	-25.4	-25.4	---	---	30.4	ENE	0.51	33.0	-43.4	---	---	722.7	0.030	0.000	18.2	1	1
03/18/06	1:30 a	-25.3	-25.3	-25.4	---	---	33.0	E	0.55	36.5	-43.9	---	---	722.6	0.030	0.000	18.2	1	1
03/18/06	1:31 a	-25.4	-25.4	-25.4	---	---	31.3	E	0.52	33.9	-43.6	---	---	722.7	0.030	0.000	18.2	1	1
03/18/06	1:32 a	-25.4	-25.3	-25.4	---	---	31.3	E	0.52	33.9	-43.6	---	---	722.6	0.030	0.000	18.1	1	1
03/18/06	1:33 a	-25.3	-25.3	-25.4	---	---	32.2	E	0.54	34.8	-43.7	---	---	722.7	0.030	0.000	18.1	1	1
03/18/06	1:34 a	-25.3	-25.3	-25.3	---	---	30.4	E	0.51	34.8	-43.3	---	---	722.7	0.030	0.000	18.1	1	1
03/18/06	1:35 a	-25.3	-25.3	-25.3	---	---	29.6	E	0.49	33.9	-43.2	---	---	722.7	0.030	0.000	18.1	1	1
03/18/06	1:36 a	-25.3	-25.3	-25.4	---	---	31.3	E	0.52	34.8	-43.6	---	---	722.6	0.030	0.000	18.1	1	1
03/18/06	1:37 a	-25.3	-25.3	-25.3	---	---	31.3	E	0.52	36.5	-43.6	---	---	722.6	0.030	0.000	18.1	1	1
03/18/06	1:38 a	-25.3	-25.3	-25.3	---	---	31.3	E	0.52	35.7	-43.6	---	---	722.7	0.030	0.000	18.1	1	1
03/18/06	1:39 a	-25.3	-25.3	-25.3	---	---	31.3	ENE	0.52	35.7	-43.6	---	---	722.6	0.030	0.000	18.1	1	1
03/18/06	1:40 a	-25.3	-25.3	-25.4	---	---	30.4	E	0.51	36.5	-43.3	---	---	722.6	0.030	0.000	18.1	1	1
03/18/06	1:41 a	-25.3	-25.3	-25.3	---	---	32.2	ENE	0.54	35.7	-43.7	---	---	722.7	0.030	0.000	18.1	1	1
03/18/06	1:42 a	-25.3	-25.3	-25.3	---	---	33.0	ENE	0.55	35.7	-43.9	---	---	722.8	0.030	0.000	18.1	1	1
03/18/06	1:43 a	-25.3	-25.3	-25.3	---	---	30.4	ENE	0.51	33.9	-43.3	---	---	722.7	0.030	0.000	18.1	1	1
03/18/06	1:44 a	-25.3	-25.3	-25.3	---	---	31.3	E	0.52	34.8	-43.6	---	---	722.8	0.030	0.000	18.1	1	1
03/18/06	1:45 a	-25.3	-25.3	-25.3	---	---	29.6	E	0.49	34.8	-43.2	---	---	722.7	0.030	0.000	18.1	1	1
03/18/06	1:46 a	-25.3	-25.3	-25.4	---	---	29.6	E	0.49	33.9	-43.2	---	---	722.8	0.030	0.000	18.0	1	1
03/18/06	1:47 a	-25.3	-25.3	-25.3	---	---	30.4	E	0.51	34.8	-43.3	---	---	722.7	0.030	0.000	18.0	1	1
03/18/06	1:48 a	-25.3	-25.2	-25.3	---	---	31.3	ENE	0.52	33.0	-43.4	---	---	722.7	0.030	0.000	18.0	1	1
03/18/06	1:49 a	-25.3	-25.3	-25.3	---	---	30.4	E	0.51	33.9	-43.3	---	---	722.7	0.030	0.000	18.0	1	1
03/18/06	1:50 a	-25.3	-25.3	-25.3	---	---	32.2	E	0.54	34.8	-43.6	---	---	722.7	0.030	0.000	18.0	1	1
03/18/06	1:51 a	-25.3	-25.3	-25.3	---	---	30.4	E	0.51	33.9	-43.3	---	---	722.6	0.030	0.000	18.0	1	1
03/18/06	1:52 a	-25.3	-25.3	-25.3	---	---	28.7	E	0.48	33.0	-42.9	---	---	722.8	0.030	0.000	18.0	1	1
03/18/06	1:53 a	-25.3	-25.3	-25.4	---	---	29.6	E	0.49	34.8	-43.2	---	---	722.5	0.030	0.000	18.0	1	1
03/18/06	1:54 a	-25.3	-25.3	-25.3	---	---	30.4	E	0.51	32.2	-43.3	---	---	722.6	0.030	0.000	18.0	1	1
03/18/06	1:55 a	-25.3	-25.3	-25.3	---	---	30.4	E	0.51	33.9	-43.3	---	---	722.7	0.030	0.000	18.0	1	1
03/18/06	1:56 a	-25.3	-25.3	-25.3	---	---	30.4	E	0.51	34.8	-43.3	---	---	722.7	0.030	0.000	18.0	1	1
03/18/06	1:57 a	-25.3	-25.3	-25.3	---	---	30.4	E	0.51	33.9	-43.3	---	---	722.7	0.030	0.000	18.0	1	1
03/18/06	1:58 a	-25.3	-25.3	-25.3	---	---	28.7	E	0.48	31.3	-42.9	---	---	722.7	0.030	0.000	18.1	1	1
03/18/06	1:59 a	-25.3	-25.3	-25.3	---	---	28.7	E	0.48	33.0	-42.9	---	---	722.7	0.030	0.000	18.1	1	1
03/18/06	2:00 a	-25.3	-25.3	-25.3	---	---	27.8	E	0.46	31.3	-42.8	---	---	722.8	0.030	0.000	18.2	1	1
03/18/06	2:01 a	-25.3	-25.3	-25.3	---	---	29.6	E	0.49	33.9	-43.2	---	---	722.7	0.030	0.000	18.2	1	1
03/18/06	2:02 a	-25.3	-25.3	-25.3	---	---	29.6	E	0.49	33.9	-43.2	---	---	722.7	0.030	0.000	18.2	1	1
03/18/06	2:03 a	-25.3	-25.3	-25.3	---	---	28.7	E	0.48	32.2	-42.9	---	---	722.7	0.030	0.000	18.2	1	1
03/18/06	2:04 a	-25.3	-25.3	-25.3	---	---	29.6	E	0.49	33.9	-43.1	---	---	722.7	0.030	0.000	18.3	1	1
03/18/06	2:05 a	-25.3	-25.2	-25.3	---	---	27.8	E	0.46	33.0	-42.7	---	---	722.6	0.030	0.000	18.3	1	1
03/18/06	2:06 a	-25.3	-25.3	-25.3	---	---	28.7	E	0.48	33.0	-42.9	---	---	722.7	0.030	0.000	18.3	1	1
03/18/06	2:07 a	-25.3	-25.3	-25.3	---	---	30.4	E	0.51	34.8	-43.3	---	---	722.7	0.030	0.000	18.4	1	1
03/18/06	2:08 a	-25.3	-25.3	-25.3	---	---	27.8	E	0.46	33.0	-42.7	---	---	722.7	0.030	0.000	18.3	1	1
03/18/06	2:09 a	-25.3	-25.3	-25.3	---	---	28.7	E	0.48	33.0	-42.9	---	---	722.7	0.030	0.000	18.3	1	1
03/18/06	2:10 a	-25.3	-25.3	-25.3	---	---	28.7	E	0.48	32.2	-42.9	---	---	722.8	0.030	0.000	18.3	1	1
03/18/06	2:11 a	-25.3	-25.2	-25.3	---	---	28.7	E	0.48	32.2	-42.9	---	---	722.8	0.030	0.000	18.3	1	1
03/18/06	2:12 a	-25.3	-25.2	-25.3	---	---	27.8	E	0.46	30.4	-42.8	---	---	722.7	0.030	0.000	18.3	1	1
03/18/06	2:13 a	-25.3	-25.3	-25.3	---	---	26.1	E	0.43	30.4	-42.3	---	---	722.6	0.030	0.000	18.3	1	1
03/18/06	2:14 a	-25.3	-25.3	-25.3	---	---	29.6	E	0.49	34.8	-43.2	---	---	722.6	0.030	0.000	18.2	1	1
03/18/06	2:15 a	-25.3	-25.3	-25.3	---	---	27.8	E	0.46	30.4	-42.8	---	---	722.7	0.030	0.000	18.2	1	1
03/18/06	2:16 a	-25.3	-25.3	-25.4	---	---	27.0	E	0.45	30.4	-42.6	---	---	722.6	0.030	0.000	18.2	1	1
03/18/06	2:17 a	-25.3	-25.3	-25.4	---	---	28.7	E	0.48	33.0	-42.9	---	---	722.7	0.030	0.000	18.2	1	1
03/18/06	2:18 a	-25.3	-25.3	-25.4	---	---	27.8	E	0.46	33.0	-42.8	---	---	722.7	0.030	0.000	18.2	1	1
03/18/06	2:19 a	-25.3	-25.3	-25.3	---	---	27.8	E	0.46	33.0	-42.8	---	---	722.7	0.030	0.000	18.2	1	1
03/18/06	2:20 a	-25.3	-25.3	-25.4	---	---	27.8	E	0.46	30.4	-42.8	---	---	722.7	0.030	0.000	18.2	1	1
03/18/06	2:21 a	-25.3	-25.3	-25.3	---	---	28.7	E	0.48	33.0	-42.9	---	---	722.6	0.030	0.000	18.2	1	1
03/18/06	2:22 a	-25.3	-25.3	-25.4	---	---	29.6	E	0.49	33.0	-43.2	---	---	722.7	0.030	0.000	18.2	1	1
03/18/06	2:23 a	-25.3	-25.3	-25.3	---	---	27.8	E	0.46	32.2	-42.8	---	---	722.7	0.030	0.000	18.2	1	1
03/18/06	2:24 a	-25.4	-25.3	-25.4	---	---	28.7	E	0.48	32.2	-43.1	---	---	722.6	0.030	0.000	18.2	1	1
03/18/06	2:25 a	-25.4	-25.3	-25.4	---	---	29.6	E	0.49	33.9	-43.2	---	---	722.7	0.030	0.000	18.1	1	1
03/18/06	2:26 a	-25.3	-25.3	-25.4	---	---	27.0	E	0.45	31.3	-42.6	---	---	722.7	0.030	0.000	18.1	1	1
03/18/06	2:27 a	-25.4	-25.4	-25.4	---	---	27.8	E	0.46	31.3	-42.8	---	---	722.7	0.030	0.000	18.1	1	1
03/18/06	2:28 a	-25.4	-25.3	-25.4	---	---	27.8	E	0.46	31.3	-42.8	---	---	722.8	0.030	0.000	18.1	1	1
03/18/06	2:29 a	-25.3	-25.3	-25.4	---	---	28.7	E	0.48	33.0	-42.9	---	---	722.6	0.030	0.000	18.1	1	1
03/18/06	2:30 a	-25.4	-25.3	-25.4	---	---	27.8	E	0.46	33.0	-42.8	---	---	722.8	0.030	0.000	18.1	1	1
03/18/06	2:31 a	-25.4	-25.4	-25.4	---	---	26.1	E	0.43	29.6	-42.4	---	---	722.8	0.030	0.000	18.1	1	1
03/18/06	2:32 a	-25.4	-25.4	-25.4	---	---	28.7	E	0.48	33.0	-43.1	---	---	722.8	0.030	0.000	18.1	1	1
03/18/06	2:33 a	-25.4	-25.3	-25.4	---	---	27.8	E	0.46	30.4	-42.8	---	---	722.7	0.030	0.000	18.1	1	1
03/18/06	2:34 a	-25.4	-25.4	-25.4	---	---	28.7	E	0.48	32.2	-43.1	---	---	722.7	0.030	0.000	18.1	1	1
03/18/06	2:35 a	-25.4	-25.4	-25.4	---	---	26.1	E	0.43	30.4	-42.5	---	---	722.7	0.030	0.000	18.1	1	1
03/18/06	2:36 a	-25.4	-25.4	-25.4	---	---	27.8	E	0.46	33.0	-42.8	---	---	722.9	0.030	0.000	18.0	1	1
03/18/06	2:37 a	-25.4	-25.4	-25.4	---	---	25.2	E	0.42	32.2	-42.2	---	---	722.8	0.030	0.000	18.1	1	1
03/18/06	2:38 a	-25.4	-25.4	-25.4	---	---	28.7	E	0.48	33.9	-43.1	---	---	722.7	0.030	0.000	18.1	1	1
03/18/06	2:39 a	-25.4	-25.4	-25.4	---	---	26.1	E	0.43	30.4	-42.5	---	---	722.9	0.030	0.000	18.1	1	1
03/18/06	2:40 a	-25.4	-25.4	-25.4	---	---	27.0	E	0.45	30.4	-42.7	---	---	722.8	0.030	0.000	18.1	1	1
03/18/06	2:41 a	-25.4	-25.4	-25.4	---	---	28.7	E	0.48	33.0	-43.1	---	---	722.9	0.030	0.000	18.1	1	1
03/18/06	2:42 a	-25.4	-25.4	-25.4	---	---	26.1	E	0.43	30.4	-42.5	---	---	722.9	0.030	0.000	18.1	1	1
03/18/06	2:43 a	-25.4	-25.4	-25.4	---	---	27.0	E	0.45	31.3	-42.7	---	---	722.9	0.030	0.000	18.1	1	1
03/18/06	2:44 a	-25.4	-25.4	-25.4	---	---	26.1	E	0.43	31.3	-42.5	---	---	722.8	0.030	0.000	18.1	1	1
03/18/06	2:45 a	-25.4	-25.4	-25.5	---	---	28.7	E	0.48	32.2	-43.1	---	---	722.8	0.030	0.000	18.2	1	1
03/18/06	2:46 a	-25.4	-25.4	-25.4	---	---	29.6	E	0.49	31.3	-43.3	---	---	722.9	0.030	0.000	18.2	1	1
03/18/06	2:47 a	-25.4	-25.4	-25.5	---	---	26.1	E	0.43	30.4	-42.5	---	---	722.8	0.030	0.000	18.2	1	1
03/18/06	2:48 a	-25.4	-25.4	-25.4	---	---	26.1	E	0.43	30.4	-42.5	---	---	722.9	0.030	0.000	18.3	1	1
03/18/06	2:49 a	-25.4	-25.4	-25.5	---	---	28.7	E	0.48	31.3	-43.1	---	---	723.0	0.030	0.000	18.3	1	1
03/18/06	2:50 a	-25.4	-25.4	-25.5	---	---	29.6	E	0.49	33.0	-43.3	---	---	722.9	0.030	0.000	18.3	1	1
03/18/06	2:51 a	-25.4	-25.4	-25.5	---	---	30.4	E	0.51	33.0	-43.5	---	---	723.0	0.030	0.000	18.3	1	1
03/18/06	2:52 a	-25.4	-25.4	-25.5	---	---	28.7	E	0.48	32.2	-43.1	---	---	722.9	0.030	0.000	18.2	1	1
03/18/06	2:53 a	-25.4	-25.4	-25.5	---	---	28.7	E	0.48	32.2	-43.1	---	---	723.1	0.030	0.000	18.2	1	1
03/18/06	2:54 a	-25.4	-25.4	-25.5	---	---	27.0	E	0.45	31.3	-42.7	---	---	722.9	0.030	0.000	18.2	1	1
03/18/06	2:55 a	-25.4	-25.4	-25.5	---	---	27.8	E	0.46	33.0	-42.9	---	---	722.9	0.030	0.000	18.2	1	1
03/18/06	2:56 a	-25.4	-25.4	-25.5	---	---	27.8	E	0.46	30.4	-42.9	---	---	723.0	0.030	0.000	18.2	1	1
03/18/06	2:57 a	-25.4	-25.4	-25.5	---	---	26.1	E	0.43	31.3	-42.5	---	---	723.1	0.030	0.000	18.2	1	1
03/18/06	2:58 a	-25.4	-25.4	-25.5	---	---	25.2	E	0.42	29.6	-42.3	---	---	723.0	0.030	0.000	18.1	1	1
03/18/06	2:59 a	-25.4	-25.4	-25.4	---	---	27.0	E	0.45	30.4	-42.7	---	---	723.1	0.030	0.000	18.1	1	1
03/18/06	3:00 a	-25.5	-25.4	-25.5	---	---	27.0	E	0.45	32.2	-42.8	---	---	723.0	0.030	0.000	18.1	1	1
03/18/06	3:01 a	-25.5	-25.4	-25.5	---	---	27.8	E	0.46	32.2	-43.0	---	---	723.2	0.030	0.000	18.1	1	1
03/18/06	3:02 a	-25.5	-25.4	-25.5	---	---	25.2	E	0.42	30.4	-42.4	---	---	723.0	0.030	0.000	18.1	1	1
03/18/06	3:03 a	-25.5	-25.4	-25.5	---	---	27.8	E	0.46	32.2	-43.0	---	---	723.2	0.030	0.000	18.1	1	1
03/18/06	3:04 a	-25.4	-25.4	-25.5	---	---	27.0	ENE	0.45	29.6	-42.7	---	---	723.0	0.030	0.000	18.1	1	1
03/18/06	3:05 a	-25.4	-25.4	-25.4	---	---	28.7	E	0.48	33.9	-43.1	---	---	723.0	0.030	0.000	18.1	1	1
03/18/06	3:06 a	-25.4	-25.4	-25.5	---	---	26.1	E	0.43	28.7	-42.5	---	---	723.1	0.030	0.000	18.0	1	1
03/18/06	3:07 a	-25.4	-25.4	-25.5	---	---	27.8	E	0.46	31.3	-42.9	---	---	723.0	0.030	0.000	18.0	1	1
03/18/06	3:08 a	-25.5	-25.4	-25.5	---	---	26.1	E	0.43	29.6	-42.6	---	---	723.1	0.030	0.000	17.9	1	1
03/18/06	3:09 a	-25.5	-25.4	-25.5	---	---	24.3	E	0.41	27.0	-42.2	---	---	723.1	0.030	0.000	17.9	1	1
03/18/06	3:10 a	-25.4	-25.4	-25.5	---	---	27.0	E	0.45	31.3	-42.7	---	---	722.9	0.030	0.000	17.9	1	1
03/18/06	3:11 a	-25.4	-25.4	-25.5	---	---	28.7	E	0.48	32.2	-43.1	---	---	723.1	0.030	0.000	17.9	1	1
03/18/06	3:12 a	-25.5	-25.4	-25.5	---	---	27.0	ENE	0.45	29.6	-42.8	---	---	723.0	0.030	0.000	17.9	1	1
03/18/06	3:13 a	-25.5	-25.4	-25.5	---	---	27.0	E	0.45	31.3	-42.8	---	---	722.9	0.030	0.000	17.9	1	1
03/18/06	3:14 a	-25.4	-25.4	-25.4	---	---	28.7	E	0.48	32.2	-43.1	---	---	723.2	0.030	0.000	17.9	1	1
03/18/06	3:15 a	-25.5	-25.4	-25.5	---	---	22.6	E	0.38	26.1	-41.7	---	---	723.2	0.030	0.000	17.9	1	1
03/18/06	3:16 a	-25.4	-25.4	-25.5	---	---	26.1	E	0.43	30.4	-42.5	---	---	723.0	0.030	0.000	17.9	1	1
03/18/06	3:17 a	-25.5	-25.4	-25.5	---	---	26.1	ENE	0.43	28.7	-42.6	---	---	723.1	0.030	0.000	17.9	1	1
03/18/06	3:18 a	-25.5	-25.4	-25.5	---	---	27.8	E	0.46	32.2	-43.0	---	---	723.0	0.030	0.000	17.9	1	1
03/18/06	3:19 a	-25.5	-25.5	-25.5	---	---	27.0	E	0.45	31.3	-42.8	---	---	723.1	0.030	0.000	17.9	1	1
03/18/06	3:20 a	-25.5	-25.5	-25.5	---	---	27.0	E	0.45	29.6	-42.8	---	---	723.0	0.030	0.000	17.9	1	1
03/18/06	3:21 a	-25.5	-25.4	-25.5	---	---	27.8	E	0.46	32.2	-43.0	---	---	723.0	0.030	0.000	17.9	1	1
03/18/06	3:22 a	-25.5	-25.4	-25.5	---	---	28.7	E	0.48	32.2	-43.2	---	---	723.1	0.030	0.000	18.0	1	1
03/18/06	3:23 a	-25.5	-25.5	-25.6	---	---	27.0	E	0.45	30.4	-42.8	---	---	723.2	0.030	0.000	18.0	1	1
03/18/06	3:24 a	-25.5	-25.5	-25.5	---	---	27.8	E	0.46	32.2	-43.0	---	---	722.9	0.030	0.000	18.0	1	1
03/18/06	3:25 a	-25.4	-25.4	-25.5	---	---	30.4	ENE	0.51	33.0	-43.5	---	---	723.0	0.030	0.000	18.1	1	1
03/18/06	3:26 a	-25.5	-25.5	-25.5	---	---	27.8	E	0.46	32.2	-43.0	---	---	723.0	0.030	0.000	18.1	1	1
03/18/06	3:27 a	-25.5	-25.5	-25.6	---	---	26.1	E	0.43	29.6	-42.6	---	---	722.9	0.030	0.000	18.1	1	1
03/18/06	3:28 a	-25.5	-25.5	-25.6	---	---	28.7	E	0.48	32.2	-43.2	---	---	723.0	0.030	0.000	18.1	1	1
03/18/06	3:29 a	-25.5	-25.5	-25.5	---	---	27.0	E	0.45	32.2	-42.8	---	---	722.9	0.030	0.000	18.1	1	1
03/18/06	3:30 a	-25.5	-25.5	-25.6	---	---	31.3	ENE	0.52	33.9	-43.8	---	---	722.9	0.030	0.000	18.1	1	1
03/18/06	3:31 a	-25.5	-25.4	-25.5	---	---	30.4	E	0.51	33.0	-43.6	---	---	723.1	0.030	0.000	18.1	1	1
03/18/06	3:32 a	-25.5	-25.4	-25.5	---	---	26.1	ENE	0.43	29.6	-42.6	---	---	723.1	0.030	0.000	18.1	1	1
03/18/06	3:33 a	-25.5	-25.5	-25.6	---	---	27.8	E	0.46	31.3	-43.0	---	---	723.0	0.030	0.000	18.1	1	1
03/18/06	3:34 a	-25.5	-25.5	-25.5	---	---	27.8	E	0.46	31.3	-43.0	---	---	723.0	0.030	0.000	18.1	1	1
03/18/06	3:35 a	-25.4	-25.4	-25.5	---	---	28.7	E	0.48	31.3	-43.1	---	---	723.1	0.030	0.000	18.1	1	1
03/18/06	3:36 a	-25.5	-25.5	-25.5	---	---	28.7	E	0.48	32.2	-43.2	---	---	723.1	0.030	0.000	18.1	1	1
03/18/06	3:37 a	-25.5	-25.4	-25.5	---	---	29.6	ENE	0.49	32.2	-43.4	---	---	723.1	0.030	0.000	18.1	1	1
03/18/06	3:38 a	-25.5	-25.4	-25.5	---	---	27.0	E	0.45	29.6	-42.8	---	---	723.1	0.030	0.000	18.1	1	1
03/18/06	3:39 a	-25.4	-25.4	-25.5	---	---	27.0	E	0.45	32.2	-42.7	---	---	723.1	0.030	0.000	18.1	1	1
03/18/06	3:40 a	-25.4	-25.4	-25.5	---	---	27.0	E	0.45	29.6	-42.7	---	---	723.1	0.030	0.000	18.0	1	1
03/18/06	3:41 a	-25.4	-25.4	-25.5	---	---	28.7	E	0.48	32.2	-43.1	---	---	723.0	0.030	0.000	18.0	1	1
03/18/06	3:42 a	-25.4	-25.4	-25.4	---	---	27.0	E	0.45	30.4	-42.7	---	---	723.2	0.030	0.000	18.0	1	1
03/18/06	3:43 a	-25.4	-25.4	-25.5	---	---	24.3	E	0.41	29.6	-42.1	---	---	723.2	0.030	0.000	18.0	1	1
03/18/06	3:44 a	-25.4	-25.4	-25.4	---	---	27.8	ENE	0.46	30.4	-42.9	---	---	723.2	0.030	0.000	18.0	1	1
03/18/06	3:45 a	-25.4	-25.4	-25.4	---	---	27.8	E	0.46	31.3	-42.9	---	---	723.0	0.030	0.000	17.9	1	1
03/18/06	3:46 a	-25.4	-25.4	-25.5	---	---	27.8	E	0.46	30.4	-42.9	---	---	723.2	0.030	0.000	17.9	1	1
03/18/06	3:47 a	-25.4	-25.4	-25.4	---	---	25.2	E	0.42	29.6	-42.2	---	---	723.3	0.030	0.000	17.9	1	1
03/18/06	3:48 a	-25.4	-25.4	-25.4	---	---	24.3	ENE	0.41	29.6	-42.0	---	---	723.2	0.030	0.000	17.9	1	1
03/18/06	3:49 a	-25.4	-25.4	-25.4	---	---	27.8	E	0.46	30.4	-42.8	---	---	723.1	0.030	0.000	17.9	1	1
03/18/06	3:50 a	-25.4	-25.3	-25.4	---	---	27.8	E	0.46	31.3	-42.8	---	---	723.1	0.030	0.000	17.9	1	1
03/18/06	3:51 a	-25.4	-25.3	-25.4	---	---	27.0	E	0.45	30.4	-42.6	---	---	723.0	0.030	0.000	17.9	1	1
03/18/06	3:52 a	-25.4	-25.3	-25.4	---	---	27.0	E	0.45	31.3	-42.6	---	---	723.1	0.030	0.000	17.8	1	1
03/18/06	3:53 a	-25.4	-25.3	-25.4	---	---	28.7	E	0.48	32.2	-43.1	---	---	723.0	0.030	0.000	17.8	1	1
03/18/06	3:54 a	-25.4	-25.3	-25.4	---	---	28.7	E	0.48	31.3	-43.1	---	---	723.1	0.030	0.000	17.8	1	1
03/18/06	3:55 a	-25.4	-25.3	-25.4	---	---	27.8	E	0.46	31.3	-42.8	---	---	723.2	0.030	0.000	17.8	1	1
03/18/06	3:56 a	-25.3	-25.3	-25.3	---	---	27.0	ENE	0.45	31.3	-42.6	---	---	723.0	0.030	0.000	17.8	1	1
03/18/06	3:57 a	-25.3	-25.3	-25.3	---	---	27.8	E	0.46	30.4	-42.8	---	---	723.2	0.030	0.000	17.8	1	1
03/18/06	3:58 a	-25.3	-25.3	-25.3	---	---	26.1	E	0.43	29.6	-42.3	---	---	723.2	0.030	0.000	17.8	1	1
03/18/06	3:59 a	-25.3	-25.3	-25.3	---	---	26.1	ENE	0.43	30.4	-42.3	---	---	723.1	0.030	0.000	17.9	1	1
03/18/06	4:00 a	-25.3	-25.3	-25.3	---	---	28.7	ENE	0.48	31.3	-42.9	---	---	723.3	0.030	0.000	17.9	1	1
03/18/06	4:01 a	-25.3	-25.3	-25.3	---	---	25.2	ENE	0.42	29.6	-42.1	---	---	723.3	0.030	0.000	17.9	1	1
03/18/06	4:02 a	-25.3	-25.2	-25.3	---	---	28.7	E	0.48	32.2	-42.9	---	---	723.1	0.030	0.000	17.9	1	1
03/18/06	4:03 a	-25.3	-25.2	-25.3	---	---	27.8	E	0.46	33.0	-42.7	---	---	723.2	0.030	0.000	17.9	1	1
03/18/06	4:04 a	-25.3	-25.2	-25.3	---	---	26.1	E	0.43	30.4	-42.3	---	---	723.1	0.030	0.000	18.0	1	1
03/18/06	4:05 a	-25.3	-25.2	-25.3	---	---	26.1	E	0.43	29.6	-42.3	---	---	723.2	0.030	0.000	18.0	1	1
03/18/06	4:06 a	-25.3	-25.2	-25.3	---	---	26.1	E	0.43	29.6	-42.3	---	---	723.1	0.030	0.000	18.0	1	1
03/18/06	4:07 a	-25.2	-25.2	-25.3	---	---	25.2	E	0.42	30.4	-42.0	---	---	723.2	0.030	0.000	18.0	1	1
03/18/06	4:08 a	-25.2	-25.2	-25.2	---	---	27.0	E	0.45	33.0	-42.4	---	---	723.0	0.030	0.000	18.1	1	1
03/18/06	4:09 a	-25.2	-25.2	-25.2	---	---	26.1	E	0.43	32.2	-42.2	---	---	723.3	0.030	0.000	18.1	1	1
03/18/06	4:10 a	-25.2	-25.2	-25.3	---	---	25.2	E	0.42	27.0	-42.0	---	---	723.0	0.030	0.000	18.1	1	1
03/18/06	4:11 a	-25.2	-25.2	-25.2	---	---	26.1	E	0.43	29.6	-42.2	---	---	723.2	0.030	0.000	18.1	1	1
03/18/06	4:12 a	-25.2	-25.2	-25.2	---	---	25.2	E	0.42	29.6	-42.0	---	---	723.2	0.030	0.000	18.1	1	1
03/18/06	4:13 a	-25.2	-25.2	-25.2	---	---	26.1	E	0.43	30.4	-42.2	---	---	723.0	0.030	0.000	18.1	1	1
03/18/06	4:14 a	-25.2	-25.2	-25.2	---	---	27.0	E	0.45	30.4	-42.4	---	---	723.2	0.030	0.000	18.1	1	1
03/18/06	4:15 a	-25.2	-25.2	-25.2	---	---	27.0	E	0.45	30.4	-42.3	---	---	723.2	0.030	0.000	18.1	1	1
03/18/06	4:16 a	-25.2	-25.1	-25.2	---	---	24.3	E	0.41	28.7	-41.7	---	---	723.2	0.030	0.000	18.1	1	1
03/18/06	4:17 a	-25.2	-25.2	-25.2	---	---	27.0	E	0.45	31.3	-42.3	---	---	723.0	0.030	0.000	18.1	1	1
03/18/06	4:18 a	-25.2	-25.2	-25.2	---	---	27.8	E	0.46	31.3	-42.6	---	---	723.2	0.030	0.000	18.1	1	1
03/18/06	4:19 a	-25.2	-25.2	-25.2	---	---	25.2	E	0.42	29.6	-41.9	---	---	723.1	0.030	0.000	18.1	1	1
03/18/06	4:20 a	-25.2	-25.2	-25.2	---	---	27.8	E	0.46	32.2	-42.6	---	---	723.0	0.030	0.000	18.1	1	1
03/18/06	4:21 a	-25.1	-25.1	-25.2	---	---	27.0	E	0.45	31.3	-42.3	---	---	723.2	0.030	0.000	18.1	1	1
03/18/06	4:22 a	-25.1	-25.1	-25.1	---	---	24.3	E	0.41	27.8	-41.6	---	---	723.1	0.030	0.000	18.1	1	1
03/18/06	4:23 a	-25.1	-25.1	-25.1	---	---	26.1	E	0.43	29.6	-42.1	---	---	723.1	0.030	0.000	18.0	1	1
03/18/06	4:24 a	-25.1	-25.1	-25.1	---	---	28.7	E	0.48	31.3	-42.7	---	---	723.0	0.030	0.000	18.0	1	1
03/18/06	4:25 a	-25.1	-25.1	-25.1	---	---	28.7	E	0.48	32.2	-42.7	---	---	723.2	0.030	0.000	18.0	1	1
03/18/06	4:26 a	-25.1	-25.1	-25.1	---	---	26.1	E	0.43	30.4	-42.1	---	---	723.1	0.030	0.000	17.9	1	1
03/18/06	4:27 a	-25.1	-25.1	-25.1	---	---	26.1	E	0.43	29.6	-42.0	---	---	723.0	0.030	0.000	17.9	1	1
03/18/06	4:28 a	-25.1	-25.1	-25.1	---	---	26.1	E	0.43	29.6	-42.1	---	---	723.1	0.030	0.000	17.9	1	1
03/18/06	4:29 a	-25.1	-25.1	-25.1	---	---	27.0	E	0.45	29.6	-42.3	---	---	723.1	0.030	0.000	17.9	1	1
03/18/06	4:30 a	-25.1	-25.1	-25.1	---	---	26.1	E	0.43	31.3	-42.1	---	---	723.0	0.030	0.000	17.9	1	1
03/18/06	4:31 a	-25.1	-25.1	-25.1	---	---	28.7	E	0.48	31.3	-42.6	---	---	723.1	0.030	0.000	17.9	1	1
03/18/06	4:32 a	-25.1	-25.1	-25.1	---	---	28.7	E	0.48	31.3	-42.6	---	---	723.1	0.030	0.000	17.9	1	1
03/18/06	4:33 a	-25.1	-25.0	-25.1	---	---	27.8	E	0.46	31.3	-42.4	---	---	723.2	0.030	0.000	17.9	1	1
03/18/06	4:34 a	-25.1	-25.0	-25.1	---	---	26.1	E	0.43	32.2	-42.0	---	---	722.9	0.030	0.000	17.9	1	1
03/18/06	4:35 a	-25.1	-25.0	-25.1	---	---	28.7	E	0.48	32.2	-42.6	---	---	723.1	0.030	0.000	17.8	1	1
03/18/06	4:36 a	-25.1	-25.0	-25.1	---	---	27.8	E	0.46	31.3	-42.4	---	---	723.1	0.030	0.000	17.8	1	1
03/18/06	4:37 a	-25.1	-25.0	-25.1	---	---	27.8	E	0.46	32.2	-42.4	---	---	723.1	0.030	0.000	17.8	1	1
03/18/06	4:38 a	-25.0	-25.0	-25.1	---	---	27.8	E	0.46	32.2	-42.3	---	---	723.2	0.030	0.000	17.8	1	1
03/18/06	4:39 a	-25.0	-25.0	-25.1	---	---	27.0	E	0.45	30.4	-42.1	---	---	723.1	0.030	0.000	17.8	1	1
03/18/06	4:40 a	-25.0	-25.0	-25.1	---	---	28.7	E	0.48	32.2	-42.5	---	---	723.1	0.030	0.000	17.8	1	1
03/18/06	4:41 a	-25.0	-25.0	-25.1	---	---	28.7	E	0.48	32.2	-42.5	---	---	723.1	0.030	0.000	17.8	1	1
03/18/06	4:42 a	-25.0	-25.0	-25.1	---	---	27.8	E	0.46	32.2	-42.3	---	---	723.1	0.030	0.000	17.8	1	1
03/18/06	4:43 a	-25.1	-25.0	-25.1	---	---	27.8	E	0.46	30.4	-42.4	---	---	723.1	0.030	0.000	17.8	1	1
03/18/06	4:44 a	-25.0	-25.0	-25.1	---	---	27.8	E	0.46	30.4	-42.3	---	---	722.9	0.030	0.000	17.9	1	1
03/18/06	4:45 a	-25.1	-25.0	-25.1	---	---	27.0	E	0.45	30.4	-42.2	---	---	723.1	0.030	0.000	17.9	1	1
03/18/06	4:46 a	-25.1	-25.0	-25.1	---	---	27.0	ENE	0.45	29.6	-42.2	---	---	723.3	0.030	0.000	17.9	1	1
03/18/06	4:47 a	-25.1	-25.0	-25.1	---	---	22.6	E	0.38	27.0	-41.1	---	---	723.2	0.030	0.000	17.9	1	1
03/18/06	4:48 a	-25.0	-25.0	-25.1	---	---	24.3	E	0.41	28.7	-41.4	---	---	722.9	0.030	0.000	17.9	1	1
03/18/06	4:49 a	-25.0	-25.0	-25.1	---	---	27.0	E	0.45	29.6	-42.1	---	---	723.0	0.030	0.000	17.9	1	1
03/18/06	4:50 a	-25.1	-25.0	-25.1	---	---	25.2	E	0.42	29.6	-41.8	---	---	723.1	0.030	0.000	18.0	1	1
03/18/06	4:51 a	-25.1	-25.0	-25.1	---	---	27.8	E	0.46	30.4	-42.4	---	---	723.0	0.030	0.000	18.0	1	1
03/18/06	4:52 a	-25.0	-25.0	-25.1	---	---	26.1	E	0.43	29.6	-41.9	---	---	723.2	0.030	0.000	18.0	1	1
03/18/06	4:53 a	-25.0	-25.0	-25.1	---	---	27.8	E	0.46	30.4	-42.3	---	---	723.1	0.030	0.000	18.1	1	1
03/18/06	4:54 a	-25.1	-25.0	-25.1	---	---	29.6	E	0.49	33.0	-42.8	---	---	723.0	0.030	0.000	18.1	1	1
03/18/06	4:55 a	-25.0	-25.0	-25.0	---	---	29.6	E	0.49	33.0	-42.7	---	---	723.0	0.030	0.000	18.1	1	1
03/18/06	4:56 a	-25.1	-25.0	-25.1	---	---	25.2	E	0.42	30.4	-41.8	---	---	723.1	0.030	0.000	18.1	1	1
03/18/06	4:57 a	-25.0	-24.9	-25.1	---	---	24.3	E	0.41	28.7	-41.4	---	---	723.0	0.030	0.000	18.0	1	1
03/18/06	4:58 a	-25.0	-25.0	-25.0	---	---	28.7	E	0.48	33.9	-42.5	---	---	722.9	0.030	0.000	18.0	1	1
03/18/06	4:59 a	-25.0	-25.0	-25.0	---	---	28.7	E	0.48	32.2	-42.5	---	---	723.0	0.030	0.000	18.0	1	1
03/18/06	5:00 a	-25.0	-25.0	-25.0	---	---	27.8	E	0.46	30.4	-42.3	---	---	722.9	0.030	0.000	18.0	1	1
03/18/06	5:01 a	-25.0	-25.0	-25.0	---	---	27.0	E	0.45	31.3	-42.1	---	---	723.0	0.030	0.000	18.0	1	1
03/18/06	5:02 a	-25.0	-25.0	-25.0	---	---	25.2	E	0.42	29.6	-41.7	---	---	723.3	0.030	0.000	18.0	1	1
03/18/06	5:03 a	-25.0	-25.0	-25.0	---	---	24.3	E	0.41	28.7	-41.4	---	---	723.1	0.030	0.000	17.9	1	1
03/18/06	5:04 a	-25.0	-25.0	-25.0	---	---	26.1	E	0.43	31.3	-41.9	---	---	723.1	0.030	0.000	17.9	1	1
03/18/06	5:05 a	-25.0	-24.9	-25.0	---	---	27.0	E	0.45	29.6	-42.1	---	---	722.9	0.030	0.000	17.9	1	1
03/18/06	5:06 a	-25.0	-24.9	-25.0	---	---	25.2	E	0.42	27.8	-41.7	---	---	723.2	0.030	0.000	17.9	1	1
03/18/06	5:07 a	-24.9	-24.9	-25.0	---	---	27.0	E	0.45	30.4	-42.1	---	---	723.2	0.030	0.000	17.9	1	1
03/18/06	5:08 a	-24.9	-24.9	-24.9	---	---	27.0	E	0.45	30.4	-42.1	---	---	723.1	0.030	0.000	17.9	1	1
03/18/06	5:09 a	-24.9	-24.9	-24.9	---	---	27.8	ENE	0.46	30.4	-42.2	---	---	723.0	0.030	0.000	17.9	1	1
03/18/06	5:10 a	-24.9	-24.9	-24.9	---	---	31.3	E	0.52	34.8	-43.0	---	---	722.9	0.030	0.000	17.8	1	1
03/18/06	5:11 a	-24.9	-24.9	-24.9	---	---	27.8	E	0.46	32.2	-42.2	---	---	723.0	0.030	0.000	17.8	1	1
03/18/06	5:12 a	-24.9	-24.9	-24.9	---	---	25.2	E	0.42	28.7	-41.6	---	---	723.2	0.030	0.000	17.8	1	1
03/18/06	5:13 a	-24.9	-24.9	-24.9	---	---	22.6	E	0.38	27.8	-40.9	---	---	723.2	0.030	0.000	17.8	1	1
03/18/06	5:14 a	-24.9	-24.9	-24.9	---	---	26.1	E	0.43	31.3	-41.8	---	---	723.0	0.030	0.000	17.8	1	1
03/18/06	5:15 a	-24.9	-24.9	-24.9	---	---	27.8	E	0.46	32.2	-42.2	---	---	723.0	0.030	0.000	17.8	1	1
03/18/06	5:16 a	-24.9	-24.9	-24.9	---	---	30.4	E	0.51	34.8	-42.7	---	---	723.1	0.030	0.000	17.8	1	1
03/18/06	5:17 a	-24.9	-24.9	-24.9	---	---	28.7	E	0.48	31.3	-42.4	---	---	723.1	0.030	0.000	17.8	1	1
03/18/06	5:18 a	-24.9	-24.9	-24.9	---	---	25.2	E	0.42	28.7	-41.6	---	---	723.2	0.030	0.000	17.8	1	1
03/18/06	5:19 a	-24.9	-24.9	-24.9	---	---	24.3	E	0.41	27.0	-41.4	---	---	723.1	0.030	0.000	17.8	1	1
03/18/06	5:20 a	-24.9	-24.9	-24.9	---	---	27.8	E	0.46	31.3	-42.2	---	---	723.0	0.030	0.000	17.8	1	1
03/18/06	5:21 a	-24.9	-24.9	-24.9	---	---	28.7	E	0.48	32.2	-42.3	---	---	723.1	0.030	0.000	17.8	1	1
03/18/06	5:22 a	-24.9	-24.9	-24.9	---	---	27.0	E	0.45	31.3	-41.9	---	---	723.0	0.030	0.000	17.9	1	1
03/18/06	5:23 a	-24.9	-24.9	-24.9	---	---	28.7	E	0.48	31.3	-42.3	---	---	723.0	0.030	0.000	17.9	1	1
03/18/06	5:24 a	-24.9	-24.9	-24.9	---	---	27.0	E	0.45	31.3	-41.9	---	---	723.1	0.030	0.000	17.9	1	1
03/18/06	5:25 a	-24.9	-24.9	-24.9	---	---	27.8	E	0.46	30.4	-42.2	---	---	723.0	0.030	0.000	17.9	1	1
03/18/06	5:26 a	-24.9	-24.9	-24.9	---	---	28.7	E	0.48	32.2	-42.3	---	---	723.1	0.030	0.000	17.9	1	1
03/18/06	5:27 a	-24.9	-24.8	-24.9	---	---	27.8	E	0.46	30.4	-42.2	---	---	723.2	0.030	0.000	17.9	1	1
03/18/06	5:28 a	-24.9	-24.8	-24.9	---	---	22.6	E	0.38	27.0	-40.8	---	---	723.2	0.030	0.000	18.0	1	1
03/18/06	5:29 a	-24.9	-24.8	-24.9	---	---	23.5	E	0.39	30.4	-41.1	---	---	723.1	0.030	0.000	18.0	1	1
03/18/06	5:30 a	-24.8	-24.8	-24.8	---	---	28.7	E	0.48	32.2	-42.3	---	---	723.1	0.030	0.000	18.0	1	1
03/18/06	5:31 a	-24.9	-24.8	-24.9	---	---	27.8	E	0.46	31.3	-42.2	---	---	723.2	0.030	0.000	18.0	1	1
03/18/06	5:32 a	-24.8	-24.8	-24.8	---	---	25.2	E	0.42	28.7	-41.4	---	---	723.1	0.030	0.000	18.1	1	1
03/18/06	5:33 a	-24.8	-24.8	-24.8	---	---	27.0	E	0.45	32.2	-41.9	---	---	723.0	0.030	0.000	18.1	1	1
03/18/06	5:34 a	-24.8	-24.8	-24.8	---	---	29.6	E	0.49	33.9	-42.4	---	---	723.1	0.030	0.000	18.0	1	1
03/18/06	5:35 a	-24.8	-24.8	-24.8	---	---	25.2	E	0.42	32.2	-41.4	---	---	723.2	0.030	0.000	18.0	1	1
03/18/06	5:36 a	-24.8	-24.8	-24.8	---	---	27.0	E	0.45	31.3	-41.8	---	---	722.9	0.030	0.000	18.0	1	1
03/18/06	5:37 a	-24.8	-24.8	-24.8	---	---	28.7	E	0.48	33.0	-42.3	---	---	723.2	0.030	0.000	18.0	1	1
03/18/06	5:38 a	-24.8	-24.8	-24.8	---	---	23.5	E	0.39	27.0	-40.9	---	---	723.2	0.030	0.000	18.0	1	1
03/18/06	5:39 a	-24.8	-24.8	-24.8	---	---	23.5	E	0.39	27.8	-40.9	---	---	723.3	0.030	0.000	17.9	1	1
03/18/06	5:40 a	-24.8	-24.8	-24.8	---	---	23.5	E	0.39	28.7	-40.9	---	---	723.1	0.030	0.000	17.9	1	1
03/18/06	5:41 a	-24.7	-24.7	-24.8	---	---	27.8	E	0.46	33.0	-41.9	---	---	723.1	0.030	0.000	17.9	1	1
03/18/06	5:42 a	-24.7	-24.7	-24.8	---	---	27.0	E	0.45	31.3	-41.7	---	---	723.1	0.030	0.000	17.9	1	1
03/18/06	5:43 a	-24.7	-24.7	-24.8	---	---	25.2	E	0.42	30.4	-41.3	---	---	723.2	0.030	0.000	17.9	1	1
03/18/06	5:44 a	-24.7	-24.7	-24.8	---	---	25.2	E	0.42	27.8	-41.3	---	---	723.2	0.030	0.000	17.9	1	1
03/18/06	5:45 a	-24.8	-24.7	-24.8	---	---	26.1	E	0.43	32.2	-41.6	---	---	723.1	0.030	0.000	17.9	1	1
03/18/06	5:46 a	-24.7	-24.7	-24.7	---	---	27.8	E	0.46	31.3	-41.9	---	---	723.2	0.030	0.000	17.9	1	1
03/18/06	5:47 a	-24.7	-24.7	-24.7	---	---	25.2	E	0.42	27.8	-41.3	---	---	723.4	0.030	0.000	17.8	1	1
03/18/06	5:48 a	-24.7	-24.7	-24.7	---	---	22.6	E	0.38	28.7	-40.6	---	---	723.2	0.030	0.000	17.8	1	1
03/18/06	5:49 a	-24.7	-24.7	-24.7	---	---	27.8	E	0.46	33.0	-41.8	---	---	723.1	0.030	0.000	17.8	1	1
03/18/06	5:50 a	-24.7	-24.7	-24.7	---	---	28.7	E	0.48	32.2	-42.1	---	---	723.2	0.030	0.000	17.8	1	1
03/18/06	5:51 a	-24.7	-24.7	-24.7	---	---	25.2	E	0.42	28.7	-41.2	---	---	723.3	0.030	0.000	17.8	1	1
03/18/06	5:52 a	-24.7	-24.7	-24.7	---	---	22.6	E	0.38	26.1	-40.6	---	---	723.3	0.030	0.000	17.8	1	1
03/18/06	5:53 a	-24.7	-24.6	-24.7	---	---	26.1	E	0.43	29.6	-41.4	---	---	723.1	0.030	0.000	17.8	1	1
03/18/06	5:54 a	-24.6	-24.6	-24.6	---	---	27.8	E	0.46	32.2	-41.8	---	---	723.1	0.030	0.000	17.8	1	1
03/18/06	5:55 a	-24.6	-24.6	-24.6	---	---	28.7	E	0.48	33.9	-42.0	---	---	723.4	0.030	0.000	17.8	1	1
03/18/06	5:56 a	-24.6	-24.6	-24.6	---	---	23.5	E	0.39	27.8	-40.7	---	---	723.4	0.030	0.000	17.8	1	1
03/18/06	5:57 a	-24.6	-24.6	-24.6	---	---	20.9	E	0.35	25.2	-40.0	---	---	723.2	0.030	0.000	17.8	1	1
03/18/06	5:58 a	-24.6	-24.6	-24.7	---	---	24.3	E	0.41	27.8	-40.9	---	---	723.0	0.030	0.000	17.8	1	1
03/18/06	5:59 a	-24.6	-24.6	-24.6	---	---	29.6	E	0.49	33.0	-42.1	---	---	723.2	0.030	0.000	17.8	1	1
03/18/06	6:00 a	-24.6	-24.6	-24.6	---	---	24.3	E	0.41	29.6	-40.9	---	---	723.3	0.030	0.000	17.8	1	1
03/18/06	6:01 a	-24.6	-24.5	-24.6	---	---	26.1	E	0.43	31.3	-41.3	---	---	723.3	0.030	0.000	17.8	1	1
03/18/06	6:02 a	-24.6	-24.5	-24.6	---	---	27.0	ENE	0.45	29.6	-41.5	---	---	723.2	0.030	0.000	17.9	1	1
03/18/06	6:03 a	-24.6	-24.5	-24.6	---	---	25.2	E	0.42	28.7	-41.1	---	---	723.1	0.030	0.000	17.9	1	1
03/18/06	6:04 a	-24.5	-24.5	-24.6	---	---	26.1	E	0.43	29.6	-41.2	---	---	723.1	0.030	0.000	17.9	1	1
03/18/06	6:05 a	-24.5	-24.5	-24.5	---	---	30.4	E	0.51	33.9	-42.2	---	---	723.1	0.030	0.000	17.9	1	1
03/18/06	6:06 a	-24.5	-24.4	-24.5	---	---	26.1	E	0.43	31.3	-41.2	---	---	723.5	0.030	0.000	17.9	1	1
03/18/06	6:07 a	-24.5	-24.4	-24.5	---	---	21.7	E	0.36	29.6	-40.1	---	---	723.2	0.030	0.000	17.9	1	1
03/18/06	6:08 a	-24.4	-24.4	-24.5	---	---	24.3	E	0.41	28.7	-40.7	---	---	723.0	0.030	0.000	17.9	1	1
03/18/06	6:09 a	-24.4	-24.4	-24.4	---	---	28.7	E	0.48	32.2	-41.7	---	---	722.9	0.030	0.000	17.9	1	1
03/18/06	6:10 a	-24.4	-24.4	-24.4	---	---	28.7	E	0.48	34.8	-41.7	---	---	723.3	0.030	0.000	17.9	1	1
03/18/06	6:11 a	-24.4	-24.4	-24.4	---	---	23.5	E	0.39	27.8	-40.4	---	---	723.3	0.030	0.000	17.9	1	1
03/18/06	6:12 a	-24.4	-24.4	-24.4	---	---	25.2	E	0.42	28.7	-40.8	---	---	723.1	0.030	0.000	17.9	1	1
03/18/06	6:13 a	-24.4	-24.4	-24.4	---	---	23.5	E	0.39	27.8	-40.4	---	---	723.0	0.030	0.000	17.9	1	1
03/18/06	6:14 a	-24.4	-24.4	-24.4	---	---	27.0	E	0.45	30.4	-41.3	---	---	723.2	0.030	0.000	17.9	1	1
03/18/06	6:15 a	-24.4	-24.3	-24.4	---	---	25.2	E	0.42	28.7	-40.8	---	---	723.2	0.030	0.000	17.9	1	1
03/18/06	6:16 a	-24.4	-24.4	-24.4	---	---	26.1	E	0.43	30.4	-41.1	---	---	723.2	0.030	0.000	17.9	1	1
03/18/06	6:17 a	-24.3	-24.3	-24.4	---	---	26.1	E	0.43	31.3	-41.0	---	---	723.1	0.030	0.000	17.8	1	1
03/18/06	6:18 a	-24.3	-24.3	-24.4	---	---	26.1	E	0.43	30.4	-41.0	---	---	723.1	0.030	0.000	17.8	1	1
03/18/06	6:19 a	-24.4	-24.3	-24.4	---	---	25.2	E	0.42	28.7	-40.8	---	---	723.0	0.030	0.000	17.8	1	1
03/18/06	6:20 a	-24.3	-24.3	-24.4	---	---	27.8	E	0.46	30.4	-41.4	---	---	723.2	0.030	0.000	17.8	1	1
03/18/06	6:21 a	-24.3	-24.3	-24.3	---	---	26.1	E	0.43	30.4	-41.0	---	---	723.1	0.030	0.000	17.8	1	1
03/18/06	6:22 a	-24.3	-24.3	-24.4	---	---	23.5	E	0.39	27.8	-40.3	---	---	723.3	0.030	0.000	17.8	1	1
03/18/06	6:23 a	-24.3	-24.3	-24.3	---	---	23.5	E	0.39	27.8	-40.3	---	---	723.2	0.030	0.000	17.8	1	1
03/18/06	6:24 a	-24.3	-24.3	-24.3	---	---	26.1	E	0.43	27.0	-41.0	---	---	723.0	0.030	0.000	17.8	1	1
03/18/06	6:25 a	-24.3	-24.3	-24.3	---	---	27.0	E	0.45	30.4	-41.2	---	---	723.1	0.030	0.000	17.7	1	1
03/18/06	6:26 a	-24.3	-24.3	-24.3	---	---	26.1	E	0.43	28.7	-41.0	---	---	723.3	0.030	0.000	17.7	1	1
03/18/06	6:27 a	-24.3	-24.3	-24.3	---	---	21.7	E	0.36	26.1	-39.9	---	---	723.3	0.030	0.000	17.7	1	1
03/18/06	6:28 a	-24.3	-24.3	-24.3	---	---	22.6	E	0.38	27.8	-40.1	---	---	723.0	0.030	0.000	17.7	1	1
03/18/06	6:29 a	-24.3	-24.3	-24.3	---	---	26.1	E	0.43	29.6	-41.0	---	---	723.1	0.030	0.000	17.7	1	1
03/18/06	6:30 a	-24.3	-24.3	-24.3	---	---	23.5	E	0.39	28.7	-40.3	---	---	723.3	0.030	0.000	17.7	1	1
03/18/06	6:31 a	-24.3	-24.3	-24.3	---	---	22.6	E	0.38	24.3	-40.1	---	---	723.3	0.030	0.000	17.7	1	1
03/18/06	6:32 a	-24.3	-24.3	-24.3	---	---	22.6	E	0.38	27.8	-40.1	---	---	723.1	0.030	0.000	17.7	1	1
03/18/06	6:33 a	-24.3	-24.3	-24.4	---	---	26.1	E	0.43	29.6	-41.0	---	---	722.9	0.030	0.000	17.7	1	1
03/18/06	6:34 a	-24.3	-24.3	-24.4	---	---	27.8	E	0.46	34.8	-41.4	---	---	723.3	0.030	0.000	17.7	1	1
03/18/06	6:35 a	-24.3	-24.3	-24.3	---	---	20.9	E	0.35	25.2	-39.6	---	---	723.4	0.030	0.000	17.8	1	1
03/18/06	6:36 a	-24.3	-24.3	-24.4	---	---	22.6	E	0.38	27.0	-40.1	---	---	723.1	0.030	0.000	17.8	1	1
03/18/06	6:37 a	-24.3	-24.3	-24.3	---	---	25.2	E	0.42	27.8	-40.8	---	---	723.1	0.030	0.000	17.8	1	1
03/18/06	6:38 a	-24.3	-24.3	-24.3	---	---	28.7	E	0.48	33.9	-41.6	---	---	723.1	0.030	0.000	17.8	1	1
03/18/06	6:39 a	-24.3	-24.3	-24.3	---	---	25.2	E	0.42	29.6	-40.8	---	---	723.4	0.030	0.000	17.9	1	1
03/18/06	6:40 a	-24.3	-24.3	-24.3	---	---	21.7	E	0.36	23.5	-39.9	---	---	723.4	0.030	0.000	17.9	1	1
03/18/06	6:41 a	-24.3	-24.3	-24.3	---	---	22.6	E	0.38	25.2	-40.1	---	---	723.1	0.030	0.000	17.9	1	1
03/18/06	6:42 a	-24.3	-24.3	-24.4	---	---	25.2	E	0.42	29.6	-40.8	---	---	723.0	0.030	0.000	17.9	1	1
03/18/06	6:43 a	-24.3	-24.3	-24.4	---	---	27.8	E	0.46	32.2	-41.4	---	---	722.9	0.030	0.000	17.9	1	1
03/18/06	6:44 a	-24.3	-24.3	-24.4	---	---	30.4	E	0.51	33.9	-41.9	---	---	723.3	0.030	0.000	17.9	1	1
03/18/06	6:45 a	-24.3	-24.3	-24.4	---	---	20.9	E	0.35	27.8	-39.6	---	---	723.7	0.030	0.000	17.9	1	1
03/18/06	6:46 a	-24.3	-24.3	-24.4	---	---	17.4	E	0.29	20.9	-38.6	---	---	723.5	0.030	0.000	17.9	1	1
03/18/06	6:47 a	-24.3	-24.3	-24.3	---	---	24.3	E	0.41	33.0	-40.6	---	---	723.0	0.030	0.000	17.9	1	1
03/18/06	6:48 a	-24.3	-24.3	-24.3	---	---	28.7	E	0.48	33.0	-41.6	---	---	723.1	0.030	0.000	17.9	1	1
03/18/06	6:49 a	-24.4	-24.3	-24.4	---	---	25.2	E	0.42	29.6	-40.8	---	---	723.3	0.030	0.000	17.9	1	1
03/18/06	6:50 a	-24.3	-24.3	-24.4	---	---	22.6	E	0.38	26.1	-40.1	---	---	723.4	0.030	0.000	17.9	1	1
03/18/06	6:51 a	-24.3	-24.3	-24.3	---	---	21.7	E	0.36	25.2	-39.9	---	---	723.3	0.030	0.000	17.9	1	1
03/18/06	6:52 a	-24.3	-24.3	-24.4	---	---	26.1	E	0.43	28.7	-41.0	---	---	723.1	0.030	0.000	17.8	1	1
03/18/06	6:53 a	-24.3	-24.3	-24.4	---	---	27.0	E	0.45	31.3	-41.2	---	---	723.1	0.030	0.000	17.8	1	1
03/18/06	6:54 a	-24.4	-24.3	-24.4	---	---	28.7	E	0.48	31.3	-41.7	---	---	723.3	0.030	0.000	17.8	1	1
03/18/06	6:55 a	-24.4	-24.3	-24.4	---	---	27.0	E	0.45	30.4	-41.3	---	---	723.6	0.030	0.000	17.8	1	1
03/18/06	6:56 a	-24.4	-24.3	-24.4	---	---	22.6	E	0.38	26.1	-40.2	---	---	723.4	0.030	0.000	17.8	1	1
03/18/06	6:57 a	-24.4	-24.3	-24.4	---	---	23.5	E	0.39	27.8	-40.4	---	---	723.1	0.030	0.000	17.8	1	1
03/18/06	6:58 a	-24.4	-24.4	-24.4	---	---	25.2	E	0.42	28.7	-40.8	---	---	723.2	0.030	0.000	17.8	1	1
03/18/06	6:59 a	-24.4	-24.4	-24.4	---	---	24.3	E	0.41	29.6	-40.7	---	---	723.2	0.030	0.000	17.8	1	1
03/18/06	7:00 a	-24.3	-24.3	-24.4	---	---	28.7	ENE	0.48	30.4	-41.6	---	---	723.3	0.030	0.000	17.8	1	1
03/18/06	7:01 a	-24.3	-24.3	-24.4	---	---	23.5	E	0.39	27.0	-40.3	---	---	723.3	0.030	0.000	17.8	1	1
03/18/06	7:02 a	-24.4	-24.3	-24.4	---	---	24.3	E	0.41	27.0	-40.7	---	---	723.3	0.030	0.000	17.7	1	1
03/18/06	7:03 a	-24.4	-24.4	-24.4	---	---	27.8	E	0.46	30.4	-41.5	---	---	723.3	0.030	0.000	17.7	1	1
03/18/06	7:04 a	-24.4	-24.4	-24.4	---	---	26.1	E	0.43	30.4	-41.1	---	---	723.3	0.030	0.000	17.7	1	1
03/18/06	7:05 a	-24.4	-24.3	-24.4	---	---	22.6	E	0.38	26.1	-40.2	---	---	723.5	0.030	0.000	17.7	1	1
03/18/06	7:06 a	-24.4	-24.4	-24.4	---	---	23.5	E	0.39	27.0	-40.4	---	---	723.3	0.030	0.000	17.7	1	1
03/18/06	7:07 a	-24.4	-24.3	-24.4	---	---	27.0	E	0.45	30.4	-41.3	---	---	723.4	0.030	0.000	17.7	1	1
03/18/06	7:08 a	-24.4	-24.3	-24.4	---	---	24.3	E	0.41	28.7	-40.7	---	---	723.5	0.030	0.000	17.7	1	1
03/18/06	7:09 a	-24.4	-24.3	-24.4	---	---	22.6	E	0.38	26.1	-40.2	---	---	723.4	0.030	0.000	17.7	1	1
03/18/06	7:10 a	-24.4	-24.3	-24.4	---	---	23.5	E	0.39	28.7	-40.4	---	---	723.3	0.030	0.000	17.7	1	1
03/18/06	7:11 a	-24.4	-24.3	-24.4	---	---	23.5	E	0.39	27.8	-40.4	---	---	723.4	0.030	0.000	17.8	1	1
03/18/06	7:12 a	-24.4	-24.3	-24.4	---	---	23.5	E	0.39	27.0	-40.4	---	---	723.5	0.030	0.000	17.8	1	1
03/18/06	7:13 a	-24.4	-24.4	-24.4	---	---	22.6	E	0.38	27.0	-40.2	---	---	723.2	0.030	0.000	17.8	1	1
03/18/06	7:14 a	-24.3	-24.3	-24.3	---	---	29.6	E	0.49	33.9	-41.8	---	---	723.1	0.030	0.000	17.8	1	1
03/18/06	7:15 a	-24.4	-24.3	-24.4	---	---	26.1	E	0.43	30.4	-41.1	---	---	723.6	0.030	0.000	17.8	1	1
03/18/06	7:16 a	-24.4	-24.3	-24.4	---	---	20.0	ENE	0.33	22.6	-39.4	---	---	723.7	0.030	0.000	17.8	1	1
03/18/06	7:17 a	-24.4	-24.4	-24.4	---	---	17.4	E	0.29	22.6	-38.6	---	---	723.5	0.030	0.000	17.9	1	1
03/18/06	7:18 a	-24.4	-24.3	-24.4	---	---	21.7	E	0.36	25.2	-39.9	---	---	723.3	0.030	0.000	17.9	1	1
03/18/06	7:19 a	-24.3	-24.3	-24.4	---	---	23.5	E	0.39	25.2	-40.3	---	---	723.3	0.030	0.000	17.9	1	1
03/18/06	7:20 a	-24.4	-24.3	-24.4	---	---	26.1	E	0.43	28.7	-41.1	---	---	723.4	0.030	0.000	17.9	1	1
03/18/06	7:21 a	-24.3	-24.3	-24.4	---	---	21.7	E	0.36	25.2	-39.9	---	---	723.6	0.030	0.000	18.0	1	1
03/18/06	7:22 a	-24.4	-24.3	-24.4	---	---	22.6	E	0.38	28.7	-40.2	---	---	723.4	0.030	0.000	18.0	1	1
03/18/06	7:23 a	-24.4	-24.3	-24.4	---	---	27.0	E	0.45	28.7	-41.3	---	---	723.5	0.030	0.000	18.0	1	1
03/18/06	7:24 a	-24.3	-24.3	-24.4	---	---	23.5	ENE	0.39	27.0	-40.3	---	---	723.7	0.030	0.000	18.0	1	1
03/18/06	7:25 a	-24.3	-24.3	-24.4	---	---	16.5	E	0.28	20.0	-38.2	---	---	723.7	0.030	0.000	18.0	1	1
03/18/06	7:26 a	-24.3	-24.3	-24.3	---	---	20.0	E	0.33	27.0	-39.4	---	---	723.1	0.030	0.000	18.0	1	1
03/18/06	7:27 a	-24.3	-24.3	-24.4	---	---	30.4	E	0.51	33.0	-41.9	---	---	723.3	0.030	0.000	17.9	1	1
03/18/06	7:28 a	-24.3	-24.3	-24.4	---	---	26.1	ENE	0.43	31.3	-41.0	---	---	723.7	0.030	0.000	17.9	1	1
03/18/06	7:29 a	-24.3	-24.3	-24.4	---	---	22.6	ENE	0.38	24.3	-40.1	---	---	723.7	0.030	0.000	17.9	1	1
03/18/06	7:30 a	-24.3	-24.3	-24.3	---	---	20.9	ENE	0.35	23.5	-39.6	---	---	723.5	0.030	0.000	17.9	1	1
03/18/06	7:31 a	-24.3	-24.3	-24.3	---	---	22.6	E	0.38	25.2	-40.1	---	---	723.3	0.030	0.000	17.9	1	1
03/18/06	7:32 a	-24.3	-24.3	-24.3	---	---	27.0	E	0.45	31.3	-41.2	---	---	723.3	0.030	0.000	17.9	1	1
03/18/06	7:33 a	-24.3	-24.3	-24.3	---	---	25.2	E	0.42	27.8	-40.8	---	---	723.5	0.030	0.000	17.9	1	1
03/18/06	7:34 a	-24.3	-24.3	-24.3	---	---	23.5	E	0.39	27.0	-40.3	---	---	723.7	0.030	0.000	17.8	1	1
03/18/06	7:35 a	-24.3	-24.3	-24.3	---	---	20.9	ENE	0.35	23.5	-39.6	---	---	723.6	0.030	0.000	17.8	1	1
03/18/06	7:36 a	-24.3	-24.3	-24.4	---	---	20.9	E	0.35	26.1	-39.6	---	---	723.5	0.030	0.000	17.8	1	1
03/18/06	7:37 a	-24.3	-24.3	-24.3	---	---	25.2	E	0.42	27.8	-40.8	---	---	723.4	0.030	0.000	17.8	1	1
03/18/06	7:38 a	-24.3	-24.3	-24.3	---	---	24.3	E	0.41	27.0	-40.6	---	---	723.4	0.030	0.000	17.8	1	1
03/18/06	7:39 a	-24.3	-24.3	-24.3	---	---	24.3	E	0.41	27.8	-40.5	---	---	723.4	0.030	0.000	17.8	1	1
03/18/06	7:40 a	-24.3	-24.3	-24.3	---	---	27.0	E	0.45	30.4	-41.1	---	---	723.4	0.030	0.000	17.8	1	1
03/18/06	7:41 a	-24.3	-24.3	-24.3	---	---	25.2	E	0.42	28.7	-40.7	---	---	723.3	0.030	0.000	17.8	1	1
03/18/06	7:42 a	-24.3	-24.3	-24.3	---	---	26.1	E	0.43	29.6	-40.9	---	---	723.3	0.030	0.000	17.8	1	1
03/18/06	7:43 a	-24.3	-24.2	-24.3	---	---	26.1	E	0.43	29.6	-40.9	---	---	723.4	0.030	0.000	17.8	1	1
03/18/06	7:44 a	-24.2	-24.2	-24.3	---	---	25.2	ENE	0.42	28.7	-40.6	---	---	723.4	0.030	0.000	17.8	1	1
03/18/06	7:45 a	-24.2	-24.2	-24.3	---	---	25.2	ENE	0.42	29.6	-40.6	---	---	723.3	0.030	0.000	17.8	1	1
03/18/06	7:46 a	-24.2	-24.2	-24.2	---	---	29.6	ENE	0.49	32.2	-41.6	---	---	723.4	0.030	0.000	17.7	1	1
03/18/06	7:47 a	-24.2	-24.2	-24.2	---	---	25.2	ENE	0.42	28.7	-40.6	---	---	723.6	0.030	0.000	17.7	1	1
03/18/06	7:48 a	-24.2	-24.2	-24.2	---	---	24.3	E	0.41	26.1	-40.3	---	---	723.4	0.030	0.000	17.7	1	1
03/18/06	7:49 a	-24.2	-24.2	-24.2	---	---	25.2	E	0.42	32.2	-40.6	---	---	723.2	0.030	0.000	17.8	1	1
03/18/06	7:50 a	-24.2	-24.2	-24.2	---	---	27.0	E	0.45	30.4	-41.0	---	---	723.5	0.030	0.000	17.8	1	1
03/18/06	7:51 a	-24.2	-24.1	-24.2	---	---	24.3	E	0.41	27.0	-40.3	---	---	723.6	0.030	0.000	17.8	1	1
03/18/06	7:52 a	-24.1	-24.1	-24.1	---	---	22.6	E	0.38	25.2	-39.8	---	---	723.4	0.029	0.000	17.8	1	1
03/18/06	7:53 a	-24.1	-24.1	-24.1	---	---	24.3	E	0.41	28.7	-40.3	---	---	723.4	0.029	0.000	17.8	1	1
03/18/06	7:54 a	-24.1	-24.1	-24.1	---	---	25.2	E	0.42	29.6	-40.5	---	---	723.5	0.029	0.000	17.9	1	1
03/18/06	7:55 a	-24.1	-24.1	-24.1	---	---	22.6	E	0.38	24.3	-39.7	---	---	723.6	0.029	0.000	17.9	1	1
03/18/06	7:56 a	-24.1	-24.1	-24.1	---	---	23.5	E	0.39	26.1	-39.9	---	---	723.3	0.029	0.000	17.9	1	1
03/18/06	7:57 a	-24.1	-24.1	-24.1	---	---	25.2	E	0.42	31.3	-40.4	---	---	723.3	0.029	0.000	17.9	1	1
03/18/06	7:58 a	-24.0	-24.0	-24.1	---	---	25.2	E	0.42	27.8	-40.3	---	---	723.5	0.029	0.000	17.9	1	1
03/18/06	7:59 a	-24.0	-24.0	-24.1	---	---	22.6	ENE	0.38	26.1	-39.7	---	---	723.5	0.029	0.000	18.0	1	1
03/18/06	8:00 a	-24.0	-24.0	-24.1	---	---	22.6	E	0.38	27.0	-39.7	---	---	723.3	0.029	0.000	18.0	1	1
03/18/06	8:01 a	-24.0	-23.9	-24.0	---	---	24.3	E	0.41	27.8	-40.1	---	---	723.4	0.029	0.000	18.1	1	1
03/18/06	8:02 a	-23.9	-23.9	-24.0	---	---	24.3	E	0.41	27.8	-40.1	---	---	723.3	0.029	0.000	18.1	1	1
03/18/06	8:03 a	-23.9	-23.9	-23.9	---	---	25.2	E	0.42	28.7	-40.3	---	---	723.3	0.029	0.000	18.1	1	1
03/18/06	8:04 a	-23.9	-23.9	-23.9	---	---	26.1	E	0.43	28.7	-40.4	---	---	723.5	0.029	0.000	18.1	1	1
03/18/06	8:05 a	-23.9	-23.9	-23.9	---	---	24.3	E	0.41	27.0	-40.1	---	---	723.5	0.029	0.000	18.1	1	1
03/18/06	8:06 a	-23.9	-23.9	-23.9	---	---	23.5	E	0.39	27.8	-39.7	---	---	723.4	0.029	0.000	18.1	1	1
03/18/06	8:07 a	-23.9	-23.9	-23.9	---	---	24.3	E	0.41	27.0	-39.9	---	---	723.3	0.029	0.000	18.1	1	1
03/18/06	8:08 a	-23.9	-23.9	-23.9	---	---	24.3	E	0.41	27.0	-39.9	---	---	723.3	0.029	0.000	18.0	1	1
03/18/06	8:09 a	-23.9	-23.8	-23.9	---	---	22.6	E	0.38	26.1	-39.5	---	---	723.5	0.029	0.000	18.0	1	1
03/18/06	8:10 a	-23.8	-23.8	-23.9	---	---	23.5	E	0.39	27.8	-39.7	---	---	723.4	0.029	0.000	18.0	1	1
03/18/06	8:11 a	-23.8	-23.8	-23.8	---	---	22.6	E	0.38	26.1	-39.4	---	---	723.4	0.029	0.000	18.0	1	1
03/18/06	8:12 a	-23.8	-23.8	-23.8	---	---	21.7	E	0.36	24.3	-39.2	---	---	723.3	0.029	0.000	18.0	1	1
03/18/06	8:13 a	-23.8	-23.8	-23.8	---	---	21.7	E	0.36	25.2	-39.2	---	---	723.4	0.029	0.000	17.9	1	1
03/18/06	8:14 a	-23.8	-23.8	-23.8	---	---	23.5	E	0.39	27.8	-39.7	---	---	723.4	0.029	0.000	17.9	1	1
03/18/06	8:15 a	-23.8	-23.8	-23.8	---	---	21.7	E	0.36	23.5	-39.1	---	---	723.4	0.029	0.000	17.9	1	1
03/18/06	8:16 a	-23.8	-23.8	-23.8	---	---	20.9	E	0.35	25.2	-38.9	---	---	723.3	0.029	0.000	17.9	1	1
03/18/06	8:17 a	-23.8	-23.8	-23.8	---	---	24.3	E	0.41	27.8	-39.8	---	---	723.5	0.029	0.000	17.9	1	1
03/18/06	8:18 a	-23.8	-23.8	-23.8	---	---	24.3	E	0.41	27.8	-39.8	---	---	723.5	0.029	0.000	17.9	1	1
03/18/06	8:19 a	-23.8	-23.8	-23.8	---	---	20.9	E	0.35	23.5	-38.9	---	---	723.6	0.029	0.000	17.9	1	1
03/18/06	8:20 a	-23.8	-23.8	-23.8	---	---	19.1	E	0.32	21.7	-38.4	---	---	723.6	0.029	0.000	17.8	1	1
03/18/06	8:21 a	-23.8	-23.7	-23.8	---	---	21.7	E	0.36	27.0	-39.1	---	---	723.5	0.029	0.000	17.8	1	1
03/18/06	8:22 a	-23.8	-23.7	-23.8	---	---	22.6	E	0.38	26.1	-39.4	---	---	723.4	0.029	0.000	17.8	1	1
03/18/06	8:23 a	-23.7	-23.7	-23.8	---	---	22.6	E	0.38	26.1	-39.3	---	---	723.6	0.029	0.000	17.8	1	1
03/18/06	8:24 a	-23.8	-23.7	-23.8	---	---	21.7	E	0.36	24.3	-39.1	---	---	723.6	0.029	0.000	17.8	1	1
03/18/06	8:25 a	-23.7	-23.7	-23.8	---	---	20.0	E	0.33	23.5	-38.6	---	---	723.5	0.029	0.000	17.8	1	1
03/18/06	8:26 a	-23.7	-23.7	-23.8	---	---	21.7	E	0.36	25.2	-39.1	---	---	723.3	0.029	0.000	17.8	1	1
03/18/06	8:27 a	-23.7	-23.7	-23.7	---	---	23.5	E	0.39	27.0	-39.5	---	---	723.3	0.029	0.000	17.8	1	1
03/18/06	8:28 a	-23.7	-23.7	-23.7	---	---	22.6	E	0.38	24.3	-39.3	---	---	723.5	0.029	0.000	17.8	1	1
03/18/06	8:29 a	-23.7	-23.7	-23.7	---	---	20.0	E	0.33	24.3	-38.6	---	---	723.6	0.029	0.000	17.8	1	1
03/18/06	8:30 a	-23.7	-23.7	-23.7	---	---	21.7	E	0.36	24.3	-39.1	---	---	723.4	0.029	0.000	17.8	1	1
03/18/06	8:31 a	-23.7	-23.7	-23.7	---	---	20.0	E	0.33	25.2	-38.6	---	---	723.4	0.029	0.000	17.8	1	1
03/18/06	8:32 a	-23.7	-23.7	-23.7	---	---	20.9	E	0.35	24.3	-38.8	---	---	723.4	0.029	0.000	17.8	1	1
03/18/06	8:33 a	-23.7	-23.7	-23.7	---	---	21.7	E	0.36	25.2	-39.1	---	---	723.4	0.029	0.000	17.8	1	1
03/18/06	8:34 a	-23.7	-23.7	-23.7	---	---	22.6	E	0.38	25.2	-39.3	---	---	723.5	0.029	0.000	17.8	1	1
03/18/06	8:35 a	-23.7	-23.7	-23.7	---	---	20.0	E	0.33	22.6	-38.6	---	---	723.8	0.029	0.000	17.8	1	1
03/18/06	8:36 a	-23.7	-23.7	-23.7	---	---	19.1	E	0.32	22.6	-38.3	---	---	723.6	0.029	0.000	17.8	1	1
03/18/06	8:37 a	-23.7	-23.7	-23.7	---	---	20.0	E	0.33	22.6	-38.5	---	---	723.6	0.029	0.000	17.9	1	1
03/18/06	8:38 a	-23.7	-23.7	-23.7	---	---	19.1	E	0.32	21.7	-38.3	---	---	723.6	0.029	0.000	17.9	1	1
03/18/06	8:39 a	-23.7	-23.7	-23.7	---	---	20.9	E	0.35	25.2	-38.7	---	---	723.5	0.029	0.000	17.9	1	1
03/18/06	8:40 a	-23.7	-23.7	-23.7	---	---	20.9	E	0.35	24.3	-38.7	---	---	723.6	0.029	0.000	17.9	1	1
03/18/06	8:41 a	-23.7	-23.7	-23.7	---	---	20.9	E	0.35	23.5	-38.7	---	---	723.8	0.029	0.000	17.9	1	1
03/18/06	8:42 a	-23.7	-23.7	-23.7	---	---	16.5	E	0.28	21.7	-37.4	---	---	723.7	0.029	0.000	18.0	1	1
03/18/06	8:43 a	-23.7	-23.7	-23.7	---	---	17.4	E	0.29	21.7	-37.7	---	---	723.6	0.029	0.000	18.0	1	1
03/18/06	8:44 a	-23.7	-23.7	-23.7	---	---	20.9	E	0.35	24.3	-38.7	---	---	723.5	0.029	0.000	18.0	1	1
03/18/06	8:45 a	-23.7	-23.7	-23.7	---	---	21.7	E	0.36	25.2	-39.0	---	---	723.5	0.029	0.000	18.1	1	1
03/18/06	8:46 a	-23.7	-23.7	-23.7	---	---	22.6	E	0.38	23.5	-39.2	---	---	723.6	0.029	0.000	18.1	1	1
03/18/06	8:47 a	-23.7	-23.6	-23.7	---	---	18.3	E	0.30	22.6	-37.9	---	---	723.6	0.029	0.000	18.1	1	1
03/18/06	8:48 a	-23.7	-23.6	-23.7	---	---	19.1	E	0.32	22.6	-38.2	---	---	723.7	0.029	0.000	18.1	1	1
03/18/06	8:49 a	-23.7	-23.6	-23.7	---	---	17.4	E	0.29	20.0	-37.7	---	---	723.7	0.029	0.000	18.1	1	1
03/18/06	8:50 a	-23.6	-23.6	-23.7	---	---	18.3	E	0.30	20.9	-37.9	---	---	723.6	0.029	0.000	18.1	1	1
03/18/06	8:51 a	-23.7	-23.7	-23.7	---	---	20.0	E	0.33	22.6	-38.5	---	---	723.6	0.029	0.000	18.1	1	1
03/18/06	8:52 a	-23.7	-23.7	-23.7	---	---	20.9	E	0.35	24.3	-38.7	---	---	723.7	0.029	0.000	18.1	1	1
03/18/06	8:53 a	-23.7	-23.7	-23.7	---	---	18.3	E	0.30	23.5	-37.9	---	---	723.8	0.029	0.000	18.1	1	1
03/18/06	8:54 a	-23.7	-23.6	-23.7	---	---	17.4	E	0.29	19.1	-37.7	---	---	723.8	0.029	0.000	18.1	1	1
03/18/06	8:55 a	-23.7	-23.7	-23.7	---	---	17.4	E	0.29	20.0	-37.7	---	---	723.7	0.029	0.000	18.1	1	1
03/18/06	8:56 a	-23.7	-23.6	-23.7	---	---	17.4	E	0.29	20.0	-37.7	---	---	723.7	0.029	0.000	18.1	1	1
03/18/06	8:57 a	-23.7	-23.7	-23.7	---	---	18.3	E	0.30	21.7	-37.9	---	---	723.7	0.029	0.000	18.0	1	1
03/18/06	8:58 a	-23.7	-23.7	-23.7	---	---	18.3	E	0.30	20.9	-37.9	---	---	723.7	0.029	0.000	18.0	1	1
03/18/06	8:59 a	-23.7	-23.6	-23.7	---	---	17.4	E	0.29	20.9	-37.7	---	---	723.8	0.029	0.000	18.0	1	1
03/18/06	9:00 a	-23.7	-23.7	-23.7	---	---	14.8	E	0.25	17.4	-36.7	---	---	723.8	0.029	0.000	18.0	1	1
03/18/06	9:01 a	-23.7	-23.7	-23.7	---	---	18.3	E	0.30	21.7	-37.9	---	---	723.7	0.029	0.000	17.9	1	1
03/18/06	9:02 a	-23.7	-23.7	-23.7	---	---	17.4	E	0.29	20.0	-37.7	---	---	723.8	0.029	0.000	17.9	1	1
03/18/06	9:03 a	-23.7	-23.7	-23.7	---	---	16.5	E	0.28	19.1	-37.4	---	---	723.7	0.029	0.000	17.9	1	1
03/18/06	9:04 a	-23.7	-23.7	-23.8	---	---	17.4	E	0.29	21.7	-37.7	---	---	723.6	0.029	0.000	17.9	1	1
03/18/06	9:05 a	-23.7	-23.7	-23.8	---	---	19.1	E	0.32	21.7	-38.3	---	---	723.7	0.029	0.000	17.9	1	1
03/18/06	9:06 a	-23.8	-23.7	-23.8	---	---	18.3	E	0.30	19.1	-38.1	---	---	723.8	0.029	0.000	17.9	1	1
03/18/06	9:07 a	-23.8	-23.8	-23.8	---	---	18.3	E	0.30	20.9	-38.1	---	---	723.8	0.029	0.000	17.9	1	1
03/18/06	9:08 a	-23.8	-23.8	-23.8	---	---	18.3	E	0.30	21.7	-38.1	---	---	723.9	0.029	0.000	17.9	1	1
03/18/06	9:09 a	-23.8	-23.8	-23.8	---	---	18.3	E	0.30	20.9	-38.2	---	---	723.9	0.029	0.000	17.8	1	1
03/18/06	9:10 a	-23.8	-23.8	-23.8	---	---	16.5	E	0.28	20.0	-37.6	---	---	723.8	0.029	0.000	17.8	1	1
03/18/06	9:11 a	-23.9	-23.8	-23.9	---	---	18.3	E	0.30	20.0	-38.2	---	---	723.8	0.029	0.000	17.8	1	1
03/18/06	9:12 a	-23.9	-23.8	-23.9	---	---	19.1	E	0.32	22.6	-38.5	---	---	723.9	0.029	0.000	17.8	1	1
03/18/06	9:13 a	-23.9	-23.9	-23.9	---	---	20.9	E	0.35	23.5	-39.1	---	---	723.8	0.029	0.000	17.8	1	1
03/18/06	9:14 a	-23.9	-23.9	-23.9	---	---	17.4	E	0.29	20.0	-38.1	---	---	723.8	0.029	0.000	17.8	1	1
03/18/06	9:15 a	-23.9	-23.9	-23.9	---	---	16.5	E	0.28	20.9	-37.7	---	---	723.8	0.029	0.000	17.8	1	1
03/18/06	9:16 a	-23.9	-23.9	-24.0	---	---	16.5	E	0.28	20.0	-37.7	---	---	723.8	0.029	0.000	17.8	1	1
03/18/06	9:17 a	-23.9	-23.9	-24.0	---	---	18.3	E	0.30	22.6	-38.3	---	---	723.7	0.029	0.000	17.8	1	1
03/18/06	9:18 a	-24.0	-24.0	-24.1	---	---	17.4	E	0.29	20.0	-38.1	---	---	724.0	0.029	0.000	17.8	1	1
03/18/06	9:19 a	-24.0	-24.0	-24.0	---	---	16.5	E	0.28	20.0	-37.8	---	---	723.9	0.029	0.000	17.8	1	1
03/18/06	9:20 a	-24.1	-24.0	-24.1	---	---	17.4	E	0.29	19.1	-38.2	---	---	723.9	0.029	0.000	17.8	1	1
03/18/06	9:21 a	-24.1	-24.1	-24.1	---	---	18.3	E	0.30	21.7	-38.4	---	---	724.0	0.029	0.000	17.8	1	1
03/18/06	9:22 a	-24.1	-24.1	-24.1	---	---	16.5	E	0.28	20.9	-37.9	---	---	724.0	0.029	0.000	17.9	1	1
03/18/06	9:23 a	-24.1	-24.1	-24.1	---	---	17.4	E	0.29	22.6	-38.3	---	---	723.9	0.029	0.000	17.9	1	1
03/18/06	9:24 a	-24.1	-24.1	-24.1	---	---	17.4	E	0.29	21.7	-38.2	---	---	723.9	0.029	0.000	17.9	1	1
03/18/06	9:25 a	-24.1	-24.1	-24.1	---	---	15.7	E	0.26	20.0	-37.7	---	---	723.9	0.029	0.000	17.9	1	1
03/18/06	9:26 a	-24.1	-24.1	-24.1	---	---	19.1	E	0.32	20.9	-38.8	---	---	724.0	0.029	0.000	18.0	1	1
03/18/06	9:27 a	-24.2	-24.1	-24.2	---	---	20.0	E	0.33	23.5	-39.2	---	---	723.9	0.030	0.000	18.0	1	1
03/18/06	9:28 a	-24.2	-24.2	-24.2	---	---	20.0	ENE	0.33	22.6	-39.2	---	---	723.9	0.030	0.000	18.0	1	1
03/18/06	9:29 a	-24.2	-24.2	-24.2	---	---	18.3	E	0.30	20.0	-38.6	---	---	723.9	0.030	0.000	18.1	1	1
03/18/06	9:30 a	-24.2	-24.2	-24.2	---	---	18.3	E	0.30	20.0	-38.7	---	---	723.9	0.030	0.000	18.1	1	1
03/18/06	9:31 a	-24.2	-24.2	-24.3	---	---	19.1	E	0.32	21.7	-38.9	---	---	723.8	0.030	0.000	18.1	1	1
03/18/06	9:32 a	-24.2	-24.2	-24.3	---	---	19.1	E	0.32	20.9	-38.9	---	---	723.8	0.030	0.000	18.1	1	1
03/18/06	9:33 a	-24.3	-24.3	-24.3	---	---	19.1	E	0.32	21.7	-39.1	---	---	723.8	0.030	0.000	18.1	1	1
03/18/06	9:34 a	-24.3	-24.3	-24.3	---	---	19.1	E	0.32	22.6	-39.1	---	---	724.0	0.030	0.000	18.0	1	1
03/18/06	9:35 a	-24.3	-24.3	-24.3	---	---	17.4	E	0.29	20.9	-38.6	---	---	723.9	0.030	0.000	18.0	1	1
03/18/06	9:36 a	-24.3	-24.3	-24.3	---	---	17.4	E	0.29	21.7	-38.6	---	---	724.0	0.030	0.000	18.0	1	1
03/18/06	9:37 a	-24.3	-24.3	-24.4	---	---	20.0	ENE	0.33	22.6	-39.4	---	---	724.0	0.030	0.000	18.0	1	1
03/18/06	9:38 a	-24.3	-24.3	-24.4	---	---	21.7	ENE	0.36	26.1	-39.9	---	---	723.8	0.030	0.000	17.9	1	1
03/18/06	9:39 a	-24.4	-24.3	-24.4	---	---	20.9	E	0.35	23.5	-39.7	---	---	723.8	0.030	0.000	17.9	1	1
03/18/06	9:40 a	-24.4	-24.4	-24.4	---	---	18.3	E	0.30	21.7	-38.9	---	---	723.9	0.030	0.000	17.9	1	1
03/18/06	9:41 a	-24.4	-24.4	-24.4	---	---	15.7	E	0.26	19.1	-38.0	---	---	723.8	0.030	0.000	17.9	1	1
03/18/06	9:42 a	-24.4	-24.4	-24.4	---	---	18.3	E	0.30	21.7	-38.9	---	---	724.0	0.030	0.000	17.9	1	1
03/18/06	9:43 a	-24.4	-24.4	-24.4	---	---	17.4	E	0.29	20.0	-38.7	---	---	723.9	0.030	0.000	17.9	1	1
03/18/06	9:44 a	-24.4	-24.4	-24.4	---	---	17.4	E	0.29	20.9	-38.7	---	---	723.9	0.030	0.000	17.9	1	1
03/18/06	9:45 a	-24.4	-24.4	-24.5	---	---	17.4	E	0.29	20.0	-38.7	---	---	723.9	0.030	0.000	17.9	1	1
03/18/06	9:46 a	-24.5	-24.5	-24.5	---	---	16.5	E	0.28	20.9	-38.4	---	---	723.9	0.030	0.000	17.9	1	1
03/18/06	9:47 a	-24.5	-24.5	-24.6	---	---	17.4	E	0.29	20.0	-38.8	---	---	723.9	0.030	0.000	17.9	1	1
03/18/06	9:48 a	-24.5	-24.5	-24.6	---	---	17.4	E	0.29	19.1	-38.8	---	---	723.9	0.030	0.000	17.9	1	1
03/18/06	9:49 a	-24.6	-24.5	-24.6	---	---	16.5	E	0.28	19.1	-38.6	---	---	724.0	0.030	0.000	17.9	1	1
03/18/06	9:50 a	-24.6	-24.6	-24.6	---	---	14.8	E	0.25	18.3	-37.9	---	---	723.9	0.030	0.000	17.8	1	1
03/18/06	9:51 a	-24.6	-24.6	-24.6	---	---	19.1	E	0.32	23.5	-39.4	---	---	723.7	0.030	0.000	17.8	1	1
03/18/06	9:52 a	-24.6	-24.6	-24.6	---	---	21.7	E	0.36	23.5	-40.2	---	---	723.9	0.030	0.000	17.8	1	1
03/18/06	9:53 a	-24.6	-24.6	-24.6	---	---	16.5	E	0.28	21.7	-38.6	---	---	723.9	0.030	0.000	17.8	1	1
03/18/06	9:54 a	-24.6	-24.6	-24.7	---	---	15.7	E	0.26	18.3	-38.3	---	---	724.0	0.030	0.000	17.8	1	1
03/18/06	9:55 a	-24.6	-24.6	-24.7	---	---	13.9	E	0.23	19.1	-37.6	---	---	723.8	0.030	0.000	17.8	1	1
03/18/06	9:56 a	-24.6	-24.6	-24.7	---	---	17.4	E	0.29	20.9	-38.9	---	---	723.8	0.030	0.000	17.8	1	1
03/18/06	9:57 a	-24.7	-24.6	-24.7	---	---	19.1	E	0.32	23.5	-39.6	---	---	723.8	0.030	0.000	17.8	1	1
03/18/06	9:58 a	-24.7	-24.7	-24.7	---	---	21.7	E	0.36	25.2	-40.3	---	---	723.8	0.030	0.000	17.8	1	1
03/18/06	9:59 a	-24.7	-24.6	-24.7	---	---	20.9	ENE	0.35	22.6	-40.1	---	---	723.9	0.030	0.000	17.8	1	1
03/18/06	10:00 a	-24.7	-24.7	-24.7	---	---	20.0	E	0.33	21.7	-39.8	---	---	723.8	0.030	0.000	17.8	1	1
03/18/06	10:01 a	-24.7	-24.7	-24.7	---	---	18.3	E	0.30	22.6	-39.3	---	---	724.0	0.030	0.000	17.9	1	1
03/18/06	10:02 a	-24.7	-24.7	-24.7	---	---	15.7	E	0.26	18.3	-38.4	---	---	724.0	0.030	0.000	17.9	1	1
03/18/06	10:03 a	-24.7	-24.7	-24.7	---	---	16.5	E	0.28	20.0	-38.8	---	---	724.0	0.030	0.000	17.9	1	1
03/18/06	10:04 a	-24.7	-24.7	-24.7	---	---	16.5	E	0.28	20.0	-38.8	---	---	723.8	0.030	0.000	17.9	1	1
03/18/06	10:05 a	-24.7	-24.7	-24.7	---	---	20.0	E	0.33	24.3	-39.9	---	---	723.8	0.030	0.000	18.0	1	1
03/18/06	10:06 a	-24.7	-24.7	-24.7	---	---	19.1	E	0.32	26.1	-39.6	---	---	723.8	0.030	0.000	18.0	1	1
03/18/06	10:07 a	-24.7	-24.7	-24.8	---	---	16.5	E	0.28	20.0	-38.8	---	---	723.9	0.030	0.000	18.0	1	1
03/18/06	10:08 a	-24.8	-24.7	-24.8	---	---	18.3	E	0.30	20.0	-39.4	---	---	723.9	0.030	0.000	18.0	1	1
03/18/06	10:09 a	-24.8	-24.8	-24.8	---	---	17.4	E	0.29	22.6	-39.1	---	---	724.0	0.030	0.000	18.0	1	1
03/18/06	10:10 a	-24.8	-24.8	-24.8	---	---	19.1	E	0.32	21.7	-39.7	---	---	723.8	0.030	0.000	18.0	1	1
03/18/06	10:11 a	-24.8	-24.8	-24.8	---	---	19.1	E	0.32	21.7	-39.7	---	---	723.9	0.030	0.000	18.0	1	1
03/18/06	10:12 a	-24.8	-24.8	-24.8	---	---	17.4	E	0.29	21.7	-39.1	---	---	724.0	0.030	0.000	18.0	1	1
03/18/06	10:13 a	-24.8	-24.8	-24.8	---	---	17.4	E	0.29	21.7	-39.1	---	---	723.8	0.030	0.000	18.0	1	1
03/18/06	10:14 a	-24.8	-24.8	-24.8	---	---	18.3	E	0.30	22.6	-39.4	---	---	723.9	0.030	0.000	18.0	1	1
03/18/06	10:15 a	-24.8	-24.8	-24.8	---	---	19.1	E	0.32	22.6	-39.7	---	---	723.8	0.030	0.000	18.0	1	1
03/18/06	10:16 a	-24.8	-24.8	-24.9	---	---	17.4	E	0.29	20.9	-39.2	---	---	723.8	0.030	0.000	17.9	1	1
03/18/06	10:17 a	-24.8	-24.8	-24.8	---	---	18.3	E	0.30	21.7	-39.5	---	---	723.8	0.030	0.000	17.9	1	1
03/18/06	10:18 a	-24.8	-24.8	-24.8	---	---	18.3	E	0.30	20.9	-39.5	---	---	723.8	0.030	0.000	17.9	1	1
03/18/06	10:19 a	-24.8	-24.8	-24.8	---	---	19.1	E	0.32	21.7	-39.8	---	---	723.8	0.030	0.000	17.9	1	1
03/18/06	10:20 a	-24.9	-24.8	-24.9	---	---	17.4	E	0.29	20.9	-39.3	---	---	723.8	0.030	0.000	17.9	1	1
03/18/06	10:21 a	-24.9	-24.8	-24.9	---	---	17.4	E	0.29	20.0	-39.3	---	---	724.0	0.030	0.000	17.9	1	1
03/18/06	10:22 a	-24.8	-24.8	-24.9	---	---	17.4	E	0.29	20.9	-39.2	---	---	723.9	0.030	0.000	17.9	1	1
03/18/06	10:23 a	-24.8	-24.8	-24.9	---	---	19.1	E	0.32	23.5	-39.8	---	---	723.9	0.030	0.000	17.9	1	1
03/18/06	10:24 a	-24.9	-24.8	-24.9	---	---	19.1	E	0.32	21.7	-39.8	---	---	723.8	0.030	0.000	17.9	1	1
03/18/06	10:25 a	-24.9	-24.8	-24.9	---	---	16.5	E	0.28	19.1	-38.9	---	---	723.8	0.030	0.000	17.9	1	1
03/18/06	10:26 a	-24.9	-24.8	-24.9	---	---	17.4	E	0.29	20.9	-39.3	---	---	723.8	0.030	0.000	17.9	1	1
03/18/06	10:27 a	-24.9	-24.8	-24.9	---	---	17.4	E	0.29	19.1	-39.3	---	---	723.8	0.030	0.000	17.9	1	1
03/18/06	10:28 a	-24.9	-24.8	-24.9	---	---	20.0	E	0.33	23.5	-40.1	---	---	724.0	0.030	0.000	17.8	1	1
03/18/06	10:29 a	-24.9	-24.9	-24.9	---	---	18.3	E	0.30	21.7	-39.6	---	---	723.9	0.030	0.000	17.8	1	1
03/18/06	10:30 a	-24.9	-24.8	-24.9	---	---	18.3	E	0.30	21.7	-39.6	---	---	723.8	0.030	0.000	17.8	1	1
03/18/06	10:31 a	-24.9	-24.9	-24.9	---	---	18.3	E	0.30	21.7	-39.6	---	---	723.9	0.030	0.000	17.8	1	1
03/18/06	10:32 a	-24.9	-24.9	-24.9	---	---	20.9	E	0.35	24.3	-40.4	---	---	723.9	0.030	0.000	17.8	1	1
03/18/06	10:33 a	-24.9	-24.9	-24.9	---	---	17.4	E	0.29	21.7	-39.3	---	---	723.9	0.030	0.000	17.8	1	1
03/18/06	10:34 a	-24.9	-24.9	-24.9	---	---	16.5	E	0.28	20.0	-39.1	---	---	723.9	0.030	0.000	17.8	1	1
03/18/06	10:35 a	-24.9	-24.9	-24.9	---	---	18.3	E	0.30	22.6	-39.6	---	---	723.8	0.030	0.000	17.8	1	1
03/18/06	10:36 a	-24.9	-24.9	-24.9	---	---	21.7	ENE	0.36	24.3	-40.6	---	---	723.9	0.030	0.000	17.8	1	1
03/18/06	10:37 a	-24.9	-24.9	-24.9	---	---	20.9	ENE	0.35	23.5	-40.4	---	---	723.9	0.030	0.000	17.8	1	1
03/18/06	10:38 a	-24.9	-24.9	-25.0	---	---	20.0	E	0.33	21.7	-40.2	---	---	723.9	0.030	0.000	17.8	1	1
03/18/06	10:39 a	-24.9	-24.9	-24.9	---	---	17.4	E	0.29	20.9	-39.3	---	---	723.9	0.030	0.000	17.8	1	1
03/18/06	10:40 a	-24.9	-24.9	-24.9	---	---	20.9	E	0.35	23.5	-40.4	---	---	723.8	0.030	0.000	17.8	1	1
03/18/06	10:41 a	-24.9	-24.9	-24.9	---	---	20.9	ENE	0.35	23.5	-40.4	---	---	723.9	0.030	0.000	17.8	1	1
03/18/06	10:42 a	-24.9	-24.9	-24.9	---	---	22.6	ENE	0.38	25.2	-40.9	---	---	723.9	0.030	0.000	17.9	1	1
03/18/06	10:43 a	-24.9	-24.9	-24.9	---	---	21.7	ENE	0.36	25.2	-40.7	---	---	723.8	0.030	0.000	17.9	1	1
03/18/06	10:44 a	-24.9	-24.9	-24.9	---	---	21.7	ENE	0.36	22.6	-40.7	---	---	723.9	0.030	0.000	17.9	1	1
03/18/06	10:45 a	-24.9	-24.9	-25.0	---	---	19.1	ENE	0.32	24.3	-39.9	---	---	723.8	0.030	0.000	17.9	1	1
03/18/06	10:46 a	-25.0	-24.9	-25.0	---	---	22.6	E	0.38	25.2	-41.0	---	---	723.9	0.030	0.000	18.0	1	1
03/18/06	10:47 a	-24.9	-24.9	-25.0	---	---	20.9	E	0.35	22.6	-40.4	---	---	723.8	0.030	0.000	18.0	1	1
03/18/06	10:48 a	-25.0	-24.9	-25.0	---	---	19.1	E	0.32	20.9	-40.0	---	---	723.9	0.030	0.000	18.0	1	1
03/18/06	10:49 a	-25.0	-25.0	-25.0	---	---	16.5	E	0.28	18.3	-39.1	---	---	724.1	0.030	0.000	18.0	1	1
03/18/06	10:50 a	-25.0	-24.9	-25.0	---	---	13.9	E	0.23	15.7	-38.1	---	---	724.0	0.030	0.000	18.0	1	1
03/18/06	10:51 a	-25.0	-24.9	-25.0	---	---	15.7	E	0.26	19.1	-38.8	---	---	723.9	0.030	0.000	18.1	1	1
03/18/06	10:52 a	-24.9	-24.9	-25.0	---	---	16.5	E	0.28	20.0	-39.1	---	---	723.8	0.030	0.000	18.0	1	1
03/18/06	10:53 a	-25.0	-24.9	-25.0	---	---	18.3	E	0.30	22.6	-39.7	---	---	723.8	0.030	0.000	18.0	1	1
03/18/06	10:54 a	-25.0	-25.0	-25.1	---	---	19.1	E	0.32	21.7	-40.0	---	---	723.9	0.030	0.000	18.0	1	1
03/18/06	10:55 a	-25.0	-25.0	-25.1	---	---	19.1	E	0.32	21.7	-40.0	---	---	723.9	0.030	0.000	18.0	1	1
03/18/06	10:56 a	-25.0	-25.0	-25.1	---	---	19.1	E	0.32	21.7	-40.0	---	---	723.9	0.030	0.000	17.9	1	1
03/18/06	10:57 a	-25.0	-25.0	-25.1	---	---	16.5	E	0.28	21.7	-39.1	---	---	724.0	0.030	0.000	17.9	1	1
03/18/06	10:58 a	-25.0	-25.0	-25.1	---	---	17.4	E	0.29	20.9	-39.4	---	---	724.0	0.030	0.000	17.9	1	1
03/18/06	10:59 a	-25.0	-25.0	-25.1	---	---	18.3	E	0.30	23.5	-39.7	---	---	723.8	0.030	0.000	17.9	1	1
03/18/06	11:00 a	-25.1	-25.1	-25.1	---	---	20.9	E	0.35	23.5	-40.6	---	---	723.9	0.030	0.000	17.9	1	1
03/18/06	11:01 a	-25.1	-25.0	-25.1	---	---	18.3	E	0.30	21.7	-39.8	---	---	723.9	0.030	0.000	17.9	1	1
03/18/06	11:02 a	-25.1	-25.1	-25.1	---	---	20.0	E	0.33	23.5	-40.3	---	---	723.9	0.030	0.000	17.9	1	1
03/18/06	11:03 a	-25.1	-25.0	-25.1	---	---	21.7	E	0.36	24.3	-40.8	---	---	723.9	0.030	0.000	17.9	1	1
03/18/06	11:04 a	-25.1	-25.1	-25.1	---	---	21.7	ENE	0.36	23.5	-40.8	---	---	724.0	0.030	0.000	17.9	1	1
03/18/06	11:05 a	-25.1	-25.1	-25.1	---	---	20.9	ENE	0.35	22.6	-40.7	---	---	723.9	0.030	0.000	17.9	1	1
03/18/06	11:06 a	-25.1	-25.1	-25.1	---	---	19.1	ENE	0.32	22.6	-40.1	---	---	723.9	0.030	0.000	17.9	1	1
03/18/06	11:07 a	-25.1	-25.1	-25.1	---	---	20.0	ENE	0.33	22.6	-40.4	---	---	723.9	0.030	0.000	17.9	1	1
03/18/06	11:08 a	-25.1	-25.1	-25.1	---	---	21.7	ENE	0.36	23.5	-40.9	---	---	724.0	0.030	0.000	17.9	1	1
03/18/06	11:09 a	-25.1	-25.1	-25.2	---	---	20.9	ENE	0.35	23.5	-40.7	---	---	724.0	0.030	0.000	17.9	1	1
03/18/06	11:10 a	-25.2	-25.1	-25.2	---	---	20.0	ENE	0.33	22.6	-40.5	---	---	723.9	0.030	0.000	17.8	1	1
03/18/06	11:11 a	-25.2	-25.1	-25.2	---	---	20.0	ENE	0.33	22.6	-40.5	---	---	723.9	0.030	0.000	17.8	1	1
03/18/06	11:12 a	-25.2	-25.2	-25.2	---	---	22.6	ENE	0.38	25.2	-41.2	---	---	723.9	0.030	0.000	17.8	1	1
03/18/06	11:13 a	-25.2	-25.2	-25.2	---	---	22.6	ENE	0.38	24.3	-41.2	---	---	724.0	0.030	0.000	17.8	1	1
03/18/06	11:14 a	-25.2	-25.2	-25.2	---	---	20.0	ENE	0.33	21.7	-40.5	---	---	724.0	0.030	0.000	17.8	1	1
03/18/06	11:15 a	-25.2	-25.1	-25.2	---	---	18.3	E	0.30	21.7	-39.9	---	---	724.0	0.030	0.000	17.8	1	1
03/18/06	11:16 a	-25.2	-25.2	-25.2	---	---	20.0	ENE	0.33	22.6	-40.5	---	---	723.9	0.030	0.000	17.8	1	1
03/18/06	11:17 a	-25.2	-25.2	-25.2	---	---	20.0	E	0.33	23.5	-40.5	---	---	723.8	0.030	0.000	17.8	1	1
03/18/06	11:18 a	-25.2	-25.2	-25.2	---	---	21.7	ENE	0.36	24.3	-41.1	---	---	723.8	0.030	0.000	17.8	1	1
03/18/06	11:19 a	-25.2	-25.2	-25.2	---	---	22.6	ENE	0.38	24.3	-41.2	---	---	724.0	0.030	0.000	17.8	1	1
03/18/06	11:20 a	-25.2	-25.2	-25.2	---	---	20.9	ENE	0.35	23.5	-40.7	---	---	724.0	0.030	0.000	17.8	1	1
03/18/06	11:21 a	-25.2	-25.2	-25.2	---	---	21.7	ENE	0.36	23.5	-41.0	---	---	724.0	0.030	0.000	17.8	1	1
03/18/06	11:22 a	-25.2	-25.2	-25.2	---	---	21.7	ENE	0.36	24.3	-41.0	---	---	723.9	0.030	0.000	17.8	1	1
03/18/06	11:23 a	-25.2	-25.2	-25.2	---	---	22.6	ENE	0.38	25.2	-41.3	---	---	723.9	0.030	0.000	17.9	1	1
03/18/06	11:24 a	-25.2	-25.2	-25.2	---	---	20.9	ENE	0.35	22.6	-40.7	---	---	724.0	0.030	0.000	17.9	1	1
03/18/06	11:25 a	-25.2	-25.2	-25.2	---	---	20.0	ENE	0.33	21.7	-40.5	---	---	724.0	0.030	0.000	17.9	1	1
03/18/06	11:26 a	-25.2	-25.2	-25.2	---	---	20.9	E	0.35	25.2	-40.7	---	---	723.9	0.030	0.000	17.9	1	1
03/18/06	11:27 a	-25.2	-25.2	-25.2	---	---	22.6	E	0.38	24.3	-41.2	---	---	724.0	0.030	0.000	18.0	1	1
03/18/06	11:28 a	-25.2	-25.2	-25.2	---	---	20.0	E	0.33	23.5	-40.5	---	---	724.0	0.030	0.000	18.0	1	1
03/18/06	11:29 a	-25.2	-25.1	-25.2	---	---	20.0	E	0.33	22.6	-40.5	---	---	723.9	0.030	0.000	18.1	1	1
03/18/06	11:30 a	-25.1	-25.1	-25.1	---	---	19.1	E	0.32	20.9	-40.1	---	---	723.9	0.030	0.000	18.1	1	1
03/18/06	11:31 a	-25.1	-25.1	-25.1	---	---	18.3	E	0.30	21.7	-39.8	---	---	723.9	0.030	0.000	18.1	1	1
03/18/06	11:32 a	-25.1	-25.1	-25.1	---	---	20.9	E	0.35	24.3	-40.7	---	---	723.9	0.030	0.000	18.1	1	1
03/18/06	11:33 a	-25.1	-25.1	-25.1	---	---	20.0	E	0.33	22.6	-40.3	---	---	724.0	0.030	0.000	18.1	1	1
03/18/06	11:34 a	-25.1	-25.0	-25.1	---	---	18.3	E	0.30	21.7	-39.8	---	---	724.0	0.030	0.000	18.1	1	1
03/18/06	11:35 a	-25.1	-25.0	-25.1	---	---	18.3	E	0.30	21.7	-39.8	---	---	723.9	0.030	0.000	18.1	1	1
03/18/06	11:36 a	-25.1	-25.0	-25.1	---	---	19.1	E	0.32	22.6	-40.1	---	---	723.9	0.030	0.000	18.1	1	1
03/18/06	11:37 a	-25.1	-25.0	-25.1	---	---	20.0	E	0.33	23.5	-40.3	---	---	723.9	0.030	0.000	18.1	1	1
03/18/06	11:38 a	-25.0	-25.0	-25.1	---	---	19.1	E	0.32	22.6	-40.0	---	---	723.8	0.030	0.000	18.1	1	1
03/18/06	11:39 a	-25.0	-25.0	-25.1	---	---	20.0	E	0.33	21.7	-40.3	---	---	723.9	0.030	0.000	18.1	1	1
03/18/06	11:40 a	-24.9	-24.9	-25.0	---	---	19.1	E	0.32	22.6	-39.9	---	---	723.8	0.030	0.000	18.1	1	1
03/18/06	11:41 a	-24.9	-24.9	-24.9	---	---	19.1	E	0.32	21.7	-39.9	---	---	723.8	0.030	0.000	18.1	1	1
03/18/06	11:42 a	-24.9	-24.9	-24.9	---	---	18.3	E	0.30	21.7	-39.6	---	---	724.0	0.030	0.000	18.0	1	1
03/18/06	11:43 a	-24.9	-24.9	-24.9	---	---	17.4	E	0.29	20.9	-39.3	---	---	724.0	0.030	0.000	18.0	1	1
03/18/06	11:44 a	-24.9	-24.9	-24.9	---	---	20.0	E	0.33	22.6	-40.1	---	---	723.9	0.030	0.000	18.0	1	1
03/18/06	11:45 a	-24.9	-24.9	-24.9	---	---	20.9	E	0.35	23.5	-40.4	---	---	723.9	0.030	0.000	18.0	1	1
03/18/06	11:46 a	-24.8	-24.8	-24.9	---	---	20.0	E	0.33	21.7	-40.1	---	---	723.8	0.030	0.000	18.0	1	1
03/18/06	11:47 a	-24.8	-24.8	-24.8	---	---	20.0	E	0.33	22.6	-40.1	---	---	723.9	0.030	0.000	18.0	1	1
03/18/06	11:48 a	-24.8	-24.8	-24.8	---	---	20.0	E	0.33	23.5	-40.1	---	---	723.8	0.030	0.000	17.9	1	1
03/18/06	11:49 a	-24.8	-24.8	-24.8	---	---	20.9	E	0.35	22.6	-40.2	---	---	723.9	0.030	0.000	17.9	1	1
03/18/06	11:50 a	-24.8	-24.7	-24.8	---	---	20.0	E	0.33	22.6	-39.9	---	---	723.9	0.030	0.000	17.9	1	1
03/18/06	11:51 a	-24.7	-24.7	-24.7	---	---	18.3	E	0.30	20.0	-39.3	---	---	723.9	0.030	0.000	17.9	1	1
03/18/06	11:52 a	-24.7	-24.7	-24.7	---	---	18.3	E	0.30	21.7	-39.3	---	---	724.0	0.030	0.000	17.9	1	1
03/18/06	11:53 a	-24.7	-24.7	-24.7	---	---	20.0	E	0.33	21.7	-39.8	---	---	723.9	0.030	0.000	17.9	1	1
03/18/06	11:54 a	-24.7	-24.6	-24.7	---	---	20.0	E	0.33	22.6	-39.8	---	---	723.9	0.030	0.000	17.9	1	1
03/18/06	11:55 a	-24.7	-24.6	-24.7	---	---	20.9	ENE	0.35	23.5	-40.1	---	---	723.9	0.030	0.000	17.9	1	1
03/18/06	11:56 a	-24.7	-24.6	-24.7	---	---	20.9	E	0.35	23.5	-40.1	---	---	723.8	0.030	0.000	17.9	1	1
03/18/06	11:57 a	-24.6	-24.6	-24.6	---	---	20.0	E	0.33	22.6	-39.7	---	---	723.8	0.030	0.000	17.9	1	1
03/18/06	11:58 a	-24.6	-24.6	-24.6	---	---	20.0	E	0.33	23.5	-39.7	---	---	723.9	0.030	0.000	17.9	1	1
03/18/06	11:59 a	-24.6	-24.6	-24.6	---	---	21.7	E	0.36	23.5	-40.2	---	---	723.8	0.030	0.000	17.9	1	1
03/18/06	12:00 p	-24.6	-24.6	-24.6	---	---	20.9	ENE	0.35	24.3	-39.9	---	---	723.9	0.030	0.000	17.9	1	1
03/18/06	12:01 p	-24.6	-24.6	-24.6	---	---	21.7	ENE	0.36	26.1	-40.2	---	---	724.0	0.030	0.000	17.9	1	1
03/18/06	12:02 p	-24.6	-24.6	-24.6	---	---	22.6	ENE	0.38	25.2	-40.4	---	---	723.8	0.030	0.000	17.9	1	1
03/18/06	12:03 p	-24.5	-24.5	-24.6	---	---	21.7	ENE	0.36	24.3	-40.1	---	---	723.8	0.030	0.000	17.9	1	1
03/18/06	12:04 p	-24.5	-24.5	-24.6	---	---	19.1	E	0.32	22.6	-39.3	---	---	723.9	0.030	0.000	17.9	1	1
03/18/06	12:05 p	-24.5	-24.4	-24.6	---	---	20.9	ENE	0.35	24.3	-39.8	---	---	723.8	0.030	0.000	17.9	1	1
03/18/06	12:06 p	-24.5	-24.5	-24.5	---	---	22.6	ENE	0.38	25.2	-40.3	---	---	723.8	0.030	0.000	17.8	1	1
03/18/06	12:07 p	-24.4	-24.4	-24.4	---	---	22.6	E	0.38	25.2	-40.3	---	---	723.8	0.030	0.000	17.9	1	1
03/18/06	12:08 p	-24.4	-24.4	-24.4	---	---	20.0	E	0.33	24.3	-39.5	---	---	723.8	0.030	0.000	17.9	1	1
03/18/06	12:09 p	-24.4	-24.4	-24.4	---	---	21.7	E	0.36	25.2	-39.9	---	---	723.8	0.030	0.000	17.9	1	1
03/18/06	12:10 p	-24.4	-24.4	-24.4	---	---	22.6	ENE	0.38	25.2	-40.3	---	---	723.8	0.030	0.000	17.9	1	1
03/18/06	12:11 p	-24.4	-24.4	-24.4	---	---	24.3	ENE	0.41	27.0	-40.7	---	---	723.8	0.030	0.000	17.9	1	1
03/18/06	12:12 p	-24.3	-24.3	-24.4	---	---	23.5	ENE	0.39	27.0	-40.3	---	---	723.8	0.030	0.000	18.0	1	1
03/18/06	12:13 p	-24.4	-24.3	-24.4	---	---	23.5	ENE	0.39	25.2	-40.4	---	---	723.8	0.030	0.000	18.0	1	1
03/18/06	12:14 p	-24.4	-24.3	-24.4	---	---	21.7	E	0.36	23.5	-39.9	---	---	723.9	0.030	0.000	18.0	1	1
03/18/06	12:15 p	-24.3	-24.3	-24.4	---	---	22.6	E	0.38	24.3	-40.1	---	---	723.8	0.030	0.000	18.1	1	1
03/18/06	12:16 p	-24.3	-24.3	-24.3	---	---	20.9	E	0.35	24.3	-39.6	---	---	723.8	0.030	0.000	18.1	1	1
03/18/06	12:17 p	-24.3	-24.3	-24.3	---	---	20.9	E	0.35	24.3	-39.6	---	---	723.8	0.030	0.000	18.1	1	1
03/18/06	12:18 p	-24.3	-24.3	-24.4	---	---	20.9	E	0.35	23.5	-39.6	---	---	723.8	0.030	0.000	18.1	1	1
03/18/06	12:19 p	-24.3	-24.3	-24.3	---	---	20.9	E	0.35	23.5	-39.6	---	---	723.8	0.030	0.000	18.1	1	1
03/18/06	12:20 p	-24.3	-24.3	-24.3	---	---	20.0	E	0.33	24.3	-39.4	---	---	723.8	0.030	0.000	18.1	1	1
03/18/06	12:21 p	-24.3	-24.3	-24.3	---	---	20.0	E	0.33	23.5	-39.4	---	---	723.8	0.030	0.000	18.1	1	1
03/18/06	12:22 p	-24.3	-24.3	-24.3	---	---	20.0	E	0.33	23.5	-39.4	---	---	723.8	0.030	0.000	18.1	1	1
03/18/06	12:23 p	-24.3	-24.3	-24.3	---	---	21.7	E	0.36	25.2	-39.9	---	---	723.7	0.030	0.000	18.1	1	1
03/18/06	12:24 p	-24.3	-24.3	-24.3	---	---	21.7	E	0.36	25.2	-39.9	---	---	723.7	0.030	0.000	18.1	1	1
03/18/06	12:25 p	-24.3	-24.3	-24.3	---	---	20.9	E	0.35	23.5	-39.6	---	---	723.8	0.030	0.000	18.0	1	1
03/18/06	12:26 p	-24.3	-24.3	-24.3	---	---	21.7	E	0.36	23.5	-39.8	---	---	723.7	0.030	0.000	18.0	1	1
03/18/06	12:27 p	-24.3	-24.3	-24.3	---	---	20.9	ENE	0.35	23.5	-39.6	---	---	723.8	0.030	0.000	18.0	1	1
03/18/06	12:28 p	-24.3	-24.3	-24.3	---	---	20.0	ENE	0.33	22.6	-39.4	---	---	723.9	0.030	0.000	18.0	1	1
03/18/06	12:29 p	-24.3	-24.3	-24.3	---	---	19.1	E	0.32	21.7	-39.1	---	---	723.8	0.030	0.000	18.0	1	1
03/18/06	12:30 p	-24.3	-24.3	-24.3	---	---	20.9	E	0.35	22.6	-39.6	---	---	723.8	0.030	0.000	17.9	1	1
03/18/06	12:31 p	-24.3	-24.3	-24.3	---	---	19.1	E	0.32	21.7	-39.1	---	---	723.9	0.030	0.000	17.9	1	1
03/18/06	12:32 p	-24.3	-24.3	-24.3	---	---	20.0	E	0.33	23.5	-39.4	---	---	723.8	0.030	0.000	17.9	1	1
03/18/06	12:33 p	-24.3	-24.3	-24.3	---	---	19.1	E	0.32	22.6	-39.1	---	---	723.9	0.030	0.000	17.9	1	1
03/18/06	12:34 p	-24.3	-24.3	-24.3	---	---	19.1	E	0.32	21.7	-39.1	---	---	723.9	0.030	0.000	17.9	1	1
03/18/06	12:35 p	-24.3	-24.3	-24.4	---	---	17.4	E	0.29	20.0	-38.6	---	---	723.8	0.030	0.000	17.9	1	1
03/18/06	12:36 p	-24.3	-24.3	-24.3	---	---	17.4	E	0.29	20.0	-38.6	---	---	723.8	0.030	0.000	17.9	1	1
03/18/06	12:37 p	-24.3	-24.3	-24.4	---	---	19.1	E	0.32	20.9	-39.1	---	---	723.8	0.030	0.000	17.9	1	1
03/18/06	12:38 p	-24.3	-24.3	-24.3	---	---	19.1	E	0.32	23.5	-39.1	---	---	723.8	0.030	0.000	17.9	1	1
03/18/06	12:39 p	-24.3	-24.3	-24.3	---	---	19.1	E	0.32	23.5	-39.1	---	---	723.8	0.030	0.000	17.9	1	1
03/18/06	12:40 p	-24.3	-24.3	-24.4	---	---	20.0	E	0.33	22.6	-39.4	---	---	723.8	0.030	0.000	17.9	1	1
03/18/06	12:41 p	-24.3	-24.3	-24.4	---	---	19.1	E	0.32	22.6	-39.1	---	---	723.8	0.030	0.000	17.9	1	1
03/18/06	12:42 p	-24.3	-24.3	-24.4	---	---	19.1	E	0.32	21.7	-39.1	---	---	723.8	0.030	0.000	17.9	1	1
03/18/06	12:43 p	-24.4	-24.3	-24.4	---	---	19.1	ENE	0.32	22.6	-39.2	---	---	723.8	0.030	0.000	17.9	1	1
03/18/06	12:44 p	-24.3	-24.3	-24.4	---	---	21.7	ENE	0.36	22.6	-39.9	---	---	723.8	0.030	0.000	17.9	1	1
03/18/06	12:45 p	-24.4	-24.3	-24.4	---	---	22.6	ENE	0.38	24.3	-40.2	---	---	723.9	0.030	0.000	17.9	1	1
03/18/06	12:46 p	-24.4	-24.4	-24.4	---	---	21.7	ENE	0.36	23.5	-39.9	---	---	723.9	0.030	0.000	17.8	1	1
03/18/06	12:47 p	-24.4	-24.3	-24.4	---	---	20.9	ENE	0.35	23.5	-39.7	---	---	723.8	0.030	0.000	17.8	1	1
03/18/06	12:48 p	-24.4	-24.4	-24.4	---	---	22.6	ENE	0.38	24.3	-40.2	---	---	723.8	0.030	0.000	17.8	1	1
03/18/06	12:49 p	-24.4	-24.4	-24.4	---	---	21.7	ENE	0.36	25.2	-39.9	---	---	723.8	0.030	0.000	17.8	1	1
03/18/06	12:50 p	-24.4	-24.4	-24.4	---	---	21.7	ENE	0.36	23.5	-39.9	---	---	723.9	0.030	0.000	17.8	1	1
03/18/06	12:51 p	-24.4	-24.4	-24.4	---	---	20.9	ENE	0.35	22.6	-39.8	---	---	723.9	0.030	0.000	17.8	1	1
03/18/06	12:52 p	-24.4	-24.4	-24.4	---	---	21.7	ENE	0.36	23.5	-40.0	---	---	723.8	0.030	0.000	17.8	1	1
03/18/06	12:53 p	-24.4	-24.4	-24.5	---	---	23.5	ENE	0.39	27.0	-40.5	---	---	723.7	0.030	0.000	17.8	1	1
03/18/06	12:54 p	-24.4	-24.4	-24.5	---	---	23.5	ENE	0.39	25.2	-40.5	---	---	723.7	0.030	0.000	17.8	1	1
03/18/06	12:55 p	-24.4	-24.4	-24.5	---	---	22.6	ENE	0.38	23.5	-40.3	---	---	723.9	0.030	0.000	17.9	1	1
03/18/06	12:56 p	-24.5	-24.4	-24.5	---	---	20.9	ENE	0.35	25.2	-39.8	---	---	723.7	0.030	0.000	17.9	1	1
03/18/06	12:57 p	-24.5	-24.4	-24.5	---	---	21.7	E	0.36	24.3	-40.1	---	---	723.7	0.030	0.000	17.9	1	1
03/18/06	12:58 p	-24.5	-24.5	-24.5	---	---	22.6	ENE	0.38	24.3	-40.3	---	---	723.7	0.030	0.000	17.9	1	1
03/18/06	12:59 p	-24.5	-24.5	-24.5	---	---	23.5	ENE	0.39	25.2	-40.6	---	---	723.7	0.030	0.000	18.0	1	1
03/18/06	1:00 p	-24.5	-24.4	-24.5	---	---	24.3	ENE	0.41	26.1	-40.8	---	---	723.7	0.030	0.000	18.0	1	1
03/18/06	1:01 p	-24.5	-24.5	-24.6	---	---	22.6	ENE	0.38	24.3	-40.3	---	---	723.7	0.030	0.000	18.0	1	1
03/18/06	1:02 p	-24.5	-24.5	-24.5	---	---	21.7	ENE	0.36	24.3	-40.1	---	---	723.7	0.030	0.000	18.1	1	1
03/18/06	1:03 p	-24.5	-24.5	-24.6	---	---	22.6	ENE	0.38	25.2	-40.3	---	---	723.6	0.030	0.000	18.1	1	1
03/18/06	1:04 p	-24.6	-24.5	-24.6	---	---	22.6	E	0.38	24.3	-40.4	---	---	723.7	0.030	0.000	18.1	1	1
03/18/06	1:05 p	-24.6	-24.5	-24.6	---	---	20.9	E	0.35	23.5	-39.9	---	---	723.6	0.030	0.000	18.1	1	1
03/18/06	1:06 p	-24.6	-24.5	-24.6	---	---	20.0	E	0.33	23.5	-39.7	---	---	723.7	0.030	0.000	18.1	1	1
03/18/06	1:07 p	-24.6	-24.6	-24.6	---	---	21.7	E	0.36	24.3	-40.2	---	---	723.6	0.030	0.000	18.1	1	1
03/18/06	1:08 p	-24.6	-24.6	-24.6	---	---	20.9	E	0.35	23.5	-39.9	---	---	723.7	0.030	0.000	18.1	1	1
03/18/06	1:09 p	-24.6	-24.6	-24.6	---	---	20.0	E	0.33	23.5	-39.7	---	---	723.6	0.030	0.000	18.1	1	1
03/18/06	1:10 p	-24.6	-24.6	-24.6	---	---	23.5	E	0.39	27.0	-40.7	---	---	723.7	0.030	0.000	18.1	1	1
03/18/06	1:11 p	-24.6	-24.6	-24.6	---	---	21.7	E	0.36	24.3	-40.2	---	---	723.7	0.030	0.000	18.1	1	1
03/18/06	1:12 p	-24.6	-24.6	-24.6	---	---	21.7	ENE	0.36	24.3	-40.2	---	---	723.7	0.030	0.000	18.1	1	1
03/18/06	1:13 p	-24.6	-24.6	-24.6	---	---	20.9	E	0.35	24.3	-40.0	---	---	723.6	0.030	0.000	18.1	1	1
03/18/06	1:14 p	-24.6	-24.6	-24.6	---	---	20.9	E	0.35	24.3	-40.0	---	---	723.6	0.030	0.000	18.1	1	1
03/18/06	1:15 p	-24.6	-24.6	-24.6	---	---	21.7	E	0.36	23.5	-40.2	---	---	723.6	0.030	0.000	18.1	1	1
03/18/06	1:16 p	-24.6	-24.6	-24.6	---	---	20.9	E	0.35	23.5	-40.0	---	---	723.6	0.030	0.000	18.1	1	1
03/18/06	1:17 p	-24.6	-24.6	-24.7	---	---	21.7	E	0.36	24.3	-40.2	---	---	723.6	0.030	0.000	18.1	1	1
03/18/06	1:18 p	-24.7	-24.7	-24.7	---	---	21.7	E	0.36	24.3	-40.3	---	---	723.7	0.030	0.000	18.1	1	1
03/18/06	1:19 p	-24.7	-24.7	-24.7	---	---	20.9	E	0.35	24.3	-40.1	---	---	723.6	0.030	0.000	18.1	1	1
03/18/06	1:20 p	-24.7	-24.6	-24.7	---	---	21.7	E	0.36	25.2	-40.3	---	---	723.7	0.030	0.000	18.1	1	1
03/18/06	1:21 p	-24.7	-24.7	-24.7	---	---	22.6	E	0.38	26.1	-40.6	---	---	723.6	0.030	0.000	18.1	1	1
03/18/06	1:22 p	-24.7	-24.7	-24.7	---	---	20.0	E	0.33	22.6	-39.9	---	---	723.7	0.030	0.000	18.1	1	1
03/18/06	1:23 p	-24.7	-24.7	-24.7	---	---	22.6	ENE	0.38	25.2	-40.6	---	---	723.7	0.030	0.000	18.1	1	1
03/18/06	1:24 p	-24.7	-24.7	-24.7	---	---	22.6	E	0.38	25.2	-40.6	---	---	723.6	0.030	0.000	18.1	1	1
03/18/06	1:25 p	-24.7	-24.7	-24.7	---	---	21.7	E	0.36	23.5	-40.4	---	---	723.7	0.030	0.000	18.1	1	1
03/18/06	1:26 p	-24.7	-24.7	-24.7	---	---	21.7	E	0.36	25.2	-40.4	---	---	723.7	0.030	0.000	18.1	1	1
03/18/06	1:27 p	-24.7	-24.7	-24.7	---	---	20.9	E	0.35	24.3	-40.2	---	---	723.6	0.030	0.000	18.1	1	1
03/18/06	1:28 p	-24.7	-24.7	-24.7	---	---	21.7	E	0.36	24.3	-40.4	---	---	723.8	0.030	0.000	18.1	1	1
03/18/06	1:29 p	-24.7	-24.7	-24.8	---	---	21.7	ENE	0.36	24.3	-40.4	---	---	723.6	0.030	0.000	18.1	1	1
03/18/06	1:30 p	-24.7	-24.7	-24.8	---	---	20.9	E	0.35	23.5	-40.2	---	---	723.6	0.030	0.000	18.1	1	1
03/18/06	1:31 p	-24.7	-24.7	-24.8	---	---	21.7	E	0.36	24.3	-40.4	---	---	723.7	0.030	0.000	18.1	1	1
03/18/06	1:32 p	-24.7	-24.7	-24.8	---	---	20.0	E	0.33	22.6	-39.9	---	---	723.7	0.030	0.000	18.1	1	1
03/18/06	1:33 p	-24.7	-24.7	-24.8	---	---	20.0	E	0.33	22.6	-39.9	---	---	723.7	0.030	0.000	18.1	1	1
03/18/06	1:34 p	-24.7	-24.7	-24.8	---	---	20.9	E	0.35	23.5	-40.2	---	---	723.6	0.030	0.000	18.1	1	1
03/18/06	1:35 p	-24.7	-24.7	-24.8	---	---	20.0	E	0.33	24.3	-39.9	---	---	723.6	0.030	0.000	18.1	1	1
03/18/06	1:36 p	-24.8	-24.8	-24.8	---	---	22.6	E	0.38	27.0	-40.7	---	---	723.5	0.030	0.000	18.1	1	1
03/18/06	1:37 p	-24.8	-24.7	-24.8	---	---	23.5	ENE	0.39	26.1	-40.9	---	---	723.6	0.030	0.000	18.1	1	1
03/18/06	1:38 p	-24.8	-24.7	-24.8	---	---	22.6	ENE	0.38	25.2	-40.7	---	---	723.6	0.030	0.000	18.1	1	1
03/18/06	1:39 p	-24.7	-24.7	-24.8	---	---	19.1	E	0.32	23.5	-39.6	---	---	723.6	0.030	0.000	18.1	1	1
03/18/06	1:40 p	-24.8	-24.7	-24.8	---	---	20.9	E	0.35	23.5	-40.2	---	---	723.5	0.030	0.000	18.0	1	1
03/18/06	1:41 p	-24.8	-24.7	-24.8	---	---	23.5	E	0.39	26.1	-40.9	---	---	723.6	0.030	0.000	18.0	1	1
03/18/06	1:42 p	-24.7	-24.7	-24.8	---	---	21.7	E	0.36	24.3	-40.4	---	---	723.6	0.030	0.000	18.0	1	1
03/18/06	1:43 p	-24.8	-24.7	-24.8	---	---	20.9	E	0.35	24.3	-40.2	---	---	723.6	0.030	0.000	18.0	1	1
03/18/06	1:44 p	-24.8	-24.7	-24.8	---	---	21.7	E	0.36	25.2	-40.4	---	---	723.5	0.030	0.000	18.0	1	1
03/18/06	1:45 p	-24.8	-24.7	-24.8	---	---	21.7	E	0.36	25.2	-40.4	---	---	723.7	0.030	0.000	17.9	1	1
03/18/06	1:46 p	-24.8	-24.7	-24.8	---	---	21.7	E	0.36	24.3	-40.4	---	---	723.7	0.030	0.000	17.9	1	1
03/18/06	1:47 p	-24.7	-24.7	-24.8	---	---	21.7	ENE	0.36	25.2	-40.4	---	---	723.7	0.030	0.000	17.9	1	1
03/18/06	1:48 p	-24.8	-24.7	-24.8	---	---	20.9	E	0.35	23.5	-40.2	---	---	723.6	0.030	0.000	17.9	1	1
03/18/06	1:49 p	-24.8	-24.7	-24.8	---	---	23.5	ENE	0.39	25.2	-40.9	---	---	723.6	0.030	0.000	17.9	1	1
03/18/06	1:50 p	-24.8	-24.7	-24.8	---	---	22.6	E	0.38	24.3	-40.7	---	---	723.5	0.030	0.000	17.9	1	1
03/18/06	1:51 p	-24.8	-24.7	-24.8	---	---	20.9	E	0.35	23.5	-40.2	---	---	723.6	0.030	0.000	17.9	1	1
03/18/06	1:52 p	-24.7	-24.7	-24.8	---	---	20.9	E	0.35	23.5	-40.2	---	---	723.6	0.030	0.000	17.9	1	1
03/18/06	1:53 p	-24.7	-24.7	-24.8	---	---	20.9	E	0.35	23.5	-40.2	---	---	723.6	0.030	0.000	17.9	1	1
03/18/06	1:54 p	-24.7	-24.7	-24.7	---	---	20.9	E	0.35	23.5	-40.2	---	---	723.6	0.030	0.000	17.9	1	1
03/18/06	1:55 p	-24.7	-24.7	-24.8	---	---	20.9	E	0.35	22.6	-40.2	---	---	723.6	0.030	0.000	17.9	1	1
03/18/06	1:56 p	-24.7	-24.7	-24.7	---	---	20.9	E	0.35	24.3	-40.2	---	---	723.6	0.030	0.000	17.9	1	1
03/18/06	1:57 p	-24.7	-24.7	-24.8	---	---	21.7	E	0.36	23.5	-40.4	---	---	723.6	0.030	0.000	18.0	1	1
03/18/06	1:58 p	-24.8	-24.7	-24.8	---	---	20.0	E	0.33	22.6	-39.9	---	---	723.7	0.030	0.000	18.0	1	1
03/18/06	1:59 p	-24.7	-24.7	-24.7	---	---	21.7	E	0.36	24.3	-40.4	---	---	723.6	0.030	0.000	18.1	1	1
03/18/06	2:00 p	-24.7	-24.7	-24.7	---	---	20.9	ENE	0.35	24.3	-40.1	---	---	723.7	0.030	0.000	18.1	1	1
03/18/06	2:01 p	-24.7	-24.7	-24.7	---	---	20.9	E	0.35	23.5	-40.2	---	---	723.7	0.030	0.000	18.1	1	1
03/18/06	2:02 p	-24.7	-24.7	-24.7	---	---	22.6	E	0.38	25.2	-40.6	---	---	723.6	0.030	0.000	18.1	1	1
03/18/06	2:03 p	-24.7	-24.7	-24.8	---	---	20.0	E	0.33	22.6	-39.9	---	---	723.8	0.030	0.000	18.1	1	1
03/18/06	2:04 p	-24.7	-24.7	-24.7	---	---	19.1	E	0.32	21.7	-39.6	---	---	723.7	0.030	0.000	18.2	1	1
03/18/06	2:05 p	-24.7	-24.7	-24.7	---	---	19.1	E	0.32	23.5	-39.6	---	---	723.6	0.030	0.000	18.2	1	1
03/18/06	2:06 p	-24.7	-24.7	-24.7	---	---	21.7	E	0.36	24.3	-40.3	---	---	723.6	0.030	0.000	18.2	1	1
03/18/06	2:07 p	-24.7	-24.7	-24.7	---	---	20.9	ENE	0.35	21.7	-40.1	---	---	723.7	0.030	0.000	18.2	1	1
03/18/06	2:08 p	-24.7	-24.7	-24.7	---	---	20.0	E	0.33	21.7	-39.8	---	---	723.7	0.030	0.000	18.2	1	1
03/18/06	2:09 p	-24.7	-24.7	-24.7	---	---	20.9	E	0.35	22.6	-40.1	---	---	723.6	0.030	0.000	18.1	1	1
03/18/06	2:10 p	-24.7	-24.7	-24.7	---	---	21.7	E	0.36	23.5	-40.4	---	---	723.7	0.030	0.000	18.1	1	1
03/18/06	2:11 p	-24.7	-24.7	-24.7	---	---	20.9	ENE	0.35	22.6	-40.1	---	---	723.7	0.030	0.000	18.1	1	1
03/18/06	2:12 p	-24.7	-24.7	-24.7	---	---	20.9	E	0.35	23.5	-40.1	---	---	723.6	0.030	0.000	18.1	1	1
03/18/06	2:13 p	-24.7	-24.7	-24.7	---	---	21.7	E	0.36	23.5	-40.3	---	---	723.6	0.030	0.000	18.1	1	1
03/18/06	2:14 p	-24.7	-24.7	-24.7	---	---	21.7	ENE	0.36	23.5	-40.3	---	---	723.7	0.030	0.000	18.1	1	1
03/18/06	2:15 p	-24.7	-24.7	-24.7	---	---	20.0	ENE	0.33	22.6	-39.8	---	---	723.6	0.030	0.000	18.1	1	1
03/18/06	2:16 p	-24.7	-24.7	-24.7	---	---	20.0	E	0.33	22.6	-39.8	---	---	723.6	0.030	0.000	18.1	1	1
03/18/06	2:17 p	-24.7	-24.6	-24.7	---	---	20.9	E	0.35	22.6	-40.1	---	---	723.8	0.030	0.000	18.1	1	1
03/18/06	2:18 p	-24.6	-24.6	-24.7	---	---	20.0	E	0.33	23.5	-39.7	---	---	723.6	0.030	0.000	18.0	1	1
03/18/06	2:19 p	-24.6	-24.6	-24.7	---	---	20.0	E	0.33	23.5	-39.7	---	---	723.7	0.030	0.000	18.0	1	1
03/18/06	2:20 p	-24.6	-24.6	-24.7	---	---	20.9	E	0.35	23.5	-40.0	---	---	723.6	0.030	0.000	18.0	1	1
03/18/06	2:21 p	-24.6	-24.6	-24.6	---	---	20.0	E	0.33	23.5	-39.7	---	---	723.7	0.030	0.000	18.0	1	1
03/18/06	2:22 p	-24.6	-24.6	-24.6	---	---	20.0	E	0.33	22.6	-39.7	---	---	723.6	0.030	0.000	18.0	1	1
03/18/06	2:23 p	-24.6	-24.6	-24.6	---	---	19.1	E	0.32	21.7	-39.4	---	---	723.7	0.030	0.000	18.0	1	1
03/18/06	2:24 p	-24.6	-24.6	-24.6	---	---	19.1	E	0.32	23.5	-39.4	---	---	723.6	0.030	0.000	18.0	1	1
03/18/06	2:25 p	-24.6	-24.6	-24.6	---	---	19.1	E	0.32	21.7	-39.4	---	---	723.7	0.030	0.000	18.0	1	1
03/18/06	2:26 p	-24.6	-24.6	-24.6	---	---	19.1	E	0.32	20.9	-39.4	---	---	723.7	0.030	0.000	18.0	1	1
03/18/06	2:27 p	-24.6	-24.6	-24.6	---	---	19.1	E	0.32	20.9	-39.4	---	---	723.7	0.030	0.000	18.0	1	1
03/18/06	2:28 p	-24.6	-24.6	-24.6	---	---	19.1	E	0.32	20.9	-39.4	---	---	723.7	0.030	0.000	17.9	1	1
03/18/06	2:29 p	-24.6	-24.6	-24.6	---	---	19.1	E	0.32	21.7	-39.4	---	---	723.6	0.030	0.000	17.9	1	1
03/18/06	2:30 p	-24.6	-24.6	-24.6	---	---	19.1	E	0.32	21.7	-39.4	---	---	723.7	0.030	0.000	17.9	1	1
03/18/06	2:31 p	-24.6	-24.6	-24.6	---	---	20.0	E	0.33	21.7	-39.7	---	---	723.7	0.030	0.000	17.9	1	1
03/18/06	2:32 p	-24.6	-24.6	-24.6	---	---	20.0	E	0.33	22.6	-39.7	---	---	723.7	0.030	0.000	17.9	1	1
03/18/06	2:33 p	-24.6	-24.6	-24.7	---	---	17.4	E	0.29	20.9	-38.9	---	---	723.8	0.030	0.000	17.9	1	1
03/18/06	2:34 p	-24.6	-24.6	-24.6	---	---	19.1	E	0.32	21.7	-39.4	---	---	723.6	0.030	0.000	17.9	1	1
03/18/06	2:35 p	-24.6	-24.6	-24.7	---	---	20.0	E	0.33	24.3	-39.7	---	---	723.6	0.030	0.000	17.9	1	1
03/18/06	2:36 p	-24.6	-24.6	-24.6	---	---	22.6	ENE	0.38	25.2	-40.5	---	---	723.6	0.030	0.000	17.9	1	1
03/18/06	2:37 p	-24.6	-24.6	-24.7	---	---	20.0	E	0.33	22.6	-39.7	---	---	723.7	0.030	0.000	17.9	1	1
03/18/06	2:38 p	-24.6	-24.6	-24.7	---	---	21.7	ENE	0.36	23.5	-40.2	---	---	723.7	0.030	0.000	17.9	1	1
03/18/06	2:39 p	-24.7	-24.6	-24.7	---	---	20.0	E	0.33	23.5	-39.8	---	---	723.6	0.030	0.000	17.9	1	1
03/18/06	2:40 p	-24.7	-24.6	-24.7	---	---	18.3	E	0.30	20.9	-39.3	---	---	723.7	0.030	0.000	17.9	1	1
03/18/06	2:41 p	-24.7	-24.6	-24.7	---	---	17.4	E	0.29	20.9	-39.0	---	---	723.8	0.030	0.000	17.9	1	1
03/18/06	2:42 p	-24.7	-24.6	-24.7	---	---	18.3	E	0.30	20.9	-39.3	---	---	723.7	0.030	0.000	17.9	1	1
03/18/06	2:43 p	-24.7	-24.7	-24.7	---	---	18.3	E	0.30	20.9	-39.3	---	---	723.7	0.030	0.000	17.9	1	1
03/18/06	2:44 p	-24.7	-24.7	-24.7	---	---	17.4	E	0.29	20.0	-39.0	---	---	723.7	0.030	0.000	17.9	1	1
03/18/06	2:45 p	-24.7	-24.7	-24.7	---	---	20.0	E	0.33	23.5	-39.8	---	---	723.7	0.030	0.000	17.9	1	1
03/18/06	2:46 p	-24.7	-24.7	-24.7	---	---	20.0	E	0.33	22.6	-39.8	---	---	723.6	0.030	0.000	17.9	1	1
03/18/06	2:47 p	-24.7	-24.7	-24.7	---	---	21.7	ENE	0.36	24.3	-40.4	---	---	723.8	0.030	0.000	17.9	1	1
03/18/06	2:48 p	-24.7	-24.7	-24.7	---	---	19.1	E	0.32	22.6	-39.6	---	---	723.6	0.030	0.000	17.9	1	1
03/18/06	2:49 p	-24.7	-24.7	-24.7	---	---	19.1	E	0.32	23.5	-39.6	---	---	723.6	0.030	0.000	18.0	1	1
03/18/06	2:50 p	-24.8	-24.7	-24.8	---	---	22.6	ENE	0.38	24.3	-40.7	---	---	723.7	0.030	0.000	18.0	1	1
03/18/06	2:51 p	-24.8	-24.7	-24.8	---	---	22.6	ENE	0.38	24.3	-40.7	---	---	723.6	0.030	0.000	18.1	1	1
03/18/06	2:52 p	-24.8	-24.8	-24.8	---	---	20.9	ENE	0.35	23.5	-40.2	---	---	723.7	0.030	0.000	18.1	1	1
03/18/06	2:53 p	-24.8	-24.8	-24.8	---	---	20.9	E	0.35	22.6	-40.2	---	---	723.6	0.030	0.000	18.1	1	1
03/18/06	2:54 p	-24.8	-24.8	-24.8	---	---	20.9	ENE	0.35	23.5	-40.2	---	---	723.6	0.030	0.000	18.1	1	1
03/18/06	2:55 p	-24.8	-24.8	-24.8	---	---	20.0	E	0.33	23.5	-39.9	---	---	723.6	0.030	0.000	18.1	1	1
03/18/06	2:56 p	-24.8	-24.8	-24.8	---	---	20.9	E	0.35	24.3	-40.3	---	---	723.6	0.030	0.000	18.1	1	1
03/18/06	2:57 p	-24.8	-24.8	-24.8	---	---	21.7	E	0.36	24.3	-40.6	---	---	723.6	0.030	0.000	18.1	1	1
03/18/06	2:58 p	-24.8	-24.8	-24.8	---	---	19.1	E	0.32	22.6	-39.8	---	---	723.6	0.030	0.000	18.1	1	1
03/18/06	2:59 p	-24.8	-24.8	-24.8	---	---	21.7	ENE	0.36	23.5	-40.6	---	---	723.6	0.030	0.000	18.1	1	1
03/18/06	3:00 p	-24.9	-24.8	-24.9	---	---	19.1	E	0.32	22.6	-39.8	---	---	723.7	0.030	0.000	18.1	1	1
03/18/06	3:01 p	-24.8	-24.8	-24.9	---	---	20.0	E	0.33	22.6	-40.1	---	---	723.7	0.030	0.000	18.1	1	1
03/18/06	3:02 p	-24.9	-24.8	-24.9	---	---	19.1	E	0.32	21.7	-39.8	---	---	723.7	0.030	0.000	18.1	1	1
03/18/06	3:03 p	-24.9	-24.9	-24.9	---	---	20.9	ENE	0.35	22.6	-40.4	---	---	723.7	0.030	0.000	18.1	1	1
03/18/06	3:04 p	-24.9	-24.9	-24.9	---	---	22.6	E	0.38	24.3	-40.8	---	---	723.6	0.030	0.000	18.1	1	1
03/18/06	3:05 p	-24.9	-24.9	-24.9	---	---	21.7	ENE	0.36	24.3	-40.6	---	---	723.6	0.030	0.000	18.1	1	1
03/18/06	3:06 p	-24.9	-24.9	-24.9	---	---	20.0	ENE	0.33	23.5	-40.1	---	---	723.7	0.030	0.000	18.0	1	1
03/18/06	3:07 p	-24.9	-24.9	-24.9	---	---	14.8	E	0.25	20.0	-38.3	---	---	723.7	0.030	0.000	18.0	1	1
03/18/06	3:08 p	-24.9	-24.9	-24.9	---	---	20.0	E	0.33	25.2	-40.1	---	---	723.7	0.030	0.000	18.0	1	1
03/18/06	3:09 p	-24.9	-24.9	-24.9	---	---	20.9	ENE	0.35	23.5	-40.4	---	---	723.6	0.030	0.000	18.0	1	1
03/18/06	3:10 p	-24.9	-24.9	-25.0	---	---	20.0	E	0.33	22.6	-40.2	---	---	723.6	0.030	0.000	18.0	1	1
03/18/06	3:11 p	-24.9	-24.9	-25.0	---	---	21.7	E	0.36	24.3	-40.7	---	---	723.7	0.030	0.000	18.0	1	1
03/18/06	3:12 p	-25.0	-24.9	-25.0	---	---	22.6	ENE	0.38	25.2	-41.0	---	---	723.6	0.030	0.000	17.9	1	1
03/18/06	3:13 p	-25.0	-25.0	-25.0	---	---	22.6	ENE	0.38	24.3	-41.0	---	---	723.7	0.030	0.000	17.9	1	1
03/18/06	3:14 p	-25.0	-25.0	-25.0	---	---	20.0	ENE	0.33	23.5	-40.3	---	---	723.6	0.030	0.000	17.9	1	1
03/18/06	3:15 p	-25.0	-25.0	-25.1	---	---	21.7	ENE	0.36	25.2	-40.8	---	---	723.5	0.030	0.000	17.9	1	1
03/18/06	3:16 p	-25.0	-25.0	-25.0	---	---	20.0	E	0.33	23.5	-40.3	---	---	723.7	0.030	0.000	17.9	1	1
03/18/06	3:17 p	-25.0	-24.9	-25.0	---	---	20.9	E	0.35	24.3	-40.5	---	---	723.6	0.030	0.000	17.9	1	1
03/18/06	3:18 p	-25.0	-25.0	-25.1	---	---	20.9	E	0.35	26.1	-40.5	---	---	723.6	0.030	0.000	17.9	1	1
03/18/06	3:19 p	-25.1	-25.0	-25.1	---	---	23.5	ENE	0.39	25.2	-41.3	---	---	723.7	0.030	0.000	17.9	1	1
03/18/06	3:20 p	-25.1	-25.0	-25.1	---	---	20.9	ENE	0.35	23.5	-40.6	---	---	723.8	0.030	0.000	17.9	1	1
03/18/06	3:21 p	-25.1	-25.0	-25.1	---	---	21.7	ENE	0.36	25.2	-40.8	---	---	723.7	0.030	0.000	17.9	1	1
03/18/06	3:22 p	-25.1	-25.1	-25.1	---	---	22.6	ENE	0.38	25.2	-41.1	---	---	723.6	0.030	0.000	17.9	1	1
03/18/06	3:23 p	-25.1	-25.1	-25.1	---	---	22.6	ENE	0.38	25.2	-41.2	---	---	723.6	0.030	0.000	17.9	1	1
03/18/06	3:24 p	-25.1	-25.1	-25.1	---	---	23.5	ENE	0.39	25.2	-41.3	---	---	723.7	0.030	0.000	17.9	1	1
03/18/06	3:25 p	-25.1	-25.1	-25.1	---	---	20.9	ENE	0.35	23.5	-40.6	---	---	723.7	0.030	0.000	17.9	1	1
03/18/06	3:26 p	-25.1	-25.1	-25.1	---	---	18.3	ENE	0.30	20.9	-39.8	---	---	723.8	0.030	0.000	17.9	1	1
03/18/06	3:27 p	-25.1	-25.1	-25.1	---	---	18.3	E	0.30	20.9	-39.8	---	---	723.8	0.030	0.000	17.9	1	1
03/18/06	3:28 p	-25.1	-25.1	-25.1	---	---	19.1	E	0.32	22.6	-40.1	---	---	723.7	0.030	0.000	17.9	1	1
03/18/06	3:29 p	-25.1	-25.1	-25.1	---	---	20.9	E	0.35	23.5	-40.7	---	---	723.8	0.030	0.000	17.9	1	1
03/18/06	3:30 p	-25.1	-25.1	-25.1	---	---	18.3	E	0.30	21.7	-39.8	---	---	723.8	0.030	0.000	17.9	1	1
03/18/06	3:31 p	-25.1	-25.1	-25.2	---	---	16.5	E	0.28	20.0	-39.3	---	---	723.8	0.030	0.000	17.9	1	1
03/18/06	3:32 p	-25.2	-25.1	-25.2	---	---	21.7	E	0.36	24.3	-41.0	---	---	723.7	0.030	0.000	17.9	1	1
03/18/06	3:33 p	-25.2	-25.2	-25.2	---	---	21.7	ENE	0.36	25.2	-41.0	---	---	723.8	0.030	0.000	17.9	1	1
03/18/06	3:34 p	-25.2	-25.1	-25.2	---	---	20.9	E	0.35	22.6	-40.7	---	---	723.8	0.030	0.000	17.9	1	1
03/18/06	3:35 p	-25.2	-25.1	-25.2	---	---	17.4	E	0.29	21.7	-39.6	---	---	723.8	0.030	0.000	17.9	1	1
03/18/06	3:36 p	-25.1	-25.1	-25.2	---	---	17.4	E	0.29	20.9	-39.6	---	---	723.8	0.030	0.000	17.9	1	1
03/18/06	3:37 p	-25.2	-25.1	-25.2	---	---	20.9	ENE	0.35	23.5	-40.7	---	---	723.9	0.030	0.000	17.9	1	1
03/18/06	3:38 p	-25.2	-25.2	-25.2	---	---	20.9	ENE	0.35	21.7	-40.7	---	---	723.8	0.030	0.000	18.0	1	1
03/18/06	3:39 p	-25.2	-25.2	-25.2	---	---	20.0	ENE	0.33	24.3	-40.5	---	---	723.9	0.030	0.000	18.0	1	1
03/18/06	3:40 p	-25.2	-25.2	-25.2	---	---	19.1	E	0.32	22.6	-40.2	---	---	723.8	0.030	0.000	18.1	1	1
03/18/06	3:41 p	-25.2	-25.2	-25.2	---	---	19.1	E	0.32	22.6	-40.2	---	---	723.8	0.030	0.000	18.1	1	1
03/18/06	3:42 p	-25.2	-25.2	-25.2	---	---	20.9	ENE	0.35	25.2	-40.7	---	---	723.7	0.030	0.000	18.1	1	1
03/18/06	3:43 p	-25.2	-25.2	-25.2	---	---	21.7	E	0.36	25.2	-41.0	---	---	723.7	0.030	0.000	18.1	1	1
03/18/06	3:44 p	-25.2	-25.2	-25.2	---	---	17.4	E	0.29	20.9	-39.7	---	---	723.8	0.030	0.000	18.1	1	1
03/18/06	3:45 p	-25.2	-25.2	-25.2	---	---	14.8	E	0.25	19.1	-38.7	---	---	723.8	0.030	0.000	18.2	1	1
03/18/06	3:46 p	-25.2	-25.2	-25.2	---	---	18.3	E	0.30	21.7	-39.9	---	---	723.8	0.030	0.000	18.2	1	1
03/18/06	3:47 p	-25.2	-25.1	-25.2	---	---	19.1	E	0.32	24.3	-40.2	---	---	723.8	0.030	0.000	18.2	1	1
03/18/06	3:48 p	-25.2	-25.2	-25.2	---	---	18.3	E	0.30	22.6	-39.9	---	---	723.8	0.030	0.000	18.2	1	1
03/18/06	3:49 p	-25.2	-25.2	-25.2	---	---	19.1	E	0.32	21.7	-40.2	---	---	723.8	0.030	0.000	18.2	1	1
03/18/06	3:50 p	-25.2	-25.2	-25.2	---	---	15.7	E	0.26	18.3	-39.0	---	---	723.9	0.030	0.000	18.3	1	1
03/18/06	3:51 p	-25.2	-25.1	-25.2	---	---	18.3	E	0.30	22.6	-39.9	---	---	723.7	0.030	0.000	18.3	1	1
03/18/06	3:52 p	-25.2	-25.2	-25.2	---	---	16.5	E	0.28	20.9	-39.3	---	---	723.7	0.030	0.000	18.3	1	1
03/18/06	3:53 p	-25.2	-25.1	-25.2	---	---	20.0	E	0.33	22.6	-40.5	---	---	723.7	0.030	0.000	18.3	1	1
03/18/06	3:54 p	-25.1	-25.1	-25.2	---	---	20.9	E	0.35	26.1	-40.7	---	---	723.7	0.030	0.000	18.3	1	1
03/18/06	3:55 p	-25.2	-25.2	-25.2	---	---	22.6	ENE	0.38	25.2	-41.2	---	---	723.8	0.030	0.000	18.3	1	1
03/18/06	3:56 p	-25.2	-25.1	-25.2	---	---	18.3	E	0.30	21.7	-39.9	---	---	723.7	0.030	0.000	18.3	1	1
03/18/06	3:57 p	-25.1	-25.1	-25.1	---	---	17.4	E	0.29	20.0	-39.6	---	---	723.7	0.030	0.000	18.3	1	1
03/18/06	3:58 p	-25.1	-25.1	-25.2	---	---	19.1	E	0.32	22.6	-40.1	---	---	723.7	0.030	0.000	18.3	1	1
03/18/06	3:59 p	-25.1	-25.1	-25.2	---	---	19.1	E	0.32	20.9	-40.1	---	---	723.7	0.030	0.000	18.3	1	1
03/18/06	4:00 p	-25.1	-25.1	-25.2	---	---	20.0	ENE	0.33	23.5	-40.4	---	---	723.8	0.030	0.000	18.3	1	1
03/18/06	4:01 p	-25.1	-25.1	-25.2	---	---	23.5	ENE	0.39	27.0	-41.4	---	---	723.7	0.030	0.000	18.3	1	1
03/18/06	4:02 p	-25.1	-25.1	-25.1	---	---	21.7	ENE	0.36	25.2	-40.9	---	---	723.7	0.030	0.000	18.3	1	1
03/18/06	4:03 p	-25.1	-25.1	-25.1	---	---	21.7	E	0.36	24.3	-40.9	---	---	723.8	0.030	0.000	18.3	1	1
03/18/06	4:04 p	-25.1	-25.1	-25.1	---	---	20.0	E	0.33	22.6	-40.4	---	---	723.8	0.030	0.000	18.3	1	1
03/18/06	4:05 p	-25.1	-25.1	-25.1	---	---	20.0	ENE	0.33	22.6	-40.3	---	---	723.8	0.030	0.000	18.3	1	1
03/18/06	4:06 p	-25.1	-25.1	-25.1	---	---	21.7	ENE	0.36	24.3	-40.8	---	---	723.8	0.030	0.000	18.2	1	1
03/18/06	4:07 p	-25.1	-25.1	-25.1	---	---	21.7	ENE	0.36	23.5	-40.8	---	---	723.8	0.030	0.000	18.2	1	1
03/18/06	4:08 p	-25.1	-25.1	-25.1	---	---	21.7	ENE	0.36	24.3	-40.8	---	---	723.8	0.030	0.000	18.2	1	1
03/18/06	4:09 p	-25.1	-25.1	-25.1	---	---	20.9	ENE	0.35	24.3	-40.6	---	---	723.7	0.030	0.000	18.2	1	1
03/18/06	4:10 p	-25.1	-25.1	-25.1	---	---	21.7	E	0.36	23.5	-40.8	---	---	723.7	0.030	0.000	18.2	1	1
03/18/06	4:11 p	-25.1	-25.0	-25.1	---	---	22.6	E	0.38	26.1	-41.1	---	---	723.7	0.030	0.000	18.2	1	1
03/18/06	4:12 p	-25.1	-25.1	-25.1	---	---	21.7	E	0.36	24.3	-40.8	---	---	723.7	0.030	0.000	18.2	1	1
03/18/06	4:13 p	-25.1	-25.0	-25.1	---	---	20.9	E	0.35	23.5	-40.6	---	---	723.7	0.030	0.000	18.2	1	1
03/18/06	4:14 p	-25.1	-25.0	-25.1	---	---	18.3	E	0.30	22.6	-39.8	---	---	723.7	0.030	0.000	18.2	1	1
03/18/06	4:15 p	-25.0	-25.0	-25.1	---	---	19.1	E	0.32	21.7	-40.0	---	---	723.6	0.030	0.000	18.2	1	1
03/18/06	4:16 p	-25.0	-25.0	-25.1	---	---	20.0	E	0.33	21.7	-40.3	---	---	723.7	0.030	0.000	18.1	1	1
03/18/06	4:17 p	-25.1	-25.0	-25.1	---	---	17.4	E	0.29	20.9	-39.5	---	---	723.9	0.030	0.000	18.1	1	1
03/18/06	4:18 p	-25.0	-25.0	-25.0	---	---	17.4	E	0.29	20.9	-39.4	---	---	723.7	0.030	0.000	18.1	1	1
03/18/06	4:19 p	-25.0	-25.0	-25.1	---	---	18.3	E	0.30	21.7	-39.7	---	---	723.6	0.030	0.000	18.1	1	1
03/18/06	4:20 p	-25.0	-25.0	-25.1	---	---	19.1	E	0.32	21.7	-40.0	---	---	723.8	0.030	0.000	18.1	1	1
03/18/06	4:21 p	-25.0	-24.9	-25.0	---	---	18.3	E	0.30	21.7	-39.7	---	---	723.8	0.030	0.000	18.1	1	1
03/18/06	4:22 p	-25.0	-24.9	-25.0	---	---	20.0	E	0.33	23.5	-40.3	---	---	723.8	0.030	0.000	18.1	1	1
03/18/06	4:23 p	-25.0	-25.0	-25.1	---	---	20.9	E	0.35	23.5	-40.5	---	---	723.6	0.030	0.000	18.1	1	1
03/18/06	4:24 p	-25.0	-25.0	-25.0	---	---	22.6	ENE	0.38	25.2	-41.0	---	---	723.7	0.030	0.000	18.1	1	1
03/18/06	4:25 p	-25.0	-25.0	-25.0	---	---	20.9	ENE	0.35	23.5	-40.5	---	---	723.7	0.030	0.000	18.1	1	1
03/18/06	4:26 p	-25.0	-25.0	-25.1	---	---	20.9	ENE	0.35	21.7	-40.5	---	---	723.7	0.030	0.000	18.1	1	1
03/18/06	4:27 p	-25.0	-25.0	-25.0	---	---	19.1	E	0.32	21.7	-40.0	---	---	723.7	0.030	0.000	18.1	1	1
03/18/06	4:28 p	-25.0	-25.0	-25.0	---	---	18.3	E	0.30	21.7	-39.7	---	---	723.7	0.030	0.000	18.1	1	1
03/18/06	4:29 p	-25.0	-24.9	-25.0	---	---	20.0	E	0.33	24.3	-40.3	---	---	723.6	0.030	0.000	18.1	1	1
03/18/06	4:30 p	-25.0	-25.0	-25.0	---	---	21.7	ENE	0.36	24.3	-40.8	---	---	723.7	0.030	0.000	18.1	1	1
03/18/06	4:31 p	-25.0	-25.0	-25.0	---	---	20.0	E	0.33	21.7	-40.3	---	---	723.8	0.030	0.000	18.0	1	1
03/18/06	4:32 p	-25.0	-24.9	-25.0	---	---	21.7	ENE	0.36	24.3	-40.8	---	---	723.8	0.030	0.000	18.0	1	1
03/18/06	4:33 p	-25.0	-24.9	-25.0	---	---	20.0	ENE	0.33	21.7	-40.3	---	---	723.7	0.030	0.000	18.0	1	1
03/18/06	4:34 p	-25.0	-25.0	-25.0	---	---	17.4	E	0.29	20.9	-39.4	---	---	723.8	0.030	0.000	18.0	1	1
03/18/06	4:35 p	-24.9	-24.9	-25.0	---	---	17.4	E	0.29	20.0	-39.3	---	---	723.8	0.030	0.000	18.0	1	1
03/18/06	4:36 p	-25.0	-24.9	-25.0	---	---	20.9	E	0.35	24.3	-40.5	---	---	723.7	0.030	0.000	18.0	1	1
03/18/06	4:37 p	-24.9	-24.9	-25.0	---	---	20.0	ENE	0.33	22.6	-40.2	---	---	723.7	0.030	0.000	18.0	1	1
03/18/06	4:38 p	-24.9	-24.9	-25.0	---	---	20.9	E	0.35	23.5	-40.4	---	---	723.7	0.030	0.000	18.0	1	1
03/18/06	4:39 p	-24.9	-24.9	-25.0	---	---	21.7	ENE	0.36	28.7	-40.7	---	---	723.6	0.030	0.000	18.0	1	1
03/18/06	4:40 p	-24.9	-24.9	-24.9	---	---	22.6	ENE	0.38	25.2	-40.9	---	---	723.7	0.030	0.000	18.0	1	1
03/18/06	4:41 p	-24.9	-24.9	-24.9	---	---	25.2	ENE	0.42	27.8	-41.6	---	---	723.6	0.030	0.000	17.9	1	1
03/18/06	4:42 p	-24.9	-24.9	-24.9	---	---	24.3	ENE	0.41	27.0	-41.4	---	---	723.7	0.030	0.000	17.9	1	1
03/18/06	4:43 p	-24.9	-24.9	-24.9	---	---	20.0	E	0.33	22.6	-40.1	---	---	723.8	0.030	0.000	17.9	1	1
03/18/06	4:44 p	-24.9	-24.9	-24.9	---	---	18.3	E	0.30	21.7	-39.6	---	---	723.9	0.030	0.000	17.9	1	1
03/18/06	4:45 p	-24.9	-24.9	-24.9	---	---	18.3	E	0.30	22.6	-39.6	---	---	723.9	0.030	0.000	17.9	1	1
03/18/06	4:46 p	-24.9	-24.9	-24.9	---	---	20.9	E	0.35	26.1	-40.4	---	---	723.8	0.030	0.000	17.9	1	1
03/18/06	4:47 p	-24.9	-24.9	-24.9	---	---	21.7	ENE	0.36	26.1	-40.6	---	---	724.0	0.030	0.000	17.9	1	1
03/18/06	4:48 p	-24.9	-24.9	-24.9	---	---	20.9	ENE	0.35	22.6	-40.4	---	---	723.9	0.030	0.000	17.9	1	1
03/18/06	4:49 p	-24.9	-24.9	-24.9	---	---	19.1	E	0.32	21.7	-39.8	---	---	723.9	0.030	0.000	17.9	1	1
03/18/06	4:50 p	-24.9	-24.8	-24.9	---	---	17.4	E	0.29	20.9	-39.3	---	---	724.0	0.030	0.000	17.9	1	1
03/18/06	4:51 p	-24.9	-24.8	-24.9	---	---	21.7	E	0.36	26.1	-40.6	---	---	723.7	0.030	0.000	17.9	1	1
03/18/06	4:52 p	-24.9	-24.8	-24.9	---	---	23.5	ESE	0.39	25.2	-41.1	---	---	723.9	0.030	0.000	17.9	1	1
03/18/06	4:53 p	-24.9	-24.8	-24.9	---	---	20.0	ESE	0.33	21.7	-40.1	---	---	723.9	0.030	0.000	17.9	1	1
03/18/06	4:54 p	-24.8	-24.8	-24.9	---	---	15.7	E	0.26	20.0	-38.6	---	---	723.9	0.030	0.000	17.9	1	1
03/18/06	4:55 p	-24.9	-24.8	-24.9	---	---	19.1	ENE	0.32	21.7	-39.8	---	---	724.0	0.030	0.000	17.9	1	1
03/18/06	4:56 p	-24.8	-24.8	-24.8	---	---	19.1	E	0.32	21.7	-39.8	---	---	723.9	0.030	0.000	17.9	1	1
03/18/06	4:57 p	-24.8	-24.8	-24.8	---	---	20.0	ENE	0.33	21.7	-40.1	---	---	723.8	0.030	0.000	18.0	1	1
03/18/06	4:58 p	-24.8	-24.8	-24.9	---	---	20.0	E	0.33	26.1	-40.1	---	---	723.8	0.030	0.000	18.0	1	1
03/18/06	4:59 p	-24.8	-24.8	-24.8	---	---	20.0	E	0.33	22.6	-40.1	---	---	723.9	0.030	0.000	18.1	1	1
03/18/06	5:00 p	-24.8	-24.8	-24.9	---	---	20.0	E	0.33	21.7	-40.1	---	---	723.8	0.030	0.000	18.1	1	1
03/18/06	5:01 p	-24.8	-24.8	-24.9	---	---	18.3	E	0.30	21.7	-39.5	---	---	723.9	0.030	0.000	18.1	1	1
03/18/06	5:02 p	-24.8	-24.8	-24.9	---	---	20.0	E	0.33	22.6	-40.1	---	---	723.9	0.030	0.000	18.1	1	1
03/18/06	5:03 p	-24.8	-24.8	-24.9	---	---	19.1	ESE	0.32	20.9	-39.8	---	---	724.0	0.030	0.000	18.1	1	1
03/18/06	5:04 p	-24.8	-24.8	-24.9	---	---	15.7	ESE	0.26	18.3	-38.6	---	---	724.0	0.030	0.000	18.1	1	1
03/18/06	5:05 p	-24.8	-24.8	-24.8	---	---	19.1	E	0.32	22.6	-39.8	---	---	723.9	0.030	0.000	18.1	1	1
03/18/06	5:06 p	-24.8	-24.8	-24.9	---	---	20.0	E	0.33	22.6	-40.1	---	---	724.0	0.030	0.000	18.1	1	1
03/18/06	5:07 p	-24.8	-24.8	-24.8	---	---	19.1	E	0.32	21.7	-39.8	---	---	724.0	0.030	0.000	18.1	1	1
03/18/06	5:08 p	-24.8	-24.8	-24.8	---	---	19.1	E	0.32	20.9	-39.8	---	---	724.0	0.030	0.000	18.1	1	1
03/18/06	5:09 p	-24.8	-24.8	-24.8	---	---	19.1	E	0.32	22.6	-39.8	---	---	724.0	0.030	0.000	18.1	1	1
03/18/06	5:10 p	-24.8	-24.8	-24.8	---	---	17.4	E	0.29	20.9	-39.2	---	---	723.9	0.030	0.000	18.1	1	1
03/18/06	5:11 p	-24.8	-24.8	-24.9	---	---	17.4	E	0.29	18.3	-39.2	---	---	724.0	0.030	0.000	18.1	1	1
03/18/06	5:12 p	-24.8	-24.8	-24.9	---	---	15.7	E	0.26	18.3	-38.6	---	---	723.9	0.030	0.000	18.1	1	1
03/18/06	5:13 p	-24.9	-24.8	-24.9	---	---	17.4	E	0.29	20.9	-39.3	---	---	723.8	0.030	0.000	18.1	1	1
03/18/06	5:14 p	-24.8	-24.8	-24.8	---	---	20.0	E	0.33	24.3	-40.1	---	---	723.8	0.030	0.000	18.0	1	1
03/18/06	5:15 p	-24.8	-24.8	-24.9	---	---	20.9	E	0.35	24.3	-40.3	---	---	723.8	0.030	0.000	18.0	1	1
03/18/06	5:16 p	-24.8	-24.8	-24.8	---	---	20.0	E	0.33	22.6	-40.1	---	---	723.9	0.030	0.000	18.0	1	1
03/18/06	5:17 p	-24.8	-24.8	-24.8	---	---	19.1	E	0.32	21.7	-39.8	---	---	724.0	0.030	0.000	18.0	1	1
03/18/06	5:18 p	-24.9	-24.8	-24.9	---	---	18.3	E	0.30	20.9	-39.6	---	---	723.9	0.030	0.000	18.0	1	1
03/18/06	5:19 p	-24.8	-24.8	-24.9	---	---	17.4	E	0.29	21.7	-39.2	---	---	723.9	0.030	0.000	18.0	1	1
03/18/06	5:20 p	-24.9	-24.8	-24.9	---	---	17.4	E	0.29	21.7	-39.3	---	---	723.8	0.030	0.000	18.0	1	1
03/18/06	5:21 p	-24.9	-24.8	-24.9	---	---	20.0	E	0.33	23.5	-40.1	---	---	723.8	0.030	0.000	18.0	1	1
03/18/06	5:22 p	-24.9	-24.8	-24.9	---	---	20.9	E	0.35	23.5	-40.4	---	---	723.8	0.030	0.000	18.0	1	1
03/18/06	5:23 p	-24.9	-24.9	-24.9	---	---	21.7	E	0.36	26.1	-40.6	---	---	723.7	0.030	0.000	17.9	1	1
03/18/06	5:24 p	-24.9	-24.9	-24.9	---	---	23.5	E	0.39	26.1	-41.1	---	---	723.8	0.030	0.000	17.9	1	1
03/18/06	5:25 p	-24.9	-24.9	-24.9	---	---	21.7	ENE	0.36	24.3	-40.6	---	---	723.9	0.030	0.000	17.9	1	1
03/18/06	5:26 p	-24.9	-24.9	-24.9	---	---	20.9	E	0.35	23.5	-40.4	---	---	723.8	0.030	0.000	17.9	1	1
03/18/06	5:27 p	-24.9	-24.9	-25.0	---	---	21.7	E	0.36	25.2	-40.7	---	---	723.8	0.030	0.000	17.9	1	1
03/18/06	5:28 p	-24.9	-24.9	-24.9	---	---	24.3	E	0.41	27.8	-41.4	---	---	723.7	0.030	0.000	17.9	1	1
03/18/06	5:29 p	-24.9	-24.9	-25.0	---	---	20.9	E	0.35	24.3	-40.4	---	---	723.9	0.030	0.000	17.9	1	1
03/18/06	5:30 p	-25.0	-25.0	-25.0	---	---	22.6	E	0.38	27.0	-41.0	---	---	723.8	0.030	0.000	17.9	1	1
03/18/06	5:31 p	-25.0	-25.0	-25.0	---	---	23.5	ENE	0.39	27.0	-41.2	---	---	723.8	0.030	0.000	17.9	1	1
03/18/06	5:32 p	-25.1	-25.0	-25.1	---	---	25.2	ENE	0.42	27.0	-41.8	---	---	723.9	0.030	0.000	17.9	1	1
03/18/06	5:33 p	-25.1	-25.1	-25.1	---	---	24.3	ENE	0.41	27.0	-41.6	---	---	723.8	0.030	0.000	17.9	1	1
03/18/06	5:34 p	-25.1	-25.1	-25.1	---	---	23.5	ENE	0.39	25.2	-41.3	---	---	723.9	0.030	0.000	17.9	1	1
03/18/06	5:35 p	-25.1	-25.1	-25.2	---	---	21.7	E	0.36	25.2	-40.9	---	---	723.9	0.030	0.000	17.9	1	1
03/18/06	5:36 p	-25.1	-25.1	-25.2	---	---	22.6	ENE	0.38	25.2	-41.2	---	---	723.8	0.030	0.000	17.9	1	1
03/18/06	5:37 p	-25.2	-25.1	-25.2	---	---	22.6	E	0.38	25.2	-41.2	---	---	724.0	0.030	0.000	17.9	1	1
03/18/06	5:38 p	-25.2	-25.2	-25.2	---	---	23.5	ENE	0.39	25.2	-41.4	---	---	724.0	0.030	0.000	17.9	1	1
03/18/06	5:39 p	-25.2	-25.2	-25.2	---	---	21.7	ENE	0.36	26.1	-41.1	---	---	724.0	0.030	0.000	17.9	1	1
03/18/06	5:40 p	-25.2	-25.2	-25.2	---	---	21.7	E	0.36	24.3	-41.1	---	---	723.9	0.030	0.000	17.9	1	1
03/18/06	5:41 p	-25.2	-25.2	-25.2	---	---	24.3	ENE	0.41	27.0	-41.8	---	---	724.0	0.030	0.000	17.9	1	1
03/18/06	5:42 p	-25.2	-25.2	-25.3	---	---	21.7	ENE	0.36	24.3	-41.1	---	---	724.1	0.030	0.000	17.9	1	1
03/18/06	5:43 p	-25.2	-25.2	-25.2	---	---	21.7	ENE	0.36	24.3	-41.1	---	---	724.1	0.030	0.000	17.9	1	1
03/18/06	5:44 p	-25.3	-25.2	-25.3	---	---	20.9	ENE	0.35	24.3	-40.9	---	---	724.0	0.030	0.000	17.9	1	1
03/18/06	5:45 p	-25.3	-25.3	-25.3	---	---	22.6	E	0.38	26.1	-41.4	---	---	724.0	0.030	0.000	17.9	1	1
03/18/06	5:46 p	-25.3	-25.3	-25.3	---	---	21.7	E	0.36	24.3	-41.1	---	---	724.0	0.030	0.000	17.9	1	1
03/18/06	5:47 p	-25.3	-25.2	-25.3	---	---	20.9	E	0.35	24.3	-40.9	---	---	724.1	0.030	0.000	17.9	1	1
03/18/06	5:48 p	-25.3	-25.3	-25.3	---	---	20.0	E	0.33	24.3	-40.6	---	---	724.1	0.030	0.000	17.9	1	1
03/18/06	5:49 p	-25.3	-25.3	-25.3	---	---	20.9	E	0.35	22.6	-40.9	---	---	724.0	0.030	0.000	18.0	1	1
03/18/06	5:50 p	-25.3	-25.2	-25.3	---	---	20.9	E	0.35	23.5	-40.9	---	---	724.0	0.030	0.000	18.0	1	1
03/18/06	5:51 p	-25.3	-25.2	-25.3	---	---	20.9	E	0.35	25.2	-40.9	---	---	724.0	0.030	0.000	18.0	1	1
03/18/06	5:52 p	-25.3	-25.2	-25.3	---	---	21.7	E	0.36	26.1	-41.1	---	---	724.0	0.030	0.000	18.1	1	1
03/18/06	5:53 p	-25.2	-25.2	-25.2	---	---	21.7	ENE	0.36	27.0	-41.1	---	---	724.1	0.030	0.000	18.1	1	1
03/18/06	5:54 p	-25.2	-25.2	-25.3	---	---	23.5	ENE	0.39	26.1	-41.6	---	---	724.1	0.030	0.000	18.1	1	1
03/18/06	5:55 p	-25.2	-25.2	-25.3	---	---	20.9	ENE	0.35	25.2	-40.8	---	---	724.0	0.030	0.000	18.1	1	1
03/18/06	5:56 p	-25.2	-25.2	-25.2	---	---	18.3	E	0.30	21.7	-40.0	---	---	724.0	0.030	0.000	18.1	1	1
03/18/06	5:57 p	-25.2	-25.2	-25.2	---	---	20.0	E	0.33	26.1	-40.6	---	---	724.0	0.030	0.000	18.1	1	1
03/18/06	5:58 p	-25.2	-25.2	-25.2	---	---	20.9	E	0.35	25.2	-40.8	---	---	724.0	0.030	0.000	18.1	1	1
03/18/06	5:59 p	-25.2	-25.2	-25.2	---	---	22.6	ENE	0.38	25.2	-41.3	---	---	724.0	0.030	0.000	18.1	1	1
03/18/06	6:00 p	-25.2	-25.2	-25.2	---	---	21.7	ENE	0.36	23.5	-41.0	---	---	724.1	0.030	0.000	18.1	1	1
03/18/06	6:01 p	-25.2	-25.2	-25.2	---	---	23.5	ENE	0.39	25.2	-41.4	---	---	724.1	0.030	0.000	18.1	1	1
03/18/06	6:02 p	-25.2	-25.1	-25.2	---	---	22.6	ENE	0.38	25.2	-41.2	---	---	724.0	0.030	0.000	18.1	1	1
03/18/06	6:03 p	-25.1	-25.1	-25.2	---	---	22.6	ENE	0.38	27.0	-41.2	---	---	724.0	0.030	0.000	18.1	1	1
03/18/06	6:04 p	-25.1	-25.1	-25.1	---	---	23.5	ENE	0.39	26.1	-41.4	---	---	724.0	0.030	0.000	18.1	1	1
03/18/06	6:05 p	-25.1	-25.1	-25.1	---	---	21.7	ENE	0.36	24.3	-40.9	---	---	724.1	0.030	0.000	18.0	1	1
03/18/06	6:06 p	-25.1	-25.1	-25.1	---	---	20.0	ENE	0.33	21.7	-40.4	---	---	724.0	0.030	0.000	18.0	1	1
03/18/06	6:07 p	-25.1	-25.1	-25.1	---	---	21.7	E	0.36	25.2	-40.9	---	---	723.9	0.030	0.000	18.0	1	1
03/18/06	6:08 p	-25.1	-25.1	-25.1	---	---	23.5	ENE	0.39	25.2	-41.4	---	---	723.9	0.030	0.000	18.0	1	1
03/18/06	6:09 p	-25.1	-25.0	-25.1	---	---	22.6	ENE	0.38	24.3	-41.1	---	---	724.0	0.030	0.000	18.0	1	1
03/18/06	6:10 p	-25.1	-25.1	-25.1	---	---	22.6	ENE	0.38	26.1	-41.1	---	---	724.0	0.030	0.000	18.0	1	1
03/18/06	6:11 p	-25.1	-25.0	-25.1	---	---	22.6	ENE	0.38	25.2	-41.1	---	---	723.9	0.030	0.000	18.0	1	1
03/18/06	6:12 p	-25.0	-25.0	-25.1	---	---	22.6	E	0.38	25.2	-41.0	---	---	724.0	0.030	0.000	18.0	1	1
03/18/06	6:13 p	-25.0	-25.0	-25.1	---	---	20.9	E	0.35	24.3	-40.5	---	---	724.0	0.030	0.000	17.9	1	1
03/18/06	6:14 p	-25.0	-25.0	-25.0	---	---	23.5	ENE	0.39	25.2	-41.2	---	---	723.8	0.030	0.000	17.9	1	1
03/18/06	6:15 p	-25.0	-25.0	-25.0	---	---	20.9	ENE	0.35	23.5	-40.5	---	---	724.0	0.030	0.000	17.9	1	1
03/18/06	6:16 p	-25.0	-25.0	-25.0	---	---	20.9	E	0.35	22.6	-40.5	---	---	724.0	0.030	0.000	17.9	1	1
03/18/06	6:17 p	-25.0	-24.9	-25.0	---	---	22.6	ENE	0.38	25.2	-41.0	---	---	723.9	0.030	0.000	17.9	1	1
03/18/06	6:18 p	-24.9	-24.9	-25.0	---	---	22.6	E	0.38	25.2	-40.9	---	---	724.0	0.030	0.000	17.9	1	1
03/18/06	6:19 p	-25.0	-24.9	-25.0	---	---	21.7	E	0.36	23.5	-40.8	---	---	723.9	0.030	0.000	17.9	1	1
03/18/06	6:20 p	-24.9	-24.9	-25.0	---	---	21.7	E	0.36	23.5	-40.7	---	---	724.0	0.030	0.000	17.9	1	1
03/18/06	6:21 p	-24.9	-24.9	-25.0	---	---	21.7	E	0.36	22.6	-40.7	---	---	724.0	0.030	0.000	17.9	1	1
03/18/06	6:22 p	-24.9	-24.9	-24.9	---	---	20.0	E	0.33	22.6	-40.2	---	---	724.1	0.030	0.000	17.9	1	1
03/18/06	6:23 p	-24.9	-24.9	-24.9	---	---	21.7	E	0.36	24.3	-40.7	---	---	724.0	0.030	0.000	17.9	1	1
03/18/06	6:24 p	-24.9	-24.9	-24.9	---	---	21.7	E	0.36	25.2	-40.7	---	---	724.0	0.030	0.000	17.9	1	1
03/18/06	6:25 p	-24.9	-24.9	-24.9	---	---	19.1	E	0.32	22.6	-39.8	---	---	724.0	0.030	0.000	17.9	1	1
03/18/06	6:26 p	-24.9	-24.9	-24.9	---	---	20.0	E	0.33	22.6	-40.2	---	---	723.9	0.030	0.000	17.9	1	1
03/18/06	6:27 p	-24.9	-24.9	-24.9	---	---	21.7	E	0.36	25.2	-40.7	---	---	723.9	0.030	0.000	17.9	1	1
03/18/06	6:28 p	-24.9	-24.9	-24.9	---	---	19.1	E	0.32	23.5	-39.9	---	---	724.1	0.030	0.000	17.9	1	1
03/18/06	6:29 p	-24.9	-24.9	-24.9	---	---	19.1	E	0.32	21.7	-39.8	---	---	724.0	0.030	0.000	17.9	1	1
03/18/06	6:30 p	-24.9	-24.9	-24.9	---	---	20.9	E	0.35	23.5	-40.4	---	---	724.0	0.030	0.000	17.9	1	1
03/18/06	6:31 p	-24.9	-24.9	-24.9	---	---	20.9	E	0.35	23.5	-40.4	---	---	723.9	0.030	0.000	17.9	1	1
03/18/06	6:32 p	-24.9	-24.9	-24.9	---	---	22.6	ENE	0.38	24.3	-40.9	---	---	723.8	0.030	0.000	17.9	1	1
03/18/06	6:33 p	-24.9	-24.9	-24.9	---	---	21.7	E	0.36	25.2	-40.7	---	---	724.1	0.030	0.000	17.9	1	1
03/18/06	6:34 p	-24.9	-24.9	-24.9	---	---	21.7	E	0.36	24.3	-40.6	---	---	724.0	0.030	0.000	17.9	1	1
03/18/06	6:35 p	-24.9	-24.9	-24.9	---	---	22.6	ENE	0.38	26.1	-40.9	---	---	723.9	0.030	0.000	17.9	1	1
03/18/06	6:36 p	-24.9	-24.9	-24.9	---	---	23.5	ENE	0.39	26.1	-41.1	---	---	724.1	0.030	0.000	17.9	1	1
03/18/06	6:37 p	-24.9	-24.9	-24.9	---	---	22.6	ENE	0.38	25.2	-40.9	---	---	724.0	0.030	0.000	17.9	1	1
03/18/06	6:38 p	-24.9	-24.9	-24.9	---	---	21.7	E	0.36	24.3	-40.7	---	---	724.0	0.030	0.000	17.9	1	1
03/18/06	6:39 p	-24.9	-24.9	-24.9	---	---	21.7	ENE	0.36	25.2	-40.7	---	---	724.0	0.030	0.000	17.9	1	1
03/18/06	6:40 p	-24.9	-24.9	-24.9	---	---	22.6	ENE	0.38	26.1	-40.9	---	---	723.9	0.030	0.000	17.9	1	1
03/18/06	6:41 p	-24.9	-24.9	-25.0	---	---	24.3	ENE	0.41	28.7	-41.4	---	---	723.9	0.030	0.000	17.9	1	1
03/18/06	6:42 p	-24.9	-24.9	-25.0	---	---	24.3	ENE	0.41	27.0	-41.4	---	---	723.9	0.030	0.000	18.0	1	1
03/18/06	6:43 p	-24.9	-24.9	-24.9	---	---	20.9	ENE	0.35	23.5	-40.4	---	---	724.0	0.030	0.000	18.1	1	1
03/18/06	6:44 p	-24.9	-24.9	-24.9	---	---	22.6	ENE	0.38	26.1	-40.9	---	---	724.0	0.030	0.000	18.1	1	1
03/18/06	6:45 p	-24.9	-24.9	-24.9	---	---	24.3	ENE	0.41	26.1	-41.4	---	---	724.0	0.030	0.000	18.1	1	1
03/18/06	6:46 p	-24.9	-24.9	-24.9	---	---	25.2	ENE	0.42	27.8	-41.6	---	---	723.9	0.030	0.000	18.1	1	1
03/18/06	6:47 p	-24.9	-24.9	-24.9	---	---	22.6	ENE	0.38	25.2	-40.9	---	---	724.0	0.030	0.000	18.1	1	1
03/18/06	6:48 p	-24.9	-24.9	-25.0	---	---	22.6	ENE	0.38	25.2	-40.9	---	---	724.0	0.030	0.000	18.1	1	1
03/18/06	6:49 p	-24.9	-24.9	-25.0	---	---	22.6	ENE	0.38	27.0	-40.9	---	---	723.9	0.030	0.000	18.1	1	1
03/18/06	6:50 p	-25.0	-25.0	-25.0	---	---	22.6	E	0.38	26.1	-41.0	---	---	723.8	0.030	0.000	18.1	1	1
03/18/06	6:51 p	-25.0	-24.9	-25.0	---	---	23.5	ENE	0.39	26.1	-41.2	---	---	723.9	0.030	0.000	18.1	1	1
03/18/06	6:52 p	-25.0	-24.9	-25.0	---	---	23.5	ENE	0.39	26.1	-41.2	---	---	723.9	0.030	0.000	18.1	1	1
03/18/06	6:53 p	-25.0	-24.9	-25.0	---	---	22.6	ENE	0.38	25.2	-41.0	---	---	723.9	0.030	0.000	18.1	1	1
03/18/06	6:54 p	-25.0	-25.0	-25.0	---	---	23.5	ENE	0.39	25.2	-41.2	---	---	723.9	0.030	0.000	18.0	1	1
03/18/06	6:55 p	-25.0	-25.0	-25.0	---	---	23.5	ENE	0.39	26.1	-41.2	---	---	723.9	0.030	0.000	18.0	1	1
03/18/06	6:56 p	-25.0	-24.9	-25.0	---	---	24.3	ENE	0.41	26.1	-41.4	---	---	723.9	0.030	0.000	18.0	1	1
03/18/06	6:57 p	-25.0	-25.0	-25.0	---	---	23.5	ENE	0.39	25.2	-41.2	---	---	723.9	0.030	0.000	18.0	1	1
03/18/06	6:58 p	-25.0	-25.0	-25.0	---	---	22.6	ENE	0.38	25.2	-41.0	---	---	723.9	0.030	0.000	18.0	1	1
03/18/06	6:59 p	-25.0	-24.9	-25.0	---	---	22.6	ENE	0.38	26.1	-41.0	---	---	723.9	0.030	0.000	18.0	1	1
03/18/06	7:00 p	-25.0	-24.9	-25.0	---	---	24.3	ENE	0.41	26.1	-41.4	---	---	724.0	0.030	0.000	17.9	1	1
03/18/06	7:01 p	-25.0	-24.9	-25.0	---	---	22.6	E	0.38	25.2	-41.0	---	---	723.9	0.030	0.000	17.9	1	1
03/18/06	7:02 p	-25.0	-25.0	-25.0	---	---	24.3	ENE	0.41	27.0	-41.4	---	---	723.8	0.030	0.000	17.9	1	1
03/18/06	7:03 p	-25.0	-25.0	-25.0	---	---	24.3	ENE	0.41	27.0	-41.4	---	---	723.9	0.030	0.000	17.9	1	1
03/18/06	7:04 p	-25.0	-25.0	-25.0	---	---	22.6	ENE	0.38	26.1	-41.0	---	---	723.9	0.030	0.000	17.9	1	1
03/18/06	7:05 p	-25.0	-25.0	-25.0	---	---	23.5	E	0.39	27.0	-41.2	---	---	723.7	0.030	0.000	17.9	1	1
03/18/06	7:06 p	-25.0	-25.0	-25.0	---	---	24.3	E	0.41	27.8	-41.4	---	---	723.9	0.030	0.000	17.9	1	1
03/18/06	7:07 p	-25.0	-25.0	-25.0	---	---	22.6	ENE	0.38	25.2	-41.0	---	---	723.8	0.030	0.000	17.9	1	1
03/18/06	7:08 p	-25.0	-24.9	-25.0	---	---	22.6	ENE	0.38	25.2	-41.0	---	---	723.9	0.030	0.000	17.9	1	1
03/18/06	7:09 p	-25.0	-25.0	-25.0	---	---	23.5	ENE	0.39	24.3	-41.2	---	---	723.8	0.030	0.000	17.9	1	1
03/18/06	7:10 p	-25.0	-25.0	-25.0	---	---	21.7	ENE	0.36	23.5	-40.8	---	---	723.9	0.030	0.000	17.9	1	1
03/18/06	7:11 p	-25.0	-25.0	-25.0	---	---	23.5	ENE	0.39	27.0	-41.2	---	---	723.8	0.030	0.000	17.9	1	1
03/18/06	7:12 p	-25.0	-25.0	-25.0	---	---	23.5	ENE	0.39	26.1	-41.2	---	---	724.0	0.030	0.000	17.9	1	1
03/18/06	7:13 p	-25.0	-25.0	-25.0	---	---	23.5	ENE	0.39	25.2	-41.2	---	---	723.9	0.030	0.000	17.9	1	1
03/18/06	7:14 p	-25.0	-25.0	-25.0	---	---	24.3	ENE	0.41	26.1	-41.4	---	---	723.9	0.030	0.000	17.9	1	1
03/18/06	7:15 p	-25.0	-24.9	-25.0	---	---	24.3	ENE	0.41	27.0	-41.4	---	---	723.8	0.030	0.000	17.9	1	1
03/18/06	7:16 p	-25.0	-25.0	-25.0	---	---	26.1	E	0.43	29.6	-41.9	---	---	723.8	0.030	0.000	17.9	1	1
03/18/06	7:17 p	-25.0	-25.0	-25.0	---	---	24.3	ENE	0.41	27.8	-41.4	---	---	723.9	0.030	0.000	17.9	1	1
03/18/06	7:18 p	-25.0	-25.0	-25.0	---	---	22.6	ENE	0.38	26.1	-41.0	---	---	723.9	0.030	0.000	17.9	1	1
03/18/06	7:19 p	-25.0	-25.0	-25.0	---	---	22.6	ENE	0.38	25.2	-41.0	---	---	723.7	0.030	0.000	17.9	1	1
03/18/06	7:20 p	-25.0	-24.9	-25.0	---	---	24.3	E	0.41	28.7	-41.4	---	---	723.8	0.030	0.000	17.9	1	1
03/18/06	7:21 p	-24.9	-24.9	-25.0	---	---	27.0	ENE	0.45	30.4	-42.1	---	---	723.8	0.030	0.000	17.9	1	1
03/18/06	7:22 p	-25.0	-24.9	-25.0	---	---	24.3	ENE	0.41	26.1	-41.4	---	---	723.8	0.030	0.000	17.9	1	1
03/18/06	7:23 p	-25.0	-24.9	-25.0	---	---	24.3	ENE	0.41	27.8	-41.4	---	---	723.7	0.030	0.000	17.9	1	1
03/18/06	7:24 p	-24.9	-24.9	-25.0	---	---	24.3	ENE	0.41	27.0	-41.4	---	---	723.9	0.030	0.000	17.9	1	1
03/18/06	7:25 p	-24.9	-24.9	-24.9	---	---	22.6	ENE	0.38	24.3	-40.9	---	---	724.0	0.030	0.000	17.9	1	1
03/18/06	7:26 p	-24.9	-24.9	-25.0	---	---	23.5	ENE	0.39	26.1	-41.2	---	---	723.8	0.030	0.000	17.9	1	1
03/18/06	7:27 p	-24.9	-24.9	-24.9	---	---	26.1	ENE	0.43	27.8	-41.8	---	---	723.8	0.030	0.000	17.9	1	1
03/18/06	7:28 p	-24.9	-24.9	-25.0	---	---	25.2	ENE	0.42	29.6	-41.6	---	---	723.8	0.030	0.000	17.9	1	1
03/18/06	7:29 p	-24.9	-24.9	-24.9	---	---	27.0	ENE	0.45	30.4	-42.1	---	---	723.8	0.030	0.000	18.0	1	1
03/18/06	7:30 p	-24.9	-24.9	-24.9	---	---	25.2	ENE	0.42	28.7	-41.6	---	---	723.9	0.030	0.000	18.0	1	1
03/18/06	7:31 p	-24.9	-24.9	-24.9	---	---	22.6	ENE	0.38	25.2	-40.9	---	---	723.9	0.030	0.000	18.1	1	1
03/18/06	7:32 p	-24.9	-24.9	-24.9	---	---	24.3	ENE	0.41	27.8	-41.4	---	---	723.8	0.030	0.000	18.1	1	1
03/18/06	7:33 p	-24.9	-24.9	-24.9	---	---	26.1	ENE	0.43	27.8	-41.8	---	---	723.8	0.030	0.000	18.1	1	1
03/18/06	7:34 p	-24.9	-24.9	-24.9	---	---	23.5	ENE	0.39	26.1	-41.2	---	---	723.9	0.030	0.000	18.1	1	1
03/18/06	7:35 p	-24.9	-24.9	-24.9	---	---	23.5	ENE	0.39	26.1	-41.2	---	---	723.8	0.030	0.000	18.1	1	1
03/18/06	7:36 p	-24.9	-24.9	-24.9	---	---	26.1	ENE	0.43	28.7	-41.8	---	---	723.7	0.030	0.000	18.1	1	1
03/18/06	7:37 p	-24.9	-24.9	-24.9	---	---	26.1	ENE	0.43	28.7	-41.7	---	---	723.8	0.030	0.000	18.1	1	1
03/18/06	7:38 p	-24.9	-24.9	-24.9	---	---	25.2	ENE	0.42	28.7	-41.6	---	---	723.8	0.030	0.000	18.1	1	1
03/18/06	7:39 p	-24.9	-24.9	-24.9	---	---	24.3	ENE	0.41	27.8	-41.3	---	---	723.8	0.030	0.000	18.1	1	1
03/18/06	7:40 p	-24.9	-24.8	-24.9	---	---	25.2	ENE	0.42	27.8	-41.6	---	---	723.8	0.030	0.000	18.1	1	1
03/18/06	7:41 p	-24.9	-24.8	-24.9	---	---	24.3	ENE	0.41	27.8	-41.3	---	---	723.8	0.030	0.000	18.1	1	1
03/18/06	7:42 p	-24.9	-24.8	-24.9	---	---	24.3	ENE	0.41	27.0	-41.3	---	---	723.7	0.030	0.000	18.1	1	1
03/18/06	7:43 p	-24.9	-24.8	-24.9	---	---	27.8	E	0.46	31.3	-42.2	---	---	723.7	0.030	0.000	18.1	1	1
03/18/06	7:44 p	-24.8	-24.8	-24.8	---	---	26.1	ENE	0.43	28.7	-41.7	---	---	724.0	0.030	0.000	18.1	1	1
03/18/06	7:45 p	-24.8	-24.8	-24.8	---	---	21.7	ENE	0.36	24.3	-40.6	---	---	724.0	0.030	0.000	18.1	1	1
03/18/06	7:46 p	-24.8	-24.8	-24.8	---	---	21.7	ENE	0.36	27.0	-40.6	---	---	723.7	0.030	0.000	18.1	1	1
03/18/06	7:47 p	-24.8	-24.8	-24.8	---	---	26.1	ENE	0.43	30.4	-41.7	---	---	723.6	0.030	0.000	18.0	1	1
03/18/06	7:48 p	-24.8	-24.8	-24.8	---	---	26.1	ENE	0.43	29.6	-41.7	---	---	723.7	0.030	0.000	18.0	1	1
03/18/06	7:49 p	-24.8	-24.8	-24.8	---	---	26.1	ENE	0.43	29.6	-41.7	---	---	723.7	0.030	0.000	18.0	1	1
03/18/06	7:50 p	-24.8	-24.8	-24.8	---	---	26.1	ENE	0.43	29.6	-41.6	---	---	723.8	0.030	0.000	18.0	1	1
03/18/06	7:51 p	-24.8	-24.8	-24.8	---	---	24.3	ENE	0.41	26.1	-41.2	---	---	723.8	0.030	0.000	18.0	1	1
03/18/06	7:52 p	-24.8	-24.8	-24.8	---	---	22.6	ENE	0.38	25.2	-40.7	---	---	723.7	0.030	0.000	18.0	1	1
03/18/06	7:53 p	-24.8	-24.8	-24.8	---	---	25.2	ENE	0.42	28.7	-41.4	---	---	723.7	0.030	0.000	17.9	1	1
03/18/06	7:54 p	-24.8	-24.8	-24.8	---	---	29.6	ENE	0.49	33.0	-42.4	---	---	723.5	0.030	0.000	17.9	1	1
03/18/06	7:55 p	-24.8	-24.7	-24.8	---	---	29.6	ENE	0.49	33.0	-42.4	---	---	723.7	0.030	0.000	17.9	1	1
03/18/06	7:56 p	-24.7	-24.7	-24.8	---	---	25.2	ENE	0.42	29.6	-41.3	---	---	723.8	0.030	0.000	17.9	1	1
03/18/06	7:57 p	-24.7	-24.7	-24.7	---	---	21.7	ENE	0.36	23.5	-40.4	---	---	723.9	0.030	0.000	17.9	1	1
03/18/06	7:58 p	-24.7	-24.7	-24.8	---	---	23.5	ENE	0.39	26.1	-40.9	---	---	723.8	0.030	0.000	17.9	1	1
03/18/06	7:59 p	-24.7	-24.7	-24.8	---	---	26.1	ENE	0.43	31.3	-41.5	---	---	723.7	0.030	0.000	17.9	1	1
03/18/06	8:00 p	-24.7	-24.7	-24.7	---	---	27.0	ENE	0.45	30.4	-41.7	---	---	723.5	0.030	0.000	17.9	1	1
03/18/06	8:01 p	-24.7	-24.7	-24.7	---	---	29.6	ENE	0.49	31.3	-42.3	---	---	723.5	0.030	0.000	17.9	1	1
03/18/06	8:02 p	-24.7	-24.7	-24.8	---	---	26.1	ENE	0.43	29.6	-41.5	---	---	723.8	0.030	0.000	17.9	1	1
03/18/06	8:03 p	-24.7	-24.7	-24.7	---	---	24.3	ENE	0.41	27.0	-41.1	---	---	723.7	0.030	0.000	17.9	1	1
03/18/06	8:04 p	-24.7	-24.7	-24.7	---	---	26.1	ENE	0.43	28.7	-41.5	---	---	723.6	0.030	0.000	17.9	1	1
03/18/06	8:05 p	-24.7	-24.7	-24.7	---	---	27.0	ENE	0.45	29.6	-41.7	---	---	723.6	0.030	0.000	17.9	1	1
03/18/06	8:06 p	-24.7	-24.7	-24.7	---	---	26.1	ENE	0.43	29.6	-41.4	---	---	723.8	0.030	0.000	17.9	1	1
03/18/06	8:07 p	-24.7	-24.7	-24.7	---	---	24.3	ENE	0.41	26.1	-41.0	---	---	723.8	0.030	0.000	17.9	1	1
03/18/06	8:08 p	-24.7	-24.7	-24.7	---	---	26.1	ENE	0.43	29.6	-41.4	---	---	723.6	0.030	0.000	17.9	1	1
03/18/06	8:09 p	-24.7	-24.7	-24.7	---	---	28.7	ENE	0.48	31.3	-42.1	---	---	723.6	0.030	0.000	17.9	1	1
03/18/06	8:10 p	-24.7	-24.7	-24.7	---	---	26.1	ENE	0.43	27.8	-41.4	---	---	723.8	0.030	0.000	17.9	1	1
03/18/06	8:11 p	-24.7	-24.7	-24.7	---	---	24.3	ENE	0.41	26.1	-41.0	---	---	723.8	0.030	0.000	17.9	1	1
03/18/06	8:12 p	-24.7	-24.6	-24.7	---	---	27.8	ENE	0.46	29.6	-41.8	---	---	723.6	0.030	0.000	17.9	1	1
03/18/06	8:13 p	-24.6	-24.6	-24.7	---	---	26.1	ENE	0.43	28.7	-41.4	---	---	723.7	0.030	0.000	17.9	1	1
03/18/06	8:14 p	-24.6	-24.6	-24.6	---	---	24.3	ENE	0.41	27.0	-40.9	---	---	723.7	0.030	0.000	17.9	1	1
03/18/06	8:15 p	-24.6	-24.6	-24.7	---	---	25.2	ENE	0.42	28.7	-41.2	---	---	723.7	0.030	0.000	18.0	1	1
03/18/06	8:16 p	-24.6	-24.6	-24.6	---	---	24.3	ENE	0.41	29.6	-40.9	---	---	723.7	0.030	0.000	18.1	1	1
03/18/06	8:17 p	-24.6	-24.6	-24.6	---	---	29.6	ENE	0.49	33.0	-42.2	---	---	723.6	0.030	0.000	18.1	1	1
03/18/06	8:18 p	-24.6	-24.6	-24.6	---	---	26.1	ENE	0.43	27.8	-41.3	---	---	723.8	0.030	0.000	18.1	1	1
03/18/06	8:19 p	-24.6	-24.6	-24.6	---	---	22.6	ENE	0.38	26.1	-40.4	---	---	723.8	0.030	0.000	18.1	1	1
03/18/06	8:20 p	-24.6	-24.6	-24.6	---	---	25.2	ENE	0.42	26.1	-41.1	---	---	723.8	0.030	0.000	18.1	1	1
03/18/06	8:21 p	-24.6	-24.6	-24.6	---	---	23.5	ENE	0.39	27.0	-40.7	---	---	723.8	0.030	0.000	18.1	1	1
03/18/06	8:22 p	-24.6	-24.6	-24.6	---	---	22.6	ENE	0.38	26.1	-40.4	---	---	723.8	0.030	0.000	18.1	1	1
03/18/06	8:23 p	-24.6	-24.6	-24.6	---	---	26.1	ENE	0.43	29.6	-41.3	---	---	723.8	0.030	0.000	18.1	1	1
03/18/06	8:24 p	-24.6	-24.5	-24.6	---	---	25.2	ENE	0.42	27.8	-41.1	---	---	723.8	0.030	0.000	18.1	1	1
03/18/06	8:25 p	-24.6	-24.5	-24.6	---	---	21.7	ENE	0.36	24.3	-40.2	---	---	723.9	0.030	0.000	18.1	1	1
03/18/06	8:26 p	-24.5	-24.5	-24.6	---	---	22.6	ENE	0.38	27.0	-40.3	---	---	723.8	0.030	0.000	18.1	1	1
03/18/06	8:27 p	-24.5	-24.5	-24.5	---	---	27.0	ENE	0.45	29.6	-41.4	---	---	723.7	0.030	0.000	18.1	1	1
03/18/06	8:28 p	-24.5	-24.4	-24.5	---	---	24.3	ENE	0.41	27.0	-40.8	---	---	723.8	0.030	0.000	18.1	1	1
03/18/06	8:29 p	-24.4	-24.4	-24.5	---	---	25.2	ENE	0.42	29.6	-40.9	---	---	723.6	0.030	0.000	18.1	1	1
03/18/06	8:30 p	-24.4	-24.4	-24.4	---	---	28.7	ENE	0.48	30.4	-41.7	---	---	723.7	0.030	0.000	18.1	1	1
03/18/06	8:31 p	-24.4	-24.4	-24.4	---	---	24.3	ENE	0.41	28.7	-40.7	---	---	723.9	0.030	0.000	18.1	1	1
03/18/06	8:32 p	-24.4	-24.4	-24.4	---	---	23.5	ENE	0.39	27.8	-40.5	---	---	723.7	0.030	0.000	18.1	1	1
03/18/06	8:33 p	-24.4	-24.4	-24.4	---	---	26.1	ENE	0.43	29.6	-41.2	---	---	723.7	0.030	0.000	18.1	1	1
03/18/06	8:34 p	-24.4	-24.4	-24.4	---	---	26.1	E	0.43	31.3	-41.1	---	---	723.7	0.030	0.000	18.1	1	1
03/18/06	8:35 p	-24.4	-24.4	-24.4	---	---	26.1	ENE	0.43	29.6	-41.1	---	---	723.9	0.030	0.000	18.1	1	1
03/18/06	8:36 p	-24.4	-24.4	-24.4	---	---	23.5	ENE	0.39	27.0	-40.4	---	---	723.8	0.030	0.000	18.0	1	1
03/18/06	8:37 p	-24.4	-24.3	-24.4	---	---	24.3	ENE	0.41	26.1	-40.7	---	---	723.8	0.030	0.000	18.0	1	1
03/18/06	8:38 p	-24.4	-24.3	-24.4	---	---	25.2	ENE	0.42	29.6	-40.8	---	---	723.7	0.030	0.000	18.0	1	1
03/18/06	8:39 p	-24.3	-24.3	-24.4	---	---	27.0	ENE	0.45	29.6	-41.2	---	---	723.7	0.030	0.000	18.0	1	1
03/18/06	8:40 p	-24.4	-24.3	-24.4	---	---	26.1	ENE	0.43	28.7	-41.1	---	---	723.8	0.030	0.000	18.0	1	1
03/18/06	8:41 p	-24.3	-24.3	-24.3	---	---	27.8	ENE	0.46	31.3	-41.4	---	---	723.7	0.030	0.000	18.0	1	1
03/18/06	8:42 p	-24.3	-24.3	-24.3	---	---	24.3	ENE	0.41	27.8	-40.6	---	---	723.9	0.030	0.000	18.0	1	1
03/18/06	8:43 p	-24.3	-24.3	-24.3	---	---	24.3	ENE	0.41	26.1	-40.6	---	---	723.9	0.030	0.000	18.0	1	1
03/18/06	8:44 p	-24.3	-24.3	-24.3	---	---	23.5	ENE	0.39	26.1	-40.3	---	---	723.7	0.030	0.000	17.9	1	1
03/18/06	8:45 p	-24.3	-24.3	-24.3	---	---	28.7	ENE	0.48	33.0	-41.5	---	---	723.6	0.030	0.000	17.9	1	1
03/18/06	8:46 p	-24.3	-24.3	-24.3	---	---	28.7	ENE	0.48	31.3	-41.5	---	---	723.7	0.030	0.000	17.9	1	1
03/18/06	8:47 p	-24.3	-24.2	-24.3	---	---	24.3	ENE	0.41	27.8	-40.5	---	---	724.0	0.030	0.000	17.9	1	1
03/18/06	8:48 p	-24.2	-24.2	-24.3	---	---	24.3	ENE	0.41	28.7	-40.4	---	---	723.8	0.030	0.000	17.9	1	1
03/18/06	8:49 p	-24.2	-24.2	-24.3	---	---	27.0	ENE	0.45	29.6	-41.1	---	---	723.8	0.030	0.000	17.9	1	1
03/18/06	8:50 p	-24.2	-24.2	-24.2	---	---	27.0	ENE	0.45	29.6	-41.1	---	---	723.8	0.030	0.000	17.9	1	1
03/18/06	8:51 p	-24.2	-24.2	-24.2	---	---	27.0	ENE	0.45	29.6	-41.1	---	---	723.9	0.030	0.000	17.9	1	1
03/18/06	8:52 p	-24.2	-24.2	-24.2	---	---	24.3	ENE	0.41	27.0	-40.4	---	---	723.9	0.030	0.000	17.9	1	1
03/18/06	8:53 p	-24.2	-24.2	-24.2	---	---	23.5	ENE	0.39	26.1	-40.2	---	---	724.0	0.030	0.000	17.9	1	1
03/18/06	8:54 p	-24.2	-24.2	-24.2	---	---	25.2	ENE	0.42	28.7	-40.6	---	---	723.8	0.030	0.000	17.9	1	1
03/18/06	8:55 p	-24.2	-24.2	-24.2	---	---	27.8	ENE	0.46	29.6	-41.2	---	---	723.8	0.030	0.000	17.9	1	1
03/18/06	8:56 p	-24.2	-24.2	-24.2	---	---	25.2	ENE	0.42	27.0	-40.6	---	---	724.0	0.030	0.000	17.9	1	1
03/18/06	8:57 p	-24.2	-24.1	-24.2	---	---	24.3	ENE	0.41	26.1	-40.3	---	---	724.0	0.030	0.000	17.9	1	1
03/18/06	8:58 p	-24.1	-24.1	-24.2	---	---	23.5	ENE	0.39	27.8	-40.1	---	---	724.0	0.029	0.000	17.9	1	1
03/18/06	8:59 p	-24.2	-24.1	-24.2	---	---	26.1	ENE	0.43	28.7	-40.8	---	---	723.9	0.030	0.000	17.9	1	1
03/18/06	9:00 p	-24.1	-24.1	-24.2	---	---	27.0	ENE	0.45	29.6	-40.9	---	---	723.8	0.029	0.000	17.9	1	1
03/18/06	9:01 p	-24.1	-24.1	-24.1	---	---	25.2	ENE	0.42	27.8	-40.5	---	---	724.0	0.029	0.000	17.9	1	1
03/18/06	9:02 p	-24.1	-24.1	-24.2	---	---	24.3	ENE	0.41	27.8	-40.3	---	---	724.0	0.029	0.000	17.9	1	1
03/18/06	9:03 p	-24.1	-24.1	-24.2	---	---	24.3	ENE	0.41	27.0	-40.3	---	---	723.9	0.029	0.000	18.0	1	1
03/18/06	9:04 p	-24.1	-24.1	-24.1	---	---	26.1	ENE	0.43	30.4	-40.7	---	---	723.8	0.029	0.000	18.0	1	1
03/18/06	9:05 p	-24.1	-24.1	-24.2	---	---	27.0	ENE	0.45	28.7	-40.9	---	---	723.9	0.029	0.000	18.1	1	1
03/18/06	9:06 p	-24.1	-24.1	-24.1	---	---	24.3	ENE	0.41	27.8	-40.3	---	---	723.9	0.029	0.000	18.1	1	1
03/18/06	9:07 p	-24.1	-24.1	-24.1	---	---	24.3	E	0.41	27.8	-40.3	---	---	723.9	0.029	0.000	18.1	1	1
03/18/06	9:08 p	-24.1	-24.1	-24.1	---	---	22.6	E	0.38	26.1	-39.8	---	---	723.8	0.029	0.000	18.1	1	1
03/18/06	9:09 p	-24.1	-24.1	-24.1	---	---	26.1	ENE	0.43	29.6	-40.7	---	---	723.8	0.029	0.000	18.1	1	1
03/18/06	9:10 p	-24.1	-24.1	-24.1	---	---	27.0	ENE	0.45	29.6	-40.9	---	---	723.8	0.029	0.000	18.1	1	1
03/18/06	9:11 p	-24.1	-24.1	-24.1	---	---	24.3	ENE	0.41	27.0	-40.3	---	---	723.9	0.029	0.000	18.2	1	1
03/18/06	9:12 p	-24.1	-24.1	-24.1	---	---	23.5	ENE	0.39	27.0	-40.1	---	---	724.0	0.029	0.000	18.2	1	1
03/18/06	9:13 p	-24.1	-24.1	-24.1	---	---	24.3	ENE	0.41	28.7	-40.3	---	---	723.7	0.029	0.000	18.2	1	1
03/18/06	9:14 p	-24.1	-24.1	-24.1	---	---	27.0	ENE	0.45	30.4	-40.9	---	---	723.9	0.029	0.000	18.2	1	1
03/18/06	9:15 p	-24.1	-24.1	-24.1	---	---	23.5	ENE	0.39	27.8	-40.1	---	---	723.9	0.029	0.000	18.2	1	1
03/18/06	9:16 p	-24.1	-24.1	-24.2	---	---	26.1	ENE	0.43	29.6	-40.7	---	---	723.8	0.029	0.000	18.2	1	1
03/18/06	9:17 p	-24.1	-24.1	-24.2	---	---	25.2	ENE	0.42	27.8	-40.5	---	---	723.8	0.029	0.000	18.2	1	1
03/18/06	9:18 p	-24.1	-24.1	-24.2	---	---	25.2	ENE	0.42	30.4	-40.5	---	---	723.8	0.029	0.000	18.1	1	1
03/18/06	9:19 p	-24.1	-24.1	-24.1	---	---	27.8	ENE	0.46	31.3	-41.1	---	---	723.8	0.029	0.000	18.2	1	1
03/18/06	9:20 p	-24.1	-24.1	-24.2	---	---	27.0	ENE	0.45	29.6	-40.9	---	---	723.9	0.029	0.000	18.1	1	1
03/18/06	9:21 p	-24.1	-24.1	-24.1	---	---	24.3	E	0.41	29.6	-40.3	---	---	724.0	0.029	0.000	18.1	1	1
03/18/06	9:22 p	-24.1	-24.1	-24.2	---	---	24.3	ENE	0.41	27.8	-40.3	---	---	723.9	0.029	0.000	18.1	1	1
03/18/06	9:23 p	-24.1	-24.1	-24.1	---	---	25.2	ENE	0.42	27.8	-40.5	---	---	723.9	0.029	0.000	18.1	1	1
03/18/06	9:24 p	-24.1	-24.1	-24.1	---	---	25.2	ENE	0.42	27.8	-40.5	---	---	723.8	0.029	0.000	18.1	1	1
03/18/06	9:25 p	-24.2	-24.1	-24.2	---	---	21.7	E	0.36	27.0	-39.7	---	---	723.8	0.030	0.000	18.1	1	1
03/18/06	9:26 p	-24.2	-24.1	-24.2	---	---	25.2	ENE	0.42	28.7	-40.6	---	---	724.0	0.030	0.000	18.1	1	1
03/18/06	9:27 p	-24.1	-24.1	-24.2	---	---	23.5	ENE	0.39	27.0	-40.1	---	---	723.8	0.029	0.000	18.1	1	1
03/18/06	9:28 p	-24.2	-24.1	-24.2	---	---	26.1	E	0.43	29.6	-40.8	---	---	723.9	0.030	0.000	18.1	1	1
03/18/06	9:29 p	-24.2	-24.1	-24.2	---	---	27.8	ENE	0.46	30.4	-41.2	---	---	724.0	0.030	0.000	18.1	1	1
03/18/06	9:30 p	-24.2	-24.2	-24.2	---	---	23.5	E	0.39	27.0	-40.1	---	---	723.9	0.030	0.000	18.1	1	1
03/18/06	9:31 p	-24.2	-24.2	-24.2	---	---	25.2	E	0.42	29.6	-40.6	---	---	723.8	0.030	0.000	18.0	1	1
03/18/06	9:32 p	-24.2	-24.2	-24.2	---	---	25.2	ENE	0.42	27.0	-40.6	---	---	724.1	0.030	0.000	18.0	1	1
03/18/06	9:33 p	-24.2	-24.2	-24.2	---	---	22.6	ENE	0.38	27.0	-39.9	---	---	724.0	0.030	0.000	18.0	1	1
03/18/06	9:34 p	-24.2	-24.2	-24.2	---	---	22.6	ENE	0.38	27.0	-39.9	---	---	723.9	0.030	0.000	18.0	1	1
03/18/06	9:35 p	-24.2	-24.1	-24.2	---	---	25.2	E	0.42	30.4	-40.6	---	---	723.9	0.030	0.000	18.0	1	1
03/18/06	9:36 p	-24.2	-24.2	-24.2	---	---	27.0	E	0.45	31.3	-41.0	---	---	723.9	0.030	0.000	18.0	1	1
03/18/06	9:37 p	-24.2	-24.2	-24.2	---	---	26.1	ENE	0.43	29.6	-40.8	---	---	724.1	0.030	0.000	18.0	1	1
03/18/06	9:38 p	-24.2	-24.2	-24.2	---	---	22.6	ENE	0.38	24.3	-39.9	---	---	724.1	0.030	0.000	18.0	1	1
03/18/06	9:39 p	-24.2	-24.2	-24.2	---	---	24.3	ENE	0.41	31.3	-40.3	---	---	723.7	0.030	0.000	17.9	1	1
03/18/06	9:40 p	-24.2	-24.2	-24.2	---	---	28.7	ENE	0.48	32.2	-41.4	---	---	723.8	0.030	0.000	17.9	1	1
03/18/06	9:41 p	-24.2	-24.2	-24.2	---	---	26.1	ENE	0.43	29.6	-40.8	---	---	724.0	0.030	0.000	17.9	1	1
03/18/06	9:42 p	-24.2	-24.2	-24.2	---	---	22.6	ENE	0.38	27.0	-39.9	---	---	724.2	0.030	0.000	17.9	1	1
03/18/06	9:43 p	-24.2	-24.2	-24.3	---	---	20.9	ENE	0.35	24.3	-39.5	---	---	724.0	0.030	0.000	17.9	1	1
03/18/06	9:44 p	-24.2	-24.2	-24.3	---	---	20.0	E	0.33	24.3	-39.2	---	---	724.1	0.030	0.000	17.9	1	1
03/18/06	9:45 p	-24.2	-24.2	-24.2	---	---	23.5	E	0.39	28.7	-40.2	---	---	723.8	0.030	0.000	17.9	1	1
03/18/06	9:46 p	-24.2	-24.2	-24.2	---	---	27.8	ENE	0.46	32.2	-41.2	---	---	723.7	0.030	0.000	17.9	1	1
03/18/06	9:47 p	-24.3	-24.2	-24.3	---	---	25.2	ENE	0.42	30.4	-40.7	---	---	724.1	0.030	0.000	17.9	1	1
03/18/06	9:48 p	-24.3	-24.2	-24.3	---	---	20.9	ENE	0.35	25.2	-39.6	---	---	724.1	0.030	0.000	17.9	1	1
03/18/06	9:49 p	-24.3	-24.2	-24.3	---	---	24.3	ENE	0.41	30.4	-40.5	---	---	723.8	0.030	0.000	17.9	1	1
03/18/06	9:50 p	-24.3	-24.2	-24.3	---	---	27.8	ENE	0.46	29.6	-41.3	---	---	723.8	0.030	0.000	17.9	1	1
03/18/06	9:51 p	-24.3	-24.3	-24.3	---	---	28.7	ENE	0.48	32.2	-41.5	---	---	724.0	0.030	0.000	17.9	1	1
03/18/06	9:52 p	-24.3	-24.3	-24.3	---	---	23.5	ENE	0.39	27.0	-40.3	---	---	724.1	0.030	0.000	17.9	1	1
03/18/06	9:53 p	-24.3	-24.3	-24.3	---	---	22.6	ENE	0.38	25.2	-40.1	---	---	724.0	0.030	0.000	17.9	1	1
03/18/06	9:54 p	-24.3	-24.3	-24.3	---	---	22.6	ENE	0.38	27.8	-40.1	---	---	723.9	0.030	0.000	18.0	1	1
03/18/06	9:55 p	-24.3	-24.3	-24.3	---	---	28.7	ENE	0.48	32.2	-41.5	---	---	723.8	0.030	0.000	18.0	1	1
03/18/06	9:56 p	-24.3	-24.3	-24.3	---	---	27.0	ENE	0.45	30.4	-41.1	---	---	724.1	0.030	0.000	18.0	1	1
03/18/06	9:57 p	-24.3	-24.3	-24.3	---	---	25.2	ENE	0.42	27.8	-40.7	---	---	724.0	0.030	0.000	18.1	1	1
03/18/06	9:58 p	-24.3	-24.3	-24.3	---	---	24.3	ENE	0.41	27.8	-40.5	---	---	724.0	0.030	0.000	18.1	1	1
03/18/06	9:59 p	-24.3	-24.3	-24.3	---	---	26.1	ENE	0.43	29.6	-41.0	---	---	723.9	0.030	0.000	18.1	1	1
03/18/06	10:00 p	-24.3	-24.3	-24.3	---	---	27.0	ENE	0.45	30.4	-41.1	---	---	724.0	0.030	0.000	18.1	1	1
03/18/06	10:01 p	-24.3	-24.3	-24.3	---	---	27.0	ENE	0.45	29.6	-41.1	---	---	723.8	0.030	0.000	18.2	1	1
03/18/06	10:02 p	-24.3	-24.3	-24.3	---	---	29.6	ENE	0.49	32.2	-41.7	---	---	724.0	0.030	0.000	18.1	1	1
03/18/06	10:03 p	-24.3	-24.3	-24.3	---	---	27.8	ENE	0.46	32.2	-41.4	---	---	724.1	0.030	0.000	18.1	1	1
03/18/06	10:04 p	-24.3	-24.3	-24.3	---	---	26.1	ENE	0.43	27.8	-41.0	---	---	724.0	0.030	0.000	18.1	1	1
03/18/06	10:05 p	-24.3	-24.3	-24.3	---	---	28.7	ENE	0.48	30.4	-41.6	---	---	723.8	0.030	0.000	18.1	1	1
03/18/06	10:06 p	-24.3	-24.3	-24.3	---	---	29.6	ENE	0.49	32.2	-41.8	---	---	723.8	0.030	0.000	18.1	1	1
03/18/06	10:07 p	-24.3	-24.3	-24.3	---	---	28.7	E	0.48	32.2	-41.6	---	---	723.8	0.030	0.000	18.1	1	1
03/18/06	10:08 p	-24.3	-24.3	-24.3	---	---	27.8	ENE	0.46	30.4	-41.4	---	---	723.9	0.030	0.000	18.1	1	1
03/18/06	10:09 p	-24.3	-24.3	-24.3	---	---	28.7	E	0.48	33.9	-41.6	---	---	723.7	0.030	0.000	18.1	1	1
03/18/06	10:10 p	-24.3	-24.3	-24.3	---	---	31.3	ENE	0.52	34.8	-42.2	---	---	723.7	0.030	0.000	18.1	1	1
03/18/06	10:11 p	-24.3	-24.3	-24.3	---	---	29.6	ENE	0.49	33.0	-41.8	---	---	723.8	0.030	0.000	18.1	1	1
03/18/06	10:12 p	-24.3	-24.3	-24.3	---	---	27.0	ENE	0.45	30.4	-41.2	---	---	724.1	0.030	0.000	18.1	1	1
03/18/06	10:13 p	-24.3	-24.3	-24.3	---	---	25.2	E	0.42	28.7	-40.8	---	---	723.9	0.030	0.000	18.1	1	1
03/18/06	10:14 p	-24.3	-24.3	-24.3	---	---	29.6	ENE	0.49	33.9	-41.7	---	---	723.7	0.030	0.000	18.0	1	1
03/18/06	10:15 p	-24.3	-24.3	-24.3	---	---	29.6	ENE	0.49	33.9	-41.7	---	---	723.7	0.030	0.000	18.0	1	1
03/18/06	10:16 p	-24.3	-24.3	-24.3	---	---	26.1	E	0.43	28.7	-41.0	---	---	723.8	0.030	0.000	18.0	1	1
03/18/06	10:17 p	-24.3	-24.3	-24.3	---	---	29.6	E	0.49	33.9	-41.8	---	---	723.7	0.030	0.000	18.0	1	1
03/18/06	10:18 p	-24.3	-24.3	-24.3	---	---	30.4	ENE	0.51	33.9	-41.9	---	---	723.8	0.030	0.000	18.0	1	1
03/18/06	10:19 p	-24.3	-24.3	-24.3	---	---	28.7	ENE	0.48	31.3	-41.6	---	---	724.0	0.030	0.000	18.0	1	1
03/18/06	10:20 p	-24.3	-24.3	-24.3	---	---	25.2	E	0.42	28.7	-40.7	---	---	723.9	0.030	0.000	17.9	1	1
03/18/06	10:21 p	-24.3	-24.3	-24.3	---	---	27.0	E	0.45	31.3	-41.2	---	---	723.6	0.030	0.000	17.9	1	1
03/18/06	10:22 p	-24.3	-24.3	-24.3	---	---	32.2	ENE	0.54	36.5	-42.3	---	---	723.6	0.030	0.000	17.9	1	1
03/18/06	10:23 p	-24.3	-24.3	-24.3	---	---	30.4	ENE	0.51	33.9	-41.9	---	---	723.7	0.030	0.000	17.9	1	1
03/18/06	10:24 p	-24.3	-24.3	-24.3	---	---	27.8	E	0.46	31.3	-41.3	---	---	723.7	0.030	0.000	17.9	1	1
03/18/06	10:25 p	-24.3	-24.3	-24.3	---	---	30.4	ENE	0.51	33.9	-41.9	---	---	723.7	0.030	0.000	17.9	1	1
03/18/06	10:26 p	-24.3	-24.3	-24.3	---	---	32.2	ENE	0.54	33.9	-42.3	---	---	723.7	0.030	0.000	17.9	1	1
03/18/06	10:27 p	-24.3	-24.3	-24.3	---	---	30.4	ENE	0.51	34.8	-41.9	---	---	723.8	0.030	0.000	17.9	1	1
03/18/06	10:28 p	-24.3	-24.3	-24.3	---	---	27.8	ENE	0.46	32.2	-41.3	---	---	723.9	0.030	0.000	17.9	1	1
03/18/06	10:29 p	-24.3	-24.3	-24.3	---	---	26.1	E	0.43	34.8	-41.0	---	---	723.7	0.030	0.000	17.9	1	1
03/18/06	10:30 p	-24.3	-24.3	-24.3	---	---	33.0	ENE	0.55	36.5	-42.5	---	---	723.6	0.030	0.000	17.9	1	1
03/18/06	10:31 p	-24.3	-24.3	-24.3	---	---	33.0	ENE	0.55	36.5	-42.5	---	---	723.7	0.030	0.000	17.9	1	1
03/18/06	10:32 p	-24.3	-24.3	-24.3	---	---	30.4	ENE	0.51	33.0	-41.9	---	---	723.7	0.030	0.000	17.9	1	1
03/18/06	10:33 p	-24.3	-24.3	-24.3	---	---	30.4	ENE	0.51	33.9	-41.9	---	---	723.6	0.030	0.000	17.9	1	1
03/18/06	10:34 p	-24.3	-24.3	-24.3	---	---	32.2	ENE	0.54	37.4	-42.3	---	---	723.5	0.030	0.000	17.9	1	1
03/18/06	10:35 p	-24.3	-24.3	-24.3	---	---	31.3	ENE	0.52	36.5	-42.2	---	---	723.8	0.030	0.000	17.9	1	1
03/18/06	10:36 p	-24.3	-24.3	-24.4	---	---	27.8	ENE	0.46	29.6	-41.4	---	---	724.0	0.030	0.000	17.9	1	1
03/18/06	10:37 p	-24.3	-24.3	-24.4	---	---	24.3	ENE	0.41	27.8	-40.6	---	---	724.0	0.030	0.000	17.9	1	1
03/18/06	10:38 p	-24.4	-24.3	-24.4	---	---	25.2	ENE	0.42	29.6	-40.8	---	---	723.8	0.030	0.000	17.9	1	1
03/18/06	10:39 p	-24.4	-24.4	-24.4	---	---	32.2	E	0.54	36.5	-42.4	---	---	723.6	0.030	0.000	17.9	1	1
03/18/06	10:40 p	-24.4	-24.4	-24.4	---	---	32.2	ENE	0.54	35.7	-42.4	---	---	723.6	0.030	0.000	18.0	1	1
03/18/06	10:41 p	-24.4	-24.4	-24.4	---	---	28.7	E	0.48	31.3	-41.7	---	---	723.7	0.030	0.000	18.0	1	1
03/18/06	10:42 p	-24.4	-24.4	-24.4	---	---	28.7	E	0.48	32.2	-41.7	---	---	723.7	0.030	0.000	18.1	1	1
03/18/06	10:43 p	-24.4	-24.4	-24.4	---	---	27.0	ENE	0.45	32.2	-41.3	---	---	724.0	0.030	0.000	18.1	1	1
03/18/06	10:44 p	-24.4	-24.4	-24.5	---	---	26.1	ENE	0.43	30.4	-41.2	---	---	723.9	0.030	0.000	18.1	1	1
03/18/06	10:45 p	-24.4	-24.4	-24.5	---	---	25.2	ENE	0.42	28.7	-40.9	---	---	723.8	0.030	0.000	18.1	1	1
03/18/06	10:46 p	-24.5	-24.4	-24.5	---	---	29.6	ENE	0.49	35.7	-42.0	---	---	723.6	0.030	0.000	18.2	1	1
03/18/06	10:47 p	-24.5	-24.4	-24.5	---	---	32.2	E	0.54	37.4	-42.6	---	---	723.9	0.030	0.000	18.2	1	1
03/18/06	10:48 p	-24.5	-24.5	-24.6	---	---	24.3	E	0.41	29.6	-40.8	---	---	724.1	0.030	0.000	18.2	1	1
03/18/06	10:49 p	-24.6	-24.5	-24.6	---	---	19.1	E	0.32	24.3	-39.4	---	---	724.0	0.030	0.000	18.2	1	1
03/18/06	10:50 p	-24.6	-24.5	-24.6	---	---	26.1	E	0.43	33.9	-41.3	---	---	723.7	0.030	0.000	18.2	1	1
03/18/06	10:51 p	-24.6	-24.5	-24.6	---	---	31.3	E	0.52	35.7	-42.4	---	---	723.6	0.030	0.000	18.2	1	1
03/18/06	10:52 p	-24.6	-24.6	-24.6	---	---	28.7	E	0.48	33.9	-41.9	---	---	723.9	0.030	0.000	18.2	1	1
03/18/06	10:53 p	-24.6	-24.6	-24.6	---	---	21.7	E	0.36	26.1	-40.2	---	---	724.0	0.030	0.000	18.2	1	1
03/18/06	10:54 p	-24.6	-24.6	-24.6	---	---	18.3	E	0.30	23.5	-39.1	---	---	724.1	0.030	0.000	18.1	1	1
03/18/06	10:55 p	-24.6	-24.6	-24.6	---	---	24.3	E	0.41	34.8	-40.9	---	---	723.5	0.030	0.000	18.1	1	1
03/18/06	10:56 p	-24.6	-24.6	-24.6	---	---	31.3	ENE	0.52	34.8	-42.4	---	---	723.7	0.030	0.000	18.1	1	1
03/18/06	10:57 p	-24.6	-24.6	-24.6	---	---	27.8	ENE	0.46	31.3	-41.7	---	---	723.8	0.030	0.000	18.1	1	1
03/18/06	10:58 p	-24.6	-24.6	-24.6	---	---	27.8	E	0.46	32.2	-41.8	---	---	723.7	0.030	0.000	18.1	1	1
03/18/06	10:59 p	-24.6	-24.6	-24.6	---	---	30.4	E	0.51	35.7	-42.3	---	---	723.5	0.030	0.000	18.1	1	1
03/18/06	11:00 p	-24.6	-24.6	-24.6	---	---	30.4	E	0.51	33.9	-42.3	---	---	723.8	0.030	0.000	18.1	1	1
03/18/06	11:01 p	-24.6	-24.6	-24.6	---	---	27.0	ENE	0.45	30.4	-41.6	---	---	723.9	0.030	0.000	18.1	1	1
03/18/06	11:02 p	-24.6	-24.6	-24.6	---	---	23.5	ENE	0.39	28.7	-40.7	---	---	723.8	0.030	0.000	18.1	1	1
03/18/06	11:03 p	-24.6	-24.6	-24.6	---	---	27.8	E	0.46	35.7	-41.8	---	---	723.4	0.030	0.000	18.1	1	1
03/18/06	11:04 p	-24.6	-24.6	-24.6	---	---	33.0	E	0.55	36.5	-42.9	---	---	723.6	0.030	0.000	18.0	1	1
03/18/06	11:05 p	-24.6	-24.6	-24.6	---	---	25.2	ENE	0.42	31.3	-41.2	---	---	723.8	0.030	0.000	18.0	1	1
03/18/06	11:06 p	-24.6	-24.6	-24.6	---	---	30.4	E	0.51	35.7	-42.3	---	---	723.5	0.030	0.000	18.0	1	1
03/18/06	11:07 p	-24.6	-24.6	-24.6	---	---	29.6	ENE	0.49	35.7	-42.1	---	---	724.0	0.030	0.000	18.0	1	1
03/18/06	11:08 p	-24.6	-24.6	-24.6	---	---	21.7	E	0.36	25.2	-40.2	---	---	723.9	0.030	0.000	18.0	1	1
03/18/06	11:09 p	-24.6	-24.6	-24.6	---	---	23.5	E	0.39	32.2	-40.7	---	---	723.4	0.030	0.000	18.0	1	1
03/18/06	11:10 p	-24.6	-24.6	-24.6	---	---	34.8	ENE	0.58	38.3	-43.2	---	---	723.3	0.030	0.000	18.0	1	1
03/18/06	11:11 p	-24.6	-24.6	-24.6	---	---	27.8	ENE	0.46	33.0	-41.7	---	---	723.9	0.030	0.000	17.9	1	1
03/18/06	11:12 p	-24.6	-24.6	-24.6	---	---	27.0	ENE	0.45	30.4	-41.5	---	---	723.8	0.030	0.000	17.9	1	1
03/18/06	11:13 p	-24.6	-24.5	-24.6	---	---	29.6	ENE	0.49	33.0	-42.1	---	---	723.6	0.030	0.000	17.9	1	1
03/18/06	11:14 p	-24.5	-24.5	-24.6	---	---	27.8	E	0.46	31.3	-41.6	---	---	723.5	0.030	0.000	17.9	1	1
03/18/06	11:15 p	-24.6	-24.5	-24.6	---	---	33.0	ENE	0.55	37.4	-42.8	---	---	723.5	0.030	0.000	17.9	1	1
03/18/06	11:16 p	-24.5	-24.5	-24.6	---	---	28.7	ENE	0.48	33.9	-41.8	---	---	723.8	0.030	0.000	17.9	1	1
03/18/06	11:17 p	-24.5	-24.5	-24.5	---	---	25.2	ENE	0.42	27.8	-41.0	---	---	723.8	0.030	0.000	17.9	1	1
03/18/06	11:18 p	-24.5	-24.4	-24.5	---	---	27.0	ENE	0.45	32.2	-41.4	---	---	723.6	0.030	0.000	17.9	1	1
03/18/06	11:19 p	-24.5	-24.4	-24.5	---	---	27.0	ENE	0.45	30.4	-41.4	---	---	723.9	0.030	0.000	17.9	1	1
03/18/06	11:20 p	-24.4	-24.4	-24.5	---	---	26.1	E	0.43	34.8	-41.2	---	---	723.6	0.030	0.000	17.9	1	1
03/18/06	11:21 p	-24.4	-24.4	-24.5	---	---	30.4	ENE	0.51	35.7	-42.1	---	---	723.7	0.030	0.000	17.9	1	1
03/18/06	11:22 p	-24.4	-24.4	-24.5	---	---	26.1	E	0.43	29.6	-41.2	---	---	723.9	0.030	0.000	17.9	1	1
03/18/06	11:23 p	-24.4	-24.4	-24.5	---	---	29.6	E	0.49	33.0	-41.9	---	---	723.6	0.030	0.000	17.9	1	1
03/18/06	11:24 p	-24.4	-24.4	-24.4	---	---	30.4	ENE	0.51	32.2	-42.1	---	---	723.7	0.030	0.000	17.9	1	1
03/18/06	11:25 p	-24.4	-24.4	-24.4	---	---	27.0	E	0.45	30.4	-41.3	---	---	724.0	0.030	0.000	18.0	1	1
03/18/06	11:26 p	-24.4	-24.4	-24.4	---	---	23.5	E	0.39	27.8	-40.5	---	---	723.8	0.030	0.000	18.0	1	1
03/18/06	11:27 p	-24.4	-24.4	-24.4	---	---	30.4	ENE	0.51	36.5	-42.1	---	---	723.4	0.030	0.000	18.1	1	1
03/18/06	11:28 p	-24.4	-24.4	-24.4	---	---	29.6	ENE	0.49	33.9	-41.9	---	---	723.8	0.030	0.000	18.1	1	1
03/18/06	11:29 p	-24.4	-24.4	-24.4	---	---	24.3	ENE	0.41	28.7	-40.7	---	---	723.8	0.030	0.000	18.1	1	1
03/18/06	11:30 p	-24.4	-24.4	-24.4	---	---	32.2	ENE	0.54	36.5	-42.4	---	---	723.6	0.030	0.000	18.1	1	1
03/18/06	11:31 p	-24.4	-24.4	-24.4	---	---	28.7	ENE	0.48	35.7	-41.7	---	---	724.0	0.030	0.000	18.1	1	1
03/18/06	11:32 p	-24.4	-24.4	-24.4	---	---	24.3	ENE	0.41	27.8	-40.7	---	---	723.8	0.030	0.000	18.2	1	1
03/18/06	11:33 p	-24.4	-24.4	-24.4	---	---	23.5	ENE	0.39	27.8	-40.4	---	---	723.8	0.030	0.000	18.2	1	1
03/18/06	11:34 p	-24.4	-24.4	-24.4	---	---	27.0	E	0.45	33.9	-41.3	---	---	723.5	0.030	0.000	18.2	1	1
03/18/06	11:35 p	-24.4	-24.3	-24.4	---	---	30.4	ENE	0.51	33.9	-42.1	---	---	723.7	0.030	0.000	18.2	1	1
03/18/06	11:36 p	-24.4	-24.3	-24.4	---	---	26.1	ENE	0.43	31.3	-41.1	---	---	724.0	0.030	0.000	18.2	1	1
03/18/06	11:37 p	-24.3	-24.3	-24.4	---	---	24.3	ENE	0.41	28.7	-40.6	---	---	723.7	0.030	0.000	18.2	1	1
03/18/06	11:38 p	-24.3	-24.3	-24.4	---	---	30.4	ENE	0.51	33.9	-41.9	---	---	723.5	0.030	0.000	18.2	1	1
03/18/06	11:39 p	-24.4	-24.3	-24.4	---	---	29.6	ENE	0.49	31.3	-41.9	---	---	723.8	0.030	0.000	18.2	1	1
03/18/06	11:40 p	-24.3	-24.3	-24.4	---	---	27.8	ENE	0.46	30.4	-41.4	---	---	723.8	0.030	0.000	18.1	1	1
03/18/06	11:41 p	-24.3	-24.3	-24.4	---	---	23.5	E	0.39	29.6	-40.3	---	---	723.7	0.030	0.000	18.1	1	1
03/18/06	11:42 p	-24.3	-24.3	-24.4	---	---	30.4	ENE	0.51	35.7	-41.9	---	---	723.5	0.030	0.000	18.1	1	1
03/18/06	11:43 p	-24.3	-24.3	-24.3	---	---	31.3	ENE	0.52	33.9	-42.2	---	---	723.8	0.030	0.000	18.1	1	1
03/18/06	11:44 p	-24.3	-24.3	-24.3	---	---	23.5	ENE	0.39	27.8	-40.3	---	---	723.9	0.030	0.000	18.1	1	1
03/18/06	11:45 p	-24.3	-24.3	-24.3	---	---	22.6	ENE	0.38	25.2	-40.1	---	---	723.8	0.030	0.000	18.1	1	1
03/18/06	11:46 p	-24.3	-24.3	-24.3	---	---	25.2	ENE	0.42	33.0	-40.8	---	---	723.6	0.030	0.000	18.1	1	1
03/18/06	11:47 p	-24.3	-24.3	-24.3	---	---	33.0	ENE	0.55	36.5	-42.5	---	---	723.6	0.030	0.000	18.1	1	1
03/18/06	11:48 p	-24.3	-24.3	-24.3	---	---	28.7	ENE	0.48	33.9	-41.5	---	---	723.8	0.030	0.000	18.1	1	1
03/18/06	11:49 p	-24.3	-24.3	-24.3	---	---	23.5	E	0.39	27.8	-40.3	---	---	723.9	0.030	0.000	18.1	1	1
03/18/06	11:50 p	-24.3	-24.3	-24.3	---	---	28.7	E	0.48	32.2	-41.6	---	---	723.7	0.030	0.000	18.1	1	1
03/18/06	11:51 p	-24.3	-24.3	-24.3	---	---	29.6	ENE	0.49	33.0	-41.7	---	---	723.7	0.030	0.000	18.1	1	1
03/18/06	11:52 p	-24.3	-24.3	-24.3	---	---	27.8	ENE	0.46	32.2	-41.3	---	---	723.7	0.030	0.000	18.0	1	1
03/18/06	11:53 p	-24.3	-24.3	-24.3	---	---	28.7	ENE	0.48	31.3	-41.5	---	---	723.7	0.030	0.000	18.0	1	1
03/18/06	11:54 p	-24.3	-24.3	-24.3	---	---	27.0	ENE	0.45	30.4	-41.1	---	---	723.6	0.030	0.000	18.0	1	1
03/18/06	11:55 p	-24.3	-24.3	-24.3	---	---	32.2	E	0.54	36.5	-42.3	---	---	723.5	0.030	0.000	18.0	1	1
03/18/06	11:56 p	-24.3	-24.3	-24.3	---	---	32.2	ENE	0.54	36.5	-42.3	---	---	723.8	0.030	0.000	18.0	1	1
03/18/06	11:57 p	-24.2	-24.2	-24.3	---	---	26.1	ENE	0.43	29.6	-40.8	---	---	723.9	0.030	0.000	18.0	1	1
03/18/06	11:58 p	-24.3	-24.2	-24.3	---	---	27.8	ENE	0.46	32.2	-41.3	---	---	723.7	0.030	0.000	18.0	1	1
03/18/06	11:59 p	-24.2	-24.2	-24.3	---	---	31.3	ENE	0.52	33.9	-42.0	---	---	723.7	0.030	0.000	17.9	1	1
03/19/06	12:00 a	-24.3	-24.2	-24.3	---	---	27.0	ENE	0.45	31.3	-41.1	---	---	724.0	0.030	0.000	17.9	1	1
03/19/06	12:01 a	-24.3	-24.2	-24.3	---	---	24.3	ENE	0.41	27.8	-40.5	---	---	723.8	0.030	0.000	17.9	1	1
03/19/06	12:02 a	-24.3	-24.2	-24.3	---	---	27.8	E	0.46	33.0	-41.3	---	---	723.5	0.030	0.000	17.9	1	1
03/19/06	12:03 a	-24.2	-24.2	-24.2	---	---	31.3	ENE	0.52	34.8	-42.0	---	---	723.6	0.030	0.000	17.9	1	1
03/19/06	12:04 a	-24.2	-24.2	-24.2	---	---	27.0	ENE	0.45	32.2	-41.1	---	---	723.9	0.030	0.000	17.9	1	1
03/19/06	12:05 a	-24.2	-24.2	-24.2	---	---	27.0	ENE	0.45	33.9	-41.1	---	---	723.6	0.030	0.000	17.9	1	1
03/19/06	12:06 a	-24.2	-24.2	-24.3	---	---	30.4	ENE	0.51	35.7	-41.8	---	---	723.8	0.030	0.000	17.9	1	1
03/19/06	12:07 a	-24.2	-24.2	-24.2	---	---	26.1	ENE	0.43	27.8	-40.8	---	---	723.9	0.030	0.000	17.9	1	1
03/19/06	12:08 a	-24.2	-24.2	-24.2	---	---	27.8	ENE	0.46	31.3	-41.2	---	---	723.7	0.030	0.000	17.9	1	1
03/19/06	12:09 a	-24.2	-24.2	-24.2	---	---	26.1	ENE	0.43	30.4	-40.8	---	---	723.9	0.030	0.000	17.9	1	1
03/19/06	12:10 a	-24.2	-24.2	-24.2	---	---	26.1	E	0.43	31.3	-40.8	---	---	723.6	0.030	0.000	17.9	1	1
03/19/06	12:11 a	-24.2	-24.2	-24.2	---	---	30.4	ENE	0.51	33.0	-41.8	---	---	723.6	0.030	0.000	17.9	1	1
03/19/06	12:12 a	-24.2	-24.2	-24.2	---	---	33.9	ENE	0.57	35.7	-42.4	---	---	723.7	0.030	0.000	18.0	1	1
03/19/06	12:13 a	-24.2	-24.2	-24.2	---	---	27.8	ENE	0.46	32.2	-41.2	---	---	724.1	0.030	0.000	18.0	1	1
03/19/06	12:14 a	-24.2	-24.2	-24.2	---	---	20.0	ENE	0.33	23.5	-39.2	---	---	723.9	0.030	0.000	18.1	1	1
03/19/06	12:15 a	-24.2	-24.2	-24.2	---	---	29.6	ENE	0.49	35.7	-41.6	---	---	723.5	0.030	0.000	18.1	1	1
03/19/06	12:16 a	-24.2	-24.2	-24.2	---	---	30.4	E	0.51	33.9	-41.7	---	---	723.5	0.030	0.000	18.1	1	1
03/19/06	12:17 a	-24.2	-24.2	-24.2	---	---	27.8	ENE	0.46	31.3	-41.2	---	---	723.8	0.030	0.000	18.1	1	1
03/19/06	12:18 a	-24.2	-24.1	-24.2	---	---	24.3	ENE	0.41	28.7	-40.3	---	---	723.9	0.030	0.000	18.1	1	1
03/19/06	12:19 a	-24.2	-24.2	-24.2	---	---	24.3	ENE	0.41	28.7	-40.3	---	---	723.7	0.030	0.000	18.1	1	1
03/19/06	12:20 a	-24.2	-24.2	-24.2	---	---	27.8	ENE	0.46	30.4	-41.2	---	---	723.6	0.030	0.000	18.1	1	1
03/19/06	12:21 a	-24.2	-24.1	-24.2	---	---	32.2	ENE	0.54	35.7	-42.1	---	---	723.6	0.030	0.000	18.1	1	1
03/19/06	12:22 a	-24.2	-24.1	-24.2	---	---	29.6	ENE	0.49	31.3	-41.6	---	---	723.7	0.030	0.000	18.1	1	1
03/19/06	12:23 a	-24.2	-24.1	-24.2	---	---	25.2	E	0.42	28.7	-40.6	---	---	723.8	0.030	0.000	18.1	1	1
03/19/06	12:24 a	-24.2	-24.1	-24.2	---	---	27.0	ENE	0.45	29.6	-41.0	---	---	723.7	0.030	0.000	18.1	1	1
03/19/06	12:25 a	-24.1	-24.1	-24.2	---	---	32.2	ENE	0.54	33.9	-42.0	---	---	723.6	0.029	0.000	18.1	1	1
03/19/06	12:26 a	-24.2	-24.1	-24.2	---	---	27.8	E	0.46	32.2	-41.2	---	---	723.8	0.030	0.000	18.1	1	1
03/19/06	12:27 a	-24.1	-24.1	-24.2	---	---	26.1	E	0.43	29.6	-40.7	---	---	723.8	0.029	0.000	18.1	1	1
03/19/06	12:28 a	-24.1	-24.1	-24.1	---	---	27.8	ENE	0.46	32.2	-41.1	---	---	723.7	0.029	0.000	18.0	1	1
03/19/06	12:29 a	-24.1	-24.1	-24.1	---	---	29.6	E	0.49	33.0	-41.5	---	---	723.8	0.029	0.000	18.0	1	1
03/19/06	12:30 a	-24.1	-24.1	-24.2	---	---	27.8	E	0.46	31.3	-41.1	---	---	723.7	0.029	0.000	18.0	1	1
03/19/06	12:31 a	-24.1	-24.1	-24.1	---	---	32.2	ENE	0.54	36.5	-42.0	---	---	723.6	0.029	0.000	18.0	1	1
03/19/06	12:32 a	-24.1	-24.1	-24.1	---	---	28.7	ENE	0.48	32.2	-41.3	---	---	723.7	0.029	0.000	17.9	1	1
03/19/06	12:33 a	-24.1	-24.1	-24.2	---	---	28.7	ENE	0.48	34.8	-41.3	---	---	723.7	0.029	0.000	17.9	1	1
03/19/06	12:34 a	-24.1	-24.1	-24.2	---	---	27.0	ENE	0.45	30.4	-40.9	---	---	723.7	0.029	0.000	17.9	1	1
03/19/06	12:35 a	-24.1	-24.1	-24.1	---	---	28.7	E	0.48	35.7	-41.3	---	---	723.5	0.029	0.000	17.9	1	1
03/19/06	12:36 a	-24.1	-24.1	-24.1	---	---	30.4	ENE	0.51	34.8	-41.7	---	---	723.7	0.029	0.000	17.9	1	1
03/19/06	12:37 a	-24.1	-24.1	-24.1	---	---	25.2	ENE	0.42	30.4	-40.5	---	---	723.9	0.029	0.000	17.9	1	1
03/19/06	12:38 a	-24.1	-24.1	-24.1	---	---	26.1	ENE	0.43	28.7	-40.7	---	---	723.7	0.029	0.000	17.9	1	1
03/19/06	12:39 a	-24.1	-24.1	-24.2	---	---	28.7	E	0.48	33.0	-41.3	---	---	723.5	0.029	0.000	17.9	1	1
03/19/06	12:40 a	-24.1	-24.1	-24.1	---	---	27.8	E	0.46	32.2	-41.1	---	---	723.7	0.029	0.000	17.9	1	1
03/19/06	12:41 a	-24.1	-24.1	-24.1	---	---	27.8	E	0.46	33.9	-41.1	---	---	723.5	0.029	0.000	17.9	1	1
03/19/06	12:42 a	-24.1	-24.1	-24.1	---	---	31.3	ENE	0.52	35.7	-41.8	---	---	723.5	0.029	0.000	17.9	1	1
03/19/06	12:43 a	-24.1	-24.1	-24.1	---	---	30.4	ENE	0.51	34.8	-41.7	---	---	723.7	0.029	0.000	17.8	1	1
03/19/06	12:44 a	-24.1	-24.1	-24.1	---	---	27.0	ENE	0.45	31.3	-40.9	---	---	723.7	0.029	0.000	17.9	1	1
03/19/06	12:45 a	-24.1	-24.1	-24.1	---	---	27.0	E	0.45	32.2	-40.9	---	---	723.6	0.029	0.000	17.9	1	1
03/19/06	12:46 a	-24.1	-24.1	-24.1	---	---	31.3	E	0.52	34.8	-41.8	---	---	723.5	0.029	0.000	17.9	1	1
03/19/06	12:47 a	-24.1	-24.1	-24.1	---	---	28.7	E	0.48	33.9	-41.3	---	---	723.6	0.029	0.000	17.9	1	1
03/19/06	12:48 a	-24.1	-24.1	-24.1	---	---	27.0	E	0.45	30.4	-40.8	---	---	723.7	0.029	0.000	17.9	1	1
03/19/06	12:49 a	-24.1	-24.1	-24.1	---	---	26.1	E	0.43	32.2	-40.7	---	---	723.7	0.029	0.000	17.9	1	1
03/19/06	12:50 a	-24.1	-24.1	-24.1	---	---	27.0	ENE	0.45	29.6	-40.8	---	---	723.7	0.029	0.000	17.9	1	1
03/19/06	12:51 a	-24.1	-24.1	-24.1	---	---	28.7	ENE	0.48	33.0	-41.2	---	---	723.5	0.029	0.000	17.9	1	1
03/19/06	12:52 a	-24.1	-24.1	-24.1	---	---	32.2	ENE	0.54	37.4	-41.9	---	---	723.6	0.029	0.000	18.0	1	1
03/19/06	12:53 a	-24.1	-24.0	-24.1	---	---	28.7	E	0.48	33.0	-41.2	---	---	723.7	0.029	0.000	18.0	1	1
03/19/06	12:54 a	-24.1	-24.1	-24.1	---	---	27.0	ENE	0.45	32.2	-40.8	---	---	723.6	0.029	0.000	18.0	1	1
03/19/06	12:55 a	-24.1	-24.0	-24.1	---	---	31.3	ENE	0.52	34.8	-41.8	---	---	723.8	0.029	0.000	18.1	1	1
03/19/06	12:56 a	-24.1	-24.0	-24.1	---	---	25.2	ENE	0.42	29.6	-40.4	---	---	723.8	0.029	0.000	18.1	1	1
03/19/06	12:57 a	-24.1	-24.0	-24.1	---	---	25.2	ENE	0.42	29.6	-40.4	---	---	723.6	0.029	0.000	18.1	1	1
03/19/06	12:58 a	-24.1	-24.0	-24.1	---	---	25.2	E	0.42	28.7	-40.4	---	---	723.6	0.029	0.000	18.1	1	1
03/19/06	12:59 a	-24.0	-24.0	-24.1	---	---	26.1	E	0.43	31.3	-40.6	---	---	723.6	0.029	0.000	18.2	1	1
03/19/06	1:00 a	-24.0	-24.0	-24.0	---	---	28.7	ENE	0.48	31.3	-41.1	---	---	723.7	0.029	0.000	18.2	1	1
03/19/06	1:01 a	-24.0	-24.0	-24.0	---	---	27.8	ENE	0.46	30.4	-40.9	---	---	723.7	0.029	0.000	18.2	1	1
03/19/06	1:02 a	-24.0	-24.0	-24.1	---	---	28.7	ENE	0.48	31.3	-41.1	---	---	723.6	0.029	0.000	18.2	1	1
03/19/06	1:03 a	-24.0	-24.0	-24.1	---	---	32.2	ENE	0.54	36.5	-41.9	---	---	723.4	0.029	0.000	18.2	1	1
03/19/06	1:04 a	-24.0	-24.0	-24.0	---	---	25.2	E	0.42	29.6	-40.3	---	---	723.7	0.029	0.000	18.2	1	1
03/19/06	1:05 a	-24.0	-24.0	-24.0	---	---	25.2	E	0.42	29.6	-40.3	---	---	723.7	0.029	0.000	18.3	1	1
03/19/06	1:06 a	-24.0	-24.0	-24.0	---	---	21.7	E	0.36	26.1	-39.4	---	---	723.5	0.029	0.000	18.2	1	1
03/19/06	1:07 a	-24.0	-23.9	-24.1	---	---	26.1	E	0.43	31.3	-40.6	---	---	723.6	0.029	0.000	18.2	1	1
03/19/06	1:08 a	-24.0	-23.9	-24.0	---	---	27.0	ENE	0.45	31.3	-40.7	---	---	723.9	0.029	0.000	18.2	1	1
03/19/06	1:09 a	-24.0	-24.0	-24.0	---	---	20.9	ENE	0.35	24.3	-39.2	---	---	723.8	0.029	0.000	18.2	1	1
03/19/06	1:10 a	-24.0	-23.9	-24.0	---	---	22.6	E	0.38	28.7	-39.7	---	---	723.6	0.029	0.000	18.2	1	1
03/19/06	1:11 a	-23.9	-23.9	-24.0	---	---	33.0	E	0.55	36.5	-41.9	---	---	723.4	0.029	0.000	18.2	1	1
03/19/06	1:12 a	-24.0	-23.9	-24.0	---	---	30.4	E	0.51	33.9	-41.5	---	---	723.7	0.029	0.000	18.2	1	1
03/19/06	1:13 a	-24.0	-23.9	-24.0	---	---	26.1	ENE	0.43	29.6	-40.6	---	---	723.6	0.029	0.000	18.2	1	1
03/19/06	1:14 a	-24.0	-23.9	-24.0	---	---	28.7	ENE	0.48	32.2	-41.1	---	---	723.4	0.029	0.000	18.2	1	1
03/19/06	1:15 a	-24.0	-23.9	-24.0	---	---	25.2	E	0.42	31.3	-40.3	---	---	723.6	0.029	0.000	18.2	1	1
03/19/06	1:16 a	-23.9	-23.9	-23.9	---	---	27.0	E	0.45	30.4	-40.7	---	---	723.5	0.029	0.000	18.2	1	1
03/19/06	1:17 a	-23.9	-23.9	-24.0	---	---	27.8	ENE	0.46	32.2	-40.9	---	---	723.5	0.029	0.000	18.1	1	1
03/19/06	1:18 a	-23.9	-23.9	-24.0	---	---	24.3	E	0.41	27.8	-40.1	---	---	723.7	0.029	0.000	18.1	1	1
03/19/06	1:19 a	-23.9	-23.9	-23.9	---	---	22.6	E	0.38	26.1	-39.6	---	---	723.6	0.029	0.000	18.1	1	1
03/19/06	1:20 a	-23.9	-23.9	-23.9	---	---	25.2	E	0.42	28.7	-40.3	---	---	723.8	0.029	0.000	18.1	1	1
03/19/06	1:21 a	-23.9	-23.9	-23.9	---	---	21.7	E	0.36	30.4	-39.3	---	---	723.5	0.029	0.000	18.1	1	1
03/19/06	1:22 a	-23.9	-23.9	-23.9	---	---	29.6	ENE	0.49	35.7	-41.3	---	---	723.3	0.029	0.000	18.1	1	1
03/19/06	1:23 a	-23.9	-23.9	-24.0	---	---	31.3	ENE	0.52	34.8	-41.6	---	---	723.6	0.029	0.000	18.1	1	1
03/19/06	1:24 a	-23.9	-23.9	-24.0	---	---	27.0	ENE	0.45	29.6	-40.7	---	---	723.6	0.029	0.000	18.1	1	1
03/19/06	1:25 a	-23.9	-23.9	-23.9	---	---	28.7	ENE	0.48	33.0	-41.1	---	---	723.5	0.029	0.000	18.1	1	1
03/19/06	1:26 a	-23.9	-23.9	-24.0	---	---	27.0	E	0.45	31.3	-40.7	---	---	723.4	0.029	0.000	18.0	1	1
03/19/06	1:27 a	-23.9	-23.9	-24.0	---	---	29.6	ENE	0.49	32.2	-41.3	---	---	723.6	0.029	0.000	18.0	1	1
03/19/06	1:28 a	-23.9	-23.9	-24.0	---	---	20.9	E	0.35	27.0	-39.1	---	---	723.7	0.029	0.000	18.0	1	1
03/19/06	1:29 a	-23.9	-23.9	-24.0	---	---	21.7	E	0.36	25.2	-39.3	---	---	723.5	0.029	0.000	18.0	1	1
03/19/06	1:30 a	-23.9	-23.9	-23.9	---	---	27.0	E	0.45	33.0	-40.7	---	---	723.4	0.029	0.000	18.0	1	1
03/19/06	1:31 a	-23.9	-23.9	-23.9	---	---	27.8	E	0.46	32.2	-40.9	---	---	723.5	0.029	0.000	18.0	1	1
03/19/06	1:32 a	-23.9	-23.9	-23.9	---	---	27.0	ENE	0.45	29.6	-40.7	---	---	723.5	0.029	0.000	18.0	1	1
03/19/06	1:33 a	-23.9	-23.9	-23.9	---	---	29.6	ENE	0.49	34.8	-41.3	---	---	723.6	0.029	0.000	17.9	1	1
03/19/06	1:34 a	-23.9	-23.9	-23.9	---	---	26.1	E	0.43	33.9	-40.4	---	---	723.4	0.029	0.000	17.9	1	1
03/19/06	1:35 a	-23.9	-23.9	-23.9	---	---	28.7	ENE	0.48	33.9	-41.1	---	---	723.7	0.029	0.000	17.9	1	1
03/19/06	1:36 a	-23.9	-23.9	-23.9	---	---	21.7	E	0.36	25.2	-39.3	---	---	723.7	0.029	0.000	17.9	1	1
03/19/06	1:37 a	-23.9	-23.9	-24.0	---	---	27.0	E	0.45	30.4	-40.7	---	---	723.5	0.029	0.000	17.9	1	1
03/19/06	1:38 a	-23.9	-23.9	-23.9	---	---	28.7	ENE	0.48	31.3	-41.1	---	---	723.5	0.029	0.000	17.9	1	1
03/19/06	1:39 a	-23.9	-23.9	-23.9	---	---	26.1	ENE	0.43	29.6	-40.4	---	---	723.5	0.029	0.000	17.9	1	1
03/19/06	1:40 a	-23.9	-23.9	-23.9	---	---	28.7	ENE	0.48	33.0	-41.1	---	---	723.6	0.029	0.000	17.9	1	1
03/19/06	1:41 a	-23.9	-23.9	-23.9	---	---	24.3	ENE	0.41	29.6	-40.1	---	---	723.6	0.029	0.000	17.9	1	1
03/19/06	1:42 a	-23.9	-23.9	-24.0	---	---	25.2	ENE	0.42	28.7	-40.3	---	---	723.6	0.029	0.000	17.9	1	1
03/19/06	1:43 a	-23.9	-23.9	-23.9	---	---	24.3	E	0.41	27.8	-40.1	---	---	723.5	0.029	0.000	17.9	1	1
03/19/06	1:44 a	-23.9	-23.9	-23.9	---	---	27.0	ENE	0.45	30.4	-40.7	---	---	723.6	0.029	0.000	17.9	1	1
03/19/06	1:45 a	-23.9	-23.9	-24.0	---	---	23.5	ENE	0.39	26.1	-39.8	---	---	723.6	0.029	0.000	18.0	1	1
03/19/06	1:46 a	-23.9	-23.9	-23.9	---	---	23.5	E	0.39	29.6	-39.8	---	---	723.5	0.029	0.000	18.0	1	1
03/19/06	1:47 a	-23.9	-23.9	-23.9	---	---	26.1	ENE	0.43	30.4	-40.4	---	---	723.5	0.029	0.000	18.1	1	1
03/19/06	1:48 a	-23.9	-23.9	-23.9	---	---	27.8	ENE	0.46	31.3	-40.9	---	---	723.6	0.029	0.000	18.1	1	1
03/19/06	1:49 a	-23.9	-23.9	-23.9	---	---	27.0	ENE	0.45	30.4	-40.7	---	---	723.6	0.029	0.000	18.1	1	1
03/19/06	1:50 a	-23.9	-23.9	-23.9	---	---	27.0	ENE	0.45	33.0	-40.7	---	---	723.4	0.029	0.000	18.1	1	1
03/19/06	1:51 a	-23.9	-23.9	-23.9	---	---	26.1	ENE	0.43	33.0	-40.4	---	---	723.6	0.029	0.000	18.1	1	1
03/19/06	1:52 a	-23.9	-23.9	-23.9	---	---	22.6	E	0.38	26.1	-39.6	---	---	723.7	0.029	0.000	18.1	1	1
03/19/06	1:53 a	-23.9	-23.9	-24.0	---	---	25.2	ENE	0.42	29.6	-40.3	---	---	723.5	0.029	0.000	18.2	1	1
03/19/06	1:54 a	-23.9	-23.9	-23.9	---	---	28.7	ENE	0.48	31.3	-41.1	---	---	723.6	0.029	0.000	18.2	1	1
03/19/06	1:55 a	-23.9	-23.9	-24.0	---	---	23.5	ENE	0.39	28.7	-39.8	---	---	723.7	0.029	0.000	18.2	1	1
03/19/06	1:56 a	-23.9	-23.9	-23.9	---	---	18.3	E	0.30	25.2	-38.3	---	---	723.7	0.029	0.000	18.2	1	1
03/19/06	1:57 a	-23.9	-23.9	-24.0	---	---	24.3	E	0.41	29.6	-40.1	---	---	723.5	0.029	0.000	18.2	1	1
03/19/06	1:58 a	-23.9	-23.9	-23.9	---	---	25.2	ENE	0.42	30.4	-40.3	---	---	723.5	0.029	0.000	18.2	1	1
03/19/06	1:59 a	-23.9	-23.9	-24.0	---	---	24.3	ENE	0.41	27.8	-40.1	---	---	723.6	0.029	0.000	18.2	1	1
03/19/06	2:00 a	-23.9	-23.9	-24.0	---	---	27.0	ENE	0.45	33.0	-40.7	---	---	723.3	0.029	0.000	18.2	1	1
03/19/06	2:01 a	-23.9	-23.9	-24.0	---	---	26.1	E	0.43	32.2	-40.4	---	---	723.7	0.029	0.000	18.2	1	1
03/19/06	2:02 a	-23.9	-23.9	-23.9	---	---	24.3	ENE	0.41	27.8	-40.1	---	---	723.5	0.029	0.000	18.2	1	1
03/19/06	2:03 a	-23.9	-23.9	-23.9	---	---	22.6	ENE	0.38	27.0	-39.6	---	---	723.6	0.029	0.000	18.2	1	1
03/19/06	2:04 a	-23.9	-23.9	-24.0	---	---	28.7	ENE	0.48	32.2	-41.1	---	---	723.5	0.029	0.000	18.2	1	1
03/19/06	2:05 a	-23.9	-23.9	-24.0	---	---	27.8	ENE	0.46	30.4	-40.9	---	---	723.5	0.029	0.000	18.2	1	1
03/19/06	2:06 a	-23.9	-23.9	-23.9	---	---	26.1	ENE	0.43	29.6	-40.4	---	---	723.6	0.029	0.000	18.2	1	1
03/19/06	2:07 a	-23.9	-23.9	-23.9	---	---	24.3	ENE	0.41	27.8	-40.1	---	---	723.7	0.029	0.000	18.2	1	1
03/19/06	2:08 a	-23.9	-23.9	-24.0	---	---	20.9	ENE	0.35	23.5	-39.1	---	---	723.6	0.029	0.000	18.1	1	1
03/19/06	2:09 a	-23.9	-23.9	-24.0	---	---	25.2	ENE	0.42	28.7	-40.3	---	---	723.6	0.029	0.000	18.1	1	1
03/19/06	2:10 a	-23.9	-23.9	-24.0	---	---	28.7	ENE	0.48	32.2	-41.1	---	---	723.4	0.029	0.000	18.1	1	1
03/19/06	2:11 a	-23.9	-23.9	-24.0	---	---	29.6	ENE	0.49	33.0	-41.3	---	---	723.4	0.029	0.000	18.1	1	1
03/19/06	2:12 a	-23.9	-23.9	-24.0	---	---	26.1	ENE	0.43	29.6	-40.4	---	---	723.6	0.029	0.000	18.1	1	1
03/19/06	2:13 a	-23.9	-23.9	-23.9	---	---	26.1	ENE	0.43	28.7	-40.4	---	---	723.5	0.029	0.000	18.1	1	1
03/19/06	2:14 a	-23.9	-23.9	-23.9	---	---	25.2	ENE	0.42	27.8	-40.3	---	---	723.6	0.029	0.000	18.1	1	1
03/19/06	2:15 a	-23.9	-23.9	-24.0	---	---	23.5	ENE	0.39	25.2	-39.8	---	---	723.5	0.029	0.000	18.1	1	1
03/19/06	2:16 a	-23.9	-23.9	-23.9	---	---	22.6	ENE	0.38	25.2	-39.6	---	---	723.5	0.029	0.000	18.1	1	1
03/19/06	2:17 a	-23.9	-23.9	-24.0	---	---	28.7	ENE	0.48	31.3	-41.1	---	---	723.4	0.029	0.000	18.1	1	1
03/19/06	2:18 a	-24.0	-23.9	-24.0	---	---	27.8	ENE	0.46	29.6	-40.9	---	---	723.5	0.029	0.000	18.1	1	1
03/19/06	2:19 a	-23.9	-23.9	-24.0	---	---	23.5	ENE	0.39	27.8	-39.8	---	---	723.5	0.029	0.000	18.0	1	1
03/19/06	2:20 a	-23.9	-23.9	-23.9	---	---	18.3	ENE	0.30	21.7	-38.3	---	---	723.7	0.029	0.000	18.0	1	1
03/19/06	2:21 a	-23.9	-23.9	-24.0	---	---	20.9	E	0.35	27.8	-39.1	---	---	723.5	0.029	0.000	18.0	1	1
03/19/06	2:22 a	-23.9	-23.9	-23.9	---	---	25.2	ENE	0.42	27.8	-40.3	---	---	723.4	0.029	0.000	18.0	1	1
03/19/06	2:23 a	-23.9	-23.9	-24.0	---	---	25.2	ENE	0.42	28.7	-40.3	---	---	723.4	0.029	0.000	18.0	1	1
03/19/06	2:24 a	-23.9	-23.9	-24.0	---	---	23.5	ENE	0.39	30.4	-39.8	---	---	723.5	0.029	0.000	18.0	1	1
03/19/06	2:25 a	-24.0	-23.9	-24.0	---	---	26.1	ENE	0.43	31.3	-40.6	---	---	723.6	0.029	0.000	18.0	1	1
03/19/06	2:26 a	-23.9	-23.9	-23.9	---	---	24.3	ENE	0.41	27.0	-40.1	---	---	723.8	0.029	0.000	17.9	1	1
03/19/06	2:27 a	-24.0	-23.9	-24.0	---	---	18.3	ENE	0.30	20.9	-38.4	---	---	723.8	0.029	0.000	17.9	1	1
03/19/06	2:28 a	-24.0	-23.9	-24.0	---	---	13.9	E	0.23	19.1	-36.8	---	---	723.7	0.029	0.000	17.9	1	1
03/19/06	2:29 a	-24.0	-23.9	-24.0	---	---	16.5	E	0.28	23.5	-37.8	---	---	723.4	0.029	0.000	17.9	1	1
03/19/06	2:30 a	-23.9	-23.9	-24.0	---	---	25.2	ENE	0.42	28.7	-40.3	---	---	723.3	0.029	0.000	17.9	1	1
03/19/06	2:31 a	-24.0	-23.9	-24.0	---	---	31.3	ENE	0.52	34.8	-41.7	---	---	723.3	0.029	0.000	17.9	1	1
03/19/06	2:32 a	-24.0	-23.9	-24.0	---	---	24.3	ENE	0.41	28.7	-40.1	---	---	723.7	0.029	0.000	17.9	1	1
03/19/06	2:33 a	-23.9	-23.9	-24.0	---	---	22.6	ENE	0.38	26.1	-39.6	---	---	723.6	0.029	0.000	17.9	1	1
03/19/06	2:34 a	-24.0	-23.9	-24.0	---	---	23.5	ENE	0.39	27.0	-39.9	---	---	723.6	0.029	0.000	17.9	1	1
03/19/06	2:35 a	-24.0	-24.0	-24.0	---	---	25.2	E	0.42	28.7	-40.3	---	---	723.3	0.029	0.000	17.9	1	1
03/19/06	2:36 a	-24.0	-24.0	-24.0	---	---	27.0	E	0.45	32.2	-40.7	---	---	723.7	0.029	0.000	17.9	1	1
03/19/06	2:37 a	-24.0	-24.0	-24.0	---	---	20.9	ENE	0.35	23.5	-39.2	---	---	723.7	0.029	0.000	18.0	1	1
03/19/06	2:38 a	-24.0	-24.0	-24.0	---	---	20.9	ENE	0.35	26.1	-39.2	---	---	723.6	0.029	0.000	18.0	1	1
03/19/06	2:39 a	-24.0	-24.0	-24.0	---	---	26.1	ENE	0.43	32.2	-40.6	---	---	723.3	0.029	0.000	18.1	1	1
03/19/06	2:40 a	-24.0	-24.0	-24.1	---	---	29.6	ENE	0.49	33.0	-41.3	---	---	723.3	0.029	0.000	18.1	1	1
03/19/06	2:41 a	-24.0	-23.9	-24.0	---	---	22.6	ENE	0.38	30.4	-39.7	---	---	723.7	0.029	0.000	18.1	1	1
03/19/06	2:42 a	-24.0	-24.0	-24.1	---	---	20.9	E	0.35	25.2	-39.2	---	---	723.5	0.029	0.000	18.1	1	1
03/19/06	2:43 a	-24.0	-24.0	-24.1	---	---	23.5	E	0.39	27.0	-39.9	---	---	723.4	0.029	0.000	18.1	1	1
03/19/06	2:44 a	-24.0	-24.0	-24.1	---	---	25.2	ENE	0.42	27.8	-40.3	---	---	723.3	0.029	0.000	18.2	1	1
03/19/06	2:45 a	-24.1	-24.0	-24.1	---	---	28.7	ENE	0.48	32.2	-41.2	---	---	723.3	0.029	0.000	18.2	1	1
03/19/06	2:46 a	-24.0	-24.0	-24.0	---	---	27.8	ENE	0.46	32.2	-40.9	---	---	723.4	0.029	0.000	18.2	1	1
03/19/06	2:47 a	-24.0	-24.0	-24.1	---	---	27.0	ENE	0.45	29.6	-40.7	---	---	723.3	0.029	0.000	18.2	1	1
03/19/06	2:48 a	-24.1	-24.0	-24.1	---	---	24.3	ENE	0.41	28.7	-40.2	---	---	723.5	0.029	0.000	18.2	1	1
03/19/06	2:49 a	-24.1	-24.0	-24.1	---	---	23.5	ENE	0.39	27.0	-39.9	---	---	723.4	0.029	0.000	18.2	1	1
03/19/06	2:50 a	-24.1	-24.0	-24.1	---	---	27.0	ENE	0.45	31.3	-40.8	---	---	723.5	0.029	0.000	18.2	1	1
03/19/06	2:51 a	-24.1	-24.1	-24.1	---	---	25.2	ENE	0.42	28.7	-40.4	---	---	723.5	0.029	0.000	18.2	1	1
03/19/06	2:52 a	-24.1	-24.1	-24.1	---	---	25.2	ENE	0.42	28.7	-40.4	---	---	723.4	0.029	0.000	18.1	1	1
03/19/06	2:53 a	-24.1	-24.1	-24.1	---	---	27.8	ENE	0.46	33.0	-41.0	---	---	723.5	0.029	0.000	18.1	1	1
03/19/06	2:54 a	-24.1	-24.1	-24.1	---	---	27.0	ENE	0.45	30.4	-40.9	---	---	723.5	0.029	0.000	18.1	1	1
03/19/06	2:55 a	-24.1	-24.1	-24.1	---	---	25.2	ENE	0.42	30.4	-40.4	---	---	723.3	0.029	0.000	18.1	1	1
03/19/06	2:56 a	-24.1	-24.1	-24.1	---	---	32.2	ENE	0.54	34.8	-41.9	---	---	723.2	0.029	0.000	18.1	1	1
03/19/06	2:57 a	-24.1	-24.1	-24.1	---	---	26.1	ENE	0.43	31.3	-40.7	---	---	723.5	0.029	0.000	18.1	1	1
03/19/06	2:58 a	-24.1	-24.1	-24.1	---	---	25.2	ENE	0.42	33.0	-40.5	---	---	723.2	0.029	0.000	18.1	1	1
03/19/06	2:59 a	-24.1	-24.1	-24.1	---	---	30.4	ENE	0.51	36.5	-41.7	---	---	723.5	0.029	0.000	18.1	1	1
03/19/06	3:00 a	-24.1	-24.1	-24.1	---	---	21.7	ENE	0.36	25.2	-39.6	---	---	723.6	0.029	0.000	18.1	1	1
03/19/06	3:01 a	-24.1	-24.1	-24.1	---	---	19.1	E	0.32	22.6	-38.8	---	---	723.5	0.029	0.000	18.1	1	1
03/19/06	3:02 a	-24.1	-24.1	-24.1	---	---	23.5	ENE	0.39	33.0	-40.1	---	---	723.1	0.029	0.000	18.1	1	1
03/19/06	3:03 a	-24.1	-24.1	-24.1	---	---	29.6	E	0.49	34.8	-41.5	---	---	723.2	0.029	0.000	18.0	1	1
03/19/06	3:04 a	-24.1	-24.1	-24.1	---	---	29.6	ENE	0.49	33.9	-41.5	---	---	723.4	0.029	0.000	18.0	1	1
03/19/06	3:05 a	-24.1	-24.1	-24.1	---	---	27.8	ENE	0.46	30.4	-41.1	---	---	723.5	0.029	0.000	18.0	1	1
03/19/06	3:06 a	-24.1	-24.1	-24.2	---	---	24.3	E	0.41	27.8	-40.3	---	---	723.5	0.029	0.000	18.0	1	1
03/19/06	3:07 a	-24.1	-24.1	-24.2	---	---	19.1	E	0.32	23.5	-38.8	---	---	723.5	0.029	0.000	18.0	1	1
03/19/06	3:08 a	-24.1	-24.1	-24.2	---	---	26.1	ENE	0.43	30.4	-40.7	---	---	723.2	0.029	0.000	18.0	1	1
03/19/06	3:09 a	-24.1	-24.1	-24.2	---	---	28.7	ENE	0.48	31.3	-41.3	---	---	723.3	0.029	0.000	18.0	1	1
03/19/06	3:10 a	-24.1	-24.1	-24.2	---	---	28.7	ENE	0.48	31.3	-41.3	---	---	723.4	0.029	0.000	18.0	1	1
03/19/06	3:11 a	-24.1	-24.1	-24.1	---	---	27.8	ENE	0.46	30.4	-41.1	---	---	723.4	0.029	0.000	17.9	1	1
03/19/06	3:12 a	-24.1	-24.1	-24.2	---	---	27.0	ENE	0.45	29.6	-40.9	---	---	723.3	0.029	0.000	17.9	1	1
03/19/06	3:13 a	-24.1	-24.1	-24.2	---	---	26.1	ENE	0.43	30.4	-40.7	---	---	723.5	0.029	0.000	17.9	1	1
03/19/06	3:14 a	-24.1	-24.1	-24.1	---	---	26.1	ENE	0.43	29.6	-40.7	---	---	723.3	0.029	0.000	17.9	1	1
03/19/06	3:15 a	-24.2	-24.1	-24.2	---	---	27.0	ENE	0.45	32.2	-41.0	---	---	723.2	0.030	0.000	17.9	1	1
03/19/06	3:16 a	-24.2	-24.2	-24.2	---	---	30.4	ENE	0.51	33.9	-41.7	---	---	723.3	0.030	0.000	17.9	1	1
03/19/06	3:17 a	-24.2	-24.2	-24.2	---	---	27.0	ENE	0.45	28.7	-41.0	---	---	723.3	0.030	0.000	17.9	1	1
03/19/06	3:18 a	-24.2	-24.2	-24.2	---	---	26.1	ENE	0.43	28.7	-40.8	---	---	723.6	0.030	0.000	17.9	1	1
03/19/06	3:19 a	-24.2	-24.2	-24.2	---	---	23.5	ENE	0.39	25.2	-40.1	---	---	723.4	0.030	0.000	17.9	1	1
03/19/06	3:20 a	-24.2	-24.2	-24.2	---	---	26.1	ENE	0.43	30.4	-40.8	---	---	723.1	0.030	0.000	17.9	1	1
03/19/06	3:21 a	-24.2	-24.2	-24.2	---	---	29.6	ENE	0.49	31.3	-41.6	---	---	723.3	0.030	0.000	17.9	1	1
03/19/06	3:22 a	-24.2	-24.2	-24.2	---	---	25.2	ENE	0.42	28.7	-40.6	---	---	723.3	0.030	0.000	17.9	1	1
03/19/06	3:23 a	-24.2	-24.2	-24.2	---	---	28.7	ENE	0.48	30.4	-41.4	---	---	723.5	0.030	0.000	17.9	1	1
03/19/06	3:24 a	-24.2	-24.2	-24.2	---	---	26.1	ENE	0.43	31.3	-40.8	---	---	723.2	0.030	0.000	18.0	1	1
03/19/06	3:25 a	-24.2	-24.2	-24.2	---	---	27.0	ENE	0.45	31.3	-41.1	---	---	723.4	0.030	0.000	18.0	1	1
03/19/06	3:26 a	-24.2	-24.2	-24.2	---	---	27.0	ENE	0.45	31.3	-41.1	---	---	723.2	0.030	0.000	18.1	1	1
03/19/06	3:27 a	-24.2	-24.2	-24.2	---	---	28.7	E	0.48	31.3	-41.4	---	---	723.3	0.030	0.000	18.1	1	1
03/19/06	3:28 a	-24.2	-24.2	-24.3	---	---	25.2	ENE	0.42	30.4	-40.6	---	---	723.4	0.030	0.000	18.1	1	1
03/19/06	3:29 a	-24.2	-24.2	-24.2	---	---	25.2	E	0.42	29.6	-40.6	---	---	723.3	0.030	0.000	18.1	1	1
03/19/06	3:30 a	-24.2	-24.2	-24.3	---	---	24.3	ENE	0.41	27.8	-40.4	---	---	723.3	0.030	0.000	18.2	1	1
03/19/06	3:31 a	-24.2	-24.2	-24.2	---	---	24.3	ENE	0.41	27.0	-40.4	---	---	723.4	0.030	0.000	18.2	1	1
03/19/06	3:32 a	-24.2	-24.2	-24.3	---	---	25.2	ENE	0.42	28.7	-40.6	---	---	723.2	0.030	0.000	18.2	1	1
03/19/06	3:33 a	-24.2	-24.2	-24.3	---	---	22.6	ENE	0.38	27.0	-39.9	---	---	723.3	0.030	0.000	18.2	1	1
03/19/06	3:34 a	-24.2	-24.2	-24.3	---	---	25.2	ENE	0.42	28.7	-40.6	---	---	723.2	0.030	0.000	18.2	1	1
03/19/06	3:35 a	-24.2	-24.2	-24.3	---	---	28.7	ENE	0.48	30.4	-41.4	---	---	723.2	0.030	0.000	18.2	1	1
03/19/06	3:36 a	-24.3	-24.2	-24.3	---	---	28.7	ENE	0.48	31.3	-41.5	---	---	723.2	0.030	0.000	18.2	1	1
03/19/06	3:37 a	-24.2	-24.2	-24.3	---	---	28.7	ENE	0.48	29.6	-41.4	---	---	723.3	0.030	0.000	18.2	1	1
03/19/06	3:38 a	-24.3	-24.2	-24.3	---	---	27.8	ENE	0.46	29.6	-41.3	---	---	723.3	0.030	0.000	18.2	1	1
03/19/06	3:39 a	-24.3	-24.3	-24.3	---	---	25.2	ENE	0.42	27.0	-40.7	---	---	723.4	0.030	0.000	18.2	1	1
03/19/06	3:40 a	-24.3	-24.3	-24.3	---	---	23.5	ENE	0.39	26.1	-40.3	---	---	723.4	0.030	0.000	18.1	1	1
03/19/06	3:41 a	-24.3	-24.3	-24.3	---	---	24.3	ENE	0.41	27.8	-40.5	---	---	723.3	0.030	0.000	18.1	1	1
03/19/06	3:42 a	-24.3	-24.3	-24.3	---	---	26.1	ENE	0.43	30.4	-40.9	---	---	723.3	0.030	0.000	18.1	1	1
03/19/06	3:43 a	-24.3	-24.3	-24.3	---	---	25.2	ENE	0.42	27.8	-40.7	---	---	723.4	0.030	0.000	18.1	1	1
03/19/06	3:44 a	-24.3	-24.3	-24.3	---	---	22.6	ENE	0.38	27.0	-40.1	---	---	723.4	0.030	0.000	18.1	1	1
03/19/06	3:45 a	-24.3	-24.3	-24.3	---	---	20.0	ENE	0.33	24.3	-39.3	---	---	723.4	0.030	0.000	18.1	1	1
03/19/06	3:46 a	-24.3	-24.3	-24.3	---	---	27.0	ENE	0.45	29.6	-41.2	---	---	723.2	0.030	0.000	18.1	1	1
03/19/06	3:47 a	-24.3	-24.3	-24.3	---	---	29.6	ENE	0.49	33.0	-41.7	---	---	723.3	0.030	0.000	18.1	1	1
03/19/06	3:48 a	-24.3	-24.3	-24.3	---	---	27.0	ENE	0.45	29.6	-41.1	---	---	723.2	0.030	0.000	18.1	1	1
03/19/06	3:49 a	-24.3	-24.3	-24.3	---	---	27.0	ENE	0.45	30.4	-41.1	---	---	723.4	0.030	0.000	18.1	1	1
03/19/06	3:50 a	-24.3	-24.3	-24.3	---	---	23.5	ENE	0.39	27.8	-40.3	---	---	723.5	0.030	0.000	18.0	1	1
03/19/06	3:51 a	-24.3	-24.3	-24.3	---	---	22.6	ENE	0.38	26.1	-40.1	---	---	723.3	0.030	0.000	18.0	1	1
03/19/06	3:52 a	-24.3	-24.3	-24.3	---	---	26.1	ENE	0.43	29.6	-40.9	---	---	723.5	0.030	0.000	18.0	1	1
03/19/06	3:53 a	-24.3	-24.3	-24.3	---	---	23.5	ENE	0.39	26.1	-40.3	---	---	723.4	0.030	0.000	18.0	1	1
03/19/06	3:54 a	-24.3	-24.3	-24.3	---	---	19.1	E	0.32	27.0	-39.1	---	---	723.5	0.030	0.000	18.0	1	1
03/19/06	3:55 a	-24.3	-24.3	-24.3	---	---	19.1	E	0.32	30.4	-39.1	---	---	723.3	0.030	0.000	18.0	1	1
03/19/06	3:56 a	-24.3	-24.3	-24.3	---	---	24.3	ENE	0.41	35.7	-40.5	---	---	723.0	0.030	0.000	18.0	1	1
03/19/06	3:57 a	-24.3	-24.3	-24.3	---	---	27.8	NE	0.46	33.9	-41.3	---	---	723.1	0.030	0.000	18.0	1	1
03/19/06	3:58 a	-24.3	-24.3	-24.3	---	---	25.2	ENE	0.42	32.2	-40.7	---	---	723.2	0.030	0.000	18.0	1	1
03/19/06	3:59 a	-24.3	-24.3	-24.3	---	---	28.7	ENE	0.48	31.3	-41.6	---	---	723.4	0.030	0.000	18.0	1	1
03/19/06	4:00 a	-24.3	-24.3	-24.3	---	---	22.6	ENE	0.38	27.0	-40.1	---	---	723.5	0.030	0.000	17.9	1	1
03/19/06	4:01 a	-24.3	-24.3	-24.3	---	---	23.5	ENE	0.39	27.0	-40.3	---	---	723.4	0.030	0.000	17.9	1	1
03/19/06	4:02 a	-24.3	-24.3	-24.3	---	---	26.1	ENE	0.43	29.6	-41.0	---	---	723.4	0.030	0.000	17.9	1	1
03/19/06	4:03 a	-24.3	-24.3	-24.3	---	---	25.2	ENE	0.42	29.6	-40.7	---	---	723.3	0.030	0.000	17.9	1	1
03/19/06	4:04 a	-24.3	-24.3	-24.3	---	---	25.2	ENE	0.42	28.7	-40.7	---	---	723.5	0.030	0.000	17.9	1	1
03/19/06	4:05 a	-24.3	-24.3	-24.3	---	---	22.6	ENE	0.38	26.1	-40.1	---	---	723.5	0.030	0.000	17.9	1	1
03/19/06	4:06 a	-24.3	-24.3	-24.3	---	---	18.3	E	0.30	21.7	-38.8	---	---	723.6	0.030	0.000	17.9	1	1
03/19/06	4:07 a	-24.3	-24.3	-24.3	---	---	21.7	ENE	0.36	30.4	-39.8	---	---	723.1	0.030	0.000	17.9	1	1
03/19/06	4:08 a	-24.3	-24.3	-24.3	---	---	29.6	NE	0.49	35.7	-41.7	---	---	723.3	0.030	0.000	17.9	1	1
03/19/06	4:09 a	-24.3	-24.3	-24.3	---	---	24.3	NE	0.41	38.3	-40.5	---	---	723.1	0.030	0.000	17.9	1	1
03/19/06	4:10 a	-24.3	-24.3	-24.3	---	---	27.8	ENE	0.46	35.7	-41.3	---	---	723.5	0.030	0.000	18.0	1	1
03/19/06	4:11 a	-24.3	-24.3	-24.3	---	---	23.5	ENE	0.39	27.0	-40.3	---	---	723.3	0.030	0.000	18.0	1	1
03/19/06	4:12 a	-24.3	-24.3	-24.3	---	---	27.0	ENE	0.45	29.6	-41.1	---	---	723.4	0.030	0.000	18.1	1	1
03/19/06	4:13 a	-24.3	-24.3	-24.3	---	---	24.3	ENE	0.41	26.1	-40.5	---	---	723.5	0.030	0.000	18.1	1	1
03/19/06	4:14 a	-24.3	-24.3	-24.3	---	---	20.9	E	0.35	25.2	-39.6	---	---	723.5	0.030	0.000	18.1	1	1
03/19/06	4:15 a	-24.3	-24.3	-24.3	---	---	18.3	E	0.30	26.1	-38.8	---	---	723.3	0.030	0.000	18.1	1	1
03/19/06	4:16 a	-24.3	-24.3	-24.3	---	---	25.2	ENE	0.42	27.0	-40.7	---	---	723.4	0.030	0.000	18.2	1	1
03/19/06	4:17 a	-24.3	-24.3	-24.3	---	---	27.8	ENE	0.46	32.2	-41.3	---	---	723.1	0.030	0.000	18.2	1	1
03/19/06	4:18 a	-24.3	-24.2	-24.3	---	---	23.5	ENE	0.39	27.8	-40.3	---	---	723.5	0.030	0.000	18.2	1	1
03/19/06	4:19 a	-24.3	-24.3	-24.3	---	---	24.3	ENE	0.41	27.8	-40.5	---	---	723.2	0.030	0.000	18.2	1	1
03/19/06	4:20 a	-24.3	-24.3	-24.3	---	---	27.0	ENE	0.45	28.7	-41.1	---	---	723.3	0.030	0.000	18.2	1	1
03/19/06	4:21 a	-24.3	-24.2	-24.3	---	---	26.1	ENE	0.43	30.4	-40.9	---	---	723.4	0.030	0.000	18.3	1	1
03/19/06	4:22 a	-24.3	-24.3	-24.3	---	---	20.9	E	0.35	24.3	-39.6	---	---	723.4	0.030	0.000	18.3	1	1
03/19/06	4:23 a	-24.3	-24.3	-24.3	---	---	25.2	ENE	0.42	30.4	-40.7	---	---	723.2	0.030	0.000	18.3	1	1
03/19/06	4:24 a	-24.3	-24.3	-24.3	---	---	27.0	ENE	0.45	29.6	-41.1	---	---	723.2	0.030	0.000	18.3	1	1
03/19/06	4:25 a	-24.3	-24.3	-24.3	---	---	24.3	ENE	0.41	27.0	-40.5	---	---	723.2	0.030	0.000	18.3	1	1
03/19/06	4:26 a	-24.3	-24.3	-24.3	---	---	25.2	ENE	0.42	27.8	-40.7	---	---	723.2	0.030	0.000	18.3	1	1
03/19/06	4:27 a	-24.3	-24.3	-24.3	---	---	27.8	ENE	0.46	31.3	-41.3	---	---	723.2	0.030	0.000	18.3	1	1
03/19/06	4:28 a	-24.3	-24.3	-24.3	---	---	25.2	ENE	0.42	27.8	-40.7	---	---	723.2	0.030	0.000	18.3	1	1
03/19/06	4:29 a	-24.3	-24.3	-24.3	---	---	25.2	ENE	0.42	28.7	-40.7	---	---	723.1	0.030	0.000	18.2	1	1
03/19/06	4:30 a	-24.3	-24.3	-24.3	---	---	27.0	ENE	0.45	28.7	-41.1	---	---	723.2	0.030	0.000	18.2	1	1
03/19/06	4:31 a	-24.3	-24.3	-24.3	---	---	25.2	ENE	0.42	28.7	-40.7	---	---	723.3	0.030	0.000	18.2	1	1
03/19/06	4:32 a	-24.3	-24.3	-24.3	---	---	22.6	E	0.38	27.0	-40.1	---	---	723.4	0.030	0.000	18.2	1	1
03/19/06	4:33 a	-24.3	-24.3	-24.3	---	---	22.6	E	0.38	30.4	-40.1	---	---	723.2	0.030	0.000	18.2	1	1
03/19/06	4:34 a	-24.3	-24.3	-24.3	---	---	25.2	ENE	0.42	29.6	-40.7	---	---	723.2	0.030	0.000	18.2	1	1
03/19/06	4:35 a	-24.3	-24.3	-24.3	---	---	23.5	ENE	0.39	27.8	-40.3	---	---	723.3	0.030	0.000	18.2	1	1
03/19/06	4:36 a	-24.3	-24.3	-24.3	---	---	25.2	ENE	0.42	29.6	-40.7	---	---	723.1	0.030	0.000	18.2	1	1
03/19/06	4:37 a	-24.3	-24.3	-24.3	---	---	29.6	ENE	0.49	33.9	-41.8	---	---	723.3	0.030	0.000	18.2	1	1
03/19/06	4:38 a	-24.3	-24.3	-24.3	---	---	25.2	ENE	0.42	28.7	-40.8	---	---	723.2	0.030	0.000	18.2	1	1
03/19/06	4:39 a	-24.3	-24.3	-24.3	---	---	26.1	ENE	0.43	30.4	-41.0	---	---	723.1	0.030	0.000	18.1	1	1
03/19/06	4:40 a	-24.3	-24.3	-24.3	---	---	25.2	ENE	0.42	28.7	-40.8	---	---	723.4	0.030	0.000	18.1	1	1
03/19/06	4:41 a	-24.3	-24.3	-24.3	---	---	24.3	ENE	0.41	27.8	-40.6	---	---	723.2	0.030	0.000	18.1	1	1
03/19/06	4:42 a	-24.3	-24.3	-24.3	---	---	24.3	ENE	0.41	27.0	-40.6	---	---	723.4	0.030	0.000	18.1	1	1
03/19/06	4:43 a	-24.3	-24.3	-24.3	---	---	21.7	ENE	0.36	25.2	-39.9	---	---	723.4	0.030	0.000	18.1	1	1
03/19/06	4:44 a	-24.3	-24.3	-24.3	---	---	21.7	ENE	0.36	25.2	-39.9	---	---	723.3	0.030	0.000	18.1	1	1
03/19/06	4:45 a	-24.3	-24.3	-24.3	---	---	25.2	ENE	0.42	27.8	-40.8	---	---	723.1	0.030	0.000	18.1	1	1
03/19/06	4:46 a	-24.3	-24.3	-24.4	---	---	25.2	ENE	0.42	28.7	-40.8	---	---	723.2	0.030	0.000	18.1	1	1
03/19/06	4:47 a	-24.3	-24.3	-24.3	---	---	27.0	ENE	0.45	31.3	-41.2	---	---	723.1	0.030	0.000	18.1	1	1
03/19/06	4:48 a	-24.3	-24.3	-24.4	---	---	27.8	ENE	0.46	33.0	-41.4	---	---	723.2	0.030	0.000	18.1	1	1
03/19/06	4:49 a	-24.3	-24.3	-24.3	---	---	23.5	E	0.39	28.7	-40.3	---	---	723.2	0.030	0.000	18.1	1	1
03/19/06	4:50 a	-24.3	-24.3	-24.3	---	---	24.3	ENE	0.41	27.8	-40.6	---	---	723.4	0.030	0.000	18.1	1	1
03/19/06	4:51 a	-24.3	-24.3	-24.3	---	---	19.1	E	0.32	21.7	-39.1	---	---	723.3	0.030	0.000	18.1	1	1
03/19/06	4:52 a	-24.3	-24.3	-24.3	---	---	20.9	E	0.35	26.1	-39.6	---	---	723.1	0.030	0.000	18.0	1	1
03/19/06	4:53 a	-24.3	-24.3	-24.4	---	---	24.3	ENE	0.41	27.8	-40.6	---	---	723.2	0.030	0.000	18.0	1	1
03/19/06	4:54 a	-24.3	-24.3	-24.4	---	---	25.2	ENE	0.42	28.7	-40.8	---	---	723.2	0.030	0.000	18.0	1	1
03/19/06	4:55 a	-24.3	-24.3	-24.4	---	---	22.6	ENE	0.38	25.2	-40.1	---	---	723.2	0.030	0.000	18.0	1	1
03/19/06	4:56 a	-24.3	-24.3	-24.3	---	---	22.6	ENE	0.38	27.0	-40.1	---	---	723.3	0.030	0.000	18.0	1	1
03/19/06	4:57 a	-24.3	-24.3	-24.4	---	---	26.1	ENE	0.43	28.7	-41.0	---	---	723.2	0.030	0.000	18.0	1	1
03/19/06	4:58 a	-24.4	-24.3	-24.4	---	---	24.3	ENE	0.41	26.1	-40.7	---	---	723.3	0.030	0.000	18.0	1	1
03/19/06	4:59 a	-24.4	-24.3	-24.4	---	---	24.3	ENE	0.41	27.0	-40.7	---	---	723.2	0.030	0.000	17.9	1	1
03/19/06	5:00 a	-24.3	-24.3	-24.4	---	---	22.6	ENE	0.38	26.1	-40.1	---	---	723.3	0.030	0.000	17.9	1	1
03/19/06	5:01 a	-24.4	-24.3	-24.4	---	---	23.5	ENE	0.39	26.1	-40.4	---	---	723.4	0.030	0.000	17.9	1	1
03/19/06	5:02 a	-24.3	-24.3	-24.4	---	---	19.1	E	0.32	22.6	-39.1	---	---	723.4	0.030	0.000	17.9	1	1
03/19/06	5:03 a	-24.3	-24.3	-24.4	---	---	18.3	E	0.30	22.6	-38.8	---	---	723.3	0.030	0.000	17.9	1	1
03/19/06	5:04 a	-24.3	-24.3	-24.4	---	---	20.9	ENE	0.35	26.1	-39.6	---	---	723.3	0.030	0.000	17.9	1	1
03/19/06	5:05 a	-24.4	-24.3	-24.4	---	---	26.1	ENE	0.43	30.4	-41.1	---	---	723.2	0.030	0.000	17.9	1	1
03/19/06	5:06 a	-24.4	-24.3	-24.4	---	---	27.0	ENE	0.45	31.3	-41.3	---	---	723.2	0.030	0.000	17.9	1	1
03/19/06	5:07 a	-24.4	-24.3	-24.4	---	---	25.2	ENE	0.42	27.8	-40.8	---	---	723.4	0.030	0.000	18.0	1	1
03/19/06	5:08 a	-24.4	-24.4	-24.4	---	---	23.5	ENE	0.39	27.8	-40.4	---	---	723.3	0.030	0.000	18.0	1	1
03/19/06	5:09 a	-24.4	-24.4	-24.4	---	---	26.1	ENE	0.43	27.8	-41.1	---	---	723.3	0.030	0.000	18.0	1	1
03/19/06	5:10 a	-24.4	-24.3	-24.4	---	---	22.6	ENE	0.38	27.0	-40.2	---	---	723.2	0.030	0.000	18.1	1	1
03/19/06	5:11 a	-24.4	-24.3	-24.4	---	---	23.5	ENE	0.39	26.1	-40.4	---	---	723.3	0.030	0.000	18.1	1	1
03/19/06	5:12 a	-24.4	-24.3	-24.4	---	---	22.6	ENE	0.38	26.1	-40.2	---	---	723.2	0.030	0.000	18.1	1	1
03/19/06	5:13 a	-24.4	-24.4	-24.4	---	---	24.3	ENE	0.41	27.0	-40.7	---	---	723.2	0.030	0.000	18.1	1	1
03/19/06	5:14 a	-24.4	-24.4	-24.4	---	---	25.2	ENE	0.42	28.7	-40.8	---	---	723.2	0.030	0.000	18.2	1	1
03/19/06	5:15 a	-24.4	-24.4	-24.4	---	---	26.1	ENE	0.43	27.8	-41.1	---	---	723.2	0.030	0.000	18.2	1	1
03/19/06	5:16 a	-24.4	-24.4	-24.4	---	---	25.2	ENE	0.42	27.0	-40.8	---	---	723.3	0.030	0.000	18.2	1	1
03/19/06	5:17 a	-24.4	-24.4	-24.4	---	---	23.5	ENE	0.39	25.2	-40.4	---	---	723.3	0.030	0.000	18.2	1	1
03/19/06	5:18 a	-24.4	-24.4	-24.4	---	---	22.6	E	0.38	25.2	-40.2	---	---	723.2	0.030	0.000	18.2	1	1
03/19/06	5:19 a	-24.4	-24.4	-24.4	---	---	23.5	ENE	0.39	25.2	-40.4	---	---	723.2	0.030	0.000	18.2	1	1
03/19/06	5:20 a	-24.4	-24.4	-24.4	---	---	24.3	ENE	0.41	27.0	-40.7	---	---	723.2	0.030	0.000	18.2	1	1
03/19/06	5:21 a	-24.4	-24.4	-24.4	---	---	23.5	ENE	0.39	28.7	-40.5	---	---	723.2	0.030	0.000	18.2	1	1
03/19/06	5:22 a	-24.4	-24.4	-24.4	---	---	24.3	ENE	0.41	27.8	-40.7	---	---	723.5	0.030	0.000	18.2	1	1
03/19/06	5:23 a	-24.4	-24.4	-24.4	---	---	19.1	ENE	0.32	22.6	-39.3	---	---	723.5	0.030	0.000	18.2	1	1
03/19/06	5:24 a	-24.4	-24.4	-24.4	---	---	22.6	ENE	0.38	28.7	-40.3	---	---	723.2	0.030	0.000	18.2	1	1
03/19/06	5:25 a	-24.4	-24.4	-24.4	---	---	24.3	ENE	0.41	28.7	-40.7	---	---	723.4	0.030	0.000	18.1	1	1
03/19/06	5:26 a	-24.4	-24.4	-24.4	---	---	19.1	ENE	0.32	23.5	-39.3	---	---	723.4	0.030	0.000	18.1	1	1
03/19/06	5:27 a	-24.4	-24.4	-24.4	---	---	23.5	ENE	0.39	26.1	-40.5	---	---	723.2	0.030	0.000	18.1	1	1
03/19/06	5:28 a	-24.4	-24.4	-24.4	---	---	21.7	ENE	0.36	26.1	-40.0	---	---	723.4	0.030	0.000	18.1	1	1
03/19/06	5:29 a	-24.4	-24.4	-24.4	---	---	19.1	E	0.32	22.6	-39.3	---	---	723.3	0.030	0.000	18.1	1	1
03/19/06	5:30 a	-24.4	-24.4	-24.5	---	---	22.6	ENE	0.38	27.0	-40.3	---	---	723.2	0.030	0.000	18.1	1	1
03/19/06	5:31 a	-24.4	-24.4	-24.5	---	---	26.1	ENE	0.43	28.7	-41.2	---	---	723.3	0.030	0.000	18.1	1	1
03/19/06	5:32 a	-24.4	-24.4	-24.5	---	---	17.4	ENE	0.29	22.6	-38.7	---	---	723.5	0.030	0.000	18.1	1	1
03/19/06	5:33 a	-24.4	-24.4	-24.5	---	---	20.9	E	0.35	24.3	-39.8	---	---	723.3	0.030	0.000	18.1	1	1
03/19/06	5:34 a	-24.4	-24.4	-24.5	---	---	22.6	E	0.38	25.2	-40.3	---	---	723.3	0.030	0.000	18.1	1	1
03/19/06	5:35 a	-24.5	-24.4	-24.5	---	---	21.7	E	0.36	25.2	-40.1	---	---	723.3	0.030	0.000	18.0	1	1
03/19/06	5:36 a	-24.5	-24.4	-24.5	---	---	21.7	ENE	0.36	26.1	-40.1	---	---	723.4	0.030	0.000	18.0	1	1
03/19/06	5:37 a	-24.4	-24.4	-24.5	---	---	21.7	ENE	0.36	26.1	-40.0	---	---	723.4	0.030	0.000	18.0	1	1
03/19/06	5:38 a	-24.5	-24.4	-24.5	---	---	23.5	ENE	0.39	29.6	-40.6	---	---	723.5	0.030	0.000	18.0	1	1
03/19/06	5:39 a	-24.5	-24.4	-24.5	---	---	16.5	ENE	0.28	20.9	-38.4	---	---	723.5	0.030	0.000	18.0	1	1
03/19/06	5:40 a	-24.4	-24.4	-24.5	---	---	27.0	ENE	0.45	29.6	-41.3	---	---	723.4	0.030	0.000	18.0	1	1
03/19/06	5:41 a	-24.5	-24.4	-24.5	---	---	23.5	ENE	0.39	26.1	-40.6	---	---	723.3	0.030	0.000	18.0	1	1
03/19/06	5:42 a	-24.5	-24.4	-24.5	---	---	20.9	E	0.35	24.3	-39.8	---	---	723.5	0.030	0.000	18.0	1	1
03/19/06	5:43 a	-24.4	-24.4	-24.5	---	---	14.8	E	0.25	20.0	-37.7	---	---	723.5	0.030	0.000	17.9	1	1
03/19/06	5:44 a	-24.4	-24.4	-24.5	---	---	17.4	E	0.29	20.0	-38.7	---	---	723.4	0.030	0.000	17.9	1	1
03/19/06	5:45 a	-24.5	-24.4	-24.5	---	---	20.0	ENE	0.33	23.5	-39.6	---	---	723.4	0.030	0.000	17.9	1	1
03/19/06	5:46 a	-24.5	-24.4	-24.5	---	---	22.6	ENE	0.38	27.0	-40.3	---	---	723.5	0.030	0.000	17.9	1	1
03/19/06	5:47 a	-24.5	-24.4	-24.5	---	---	15.7	NE	0.26	22.6	-38.2	---	---	723.7	0.030	0.000	17.9	1	1
03/19/06	5:48 a	-24.5	-24.4	-24.5	---	---	20.0	ENE	0.33	24.3	-39.6	---	---	723.4	0.030	0.000	17.9	1	1
03/19/06	5:49 a	-24.5	-24.4	-24.5	---	---	22.6	ENE	0.38	26.1	-40.3	---	---	723.4	0.030	0.000	17.9	1	1
03/19/06	5:50 a	-24.5	-24.4	-24.5	---	---	20.9	ENE	0.35	25.2	-39.8	---	---	723.5	0.030	0.000	17.9	1	1
03/19/06	5:51 a	-24.5	-24.5	-24.5	---	---	18.3	ENE	0.30	20.9	-39.1	---	---	723.4	0.030	0.000	17.9	1	1
03/19/06	5:52 a	-24.5	-24.5	-24.5	---	---	19.1	ENE	0.32	22.6	-39.3	---	---	723.4	0.030	0.000	17.9	1	1
03/19/06	5:53 a	-24.5	-24.4	-24.5	---	---	18.3	ENE	0.30	21.7	-39.1	---	---	723.5	0.030	0.000	17.9	1	1
03/19/06	5:54 a	-24.5	-24.4	-24.5	---	---	16.5	ENE	0.28	25.2	-38.4	---	---	723.2	0.030	0.000	17.9	1	1
03/19/06	5:55 a	-24.5	-24.5	-24.5	---	---	22.6	ENE	0.38	25.2	-40.3	---	---	723.2	0.030	0.000	17.9	1	1
03/19/06	5:56 a	-24.5	-24.5	-24.5	---	---	23.5	NE	0.39	27.0	-40.6	---	---	723.4	0.030	0.000	18.0	1	1
03/19/06	5:57 a	-24.5	-24.5	-24.5	---	---	20.0	NE	0.33	21.7	-39.6	---	---	723.3	0.030	0.000	18.0	1	1
03/19/06	5:58 a	-24.5	-24.5	-24.6	---	---	22.6	ENE	0.38	26.1	-40.3	---	---	723.4	0.030	0.000	18.1	1	1
03/19/06	5:59 a	-24.5	-24.5	-24.5	---	---	19.1	ENE	0.32	21.7	-39.3	---	---	723.4	0.030	0.000	18.1	1	1
03/19/06	6:00 a	-24.5	-24.5	-24.6	---	---	18.3	ENE	0.30	21.7	-39.1	---	---	723.4	0.030	0.000	18.1	1	1
03/19/06	6:01 a	-24.5	-24.5	-24.6	---	---	20.9	ENE	0.35	22.6	-39.8	---	---	723.3	0.030	0.000	18.1	1	1
03/19/06	6:02 a	-24.5	-24.5	-24.6	---	---	20.0	ENE	0.33	22.6	-39.6	---	---	723.4	0.030	0.000	18.1	1	1
03/19/06	6:03 a	-24.5	-24.5	-24.6	---	---	20.0	ENE	0.33	22.6	-39.6	---	---	723.3	0.030	0.000	18.2	1	1
03/19/06	6:04 a	-24.5	-24.5	-24.5	---	---	19.1	ENE	0.32	22.6	-39.3	---	---	723.4	0.030	0.000	18.2	1	1
03/19/06	6:05 a	-24.5	-24.5	-24.6	---	---	20.9	ENE	0.35	22.6	-39.8	---	---	723.3	0.030	0.000	18.2	1	1
03/19/06	6:06 a	-24.5	-24.5	-24.6	---	---	20.9	ENE	0.35	22.6	-39.8	---	---	723.3	0.030	0.000	18.2	1	1
03/19/06	6:07 a	-24.6	-24.5	-24.6	---	---	20.0	ENE	0.33	21.7	-39.7	---	---	723.2	0.030	0.000	18.2	1	1
03/19/06	6:08 a	-24.5	-24.5	-24.6	---	---	20.9	ENE	0.35	25.2	-39.8	---	---	723.2	0.030	0.000	18.1	1	1
03/19/06	6:09 a	-24.5	-24.5	-24.6	---	---	21.7	ENE	0.36	24.3	-40.1	---	---	723.4	0.030	0.000	18.1	1	1
03/19/06	6:10 a	-24.6	-24.5	-24.6	---	---	20.0	ENE	0.33	22.6	-39.7	---	---	723.2	0.030	0.000	18.1	1	1
03/19/06	6:11 a	-24.5	-24.5	-24.6	---	---	22.6	ENE	0.38	25.2	-40.3	---	---	723.3	0.030	0.000	18.1	1	1
03/19/06	6:12 a	-24.5	-24.5	-24.6	---	---	19.1	ENE	0.32	21.7	-39.3	---	---	723.4	0.030	0.000	18.1	1	1
03/19/06	6:13 a	-24.5	-24.5	-24.6	---	---	18.3	ENE	0.30	21.7	-39.1	---	---	723.2	0.030	0.000	18.1	1	1
03/19/06	6:14 a	-24.6	-24.5	-24.6	---	---	23.5	ENE	0.39	25.2	-40.7	---	---	723.2	0.030	0.000	18.1	1	1
03/19/06	6:15 a	-24.6	-24.5	-24.6	---	---	21.7	ENE	0.36	23.5	-40.2	---	---	723.4	0.030	0.000	18.1	1	1
03/19/06	6:16 a	-24.6	-24.5	-24.6	---	---	20.0	ENE	0.33	21.7	-39.7	---	---	723.4	0.030	0.000	18.1	1	1
03/19/06	6:17 a	-24.5	-24.5	-24.6	---	---	17.4	ENE	0.29	20.9	-38.8	---	---	723.5	0.030	0.000	18.1	1	1
03/19/06	6:18 a	-24.5	-24.5	-24.6	---	---	19.1	ENE	0.32	26.1	-39.3	---	---	723.2	0.030	0.000	18.1	1	1
03/19/06	6:19 a	-24.6	-24.6	-24.6	---	---	24.3	ENE	0.41	27.8	-40.9	---	---	723.3	0.030	0.000	18.1	1	1
03/19/06	6:20 a	-24.6	-24.5	-24.6	---	---	21.7	ENE	0.36	24.3	-40.2	---	---	723.3	0.030	0.000	18.1	1	1
03/19/06	6:21 a	-24.5	-24.5	-24.6	---	---	18.3	ENE	0.30	21.7	-39.1	---	---	723.4	0.030	0.000	18.1	1	1
03/19/06	6:22 a	-24.6	-24.5	-24.6	---	---	15.7	E	0.26	19.1	-38.2	---	---	723.3	0.030	0.000	18.1	1	1
03/19/06	6:23 a	-24.6	-24.6	-24.6	---	---	20.0	ENE	0.33	21.7	-39.7	---	---	723.2	0.030	0.000	18.1	1	1
03/19/06	6:24 a	-24.6	-24.6	-24.6	---	---	23.5	ENE	0.39	25.2	-40.7	---	---	723.2	0.030	0.000	18.0	1	1
03/19/06	6:25 a	-24.6	-24.6	-24.6	---	---	22.6	ENE	0.38	25.2	-40.4	---	---	723.2	0.030	0.000	18.0	1	1
03/19/06	6:26 a	-24.6	-24.6	-24.6	---	---	21.7	ENE	0.36	23.5	-40.2	---	---	723.3	0.030	0.000	18.0	1	1
03/19/06	6:27 a	-24.6	-24.6	-24.6	---	---	18.3	E	0.30	20.9	-39.1	---	---	723.3	0.030	0.000	18.0	1	1
03/19/06	6:28 a	-24.6	-24.6	-24.6	---	---	14.8	E	0.25	19.1	-37.9	---	---	723.3	0.030	0.000	18.0	1	1
03/19/06	6:29 a	-24.6	-24.6	-24.6	---	---	17.4	E	0.29	22.6	-38.8	---	---	723.3	0.030	0.000	18.0	1	1
03/19/06	6:30 a	-24.6	-24.6	-24.6	---	---	20.9	ENE	0.35	24.3	-39.9	---	---	723.3	0.030	0.000	18.0	1	1
03/19/06	6:31 a	-24.6	-24.6	-24.6	---	---	22.6	ENE	0.38	24.3	-40.4	---	---	723.1	0.030	0.000	18.0	1	1
03/19/06	6:32 a	-24.6	-24.6	-24.6	---	---	20.9	ENE	0.35	24.3	-39.9	---	---	723.2	0.030	0.000	17.9	1	1
03/19/06	6:33 a	-24.6	-24.6	-24.6	---	---	21.7	ENE	0.36	23.5	-40.2	---	---	723.1	0.030	0.000	17.9	1	1
03/19/06	6:34 a	-24.6	-24.6	-24.6	---	---	22.6	ENE	0.38	27.0	-40.4	---	---	723.3	0.030	0.000	17.9	1	1
03/19/06	6:35 a	-24.6	-24.6	-24.6	---	---	19.1	ENE	0.32	21.7	-39.4	---	---	723.3	0.030	0.000	17.9	1	1
03/19/06	6:36 a	-24.6	-24.6	-24.6	---	---	20.0	ENE	0.33	27.0	-39.7	---	---	723.0	0.030	0.000	17.9	1	1
03/19/06	6:37 a	-24.6	-24.6	-24.6	---	---	27.0	ENE	0.45	27.8	-41.6	---	---	723.1	0.030	0.000	17.9	1	1
03/19/06	6:38 a	-24.6	-24.6	-24.6	---	---	20.0	ENE	0.33	25.2	-39.7	---	---	723.3	0.030	0.000	17.9	1	1
03/19/06	6:39 a	-24.6	-24.6	-24.6	---	---	19.1	ENE	0.32	20.9	-39.4	---	---	723.2	0.030	0.000	17.9	1	1
03/19/06	6:40 a	-24.6	-24.6	-24.6	---	---	16.5	ENE	0.28	21.7	-38.6	---	---	723.2	0.030	0.000	17.9	1	1
03/19/06	6:41 a	-24.6	-24.6	-24.6	---	---	21.7	ENE	0.36	24.3	-40.2	---	---	723.2	0.030	0.000	17.9	1	1
03/19/06	6:42 a	-24.6	-24.6	-24.6	---	---	21.7	ENE	0.36	24.3	-40.2	---	---	723.3	0.030	0.000	17.9	1	1
03/19/06	6:43 a	-24.6	-24.6	-24.6	---	---	20.9	ENE	0.35	21.7	-40.0	---	---	723.3	0.030	0.000	17.9	1	1
03/19/06	6:44 a	-24.6	-24.6	-24.6	---	---	19.1	ENE	0.32	20.0	-39.4	---	---	723.3	0.030	0.000	17.9	1	1
03/19/06	6:45 a	-24.6	-24.6	-24.6	---	---	18.3	ENE	0.30	23.5	-39.2	---	---	723.1	0.030	0.000	17.9	1	1
03/19/06	6:46 a	-24.6	-24.6	-24.6	---	---	24.3	ENE	0.41	27.0	-40.9	---	---	723.3	0.030	0.000	18.0	1	1
03/19/06	6:47 a	-24.6	-24.6	-24.6	---	---	18.3	ENE	0.30	20.9	-39.2	---	---	723.4	0.030	0.000	18.0	1	1
03/19/06	6:48 a	-24.6	-24.6	-24.6	---	---	20.0	ENE	0.33	22.6	-39.7	---	---	723.2	0.030	0.000	18.1	1	1
03/19/06	6:49 a	-24.6	-24.6	-24.6	---	---	22.6	ENE	0.38	24.3	-40.5	---	---	723.3	0.030	0.000	18.1	1	1
03/19/06	6:50 a	-24.6	-24.6	-24.6	---	---	19.1	ENE	0.32	21.7	-39.4	---	---	723.2	0.030	0.000	18.1	1	1
03/19/06	6:51 a	-24.6	-24.6	-24.6	---	---	20.0	ENE	0.33	21.7	-39.7	---	---	723.2	0.030	0.000	18.1	1	1
03/19/06	6:52 a	-24.6	-24.6	-24.6	---	---	20.9	ENE	0.35	22.6	-40.0	---	---	723.2	0.030	0.000	18.1	1	1
03/19/06	6:53 a	-24.6	-24.6	-24.6	---	---	20.9	ENE	0.35	22.6	-40.0	---	---	723.3	0.030	0.000	18.1	1	1
03/19/06	6:54 a	-24.6	-24.6	-24.6	---	---	13.9	ENE	0.23	19.1	-37.6	---	---	723.4	0.030	0.000	18.1	1	1
03/19/06	6:55 a	-24.6	-24.6	-24.6	---	---	21.7	ENE	0.36	27.0	-40.2	---	---	723.1	0.030	0.000	18.1	1	1
03/19/06	6:56 a	-24.6	-24.6	-24.7	---	---	21.7	ENE	0.36	23.5	-40.2	---	---	723.3	0.030	0.000	18.1	1	1
03/19/06	6:57 a	-24.6	-24.6	-24.6	---	---	18.3	ENE	0.30	21.7	-39.2	---	---	723.4	0.030	0.000	18.1	1	1
03/19/06	6:58 a	-24.6	-24.6	-24.6	---	---	15.7	ENE	0.26	18.3	-38.3	---	---	723.4	0.030	0.000	18.1	1	1
03/19/06	6:59 a	-24.6	-24.6	-24.6	---	---	21.7	ENE	0.36	26.1	-40.2	---	---	723.2	0.030	0.000	18.1	1	1
03/19/06	7:00 a	-24.6	-24.6	-24.6	---	---	22.6	ENE	0.38	25.2	-40.5	---	---	723.4	0.030	0.000	18.1	1	1
03/19/06	7:01 a	-24.6	-24.6	-24.6	---	---	18.3	ENE	0.30	21.7	-39.2	---	---	723.5	0.030	0.000	18.1	1	1
03/19/06	7:02 a	-24.6	-24.6	-24.6	---	---	15.7	ENE	0.26	21.7	-38.3	---	---	723.3	0.030	0.000	18.1	1	1
03/19/06	7:03 a	-24.6	-24.6	-24.6	---	---	23.5	ENE	0.39	25.2	-40.7	---	---	723.2	0.030	0.000	18.1	1	1
03/19/06	7:04 a	-24.6	-24.6	-24.6	---	---	19.1	ENE	0.32	23.5	-39.4	---	---	723.3	0.030	0.000	18.1	1	1
03/19/06	7:05 a	-24.6	-24.6	-24.6	---	---	18.3	ENE	0.30	22.6	-39.2	---	---	723.2	0.030	0.000	18.1	1	1
03/19/06	7:06 a	-24.6	-24.6	-24.6	---	---	20.9	ENE	0.35	22.6	-40.0	---	---	723.3	0.030	0.000	18.1	1	1
03/19/06	7:07 a	-24.6	-24.6	-24.6	---	---	20.0	ENE	0.33	22.6	-39.7	---	---	723.3	0.030	0.000	18.0	1	1
03/19/06	7:08 a	-24.6	-24.6	-24.6	---	---	15.7	ENE	0.26	18.3	-38.3	---	---	723.3	0.030	0.000	18.0	1	1
03/19/06	7:09 a	-24.6	-24.6	-24.6	---	---	21.7	ENE	0.36	24.3	-40.2	---	---	723.1	0.030	0.000	18.0	1	1
03/19/06	7:10 a	-24.6	-24.6	-24.6	---	---	18.3	ENE	0.30	21.7	-39.2	---	---	723.3	0.030	0.000	18.0	1	1
03/19/06	7:11 a	-24.6	-24.6	-24.6	---	---	17.4	ENE	0.29	23.5	-38.9	---	---	723.1	0.030	0.000	18.0	1	1
03/19/06	7:12 a	-24.6	-24.6	-24.6	---	---	20.0	ENE	0.33	23.5	-39.7	---	---	723.2	0.030	0.000	18.0	1	1
03/19/06	7:13 a	-24.6	-24.6	-24.6	---	---	17.4	ENE	0.29	26.1	-38.8	---	---	723.2	0.030	0.000	18.0	1	1
03/19/06	7:14 a	-24.6	-24.6	-24.6	---	---	22.6	ENE	0.38	27.0	-40.4	---	---	723.3	0.030	0.000	18.0	1	1
03/19/06	7:15 a	-24.6	-24.6	-24.6	---	---	13.9	ENE	0.23	19.1	-37.6	---	---	723.3	0.030	0.000	18.0	1	1
03/19/06	7:16 a	-24.6	-24.6	-24.6	---	---	19.1	ENE	0.32	22.6	-39.4	---	---	723.3	0.030	0.000	18.0	1	1
03/19/06	7:17 a	-24.6	-24.6	-24.6	---	---	18.3	ENE	0.30	26.1	-39.1	---	---	723.0	0.030	0.000	18.0	1	1
03/19/06	7:18 a	-24.6	-24.6	-24.6	---	---	20.9	ENE	0.35	24.3	-39.9	---	---	723.2	0.030	0.000	18.0	1	1
03/19/06	7:19 a	-24.6	-24.6	-24.6	---	---	14.8	ENE	0.25	19.1	-37.9	---	---	723.3	0.030	0.000	17.9	1	1
03/19/06	7:20 a	-24.6	-24.6	-24.6	---	---	23.5	ENE	0.39	27.0	-40.7	---	---	723.0	0.030	0.000	18.0	1	1
03/19/06	7:21 a	-24.6	-24.6	-24.6	---	---	20.9	ENE	0.35	25.2	-39.9	---	---	723.2	0.030	0.000	17.9	1	1
03/19/06	7:22 a	-24.6	-24.6	-24.6	---	---	15.7	ENE	0.26	20.9	-38.2	---	---	723.2	0.030	0.000	17.9	1	1
03/19/06	7:23 a	-24.6	-24.6	-24.6	---	---	17.4	E	0.29	22.6	-38.8	---	---	723.1	0.030	0.000	17.9	1	1
03/19/06	7:24 a	-24.6	-24.6	-24.6	---	---	20.0	NE	0.33	23.5	-39.7	---	---	723.2	0.030	0.000	17.9	1	1
03/19/06	7:25 a	-24.6	-24.6	-24.6	---	---	20.9	ENE	0.35	25.2	-39.9	---	---	723.3	0.030	0.000	17.9	1	1
03/19/06	7:26 a	-24.6	-24.6	-24.6	---	---	14.8	ENE	0.25	17.4	-37.9	---	---	723.2	0.030	0.000	17.9	1	1
03/19/06	7:27 a	-24.6	-24.6	-24.6	---	---	22.6	ENE	0.38	25.2	-40.4	---	---	723.1	0.030	0.000	17.9	1	1
03/19/06	7:28 a	-24.6	-24.6	-24.6	---	---	20.9	ENE	0.35	24.3	-39.9	---	---	723.2	0.030	0.000	17.9	1	1
03/19/06	7:29 a	-24.6	-24.6	-24.6	---	---	13.9	ENE	0.23	16.5	-37.6	---	---	723.3	0.030	0.000	17.9	1	1
03/19/06	7:30 a	-24.6	-24.6	-24.6	---	---	19.1	ENE	0.32	25.2	-39.4	---	---	723.1	0.030	0.000	17.9	1	1
03/19/06	7:31 a	-24.6	-24.6	-24.6	---	---	22.6	ENE	0.38	25.2	-40.4	---	---	723.1	0.030	0.000	17.9	1	1
03/19/06	7:32 a	-24.6	-24.6	-24.6	---	---	20.0	ENE	0.33	24.3	-39.7	---	---	723.3	0.030	0.000	17.9	1	1
03/19/06	7:33 a	-24.6	-24.6	-24.6	---	---	13.0	ENE	0.22	17.4	-37.2	---	---	723.2	0.030	0.000	17.9	1	1
03/19/06	7:34 a	-24.6	-24.6	-24.6	---	---	20.0	ENE	0.33	23.5	-39.7	---	---	723.1	0.030	0.000	17.9	1	1
03/19/06	7:35 a	-24.6	-24.6	-24.6	---	---	20.0	ENE	0.33	21.7	-39.7	---	---	723.1	0.030	0.000	18.0	1	1
03/19/06	7:36 a	-24.6	-24.6	-24.6	---	---	18.3	ENE	0.30	20.9	-39.1	---	---	723.1	0.030	0.000	18.0	1	1
03/19/06	7:37 a	-24.6	-24.6	-24.6	---	---	20.0	ENE	0.33	22.6	-39.7	---	---	723.2	0.030	0.000	18.1	1	1
03/19/06	7:38 a	-24.6	-24.6	-24.6	---	---	20.0	ENE	0.33	22.6	-39.7	---	---	723.1	0.030	0.000	18.1	1	1
03/19/06	7:39 a	-24.6	-24.6	-24.6	---	---	16.5	ENE	0.28	20.9	-38.6	---	---	723.2	0.030	0.000	18.1	1	1
03/19/06	7:40 a	-24.6	-24.6	-24.6	---	---	20.9	ENE	0.35	22.6	-39.9	---	---	723.0	0.030	0.000	18.1	1	1
03/19/06	7:41 a	-24.6	-24.6	-24.6	---	---	17.4	ENE	0.29	20.9	-38.8	---	---	723.2	0.030	0.000	18.1	1	1
03/19/06	7:42 a	-24.6	-24.6	-24.6	---	---	14.8	ENE	0.25	20.0	-37.9	---	---	723.2	0.030	0.000	18.1	1	1
03/19/06	7:43 a	-24.6	-24.6	-24.6	---	---	21.7	ENE	0.36	24.3	-40.2	---	---	723.1	0.030	0.000	18.1	1	1
03/19/06	7:44 a	-24.6	-24.6	-24.6	---	---	17.4	ENE	0.29	20.9	-38.8	---	---	723.2	0.030	0.000	18.1	1	1
03/19/06	7:45 a	-24.6	-24.6	-24.6	---	---	16.5	ENE	0.28	24.3	-38.6	---	---	723.0	0.030	0.000	18.1	1	1
03/19/06	7:46 a	-24.6	-24.5	-24.6	---	---	21.7	ENE	0.36	25.2	-40.2	---	---	723.1	0.030	0.000	18.1	1	1
03/19/06	7:47 a	-24.6	-24.6	-24.6	---	---	16.5	ENE	0.28	21.7	-38.6	---	---	723.1	0.030	0.000	18.1	1	1
03/19/06	7:48 a	-24.6	-24.5	-24.6	---	---	20.9	ENE	0.35	23.5	-39.9	---	---	723.1	0.030	0.000	18.1	1	1
03/19/06	7:49 a	-24.6	-24.6	-24.6	---	---	15.7	ENE	0.26	21.7	-38.2	---	---	723.0	0.030	0.000	18.1	1	1
03/19/06	7:50 a	-24.6	-24.6	-24.6	---	---	20.9	ENE	0.35	24.3	-39.9	---	---	723.1	0.030	0.000	18.1	1	1
03/19/06	7:51 a	-24.6	-24.6	-24.6	---	---	14.8	ENE	0.25	20.0	-37.9	---	---	723.2	0.030	0.000	18.1	1	1
03/19/06	7:52 a	-24.6	-24.6	-24.6	---	---	22.6	ENE	0.38	24.3	-40.4	---	---	723.1	0.030	0.000	18.1	1	1
03/19/06	7:53 a	-24.6	-24.5	-24.6	---	---	15.7	ENE	0.26	23.5	-38.2	---	---	723.1	0.030	0.000	18.1	1	1
03/19/06	7:54 a	-24.6	-24.6	-24.6	---	---	23.5	ENE	0.39	25.2	-40.7	---	---	723.1	0.030	0.000	18.1	1	1
03/19/06	7:55 a	-24.6	-24.6	-24.6	---	---	18.3	ENE	0.30	22.6	-39.1	---	---	723.1	0.030	0.000	18.1	1	1
03/19/06	7:56 a	-24.6	-24.6	-24.6	---	---	18.3	ENE	0.30	20.9	-39.1	---	---	723.0	0.030	0.000	18.1	1	1
03/19/06	7:57 a	-24.6	-24.6	-24.6	---	---	21.7	ENE	0.36	23.5	-40.2	---	---	723.1	0.030	0.000	18.1	1	1
03/19/06	7:58 a	-24.6	-24.6	-24.6	---	---	20.9	ENE	0.35	22.6	-39.9	---	---	723.1	0.030	0.000	18.0	1	1
03/19/06	7:59 a	-24.6	-24.5	-24.6	---	---	18.3	ENE	0.30	20.9	-39.1	---	---	723.1	0.030	0.000	18.0	1	1
03/19/06	8:00 a	-24.6	-24.6	-24.6	---	---	20.9	ENE	0.35	24.3	-39.9	---	---	722.9	0.030	0.000	18.0	1	1
03/19/06	8:01 a	-24.6	-24.6	-24.6	---	---	19.1	ENE	0.32	21.7	-39.4	---	---	723.0	0.030	0.000	18.0	1	1
03/19/06	8:02 a	-24.6	-24.5	-24.6	---	---	19.1	ENE	0.32	22.6	-39.4	---	---	723.0	0.030	0.000	18.0	1	1
03/19/06	8:03 a	-24.6	-24.6	-24.6	---	---	20.9	ENE	0.35	22.6	-39.9	---	---	723.0	0.030	0.000	18.0	1	1
03/19/06	8:04 a	-24.6	-24.6	-24.6	---	---	15.7	ENE	0.26	19.1	-38.2	---	---	723.2	0.030	0.000	18.0	1	1
03/19/06	8:05 a	-24.6	-24.6	-24.6	---	---	20.0	ENE	0.33	24.3	-39.7	---	---	723.1	0.030	0.000	18.0	1	1
03/19/06	8:06 a	-24.6	-24.6	-24.6	---	---	15.7	ENE	0.26	20.9	-38.2	---	---	723.1	0.030	0.000	18.0	1	1
03/19/06	8:07 a	-24.6	-24.6	-24.6	---	---	20.9	ENE	0.35	23.5	-39.9	---	---	723.1	0.030	0.000	18.0	1	1
03/19/06	8:08 a	-24.6	-24.6	-24.6	---	---	16.5	ENE	0.28	20.9	-38.6	---	---	723.2	0.030	0.000	17.9	1	1
03/19/06	8:09 a	-24.6	-24.5	-24.6	---	---	16.5	ENE	0.28	20.9	-38.6	---	---	723.1	0.030	0.000	17.9	1	1
03/19/06	8:10 a	-24.6	-24.6	-24.6	---	---	20.0	ENE	0.33	21.7	-39.7	---	---	723.1	0.030	0.000	17.9	1	1
03/19/06	8:11 a	-24.6	-24.5	-24.6	---	---	19.1	ENE	0.32	21.7	-39.4	---	---	723.1	0.030	0.000	17.9	1	1
03/19/06	8:12 a	-24.6	-24.6	-24.6	---	---	18.3	ENE	0.30	19.1	-39.1	---	---	723.1	0.030	0.000	17.9	1	1
03/19/06	8:13 a	-24.6	-24.6	-24.6	---	---	20.9	ENE	0.35	21.7	-39.9	---	---	723.0	0.030	0.000	17.9	1	1
03/19/06	8:14 a	-24.6	-24.6	-24.6	---	---	19.1	ENE	0.32	20.9	-39.4	---	---	723.0	0.030	0.000	17.9	1	1
03/19/06	8:15 a	-24.6	-24.6	-24.6	---	---	19.1	ENE	0.32	20.9	-39.4	---	---	722.9	0.030	0.000	17.9	1	1
03/19/06	8:16 a	-24.6	-24.6	-24.6	---	---	19.1	ENE	0.32	21.7	-39.4	---	---	723.0	0.030	0.000	17.9	1	1
03/19/06	8:17 a	-24.6	-24.6	-24.6	---	---	19.1	ENE	0.32	22.6	-39.4	---	---	723.1	0.030	0.000	17.9	1	1
03/19/06	8:18 a	-24.6	-24.6	-24.6	---	---	19.1	ENE	0.32	21.7	-39.4	---	---	723.1	0.030	0.000	17.9	1	1
03/19/06	8:19 a	-24.6	-24.6	-24.6	---	---	19.1	ENE	0.32	22.6	-39.4	---	---	723.0	0.030	0.000	17.9	1	1
03/19/06	8:20 a	-24.6	-24.5	-24.6	---	---	21.7	ENE	0.36	24.3	-40.2	---	---	722.9	0.030	0.000	17.9	1	1
03/19/06	8:21 a	-24.6	-24.6	-24.6	---	---	18.3	ENE	0.30	22.6	-39.1	---	---	723.0	0.030	0.000	17.9	1	1
03/19/06	8:22 a	-24.6	-24.5	-24.6	---	---	20.0	ENE	0.33	23.5	-39.7	---	---	723.1	0.030	0.000	17.9	1	1
03/19/06	8:23 a	-24.5	-24.5	-24.6	---	---	15.7	ENE	0.26	21.7	-38.2	---	---	723.0	0.030	0.000	17.9	1	1
03/19/06	8:24 a	-24.6	-24.6	-24.6	---	---	21.7	ENE	0.36	23.5	-40.2	---	---	723.0	0.030	0.000	17.9	1	1
03/19/06	8:25 a	-24.6	-24.6	-24.6	---	---	20.0	ENE	0.33	23.5	-39.7	---	---	723.0	0.030	0.000	17.9	1	1
03/19/06	8:26 a	-24.6	-24.6	-24.6	---	---	19.1	ENE	0.32	22.6	-39.4	---	---	722.9	0.030	0.000	17.9	1	1
03/19/06	8:27 a	-24.6	-24.6	-24.6	---	---	20.9	ENE	0.35	23.5	-39.9	---	---	723.0	0.030	0.000	17.9	1	1
03/19/06	8:28 a	-24.6	-24.6	-24.6	---	---	20.9	ENE	0.35	22.6	-39.9	---	---	722.9	0.030	0.000	18.0	1	1
03/19/06	8:29 a	-24.6	-24.5	-24.6	---	---	20.0	ENE	0.33	22.6	-39.7	---	---	723.0	0.030	0.000	18.0	1	1
03/19/06	8:30 a	-24.6	-24.5	-24.6	---	---	19.1	ENE	0.32	21.7	-39.4	---	---	723.0	0.030	0.000	18.1	1	1
03/19/06	8:31 a	-24.6	-24.6	-24.6	---	---	20.0	ENE	0.33	22.6	-39.7	---	---	723.0	0.030	0.000	18.1	1	1
03/19/06	8:32 a	-24.6	-24.5	-24.6	---	---	20.0	ENE	0.33	22.6	-39.7	---	---	723.0	0.030	0.000	18.1	1	1
03/19/06	8:33 a	-24.6	-24.6	-24.6	---	---	17.4	ENE	0.29	20.9	-38.8	---	---	723.0	0.030	0.000	18.1	1	1
03/19/06	8:34 a	-24.6	-24.6	-24.6	---	---	20.0	ENE	0.33	22.6	-39.7	---	---	722.9	0.030	0.000	18.1	1	1
03/19/06	8:35 a	-24.6	-24.5	-24.6	---	---	20.9	ENE	0.35	22.6	-39.9	---	---	723.0	0.030	0.000	18.2	1	1
03/19/06	8:36 a	-24.6	-24.5	-24.6	---	---	18.3	ENE	0.30	20.9	-39.1	---	---	723.0	0.030	0.000	18.2	1	1
03/19/06	8:37 a	-24.6	-24.5	-24.6	---	---	20.0	ENE	0.33	21.7	-39.7	---	---	722.9	0.030	0.000	18.2	1	1
03/19/06	8:38 a	-24.6	-24.6	-24.6	---	---	20.0	ENE	0.33	21.7	-39.7	---	---	723.0	0.030	0.000	18.2	1	1
03/19/06	8:39 a	-24.6	-24.5	-24.6	---	---	19.1	ENE	0.32	22.6	-39.4	---	---	722.9	0.030	0.000	18.2	1	1
03/19/06	8:40 a	-24.6	-24.5	-24.6	---	---	17.4	ENE	0.29	21.7	-38.8	---	---	723.0	0.030	0.000	18.1	1	1
03/19/06	8:41 a	-24.6	-24.5	-24.6	---	---	20.9	ENE	0.35	25.2	-39.9	---	---	722.9	0.030	0.000	18.1	1	1
03/19/06	8:42 a	-24.6	-24.5	-24.6	---	---	19.1	ENE	0.32	22.6	-39.4	---	---	723.0	0.030	0.000	18.1	1	1
03/19/06	8:43 a	-24.6	-24.5	-24.6	---	---	20.0	ENE	0.33	22.6	-39.7	---	---	722.8	0.030	0.000	18.1	1	1
03/19/06	8:44 a	-24.5	-24.5	-24.6	---	---	18.3	ENE	0.30	20.9	-39.1	---	---	722.9	0.030	0.000	18.1	1	1
03/19/06	8:45 a	-24.6	-24.5	-24.6	---	---	18.3	ENE	0.30	20.0	-39.1	---	---	722.8	0.030	0.000	18.1	1	1
03/19/06	8:46 a	-24.6	-24.5	-24.6	---	---	19.1	ENE	0.32	21.7	-39.4	---	---	722.8	0.030	0.000	18.1	1	1
03/19/06	8:47 a	-24.5	-24.5	-24.6	---	---	20.9	ENE	0.35	22.6	-39.8	---	---	722.8	0.030	0.000	18.1	1	1
03/19/06	8:48 a	-24.6	-24.5	-24.6	---	---	17.4	ENE	0.29	20.0	-38.8	---	---	723.1	0.030	0.000	18.1	1	1
03/19/06	8:49 a	-24.5	-24.5	-24.6	---	---	20.0	ENE	0.33	25.2	-39.6	---	---	722.8	0.030	0.000	18.1	1	1
03/19/06	8:50 a	-24.5	-24.5	-24.6	---	---	22.6	ENE	0.38	24.3	-40.3	---	---	722.8	0.030	0.000	18.1	1	1
03/19/06	8:51 a	-24.5	-24.5	-24.6	---	---	14.8	ENE	0.25	19.1	-37.8	---	---	723.0	0.030	0.000	18.1	1	1
03/19/06	8:52 a	-24.5	-24.5	-24.5	---	---	19.1	ENE	0.32	26.1	-39.3	---	---	722.7	0.030	0.000	18.1	1	1
03/19/06	8:53 a	-24.5	-24.5	-24.6	---	---	23.5	ENE	0.39	26.1	-40.6	---	---	722.9	0.030	0.000	18.1	1	1
03/19/06	8:54 a	-24.5	-24.5	-24.5	---	---	19.1	ENE	0.32	20.9	-39.3	---	---	723.0	0.030	0.000	18.1	1	1
03/19/06	8:55 a	-24.5	-24.4	-24.6	---	---	16.5	ENE	0.28	18.3	-38.4	---	---	722.8	0.030	0.000	18.1	1	1
03/19/06	8:56 a	-24.4	-24.4	-24.5	---	---	20.0	ENE	0.33	25.2	-39.5	---	---	722.8	0.030	0.000	18.1	1	1
03/19/06	8:57 a	-24.5	-24.5	-24.6	---	---	20.0	ENE	0.33	21.7	-39.6	---	---	722.9	0.030	0.000	18.0	1	1
03/19/06	8:58 a	-24.5	-24.5	-24.5	---	---	18.3	ENE	0.30	20.9	-39.1	---	---	722.9	0.030	0.000	18.0	1	1
03/19/06	8:59 a	-24.5	-24.5	-24.5	---	---	16.5	ENE	0.28	19.1	-38.4	---	---	722.8	0.030	0.000	18.0	1	1
03/19/06	9:00 a	-24.5	-24.5	-24.5	---	---	13.9	E	0.23	17.4	-37.5	---	---	722.9	0.030	0.000	18.0	1	1
03/19/06	9:01 a	-24.5	-24.5	-24.5	---	---	21.7	ENE	0.36	26.1	-40.1	---	---	722.8	0.030	0.000	18.0	1	1
03/19/06	9:02 a	-24.5	-24.5	-24.5	---	---	19.1	ENE	0.32	20.9	-39.3	---	---	722.9	0.030	0.000	18.0	1	1
03/19/06	9:03 a	-24.5	-24.5	-24.5	---	---	19.1	ENE	0.32	20.9	-39.3	---	---	722.9	0.030	0.000	18.0	1	1
03/19/06	9:04 a	-24.5	-24.5	-24.5	---	---	18.3	ENE	0.30	20.0	-39.1	---	---	723.1	0.030	0.000	18.0	1	1
03/19/06	9:05 a	-24.5	-24.4	-24.5	---	---	13.0	ENE	0.22	22.6	-37.1	---	---	722.9	0.030	0.000	18.0	1	1
03/19/06	9:06 a	-24.5	-24.5	-24.5	---	---	20.9	ENE	0.35	22.6	-39.8	---	---	722.8	0.030	0.000	17.9	1	1
03/19/06	9:07 a	-24.5	-24.4	-24.6	---	---	21.7	ENE	0.36	22.6	-40.1	---	---	722.8	0.030	0.000	17.9	1	1
03/19/06	9:08 a	-24.5	-24.4	-24.5	---	---	18.3	ENE	0.30	22.6	-39.1	---	---	723.1	0.030	0.000	17.9	1	1
03/19/06	9:09 a	-24.5	-24.4	-24.5	---	---	10.4	ENE	0.17	20.9	-35.9	---	---	722.9	0.030	0.000	17.9	1	1
03/19/06	9:10 a	-24.4	-24.4	-24.5	---	---	20.9	ENE	0.35	22.6	-39.8	---	---	722.9	0.030	0.000	17.9	1	1
03/19/06	9:11 a	-24.5	-24.4	-24.5	---	---	18.3	ENE	0.30	20.0	-39.1	---	---	722.8	0.030	0.000	17.9	1	1
03/19/06	9:12 a	-24.4	-24.4	-24.5	---	---	20.0	ENE	0.33	21.7	-39.5	---	---	722.9	0.030	0.000	17.9	1	1
03/19/06	9:13 a	-24.4	-24.4	-24.5	---	---	16.5	ENE	0.28	18.3	-38.4	---	---	722.9	0.030	0.000	17.9	1	1
03/19/06	9:14 a	-24.5	-24.4	-24.5	---	---	19.1	ENE	0.32	21.7	-39.3	---	---	722.9	0.030	0.000	17.9	1	1
03/19/06	9:15 a	-24.5	-24.4	-24.5	---	---	17.4	NE	0.29	20.0	-38.8	---	---	722.9	0.030	0.000	17.9	1	1
03/19/06	9:16 a	-24.4	-24.4	-24.4	---	---	19.1	ENE	0.32	21.7	-39.3	---	---	722.9	0.030	0.000	17.9	1	1
03/19/06	9:17 a	-24.4	-24.4	-24.4	---	---	18.3	ENE	0.30	20.0	-39.0	---	---	722.9	0.030	0.000	17.9	1	1
03/19/06	9:18 a	-24.4	-24.4	-24.5	---	---	17.4	ENE	0.29	20.9	-38.7	---	---	722.9	0.030	0.000	17.9	1	1
03/19/06	9:19 a	-24.4	-24.4	-24.5	---	---	18.3	ENE	0.30	20.9	-39.0	---	---	722.8	0.030	0.000	17.9	1	1
03/19/06	9:20 a	-24.5	-24.4	-24.5	---	---	20.0	ENE	0.33	21.7	-39.6	---	---	722.9	0.030	0.000	17.9	1	1
03/19/06	9:21 a	-24.5	-24.4	-24.5	---	---	20.0	ENE	0.33	21.7	-39.6	---	---	722.9	0.030	0.000	17.9	1	1
03/19/06	9:22 a	-24.4	-24.4	-24.5	---	---	18.3	ENE	0.30	20.9	-39.0	---	---	723.0	0.030	0.000	17.9	1	1
03/19/06	9:23 a	-24.4	-24.4	-24.4	---	---	15.7	ENE	0.26	18.3	-38.1	---	---	722.9	0.030	0.000	17.9	1	1
03/19/06	9:24 a	-24.4	-24.4	-24.5	---	---	20.0	ENE	0.33	22.6	-39.5	---	---	722.8	0.030	0.000	17.9	1	1
03/19/06	9:25 a	-24.4	-24.4	-24.5	---	---	19.1	ENE	0.32	20.9	-39.3	---	---	722.9	0.030	0.000	17.9	1	1
03/19/06	9:26 a	-24.4	-24.4	-24.4	---	---	17.4	ENE	0.29	19.1	-38.7	---	---	722.9	0.030	0.000	17.9	1	1
03/19/06	9:27 a	-24.4	-24.4	-24.4	---	---	18.3	ENE	0.30	19.1	-39.0	---	---	722.8	0.030	0.000	18.0	1	1
03/19/06	9:28 a	-24.4	-24.4	-24.4	---	---	18.3	ENE	0.30	20.0	-39.0	---	---	722.8	0.030	0.000	18.0	1	1
03/19/06	9:29 a	-24.4	-24.4	-24.4	---	---	18.3	ENE	0.30	23.5	-39.0	---	---	722.7	0.030	0.000	18.1	1	1
03/19/06	9:30 a	-24.4	-24.4	-24.4	---	---	18.3	ENE	0.30	23.5	-39.0	---	---	723.0	0.030	0.000	18.1	1	1
03/19/06	9:31 a	-24.4	-24.4	-24.5	---	---	12.2	ENE	0.20	20.0	-36.7	---	---	722.8	0.030	0.000	18.1	1	1
03/19/06	9:32 a	-24.4	-24.4	-24.5	---	---	18.3	ENE	0.30	21.7	-39.0	---	---	722.8	0.030	0.000	18.1	1	1
03/19/06	9:33 a	-24.4	-24.4	-24.4	---	---	14.8	ENE	0.25	22.6	-37.7	---	---	722.7	0.030	0.000	18.2	1	1
03/19/06	9:34 a	-24.4	-24.4	-24.5	---	---	21.7	ENE	0.36	24.3	-40.0	---	---	722.8	0.030	0.000	18.2	1	1
03/19/06	9:35 a	-24.4	-24.4	-24.4	---	---	12.2	ENE	0.20	18.3	-36.7	---	---	722.8	0.030	0.000	18.2	1	1
03/19/06	9:36 a	-24.4	-24.4	-24.5	---	---	18.3	ENE	0.30	20.0	-39.0	---	---	722.7	0.030	0.000	18.2	1	1
03/19/06	9:37 a	-24.4	-24.4	-24.4	---	---	16.5	ENE	0.28	20.0	-38.4	---	---	722.8	0.030	0.000	18.2	1	1
03/19/06	9:38 a	-24.4	-24.4	-24.4	---	---	17.4	ENE	0.29	20.9	-38.7	---	---	722.8	0.030	0.000	18.2	1	1
03/19/06	9:39 a	-24.4	-24.4	-24.4	---	---	16.5	ENE	0.28	19.1	-38.4	---	---	722.8	0.030	0.000	18.2	1	1
03/19/06	9:40 a	-24.4	-24.4	-24.4	---	---	16.5	ENE	0.28	18.3	-38.4	---	---	722.8	0.030	0.000	18.2	1	1
03/19/06	9:41 a	-24.4	-24.4	-24.4	---	---	13.0	ENE	0.22	19.1	-37.1	---	---	722.7	0.030	0.000	18.1	1	1
03/19/06	9:42 a	-24.4	-24.4	-24.4	---	---	20.9	ENE	0.35	22.6	-39.8	---	---	722.8	0.030	0.000	18.1	1	1
03/19/06	9:43 a	-24.4	-24.4	-24.4	---	---	15.7	ENE	0.26	18.3	-38.1	---	---	722.8	0.030	0.000	18.1	1	1
03/19/06	9:44 a	-24.4	-24.4	-24.4	---	---	14.8	ENE	0.25	20.0	-37.7	---	---	722.7	0.030	0.000	18.1	1	1
03/19/06	9:45 a	-24.4	-24.4	-24.4	---	---	17.4	ENE	0.29	19.1	-38.7	---	---	722.8	0.030	0.000	18.1	1	1
03/19/06	9:46 a	-24.4	-24.4	-24.4	---	---	16.5	ENE	0.28	19.1	-38.4	---	---	722.8	0.030	0.000	18.1	1	1
03/19/06	9:47 a	-24.4	-24.4	-24.4	---	---	15.7	NE	0.26	17.4	-38.1	---	---	722.9	0.030	0.000	18.1	1	1
03/19/06	9:48 a	-24.4	-24.4	-24.4	---	---	16.5	NE	0.28	18.3	-38.4	---	---	722.8	0.030	0.000	18.1	1	1
03/19/06	9:49 a	-24.4	-24.4	-24.4	---	---	14.8	ENE	0.25	17.4	-37.7	---	---	722.8	0.030	0.000	18.1	1	1
03/19/06	9:50 a	-24.4	-24.4	-24.4	---	---	16.5	NE	0.28	20.0	-38.4	---	---	722.8	0.030	0.000	18.1	1	1
03/19/06	9:51 a	-24.4	-24.4	-24.4	---	---	15.7	NE	0.26	18.3	-38.0	---	---	722.8	0.030	0.000	18.1	1	1
03/19/06	9:52 a	-24.4	-24.4	-24.4	---	---	14.8	NE	0.25	18.3	-37.7	---	---	722.7	0.030	0.000	18.1	1	1
03/19/06	9:53 a	-24.4	-24.4	-24.4	---	---	18.3	ENE	0.30	20.0	-39.0	---	---	722.8	0.030	0.000	18.1	1	1
03/19/06	9:54 a	-24.4	-24.4	-24.4	---	---	9.6	NE	0.16	14.8	-35.3	---	---	722.7	0.030	0.000	18.1	1	1
03/19/06	9:55 a	-24.4	-24.4	-24.4	---	---	20.0	NE	0.33	21.7	-39.4	---	---	722.8	0.030	0.000	18.1	1	1
03/19/06	9:56 a	-24.4	-24.4	-24.4	---	---	15.7	ENE	0.26	19.1	-38.1	---	---	722.8	0.030	0.000	18.1	1	1
03/19/06	9:57 a	-24.4	-24.4	-24.4	---	---	13.9	ENE	0.23	15.7	-37.4	---	---	722.8	0.030	0.000	18.1	1	1
03/19/06	9:58 a	-24.4	-24.4	-24.4	---	---	17.4	NE	0.29	21.7	-38.7	---	---	722.8	0.030	0.000	18.1	1	1
03/19/06	9:59 a	-24.4	-24.4	-24.4	---	---	16.5	NE	0.28	20.0	-38.3	---	---	722.8	0.030	0.000	18.1	1	1
03/19/06	10:00 a	-24.4	-24.4	-24.4	---	---	12.2	ENE	0.20	18.3	-36.7	---	---	722.7	0.030	0.000	18.1	1	1
03/19/06	10:01 a	-24.4	-24.4	-24.4	---	---	20.0	ENE	0.33	20.9	-39.5	---	---	722.6	0.030	0.000	18.0	1	1
03/19/06	10:02 a	-24.4	-24.4	-24.4	---	---	17.4	ENE	0.29	20.9	-38.6	---	---	722.7	0.030	0.000	18.0	1	1
03/19/06	10:03 a	-24.4	-24.4	-24.4	---	---	15.7	NE	0.26	17.4	-38.0	---	---	722.8	0.030	0.000	18.0	1	1
03/19/06	10:04 a	-24.4	-24.4	-24.4	---	---	15.7	ENE	0.26	20.0	-38.0	---	---	722.6	0.030	0.000	18.0	1	1
03/19/06	10:05 a	-24.4	-24.4	-24.4	---	---	16.5	ENE	0.28	20.9	-38.4	---	---	722.7	0.030	0.000	18.0	1	1
03/19/06	10:06 a	-24.4	-24.4	-24.4	---	---	14.8	NE	0.25	20.0	-37.7	---	---	722.6	0.030	0.000	18.0	1	1
03/19/06	10:07 a	-24.4	-24.4	-24.4	---	---	19.1	ENE	0.32	20.9	-39.2	---	---	722.7	0.030	0.000	18.0	1	1
03/19/06	10:08 a	-24.4	-24.4	-24.4	---	---	13.9	ENE	0.23	17.4	-37.3	---	---	722.7	0.030	0.000	18.0	1	1
03/19/06	10:09 a	-24.4	-24.4	-24.4	---	---	15.7	ENE	0.26	20.0	-38.0	---	---	722.7	0.030	0.000	18.0	1	1
03/19/06	10:10 a	-24.4	-24.4	-24.4	---	---	19.1	ENE	0.32	21.7	-39.2	---	---	722.6	0.030	0.000	18.0	1	1
03/19/06	10:11 a	-24.4	-24.4	-24.4	---	---	15.7	ENE	0.26	17.4	-38.0	---	---	722.7	0.030	0.000	18.0	1	1
03/19/06	10:12 a	-24.4	-24.4	-24.4	---	---	13.9	ENE	0.23	19.1	-37.3	---	---	722.5	0.030	0.000	17.9	1	1
03/19/06	10:13 a	-24.4	-24.4	-24.4	---	---	19.1	NE	0.32	20.9	-39.2	---	---	722.7	0.030	0.000	18.0	1	1
03/19/06	10:14 a	-24.4	-24.4	-24.4	---	---	17.4	ENE	0.29	19.1	-38.6	---	---	722.8	0.030	0.000	18.0	1	1
03/19/06	10:15 a	-24.4	-24.4	-24.4	---	---	14.8	ENE	0.25	17.4	-37.7	---	---	722.8	0.030	0.000	17.9	1	1
03/19/06	10:16 a	-24.4	-24.4	-24.4	---	---	13.9	NE	0.23	20.9	-37.3	---	---	722.6	0.030	0.000	17.9	1	1
03/19/06	10:17 a	-24.4	-24.4	-24.4	---	---	16.5	NE	0.28	20.0	-38.3	---	---	722.7	0.030	0.000	17.9	1	1
03/19/06	10:18 a	-24.4	-24.4	-24.4	---	---	13.9	ENE	0.23	15.7	-37.3	---	---	722.8	0.030	0.000	17.9	1	1
03/19/06	10:19 a	-24.4	-24.3	-24.4	---	---	12.2	ENE	0.20	19.1	-36.6	---	---	722.7	0.030	0.000	17.9	1	1
03/19/06	10:20 a	-24.4	-24.4	-24.4	---	---	15.7	NE	0.26	19.1	-38.0	---	---	722.7	0.030	0.000	17.9	1	1
03/19/06	10:21 a	-24.4	-24.4	-24.4	---	---	16.5	ENE	0.28	20.0	-38.3	---	---	722.5	0.030	0.000	17.9	1	1
03/19/06	10:22 a	-24.4	-24.3	-24.4	---	---	13.9	NE	0.23	18.3	-37.3	---	---	722.8	0.030	0.000	17.9	1	1
03/19/06	10:23 a	-24.4	-24.4	-24.4	---	---	13.0	NE	0.22	18.3	-37.1	---	---	722.6	0.030	0.000	17.9	1	1
03/19/06	10:24 a	-24.4	-24.4	-24.4	---	---	18.3	ENE	0.30	19.1	-38.9	---	---	722.6	0.030	0.000	17.9	1	1
03/19/06	10:25 a	-24.4	-24.4	-24.4	---	---	13.0	NE	0.22	17.4	-37.1	---	---	722.8	0.030	0.000	17.9	1	1
03/19/06	10:26 a	-24.4	-24.4	-24.4	---	---	13.0	ENE	0.22	17.4	-36.9	---	---	722.7	0.030	0.000	17.9	1	1
03/19/06	10:27 a	-24.4	-24.4	-24.4	---	---	14.8	NE	0.25	16.5	-37.7	---	---	722.6	0.030	0.000	17.9	1	1
03/19/06	10:28 a	-24.4	-24.3	-24.4	---	---	17.4	ENE	0.29	22.6	-38.6	---	---	722.5	0.030	0.000	17.9	1	1
03/19/06	10:29 a	-24.4	-24.3	-24.4	---	---	17.4	ENE	0.29	20.9	-38.6	---	---	722.7	0.030	0.000	17.9	1	1
03/19/06	10:30 a	-24.4	-24.3	-24.4	---	---	14.8	ENE	0.25	16.5	-37.7	---	---	722.5	0.030	0.000	17.9	1	1
03/19/06	10:31 a	-24.4	-24.3	-24.4	---	---	15.7	ENE	0.26	17.4	-38.0	---	---	722.7	0.030	0.000	17.9	1	1
03/19/06	10:32 a	-24.4	-24.3	-24.4	---	---	15.7	ENE	0.26	19.1	-38.0	---	---	722.6	0.030	0.000	17.9	1	1
03/19/06	10:33 a	-24.4	-24.4	-24.4	---	---	12.2	NE	0.20	15.7	-36.6	---	---	722.6	0.030	0.000	17.9	1	1
03/19/06	10:34 a	-24.4	-24.3	-24.4	---	---	16.5	ENE	0.28	18.3	-38.3	---	---	722.5	0.030	0.000	17.9	1	1
03/19/06	10:35 a	-24.4	-24.3	-24.4	---	---	16.5	ENE	0.28	18.3	-38.3	---	---	722.5	0.030	0.000	17.9	1	1
03/19/06	10:36 a	-24.4	-24.3	-24.4	---	---	13.0	ENE	0.22	22.6	-36.9	---	---	722.5	0.030	0.000	17.9	1	1
03/19/06	10:37 a	-24.3	-24.3	-24.4	---	---	17.4	ENE	0.29	20.9	-38.6	---	---	722.5	0.030	0.000	18.0	1	1
03/19/06	10:38 a	-24.4	-24.3	-24.4	---	---	13.0	ENE	0.22	15.7	-36.9	---	---	722.6	0.030	0.000	18.0	1	1
03/19/06	10:39 a	-24.3	-24.3	-24.4	---	---	14.8	ENE	0.25	18.3	-37.6	---	---	722.6	0.030	0.000	18.1	1	1
03/19/06	10:40 a	-24.3	-24.3	-24.4	---	---	17.4	ENE	0.29	19.1	-38.6	---	---	722.6	0.030	0.000	18.1	1	1
03/19/06	10:41 a	-24.3	-24.3	-24.3	---	---	14.8	ENE	0.25	15.7	-37.6	---	---	722.7	0.030	0.000	18.1	1	1
03/19/06	10:42 a	-24.3	-24.3	-24.4	---	---	13.9	ENE	0.23	20.0	-37.3	---	---	722.5	0.030	0.000	18.1	1	1
03/19/06	10:43 a	-24.3	-24.3	-24.3	---	---	15.7	NE	0.26	19.1	-37.9	---	---	722.6	0.030	0.000	18.1	1	1
03/19/06	10:44 a	-24.3	-24.3	-24.3	---	---	13.0	ENE	0.22	18.3	-36.9	---	---	722.6	0.030	0.000	18.2	1	1
03/19/06	10:45 a	-24.3	-24.3	-24.3	---	---	12.2	NE	0.20	17.4	-36.5	---	---	722.6	0.030	0.000	18.2	1	1
03/19/06	10:46 a	-24.3	-24.3	-24.4	---	---	13.0	NE	0.22	18.3	-36.9	---	---	722.6	0.030	0.000	18.2	1	1
03/19/06	10:47 a	-24.3	-24.3	-24.3	---	---	13.0	ENE	0.22	15.7	-36.9	---	---	722.7	0.030	0.000	18.2	1	1
03/19/06	10:48 a	-24.3	-24.3	-24.3	---	---	13.0	ENE	0.22	16.5	-36.9	---	---	722.5	0.030	0.000	18.2	1	1
03/19/06	10:49 a	-24.3	-24.3	-24.4	---	---	13.9	NE	0.23	17.4	-37.3	---	---	722.6	0.030	0.000	18.2	1	1
03/19/06	10:50 a	-24.3	-24.3	-24.4	---	---	9.6	NE	0.16	14.8	-35.2	---	---	722.6	0.030	0.000	18.2	1	1
03/19/06	10:51 a	-24.3	-24.3	-24.3	---	---	16.5	ENE	0.28	19.1	-38.2	---	---	722.5	0.030	0.000	18.2	1	1
03/19/06	10:52 a	-24.3	-24.3	-24.3	---	---	16.5	ENE	0.28	18.3	-38.2	---	---	722.6	0.030	0.000	18.2	1	1
03/19/06	10:53 a	-24.3	-24.3	-24.4	---	---	13.0	NE	0.22	15.7	-36.9	---	---	722.6	0.030	0.000	18.2	1	1
03/19/06	10:54 a	-24.3	-24.3	-24.3	---	---	16.5	ENE	0.28	18.3	-38.2	---	---	722.4	0.030	0.000	18.2	1	1
03/19/06	10:55 a	-24.3	-24.3	-24.3	---	---	13.9	ENE	0.23	17.4	-37.3	---	---	722.6	0.030	0.000	18.2	1	1
03/19/06	10:56 a	-24.3	-24.3	-24.3	---	---	13.0	ENE	0.22	15.7	-36.9	---	---	722.6	0.030	0.000	18.2	1	1
03/19/06	10:57 a	-24.3	-24.3	-24.3	---	---	15.7	ENE	0.26	17.4	-37.9	---	---	722.5	0.030	0.000	18.2	1	1
03/19/06	10:58 a	-24.3	-24.3	-24.3	---	---	14.8	NE	0.25	16.5	-37.6	---	---	722.6	0.030	0.000	18.2	1	1
03/19/06	10:59 a	-24.3	-24.3	-24.3	---	---	14.8	NE	0.25	16.5	-37.6	---	---	722.5	0.030	0.000	18.2	1	1
03/19/06	11:00 a	-24.3	-24.3	-24.3	---	---	13.9	ENE	0.23	19.1	-37.3	---	---	722.5	0.030	0.000	18.1	1	1
03/19/06	11:01 a	-24.3	-24.3	-24.3	---	---	13.9	ENE	0.23	17.4	-37.3	---	---	722.5	0.030	0.000	18.1	1	1
03/19/06	11:02 a	-24.3	-24.3	-24.3	---	---	13.9	NE	0.23	16.5	-37.3	---	---	722.5	0.030	0.000	18.1	1	1
03/19/06	11:03 a	-24.3	-24.3	-24.3	---	---	17.4	ENE	0.29	20.0	-38.6	---	---	722.4	0.030	0.000	18.1	1	1
03/19/06	11:04 a	-24.3	-24.3	-24.3	---	---	16.5	ENE	0.28	19.1	-38.2	---	---	722.5	0.030	0.000	18.1	1	1
03/19/06	11:05 a	-24.3	-24.3	-24.3	---	---	15.7	ENE	0.26	18.3	-37.8	---	---	722.5	0.030	0.000	18.1	1	1
03/19/06	11:06 a	-24.3	-24.3	-24.3	---	---	13.9	NE	0.23	17.4	-37.3	---	---	722.4	0.030	0.000	18.1	1	1
03/19/06	11:07 a	-24.3	-24.3	-24.3	---	---	15.7	ENE	0.26	19.1	-37.9	---	---	722.6	0.030	0.000	18.1	1	1
03/19/06	11:08 a	-24.3	-24.3	-24.3	---	---	17.4	ENE	0.29	18.3	-38.4	---	---	722.4	0.030	0.000	18.1	1	1
03/19/06	11:09 a	-24.3	-24.3	-24.3	---	---	18.3	ENE	0.30	20.0	-38.8	---	---	722.4	0.030	0.000	18.1	1	1
03/19/06	11:10 a	-24.3	-24.3	-24.3	---	---	16.5	ENE	0.28	18.3	-38.2	---	---	722.5	0.030	0.000	18.1	1	1
03/19/06	11:11 a	-24.3	-24.3	-24.3	---	---	14.8	ENE	0.25	16.5	-37.6	---	---	722.4	0.030	0.000	18.1	1	1
03/19/06	11:12 a	-24.3	-24.3	-24.3	---	---	15.7	ENE	0.26	16.5	-37.8	---	---	722.5	0.030	0.000	18.1	1	1
03/19/06	11:13 a	-24.3	-24.3	-24.3	---	---	14.8	ENE	0.25	17.4	-37.6	---	---	722.4	0.030	0.000	18.1	1	1
03/19/06	11:14 a	-24.3	-24.3	-24.3	---	---	15.7	ENE	0.26	18.3	-37.8	---	---	722.4	0.030	0.000	18.1	1	1
03/19/06	11:15 a	-24.3	-24.3	-24.3	---	---	17.4	ENE	0.29	19.1	-38.4	---	---	722.4	0.030	0.000	18.1	1	1
03/19/06	11:16 a	-24.3	-24.3	-24.3	---	---	15.7	ENE	0.26	19.1	-37.8	---	---	722.4	0.030	0.000	18.1	1	1
03/19/06	11:17 a	-24.3	-24.3	-24.3	---	---	14.8	ENE	0.25	16.5	-37.6	---	---	722.3	0.030	0.000	18.1	1	1
03/19/06	11:18 a	-24.3	-24.3	-24.3	---	---	17.4	ENE	0.29	20.0	-38.4	---	---	722.3	0.030	0.000	18.0	1	1
03/19/06	11:19 a	-24.3	-24.3	-24.3	---	---	15.7	ENE	0.26	18.3	-37.8	---	---	722.4	0.030	0.000	18.0	1	1
03/19/06	11:20 a	-24.3	-24.3	-24.3	---	---	18.3	ENE	0.30	20.0	-38.8	---	---	722.3	0.030	0.000	18.0	1	1
03/19/06	11:21 a	-24.3	-24.3	-24.3	---	---	15.7	ENE	0.26	16.5	-37.8	---	---	722.3	0.030	0.000	18.0	1	1
03/19/06	11:22 a	-24.3	-24.2	-24.3	---	---	13.9	ENE	0.23	15.7	-37.2	---	---	722.4	0.030	0.000	18.0	1	1
03/19/06	11:23 a	-24.3	-24.3	-24.3	---	---	17.4	ENE	0.29	20.0	-38.4	---	---	722.3	0.030	0.000	18.0	1	1
03/19/06	11:24 a	-24.3	-24.3	-24.3	---	---	16.5	ENE	0.28	18.3	-38.2	---	---	722.3	0.030	0.000	17.9	1	1
03/19/06	11:25 a	-24.3	-24.3	-24.3	---	---	14.8	ENE	0.25	17.4	-37.6	---	---	722.3	0.030	0.000	17.9	1	1
03/19/06	11:26 a	-24.3	-24.2	-24.3	---	---	15.7	ENE	0.26	16.5	-37.8	---	---	722.3	0.030	0.000	17.9	1	1
03/19/06	11:27 a	-24.3	-24.3	-24.3	---	---	14.8	NE	0.25	17.4	-37.6	---	---	722.4	0.030	0.000	17.9	1	1
03/19/06	11:28 a	-24.3	-24.3	-24.3	---	---	15.7	ENE	0.26	17.4	-37.8	---	---	722.4	0.030	0.000	17.9	1	1
03/19/06	11:29 a	-24.3	-24.2	-24.3	---	---	15.7	ENE	0.26	18.3	-37.8	---	---	722.4	0.030	0.000	17.9	1	1
03/19/06	11:30 a	-24.3	-24.3	-24.3	---	---	12.2	ENE	0.20	13.9	-36.4	---	---	722.4	0.030	0.000	17.9	1	1
03/19/06	11:31 a	-24.3	-24.2	-24.3	---	---	14.8	ENE	0.25	18.3	-37.6	---	---	722.4	0.030	0.000	17.9	1	1
03/19/06	11:32 a	-24.3	-24.2	-24.3	---	---	15.7	ENE	0.26	16.5	-37.8	---	---	722.4	0.030	0.000	17.9	1	1
03/19/06	11:33 a	-24.3	-24.2	-24.3	---	---	13.9	ENE	0.23	15.7	-37.2	---	---	722.4	0.030	0.000	17.9	1	1
03/19/06	11:34 a	-24.3	-24.2	-24.3	---	---	13.9	ENE	0.23	14.8	-37.2	---	---	722.4	0.030	0.000	17.9	1	1
03/19/06	11:35 a	-24.3	-24.2	-24.3	---	---	10.4	NE	0.17	13.0	-35.6	---	---	722.4	0.030	0.000	17.9	1	1
03/19/06	11:36 a	-24.2	-24.2	-24.2	---	---	15.7	ENE	0.26	19.1	-37.8	---	---	722.4	0.030	0.000	17.9	1	1
03/19/06	11:37 a	-24.3	-24.2	-24.3	---	---	15.7	ENE	0.26	16.5	-37.8	---	---	722.3	0.030	0.000	17.9	1	1
03/19/06	11:38 a	-24.3	-24.2	-24.3	---	---	13.0	ENE	0.22	15.7	-36.8	---	---	722.4	0.030	0.000	17.9	1	1
03/19/06	11:39 a	-24.2	-24.2	-24.2	---	---	13.9	ENE	0.23	17.4	-37.1	---	---	722.4	0.030	0.000	17.9	1	1
03/19/06	11:40 a	-24.2	-24.2	-24.2	---	---	13.0	ENE	0.22	14.8	-36.8	---	---	722.3	0.030	0.000	17.9	1	1
03/19/06	11:41 a	-24.2	-24.2	-24.2	---	---	13.9	NE	0.23	17.4	-37.1	---	---	722.4	0.030	0.000	17.9	1	1
03/19/06	11:42 a	-24.2	-24.2	-24.2	---	---	14.8	NE	0.25	15.7	-37.4	---	---	722.3	0.030	0.000	17.9	1	1
03/19/06	11:43 a	-24.2	-24.2	-24.2	---	---	12.2	NE	0.20	13.9	-36.4	---	---	722.3	0.030	0.000	17.9	1	1
03/19/06	11:44 a	-24.2	-24.2	-24.2	---	---	14.8	ENE	0.25	17.4	-37.4	---	---	722.3	0.030	0.000	17.9	1	1
03/19/06	11:45 a	-24.2	-24.2	-24.2	---	---	14.8	NE	0.25	17.4	-37.4	---	---	722.4	0.030	0.000	17.9	1	1
03/19/06	11:46 a	-24.2	-24.2	-24.2	---	---	12.2	NE	0.20	14.8	-36.4	---	---	722.4	0.030	0.000	17.9	1	1
03/19/06	11:47 a	-24.2	-24.2	-24.2	---	---	13.9	ENE	0.23	16.5	-37.1	---	---	722.4	0.030	0.000	17.9	1	1
03/19/06	11:48 a	-24.2	-24.2	-24.2	---	---	14.8	ENE	0.25	15.7	-37.4	---	---	722.4	0.030	0.000	17.9	1	1
03/19/06	11:49 a	-24.2	-24.2	-24.2	---	---	12.2	NE	0.20	14.8	-36.4	---	---	722.3	0.030	0.000	17.9	1	1
03/19/06	11:50 a	-24.2	-24.2	-24.2	---	---	10.4	NE	0.17	13.0	-35.6	---	---	722.3	0.030	0.000	17.9	1	1
03/19/06	11:51 a	-24.2	-24.2	-24.2	---	---	7.8	NE	0.13	12.2	-34.0	---	---	722.3	0.030	0.000	17.9	1	1
03/19/06	11:52 a	-24.2	-24.2	-24.2	---	---	10.4	NE	0.17	13.0	-35.6	---	---	722.3	0.030	0.000	17.9	1	1
03/19/06	11:53 a	-24.2	-24.2	-24.2	---	---	13.0	ENE	0.22	16.5	-36.7	---	---	722.3	0.030	0.000	17.9	1	1
03/19/06	11:54 a	-24.2	-24.2	-24.2	---	---	11.3	ENE	0.19	14.8	-35.9	---	---	722.4	0.030	0.000	17.9	1	1
03/19/06	11:55 a	-24.2	-24.2	-24.2	---	---	13.9	ENE	0.23	17.4	-37.1	---	---	722.2	0.030	0.000	17.9	1	1
03/19/06	11:56 a	-24.2	-24.2	-24.2	---	---	14.8	ENE	0.25	15.7	-37.4	---	---	722.2	0.030	0.000	17.9	1	1
03/19/06	11:57 a	-24.2	-24.2	-24.2	---	---	13.0	ENE	0.22	14.8	-36.7	---	---	722.2	0.030	0.000	17.9	1	1
03/19/06	11:58 a	-24.2	-24.2	-24.2	---	---	13.0	NE	0.22	15.7	-36.7	---	---	722.2	0.030	0.000	17.9	1	1
03/19/06	11:59 a	-24.2	-24.2	-24.2	---	---	13.9	NE	0.23	16.5	-37.1	---	---	722.2	0.030	0.000	17.9	1	1
03/19/06	12:00 p	-24.2	-24.2	-24.2	---	---	12.2	NE	0.20	13.9	-36.3	---	---	722.1	0.030	0.000	17.9	1	1
03/19/06	12:01 p	-24.2	-24.1	-24.2	---	---	13.9	NE	0.23	15.7	-37.1	---	---	722.2	0.030	0.000	17.9	1	1
03/19/06	12:02 p	-24.1	-24.1	-24.1	---	---	13.9	NE	0.23	15.7	-36.9	---	---	722.2	0.029	0.000	17.9	1	1
03/19/06	12:03 p	-24.2	-24.1	-24.2	---	---	13.0	ENE	0.22	15.7	-36.7	---	---	722.2	0.030	0.000	17.9	1	1
03/19/06	12:04 p	-24.1	-24.1	-24.1	---	---	14.8	NE	0.25	17.4	-37.3	---	---	722.3	0.029	0.000	17.9	1	1
03/19/06	12:05 p	-24.1	-24.1	-24.1	---	---	12.2	NE	0.20	14.8	-36.2	---	---	722.3	0.029	0.000	17.9	1	1
03/19/06	12:06 p	-24.1	-24.1	-24.1	---	---	14.8	ENE	0.25	16.5	-37.3	---	---	722.2	0.029	0.000	17.9	1	1
03/19/06	12:07 p	-24.1	-24.1	-24.1	---	---	13.0	NE	0.22	14.8	-36.6	---	---	722.2	0.029	0.000	17.9	1	1
03/19/06	12:08 p	-24.1	-24.1	-24.1	---	---	14.8	ENE	0.25	17.4	-37.3	---	---	722.2	0.029	0.000	17.9	1	1
03/19/06	12:09 p	-24.1	-24.1	-24.1	---	---	14.8	NE	0.25	15.7	-37.3	---	---	722.2	0.029	0.000	18.0	1	1
03/19/06	12:10 p	-24.1	-24.1	-24.1	---	---	13.9	ENE	0.23	17.4	-36.9	---	---	722.2	0.029	0.000	18.0	1	1
03/19/06	12:11 p	-24.1	-24.1	-24.1	---	---	12.2	NE	0.20	15.7	-36.2	---	---	722.2	0.029	0.000	18.0	1	1
03/19/06	12:12 p	-24.1	-24.1	-24.1	---	---	14.8	NE	0.25	16.5	-37.2	---	---	722.2	0.029	0.000	18.1	1	1
03/19/06	12:13 p	-24.1	-24.1	-24.1	---	---	11.3	NE	0.19	15.7	-35.8	---	---	722.2	0.029	0.000	18.1	1	1
03/19/06	12:14 p	-24.1	-24.1	-24.1	---	---	13.0	NE	0.22	15.7	-36.6	---	---	722.2	0.029	0.000	18.1	1	1
03/19/06	12:15 p	-24.1	-24.1	-24.1	---	---	11.3	NE	0.19	16.5	-35.8	---	---	722.1	0.029	0.000	18.1	1	1
03/19/06	12:16 p	-24.1	-24.1	-24.1	---	---	13.9	NE	0.23	17.4	-36.9	---	---	722.1	0.029	0.000	18.2	1	1
03/19/06	12:17 p	-24.1	-24.1	-24.1	---	---	13.0	NNE	0.22	17.4	-36.6	---	---	722.0	0.029	0.000	18.2	1	1
03/19/06	12:18 p	-24.1	-24.1	-24.1	---	---	15.7	ENE	0.26	16.5	-37.6	---	---	722.1	0.029	0.000	18.2	1	1
03/19/06	12:19 p	-24.1	-24.1	-24.1	---	---	13.9	ENE	0.23	14.8	-36.9	---	---	722.1	0.029	0.000	18.2	1	1
03/19/06	12:20 p	-24.1	-24.1	-24.1	---	---	11.3	NE	0.19	13.9	-35.8	---	---	722.2	0.029	0.000	18.2	1	1
03/19/06	12:21 p	-24.1	-24.1	-24.1	---	---	12.2	NE	0.20	14.8	-36.2	---	---	722.1	0.029	0.000	18.2	1	1
03/19/06	12:22 p	-24.1	-24.1	-24.1	---	---	13.9	NE	0.23	16.5	-36.9	---	---	722.1	0.029	0.000	18.2	1	1
03/19/06	12:23 p	-24.1	-24.1	-24.1	---	---	14.8	NE	0.25	17.4	-37.2	---	---	722.2	0.029	0.000	18.2	1	1
03/19/06	12:24 p	-24.1	-24.1	-24.1	---	---	12.2	NE	0.20	13.9	-36.2	---	---	722.1	0.029	0.000	18.2	1	1
03/19/06	12:25 p	-24.1	-24.0	-24.1	---	---	11.3	ENE	0.19	13.9	-35.8	---	---	722.2	0.029	0.000	18.2	1	1
03/19/06	12:26 p	-24.1	-24.0	-24.1	---	---	13.0	ENE	0.22	14.8	-36.6	---	---	722.1	0.029	0.000	18.2	1	1
03/19/06	12:27 p	-24.1	-24.0	-24.1	---	---	10.4	NE	0.17	12.2	-35.3	---	---	722.2	0.029	0.000	18.2	1	1
03/19/06	12:28 p	-24.1	-24.1	-24.1	---	---	13.9	NE	0.23	16.5	-36.9	---	---	722.0	0.029	0.000	18.2	1	1
03/19/06	12:29 p	-24.1	-24.0	-24.1	---	---	13.9	NE	0.23	15.7	-36.9	---	---	722.0	0.029	0.000	18.2	1	1
03/19/06	12:30 p	-24.1	-24.0	-24.1	---	---	13.0	NE	0.22	15.7	-36.6	---	---	722.2	0.029	0.000	18.1	1	1
03/19/06	12:31 p	-24.1	-24.0	-24.1	---	---	10.4	NE	0.17	12.2	-35.3	---	---	722.1	0.029	0.000	18.2	1	1
03/19/06	12:32 p	-24.1	-24.0	-24.1	---	---	10.4	NE	0.17	16.5	-35.3	---	---	722.0	0.029	0.000	18.1	1	1
03/19/06	12:33 p	-24.1	-24.1	-24.1	---	---	13.9	ENE	0.23	17.4	-36.9	---	---	722.1	0.029	0.000	18.1	1	1
03/19/06	12:34 p	-24.1	-24.0	-24.1	---	---	12.2	NE	0.20	13.9	-36.2	---	---	722.1	0.029	0.000	18.1	1	1
03/19/06	12:35 p	-24.1	-24.1	-24.1	---	---	12.2	NE	0.20	13.9	-36.2	---	---	722.1	0.029	0.000	18.1	1	1
03/19/06	12:36 p	-24.1	-24.0	-24.1	---	---	11.3	ENE	0.19	13.0	-35.8	---	---	722.1	0.029	0.000	18.1	1	1
03/19/06	12:37 p	-24.1	-24.0	-24.1	---	---	11.3	NE	0.19	12.2	-35.8	---	---	722.1	0.029	0.000	18.1	1	1
03/19/06	12:38 p	-24.1	-24.0	-24.1	---	---	12.2	NE	0.20	13.0	-36.2	---	---	722.1	0.029	0.000	18.1	1	1
03/19/06	12:39 p	-24.1	-24.0	-24.1	---	---	9.6	NE	0.16	12.2	-34.8	---	---	722.2	0.029	0.000	18.1	1	1
03/19/06	12:40 p	-24.0	-24.0	-24.1	---	---	12.2	NE	0.20	13.0	-36.1	---	---	722.1	0.029	0.000	18.1	1	1
03/19/06	12:41 p	-24.1	-24.0	-24.1	---	---	11.3	NE	0.19	13.0	-35.8	---	---	722.0	0.029	0.000	18.1	1	1
03/19/06	12:42 p	-24.1	-24.0	-24.1	---	---	10.4	NE	0.17	13.0	-35.3	---	---	722.1	0.029	0.000	18.1	1	1
03/19/06	12:43 p	-24.1	-24.0	-24.1	---	---	11.3	NE	0.19	14.8	-35.8	---	---	722.0	0.029	0.000	18.1	1	1
03/19/06	12:44 p	-24.0	-24.0	-24.1	---	---	13.0	NE	0.22	14.8	-36.4	---	---	722.1	0.029	0.000	18.1	1	1
03/19/06	12:45 p	-24.0	-24.0	-24.1	---	---	10.4	NE	0.17	13.0	-35.3	---	---	722.1	0.029	0.000	18.1	1	1
03/19/06	12:46 p	-24.1	-24.1	-24.1	---	---	10.4	NE	0.17	13.9	-35.3	---	---	722.1	0.029	0.000	18.1	1	1
03/19/06	12:47 p	-24.1	-24.1	-24.1	---	---	13.0	NE	0.22	15.7	-36.6	---	---	722.1	0.029	0.000	18.1	1	1
03/19/06	12:48 p	-24.1	-24.1	-24.1	---	---	11.3	NE	0.19	13.0	-35.8	---	---	722.0	0.029	0.000	18.1	1	1
03/19/06	12:49 p	-24.1	-24.0	-24.1	---	---	11.3	NE	0.19	13.0	-35.8	---	---	722.1	0.029	0.000	18.1	1	1
03/19/06	12:50 p	-24.1	-24.0	-24.1	---	---	12.2	NE	0.20	14.8	-36.2	---	---	722.0	0.029	0.000	18.1	1	1
03/19/06	12:51 p	-24.1	-24.0	-24.1	---	---	12.2	NE	0.20	15.7	-36.2	---	---	722.1	0.029	0.000	18.1	1	1
03/19/06	12:52 p	-24.1	-24.0	-24.1	---	---	8.7	NE	0.14	12.2	-34.3	---	---	722.1	0.029	0.000	18.1	1	1
03/19/06	12:53 p	-24.1	-24.1	-24.1	---	---	8.7	NE	0.14	11.3	-34.3	---	---	722.1	0.029	0.000	18.1	1	1
03/19/06	12:54 p	-24.1	-24.0	-24.1	---	---	13.9	NE	0.23	16.5	-36.9	---	---	722.1	0.029	0.000	18.1	1	1
03/19/06	12:55 p	-24.0	-24.0	-24.1	---	---	13.0	NE	0.22	15.7	-36.4	---	---	722.1	0.029	0.000	18.1	1	1
03/19/06	12:56 p	-24.1	-24.0	-24.1	---	---	11.3	NE	0.19	13.0	-35.8	---	---	722.0	0.029	0.000	18.1	1	1
03/19/06	12:57 p	-24.1	-24.1	-24.1	---	---	10.4	NE	0.17	12.2	-35.3	---	---	722.2	0.029	0.000	18.1	1	1
03/19/06	12:58 p	-24.1	-24.1	-24.1	---	---	10.4	NE	0.17	13.0	-35.3	---	---	722.1	0.029	0.000	18.1	1	1
03/19/06	12:59 p	-24.1	-24.0	-24.1	---	---	12.2	NE	0.20	13.9	-36.2	---	---	722.1	0.029	0.000	18.1	1	1
03/19/06	1:00 p	-24.1	-24.1	-24.1	---	---	12.2	NE	0.20	13.0	-36.2	---	---	722.2	0.029	0.000	18.1	1	1
03/19/06	1:01 p	-24.1	-24.1	-24.1	---	---	12.2	NE	0.20	13.9	-36.2	---	---	722.1	0.029	0.000	18.1	1	1
03/19/06	1:02 p	-24.1	-24.0	-24.1	---	---	12.2	NE	0.20	13.9	-36.2	---	---	722.1	0.029	0.000	18.1	1	1
03/19/06	1:03 p	-24.1	-24.0	-24.1	---	---	13.9	NE	0.23	14.8	-36.9	---	---	722.1	0.029	0.000	18.1	1	1
03/19/06	1:04 p	-24.1	-24.0	-24.1	---	---	13.0	NE	0.22	16.5	-36.6	---	---	722.1	0.029	0.000	18.1	1	1
03/19/06	1:05 p	-24.1	-24.0	-24.1	---	---	9.6	NE	0.16	12.2	-34.8	---	---	722.1	0.029	0.000	18.1	1	1
03/19/06	1:06 p	-24.1	-24.1	-24.1	---	---	13.0	NE	0.22	14.8	-36.6	---	---	722.0	0.029	0.000	18.1	1	1
03/19/06	1:07 p	-24.1	-24.0	-24.1	---	---	12.2	NE	0.20	13.9	-36.2	---	---	722.2	0.029	0.000	18.1	1	1
03/19/06	1:08 p	-24.1	-24.1	-24.1	---	---	9.6	NE	0.16	11.3	-34.8	---	---	722.1	0.029	0.000	18.1	1	1
03/19/06	1:09 p	-24.1	-24.0	-24.1	---	---	13.9	NE	0.23	16.5	-36.9	---	---	722.1	0.029	0.000	18.1	1	1
03/19/06	1:10 p	-24.1	-24.0	-24.1	---	---	12.2	NE	0.20	13.9	-36.2	---	---	722.1	0.029	0.000	18.1	1	1
03/19/06	1:11 p	-24.1	-24.0	-24.1	---	---	6.1	NE	0.10	11.3	-32.6	---	---	722.2	0.029	0.000	18.1	1	1
03/19/06	1:12 p	-24.0	-24.0	-24.1	---	---	11.3	NE	0.19	13.9	-35.7	---	---	722.1	0.029	0.000	18.1	1	1
03/19/06	1:13 p	-24.0	-24.0	-24.1	---	---	12.2	NE	0.20	14.8	-36.1	---	---	722.1	0.029	0.000	18.1	1	1
03/19/06	1:14 p	-24.1	-24.0	-24.1	---	---	9.6	NNE	0.16	12.2	-34.8	---	---	722.1	0.029	0.000	18.1	1	1
03/19/06	1:15 p	-24.1	-24.0	-24.1	---	---	11.3	NE	0.19	16.5	-35.8	---	---	722.0	0.029	0.000	18.2	1	1
03/19/06	1:16 p	-24.0	-24.0	-24.1	---	---	12.2	NE	0.20	14.8	-36.1	---	---	722.0	0.029	0.000	18.2	1	1
03/19/06	1:17 p	-24.0	-24.0	-24.1	---	---	10.4	NE	0.17	13.0	-35.3	---	---	722.1	0.029	0.000	18.2	1	1
03/19/06	1:18 p	-24.0	-24.0	-24.1	---	---	10.4	NE	0.17	11.3	-35.3	---	---	722.1	0.029	0.000	18.2	1	1
03/19/06	1:19 p	-24.0	-24.0	-24.0	---	---	10.4	NE	0.17	12.2	-35.3	---	---	722.1	0.029	0.000	18.2	1	1
03/19/06	1:20 p	-24.0	-24.0	-24.0	---	---	7.0	NNE	0.12	10.4	-33.2	---	---	722.1	0.029	0.000	18.2	1	1
03/19/06	1:21 p	-24.0	-24.0	-24.0	---	---	5.2	NNE	0.09	7.0	-31.7	---	---	722.1	0.029	0.000	18.2	1	1
03/19/06	1:22 p	-24.0	-24.0	-24.0	---	---	8.7	NE	0.14	11.3	-34.3	---	---	722.1	0.029	0.000	18.2	1	1
03/19/06	1:23 p	-24.0	-23.9	-24.0	---	---	9.6	NE	0.16	12.2	-34.8	---	---	722.1	0.029	0.000	18.2	1	1
03/19/06	1:24 p	-24.0	-23.9	-24.1	---	---	9.6	NE	0.16	13.0	-34.8	---	---	722.0	0.029	0.000	18.2	1	1
03/19/06	1:25 p	-24.0	-23.9	-24.0	---	---	12.2	NE	0.20	13.9	-36.1	---	---	722.0	0.029	0.000	18.2	1	1
03/19/06	1:26 p	-24.0	-23.9	-24.0	---	---	7.0	NE	0.12	11.3	-33.2	---	---	722.1	0.029	0.000	18.2	1	1
03/19/06	1:27 p	-23.9	-23.9	-24.0	---	---	12.2	NE	0.20	14.8	-36.0	---	---	722.0	0.029	0.000	18.2	1	1
03/19/06	1:28 p	-23.9	-23.9	-24.0	---	---	13.0	NE	0.22	13.9	-36.4	---	---	722.0	0.029	0.000	18.2	1	1
03/19/06	1:29 p	-23.9	-23.9	-24.0	---	---	11.3	NE	0.19	13.0	-35.6	---	---	721.9	0.029	0.000	18.2	1	1
03/19/06	1:30 p	-23.9	-23.9	-24.0	---	---	12.2	ENE	0.20	13.9	-36.0	---	---	722.0	0.029	0.000	18.2	1	1
03/19/06	1:31 p	-23.9	-23.9	-24.0	---	---	10.4	NE	0.17	13.0	-35.2	---	---	722.1	0.029	0.000	18.2	1	1
03/19/06	1:32 p	-23.9	-23.9	-24.0	---	---	12.2	NE	0.20	14.8	-36.0	---	---	722.0	0.029	0.000	18.2	1	1
03/19/06	1:33 p	-23.9	-23.9	-24.0	---	---	13.0	NE	0.22	14.8	-36.4	---	---	722.0	0.029	0.000	18.2	1	1
03/19/06	1:34 p	-23.9	-23.9	-24.0	---	---	12.2	ENE	0.20	14.8	-36.0	---	---	722.1	0.029	0.000	18.2	1	1
03/19/06	1:35 p	-23.9	-23.9	-23.9	---	---	9.6	ENE	0.16	13.0	-34.7	---	---	722.1	0.029	0.000	18.2	1	1
03/19/06	1:36 p	-23.9	-23.9	-24.0	---	---	10.4	ENE	0.17	14.8	-35.2	---	---	722.0	0.029	0.000	18.2	1	1
03/19/06	1:37 p	-23.9	-23.9	-24.0	---	---	13.9	ENE	0.23	15.7	-36.8	---	---	722.0	0.029	0.000	18.2	1	1
03/19/06	1:38 p	-23.9	-23.9	-24.0	---	---	13.9	ENE	0.23	15.7	-36.8	---	---	722.0	0.029	0.000	18.2	1	1
03/19/06	1:39 p	-23.9	-23.9	-23.9	---	---	13.0	ENE	0.22	13.9	-36.4	---	---	722.0	0.029	0.000	18.2	1	1
03/19/06	1:40 p	-23.9	-23.9	-23.9	---	---	12.2	ENE	0.20	13.9	-36.0	---	---	721.9	0.029	0.000	18.2	1	1
03/19/06	1:41 p	-23.9	-23.9	-23.9	---	---	13.0	NE	0.22	13.9	-36.4	---	---	722.0	0.029	0.000	18.2	1	1
03/19/06	1:42 p	-23.9	-23.9	-23.9	---	---	12.2	NE	0.20	13.9	-36.0	---	---	721.9	0.029	0.000	18.2	1	1
03/19/06	1:43 p	-23.9	-23.9	-23.9	---	---	13.9	NE	0.23	15.7	-36.8	---	---	721.9	0.029	0.000	18.2	1	1
03/19/06	1:44 p	-23.9	-23.9	-23.9	---	---	12.2	ENE	0.20	14.8	-36.0	---	---	721.9	0.029	0.000	18.2	1	1
03/19/06	1:45 p	-23.9	-23.9	-23.9	---	---	13.9	NE	0.23	14.8	-36.7	---	---	721.9	0.029	0.000	18.2	1	1
03/19/06	1:46 p	-23.9	-23.9	-23.9	---	---	12.2	NE	0.20	13.0	-36.0	---	---	721.9	0.029	0.000	18.2	1	1
03/19/06	1:47 p	-23.9	-23.9	-24.0	---	---	11.3	ENE	0.19	12.2	-35.6	---	---	721.9	0.029	0.000	18.2	1	1
03/19/06	1:48 p	-23.9	-23.9	-23.9	---	---	13.0	ENE	0.22	14.8	-36.4	---	---	721.8	0.029	0.000	18.2	1	1
03/19/06	1:49 p	-23.9	-23.9	-23.9	---	---	10.4	NE	0.17	13.9	-35.2	---	---	721.9	0.029	0.000	18.2	1	1
03/19/06	1:50 p	-23.9	-23.9	-23.9	---	---	9.6	NE	0.16	13.0	-34.7	---	---	721.9	0.029	0.000	18.2	1	1
03/19/06	1:51 p	-23.9	-23.9	-23.9	---	---	12.2	NE	0.20	13.9	-36.0	---	---	721.9	0.029	0.000	18.2	1	1
03/19/06	1:52 p	-23.9	-23.9	-23.9	---	---	13.0	ENE	0.22	14.8	-36.4	---	---	721.8	0.029	0.000	18.2	1	1
03/19/06	1:53 p	-23.9	-23.9	-23.9	---	---	11.3	NE	0.19	13.0	-35.6	---	---	721.9	0.029	0.000	18.2	1	1
03/19/06	1:54 p	-23.9	-23.9	-23.9	---	---	10.4	NE	0.17	13.0	-35.2	---	---	721.9	0.029	0.000	18.2	1	1
03/19/06	1:55 p	-23.9	-23.9	-23.9	---	---	13.0	ENE	0.22	13.9	-36.4	---	---	721.8	0.029	0.000	18.2	1	1
03/19/06	1:56 p	-23.9	-23.9	-23.9	---	---	9.6	NE	0.16	12.2	-34.7	---	---	721.8	0.029	0.000	18.2	1	1
03/19/06	1:57 p	-23.9	-23.9	-23.9	---	---	13.0	NE	0.22	15.7	-36.3	---	---	721.9	0.029	0.000	18.2	1	1
03/19/06	1:58 p	-23.9	-23.9	-23.9	---	---	13.0	NE	0.22	18.3	-36.3	---	---	721.9	0.029	0.000	18.2	1	1
03/19/06	1:59 p	-23.9	-23.9	-23.9	---	---	9.6	NE	0.16	11.3	-34.7	---	---	721.9	0.029	0.000	18.2	1	1
03/19/06	2:00 p	-23.9	-23.9	-23.9	---	---	10.4	NE	0.17	12.2	-35.1	---	---	721.8	0.029	0.000	18.2	1	1
03/19/06	2:01 p	-23.9	-23.9	-23.9	---	---	11.3	ENE	0.19	14.8	-35.6	---	---	721.7	0.029	0.000	18.1	1	1
03/19/06	2:02 p	-23.9	-23.9	-23.9	---	---	11.3	NE	0.19	13.9	-35.6	---	---	721.8	0.029	0.000	18.1	1	1
03/19/06	2:03 p	-23.9	-23.9	-23.9	---	---	12.2	NE	0.20	14.8	-36.0	---	---	721.8	0.029	0.000	18.1	1	1
03/19/06	2:04 p	-23.9	-23.9	-23.9	---	---	11.3	NE	0.19	13.9	-35.6	---	---	721.8	0.029	0.000	18.1	1	1
03/19/06	2:05 p	-23.9	-23.9	-23.9	---	---	7.8	NE	0.13	10.4	-33.6	---	---	721.8	0.029	0.000	18.1	1	1
03/19/06	2:06 p	-23.9	-23.9	-23.9	---	---	9.6	ENE	0.16	13.9	-34.7	---	---	721.8	0.029	0.000	18.1	1	1
03/19/06	2:07 p	-23.9	-23.9	-23.9	---	---	13.9	NE	0.23	15.7	-36.7	---	---	721.8	0.029	0.000	18.1	1	1
03/19/06	2:08 p	-23.9	-23.9	-23.9	---	---	11.3	NE	0.19	13.9	-35.6	---	---	721.8	0.029	0.000	18.1	1	1
03/19/06	2:09 p	-23.9	-23.9	-23.9	---	---	12.2	NE	0.20	14.8	-35.9	---	---	721.8	0.029	0.000	18.1	1	1
03/19/06	2:10 p	-23.9	-23.9	-23.9	---	---	11.3	ENE	0.19	13.9	-35.6	---	---	721.8	0.029	0.000	18.1	1	1
03/19/06	2:11 p	-23.9	-23.9	-23.9	---	---	11.3	ENE	0.19	14.8	-35.6	---	---	721.7	0.029	0.000	18.1	1	1
03/19/06	2:12 p	-23.9	-23.9	-23.9	---	---	10.4	NE	0.17	13.0	-35.2	---	---	721.8	0.029	0.000	18.1	1	1
03/19/06	2:13 p	-23.9	-23.9	-23.9	---	---	11.3	ENE	0.19	14.8	-35.6	---	---	721.8	0.029	0.000	18.0	1	1
03/19/06	2:14 p	-23.9	-23.9	-23.9	---	---	9.6	NE	0.16	12.2	-34.7	---	---	721.8	0.029	0.000	18.1	1	1
03/19/06	2:15 p	-23.9	-23.9	-23.9	---	---	13.0	NE	0.22	15.7	-36.3	---	---	721.8	0.029	0.000	18.1	1	1
03/19/06	2:16 p	-23.9	-23.9	-23.9	---	---	12.2	NE	0.20	14.8	-35.9	---	---	721.8	0.029	0.000	18.1	1	1
03/19/06	2:17 p	-23.9	-23.9	-23.9	---	---	11.3	NE	0.19	13.9	-35.6	---	---	721.8	0.029	0.000	18.1	1	1
03/19/06	2:18 p	-23.9	-23.9	-23.9	---	---	12.2	NE	0.20	13.9	-35.9	---	---	721.8	0.029	0.000	18.1	1	1
03/19/06	2:19 p	-23.9	-23.9	-23.9	---	---	13.0	NE	0.22	13.9	-36.3	---	---	721.8	0.029	0.000	18.1	1	1
03/19/06	2:20 p	-23.9	-23.9	-23.9	---	---	10.4	NE	0.17	13.9	-35.1	---	---	721.7	0.029	0.000	18.1	1	1
03/19/06	2:21 p	-23.9	-23.9	-23.9	---	---	12.2	ENE	0.20	14.8	-35.9	---	---	721.7	0.029	0.000	18.1	1	1
03/19/06	2:22 p	-23.9	-23.9	-23.9	---	---	13.0	ENE	0.22	14.8	-36.3	---	---	721.7	0.029	0.000	18.1	1	1
03/19/06	2:23 p	-23.9	-23.9	-23.9	---	---	12.2	NE	0.20	13.9	-35.9	---	---	721.6	0.029	0.000	18.1	1	1
03/19/06	2:24 p	-23.9	-23.9	-24.0	---	---	11.3	NE	0.19	13.0	-35.6	---	---	721.7	0.029	0.000	18.1	1	1
03/19/06	2:25 p	-23.9	-23.9	-23.9	---	---	8.7	NE	0.14	11.3	-34.2	---	---	721.7	0.029	0.000	18.1	1	1
03/19/06	2:26 p	-23.9	-23.9	-23.9	---	---	13.0	NE	0.22	15.7	-36.4	---	---	721.7	0.029	0.000	18.1	1	1
03/19/06	2:27 p	-23.9	-23.9	-23.9	---	---	13.0	NE	0.22	14.8	-36.4	---	---	721.7	0.029	0.000	18.1	1	1
03/19/06	2:28 p	-23.9	-23.9	-23.9	---	---	10.4	NE	0.17	13.0	-35.2	---	---	721.7	0.029	0.000	18.0	1	1
03/19/06	2:29 p	-23.9	-23.9	-23.9	---	---	12.2	NE	0.20	13.9	-36.0	---	---	721.7	0.029	0.000	18.0	1	1
03/19/06	2:30 p	-23.9	-23.9	-23.9	---	---	9.6	NE	0.16	12.2	-34.7	---	---	721.7	0.029	0.000	18.1	1	1
03/19/06	2:31 p	-23.9	-23.9	-23.9	---	---	12.2	ENE	0.20	13.0	-36.0	---	---	721.6	0.029	0.000	18.0	1	1
03/19/06	2:32 p	-23.9	-23.9	-23.9	---	---	11.3	NE	0.19	12.2	-35.6	---	---	721.7	0.029	0.000	18.0	1	1
03/19/06	2:33 p	-23.9	-23.9	-23.9	---	---	11.3	NE	0.19	13.0	-35.6	---	---	721.6	0.029	0.000	18.0	1	1
03/19/06	2:34 p	-23.9	-23.9	-23.9	---	---	11.3	NE	0.19	13.0	-35.6	---	---	721.6	0.029	0.000	18.0	1	1
03/19/06	2:35 p	-23.9	-23.9	-23.9	---	---	11.3	NE	0.19	13.0	-35.6	---	---	721.6	0.029	0.000	18.0	1	1
03/19/06	2:36 p	-23.9	-23.9	-23.9	---	---	10.4	NE	0.17	12.2	-35.2	---	---	721.7	0.029	0.000	18.1	1	1
03/19/06	2:37 p	-23.9	-23.9	-24.0	---	---	10.4	NE	0.17	12.2	-35.2	---	---	721.6	0.029	0.000	18.1	1	1
03/19/06	2:38 p	-23.9	-23.9	-24.0	---	---	10.4	NE	0.17	12.2	-35.2	---	---	721.6	0.029	0.000	18.1	1	1
03/19/06	2:39 p	-23.9	-23.9	-24.0	---	---	8.7	NE	0.14	11.3	-34.2	---	---	721.5	0.029	0.000	18.0	1	1
03/19/06	2:40 p	-23.9	-23.9	-23.9	---	---	9.6	NE	0.16	11.3	-34.7	---	---	721.6	0.029	0.000	18.0	1	1
03/19/06	2:41 p	-23.9	-23.9	-23.9	---	---	9.6	NE	0.16	12.2	-34.7	---	---	721.7	0.029	0.000	18.0	1	1
03/19/06	2:42 p	-24.0	-23.9	-24.0	---	---	9.6	NE	0.16	10.4	-34.8	---	---	721.7	0.029	0.000	18.0	1	1
03/19/06	2:43 p	-23.9	-23.9	-23.9	---	---	9.6	NE	0.16	11.3	-34.7	---	---	721.7	0.029	0.000	18.0	1	1
03/19/06	2:44 p	-23.9	-23.9	-23.9	---	---	9.6	NE	0.16	10.4	-34.7	---	---	721.6	0.029	0.000	18.0	1	1
03/19/06	2:45 p	-23.9	-23.9	-24.0	---	---	8.7	NE	0.14	9.6	-34.2	---	---	721.6	0.029	0.000	18.0	1	1
03/19/06	2:46 p	-24.0	-23.9	-24.0	---	---	9.6	NE	0.16	10.4	-34.8	---	---	721.6	0.029	0.000	18.0	1	1
03/19/06	2:47 p	-23.9	-23.9	-23.9	---	---	10.4	NE	0.17	12.2	-35.2	---	---	721.5	0.029	0.000	18.0	1	1
03/19/06	2:48 p	-24.0	-23.9	-24.0	---	---	9.6	NE	0.16	10.4	-34.8	---	---	721.5	0.029	0.000	18.0	1	1
03/19/06	2:49 p	-23.9	-23.9	-24.0	---	---	9.6	NE	0.16	11.3	-34.7	---	---	721.6	0.029	0.000	18.0	1	1
03/19/06	2:50 p	-23.9	-23.9	-23.9	---	---	8.7	NE	0.14	10.4	-34.2	---	---	721.6	0.029	0.000	18.0	1	1
03/19/06	2:51 p	-23.9	-23.9	-24.0	---	---	8.7	NE	0.14	10.4	-34.2	---	---	721.5	0.029	0.000	18.0	1	1
03/19/06	2:52 p	-23.9	-23.9	-24.0	---	---	8.7	NE	0.14	9.6	-34.2	---	---	721.5	0.029	0.000	18.0	1	1
03/19/06	2:53 p	-23.9	-23.9	-24.0	---	---	8.7	NE	0.14	9.6	-34.2	---	---	721.5	0.029	0.000	18.0	1	1
03/19/06	2:54 p	-24.0	-23.9	-24.0	---	---	8.7	NE	0.14	9.6	-34.3	---	---	721.6	0.029	0.000	18.0	1	1
03/19/06	2:55 p	-23.9	-23.9	-23.9	---	---	8.7	NE	0.14	9.6	-34.2	---	---	721.6	0.029	0.000	18.0	1	1
03/19/06	2:56 p	-23.9	-23.9	-24.0	---	---	7.0	NE	0.12	8.7	-33.1	---	---	721.6	0.029	0.000	18.0	1	1
03/19/06	2:57 p	-23.9	-23.9	-23.9	---	---	7.8	NE	0.13	9.6	-33.7	---	---	721.6	0.029	0.000	18.0	1	1
03/19/06	2:58 p	-23.9	-23.9	-24.0	---	---	7.8	NE	0.13	9.6	-33.7	---	---	721.5	0.029	0.000	18.0	1	1
03/19/06	2:59 p	-23.9	-23.9	-23.9	---	---	8.7	NE	0.14	9.6	-34.2	---	---	721.5	0.029	0.000	18.0	1	1
03/19/06	3:00 p	-23.9	-23.9	-23.9	---	---	7.8	NE	0.13	8.7	-33.7	---	---	721.5	0.029	0.000	18.0	1	1
03/19/06	3:01 p	-23.9	-23.9	-23.9	---	---	7.0	NE	0.12	8.7	-33.1	---	---	721.6	0.029	0.000	18.0	1	1
03/19/06	3:02 p	-23.9	-23.9	-23.9	---	---	7.8	NE	0.13	9.6	-33.7	---	---	721.5	0.029	0.000	18.0	1	1
03/19/06	3:03 p	-23.9	-23.9	-24.0	---	---	7.0	NE	0.12	8.7	-33.1	---	---	721.5	0.029	0.000	18.0	1	1
03/19/06	3:04 p	-23.9	-23.9	-23.9	---	---	7.0	NE	0.12	8.7	-33.1	---	---	721.5	0.029	0.000	18.0	1	1
03/19/06	3:05 p	-23.9	-23.9	-23.9	---	---	8.7	NE	0.14	9.6	-34.2	---	---	721.5	0.029	0.000	18.0	1	1
03/19/06	3:06 p	-23.9	-23.9	-23.9	---	---	7.8	NE	0.13	8.7	-33.7	---	---	721.5	0.029	0.000	18.0	1	1
03/19/06	3:07 p	-23.9	-23.9	-23.9	---	---	8.7	NE	0.14	9.6	-34.2	---	---	721.5	0.029	0.000	18.0	1	1
03/19/06	3:08 p	-23.9	-23.9	-23.9	---	---	7.0	NE	0.12	7.8	-33.1	---	---	721.5	0.029	0.000	18.0	1	1
03/19/06	3:09 p	-23.9	-23.9	-23.9	---	---	7.0	NE	0.12	7.8	-33.0	---	---	721.6	0.029	0.000	18.0	1	1
03/19/06	3:10 p	-23.9	-23.9	-23.9	---	---	6.1	NE	0.10	7.0	-32.3	---	---	721.5	0.029	0.000	18.1	1	1
03/19/06	3:11 p	-23.9	-23.9	-23.9	---	---	7.0	NE	0.12	7.8	-33.0	---	---	721.5	0.029	0.000	18.1	1	1
03/19/06	3:12 p	-23.9	-23.9	-23.9	---	---	7.0	NE	0.12	7.8	-33.0	---	---	721.5	0.029	0.000	18.1	1	1
03/19/06	3:13 p	-23.9	-23.9	-23.9	---	---	6.1	NE	0.10	7.0	-32.3	---	---	721.6	0.029	0.000	18.0	1	1
03/19/06	3:14 p	-23.9	-23.9	-23.9	---	---	6.1	NE	0.10	7.0	-32.3	---	---	721.4	0.029	0.000	18.0	1	1
03/19/06	3:15 p	-23.9	-23.9	-23.9	---	---	6.1	NE	0.10	7.0	-32.4	---	---	721.5	0.029	0.000	18.1	1	1
03/19/06	3:16 p	-23.9	-23.9	-23.9	---	---	5.2	NE	0.09	6.1	-31.6	---	---	721.5	0.029	0.000	18.0	1	1
03/19/06	3:17 p	-23.9	-23.8	-23.9	---	---	5.2	NE	0.09	6.1	-31.6	---	---	721.5	0.029	0.000	18.0	1	1
03/19/06	3:18 p	-23.9	-23.8	-23.9	---	---	3.5	NE	0.06	4.3	-29.7	---	---	721.4	0.029	0.000	18.0	1	1
03/19/06	3:19 p	-23.9	-23.8	-23.9	---	---	3.5	NE	0.06	4.3	-29.7	---	---	721.5	0.029	0.000	18.0	1	1
03/19/06	3:20 p	-23.8	-23.8	-23.8	---	---	2.6	NE	0.04	3.5	-28.4	---	---	721.5	0.029	0.000	18.1	1	1
03/19/06	3:21 p	-23.8	-23.8	-23.8	---	---	3.5	NE	0.06	3.5	-29.7	---	---	721.6	0.029	0.000	18.1	1	1
03/19/06	3:22 p	-23.8	-23.8	-23.8	---	---	2.6	NE	0.04	3.5	-28.4	---	---	721.5	0.029	0.000	18.1	1	1
03/19/06	3:23 p	-23.8	-23.8	-23.8	---	---	2.6	NE	0.04	3.5	-28.4	---	---	721.5	0.029	0.000	18.1	1	1
03/19/06	3:24 p	-23.8	-23.8	-23.8	---	---	1.7	NE	0.03	2.6	-26.7	---	---	721.6	0.029	0.000	18.1	1	1
03/19/06	3:25 p	-23.8	-23.8	-23.8	---	---	1.7	NE	0.03	1.7	-26.7	---	---	721.5	0.029	0.000	18.1	1	1
03/19/06	3:26 p	-23.8	-23.7	-23.8	---	---	0.9	NE	0.01	1.7	-24.0	---	---	721.5	0.029	0.000	18.1	1	1
03/19/06	3:27 p	-23.7	-23.7	-23.8	---	---	0.9	NE	0.01	1.7	-23.9	---	---	721.6	0.029	0.000	18.1	1	1
03/19/06	3:28 p	-23.7	-23.7	-23.7	---	---	0.9	NE	0.01	1.7	-23.9	---	---	721.5	0.029	0.000	18.1	1	1
03/19/06	3:29 p	-23.7	-23.7	-23.7	---	---	0.9	NE	0.01	1.7	-23.9	---	---	721.6	0.029	0.000	18.1	1	1
03/19/06	3:30 p	-23.7	-23.7	-23.7	---	---	0.9	NE	0.01	1.7	-23.9	---	---	721.5	0.029	0.000	18.1	1	1
03/19/06	3:31 p	-23.7	-23.7	-23.7	---	---	0.9	NE	0.01	1.7	-23.9	---	---	721.5	0.029	0.000	18.1	1	1
03/19/06	3:32 p	-23.6	-23.6	-23.7	---	---	0.9	NE	0.01	1.7	-23.8	---	---	721.5	0.029	0.000	18.1	1	1
03/19/06	3:33 p	-23.6	-23.6	-23.7	---	---	0.9	NE	0.01	0.9	-23.8	---	---	721.6	0.029	0.000	18.1	1	1
03/19/06	3:34 p	-23.6	-23.6	-23.6	---	---	0.9	NE	0.01	0.9	-23.8	---	---	721.5	0.029	0.000	18.1	1	1
03/19/06	3:35 p	-23.6	-23.6	-23.6	---	---	0.9	NE	0.01	1.7	-23.8	---	---	721.6	0.029	0.000	18.1	1	1
03/19/06	3:36 p	-23.6	-23.5	-23.6	---	---	0.9	NE	0.01	0.9	-23.8	---	---	721.5	0.029	0.000	18.1	1	1
03/19/06	3:37 p	-23.5	-23.5	-23.6	---	---	0.9	NE	0.01	0.9	-23.7	---	---	721.5	0.029	0.000	18.1	1	1
03/19/06	3:38 p	-23.5	-23.5	-23.5	---	---	0.9	NE	0.01	1.7	-23.7	---	---	721.5	0.029	0.000	18.1	1	1
03/19/06	3:39 p	-23.5	-23.4	-23.5	---	---	0.9	NE	0.01	1.7	-23.7	---	---	721.5	0.029	0.000	18.1	1	1
03/19/06	3:40 p	-23.4	-23.4	-23.5	---	---	1.7	NE	0.03	2.6	-26.3	---	---	721.5	0.029	0.000	18.1	1	1
03/19/06	3:41 p	-23.4	-23.4	-23.4	---	---	1.7	NE	0.03	1.7	-26.3	---	---	721.5	0.029	0.000	18.1	1	1
03/19/06	3:42 p	-23.4	-23.4	-23.4	---	---	0.9	NE	0.01	1.7	-23.7	---	---	721.5	0.029	0.000	18.1	1	1
03/19/06	3:43 p	-23.4	-23.4	-23.4	---	---	0.9	NE	0.01	1.7	-23.6	---	---	721.5	0.029	0.000	18.1	1	1
03/19/06	3:44 p	-23.4	-23.3	-23.4	---	---	0.9	NE	0.01	1.7	-23.6	---	---	721.5	0.029	0.000	18.1	1	1
03/19/06	3:45 p	-23.3	-23.3	-23.3	---	---	0.9	NE	0.01	0.9	-23.6	---	---	721.5	0.029	0.000	18.1	1	1
03/19/06	3:46 p	-23.3	-23.3	-23.3	---	---	0.9	NE	0.01	0.9	-23.6	---	---	721.6	0.029	0.000	18.1	1	1
03/19/06	3:47 p	-23.3	-23.3	-23.3	---	---	0.9	NE	0.01	0.9	-23.5	---	---	721.4	0.029	0.000	18.1	1	1
03/19/06	3:48 p	-23.3	-23.2	-23.3	---	---	0.9	NE	0.01	0.9	-23.5	---	---	721.4	0.029	0.000	18.1	1	1
03/19/06	3:49 p	-23.3	-23.2	-23.3	---	---	0.0	NE	0.00	1.7	-23.2	---	---	721.4	0.029	0.000	18.1	1	1
03/19/06	3:50 p	-23.2	-23.2	-23.2	---	---	1.7	NE	0.03	1.7	-26.1	---	---	721.5	0.029	0.000	18.1	1	1
03/19/06	3:51 p	-23.2	-23.2	-23.2	---	---	1.7	NE	0.03	2.6	-26.1	---	---	721.4	0.029	0.000	18.1	1	1
03/19/06	3:52 p	-23.2	-23.2	-23.2	---	---	2.6	NNE	0.04	2.6	-27.7	---	---	721.4	0.029	0.000	18.1	1	1
03/19/06	3:53 p	-23.2	-23.1	-23.2	---	---	2.6	NNE	0.04	4.3	-27.7	---	---	721.4	0.029	0.000	18.1	1	1
03/19/06	3:54 p	-23.2	-23.1	-23.2	---	---	4.3	NNE	0.07	4.3	-29.9	---	---	721.4	0.029	0.000	18.1	1	1
03/19/06	3:55 p	-23.1	-23.1	-23.1	---	---	4.3	NNE	0.07	5.2	-29.8	---	---	721.5	0.029	0.000	18.1	1	1
03/19/06	3:56 p	-23.1	-23.1	-23.1	---	---	4.3	N	0.07	5.2	-29.8	---	---	721.4	0.029	0.000	18.1	1	1
03/19/06	3:57 p	-23.1	-23.1	-23.1	---	---	1.7	N	0.03	2.6	-25.8	---	---	721.4	0.029	0.000	18.1	1	1
03/19/06	3:58 p	-23.1	-23.0	-23.1	---	---	2.6	N	0.04	3.5	-27.5	---	---	721.5	0.029	0.000	18.1	1	1
03/19/06	3:59 p	-23.1	-23.0	-23.1	---	---	2.6	N	0.04	3.5	-27.5	---	---	721.5	0.029	0.000	18.1	1	1
03/19/06	4:00 p	-23.0	-22.9	-23.1	---	---	3.5	NNW	0.06	4.3	-28.7	---	---	721.4	0.029	0.000	18.1	1	1
03/19/06	4:01 p	-23.0	-22.9	-23.0	---	---	1.7	NNW	0.03	2.6	-25.8	---	---	721.4	0.029	0.000	18.1	1	1
03/19/06	4:02 p	-23.0	-23.0	-23.0	---	---	1.7	NNW	0.03	2.6	-25.8	---	---	721.6	0.029	0.000	18.1	1	1
03/19/06	4:03 p	-22.9	-22.9	-22.9	---	---	1.7	NNW	0.03	2.6	-25.7	---	---	721.5	0.029	0.000	18.1	1	1
03/19/06	4:04 p	-22.9	-22.9	-23.0	---	---	1.7	NNW	0.03	3.5	-25.7	---	---	721.4	0.029	0.000	18.1	1	1
03/19/06	4:05 p	-22.9	-22.9	-22.9	---	---	1.7	NNW	0.03	3.5	-25.7	---	---	721.5	0.029	0.000	18.1	1	1
03/19/06	4:06 p	-22.9	-22.9	-22.9	---	---	0.9	NNW	0.01	1.7	-23.1	---	---	721.4	0.029	0.000	18.1	1	1
03/19/06	4:07 p	-22.9	-22.8	-22.9	---	---	0.9	NNW	0.01	2.6	-23.1	---	---	721.5	0.029	0.000	18.1	1	1
03/19/06	4:08 p	-22.9	-22.8	-22.9	---	---	1.7	NNW	0.03	2.6	-25.7	---	---	721.5	0.029	0.000	18.1	1	1
03/19/06	4:09 p	-22.8	-22.8	-22.8	---	---	1.7	NNW	0.03	2.6	-25.6	---	---	721.5	0.029	0.000	18.1	1	1
03/19/06	4:10 p	-22.8	-22.8	-22.9	---	---	2.6	NNW	0.04	2.6	-27.3	---	---	721.5	0.029	0.000	18.1	1	1
03/19/06	4:11 p	-22.8	-22.8	-22.8	---	---	0.9	NNW	0.01	1.7	-23.1	---	---	721.4	0.029	0.000	18.1	1	1
03/19/06	4:12 p	-22.8	-22.8	-22.8	---	---	0.9	NNW	0.01	0.9	-23.0	---	---	721.4	0.029	0.000	18.1	1	1
03/19/06	4:13 p	-22.8	-22.8	-22.8	---	---	0.9	NNW	0.01	1.7	-23.1	---	---	721.4	0.029	0.000	18.1	1	1
03/19/06	4:14 p	-22.8	-22.8	-22.8	---	---	0.0	NNW	0.00	0.9	-22.8	---	---	721.5	0.029	0.000	18.1	1	1
03/19/06	4:15 p	-22.8	-22.8	-22.8	---	---	0.9	NNW	0.01	0.9	-23.0	---	---	721.4	0.029	0.000	18.1	1	1
03/19/06	4:16 p	-22.8	-22.7	-22.8	---	---	0.9	NNW	0.01	1.7	-23.0	---	---	721.5	0.029	0.000	18.1	1	1
03/19/06	4:17 p	-22.7	-22.7	-22.8	---	---	1.7	NNW	0.03	2.6	-25.5	---	---	721.6	0.029	0.000	18.1	1	1
03/19/06	4:18 p	-22.7	-22.7	-22.7	---	---	1.7	NNW	0.03	2.6	-25.5	---	---	721.4	0.029	0.000	18.1	1	1
03/19/06	4:19 p	-22.7	-22.7	-22.7	---	---	2.6	NNW	0.04	3.5	-27.1	---	---	721.5	0.029	0.000	18.1	1	1
03/19/06	4:20 p	-22.7	-22.7	-22.7	---	---	2.6	NNW	0.04	3.5	-27.1	---	---	721.5	0.029	0.000	18.1	1	1
03/19/06	4:21 p	-22.7	-22.7	-22.7	---	---	2.6	NNW	0.04	2.6	-27.1	---	---	721.5	0.029	0.000	18.1	1	1
03/19/06	4:22 p	-22.7	-22.7	-22.7	---	---	2.6	NNW	0.04	2.6	-27.1	---	---	721.5	0.029	0.000	18.1	1	1
03/19/06	4:23 p	-22.7	-22.7	-22.7	---	---	2.6	NNW	0.04	3.5	-27.1	---	---	721.4	0.028	0.000	18.1	1	1
03/19/06	4:24 p	-22.7	-22.7	-22.7	---	---	2.6	NNW	0.04	2.6	-27.1	---	---	721.4	0.028	0.000	18.1	1	1
03/19/06	4:25 p	-22.7	-22.7	-22.7	---	---	2.6	NNW	0.04	3.5	-27.1	---	---	721.4	0.028	0.000	18.1	1	1
03/19/06	4:26 p	-22.7	-22.6	-22.7	---	---	3.5	NNW	0.06	4.3	-28.3	---	---	721.5	0.028	0.000	18.1	1	1
03/19/06	4:27 p	-22.6	-22.6	-22.7	---	---	3.5	N	0.06	4.3	-28.2	---	---	721.5	0.028	0.000	18.1	1	1
03/19/06	4:28 p	-22.7	-22.6	-22.7	---	---	4.3	N	0.07	4.3	-29.3	---	---	721.5	0.028	0.000	18.1	1	1
03/19/06	4:29 p	-22.7	-22.6	-22.7	---	---	3.5	N	0.06	4.3	-28.3	---	---	721.4	0.028	0.000	18.1	1	1
03/19/06	4:30 p	-22.6	-22.6	-22.7	---	---	3.5	N	0.06	4.3	-28.2	---	---	721.5	0.028	0.000	18.1	1	1
03/19/06	4:31 p	-22.6	-22.6	-22.7	---	---	4.3	N	0.07	4.3	-29.2	---	---	721.4	0.028	0.000	18.1	1	1
03/19/06	4:32 p	-22.6	-22.6	-22.6	---	---	4.3	N	0.07	4.3	-29.2	---	---	721.5	0.028	0.000	18.1	1	1
03/19/06	4:33 p	-22.6	-22.6	-22.6	---	---	2.6	N	0.04	3.5	-27.0	---	---	721.4	0.028	0.000	18.1	1	1
03/19/06	4:34 p	-22.6	-22.6	-22.6	---	---	2.6	N	0.04	3.5	-26.9	---	---	721.4	0.028	0.000	18.1	1	1
03/19/06	4:35 p	-22.6	-22.6	-22.6	---	---	2.6	N	0.04	3.5	-26.9	---	---	721.4	0.028	0.000	18.1	1	1
03/19/06	4:36 p	-22.6	-22.6	-22.6	---	---	2.6	N	0.04	3.5	-26.9	---	---	721.3	0.028	0.000	18.1	1	1
03/19/06	4:37 p	-22.6	-22.6	-22.6	---	---	2.6	N	0.04	3.5	-26.9	---	---	721.4	0.028	0.000	18.1	1	1
03/19/06	4:38 p	-22.6	-22.6	-22.6	---	---	2.6	N	0.04	3.5	-26.9	---	---	721.4	0.028	0.000	18.1	1	1
03/19/06	4:39 p	-22.5	-22.5	-22.5	---	---	4.3	N	0.07	5.2	-29.1	---	---	721.4	0.028	0.000	18.1	1	1
03/19/06	4:40 p	-22.5	-22.5	-22.6	---	---	5.2	N	0.09	6.1	-29.9	---	---	721.4	0.028	0.000	18.1	1	1
03/19/06	4:41 p	-22.5	-22.5	-22.5	---	---	4.3	N	0.07	5.2	-29.1	---	---	721.4	0.028	0.000	18.1	1	1
03/19/06	4:42 p	-22.4	-22.4	-22.5	---	---	4.3	N	0.07	5.2	-29.1	---	---	721.4	0.028	0.000	18.1	1	1
03/19/06	4:43 p	-22.4	-22.4	-22.4	---	---	4.3	N	0.07	5.2	-29.1	---	---	721.4	0.028	0.000	18.1	1	1
03/19/06	4:44 p	-22.4	-22.4	-22.4	---	---	3.5	N	0.06	4.3	-28.0	---	---	721.4	0.028	0.000	18.1	1	1
03/19/06	4:45 p	-22.4	-22.4	-22.4	---	---	3.5	N	0.06	4.3	-28.0	---	---	721.4	0.028	0.000	18.1	1	1
03/19/06	4:46 p	-22.4	-22.4	-22.4	---	---	3.5	N	0.06	5.2	-28.0	---	---	721.4	0.028	0.000	18.1	1	1
03/19/06	4:47 p	-22.4	-22.4	-22.4	---	---	4.3	N	0.07	6.1	-29.0	---	---	721.4	0.028	0.000	18.1	1	1
03/19/06	4:48 p	-22.4	-22.3	-22.4	---	---	3.5	N	0.06	4.3	-28.0	---	---	721.4	0.028	0.000	18.1	1	1
03/19/06	4:49 p	-22.3	-22.3	-22.3	---	---	4.3	N	0.07	5.2	-28.9	---	---	721.3	0.028	0.000	18.1	1	1
03/19/06	4:50 p	-22.3	-22.3	-22.3	---	---	5.2	N	0.09	7.0	-29.7	---	---	721.4	0.028	0.000	18.1	1	1
03/19/06	4:51 p	-22.3	-22.3	-22.3	---	---	5.2	N	0.09	6.1	-29.7	---	---	721.4	0.028	0.000	18.1	1	1
03/19/06	4:52 p	-22.3	-22.3	-22.3	---	---	6.1	N	0.10	7.0	-30.5	---	---	721.3	0.028	0.000	18.1	1	1
03/19/06	4:53 p	-22.3	-22.3	-22.3	---	---	4.3	N	0.07	6.1	-28.8	---	---	721.5	0.028	0.000	18.1	1	1
03/19/06	4:54 p	-22.3	-22.3	-22.3	---	---	4.3	N	0.07	5.2	-28.8	---	---	721.4	0.028	0.000	18.1	1	1
03/19/06	4:55 p	-22.3	-22.2	-22.3	---	---	4.3	N	0.07	4.3	-28.8	---	---	721.4	0.028	0.000	18.1	1	1
03/19/06	4:56 p	-22.3	-22.2	-22.3	---	---	4.3	N	0.07	4.3	-28.8	---	---	721.4	0.028	0.000	18.1	1	1
03/19/06	4:57 p	-22.2	-22.2	-22.3	---	---	4.3	N	0.07	5.2	-28.8	---	---	721.3	0.028	0.000	18.1	1	1
03/19/06	4:58 p	-22.2	-22.2	-22.2	---	---	4.3	N	0.07	5.2	-28.8	---	---	721.5	0.028	0.000	18.1	1	1
03/19/06	4:59 p	-22.2	-22.2	-22.2	---	---	4.3	N	0.07	5.2	-28.8	---	---	721.4	0.028	0.000	18.1	1	1
03/19/06	5:00 p	-22.2	-22.2	-22.2	---	---	4.3	N	0.07	5.2	-28.8	---	---	721.4	0.028	0.000	18.1	1	1
03/19/06	5:01 p	-22.2	-22.2	-22.2	---	---	4.3	N	0.07	6.1	-28.7	---	---	721.4	0.028	0.000	18.1	1	1
03/19/06	5:02 p	-22.2	-22.2	-22.2	---	---	3.5	N	0.06	5.2	-27.7	---	---	721.4	0.028	0.000	18.1	1	1
03/19/06	5:03 p	-22.2	-22.2	-22.2	---	---	3.5	N	0.06	4.3	-27.7	---	---	721.4	0.028	0.000	18.1	1	1
03/19/06	5:04 p	-22.2	-22.1	-22.2	---	---	3.5	N	0.06	4.3	-27.7	---	---	721.4	0.028	0.000	18.1	1	1
03/19/06	5:05 p	-22.1	-22.1	-22.2	---	---	2.6	N	0.04	2.6	-26.4	---	---	721.4	0.028	0.000	18.1	1	1
03/19/06	5:06 p	-22.1	-22.1	-22.2	---	---	2.6	N	0.04	3.5	-26.4	---	---	721.4	0.028	0.000	18.1	1	1
03/19/06	5:07 p	-22.1	-22.1	-22.1	---	---	2.6	N	0.04	3.5	-26.4	---	---	721.4	0.028	0.000	18.1	1	1
03/19/06	5:08 p	-22.1	-22.1	-22.1	---	---	2.6	N	0.04	3.5	-26.4	---	---	721.4	0.028	0.000	18.1	1	1
03/19/06	5:09 p	-22.1	-22.1	-22.1	---	---	2.6	N	0.04	3.5	-26.4	---	---	721.4	0.028	0.000	18.1	1	1
03/19/06	5:10 p	-22.1	-22.1	-22.1	---	---	2.6	N	0.04	3.5	-26.4	---	---	721.4	0.028	0.000	18.1	1	1
03/19/06	5:11 p	-22.1	-22.1	-22.1	---	---	2.6	N	0.04	3.5	-26.4	---	---	721.4	0.028	0.000	18.1	1	1
03/19/06	5:12 p	-22.1	-22.1	-22.1	---	---	2.6	N	0.04	4.3	-26.4	---	---	721.3	0.028	0.000	18.1	1	1
03/19/06	5:13 p	-22.1	-22.1	-22.1	---	---	2.6	N	0.04	3.5	-26.4	---	---	721.4	0.028	0.000	18.1	1	1
03/19/06	5:14 p	-22.1	-22.1	-22.1	---	---	3.5	N	0.06	5.2	-27.6	---	---	721.3	0.028	0.000	18.1	1	1
03/19/06	5:15 p	-22.1	-22.0	-22.1	---	---	2.6	N	0.04	4.3	-26.4	---	---	721.4	0.028	0.000	18.1	1	1
03/19/06	5:16 p	-22.0	-22.0	-22.0	---	---	2.6	N	0.04	4.3	-26.3	---	---	721.3	0.028	0.000	18.1	1	1
03/19/06	5:17 p	-22.0	-22.0	-22.1	---	---	3.5	N	0.06	5.2	-27.6	---	---	721.4	0.028	0.000	18.1	1	1
03/19/06	5:18 p	-22.0	-22.0	-22.1	---	---	3.5	N	0.06	5.2	-27.6	---	---	721.4	0.028	0.000	18.1	1	1
03/19/06	5:19 p	-21.9	-21.9	-22.0	---	---	3.5	N	0.06	4.3	-27.5	---	---	721.3	0.028	0.000	18.1	1	1
03/19/06	5:20 p	-21.9	-21.9	-22.0	---	---	2.6	N	0.04	4.3	-26.3	---	---	721.3	0.028	0.000	18.1	1	1
03/19/06	5:21 p	-21.9	-21.9	-22.0	---	---	4.3	N	0.07	5.2	-28.4	---	---	721.3	0.028	0.000	18.1	1	1
03/19/06	5:22 p	-21.9	-21.9	-21.9	---	---	3.5	N	0.06	4.3	-27.5	---	---	721.3	0.028	0.000	18.2	1	1
03/19/06	5:23 p	-21.9	-21.9	-21.9	---	---	3.5	N	0.06	4.3	-27.5	---	---	721.2	0.028	0.000	18.1	1	1
03/19/06	5:24 p	-21.9	-21.9	-21.9	---	---	2.6	N	0.04	4.3	-26.3	---	---	721.2	0.028	0.000	18.2	1	1
03/19/06	5:25 p	-21.9	-21.9	-21.9	---	---	3.5	N	0.06	3.5	-27.5	---	---	721.3	0.028	0.000	18.2	1	1
03/19/06	5:26 p	-21.9	-21.9	-21.9	---	---	3.5	N	0.06	3.5	-27.5	---	---	721.3	0.028	0.000	18.2	1	1
03/19/06	5:27 p	-21.9	-21.9	-21.9	---	---	3.5	N	0.06	4.3	-27.5	---	---	721.3	0.028	0.000	18.2	1	1
03/19/06	5:28 p	-21.9	-21.9	-21.9	---	---	3.5	N	0.06	4.3	-27.5	---	---	721.3	0.028	0.000	18.2	1	1
03/19/06	5:29 p	-21.9	-21.9	-21.9	---	---	3.5	N	0.06	5.2	-27.5	---	---	721.4	0.028	0.000	18.2	1	1
03/19/06	5:30 p	-21.9	-21.9	-21.9	---	---	3.5	N	0.06	4.3	-27.5	---	---	721.3	0.028	0.000	18.2	1	1
03/19/06	5:31 p	-21.9	-21.9	-21.9	---	---	2.6	N	0.04	3.5	-26.3	---	---	721.2	0.028	0.000	18.2	1	1
03/19/06	5:32 p	-21.9	-21.9	-21.9	---	---	2.6	N	0.04	4.3	-26.3	---	---	721.3	0.028	0.000	18.2	1	1
03/19/06	5:33 p	-21.9	-21.9	-21.9	---	---	3.5	N	0.06	4.3	-27.5	---	---	721.3	0.028	0.000	18.2	1	1
03/19/06	5:34 p	-21.9	-21.9	-21.9	---	---	3.5	N	0.06	4.3	-27.5	---	---	721.3	0.028	0.000	18.2	1	1
03/19/06	5:35 p	-21.9	-21.9	-21.9	---	---	3.5	N	0.06	4.3	-27.5	---	---	721.3	0.028	0.000	18.2	1	1
03/19/06	5:36 p	-21.9	-21.9	-21.9	---	---	4.3	N	0.07	5.2	-28.4	---	---	721.3	0.028	0.000	18.2	1	1
03/19/06	5:37 p	-21.9	-21.9	-21.9	---	---	4.3	N	0.07	5.2	-28.4	---	---	721.4	0.028	0.000	18.2	1	1
03/19/06	5:38 p	-21.9	-21.9	-21.9	---	---	4.3	N	0.07	4.3	-28.4	---	---	721.3	0.028	0.000	18.2	1	1
03/19/06	5:39 p	-21.9	-21.9	-21.9	---	---	3.5	N	0.06	4.3	-27.5	---	---	721.3	0.028	0.000	18.2	1	1
03/19/06	5:40 p	-21.9	-21.9	-21.9	---	---	3.5	N	0.06	5.2	-27.5	---	---	721.3	0.028	0.000	18.2	1	1
03/19/06	5:41 p	-21.9	-21.9	-21.9	---	---	3.5	N	0.06	4.3	-27.5	---	---	721.4	0.028	0.000	18.2	1	1
03/19/06	5:42 p	-21.9	-21.9	-21.9	---	---	3.5	N	0.06	4.3	-27.5	---	---	721.2	0.028	0.000	18.2	1	1
03/19/06	5:43 p	-21.9	-21.9	-21.9	---	---	3.5	N	0.06	3.5	-27.5	---	---	721.3	0.028	0.000	18.2	1	1
03/19/06	5:44 p	-21.9	-21.9	-21.9	---	---	3.5	N	0.06	4.3	-27.5	---	---	721.4	0.028	0.000	18.2	1	1
03/19/06	5:45 p	-21.9	-21.9	-21.9	---	---	3.5	N	0.06	3.5	-27.5	---	---	721.3	0.028	0.000	18.2	1	1
03/19/06	5:46 p	-21.9	-21.9	-21.9	---	---	2.6	N	0.04	3.5	-26.3	---	---	721.3	0.028	0.000	18.2	1	1
03/19/06	5:47 p	-21.9	-21.9	-21.9	---	---	2.6	N	0.04	3.5	-26.3	---	---	721.3	0.028	0.000	18.2	1	1
03/19/06	5:48 p	-21.9	-21.9	-21.9	---	---	3.5	N	0.06	4.3	-27.5	---	---	721.3	0.028	0.000	18.2	1	1
03/19/06	5:49 p	-21.9	-21.9	-22.0	---	---	3.5	N	0.06	4.3	-27.5	---	---	721.3	0.028	0.000	18.2	1	1
03/19/06	5:50 p	-21.9	-21.9	-21.9	---	---	3.5	N	0.06	4.3	-27.5	---	---	721.3	0.028	0.000	18.1	1	1
03/19/06	5:51 p	-21.9	-21.9	-22.0	---	---	3.5	N	0.06	5.2	-27.5	---	---	721.3	0.028	0.000	18.1	1	1
03/19/06	5:52 p	-21.9	-21.9	-22.0	---	---	3.5	N	0.06	3.5	-27.5	---	---	721.3	0.028	0.000	18.1	1	1
03/19/06	5:53 p	-22.0	-21.9	-22.1	---	---	2.6	N	0.04	3.5	-26.3	---	---	721.2	0.028	0.000	18.1	1	1
03/19/06	5:54 p	-21.9	-21.9	-21.9	---	---	3.5	N	0.06	3.5	-27.5	---	---	721.3	0.028	0.000	18.1	1	1
03/19/06	5:55 p	-22.0	-21.9	-22.1	---	---	3.5	N	0.06	4.3	-27.6	---	---	721.2	0.028	0.000	18.1	1	1
03/19/06	5:56 p	-21.9	-21.9	-22.0	---	---	2.6	N	0.04	3.5	-26.3	---	---	721.4	0.028	0.000	18.1	1	1
03/19/06	5:57 p	-22.0	-22.0	-22.0	---	---	3.5	N	0.06	4.3	-27.6	---	---	721.3	0.028	0.000	18.1	1	1
03/19/06	5:58 p	-22.0	-22.0	-22.0	---	---	3.5	N	0.06	3.5	-27.6	---	---	721.3	0.028	0.000	18.1	1	1
03/19/06	5:59 p	-22.1	-22.0	-22.1	---	---	3.5	N	0.06	4.3	-27.6	---	---	721.3	0.028	0.000	18.1	1	1
03/19/06	6:00 p	-22.0	-22.0	-22.1	---	---	3.5	N	0.06	4.3	-27.6	---	---	721.3	0.028	0.000	18.1	1	1
03/19/06	6:01 p	-22.0	-22.0	-22.1	---	---	3.5	N	0.06	4.3	-27.6	---	---	721.3	0.028	0.000	18.1	1	1
03/19/06	6:02 p	-22.0	-22.0	-22.1	---	---	3.5	N	0.06	4.3	-27.6	---	---	721.3	0.028	0.000	18.1	1	1
03/19/06	6:03 p	-22.0	-22.0	-22.1	---	---	4.3	N	0.07	5.2	-28.5	---	---	721.3	0.028	0.000	18.1	1	1
03/19/06	6:04 p	-22.0	-22.0	-22.1	---	---	4.3	N	0.07	5.2	-28.5	---	---	721.3	0.028	0.000	18.1	1	1
03/19/06	6:05 p	-22.0	-22.0	-22.1	---	---	5.2	N	0.09	5.2	-29.3	---	---	721.3	0.028	0.000	18.1	1	1
03/19/06	6:06 p	-22.0	-22.0	-22.1	---	---	4.3	N	0.07	5.2	-28.5	---	---	721.3	0.028	0.000	18.1	1	1
03/19/06	6:07 p	-22.0	-22.0	-22.1	---	---	4.3	N	0.07	5.2	-28.5	---	---	721.2	0.028	0.000	18.1	1	1
03/19/06	6:08 p	-22.1	-22.0	-22.1	---	---	3.5	N	0.06	4.3	-27.6	---	---	721.2	0.028	0.000	18.1	1	1
03/19/06	6:09 p	-22.1	-22.0	-22.1	---	---	3.5	N	0.06	4.3	-27.6	---	---	721.3	0.028	0.000	18.1	1	1
03/19/06	6:10 p	-22.1	-22.0	-22.1	---	---	3.5	N	0.06	5.2	-27.6	---	---	721.3	0.028	0.000	18.1	1	1
03/19/06	6:11 p	-22.1	-22.0	-22.1	---	---	3.5	N	0.06	5.2	-27.6	---	---	721.2	0.028	0.000	18.1	1	1
03/19/06	6:12 p	-22.1	-22.0	-22.1	---	---	4.3	N	0.07	5.2	-28.6	---	---	721.2	0.028	0.000	18.1	1	1
03/19/06	6:13 p	-22.1	-22.1	-22.1	---	---	4.3	N	0.07	5.2	-28.6	---	---	721.3	0.028	0.000	18.1	1	1
03/19/06	6:14 p	-22.1	-22.0	-22.1	---	---	4.3	N	0.07	5.2	-28.6	---	---	721.2	0.028	0.000	18.1	1	1
03/19/06	6:15 p	-22.1	-22.0	-22.1	---	---	4.3	N	0.07	6.1	-28.6	---	---	721.3	0.028	0.000	18.1	1	1
03/19/06	6:16 p	-22.1	-22.1	-22.1	---	---	5.2	N	0.09	6.1	-29.4	---	---	721.2	0.028	0.000	18.1	1	1
03/19/06	6:17 p	-22.1	-22.1	-22.1	---	---	5.2	N	0.09	6.1	-29.4	---	---	721.2	0.028	0.000	18.1	1	1
03/19/06	6:18 p	-22.1	-22.1	-22.1	---	---	5.2	N	0.09	6.1	-29.4	---	---	721.2	0.028	0.000	18.1	1	1
03/19/06	6:19 p	-22.1	-22.0	-22.1	---	---	5.2	N	0.09	6.1	-29.4	---	---	721.2	0.028	0.000	18.1	1	1
03/19/06	6:20 p	-22.1	-22.0	-22.1	---	---	4.3	N	0.07	5.2	-28.6	---	---	721.2	0.028	0.000	18.1	1	1
03/19/06	6:21 p	-22.1	-22.0	-22.1	---	---	5.2	N	0.09	6.1	-29.4	---	---	721.2	0.028	0.000	18.1	1	1
03/19/06	6:22 p	-22.1	-22.1	-22.1	---	---	5.2	N	0.09	6.1	-29.4	---	---	721.2	0.028	0.000	18.1	1	1
03/19/06	6:23 p	-22.1	-22.0	-22.1	---	---	4.3	N	0.07	5.2	-28.6	---	---	721.2	0.028	0.000	18.1	1	1
03/19/06	6:24 p	-22.1	-22.0	-22.1	---	---	4.3	N	0.07	5.2	-28.6	---	---	721.2	0.028	0.000	18.1	1	1
03/19/06	6:25 p	-22.1	-22.0	-22.1	---	---	4.3	N	0.07	5.2	-28.6	---	---	721.2	0.028	0.000	18.1	1	1
03/19/06	6:26 p	-22.1	-22.0	-22.1	---	---	5.2	N	0.09	6.1	-29.4	---	---	721.2	0.028	0.000	18.1	1	1
03/19/06	6:27 p	-22.1	-22.0	-22.1	---	---	5.2	NNW	0.09	7.0	-29.4	---	---	721.2	0.028	0.000	18.1	1	1
03/19/06	6:28 p	-22.1	-22.1	-22.1	---	---	5.2	NNW	0.09	6.1	-29.4	---	---	721.2	0.028	0.000	18.1	1	1
03/19/06	6:29 p	-22.1	-22.1	-22.1	---	---	4.3	NNW	0.07	6.1	-28.6	---	---	721.1	0.028	0.000	18.1	1	1
03/19/06	6:30 p	-22.1	-22.1	-22.1	---	---	4.3	NNW	0.07	5.2	-28.6	---	---	721.2	0.028	0.000	18.1	1	1
03/19/06	6:31 p	-22.1	-22.1	-22.1	---	---	3.5	NNW	0.06	5.2	-27.6	---	---	721.1	0.028	0.000	18.1	1	1
03/19/06	6:32 p	-22.1	-22.1	-22.1	---	---	4.3	NNW	0.07	5.2	-28.6	---	---	721.2	0.028	0.000	18.1	1	1
03/19/06	6:33 p	-22.1	-22.1	-22.1	---	---	4.3	NNW	0.07	4.3	-28.6	---	---	721.2	0.028	0.000	18.1	1	1
03/19/06	6:34 p	-22.1	-22.1	-22.1	---	---	4.3	NNW	0.07	5.2	-28.6	---	---	721.1	0.028	0.000	18.1	1	1
03/19/06	6:35 p	-22.1	-22.1	-22.1	---	---	2.6	NNW	0.04	3.5	-26.4	---	---	721.1	0.028	0.000	18.1	1	1
03/19/06	6:36 p	-22.1	-22.1	-22.1	---	---	3.5	NNW	0.06	5.2	-27.6	---	---	721.1	0.028	0.000	18.1	1	1
03/19/06	6:37 p	-22.1	-22.1	-22.1	---	---	3.5	NNW	0.06	4.3	-27.6	---	---	721.0	0.028	0.000	18.1	1	1
03/19/06	6:38 p	-22.1	-22.1	-22.1	---	---	3.5	NNW	0.06	4.3	-27.6	---	---	721.2	0.028	0.000	18.1	1	1
03/19/06	6:39 p	-22.1	-22.1	-22.1	---	---	3.5	NNW	0.06	4.3	-27.6	---	---	721.1	0.028	0.000	18.1	1	1
03/19/06	6:40 p	-22.1	-22.1	-22.1	---	---	3.5	NNW	0.06	5.2	-27.6	---	---	721.1	0.028	0.000	18.1	1	1
03/19/06	6:41 p	-22.1	-22.1	-22.1	---	---	3.5	NNW	0.06	5.2	-27.6	---	---	721.1	0.028	0.000	18.2	1	1
03/19/06	6:42 p	-22.1	-22.1	-22.1	---	---	3.5	NNW	0.06	6.1	-27.6	---	---	721.1	0.028	0.000	18.2	1	1
03/19/06	6:43 p	-22.1	-22.1	-22.1	---	---	4.3	NNW	0.07	6.1	-28.7	---	---	721.0	0.028	0.000	18.2	1	1
03/19/06	6:44 p	-22.1	-22.1	-22.1	---	---	4.3	NNW	0.07	5.2	-28.7	---	---	721.1	0.028	0.000	18.2	1	1
03/19/06	6:45 p	-22.1	-22.1	-22.1	---	---	5.2	NNW	0.09	6.1	-29.4	---	---	721.0	0.028	0.000	18.2	1	1
03/19/06	6:46 p	-22.1	-22.1	-22.1	---	---	4.3	NNW	0.07	5.2	-28.7	---	---	721.0	0.028	0.000	18.2	1	1
03/19/06	6:47 p	-22.1	-22.1	-22.1	---	---	4.3	NNW	0.07	5.2	-28.7	---	---	721.1	0.028	0.000	18.2	1	1
03/19/06	6:48 p	-22.1	-22.1	-22.1	---	---	3.5	NNW	0.06	5.2	-27.7	---	---	721.1	0.028	0.000	18.2	1	1
03/19/06	6:49 p	-22.1	-22.1	-22.1	---	---	4.3	NNW	0.07	5.2	-28.7	---	---	721.1	0.028	0.000	18.2	1	1
03/19/06	6:50 p	-22.1	-22.1	-22.1	---	---	4.3	NNW	0.07	5.2	-28.7	---	---	721.1	0.028	0.000	18.2	1	1
03/19/06	6:51 p	-22.1	-22.1	-22.1	---	---	3.5	NNW	0.06	4.3	-27.7	---	---	721.1	0.028	0.000	18.2	1	1
03/19/06	6:52 p	-22.1	-22.1	-22.1	---	---	3.5	NNW	0.06	3.5	-27.7	---	---	721.1	0.028	0.000	18.2	1	1
03/19/06	6:53 p	-22.1	-22.1	-22.1	---	---	3.5	NNW	0.06	3.5	-27.7	---	---	721.1	0.028	0.000	18.2	1	1
03/19/06	6:54 p	-22.1	-22.1	-22.1	---	---	3.5	NNW	0.06	4.3	-27.7	---	---	721.0	0.028	0.000	18.2	1	1
03/19/06	6:55 p	-22.1	-22.1	-22.1	---	---	3.5	NNW	0.06	3.5	-27.7	---	---	721.0	0.028	0.000	18.2	1	1
03/19/06	6:56 p	-22.1	-22.1	-22.1	---	---	4.3	NNW	0.07	5.2	-28.7	---	---	721.1	0.028	0.000	18.2	1	1
03/19/06	6:57 p	-22.1	-22.1	-22.1	---	---	3.5	NNW	0.06	4.3	-27.7	---	---	721.0	0.028	0.000	18.2	1	1
03/19/06	6:58 p	-22.1	-22.1	-22.1	---	---	3.5	NNW	0.06	4.3	-27.7	---	---	721.0	0.028	0.000	18.2	1	1
03/19/06	6:59 p	-22.1	-22.1	-22.1	---	---	3.5	NNW	0.06	4.3	-27.7	---	---	721.0	0.028	0.000	18.2	1	1
03/19/06	7:00 p	-22.1	-22.1	-22.2	---	---	3.5	NNW	0.06	4.3	-27.7	---	---	721.0	0.028	0.000	18.2	1	1
03/19/06	7:01 p	-22.1	-22.1	-22.2	---	---	3.5	NNW	0.06	4.3	-27.7	---	---	721.1	0.028	0.000	18.2	1	1
03/19/06	7:02 p	-22.1	-22.1	-22.2	---	---	3.5	NNW	0.06	4.3	-27.7	---	---	721.0	0.028	0.000	18.1	1	1
03/19/06	7:03 p	-22.2	-22.1	-22.2	---	---	4.3	NNW	0.07	5.2	-28.7	---	---	721.0	0.028	0.000	18.1	1	1
03/19/06	7:04 p	-22.1	-22.1	-22.2	---	---	4.3	NNW	0.07	5.2	-28.7	---	---	721.1	0.028	0.000	18.1	1	1
03/19/06	7:05 p	-22.1	-22.1	-22.1	---	---	3.5	NNW	0.06	4.3	-27.7	---	---	721.0	0.028	0.000	18.1	1	1
03/19/06	7:06 p	-22.1	-22.1	-22.2	---	---	4.3	NNW	0.07	5.2	-28.7	---	---	721.0	0.028	0.000	18.1	1	1
03/19/06	7:07 p	-22.1	-22.1	-22.2	---	---	4.3	NNW	0.07	5.2	-28.7	---	---	721.0	0.028	0.000	18.1	1	1
03/19/06	7:08 p	-22.2	-22.1	-22.2	---	---	3.5	NNW	0.06	5.2	-27.7	---	---	721.0	0.028	0.000	18.1	1	1
03/19/06	7:09 p	-22.2	-22.1	-22.2	---	---	3.5	NNW	0.06	5.2	-27.7	---	---	721.0	0.028	0.000	18.1	1	1
03/19/06	7:10 p	-22.1	-22.1	-22.2	---	---	4.3	NNW	0.07	6.1	-28.7	---	---	721.0	0.028	0.000	18.1	1	1
03/19/06	7:11 p	-22.1	-22.1	-22.2	---	---	4.3	NNW	0.07	6.1	-28.7	---	---	721.0	0.028	0.000	18.1	1	1
03/19/06	7:12 p	-22.1	-22.1	-22.2	---	---	4.3	NNW	0.07	5.2	-28.7	---	---	720.9	0.028	0.000	18.1	1	1
03/19/06	7:13 p	-22.1	-22.1	-22.2	---	---	4.3	NNW	0.07	5.2	-28.7	---	---	720.9	0.028	0.000	18.1	1	1
03/19/06	7:14 p	-22.2	-22.1	-22.2	---	---	4.3	NNW	0.07	5.2	-28.7	---	---	721.0	0.028	0.000	18.1	1	1
03/19/06	7:15 p	-22.2	-22.1	-22.2	---	---	4.3	NNW	0.07	5.2	-28.7	---	---	720.9	0.028	0.000	18.1	1	1
03/19/06	7:16 p	-22.2	-22.2	-22.2	---	---	3.5	NNW	0.06	5.2	-27.7	---	---	720.9	0.028	0.000	18.1	1	1
03/19/06	7:17 p	-22.2	-22.2	-22.2	---	---	4.3	NNW	0.07	5.2	-28.7	---	---	720.9	0.028	0.000	18.1	1	1
03/19/06	7:18 p	-22.2	-22.2	-22.2	---	---	4.3	NNW	0.07	5.2	-28.7	---	---	720.9	0.028	0.000	18.1	1	1
03/19/06	7:19 p	-22.2	-22.2	-22.2	---	---	4.3	NNW	0.07	5.2	-28.7	---	---	720.9	0.028	0.000	18.1	1	1
03/19/06	7:20 p	-22.2	-22.2	-22.2	---	---	4.3	NNW	0.07	6.1	-28.7	---	---	720.9	0.028	0.000	18.1	1	1
03/19/06	7:21 p	-22.2	-22.2	-22.2	---	---	4.3	NNW	0.07	5.2	-28.7	---	---	720.9	0.028	0.000	18.1	1	1
03/19/06	7:22 p	-22.2	-22.1	-22.2	---	---	3.5	NNW	0.06	5.2	-27.7	---	---	720.9	0.028	0.000	18.1	1	1
03/19/06	7:23 p	-22.2	-22.2	-22.2	---	---	3.5	NNW	0.06	4.3	-27.7	---	---	720.9	0.028	0.000	18.1	1	1
03/19/06	7:24 p	-22.2	-22.2	-22.2	---	---	3.5	NNW	0.06	4.3	-27.7	---	---	720.8	0.028	0.000	18.1	1	1
03/19/06	7:25 p	-22.2	-22.1	-22.2	---	---	3.5	NNW	0.06	5.2	-27.7	---	---	720.9	0.028	0.000	18.1	1	1
03/19/06	7:26 p	-22.2	-22.2	-22.2	---	---	3.5	NNW	0.06	4.3	-27.7	---	---	720.9	0.028	0.000	18.1	1	1
03/19/06	7:27 p	-22.2	-22.2	-22.2	---	---	3.5	NNW	0.06	5.2	-27.7	---	---	720.9	0.028	0.000	18.1	1	1
03/19/06	7:28 p	-22.2	-22.2	-22.2	---	---	3.5	NNW	0.06	4.3	-27.7	---	---	720.9	0.028	0.000	18.1	1	1
03/19/06	7:29 p	-22.2	-22.1	-22.2	---	---	3.5	NNW	0.06	4.3	-27.7	---	---	720.9	0.028	0.000	18.2	1	1
03/19/06	7:30 p	-22.2	-22.2	-22.2	---	---	3.5	NNW	0.06	4.3	-27.7	---	---	720.8	0.028	0.000	18.1	1	1
03/19/06	7:31 p	-22.2	-22.2	-22.2	---	---	1.7	NNW	0.03	2.6	-24.9	---	---	720.8	0.028	0.000	18.1	1	1
03/19/06	7:32 p	-22.2	-22.2	-22.2	---	---	1.7	NNW	0.03	1.7	-24.9	---	---	720.9	0.028	0.000	18.1	1	1
03/19/06	7:33 p	-22.2	-22.2	-22.2	---	---	1.7	NNW	0.03	1.7	-24.9	---	---	720.9	0.028	0.000	18.2	1	1
03/19/06	7:34 p	-22.3	-22.2	-22.3	---	---	0.9	NNW	0.01	1.7	-22.4	---	---	720.9	0.028	0.000	18.2	1	1
03/19/06	7:35 p	-22.3	-22.3	-22.3	---	---	1.7	NNW	0.03	2.6	-25.0	---	---	720.9	0.028	0.000	18.2	1	1
03/19/06	7:36 p	-22.3	-22.3	-22.3	---	---	2.6	NNW	0.04	4.3	-26.7	---	---	720.8	0.028	0.000	18.2	1	1
03/19/06	7:37 p	-22.3	-22.3	-22.3	---	---	2.6	NNW	0.04	3.5	-26.7	---	---	720.9	0.028	0.000	18.2	1	1
03/19/06	7:38 p	-22.3	-22.3	-22.3	---	---	2.6	NNW	0.04	3.5	-26.7	---	---	720.9	0.028	0.000	18.2	1	1
03/19/06	7:39 p	-22.3	-22.3	-22.3	---	---	2.6	NNW	0.04	3.5	-26.7	---	---	720.9	0.028	0.000	18.2	1	1
03/19/06	7:40 p	-22.3	-22.3	-22.3	---	---	3.5	NNW	0.06	4.3	-27.9	---	---	720.9	0.028	0.000	18.2	1	1
03/19/06	7:41 p	-22.3	-22.3	-22.4	---	---	3.5	NNW	0.06	3.5	-27.9	---	---	720.9	0.028	0.000	18.2	1	1
03/19/06	7:42 p	-22.3	-22.3	-22.4	---	---	3.5	NNW	0.06	4.3	-27.9	---	---	720.9	0.028	0.000	18.2	1	1
03/19/06	7:43 p	-22.4	-22.4	-22.4	---	---	3.5	NNW	0.06	3.5	-28.0	---	---	720.8	0.028	0.000	18.2	1	1
03/19/06	7:44 p	-22.4	-22.4	-22.4	---	---	3.5	NNW	0.06	3.5	-28.0	---	---	720.8	0.028	0.000	18.2	1	1
03/19/06	7:45 p	-22.4	-22.4	-22.4	---	---	3.5	NNW	0.06	4.3	-28.0	---	---	720.8	0.028	0.000	18.2	1	1
03/19/06	7:46 p	-22.4	-22.4	-22.4	---	---	3.5	NNW	0.06	4.3	-28.0	---	---	720.8	0.028	0.000	18.2	1	1
03/19/06	7:47 p	-22.4	-22.4	-22.5	---	---	3.5	NNW	0.06	4.3	-28.1	---	---	720.8	0.028	0.000	18.2	1	1
03/19/06	7:48 p	-22.4	-22.4	-22.4	---	---	3.5	NNW	0.06	4.3	-28.1	---	---	720.8	0.028	0.000	18.2	1	1
03/19/06	7:49 p	-22.4	-22.4	-22.5	---	---	4.3	NNW	0.07	5.2	-29.1	---	---	720.8	0.028	0.000	18.2	1	1
03/19/06	7:50 p	-22.5	-22.4	-22.5	---	---	3.5	NNW	0.06	4.3	-28.1	---	---	720.8	0.028	0.000	18.2	1	1
03/19/06	7:51 p	-22.4	-22.4	-22.5	---	---	3.5	NNW	0.06	4.3	-28.1	---	---	720.8	0.028	0.000	18.2	1	1
03/19/06	7:52 p	-22.5	-22.4	-22.5	---	---	3.5	NNW	0.06	4.3	-28.1	---	---	720.8	0.028	0.000	18.2	1	1
03/19/06	7:53 p	-22.5	-22.5	-22.6	---	---	3.5	NNW	0.06	4.3	-28.1	---	---	720.8	0.028	0.000	18.2	1	1
03/19/06	7:54 p	-22.5	-22.5	-22.5	---	---	3.5	NNW	0.06	4.3	-28.1	---	---	720.9	0.028	0.000	18.2	1	1
03/19/06	7:55 p	-22.5	-22.4	-22.5	---	---	3.5	NNW	0.06	5.2	-28.1	---	---	720.8	0.028	0.000	18.2	1	1
03/19/06	7:56 p	-22.5	-22.5	-22.6	---	---	3.5	NNW	0.06	5.2	-28.1	---	---	720.7	0.028	0.000	18.2	1	1
03/19/06	7:57 p	-22.5	-22.4	-22.5	---	---	4.3	NNW	0.07	6.1	-29.1	---	---	720.8	0.028	0.000	18.2	1	1
03/19/06	7:58 p	-22.4	-22.4	-22.5	---	---	4.3	NNW	0.07	6.1	-29.1	---	---	720.7	0.028	0.000	18.2	1	1
03/19/06	7:59 p	-22.4	-22.4	-22.5	---	---	3.5	NNW	0.06	5.2	-28.1	---	---	720.6	0.028	0.000	18.2	1	1
03/19/06	8:00 p	-22.5	-22.4	-22.5	---	---	4.3	NNW	0.07	5.2	-29.1	---	---	720.8	0.028	0.000	18.2	1	1
03/19/06	8:01 p	-22.4	-22.4	-22.4	---	---	3.5	NNW	0.06	5.2	-28.1	---	---	720.8	0.028	0.000	18.2	1	1
03/19/06	8:02 p	-22.4	-22.4	-22.4	---	---	3.5	NNW	0.06	5.2	-28.1	---	---	720.8	0.028	0.000	18.2	1	1
03/19/06	8:03 p	-22.4	-22.4	-22.4	---	---	4.3	NNW	0.07	5.2	-29.1	---	---	720.8	0.028	0.000	18.2	1	1
03/19/06	8:04 p	-22.4	-22.4	-22.5	---	---	3.5	NNW	0.06	4.3	-28.1	---	---	720.7	0.028	0.000	18.2	1	1
03/19/06	8:05 p	-22.4	-22.4	-22.4	---	---	3.5	NNW	0.06	4.3	-28.1	---	---	720.7	0.028	0.000	18.2	1	1
03/19/06	8:06 p	-22.4	-22.4	-22.4	---	---	3.5	NNW	0.06	5.2	-28.0	---	---	720.8	0.028	0.000	18.2	1	1
03/19/06	8:07 p	-22.4	-22.4	-22.4	---	---	4.3	NNW	0.07	5.2	-29.0	---	---	720.8	0.028	0.000	18.2	1	1
03/19/06	8:08 p	-22.4	-22.4	-22.4	---	---	4.3	NNW	0.07	5.2	-29.0	---	---	720.8	0.028	0.000	18.2	1	1
03/19/06	8:09 p	-22.4	-22.4	-22.4	---	---	3.5	NNW	0.06	4.3	-28.0	---	---	720.7	0.028	0.000	18.2	1	1
03/19/06	8:10 p	-22.4	-22.4	-22.4	---	---	3.5	NNW	0.06	4.3	-28.0	---	---	720.7	0.028	0.000	18.2	1	1
03/19/06	8:11 p	-22.4	-22.4	-22.4	---	---	3.5	NNW	0.06	4.3	-28.0	---	---	720.7	0.028	0.000	18.2	1	1
03/19/06	8:12 p	-22.4	-22.3	-22.4	---	---	3.5	NNW	0.06	4.3	-28.0	---	---	720.8	0.028	0.000	18.2	1	1
03/19/06	8:13 p	-22.4	-22.3	-22.4	---	---	3.5	N	0.06	4.3	-28.0	---	---	720.7	0.028	0.000	18.3	1	1
03/19/06	8:14 p	-22.3	-22.3	-22.4	---	---	3.5	N	0.06	4.3	-27.9	---	---	720.8	0.028	0.000	18.3	1	1
03/19/06	8:15 p	-22.3	-22.3	-22.4	---	---	3.5	N	0.06	4.3	-27.9	---	---	720.7	0.028	0.000	18.3	1	1
03/19/06	8:16 p	-22.3	-22.3	-22.3	---	---	3.5	N	0.06	4.3	-27.9	---	---	720.7	0.028	0.000	18.3	1	1
03/19/06	8:17 p	-22.3	-22.3	-22.3	---	---	3.5	N	0.06	5.2	-27.9	---	---	720.7	0.028	0.000	18.3	1	1
03/19/06	8:18 p	-22.3	-22.3	-22.4	---	---	3.5	N	0.06	4.3	-27.9	---	---	720.6	0.028	0.000	18.3	1	1
03/19/06	8:19 p	-22.3	-22.3	-22.3	---	---	3.5	N	0.06	4.3	-27.9	---	---	720.6	0.028	0.000	18.3	1	1
03/19/06	8:20 p	-22.3	-22.3	-22.3	---	---	4.3	N	0.07	5.2	-28.9	---	---	720.8	0.028	0.000	18.3	1	1
03/19/06	8:21 p	-22.3	-22.3	-22.3	---	---	3.5	N	0.06	4.3	-27.9	---	---	720.6	0.028	0.000	18.2	1	1
03/19/06	8:22 p	-22.3	-22.3	-22.3	---	---	3.5	N	0.06	4.3	-27.9	---	---	720.7	0.028	0.000	18.2	1	1
03/19/06	8:23 p	-22.3	-22.3	-22.3	---	---	4.3	N	0.07	5.2	-28.9	---	---	720.6	0.028	0.000	18.2	1	1
03/19/06	8:24 p	-22.3	-22.3	-22.3	---	---	5.2	N	0.09	6.1	-29.7	---	---	720.6	0.028	0.000	18.2	1	1
03/19/06	8:25 p	-22.3	-22.3	-22.3	---	---	5.2	N	0.09	7.0	-29.7	---	---	720.6	0.028	0.000	18.2	1	1
03/19/06	8:26 p	-22.3	-22.3	-22.3	---	---	4.3	N	0.07	6.1	-28.9	---	---	720.6	0.028	0.000	18.2	1	1
03/19/06	8:27 p	-22.3	-22.3	-22.3	---	---	4.3	N	0.07	6.1	-28.9	---	---	720.6	0.028	0.000	18.2	1	1
03/19/06	8:28 p	-22.3	-22.3	-22.3	---	---	3.5	N	0.06	5.2	-27.8	---	---	720.6	0.028	0.000	18.2	1	1
03/19/06	8:29 p	-22.3	-22.3	-22.3	---	---	4.3	N	0.07	5.2	-28.8	---	---	720.5	0.028	0.000	18.2	1	1
03/19/06	8:30 p	-22.3	-22.3	-22.3	---	---	4.3	N	0.07	5.2	-28.8	---	---	720.6	0.028	0.000	18.2	1	1
03/19/06	8:31 p	-22.3	-22.3	-22.3	---	---	2.6	N	0.04	4.3	-26.6	---	---	720.6	0.028	0.000	18.2	1	1
03/19/06	8:32 p	-22.3	-22.3	-22.3	---	---	2.6	N	0.04	3.5	-26.6	---	---	720.6	0.028	0.000	18.2	1	1
03/19/06	8:33 p	-22.3	-22.3	-22.3	---	---	1.7	N	0.03	3.5	-25.0	---	---	720.6	0.028	0.000	18.2	1	1
03/19/06	8:34 p	-22.3	-22.3	-22.3	---	---	2.6	N	0.04	3.5	-26.6	---	---	720.7	0.028	0.000	18.2	1	1
03/19/06	8:35 p	-22.3	-22.2	-22.3	---	---	3.5	N	0.06	4.3	-27.8	---	---	720.5	0.028	0.000	18.2	1	1
03/19/06	8:36 p	-22.2	-22.2	-22.3	---	---	3.5	N	0.06	4.3	-27.8	---	---	720.7	0.028	0.000	18.2	1	1
03/19/06	8:37 p	-22.2	-22.2	-22.2	---	---	3.5	N	0.06	4.3	-27.8	---	---	720.6	0.028	0.000	18.2	1	1
03/19/06	8:38 p	-22.2	-22.2	-22.2	---	---	3.5	N	0.06	4.3	-27.8	---	---	720.6	0.028	0.000	18.2	1	1
03/19/06	8:39 p	-22.2	-22.2	-22.2	---	---	2.6	N	0.04	3.5	-26.6	---	---	720.7	0.028	0.000	18.2	1	1
03/19/06	8:40 p	-22.2	-22.2	-22.2	---	---	2.6	N	0.04	3.5	-26.6	---	---	720.7	0.028	0.000	18.2	1	1
03/19/06	8:41 p	-22.2	-22.2	-22.2	---	---	2.6	N	0.04	4.3	-26.6	---	---	720.6	0.028	0.000	18.2	1	1
03/19/06	8:42 p	-22.2	-22.2	-22.2	---	---	2.6	N	0.04	4.3	-26.5	---	---	720.7	0.028	0.000	18.2	1	1
03/19/06	8:43 p	-22.2	-22.2	-22.2	---	---	2.6	N	0.04	4.3	-26.5	---	---	720.6	0.028	0.000	18.2	1	1
03/19/06	8:44 p	-22.2	-22.2	-22.2	---	---	2.6	N	0.04	3.5	-26.5	---	---	720.7	0.028	0.000	18.2	1	1
03/19/06	8:45 p	-22.2	-22.2	-22.2	---	---	2.6	N	0.04	4.3	-26.5	---	---	720.7	0.028	0.000	18.2	1	1
03/19/06	8:46 p	-22.2	-22.1	-22.2	---	---	3.5	N	0.06	6.1	-27.7	---	---	720.6	0.028	0.000	18.2	1	1
03/19/06	8:47 p	-22.2	-22.1	-22.2	---	---	4.3	N	0.07	6.1	-28.7	---	---	720.6	0.028	0.000	18.2	1	1
03/19/06	8:48 p	-22.1	-22.1	-22.1	---	---	3.5	N	0.06	5.2	-27.7	---	---	720.7	0.028	0.000	18.2	1	1
03/19/06	8:49 p	-22.1	-22.1	-22.1	---	---	1.7	N	0.03	2.6	-24.8	---	---	720.6	0.028	0.000	18.3	1	1
03/19/06	8:50 p	-22.1	-22.1	-22.1	---	---	3.5	N	0.06	5.2	-27.7	---	---	720.6	0.028	0.000	18.3	1	1
03/19/06	8:51 p	-22.1	-22.1	-22.1	---	---	3.5	NNW	0.06	4.3	-27.7	---	---	720.7	0.028	0.000	18.3	1	1
03/19/06	8:52 p	-22.1	-22.1	-22.1	---	---	2.6	NNW	0.04	3.5	-26.4	---	---	720.7	0.028	0.000	18.3	1	1
03/19/06	8:53 p	-22.1	-22.1	-22.1	---	---	2.6	NNW	0.04	3.5	-26.4	---	---	720.6	0.028	0.000	18.3	1	1
03/19/06	8:54 p	-22.1	-22.0	-22.1	---	---	1.7	NNW	0.03	3.5	-24.8	---	---	720.5	0.028	0.000	18.3	1	1
03/19/06	8:55 p	-22.1	-22.0	-22.1	---	---	1.7	NNW	0.03	2.6	-24.8	---	---	720.6	0.028	0.000	18.3	1	1
03/19/06	8:56 p	-22.0	-22.0	-22.1	---	---	3.5	NNW	0.06	4.3	-27.6	---	---	720.7	0.028	0.000	18.3	1	1
03/19/06	8:57 p	-22.0	-22.0	-22.0	---	---	3.5	NNW	0.06	4.3	-27.6	---	---	720.6	0.028	0.000	18.3	1	1
03/19/06	8:58 p	-22.1	-22.0	-22.1	---	---	2.6	NNW	0.04	3.5	-26.4	---	---	720.6	0.028	0.000	18.3	1	1
03/19/06	8:59 p	-22.0	-22.0	-22.1	---	---	3.5	NNW	0.06	4.3	-27.6	---	---	720.5	0.028	0.000	18.3	1	1
03/19/06	9:00 p	-22.0	-21.9	-22.0	---	---	3.5	NNW	0.06	5.2	-27.6	---	---	720.6	0.028	0.000	18.3	1	1
03/19/06	9:01 p	-21.9	-21.9	-21.9	---	---	3.5	NNW	0.06	4.3	-27.5	---	---	720.6	0.028	0.000	18.3	1	1
03/19/06	9:02 p	-21.9	-21.9	-22.0	---	---	2.6	NNW	0.04	4.3	-26.3	---	---	720.6	0.028	0.000	18.3	1	1
03/19/06	9:03 p	-21.9	-21.9	-21.9	---	---	2.6	NNW	0.04	3.5	-26.3	---	---	720.6	0.028	0.000	18.3	1	1
03/19/06	9:04 p	-21.9	-21.9	-21.9	---	---	2.6	NNW	0.04	3.5	-26.3	---	---	720.6	0.028	0.000	18.3	1	1
03/19/06	9:05 p	-21.9	-21.9	-21.9	---	---	1.7	NNW	0.03	3.5	-24.6	---	---	720.5	0.028	0.000	18.3	1	1
03/19/06	9:06 p	-21.9	-21.9	-21.9	---	---	2.6	NNW	0.04	3.5	-26.3	---	---	720.6	0.028	0.000	18.3	1	1
03/19/06	9:07 p	-21.9	-21.9	-21.9	---	---	2.6	NNW	0.04	3.5	-26.2	---	---	720.6	0.028	0.000	18.3	1	1
03/19/06	9:08 p	-21.9	-21.9	-21.9	---	---	1.7	NNW	0.03	3.5	-24.6	---	---	720.5	0.028	0.000	18.3	1	1
03/19/06	9:09 p	-21.9	-21.9	-21.9	---	---	4.3	NNW	0.07	5.2	-28.4	---	---	720.6	0.028	0.000	18.3	1	1
03/19/06	9:10 p	-21.9	-21.8	-21.9	---	---	3.5	NNW	0.06	4.3	-27.4	---	---	720.5	0.028	0.000	18.3	1	1
03/19/06	9:11 p	-21.8	-21.8	-21.8	---	---	2.6	NNW	0.04	2.6	-26.1	---	---	720.6	0.028	0.000	18.3	1	1
03/19/06	9:12 p	-21.8	-21.8	-21.8	---	---	1.7	NNW	0.03	1.7	-24.5	---	---	720.6	0.028	0.000	18.3	1	1
03/19/06	9:13 p	-21.8	-21.8	-21.8	---	---	2.6	NNW	0.04	2.6	-26.1	---	---	720.7	0.028	0.000	18.3	1	1
03/19/06	9:14 p	-21.8	-21.8	-21.8	---	---	1.7	NNW	0.03	2.6	-24.5	---	---	720.7	0.028	0.000	18.3	1	1
03/19/06	9:15 p	-21.8	-21.8	-21.8	---	---	1.7	NNW	0.03	2.6	-24.5	---	---	720.6	0.028	0.000	18.3	1	1
03/19/06	9:16 p	-21.8	-21.8	-21.8	---	---	1.7	NNW	0.03	2.6	-24.4	---	---	720.6	0.028	0.000	18.3	1	1
03/19/06	9:17 p	-21.8	-21.8	-21.8	---	---	2.6	NNW	0.04	4.3	-26.1	---	---	720.7	0.028	0.000	18.3	1	1
03/19/06	9:18 p	-21.8	-21.8	-21.8	---	---	1.7	NNW	0.03	2.6	-24.4	---	---	720.6	0.028	0.000	18.4	1	1
03/19/06	9:19 p	-21.8	-21.7	-21.8	---	---	2.6	NNW	0.04	4.3	-26.1	---	---	720.5	0.028	0.000	18.4	1	1
03/19/06	9:20 p	-21.8	-21.8	-21.8	---	---	2.6	NNW	0.04	4.3	-26.1	---	---	720.5	0.028	0.000	18.4	1	1
03/19/06	9:21 p	-21.8	-21.7	-21.8	---	---	2.6	NNW	0.04	4.3	-26.1	---	---	720.6	0.028	0.000	18.4	1	1
03/19/06	9:22 p	-21.7	-21.7	-21.8	---	---	2.6	NNW	0.04	3.5	-26.0	---	---	720.6	0.028	0.000	18.4	1	1
03/19/06	9:23 p	-21.7	-21.7	-21.7	---	---	2.6	NNW	0.04	3.5	-26.0	---	---	720.5	0.028	0.000	18.4	1	1
03/19/06	9:24 p	-21.7	-21.7	-21.7	---	---	3.5	NNW	0.06	4.3	-27.2	---	---	720.6	0.028	0.000	18.4	1	1
03/19/06	9:25 p	-21.7	-21.7	-21.7	---	---	3.5	NNW	0.06	5.2	-27.2	---	---	720.5	0.028	0.000	18.4	1	1
03/19/06	9:26 p	-21.7	-21.7	-21.7	---	---	2.6	NNW	0.04	3.5	-26.0	---	---	720.6	0.028	0.000	18.4	1	1
03/19/06	9:27 p	-21.7	-21.7	-21.7	---	---	2.6	NNW	0.04	4.3	-25.9	---	---	720.6	0.028	0.000	18.4	1	1
03/19/06	9:28 p	-21.7	-21.7	-21.7	---	---	2.6	NNW	0.04	4.3	-25.9	---	---	720.6	0.028	0.000	18.4	1	1
03/19/06	9:29 p	-21.7	-21.6	-21.7	---	---	3.5	NNW	0.06	5.2	-27.2	---	---	720.6	0.028	0.000	18.4	1	1
03/19/06	9:30 p	-21.7	-21.6	-21.7	---	---	3.5	NNW	0.06	5.2	-27.2	---	---	720.6	0.028	0.000	18.4	1	1
03/19/06	9:31 p	-21.6	-21.6	-21.6	---	---	4.3	NNW	0.07	5.2	-28.1	---	---	720.5	0.028	0.000	18.4	1	1
03/19/06	9:32 p	-21.6	-21.6	-21.7	---	---	4.3	NNW	0.07	5.2	-28.1	---	---	720.6	0.028	0.000	18.4	1	1
03/19/06	9:33 p	-21.6	-21.6	-21.6	---	---	4.3	NNW	0.07	5.2	-28.1	---	---	720.6	0.028	0.000	18.4	1	1
03/19/06	9:34 p	-21.6	-21.6	-21.6	---	---	4.3	NNW	0.07	5.2	-28.1	---	---	720.6	0.028	0.000	18.4	1	1
03/19/06	9:35 p	-21.6	-21.6	-21.6	---	---	5.2	NNW	0.09	7.0	-28.9	---	---	720.5	0.028	0.000	18.4	1	1
03/19/06	9:36 p	-21.6	-21.6	-21.6	---	---	4.3	NNW	0.07	6.1	-28.0	---	---	720.6	0.028	0.000	18.4	1	1
03/19/06	9:37 p	-21.6	-21.6	-21.6	---	---	3.5	NNW	0.06	4.3	-27.0	---	---	720.6	0.028	0.000	18.4	1	1
03/19/06	9:38 p	-21.6	-21.5	-21.6	---	---	3.5	NNW	0.06	4.3	-27.0	---	---	720.6	0.028	0.000	18.4	1	1
03/19/06	9:39 p	-21.6	-21.6	-21.6	---	---	4.3	NNW	0.07	5.2	-28.0	---	---	720.6	0.028	0.000	18.4	1	1
03/19/06	9:40 p	-21.6	-21.6	-21.6	---	---	4.3	NNW	0.07	5.2	-28.0	---	---	720.6	0.028	0.000	18.4	1	1
03/19/06	9:41 p	-21.6	-21.5	-21.6	---	---	4.3	NNW	0.07	5.2	-28.0	---	---	720.6	0.028	0.000	18.4	1	1
03/19/06	9:42 p	-21.5	-21.5	-21.6	---	---	5.2	NNW	0.09	6.1	-28.8	---	---	720.5	0.028	0.000	18.4	1	1
03/19/06	9:43 p	-21.5	-21.5	-21.5	---	---	4.3	NNW	0.07	5.2	-27.9	---	---	720.5	0.028	0.000	18.4	1	1
03/19/06	9:44 p	-21.5	-21.5	-21.5	---	---	4.3	NNW	0.07	5.2	-27.9	---	---	720.6	0.028	0.000	18.3	1	1
03/19/06	9:45 p	-21.5	-21.5	-21.5	---	---	5.2	NNW	0.09	7.0	-28.8	---	---	720.5	0.028	0.000	18.3	1	1
03/19/06	9:46 p	-21.5	-21.5	-21.5	---	---	4.3	NNW	0.07	6.1	-27.9	---	---	720.5	0.028	0.000	18.3	1	1
03/19/06	9:47 p	-21.5	-21.5	-21.5	---	---	5.2	NNW	0.09	7.0	-28.8	---	---	720.5	0.028	0.000	18.3	1	1
03/19/06	9:48 p	-21.5	-21.5	-21.5	---	---	5.2	NNW	0.09	7.0	-28.8	---	---	720.5	0.028	0.000	18.3	1	1
03/19/06	9:49 p	-21.5	-21.4	-21.5	---	---	5.2	NNW	0.09	6.1	-28.8	---	---	720.5	0.028	0.000	18.3	1	1
03/19/06	9:50 p	-21.5	-21.4	-21.5	---	---	4.3	NNW	0.07	6.1	-27.9	---	---	720.6	0.028	0.000	18.3	1	1
03/19/06	9:51 p	-21.5	-21.4	-21.5	---	---	5.2	NNW	0.09	6.1	-28.8	---	---	720.6	0.028	0.000	18.3	1	1
03/19/06	9:52 p	-21.5	-21.4	-21.5	---	---	5.2	NNW	0.09	6.1	-28.8	---	---	720.6	0.028	0.000	18.3	1	1
03/19/06	9:53 p	-21.4	-21.4	-21.5	---	---	4.3	NNW	0.07	5.2	-27.9	---	---	720.5	0.028	0.000	18.3	1	1
03/19/06	9:54 p	-21.4	-21.4	-21.5	---	---	4.3	NNW	0.07	6.1	-27.9	---	---	720.5	0.028	0.000	18.3	1	1
03/19/06	9:55 p	-21.4	-21.4	-21.5	---	---	4.3	NNW	0.07	6.1	-27.9	---	---	720.6	0.028	0.000	18.3	1	1
03/19/06	9:56 p	-21.4	-21.4	-21.5	---	---	3.5	NNW	0.06	4.3	-26.9	---	---	720.6	0.028	0.000	18.3	1	1
03/19/06	9:57 p	-21.4	-21.4	-21.5	---	---	3.5	NNW	0.06	4.3	-26.9	---	---	720.5	0.028	0.000	18.3	1	1
03/19/06	9:58 p	-21.4	-21.4	-21.5	---	---	2.6	NNW	0.04	4.3	-25.7	---	---	720.6	0.028	0.000	18.3	1	1
03/19/06	9:59 p	-21.4	-21.4	-21.4	---	---	2.6	NNW	0.04	3.5	-25.7	---	---	720.6	0.028	0.000	18.3	1	1
03/19/06	10:00 p	-21.4	-21.4	-21.5	---	---	2.6	NNW	0.04	3.5	-25.7	---	---	720.6	0.028	0.000	18.3	1	1
03/19/06	10:01 p	-21.4	-21.4	-21.4	---	---	2.6	NNW	0.04	3.5	-25.7	---	---	720.6	0.028	0.000	18.3	1	1
03/19/06	10:02 p	-21.4	-21.4	-21.4	---	---	2.6	NNW	0.04	3.5	-25.7	---	---	720.6	0.028	0.000	18.3	1	1
03/19/06	10:03 p	-21.4	-21.4	-21.4	---	---	4.3	NNE	0.07	5.2	-27.9	---	---	720.5	0.028	0.000	18.3	1	1
03/19/06	10:04 p	-21.4	-21.4	-21.4	---	---	3.5	NNE	0.06	4.3	-26.9	---	---	720.5	0.028	0.000	18.3	1	1
03/19/06	10:05 p	-21.4	-21.4	-21.4	---	---	3.5	NNE	0.06	4.3	-26.9	---	---	720.6	0.028	0.000	18.3	1	1
03/19/06	10:06 p	-21.4	-21.4	-21.4	---	---	3.5	NNE	0.06	4.3	-26.8	---	---	720.5	0.028	0.000	18.4	1	1
03/19/06	10:07 p	-21.4	-21.4	-21.4	---	---	3.5	NNE	0.06	4.3	-26.8	---	---	720.6	0.028	0.000	18.4	1	1
03/19/06	10:08 p	-21.4	-21.4	-21.4	---	---	2.6	NNE	0.04	3.5	-25.6	---	---	720.6	0.028	0.000	18.4	1	1
03/19/06	10:09 p	-21.4	-21.3	-21.4	---	---	3.5	NNE	0.06	4.3	-26.8	---	---	720.6	0.028	0.000	18.4	1	1
03/19/06	10:10 p	-21.4	-21.4	-21.4	---	---	2.6	NNE	0.04	3.5	-25.6	---	---	720.6	0.028	0.000	18.4	1	1
03/19/06	10:11 p	-21.4	-21.3	-21.4	---	---	3.5	NNE	0.06	5.2	-26.8	---	---	720.6	0.028	0.000	18.4	1	1
03/19/06	10:12 p	-21.3	-21.3	-21.4	---	---	3.5	NNE	0.06	4.3	-26.8	---	---	720.6	0.028	0.000	18.4	1	1
03/19/06	10:13 p	-21.3	-21.3	-21.3	---	---	3.5	NNE	0.06	4.3	-26.8	---	---	720.5	0.028	0.000	18.4	1	1
03/19/06	10:14 p	-21.3	-21.3	-21.3	---	---	4.3	NNE	0.07	5.2	-27.7	---	---	720.6	0.028	0.000	18.4	1	1
03/19/06	10:15 p	-21.3	-21.3	-21.3	---	---	5.2	NNE	0.09	7.0	-28.6	---	---	720.6	0.028	0.000	18.4	1	1
03/19/06	10:16 p	-21.3	-21.3	-21.3	---	---	5.2	NNE	0.09	8.7	-28.6	---	---	720.6	0.028	0.000	18.4	1	1
03/19/06	10:17 p	-21.3	-21.3	-21.3	---	---	5.2	NE	0.09	7.0	-28.6	---	---	720.6	0.028	0.000	18.4	1	1
03/19/06	10:18 p	-21.3	-21.3	-21.3	---	---	5.2	NNE	0.09	6.1	-28.5	---	---	720.6	0.028	0.000	18.4	1	1
03/19/06	10:19 p	-21.3	-21.3	-21.3	---	---	5.2	NNE	0.09	7.0	-28.5	---	---	720.6	0.028	0.000	18.4	1	1
03/19/06	10:20 p	-21.3	-21.3	-21.3	---	---	5.2	NNE	0.09	7.0	-28.5	---	---	720.5	0.028	0.000	18.4	1	1
03/19/06	10:21 p	-21.3	-21.3	-21.3	---	---	5.2	NNE	0.09	7.0	-28.5	---	---	720.5	0.028	0.000	18.4	1	1
03/19/06	10:22 p	-21.3	-21.2	-21.3	---	---	5.2	NNE	0.09	5.2	-28.5	---	---	720.5	0.028	0.000	18.4	1	1
03/19/06	10:23 p	-21.3	-21.2	-21.3	---	---	5.2	NNE	0.09	6.1	-28.5	---	---	720.5	0.028	0.000	18.4	1	1
03/19/06	10:24 p	-21.2	-21.2	-21.2	---	---	3.5	N	0.06	5.2	-26.6	---	---	720.5	0.027	0.000	18.4	1	1
03/19/06	10:25 p	-21.2	-21.2	-21.2	---	---	3.5	N	0.06	4.3	-26.6	---	---	720.5	0.027	0.000	18.4	1	1
03/19/06	10:26 p	-21.2	-21.2	-21.2	---	---	2.6	N	0.04	4.3	-25.4	---	---	720.6	0.027	0.000	18.4	1	1
03/19/06	10:27 p	-21.2	-21.2	-21.2	---	---	3.5	N	0.06	5.2	-26.6	---	---	720.5	0.027	0.000	18.4	1	1
03/19/06	10:28 p	-21.2	-21.2	-21.2	---	---	3.5	N	0.06	4.3	-26.6	---	---	720.6	0.027	0.000	18.4	1	1
03/19/06	10:29 p	-21.2	-21.2	-21.2	---	---	1.7	N	0.03	1.7	-23.8	---	---	720.5	0.027	0.000	18.4	1	1
03/19/06	10:30 p	-21.2	-21.2	-21.2	---	---	0.9	N	0.01	2.6	-21.3	---	---	720.5	0.027	0.000	18.4	1	1
03/19/06	10:31 p	-21.1	-21.1	-21.2	---	---	1.7	N	0.03	3.5	-23.7	---	---	720.6	0.027	0.000	18.4	1	1
03/19/06	10:32 p	-21.1	-21.1	-21.1	---	---	3.5	N	0.06	3.5	-26.5	---	---	720.5	0.027	0.000	18.4	1	1
03/19/06	10:33 p	-21.1	-21.1	-21.2	---	---	3.5	N	0.06	3.5	-26.5	---	---	720.5	0.027	0.000	18.5	1	1
03/19/06	10:34 p	-21.1	-21.1	-21.1	---	---	2.6	N	0.04	3.5	-25.3	---	---	720.5	0.027	0.000	18.5	1	1
03/19/06	10:35 p	-21.1	-21.1	-21.1	---	---	3.5	N	0.06	4.3	-26.5	---	---	720.5	0.027	0.000	18.5	1	1
03/19/06	10:36 p	-21.1	-21.1	-21.1	---	---	2.6	N	0.04	3.5	-25.3	---	---	720.5	0.027	0.000	18.5	1	1
03/19/06	10:37 p	-21.1	-21.1	-21.1	---	---	3.5	N	0.06	4.3	-26.4	---	---	720.5	0.027	0.000	18.5	1	1
03/19/06	10:38 p	-21.1	-21.1	-21.1	---	---	3.5	N	0.06	4.3	-26.4	---	---	720.4	0.027	0.000	18.5	1	1
03/19/06	10:39 p	-21.1	-21.1	-21.1	---	---	3.5	N	0.06	4.3	-26.4	---	---	720.5	0.027	0.000	18.5	1	1
03/19/06	10:40 p	-21.1	-21.1	-21.1	---	---	3.5	N	0.06	4.3	-26.4	---	---	720.4	0.027	0.000	18.5	1	1
03/19/06	10:41 p	-21.1	-21.1	-21.1	---	---	3.5	N	0.06	4.3	-26.4	---	---	720.5	0.027	0.000	18.5	1	1
03/19/06	10:42 p	-21.1	-21.1	-21.1	---	---	3.5	N	0.06	4.3	-26.4	---	---	720.4	0.027	0.000	18.5	1	1
03/19/06	10:43 p	-21.1	-21.0	-21.1	---	---	3.5	N	0.06	3.5	-26.4	---	---	720.5	0.027	0.000	18.5	1	1
03/19/06	10:44 p	-21.1	-21.0	-21.1	---	---	2.6	N	0.04	3.5	-25.3	---	---	720.5	0.027	0.000	18.5	1	1
03/19/06	10:45 p	-21.0	-21.0	-21.0	---	---	2.6	N	0.04	3.5	-25.2	---	---	720.5	0.027	0.000	18.5	1	1
03/19/06	10:46 p	-21.0	-21.0	-21.0	---	---	3.5	N	0.06	4.3	-26.4	---	---	720.5	0.027	0.000	18.5	1	1
03/19/06	10:47 p	-21.0	-21.0	-21.0	---	---	3.5	N	0.06	4.3	-26.4	---	---	720.5	0.027	0.000	18.5	1	1
03/19/06	10:48 p	-21.0	-21.0	-21.0	---	---	3.5	N	0.06	4.3	-26.4	---	---	720.4	0.027	0.000	18.5	1	1
03/19/06	10:49 p	-21.0	-20.9	-21.0	---	---	2.6	N	0.04	3.5	-25.2	---	---	720.4	0.027	0.000	18.5	1	1
03/19/06	10:50 p	-20.9	-20.9	-21.0	---	---	2.6	N	0.04	3.5	-25.1	---	---	720.4	0.027	0.000	18.4	1	1
03/19/06	10:51 p	-20.9	-20.9	-20.9	---	---	2.6	N	0.04	3.5	-25.1	---	---	720.4	0.027	0.000	18.4	1	1
03/19/06	10:52 p	-20.9	-20.8	-20.9	---	---	2.6	N	0.04	3.5	-25.1	---	---	720.5	0.027	0.000	18.4	1	1
03/19/06	10:53 p	-20.8	-20.8	-20.8	---	---	2.6	N	0.04	3.5	-25.0	---	---	720.4	0.027	0.000	18.5	1	1
03/19/06	10:54 p	-20.8	-20.8	-20.8	---	---	2.6	N	0.04	2.6	-25.0	---	---	720.4	0.027	0.000	18.4	1	1
03/19/06	10:55 p	-20.8	-20.7	-20.8	---	---	2.6	N	0.04	3.5	-24.9	---	---	720.4	0.027	0.000	18.4	1	1
03/19/06	10:56 p	-20.7	-20.7	-20.8	---	---	2.6	N	0.04	3.5	-24.9	---	---	720.4	0.027	0.000	18.4	1	1
03/19/06	10:57 p	-20.7	-20.6	-20.7	---	---	3.5	N	0.06	3.5	-26.0	---	---	720.4	0.027	0.000	18.4	1	1
03/19/06	10:58 p	-20.7	-20.6	-20.7	---	---	3.5	N	0.06	3.5	-26.0	---	---	720.4	0.027	0.000	18.4	1	1
03/19/06	10:59 p	-20.6	-20.6	-20.7	---	---	3.5	N	0.06	3.5	-25.9	---	---	720.3	0.027	0.000	18.4	1	1
03/19/06	11:00 p	-20.6	-20.6	-20.6	---	---	2.6	N	0.04	3.5	-24.7	---	---	720.4	0.027	0.000	18.4	1	1
03/19/06	11:01 p	-20.6	-20.6	-20.6	---	---	2.6	N	0.04	3.5	-24.7	---	---	720.4	0.027	0.000	18.4	1	1
03/19/06	11:02 p	-20.6	-20.5	-20.6	---	---	2.6	N	0.04	3.5	-24.7	---	---	720.4	0.027	0.000	18.4	1	1
03/19/06	11:03 p	-20.5	-20.4	-20.5	---	---	2.6	N	0.04	2.6	-24.6	---	---	720.4	0.027	0.000	18.4	1	1
03/19/06	11:04 p	-20.4	-20.4	-20.4	---	---	2.6	N	0.04	2.6	-24.6	---	---	720.4	0.027	0.000	18.4	1	1
03/19/06	11:05 p	-20.4	-20.4	-20.4	---	---	2.6	N	0.04	2.6	-24.5	---	---	720.4	0.027	0.000	18.4	1	1
03/19/06	11:06 p	-20.4	-20.3	-20.4	---	---	2.6	N	0.04	3.5	-24.5	---	---	720.4	0.027	0.000	18.4	1	1
03/19/06	11:07 p	-20.3	-20.3	-20.3	---	---	2.6	N	0.04	3.5	-24.4	---	---	720.3	0.027	0.000	18.4	1	1
03/19/06	11:08 p	-20.3	-20.3	-20.3	---	---	2.6	N	0.04	3.5	-24.4	---	---	720.4	0.027	0.000	18.4	1	1
03/19/06	11:09 p	-20.3	-20.2	-20.3	---	---	2.6	N	0.04	3.5	-24.4	---	---	720.4	0.027	0.000	18.4	1	1
03/19/06	11:10 p	-20.2	-20.2	-20.3	---	---	2.6	N	0.04	3.5	-24.3	---	---	720.3	0.027	0.000	18.4	1	1
03/19/06	11:11 p	-20.2	-20.2	-20.2	---	---	2.6	N	0.04	2.6	-24.2	---	---	720.4	0.027	0.000	18.5	1	1
03/19/06	11:12 p	-20.2	-20.2	-20.2	---	---	1.7	N	0.03	2.6	-22.7	---	---	720.3	0.027	0.000	18.5	1	1
03/19/06	11:13 p	-20.1	-20.1	-20.1	---	---	0.9	N	0.01	1.7	-20.1	---	---	720.4	0.027	0.000	18.5	1	1
03/19/06	11:14 p	-20.0	-20.0	-20.1	---	---	2.6	N	0.04	3.5	-24.1	---	---	720.3	0.027	0.000	18.5	1	1
03/19/06	11:15 p	-20.0	-20.0	-20.0	---	---	2.6	ESE	0.04	4.3	-24.1	---	---	720.3	0.027	0.000	18.5	1	1
03/19/06	11:16 p	-19.9	-19.8	-20.0	---	---	7.0	SSE	0.12	7.8	-28.1	---	---	720.4	0.027	0.000	18.5	1	1
03/19/06	11:17 p	-19.8	-19.8	-19.9	---	---	6.1	SSE	0.10	7.0	-27.4	---	---	720.3	0.027	0.000	18.5	1	1
03/19/06	11:18 p	-19.8	-19.8	-19.8	---	---	4.3	SSE	0.07	5.2	-26.0	---	---	720.4	0.027	0.000	18.5	1	1
03/19/06	11:19 p	-19.8	-19.7	-19.8	---	---	3.5	SSE	0.06	4.3	-24.9	---	---	720.4	0.026	0.000	18.5	1	1
03/19/06	11:20 p	-19.7	-19.7	-19.7	---	---	2.6	SSE	0.04	3.5	-23.7	---	---	720.3	0.026	0.000	18.6	1	1
03/19/06	11:21 p	-19.6	-19.6	-19.7	---	---	1.7	SSE	0.03	2.6	-22.1	---	---	720.3	0.026	0.000	18.6	1	1
03/19/06	11:22 p	-19.6	-19.6	-19.6	---	---	1.7	SSE	0.03	2.6	-22.0	---	---	720.3	0.026	0.000	18.6	1	1
03/19/06	11:23 p	-19.5	-19.5	-19.6	---	---	1.7	SSE	0.03	1.7	-21.9	---	---	720.3	0.026	0.000	18.6	1	1
03/19/06	11:24 p	-19.4	-19.4	-19.4	---	---	1.7	SSE	0.03	1.7	-21.9	---	---	720.4	0.026	0.000	18.6	1	1
03/19/06	11:25 p	-19.4	-19.3	-19.4	---	---	1.7	SSE	0.03	1.7	-21.8	---	---	720.4	0.026	0.000	18.6	1	1
03/19/06	11:26 p	-19.3	-19.3	-19.3	---	---	1.7	SSE	0.03	1.7	-21.7	---	---	720.4	0.026	0.000	18.6	1	1
03/19/06	11:27 p	-19.2	-19.2	-19.3	---	---	1.7	SSE	0.03	2.6	-21.7	---	---	720.4	0.026	0.000	18.6	1	1
03/19/06	11:28 p	-19.2	-19.1	-19.2	---	---	1.7	SSE	0.03	1.7	-21.6	---	---	720.4	0.026	0.000	18.6	1	1
03/19/06	11:29 p	-19.1	-19.1	-19.1	---	---	1.7	SSE	0.03	1.7	-21.4	---	---	720.4	0.026	0.000	18.6	1	1
03/19/06	11:30 p	-19.0	-18.9	-19.1	---	---	1.7	SSE	0.03	2.6	-21.4	---	---	720.4	0.026	0.000	18.6	1	1
03/19/06	11:31 p	-18.9	-18.9	-18.9	---	---	1.7	SSE	0.03	2.6	-21.3	---	---	720.3	0.026	0.000	18.6	1	1
03/19/06	11:32 p	-18.9	-18.8	-18.9	---	---	1.7	SSE	0.03	2.6	-21.3	---	---	720.4	0.026	0.000	18.6	1	1
03/19/06	11:33 p	-18.8	-18.7	-18.8	---	---	1.7	SSE	0.03	2.6	-21.2	---	---	720.4	0.026	0.000	18.6	1	1
03/19/06	11:34 p	-18.7	-18.7	-18.7	---	---	2.6	SSE	0.04	3.5	-22.6	---	---	720.4	0.026	0.000	18.6	1	1
03/19/06	11:35 p	-18.6	-18.6	-18.7	---	---	2.6	SSE	0.04	3.5	-22.5	---	---	720.3	0.026	0.000	18.6	1	1
03/19/06	11:36 p	-18.6	-18.5	-18.6	---	---	3.5	SSE	0.06	3.5	-23.6	---	---	720.4	0.026	0.000	18.6	1	1
03/19/06	11:37 p	-18.4	-18.4	-18.5	---	---	2.6	SSE	0.04	3.5	-22.3	---	---	720.4	0.026	0.000	18.6	1	1
03/19/06	11:38 p	-18.4	-18.3	-18.4	---	---	3.5	SSE	0.06	3.5	-23.4	---	---	720.4	0.026	0.000	18.6	1	1
03/19/06	11:39 p	-18.3	-18.3	-18.3	---	---	3.5	SSE	0.06	4.3	-23.2	---	---	720.3	0.025	0.000	18.6	1	1
03/19/06	11:40 p	-18.2	-18.2	-18.3	---	---	3.5	SSE	0.06	4.3	-23.2	---	---	720.4	0.025	0.000	18.6	1	1
03/19/06	11:41 p	-18.2	-18.2	-18.2	---	---	3.5	SSE	0.06	3.5	-23.1	---	---	720.3	0.025	0.000	18.6	1	1
03/19/06	11:42 p	-18.1	-18.1	-18.2	---	---	3.5	SSE	0.06	4.3	-23.1	---	---	720.3	0.025	0.000	18.7	1	1
03/19/06	11:43 p	-18.1	-18.1	-18.1	---	---	3.5	SSE	0.06	4.3	-23.1	---	---	720.3	0.025	0.000	18.7	1	1
03/19/06	11:44 p	-18.1	-18.0	-18.1	---	---	3.5	SSE	0.06	4.3	-23.0	---	---	720.4	0.025	0.000	18.7	1	1
03/19/06	11:45 p	-18.0	-18.0	-18.0	---	---	3.5	SSE	0.06	4.3	-22.9	---	---	720.5	0.025	0.000	18.7	1	1
03/19/06	11:46 p	-18.0	-17.9	-18.0	---	---	3.5	SSE	0.06	4.3	-22.9	---	---	720.4	0.025	0.000	18.7	1	1
03/19/06	11:47 p	-17.9	-17.9	-17.9	---	---	3.5	SSE	0.06	4.3	-22.8	---	---	720.3	0.025	0.000	18.7	1	1
03/19/06	11:48 p	-17.9	-17.9	-17.9	---	---	3.5	SSE	0.06	4.3	-22.8	---	---	720.4	0.025	0.000	18.7	1	1
03/19/06	11:49 p	-17.9	-17.9	-17.9	---	---	3.5	SSE	0.06	4.3	-22.8	---	---	720.4	0.025	0.000	18.7	1	1
03/19/06	11:50 p	-17.9	-17.9	-17.9	---	---	3.5	SSE	0.06	4.3	-22.8	---	---	720.4	0.025	0.000	18.7	1	1
03/19/06	11:51 p	-17.9	-17.9	-17.9	---	---	3.5	SSE	0.06	4.3	-22.8	---	---	720.3	0.025	0.000	18.7	1	1
03/19/06	11:52 p	-17.9	-17.9	-17.9	---	---	3.5	SSE	0.06	3.5	-22.8	---	---	720.3	0.025	0.000	18.7	1	1
03/19/06	11:53 p	-17.9	-17.8	-17.9	---	---	3.5	SSE	0.06	4.3	-22.8	---	---	720.3	0.025	0.000	18.7	1	1
03/19/06	11:54 p	-17.8	-17.8	-17.8	---	---	3.5	SSE	0.06	4.3	-22.7	---	---	720.4	0.025	0.000	18.7	1	1
03/19/06	11:55 p	-17.8	-17.8	-17.8	---	---	3.5	SSE	0.06	4.3	-22.7	---	---	720.4	0.025	0.000	18.7	1	1
03/19/06	11:56 p	-17.8	-17.8	-17.8	---	---	4.3	SSE	0.07	4.3	-23.6	---	---	720.3	0.025	0.000	18.6	1	1
03/19/06	11:57 p	-17.8	-17.8	-17.8	---	---	3.5	SSE	0.06	3.5	-22.7	---	---	720.3	0.025	0.000	18.6	1	1
03/19/06	11:58 p	-17.8	-17.8	-17.8	---	---	2.6	SSE	0.04	3.5	-21.6	---	---	720.3	0.025	0.000	18.6	1	1
03/19/06	11:59 p	-17.8	-17.8	-17.8	---	---	2.6	SSE	0.04	2.6	-21.6	---	---	720.3	0.025	0.000	18.6	1	1
03/20/06	12:00 a	-17.7	-17.7	-17.8	---	---	1.7	SSE	0.03	2.6	-20.0	---	---	720.3	0.025	0.000	18.6	1	1
03/20/06	12:01 a	-17.7	-17.7	-17.8	---	---	1.7	SSE	0.03	2.6	-20.0	---	---	720.3	0.025	0.000	18.6	1	1
03/20/06	12:02 a	-17.7	-17.7	-17.7	---	---	1.7	SSE	0.03	2.6	-20.0	---	---	720.4	0.025	0.000	18.6	1	1
03/20/06	12:03 a	-17.7	-17.7	-17.7	---	---	2.6	SSE	0.04	2.6	-21.5	---	---	720.4	0.025	0.000	18.6	1	1
03/20/06	12:04 a	-17.7	-17.7	-17.7	---	---	1.7	SSE	0.03	2.6	-20.0	---	---	720.3	0.025	0.000	18.6	1	1
03/20/06	12:05 a	-17.7	-17.7	-17.7	---	---	1.7	SSE	0.03	2.6	-20.0	---	---	720.4	0.025	0.000	18.6	1	1
03/20/06	12:06 a	-17.7	-17.7	-17.7	---	---	1.7	SSE	0.03	1.7	-19.9	---	---	720.4	0.025	0.000	18.6	1	1
03/20/06	12:07 a	-17.7	-17.6	-17.7	---	---	0.9	SSE	0.01	1.7	-17.7	---	---	720.4	0.025	0.000	18.6	1	1
03/20/06	12:08 a	-17.6	-17.6	-17.6	---	---	0.0	SSE	0.00	0.9	-17.6	---	---	720.3	0.025	0.000	18.6	1	1
03/20/06	12:09 a	-17.6	-17.5	-17.6	---	---	0.0	SSE	0.00	0.9	-17.6	---	---	720.3	0.025	0.000	18.6	1	1
03/20/06	12:10 a	-17.5	-17.4	-17.5	---	---	0.9	SSE	0.01	1.7	-17.5	---	---	720.4	0.025	0.000	18.6	1	1
03/20/06	12:11 a	-17.4	-17.3	-17.4	---	---	1.7	SSE	0.03	2.6	-19.6	---	---	720.4	0.025	0.000	18.6	1	1
03/20/06	12:12 a	-17.3	-17.3	-17.3	---	---	2.6	SSE	0.04	3.5	-21.1	---	---	720.4	0.025	0.000	18.6	1	1
03/20/06	12:13 a	-17.3	-17.2	-17.3	---	---	3.5	SSE	0.06	4.3	-22.1	---	---	720.3	0.025	0.000	18.6	1	1
03/20/06	12:14 a	-17.2	-17.2	-17.2	---	---	3.5	SSE	0.06	4.3	-22.0	---	---	720.4	0.025	0.000	18.7	1	1
03/20/06	12:15 a	-17.2	-17.2	-17.2	---	---	2.6	SSE	0.04	4.3	-20.8	---	---	720.4	0.025	0.000	18.7	1	1
03/20/06	12:16 a	-17.1	-17.1	-17.2	---	---	3.5	SSE	0.06	4.3	-21.9	---	---	720.3	0.025	0.000	18.7	1	1
03/20/06	12:17 a	-17.1	-17.0	-17.1	---	---	2.6	SSE	0.04	3.5	-20.7	---	---	720.4	0.025	0.000	18.7	1	1
03/20/06	12:18 a	-17.0	-16.9	-17.0	---	---	2.6	SSE	0.04	3.5	-20.7	---	---	720.3	0.025	0.000	18.7	1	1
03/20/06	12:19 a	-16.9	-16.9	-16.9	---	---	2.6	SSE	0.04	3.5	-20.6	---	---	720.3	0.024	0.000	18.7	1	1
03/20/06	12:20 a	-16.9	-16.8	-16.9	---	---	2.6	SSE	0.04	2.6	-20.6	---	---	720.3	0.024	0.000	18.7	1	1
03/20/06	12:21 a	-16.8	-16.7	-16.8	---	---	2.6	SSE	0.04	2.6	-20.4	---	---	720.4	0.024	0.000	18.7	1	1
03/20/06	12:22 a	-16.7	-16.7	-16.7	---	---	2.6	SSE	0.04	3.5	-20.3	---	---	720.4	0.024	0.000	18.7	1	1
03/20/06	12:23 a	-16.6	-16.6	-16.6	---	---	2.6	SSE	0.04	3.5	-20.2	---	---	720.3	0.024	0.000	18.7	1	1
03/20/06	12:24 a	-16.5	-16.4	-16.6	---	---	2.6	SSE	0.04	3.5	-20.1	---	---	720.3	0.024	0.000	18.7	1	1
03/20/06	12:25 a	-16.4	-16.3	-16.4	---	---	3.5	SSE	0.06	3.5	-21.1	---	---	720.3	0.024	0.000	18.7	1	1
03/20/06	12:26 a	-16.3	-16.3	-16.3	---	---	3.5	SSE	0.06	3.5	-20.9	---	---	720.4	0.024	0.000	18.7	1	1
03/20/06	12:27 a	-16.2	-16.2	-16.3	---	---	2.6	SSE	0.04	3.5	-19.8	---	---	720.4	0.024	0.000	18.8	1	1
03/20/06	12:28 a	-16.1	-16.1	-16.2	---	---	2.6	SSE	0.04	3.5	-19.7	---	---	720.3	0.024	0.000	18.8	1	1
03/20/06	12:29 a	-16.0	-16.0	-16.1	---	---	2.6	SSE	0.04	2.6	-19.6	---	---	720.3	0.024	0.000	18.8	1	1
03/20/06	12:30 a	-15.9	-15.9	-16.0	---	---	2.6	SSE	0.04	2.6	-19.4	---	---	720.3	0.024	0.000	18.8	1	1
03/20/06	12:31 a	-15.8	-15.8	-15.8	---	---	2.6	SSE	0.04	2.6	-19.3	---	---	720.3	0.024	0.000	18.8	1	1
03/20/06	12:32 a	-15.7	-15.7	-15.8	---	---	2.6	SSE	0.04	3.5	-19.2	---	---	720.3	0.024	0.000	18.8	1	1
03/20/06	12:33 a	-15.6	-15.6	-15.7	---	---	1.7	SSE	0.03	2.6	-17.7	---	---	720.3	0.024	0.000	18.8	1	1
03/20/06	12:34 a	-15.5	-15.4	-15.6	---	---	2.6	SSE	0.04	3.5	-18.9	---	---	720.3	0.023	0.000	18.8	1	1
03/20/06	12:35 a	-15.4	-15.3	-15.4	---	---	3.5	SSE	0.06	4.3	-19.9	---	---	720.2	0.023	0.000	18.8	1	1
03/20/06	12:36 a	-15.3	-15.2	-15.3	---	---	3.5	SSE	0.06	3.5	-19.8	---	---	720.3	0.023	0.000	18.8	1	1
03/20/06	12:37 a	-15.2	-15.2	-15.2	---	---	3.5	SSE	0.06	4.3	-19.7	---	---	720.3	0.023	0.000	18.8	1	1
03/20/06	12:38 a	-15.2	-15.1	-15.2	---	---	3.5	SSE	0.06	4.3	-19.7	---	---	720.3	0.023	0.000	18.8	1	1
03/20/06	12:39 a	-15.1	-15.0	-15.1	---	---	3.5	SSE	0.06	4.3	-19.5	---	---	720.3	0.023	0.000	18.8	1	1
03/20/06	12:40 a	-15.0	-14.9	-15.0	---	---	3.5	SSE	0.06	4.3	-19.4	---	---	720.3	0.023	0.000	18.8	1	1
03/20/06	12:41 a	-14.9	-14.9	-14.9	---	---	3.5	SSE	0.06	4.3	-19.3	---	---	720.2	0.023	0.000	18.8	1	1
03/20/06	12:42 a	-14.8	-14.8	-14.9	---	---	3.5	SSE	0.06	4.3	-19.3	---	---	720.3	0.023	0.000	18.8	1	1
03/20/06	12:43 a	-14.8	-14.8	-14.8	---	---	3.5	SSE	0.06	4.3	-19.2	---	---	720.3	0.023	0.000	18.8	1	1
03/20/06	12:44 a	-14.7	-14.7	-14.8	---	---	4.3	SSE	0.07	5.2	-19.9	---	---	720.3	0.023	0.000	18.8	1	1
03/20/06	12:45 a	-14.7	-14.7	-14.7	---	---	4.3	SSE	0.07	4.3	-19.9	---	---	720.2	0.023	0.000	18.8	1	1
03/20/06	12:46 a	-14.7	-14.6	-14.7	---	---	4.3	SE	0.07	5.2	-19.9	---	---	720.3	0.023	0.000	18.9	1	1
03/20/06	12:47 a	-14.6	-14.6	-14.6	---	---	4.3	SE	0.07	5.2	-19.8	---	---	720.3	0.023	0.000	18.9	1	1
03/20/06	12:48 a	-14.6	-14.5	-14.6	---	---	5.2	SE	0.09	7.0	-20.5	---	---	720.3	0.023	0.000	18.9	1	1
03/20/06	12:49 a	-14.5	-14.4	-14.5	---	---	6.1	ESE	0.10	7.8	-21.1	---	---	720.4	0.023	0.000	18.9	1	1
03/20/06	12:50 a	-14.4	-14.4	-14.4	---	---	4.3	ESE	0.07	6.1	-19.7	---	---	720.4	0.023	0.000	18.9	1	1
03/20/06	12:51 a	-14.3	-14.3	-14.4	---	---	3.5	SSE	0.06	5.2	-18.7	---	---	720.3	0.023	0.000	18.9	1	1
03/20/06	12:52 a	-14.3	-14.3	-14.3	---	---	2.6	SSE	0.04	4.3	-17.7	---	---	720.3	0.023	0.000	18.9	1	1
03/20/06	12:53 a	-14.2	-14.2	-14.3	---	---	4.3	SE	0.07	6.1	-19.4	---	---	720.3	0.023	0.000	18.9	1	1
03/20/06	12:54 a	-14.2	-14.2	-14.2	---	---	2.6	ESE	0.04	4.3	-17.5	---	---	720.2	0.023	0.000	18.9	1	1
03/20/06	12:55 a	-14.1	-14.1	-14.1	---	---	3.5	ESE	0.06	5.2	-18.4	---	---	720.3	0.023	0.000	18.9	1	1
03/20/06	12:56 a	-14.0	-14.0	-14.1	---	---	3.5	ESE	0.06	5.2	-18.3	---	---	720.2	0.022	0.000	18.9	1	1
03/20/06	12:57 a	-14.0	-13.9	-14.0	---	---	3.5	ESE	0.06	4.3	-18.3	---	---	720.2	0.022	0.000	18.8	1	1
03/20/06	12:58 a	-13.9	-13.9	-13.9	---	---	3.5	ESE	0.06	6.1	-18.2	---	---	720.3	0.022	0.000	18.8	1	1
03/20/06	12:59 a	-13.9	-13.9	-13.9	---	---	3.5	ESE	0.06	5.2	-18.2	---	---	720.3	0.022	0.000	18.8	1	1
03/20/06	1:00 a	-13.8	-13.8	-13.8	---	---	4.3	ESE	0.07	6.1	-18.9	---	---	720.2	0.022	0.000	18.8	1	1
03/20/06	1:01 a	-13.8	-13.8	-13.8	---	---	4.3	ESE	0.07	6.1	-18.9	---	---	720.3	0.022	0.000	18.8	1	1
03/20/06	1:02 a	-13.7	-13.7	-13.8	---	---	3.5	ESE	0.06	5.2	-18.0	---	---	720.2	0.022	0.000	18.8	1	1
03/20/06	1:03 a	-13.7	-13.7	-13.7	---	---	3.5	ESE	0.06	5.2	-18.0	---	---	720.2	0.022	0.000	18.8	1	1
03/20/06	1:04 a	-13.7	-13.7	-13.7	---	---	3.5	ESE	0.06	5.2	-17.9	---	---	720.3	0.022	0.000	18.8	1	1
03/20/06	1:05 a	-13.6	-13.6	-13.6	---	---	5.2	ESE	0.09	7.8	-19.3	---	---	720.2	0.022	0.000	18.8	1	1
03/20/06	1:06 a	-13.6	-13.5	-13.6	---	---	7.0	E	0.12	8.7	-20.4	---	---	720.2	0.022	0.000	18.8	1	1
03/20/06	1:07 a	-13.5	-13.5	-13.5	---	---	7.8	E	0.13	9.6	-20.8	---	---	720.2	0.022	0.000	18.8	1	1
03/20/06	1:08 a	-13.5	-13.5	-13.5	---	---	8.7	E	0.14	9.6	-21.3	---	---	720.2	0.022	0.000	18.8	1	1
03/20/06	1:09 a	-13.5	-13.4	-13.5	---	---	8.7	E	0.14	9.6	-21.3	---	---	720.2	0.022	0.000	18.8	1	1
03/20/06	1:10 a	-13.4	-13.4	-13.5	---	---	8.7	E	0.14	9.6	-21.2	---	---	720.2	0.022	0.000	18.8	1	1
03/20/06	1:11 a	-13.4	-13.4	-13.5	---	---	7.8	E	0.13	9.6	-20.8	---	---	720.2	0.022	0.000	18.8	1	1
03/20/06	1:12 a	-13.4	-13.4	-13.4	---	---	7.0	ENE	0.12	7.8	-20.3	---	---	720.2	0.022	0.000	18.8	1	1
03/20/06	1:13 a	-13.4	-13.4	-13.4	---	---	7.0	E	0.12	7.8	-20.2	---	---	720.2	0.022	0.000	18.9	1	1
03/20/06	1:14 a	-13.4	-13.4	-13.4	---	---	7.0	E	0.12	8.7	-20.2	---	---	720.2	0.022	0.000	18.9	1	1
03/20/06	1:15 a	-13.4	-13.4	-13.4	---	---	7.8	E	0.13	9.6	-20.7	---	---	720.2	0.022	0.000	18.9	1	1
03/20/06	1:16 a	-13.3	-13.3	-13.4	---	---	7.0	E	0.12	7.8	-20.2	---	---	720.3	0.022	0.000	18.9	1	1
03/20/06	1:17 a	-13.3	-13.3	-13.4	---	---	6.1	E	0.10	7.8	-19.6	---	---	720.1	0.022	0.000	18.9	1	1
03/20/06	1:18 a	-13.3	-13.3	-13.3	---	---	6.1	E	0.10	7.8	-19.6	---	---	720.2	0.022	0.000	18.9	1	1
03/20/06	1:19 a	-13.3	-13.3	-13.3	---	---	7.0	E	0.12	8.7	-20.2	---	---	720.2	0.022	0.000	18.9	1	1
03/20/06	1:20 a	-13.3	-13.3	-13.3	---	---	7.0	E	0.12	8.7	-20.1	---	---	720.2	0.022	0.000	18.9	1	1
03/20/06	1:21 a	-13.3	-13.3	-13.3	---	---	7.8	E	0.13	8.7	-20.6	---	---	720.2	0.022	0.000	18.9	1	1
03/20/06	1:22 a	-13.3	-13.2	-13.3	---	---	8.7	E	0.14	9.6	-21.0	---	---	720.1	0.022	0.000	18.9	1	1
03/20/06	1:23 a	-13.3	-13.3	-13.3	---	---	7.8	E	0.13	8.7	-20.6	---	---	720.1	0.022	0.000	18.9	1	1
03/20/06	1:24 a	-13.3	-13.3	-13.3	---	---	7.0	E	0.12	9.6	-20.1	---	---	720.1	0.022	0.000	18.9	1	1
03/20/06	1:25 a	-13.3	-13.2	-13.3	---	---	7.0	E	0.12	8.7	-20.1	---	---	720.0	0.022	0.000	18.9	1	1
03/20/06	1:26 a	-13.3	-13.2	-13.3	---	---	7.0	E	0.12	9.6	-20.1	---	---	720.1	0.022	0.000	18.9	1	1
03/20/06	1:27 a	-13.2	-13.2	-13.3	---	---	7.0	E	0.12	8.7	-20.0	---	---	720.0	0.022	0.000	18.9	1	1
03/20/06	1:28 a	-13.2	-13.2	-13.3	---	---	7.0	E	0.12	7.8	-20.0	---	---	720.0	0.022	0.000	18.9	1	1
03/20/06	1:29 a	-13.2	-13.2	-13.2	---	---	7.0	E	0.12	8.7	-20.0	---	---	720.0	0.022	0.000	19.0	1	1
03/20/06	1:30 a	-13.2	-13.2	-13.2	---	---	7.8	E	0.13	9.6	-20.5	---	---	720.0	0.022	0.000	18.9	1	1
03/20/06	1:31 a	-13.2	-13.2	-13.2	---	---	7.8	E	0.13	8.7	-20.5	---	---	720.1	0.022	0.000	19.0	1	1
03/20/06	1:32 a	-13.2	-13.2	-13.2	---	---	7.8	E	0.13	9.6	-20.4	---	---	720.0	0.022	0.000	19.0	1	1
03/20/06	1:33 a	-13.2	-13.1	-13.2	---	---	8.7	E	0.14	10.4	-20.8	---	---	720.1	0.022	0.000	19.0	1	1
03/20/06	1:34 a	-13.1	-13.1	-13.1	---	---	8.7	E	0.14	9.6	-20.8	---	---	720.1	0.022	0.000	19.1	1	1
03/20/06	1:35 a	-13.2	-13.1	-13.2	---	---	9.6	ENE	0.16	11.3	-21.3	---	---	720.0	0.022	0.000	19.1	1	1
03/20/06	1:36 a	-13.2	-13.2	-13.2	---	---	9.6	ENE	0.16	11.3	-21.3	---	---	720.0	0.022	0.000	19.1	1	1
03/20/06	1:37 a	-13.2	-13.2	-13.2	---	---	10.4	ENE	0.17	12.2	-21.6	---	---	720.0	0.022	0.000	19.0	1	1
03/20/06	1:38 a	-13.2	-13.2	-13.2	---	---	9.6	ENE	0.16	10.4	-21.3	---	---	720.0	0.022	0.000	19.1	1	1
03/20/06	1:39 a	-13.2	-13.2	-13.2	---	---	8.7	ENE	0.14	10.4	-20.9	---	---	720.0	0.022	0.000	19.1	1	1
03/20/06	1:40 a	-13.2	-13.2	-13.2	---	---	10.4	ENE	0.17	11.3	-21.6	---	---	719.9	0.022	0.000	19.1	1	1
03/20/06	1:41 a	-13.2	-13.2	-13.2	---	---	9.6	ENE	0.16	11.3	-21.3	---	---	719.9	0.022	0.000	19.1	1	1
03/20/06	1:42 a	-13.2	-13.2	-13.2	---	---	8.7	ENE	0.14	9.6	-20.8	---	---	720.0	0.022	0.000	19.1	1	1
03/20/06	1:43 a	-13.2	-13.2	-13.2	---	---	9.6	ENE	0.16	10.4	-21.3	---	---	719.9	0.022	0.000	19.1	1	1
03/20/06	1:44 a	-13.2	-13.1	-13.2	---	---	9.6	ENE	0.16	10.4	-21.3	---	---	719.9	0.022	0.000	19.1	1	1
03/20/06	1:45 a	-13.2	-13.2	-13.2	---	---	9.6	ENE	0.16	10.4	-21.3	---	---	720.0	0.022	0.000	19.0	1	1
03/20/06	1:46 a	-13.2	-13.2	-13.2	---	---	9.6	ENE	0.16	10.4	-21.3	---	---	720.0	0.022	0.000	19.0	1	1
03/20/06	1:47 a	-13.2	-13.2	-13.2	---	---	9.6	ENE	0.16	10.4	-21.3	---	---	719.9	0.022	0.000	19.0	1	1
03/20/06	1:48 a	-13.2	-13.2	-13.2	---	---	8.7	NE	0.14	10.4	-20.9	---	---	719.9	0.022	0.000	19.0	1	1
03/20/06	1:49 a	-13.2	-13.2	-13.2	---	---	9.6	NE	0.16	10.4	-21.3	---	---	720.0	0.022	0.000	19.0	1	1
03/20/06	1:50 a	-13.2	-13.2	-13.2	---	---	9.6	ENE	0.16	10.4	-21.3	---	---	719.9	0.022	0.000	19.1	1	1
03/20/06	1:51 a	-13.2	-13.2	-13.3	---	---	8.7	NE	0.14	11.3	-20.9	---	---	720.0	0.022	0.000	19.1	1	1
03/20/06	1:52 a	-13.3	-13.2	-13.3	---	---	10.4	NE	0.17	10.4	-21.8	---	---	720.0	0.022	0.000	19.1	1	1
03/20/06	1:53 a	-13.3	-13.2	-13.3	---	---	9.6	NE	0.16	10.4	-21.4	---	---	720.0	0.022	0.000	19.1	1	1
03/20/06	1:54 a	-13.3	-13.3	-13.3	---	---	8.7	ENE	0.14	10.4	-21.0	---	---	720.1	0.022	0.000	19.1	1	1
03/20/06	1:55 a	-13.3	-13.3	-13.3	---	---	9.6	ENE	0.16	10.4	-21.4	---	---	719.9	0.022	0.000	19.1	1	1
03/20/06	1:56 a	-13.3	-13.3	-13.3	---	---	10.4	ENE	0.17	10.4	-21.8	---	---	720.0	0.022	0.000	19.1	1	1
03/20/06	1:57 a	-13.3	-13.3	-13.4	---	---	9.6	ENE	0.16	10.4	-21.4	---	---	720.0	0.022	0.000	19.1	1	1
03/20/06	1:58 a	-13.3	-13.3	-13.3	---	---	8.7	ENE	0.14	10.4	-21.1	---	---	720.0	0.022	0.000	19.1	2	1
03/20/06	1:59 a	-13.3	-13.3	-13.4	---	---	8.7	ENE	0.14	9.6	-21.1	---	---	720.0	0.022	0.000	19.1	1	1
03/20/06	2:00 a	-13.4	-13.3	-13.4	---	---	9.6	ENE	0.16	10.4	-21.6	---	---	720.0	0.022	0.000	19.1	2	1
03/20/06	2:01 a	-13.4	-13.4	-13.4	---	---	9.6	ENE	0.16	11.3	-21.6	---	---	720.0	0.022	0.000	19.1	2	1
03/20/06	2:02 a	-13.4	-13.4	-13.4	---	---	8.7	NE	0.14	9.6	-21.1	---	---	720.0	0.022	0.000	19.1	1	1
03/20/06	2:03 a	-13.4	-13.3	-13.4	---	---	8.7	NE	0.14	10.4	-21.1	---	---	719.9	0.022	0.000	19.1	2	1
03/20/06	2:04 a	-13.4	-13.4	-13.4	---	---	9.6	NE	0.16	10.4	-21.6	---	---	720.0	0.022	0.000	19.1	2	1
03/20/06	2:05 a	-13.4	-13.4	-13.5	---	---	9.6	NE	0.16	10.4	-21.6	---	---	720.0	0.022	0.000	19.1	2	1
03/20/06	2:06 a	-13.4	-13.4	-13.4	---	---	9.6	NE	0.16	10.4	-21.6	---	---	720.1	0.022	0.000	19.1	2	1
03/20/06	2:07 a	-13.4	-13.4	-13.4	---	---	8.7	NE	0.14	9.6	-21.2	---	---	720.1	0.022	0.000	19.1	2	1
03/20/06	2:08 a	-13.4	-13.4	-13.5	---	---	9.6	ENE	0.16	11.3	-21.6	---	---	720.1	0.022	0.000	19.2	2	1
03/20/06	2:09 a	-13.5	-13.4	-13.5	---	---	9.6	ENE	0.16	11.3	-21.7	---	---	720.0	0.022	0.000	19.1	2	1
03/20/06	2:10 a	-13.5	-13.4	-13.5	---	---	11.3	NE	0.19	13.0	-22.4	---	---	720.0	0.022	0.000	19.2	2	1
03/20/06	2:11 a	-13.5	-13.4	-13.5	---	---	10.4	NE	0.17	11.3	-22.1	---	---	720.1	0.022	0.000	19.2	2	1
03/20/06	2:12 a	-13.5	-13.4	-13.5	---	---	10.4	NE	0.17	10.4	-22.1	---	---	720.0	0.022	0.000	19.2	2	1
03/20/06	2:13 a	-13.5	-13.5	-13.6	---	---	9.6	NE	0.16	10.4	-21.7	---	---	720.1	0.022	0.000	19.2	2	1
03/20/06	2:14 a	-13.6	-13.6	-13.6	---	---	9.6	NE	0.16	10.4	-21.7	---	---	720.0	0.022	0.000	19.2	2	1
03/20/06	2:15 a	-13.6	-13.6	-13.6	---	---	11.3	ENE	0.19	12.2	-22.4	---	---	720.0	0.022	0.000	19.2	2	1
03/20/06	2:16 a	-13.6	-13.6	-13.6	---	---	9.6	ENE	0.16	10.4	-21.8	---	---	720.1	0.022	0.000	19.2	2	1
03/20/06	2:17 a	-13.6	-13.6	-13.6	---	---	9.6	NE	0.16	10.4	-21.8	---	---	719.9	0.022	0.000	19.3	2	1
03/20/06	2:18 a	-13.6	-13.6	-13.6	---	---	9.6	NE	0.16	10.4	-21.8	---	---	719.9	0.022	0.000	19.3	2	1
03/20/06	2:19 a	-13.6	-13.6	-13.7	---	---	9.6	NE	0.16	10.4	-21.8	---	---	719.9	0.022	0.000	19.3	2	1
03/20/06	2:20 a	-13.7	-13.6	-13.7	---	---	9.6	NE	0.16	9.6	-21.9	---	---	719.9	0.022	0.000	19.3	2	1
03/20/06	2:21 a	-13.7	-13.7	-13.7	---	---	8.7	NE	0.14	10.4	-21.5	---	---	720.0	0.022	0.000	19.3	2	1
03/20/06	2:22 a	-13.7	-13.7	-13.7	---	---	9.6	NE	0.16	10.4	-21.9	---	---	720.0	0.022	0.000	19.3	2	1
03/20/06	2:23 a	-13.7	-13.7	-13.7	---	---	9.6	NE	0.16	10.4	-21.9	---	---	720.0	0.022	0.000	19.3	2	1
03/20/06	2:24 a	-13.7	-13.7	-13.8	---	---	9.6	ENE	0.16	11.3	-21.9	---	---	719.9	0.022	0.000	19.4	2	1
03/20/06	2:25 a	-13.8	-13.7	-13.8	---	---	9.6	ENE	0.16	10.4	-22.0	---	---	720.0	0.022	0.000	19.4	2	1
03/20/06	2:26 a	-13.8	-13.8	-13.8	---	---	9.6	ENE	0.16	10.4	-22.1	---	---	719.9	0.022	0.000	19.4	2	1
03/20/06	2:27 a	-13.8	-13.8	-13.8	---	---	10.4	ENE	0.17	11.3	-22.4	---	---	719.9	0.022	0.000	19.4	2	1
03/20/06	2:28 a	-13.9	-13.9	-13.9	---	---	10.4	ENE	0.17	11.3	-22.6	---	---	720.0	0.022	0.000	19.4	2	1
03/20/06	2:29 a	-13.9	-13.9	-13.9	---	---	11.3	ENE	0.19	12.2	-22.9	---	---	720.0	0.022	0.000	19.4	2	1
03/20/06	2:30 a	-13.9	-13.9	-14.0	---	---	12.2	ENE	0.20	12.2	-23.3	---	---	719.9	0.022	0.000	19.4	2	1
03/20/06	2:31 a	-14.0	-14.0	-14.0	---	---	12.2	ENE	0.20	13.0	-23.3	---	---	719.9	0.022	0.000	19.4	2	1
03/20/06	2:32 a	-14.1	-14.1	-14.1	---	---	12.2	ENE	0.20	13.0	-23.4	---	---	720.0	0.022	0.000	19.4	2	1
03/20/06	2:33 a	-14.1	-14.1	-14.1	---	---	11.3	ENE	0.19	13.0	-23.2	---	---	720.0	0.023	0.000	19.4	2	1
03/20/06	2:34 a	-14.2	-14.2	-14.2	---	---	10.4	ENE	0.17	11.3	-22.9	---	---	720.0	0.023	0.000	19.4	2	1
03/20/06	2:35 a	-14.2	-14.2	-14.2	---	---	11.3	ENE	0.19	12.2	-23.2	---	---	720.0	0.023	0.000	19.4	2	1
03/20/06	2:36 a	-14.2	-14.2	-14.3	---	---	11.3	ENE	0.19	12.2	-23.3	---	---	720.0	0.023	0.000	19.4	2	1
03/20/06	2:37 a	-14.3	-14.3	-14.3	---	---	11.3	ENE	0.19	11.3	-23.4	---	---	720.0	0.023	0.000	19.5	2	1
03/20/06	2:38 a	-14.3	-14.3	-14.3	---	---	10.4	ENE	0.17	11.3	-23.1	---	---	719.9	0.023	0.000	19.5	2	1
03/20/06	2:39 a	-14.4	-14.3	-14.4	---	---	10.4	ENE	0.17	11.3	-23.2	---	---	720.0	0.023	0.000	19.5	2	1
03/20/06	2:40 a	-14.4	-14.4	-14.4	---	---	9.6	ENE	0.16	10.4	-22.8	---	---	720.1	0.023	0.000	19.5	2	1
03/20/06	2:41 a	-14.5	-14.4	-14.5	---	---	9.6	ENE	0.16	10.4	-22.9	---	---	720.0	0.023	0.000	19.5	2	1
03/20/06	2:42 a	-14.5	-14.5	-14.6	---	---	9.6	ENE	0.16	10.4	-22.9	---	---	720.0	0.023	0.000	19.5	2	1
03/20/06	2:43 a	-14.6	-14.6	-14.6	---	---	10.4	ENE	0.17	11.3	-23.4	---	---	720.0	0.023	0.000	19.5	2	1
03/20/06	2:44 a	-14.7	-14.6	-14.7	---	---	10.4	ENE	0.17	11.3	-23.5	---	---	720.0	0.023	0.000	19.5	2	1
03/20/06	2:45 a	-14.7	-14.7	-14.8	---	---	10.4	ENE	0.17	11.3	-23.6	---	---	720.0	0.023	0.000	19.5	2	1
03/20/06	2:46 a	-14.8	-14.8	-14.8	---	---	10.4	ENE	0.17	11.3	-23.7	---	---	719.9	0.023	0.000	19.5	2	1
03/20/06	2:47 a	-14.9	-14.8	-14.9	---	---	10.4	ENE	0.17	11.3	-23.8	---	---	720.0	0.023	0.000	19.5	2	1
03/20/06	2:48 a	-14.9	-14.9	-15.0	---	---	11.3	ENE	0.19	12.2	-24.2	---	---	720.0	0.023	0.000	19.5	2	1
03/20/06	2:49 a	-15.1	-15.0	-15.1	---	---	11.3	ENE	0.19	12.2	-24.3	---	---	719.9	0.023	0.000	19.5	2	1
03/20/06	2:50 a	-15.1	-15.1	-15.1	---	---	11.3	ENE	0.19	11.3	-24.4	---	---	720.0	0.023	0.000	19.5	2	1
03/20/06	2:51 a	-15.2	-15.1	-15.2	---	---	10.4	ENE	0.17	12.2	-24.2	---	---	720.0	0.023	0.000	19.5	2	1
03/20/06	2:52 a	-15.2	-15.2	-15.3	---	---	10.4	ENE	0.17	11.3	-24.2	---	---	720.1	0.023	0.000	19.5	2	1
03/20/06	2:53 a	-15.3	-15.3	-15.4	---	---	10.4	ENE	0.17	11.3	-24.3	---	---	720.0	0.023	0.000	19.5	2	1
03/20/06	2:54 a	-15.4	-15.4	-15.4	---	---	10.4	ENE	0.17	11.3	-24.4	---	---	719.9	0.023	0.000	19.4	2	1
03/20/06	2:55 a	-15.4	-15.4	-15.5	---	---	10.4	ENE	0.17	11.3	-24.5	---	---	720.0	0.023	0.000	19.4	2	1
03/20/06	2:56 a	-15.6	-15.5	-15.6	---	---	10.4	ENE	0.17	12.2	-24.6	---	---	720.0	0.024	0.000	19.5	2	1
03/20/06	2:57 a	-15.6	-15.6	-15.7	---	---	10.4	ENE	0.17	11.3	-24.7	---	---	719.9	0.024	0.000	19.4	2	1
03/20/06	2:58 a	-15.7	-15.7	-15.7	---	---	9.6	ENE	0.16	10.4	-24.4	---	---	720.0	0.024	0.000	19.5	2	1
03/20/06	2:59 a	-15.8	-15.7	-15.8	---	---	9.6	ENE	0.16	10.4	-24.5	---	---	720.0	0.024	0.000	19.5	2	1
03/20/06	3:00 a	-15.8	-15.8	-15.9	---	---	10.4	ENE	0.17	10.4	-25.0	---	---	719.9	0.024	0.000	19.5	2	1
03/20/06	3:01 a	-15.9	-15.9	-15.9	---	---	10.4	ENE	0.17	11.3	-25.1	---	---	720.0	0.024	0.000	19.5	2	1
03/20/06	3:02 a	-16.0	-15.9	-16.1	---	---	9.6	ENE	0.16	11.3	-24.8	---	---	720.0	0.024	0.000	19.5	2	1
03/20/06	3:03 a	-16.1	-16.1	-16.1	---	---	9.6	ENE	0.16	10.4	-24.9	---	---	719.9	0.024	0.000	19.5	2	1
03/20/06	3:04 a	-16.2	-16.1	-16.2	---	---	9.6	E	0.16	10.4	-25.0	---	---	719.9	0.024	0.000	19.5	2	1
03/20/06	3:05 a	-16.2	-16.2	-16.3	---	---	9.6	ENE	0.16	10.4	-25.1	---	---	719.8	0.024	0.000	19.5	2	1
03/20/06	3:06 a	-16.3	-16.2	-16.3	---	---	9.6	E	0.16	10.4	-25.2	---	---	720.0	0.024	0.000	19.5	2	1
03/20/06	3:07 a	-16.4	-16.3	-16.4	---	---	10.4	E	0.17	10.4	-25.7	---	---	719.9	0.024	0.000	19.5	2	1
03/20/06	3:08 a	-16.4	-16.4	-16.5	---	---	8.7	E	0.14	10.4	-24.9	---	---	719.8	0.024	0.000	19.5	2	1
03/20/06	3:09 a	-16.5	-16.5	-16.5	---	---	7.8	E	0.13	9.6	-24.5	---	---	719.9	0.024	0.000	19.5	2	1
03/20/06	3:10 a	-16.6	-16.6	-16.6	---	---	8.7	E	0.14	10.4	-25.1	---	---	720.0	0.024	0.000	19.5	2	1
03/20/06	3:11 a	-16.6	-16.6	-16.7	---	---	8.7	E	0.14	10.4	-25.1	---	---	719.9	0.024	0.000	19.5	2	1
03/20/06	3:12 a	-16.7	-16.7	-16.7	---	---	8.7	E	0.14	10.4	-25.2	---	---	719.8	0.024	0.000	19.6	2	1
03/20/06	3:13 a	-16.8	-16.7	-16.8	---	---	8.7	E	0.14	10.4	-25.3	---	---	719.8	0.024	0.000	19.6	2	1
03/20/06	3:14 a	-16.8	-16.8	-16.8	---	---	8.7	E	0.14	9.6	-25.4	---	---	719.8	0.024	0.000	19.5	2	1
03/20/06	3:15 a	-16.9	-16.9	-16.9	---	---	8.7	E	0.14	10.4	-25.5	---	---	719.8	0.024	0.000	19.5	2	1
03/20/06	3:16 a	-16.9	-16.9	-17.0	---	---	8.7	E	0.14	10.4	-25.6	---	---	719.8	0.024	0.000	19.6	2	1
03/20/06	3:17 a	-17.0	-16.9	-17.1	---	---	8.7	E	0.14	10.4	-25.6	---	---	719.8	0.025	0.000	19.6	2	1
03/20/06	3:18 a	-17.1	-17.1	-17.1	---	---	7.8	E	0.13	9.6	-25.2	---	---	719.8	0.025	0.000	19.6	2	1
03/20/06	3:19 a	-17.1	-17.1	-17.1	---	---	9.6	E	0.16	11.3	-26.2	---	---	719.9	0.025	0.000	19.6	2	1
03/20/06	3:20 a	-17.2	-17.2	-17.2	---	---	8.7	E	0.14	11.3	-25.8	---	---	719.8	0.025	0.000	19.6	2	1
03/20/06	3:21 a	-17.2	-17.2	-17.2	---	---	9.6	E	0.16	11.3	-26.3	---	---	719.8	0.025	0.000	19.6	2	1
03/20/06	3:22 a	-17.2	-17.2	-17.3	---	---	9.6	E	0.16	11.3	-26.3	---	---	719.7	0.025	0.000	19.6	2	1
03/20/06	3:23 a	-17.3	-17.3	-17.3	---	---	9.6	E	0.16	12.2	-26.4	---	---	719.8	0.025	0.000	19.6	2	1
03/20/06	3:24 a	-17.3	-17.3	-17.3	---	---	9.6	E	0.16	11.3	-26.4	---	---	719.8	0.025	0.000	19.6	2	1
03/20/06	3:25 a	-17.4	-17.3	-17.4	---	---	9.6	E	0.16	12.2	-26.6	---	---	719.7	0.025	0.000	19.6	2	1
03/20/06	3:26 a	-17.4	-17.4	-17.4	---	---	10.4	E	0.17	12.2	-26.9	---	---	719.7	0.025	0.000	19.6	2	1
03/20/06	3:27 a	-17.4	-17.4	-17.5	---	---	9.6	E	0.16	11.3	-26.6	---	---	719.8	0.025	0.000	19.6	2	1
03/20/06	3:28 a	-17.5	-17.5	-17.5	---	---	9.6	E	0.16	12.2	-26.7	---	---	719.7	0.025	0.000	19.6	2	1
03/20/06	3:29 a	-17.6	-17.6	-17.6	---	---	9.6	E	0.16	13.0	-26.7	---	---	719.7	0.025	0.000	19.6	2	1
03/20/06	3:30 a	-17.6	-17.6	-17.6	---	---	9.6	E	0.16	11.3	-26.8	---	---	719.8	0.025	0.000	19.6	2	1
03/20/06	3:31 a	-17.6	-17.6	-17.7	---	---	9.6	E	0.16	12.2	-26.8	---	---	719.7	0.025	0.000	19.6	2	1
03/20/06	3:32 a	-17.7	-17.7	-17.7	---	---	10.4	E	0.17	12.2	-27.3	---	---	719.7	0.025	0.000	19.6	2	1
03/20/06	3:33 a	-17.7	-17.7	-17.8	---	---	10.4	E	0.17	14.8	-27.3	---	---	719.7	0.025	0.000	19.6	2	1
03/20/06	3:34 a	-17.8	-17.8	-17.8	---	---	10.4	E	0.17	13.9	-27.4	---	---	719.6	0.025	0.000	19.6	2	1
03/20/06	3:35 a	-17.8	-17.8	-17.8	---	---	11.3	E	0.19	13.0	-27.8	---	---	719.7	0.025	0.000	19.6	2	1
03/20/06	3:36 a	-17.8	-17.8	-17.9	---	---	11.3	E	0.19	13.0	-27.9	---	---	719.7	0.025	0.000	19.6	2	1
03/20/06	3:37 a	-17.9	-17.8	-17.9	---	---	11.3	E	0.19	13.0	-27.9	---	---	719.6	0.025	0.000	19.6	2	1
03/20/06	3:38 a	-17.9	-17.9	-17.9	---	---	11.3	E	0.19	13.9	-27.9	---	---	719.6	0.025	0.000	19.6	2	1
03/20/06	3:39 a	-18.0	-17.9	-18.0	---	---	11.3	E	0.19	13.9	-28.1	---	---	719.5	0.025	0.000	19.6	2	1
03/20/06	3:40 a	-18.0	-18.0	-18.1	---	---	12.2	E	0.20	13.9	-28.4	---	---	719.6	0.025	0.000	19.6	2	1
03/20/06	3:41 a	-18.1	-18.1	-18.1	---	---	11.3	E	0.19	13.0	-28.2	---	---	719.6	0.025	0.000	19.6	2	1
03/20/06	3:42 a	-18.1	-18.1	-18.2	---	---	12.2	E	0.20	13.9	-28.6	---	---	719.6	0.025	0.000	19.6	2	1
03/20/06	3:43 a	-18.2	-18.2	-18.2	---	---	12.2	E	0.20	14.8	-28.7	---	---	719.5	0.025	0.000	19.6	2	1
03/20/06	3:44 a	-18.2	-18.2	-18.3	---	---	13.0	E	0.22	16.5	-29.1	---	---	719.5	0.025	0.000	19.6	2	1
03/20/06	3:45 a	-18.3	-18.3	-18.3	---	---	13.9	E	0.23	16.5	-29.4	---	---	719.5	0.025	0.000	19.6	2	1
03/20/06	3:46 a	-18.3	-18.3	-18.3	---	---	13.0	E	0.22	14.8	-29.2	---	---	719.6	0.025	0.000	19.6	2	1
03/20/06	3:47 a	-18.4	-18.3	-18.4	---	---	12.2	E	0.20	13.9	-28.9	---	---	719.5	0.026	0.000	19.6	2	1
03/20/06	3:48 a	-18.4	-18.4	-18.4	---	---	13.0	E	0.22	14.8	-29.3	---	---	719.5	0.026	0.000	19.6	2	1
03/20/06	3:49 a	-18.5	-18.4	-18.5	---	---	13.9	E	0.23	17.4	-29.7	---	---	719.6	0.026	0.000	19.6	2	1
03/20/06	3:50 a	-18.6	-18.6	-18.6	---	---	13.0	E	0.22	16.5	-29.5	---	---	719.6	0.026	0.000	19.6	3	1
03/20/06	3:51 a	-18.6	-18.6	-18.6	---	---	13.9	E	0.23	16.5	-29.9	---	---	719.6	0.026	0.000	19.6	3	1
03/20/06	3:52 a	-18.6	-18.6	-18.7	---	---	13.0	E	0.22	16.5	-29.6	---	---	719.7	0.026	0.000	19.6	3	1
03/20/06	3:53 a	-18.7	-18.7	-18.7	---	---	13.9	E	0.23	16.5	-30.1	---	---	719.5	0.026	0.000	19.6	3	1
03/20/06	3:54 a	-18.7	-18.7	-18.8	---	---	13.0	E	0.22	17.4	-29.7	---	---	719.6	0.026	0.000	19.6	3	1
03/20/06	3:55 a	-18.8	-18.8	-18.9	---	---	13.9	E	0.23	16.5	-30.2	---	---	719.5	0.026	0.000	19.6	3	1
03/20/06	3:56 a	-18.9	-18.9	-18.9	---	---	14.8	E	0.25	17.4	-30.6	---	---	719.6	0.026	0.000	19.6	3	1
03/20/06	3:57 a	-18.9	-18.9	-18.9	---	---	15.7	E	0.26	17.4	-30.9	---	---	719.5	0.026	0.000	19.6	3	1
03/20/06	3:58 a	-19.0	-18.9	-19.0	---	---	13.0	E	0.22	15.7	-30.1	---	---	719.6	0.026	0.000	19.6	3	1
03/20/06	3:59 a	-19.1	-19.1	-19.1	---	---	13.9	E	0.23	15.7	-30.4	---	---	719.5	0.026	0.000	19.6	3	1
03/20/06	4:00 a	-19.1	-19.1	-19.1	---	---	13.9	E	0.23	16.5	-30.6	---	---	719.6	0.026	0.000	19.6	3	1
03/20/06	4:01 a	-19.2	-19.1	-19.2	---	---	14.8	E	0.25	17.4	-30.9	---	---	719.5	0.026	0.000	19.6	3	1
03/20/06	4:02 a	-19.2	-19.2	-19.3	---	---	14.8	E	0.25	16.5	-31.0	---	---	719.5	0.026	0.000	19.6	3	1
03/20/06	4:03 a	-19.3	-19.3	-19.3	---	---	14.8	E	0.25	17.4	-31.1	---	---	719.4	0.026	0.000	19.6	3	1
03/20/06	4:04 a	-19.3	-19.3	-19.4	---	---	15.7	E	0.26	17.4	-31.4	---	---	719.5	0.026	0.000	19.6	3	1
03/20/06	4:05 a	-19.4	-19.4	-19.4	---	---	14.8	E	0.25	19.1	-31.2	---	---	719.5	0.026	0.000	19.6	3	1
03/20/06	4:06 a	-19.4	-19.4	-19.5	---	---	15.7	E	0.26	17.4	-31.6	---	---	719.6	0.026	0.000	19.6	3	1
03/20/06	4:07 a	-19.5	-19.5	-19.5	---	---	14.8	E	0.25	18.3	-31.3	---	---	719.5	0.026	0.000	19.6	3	1
03/20/06	4:08 a	-19.6	-19.5	-19.6	---	---	15.7	E	0.26	18.3	-31.7	---	---	719.5	0.026	0.000	19.6	3	1
03/20/06	4:09 a	-19.6	-19.6	-19.7	---	---	14.8	E	0.25	18.3	-31.5	---	---	719.4	0.026	0.000	19.6	3	1
03/20/06	4:10 a	-19.7	-19.7	-19.7	---	---	16.5	E	0.28	17.4	-32.2	---	---	719.5	0.026	0.000	19.6	3	1
03/20/06	4:11 a	-19.7	-19.7	-19.7	---	---	14.8	E	0.25	17.4	-31.6	---	---	719.5	0.026	0.000	19.6	3	1
03/20/06	4:12 a	-19.8	-19.7	-19.8	---	---	15.7	E	0.26	17.4	-32.0	---	---	719.5	0.026	0.000	19.7	3	1
03/20/06	4:13 a	-19.8	-19.8	-19.9	---	---	14.8	E	0.25	17.4	-31.8	---	---	719.4	0.027	0.000	19.6	3	1
03/20/06	4:14 a	-19.9	-19.9	-19.9	---	---	17.4	E	0.29	18.3	-32.7	---	---	719.5	0.027	0.000	19.6	3	1
03/20/06	4:15 a	-19.9	-19.9	-20.0	---	---	16.5	E	0.28	18.3	-32.5	---	---	719.5	0.027	0.000	19.7	3	1
03/20/06	4:16 a	-20.0	-20.0	-20.1	---	---	15.7	E	0.26	18.3	-32.3	---	---	719.4	0.027	0.000	19.7	3	1
03/20/06	4:17 a	-20.1	-20.1	-20.1	---	---	14.8	E	0.25	17.4	-32.1	---	---	719.4	0.027	0.000	19.7	3	1
03/20/06	4:18 a	-20.1	-20.1	-20.2	---	---	15.7	E	0.26	17.4	-32.4	---	---	719.5	0.027	0.000	19.7	3	1
03/20/06	4:19 a	-20.2	-20.1	-20.2	---	---	15.7	E	0.26	17.4	-32.5	---	---	719.3	0.027	0.000	19.7	3	1
03/20/06	4:20 a	-20.2	-20.2	-20.3	---	---	15.7	E	0.26	18.3	-32.6	---	---	719.4	0.027	0.000	19.7	3	1
03/20/06	4:21 a	-20.3	-20.2	-20.3	---	---	15.7	E	0.26	18.3	-32.7	---	---	719.4	0.027	0.000	19.6	3	1
03/20/06	4:22 a	-20.3	-20.3	-20.3	---	---	15.7	E	0.26	18.3	-32.7	---	---	719.3	0.027	0.000	19.6	3	1
03/20/06	4:23 a	-20.3	-20.3	-20.4	---	---	16.5	E	0.28	18.3	-33.0	---	---	719.4	0.027	0.000	19.6	3	1
03/20/06	4:24 a	-20.4	-20.4	-20.4	---	---	15.7	E	0.26	18.3	-32.9	---	---	719.4	0.027	0.000	19.6	3	1
03/20/06	4:25 a	-20.4	-20.4	-20.5	---	---	16.5	E	0.28	17.4	-33.2	---	---	719.3	0.027	0.000	19.6	3	1
03/20/06	4:26 a	-20.5	-20.5	-20.6	---	---	16.5	E	0.28	19.1	-33.2	---	---	719.4	0.027	0.000	19.6	3	1
03/20/06	4:27 a	-20.5	-20.5	-20.6	---	---	17.4	E	0.29	19.1	-33.5	---	---	719.3	0.027	0.000	19.6	3	1
03/20/06	4:28 a	-20.6	-20.6	-20.6	---	---	16.5	E	0.28	20.0	-33.3	---	---	719.4	0.027	0.000	19.6	3	1
03/20/06	4:29 a	-20.6	-20.6	-20.7	---	---	15.7	E	0.26	18.3	-33.1	---	---	719.3	0.027	0.000	19.6	3	1
03/20/06	4:30 a	-20.7	-20.6	-20.7	---	---	15.7	ESE	0.26	17.4	-33.2	---	---	719.3	0.027	0.000	19.6	3	1
03/20/06	4:31 a	-20.7	-20.7	-20.7	---	---	14.8	E	0.25	18.3	-32.8	---	---	719.4	0.027	0.000	19.6	3	1
03/20/06	4:32 a	-20.7	-20.7	-20.7	---	---	15.7	E	0.26	20.0	-33.2	---	---	719.4	0.027	0.000	19.6	3	1
03/20/06	4:33 a	-20.8	-20.8	-20.8	---	---	14.8	E	0.25	18.3	-33.0	---	---	719.5	0.027	0.000	19.6	3	1
03/20/06	4:34 a	-20.8	-20.8	-20.8	---	---	15.7	E	0.26	19.1	-33.4	---	---	719.4	0.027	0.000	19.6	3	1
03/20/06	4:35 a	-20.8	-20.8	-20.8	---	---	15.7	E	0.26	19.1	-33.4	---	---	719.3	0.027	0.000	19.6	3	1
03/20/06	4:36 a	-20.8	-20.8	-20.9	---	---	15.7	E	0.26	18.3	-33.4	---	---	719.4	0.027	0.000	19.6	3	1
03/20/06	4:37 a	-20.9	-20.9	-20.9	---	---	15.7	E	0.26	17.4	-33.4	---	---	719.3	0.027	0.000	19.6	3	1
03/20/06	4:38 a	-20.9	-20.9	-20.9	---	---	15.7	E	0.26	18.3	-33.4	---	---	719.3	0.027	0.000	19.6	3	1
03/20/06	4:39 a	-20.9	-20.9	-20.9	---	---	16.5	E	0.28	20.0	-33.8	---	---	719.3	0.027	0.000	19.6	3	1
03/20/06	4:40 a	-21.0	-20.9	-21.0	---	---	15.7	E	0.26	18.3	-33.6	---	---	719.3	0.027	0.000	19.6	3	1
03/20/06	4:41 a	-21.0	-21.0	-21.1	---	---	16.5	E	0.28	20.0	-33.9	---	---	719.4	0.027	0.000	19.6	3	1
03/20/06	4:42 a	-21.1	-21.0	-21.1	---	---	16.5	E	0.28	19.1	-33.9	---	---	719.3	0.027	0.000	19.6	3	1
03/20/06	4:43 a	-21.1	-21.1	-21.1	---	---	15.7	E	0.26	18.3	-33.7	---	---	719.4	0.027	0.000	19.6	3	1
03/20/06	4:44 a	-21.1	-21.1	-21.1	---	---	15.7	E	0.26	18.3	-33.7	---	---	719.4	0.027	0.000	19.6	3	1
03/20/06	4:45 a	-21.1	-21.1	-21.1	---	---	16.5	E	0.28	19.1	-34.1	---	---	719.4	0.027	0.000	19.6	3	1
03/20/06	4:46 a	-21.1	-21.1	-21.2	---	---	14.8	E	0.25	17.4	-33.4	---	---	719.3	0.027	0.000	19.6	3	1
03/20/06	4:47 a	-21.2	-21.2	-21.2	---	---	15.7	E	0.26	18.3	-33.8	---	---	719.5	0.027	0.000	19.5	3	1
03/20/06	4:48 a	-21.2	-21.2	-21.2	---	---	15.7	E	0.26	18.3	-33.9	---	---	719.4	0.027	0.000	19.6	3	1
03/20/06	4:49 a	-21.2	-21.2	-21.2	---	---	15.7	E	0.26	17.4	-33.9	---	---	719.4	0.027	0.000	19.6	3	1
03/20/06	4:50 a	-21.2	-21.2	-21.3	---	---	14.8	E	0.25	17.4	-33.6	---	---	719.4	0.027	0.000	19.5	3	1
03/20/06	4:51 a	-21.3	-21.3	-21.3	---	---	15.7	E	0.26	17.4	-33.9	---	---	719.5	0.028	0.000	19.5	3	1
03/20/06	4:52 a	-21.3	-21.3	-21.3	---	---	14.8	E	0.25	17.4	-33.7	---	---	719.4	0.028	0.000	19.5	3	1
03/20/06	4:53 a	-21.3	-21.3	-21.3	---	---	14.8	E	0.25	15.7	-33.7	---	---	719.4	0.028	0.000	19.6	3	1
03/20/06	4:54 a	-21.3	-21.3	-21.3	---	---	14.8	E	0.25	17.4	-33.7	---	---	719.4	0.028	0.000	19.6	3	1
03/20/06	4:55 a	-21.3	-21.3	-21.3	---	---	14.8	E	0.25	17.4	-33.7	---	---	719.5	0.028	0.000	19.6	3	1
03/20/06	4:56 a	-21.4	-21.3	-21.4	---	---	14.8	E	0.25	18.3	-33.8	---	---	719.4	0.028	0.000	19.6	3	1
03/20/06	4:57 a	-21.4	-21.3	-21.4	---	---	15.7	E	0.26	19.1	-34.1	---	---	719.5	0.028	0.000	19.6	3	1
03/20/06	4:58 a	-21.4	-21.4	-21.4	---	---	14.8	E	0.25	18.3	-33.8	---	---	719.4	0.028	0.000	19.6	3	1
03/20/06	4:59 a	-21.4	-21.4	-21.4	---	---	15.7	E	0.26	18.3	-34.1	---	---	719.5	0.028	0.000	19.6	3	1
03/20/06	5:00 a	-21.4	-21.4	-21.4	---	---	15.7	E	0.26	18.3	-34.2	---	---	719.4	0.028	0.000	19.6	3	1
03/20/06	5:01 a	-21.4	-21.4	-21.4	---	---	15.7	E	0.26	19.1	-34.2	---	---	719.5	0.028	0.000	19.6	3	1
03/20/06	5:02 a	-21.5	-21.4	-21.5	---	---	15.7	E	0.26	19.1	-34.2	---	---	719.5	0.028	0.000	19.6	3	1
03/20/06	5:03 a	-21.5	-21.4	-21.5	---	---	15.7	E	0.26	17.4	-34.2	---	---	719.5	0.028	0.000	19.6	3	1
03/20/06	5:04 a	-21.5	-21.4	-21.5	---	---	15.7	E	0.26	18.3	-34.2	---	---	719.5	0.028	0.000	19.6	3	1
03/20/06	5:05 a	-21.5	-21.5	-21.5	---	---	15.7	E	0.26	18.3	-34.2	---	---	719.5	0.028	0.000	19.6	3	1
03/20/06	5:06 a	-21.5	-21.5	-21.6	---	---	15.7	E	0.26	18.3	-34.2	---	---	719.6	0.028	0.000	19.6	3	1
03/20/06	5:07 a	-21.6	-21.5	-21.6	---	---	15.7	E	0.26	21.7	-34.3	---	---	719.4	0.028	0.000	19.6	3	1
03/20/06	5:08 a	-21.6	-21.6	-21.6	---	---	16.5	E	0.28	19.1	-34.6	---	---	719.4	0.028	0.000	19.6	3	1
03/20/06	5:09 a	-21.6	-21.6	-21.6	---	---	16.5	E	0.28	19.1	-34.7	---	---	719.4	0.028	0.000	19.5	3	1
03/20/06	5:10 a	-21.6	-21.6	-21.7	---	---	16.5	E	0.28	19.1	-34.7	---	---	719.5	0.028	0.000	19.5	3	1
03/20/06	5:11 a	-21.6	-21.6	-21.7	---	---	15.7	E	0.26	18.3	-34.4	---	---	719.5	0.028	0.000	19.5	3	1
03/20/06	5:12 a	-21.7	-21.7	-21.7	---	---	15.7	E	0.26	18.3	-34.4	---	---	719.5	0.028	0.000	19.5	3	1
03/20/06	5:13 a	-21.7	-21.6	-21.7	---	---	16.5	E	0.28	19.1	-34.8	---	---	719.5	0.028	0.000	19.5	3	1
03/20/06	5:14 a	-21.7	-21.7	-21.7	---	---	16.5	E	0.28	18.3	-34.8	---	---	719.4	0.028	0.000	19.5	3	1
03/20/06	5:15 a	-21.7	-21.7	-21.7	---	---	15.7	E	0.26	19.1	-34.6	---	---	719.5	0.028	0.000	19.5	3	1
03/20/06	5:16 a	-21.7	-21.7	-21.7	---	---	16.5	E	0.28	19.1	-34.8	---	---	719.5	0.028	0.000	19.5	3	1
03/20/06	5:17 a	-21.7	-21.7	-21.7	---	---	16.5	E	0.28	18.3	-34.8	---	---	719.5	0.028	0.000	19.5	3	1
03/20/06	5:18 a	-21.7	-21.7	-21.7	---	---	16.5	E	0.28	19.1	-34.8	---	---	719.4	0.028	0.000	19.5	3	1
03/20/06	5:19 a	-21.8	-21.7	-21.8	---	---	16.5	E	0.28	18.3	-34.9	---	---	719.4	0.028	0.000	19.4	2	1
03/20/06	5:20 a	-21.8	-21.7	-21.8	---	---	15.7	E	0.26	18.3	-34.6	---	---	719.5	0.028	0.000	19.4	3	1
03/20/06	5:21 a	-21.8	-21.8	-21.8	---	---	15.7	E	0.26	17.4	-34.6	---	---	719.4	0.028	0.000	19.4	3	1
03/20/06	5:22 a	-21.8	-21.8	-21.8	---	---	16.5	E	0.28	19.1	-35.0	---	---	719.5	0.028	0.000	19.4	3	1
03/20/06	5:23 a	-21.8	-21.8	-21.9	---	---	15.7	E	0.26	18.3	-34.7	---	---	719.6	0.028	0.000	19.4	2	1
03/20/06	5:24 a	-21.9	-21.8	-21.9	---	---	16.5	E	0.28	18.3	-35.1	---	---	719.5	0.028	0.000	19.4	2	1
03/20/06	5:25 a	-21.9	-21.8	-21.9	---	---	15.7	E	0.26	17.4	-34.8	---	---	719.6	0.028	0.000	19.4	2	1
03/20/06	5:26 a	-21.9	-21.8	-21.9	---	---	16.5	E	0.28	19.1	-35.1	---	---	719.5	0.028	0.000	19.4	2	1
03/20/06	5:27 a	-21.9	-21.9	-21.9	---	---	16.5	E	0.28	18.3	-35.1	---	---	719.6	0.028	0.000	19.4	2	1
03/20/06	5:28 a	-21.9	-21.9	-21.9	---	---	16.5	E	0.28	17.4	-35.1	---	---	719.6	0.028	0.000	19.4	2	1
03/20/06	5:29 a	-21.9	-21.9	-21.9	---	---	14.8	E	0.25	17.4	-34.5	---	---	719.6	0.028	0.000	19.4	2	1
03/20/06	5:30 a	-21.9	-21.9	-21.9	---	---	16.5	ESE	0.28	18.3	-35.1	---	---	719.6	0.028	0.000	19.4	2	1
03/20/06	5:31 a	-21.9	-21.9	-21.9	---	---	15.7	E	0.26	19.1	-34.8	---	---	719.6	0.028	0.000	19.4	2	1
03/20/06	5:32 a	-21.9	-21.9	-22.0	---	---	15.7	E	0.26	18.3	-34.8	---	---	719.6	0.028	0.000	19.4	2	1
03/20/06	5:33 a	-22.0	-22.0	-22.0	---	---	16.5	E	0.28	19.1	-35.2	---	---	719.7	0.028	0.000	19.4	2	1
03/20/06	5:34 a	-22.0	-22.0	-22.1	---	---	13.9	E	0.23	18.3	-34.3	---	---	719.6	0.028	0.000	19.4	2	1
03/20/06	5:35 a	-22.1	-22.0	-22.1	---	---	15.7	E	0.26	17.4	-34.9	---	---	719.6	0.028	0.000	19.4	2	1
03/20/06	5:36 a	-22.1	-22.1	-22.1	---	---	14.8	E	0.25	17.4	-34.7	---	---	719.6	0.028	0.000	19.4	2	1
03/20/06	5:37 a	-22.1	-22.1	-22.1	---	---	16.5	E	0.28	18.3	-35.3	---	---	719.6	0.028	0.000	19.4	2	1
03/20/06	5:38 a	-22.1	-22.1	-22.1	---	---	16.5	E	0.28	18.3	-35.3	---	---	719.6	0.028	0.000	19.4	2	1
03/20/06	5:39 a	-22.1	-22.1	-22.1	---	---	15.7	E	0.26	17.4	-35.1	---	---	719.6	0.028	0.000	19.4	2	1
03/20/06	5:40 a	-22.1	-22.1	-22.1	---	---	15.7	E	0.26	18.3	-35.1	---	---	719.6	0.028	0.000	19.4	2	1
03/20/06	5:41 a	-22.1	-22.1	-22.2	---	---	15.7	E	0.26	17.4	-35.1	---	---	719.6	0.028	0.000	19.4	2	1
03/20/06	5:42 a	-22.2	-22.1	-22.2	---	---	14.8	E	0.25	18.3	-34.8	---	---	719.6	0.028	0.000	19.4	2	1
03/20/06	5:43 a	-22.2	-22.1	-22.2	---	---	15.7	E	0.26	17.4	-35.1	---	---	719.6	0.028	0.000	19.4	2	1
03/20/06	5:44 a	-22.2	-22.2	-22.2	---	---	15.7	E	0.26	18.3	-35.1	---	---	719.6	0.028	0.000	19.4	2	1
03/20/06	5:45 a	-22.2	-22.2	-22.2	---	---	16.5	E	0.28	18.3	-35.5	---	---	719.7	0.028	0.000	19.4	2	1
03/20/06	5:46 a	-22.2	-22.2	-22.2	---	---	16.5	E	0.28	18.3	-35.5	---	---	719.6	0.028	0.000	19.5	2	1
03/20/06	5:47 a	-22.2	-22.2	-22.2	---	---	16.5	E	0.28	20.0	-35.5	---	---	719.6	0.028	0.000	19.4	2	1
03/20/06	5:48 a	-22.2	-22.2	-22.2	---	---	14.8	E	0.25	18.3	-34.9	---	---	719.6	0.028	0.000	19.5	2	1
03/20/06	5:49 a	-22.2	-22.2	-22.3	---	---	15.7	E	0.26	17.4	-35.2	---	---	719.6	0.028	0.000	19.4	2	1
03/20/06	5:50 a	-22.3	-22.2	-22.3	---	---	14.8	E	0.25	16.5	-34.9	---	---	719.6	0.028	0.000	19.4	2	1
03/20/06	5:51 a	-22.3	-22.3	-22.3	---	---	14.8	E	0.25	17.4	-34.9	---	---	719.8	0.028	0.000	19.4	2	1
03/20/06	5:52 a	-22.3	-22.3	-22.3	---	---	15.7	E	0.26	17.4	-35.3	---	---	719.7	0.028	0.000	19.5	2	1
03/20/06	5:53 a	-22.3	-22.3	-22.3	---	---	15.7	E	0.26	17.4	-35.3	---	---	719.7	0.028	0.000	19.5	2	1
03/20/06	5:54 a	-22.3	-22.3	-22.3	---	---	15.7	E	0.26	17.4	-35.3	---	---	719.6	0.028	0.000	19.5	2	1
03/20/06	5:55 a	-22.3	-22.3	-22.4	---	---	13.9	E	0.23	17.4	-34.7	---	---	719.7	0.028	0.000	19.5	2	1
03/20/06	5:56 a	-22.3	-22.3	-22.3	---	---	15.7	E	0.26	18.3	-35.3	---	---	719.7	0.028	0.000	19.5	2	1
03/20/06	5:57 a	-22.4	-22.3	-22.4	---	---	14.8	E	0.25	16.5	-35.1	---	---	719.7	0.028	0.000	19.5	2	1
03/20/06	5:58 a	-22.4	-22.3	-22.4	---	---	15.7	E	0.26	17.4	-35.4	---	---	719.8	0.028	0.000	19.4	2	1
03/20/06	5:59 a	-22.4	-22.4	-22.4	---	---	15.7	E	0.26	17.4	-35.5	---	---	719.7	0.028	0.000	19.4	2	1
03/20/06	6:00 a	-22.4	-22.4	-22.4	---	---	15.7	E	0.26	18.3	-35.5	---	---	719.7	0.028	0.000	19.4	2	1
03/20/06	6:01 a	-22.4	-22.4	-22.5	---	---	15.7	E	0.26	17.4	-35.5	---	---	719.7	0.028	0.000	19.4	2	1
03/20/06	6:02 a	-22.5	-22.4	-22.5	---	---	15.7	E	0.26	18.3	-35.6	---	---	719.8	0.028	0.000	19.4	2	1
03/20/06	6:03 a	-22.5	-22.5	-22.6	---	---	14.8	E	0.25	17.4	-35.2	---	---	719.7	0.028	0.000	19.4	2	1
03/20/06	6:04 a	-22.6	-22.5	-22.6	---	---	15.7	E	0.26	17.4	-35.6	---	---	719.7	0.028	0.000	19.4	2	1
03/20/06	6:05 a	-22.6	-22.5	-22.6	---	---	15.7	E	0.26	18.3	-35.6	---	---	719.6	0.028	0.000	19.4	2	1
03/20/06	6:06 a	-22.6	-22.6	-22.6	---	---	15.7	E	0.26	17.4	-35.6	---	---	719.7	0.028	0.000	19.4	2	1
03/20/06	6:07 a	-22.6	-22.6	-22.6	---	---	15.7	E	0.26	17.4	-35.6	---	---	719.6	0.028	0.000	19.4	2	1
03/20/06	6:08 a	-22.6	-22.6	-22.6	---	---	15.7	E	0.26	16.5	-35.6	---	---	719.7	0.028	0.000	19.4	2	1
03/20/06	6:09 a	-22.6	-22.6	-22.6	---	---	16.5	E	0.28	18.3	-36.0	---	---	719.7	0.028	0.000	19.3	2	1
03/20/06	6:10 a	-22.6	-22.6	-22.6	---	---	15.7	E	0.26	19.1	-35.7	---	---	719.7	0.028	0.000	19.4	2	1
03/20/06	6:11 a	-22.7	-22.6	-22.7	---	---	16.5	E	0.28	18.3	-36.1	---	---	719.7	0.028	0.000	19.4	2	1
03/20/06	6:12 a	-22.7	-22.6	-22.7	---	---	14.8	E	0.25	16.5	-35.4	---	---	719.6	0.028	0.000	19.4	2	1
03/20/06	6:13 a	-22.7	-22.6	-22.7	---	---	13.9	E	0.23	17.4	-35.1	---	---	719.7	0.028	0.000	19.4	2	1
03/20/06	6:14 a	-22.7	-22.7	-22.7	---	---	15.7	E	0.26	19.1	-35.8	---	---	719.7	0.028	0.000	19.4	2	1
03/20/06	6:15 a	-22.7	-22.7	-22.7	---	---	16.5	E	0.28	18.3	-36.1	---	---	719.7	0.028	0.000	19.4	2	1
03/20/06	6:16 a	-22.7	-22.7	-22.7	---	---	17.4	E	0.29	20.0	-36.3	---	---	719.7	0.028	0.000	19.3	2	1
03/20/06	6:17 a	-22.7	-22.7	-22.7	---	---	16.5	E	0.28	18.3	-36.1	---	---	719.7	0.028	0.000	19.3	2	1
03/20/06	6:18 a	-22.7	-22.7	-22.7	---	---	15.7	E	0.26	17.4	-35.8	---	---	719.7	0.028	0.000	19.3	2	1
03/20/06	6:19 a	-22.7	-22.7	-22.7	---	---	15.7	E	0.26	18.3	-35.8	---	---	719.7	0.029	0.000	19.3	2	1
03/20/06	6:20 a	-22.7	-22.7	-22.7	---	---	14.8	E	0.25	16.5	-35.5	---	---	719.7	0.029	0.000	19.3	2	1
03/20/06	6:21 a	-22.7	-22.7	-22.7	---	---	15.7	E	0.26	18.3	-35.8	---	---	719.7	0.029	0.000	19.4	2	1
03/20/06	6:22 a	-22.8	-22.7	-22.8	---	---	15.7	E	0.26	18.3	-35.9	---	---	719.6	0.029	0.000	19.4	2	1
03/20/06	6:23 a	-22.7	-22.7	-22.7	---	---	17.4	E	0.29	18.3	-36.4	---	---	719.6	0.029	0.000	19.4	2	1
03/20/06	6:24 a	-22.7	-22.7	-22.7	---	---	17.4	E	0.29	19.1	-36.3	---	---	719.6	0.028	0.000	19.4	2	1
03/20/06	6:25 a	-22.7	-22.6	-22.7	---	---	14.8	E	0.25	18.3	-35.4	---	---	719.6	0.028	0.000	19.4	2	1
03/20/06	6:26 a	-22.7	-22.7	-22.7	---	---	18.3	E	0.30	20.0	-36.6	---	---	719.7	0.028	0.000	19.4	2	1
03/20/06	6:27 a	-22.6	-22.6	-22.7	---	---	19.1	E	0.32	20.9	-36.8	---	---	719.6	0.028	0.000	19.5	2	1
03/20/06	6:28 a	-22.6	-22.6	-22.6	---	---	17.4	E	0.29	19.1	-36.3	---	---	719.6	0.028	0.000	19.5	2	1
03/20/06	6:29 a	-22.6	-22.6	-22.6	---	---	15.7	E	0.26	18.3	-35.6	---	---	719.7	0.028	0.000	19.6	2	1
03/20/06	6:30 a	-22.5	-22.5	-22.6	---	---	15.7	E	0.26	18.3	-35.6	---	---	719.6	0.028	0.000	19.7	2	1
03/20/06	6:31 a	-22.4	-22.4	-22.5	---	---	15.7	E	0.26	18.3	-35.5	---	---	719.6	0.028	0.000	19.7	2	1
03/20/06	6:32 a	-22.4	-22.4	-22.4	---	---	16.5	E	0.28	18.3	-35.7	---	---	719.7	0.028	0.000	19.8	2	1
03/20/06	6:33 a	-22.3	-22.3	-22.4	---	---	15.7	E	0.26	19.1	-35.3	---	---	719.6	0.028	0.000	19.8	2	1
03/20/06	6:34 a	-22.3	-22.3	-22.3	---	---	14.8	E	0.25	17.4	-34.9	---	---	719.7	0.028	0.000	19.9	2	1
03/20/06	6:35 a	-22.3	-22.2	-22.3	---	---	15.7	E	0.26	17.4	-35.3	---	---	719.6	0.028	0.000	19.9	2	1
03/20/06	6:36 a	-22.2	-22.2	-22.2	---	---	16.5	E	0.28	18.3	-35.5	---	---	719.6	0.028	0.000	20.1	2	1
03/20/06	6:37 a	-22.2	-22.1	-22.2	---	---	18.3	E	0.30	20.0	-36.0	---	---	719.6	0.028	0.000	20.1	2	1
03/20/06	6:38 a	-22.1	-22.1	-22.1	---	---	18.3	E	0.30	20.0	-35.9	---	---	719.6	0.028	0.000	20.1	2	1
03/20/06	6:39 a	-22.1	-22.0	-22.1	---	---	18.3	E	0.30	20.0	-35.8	---	---	719.6	0.028	0.000	20.2	2	1
03/20/06	6:40 a	-22.0	-21.9	-22.0	---	---	19.1	E	0.32	20.9	-36.0	---	---	719.6	0.028	0.000	20.2	2	1
03/20/06	6:41 a	-21.9	-21.9	-21.9	---	---	19.1	E	0.32	20.9	-35.9	---	---	719.5	0.028	0.000	20.3	2	1
03/20/06	6:42 a	-21.8	-21.8	-21.9	---	---	17.4	E	0.29	19.1	-35.3	---	---	719.5	0.028	0.000	20.3	2	1
03/20/06	6:43 a	-21.8	-21.7	-21.8	---	---	18.3	E	0.30	20.9	-35.4	---	---	719.6	0.028	0.000	20.4	2	1
03/20/06	6:44 a	-21.7	-21.7	-21.8	---	---	18.3	E	0.30	20.0	-35.4	---	---	719.5	0.028	0.000	20.4	2	1
03/20/06	6:45 a	-21.7	-21.7	-21.7	---	---	17.4	E	0.29	20.0	-35.1	---	---	719.5	0.028	0.000	20.4	2	1
03/20/06	6:46 a	-21.6	-21.6	-21.7	---	---	17.4	E	0.29	19.1	-34.9	---	---	719.5	0.028	0.000	20.5	2	1
03/20/06	6:47 a	-21.6	-21.6	-21.6	---	---	18.3	E	0.30	20.9	-35.2	---	---	719.5	0.028	0.000	20.5	2	1
03/20/06	6:48 a	-21.5	-21.5	-21.5	---	---	19.1	E	0.32	21.7	-35.3	---	---	719.4	0.028	0.000	20.6	2	1
03/20/06	6:49 a	-21.4	-21.4	-21.4	---	---	18.3	E	0.30	20.0	-35.0	---	---	719.4	0.028	0.000	20.6	2	1
03/20/06	6:50 a	-21.4	-21.3	-21.4	---	---	18.3	E	0.30	20.9	-34.9	---	---	719.4	0.028	0.000	20.6	2	1
03/20/06	6:51 a	-21.3	-21.3	-21.4	---	---	18.3	E	0.30	20.0	-34.9	---	---	719.4	0.028	0.000	20.6	2	1
03/20/06	6:52 a	-21.3	-21.3	-21.3	---	---	18.3	E	0.30	21.7	-34.8	---	---	719.4	0.028	0.000	20.6	1	1
03/20/06	6:53 a	-21.3	-21.2	-21.3	---	---	16.5	E	0.28	19.1	-34.3	---	---	719.5	0.028	0.000	20.6	2	1
03/20/06	6:54 a	-21.2	-21.2	-21.2	---	---	16.5	E	0.28	19.1	-34.2	---	---	719.4	0.027	0.000	20.6	1	1
03/20/06	6:55 a	-21.2	-21.1	-21.2	---	---	18.3	E	0.30	20.9	-34.7	---	---	719.4	0.027	0.000	20.6	1	1
03/20/06	6:56 a	-21.1	-21.1	-21.1	---	---	18.3	E	0.30	20.9	-34.6	---	---	719.4	0.027	0.000	20.6	1	1
03/20/06	6:57 a	-21.1	-21.1	-21.1	---	---	18.3	E	0.30	21.7	-34.6	---	---	719.3	0.027	0.000	20.5	1	1
03/20/06	6:58 a	-21.1	-21.1	-21.1	---	---	18.3	E	0.30	20.0	-34.5	---	---	719.3	0.027	0.000	20.4	1	1
03/20/06	6:59 a	-21.1	-21.0	-21.1	---	---	18.3	E	0.30	20.9	-34.5	---	---	719.3	0.027	0.000	20.3	2	1
03/20/06	7:00 a	-21.1	-21.0	-21.1	---	---	19.1	E	0.32	20.0	-34.8	---	---	719.3	0.027	0.000	20.3	1	1
03/20/06	7:01 a	-21.0	-21.0	-21.1	---	---	19.1	E	0.32	20.9	-34.7	---	---	719.3	0.027	0.000	20.2	2	1
03/20/06	7:02 a	-21.0	-21.0	-21.0	---	---	18.3	E	0.30	20.0	-34.4	---	---	719.3	0.027	0.000	20.2	2	1
03/20/06	7:03 a	-21.0	-21.0	-21.0	---	---	20.0	E	0.33	23.5	-34.9	---	---	719.3	0.027	0.000	20.1	1	1
03/20/06	7:04 a	-21.0	-21.0	-21.0	---	---	20.0	E	0.33	22.6	-34.9	---	---	719.2	0.027	0.000	20.1	2	1
03/20/06	7:05 a	-21.0	-21.0	-21.0	---	---	20.9	E	0.35	22.6	-35.2	---	---	719.2	0.027	0.000	20.0	1	1
03/20/06	7:06 a	-21.0	-21.0	-21.0	---	---	20.9	E	0.35	23.5	-35.2	---	---	719.2	0.027	0.000	20.0	1	1
03/20/06	7:07 a	-21.0	-21.0	-21.1	---	---	19.1	E	0.32	20.9	-34.7	---	---	719.3	0.027	0.000	19.9	1	1
03/20/06	7:08 a	-21.0	-21.0	-21.1	---	---	18.3	E	0.30	20.9	-34.4	---	---	719.3	0.027	0.000	19.9	1	1
03/20/06	7:09 a	-21.0	-21.0	-21.0	---	---	18.3	E	0.30	21.7	-34.4	---	---	719.2	0.027	0.000	19.9	1	1
03/20/06	7:10 a	-21.1	-21.0	-21.1	---	---	20.0	E	0.33	21.7	-35.0	---	---	719.4	0.027	0.000	19.8	1	1
03/20/06	7:11 a	-21.1	-21.0	-21.1	---	---	19.1	E	0.32	21.7	-34.8	---	---	719.4	0.027	0.000	19.8	1	1
03/20/06	7:12 a	-21.1	-21.1	-21.1	---	---	18.3	E	0.30	20.0	-34.5	---	---	719.4	0.027	0.000	19.7	1	1
03/20/06	7:13 a	-21.1	-21.1	-21.1	---	---	18.3	E	0.30	21.7	-34.6	---	---	719.3	0.027	0.000	19.7	1	1
03/20/06	7:14 a	-21.1	-21.1	-21.1	---	---	18.3	E	0.30	20.9	-34.6	---	---	719.3	0.027	0.000	19.7	1	1
03/20/06	7:15 a	-21.2	-21.1	-21.2	---	---	18.3	E	0.30	20.9	-34.7	---	---	719.3	0.027	0.000	19.7	1	1
03/20/06	7:16 a	-21.2	-21.2	-21.2	---	---	18.3	E	0.30	20.9	-34.7	---	---	719.3	0.027	0.000	19.6	1	1
03/20/06	7:17 a	-21.2	-21.2	-21.2	---	---	18.3	E	0.30	22.6	-34.7	---	---	719.4	0.027	0.000	19.6	1	1
03/20/06	7:18 a	-21.2	-21.2	-21.3	---	---	19.1	E	0.32	20.9	-35.0	---	---	719.3	0.027	0.000	19.6	1	1
03/20/06	7:19 a	-21.3	-21.3	-21.3	---	---	19.1	E	0.32	20.9	-35.1	---	---	719.3	0.028	0.000	19.6	2	1
03/20/06	7:20 a	-21.3	-21.3	-21.3	---	---	18.3	E	0.30	21.7	-34.9	---	---	719.4	0.028	0.000	19.6	1	1
03/20/06	7:21 a	-21.3	-21.3	-21.3	---	---	19.1	E	0.32	21.7	-35.1	---	---	719.3	0.028	0.000	19.6	1	1
03/20/06	7:22 a	-21.4	-21.3	-21.4	---	---	18.3	E	0.30	20.0	-34.9	---	---	719.3	0.028	0.000	19.6	1	1
03/20/06	7:23 a	-21.4	-21.4	-21.4	---	---	19.1	E	0.32	21.7	-35.3	---	---	719.3	0.028	0.000	19.6	1	1
03/20/06	7:24 a	-21.4	-21.4	-21.4	---	---	18.3	E	0.30	20.9	-35.0	---	---	719.4	0.028	0.000	19.6	1	1
03/20/06	7:25 a	-21.5	-21.4	-21.5	---	---	18.3	E	0.30	22.6	-35.1	---	---	719.4	0.028	0.000	19.6	1	1
03/20/06	7:26 a	-21.5	-21.5	-21.6	---	---	19.1	E	0.32	22.6	-35.3	---	---	719.4	0.028	0.000	19.5	1	1
03/20/06	7:27 a	-21.6	-21.6	-21.6	---	---	18.3	E	0.30	20.9	-35.2	---	---	719.5	0.028	0.000	19.5	1	1
03/20/06	7:28 a	-21.6	-21.6	-21.7	---	---	18.3	E	0.30	20.9	-35.2	---	---	719.4	0.028	0.000	19.5	1	1
03/20/06	7:29 a	-21.7	-21.7	-21.7	---	---	17.4	E	0.29	20.9	-35.1	---	---	719.4	0.028	0.000	19.5	1	1
03/20/06	7:30 a	-21.7	-21.6	-21.7	---	---	17.4	E	0.29	20.9	-35.1	---	---	719.5	0.028	0.000	19.5	1	1
03/20/06	7:31 a	-21.7	-21.7	-21.7	---	---	20.0	E	0.33	23.5	-35.9	---	---	719.5	0.028	0.000	19.5	1	1
03/20/06	7:32 a	-21.7	-21.7	-21.8	---	---	18.3	E	0.30	20.9	-35.4	---	---	719.5	0.028	0.000	19.5	1	1
03/20/06	7:33 a	-21.8	-21.7	-21.8	---	---	18.3	E	0.30	20.9	-35.4	---	---	719.4	0.028	0.000	19.5	1	1
03/20/06	7:34 a	-21.8	-21.8	-21.9	---	---	18.3	E	0.30	20.0	-35.6	---	---	719.5	0.028	0.000	19.5	1	1
03/20/06	7:35 a	-21.9	-21.8	-21.9	---	---	18.3	E	0.30	20.9	-35.6	---	---	719.4	0.028	0.000	19.5	1	1
03/20/06	7:36 a	-21.9	-21.9	-21.9	---	---	16.5	E	0.28	19.1	-35.1	---	---	719.5	0.028	0.000	19.5	1	1
03/20/06	7:37 a	-21.9	-21.9	-21.9	---	---	17.4	E	0.29	20.0	-35.4	---	---	719.5	0.028	0.000	19.5	1	1
03/20/06	7:38 a	-22.0	-22.0	-22.1	---	---	19.1	E	0.32	20.9	-36.0	---	---	719.5	0.028	0.000	19.4	1	1
03/20/06	7:39 a	-22.0	-22.0	-22.1	---	---	20.0	E	0.33	22.6	-36.3	---	---	719.4	0.028	0.000	19.4	1	1
03/20/06	7:40 a	-22.1	-22.0	-22.1	---	---	18.3	E	0.30	20.9	-35.8	---	---	719.5	0.028	0.000	19.4	1	1
03/20/06	7:41 a	-22.1	-22.1	-22.1	---	---	17.4	E	0.29	20.0	-35.6	---	---	719.5	0.028	0.000	19.4	1	1
03/20/06	7:42 a	-22.1	-22.1	-22.2	---	---	18.3	E	0.30	20.0	-35.9	---	---	719.5	0.028	0.000	19.4	1	1
03/20/06	7:43 a	-22.2	-22.2	-22.2	---	---	17.4	E	0.29	19.1	-35.7	---	---	719.5	0.028	0.000	19.4	1	1
03/20/06	7:44 a	-22.2	-22.2	-22.2	---	---	17.4	E	0.29	20.0	-35.7	---	---	719.5	0.028	0.000	19.4	1	1
03/20/06	7:45 a	-22.2	-22.2	-22.3	---	---	17.4	E	0.29	19.1	-35.8	---	---	719.5	0.028	0.000	19.4	1	1
03/20/06	7:46 a	-22.2	-22.2	-22.3	---	---	16.5	E	0.28	20.0	-35.5	---	---	719.5	0.028	0.000	19.3	1	1
03/20/06	7:47 a	-22.3	-22.2	-22.3	---	---	17.4	E	0.29	19.1	-35.8	---	---	719.5	0.028	0.000	19.3	1	1
03/20/06	7:48 a	-22.3	-22.3	-22.3	---	---	16.5	E	0.28	19.1	-35.6	---	---	719.6	0.028	0.000	19.3	1	1
03/20/06	7:49 a	-22.3	-22.3	-22.3	---	---	16.5	E	0.28	19.1	-35.6	---	---	719.7	0.028	0.000	19.3	1	1
03/20/06	7:50 a	-22.3	-22.3	-22.4	---	---	16.5	E	0.28	19.1	-35.6	---	---	719.5	0.028	0.000	19.3	1	1
03/20/06	7:51 a	-22.4	-22.3	-22.4	---	---	16.5	E	0.28	18.3	-35.7	---	---	719.6	0.028	0.000	19.3	1	1
03/20/06	7:52 a	-22.4	-22.3	-22.4	---	---	17.4	E	0.29	19.1	-36.0	---	---	719.5	0.028	0.000	19.3	1	1
03/20/06	7:53 a	-22.4	-22.4	-22.4	---	---	16.5	E	0.28	19.1	-35.7	---	---	719.6	0.028	0.000	19.3	1	1
03/20/06	7:54 a	-22.4	-22.4	-22.5	---	---	17.4	E	0.29	19.1	-36.1	---	---	719.5	0.028	0.000	19.2	1	1
03/20/06	7:55 a	-22.4	-22.4	-22.5	---	---	17.4	E	0.29	20.9	-36.1	---	---	719.6	0.028	0.000	19.2	1	1
03/20/06	7:56 a	-22.5	-22.4	-22.5	---	---	17.4	E	0.29	20.0	-36.1	---	---	719.6	0.028	0.000	19.2	1	1
03/20/06	7:57 a	-22.5	-22.5	-22.5	---	---	17.4	E	0.29	19.1	-36.1	---	---	719.6	0.028	0.000	19.2	1	1
03/20/06	7:58 a	-22.5	-22.5	-22.6	---	---	17.4	E	0.29	20.0	-36.1	---	---	719.5	0.028	0.000	19.2	1	1
03/20/06	7:59 a	-22.6	-22.5	-22.6	---	---	18.3	E	0.30	20.9	-36.5	---	---	719.6	0.028	0.000	19.2	1	1
03/20/06	8:00 a	-22.6	-22.6	-22.6	---	---	18.3	E	0.30	20.9	-36.5	---	---	719.5	0.028	0.000	19.2	1	1
03/20/06	8:01 a	-22.6	-22.6	-22.6	---	---	17.4	E	0.29	20.0	-36.2	---	---	719.5	0.028	0.000	19.2	1	1
03/20/06	8:02 a	-22.6	-22.6	-22.6	---	---	18.3	E	0.30	20.0	-36.5	---	---	719.6	0.028	0.000	19.2	1	1
03/20/06	8:03 a	-22.6	-22.6	-22.6	---	---	20.9	E	0.35	22.6	-37.3	---	---	719.6	0.028	0.000	19.2	1	1
03/20/06	8:04 a	-22.6	-22.6	-22.6	---	---	19.1	E	0.32	20.9	-36.8	---	---	719.6	0.028	0.000	19.2	1	1
03/20/06	8:05 a	-22.6	-22.6	-22.6	---	---	19.1	E	0.32	21.7	-36.8	---	---	719.6	0.028	0.000	19.2	1	1
03/20/06	8:06 a	-22.7	-22.6	-22.7	---	---	20.0	E	0.33	21.7	-37.2	---	---	719.5	0.028	0.000	19.2	1	1
03/20/06	8:07 a	-22.7	-22.7	-22.7	---	---	17.4	E	0.29	20.9	-36.3	---	---	719.7	0.028	0.000	19.2	1	1
03/20/06	8:08 a	-22.7	-22.7	-22.7	---	---	16.5	E	0.28	18.3	-36.1	---	---	719.7	0.028	0.000	19.2	1	1
03/20/06	8:09 a	-22.7	-22.7	-22.7	---	---	16.5	E	0.28	18.3	-36.1	---	---	719.7	0.029	0.000	19.2	1	1
03/20/06	8:10 a	-22.7	-22.7	-22.7	---	---	15.7	E	0.26	19.1	-35.8	---	---	719.8	0.029	0.000	19.2	1	1
03/20/06	8:11 a	-22.7	-22.7	-22.7	---	---	16.5	E	0.28	19.1	-36.1	---	---	719.7	0.028	0.000	19.2	1	1
03/20/06	8:12 a	-22.7	-22.7	-22.7	---	---	18.3	E	0.30	19.1	-36.7	---	---	719.8	0.029	0.000	19.2	1	1
03/20/06	8:13 a	-22.7	-22.7	-22.8	---	---	16.5	E	0.28	18.3	-36.1	---	---	719.8	0.029	0.000	19.2	1	1
03/20/06	8:14 a	-22.8	-22.7	-22.8	---	---	17.4	E	0.29	19.1	-36.5	---	---	719.8	0.029	0.000	19.2	1	1
03/20/06	8:15 a	-22.7	-22.7	-22.8	---	---	17.4	E	0.29	19.1	-36.4	---	---	719.8	0.029	0.000	19.2	1	1
03/20/06	8:16 a	-22.8	-22.8	-22.8	---	---	16.5	E	0.28	18.3	-36.2	---	---	719.9	0.029	0.000	19.2	1	1
03/20/06	8:17 a	-22.8	-22.8	-22.8	---	---	16.5	E	0.28	18.3	-36.3	---	---	719.9	0.029	0.000	19.2	1	1
03/20/06	8:18 a	-22.8	-22.8	-22.8	---	---	15.7	E	0.26	18.3	-36.0	---	---	719.8	0.029	0.000	19.2	1	1
03/20/06	8:19 a	-22.8	-22.8	-22.8	---	---	15.7	E	0.26	18.3	-36.0	---	---	719.9	0.029	0.000	19.2	1	1
03/20/06	8:20 a	-22.8	-22.8	-22.8	---	---	17.4	E	0.29	19.1	-36.6	---	---	719.9	0.029	0.000	19.3	1	1
03/20/06	8:21 a	-22.8	-22.8	-22.8	---	---	15.7	E	0.26	19.1	-36.0	---	---	720.0	0.029	0.000	19.3	1	1
03/20/06	8:22 a	-22.8	-22.8	-22.8	---	---	16.5	E	0.28	20.9	-36.3	---	---	719.8	0.029	0.000	19.3	1	1
03/20/06	8:23 a	-22.8	-22.8	-22.9	---	---	17.4	E	0.29	20.0	-36.6	---	---	719.9	0.029	0.000	19.3	1	1
03/20/06	8:24 a	-22.8	-22.8	-22.9	---	---	18.3	E	0.30	20.9	-36.8	---	---	719.7	0.029	0.000	19.3	1	1
03/20/06	8:25 a	-22.8	-22.8	-22.8	---	---	17.4	E	0.29	20.9	-36.6	---	---	719.9	0.029	0.000	19.3	1	1
03/20/06	8:26 a	-22.8	-22.8	-22.8	---	---	16.5	E	0.28	19.1	-36.3	---	---	719.9	0.029	0.000	19.3	1	1
03/20/06	8:27 a	-22.8	-22.8	-22.9	---	---	15.7	E	0.26	18.3	-36.0	---	---	719.9	0.029	0.000	19.3	1	1
03/20/06	8:28 a	-22.9	-22.9	-22.9	---	---	15.7	E	0.26	18.3	-36.1	---	---	719.8	0.029	0.000	19.3	1	1
03/20/06	8:29 a	-22.9	-22.8	-22.9	---	---	16.5	E	0.28	19.1	-36.3	---	---	719.8	0.029	0.000	19.2	1	1
03/20/06	8:30 a	-22.9	-22.8	-22.9	---	---	14.8	E	0.25	17.4	-35.7	---	---	719.9	0.029	0.000	19.2	1	1
03/20/06	8:31 a	-22.8	-22.8	-22.9	---	---	15.7	E	0.26	16.5	-36.0	---	---	719.8	0.029	0.000	19.2	1	1
03/20/06	8:32 a	-22.9	-22.9	-22.9	---	---	14.8	E	0.25	16.5	-35.7	---	---	719.8	0.029	0.000	19.3	1	1
03/20/06	8:33 a	-22.9	-22.9	-22.9	---	---	15.7	E	0.26	18.3	-36.1	---	---	719.9	0.029	0.000	19.2	1	1
03/20/06	8:34 a	-22.9	-22.8	-22.9	---	---	16.5	E	0.28	17.4	-36.3	---	---	719.9	0.029	0.000	19.2	1	1
03/20/06	8:35 a	-22.9	-22.8	-22.9	---	---	16.5	E	0.28	18.3	-36.3	---	---	719.9	0.029	0.000	19.3	1	1
03/20/06	8:36 a	-22.9	-22.9	-22.9	---	---	16.5	E	0.28	19.1	-36.3	---	---	719.8	0.029	0.000	19.3	1	1
03/20/06	8:37 a	-22.9	-22.9	-22.9	---	---	15.7	E	0.26	19.1	-36.1	---	---	719.8	0.029	0.000	19.2	1	1
03/20/06	8:38 a	-22.9	-22.8	-22.9	---	---	14.8	E	0.25	17.4	-35.7	---	---	719.9	0.029	0.000	19.2	1	1
03/20/06	8:39 a	-22.9	-22.8	-22.9	---	---	13.9	E	0.23	16.5	-35.4	---	---	719.9	0.029	0.000	19.2	1	1
03/20/06	8:40 a	-22.9	-22.8	-22.9	---	---	13.9	E	0.23	16.5	-35.4	---	---	719.9	0.029	0.000	19.2	1	1
03/20/06	8:41 a	-22.9	-22.8	-22.9	---	---	13.0	E	0.22	17.4	-35.1	---	---	719.9	0.029	0.000	19.2	1	1
03/20/06	8:42 a	-22.9	-22.8	-22.9	---	---	13.9	E	0.23	17.4	-35.4	---	---	720.0	0.029	0.000	19.2	1	1
03/20/06	8:43 a	-22.9	-22.8	-22.9	---	---	13.9	E	0.23	15.7	-35.4	---	---	720.0	0.029	0.000	19.2	1	1
03/20/06	8:44 a	-22.8	-22.8	-22.8	---	---	13.9	E	0.23	16.5	-35.3	---	---	720.0	0.029	0.000	19.2	1	1
03/20/06	8:45 a	-22.8	-22.8	-22.9	---	---	13.9	E	0.23	15.7	-35.3	---	---	719.9	0.029	0.000	19.1	1	1
03/20/06	8:46 a	-22.8	-22.8	-22.9	---	---	13.0	E	0.22	16.5	-35.0	---	---	720.0	0.029	0.000	19.1	1	1
03/20/06	8:47 a	-22.8	-22.8	-22.9	---	---	13.0	E	0.22	14.8	-35.0	---	---	719.9	0.029	0.000	19.1	1	1
03/20/06	8:48 a	-22.8	-22.8	-22.9	---	---	12.2	E	0.20	14.8	-34.6	---	---	720.0	0.029	0.000	19.1	1	1
03/20/06	8:49 a	-22.8	-22.8	-22.9	---	---	13.0	E	0.22	15.7	-35.0	---	---	719.8	0.029	0.000	19.1	1	1
03/20/06	8:50 a	-22.8	-22.8	-22.8	---	---	13.0	E	0.22	16.5	-35.0	---	---	719.9	0.029	0.000	19.1	1	1
03/20/06	8:51 a	-22.8	-22.8	-22.8	---	---	13.0	E	0.22	15.7	-35.0	---	---	719.9	0.029	0.000	19.1	1	1
03/20/06	8:52 a	-22.8	-22.8	-22.8	---	---	13.0	E	0.22	15.7	-35.0	---	---	720.0	0.029	0.000	19.1	1	1
03/20/06	8:53 a	-22.8	-22.8	-22.9	---	---	13.0	E	0.22	15.7	-35.0	---	---	720.0	0.029	0.000	19.1	1	1
03/20/06	8:54 a	-22.8	-22.8	-22.9	---	---	15.7	E	0.26	17.4	-36.0	---	---	720.0	0.029	0.000	19.1	1	1
03/20/06	8:55 a	-22.9	-22.8	-22.9	---	---	13.9	E	0.23	16.5	-35.4	---	---	719.9	0.029	0.000	19.1	1	1
03/20/06	8:56 a	-22.9	-22.9	-22.9	---	---	13.9	E	0.23	16.5	-35.4	---	---	720.0	0.029	0.000	19.1	1	1
03/20/06	8:57 a	-22.9	-22.9	-22.9	---	---	14.8	E	0.25	18.3	-35.7	---	---	719.8	0.029	0.000	19.1	1	1
03/20/06	8:58 a	-22.9	-22.9	-22.9	---	---	15.7	E	0.26	18.3	-36.1	---	---	719.8	0.029	0.000	19.1	1	1
03/20/06	8:59 a	-22.9	-22.9	-22.9	---	---	14.8	E	0.25	17.4	-35.8	---	---	719.9	0.029	0.000	19.1	1	1
03/20/06	9:00 a	-22.9	-22.9	-22.9	---	---	13.9	E	0.23	16.5	-35.4	---	---	720.0	0.029	0.000	19.1	1	1
03/20/06	9:01 a	-22.9	-22.9	-22.9	---	---	13.9	E	0.23	16.5	-35.4	---	---	719.8	0.029	0.000	19.1	1	1
03/20/06	9:02 a	-22.9	-22.9	-22.9	---	---	13.9	E	0.23	16.5	-35.4	---	---	719.9	0.029	0.000	19.1	1	1
03/20/06	9:03 a	-22.9	-22.9	-23.0	---	---	14.8	E	0.25	17.4	-35.8	---	---	719.9	0.029	0.000	19.1	1	1
03/20/06	9:04 a	-23.0	-22.9	-23.0	---	---	14.8	E	0.25	16.5	-35.9	---	---	719.9	0.029	0.000	19.1	1	1
03/20/06	9:05 a	-22.9	-22.9	-23.0	---	---	16.5	E	0.28	18.3	-36.4	---	---	719.9	0.029	0.000	19.1	1	1
03/20/06	9:06 a	-23.0	-22.9	-23.0	---	---	18.3	E	0.30	20.0	-37.1	---	---	719.9	0.029	0.000	19.1	1	1
03/20/06	9:07 a	-23.0	-23.0	-23.0	---	---	16.5	E	0.28	20.0	-36.5	---	---	719.9	0.029	0.000	19.1	1	1
03/20/06	9:08 a	-23.0	-23.0	-23.1	---	---	15.7	E	0.26	17.4	-36.2	---	---	719.9	0.029	0.000	19.1	1	1
03/20/06	9:09 a	-23.1	-23.0	-23.1	---	---	14.8	E	0.25	16.5	-35.9	---	---	719.9	0.029	0.000	19.1	1	1
03/20/06	9:10 a	-23.0	-23.0	-23.1	---	---	14.8	E	0.25	16.5	-35.9	---	---	719.9	0.029	0.000	19.1	1	1
03/20/06	9:11 a	-23.1	-23.0	-23.1	---	---	14.8	E	0.25	16.5	-35.9	---	---	719.9	0.029	0.000	19.1	1	1
03/20/06	9:12 a	-23.1	-23.0	-23.1	---	---	14.8	E	0.25	16.5	-35.9	---	---	719.9	0.029	0.000	19.1	1	1
03/20/06	9:13 a	-23.1	-23.1	-23.1	---	---	13.9	E	0.23	16.5	-35.6	---	---	719.9	0.029	0.000	19.1	1	1
03/20/06	9:14 a	-23.1	-23.1	-23.1	---	---	14.8	E	0.25	18.3	-35.9	---	---	720.0	0.029	0.000	19.1	1	1
03/20/06	9:15 a	-23.1	-23.1	-23.1	---	---	15.7	E	0.26	20.0	-36.3	---	---	719.9	0.029	0.000	19.1	1	1
03/20/06	9:16 a	-23.1	-23.1	-23.1	---	---	17.4	E	0.29	20.0	-36.9	---	---	719.9	0.029	0.000	19.1	1	1
03/20/06	9:17 a	-23.1	-23.1	-23.1	---	---	15.7	E	0.26	18.3	-36.3	---	---	719.9	0.029	0.000	19.1	1	1
03/20/06	9:18 a	-23.1	-23.1	-23.1	---	---	15.7	E	0.26	17.4	-36.3	---	---	719.9	0.029	0.000	19.1	1	1
03/20/06	9:19 a	-23.1	-23.1	-23.1	---	---	16.5	E	0.28	19.1	-36.7	---	---	719.9	0.029	0.000	19.1	1	1
03/20/06	9:20 a	-23.1	-23.1	-23.2	---	---	16.5	E	0.28	19.1	-36.7	---	---	719.9	0.029	0.000	19.1	1	1
03/20/06	9:21 a	-23.1	-23.1	-23.1	---	---	15.7	E	0.26	19.1	-36.3	---	---	719.8	0.029	0.000	19.1	1	1
03/20/06	9:22 a	-23.2	-23.1	-23.2	---	---	18.3	E	0.30	20.9	-37.3	---	---	719.8	0.029	0.000	19.1	1	1
03/20/06	9:23 a	-23.2	-23.1	-23.2	---	---	19.1	E	0.32	21.7	-37.6	---	---	719.8	0.029	0.000	19.1	1	1
03/20/06	9:24 a	-23.2	-23.1	-23.2	---	---	16.5	E	0.28	18.3	-36.7	---	---	719.9	0.029	0.000	19.1	1	1
03/20/06	9:25 a	-23.2	-23.1	-23.2	---	---	15.7	E	0.26	18.3	-36.4	---	---	719.9	0.029	0.000	19.1	1	1
03/20/06	9:26 a	-23.2	-23.2	-23.2	---	---	13.9	E	0.23	15.7	-35.8	---	---	719.9	0.029	0.000	19.1	1	1
03/20/06	9:27 a	-23.1	-23.1	-23.2	---	---	14.8	E	0.25	17.4	-36.0	---	---	719.9	0.029	0.000	19.1	1	1
03/20/06	9:28 a	-23.2	-23.1	-23.2	---	---	16.5	E	0.28	18.3	-36.7	---	---	719.9	0.029	0.000	19.1	1	1
03/20/06	9:29 a	-23.2	-23.1	-23.2	---	---	14.8	E	0.25	17.4	-36.1	---	---	720.0	0.029	0.000	19.1	1	1
03/20/06	9:30 a	-23.2	-23.1	-23.2	---	---	13.9	E	0.23	15.7	-35.8	---	---	720.0	0.029	0.000	19.1	1	1
03/20/06	9:31 a	-23.2	-23.2	-23.2	---	---	13.0	E	0.22	16.5	-35.4	---	---	719.9	0.029	0.000	19.1	1	1
03/20/06	9:32 a	-23.2	-23.1	-23.2	---	---	14.8	E	0.25	17.4	-36.1	---	---	720.0	0.029	0.000	19.1	1	1
03/20/06	9:33 a	-23.2	-23.2	-23.2	---	---	15.7	E	0.26	17.4	-36.4	---	---	720.0	0.029	0.000	19.1	1	1
03/20/06	9:34 a	-23.2	-23.2	-23.2	---	---	14.8	E	0.25	17.4	-36.1	---	---	720.0	0.029	0.000	19.1	1	1
03/20/06	9:35 a	-23.2	-23.2	-23.2	---	---	17.4	E	0.29	20.0	-37.0	---	---	720.0	0.029	0.000	19.1	1	1
03/20/06	9:36 a	-23.2	-23.1	-23.2	---	---	14.8	E	0.25	15.7	-36.1	---	---	720.0	0.029	0.000	19.1	1	1
03/20/06	9:37 a	-23.2	-23.1	-23.2	---	---	13.9	E	0.23	19.1	-35.8	---	---	719.9	0.029	0.000	19.1	1	1
03/20/06	9:38 a	-23.2	-23.2	-23.2	---	---	15.7	E	0.26	19.1	-36.4	---	---	720.1	0.029	0.000	19.1	1	1
03/20/06	9:39 a	-23.2	-23.2	-23.2	---	---	17.4	ESE	0.29	19.1	-37.0	---	---	720.1	0.029	0.000	19.1	1	1
03/20/06	9:40 a	-23.2	-23.2	-23.2	---	---	14.8	ESE	0.25	16.5	-36.1	---	---	720.1	0.029	0.000	19.1	1	1
03/20/06	9:41 a	-23.2	-23.2	-23.2	---	---	13.9	E	0.23	16.5	-35.8	---	---	720.0	0.029	0.000	19.1	1	1
03/20/06	9:42 a	-23.2	-23.1	-23.2	---	---	14.8	E	0.25	17.4	-36.1	---	---	720.0	0.029	0.000	19.1	1	1
03/20/06	9:43 a	-23.2	-23.2	-23.2	---	---	13.9	E	0.23	16.5	-35.8	---	---	720.0	0.029	0.000	19.0	1	1
03/20/06	9:44 a	-23.2	-23.2	-23.2	---	---	13.0	E	0.22	16.5	-35.4	---	---	720.1	0.029	0.000	19.0	1	1
03/20/06	9:45 a	-23.2	-23.1	-23.2	---	---	14.8	E	0.25	17.4	-36.1	---	---	720.1	0.029	0.000	19.0	1	1
03/20/06	9:46 a	-23.2	-23.2	-23.2	---	---	17.4	ESE	0.29	18.3	-37.1	---	---	720.2	0.029	0.000	18.9	1	1
03/20/06	9:47 a	-23.2	-23.2	-23.2	---	---	14.8	ESE	0.25	17.4	-36.1	---	---	720.1	0.029	0.000	18.9	1	1
03/20/06	9:48 a	-23.2	-23.2	-23.2	---	---	13.9	E	0.23	17.4	-35.8	---	---	720.1	0.029	0.000	18.9	1	1
03/20/06	9:49 a	-23.2	-23.2	-23.2	---	---	12.2	E	0.20	15.7	-35.0	---	---	720.1	0.029	0.000	18.9	1	1
03/20/06	9:50 a	-23.2	-23.2	-23.2	---	---	13.0	E	0.22	15.7	-35.4	---	---	720.2	0.029	0.000	18.9	1	1
03/20/06	9:51 a	-23.2	-23.2	-23.2	---	---	13.9	E	0.23	16.5	-35.8	---	---	720.1	0.029	0.000	18.9	1	1
03/20/06	9:52 a	-23.2	-23.2	-23.2	---	---	14.8	E	0.25	16.5	-36.2	---	---	720.1	0.029	0.000	18.9	1	1
03/20/06	9:53 a	-23.2	-23.2	-23.2	---	---	13.9	E	0.23	15.7	-35.8	---	---	720.1	0.029	0.000	18.9	1	1
03/20/06	9:54 a	-23.2	-23.2	-23.2	---	---	13.0	E	0.22	15.7	-35.4	---	---	720.2	0.029	0.000	18.9	1	1
03/20/06	9:55 a	-23.2	-23.2	-23.2	---	---	13.0	E	0.22	15.7	-35.5	---	---	720.1	0.029	0.000	18.9	1	1
03/20/06	9:56 a	-23.2	-23.2	-23.2	---	---	13.9	E	0.23	17.4	-35.8	---	---	720.2	0.029	0.000	18.9	1	1
03/20/06	9:57 a	-23.2	-23.2	-23.2	---	---	13.9	E	0.23	15.7	-35.8	---	---	720.1	0.029	0.000	18.9	1	1
03/20/06	9:58 a	-23.2	-23.2	-23.2	---	---	14.8	E	0.25	16.5	-36.2	---	---	720.1	0.029	0.000	18.9	1	1
03/20/06	9:59 a	-23.2	-23.2	-23.3	---	---	14.8	ESE	0.25	17.4	-36.2	---	---	720.1	0.029	0.000	19.0	1	1
03/20/06	10:00 a	-23.2	-23.2	-23.2	---	---	16.5	ESE	0.28	18.3	-36.8	---	---	720.1	0.029	0.000	19.0	1	1
03/20/06	10:01 a	-23.2	-23.2	-23.2	---	---	15.7	E	0.26	18.3	-36.5	---	---	720.1	0.029	0.000	19.0	1	1
03/20/06	10:02 a	-23.2	-23.2	-23.2	---	---	13.9	E	0.23	16.5	-35.8	---	---	720.0	0.029	0.000	19.0	1	1
03/20/06	10:03 a	-23.2	-23.2	-23.2	---	---	13.9	E	0.23	14.8	-35.8	---	---	720.0	0.029	0.000	19.0	1	1
03/20/06	10:04 a	-23.2	-23.2	-23.3	---	---	13.0	E	0.22	15.7	-35.5	---	---	720.0	0.029	0.000	19.0	1	1
03/20/06	10:05 a	-23.3	-23.2	-23.3	---	---	13.9	E	0.23	15.7	-35.9	---	---	720.1	0.029	0.000	19.0	1	1
03/20/06	10:06 a	-23.2	-23.2	-23.3	---	---	13.9	E	0.23	16.5	-35.8	---	---	720.1	0.029	0.000	19.0	1	1
03/20/06	10:07 a	-23.2	-23.2	-23.3	---	---	13.9	E	0.23	16.5	-35.8	---	---	720.1	0.029	0.000	19.0	1	1
03/20/06	10:08 a	-23.3	-23.2	-23.3	---	---	13.0	E	0.22	15.7	-35.6	---	---	720.1	0.029	0.000	19.0	1	1
03/20/06	10:09 a	-23.3	-23.3	-23.3	---	---	13.0	E	0.22	14.8	-35.6	---	---	720.1	0.029	0.000	19.0	1	1
03/20/06	10:10 a	-23.3	-23.2	-23.3	---	---	13.9	E	0.23	15.7	-35.9	---	---	720.1	0.029	0.000	19.0	1	1
03/20/06	10:11 a	-23.2	-23.2	-23.3	---	---	13.0	E	0.22	15.7	-35.5	---	---	720.2	0.029	0.000	19.0	1	1
03/20/06	10:12 a	-23.3	-23.3	-23.3	---	---	13.9	E	0.23	16.5	-35.9	---	---	720.1	0.029	0.000	19.0	1	1
03/20/06	10:13 a	-23.3	-23.2	-23.3	---	---	12.2	E	0.20	14.8	-35.2	---	---	720.2	0.029	0.000	19.1	1	1
03/20/06	10:14 a	-23.3	-23.2	-23.3	---	---	12.2	E	0.20	16.5	-35.2	---	---	720.1	0.029	0.000	19.0	1	1
03/20/06	10:15 a	-23.3	-23.2	-23.3	---	---	13.0	E	0.22	14.8	-35.6	---	---	720.2	0.029	0.000	19.0	1	1
03/20/06	10:16 a	-23.3	-23.2	-23.3	---	---	12.2	E	0.20	14.8	-35.2	---	---	720.1	0.029	0.000	19.1	1	1
03/20/06	10:17 a	-23.3	-23.2	-23.3	---	---	13.0	E	0.22	14.8	-35.6	---	---	720.2	0.029	0.000	19.0	1	1
03/20/06	10:18 a	-23.3	-23.2	-23.3	---	---	13.9	E	0.23	16.5	-35.9	---	---	720.2	0.029	0.000	19.0	1	1
03/20/06	10:19 a	-23.3	-23.3	-23.3	---	---	14.8	E	0.25	17.4	-36.2	---	---	720.2	0.029	0.000	19.0	1	1
03/20/06	10:20 a	-23.3	-23.2	-23.3	---	---	13.0	E	0.22	15.7	-35.6	---	---	720.1	0.029	0.000	19.1	1	1
03/20/06	10:21 a	-23.2	-23.2	-23.3	---	---	13.0	E	0.22	16.5	-35.5	---	---	720.2	0.029	0.000	19.1	1	1
03/20/06	10:22 a	-23.3	-23.2	-23.3	---	---	13.9	E	0.23	16.5	-35.9	---	---	720.3	0.029	0.000	19.1	1	1
03/20/06	10:23 a	-23.3	-23.3	-23.3	---	---	15.7	E	0.26	18.3	-36.6	---	---	720.2	0.029	0.000	19.1	1	1
03/20/06	10:24 a	-23.3	-23.3	-23.3	---	---	13.9	E	0.23	16.5	-35.9	---	---	720.1	0.029	0.000	19.1	1	1
03/20/06	10:25 a	-23.3	-23.2	-23.3	---	---	14.8	E	0.25	17.4	-36.2	---	---	720.2	0.029	0.000	19.1	1	1
03/20/06	10:26 a	-23.3	-23.3	-23.3	---	---	13.0	E	0.22	15.7	-35.6	---	---	720.1	0.029	0.000	19.1	1	1
03/20/06	10:27 a	-23.3	-23.2	-23.3	---	---	13.9	E	0.23	17.4	-35.9	---	---	720.3	0.029	0.000	19.1	1	1
03/20/06	10:28 a	-23.3	-23.3	-23.3	---	---	13.9	E	0.23	15.7	-35.9	---	---	720.2	0.029	0.000	19.1	1	1
03/20/06	10:29 a	-23.3	-23.2	-23.3	---	---	13.0	E	0.22	15.7	-35.6	---	---	720.2	0.029	0.000	19.1	1	1
03/20/06	10:30 a	-23.3	-23.2	-23.3	---	---	14.8	E	0.25	17.4	-36.2	---	---	720.3	0.029	0.000	19.1	1	1
03/20/06	10:31 a	-23.3	-23.3	-23.3	---	---	14.8	E	0.25	20.0	-36.2	---	---	720.1	0.029	0.000	19.1	1	1
03/20/06	10:32 a	-23.3	-23.3	-23.3	---	---	17.4	E	0.29	19.1	-37.2	---	---	720.2	0.029	0.000	19.0	1	1
03/20/06	10:33 a	-23.3	-23.3	-23.3	---	---	16.5	ENE	0.28	18.3	-36.9	---	---	720.2	0.029	0.000	19.0	1	1
03/20/06	10:34 a	-23.3	-23.3	-23.3	---	---	13.9	E	0.23	15.7	-35.9	---	---	720.4	0.029	0.000	19.0	1	1
03/20/06	10:35 a	-23.3	-23.2	-23.3	---	---	11.3	E	0.19	14.8	-34.8	---	---	720.4	0.029	0.000	19.0	1	1
03/20/06	10:36 a	-23.3	-23.3	-23.3	---	---	12.2	E	0.20	18.3	-35.2	---	---	720.4	0.029	0.000	19.0	1	1
03/20/06	10:37 a	-23.3	-23.3	-23.3	---	---	13.9	E	0.23	20.0	-35.9	---	---	720.2	0.029	0.000	19.0	1	1
03/20/06	10:38 a	-23.3	-23.3	-23.3	---	---	13.0	ENE	0.22	14.8	-35.6	---	---	720.3	0.029	0.000	19.0	1	1
03/20/06	10:39 a	-23.3	-23.3	-23.3	---	---	12.2	E	0.20	15.7	-35.2	---	---	720.4	0.029	0.000	18.9	1	1
03/20/06	10:40 a	-23.3	-23.3	-23.3	---	---	13.0	E	0.22	15.7	-35.6	---	---	720.3	0.029	0.000	18.9	1	1
03/20/06	10:41 a	-23.3	-23.3	-23.3	---	---	14.8	E	0.25	17.4	-36.2	---	---	720.4	0.029	0.000	18.9	1	1
03/20/06	10:42 a	-23.3	-23.3	-23.3	---	---	15.7	ENE	0.26	16.5	-36.6	---	---	720.4	0.029	0.000	18.9	1	1
03/20/06	10:43 a	-23.3	-23.3	-23.4	---	---	16.5	ENE	0.28	17.4	-36.9	---	---	720.3	0.029	0.000	18.9	1	1
03/20/06	10:44 a	-23.3	-23.3	-23.3	---	---	14.8	ENE	0.25	17.4	-36.3	---	---	720.3	0.029	0.000	18.9	1	1
03/20/06	10:45 a	-23.3	-23.3	-23.4	---	---	13.0	ENE	0.22	16.5	-35.6	---	---	720.3	0.029	0.000	18.9	1	1
03/20/06	10:46 a	-23.3	-23.3	-23.3	---	---	13.9	ENE	0.23	15.7	-35.9	---	---	720.4	0.029	0.000	18.9	1	1
03/20/06	10:47 a	-23.4	-23.3	-23.4	---	---	14.8	ENE	0.25	15.7	-36.4	---	---	720.3	0.029	0.000	18.9	1	1
03/20/06	10:48 a	-23.4	-23.4	-23.4	---	---	11.3	ENE	0.19	14.8	-34.9	---	---	720.4	0.029	0.000	18.9	1	1
03/20/06	10:49 a	-23.4	-23.4	-23.4	---	---	13.9	ENE	0.23	16.5	-36.1	---	---	720.3	0.029	0.000	18.9	1	1
03/20/06	10:50 a	-23.4	-23.3	-23.4	---	---	14.8	ENE	0.25	15.7	-36.4	---	---	720.4	0.029	0.000	18.9	1	1
03/20/06	10:51 a	-23.4	-23.4	-23.4	---	---	16.5	ENE	0.28	17.4	-37.1	---	---	720.4	0.029	0.000	18.9	1	1
03/20/06	10:52 a	-23.4	-23.4	-23.4	---	---	15.7	ENE	0.26	18.3	-36.8	---	---	720.4	0.029	0.000	18.8	1	1
03/20/06	10:53 a	-23.4	-23.4	-23.4	---	---	16.5	ENE	0.28	18.3	-37.0	---	---	720.4	0.029	0.000	18.8	1	1
03/20/06	10:54 a	-23.4	-23.4	-23.4	---	---	15.7	ENE	0.26	16.5	-36.8	---	---	720.4	0.029	0.000	18.9	1	1
03/20/06	10:55 a	-23.4	-23.4	-23.4	---	---	15.7	ENE	0.26	17.4	-36.8	---	---	720.4	0.029	0.000	18.8	1	1
03/20/06	10:56 a	-23.4	-23.4	-23.4	---	---	16.5	ENE	0.28	17.4	-37.1	---	---	720.4	0.029	0.000	18.9	1	1
03/20/06	10:57 a	-23.4	-23.4	-23.5	---	---	14.8	ENE	0.25	17.4	-36.4	---	---	720.4	0.029	0.000	18.9	1	1
03/20/06	10:58 a	-23.5	-23.4	-23.5	---	---	15.7	ENE	0.26	16.5	-36.8	---	---	720.3	0.029	0.000	18.9	1	1
03/20/06	10:59 a	-23.4	-23.4	-23.5	---	---	16.5	ENE	0.28	18.3	-37.1	---	---	720.4	0.029	0.000	18.9	1	1
03/20/06	11:00 a	-23.5	-23.4	-23.5	---	---	16.5	ENE	0.28	19.1	-37.2	---	---	720.4	0.029	0.000	18.9	1	1
03/20/06	11:01 a	-23.5	-23.4	-23.5	---	---	17.4	ENE	0.29	20.0	-37.4	---	---	720.4	0.029	0.000	18.9	1	1
03/20/06	11:02 a	-23.5	-23.5	-23.5	---	---	17.4	ENE	0.29	18.3	-37.4	---	---	720.4	0.029	0.000	18.9	1	1
03/20/06	11:03 a	-23.5	-23.5	-23.6	---	---	16.5	ENE	0.28	18.3	-37.2	---	---	720.4	0.029	0.000	18.9	1	1
03/20/06	11:04 a	-23.5	-23.5	-23.6	---	---	15.7	ENE	0.26	17.4	-36.8	---	---	720.4	0.029	0.000	18.9	1	1
03/20/06	11:05 a	-23.5	-23.5	-23.6	---	---	16.5	ENE	0.28	18.3	-37.2	---	---	720.4	0.029	0.000	18.9	1	1
03/20/06	11:06 a	-23.6	-23.5	-23.6	---	---	16.5	ENE	0.28	18.3	-37.2	---	---	720.4	0.029	0.000	18.9	1	1
03/20/06	11:07 a	-23.6	-23.5	-23.6	---	---	15.7	ENE	0.26	17.4	-36.9	---	---	720.4	0.029	0.000	19.0	1	1
03/20/06	11:08 a	-23.6	-23.6	-23.6	---	---	15.7	ENE	0.26	17.4	-36.9	---	---	720.4	0.029	0.000	19.0	1	1
03/20/06	11:09 a	-23.6	-23.6	-23.6	---	---	16.5	ENE	0.28	18.3	-37.2	---	---	720.4	0.029	0.000	19.0	1	1
03/20/06	11:10 a	-23.6	-23.6	-23.6	---	---	15.7	ENE	0.26	16.5	-36.9	---	---	720.4	0.029	0.000	19.0	1	1
03/20/06	11:11 a	-23.6	-23.6	-23.6	---	---	14.8	ENE	0.25	17.4	-36.6	---	---	720.4	0.029	0.000	19.0	1	1
03/20/06	11:12 a	-23.6	-23.6	-23.6	---	---	15.7	ENE	0.26	17.4	-36.9	---	---	720.4	0.029	0.000	19.0	1	1
03/20/06	11:13 a	-23.6	-23.6	-23.6	---	---	13.0	ENE	0.22	15.7	-35.9	---	---	720.4	0.029	0.000	19.0	1	1
03/20/06	11:14 a	-23.6	-23.6	-23.6	---	---	15.7	ENE	0.26	17.4	-37.0	---	---	720.4	0.029	0.000	19.0	1	1
03/20/06	11:15 a	-23.6	-23.6	-23.6	---	---	15.7	ENE	0.26	16.5	-37.0	---	---	720.4	0.029	0.000	19.0	1	1
03/20/06	11:16 a	-23.6	-23.6	-23.6	---	---	14.8	ENE	0.25	15.7	-36.7	---	---	720.4	0.029	0.000	19.0	1	1
03/20/06	11:17 a	-23.6	-23.6	-23.7	---	---	15.7	ENE	0.26	16.5	-37.0	---	---	720.4	0.029	0.000	19.0	1	1
03/20/06	11:18 a	-23.7	-23.6	-23.7	---	---	13.9	ENE	0.23	15.7	-36.4	---	---	720.4	0.029	0.000	18.9	1	1
03/20/06	11:19 a	-23.7	-23.6	-23.7	---	---	13.9	ENE	0.23	15.7	-36.4	---	---	720.4	0.029	0.000	19.0	1	1
03/20/06	11:20 a	-23.6	-23.6	-23.7	---	---	14.8	ENE	0.25	16.5	-36.7	---	---	720.4	0.029	0.000	19.0	1	1
03/20/06	11:21 a	-23.7	-23.7	-23.7	---	---	14.8	ENE	0.25	16.5	-36.7	---	---	720.4	0.029	0.000	19.0	1	1
03/20/06	11:22 a	-23.7	-23.7	-23.7	---	---	13.0	ENE	0.22	15.7	-36.1	---	---	720.3	0.029	0.000	19.0	1	1
03/20/06	11:23 a	-23.7	-23.7	-23.7	---	---	14.8	ENE	0.25	15.7	-36.7	---	---	720.4	0.029	0.000	19.0	1	1
03/20/06	11:24 a	-23.7	-23.7	-23.7	---	---	13.9	ENE	0.23	15.7	-36.4	---	---	720.5	0.029	0.000	19.0	1	1
03/20/06	11:25 a	-23.7	-23.7	-23.7	---	---	14.8	ENE	0.25	16.5	-36.7	---	---	720.4	0.029	0.000	19.1	1	1
03/20/06	11:26 a	-23.7	-23.7	-23.7	---	---	13.9	ENE	0.23	15.7	-36.4	---	---	720.3	0.029	0.000	19.0	1	1
03/20/06	11:27 a	-23.7	-23.7	-23.7	---	---	14.8	E	0.25	16.5	-36.7	---	---	720.4	0.029	0.000	19.0	1	1
03/20/06	11:28 a	-23.7	-23.7	-23.7	---	---	14.8	ENE	0.25	16.5	-36.7	---	---	720.4	0.029	0.000	19.1	1	1
03/20/06	11:29 a	-23.7	-23.7	-23.7	---	---	14.8	ENE	0.25	15.7	-36.7	---	---	720.3	0.029	0.000	19.0	1	1
03/20/06	11:30 a	-23.7	-23.7	-23.7	---	---	15.7	ENE	0.26	16.5	-37.1	---	---	720.3	0.029	0.000	19.0	1	1
03/20/06	11:31 a	-23.7	-23.7	-23.7	---	---	13.9	E	0.23	17.4	-36.4	---	---	720.4	0.029	0.000	19.0	1	1
03/20/06	11:32 a	-23.7	-23.7	-23.7	---	---	15.7	E	0.26	17.4	-37.1	---	---	720.3	0.029	0.000	19.0	1	1
03/20/06	11:33 a	-23.7	-23.7	-23.7	---	---	15.7	E	0.26	17.4	-37.1	---	---	720.4	0.029	0.000	19.0	1	1
03/20/06	11:34 a	-23.7	-23.7	-23.7	---	---	15.7	E	0.26	17.4	-37.1	---	---	720.4	0.029	0.000	18.9	1	1
03/20/06	11:35 a	-23.7	-23.7	-23.7	---	---	15.7	E	0.26	18.3	-37.1	---	---	720.3	0.029	0.000	18.9	1	1
03/20/06	11:36 a	-23.7	-23.6	-23.7	---	---	16.5	ENE	0.28	18.3	-37.4	---	---	720.4	0.029	0.000	18.9	1	1
03/20/06	11:37 a	-23.7	-23.7	-23.7	---	---	16.5	E	0.28	19.1	-37.4	---	---	720.4	0.029	0.000	18.9	1	1
03/20/06	11:38 a	-23.7	-23.7	-23.7	---	---	16.5	E	0.28	18.3	-37.4	---	---	720.4	0.029	0.000	18.9	1	1
03/20/06	11:39 a	-23.7	-23.7	-23.7	---	---	15.7	E	0.26	20.0	-37.1	---	---	720.4	0.029	0.000	18.9	1	1
03/20/06	11:40 a	-23.7	-23.7	-23.7	---	---	16.5	ENE	0.28	20.0	-37.4	---	---	720.3	0.029	0.000	18.9	1	1
03/20/06	11:41 a	-23.7	-23.7	-23.7	---	---	17.4	ENE	0.29	19.1	-37.7	---	---	720.3	0.029	0.000	18.9	1	1
03/20/06	11:42 a	-23.7	-23.7	-23.7	---	---	16.5	ENE	0.28	19.1	-37.4	---	---	720.3	0.029	0.000	18.9	1	1
03/20/06	11:43 a	-23.7	-23.7	-23.7	---	---	16.5	ENE	0.28	19.1	-37.4	---	---	720.3	0.029	0.000	18.9	1	1
03/20/06	11:44 a	-23.7	-23.7	-23.7	---	---	16.5	ENE	0.28	20.0	-37.4	---	---	720.2	0.029	0.000	18.9	1	1
03/20/06	11:45 a	-23.7	-23.7	-23.7	---	---	15.7	ENE	0.26	18.3	-37.1	---	---	720.4	0.029	0.000	18.9	1	1
03/20/06	11:46 a	-23.7	-23.6	-23.7	---	---	15.7	ENE	0.26	17.4	-37.1	---	---	720.3	0.029	0.000	18.9	1	1
03/20/06	11:47 a	-23.7	-23.7	-23.7	---	---	18.3	ENE	0.30	20.0	-38.0	---	---	720.2	0.029	0.000	18.9	1	1
03/20/06	11:48 a	-23.7	-23.7	-23.7	---	---	17.4	ENE	0.29	19.1	-37.7	---	---	720.3	0.029	0.000	18.9	1	1
03/20/06	11:49 a	-23.7	-23.7	-23.7	---	---	18.3	ENE	0.30	20.9	-37.9	---	---	720.3	0.029	0.000	18.8	1	1
03/20/06	11:50 a	-23.7	-23.7	-23.7	---	---	19.1	ENE	0.32	20.9	-38.2	---	---	720.2	0.029	0.000	18.8	1	1
03/20/06	11:51 a	-23.7	-23.7	-23.7	---	---	17.4	ENE	0.29	20.0	-37.7	---	---	720.3	0.029	0.000	18.8	1	1
03/20/06	11:52 a	-23.7	-23.7	-23.7	---	---	16.5	ENE	0.28	18.3	-37.4	---	---	720.3	0.029	0.000	18.9	1	1
03/20/06	11:53 a	-23.7	-23.7	-23.7	---	---	17.4	ENE	0.29	19.1	-37.7	---	---	720.3	0.029	0.000	18.9	1	1
03/20/06	11:54 a	-23.7	-23.7	-23.7	---	---	17.4	ENE	0.29	20.0	-37.7	---	---	720.3	0.029	0.000	18.9	1	1
03/20/06	11:55 a	-23.7	-23.7	-23.7	---	---	19.1	ENE	0.32	20.9	-38.2	---	---	720.4	0.029	0.000	18.9	1	1
03/20/06	11:56 a	-23.7	-23.7	-23.7	---	---	17.4	ENE	0.29	19.1	-37.7	---	---	720.4	0.029	0.000	18.9	1	1
03/20/06	11:57 a	-23.7	-23.6	-23.7	---	---	15.7	ENE	0.26	16.5	-37.1	---	---	720.5	0.029	0.000	18.9	1	1
03/20/06	11:58 a	-23.7	-23.7	-23.7	---	---	16.5	ENE	0.28	19.1	-37.4	---	---	720.4	0.029	0.000	18.9	1	1
03/20/06	11:59 a	-23.7	-23.7	-23.7	---	---	16.5	ENE	0.28	19.1	-37.4	---	---	720.4	0.029	0.000	18.9	1	1
03/20/06	12:00 p	-23.7	-23.7	-23.7	---	---	16.5	ENE	0.28	18.3	-37.4	---	---	720.4	0.029	0.000	18.9	1	1
03/20/06	12:01 p	-23.7	-23.7	-23.7	---	---	14.8	E	0.25	16.5	-36.7	---	---	720.5	0.029	0.000	18.9	1	1
03/20/06	12:02 p	-23.7	-23.7	-23.7	---	---	13.9	E	0.23	16.5	-36.4	---	---	720.4	0.029	0.000	18.9	1	1
03/20/06	12:03 p	-23.7	-23.7	-23.7	---	---	14.8	E	0.25	17.4	-36.7	---	---	720.4	0.029	0.000	18.9	1	1
03/20/06	12:04 p	-23.7	-23.7	-23.7	---	---	14.8	E	0.25	18.3	-36.8	---	---	720.3	0.029	0.000	18.9	1	1
03/20/06	12:05 p	-23.7	-23.7	-23.7	---	---	15.7	E	0.26	17.4	-37.1	---	---	720.3	0.029	0.000	18.9	1	1
03/20/06	12:06 p	-23.7	-23.7	-23.7	---	---	13.9	E	0.23	17.4	-36.4	---	---	720.4	0.029	0.000	18.9	1	1
03/20/06	12:07 p	-23.7	-23.7	-23.7	---	---	15.7	E	0.26	18.3	-37.1	---	---	720.4	0.029	0.000	18.9	1	1
03/20/06	12:08 p	-23.7	-23.7	-23.7	---	---	16.5	ENE	0.28	18.3	-37.4	---	---	720.3	0.029	0.000	18.9	1	1
03/20/06	12:09 p	-23.7	-23.7	-23.7	---	---	14.8	ENE	0.25	18.3	-36.7	---	---	720.4	0.029	0.000	18.9	1	1
03/20/06	12:10 p	-23.7	-23.7	-23.7	---	---	14.8	E	0.25	17.4	-36.7	---	---	720.3	0.029	0.000	18.9	1	1
03/20/06	12:11 p	-23.7	-23.7	-23.7	---	---	13.9	E	0.23	16.5	-36.4	---	---	720.3	0.029	0.000	18.9	1	1
03/20/06	12:12 p	-23.7	-23.7	-23.7	---	---	14.8	E	0.25	18.3	-36.8	---	---	720.4	0.029	0.000	18.9	1	1
03/20/06	12:13 p	-23.7	-23.7	-23.7	---	---	13.9	E	0.23	16.5	-36.4	---	---	720.4	0.029	0.000	18.9	1	1
03/20/06	12:14 p	-23.7	-23.7	-23.7	---	---	14.8	E	0.25	16.5	-36.7	---	---	720.4	0.029	0.000	18.9	1	1
03/20/06	12:15 p	-23.7	-23.7	-23.7	---	---	13.9	E	0.23	16.5	-36.4	---	---	720.4	0.029	0.000	18.9	1	1
03/20/06	12:16 p	-23.7	-23.7	-23.7	---	---	13.9	E	0.23	15.7	-36.4	---	---	720.4	0.029	0.000	18.9	1	1
03/20/06	12:17 p	-23.7	-23.7	-23.7	---	---	13.9	E	0.23	16.5	-36.4	---	---	720.4	0.029	0.000	18.9	1	1
03/20/06	12:18 p	-23.7	-23.7	-23.7	---	---	13.9	E	0.23	17.4	-36.4	---	---	720.3	0.029	0.000	18.9	1	1
03/20/06	12:19 p	-23.7	-23.7	-23.7	---	---	15.7	E	0.26	18.3	-37.1	---	---	720.4	0.029	0.000	18.9	1	1
03/20/06	12:20 p	-23.7	-23.7	-23.7	---	---	13.9	E	0.23	17.4	-36.4	---	---	720.4	0.029	0.000	18.9	1	1
03/20/06	12:21 p	-23.7	-23.7	-23.7	---	---	13.0	E	0.22	14.8	-36.1	---	---	720.3	0.029	0.000	19.0	1	1
03/20/06	12:22 p	-23.7	-23.7	-23.7	---	---	13.0	E	0.22	16.5	-36.1	---	---	720.4	0.029	0.000	18.9	1	1
03/20/06	12:23 p	-23.7	-23.6	-23.7	---	---	13.9	E	0.23	15.7	-36.4	---	---	720.4	0.029	0.000	19.0	1	1
03/20/06	12:24 p	-23.7	-23.7	-23.7	---	---	13.0	E	0.22	15.7	-36.1	---	---	720.4	0.029	0.000	18.9	1	1
03/20/06	12:25 p	-23.7	-23.7	-23.7	---	---	13.9	E	0.23	15.7	-36.4	---	---	720.4	0.029	0.000	19.0	1	1
03/20/06	12:26 p	-23.7	-23.7	-23.7	---	---	12.2	E	0.20	15.7	-35.7	---	---	720.5	0.029	0.000	18.9	1	1
03/20/06	12:27 p	-23.7	-23.6	-23.7	---	---	13.0	E	0.22	15.7	-36.1	---	---	720.5	0.029	0.000	18.9	1	1
03/20/06	12:28 p	-23.7	-23.6	-23.7	---	---	13.0	E	0.22	15.7	-36.1	---	---	720.5	0.029	0.000	18.9	1	1
03/20/06	12:29 p	-23.7	-23.7	-23.7	---	---	11.3	E	0.19	14.8	-35.3	---	---	720.6	0.029	0.000	18.9	1	1
03/20/06	12:30 p	-23.7	-23.7	-23.7	---	---	13.0	E	0.22	15.7	-36.1	---	---	720.5	0.029	0.000	18.9	1	1
03/20/06	12:31 p	-23.7	-23.6	-23.7	---	---	11.3	E	0.19	13.9	-35.3	---	---	720.7	0.029	0.000	18.9	1	1
03/20/06	12:32 p	-23.7	-23.6	-23.7	---	---	12.2	E	0.20	15.7	-35.7	---	---	720.5	0.029	0.000	18.9	1	1
03/20/06	12:33 p	-23.7	-23.7	-23.7	---	---	13.9	ESE	0.23	17.4	-36.4	---	---	720.6	0.029	0.000	18.9	1	1
03/20/06	12:34 p	-23.7	-23.6	-23.7	---	---	13.0	E	0.22	18.3	-36.1	---	---	720.7	0.029	0.000	18.9	1	1
03/20/06	12:35 p	-23.6	-23.6	-23.7	---	---	13.0	E	0.22	16.5	-35.9	---	---	720.7	0.029	0.000	18.9	1	1
03/20/06	12:36 p	-23.6	-23.6	-23.7	---	---	11.3	E	0.19	13.9	-35.2	---	---	720.7	0.029	0.000	18.9	1	1
03/20/06	12:37 p	-23.6	-23.6	-23.6	---	---	10.4	E	0.17	13.0	-34.8	---	---	720.9	0.029	0.000	18.9	1	1
03/20/06	12:38 p	-23.6	-23.6	-23.7	---	---	12.2	E	0.20	14.8	-35.6	---	---	720.7	0.029	0.000	18.8	1	1
03/20/06	12:39 p	-23.6	-23.6	-23.7	---	---	12.2	E	0.20	14.8	-35.6	---	---	720.8	0.029	0.000	18.8	1	1
03/20/06	12:40 p	-23.6	-23.6	-23.6	---	---	11.3	E	0.19	13.0	-35.1	---	---	720.8	0.029	0.000	18.8	1	1
03/20/06	12:41 p	-23.6	-23.5	-23.6	---	---	12.2	ESE	0.20	13.9	-35.5	---	---	720.7	0.029	0.000	18.8	1	1
03/20/06	12:42 p	-23.6	-23.6	-23.6	---	---	13.0	E	0.22	15.7	-35.9	---	---	720.7	0.029	0.000	18.8	1	1
03/20/06	12:43 p	-23.6	-23.6	-23.6	---	---	13.0	E	0.22	15.7	-35.9	---	---	720.7	0.029	0.000	18.8	1	1
03/20/06	12:44 p	-23.6	-23.5	-23.6	---	---	14.8	ESE	0.25	15.7	-36.6	---	---	720.7	0.029	0.000	18.8	1	1
03/20/06	12:45 p	-23.5	-23.5	-23.6	---	---	13.9	ESE	0.23	14.8	-36.2	---	---	720.7	0.029	0.000	18.8	1	1
03/20/06	12:46 p	-23.4	-23.4	-23.5	---	---	13.0	ESE	0.22	14.8	-35.8	---	---	720.7	0.029	0.000	18.8	1	1
03/20/06	12:47 p	-23.4	-23.4	-23.5	---	---	15.7	ESE	0.26	18.3	-36.8	---	---	720.7	0.029	0.000	18.8	1	1
03/20/06	12:48 p	-23.4	-23.4	-23.5	---	---	12.2	ESE	0.20	14.8	-35.4	---	---	720.6	0.029	0.000	18.8	1	1
03/20/06	12:49 p	-23.4	-23.4	-23.4	---	---	11.3	E	0.19	13.9	-34.9	---	---	720.7	0.029	0.000	18.8	1	1
03/20/06	12:50 p	-23.4	-23.4	-23.4	---	---	11.3	ESE	0.19	13.0	-35.0	---	---	720.6	0.029	0.000	18.8	1	1
03/20/06	12:51 p	-23.4	-23.3	-23.4	---	---	11.3	ESE	0.19	12.2	-34.9	---	---	720.8	0.029	0.000	18.8	1	1
03/20/06	12:52 p	-23.3	-23.3	-23.4	---	---	9.6	E	0.16	13.0	-33.9	---	---	720.7	0.029	0.000	18.8	1	1
03/20/06	12:53 p	-23.3	-23.3	-23.3	---	---	11.3	E	0.19	13.9	-34.8	---	---	720.6	0.029	0.000	18.8	1	1
03/20/06	12:54 p	-23.3	-23.3	-23.3	---	---	11.3	ESE	0.19	14.8	-34.8	---	---	720.8	0.029	0.000	18.8	1	1
03/20/06	12:55 p	-23.3	-23.3	-23.3	---	---	11.3	ESE	0.19	13.0	-34.8	---	---	720.8	0.029	0.000	18.8	1	1
03/20/06	12:56 p	-23.3	-23.2	-23.3	---	---	11.3	ESE	0.19	14.8	-34.8	---	---	720.8	0.029	0.000	18.8	1	1
03/20/06	12:57 p	-23.2	-23.2	-23.3	---	---	13.0	ESE	0.22	15.7	-35.5	---	---	720.8	0.029	0.000	18.8	1	1
03/20/06	12:58 p	-23.2	-23.2	-23.3	---	---	13.9	ESE	0.23	15.7	-35.8	---	---	720.7	0.029	0.000	18.8	1	1
03/20/06	12:59 p	-23.2	-23.2	-23.2	---	---	13.9	ESE	0.23	15.7	-35.8	---	---	720.7	0.029	0.000	18.8	1	1
03/20/06	1:00 p	-23.2	-23.1	-23.2	---	---	12.2	ESE	0.20	17.4	-35.0	---	---	720.7	0.029	0.000	18.9	1	1
03/20/06	1:01 p	-23.1	-23.1	-23.1	---	---	13.0	ESE	0.22	14.8	-35.3	---	---	720.7	0.029	0.000	18.9	1	1
03/20/06	1:02 p	-23.1	-23.1	-23.1	---	---	11.3	SE	0.19	14.8	-34.6	---	---	720.7	0.029	0.000	18.9	1	1
03/20/06	1:03 p	-23.1	-23.1	-23.1	---	---	12.2	SE	0.20	16.5	-34.9	---	---	720.6	0.029	0.000	18.9	1	1
03/20/06	1:04 p	-23.0	-22.9	-23.1	---	---	14.8	ESE	0.25	17.4	-35.9	---	---	720.8	0.029	0.000	18.9	1	1
03/20/06	1:05 p	-23.0	-23.0	-23.1	---	---	12.2	ESE	0.20	13.9	-34.8	---	---	720.8	0.029	0.000	18.9	1	1
03/20/06	1:06 p	-22.9	-22.9	-23.0	---	---	9.6	E	0.16	12.2	-33.4	---	---	720.8	0.029	0.000	18.9	1	1
03/20/06	1:07 p	-22.9	-22.9	-22.9	---	---	9.6	E	0.16	13.0	-33.4	---	---	720.8	0.029	0.000	18.9	1	1
03/20/06	1:08 p	-22.9	-22.9	-22.9	---	---	11.3	E	0.19	14.8	-34.3	---	---	720.7	0.029	0.000	18.9	1	1
03/20/06	1:09 p	-22.9	-22.9	-22.9	---	---	11.3	ESE	0.19	16.5	-34.3	---	---	720.7	0.029	0.000	18.9	1	1
03/20/06	1:10 p	-22.9	-22.8	-22.9	---	---	8.7	ESE	0.14	13.0	-32.9	---	---	720.8	0.029	0.000	18.9	1	1
03/20/06	1:11 p	-22.8	-22.8	-22.8	---	---	9.6	E	0.16	13.0	-33.3	---	---	720.7	0.029	0.000	18.9	1	1
03/20/06	1:12 p	-22.8	-22.8	-22.8	---	---	9.6	ESE	0.16	13.0	-33.3	---	---	720.8	0.029	0.000	18.9	1	1
03/20/06	1:13 p	-22.8	-22.8	-22.8	---	---	9.6	ESE	0.16	12.2	-33.3	---	---	720.8	0.029	0.000	18.9	1	1
03/20/06	1:14 p	-22.8	-22.7	-22.8	---	---	10.4	E	0.17	12.2	-33.7	---	---	720.8	0.029	0.000	18.9	1	1
03/20/06	1:15 p	-22.7	-22.7	-22.7	---	---	10.4	E	0.17	13.0	-33.7	---	---	720.8	0.029	0.000	18.9	1	1
03/20/06	1:16 p	-22.7	-22.7	-22.7	---	---	9.6	E	0.16	11.3	-33.1	---	---	720.8	0.028	0.000	18.9	1	1
03/20/06	1:17 p	-22.7	-22.7	-22.7	---	---	9.6	E	0.16	13.9	-33.1	---	---	720.7	0.028	0.000	18.9	1	1
03/20/06	1:18 p	-22.7	-22.7	-22.7	---	---	10.4	E	0.17	13.9	-33.6	---	---	720.7	0.028	0.000	18.9	1	1
03/20/06	1:19 p	-22.7	-22.6	-22.7	---	---	10.4	E	0.17	13.9	-33.6	---	---	720.8	0.028	0.000	18.9	1	1
03/20/06	1:20 p	-22.6	-22.6	-22.7	---	---	11.3	E	0.19	13.9	-33.9	---	---	720.8	0.028	0.000	18.9	1	1
03/20/06	1:21 p	-22.6	-22.6	-22.6	---	---	10.4	ESE	0.17	13.0	-33.5	---	---	720.8	0.028	0.000	18.9	1	1
03/20/06	1:22 p	-22.6	-22.6	-22.6	---	---	10.4	E	0.17	12.2	-33.4	---	---	720.8	0.028	0.000	18.9	1	1
03/20/06	1:23 p	-22.6	-22.6	-22.6	---	---	9.6	E	0.16	10.4	-33.0	---	---	720.8	0.028	0.000	19.0	1	1
03/20/06	1:24 p	-22.6	-22.6	-22.6	---	---	9.6	E	0.16	12.2	-33.0	---	---	720.8	0.028	0.000	19.0	1	1
03/20/06	1:25 p	-22.6	-22.5	-22.6	---	---	9.6	E	0.16	11.3	-33.0	---	---	720.8	0.028	0.000	19.0	1	1
03/20/06	1:26 p	-22.5	-22.4	-22.5	---	---	7.8	E	0.13	9.6	-31.9	---	---	720.9	0.028	0.000	19.0	1	1
03/20/06	1:27 p	-22.5	-22.5	-22.5	---	---	7.0	E	0.12	8.7	-31.3	---	---	720.9	0.028	0.000	19.0	1	1
03/20/06	1:28 p	-22.5	-22.4	-22.5	---	---	10.4	E	0.17	13.9	-33.4	---	---	720.9	0.028	0.000	19.0	1	1
03/20/06	1:29 p	-22.5	-22.4	-22.5	---	---	10.4	E	0.17	15.7	-33.4	---	---	720.8	0.028	0.000	19.0	1	1
03/20/06	1:30 p	-22.4	-22.4	-22.5	---	---	9.6	E	0.16	13.0	-32.8	---	---	720.8	0.028	0.000	19.0	1	1
03/20/06	1:31 p	-22.4	-22.4	-22.4	---	---	10.4	E	0.17	12.2	-33.3	---	---	720.8	0.028	0.000	19.0	1	1
03/20/06	1:32 p	-22.4	-22.4	-22.4	---	---	12.2	E	0.20	14.8	-34.1	---	---	720.8	0.028	0.000	19.0	1	1
03/20/06	1:33 p	-22.4	-22.3	-22.4	---	---	13.0	ESE	0.22	16.5	-34.4	---	---	720.8	0.028	0.000	19.0	1	1
03/20/06	1:34 p	-22.3	-22.3	-22.4	---	---	12.2	ESE	0.20	15.7	-33.9	---	---	720.8	0.028	0.000	19.0	1	1
03/20/06	1:35 p	-22.3	-22.3	-22.3	---	---	12.2	ESE	0.20	14.8	-33.9	---	---	720.9	0.028	0.000	19.0	1	1
03/20/06	1:36 p	-22.4	-22.3	-22.4	---	---	11.3	ESE	0.19	13.9	-33.7	---	---	720.8	0.028	0.000	18.9	1	1
03/20/06	1:37 p	-22.3	-22.3	-22.3	---	---	10.4	E	0.17	13.0	-33.2	---	---	720.8	0.028	0.000	18.9	1	1
03/20/06	1:38 p	-22.3	-22.3	-22.4	---	---	13.0	E	0.22	15.7	-34.3	---	---	720.7	0.028	0.000	18.9	1	1
03/20/06	1:39 p	-22.3	-22.3	-22.3	---	---	13.0	E	0.22	14.8	-34.3	---	---	720.8	0.028	0.000	18.9	1	1
03/20/06	1:40 p	-22.3	-22.3	-22.3	---	---	13.9	ESE	0.23	15.7	-34.6	---	---	720.6	0.028	0.000	18.9	1	1
03/20/06	1:41 p	-22.3	-22.3	-22.3	---	---	13.9	ESE	0.23	15.7	-34.7	---	---	720.7	0.028	0.000	18.9	1	1
03/20/06	1:42 p	-22.3	-22.2	-22.3	---	---	13.9	E	0.23	16.5	-34.6	---	---	720.6	0.028	0.000	18.9	1	1
03/20/06	1:43 p	-22.3	-22.2	-22.3	---	---	13.0	E	0.22	15.7	-34.3	---	---	720.7	0.028	0.000	18.9	1	1
03/20/06	1:44 p	-22.3	-22.2	-22.3	---	---	13.9	E	0.23	17.4	-34.6	---	---	720.7	0.028	0.000	18.9	1	1
03/20/06	1:45 p	-22.3	-22.2	-22.3	---	---	11.3	E	0.19	15.7	-33.5	---	---	720.7	0.028	0.000	18.9	1	1
03/20/06	1:46 p	-22.2	-22.2	-22.3	---	---	13.0	E	0.22	15.7	-34.2	---	---	720.7	0.028	0.000	18.9	1	1
03/20/06	1:47 p	-22.2	-22.2	-22.2	---	---	11.3	E	0.19	13.9	-33.4	---	---	720.7	0.028	0.000	18.9	1	1
03/20/06	1:48 p	-22.2	-22.2	-22.3	---	---	10.4	E	0.17	13.0	-33.0	---	---	720.8	0.028	0.000	18.9	1	1
03/20/06	1:49 p	-22.2	-22.2	-22.2	---	---	11.3	E	0.19	13.0	-33.4	---	---	720.7	0.028	0.000	18.9	1	1
03/20/06	1:50 p	-22.2	-22.2	-22.2	---	---	10.4	E	0.17	13.0	-32.9	---	---	720.7	0.028	0.000	18.9	1	1
03/20/06	1:51 p	-22.2	-22.1	-22.2	---	---	12.2	ESE	0.20	16.5	-33.8	---	---	720.7	0.028	0.000	18.9	1	1
03/20/06	1:52 p	-22.2	-22.1	-22.2	---	---	12.2	E	0.20	15.7	-33.8	---	---	720.8	0.028	0.000	18.9	1	1
03/20/06	1:53 p	-22.2	-22.1	-22.2	---	---	12.2	E	0.20	14.8	-33.8	---	---	720.7	0.028	0.000	18.9	1	1
03/20/06	1:54 p	-22.1	-22.1	-22.2	---	---	12.2	E	0.20	14.8	-33.7	---	---	720.7	0.028	0.000	18.9	1	1
03/20/06	1:55 p	-22.1	-22.1	-22.2	---	---	11.3	E	0.19	13.0	-33.3	---	---	720.8	0.028	0.000	18.9	1	1
03/20/06	1:56 p	-22.1	-22.1	-22.1	---	---	13.9	E	0.23	20.9	-34.4	---	---	720.7	0.028	0.000	18.9	1	1
03/20/06	1:57 p	-22.1	-22.1	-22.1	---	---	13.0	ESE	0.22	16.5	-34.1	---	---	720.8	0.028	0.000	18.9	1	1
03/20/06	1:58 p	-22.1	-22.1	-22.1	---	---	13.9	ESE	0.23	20.0	-34.4	---	---	720.7	0.028	0.000	18.9	1	1
03/20/06	1:59 p	-22.1	-22.1	-22.1	---	---	16.5	ESE	0.28	18.3	-35.3	---	---	720.8	0.028	0.000	18.9	1	1
03/20/06	2:00 p	-22.1	-22.1	-22.1	---	---	13.9	ESE	0.23	15.7	-34.3	---	---	720.7	0.028	0.000	18.9	1	1
03/20/06	2:01 p	-22.1	-22.1	-22.1	---	---	13.9	ESE	0.23	14.8	-34.3	---	---	720.8	0.028	0.000	18.9	1	1
03/20/06	2:02 p	-22.1	-22.1	-22.1	---	---	14.8	ESE	0.25	17.4	-34.7	---	---	720.7	0.028	0.000	18.9	1	1
03/20/06	2:03 p	-22.1	-22.1	-22.1	---	---	13.9	ESE	0.23	16.5	-34.3	---	---	720.6	0.028	0.000	18.9	1	1
03/20/06	2:04 p	-22.1	-22.1	-22.1	---	---	12.2	ESE	0.20	15.7	-33.6	---	---	720.7	0.028	0.000	18.9	1	1
03/20/06	2:05 p	-22.1	-22.1	-22.1	---	---	13.9	ESE	0.23	18.3	-34.3	---	---	720.7	0.028	0.000	18.9	1	1
03/20/06	2:06 p	-22.1	-22.1	-22.1	---	---	13.9	ESE	0.23	16.5	-34.3	---	---	720.6	0.028	0.000	19.0	1	1
03/20/06	2:07 p	-22.1	-22.1	-22.1	---	---	14.8	ESE	0.25	16.5	-34.7	---	---	720.7	0.028	0.000	18.9	1	1
03/20/06	2:08 p	-22.1	-22.0	-22.1	---	---	13.0	ESE	0.22	15.7	-34.0	---	---	720.7	0.028	0.000	19.0	1	1
03/20/06	2:09 p	-22.1	-22.0	-22.1	---	---	12.2	ESE	0.20	15.7	-33.6	---	---	720.7	0.028	0.000	19.0	1	1
03/20/06	2:10 p	-22.0	-22.0	-22.1	---	---	13.9	ESE	0.23	16.5	-34.3	---	---	720.7	0.028	0.000	19.0	1	1
03/20/06	2:11 p	-22.1	-22.0	-22.1	---	---	13.0	E	0.22	15.7	-34.0	---	---	720.7	0.028	0.000	19.0	1	1
03/20/06	2:12 p	-22.1	-22.0	-22.1	---	---	15.7	ESE	0.26	17.4	-34.9	---	---	720.6	0.028	0.000	18.9	1	1
03/20/06	2:13 p	-22.0	-22.0	-22.1	---	---	14.8	E	0.25	18.3	-34.6	---	---	720.6	0.028	0.000	18.9	1	1
03/20/06	2:14 p	-22.1	-22.0	-22.1	---	---	15.7	ESE	0.26	17.4	-34.9	---	---	720.8	0.028	0.000	18.9	1	1
03/20/06	2:15 p	-22.0	-22.0	-22.1	---	---	14.8	ESE	0.25	16.5	-34.6	---	---	720.7	0.028	0.000	18.9	1	1
03/20/06	2:16 p	-22.0	-22.0	-22.1	---	---	14.8	E	0.25	17.4	-34.6	---	---	720.7	0.028	0.000	18.9	1	1
03/20/06	2:17 p	-22.1	-22.0	-22.1	---	---	14.8	E	0.25	16.5	-34.7	---	---	720.7	0.028	0.000	18.9	1	1
03/20/06	2:18 p	-22.0	-22.0	-22.0	---	---	13.9	E	0.23	17.4	-34.3	---	---	720.7	0.028	0.000	18.9	1	1
03/20/06	2:19 p	-22.1	-22.0	-22.1	---	---	14.8	ESE	0.25	16.5	-34.7	---	---	720.7	0.028	0.000	18.9	1	1
03/20/06	2:20 p	-22.1	-21.9	-22.1	---	---	13.0	ESE	0.22	17.4	-34.0	---	---	720.6	0.028	0.000	18.9	1	1
03/20/06	2:21 p	-22.0	-21.9	-22.0	---	---	12.2	ESE	0.20	13.9	-33.6	---	---	720.7	0.028	0.000	18.9	1	1
03/20/06	2:22 p	-22.0	-22.0	-22.0	---	---	13.0	ESE	0.22	19.1	-33.9	---	---	720.7	0.028	0.000	18.9	1	1
03/20/06	2:23 p	-22.1	-22.0	-22.1	---	---	13.0	E	0.22	14.8	-34.0	---	---	720.7	0.028	0.000	18.9	1	1
03/20/06	2:24 p	-22.0	-21.9	-22.0	---	---	13.0	ESE	0.22	14.8	-33.9	---	---	720.7	0.028	0.000	18.9	1	1
03/20/06	2:25 p	-22.0	-22.0	-22.0	---	---	12.2	E	0.20	13.9	-33.6	---	---	720.6	0.028	0.000	18.9	1	1
03/20/06	2:26 p	-22.0	-21.9	-22.1	---	---	13.9	ESE	0.23	16.5	-34.3	---	---	720.7	0.028	0.000	18.9	1	1
03/20/06	2:27 p	-22.0	-21.9	-22.0	---	---	12.2	E	0.20	14.8	-33.6	---	---	720.7	0.028	0.000	18.9	1	1
03/20/06	2:28 p	-22.0	-21.9	-22.1	---	---	13.9	ESE	0.23	20.9	-34.3	---	---	720.7	0.028	0.000	18.9	1	1
03/20/06	2:29 p	-21.9	-21.9	-22.1	---	---	13.0	ESE	0.22	20.0	-33.8	---	---	720.6	0.028	0.000	18.9	1	1
03/20/06	2:30 p	-22.0	-21.9	-22.1	---	---	11.3	SE	0.19	13.0	-33.2	---	---	720.6	0.028	0.000	18.9	1	1
03/20/06	2:31 p	-22.0	-21.9	-22.1	---	---	10.4	E	0.17	13.0	-32.7	---	---	720.6	0.028	0.000	18.9	1	1
03/20/06	2:32 p	-22.0	-22.0	-22.0	---	---	12.2	E	0.20	16.5	-33.6	---	---	720.5	0.028	0.000	18.8	1	1
03/20/06	2:33 p	-22.0	-22.0	-22.0	---	---	10.4	E	0.17	13.0	-32.7	---	---	720.7	0.028	0.000	18.8	1	1
03/20/06	2:34 p	-22.0	-22.0	-22.0	---	---	10.4	E	0.17	13.0	-32.7	---	---	720.6	0.028	0.000	18.8	1	1
03/20/06	2:35 p	-22.0	-22.0	-22.1	---	---	10.4	E	0.17	13.9	-32.7	---	---	720.5	0.028	0.000	18.8	1	1
03/20/06	2:36 p	-22.0	-22.0	-22.1	---	---	10.4	E	0.17	13.0	-32.7	---	---	720.6	0.028	0.000	18.8	1	1
03/20/06	2:37 p	-22.1	-22.0	-22.1	---	---	12.2	E	0.20	13.9	-33.6	---	---	720.5	0.028	0.000	18.8	1	1
03/20/06	2:38 p	-22.0	-22.0	-22.1	---	---	13.0	E	0.22	15.7	-33.9	---	---	720.6	0.028	0.000	18.8	1	1
03/20/06	2:39 p	-22.1	-22.0	-22.1	---	---	13.0	E	0.22	16.5	-34.0	---	---	720.6	0.028	0.000	18.8	1	1
03/20/06	2:40 p	-22.0	-22.0	-22.1	---	---	11.3	ESE	0.19	14.8	-33.2	---	---	720.6	0.028	0.000	18.8	1	1
03/20/06	2:41 p	-22.1	-22.0	-22.1	---	---	13.0	E	0.22	14.8	-34.0	---	---	720.7	0.028	0.000	18.8	1	1
03/20/06	2:42 p	-22.1	-22.0	-22.1	---	---	13.9	E	0.23	18.3	-34.3	---	---	720.7	0.028	0.000	18.8	1	1
03/20/06	2:43 p	-22.1	-22.1	-22.1	---	---	13.9	ESE	0.23	17.4	-34.3	---	---	720.8	0.028	0.000	18.8	1	1
03/20/06	2:44 p	-22.1	-22.0	-22.1	---	---	11.3	E	0.19	14.8	-33.2	---	---	720.8	0.028	0.000	18.8	1	1
03/20/06	2:45 p	-22.1	-22.0	-22.1	---	---	10.4	E	0.17	13.9	-32.8	---	---	720.8	0.028	0.000	18.8	1	1
03/20/06	2:46 p	-22.1	-22.0	-22.1	---	---	10.4	E	0.17	13.9	-32.8	---	---	720.6	0.028	0.000	18.8	1	1
03/20/06	2:47 p	-22.1	-22.1	-22.1	---	---	13.0	E	0.22	17.4	-34.0	---	---	720.6	0.028	0.000	18.8	1	1
03/20/06	2:48 p	-22.1	-22.1	-22.1	---	---	12.2	E	0.20	15.7	-33.6	---	---	720.7	0.028	0.000	18.8	1	1
03/20/06	2:49 p	-22.1	-22.1	-22.1	---	---	11.3	E	0.19	13.0	-33.2	---	---	720.7	0.028	0.000	18.8	1	1
03/20/06	2:50 p	-22.1	-22.1	-22.1	---	---	12.2	E	0.20	13.9	-33.7	---	---	720.8	0.028	0.000	18.8	1	1
03/20/06	2:51 p	-22.1	-22.1	-22.1	---	---	12.2	ESE	0.20	17.4	-33.6	---	---	720.7	0.028	0.000	18.8	1	1
03/20/06	2:52 p	-22.1	-22.1	-22.1	---	---	13.0	ESE	0.22	15.7	-34.1	---	---	720.8	0.028	0.000	18.8	1	1
03/20/06	2:53 p	-22.1	-22.1	-22.1	---	---	13.0	ESE	0.22	15.7	-34.1	---	---	720.7	0.028	0.000	18.9	1	1
03/20/06	2:54 p	-22.1	-22.1	-22.1	---	---	14.8	ESE	0.25	19.1	-34.7	---	---	720.7	0.028	0.000	18.9	1	1
03/20/06	2:55 p	-22.1	-22.1	-22.1	---	---	14.8	ESE	0.25	16.5	-34.7	---	---	720.6	0.028	0.000	18.8	1	1
03/20/06	2:56 p	-22.1	-22.1	-22.1	---	---	13.9	ESE	0.23	16.5	-34.4	---	---	720.7	0.028	0.000	18.8	1	1
03/20/06	2:57 p	-22.1	-22.1	-22.1	---	---	14.8	ESE	0.25	15.7	-34.7	---	---	720.7	0.028	0.000	18.8	1	1
03/20/06	2:58 p	-22.1	-22.1	-22.1	---	---	15.7	ESE	0.26	18.3	-35.1	---	---	720.6	0.028	0.000	18.8	1	1
03/20/06	2:59 p	-22.1	-22.1	-22.1	---	---	13.9	ESE	0.23	15.7	-34.4	---	---	720.6	0.028	0.000	18.8	1	1
03/20/06	3:00 p	-22.1	-22.1	-22.1	---	---	15.7	SE	0.26	19.1	-35.1	---	---	720.6	0.028	0.000	18.8	1	1
03/20/06	3:01 p	-22.1	-22.1	-22.1	---	---	16.5	SE	0.28	19.1	-35.3	---	---	720.6	0.028	0.000	18.8	1	1
03/20/06	3:02 p	-22.1	-22.1	-22.2	---	---	17.4	SE	0.29	21.7	-35.6	---	---	720.8	0.028	0.000	18.9	1	1
03/20/06	3:03 p	-22.1	-22.1	-22.1	---	---	15.7	SE	0.26	18.3	-35.1	---	---	720.6	0.028	0.000	18.9	1	1
03/20/06	3:04 p	-22.1	-22.1	-22.1	---	---	15.7	SE	0.26	20.0	-35.1	---	---	720.7	0.028	0.000	18.9	1	1
03/20/06	3:05 p	-22.1	-22.1	-22.1	---	---	15.7	ESE	0.26	17.4	-35.1	---	---	720.6	0.028	0.000	18.9	1	1
03/20/06	3:06 p	-22.1	-22.1	-22.1	---	---	14.8	ESE	0.25	15.7	-34.7	---	---	720.6	0.028	0.000	18.9	1	1
03/20/06	3:07 p	-22.1	-22.1	-22.1	---	---	13.9	ESE	0.23	15.7	-34.4	---	---	720.7	0.028	0.000	18.9	1	1
03/20/06	3:08 p	-22.1	-22.1	-22.1	---	---	14.8	ESE	0.25	16.5	-34.7	---	---	720.6	0.028	0.000	18.9	1	1
03/20/06	3:09 p	-22.1	-22.1	-22.1	---	---	14.8	ESE	0.25	17.4	-34.7	---	---	720.7	0.028	0.000	18.9	1	1
03/20/06	3:10 p	-22.1	-22.1	-22.1	---	---	14.8	SE	0.25	19.1	-34.7	---	---	720.6	0.028	0.000	18.9	1	1
03/20/06	3:11 p	-22.1	-22.1	-22.1	---	---	14.8	SE	0.25	17.4	-34.7	---	---	720.6	0.028	0.000	18.9	1	1
03/20/06	3:12 p	-22.1	-22.1	-22.1	---	---	13.9	ESE	0.23	14.8	-34.4	---	---	720.6	0.028	0.000	18.9	1	1
03/20/06	3:13 p	-22.1	-22.1	-22.1	---	---	16.5	ESE	0.28	17.4	-35.3	---	---	720.6	0.028	0.000	18.9	1	1
03/20/06	3:14 p	-22.1	-22.1	-22.1	---	---	15.7	SE	0.26	16.5	-34.9	---	---	720.5	0.028	0.000	18.9	1	1
03/20/06	3:15 p	-22.1	-22.1	-22.1	---	---	14.8	ESE	0.25	16.5	-34.7	---	---	720.6	0.028	0.000	18.9	1	1
03/20/06	3:16 p	-22.1	-22.1	-22.1	---	---	15.7	SE	0.26	18.3	-34.9	---	---	720.6	0.028	0.000	18.9	1	1
03/20/06	3:17 p	-22.1	-22.1	-22.1	---	---	15.7	ESE	0.26	17.4	-34.9	---	---	720.5	0.028	0.000	18.9	1	1
03/20/06	3:18 p	-22.1	-22.1	-22.1	---	---	15.7	ESE	0.26	18.3	-34.9	---	---	720.6	0.028	0.000	18.9	1	1
03/20/06	3:19 p	-22.1	-22.0	-22.1	---	---	16.5	ESE	0.28	19.1	-35.3	---	---	720.6	0.028	0.000	18.9	1	1
03/20/06	3:20 p	-22.0	-22.0	-22.1	---	---	15.7	ESE	0.26	21.7	-34.9	---	---	720.5	0.028	0.000	18.9	1	1
03/20/06	3:21 p	-22.1	-22.0	-22.1	---	---	17.4	ESE	0.29	22.6	-35.6	---	---	720.4	0.028	0.000	18.9	1	1
03/20/06	3:22 p	-22.1	-22.0	-22.1	---	---	19.1	SE	0.32	22.6	-36.1	---	---	720.4	0.028	0.000	18.9	1	1
03/20/06	3:23 p	-22.1	-22.0	-22.1	---	---	18.3	ESE	0.30	20.9	-35.8	---	---	720.5	0.028	0.000	18.9	1	1
03/20/06	3:24 p	-22.0	-22.0	-22.1	---	---	18.3	SE	0.30	20.9	-35.8	---	---	720.6	0.028	0.000	18.9	1	1
03/20/06	3:25 p	-22.0	-22.0	-22.0	---	---	17.4	SE	0.29	20.0	-35.5	---	---	720.6	0.028	0.000	18.9	1	1
03/20/06	3:26 p	-22.0	-21.9	-22.1	---	---	16.5	SE	0.28	19.1	-35.2	---	---	720.5	0.028	0.000	18.8	1	1
03/20/06	3:27 p	-21.9	-21.9	-21.9	---	---	15.7	SE	0.26	18.3	-34.8	---	---	720.6	0.028	0.000	18.9	1	1
03/20/06	3:28 p	-21.9	-21.9	-21.9	---	---	13.9	SE	0.23	15.7	-34.2	---	---	720.7	0.028	0.000	18.9	1	1
03/20/06	3:29 p	-21.9	-21.9	-21.9	---	---	13.0	SE	0.22	14.8	-33.8	---	---	720.6	0.028	0.000	18.9	1	1
03/20/06	3:30 p	-21.9	-21.9	-21.9	---	---	14.8	SE	0.25	18.3	-34.4	---	---	720.5	0.028	0.000	18.9	1	1
03/20/06	3:31 p	-21.9	-21.9	-21.9	---	---	15.7	SE	0.26	18.3	-34.8	---	---	720.6	0.028	0.000	18.9	1	1
03/20/06	3:32 p	-21.9	-21.9	-21.9	---	---	15.7	SE	0.26	20.9	-34.8	---	---	720.5	0.028	0.000	18.8	1	1
03/20/06	3:33 p	-21.9	-21.9	-21.9	---	---	19.1	SE	0.32	21.7	-35.9	---	---	720.7	0.028	0.000	18.8	1	1
03/20/06	3:34 p	-21.9	-21.9	-21.9	---	---	15.7	SE	0.26	19.1	-34.8	---	---	720.6	0.028	0.000	18.8	1	1
03/20/06	3:35 p	-21.9	-21.9	-21.9	---	---	16.5	SE	0.28	19.1	-35.1	---	---	720.6	0.028	0.000	18.8	1	1
03/20/06	3:36 p	-21.9	-21.8	-21.9	---	---	17.4	SE	0.29	20.0	-35.3	---	---	720.7	0.028	0.000	18.8	1	1
03/20/06	3:37 p	-21.8	-21.8	-21.9	---	---	19.1	SE	0.32	21.7	-35.8	---	---	720.5	0.028	0.000	18.8	1	1
03/20/06	3:38 p	-21.9	-21.8	-21.9	---	---	20.0	SE	0.33	22.6	-36.1	---	---	720.6	0.028	0.000	18.8	1	1
03/20/06	3:39 p	-21.9	-21.8	-21.9	---	---	19.1	SE	0.32	22.6	-35.9	---	---	720.6	0.028	0.000	18.8	1	1
03/20/06	3:40 p	-21.8	-21.8	-21.8	---	---	19.1	SE	0.32	24.3	-35.8	---	---	720.6	0.028	0.000	18.8	1	1
03/20/06	3:41 p	-21.8	-21.8	-21.8	---	---	20.9	SE	0.35	25.2	-36.3	---	---	720.6	0.028	0.000	18.8	1	1
03/20/06	3:42 p	-21.8	-21.8	-21.8	---	---	19.1	SE	0.32	20.9	-35.8	---	---	720.7	0.028	0.000	18.8	1	1
03/20/06	3:43 p	-21.8	-21.8	-21.8	---	---	16.5	SE	0.28	19.1	-34.9	---	---	720.8	0.028	0.000	18.8	1	1
03/20/06	3:44 p	-21.8	-21.8	-21.8	---	---	17.4	SE	0.29	23.5	-35.2	---	---	720.6	0.028	0.000	18.7	1	1
03/20/06	3:45 p	-21.8	-21.7	-21.8	---	---	19.1	SE	0.32	20.9	-35.7	---	---	720.8	0.028	0.000	18.7	1	1
03/20/06	3:46 p	-21.8	-21.7	-21.8	---	---	19.1	SE	0.32	20.9	-35.7	---	---	720.6	0.028	0.000	18.7	1	1
03/20/06	3:47 p	-21.7	-21.7	-21.7	---	---	16.5	SE	0.28	19.1	-34.8	---	---	720.7	0.028	0.000	18.7	1	1
03/20/06	3:48 p	-21.7	-21.7	-21.7	---	---	18.3	SE	0.30	20.9	-35.4	---	---	720.7	0.028	0.000	18.7	1	1
03/20/06	3:49 p	-21.7	-21.7	-21.7	---	---	16.5	SE	0.28	19.1	-34.8	---	---	720.8	0.028	0.000	18.7	1	1
03/20/06	3:50 p	-21.7	-21.7	-21.7	---	---	16.5	SSE	0.28	19.1	-34.8	---	---	720.8	0.028	0.000	18.8	1	1
03/20/06	3:51 p	-21.7	-21.7	-21.7	---	---	16.5	SE	0.28	18.3	-34.8	---	---	720.9	0.028	0.000	18.8	1	1
03/20/06	3:52 p	-21.7	-21.7	-21.7	---	---	20.0	SE	0.33	23.5	-35.8	---	---	720.7	0.028	0.000	18.8	1	1
03/20/06	3:53 p	-21.7	-21.7	-21.7	---	---	15.7	SE	0.26	17.4	-34.4	---	---	720.8	0.028	0.000	18.8	1	1
03/20/06	3:54 p	-21.7	-21.6	-21.7	---	---	16.5	SSE	0.28	18.3	-34.8	---	---	720.9	0.028	0.000	18.8	1	1
03/20/06	3:55 p	-21.7	-21.6	-21.7	---	---	16.5	SE	0.28	18.3	-34.8	---	---	720.8	0.028	0.000	18.8	1	1
03/20/06	3:56 p	-21.6	-21.6	-21.7	---	---	17.4	SE	0.29	19.1	-34.9	---	---	720.8	0.028	0.000	18.8	1	1
03/20/06	3:57 p	-21.6	-21.6	-21.7	---	---	17.4	SE	0.29	18.3	-34.9	---	---	720.8	0.028	0.000	18.8	1	1
03/20/06	3:58 p	-21.6	-21.6	-21.7	---	---	17.4	SE	0.29	20.0	-34.9	---	---	720.7	0.028	0.000	18.8	1	1
03/20/06	3:59 p	-21.6	-21.6	-21.7	---	---	17.4	SE	0.29	19.1	-34.9	---	---	720.7	0.028	0.000	18.8	1	1
03/20/06	4:00 p	-21.6	-21.6	-21.6	---	---	17.4	SE	0.29	19.1	-34.9	---	---	720.7	0.028	0.000	18.8	1	1
03/20/06	4:01 p	-21.6	-21.6	-21.6	---	---	18.3	SE	0.30	20.0	-35.2	---	---	720.7	0.028	0.000	18.8	1	1
03/20/06	4:02 p	-21.6	-21.6	-21.6	---	---	18.3	SE	0.30	19.1	-35.2	---	---	720.7	0.028	0.000	18.8	1	1
03/20/06	4:03 p	-21.6	-21.6	-21.6	---	---	18.3	SE	0.30	20.9	-35.2	---	---	720.7	0.028	0.000	18.8	1	1
03/20/06	4:04 p	-21.6	-21.6	-21.6	---	---	18.3	SE	0.30	20.0	-35.2	---	---	720.8	0.028	0.000	18.8	1	1
03/20/06	4:05 p	-21.6	-21.6	-21.6	---	---	18.3	SE	0.30	20.0	-35.2	---	---	720.8	0.028	0.000	18.8	1	1
03/20/06	4:06 p	-21.6	-21.6	-21.6	---	---	18.3	SE	0.30	20.0	-35.2	---	---	720.8	0.028	0.000	18.8	1	1
03/20/06	4:07 p	-21.6	-21.6	-21.6	---	---	18.3	SE	0.30	20.0	-35.2	---	---	720.8	0.028	0.000	18.8	1	1
03/20/06	4:08 p	-21.6	-21.6	-21.6	---	---	18.3	SE	0.30	20.9	-35.2	---	---	720.7	0.028	0.000	18.8	1	1
03/20/06	4:09 p	-21.6	-21.6	-21.6	---	---	18.3	SE	0.30	19.1	-35.2	---	---	720.8	0.028	0.000	18.8	1	1
03/20/06	4:10 p	-21.6	-21.5	-21.6	---	---	19.1	SE	0.32	20.9	-35.4	---	---	720.8	0.028	0.000	18.8	1	1
03/20/06	4:11 p	-21.6	-21.5	-21.6	---	---	19.1	SE	0.32	20.0	-35.4	---	---	720.7	0.028	0.000	18.8	1	1
03/20/06	4:12 p	-21.6	-21.6	-21.6	---	---	18.3	SE	0.30	20.0	-35.2	---	---	720.7	0.028	0.000	18.8	1	1
03/20/06	4:13 p	-21.6	-21.5	-21.6	---	---	18.3	SE	0.30	20.0	-35.2	---	---	720.8	0.028	0.000	18.8	1	1
03/20/06	4:14 p	-21.6	-21.5	-21.6	---	---	20.0	SE	0.33	21.7	-35.7	---	---	720.8	0.028	0.000	18.8	1	1
03/20/06	4:15 p	-21.6	-21.5	-21.6	---	---	20.9	SE	0.35	22.6	-35.9	---	---	720.7	0.028	0.000	18.8	1	1
03/20/06	4:16 p	-21.6	-21.5	-21.6	---	---	18.3	SE	0.30	21.7	-35.2	---	---	720.8	0.028	0.000	18.8	1	1
03/20/06	4:17 p	-21.6	-21.5	-21.6	---	---	18.3	SE	0.30	20.9	-35.2	---	---	720.8	0.028	0.000	18.8	1	1
03/20/06	4:18 p	-21.5	-21.5	-21.6	---	---	18.3	SE	0.30	20.0	-35.1	---	---	720.9	0.028	0.000	18.8	1	1
03/20/06	4:19 p	-21.5	-21.5	-21.6	---	---	16.5	SE	0.28	18.3	-34.6	---	---	720.8	0.028	0.000	18.8	1	1
03/20/06	4:20 p	-21.5	-21.5	-21.5	---	---	17.4	SE	0.29	18.3	-34.8	---	---	720.9	0.028	0.000	18.8	1	1
03/20/06	4:21 p	-21.5	-21.5	-21.5	---	---	17.4	SE	0.29	20.0	-34.8	---	---	720.9	0.028	0.000	18.8	1	1
03/20/06	4:22 p	-21.5	-21.5	-21.5	---	---	18.3	SE	0.30	19.1	-35.1	---	---	720.9	0.028	0.000	18.8	1	1
03/20/06	4:23 p	-21.5	-21.5	-21.6	---	---	19.1	SE	0.32	22.6	-35.3	---	---	720.9	0.028	0.000	18.8	1	1
03/20/06	4:24 p	-21.5	-21.5	-21.6	---	---	17.4	SE	0.29	18.3	-34.8	---	---	720.9	0.028	0.000	18.8	1	1
03/20/06	4:25 p	-21.5	-21.5	-21.5	---	---	17.4	SE	0.29	20.9	-34.8	---	---	720.9	0.028	0.000	18.8	1	1
03/20/06	4:26 p	-21.5	-21.5	-21.6	---	---	18.3	SE	0.30	20.9	-35.1	---	---	720.9	0.028	0.000	18.8	1	1
03/20/06	4:27 p	-21.5	-21.5	-21.5	---	---	19.1	SE	0.32	21.7	-35.3	---	---	720.9	0.028	0.000	18.8	1	1
03/20/06	4:28 p	-21.5	-21.5	-21.5	---	---	20.0	SE	0.33	22.6	-35.6	---	---	720.7	0.028	0.000	18.8	1	1
03/20/06	4:29 p	-21.5	-21.5	-21.6	---	---	20.0	SE	0.33	22.6	-35.6	---	---	720.9	0.028	0.000	18.8	1	1
03/20/06	4:30 p	-21.5	-21.5	-21.5	---	---	20.0	SE	0.33	21.7	-35.6	---	---	720.9	0.028	0.000	18.8	1	1
03/20/06	4:31 p	-21.5	-21.4	-21.5	---	---	19.1	SE	0.32	22.6	-35.3	---	---	720.9	0.028	0.000	18.8	1	1
03/20/06	4:32 p	-21.5	-21.4	-21.5	---	---	18.3	SE	0.30	20.0	-35.1	---	---	720.8	0.028	0.000	18.8	1	1
03/20/06	4:33 p	-21.5	-21.4	-21.5	---	---	20.0	SE	0.33	22.6	-35.6	---	---	720.9	0.028	0.000	18.8	1	1
03/20/06	4:34 p	-21.5	-21.4	-21.5	---	---	19.1	SE	0.32	20.9	-35.3	---	---	720.9	0.028	0.000	18.8	1	1
03/20/06	4:35 p	-21.5	-21.4	-21.5	---	---	19.1	SE	0.32	25.2	-35.3	---	---	720.8	0.028	0.000	18.8	1	1
03/20/06	4:36 p	-21.4	-21.4	-21.5	---	---	18.3	SSE	0.30	20.9	-35.0	---	---	720.9	0.028	0.000	18.8	1	1
03/20/06	4:37 p	-21.4	-21.4	-21.4	---	---	20.9	SSE	0.35	24.3	-35.8	---	---	720.9	0.028	0.000	18.8	1	1
03/20/06	4:38 p	-21.4	-21.4	-21.4	---	---	18.3	SSE	0.30	20.9	-35.0	---	---	720.9	0.028	0.000	18.8	1	1
03/20/06	4:39 p	-21.4	-21.4	-21.5	---	---	19.1	SSE	0.32	20.0	-35.3	---	---	720.9	0.028	0.000	18.8	1	1
03/20/06	4:40 p	-21.4	-21.4	-21.5	---	---	18.3	SE	0.30	20.0	-35.0	---	---	720.9	0.028	0.000	18.8	1	1
03/20/06	4:41 p	-21.4	-21.4	-21.4	---	---	17.4	SE	0.29	19.1	-34.8	---	---	720.8	0.028	0.000	18.8	1	1
03/20/06	4:42 p	-21.4	-21.4	-21.4	---	---	18.3	SSE	0.30	20.0	-35.0	---	---	720.9	0.028	0.000	18.8	1	1
03/20/06	4:43 p	-21.4	-21.4	-21.4	---	---	18.3	SSE	0.30	20.0	-35.0	---	---	720.9	0.028	0.000	18.8	1	1
03/20/06	4:44 p	-21.4	-21.4	-21.4	---	---	19.1	SSE	0.32	21.7	-35.3	---	---	720.9	0.028	0.000	18.8	1	1
03/20/06	4:45 p	-21.4	-21.4	-21.4	---	---	18.3	SSE	0.30	20.0	-35.0	---	---	720.8	0.028	0.000	18.8	1	1
03/20/06	4:46 p	-21.4	-21.4	-21.4	---	---	18.3	SSE	0.30	19.1	-35.0	---	---	720.9	0.028	0.000	18.8	1	1
03/20/06	4:47 p	-21.4	-21.4	-21.4	---	---	18.3	SSE	0.30	20.9	-35.0	---	---	720.8	0.028	0.000	18.8	1	1
03/20/06	4:48 p	-21.4	-21.4	-21.4	---	---	19.1	SSE	0.32	21.7	-35.3	---	---	720.9	0.028	0.000	18.8	1	1
03/20/06	4:49 p	-21.4	-21.4	-21.4	---	---	19.1	SE	0.32	21.7	-35.3	---	---	720.8	0.028	0.000	18.8	1	1
03/20/06	4:50 p	-21.4	-21.4	-21.4	---	---	19.1	SE	0.32	21.7	-35.3	---	---	720.8	0.028	0.000	18.8	1	1
03/20/06	4:51 p	-21.4	-21.4	-21.4	---	---	19.1	SSE	0.32	22.6	-35.3	---	---	720.8	0.028	0.000	18.8	1	1
03/20/06	4:52 p	-21.4	-21.4	-21.4	---	---	19.1	SE	0.32	21.7	-35.3	---	---	720.9	0.028	0.000	18.8	1	1
03/20/06	4:53 p	-21.4	-21.4	-21.4	---	---	19.1	SE	0.32	20.9	-35.3	---	---	720.8	0.028	0.000	18.8	1	1
03/20/06	4:54 p	-21.4	-21.4	-21.4	---	---	18.3	SE	0.30	20.9	-35.0	---	---	720.9	0.028	0.000	18.7	1	1
03/20/06	4:55 p	-21.4	-21.4	-21.4	---	---	18.3	SE	0.30	20.9	-35.0	---	---	720.9	0.028	0.000	18.7	1	1
03/20/06	4:56 p	-21.4	-21.4	-21.4	---	---	20.0	SE	0.33	21.7	-35.4	---	---	720.9	0.028	0.000	18.7	1	1
03/20/06	4:57 p	-21.4	-21.4	-21.4	---	---	19.1	SE	0.32	20.0	-35.3	---	---	720.9	0.028	0.000	18.7	1	1
03/20/06	4:58 p	-21.4	-21.4	-21.4	---	---	19.1	SE	0.32	20.9	-35.3	---	---	721.0	0.028	0.000	18.7	1	1
03/20/06	4:59 p	-21.4	-21.4	-21.4	---	---	20.0	SE	0.33	21.7	-35.6	---	---	720.8	0.028	0.000	18.7	1	1
03/20/06	5:00 p	-21.4	-21.4	-21.4	---	---	20.9	SE	0.35	22.6	-35.7	---	---	720.9	0.028	0.000	18.7	1	1
03/20/06	5:01 p	-21.4	-21.4	-21.4	---	---	20.0	SE	0.33	22.6	-35.6	---	---	720.9	0.028	0.000	18.7	1	1
03/20/06	5:02 p	-21.4	-21.4	-21.4	---	---	19.1	SE	0.32	20.9	-35.3	---	---	721.0	0.028	0.000	18.8	1	1
03/20/06	5:03 p	-21.4	-21.4	-21.5	---	---	19.1	SE	0.32	20.9	-35.3	---	---	720.8	0.028	0.000	18.8	1	1
03/20/06	5:04 p	-21.4	-21.4	-21.4	---	---	19.1	SE	0.32	20.0	-35.3	---	---	720.9	0.028	0.000	18.8	1	1
03/20/06	5:05 p	-21.4	-21.4	-21.4	---	---	19.1	SE	0.32	21.7	-35.2	---	---	720.9	0.028	0.000	18.8	1	1
03/20/06	5:06 p	-21.4	-21.4	-21.5	---	---	19.1	SE	0.32	20.9	-35.3	---	---	721.0	0.028	0.000	18.8	1	1
03/20/06	5:07 p	-21.4	-21.4	-21.4	---	---	18.3	SE	0.30	18.3	-35.0	---	---	721.0	0.028	0.000	18.8	1	1
03/20/06	5:08 p	-21.4	-21.4	-21.4	---	---	19.1	SE	0.32	20.0	-35.3	---	---	720.9	0.028	0.000	18.8	1	1
03/20/06	5:09 p	-21.4	-21.4	-21.4	---	---	19.1	SE	0.32	20.0	-35.3	---	---	721.0	0.028	0.000	18.8	1	1
03/20/06	5:10 p	-21.4	-21.4	-21.4	---	---	18.3	SE	0.30	20.0	-35.0	---	---	721.0	0.028	0.000	18.8	1	1
03/20/06	5:11 p	-21.4	-21.4	-21.4	---	---	20.0	SE	0.33	20.9	-35.6	---	---	720.9	0.028	0.000	18.8	1	1
03/20/06	5:12 p	-21.4	-21.4	-21.4	---	---	18.3	SE	0.30	20.0	-35.0	---	---	720.9	0.028	0.000	18.8	1	1
03/20/06	5:13 p	-21.4	-21.4	-21.4	---	---	18.3	SE	0.30	21.7	-35.0	---	---	720.9	0.028	0.000	18.8	1	1
03/20/06	5:14 p	-21.4	-21.4	-21.4	---	---	19.1	SE	0.32	20.9	-35.3	---	---	720.9	0.028	0.000	18.8	1	1
03/20/06	5:15 p	-21.4	-21.4	-21.4	---	---	18.3	SE	0.30	20.0	-35.0	---	---	721.1	0.028	0.000	18.8	1	1
03/20/06	5:16 p	-21.4	-21.4	-21.4	---	---	18.3	SE	0.30	20.9	-35.0	---	---	721.0	0.028	0.000	18.8	1	1
03/20/06	5:17 p	-21.4	-21.4	-21.4	---	---	18.3	SE	0.30	19.1	-35.0	---	---	721.0	0.028	0.000	18.8	1	1
03/20/06	5:18 p	-21.4	-21.4	-21.4	---	---	19.1	SE	0.32	20.0	-35.2	---	---	720.9	0.028	0.000	18.8	1	1
03/20/06	5:19 p	-21.4	-21.4	-21.4	---	---	19.1	SE	0.32	20.0	-35.3	---	---	721.0	0.028	0.000	18.8	1	1
03/20/06	5:20 p	-21.4	-21.4	-21.4	---	---	19.1	SE	0.32	20.9	-35.2	---	---	721.1	0.028	0.000	18.8	1	1
03/20/06	5:21 p	-21.4	-21.4	-21.4	---	---	19.1	SE	0.32	20.9	-35.3	---	---	721.0	0.028	0.000	18.8	1	1
03/20/06	5:22 p	-21.4	-21.4	-21.4	---	---	18.3	SE	0.30	20.0	-35.0	---	---	721.0	0.028	0.000	18.8	1	1
03/20/06	5:23 p	-21.4	-21.4	-21.4	---	---	18.3	SE	0.30	19.1	-35.0	---	---	721.0	0.028	0.000	18.8	1	1
03/20/06	5:24 p	-21.4	-21.4	-21.4	---	---	17.4	SE	0.29	20.9	-34.7	---	---	721.0	0.028	0.000	18.8	1	1
03/20/06	5:25 p	-21.4	-21.4	-21.4	---	---	20.0	SE	0.33	20.9	-35.4	---	---	721.0	0.028	0.000	18.8	1	1
03/20/06	5:26 p	-21.4	-21.4	-21.4	---	---	20.0	SE	0.33	21.7	-35.4	---	---	721.0	0.028	0.000	18.8	1	1
03/20/06	5:27 p	-21.4	-21.4	-21.4	---	---	20.0	SE	0.33	20.9	-35.6	---	---	720.9	0.028	0.000	18.8	1	1
03/20/06	5:28 p	-21.4	-21.4	-21.4	---	---	20.0	SE	0.33	20.9	-35.6	---	---	720.9	0.028	0.000	18.8	1	1
03/20/06	5:29 p	-21.4	-21.4	-21.4	---	---	19.1	SE	0.32	20.0	-35.3	---	---	721.0	0.028	0.000	18.8	1	1
03/20/06	5:30 p	-21.4	-21.4	-21.4	---	---	20.9	SE	0.35	23.5	-35.7	---	---	721.0	0.028	0.000	18.8	1	1
03/20/06	5:31 p	-21.4	-21.4	-21.4	---	---	20.9	SE	0.35	22.6	-35.8	---	---	721.0	0.028	0.000	18.8	1	1
03/20/06	5:32 p	-21.4	-21.4	-21.4	---	---	20.0	SE	0.33	21.7	-35.6	---	---	721.0	0.028	0.000	18.8	1	1
03/20/06	5:33 p	-21.4	-21.4	-21.4	---	---	20.0	SE	0.33	22.6	-35.4	---	---	721.0	0.028	0.000	18.8	1	1
03/20/06	5:34 p	-21.4	-21.4	-21.4	---	---	19.1	SE	0.32	20.9	-35.3	---	---	721.0	0.028	0.000	18.8	1	1
03/20/06	5:35 p	-21.4	-21.4	-21.4	---	---	20.9	SE	0.35	23.5	-35.7	---	---	720.9	0.028	0.000	18.8	1	1
03/20/06	5:36 p	-21.4	-21.4	-21.4	---	---	20.9	SE	0.35	23.5	-35.8	---	---	720.9	0.028	0.000	18.8	1	1
03/20/06	5:37 p	-21.4	-21.4	-21.4	---	---	21.7	SE	0.36	26.1	-35.9	---	---	720.9	0.028	0.000	18.8	1	1
03/20/06	5:38 p	-21.4	-21.4	-21.4	---	---	20.9	SE	0.35	22.6	-35.7	---	---	721.0	0.028	0.000	18.8	1	1
03/20/06	5:39 p	-21.4	-21.4	-21.4	---	---	20.0	SE	0.33	20.9	-35.4	---	---	720.9	0.028	0.000	18.8	1	1
03/20/06	5:40 p	-21.4	-21.4	-21.4	---	---	20.0	SE	0.33	21.7	-35.4	---	---	721.0	0.028	0.000	18.8	1	1
03/20/06	5:41 p	-21.4	-21.4	-21.4	---	---	20.0	SE	0.33	20.9	-35.4	---	---	720.9	0.028	0.000	18.8	1	1
03/20/06	5:42 p	-21.4	-21.4	-21.4	---	---	20.0	SE	0.33	21.7	-35.4	---	---	720.9	0.028	0.000	18.8	1	1
03/20/06	5:43 p	-21.4	-21.4	-21.4	---	---	20.0	SE	0.33	20.9	-35.4	---	---	721.0	0.028	0.000	18.8	1	1
03/20/06	5:44 p	-21.4	-21.4	-21.4	---	---	20.0	SE	0.33	21.7	-35.4	---	---	721.0	0.028	0.000	18.8	1	1
03/20/06	5:45 p	-21.4	-21.4	-21.4	---	---	19.1	SE	0.32	20.9	-35.2	---	---	721.0	0.028	0.000	18.8	1	1
03/20/06	5:46 p	-21.4	-21.4	-21.4	---	---	19.1	SE	0.32	20.9	-35.2	---	---	721.0	0.028	0.000	18.8	1	1
03/20/06	5:47 p	-21.4	-21.4	-21.4	---	---	18.3	SE	0.30	19.1	-34.9	---	---	721.0	0.028	0.000	18.8	1	1
03/20/06	5:48 p	-21.4	-21.4	-21.4	---	---	18.3	SE	0.30	20.0	-34.9	---	---	721.0	0.028	0.000	18.8	1	1
03/20/06	5:49 p	-21.4	-21.4	-21.4	---	---	19.1	SE	0.32	20.9	-35.2	---	---	721.0	0.028	0.000	18.8	1	1
03/20/06	5:50 p	-21.4	-21.4	-21.4	---	---	19.1	SE	0.32	20.9	-35.2	---	---	721.0	0.028	0.000	18.8	1	1
03/20/06	5:51 p	-21.4	-21.4	-21.4	---	---	19.1	SE	0.32	21.7	-35.2	---	---	721.0	0.028	0.000	18.8	1	1
03/20/06	5:52 p	-21.4	-21.4	-21.4	---	---	19.1	SE	0.32	20.9	-35.2	---	---	721.0	0.028	0.000	18.8	1	1
03/20/06	5:53 p	-21.4	-21.4	-21.4	---	---	20.0	SE	0.33	21.7	-35.4	---	---	721.1	0.028	0.000	18.8	1	1
03/20/06	5:54 p	-21.4	-21.4	-21.4	---	---	20.9	SE	0.35	21.7	-35.7	---	---	721.0	0.028	0.000	18.8	1	1
03/20/06	5:55 p	-21.4	-21.4	-21.4	---	---	19.1	SE	0.32	20.9	-35.2	---	---	721.1	0.028	0.000	18.8	1	1
03/20/06	5:56 p	-21.4	-21.4	-21.4	---	---	20.0	SE	0.33	20.9	-35.4	---	---	721.0	0.028	0.000	18.7	1	1
03/20/06	5:57 p	-21.4	-21.4	-21.4	---	---	19.1	SE	0.32	20.0	-35.2	---	---	721.1	0.028	0.000	18.7	1	1
03/20/06	5:58 p	-21.4	-21.4	-21.4	---	---	18.3	SE	0.30	20.9	-34.9	---	---	721.1	0.028	0.000	18.7	1	1
03/20/06	5:59 p	-21.4	-21.4	-21.4	---	---	20.0	SE	0.33	22.6	-35.4	---	---	721.0	0.028	0.000	18.7	1	1
03/20/06	6:00 p	-21.4	-21.4	-21.4	---	---	22.6	SE	0.38	24.3	-36.2	---	---	721.0	0.028	0.000	18.7	1	1
03/20/06	6:01 p	-21.4	-21.4	-21.4	---	---	20.0	SE	0.33	22.6	-35.6	---	---	721.2	0.028	0.000	18.7	1	1
03/20/06	6:02 p	-21.4	-21.4	-21.4	---	---	20.0	SE	0.33	22.6	-35.4	---	---	721.1	0.028	0.000	18.7	1	1
03/20/06	6:03 p	-21.4	-21.4	-21.4	---	---	20.0	SE	0.33	21.7	-35.4	---	---	721.1	0.028	0.000	18.7	1	1
03/20/06	6:04 p	-21.4	-21.4	-21.4	---	---	20.9	SE	0.35	22.6	-35.7	---	---	721.2	0.028	0.000	18.7	1	1
03/20/06	6:05 p	-21.4	-21.4	-21.4	---	---	20.9	SE	0.35	22.6	-35.7	---	---	721.2	0.028	0.000	18.7	1	1
03/20/06	6:06 p	-21.4	-21.4	-21.4	---	---	20.0	SE	0.33	21.7	-35.6	---	---	721.2	0.028	0.000	18.7	1	1
03/20/06	6:07 p	-21.4	-21.4	-21.4	---	---	20.9	SE	0.35	22.6	-35.7	---	---	721.1	0.028	0.000	18.7	1	1
03/20/06	6:08 p	-21.4	-21.4	-21.4	---	---	20.0	SE	0.33	22.6	-35.4	---	---	721.3	0.028	0.000	18.7	1	1
03/20/06	6:09 p	-21.4	-21.4	-21.4	---	---	18.3	SE	0.30	20.0	-34.9	---	---	721.3	0.028	0.000	18.7	1	1
03/20/06	6:10 p	-21.4	-21.4	-21.4	---	---	18.3	SE	0.30	19.1	-34.9	---	---	721.3	0.028	0.000	18.7	1	1
03/20/06	6:11 p	-21.4	-21.4	-21.4	---	---	20.0	SE	0.33	20.9	-35.4	---	---	721.2	0.028	0.000	18.7	1	1
03/20/06	6:12 p	-21.4	-21.4	-21.4	---	---	19.1	SE	0.32	20.9	-35.3	---	---	721.2	0.028	0.000	18.7	1	1
03/20/06	6:13 p	-21.4	-21.4	-21.4	---	---	18.3	SE	0.30	20.0	-35.0	---	---	721.2	0.028	0.000	18.7	1	1
03/20/06	6:14 p	-21.4	-21.4	-21.4	---	---	18.3	SE	0.30	19.1	-34.9	---	---	721.3	0.028	0.000	18.7	1	1
03/20/06	6:15 p	-21.4	-21.4	-21.4	---	---	18.3	SE	0.30	20.0	-35.0	---	---	721.2	0.028	0.000	18.7	1	1
03/20/06	6:16 p	-21.4	-21.4	-21.4	---	---	18.3	SE	0.30	19.1	-35.0	---	---	721.3	0.028	0.000	18.7	1	1
03/20/06	6:17 p	-21.4	-21.4	-21.4	---	---	18.3	SE	0.30	19.1	-35.0	---	---	721.4	0.028	0.000	18.7	1	1
03/20/06	6:18 p	-21.4	-21.4	-21.4	---	---	18.3	SE	0.30	19.1	-34.9	---	---	721.3	0.028	0.000	18.7	1	1
03/20/06	6:19 p	-21.4	-21.4	-21.4	---	---	18.3	SE	0.30	18.3	-34.9	---	---	721.4	0.028	0.000	18.7	1	1
03/20/06	6:20 p	-21.4	-21.4	-21.4	---	---	17.4	SE	0.29	18.3	-34.8	---	---	721.4	0.028	0.000	18.7	1	1
03/20/06	6:21 p	-21.4	-21.4	-21.4	---	---	17.4	SE	0.29	18.3	-34.8	---	---	721.4	0.028	0.000	18.7	1	1
03/20/06	6:22 p	-21.4	-21.4	-21.4	---	---	17.4	SE	0.29	18.3	-34.8	---	---	721.4	0.028	0.000	18.7	1	1
03/20/06	6:23 p	-21.4	-21.4	-21.4	---	---	17.4	SE	0.29	19.1	-34.7	---	---	721.4	0.028	0.000	18.7	1	1
03/20/06	6:24 p	-21.4	-21.4	-21.4	---	---	16.5	SE	0.28	17.4	-34.4	---	---	721.5	0.028	0.000	18.7	1	1
03/20/06	6:25 p	-21.4	-21.4	-21.4	---	---	14.8	SE	0.25	16.5	-33.8	---	---	721.5	0.028	0.000	18.7	1	1
03/20/06	6:26 p	-21.4	-21.4	-21.4	---	---	14.8	SE	0.25	15.7	-33.8	---	---	721.5	0.028	0.000	18.7	1	1
03/20/06	6:27 p	-21.4	-21.4	-21.4	---	---	15.7	SE	0.26	16.5	-34.1	---	---	721.5	0.028	0.000	18.7	1	1
03/20/06	6:28 p	-21.4	-21.4	-21.4	---	---	14.8	SE	0.25	15.7	-33.9	---	---	721.5	0.028	0.000	18.7	1	1
03/20/06	6:29 p	-21.4	-21.4	-21.4	---	---	14.8	SE	0.25	14.8	-33.9	---	---	721.5	0.028	0.000	18.7	1	1
03/20/06	6:30 p	-21.4	-21.4	-21.4	---	---	14.8	SE	0.25	15.7	-33.9	---	---	721.5	0.028	0.000	18.7	1	1
03/20/06	6:31 p	-21.4	-21.4	-21.4	---	---	14.8	SE	0.25	15.7	-33.8	---	---	721.5	0.028	0.000	18.7	1	1
03/20/06	6:32 p	-21.4	-21.4	-21.4	---	---	14.8	SE	0.25	15.7	-33.9	---	---	721.5	0.028	0.000	18.8	1	1
03/20/06	6:33 p	-21.4	-21.4	-21.4	---	---	14.8	SE	0.25	15.7	-33.9	---	---	721.5	0.028	0.000	18.8	1	1
03/20/06	6:34 p	-21.4	-21.4	-21.4	---	---	14.8	SE	0.25	14.8	-33.9	---	---	721.5	0.028	0.000	18.8	1	1
03/20/06	6:35 p	-21.4	-21.4	-21.4	---	---	14.8	SE	0.25	15.7	-33.9	---	---	721.5	0.028	0.000	18.8	1	1
03/20/06	6:36 p	-21.4	-21.4	-21.4	---	---	14.8	SE	0.25	15.7	-33.9	---	---	721.6	0.028	0.000	18.8	1	1
03/20/06	6:37 p	-21.4	-21.4	-21.4	---	---	14.8	SE	0.25	15.7	-33.9	---	---	721.6	0.028	0.000	18.8	1	1
03/20/06	6:38 p	-21.4	-21.4	-21.4	---	---	13.9	SE	0.23	14.8	-33.6	---	---	721.6	0.028	0.000	18.8	1	1
03/20/06	6:39 p	-21.4	-21.4	-21.4	---	---	13.9	SE	0.23	14.8	-33.6	---	---	721.6	0.028	0.000	18.8	1	1
03/20/06	6:40 p	-21.4	-21.4	-21.4	---	---	13.9	SE	0.23	14.8	-33.6	---	---	721.6	0.028	0.000	18.8	1	1
03/20/06	6:41 p	-21.4	-21.4	-21.4	---	---	13.9	SE	0.23	14.8	-33.6	---	---	721.5	0.028	0.000	18.8	1	1
03/20/06	6:42 p	-21.4	-21.4	-21.4	---	---	13.0	SE	0.22	14.8	-33.2	---	---	721.6	0.028	0.000	18.8	1	1
03/20/06	6:43 p	-21.4	-21.4	-21.4	---	---	13.9	SE	0.23	14.8	-33.6	---	---	721.6	0.028	0.000	18.8	1	1
03/20/06	6:44 p	-21.4	-21.4	-21.4	---	---	13.0	SE	0.22	13.9	-33.2	---	---	721.5	0.028	0.000	18.8	1	1
03/20/06	6:45 p	-21.4	-21.4	-21.4	---	---	13.0	SE	0.22	13.9	-33.2	---	---	721.6	0.028	0.000	18.8	1	1
03/20/06	6:46 p	-21.4	-21.4	-21.4	---	---	12.2	SE	0.20	13.0	-32.8	---	---	721.6	0.028	0.000	18.8	1	1
03/20/06	6:47 p	-21.4	-21.4	-21.4	---	---	13.0	SE	0.22	13.9	-33.2	---	---	721.6	0.028	0.000	18.8	1	1
03/20/06	6:48 p	-21.4	-21.4	-21.4	---	---	13.0	SE	0.22	13.9	-33.2	---	---	721.7	0.028	0.000	18.8	1	1
03/20/06	6:49 p	-21.4	-21.4	-21.4	---	---	13.0	SE	0.22	13.0	-33.2	---	---	721.7	0.028	0.000	18.8	1	1
03/20/06	6:50 p	-21.4	-21.4	-21.4	---	---	12.2	SE	0.20	13.9	-32.8	---	---	721.6	0.028	0.000	18.8	1	1
03/20/06	6:51 p	-21.4	-21.4	-21.4	---	---	13.0	SE	0.22	13.0	-33.2	---	---	721.6	0.028	0.000	18.8	1	1
03/20/06	6:52 p	-21.4	-21.4	-21.4	---	---	13.9	SE	0.23	14.8	-33.6	---	---	721.7	0.028	0.000	18.8	1	1
03/20/06	6:53 p	-21.4	-21.4	-21.4	---	---	13.9	SE	0.23	14.8	-33.6	---	---	721.7	0.028	0.000	18.8	1	1
03/20/06	6:54 p	-21.4	-21.4	-21.4	---	---	13.9	SE	0.23	14.8	-33.6	---	---	721.6	0.028	0.000	18.8	1	1
03/20/06	6:55 p	-21.4	-21.4	-21.4	---	---	13.9	SE	0.23	15.7	-33.6	---	---	721.6	0.028	0.000	18.8	1	1
03/20/06	6:56 p	-21.4	-21.4	-21.4	---	---	14.8	SE	0.25	15.7	-33.9	---	---	721.7	0.028	0.000	18.8	1	1
03/20/06	6:57 p	-21.4	-21.4	-21.4	---	---	13.9	ESE	0.23	15.7	-33.6	---	---	721.6	0.028	0.000	18.8	1	1
03/20/06	6:58 p	-21.4	-21.4	-21.4	---	---	13.0	ESE	0.22	14.8	-33.1	---	---	721.6	0.028	0.000	18.8	1	1
03/20/06	6:59 p	-21.4	-21.4	-21.4	---	---	13.9	ESE	0.23	17.4	-33.4	---	---	721.6	0.028	0.000	18.8	1	1
03/20/06	7:00 p	-21.4	-21.4	-21.4	---	---	13.0	ESE	0.22	14.8	-33.2	---	---	721.6	0.028	0.000	18.8	1	1
03/20/06	7:01 p	-21.4	-21.4	-21.4	---	---	13.0	ESE	0.22	13.9	-33.2	---	---	721.6	0.028	0.000	18.8	1	1
03/20/06	7:02 p	-21.4	-21.4	-21.4	---	---	13.0	ESE	0.22	14.8	-33.1	---	---	721.7	0.028	0.000	18.8	1	1
03/20/06	7:03 p	-21.4	-21.4	-21.4	---	---	12.2	ESE	0.20	13.9	-32.8	---	---	721.6	0.028	0.000	18.8	1	1
03/20/06	7:04 p	-21.4	-21.4	-21.4	---	---	13.0	ESE	0.22	14.8	-33.2	---	---	721.7	0.028	0.000	18.7	1	1
03/20/06	7:05 p	-21.4	-21.4	-21.4	---	---	13.0	ESE	0.22	13.9	-33.2	---	---	721.7	0.028	0.000	18.7	1	1
03/20/06	7:06 p	-21.4	-21.4	-21.4	---	---	12.2	ESE	0.20	13.0	-32.8	---	---	721.7	0.028	0.000	18.7	1	1
03/20/06	7:07 p	-21.4	-21.4	-21.4	---	---	13.0	ESE	0.22	13.0	-33.1	---	---	721.7	0.028	0.000	18.7	1	1
03/20/06	7:08 p	-21.4	-21.4	-21.4	---	---	13.0	ESE	0.22	13.0	-33.1	---	---	721.7	0.028	0.000	18.7	1	1
03/20/06	7:09 p	-21.4	-21.4	-21.4	---	---	13.0	ESE	0.22	13.9	-33.2	---	---	721.7	0.028	0.000	18.7	1	1
03/20/06	7:10 p	-21.4	-21.4	-21.4	---	---	12.2	ESE	0.20	13.0	-32.8	---	---	721.7	0.028	0.000	18.7	1	1
03/20/06	7:11 p	-21.4	-21.4	-21.4	---	---	12.2	ESE	0.20	13.0	-32.8	---	---	721.6	0.028	0.000	18.7	1	1
03/20/06	7:12 p	-21.4	-21.4	-21.4	---	---	12.2	ESE	0.20	13.0	-32.8	---	---	721.7	0.028	0.000	18.7	1	1
03/20/06	7:13 p	-21.4	-21.4	-21.4	---	---	13.0	ESE	0.22	13.0	-33.2	---	---	721.7	0.028	0.000	18.7	1	1
03/20/06	7:14 p	-21.4	-21.4	-21.4	---	---	13.0	ESE	0.22	13.0	-33.2	---	---	721.7	0.028	0.000	18.7	1	1
03/20/06	7:15 p	-21.4	-21.4	-21.4	---	---	13.0	ESE	0.22	13.0	-33.2	---	---	721.7	0.028	0.000	18.7	1	1
03/20/06	7:16 p	-21.4	-21.4	-21.4	---	---	13.0	ESE	0.22	13.0	-33.2	---	---	721.7	0.028	0.000	18.7	1	1
03/20/06	7:17 p	-21.4	-21.4	-21.5	---	---	13.0	ESE	0.22	13.9	-33.2	---	---	721.7	0.028	0.000	18.7	1	1
03/20/06	7:18 p	-21.5	-21.4	-21.5	---	---	13.0	ESE	0.22	14.8	-33.3	---	---	721.6	0.028	0.000	18.7	1	1
03/20/06	7:19 p	-21.5	-21.4	-21.5	---	---	13.9	ESE	0.23	14.8	-33.6	---	---	721.6	0.028	0.000	18.7	1	1
03/20/06	7:20 p	-21.5	-21.4	-21.5	---	---	13.9	ESE	0.23	13.9	-33.6	---	---	721.7	0.028	0.000	18.8	1	1
03/20/06	7:21 p	-21.5	-21.5	-21.5	---	---	13.0	ESE	0.22	14.8	-33.3	---	---	721.6	0.028	0.000	18.8	1	1
03/20/06	7:22 p	-21.4	-21.4	-21.5	---	---	13.0	ESE	0.22	13.9	-33.2	---	---	721.7	0.028	0.000	18.8	1	1
03/20/06	7:23 p	-21.5	-21.4	-21.5	---	---	13.0	ESE	0.22	14.8	-33.3	---	---	721.7	0.028	0.000	18.8	1	1
03/20/06	7:24 p	-21.5	-21.4	-21.5	---	---	13.0	ESE	0.22	14.8	-33.3	---	---	721.7	0.028	0.000	18.8	1	1
03/20/06	7:25 p	-21.5	-21.4	-21.5	---	---	13.0	ESE	0.22	13.9	-33.3	---	---	721.7	0.028	0.000	18.8	1	1
03/20/06	7:26 p	-21.5	-21.5	-21.5	---	---	13.9	ESE	0.23	15.7	-33.6	---	---	721.7	0.028	0.000	18.8	1	1
03/20/06	7:27 p	-21.5	-21.5	-21.5	---	---	13.9	ESE	0.23	16.5	-33.6	---	---	721.8	0.028	0.000	18.8	1	1
03/20/06	7:28 p	-21.5	-21.5	-21.5	---	---	13.9	ESE	0.23	14.8	-33.6	---	---	721.7	0.028	0.000	18.8	1	1
03/20/06	7:29 p	-21.5	-21.5	-21.5	---	---	13.9	ESE	0.23	15.7	-33.6	---	---	721.6	0.028	0.000	18.8	1	1
03/20/06	7:30 p	-21.5	-21.5	-21.5	---	---	13.9	ESE	0.23	16.5	-33.6	---	---	721.7	0.028	0.000	18.8	1	1
03/20/06	7:31 p	-21.5	-21.5	-21.6	---	---	14.8	ESE	0.25	15.7	-33.9	---	---	721.7	0.028	0.000	18.8	1	1
03/20/06	7:32 p	-21.5	-21.5	-21.5	---	---	14.8	ESE	0.25	15.7	-33.9	---	---	721.7	0.028	0.000	18.8	1	1
03/20/06	7:33 p	-21.5	-21.5	-21.5	---	---	13.0	ESE	0.22	14.8	-33.3	---	---	721.7	0.028	0.000	18.8	1	1
03/20/06	7:34 p	-21.5	-21.5	-21.6	---	---	13.0	ESE	0.22	14.8	-33.3	---	---	721.6	0.028	0.000	18.8	1	1
03/20/06	7:35 p	-21.5	-21.5	-21.5	---	---	13.9	ESE	0.23	14.8	-33.6	---	---	721.7	0.028	0.000	18.8	1	1
03/20/06	7:36 p	-21.5	-21.5	-21.5	---	---	13.9	ESE	0.23	15.7	-33.6	---	---	721.7	0.028	0.000	18.8	1	1
03/20/06	7:37 p	-21.5	-21.5	-21.5	---	---	13.9	ESE	0.23	15.7	-33.6	---	---	721.6	0.028	0.000	18.8	1	1
03/20/06	7:38 p	-21.5	-21.5	-21.5	---	---	14.8	ESE	0.25	14.8	-33.9	---	---	721.7	0.028	0.000	18.8	1	1
03/20/06	7:39 p	-21.5	-21.5	-21.5	---	---	15.7	ESE	0.26	16.5	-34.2	---	---	721.7	0.028	0.000	18.8	1	1
03/20/06	7:40 p	-21.5	-21.5	-21.5	---	---	14.8	ESE	0.25	15.7	-33.9	---	---	721.6	0.028	0.000	18.8	1	1
03/20/06	7:41 p	-21.5	-21.5	-21.5	---	---	14.8	ESE	0.25	15.7	-33.9	---	---	721.6	0.028	0.000	18.8	1	1
03/20/06	7:42 p	-21.5	-21.5	-21.5	---	---	13.9	ESE	0.23	15.7	-33.6	---	---	721.7	0.028	0.000	18.8	1	1
03/20/06	7:43 p	-21.5	-21.5	-21.5	---	---	13.9	ESE	0.23	14.8	-33.6	---	---	721.7	0.028	0.000	18.8	1	1
03/20/06	7:44 p	-21.5	-21.5	-21.5	---	---	13.9	ESE	0.23	14.8	-33.6	---	---	721.7	0.028	0.000	18.8	1	1
03/20/06	7:45 p	-21.5	-21.5	-21.5	---	---	13.9	E	0.23	14.8	-33.6	---	---	721.6	0.028	0.000	18.8	1	1
03/20/06	7:46 p	-21.5	-21.5	-21.5	---	---	13.0	E	0.22	14.8	-33.3	---	---	721.6	0.028	0.000	18.8	1	1
03/20/06	7:47 p	-21.5	-21.5	-21.5	---	---	13.9	E	0.23	15.7	-33.6	---	---	721.7	0.028	0.000	18.8	1	1
03/20/06	7:48 p	-21.5	-21.5	-21.6	---	---	15.7	ESE	0.26	17.4	-34.2	---	---	721.7	0.028	0.000	18.8	1	1
03/20/06	7:49 p	-21.5	-21.5	-21.5	---	---	16.5	ESE	0.28	18.3	-34.6	---	---	721.7	0.028	0.000	18.8	1	1
03/20/06	7:50 p	-21.5	-21.5	-21.5	---	---	15.7	ESE	0.26	17.4	-34.2	---	---	721.7	0.028	0.000	18.8	1	1
03/20/06	7:51 p	-21.5	-21.5	-21.5	---	---	14.8	E	0.25	15.7	-33.9	---	---	721.6	0.028	0.000	18.8	1	1
03/20/06	7:52 p	-21.5	-21.4	-21.5	---	---	14.8	E	0.25	16.5	-33.9	---	---	721.6	0.028	0.000	18.8	1	1
03/20/06	7:53 p	-21.5	-21.5	-21.5	---	---	14.8	ESE	0.25	15.7	-33.9	---	---	721.5	0.028	0.000	18.8	1	1
03/20/06	7:54 p	-21.5	-21.4	-21.5	---	---	15.7	E	0.26	17.4	-34.2	---	---	721.5	0.028	0.000	18.8	1	1
03/20/06	7:55 p	-21.5	-21.4	-21.5	---	---	15.7	ESE	0.26	17.4	-34.2	---	---	721.6	0.028	0.000	18.8	1	1
03/20/06	7:56 p	-21.5	-21.5	-21.5	---	---	15.7	ESE	0.26	16.5	-34.2	---	---	721.5	0.028	0.000	18.8	1	1
03/20/06	7:57 p	-21.4	-21.4	-21.5	---	---	15.7	ESE	0.26	17.4	-34.2	---	---	721.6	0.028	0.000	18.8	1	1
03/20/06	7:58 p	-21.5	-21.4	-21.5	---	---	15.7	ESE	0.26	16.5	-34.2	---	---	721.6	0.028	0.000	18.8	1	1
03/20/06	7:59 p	-21.4	-21.4	-21.5	---	---	15.7	E	0.26	17.4	-34.2	---	---	721.6	0.028	0.000	18.8	1	1
03/20/06	8:00 p	-21.4	-21.4	-21.4	---	---	14.8	E	0.25	17.4	-33.9	---	---	721.6	0.028	0.000	18.8	1	1
03/20/06	8:01 p	-21.4	-21.4	-21.5	---	---	13.9	E	0.23	15.7	-33.6	---	---	721.6	0.028	0.000	18.8	1	1
03/20/06	8:02 p	-21.4	-21.4	-21.5	---	---	14.8	E	0.25	15.7	-33.9	---	---	721.7	0.028	0.000	18.8	1	1
03/20/06	8:03 p	-21.5	-21.4	-21.5	---	---	13.9	E	0.23	15.7	-33.6	---	---	721.7	0.028	0.000	18.8	1	1
03/20/06	8:04 p	-21.4	-21.4	-21.4	---	---	13.9	E	0.23	16.5	-33.6	---	---	721.6	0.028	0.000	18.8	1	1
03/20/06	8:05 p	-21.4	-21.4	-21.5	---	---	13.9	E	0.23	15.7	-33.6	---	---	721.7	0.028	0.000	18.8	1	1
03/20/06	8:06 p	-21.4	-21.4	-21.4	---	---	13.9	E	0.23	16.5	-33.6	---	---	721.6	0.028	0.000	18.8	1	1
03/20/06	8:07 p	-21.4	-21.4	-21.4	---	---	13.0	E	0.22	16.5	-33.2	---	---	721.7	0.028	0.000	18.8	1	1
03/20/06	8:08 p	-21.4	-21.4	-21.4	---	---	13.9	E	0.23	16.5	-33.6	---	---	721.7	0.028	0.000	18.8	1	1
03/20/06	8:09 p	-21.4	-21.4	-21.4	---	---	13.0	E	0.22	15.7	-33.2	---	---	721.7	0.028	0.000	18.8	1	1
03/20/06	8:10 p	-21.4	-21.4	-21.4	---	---	11.3	E	0.19	13.0	-32.4	---	---	721.7	0.028	0.000	18.8	1	1
03/20/06	8:11 p	-21.4	-21.4	-21.4	---	---	13.0	E	0.22	16.5	-33.2	---	---	721.7	0.028	0.000	18.7	1	1
03/20/06	8:12 p	-21.4	-21.4	-21.4	---	---	12.2	E	0.20	13.9	-32.8	---	---	721.7	0.028	0.000	18.7	1	1
03/20/06	8:13 p	-21.4	-21.4	-21.5	---	---	13.0	E	0.22	14.8	-33.2	---	---	721.6	0.028	0.000	18.7	1	1
03/20/06	8:14 p	-21.5	-21.4	-21.5	---	---	12.2	E	0.20	14.8	-32.9	---	---	721.7	0.028	0.000	18.7	1	1
03/20/06	8:15 p	-21.4	-21.4	-21.4	---	---	12.2	E	0.20	13.9	-32.8	---	---	721.7	0.028	0.000	18.7	1	1
03/20/06	8:16 p	-21.5	-21.5	-21.5	---	---	13.0	E	0.22	13.9	-33.3	---	---	721.7	0.028	0.000	18.7	1	1
03/20/06	8:17 p	-21.5	-21.4	-21.5	---	---	12.2	E	0.20	13.9	-32.9	---	---	721.7	0.028	0.000	18.7	1	1
03/20/06	8:18 p	-21.5	-21.4	-21.5	---	---	12.2	E	0.20	13.9	-32.9	---	---	721.7	0.028	0.000	18.7	1	1
03/20/06	8:19 p	-21.5	-21.4	-21.5	---	---	12.2	E	0.20	14.8	-32.9	---	---	721.8	0.028	0.000	18.7	1	1
03/20/06	8:20 p	-21.5	-21.4	-21.5	---	---	13.0	ESE	0.22	14.8	-33.3	---	---	721.7	0.028	0.000	18.7	1	1
03/20/06	8:21 p	-21.5	-21.5	-21.5	---	---	13.0	E	0.22	15.7	-33.3	---	---	721.7	0.028	0.000	18.7	1	1
03/20/06	8:22 p	-21.5	-21.5	-21.5	---	---	13.0	E	0.22	15.7	-33.3	---	---	721.8	0.028	0.000	18.7	1	1
03/20/06	8:23 p	-21.5	-21.5	-21.5	---	---	13.0	E	0.22	14.8	-33.3	---	---	721.7	0.028	0.000	18.7	1	1
03/20/06	8:24 p	-21.5	-21.4	-21.5	---	---	13.9	E	0.23	16.5	-33.6	---	---	721.8	0.028	0.000	18.7	1	1
03/20/06	8:25 p	-21.5	-21.4	-21.5	---	---	15.7	E	0.26	18.3	-34.2	---	---	721.7	0.028	0.000	18.7	1	1
03/20/06	8:26 p	-21.4	-21.4	-21.5	---	---	13.9	E	0.23	17.4	-33.6	---	---	721.7	0.028	0.000	18.7	1	1
03/20/06	8:27 p	-21.5	-21.4	-21.5	---	---	15.7	E	0.26	17.4	-34.2	---	---	721.7	0.028	0.000	18.7	1	1
03/20/06	8:28 p	-21.5	-21.4	-21.5	---	---	13.9	E	0.23	15.7	-33.6	---	---	721.8	0.028	0.000	18.7	1	1
03/20/06	8:29 p	-21.4	-21.4	-21.4	---	---	13.9	E	0.23	14.8	-33.6	---	---	721.7	0.028	0.000	18.8	1	1
03/20/06	8:30 p	-21.4	-21.4	-21.4	---	---	15.7	E	0.26	18.3	-34.2	---	---	721.7	0.028	0.000	18.8	1	1
03/20/06	8:31 p	-21.4	-21.4	-21.4	---	---	14.8	E	0.25	17.4	-33.9	---	---	721.7	0.028	0.000	18.8	1	1
03/20/06	8:32 p	-21.4	-21.4	-21.4	---	---	13.9	E	0.23	16.5	-33.6	---	---	721.7	0.028	0.000	18.8	1	1
03/20/06	8:33 p	-21.4	-21.4	-21.4	---	---	13.9	E	0.23	15.7	-33.6	---	---	721.7	0.028	0.000	18.8	1	1
03/20/06	8:34 p	-21.4	-21.4	-21.4	---	---	14.8	E	0.25	15.7	-33.9	---	---	721.7	0.028	0.000	18.8	1	1
03/20/06	8:35 p	-21.4	-21.4	-21.4	---	---	13.9	E	0.23	15.7	-33.6	---	---	721.8	0.028	0.000	18.8	1	1
03/20/06	8:36 p	-21.4	-21.4	-21.4	---	---	13.9	E	0.23	16.5	-33.4	---	---	721.9	0.028	0.000	18.8	1	1
03/20/06	8:37 p	-21.4	-21.4	-21.4	---	---	14.8	E	0.25	16.5	-33.9	---	---	721.8	0.028	0.000	18.8	1	1
03/20/06	8:38 p	-21.4	-21.4	-21.4	---	---	14.8	E	0.25	16.5	-33.8	---	---	721.8	0.028	0.000	18.8	1	1
03/20/06	8:39 p	-21.4	-21.4	-21.4	---	---	15.7	E	0.26	17.4	-34.1	---	---	721.7	0.028	0.000	18.8	1	1
03/20/06	8:40 p	-21.4	-21.4	-21.4	---	---	14.8	E	0.25	17.4	-33.9	---	---	721.8	0.028	0.000	18.8	1	1
03/20/06	8:41 p	-21.4	-21.4	-21.4	---	---	15.7	E	0.26	16.5	-34.2	---	---	721.8	0.028	0.000	18.8	1	1
03/20/06	8:42 p	-21.4	-21.4	-21.4	---	---	14.8	E	0.25	16.5	-33.9	---	---	721.8	0.028	0.000	18.8	1	1
03/20/06	8:43 p	-21.4	-21.4	-21.4	---	---	14.8	E	0.25	16.5	-33.9	---	---	721.8	0.028	0.000	18.8	1	1
03/20/06	8:44 p	-21.4	-21.4	-21.4	---	---	14.8	E	0.25	17.4	-33.9	---	---	721.8	0.028	0.000	18.8	1	1
03/20/06	8:45 p	-21.4	-21.4	-21.4	---	---	13.9	E	0.23	16.5	-33.6	---	---	721.8	0.028	0.000	18.8	1	1
03/20/06	8:46 p	-21.4	-21.4	-21.4	---	---	13.9	E	0.23	15.7	-33.6	---	---	721.9	0.028	0.000	18.8	1	1
03/20/06	8:47 p	-21.4	-21.4	-21.4	---	---	13.0	E	0.22	14.8	-33.1	---	---	721.8	0.028	0.000	18.8	1	1
03/20/06	8:48 p	-21.4	-21.4	-21.4	---	---	12.2	E	0.20	14.8	-32.8	---	---	721.8	0.028	0.000	18.8	1	1
03/20/06	8:49 p	-21.4	-21.4	-21.4	---	---	12.2	E	0.20	13.9	-32.8	---	---	721.8	0.028	0.000	18.8	1	1
03/20/06	8:50 p	-21.4	-21.4	-21.4	---	---	13.0	E	0.22	15.7	-33.2	---	---	721.8	0.028	0.000	18.8	1	1
03/20/06	8:51 p	-21.4	-21.4	-21.4	---	---	12.2	E	0.20	14.8	-32.8	---	---	721.8	0.028	0.000	18.8	1	1
03/20/06	8:52 p	-21.4	-21.4	-21.4	---	---	12.2	E	0.20	14.8	-32.8	---	---	721.8	0.028	0.000	18.8	1	1
03/20/06	8:53 p	-21.4	-21.4	-21.4	---	---	13.0	E	0.22	16.5	-33.2	---	---	721.9	0.028	0.000	18.9	1	1
03/20/06	8:54 p	-21.4	-21.4	-21.4	---	---	15.7	E	0.26	19.1	-34.2	---	---	721.8	0.028	0.000	18.9	1	1
03/20/06	8:55 p	-21.4	-21.4	-21.4	---	---	13.0	E	0.22	16.5	-33.2	---	---	721.8	0.028	0.000	18.9	1	1
03/20/06	8:56 p	-21.4	-21.4	-21.4	---	---	13.9	E	0.23	18.3	-33.6	---	---	721.9	0.028	0.000	18.9	1	1
03/20/06	8:57 p	-21.4	-21.4	-21.4	---	---	13.0	E	0.22	17.4	-33.2	---	---	721.9	0.028	0.000	18.9	1	1
03/20/06	8:58 p	-21.4	-21.4	-21.4	---	---	13.0	E	0.22	16.5	-33.1	---	---	721.8	0.028	0.000	18.9	1	1
03/20/06	8:59 p	-21.4	-21.4	-21.4	---	---	13.0	E	0.22	15.7	-33.1	---	---	721.7	0.028	0.000	18.9	1	1
03/20/06	9:00 p	-21.4	-21.3	-21.4	---	---	13.0	E	0.22	15.7	-33.1	---	---	721.8	0.028	0.000	18.9	1	1
03/20/06	9:01 p	-21.3	-21.3	-21.4	---	---	13.9	E	0.23	16.5	-33.4	---	---	721.8	0.028	0.000	18.9	1	1
03/20/06	9:02 p	-21.3	-21.3	-21.4	---	---	12.2	E	0.20	16.5	-32.7	---	---	721.8	0.028	0.000	18.9	1	1
03/20/06	9:03 p	-21.3	-21.3	-21.4	---	---	13.0	E	0.22	15.7	-33.1	---	---	721.8	0.028	0.000	18.9	1	1
03/20/06	9:04 p	-21.3	-21.3	-21.3	---	---	13.0	E	0.22	15.7	-33.1	---	---	721.8	0.028	0.000	18.9	1	1
03/20/06	9:05 p	-21.3	-21.3	-21.3	---	---	13.0	E	0.22	15.7	-33.1	---	---	721.8	0.028	0.000	18.9	1	1
03/20/06	9:06 p	-21.3	-21.3	-21.3	---	---	15.7	E	0.26	18.3	-33.9	---	---	721.8	0.028	0.000	18.9	1	1
03/20/06	9:07 p	-21.3	-21.2	-21.3	---	---	15.7	ESE	0.26	20.0	-33.9	---	---	721.8	0.028	0.000	18.9	1	1
03/20/06	9:08 p	-21.2	-21.2	-21.3	---	---	15.7	E	0.26	17.4	-33.9	---	---	721.8	0.027	0.000	18.9	1	1
03/20/06	9:09 p	-21.2	-21.2	-21.2	---	---	15.7	E	0.26	19.1	-33.9	---	---	721.7	0.027	0.000	18.9	1	1
03/20/06	9:10 p	-21.2	-21.2	-21.2	---	---	15.7	E	0.26	18.3	-33.9	---	---	721.7	0.027	0.000	18.9	1	1
03/20/06	9:11 p	-21.2	-21.2	-21.2	---	---	17.4	E	0.29	19.1	-34.4	---	---	721.7	0.027	0.000	18.9	1	1
03/20/06	9:12 p	-21.1	-21.1	-21.2	---	---	15.7	ESE	0.26	17.4	-33.7	---	---	721.8	0.027	0.000	18.8	1	1
03/20/06	9:13 p	-21.1	-21.1	-21.1	---	---	15.7	E	0.26	19.1	-33.7	---	---	721.8	0.027	0.000	18.8	1	1
03/20/06	9:14 p	-21.1	-21.1	-21.1	---	---	14.8	E	0.25	16.5	-33.3	---	---	721.8	0.027	0.000	18.8	1	1
03/20/06	9:15 p	-21.0	-21.0	-21.1	---	---	13.9	E	0.23	17.4	-32.9	---	---	721.8	0.027	0.000	18.8	1	1
03/20/06	9:16 p	-21.0	-21.0	-21.0	---	---	13.9	E	0.23	16.5	-32.9	---	---	721.9	0.027	0.000	18.8	1	1
03/20/06	9:17 p	-21.0	-21.0	-21.0	---	---	15.7	E	0.26	18.3	-33.6	---	---	721.9	0.027	0.000	18.8	1	1
03/20/06	9:18 p	-21.0	-20.9	-21.0	---	---	16.5	ESE	0.28	19.1	-33.9	---	---	721.7	0.027	0.000	18.8	1	1
03/20/06	9:19 p	-20.9	-20.9	-21.0	---	---	16.5	ESE	0.28	18.3	-33.8	---	---	721.8	0.027	0.000	18.8	1	1
03/20/06	9:20 p	-20.9	-20.9	-20.9	---	---	17.4	E	0.29	20.9	-34.0	---	---	721.8	0.027	0.000	18.8	1	1
03/20/06	9:21 p	-20.9	-20.9	-20.9	---	---	16.5	ESE	0.28	19.1	-33.7	---	---	721.8	0.027	0.000	18.8	1	1
03/20/06	9:22 p	-20.8	-20.8	-20.8	---	---	16.5	E	0.28	18.3	-33.7	---	---	721.8	0.027	0.000	18.8	1	1
03/20/06	9:23 p	-20.8	-20.8	-20.9	---	---	18.3	E	0.30	21.7	-34.2	---	---	721.7	0.027	0.000	18.8	1	1
03/20/06	9:24 p	-20.8	-20.8	-20.8	---	---	16.5	ESE	0.28	19.1	-33.7	---	---	721.8	0.027	0.000	18.8	1	1
03/20/06	9:25 p	-20.8	-20.8	-20.8	---	---	15.7	ESE	0.26	19.1	-33.4	---	---	721.8	0.027	0.000	18.8	1	1
03/20/06	9:26 p	-20.8	-20.7	-20.8	---	---	17.4	ESE	0.29	19.1	-33.9	---	---	721.8	0.027	0.000	18.8	1	1
03/20/06	9:27 p	-20.7	-20.7	-20.7	---	---	16.5	ESE	0.28	19.1	-33.4	---	---	721.8	0.027	0.000	18.8	1	1
03/20/06	9:28 p	-20.7	-20.7	-20.7	---	---	16.5	ESE	0.28	19.1	-33.5	---	---	721.8	0.027	0.000	18.8	1	1
03/20/06	9:29 p	-20.7	-20.6	-20.7	---	---	16.5	ESE	0.28	19.1	-33.4	---	---	721.8	0.027	0.000	18.8	1	1
03/20/06	9:30 p	-20.7	-20.6	-20.7	---	---	15.7	ESE	0.26	17.4	-33.2	---	---	721.8	0.027	0.000	18.8	1	1
03/20/06	9:31 p	-20.7	-20.6	-20.7	---	---	18.3	ESE	0.30	20.0	-34.0	---	---	721.7	0.027	0.000	18.8	1	1
03/20/06	9:32 p	-20.6	-20.6	-20.6	---	---	18.3	SE	0.30	20.0	-33.9	---	---	721.8	0.027	0.000	18.8	1	1
03/20/06	9:33 p	-20.6	-20.6	-20.6	---	---	19.1	SE	0.32	20.9	-34.1	---	---	721.9	0.027	0.000	18.8	1	1
03/20/06	9:34 p	-20.6	-20.5	-20.6	---	---	18.3	SE	0.30	20.0	-33.8	---	---	721.9	0.027	0.000	18.8	1	1
03/20/06	9:35 p	-20.5	-20.5	-20.5	---	---	16.5	SE	0.28	18.3	-33.2	---	---	721.8	0.027	0.000	18.8	1	1
03/20/06	9:36 p	-20.5	-20.4	-20.5	---	---	17.4	ESE	0.29	20.0	-33.5	---	---	722.0	0.027	0.000	18.8	1	1
03/20/06	9:37 p	-20.4	-20.4	-20.4	---	---	13.9	ESE	0.23	15.7	-32.3	---	---	722.0	0.027	0.000	18.8	1	1
03/20/06	9:38 p	-20.4	-20.4	-20.4	---	---	14.8	ESE	0.25	16.5	-32.5	---	---	721.9	0.027	0.000	18.8	1	1
03/20/06	9:39 p	-20.4	-20.4	-20.4	---	---	13.9	ESE	0.23	14.8	-32.2	---	---	721.9	0.027	0.000	18.8	1	1
03/20/06	9:40 p	-20.4	-20.4	-20.4	---	---	16.5	SE	0.28	19.1	-33.1	---	---	721.8	0.027	0.000	18.8	1	1
03/20/06	9:41 p	-20.4	-20.3	-20.4	---	---	17.4	SE	0.29	20.0	-33.4	---	---	721.9	0.027	0.000	18.8	1	1
03/20/06	9:42 p	-20.3	-20.3	-20.4	---	---	19.1	SE	0.32	20.0	-33.8	---	---	721.8	0.027	0.000	18.8	1	1
03/20/06	9:43 p	-20.3	-20.3	-20.3	---	---	18.3	SE	0.30	20.9	-33.6	---	---	721.8	0.027	0.000	18.8	1	1
03/20/06	9:44 p	-20.3	-20.2	-20.3	---	---	20.0	SE	0.33	23.5	-34.0	---	---	721.8	0.027	0.000	18.8	1	1
03/20/06	9:45 p	-20.3	-20.2	-20.3	---	---	20.9	ESE	0.35	24.3	-34.2	---	---	721.9	0.027	0.000	18.8	1	1
03/20/06	9:46 p	-20.2	-20.2	-20.2	---	---	24.3	SE	0.41	27.8	-35.0	---	---	721.8	0.027	0.000	18.8	1	1
03/20/06	9:47 p	-20.2	-20.2	-20.2	---	---	23.5	SE	0.39	26.1	-34.7	---	---	721.8	0.027	0.000	18.8	1	1
03/20/06	9:48 p	-20.2	-20.2	-20.2	---	---	22.6	SE	0.38	26.1	-34.5	---	---	721.8	0.027	0.000	18.8	1	1
03/20/06	9:49 p	-20.2	-20.2	-20.2	---	---	21.7	SE	0.36	26.1	-34.3	---	---	721.9	0.027	0.000	18.8	1	1
03/20/06	9:50 p	-20.1	-20.1	-20.2	---	---	17.4	SE	0.29	20.0	-33.0	---	---	722.0	0.027	0.000	18.8	1	1
03/20/06	9:51 p	-20.1	-20.1	-20.1	---	---	21.7	SE	0.36	26.1	-34.2	---	---	721.9	0.027	0.000	18.8	1	1
03/20/06	9:52 p	-20.1	-20.1	-20.1	---	---	24.3	SE	0.41	27.0	-34.8	---	---	721.9	0.027	0.000	18.8	1	1
03/20/06	9:53 p	-20.0	-20.0	-20.1	---	---	23.5	SE	0.39	26.1	-34.5	---	---	721.9	0.027	0.000	18.8	1	1
03/20/06	9:54 p	-20.1	-20.0	-20.1	---	---	23.5	SE	0.39	25.2	-34.6	---	---	721.9	0.027	0.000	18.8	1	1
03/20/06	9:55 p	-20.0	-20.0	-20.0	---	---	21.7	SE	0.36	26.1	-34.1	---	---	721.9	0.027	0.000	18.8	1	1
03/20/06	9:56 p	-20.0	-20.0	-20.0	---	---	20.0	SE	0.33	21.7	-33.6	---	---	721.9	0.027	0.000	18.8	1	1
03/20/06	9:57 p	-20.0	-19.9	-20.0	---	---	22.6	SE	0.38	25.2	-34.3	---	---	721.9	0.027	0.000	18.8	1	1
03/20/06	9:58 p	-19.9	-19.9	-19.9	---	---	20.0	SE	0.33	22.6	-33.6	---	---	721.9	0.027	0.000	18.8	1	1
03/20/06	9:59 p	-19.9	-19.9	-19.9	---	---	21.7	SE	0.36	22.6	-34.0	---	---	721.9	0.027	0.000	18.8	1	1
03/20/06	10:00 p	-19.9	-19.9	-19.9	---	---	20.9	SE	0.35	21.7	-33.8	---	---	722.0	0.027	0.000	18.8	1	1
03/20/06	10:01 p	-19.9	-19.9	-19.9	---	---	20.9	SE	0.35	21.7	-33.8	---	---	721.9	0.027	0.000	18.8	1	1
03/20/06	10:02 p	-19.9	-19.9	-19.9	---	---	20.9	SE	0.35	22.6	-33.8	---	---	722.0	0.027	0.000	18.8	1	1
03/20/06	10:03 p	-19.9	-19.9	-19.9	---	---	21.7	SE	0.36	25.2	-33.9	---	---	721.9	0.027	0.000	18.9	1	1
03/20/06	10:04 p	-19.9	-19.9	-19.9	---	---	24.3	SSE	0.41	27.8	-34.6	---	---	721.9	0.027	0.000	18.9	1	1
03/20/06	10:05 p	-19.9	-19.8	-19.9	---	---	22.6	SSE	0.38	26.1	-34.2	---	---	722.0	0.027	0.000	18.8	1	1
03/20/06	10:06 p	-19.9	-19.8	-19.9	---	---	20.9	SE	0.35	23.5	-33.7	---	---	722.0	0.027	0.000	18.9	1	1
03/20/06	10:07 p	-19.9	-19.9	-19.9	---	---	20.0	SE	0.33	21.7	-33.4	---	---	721.9	0.027	0.000	18.8	1	1
03/20/06	10:08 p	-19.9	-19.9	-19.9	---	---	21.7	SE	0.36	24.3	-33.9	---	---	722.0	0.027	0.000	18.9	1	1
03/20/06	10:09 p	-19.9	-19.8	-19.9	---	---	20.9	SE	0.35	24.3	-33.7	---	---	721.9	0.027	0.000	18.8	1	1
03/20/06	10:10 p	-19.9	-19.9	-19.9	---	---	22.6	SE	0.38	25.2	-34.2	---	---	721.9	0.027	0.000	18.8	1	1
03/20/06	10:11 p	-19.9	-19.8	-19.9	---	---	21.7	SE	0.36	25.2	-33.9	---	---	722.0	0.027	0.000	18.9	1	1
03/20/06	10:12 p	-19.9	-19.9	-19.9	---	---	22.6	SE	0.38	24.3	-34.2	---	---	721.9	0.027	0.000	18.9	1	1
03/20/06	10:13 p	-19.9	-19.8	-19.9	---	---	23.5	SE	0.39	27.0	-34.3	---	---	722.0	0.027	0.000	18.9	1	1
03/20/06	10:14 p	-19.9	-19.9	-19.9	---	---	23.5	SE	0.39	25.2	-34.4	---	---	721.8	0.027	0.000	18.8	1	1
03/20/06	10:15 p	-19.9	-19.9	-19.9	---	---	23.5	SE	0.39	26.1	-34.3	---	---	721.9	0.027	0.000	18.8	1	1
03/20/06	10:16 p	-19.9	-19.9	-19.9	---	---	23.5	SE	0.39	26.1	-34.3	---	---	721.9	0.027	0.000	18.8	1	1
03/20/06	10:17 p	-19.9	-19.9	-19.9	---	---	22.6	SE	0.38	24.3	-34.2	---	---	721.9	0.027	0.000	18.8	1	1
03/20/06	10:18 p	-19.9	-19.9	-19.9	---	---	25.2	SE	0.42	27.0	-34.8	---	---	721.8	0.027	0.000	18.8	1	1
03/20/06	10:19 p	-20.0	-19.9	-20.0	---	---	24.3	SE	0.41	27.0	-34.7	---	---	721.8	0.027	0.000	18.8	1	1
03/20/06	10:20 p	-20.0	-20.0	-20.0	---	---	22.6	SE	0.38	26.1	-34.3	---	---	721.9	0.027	0.000	18.8	1	1
03/20/06	10:21 p	-20.0	-20.0	-20.0	---	---	23.5	SE	0.39	27.0	-34.5	---	---	721.8	0.027	0.000	18.8	1	1
03/20/06	10:22 p	-20.0	-20.0	-20.1	---	---	22.6	SE	0.38	26.1	-34.3	---	---	721.9	0.027	0.000	18.8	1	1
03/20/06	10:23 p	-20.0	-20.0	-20.1	---	---	22.6	SE	0.38	27.0	-34.3	---	---	721.8	0.027	0.000	18.7	1	1
03/20/06	10:24 p	-20.1	-20.0	-20.1	---	---	25.2	SE	0.42	27.0	-35.0	---	---	721.8	0.027	0.000	18.7	1	1
03/20/06	10:25 p	-20.1	-20.1	-20.1	---	---	25.2	SE	0.42	27.8	-35.0	---	---	721.8	0.027	0.000	18.7	1	1
03/20/06	10:26 p	-20.1	-20.1	-20.1	---	---	24.3	SE	0.41	26.1	-34.9	---	---	721.8	0.027	0.000	18.7	1	1
03/20/06	10:27 p	-20.1	-20.1	-20.1	---	---	25.2	SE	0.42	27.8	-35.1	---	---	721.8	0.027	0.000	18.7	1	1
03/20/06	10:28 p	-20.1	-20.1	-20.1	---	---	23.5	SE	0.39	24.3	-34.6	---	---	721.9	0.027	0.000	18.7	1	1
03/20/06	10:29 p	-20.2	-20.1	-20.2	---	---	23.5	SE	0.39	27.0	-34.7	---	---	721.9	0.027	0.000	18.7	1	1
03/20/06	10:30 p	-20.2	-20.1	-20.2	---	---	24.3	SE	0.41	26.1	-34.9	---	---	722.0	0.027	0.000	18.7	1	1
03/20/06	10:31 p	-20.2	-20.2	-20.2	---	---	24.3	SE	0.41	27.8	-34.9	---	---	722.0	0.027	0.000	18.7	1	1
03/20/06	10:32 p	-20.2	-20.2	-20.2	---	---	23.5	ESE	0.39	25.2	-34.8	---	---	721.9	0.027	0.000	18.7	1	1
03/20/06	10:33 p	-20.2	-20.2	-20.2	---	---	22.6	SE	0.38	24.3	-34.6	---	---	721.9	0.027	0.000	18.7	1	1
03/20/06	10:34 p	-20.3	-20.2	-20.3	---	---	25.2	SE	0.42	27.8	-35.3	---	---	722.0	0.027	0.000	18.7	1	1
03/20/06	10:35 p	-20.2	-20.2	-20.3	---	---	22.6	SE	0.38	26.1	-34.6	---	---	722.0	0.027	0.000	18.7	1	1
03/20/06	10:36 p	-20.3	-20.3	-20.3	---	---	21.7	SE	0.36	25.2	-34.4	---	---	721.9	0.027	0.000	18.7	1	1
03/20/06	10:37 p	-20.3	-20.3	-20.3	---	---	22.6	ESE	0.38	23.5	-34.7	---	---	721.8	0.027	0.000	18.8	1	1
03/20/06	10:38 p	-20.3	-20.3	-20.3	---	---	22.6	ESE	0.38	24.3	-34.7	---	---	721.8	0.027	0.000	18.8	1	1
03/20/06	10:39 p	-20.3	-20.3	-20.3	---	---	22.6	ESE	0.38	23.5	-34.7	---	---	721.9	0.027	0.000	18.8	1	1
03/20/06	10:40 p	-20.3	-20.3	-20.4	---	---	23.5	ESE	0.39	25.2	-34.9	---	---	721.8	0.027	0.000	18.8	1	1
03/20/06	10:41 p	-20.4	-20.4	-20.4	---	---	24.3	ESE	0.41	26.1	-35.2	---	---	721.8	0.027	0.000	18.8	1	1
03/20/06	10:42 p	-20.4	-20.4	-20.4	---	---	26.1	ESE	0.43	27.0	-35.6	---	---	721.8	0.027	0.000	18.8	1	1
03/20/06	10:43 p	-20.4	-20.4	-20.4	---	---	26.1	ESE	0.43	27.8	-35.6	---	---	721.8	0.027	0.000	18.8	1	1
03/20/06	10:44 p	-20.4	-20.4	-20.4	---	---	27.0	ESE	0.45	28.7	-35.9	---	---	721.7	0.027	0.000	18.7	1	1
03/20/06	10:45 p	-20.4	-20.4	-20.4	---	---	27.0	ESE	0.45	28.7	-35.9	---	---	721.8	0.027	0.000	18.8	1	1
03/20/06	10:46 p	-20.4	-20.4	-20.5	---	---	25.2	ESE	0.42	27.8	-35.5	---	---	721.7	0.027	0.000	18.7	1	1
03/20/06	10:47 p	-20.5	-20.4	-20.5	---	---	27.0	ESE	0.45	29.6	-36.0	---	---	721.6	0.027	0.000	18.7	1	1
03/20/06	10:48 p	-20.5	-20.5	-20.5	---	---	27.0	ESE	0.45	28.7	-36.0	---	---	721.7	0.027	0.000	18.7	1	1
03/20/06	10:49 p	-20.5	-20.5	-20.6	---	---	27.0	ESE	0.45	27.8	-36.0	---	---	721.7	0.027	0.000	18.7	1	1
03/20/06	10:50 p	-20.5	-20.5	-20.6	---	---	27.8	ESE	0.46	29.6	-36.2	---	---	721.7	0.027	0.000	18.7	1	1
03/20/06	10:51 p	-20.6	-20.6	-20.6	---	---	26.1	ESE	0.43	28.7	-35.9	---	---	721.6	0.027	0.000	18.7	1	1
03/20/06	10:52 p	-20.6	-20.6	-20.6	---	---	26.1	ESE	0.43	27.8	-35.9	---	---	721.7	0.027	0.000	18.7	1	1
03/20/06	10:53 p	-20.6	-20.6	-20.6	---	---	27.8	ESE	0.46	29.6	-36.2	---	---	721.5	0.027	0.000	18.7	1	1
03/20/06	10:54 p	-20.6	-20.6	-20.6	---	---	29.6	ESE	0.49	33.0	-36.7	---	---	721.5	0.027	0.000	18.7	1	1
03/20/06	10:55 p	-20.6	-20.6	-20.6	---	---	28.7	ESE	0.48	33.9	-36.5	---	---	721.5	0.027	0.000	18.7	1	1
03/20/06	10:56 p	-20.6	-20.6	-20.7	---	---	29.6	SE	0.49	33.0	-36.7	---	---	721.7	0.027	0.000	18.7	1	1
03/20/06	10:57 p	-20.7	-20.6	-20.7	---	---	29.6	ESE	0.49	33.0	-36.8	---	---	721.5	0.027	0.000	18.7	1	1
03/20/06	10:58 p	-20.7	-20.6	-20.7	---	---	26.1	SE	0.43	33.0	-36.0	---	---	721.9	0.027	0.000	18.7	1	1
03/20/06	10:59 p	-20.6	-20.6	-20.7	---	---	24.3	SSE	0.41	27.8	-35.6	---	---	721.9	0.027	0.000	18.7	1	1
03/20/06	11:00 p	-20.7	-20.7	-20.7	---	---	23.5	SSE	0.39	27.0	-35.4	---	---	721.9	0.027	0.000	18.7	1	1
03/20/06	11:01 p	-20.7	-20.7	-20.7	---	---	23.5	SE	0.39	27.0	-35.4	---	---	721.8	0.027	0.000	18.7	1	1
03/20/06	11:02 p	-20.7	-20.7	-20.7	---	---	27.0	SE	0.45	33.9	-36.2	---	---	721.8	0.027	0.000	18.7	1	1
03/20/06	11:03 p	-20.7	-20.7	-20.7	---	---	25.2	SE	0.42	28.7	-35.8	---	---	721.8	0.027	0.000	18.7	1	1
03/20/06	11:04 p	-20.7	-20.7	-20.7	---	---	25.2	SE	0.42	30.4	-35.8	---	---	722.0	0.027	0.000	18.7	1	1
03/20/06	11:05 p	-20.7	-20.7	-20.7	---	---	22.6	SE	0.38	25.2	-35.2	---	---	722.0	0.027	0.000	18.7	1	1
03/20/06	11:06 p	-20.7	-20.7	-20.7	---	---	24.3	SE	0.41	28.7	-35.7	---	---	722.0	0.027	0.000	18.7	1	1
03/20/06	11:07 p	-20.7	-20.7	-20.7	---	---	20.9	SE	0.35	22.6	-34.8	---	---	722.0	0.027	0.000	18.7	1	1
03/20/06	11:08 p	-20.7	-20.7	-20.7	---	---	21.7	ESE	0.36	23.5	-35.1	---	---	722.0	0.027	0.000	18.7	1	1
03/20/06	11:09 p	-20.7	-20.7	-20.7	---	---	20.9	ESE	0.35	22.6	-34.8	---	---	722.0	0.027	0.000	18.7	1	1
03/20/06	11:10 p	-20.7	-20.7	-20.7	---	---	22.6	ESE	0.38	25.2	-35.3	---	---	722.0	0.027	0.000	18.7	1	1
03/20/06	11:11 p	-20.7	-20.7	-20.8	---	---	20.9	ESE	0.35	23.5	-34.8	---	---	722.0	0.027	0.000	18.7	1	1
03/20/06	11:12 p	-20.8	-20.8	-20.8	---	---	20.0	ESE	0.33	21.7	-34.7	---	---	722.0	0.027	0.000	18.7	1	1
03/20/06	11:13 p	-20.8	-20.8	-20.8	---	---	21.7	ESE	0.36	25.2	-35.1	---	---	722.0	0.027	0.000	18.7	1	1
03/20/06	11:14 p	-20.8	-20.8	-20.8	---	---	20.9	ESE	0.35	22.6	-34.9	---	---	722.0	0.027	0.000	18.7	1	1
03/20/06	11:15 p	-20.8	-20.8	-20.8	---	---	20.9	SE	0.35	21.7	-34.9	---	---	722.0	0.027	0.000	18.7	1	1
03/20/06	11:16 p	-20.8	-20.8	-20.8	---	---	21.7	ESE	0.36	24.3	-35.1	---	---	722.0	0.027	0.000	18.7	1	1
03/20/06	11:17 p	-20.8	-20.8	-20.8	---	---	21.7	SE	0.36	25.2	-35.2	---	---	722.1	0.027	0.000	18.7	1	1
03/20/06	11:18 p	-20.8	-20.8	-20.8	---	---	20.9	ESE	0.35	22.6	-34.9	---	---	722.0	0.027	0.000	18.7	1	1
03/20/06	11:19 p	-20.8	-20.8	-20.8	---	---	20.9	SE	0.35	25.2	-34.9	---	---	722.1	0.027	0.000	18.7	1	1
03/20/06	11:20 p	-20.8	-20.8	-20.8	---	---	20.9	ESE	0.35	23.5	-34.9	---	---	722.0	0.027	0.000	18.7	1	1
03/20/06	11:21 p	-20.8	-20.8	-20.8	---	---	20.9	SE	0.35	23.5	-34.9	---	---	722.1	0.027	0.000	18.7	1	1
03/20/06	11:22 p	-20.8	-20.8	-20.8	---	---	23.5	SE	0.39	25.2	-35.6	---	---	722.1	0.027	0.000	18.7	1	1
03/20/06	11:23 p	-20.8	-20.8	-20.8	---	---	23.5	SE	0.39	27.0	-35.6	---	---	722.1	0.027	0.000	18.7	1	1
03/20/06	11:24 p	-20.8	-20.8	-20.8	---	---	21.7	SE	0.36	25.2	-35.2	---	---	722.1	0.027	0.000	18.7	1	1
03/20/06	11:25 p	-20.8	-20.8	-20.9	---	---	20.9	SSE	0.35	28.7	-34.9	---	---	722.2	0.027	0.000	18.7	1	1
03/20/06	11:26 p	-20.8	-20.8	-20.8	---	---	21.7	SSE	0.36	25.2	-35.2	---	---	722.3	0.027	0.000	18.7	1	1
03/20/06	11:27 p	-20.8	-20.8	-20.8	---	---	22.6	SSE	0.38	25.2	-35.4	---	---	722.1	0.027	0.000	18.7	1	1
03/20/06	11:28 p	-20.8	-20.8	-20.8	---	---	22.6	SSE	0.38	25.2	-35.4	---	---	722.2	0.027	0.000	18.7	1	1
03/20/06	11:29 p	-20.8	-20.8	-20.8	---	---	23.5	SSE	0.39	26.1	-35.6	---	---	722.2	0.027	0.000	18.7	1	1
03/20/06	11:30 p	-20.8	-20.8	-20.8	---	---	21.7	SSE	0.36	22.6	-35.2	---	---	722.3	0.027	0.000	18.7	1	1
03/20/06	11:31 p	-20.8	-20.8	-20.8	---	---	20.9	SSE	0.35	24.3	-34.9	---	---	722.3	0.027	0.000	18.7	1	1
03/20/06	11:32 p	-20.8	-20.8	-20.8	---	---	20.9	SSE	0.35	22.6	-34.9	---	---	722.4	0.027	0.000	18.7	1	1
03/20/06	11:33 p	-20.8	-20.8	-20.8	---	---	20.9	SSE	0.35	24.3	-34.9	---	---	722.4	0.027	0.000	18.7	1	1
03/20/06	11:34 p	-20.8	-20.8	-20.8	---	---	20.9	SSE	0.35	23.5	-34.9	---	---	722.4	0.027	0.000	18.7	1	1
03/20/06	11:35 p	-20.8	-20.8	-20.8	---	---	19.1	SSE	0.32	20.9	-34.4	---	---	722.4	0.027	0.000	18.7	1	1
03/20/06	11:36 p	-20.8	-20.8	-20.8	---	---	20.9	SSE	0.35	23.5	-34.9	---	---	722.3	0.027	0.000	18.7	1	1
03/20/06	11:37 p	-20.8	-20.7	-20.8	---	---	19.1	SSE	0.32	23.5	-34.4	---	---	722.5	0.027	0.000	18.7	1	1
03/20/06	11:38 p	-20.8	-20.7	-20.8	---	---	19.1	SSE	0.32	21.7	-34.4	---	---	722.4	0.027	0.000	18.7	1	1
03/20/06	11:39 p	-20.8	-20.8	-20.8	---	---	20.9	SSE	0.35	24.3	-34.9	---	---	722.3	0.027	0.000	18.7	1	1
03/20/06	11:40 p	-20.8	-20.7	-20.8	---	---	21.7	SSE	0.36	23.5	-35.1	---	---	722.3	0.027	0.000	18.7	1	1
03/20/06	11:41 p	-20.7	-20.7	-20.7	---	---	22.6	SSE	0.38	25.2	-35.3	---	---	722.4	0.027	0.000	18.7	1	1
03/20/06	11:42 p	-20.7	-20.7	-20.7	---	---	26.1	SSE	0.43	33.0	-36.0	---	---	722.2	0.027	0.000	18.7	1	1
03/20/06	11:43 p	-20.7	-20.7	-20.7	---	---	20.9	SSE	0.35	25.2	-34.7	---	---	722.3	0.027	0.000	18.7	1	1
03/20/06	11:44 p	-20.7	-20.7	-20.7	---	---	23.5	SSE	0.39	26.1	-35.4	---	---	722.3	0.027	0.000	18.7	1	1
03/20/06	11:45 p	-20.7	-20.7	-20.7	---	---	24.3	SSE	0.41	27.0	-35.6	---	---	722.4	0.027	0.000	18.7	1	1
03/20/06	11:46 p	-20.7	-20.7	-20.7	---	---	25.2	SSE	0.42	29.6	-35.8	---	---	722.2	0.027	0.000	18.7	1	1
03/20/06	11:47 p	-20.7	-20.6	-20.7	---	---	21.7	S	0.36	27.0	-34.9	---	---	722.4	0.027	0.000	18.7	1	1
03/20/06	11:48 p	-20.6	-20.6	-20.6	---	---	22.6	SSE	0.38	24.3	-35.1	---	---	722.3	0.027	0.000	18.7	1	1
03/20/06	11:49 p	-20.6	-20.6	-20.6	---	---	22.6	S	0.38	25.2	-35.1	---	---	722.3	0.027	0.000	18.7	1	1
03/20/06	11:50 p	-20.6	-20.6	-20.6	---	---	22.6	SSE	0.38	26.1	-35.1	---	---	722.2	0.027	0.000	18.7	1	1
03/20/06	11:51 p	-20.6	-20.6	-20.6	---	---	24.3	SSE	0.41	31.3	-35.4	---	---	722.3	0.027	0.000	18.8	1	1
03/20/06	11:52 p	-20.6	-20.6	-20.6	---	---	26.1	SSE	0.43	31.3	-35.9	---	---	722.1	0.027	0.000	18.8	1	1
03/20/06	11:53 p	-20.6	-20.6	-20.6	---	---	25.2	SSE	0.42	30.4	-35.7	---	---	722.3	0.027	0.000	18.8	1	1
03/20/06	11:54 p	-20.5	-20.5	-20.6	---	---	20.0	S	0.33	27.0	-34.3	---	---	722.4	0.027	0.000	18.8	1	1
03/20/06	11:55 p	-20.5	-20.4	-20.6	---	---	25.2	S	0.42	28.7	-35.6	---	---	722.3	0.027	0.000	18.8	1	1
03/20/06	11:56 p	-20.4	-20.4	-20.5	---	---	24.3	S	0.41	27.8	-35.3	---	---	722.3	0.027	0.000	18.8	1	1
03/20/06	11:57 p	-20.4	-20.4	-20.5	---	---	21.7	S	0.36	26.1	-34.7	---	---	722.2	0.027	0.000	18.8	1	1
03/20/06	11:58 p	-20.4	-20.4	-20.4	---	---	20.9	SSE	0.35	24.3	-34.4	---	---	722.2	0.027	0.000	18.8	1	1
03/20/06	11:59 p	-20.4	-20.4	-20.4	---	---	22.6	SSE	0.38	27.0	-34.9	---	---	722.1	0.027	0.000	18.8	1	1
03/21/06	12:00 a	-20.4	-20.4	-20.4	---	---	24.3	SSE	0.41	27.0	-35.2	---	---	722.2	0.027	0.000	18.8	1	1
03/21/06	12:01 a	-20.4	-20.4	-20.4	---	---	22.6	SSE	0.38	27.0	-34.8	---	---	722.1	0.027	0.000	18.8	1	1
03/21/06	12:02 a	-20.4	-20.4	-20.4	---	---	21.7	SSE	0.36	24.3	-34.6	---	---	722.2	0.027	0.000	18.8	1	1
03/21/06	12:03 a	-20.4	-20.3	-20.4	---	---	22.6	SSE	0.38	27.0	-34.8	---	---	722.2	0.027	0.000	18.8	1	1
03/21/06	12:04 a	-20.4	-20.3	-20.4	---	---	20.9	SSE	0.35	24.3	-34.4	---	---	722.2	0.027	0.000	18.8	1	1
03/21/06	12:05 a	-20.3	-20.3	-20.3	---	---	24.3	SSE	0.41	27.8	-35.2	---	---	722.2	0.027	0.000	18.8	1	1
03/21/06	12:06 a	-20.3	-20.3	-20.3	---	---	25.2	SSE	0.42	27.0	-35.3	---	---	722.2	0.027	0.000	18.8	1	1
03/21/06	12:07 a	-20.3	-20.3	-20.3	---	---	22.6	SSE	0.38	25.2	-34.7	---	---	722.2	0.027	0.000	18.8	1	1
03/21/06	12:08 a	-20.3	-20.3	-20.3	---	---	23.5	SSE	0.39	27.8	-34.9	---	---	722.2	0.027	0.000	18.8	1	1
03/21/06	12:09 a	-20.3	-20.3	-20.3	---	---	20.9	SSE	0.35	23.5	-34.2	---	---	722.2	0.027	0.000	18.8	1	1
03/21/06	12:10 a	-20.3	-20.2	-20.3	---	---	21.7	SSE	0.36	25.2	-34.4	---	---	722.2	0.027	0.000	18.9	1	1
03/21/06	12:11 a	-20.2	-20.2	-20.3	---	---	22.6	SSE	0.38	26.1	-34.6	---	---	722.2	0.027	0.000	18.9	1	1
03/21/06	12:12 a	-20.2	-20.2	-20.2	---	---	20.9	SSE	0.35	24.3	-34.2	---	---	722.2	0.027	0.000	18.9	1	1
03/21/06	12:13 a	-20.2	-20.2	-20.2	---	---	20.9	SE	0.35	22.6	-34.2	---	---	722.3	0.027	0.000	18.9	1	1
03/21/06	12:14 a	-20.2	-20.2	-20.2	---	---	20.9	SE	0.35	22.6	-34.2	---	---	722.2	0.027	0.000	18.9	1	1
03/21/06	12:15 a	-20.2	-20.2	-20.2	---	---	20.9	SE	0.35	22.6	-34.1	---	---	722.3	0.027	0.000	18.9	1	1
03/21/06	12:16 a	-20.2	-20.2	-20.2	---	---	20.9	SE	0.35	22.6	-34.1	---	---	722.2	0.027	0.000	18.9	1	1
03/21/06	12:17 a	-20.2	-20.2	-20.2	---	---	20.0	SE	0.33	22.6	-33.8	---	---	722.3	0.027	0.000	18.9	1	1
03/21/06	12:18 a	-20.2	-20.2	-20.2	---	---	19.1	SE	0.32	20.9	-33.6	---	---	722.3	0.027	0.000	18.9	1	1
03/21/06	12:19 a	-20.2	-20.2	-20.2	---	---	20.0	SE	0.33	21.7	-33.8	---	---	722.3	0.027	0.000	18.9	1	1
03/21/06	12:20 a	-20.2	-20.1	-20.2	---	---	19.1	SE	0.32	20.0	-33.6	---	---	722.3	0.027	0.000	18.9	1	1
03/21/06	12:21 a	-20.2	-20.1	-20.2	---	---	20.0	SE	0.33	21.7	-33.8	---	---	722.3	0.027	0.000	18.9	1	1
03/21/06	12:22 a	-20.2	-20.1	-20.2	---	---	20.0	SE	0.33	21.7	-33.8	---	---	722.3	0.027	0.000	18.9	1	1
03/21/06	12:23 a	-20.1	-20.1	-20.2	---	---	18.3	SE	0.30	20.9	-33.3	---	---	722.3	0.027	0.000	18.9	1	1
03/21/06	12:24 a	-20.1	-20.1	-20.2	---	---	20.9	SE	0.35	21.7	-34.0	---	---	722.3	0.027	0.000	18.9	1	1
03/21/06	12:25 a	-20.1	-20.1	-20.1	---	---	20.0	SE	0.33	21.7	-33.8	---	---	722.1	0.027	0.000	18.9	1	1
03/21/06	12:26 a	-20.1	-20.1	-20.1	---	---	20.0	SE	0.33	22.6	-33.8	---	---	722.2	0.027	0.000	18.9	1	1
03/21/06	12:27 a	-20.1	-20.1	-20.1	---	---	21.7	SE	0.36	24.3	-34.2	---	---	722.2	0.027	0.000	18.9	1	1
03/21/06	12:28 a	-20.1	-20.1	-20.1	---	---	20.9	SE	0.35	22.6	-34.0	---	---	722.2	0.027	0.000	18.8	1	1
03/21/06	12:29 a	-20.1	-20.1	-20.1	---	---	22.6	SE	0.38	24.3	-34.4	---	---	722.2	0.027	0.000	18.8	1	1
03/21/06	12:30 a	-20.1	-20.1	-20.1	---	---	22.6	SE	0.38	24.3	-34.4	---	---	722.1	0.027	0.000	18.8	1	1
03/21/06	12:31 a	-20.1	-20.1	-20.1	---	---	24.3	SE	0.41	26.1	-34.9	---	---	722.3	0.027	0.000	18.8	1	1
03/21/06	12:32 a	-20.1	-20.1	-20.1	---	---	23.5	SE	0.39	27.0	-34.7	---	---	722.2	0.027	0.000	18.8	1	1
03/21/06	12:33 a	-20.1	-20.1	-20.1	---	---	25.2	SE	0.42	27.0	-35.1	---	---	722.1	0.027	0.000	18.8	1	1
03/21/06	12:34 a	-20.1	-20.1	-20.1	---	---	25.2	SE	0.42	27.8	-35.0	---	---	722.2	0.027	0.000	18.8	1	1
03/21/06	12:35 a	-20.1	-20.1	-20.1	---	---	23.5	SE	0.39	25.2	-34.7	---	---	722.2	0.027	0.000	18.8	1	1
03/21/06	12:36 a	-20.1	-20.1	-20.1	---	---	22.6	SE	0.38	23.5	-34.4	---	---	722.2	0.027	0.000	18.8	1	1
03/21/06	12:37 a	-20.1	-20.1	-20.1	---	---	20.9	SE	0.35	22.6	-33.9	---	---	722.3	0.027	0.000	18.8	1	1
03/21/06	12:38 a	-20.1	-20.1	-20.1	---	---	21.7	SE	0.36	22.6	-34.2	---	---	722.3	0.027	0.000	18.8	1	1
03/21/06	12:39 a	-20.1	-20.1	-20.1	---	---	21.7	SE	0.36	23.5	-34.2	---	---	722.4	0.027	0.000	18.8	1	1
03/21/06	12:40 a	-20.1	-20.1	-20.1	---	---	21.7	SE	0.36	23.5	-34.2	---	---	722.3	0.027	0.000	18.7	1	1
03/21/06	12:41 a	-20.1	-20.0	-20.1	---	---	21.7	SE	0.36	24.3	-34.2	---	---	722.4	0.027	0.000	18.7	1	1
03/21/06	12:42 a	-20.1	-20.0	-20.1	---	---	21.7	SE	0.36	23.5	-34.2	---	---	722.2	0.027	0.000	18.7	1	1
03/21/06	12:43 a	-20.1	-20.1	-20.1	---	---	22.6	SE	0.38	26.1	-34.4	---	---	722.2	0.027	0.000	18.7	1	1
03/21/06	12:44 a	-20.1	-20.0	-20.1	---	---	22.6	SE	0.38	24.3	-34.4	---	---	722.3	0.027	0.000	18.7	1	1
03/21/06	12:45 a	-20.0	-20.0	-20.1	---	---	20.9	SE	0.35	22.6	-33.8	---	---	722.3	0.027	0.000	18.8	1	1
03/21/06	12:46 a	-20.1	-20.0	-20.1	---	---	22.6	SE	0.38	24.3	-34.4	---	---	722.1	0.027	0.000	18.8	1	1
03/21/06	12:47 a	-20.0	-20.0	-20.0	---	---	23.5	SE	0.39	26.1	-34.5	---	---	722.2	0.027	0.000	18.8	1	1
03/21/06	12:48 a	-20.0	-20.0	-20.0	---	---	23.5	SE	0.39	26.1	-34.5	---	---	722.3	0.027	0.000	18.8	1	1
03/21/06	12:49 a	-20.0	-19.9	-20.0	---	---	20.0	SE	0.33	22.6	-33.6	---	---	722.2	0.027	0.000	18.8	1	1
03/21/06	12:50 a	-19.9	-19.9	-20.0	---	---	21.7	SE	0.36	23.5	-34.0	---	---	722.2	0.027	0.000	18.8	1	1
03/21/06	12:51 a	-19.9	-19.9	-20.0	---	---	20.9	SE	0.35	23.5	-33.8	---	---	722.2	0.027	0.000	18.8	1	1
03/21/06	12:52 a	-20.0	-20.0	-20.0	---	---	21.7	SE	0.36	22.6	-34.1	---	---	722.2	0.027	0.000	18.8	1	1
03/21/06	12:53 a	-20.0	-20.0	-20.0	---	---	20.9	SE	0.35	22.6	-33.8	---	---	722.2	0.027	0.000	18.8	1	1
03/21/06	12:54 a	-20.0	-19.9	-20.0	---	---	20.0	SE	0.33	22.6	-33.6	---	---	722.4	0.027	0.000	18.8	1	1
03/21/06	12:55 a	-20.0	-19.9	-20.0	---	---	21.7	SE	0.36	24.3	-34.1	---	---	722.3	0.027	0.000	18.8	1	1
03/21/06	12:56 a	-19.9	-19.9	-19.9	---	---	21.7	SE	0.36	24.3	-34.0	---	---	722.3	0.027	0.000	18.8	1	1
03/21/06	12:57 a	-19.9	-19.9	-19.9	---	---	21.7	SSE	0.36	25.2	-34.0	---	---	722.3	0.027	0.000	18.8	1	1
03/21/06	12:58 a	-19.9	-19.9	-19.9	---	---	21.7	SE	0.36	23.5	-34.0	---	---	722.4	0.027	0.000	18.8	1	1
03/21/06	12:59 a	-19.9	-19.9	-19.9	---	---	20.9	SE	0.35	21.7	-33.8	---	---	722.4	0.027	0.000	18.8	1	1
03/21/06	1:00 a	-19.9	-19.9	-19.9	---	---	20.0	SE	0.33	22.6	-33.4	---	---	722.4	0.027	0.000	18.9	1	1
03/21/06	1:01 a	-19.9	-19.8	-19.9	---	---	20.9	SE	0.35	22.6	-33.7	---	---	722.4	0.027	0.000	18.9	1	1
03/21/06	1:02 a	-19.9	-19.9	-19.9	---	---	21.7	SE	0.36	24.3	-33.9	---	---	722.2	0.027	0.000	18.8	1	1
03/21/06	1:03 a	-19.9	-19.9	-19.9	---	---	21.7	SE	0.36	24.3	-33.9	---	---	722.4	0.027	0.000	18.8	1	1
03/21/06	1:04 a	-19.9	-19.9	-19.9	---	---	20.9	SE	0.35	22.6	-33.7	---	---	722.3	0.027	0.000	18.8	1	1
03/21/06	1:05 a	-19.9	-19.8	-19.9	---	---	21.7	SE	0.36	25.2	-33.9	---	---	722.3	0.027	0.000	18.8	1	1
03/21/06	1:06 a	-19.9	-19.8	-19.9	---	---	21.7	SE	0.36	23.5	-33.9	---	---	722.2	0.027	0.000	18.8	1	1
03/21/06	1:07 a	-19.8	-19.8	-19.9	---	---	21.7	SE	0.36	24.3	-33.8	---	---	722.1	0.027	0.000	18.8	1	1
03/21/06	1:08 a	-19.8	-19.8	-19.8	---	---	22.6	SE	0.38	26.1	-34.1	---	---	722.1	0.027	0.000	18.8	1	1
03/21/06	1:09 a	-19.8	-19.8	-19.8	---	---	23.5	SE	0.39	25.2	-34.3	---	---	722.1	0.027	0.000	18.8	1	1
03/21/06	1:10 a	-19.8	-19.8	-19.8	---	---	22.6	SE	0.38	25.2	-34.0	---	---	722.2	0.026	0.000	18.9	1	1
03/21/06	1:11 a	-19.8	-19.8	-19.8	---	---	21.7	SE	0.36	23.5	-33.8	---	---	722.2	0.027	0.000	18.8	1	1
03/21/06	1:12 a	-19.8	-19.8	-19.8	---	---	24.3	SE	0.41	26.1	-34.4	---	---	722.1	0.026	0.000	18.9	1	1
03/21/06	1:13 a	-19.8	-19.8	-19.8	---	---	24.3	SE	0.41	26.1	-34.4	---	---	722.1	0.026	0.000	18.9	1	1
03/21/06	1:14 a	-19.8	-19.7	-19.8	---	---	23.5	SE	0.39	25.2	-34.2	---	---	722.1	0.026	0.000	18.9	1	1
03/21/06	1:15 a	-19.8	-19.8	-19.8	---	---	24.3	SE	0.41	26.1	-34.4	---	---	722.1	0.026	0.000	18.9	1	1
03/21/06	1:16 a	-19.8	-19.8	-19.8	---	---	23.5	SE	0.39	26.1	-34.2	---	---	722.0	0.026	0.000	18.8	1	1
03/21/06	1:17 a	-19.8	-19.7	-19.8	---	---	24.3	ESE	0.41	26.1	-34.4	---	---	722.1	0.026	0.000	18.8	1	1
03/21/06	1:18 a	-19.7	-19.7	-19.8	---	---	25.2	ESE	0.42	28.7	-34.6	---	---	722.1	0.026	0.000	18.9	1	1
03/21/06	1:19 a	-19.7	-19.7	-19.7	---	---	22.6	SE	0.38	23.5	-33.9	---	---	722.2	0.026	0.000	18.9	1	1
03/21/06	1:20 a	-19.7	-19.7	-19.7	---	---	22.6	ESE	0.38	24.3	-33.9	---	---	722.1	0.026	0.000	18.8	1	1
03/21/06	1:21 a	-19.7	-19.7	-19.7	---	---	24.3	SE	0.41	27.0	-34.3	---	---	722.1	0.026	0.000	18.9	1	1
03/21/06	1:22 a	-19.7	-19.7	-19.7	---	---	23.5	ESE	0.39	25.2	-34.1	---	---	722.0	0.026	0.000	18.8	1	1
03/21/06	1:23 a	-19.7	-19.6	-19.7	---	---	23.5	ESE	0.39	24.3	-34.1	---	---	722.1	0.026	0.000	18.8	1	1
03/21/06	1:24 a	-19.7	-19.7	-19.7	---	---	23.5	ESE	0.39	26.1	-34.1	---	---	722.1	0.026	0.000	18.8	1	1
03/21/06	1:25 a	-19.6	-19.6	-19.7	---	---	25.2	ESE	0.42	27.8	-34.4	---	---	722.1	0.026	0.000	18.8	1	1
03/21/06	1:26 a	-19.6	-19.6	-19.7	---	---	22.6	ESE	0.38	24.3	-33.8	---	---	722.1	0.026	0.000	18.8	1	1
03/21/06	1:27 a	-19.6	-19.6	-19.6	---	---	23.5	ESE	0.39	27.8	-34.0	---	---	722.1	0.026	0.000	18.8	1	1
03/21/06	1:28 a	-19.6	-19.6	-19.6	---	---	22.6	ESE	0.38	26.1	-33.8	---	---	722.2	0.026	0.000	18.8	1	1
03/21/06	1:29 a	-19.6	-19.6	-19.6	---	---	20.9	ESE	0.35	22.6	-33.3	---	---	722.2	0.026	0.000	18.8	1	1
03/21/06	1:30 a	-19.6	-19.6	-19.6	---	---	21.7	ESE	0.36	23.5	-33.6	---	---	722.2	0.026	0.000	18.8	1	1
03/21/06	1:31 a	-19.6	-19.6	-19.6	---	---	21.7	ESE	0.36	22.6	-33.6	---	---	722.2	0.026	0.000	18.8	1	1
03/21/06	1:32 a	-19.6	-19.6	-19.6	---	---	21.7	ESE	0.36	25.2	-33.6	---	---	722.2	0.026	0.000	18.8	1	1
03/21/06	1:33 a	-19.6	-19.6	-19.6	---	---	23.5	ESE	0.39	26.1	-34.0	---	---	722.3	0.026	0.000	18.8	1	1
03/21/06	1:34 a	-19.6	-19.6	-19.6	---	---	24.3	ESE	0.41	27.8	-34.2	---	---	722.2	0.026	0.000	18.8	1	1
03/21/06	1:35 a	-19.6	-19.6	-19.6	---	---	24.3	ESE	0.41	29.6	-34.2	---	---	722.1	0.026	0.000	18.8	1	1
03/21/06	1:36 a	-19.6	-19.6	-19.6	---	---	24.3	ESE	0.41	26.1	-34.2	---	---	722.1	0.026	0.000	18.8	1	1
03/21/06	1:37 a	-19.6	-19.6	-19.6	---	---	23.5	E	0.39	25.2	-33.9	---	---	722.2	0.026	0.000	18.8	1	1
03/21/06	1:38 a	-19.6	-19.6	-19.6	---	---	23.5	E	0.39	26.1	-33.9	---	---	722.2	0.026	0.000	18.8	1	1
03/21/06	1:39 a	-19.6	-19.6	-19.6	---	---	24.3	ESE	0.41	28.7	-34.1	---	---	722.3	0.026	0.000	18.7	1	1
03/21/06	1:40 a	-19.6	-19.6	-19.6	---	---	24.3	ESE	0.41	26.1	-34.2	---	---	722.3	0.026	0.000	18.7	1	1
03/21/06	1:41 a	-19.6	-19.6	-19.6	---	---	22.6	ESE	0.38	24.3	-33.8	---	---	722.2	0.026	0.000	18.7	1	1
03/21/06	1:42 a	-19.6	-19.6	-19.6	---	---	22.6	ESE	0.38	24.3	-33.8	---	---	722.4	0.026	0.000	18.7	1	1
03/21/06	1:43 a	-19.6	-19.6	-19.6	---	---	21.7	ESE	0.36	26.1	-33.6	---	---	722.3	0.026	0.000	18.7	1	1
03/21/06	1:44 a	-19.6	-19.6	-19.6	---	---	22.6	ESE	0.38	24.3	-33.8	---	---	722.4	0.026	0.000	18.7	1	1
03/21/06	1:45 a	-19.6	-19.6	-19.6	---	---	21.7	ESE	0.36	23.5	-33.6	---	---	722.4	0.026	0.000	18.7	1	1
03/21/06	1:46 a	-19.7	-19.7	-19.7	---	---	22.6	E	0.38	25.2	-33.8	---	---	722.4	0.026	0.000	18.7	1	1
03/21/06	1:47 a	-19.7	-19.6	-19.7	---	---	20.9	ESE	0.35	23.5	-33.4	---	---	722.5	0.026	0.000	18.7	1	1
03/21/06	1:48 a	-19.7	-19.6	-19.7	---	---	20.0	ESE	0.33	23.5	-33.2	---	---	722.4	0.026	0.000	18.7	1	1
03/21/06	1:49 a	-19.7	-19.7	-19.7	---	---	21.7	ESE	0.36	23.5	-33.7	---	---	722.4	0.026	0.000	18.7	1	1
03/21/06	1:50 a	-19.7	-19.7	-19.7	---	---	21.7	ESE	0.36	24.3	-33.7	---	---	722.4	0.026	0.000	18.7	1	1
03/21/06	1:51 a	-19.7	-19.6	-19.7	---	---	22.6	ESE	0.38	26.1	-33.8	---	---	722.4	0.026	0.000	18.7	1	1
03/21/06	1:52 a	-19.7	-19.7	-19.7	---	---	22.6	ESE	0.38	27.0	-33.9	---	---	722.4	0.026	0.000	18.7	1	1
03/21/06	1:53 a	-19.7	-19.7	-19.7	---	---	20.9	SE	0.35	23.5	-33.5	---	---	722.6	0.026	0.000	18.7	1	1
03/21/06	1:54 a	-19.7	-19.7	-19.7	---	---	20.9	ESE	0.35	22.6	-33.4	---	---	722.5	0.026	0.000	18.7	1	1
03/21/06	1:55 a	-19.7	-19.7	-19.8	---	---	21.7	SE	0.36	26.1	-33.7	---	---	722.4	0.026	0.000	18.7	1	1
03/21/06	1:56 a	-19.8	-19.7	-19.8	---	---	20.9	ESE	0.35	22.6	-33.6	---	---	722.6	0.026	0.000	18.7	1	1
03/21/06	1:57 a	-19.7	-19.7	-19.8	---	---	22.6	SE	0.38	27.0	-33.9	---	---	722.6	0.026	0.000	18.7	1	1
03/21/06	1:58 a	-19.8	-19.7	-19.8	---	---	20.0	ESE	0.33	22.6	-33.3	---	---	722.5	0.026	0.000	18.7	1	1
03/21/06	1:59 a	-19.8	-19.8	-19.8	---	---	19.1	ESE	0.32	21.7	-33.1	---	---	722.5	0.026	0.000	18.7	1	1
03/21/06	2:00 a	-19.8	-19.8	-19.8	---	---	21.7	ESE	0.36	24.3	-33.8	---	---	722.4	0.026	0.000	18.7	1	1
03/21/06	2:01 a	-19.8	-19.8	-19.8	---	---	20.0	ESE	0.33	22.6	-33.3	---	---	722.5	0.026	0.000	18.7	1	1
03/21/06	2:02 a	-19.8	-19.8	-19.8	---	---	20.0	ESE	0.33	21.7	-33.3	---	---	722.5	0.026	0.000	18.7	1	1
03/21/06	2:03 a	-19.8	-19.8	-19.8	---	---	19.1	ESE	0.32	20.9	-33.1	---	---	722.4	0.026	0.000	18.7	1	1
03/21/06	2:04 a	-19.8	-19.8	-19.8	---	---	20.9	ESE	0.35	24.3	-33.6	---	---	722.4	0.026	0.000	18.7	1	1
03/21/06	2:05 a	-19.8	-19.8	-19.8	---	---	20.9	ESE	0.35	22.6	-33.6	---	---	722.4	0.026	0.000	18.7	1	1
03/21/06	2:06 a	-19.8	-19.8	-19.8	---	---	20.0	ESE	0.33	22.6	-33.3	---	---	722.5	0.026	0.000	18.7	1	1
03/21/06	2:07 a	-19.8	-19.8	-19.8	---	---	20.0	ESE	0.33	21.7	-33.3	---	---	722.4	0.026	0.000	18.7	1	1
03/21/06	2:08 a	-19.8	-19.7	-19.8	---	---	20.9	ESE	0.35	22.6	-33.6	---	---	722.5	0.026	0.000	18.7	1	1
03/21/06	2:09 a	-19.7	-19.7	-19.7	---	---	21.7	ESE	0.36	23.5	-33.7	---	---	722.5	0.026	0.000	18.7	1	1
03/21/06	2:10 a	-19.7	-19.7	-19.7	---	---	20.0	ESE	0.33	21.7	-33.2	---	---	722.6	0.026	0.000	18.7	1	1
03/21/06	2:11 a	-19.7	-19.7	-19.7	---	---	20.0	ESE	0.33	21.7	-33.2	---	---	722.6	0.026	0.000	18.8	1	1
03/21/06	2:12 a	-19.7	-19.7	-19.7	---	---	19.1	SE	0.32	20.9	-32.9	---	---	722.6	0.026	0.000	18.8	1	1
03/21/06	2:13 a	-19.7	-19.6	-19.7	---	---	18.3	ESE	0.30	20.0	-32.7	---	---	722.7	0.026	0.000	18.8	1	1
03/21/06	2:14 a	-19.7	-19.6	-19.7	---	---	20.9	SE	0.35	23.5	-33.4	---	---	722.6	0.026	0.000	18.8	1	1
03/21/06	2:15 a	-19.7	-19.6	-19.7	---	---	19.1	ESE	0.32	20.9	-32.9	---	---	722.7	0.026	0.000	18.8	1	1
03/21/06	2:16 a	-19.7	-19.6	-19.7	---	---	20.0	ESE	0.33	20.9	-33.2	---	---	722.6	0.026	0.000	18.8	1	1
03/21/06	2:17 a	-19.6	-19.6	-19.6	---	---	21.7	SE	0.36	24.3	-33.6	---	---	722.5	0.026	0.000	18.8	1	1
03/21/06	2:18 a	-19.6	-19.6	-19.6	---	---	20.0	SE	0.33	25.2	-33.1	---	---	722.6	0.026	0.000	18.8	1	1
03/21/06	2:19 a	-19.6	-19.6	-19.6	---	---	18.3	ESE	0.30	19.1	-32.6	---	---	722.6	0.026	0.000	18.8	1	1
03/21/06	2:20 a	-19.6	-19.6	-19.6	---	---	19.1	ESE	0.32	20.9	-32.8	---	---	722.6	0.026	0.000	18.8	1	1
03/21/06	2:21 a	-19.6	-19.6	-19.6	---	---	19.1	ESE	0.32	20.9	-32.8	---	---	722.5	0.026	0.000	18.8	1	1
03/21/06	2:22 a	-19.6	-19.6	-19.6	---	---	19.1	ESE	0.32	21.7	-32.8	---	---	722.5	0.026	0.000	18.8	1	1
03/21/06	2:23 a	-19.6	-19.6	-19.6	---	---	20.0	ESE	0.33	20.9	-33.1	---	---	722.5	0.026	0.000	18.8	1	1
03/21/06	2:24 a	-19.6	-19.6	-19.6	---	---	20.0	ESE	0.33	22.6	-33.0	---	---	722.6	0.026	0.000	18.8	1	1
03/21/06	2:25 a	-19.6	-19.5	-19.6	---	---	20.0	ESE	0.33	21.7	-33.0	---	---	722.4	0.026	0.000	18.8	1	1
03/21/06	2:26 a	-19.6	-19.5	-19.6	---	---	21.7	ESE	0.36	23.5	-33.5	---	---	722.4	0.026	0.000	18.8	1	1
03/21/06	2:27 a	-19.6	-19.6	-19.6	---	---	20.9	ESE	0.35	23.5	-33.3	---	---	722.5	0.026	0.000	18.8	1	1
03/21/06	2:28 a	-19.6	-19.6	-19.6	---	---	20.9	ESE	0.35	26.1	-33.3	---	---	722.5	0.026	0.000	18.8	1	1
03/21/06	2:29 a	-19.6	-19.6	-19.6	---	---	25.2	SE	0.42	28.7	-34.3	---	---	722.4	0.026	0.000	18.8	1	1
03/21/06	2:30 a	-19.6	-19.5	-19.6	---	---	22.6	SE	0.38	26.1	-33.7	---	---	722.5	0.026	0.000	18.8	1	1
03/21/06	2:31 a	-19.6	-19.5	-19.6	---	---	23.5	SE	0.39	27.8	-33.9	---	---	722.5	0.026	0.000	18.8	1	1
03/21/06	2:32 a	-19.5	-19.5	-19.5	---	---	26.1	SE	0.43	29.6	-34.4	---	---	722.4	0.026	0.000	18.8	1	1
03/21/06	2:33 a	-19.5	-19.5	-19.5	---	---	24.3	SE	0.41	27.8	-34.1	---	---	722.4	0.026	0.000	18.8	1	1
03/21/06	2:34 a	-19.5	-19.5	-19.5	---	---	24.3	SE	0.41	28.7	-34.1	---	---	722.4	0.026	0.000	18.8	1	1
03/21/06	2:35 a	-19.5	-19.5	-19.5	---	---	26.1	SE	0.43	28.7	-34.4	---	---	722.4	0.026	0.000	18.8	1	1
03/21/06	2:36 a	-19.4	-19.4	-19.5	---	---	24.3	SE	0.41	28.7	-33.9	---	---	722.4	0.026	0.000	18.8	1	1
03/21/06	2:37 a	-19.4	-19.4	-19.5	---	---	25.2	SE	0.42	27.8	-34.2	---	---	722.4	0.026	0.000	18.8	1	1
03/21/06	2:38 a	-19.4	-19.4	-19.4	---	---	26.1	SE	0.43	29.6	-34.3	---	---	722.4	0.026	0.000	18.8	1	1
03/21/06	2:39 a	-19.4	-19.4	-19.4	---	---	25.2	SE	0.42	27.8	-34.2	---	---	722.3	0.026	0.000	18.8	1	1
03/21/06	2:40 a	-19.4	-19.4	-19.4	---	---	26.1	SE	0.43	28.7	-34.3	---	---	722.4	0.026	0.000	18.8	1	1
03/21/06	2:41 a	-19.4	-19.4	-19.4	---	---	25.2	SE	0.42	27.8	-34.1	---	---	722.4	0.026	0.000	18.8	1	1
03/21/06	2:42 a	-19.4	-19.4	-19.4	---	---	23.5	SE	0.39	25.2	-33.7	---	---	722.5	0.026	0.000	18.7	1	1
03/21/06	2:43 a	-19.4	-19.4	-19.4	---	---	21.7	ESE	0.36	23.5	-33.3	---	---	722.5	0.026	0.000	18.7	1	1
03/21/06	2:44 a	-19.4	-19.4	-19.4	---	---	20.9	ESE	0.35	21.7	-33.1	---	---	722.5	0.026	0.000	18.7	1	1
03/21/06	2:45 a	-19.4	-19.4	-19.4	---	---	20.9	ESE	0.35	22.6	-33.1	---	---	722.5	0.026	0.000	18.7	1	1
03/21/06	2:46 a	-19.4	-19.4	-19.4	---	---	22.6	ESE	0.38	26.1	-33.5	---	---	722.5	0.026	0.000	18.7	1	1
03/21/06	2:47 a	-19.4	-19.3	-19.4	---	---	20.9	ESE	0.35	23.5	-33.1	---	---	722.5	0.026	0.000	18.7	1	1
03/21/06	2:48 a	-19.4	-19.3	-19.4	---	---	21.7	ESE	0.36	26.1	-33.3	---	---	722.5	0.026	0.000	18.7	1	1
03/21/06	2:49 a	-19.3	-19.3	-19.3	---	---	20.9	SE	0.35	23.5	-32.9	---	---	722.5	0.026	0.000	18.7	1	1
03/21/06	2:50 a	-19.3	-19.3	-19.3	---	---	20.9	ESE	0.35	23.5	-32.9	---	---	722.6	0.026	0.000	18.7	1	1
03/21/06	2:51 a	-19.3	-19.3	-19.3	---	---	23.5	SE	0.39	27.0	-33.6	---	---	722.7	0.026	0.000	18.7	1	1
03/21/06	2:52 a	-19.3	-19.3	-19.3	---	---	21.7	SE	0.36	25.2	-33.2	---	---	722.6	0.026	0.000	18.7	1	1
03/21/06	2:53 a	-19.3	-19.3	-19.3	---	---	21.7	SE	0.36	22.6	-33.2	---	---	722.5	0.026	0.000	18.7	1	1
03/21/06	2:54 a	-19.3	-19.3	-19.3	---	---	20.0	ESE	0.33	23.5	-32.7	---	---	722.5	0.026	0.000	18.7	1	1
03/21/06	2:55 a	-19.3	-19.2	-19.3	---	---	20.9	SE	0.35	23.5	-32.9	---	---	722.6	0.026	0.000	18.7	1	1
03/21/06	2:56 a	-19.3	-19.2	-19.3	---	---	20.9	SE	0.35	27.8	-32.9	---	---	722.5	0.026	0.000	18.7	1	1
03/21/06	2:57 a	-19.3	-19.3	-19.3	---	---	19.1	ESE	0.32	20.9	-32.4	---	---	722.6	0.026	0.000	18.7	1	1
03/21/06	2:58 a	-19.3	-19.3	-19.3	---	---	18.3	ESE	0.30	20.9	-32.2	---	---	722.5	0.026	0.000	18.7	1	1
03/21/06	2:59 a	-19.3	-19.3	-19.3	---	---	20.9	ESE	0.35	21.7	-32.9	---	---	722.6	0.026	0.000	18.7	1	1
03/21/06	3:00 a	-19.3	-19.2	-19.3	---	---	19.1	SE	0.32	22.6	-32.4	---	---	722.6	0.026	0.000	18.7	1	1
03/21/06	3:01 a	-19.2	-19.2	-19.3	---	---	20.0	ESE	0.33	22.6	-32.6	---	---	722.6	0.026	0.000	18.7	1	1
03/21/06	3:02 a	-19.2	-19.2	-19.3	---	---	18.3	ESE	0.30	20.0	-32.1	---	---	722.6	0.026	0.000	18.7	1	1
03/21/06	3:03 a	-19.2	-19.2	-19.2	---	---	20.9	ESE	0.35	23.5	-32.8	---	---	722.6	0.026	0.000	18.7	1	1
03/21/06	3:04 a	-19.2	-19.2	-19.2	---	---	20.0	ESE	0.33	22.6	-32.6	---	---	722.6	0.026	0.000	18.7	1	1
03/21/06	3:05 a	-19.2	-19.2	-19.2	---	---	20.9	SE	0.35	25.2	-32.8	---	---	722.7	0.026	0.000	18.7	1	1
03/21/06	3:06 a	-19.2	-19.2	-19.2	---	---	19.1	ESE	0.32	20.9	-32.3	---	---	722.6	0.026	0.000	18.7	1	1
03/21/06	3:07 a	-19.2	-19.2	-19.2	---	---	20.9	ESE	0.35	21.7	-32.7	---	---	722.6	0.026	0.000	18.8	1	1
03/21/06	3:08 a	-19.2	-19.1	-19.2	---	---	18.3	ESE	0.30	20.0	-32.0	---	---	722.6	0.026	0.000	18.8	1	1
03/21/06	3:09 a	-19.1	-19.1	-19.1	---	---	17.4	ESE	0.29	20.0	-31.7	---	---	722.6	0.026	0.000	18.8	1	1
03/21/06	3:10 a	-19.1	-19.1	-19.1	---	---	17.4	ESE	0.29	19.1	-31.7	---	---	722.6	0.026	0.000	18.8	1	1
03/21/06	3:11 a	-19.1	-19.1	-19.1	---	---	17.4	ESE	0.29	21.7	-31.7	---	---	722.7	0.026	0.000	18.8	1	1
03/21/06	3:12 a	-19.1	-19.1	-19.1	---	---	16.5	ESE	0.28	18.3	-31.4	---	---	722.7	0.026	0.000	18.8	1	1
03/21/06	3:13 a	-19.1	-19.1	-19.1	---	---	15.7	ESE	0.26	17.4	-31.2	---	---	722.7	0.026	0.000	18.8	1	1
03/21/06	3:14 a	-19.1	-19.1	-19.1	---	---	18.3	ESE	0.30	20.9	-31.9	---	---	722.6	0.026	0.000	18.8	1	1
03/21/06	3:15 a	-19.1	-19.1	-19.1	---	---	18.3	ESE	0.30	20.0	-31.9	---	---	722.7	0.026	0.000	18.8	1	1
03/21/06	3:16 a	-19.1	-19.1	-19.1	---	---	18.3	SE	0.30	20.0	-31.9	---	---	722.8	0.026	0.000	18.8	1	1
03/21/06	3:17 a	-19.1	-19.1	-19.1	---	---	17.4	SE	0.29	20.0	-31.6	---	---	722.8	0.026	0.000	18.8	1	1
03/21/06	3:18 a	-19.1	-19.1	-19.1	---	---	18.3	ESE	0.30	21.7	-31.9	---	---	722.7	0.026	0.000	18.8	1	1
03/21/06	3:19 a	-19.1	-19.0	-19.1	---	---	17.4	SE	0.29	21.7	-31.6	---	---	722.7	0.026	0.000	18.8	1	1
03/21/06	3:20 a	-19.0	-19.0	-19.1	---	---	19.1	SE	0.32	22.6	-32.1	---	---	722.7	0.026	0.000	18.8	1	1
03/21/06	3:21 a	-19.0	-19.0	-19.0	---	---	19.1	SE	0.32	20.9	-32.1	---	---	722.6	0.026	0.000	18.8	1	1
03/21/06	3:22 a	-19.0	-19.0	-19.1	---	---	18.3	SE	0.30	20.0	-31.8	---	---	722.6	0.026	0.000	18.8	1	1
03/21/06	3:23 a	-19.0	-18.9	-19.0	---	---	16.5	SE	0.28	17.4	-31.3	---	---	722.6	0.026	0.000	18.8	1	1
03/21/06	3:24 a	-18.9	-18.9	-19.0	---	---	17.4	SE	0.29	20.0	-31.5	---	---	722.7	0.026	0.000	18.8	1	1
03/21/06	3:25 a	-18.9	-18.9	-19.0	---	---	13.9	E	0.23	18.3	-30.3	---	---	722.7	0.026	0.000	18.8	1	1
03/21/06	3:26 a	-18.9	-18.9	-18.9	---	---	12.2	E	0.20	13.9	-29.7	---	---	722.8	0.026	0.000	18.8	1	1
03/21/06	3:27 a	-18.9	-18.9	-19.0	---	---	12.2	E	0.20	13.9	-29.7	---	---	722.8	0.026	0.000	18.8	1	1
03/21/06	3:28 a	-18.9	-18.9	-18.9	---	---	13.0	E	0.22	15.7	-30.0	---	---	722.8	0.026	0.000	18.8	1	1
03/21/06	3:29 a	-18.9	-18.9	-18.9	---	---	13.0	E	0.22	17.4	-30.0	---	---	722.7	0.026	0.000	18.8	1	1
03/21/06	3:30 a	-18.9	-18.9	-18.9	---	---	15.7	E	0.26	20.9	-30.9	---	---	722.8	0.026	0.000	18.8	1	1
03/21/06	3:31 a	-18.9	-18.9	-18.9	---	---	13.9	E	0.23	15.7	-30.2	---	---	722.7	0.026	0.000	18.8	1	1
03/21/06	3:32 a	-18.9	-18.9	-18.9	---	---	14.8	E	0.25	20.9	-30.6	---	---	722.7	0.026	0.000	18.8	1	1
03/21/06	3:33 a	-18.9	-18.9	-18.9	---	---	15.7	E	0.26	17.4	-30.8	---	---	722.8	0.026	0.000	18.8	1	1
03/21/06	3:34 a	-18.9	-18.9	-18.9	---	---	16.5	ESE	0.28	20.0	-31.1	---	---	722.7	0.026	0.000	18.8	1	1
03/21/06	3:35 a	-18.9	-18.9	-18.9	---	---	16.5	ESE	0.28	17.4	-31.1	---	---	722.7	0.026	0.000	18.8	1	1
03/21/06	3:36 a	-18.9	-18.8	-18.9	---	---	15.7	E	0.26	18.3	-30.8	---	---	722.7	0.026	0.000	18.8	1	1
03/21/06	3:37 a	-18.9	-18.8	-18.9	---	---	15.7	ESE	0.26	17.4	-30.8	---	---	722.7	0.026	0.000	18.8	1	1
03/21/06	3:38 a	-18.8	-18.8	-18.9	---	---	17.4	ESE	0.29	21.7	-31.3	---	---	722.6	0.026	0.000	18.8	1	1
03/21/06	3:39 a	-18.8	-18.8	-18.9	---	---	16.5	E	0.28	22.6	-31.1	---	---	722.5	0.026	0.000	18.8	1	1
03/21/06	3:40 a	-18.9	-18.8	-18.9	---	---	15.7	E	0.26	20.9	-30.8	---	---	722.7	0.026	0.000	18.8	1	1
03/21/06	3:41 a	-18.8	-18.8	-18.8	---	---	18.3	E	0.30	21.7	-31.6	---	---	722.6	0.026	0.000	18.8	1	1
03/21/06	3:42 a	-18.8	-18.8	-18.8	---	---	20.0	ESE	0.33	23.5	-32.1	---	---	722.5	0.026	0.000	18.8	1	1
03/21/06	3:43 a	-18.8	-18.8	-18.9	---	---	19.1	E	0.32	22.6	-31.8	---	---	722.4	0.026	0.000	18.8	1	1
03/21/06	3:44 a	-18.9	-18.8	-18.9	---	---	20.9	ESE	0.35	25.2	-32.4	---	---	722.5	0.026	0.000	18.8	1	1
03/21/06	3:45 a	-18.9	-18.8	-18.9	---	---	16.5	ESE	0.28	19.1	-31.1	---	---	722.6	0.026	0.000	18.8	1	1
03/21/06	3:46 a	-18.8	-18.8	-18.8	---	---	16.5	E	0.28	20.0	-31.1	---	---	722.6	0.026	0.000	18.8	1	1
03/21/06	3:47 a	-18.8	-18.8	-18.8	---	---	14.8	E	0.25	18.3	-30.5	---	---	722.7	0.026	0.000	18.8	1	1
03/21/06	3:48 a	-18.8	-18.8	-18.9	---	---	14.8	E	0.25	20.0	-30.5	---	---	722.6	0.026	0.000	18.8	1	1
03/21/06	3:49 a	-18.8	-18.8	-18.9	---	---	15.7	E	0.26	17.4	-30.8	---	---	722.5	0.026	0.000	18.8	1	1
03/21/06	3:50 a	-18.9	-18.8	-18.9	---	---	15.7	E	0.26	18.3	-30.8	---	---	722.5	0.026	0.000	18.8	1	1
03/21/06	3:51 a	-18.9	-18.8	-18.9	---	---	15.7	E	0.26	18.3	-30.8	---	---	722.6	0.026	0.000	18.8	1	1
03/21/06	3:52 a	-18.9	-18.9	-18.9	---	---	14.8	E	0.25	18.3	-30.6	---	---	722.5	0.026	0.000	18.8	1	1
03/21/06	3:53 a	-18.9	-18.9	-18.9	---	---	15.7	E	0.26	20.0	-30.8	---	---	722.6	0.026	0.000	18.8	1	1
03/21/06	3:54 a	-18.9	-18.9	-18.9	---	---	17.4	E	0.29	24.3	-31.4	---	---	722.5	0.026	0.000	18.8	1	1
03/21/06	3:55 a	-18.9	-18.9	-18.9	---	---	17.4	E	0.29	24.3	-31.5	---	---	722.6	0.026	0.000	18.8	1	1
03/21/06	3:56 a	-18.9	-18.9	-18.9	---	---	16.5	E	0.28	20.9	-31.2	---	---	722.5	0.026	0.000	18.8	1	1
03/21/06	3:57 a	-18.9	-18.9	-18.9	---	---	19.1	ESE	0.32	20.9	-32.0	---	---	722.5	0.026	0.000	18.8	1	1
03/21/06	3:58 a	-18.9	-18.9	-19.0	---	---	19.1	ESE	0.32	21.7	-32.0	---	---	722.4	0.026	0.000	18.7	1	1
03/21/06	3:59 a	-18.9	-18.9	-19.0	---	---	19.1	ESE	0.32	20.0	-32.0	---	---	722.5	0.026	0.000	18.7	1	1
03/21/06	4:00 a	-19.0	-18.9	-19.0	---	---	18.3	ESE	0.30	20.0	-31.8	---	---	722.5	0.026	0.000	18.7	1	1
03/21/06	4:01 a	-19.0	-18.9	-19.0	---	---	19.1	ESE	0.32	20.9	-32.1	---	---	722.4	0.026	0.000	18.7	1	1
03/21/06	4:02 a	-19.0	-18.9	-19.0	---	---	18.3	ESE	0.30	20.0	-31.8	---	---	722.5	0.026	0.000	18.7	1	1
03/21/06	4:03 a	-18.9	-18.9	-19.0	---	---	18.3	E	0.30	20.9	-31.7	---	---	722.6	0.026	0.000	18.7	1	1
03/21/06	4:04 a	-18.9	-18.9	-19.0	---	---	16.5	E	0.28	19.1	-31.2	---	---	722.6	0.026	0.000	18.7	1	1
03/21/06	4:05 a	-19.0	-18.9	-19.1	---	---	15.7	ESE	0.26	19.1	-31.0	---	---	722.6	0.026	0.000	18.7	1	1
03/21/06	4:06 a	-19.0	-18.9	-19.0	---	---	14.8	ESE	0.25	17.4	-30.7	---	---	722.6	0.026	0.000	18.7	1	1
03/21/06	4:07 a	-19.0	-19.0	-19.1	---	---	16.5	E	0.28	20.9	-31.3	---	---	722.5	0.026	0.000	18.8	1	1
03/21/06	4:08 a	-19.0	-19.0	-19.1	---	---	16.5	E	0.28	20.9	-31.3	---	---	722.5	0.026	0.000	18.8	1	1
03/21/06	4:09 a	-19.1	-19.1	-19.1	---	---	16.5	ESE	0.28	21.7	-31.3	---	---	722.6	0.026	0.000	18.8	1	1
03/21/06	4:10 a	-19.1	-19.1	-19.1	---	---	14.8	E	0.25	17.4	-30.8	---	---	722.7	0.026	0.000	18.8	1	1
03/21/06	4:11 a	-19.1	-19.1	-19.1	---	---	14.8	E	0.25	16.5	-30.8	---	---	722.6	0.026	0.000	18.8	1	1
03/21/06	4:12 a	-19.1	-19.1	-19.1	---	---	14.8	E	0.25	18.3	-30.8	---	---	722.6	0.026	0.000	18.8	1	1
03/21/06	4:13 a	-19.1	-19.1	-19.2	---	---	17.4	E	0.29	23.5	-31.7	---	---	722.6	0.026	0.000	18.8	1	1
03/21/06	4:14 a	-19.2	-19.2	-19.2	---	---	15.7	E	0.26	20.9	-31.2	---	---	722.6	0.026	0.000	18.8	1	1
03/21/06	4:15 a	-19.2	-19.2	-19.2	---	---	16.5	E	0.28	20.9	-31.5	---	---	722.5	0.026	0.000	18.8	1	1
03/21/06	4:16 a	-19.2	-19.2	-19.2	---	---	14.8	E	0.25	17.4	-31.0	---	---	722.5	0.026	0.000	18.8	1	1
03/21/06	4:17 a	-19.2	-19.2	-19.2	---	---	16.5	E	0.28	19.1	-31.6	---	---	722.6	0.026	0.000	18.8	1	1
03/21/06	4:18 a	-19.3	-19.2	-19.3	---	---	15.7	E	0.26	20.0	-31.3	---	---	722.6	0.026	0.000	18.8	1	1
03/21/06	4:19 a	-19.3	-19.2	-19.3	---	---	16.5	E	0.28	20.9	-31.7	---	---	722.5	0.026	0.000	18.8	1	1
03/21/06	4:20 a	-19.3	-19.3	-19.3	---	---	15.7	E	0.26	18.3	-31.4	---	---	722.5	0.026	0.000	18.8	1	1
03/21/06	4:21 a	-19.3	-19.3	-19.3	---	---	14.8	E	0.25	18.3	-31.1	---	---	722.7	0.026	0.000	18.9	1	1
03/21/06	4:22 a	-19.3	-19.3	-19.4	---	---	15.7	E	0.26	18.3	-31.4	---	---	722.7	0.026	0.000	18.9	1	1
03/21/06	4:23 a	-19.4	-19.3	-19.4	---	---	15.7	E	0.26	17.4	-31.5	---	---	722.6	0.026	0.000	18.9	1	1
03/21/06	4:24 a	-19.4	-19.3	-19.4	---	---	18.3	E	0.30	22.6	-32.3	---	---	722.6	0.026	0.000	18.9	1	1
03/21/06	4:25 a	-19.4	-19.4	-19.4	---	---	14.8	ESE	0.25	17.4	-31.3	---	---	722.6	0.026	0.000	18.9	1	1
03/21/06	4:26 a	-19.4	-19.4	-19.5	---	---	15.7	E	0.26	20.0	-31.6	---	---	722.6	0.026	0.000	18.9	1	1
03/21/06	4:27 a	-19.4	-19.4	-19.5	---	---	13.0	E	0.22	15.7	-30.6	---	---	722.6	0.026	0.000	18.9	1	1
03/21/06	4:28 a	-19.5	-19.4	-19.5	---	---	14.8	E	0.25	20.9	-31.3	---	---	722.6	0.026	0.000	18.9	1	1
03/21/06	4:29 a	-19.5	-19.4	-19.5	---	---	15.7	E	0.26	22.6	-31.7	---	---	722.5	0.026	0.000	18.9	1	1
03/21/06	4:30 a	-19.5	-19.5	-19.5	---	---	14.8	E	0.25	17.4	-31.3	---	---	722.6	0.026	0.000	18.9	1	1
03/21/06	4:31 a	-19.5	-19.5	-19.5	---	---	15.7	E	0.26	20.9	-31.7	---	---	722.6	0.026	0.000	18.9	1	1
03/21/06	4:32 a	-19.5	-19.5	-19.5	---	---	17.4	E	0.29	20.0	-32.2	---	---	722.6	0.026	0.000	18.9	1	1
03/21/06	4:33 a	-19.5	-19.5	-19.6	---	---	17.4	E	0.29	21.7	-32.2	---	---	722.5	0.026	0.000	18.9	1	1
03/21/06	4:34 a	-19.6	-19.5	-19.6	---	---	20.0	E	0.33	24.3	-33.0	---	---	722.6	0.026	0.000	18.9	1	1
03/21/06	4:35 a	-19.6	-19.6	-19.6	---	---	20.9	ESE	0.35	22.6	-33.3	---	---	722.6	0.026	0.000	18.9	1	1
03/21/06	4:36 a	-19.6	-19.5	-19.6	---	---	14.8	E	0.25	17.4	-31.4	---	---	722.7	0.026	0.000	18.9	1	1
03/21/06	4:37 a	-19.6	-19.6	-19.6	---	---	16.5	E	0.28	20.9	-32.1	---	---	722.5	0.026	0.000	18.9	1	1
03/21/06	4:38 a	-19.6	-19.6	-19.6	---	---	17.4	ESE	0.29	23.5	-32.3	---	---	722.7	0.026	0.000	18.9	1	1
03/21/06	4:39 a	-19.6	-19.6	-19.7	---	---	17.4	E	0.29	22.6	-32.3	---	---	722.5	0.026	0.000	18.9	1	1
03/21/06	4:40 a	-19.7	-19.6	-19.7	---	---	17.4	E	0.29	20.0	-32.4	---	---	722.6	0.026	0.000	18.9	1	1
03/21/06	4:41 a	-19.6	-19.6	-19.7	---	---	16.5	E	0.28	20.0	-32.1	---	---	722.6	0.026	0.000	18.9	1	1
03/21/06	4:42 a	-19.7	-19.7	-19.7	---	---	16.5	ESE	0.28	19.1	-32.2	---	---	722.7	0.026	0.000	18.9	1	1
03/21/06	4:43 a	-19.7	-19.7	-19.7	---	---	15.7	E	0.26	20.0	-31.9	---	---	722.7	0.026	0.000	18.9	1	1
03/21/06	4:44 a	-19.7	-19.7	-19.7	---	---	19.1	E	0.32	25.2	-32.9	---	---	722.8	0.026	0.000	18.9	1	1
03/21/06	4:45 a	-19.7	-19.7	-19.7	---	---	16.5	E	0.28	20.9	-32.2	---	---	722.8	0.026	0.000	18.9	1	1
03/21/06	4:46 a	-19.7	-19.7	-19.7	---	---	17.4	E	0.29	21.7	-32.4	---	---	722.8	0.026	0.000	18.9	1	1
03/21/06	4:47 a	-19.7	-19.7	-19.7	---	---	16.5	E	0.28	20.0	-32.2	---	---	722.7	0.026	0.000	18.9	1	1
03/21/06	4:48 a	-19.7	-19.7	-19.7	---	---	13.9	E	0.23	17.4	-31.2	---	---	722.8	0.026	0.000	18.9	1	1
03/21/06	4:49 a	-19.7	-19.7	-19.7	---	---	14.8	E	0.25	17.4	-31.6	---	---	722.8	0.026	0.000	18.9	1	1
03/21/06	4:50 a	-19.7	-19.7	-19.7	---	---	14.8	E	0.25	20.0	-31.6	---	---	722.8	0.026	0.000	18.9	1	1
03/21/06	4:51 a	-19.7	-19.7	-19.7	---	---	14.8	E	0.25	16.5	-31.6	---	---	722.8	0.026	0.000	18.9	1	1
03/21/06	4:52 a	-19.8	-19.7	-19.8	---	---	14.8	E	0.25	17.4	-31.7	---	---	722.7	0.026	0.000	18.9	1	1
03/21/06	4:53 a	-19.8	-19.8	-19.8	---	---	17.4	E	0.29	20.0	-32.6	---	---	722.6	0.026	0.000	18.8	1	1
03/21/06	4:54 a	-19.8	-19.8	-19.8	---	---	17.4	E	0.29	20.0	-32.6	---	---	722.6	0.026	0.000	18.8	1	1
03/21/06	4:55 a	-19.8	-19.8	-19.8	---	---	18.3	E	0.30	23.5	-32.8	---	---	722.7	0.026	0.000	18.8	1	1
03/21/06	4:56 a	-19.8	-19.8	-19.8	---	---	17.4	E	0.29	20.9	-32.6	---	---	722.7	0.027	0.000	18.8	1	1
03/21/06	4:57 a	-19.8	-19.8	-19.8	---	---	15.7	E	0.26	17.4	-32.1	---	---	722.7	0.027	0.000	18.8	1	1
03/21/06	4:58 a	-19.8	-19.8	-19.8	---	---	17.4	E	0.29	20.0	-32.6	---	---	722.7	0.027	0.000	18.8	1	1
03/21/06	4:59 a	-19.8	-19.8	-19.9	---	---	19.1	E	0.32	21.7	-33.2	---	---	722.6	0.027	0.000	18.8	1	1
03/21/06	5:00 a	-19.9	-19.9	-19.9	---	---	19.1	E	0.32	21.7	-33.2	---	---	722.7	0.027	0.000	18.8	1	1
03/21/06	5:01 a	-19.9	-19.9	-19.9	---	---	20.9	E	0.35	24.3	-33.8	---	---	722.6	0.027	0.000	18.8	1	1
03/21/06	5:02 a	-19.9	-19.9	-19.9	---	---	19.1	E	0.32	23.5	-33.3	---	---	722.6	0.027	0.000	18.8	1	1
03/21/06	5:03 a	-19.9	-19.9	-19.9	---	---	18.3	E	0.30	22.6	-33.1	---	---	722.7	0.027	0.000	18.8	1	1
03/21/06	5:04 a	-20.0	-19.9	-20.0	---	---	20.9	E	0.35	23.5	-33.8	---	---	722.7	0.027	0.000	18.8	1	1
03/21/06	5:05 a	-20.1	-20.0	-20.1	---	---	19.1	E	0.32	21.7	-33.4	---	---	722.6	0.027	0.000	18.8	1	1
03/21/06	5:06 a	-20.1	-20.0	-20.1	---	---	17.4	E	0.29	21.7	-32.9	---	---	722.6	0.027	0.000	18.8	1	1
03/21/06	5:07 a	-20.1	-20.1	-20.1	---	---	20.9	E	0.35	22.6	-33.9	---	---	722.6	0.027	0.000	18.8	1	1
03/21/06	5:08 a	-20.1	-20.1	-20.1	---	---	17.4	E	0.29	21.7	-32.9	---	---	722.7	0.027	0.000	18.8	1	1
03/21/06	5:09 a	-20.1	-20.1	-20.2	---	---	18.3	E	0.30	21.7	-33.3	---	---	722.7	0.027	0.000	18.8	1	1
03/21/06	5:10 a	-20.2	-20.1	-20.2	---	---	19.1	E	0.32	21.7	-33.6	---	---	722.6	0.027	0.000	18.8	1	1
03/21/06	5:11 a	-20.2	-20.2	-20.2	---	---	18.3	E	0.30	24.3	-33.3	---	---	722.6	0.027	0.000	18.8	1	1
03/21/06	5:12 a	-20.2	-20.2	-20.3	---	---	17.4	E	0.29	20.9	-33.2	---	---	722.7	0.027	0.000	18.8	1	1
03/21/06	5:13 a	-20.2	-20.2	-20.3	---	---	15.7	E	0.26	20.9	-32.6	---	---	722.7	0.027	0.000	18.8	1	1
03/21/06	5:14 a	-20.3	-20.3	-20.3	---	---	18.3	E	0.30	20.9	-33.5	---	---	722.6	0.027	0.000	18.8	1	1
03/21/06	5:15 a	-20.3	-20.3	-20.3	---	---	18.3	E	0.30	21.7	-33.5	---	---	722.6	0.027	0.000	18.9	1	1
03/21/06	5:16 a	-20.3	-20.3	-20.3	---	---	17.4	E	0.29	20.9	-33.3	---	---	722.7	0.027	0.000	18.9	1	1
03/21/06	5:17 a	-20.3	-20.3	-20.4	---	---	17.4	E	0.29	20.9	-33.3	---	---	722.7	0.027	0.000	18.9	1	1
03/21/06	5:18 a	-20.4	-20.3	-20.4	---	---	17.4	E	0.29	20.9	-33.4	---	---	722.7	0.027	0.000	18.9	1	1
03/21/06	5:19 a	-20.4	-20.4	-20.4	---	---	16.5	E	0.28	20.0	-33.1	---	---	722.8	0.027	0.000	18.9	1	1
03/21/06	5:20 a	-20.4	-20.4	-20.4	---	---	18.3	E	0.30	20.9	-33.6	---	---	722.8	0.027	0.000	18.9	1	1
03/21/06	5:21 a	-20.4	-20.4	-20.4	---	---	16.5	E	0.28	21.7	-33.1	---	---	722.7	0.027	0.000	18.9	1	1
03/21/06	5:22 a	-20.4	-20.4	-20.4	---	---	16.5	E	0.28	19.1	-33.2	---	---	722.8	0.027	0.000	18.9	1	1
03/21/06	5:23 a	-20.4	-20.4	-20.4	---	---	16.5	E	0.28	22.6	-33.2	---	---	722.8	0.027	0.000	18.9	1	1
03/21/06	5:24 a	-20.4	-20.4	-20.5	---	---	17.4	E	0.29	24.3	-33.4	---	---	722.7	0.027	0.000	18.9	1	1
03/21/06	5:25 a	-20.5	-20.5	-20.5	---	---	19.1	E	0.32	24.3	-34.1	---	---	722.5	0.027	0.000	18.9	1	1
03/21/06	5:26 a	-20.5	-20.4	-20.5	---	---	18.3	E	0.30	22.6	-33.8	---	---	722.7	0.027	0.000	18.9	1	1
03/21/06	5:27 a	-20.5	-20.5	-20.5	---	---	20.9	E	0.35	27.8	-34.5	---	---	722.7	0.027	0.000	18.9	1	1
03/21/06	5:28 a	-20.5	-20.5	-20.5	---	---	16.5	E	0.28	20.0	-33.2	---	---	722.8	0.027	0.000	18.9	1	1
03/21/06	5:29 a	-20.5	-20.5	-20.5	---	---	15.7	E	0.26	20.0	-32.9	---	---	722.8	0.027	0.000	18.9	1	1
03/21/06	5:30 a	-20.5	-20.5	-20.5	---	---	18.3	E	0.30	21.7	-33.8	---	---	722.7	0.027	0.000	18.9	1	1
03/21/06	5:31 a	-20.5	-20.5	-20.6	---	---	18.3	ESE	0.30	25.2	-33.8	---	---	722.7	0.027	0.000	19.0	1	1
03/21/06	5:32 a	-20.6	-20.5	-20.6	---	---	16.5	E	0.28	19.1	-33.3	---	---	722.8	0.027	0.000	18.9	1	1
03/21/06	5:33 a	-20.5	-20.5	-20.6	---	---	18.3	E	0.30	20.9	-33.8	---	---	722.8	0.027	0.000	19.0	1	1
03/21/06	5:34 a	-20.5	-20.5	-20.5	---	---	17.4	E	0.29	19.1	-33.5	---	---	722.8	0.027	0.000	19.0	1	1
03/21/06	5:35 a	-20.5	-20.5	-20.6	---	---	15.7	E	0.26	18.3	-32.9	---	---	722.7	0.027	0.000	19.0	1	1
03/21/06	5:36 a	-20.5	-20.5	-20.6	---	---	16.5	E	0.28	20.0	-33.2	---	---	722.9	0.027	0.000	19.0	1	1
03/21/06	5:37 a	-20.6	-20.5	-20.6	---	---	13.9	E	0.23	17.4	-32.4	---	---	722.8	0.027	0.000	19.0	1	1
03/21/06	5:38 a	-20.6	-20.6	-20.6	---	---	14.8	E	0.25	18.3	-32.7	---	---	722.8	0.027	0.000	18.9	1	1
03/21/06	5:39 a	-20.6	-20.6	-20.6	---	---	14.8	E	0.25	17.4	-32.7	---	---	722.8	0.027	0.000	18.9	1	1
03/21/06	5:40 a	-20.6	-20.6	-20.6	---	---	15.7	E	0.26	18.3	-33.0	---	---	722.8	0.027	0.000	18.9	1	1
03/21/06	5:41 a	-20.6	-20.6	-20.6	---	---	15.7	E	0.26	17.4	-33.0	---	---	722.8	0.027	0.000	18.9	1	1
03/21/06	5:42 a	-20.6	-20.6	-20.6	---	---	14.8	E	0.25	18.3	-32.7	---	---	723.0	0.027	0.000	18.9	1	1
03/21/06	5:43 a	-20.6	-20.6	-20.6	---	---	16.5	E	0.28	20.9	-33.3	---	---	722.8	0.027	0.000	18.9	1	1
03/21/06	5:44 a	-20.6	-20.6	-20.6	---	---	15.7	E	0.26	18.3	-33.0	---	---	722.9	0.027	0.000	18.9	1	1
03/21/06	5:45 a	-20.6	-20.6	-20.6	---	---	15.7	E	0.26	17.4	-33.1	---	---	722.8	0.027	0.000	18.9	1	1
03/21/06	5:46 a	-20.6	-20.6	-20.6	---	---	13.9	E	0.23	18.3	-32.4	---	---	722.8	0.027	0.000	18.9	1	1
03/21/06	5:47 a	-20.6	-20.6	-20.6	---	---	14.8	E	0.25	18.3	-32.7	---	---	722.8	0.027	0.000	18.9	1	1
03/21/06	5:48 a	-20.6	-20.6	-20.6	---	---	17.4	E	0.29	24.3	-33.7	---	---	722.8	0.027	0.000	18.9	1	1
03/21/06	5:49 a	-20.6	-20.6	-20.6	---	---	18.3	E	0.30	20.9	-33.9	---	---	722.7	0.027	0.000	18.9	1	1
03/21/06	5:50 a	-20.6	-20.6	-20.6	---	---	18.3	E	0.30	21.7	-33.9	---	---	722.7	0.027	0.000	18.9	1	1
03/21/06	5:51 a	-20.7	-20.6	-20.7	---	---	19.1	E	0.32	25.2	-34.3	---	---	722.7	0.027	0.000	18.9	1	1
03/21/06	5:52 a	-20.7	-20.7	-20.7	---	---	18.3	E	0.30	21.7	-34.0	---	---	722.7	0.027	0.000	18.9	1	1
03/21/06	5:53 a	-20.7	-20.6	-20.7	---	---	20.9	E	0.35	26.1	-34.7	---	---	722.7	0.027	0.000	18.9	1	1
03/21/06	5:54 a	-20.7	-20.6	-20.7	---	---	16.5	E	0.28	20.0	-33.4	---	---	722.7	0.027	0.000	18.9	1	1
03/21/06	5:55 a	-20.7	-20.6	-20.7	---	---	20.9	E	0.35	28.7	-34.7	---	---	722.7	0.027	0.000	18.9	1	1
03/21/06	5:56 a	-20.7	-20.7	-20.7	---	---	19.1	E	0.32	25.2	-34.3	---	---	722.6	0.027	0.000	18.8	1	1
03/21/06	5:57 a	-20.7	-20.7	-20.7	---	---	20.0	E	0.33	28.7	-34.6	---	---	722.7	0.027	0.000	18.8	1	1
03/21/06	5:58 a	-20.7	-20.7	-20.7	---	---	19.1	E	0.32	26.1	-34.3	---	---	722.7	0.027	0.000	18.8	1	1
03/21/06	5:59 a	-20.7	-20.7	-20.8	---	---	19.1	E	0.32	23.5	-34.3	---	---	722.6	0.027	0.000	18.8	1	1
03/21/06	6:00 a	-20.8	-20.7	-20.8	---	---	18.3	E	0.30	23.5	-34.2	---	---	722.5	0.027	0.000	18.8	1	1
03/21/06	6:01 a	-20.8	-20.8	-20.8	---	---	20.9	E	0.35	27.0	-34.9	---	---	722.7	0.027	0.000	18.8	1	1
03/21/06	6:02 a	-20.8	-20.8	-20.8	---	---	20.0	ESE	0.33	22.6	-34.7	---	---	722.6	0.027	0.000	18.8	1	1
03/21/06	6:03 a	-20.8	-20.8	-20.8	---	---	20.9	E	0.35	23.5	-34.9	---	---	722.8	0.027	0.000	18.8	1	1
03/21/06	6:04 a	-20.8	-20.8	-20.8	---	---	19.1	E	0.32	26.1	-34.5	---	---	722.7	0.027	0.000	18.8	1	1
03/21/06	6:05 a	-20.8	-20.8	-20.9	---	---	18.3	E	0.30	23.5	-34.2	---	---	722.7	0.027	0.000	18.8	1	1
03/21/06	6:06 a	-20.9	-20.9	-20.9	---	---	20.9	ESE	0.35	26.1	-35.1	---	---	722.6	0.027	0.000	18.8	1	1
03/21/06	6:07 a	-20.9	-20.9	-20.9	---	---	21.7	ESE	0.36	24.3	-35.3	---	---	722.6	0.027	0.000	18.8	1	1
03/21/06	6:08 a	-20.9	-20.9	-20.9	---	---	20.0	E	0.33	22.6	-34.8	---	---	722.7	0.027	0.000	18.8	1	1
03/21/06	6:09 a	-20.9	-20.9	-20.9	---	---	19.1	E	0.32	21.7	-34.6	---	---	722.6	0.027	0.000	18.8	1	1
03/21/06	6:10 a	-20.9	-20.9	-20.9	---	---	20.0	E	0.33	24.3	-34.8	---	---	722.6	0.027	0.000	18.8	1	1
03/21/06	6:11 a	-20.9	-20.9	-20.9	---	---	18.3	E	0.30	20.9	-34.4	---	---	722.6	0.027	0.000	18.8	1	1
03/21/06	6:12 a	-20.9	-20.9	-20.9	---	---	19.1	E	0.32	22.6	-34.6	---	---	722.6	0.027	0.000	18.9	1	1
03/21/06	6:13 a	-21.0	-20.9	-21.0	---	---	20.0	E	0.33	22.6	-34.9	---	---	722.6	0.027	0.000	18.9	1	1
03/21/06	6:14 a	-21.0	-21.0	-21.0	---	---	20.0	E	0.33	26.1	-34.9	---	---	722.6	0.027	0.000	18.9	1	1
03/21/06	6:15 a	-21.1	-21.0	-21.1	---	---	20.0	E	0.33	25.2	-35.0	---	---	722.6	0.027	0.000	18.9	1	1
03/21/06	6:16 a	-21.1	-21.0	-21.1	---	---	18.3	E	0.30	20.0	-34.5	---	---	722.6	0.027	0.000	18.9	1	1
03/21/06	6:17 a	-21.1	-21.1	-21.1	---	---	20.0	E	0.33	25.2	-35.1	---	---	722.5	0.027	0.000	18.9	1	1
03/21/06	6:18 a	-21.1	-21.1	-21.1	---	---	20.9	E	0.35	23.5	-35.3	---	---	722.6	0.027	0.000	18.9	1	1
03/21/06	6:19 a	-21.1	-21.1	-21.2	---	---	20.0	E	0.33	23.5	-35.1	---	---	722.7	0.027	0.000	18.9	1	1
03/21/06	6:20 a	-21.2	-21.1	-21.2	---	---	21.7	E	0.36	27.8	-35.6	---	---	722.5	0.027	0.000	18.9	1	1
03/21/06	6:21 a	-21.2	-21.2	-21.2	---	---	19.1	E	0.32	21.7	-34.9	---	---	722.6	0.027	0.000	18.9	1	1
03/21/06	6:22 a	-21.2	-21.2	-21.2	---	---	22.6	E	0.38	27.8	-35.9	---	---	722.6	0.027	0.000	18.9	1	1
03/21/06	6:23 a	-21.2	-21.2	-21.3	---	---	20.0	E	0.33	23.5	-35.2	---	---	722.7	0.027	0.000	18.9	1	1
03/21/06	6:24 a	-21.3	-21.2	-21.3	---	---	19.1	E	0.32	21.7	-35.1	---	---	722.6	0.028	0.000	18.9	1	1
03/21/06	6:25 a	-21.3	-21.3	-21.3	---	---	20.9	E	0.35	25.2	-35.6	---	---	722.6	0.028	0.000	18.9	1	1
03/21/06	6:26 a	-21.3	-21.3	-21.3	---	---	16.5	E	0.28	22.6	-34.3	---	---	722.8	0.028	0.000	18.9	1	1
03/21/06	6:27 a	-21.3	-21.3	-21.3	---	---	19.1	E	0.32	23.5	-35.1	---	---	722.8	0.028	0.000	18.9	1	1
03/21/06	6:28 a	-21.4	-21.3	-21.4	---	---	20.0	E	0.33	23.5	-35.4	---	---	722.7	0.028	0.000	18.9	1	1
03/21/06	6:29 a	-21.4	-21.4	-21.4	---	---	20.9	E	0.35	26.1	-35.7	---	---	722.7	0.028	0.000	18.9	1	1
03/21/06	6:30 a	-21.4	-21.4	-21.4	---	---	21.7	E	0.36	25.2	-36.0	---	---	722.7	0.028	0.000	18.9	1	1
03/21/06	6:31 a	-21.4	-21.4	-21.4	---	---	23.5	E	0.39	30.4	-36.4	---	---	722.6	0.028	0.000	18.9	1	1
03/21/06	6:32 a	-21.5	-21.5	-21.5	---	---	25.2	E	0.42	31.3	-36.9	---	---	722.6	0.028	0.000	18.9	1	1
03/21/06	6:33 a	-21.5	-21.5	-21.5	---	---	17.4	E	0.29	22.6	-34.8	---	---	722.8	0.028	0.000	18.9	1	1
03/21/06	6:34 a	-21.6	-21.5	-21.6	---	---	21.7	E	0.36	25.2	-36.2	---	---	722.7	0.028	0.000	18.9	1	1
03/21/06	6:35 a	-21.6	-21.6	-21.6	---	---	20.0	E	0.33	24.3	-35.7	---	---	722.7	0.028	0.000	18.9	1	1
03/21/06	6:36 a	-21.6	-21.6	-21.7	---	---	20.0	E	0.33	23.5	-35.8	---	---	722.7	0.028	0.000	18.9	1	1
03/21/06	6:37 a	-21.6	-21.6	-21.6	---	---	20.0	E	0.33	24.3	-35.8	---	---	722.8	0.028	0.000	18.9	1	1
03/21/06	6:38 a	-21.7	-21.6	-21.7	---	---	20.0	E	0.33	23.5	-35.8	---	---	722.8	0.028	0.000	19.0	1	1
03/21/06	6:39 a	-21.7	-21.6	-21.7	---	---	20.0	E	0.33	27.0	-35.8	---	---	722.7	0.028	0.000	19.0	1	1
03/21/06	6:40 a	-21.7	-21.7	-21.7	---	---	20.0	E	0.33	23.5	-35.8	---	---	722.7	0.028	0.000	19.0	1	1
03/21/06	6:41 a	-21.7	-21.7	-21.7	---	---	20.0	E	0.33	22.6	-35.8	---	---	722.7	0.028	0.000	19.0	1	1
03/21/06	6:42 a	-21.7	-21.7	-21.7	---	---	18.3	E	0.30	20.9	-35.3	---	---	722.7	0.028	0.000	19.0	1	1
03/21/06	6:43 a	-21.7	-21.7	-21.7	---	---	21.7	E	0.36	25.2	-36.4	---	---	722.8	0.028	0.000	19.0	1	1
03/21/06	6:44 a	-21.7	-21.7	-21.7	---	---	20.9	E	0.35	25.2	-36.2	---	---	722.7	0.028	0.000	19.0	1	1
03/21/06	6:45 a	-21.8	-21.7	-21.8	---	---	19.1	E	0.32	23.5	-35.7	---	---	722.8	0.028	0.000	18.9	1	1
03/21/06	6:46 a	-21.8	-21.8	-21.8	---	---	18.3	E	0.30	20.9	-35.4	---	---	722.8	0.028	0.000	18.9	1	1
03/21/06	6:47 a	-21.8	-21.8	-21.8	---	---	18.3	E	0.30	21.7	-35.4	---	---	722.7	0.028	0.000	18.9	1	1
03/21/06	6:48 a	-21.8	-21.7	-21.8	---	---	19.1	E	0.32	20.9	-35.7	---	---	722.7	0.028	0.000	18.9	1	1
03/21/06	6:49 a	-21.8	-21.8	-21.8	---	---	19.1	E	0.32	23.5	-35.7	---	---	722.7	0.028	0.000	18.9	1	1
03/21/06	6:50 a	-21.8	-21.8	-21.8	---	---	19.1	E	0.32	22.6	-35.7	---	---	722.7	0.028	0.000	18.9	1	1
03/21/06	6:51 a	-21.8	-21.8	-21.8	---	---	18.3	E	0.30	24.3	-35.4	---	---	722.7	0.028	0.000	18.9	1	1
03/21/06	6:52 a	-21.8	-21.8	-21.8	---	---	19.1	E	0.32	21.7	-35.8	---	---	722.7	0.028	0.000	18.9	1	1
03/21/06	6:53 a	-21.8	-21.8	-21.8	---	---	17.4	E	0.29	19.1	-35.3	---	---	722.8	0.028	0.000	18.9	1	1
03/21/06	6:54 a	-21.8	-21.8	-21.8	---	---	17.4	E	0.29	20.9	-35.2	---	---	722.8	0.028	0.000	18.9	1	1
03/21/06	6:55 a	-21.8	-21.8	-21.8	---	---	18.3	E	0.30	21.7	-35.4	---	---	722.9	0.028	0.000	18.9	1	1
03/21/06	6:56 a	-21.8	-21.8	-21.8	---	---	18.3	E	0.30	20.9	-35.6	---	---	722.7	0.028	0.000	18.9	1	1
03/21/06	6:57 a	-21.8	-21.8	-21.8	---	---	17.4	E	0.29	22.6	-35.3	---	---	722.8	0.028	0.000	18.8	1	1
03/21/06	6:58 a	-21.8	-21.8	-21.8	---	---	17.4	E	0.29	20.0	-35.3	---	---	722.8	0.028	0.000	18.8	1	1
03/21/06	6:59 a	-21.8	-21.8	-21.8	---	---	16.5	E	0.28	20.0	-34.9	---	---	722.8	0.028	0.000	18.8	1	1
03/21/06	7:00 a	-21.8	-21.8	-21.8	---	---	18.3	E	0.30	20.0	-35.4	---	---	722.8	0.028	0.000	18.8	1	1
03/21/06	7:01 a	-21.8	-21.8	-21.8	---	---	18.3	E	0.30	25.2	-35.6	---	---	722.7	0.028	0.000	18.8	1	1
03/21/06	7:02 a	-21.8	-21.8	-21.8	---	---	18.3	E	0.30	20.9	-35.6	---	---	722.7	0.028	0.000	18.8	1	1
03/21/06	7:03 a	-21.8	-21.8	-21.8	---	---	18.3	E	0.30	20.9	-35.6	---	---	722.7	0.028	0.000	18.8	1	1
03/21/06	7:04 a	-21.8	-21.8	-21.8	---	---	18.3	E	0.30	24.3	-35.6	---	---	722.7	0.028	0.000	18.8	1	1
03/21/06	7:05 a	-21.8	-21.8	-21.8	---	---	20.0	E	0.33	24.3	-36.1	---	---	722.9	0.028	0.000	18.8	1	1
03/21/06	7:06 a	-21.8	-21.8	-21.8	---	---	18.3	E	0.30	21.7	-35.6	---	---	722.8	0.028	0.000	18.8	1	1
03/21/06	7:07 a	-21.8	-21.8	-21.8	---	---	19.1	E	0.32	24.3	-35.8	---	---	722.7	0.028	0.000	18.8	1	1
03/21/06	7:08 a	-21.8	-21.8	-21.9	---	---	20.9	E	0.35	22.6	-36.3	---	---	722.8	0.028	0.000	18.8	1	1
03/21/06	7:09 a	-21.8	-21.8	-21.8	---	---	17.4	E	0.29	20.9	-35.3	---	---	722.9	0.028	0.000	18.8	1	1
03/21/06	7:10 a	-21.8	-21.8	-21.8	---	---	20.0	E	0.33	23.5	-36.1	---	---	722.8	0.028	0.000	18.8	1	1
03/21/06	7:11 a	-21.8	-21.8	-21.8	---	---	19.1	E	0.32	23.5	-35.8	---	---	722.9	0.028	0.000	18.8	1	1
03/21/06	7:12 a	-21.8	-21.8	-21.8	---	---	20.0	E	0.33	23.5	-36.1	---	---	722.9	0.028	0.000	18.8	1	1
03/21/06	7:13 a	-21.8	-21.8	-21.9	---	---	18.3	E	0.30	21.7	-35.6	---	---	722.8	0.028	0.000	18.9	1	1
03/21/06	7:14 a	-21.8	-21.8	-21.9	---	---	20.0	E	0.33	20.9	-36.1	---	---	722.7	0.028	0.000	18.9	1	1
03/21/06	7:15 a	-21.8	-21.8	-21.8	---	---	20.0	E	0.33	23.5	-36.1	---	---	722.7	0.028	0.000	18.9	1	1
03/21/06	7:16 a	-21.8	-21.8	-21.8	---	---	20.9	E	0.35	25.2	-36.3	---	---	722.7	0.028	0.000	18.9	1	1
03/21/06	7:17 a	-21.9	-21.8	-21.9	---	---	20.0	E	0.33	24.3	-36.1	---	---	722.8	0.028	0.000	18.9	1	1
03/21/06	7:18 a	-21.9	-21.8	-21.9	---	---	20.0	E	0.33	24.3	-36.1	---	---	722.8	0.028	0.000	18.9	1	1
03/21/06	7:19 a	-21.9	-21.9	-21.9	---	---	21.7	E	0.36	24.3	-36.6	---	---	722.8	0.028	0.000	18.9	1	1
03/21/06	7:20 a	-21.9	-21.8	-21.9	---	---	20.9	E	0.35	24.3	-36.4	---	---	722.8	0.028	0.000	18.9	1	1
03/21/06	7:21 a	-21.9	-21.8	-21.9	---	---	19.1	E	0.32	22.6	-35.9	---	---	722.9	0.028	0.000	18.9	1	1
03/21/06	7:22 a	-21.9	-21.9	-21.9	---	---	20.0	E	0.33	23.5	-36.1	---	---	722.9	0.028	0.000	18.9	1	1
03/21/06	7:23 a	-21.9	-21.9	-21.9	---	---	21.7	E	0.36	25.2	-36.7	---	---	722.9	0.028	0.000	18.9	1	1
03/21/06	7:24 a	-21.9	-21.9	-21.9	---	---	23.5	E	0.39	26.1	-37.1	---	---	722.8	0.028	0.000	18.9	1	1
03/21/06	7:25 a	-21.9	-21.9	-21.9	---	---	20.9	E	0.35	25.2	-36.4	---	---	722.8	0.028	0.000	18.9	1	1
03/21/06	7:26 a	-21.9	-21.9	-22.0	---	---	21.7	E	0.36	27.0	-36.7	---	---	722.8	0.028	0.000	18.9	1	1
03/21/06	7:27 a	-22.0	-21.9	-22.0	---	---	20.9	E	0.35	27.0	-36.5	---	---	722.8	0.028	0.000	18.9	1	1
03/21/06	7:28 a	-22.0	-22.0	-22.1	---	---	19.1	E	0.32	22.6	-36.0	---	---	722.8	0.028	0.000	18.9	1	1
03/21/06	7:29 a	-22.1	-22.0	-22.1	---	---	18.3	E	0.30	22.6	-35.8	---	---	722.9	0.028	0.000	18.9	1	1
03/21/06	7:30 a	-22.1	-22.0	-22.1	---	---	19.1	E	0.32	23.5	-36.1	---	---	722.9	0.028	0.000	18.9	1	1
03/21/06	7:31 a	-22.1	-22.0	-22.1	---	---	22.6	E	0.38	26.1	-37.1	---	---	722.8	0.028	0.000	18.9	1	1
03/21/06	7:32 a	-22.1	-22.1	-22.1	---	---	21.7	E	0.36	27.0	-36.9	---	---	722.9	0.028	0.000	18.9	1	1
03/21/06	7:33 a	-22.1	-22.1	-22.1	---	---	20.0	E	0.33	23.5	-36.4	---	---	722.9	0.028	0.000	18.9	1	1
03/21/06	7:34 a	-22.1	-22.1	-22.1	---	---	20.0	E	0.33	24.3	-36.4	---	---	722.9	0.028	0.000	18.9	1	1
03/21/06	7:35 a	-22.2	-22.1	-22.2	---	---	20.0	E	0.33	22.6	-36.5	---	---	722.9	0.028	0.000	18.9	1	1
03/21/06	7:36 a	-22.2	-22.2	-22.2	---	---	20.9	E	0.35	26.1	-36.7	---	---	722.8	0.028	0.000	18.9	1	1
03/21/06	7:37 a	-22.2	-22.2	-22.2	---	---	23.5	ENE	0.39	27.0	-37.4	---	---	722.8	0.028	0.000	18.9	1	1
03/21/06	7:38 a	-22.2	-22.2	-22.3	---	---	22.6	E	0.38	27.0	-37.3	---	---	722.9	0.028	0.000	18.9	1	1
03/21/06	7:39 a	-22.2	-22.2	-22.2	---	---	22.6	E	0.38	27.8	-37.3	---	---	722.8	0.028	0.000	18.9	1	1
03/21/06	7:40 a	-22.2	-22.2	-22.3	---	---	23.5	E	0.39	27.0	-37.5	---	---	722.9	0.028	0.000	19.0	1	1
03/21/06	7:41 a	-22.3	-22.3	-22.3	---	---	22.6	E	0.38	26.1	-37.3	---	---	722.7	0.028	0.000	19.0	1	1
03/21/06	7:42 a	-22.3	-22.3	-22.3	---	---	21.7	E	0.36	25.2	-37.1	---	---	722.8	0.028	0.000	19.0	1	1
03/21/06	7:43 a	-22.3	-22.3	-22.3	---	---	21.7	E	0.36	24.3	-37.2	---	---	722.7	0.028	0.000	18.9	1	1
03/21/06	7:44 a	-22.3	-22.3	-22.3	---	---	20.9	E	0.35	24.3	-36.9	---	---	722.8	0.028	0.000	18.9	1	1
03/21/06	7:45 a	-22.3	-22.3	-22.3	---	---	20.9	E	0.35	27.0	-36.9	---	---	722.8	0.028	0.000	18.9	1	1
03/21/06	7:46 a	-22.3	-22.3	-22.4	---	---	22.6	E	0.38	26.1	-37.4	---	---	722.8	0.028	0.000	18.9	1	1
03/21/06	7:47 a	-22.4	-22.3	-22.4	---	---	23.5	E	0.39	27.0	-37.7	---	---	722.7	0.028	0.000	18.9	1	1
03/21/06	7:48 a	-22.4	-22.4	-22.4	---	---	23.5	E	0.39	27.8	-37.7	---	---	722.7	0.028	0.000	18.9	1	1
03/21/06	7:49 a	-22.4	-22.4	-22.4	---	---	23.5	E	0.39	27.8	-37.7	---	---	722.8	0.028	0.000	18.9	1	1
03/21/06	7:50 a	-22.4	-22.4	-22.4	---	---	23.5	ENE	0.39	26.1	-37.8	---	---	722.9	0.028	0.000	18.9	1	1
03/21/06	7:51 a	-22.4	-22.4	-22.4	---	---	23.5	E	0.39	27.0	-37.8	---	---	722.8	0.028	0.000	18.9	1	1
03/21/06	7:52 a	-22.5	-22.4	-22.5	---	---	26.1	ENE	0.43	27.8	-38.5	---	---	722.8	0.028	0.000	18.9	1	1
03/21/06	7:53 a	-22.5	-22.5	-22.5	---	---	26.1	ENE	0.43	28.7	-38.5	---	---	722.9	0.028	0.000	18.9	1	1
03/21/06	7:54 a	-22.5	-22.5	-22.5	---	---	23.5	E	0.39	27.0	-37.9	---	---	722.8	0.028	0.000	18.9	1	1
03/21/06	7:55 a	-22.5	-22.5	-22.6	---	---	24.3	E	0.41	27.8	-38.1	---	---	722.9	0.028	0.000	18.9	1	1
03/21/06	7:56 a	-22.6	-22.6	-22.6	---	---	24.3	E	0.41	27.8	-38.2	---	---	723.0	0.028	0.000	18.9	1	1
03/21/06	7:57 a	-22.6	-22.6	-22.6	---	---	22.6	ENE	0.38	27.0	-37.7	---	---	722.8	0.028	0.000	18.9	1	1
03/21/06	7:58 a	-22.6	-22.6	-22.6	---	---	22.6	E	0.38	26.1	-37.7	---	---	722.9	0.028	0.000	18.9	1	1
03/21/06	7:59 a	-22.6	-22.6	-22.6	---	---	23.5	E	0.39	27.0	-38.0	---	---	722.8	0.028	0.000	18.8	1	1
03/21/06	8:00 a	-22.6	-22.6	-22.7	---	---	25.2	E	0.42	27.8	-38.4	---	---	722.8	0.028	0.000	18.8	1	1
03/21/06	8:01 a	-22.7	-22.6	-22.7	---	---	24.3	E	0.41	27.0	-38.3	---	---	722.9	0.028	0.000	18.8	1	1
03/21/06	8:02 a	-22.7	-22.7	-22.7	---	---	25.2	E	0.42	27.8	-38.5	---	---	722.7	0.028	0.000	18.8	1	1
03/21/06	8:03 a	-22.7	-22.7	-22.7	---	---	26.1	E	0.43	28.7	-38.7	---	---	722.8	0.028	0.000	18.8	1	1
03/21/06	8:04 a	-22.7	-22.7	-22.7	---	---	23.5	E	0.39	27.8	-38.2	---	---	722.8	0.029	0.000	18.8	1	1
03/21/06	8:05 a	-22.7	-22.7	-22.7	---	---	22.6	E	0.38	25.2	-37.9	---	---	722.8	0.029	0.000	18.8	1	1
03/21/06	8:06 a	-22.7	-22.7	-22.7	---	---	24.3	E	0.41	27.8	-38.4	---	---	722.8	0.029	0.000	18.8	1	1
03/21/06	8:07 a	-22.7	-22.7	-22.8	---	---	25.2	E	0.42	27.8	-38.6	---	---	722.8	0.029	0.000	18.8	1	1
03/21/06	8:08 a	-22.8	-22.8	-22.8	---	---	24.3	E	0.41	28.7	-38.4	---	---	722.9	0.029	0.000	18.8	1	1
03/21/06	8:09 a	-22.8	-22.8	-22.8	---	---	22.6	E	0.38	26.1	-38.0	---	---	722.9	0.029	0.000	18.8	1	1
03/21/06	8:10 a	-22.8	-22.8	-22.8	---	---	23.5	E	0.39	27.8	-38.2	---	---	722.9	0.029	0.000	18.8	1	1
03/21/06	8:11 a	-22.8	-22.8	-22.8	---	---	24.3	E	0.41	27.8	-38.4	---	---	722.8	0.029	0.000	18.8	1	1
03/21/06	8:12 a	-22.8	-22.8	-22.8	---	---	24.3	E	0.41	27.8	-38.6	---	---	722.8	0.029	0.000	18.8	1	1
03/21/06	8:13 a	-22.8	-22.8	-22.9	---	---	23.5	E	0.39	28.7	-38.3	---	---	722.8	0.029	0.000	18.8	1	1
03/21/06	8:14 a	-22.8	-22.8	-22.9	---	---	24.3	E	0.41	27.8	-38.6	---	---	722.8	0.029	0.000	18.8	1	1
03/21/06	8:15 a	-22.9	-22.9	-22.9	---	---	26.1	E	0.43	28.7	-39.1	---	---	722.7	0.029	0.000	18.8	1	1
03/21/06	8:16 a	-22.9	-22.9	-22.9	---	---	25.2	E	0.42	28.7	-38.8	---	---	722.8	0.029	0.000	18.8	1	1
03/21/06	8:17 a	-22.9	-22.9	-22.9	---	---	25.2	E	0.42	28.7	-38.8	---	---	722.7	0.029	0.000	18.8	1	1
03/21/06	8:18 a	-22.9	-22.9	-22.9	---	---	26.1	E	0.43	28.7	-39.1	---	---	722.7	0.029	0.000	18.8	1	1
03/21/06	8:19 a	-22.9	-22.9	-22.9	---	---	24.3	E	0.41	27.8	-38.7	---	---	722.6	0.029	0.000	18.8	1	1
03/21/06	8:20 a	-22.9	-22.9	-23.0	---	---	27.8	E	0.46	29.6	-39.5	---	---	722.5	0.029	0.000	18.8	1	1
03/21/06	8:21 a	-22.9	-22.9	-23.0	---	---	27.8	E	0.46	30.4	-39.5	---	---	722.6	0.029	0.000	18.8	1	1
03/21/06	8:22 a	-23.0	-23.0	-23.0	---	---	24.3	E	0.41	27.8	-38.8	---	---	722.6	0.029	0.000	18.8	1	1
03/21/06	8:23 a	-23.0	-23.0	-23.0	---	---	24.3	E	0.41	27.8	-38.8	---	---	722.7	0.029	0.000	18.8	1	1
03/21/06	8:24 a	-23.0	-23.0	-23.0	---	---	25.2	E	0.42	29.6	-39.0	---	---	722.7	0.029	0.000	18.8	1	1
03/21/06	8:25 a	-23.0	-23.0	-23.0	---	---	27.0	E	0.45	29.6	-39.4	---	---	722.6	0.029	0.000	18.8	1	1
03/21/06	8:26 a	-23.1	-23.1	-23.1	---	---	27.0	ENE	0.45	29.6	-39.4	---	---	722.6	0.029	0.000	18.8	1	1
03/21/06	8:27 a	-23.1	-23.0	-23.1	---	---	26.1	E	0.43	27.8	-39.3	---	---	722.6	0.029	0.000	18.8	1	1
03/21/06	8:28 a	-23.1	-23.1	-23.1	---	---	24.3	E	0.41	27.8	-38.8	---	---	722.7	0.029	0.000	18.8	1	1
03/21/06	8:29 a	-23.1	-23.1	-23.1	---	---	23.5	E	0.39	26.1	-38.7	---	---	722.9	0.029	0.000	18.8	1	1
03/21/06	8:30 a	-23.1	-23.1	-23.1	---	---	23.5	E	0.39	26.1	-38.7	---	---	722.8	0.029	0.000	18.8	1	1
03/21/06	8:31 a	-23.1	-23.1	-23.1	---	---	27.0	E	0.45	28.7	-39.6	---	---	722.7	0.029	0.000	18.8	1	1
03/21/06	8:32 a	-23.1	-23.1	-23.2	---	---	27.0	E	0.45	28.7	-39.6	---	---	722.6	0.029	0.000	18.8	1	1
03/21/06	8:33 a	-23.2	-23.1	-23.2	---	---	27.0	ENE	0.45	30.4	-39.6	---	---	722.5	0.029	0.000	18.9	1	1
03/21/06	8:34 a	-23.2	-23.2	-23.2	---	---	25.2	E	0.42	27.8	-39.2	---	---	722.7	0.029	0.000	18.8	1	1
03/21/06	8:35 a	-23.2	-23.2	-23.2	---	---	25.2	E	0.42	27.8	-39.2	---	---	722.7	0.029	0.000	18.8	1	1
03/21/06	8:36 a	-23.2	-23.2	-23.2	---	---	26.1	E	0.43	29.6	-39.4	---	---	722.7	0.029	0.000	18.8	1	1
03/21/06	8:37 a	-23.2	-23.2	-23.2	---	---	27.8	ENE	0.46	31.3	-39.9	---	---	722.6	0.029	0.000	18.8	1	1
03/21/06	8:38 a	-23.2	-23.2	-23.2	---	---	26.1	ENE	0.43	31.3	-39.5	---	---	722.6	0.029	0.000	18.8	1	1
03/21/06	8:39 a	-23.2	-23.2	-23.2	---	---	22.6	ENE	0.38	27.0	-38.6	---	---	722.7	0.029	0.000	18.8	1	1
03/21/06	8:40 a	-23.2	-23.2	-23.2	---	---	27.8	E	0.46	30.4	-39.9	---	---	722.6	0.029	0.000	18.8	1	1
03/21/06	8:41 a	-23.2	-23.2	-23.3	---	---	27.0	ENE	0.45	30.4	-39.7	---	---	722.5	0.029	0.000	18.8	1	1
03/21/06	8:42 a	-23.3	-23.2	-23.3	---	---	27.8	ENE	0.46	34.8	-39.9	---	---	722.7	0.029	0.000	18.8	1	1
03/21/06	8:43 a	-23.3	-23.3	-23.3	---	---	29.6	ENE	0.49	35.7	-40.3	---	---	722.8	0.029	0.000	18.8	1	1
03/21/06	8:44 a	-23.3	-23.3	-23.3	---	---	26.1	E	0.43	31.3	-39.6	---	---	722.6	0.029	0.000	18.8	1	1
03/21/06	8:45 a	-23.3	-23.3	-23.3	---	---	24.3	E	0.41	33.0	-39.2	---	---	722.7	0.029	0.000	18.8	1	1
03/21/06	8:46 a	-23.3	-23.3	-23.3	---	---	26.1	E	0.43	32.2	-39.6	---	---	722.6	0.029	0.000	18.8	1	1
03/21/06	8:47 a	-23.3	-23.3	-23.3	---	---	26.1	E	0.43	28.7	-39.6	---	---	722.6	0.029	0.000	18.8	1	1
03/21/06	8:48 a	-23.3	-23.3	-23.3	---	---	25.2	ENE	0.42	35.7	-39.3	---	---	722.6	0.029	0.000	18.8	1	1
03/21/06	8:49 a	-23.3	-23.3	-23.3	---	---	26.1	ENE	0.43	33.0	-39.6	---	---	722.6	0.029	0.000	18.8	1	1
03/21/06	8:50 a	-23.3	-23.3	-23.3	---	---	22.6	E	0.38	26.1	-38.8	---	---	722.6	0.029	0.000	18.9	1	1
03/21/06	8:51 a	-23.3	-23.3	-23.3	---	---	28.7	E	0.48	31.3	-40.2	---	---	722.5	0.029	0.000	18.9	1	1
03/21/06	8:52 a	-23.3	-23.3	-23.3	---	---	27.0	E	0.45	29.6	-39.8	---	---	722.6	0.029	0.000	18.9	1	1
03/21/06	8:53 a	-23.3	-23.3	-23.3	---	---	26.1	E	0.43	29.6	-39.6	---	---	722.5	0.029	0.000	18.8	1	1
03/21/06	8:54 a	-23.3	-23.3	-23.4	---	---	24.3	E	0.41	28.7	-39.2	---	---	722.6	0.029	0.000	18.8	1	1
03/21/06	8:55 a	-23.3	-23.3	-23.3	---	---	25.2	E	0.42	27.8	-39.4	---	---	722.5	0.029	0.000	18.8	1	1
03/21/06	8:56 a	-23.3	-23.3	-23.4	---	---	27.0	E	0.45	33.0	-39.8	---	---	722.5	0.029	0.000	18.8	1	1
03/21/06	8:57 a	-23.3	-23.3	-23.4	---	---	27.8	ENE	0.46	30.4	-40.1	---	---	722.5	0.029	0.000	18.8	1	1
03/21/06	8:58 a	-23.3	-23.3	-23.4	---	---	27.0	ENE	0.45	29.6	-39.8	---	---	722.5	0.029	0.000	18.8	1	1
03/21/06	8:59 a	-23.4	-23.4	-23.4	---	---	27.0	E	0.45	29.6	-39.9	---	---	722.6	0.029	0.000	18.8	1	1
03/21/06	9:00 a	-23.4	-23.4	-23.4	---	---	26.1	E	0.43	28.7	-39.7	---	---	722.5	0.029	0.000	18.8	1	1
03/21/06	9:01 a	-23.4	-23.4	-23.4	---	---	25.2	E	0.42	28.7	-39.5	---	---	722.6	0.029	0.000	18.8	1	1
03/21/06	9:02 a	-23.4	-23.4	-23.4	---	---	24.3	E	0.41	28.7	-39.3	---	---	722.6	0.029	0.000	18.8	1	1
03/21/06	9:03 a	-23.4	-23.4	-23.4	---	---	26.1	E	0.43	28.7	-39.7	---	---	722.6	0.029	0.000	18.8	1	1
03/21/06	9:04 a	-23.4	-23.4	-23.4	---	---	24.3	E	0.41	28.7	-39.3	---	---	722.6	0.029	0.000	18.7	1	1
03/21/06	9:05 a	-23.4	-23.4	-23.4	---	---	24.3	E	0.41	28.7	-39.3	---	---	722.6	0.029	0.000	18.7	1	1
03/21/06	9:06 a	-23.4	-23.4	-23.4	---	---	25.2	E	0.42	27.8	-39.6	---	---	722.6	0.029	0.000	18.7	1	1
03/21/06	9:07 a	-23.4	-23.4	-23.4	---	---	27.0	E	0.45	30.4	-39.9	---	---	722.6	0.029	0.000	18.7	1	1
03/21/06	9:08 a	-23.4	-23.4	-23.4	---	---	26.1	E	0.43	29.6	-39.8	---	---	722.5	0.029	0.000	18.7	1	1
03/21/06	9:09 a	-23.4	-23.4	-23.4	---	---	26.1	E	0.43	30.4	-39.8	---	---	722.5	0.029	0.000	18.7	1	1
03/21/06	9:10 a	-23.4	-23.4	-23.4	---	---	26.1	E	0.43	31.3	-39.8	---	---	722.6	0.029	0.000	18.7	1	1
03/21/06	9:11 a	-23.4	-23.4	-23.4	---	---	26.1	E	0.43	28.7	-39.8	---	---	722.5	0.029	0.000	18.7	1	1
03/21/06	9:12 a	-23.4	-23.4	-23.4	---	---	26.1	E	0.43	28.7	-39.8	---	---	722.5	0.029	0.000	18.7	1	1
03/21/06	9:13 a	-23.4	-23.4	-23.4	---	---	28.7	E	0.48	32.2	-40.4	---	---	722.5	0.029	0.000	18.7	1	1
03/21/06	9:14 a	-23.4	-23.4	-23.4	---	---	28.7	E	0.48	35.7	-40.4	---	---	722.4	0.029	0.000	18.7	1	1
03/21/06	9:15 a	-23.4	-23.4	-23.4	---	---	26.1	E	0.43	29.6	-39.8	---	---	722.5	0.029	0.000	18.7	1	1
03/21/06	9:16 a	-23.4	-23.4	-23.4	---	---	26.1	E	0.43	31.3	-39.8	---	---	722.3	0.029	0.000	18.7	1	1
03/21/06	9:17 a	-23.4	-23.4	-23.5	---	---	25.2	E	0.42	28.7	-39.6	---	---	722.4	0.029	0.000	18.7	1	1
03/21/06	9:18 a	-23.4	-23.4	-23.4	---	---	24.3	E	0.41	28.7	-39.4	---	---	722.4	0.029	0.000	18.7	1	1
03/21/06	9:19 a	-23.4	-23.4	-23.5	---	---	26.1	E	0.43	30.4	-39.8	---	---	722.4	0.029	0.000	18.7	1	1
03/21/06	9:20 a	-23.4	-23.4	-23.5	---	---	27.8	E	0.46	29.6	-40.2	---	---	722.3	0.029	0.000	18.7	1	1
03/21/06	9:21 a	-23.4	-23.4	-23.5	---	---	27.0	E	0.45	30.4	-40.0	---	---	722.4	0.029	0.000	18.7	1	1
03/21/06	9:22 a	-23.4	-23.4	-23.4	---	---	24.3	E	0.41	29.6	-39.4	---	---	722.4	0.029	0.000	18.7	1	1
03/21/06	9:23 a	-23.4	-23.4	-23.4	---	---	27.0	E	0.45	30.4	-40.0	---	---	722.5	0.029	0.000	18.7	1	1
03/21/06	9:24 a	-23.5	-23.4	-23.5	---	---	27.8	E	0.46	32.2	-40.3	---	---	722.4	0.029	0.000	18.7	1	1
03/21/06	9:25 a	-23.5	-23.4	-23.5	---	---	27.8	E	0.46	31.3	-40.3	---	---	722.4	0.029	0.000	18.7	1	1
03/21/06	9:26 a	-23.5	-23.4	-23.5	---	---	26.1	E	0.43	29.6	-39.9	---	---	722.4	0.029	0.000	18.7	1	1
03/21/06	9:27 a	-23.5	-23.5	-23.5	---	---	27.0	E	0.45	30.4	-40.1	---	---	722.5	0.029	0.000	18.7	1	1
03/21/06	9:28 a	-23.5	-23.5	-23.5	---	---	27.0	E	0.45	33.0	-40.1	---	---	722.5	0.029	0.000	18.7	1	1
03/21/06	9:29 a	-23.5	-23.5	-23.5	---	---	25.2	E	0.42	28.7	-39.7	---	---	722.4	0.029	0.000	18.7	1	1
03/21/06	9:30 a	-23.5	-23.5	-23.5	---	---	26.1	E	0.43	28.7	-39.9	---	---	722.5	0.029	0.000	18.7	1	1
03/21/06	9:31 a	-23.5	-23.5	-23.5	---	---	26.1	E	0.43	29.6	-39.9	---	---	722.6	0.029	0.000	18.7	1	1
03/21/06	9:32 a	-23.5	-23.5	-23.5	---	---	24.3	E	0.41	28.7	-39.4	---	---	722.5	0.029	0.000	18.7	1	1
03/21/06	9:33 a	-23.5	-23.5	-23.5	---	---	24.3	E	0.41	28.7	-39.4	---	---	722.5	0.029	0.000	18.7	1	1
03/21/06	9:34 a	-23.5	-23.5	-23.6	---	---	24.3	E	0.41	28.7	-39.4	---	---	722.5	0.029	0.000	18.7	1	1
03/21/06	9:35 a	-23.5	-23.5	-23.6	---	---	27.0	E	0.45	30.4	-40.1	---	---	722.5	0.029	0.000	18.7	1	1
03/21/06	9:36 a	-23.5	-23.5	-23.6	---	---	23.5	E	0.39	27.8	-39.2	---	---	722.6	0.029	0.000	18.7	1	1
03/21/06	9:37 a	-23.5	-23.5	-23.5	---	---	26.1	E	0.43	28.7	-39.9	---	---	722.5	0.029	0.000	18.7	1	1
03/21/06	9:38 a	-23.5	-23.5	-23.6	---	---	27.8	E	0.46	31.3	-40.3	---	---	722.7	0.029	0.000	18.7	1	1
03/21/06	9:39 a	-23.6	-23.5	-23.6	---	---	25.2	E	0.42	29.6	-39.7	---	---	722.7	0.029	0.000	18.7	1	1
03/21/06	9:40 a	-23.6	-23.5	-23.6	---	---	24.3	E	0.41	27.8	-39.5	---	---	722.5	0.029	0.000	18.7	1	1
03/21/06	9:41 a	-23.6	-23.5	-23.6	---	---	26.1	E	0.43	27.8	-39.9	---	---	722.5	0.029	0.000	18.7	1	1
03/21/06	9:42 a	-23.6	-23.6	-23.6	---	---	26.1	E	0.43	29.6	-39.9	---	---	722.5	0.029	0.000	18.7	1	1
03/21/06	9:43 a	-23.6	-23.6	-23.6	---	---	26.1	E	0.43	29.6	-39.9	---	---	722.5	0.029	0.000	18.7	1	1
03/21/06	9:44 a	-23.6	-23.6	-23.6	---	---	24.3	E	0.41	27.0	-39.5	---	---	722.6	0.029	0.000	18.7	1	1
03/21/06	9:45 a	-23.6	-23.6	-23.6	---	---	23.5	E	0.39	29.6	-39.3	---	---	722.6	0.029	0.000	18.7	1	1
03/21/06	9:46 a	-23.6	-23.6	-23.6	---	---	24.3	E	0.41	28.7	-39.6	---	---	722.6	0.029	0.000	18.7	1	1
03/21/06	9:47 a	-23.6	-23.6	-23.6	---	---	24.3	E	0.41	27.0	-39.5	---	---	722.7	0.029	0.000	18.7	1	1
03/21/06	9:48 a	-23.6	-23.6	-23.6	---	---	24.3	E	0.41	27.0	-39.5	---	---	722.7	0.029	0.000	18.7	1	1
03/21/06	9:49 a	-23.6	-23.6	-23.6	---	---	25.2	E	0.42	28.7	-39.7	---	---	722.6	0.029	0.000	18.7	1	1
03/21/06	9:50 a	-23.6	-23.6	-23.6	---	---	25.2	E	0.42	27.8	-39.8	---	---	722.6	0.029	0.000	18.7	1	1
03/21/06	9:51 a	-23.6	-23.6	-23.6	---	---	25.2	E	0.42	29.6	-39.8	---	---	722.5	0.029	0.000	18.7	1	1
03/21/06	9:52 a	-23.6	-23.6	-23.6	---	---	23.5	E	0.39	27.0	-39.4	---	---	722.7	0.029	0.000	18.7	1	1
03/21/06	9:53 a	-23.6	-23.6	-23.6	---	---	25.2	E	0.42	27.0	-39.8	---	---	722.6	0.029	0.000	18.7	1	1
03/21/06	9:54 a	-23.6	-23.6	-23.7	---	---	24.3	E	0.41	27.8	-39.6	---	---	722.8	0.029	0.000	18.7	1	1
03/21/06	9:55 a	-23.6	-23.6	-23.7	---	---	23.5	E	0.39	27.8	-39.4	---	---	722.7	0.029	0.000	18.7	1	1
03/21/06	9:56 a	-23.7	-23.6	-23.7	---	---	24.3	E	0.41	27.8	-39.7	---	---	722.7	0.029	0.000	18.7	1	1
03/21/06	9:57 a	-23.7	-23.6	-23.7	---	---	23.5	E	0.39	27.0	-39.4	---	---	722.6	0.029	0.000	18.7	1	1
03/21/06	9:58 a	-23.7	-23.7	-23.7	---	---	25.2	E	0.42	28.7	-39.9	---	---	722.8	0.029	0.000	18.7	1	1
03/21/06	9:59 a	-23.7	-23.6	-23.7	---	---	22.6	E	0.38	26.1	-39.2	---	---	722.8	0.029	0.000	18.7	1	1
03/21/06	10:00 a	-23.7	-23.7	-23.7	---	---	25.2	E	0.42	28.7	-39.9	---	---	722.8	0.029	0.000	18.7	1	1
03/21/06	10:01 a	-23.7	-23.7	-23.7	---	---	26.1	ENE	0.43	28.7	-40.1	---	---	722.7	0.029	0.000	18.7	1	1
03/21/06	10:02 a	-23.7	-23.7	-23.7	---	---	24.3	E	0.41	27.8	-39.7	---	---	722.8	0.029	0.000	18.7	1	1
03/21/06	10:03 a	-23.7	-23.7	-23.7	---	---	23.5	E	0.39	26.1	-39.4	---	---	722.9	0.029	0.000	18.7	1	1
03/21/06	10:04 a	-23.7	-23.7	-23.7	---	---	23.5	ENE	0.39	26.1	-39.4	---	---	722.9	0.029	0.000	18.7	1	1
03/21/06	10:05 a	-23.7	-23.7	-23.7	---	---	25.2	ENE	0.42	28.7	-39.9	---	---	722.8	0.029	0.000	18.7	1	1
03/21/06	10:06 a	-23.7	-23.7	-23.7	---	---	25.2	ENE	0.42	29.6	-39.9	---	---	722.8	0.029	0.000	18.7	1	1
03/21/06	10:07 a	-23.7	-23.7	-23.7	---	---	25.2	E	0.42	29.6	-39.9	---	---	722.8	0.029	0.000	18.7	1	1
03/21/06	10:08 a	-23.7	-23.7	-23.7	---	---	26.1	ENE	0.43	27.8	-40.2	---	---	722.9	0.029	0.000	18.7	1	1
03/21/06	10:09 a	-23.7	-23.7	-23.7	---	---	22.6	ENE	0.38	26.1	-39.3	---	---	722.9	0.029	0.000	18.7	1	1
03/21/06	10:10 a	-23.7	-23.7	-23.8	---	---	22.6	E	0.38	27.0	-39.3	---	---	722.9	0.029	0.000	18.6	1	1
03/21/06	10:11 a	-23.7	-23.7	-23.8	---	---	24.3	ENE	0.41	27.0	-39.7	---	---	722.9	0.029	0.000	18.6	1	1
03/21/06	10:12 a	-23.7	-23.7	-23.8	---	---	26.1	ENE	0.43	28.7	-40.2	---	---	723.0	0.029	0.000	18.6	1	1
03/21/06	10:13 a	-23.7	-23.7	-23.8	---	---	22.6	ENE	0.38	26.1	-39.3	---	---	723.0	0.029	0.000	18.6	1	1
03/21/06	10:14 a	-23.8	-23.8	-23.8	---	---	24.3	E	0.41	27.8	-39.8	---	---	722.9	0.029	0.000	18.6	1	1
03/21/06	10:15 a	-23.8	-23.8	-23.8	---	---	23.5	ENE	0.39	27.8	-39.6	---	---	723.0	0.029	0.000	18.6	1	1
03/21/06	10:16 a	-23.8	-23.8	-23.8	---	---	26.1	E	0.43	29.6	-40.2	---	---	722.9	0.029	0.000	18.6	1	1
03/21/06	10:17 a	-23.8	-23.8	-23.8	---	---	24.3	E	0.41	28.7	-39.8	---	---	722.9	0.029	0.000	18.6	1	1
03/21/06	10:18 a	-23.8	-23.8	-23.8	---	---	22.6	E	0.38	26.1	-39.4	---	---	723.0	0.029	0.000	18.5	1	1
03/21/06	10:19 a	-23.8	-23.8	-23.8	---	---	22.6	E	0.38	27.0	-39.4	---	---	723.0	0.029	0.000	18.5	1	1
03/21/06	10:20 a	-23.8	-23.8	-23.8	---	---	22.6	ENE	0.38	26.1	-39.4	---	---	723.1	0.029	0.000	18.5	1	1
03/21/06	10:21 a	-23.8	-23.8	-23.8	---	---	24.3	ENE	0.41	27.0	-39.8	---	---	723.0	0.029	0.000	18.5	1	1
03/21/06	10:22 a	-23.8	-23.8	-23.8	---	---	23.5	ENE	0.39	26.1	-39.7	---	---	723.1	0.029	0.000	18.5	1	1
03/21/06	10:23 a	-23.8	-23.8	-23.8	---	---	21.7	E	0.36	24.3	-39.2	---	---	723.1	0.029	0.000	18.5	1	1
03/21/06	10:24 a	-23.8	-23.8	-23.8	---	---	20.9	E	0.35	23.5	-38.9	---	---	723.1	0.029	0.000	18.5	1	1
03/21/06	10:25 a	-23.8	-23.8	-23.8	---	---	24.3	ENE	0.41	25.2	-39.9	---	---	723.1	0.029	0.000	18.5	1	1
03/21/06	10:26 a	-23.8	-23.8	-23.8	---	---	22.6	ENE	0.38	25.2	-39.4	---	---	723.2	0.029	0.000	18.5	1	1
03/21/06	10:27 a	-23.8	-23.8	-23.8	---	---	21.7	ENE	0.36	23.5	-39.2	---	---	723.1	0.029	0.000	18.5	1	1
03/21/06	10:28 a	-23.8	-23.8	-23.9	---	---	21.7	E	0.36	24.3	-39.2	---	---	723.1	0.029	0.000	18.5	1	1
03/21/06	10:29 a	-23.8	-23.8	-23.9	---	---	21.7	E	0.36	25.2	-39.2	---	---	723.1	0.029	0.000	18.5	1	1
03/21/06	10:30 a	-23.8	-23.8	-23.9	---	---	17.4	E	0.29	20.9	-37.9	---	---	723.2	0.029	0.000	18.5	1	1
03/21/06	10:31 a	-23.9	-23.8	-23.9	---	---	20.0	E	0.33	24.3	-38.8	---	---	723.0	0.029	0.000	18.5	1	1
03/21/06	10:32 a	-23.8	-23.8	-23.9	---	---	23.5	E	0.39	25.2	-39.7	---	---	723.1	0.029	0.000	18.5	1	1
03/21/06	10:33 a	-23.8	-23.8	-23.9	---	---	22.6	E	0.38	25.2	-39.4	---	---	723.0	0.029	0.000	18.5	1	1
03/21/06	10:34 a	-23.8	-23.8	-23.9	---	---	20.9	E	0.35	23.5	-38.9	---	---	723.0	0.029	0.000	18.5	1	1
03/21/06	10:35 a	-23.8	-23.8	-23.9	---	---	22.6	E	0.38	25.2	-39.4	---	---	723.0	0.029	0.000	18.5	1	1
03/21/06	10:36 a	-23.9	-23.8	-23.9	---	---	22.6	E	0.38	26.1	-39.5	---	---	723.1	0.029	0.000	18.5	1	1
03/21/06	10:37 a	-23.9	-23.8	-23.9	---	---	22.6	ENE	0.38	25.2	-39.5	---	---	723.1	0.029	0.000	18.5	1	1
03/21/06	10:38 a	-23.9	-23.9	-23.9	---	---	22.6	ENE	0.38	26.1	-39.5	---	---	723.1	0.029	0.000	18.6	1	1
03/21/06	10:39 a	-23.9	-23.9	-23.9	---	---	22.6	ENE	0.38	25.2	-39.5	---	---	723.1	0.029	0.000	18.6	1	1
03/21/06	10:40 a	-23.9	-23.9	-23.9	---	---	22.6	E	0.38	24.3	-39.5	---	---	723.1	0.029	0.000	18.6	1	1
03/21/06	10:41 a	-23.9	-23.9	-23.9	---	---	23.5	ENE	0.39	25.2	-39.7	---	---	723.0	0.029	0.000	18.6	1	1
03/21/06	10:42 a	-23.9	-23.9	-23.9	---	---	24.3	ENE	0.41	27.0	-39.9	---	---	723.0	0.029	0.000	18.6	1	1
03/21/06	10:43 a	-23.9	-23.9	-23.9	---	---	24.3	ENE	0.41	27.0	-39.9	---	---	723.0	0.029	0.000	18.6	1	1
03/21/06	10:44 a	-23.9	-23.9	-23.9	---	---	21.7	E	0.36	24.3	-39.3	---	---	723.1	0.029	0.000	18.5	1	1
03/21/06	10:45 a	-23.9	-23.9	-23.9	---	---	22.6	E	0.38	27.0	-39.5	---	---	723.0	0.029	0.000	18.5	1	1
03/21/06	10:46 a	-23.9	-23.9	-23.9	---	---	22.6	E	0.38	26.1	-39.5	---	---	723.0	0.029	0.000	18.6	1	1
03/21/06	10:47 a	-23.9	-23.9	-23.9	---	---	23.5	E	0.39	25.2	-39.7	---	---	723.0	0.029	0.000	18.6	1	1
03/21/06	10:48 a	-23.9	-23.9	-23.9	---	---	23.5	ENE	0.39	26.1	-39.7	---	---	723.0	0.029	0.000	18.5	1	1
03/21/06	10:49 a	-23.9	-23.9	-23.9	---	---	20.9	E	0.35	25.2	-39.1	---	---	723.0	0.029	0.000	18.5	1	1
03/21/06	10:50 a	-23.9	-23.9	-23.9	---	---	26.1	ENE	0.43	27.8	-40.4	---	---	723.0	0.029	0.000	18.5	1	1
03/21/06	10:51 a	-23.9	-23.8	-23.9	---	---	22.6	ENE	0.38	28.7	-39.5	---	---	723.1	0.029	0.000	18.6	1	1
03/21/06	10:52 a	-23.9	-23.9	-23.9	---	---	19.1	E	0.32	21.7	-38.5	---	---	723.1	0.029	0.000	18.6	1	1
03/21/06	10:53 a	-23.9	-23.9	-23.9	---	---	22.6	ENE	0.38	24.3	-39.5	---	---	723.2	0.029	0.000	18.6	1	1
03/21/06	10:54 a	-23.9	-23.9	-23.9	---	---	24.3	ENE	0.41	26.1	-39.9	---	---	723.2	0.029	0.000	18.6	1	1
03/21/06	10:55 a	-23.9	-23.9	-23.9	---	---	23.5	ENE	0.39	26.1	-39.7	---	---	723.2	0.029	0.000	18.6	1	1
03/21/06	10:56 a	-23.9	-23.9	-23.9	---	---	22.6	ENE	0.38	23.5	-39.5	---	---	723.2	0.029	0.000	18.6	1	1
03/21/06	10:57 a	-23.9	-23.9	-23.9	---	---	22.6	ENE	0.38	24.3	-39.5	---	---	723.1	0.029	0.000	18.6	1	1
03/21/06	10:58 a	-23.9	-23.9	-23.9	---	---	23.5	ENE	0.39	25.2	-39.7	---	---	723.2	0.029	0.000	18.6	1	1
03/21/06	10:59 a	-23.9	-23.9	-23.9	---	---	21.7	ENE	0.36	24.3	-39.3	---	---	723.3	0.029	0.000	18.6	1	1
03/21/06	11:00 a	-23.9	-23.9	-23.9	---	---	22.6	ENE	0.38	24.3	-39.5	---	---	723.2	0.029	0.000	18.6	1	1
03/21/06	11:01 a	-23.9	-23.9	-23.9	---	---	21.7	ENE	0.36	24.3	-39.3	---	---	723.1	0.029	0.000	18.6	1	1
03/21/06	11:02 a	-23.9	-23.9	-23.9	---	---	21.7	ENE	0.36	24.3	-39.3	---	---	723.1	0.029	0.000	18.6	1	1
03/21/06	11:03 a	-23.9	-23.9	-23.9	---	---	20.9	ENE	0.35	23.5	-39.1	---	---	723.1	0.029	0.000	18.6	1	1
03/21/06	11:04 a	-23.9	-23.9	-23.9	---	---	21.7	ENE	0.36	23.5	-39.3	---	---	723.2	0.029	0.000	18.6	1	1
03/21/06	11:05 a	-23.9	-23.9	-23.9	---	---	19.1	E	0.32	23.5	-38.5	---	---	723.2	0.029	0.000	18.6	1	1
03/21/06	11:06 a	-23.9	-23.9	-23.9	---	---	20.0	E	0.33	22.6	-38.8	---	---	723.0	0.029	0.000	18.6	1	1
03/21/06	11:07 a	-23.9	-23.9	-23.9	---	---	21.7	ENE	0.36	23.5	-39.3	---	---	723.1	0.029	0.000	18.6	1	1
03/21/06	11:08 a	-23.9	-23.9	-23.9	---	---	22.6	ENE	0.38	24.3	-39.5	---	---	723.1	0.029	0.000	18.6	1	1
03/21/06	11:09 a	-23.9	-23.9	-23.9	---	---	21.7	ENE	0.36	25.2	-39.3	---	---	723.2	0.029	0.000	18.6	1	1
03/21/06	11:10 a	-23.9	-23.9	-23.9	---	---	21.7	ENE	0.36	24.3	-39.3	---	---	723.1	0.029	0.000	18.6	1	1
03/21/06	11:11 a	-23.9	-23.9	-23.9	---	---	21.7	ENE	0.36	23.5	-39.3	---	---	723.1	0.029	0.000	18.6	1	1
03/21/06	11:12 a	-23.9	-23.9	-23.9	---	---	20.0	ENE	0.33	23.5	-38.8	---	---	723.2	0.029	0.000	18.6	1	1
03/21/06	11:13 a	-23.9	-23.9	-23.9	---	---	21.7	ENE	0.36	24.3	-39.3	---	---	723.1	0.029	0.000	18.6	1	1
03/21/06	11:14 a	-23.9	-23.9	-23.9	---	---	21.7	ENE	0.36	22.6	-39.3	---	---	723.1	0.029	0.000	18.6	1	1
03/21/06	11:15 a	-23.9	-23.9	-23.9	---	---	20.0	ENE	0.33	21.7	-38.8	---	---	723.1	0.029	0.000	18.6	1	1
03/21/06	11:16 a	-23.9	-23.9	-23.9	---	---	20.0	ENE	0.33	21.7	-38.8	---	---	723.3	0.029	0.000	18.6	1	1
03/21/06	11:17 a	-23.9	-23.8	-23.9	---	---	20.0	ENE	0.33	21.7	-38.8	---	---	723.2	0.029	0.000	18.6	1	1
03/21/06	11:18 a	-23.9	-23.9	-23.9	---	---	20.0	ENE	0.33	21.7	-38.8	---	---	723.2	0.029	0.000	18.5	1	1
03/21/06	11:19 a	-23.8	-23.8	-23.9	---	---	21.7	ENE	0.36	24.3	-39.2	---	---	723.2	0.029	0.000	18.5	1	1
03/21/06	11:20 a	-23.9	-23.8	-23.9	---	---	19.1	ENE	0.32	21.7	-38.5	---	---	723.2	0.029	0.000	18.5	1	1
03/21/06	11:21 a	-23.8	-23.8	-23.9	---	---	20.9	ENE	0.35	22.6	-38.9	---	---	723.3	0.029	0.000	18.5	1	1
03/21/06	11:22 a	-23.8	-23.8	-23.8	---	---	20.0	ENE	0.33	23.5	-38.7	---	---	723.2	0.029	0.000	18.5	1	1
03/21/06	11:23 a	-23.8	-23.8	-23.9	---	---	20.0	ENE	0.33	22.6	-38.7	---	---	723.2	0.029	0.000	18.5	1	1
03/21/06	11:24 a	-23.9	-23.8	-23.9	---	---	20.9	ENE	0.35	22.6	-39.1	---	---	723.2	0.029	0.000	18.5	1	1
03/21/06	11:25 a	-23.8	-23.8	-23.9	---	---	20.9	ENE	0.35	22.6	-38.9	---	---	723.3	0.029	0.000	18.5	1	1
03/21/06	11:26 a	-23.8	-23.8	-23.8	---	---	20.9	ENE	0.35	22.6	-38.9	---	---	723.2	0.029	0.000	18.5	1	1
03/21/06	11:27 a	-23.8	-23.8	-23.8	---	---	19.1	ENE	0.32	21.7	-38.4	---	---	723.2	0.029	0.000	18.5	1	1
03/21/06	11:28 a	-23.8	-23.8	-23.8	---	---	20.0	ENE	0.33	22.6	-38.7	---	---	723.3	0.029	0.000	18.5	1	1
03/21/06	11:29 a	-23.8	-23.8	-23.8	---	---	20.0	ENE	0.33	21.7	-38.7	---	---	723.2	0.029	0.000	18.5	1	1
03/21/06	11:30 a	-23.8	-23.8	-23.9	---	---	20.0	ENE	0.33	22.6	-38.7	---	---	723.2	0.029	0.000	18.5	1	1
03/21/06	11:31 a	-23.8	-23.8	-23.8	---	---	20.9	ENE	0.35	22.6	-38.9	---	---	723.2	0.029	0.000	18.5	1	1
03/21/06	11:32 a	-23.8	-23.8	-23.8	---	---	20.0	E	0.33	22.6	-38.7	---	---	723.2	0.029	0.000	18.5	1	1
03/21/06	11:33 a	-23.8	-23.8	-23.8	---	---	21.7	ENE	0.36	23.5	-39.1	---	---	723.2	0.029	0.000	18.5	1	1
03/21/06	11:34 a	-23.8	-23.8	-23.8	---	---	20.9	ENE	0.35	24.3	-38.9	---	---	723.2	0.029	0.000	18.5	1	1
03/21/06	11:35 a	-23.8	-23.8	-23.8	---	---	21.7	ENE	0.36	25.2	-39.1	---	---	723.2	0.029	0.000	18.5	1	1
03/21/06	11:36 a	-23.8	-23.8	-23.8	---	---	23.5	ENE	0.39	25.2	-39.6	---	---	723.1	0.029	0.000	18.6	1	1
03/21/06	11:37 a	-23.8	-23.8	-23.8	---	---	23.5	ENE	0.39	26.1	-39.6	---	---	723.0	0.029	0.000	18.5	1	1
03/21/06	11:38 a	-23.8	-23.8	-23.8	---	---	23.5	ENE	0.39	25.2	-39.6	---	---	723.1	0.029	0.000	18.5	1	1
03/21/06	11:39 a	-23.8	-23.7	-23.8	---	---	22.6	E	0.38	24.3	-39.4	---	---	723.1	0.029	0.000	18.5	1	1
03/21/06	11:40 a	-23.8	-23.7	-23.8	---	---	22.6	E	0.38	25.2	-39.4	---	---	723.1	0.029	0.000	18.5	1	1
03/21/06	11:41 a	-23.8	-23.7	-23.8	---	---	23.5	E	0.39	26.1	-39.6	---	---	723.1	0.029	0.000	18.5	1	1
03/21/06	11:42 a	-23.8	-23.7	-23.8	---	---	21.7	E	0.36	24.3	-39.1	---	---	723.1	0.029	0.000	18.5	1	1
03/21/06	11:43 a	-23.8	-23.7	-23.8	---	---	22.6	E	0.38	27.0	-39.4	---	---	723.0	0.029	0.000	18.5	1	1
03/21/06	11:44 a	-23.7	-23.7	-23.7	---	---	22.6	E	0.38	25.2	-39.3	---	---	723.1	0.029	0.000	18.5	1	1
03/21/06	11:45 a	-23.7	-23.7	-23.8	---	---	23.5	E	0.39	26.1	-39.5	---	---	722.9	0.029	0.000	18.4	1	1
03/21/06	11:46 a	-23.7	-23.7	-23.7	---	---	22.6	E	0.38	26.1	-39.3	---	---	723.0	0.029	0.000	18.4	1	1
03/21/06	11:47 a	-23.7	-23.7	-23.7	---	---	23.5	E	0.39	27.0	-39.5	---	---	723.0	0.029	0.000	18.4	1	1
03/21/06	11:48 a	-23.7	-23.7	-23.7	---	---	23.5	E	0.39	27.8	-39.5	---	---	722.9	0.029	0.000	18.4	1	1
03/21/06	11:49 a	-23.7	-23.7	-23.7	---	---	23.5	E	0.39	26.1	-39.5	---	---	722.9	0.029	0.000	18.4	1	1
03/21/06	11:50 a	-23.7	-23.7	-23.7	---	---	21.7	E	0.36	26.1	-39.1	---	---	722.9	0.029	0.000	18.4	1	1
03/21/06	11:51 a	-23.7	-23.7	-23.7	---	---	21.7	E	0.36	25.2	-39.0	---	---	722.9	0.029	0.000	18.4	1	1
03/21/06	11:52 a	-23.7	-23.7	-23.7	---	---	21.7	E	0.36	27.0	-39.1	---	---	722.8	0.029	0.000	18.4	1	1
03/21/06	11:53 a	-23.7	-23.7	-23.7	---	---	22.6	E	0.38	26.1	-39.2	---	---	722.8	0.029	0.000	18.4	1	1
03/21/06	11:54 a	-23.7	-23.7	-23.7	---	---	20.9	E	0.35	25.2	-38.8	---	---	722.9	0.029	0.000	18.3	1	1
03/21/06	11:55 a	-23.7	-23.7	-23.7	---	---	21.7	E	0.36	24.3	-39.0	---	---	722.9	0.029	0.000	18.3	1	1
03/21/06	11:56 a	-23.7	-23.7	-23.7	---	---	20.9	E	0.35	24.3	-38.7	---	---	722.8	0.029	0.000	18.3	1	1
03/21/06	11:57 a	-23.7	-23.7	-23.7	---	---	21.7	E	0.36	24.3	-39.0	---	---	723.0	0.029	0.000	18.3	1	1
03/21/06	11:58 a	-23.7	-23.7	-23.7	---	---	22.6	E	0.38	27.0	-39.2	---	---	722.9	0.029	0.000	18.3	1	1
03/21/06	11:59 a	-23.7	-23.7	-23.7	---	---	23.5	E	0.39	26.1	-39.4	---	---	722.9	0.029	0.000	18.3	1	1
03/21/06	12:00 p	-23.7	-23.7	-23.7	---	---	25.2	E	0.42	28.7	-39.9	---	---	722.9	0.029	0.000	18.3	1	1
03/21/06	12:01 p	-23.7	-23.7	-23.7	---	---	22.6	E	0.38	26.1	-39.2	---	---	722.9	0.029	0.000	18.3	1	1
03/21/06	12:02 p	-23.7	-23.7	-23.7	---	---	21.7	E	0.36	26.1	-39.0	---	---	722.9	0.029	0.000	18.3	1	1
03/21/06	12:03 p	-23.7	-23.7	-23.7	---	---	19.1	E	0.32	22.6	-38.2	---	---	723.0	0.029	0.000	18.3	1	1
03/21/06	12:04 p	-23.7	-23.7	-23.7	---	---	20.9	E	0.35	24.3	-38.7	---	---	723.1	0.029	0.000	18.3	1	1
03/21/06	12:05 p	-23.7	-23.6	-23.7	---	---	20.9	E	0.35	24.3	-38.7	---	---	723.1	0.029	0.000	18.3	1	1
03/21/06	12:06 p	-23.7	-23.6	-23.7	---	---	20.9	E	0.35	24.3	-38.7	---	---	723.2	0.029	0.000	18.3	1	1
03/21/06	12:07 p	-23.6	-23.6	-23.7	---	---	20.0	E	0.33	22.6	-38.4	---	---	723.1	0.029	0.000	18.4	1	1
03/21/06	12:08 p	-23.7	-23.6	-23.7	---	---	18.3	E	0.30	21.7	-37.9	---	---	723.2	0.029	0.000	18.4	1	1
03/21/06	12:09 p	-23.7	-23.6	-23.7	---	---	20.9	E	0.35	26.1	-38.7	---	---	723.1	0.029	0.000	18.4	1	1
03/21/06	12:10 p	-23.7	-23.6	-23.7	---	---	21.7	E	0.36	25.2	-39.0	---	---	723.1	0.029	0.000	18.3	1	1
03/21/06	12:11 p	-23.7	-23.6	-23.7	---	---	20.9	E	0.35	22.6	-38.7	---	---	723.3	0.029	0.000	18.4	1	1
03/21/06	12:12 p	-23.7	-23.7	-23.7	---	---	20.0	E	0.33	22.6	-38.5	---	---	723.2	0.029	0.000	18.4	1	1
03/21/06	12:13 p	-23.7	-23.6	-23.7	---	---	20.0	E	0.33	22.6	-38.5	---	---	723.3	0.029	0.000	18.4	1	1
03/21/06	12:14 p	-23.7	-23.7	-23.7	---	---	20.9	ENE	0.35	23.5	-38.7	---	---	723.2	0.029	0.000	18.4	1	1
03/21/06	12:15 p	-23.7	-23.6	-23.7	---	---	20.0	ENE	0.33	22.6	-38.5	---	---	723.3	0.029	0.000	18.4	1	1
03/21/06	12:16 p	-23.6	-23.6	-23.7	---	---	20.9	ENE	0.35	23.5	-38.7	---	---	723.2	0.029	0.000	18.4	1	1
03/21/06	12:17 p	-23.7	-23.6	-23.7	---	---	21.7	ENE	0.36	25.2	-39.0	---	---	723.3	0.029	0.000	18.4	1	1
03/21/06	12:18 p	-23.7	-23.7	-23.7	---	---	21.7	ENE	0.36	24.3	-39.0	---	---	723.2	0.029	0.000	18.4	1	1
03/21/06	12:19 p	-23.7	-23.7	-23.7	---	---	21.7	E	0.36	25.2	-39.0	---	---	723.2	0.029	0.000	18.4	1	1
03/21/06	12:20 p	-23.7	-23.7	-23.7	---	---	21.7	E	0.36	23.5	-39.0	---	---	723.2	0.029	0.000	18.3	1	1
03/21/06	12:21 p	-23.7	-23.6	-23.7	---	---	21.7	E	0.36	24.3	-39.0	---	---	723.3	0.029	0.000	18.4	1	1
03/21/06	12:22 p	-23.7	-23.6	-23.7	---	---	22.6	ENE	0.38	25.2	-39.2	---	---	723.2	0.029	0.000	18.4	1	1
03/21/06	12:23 p	-23.7	-23.7	-23.7	---	---	20.0	E	0.33	24.3	-38.5	---	---	723.3	0.029	0.000	18.4	1	1
03/21/06	12:24 p	-23.7	-23.7	-23.7	---	---	23.5	ENE	0.39	26.1	-39.4	---	---	723.2	0.029	0.000	18.4	1	1
03/21/06	12:25 p	-23.7	-23.7	-23.7	---	---	23.5	ENE	0.39	26.1	-39.4	---	---	723.2	0.029	0.000	18.4	1	1
03/21/06	12:26 p	-23.7	-23.7	-23.7	---	---	23.5	ENE	0.39	25.2	-39.4	---	---	723.3	0.029	0.000	18.4	1	1
03/21/06	12:27 p	-23.7	-23.7	-23.7	---	---	22.6	ENE	0.38	25.2	-39.2	---	---	723.2	0.029	0.000	18.4	1	1
03/21/06	12:28 p	-23.7	-23.7	-23.7	---	---	22.6	ENE	0.38	25.2	-39.2	---	---	723.2	0.029	0.000	18.4	1	1
03/21/06	12:29 p	-23.7	-23.7	-23.7	---	---	21.7	E	0.36	24.3	-39.0	---	---	723.2	0.029	0.000	18.4	1	1
03/21/06	12:30 p	-23.7	-23.7	-23.7	---	---	24.3	ENE	0.41	26.1	-39.7	---	---	723.2	0.029	0.000	18.4	1	1
03/21/06	12:31 p	-23.7	-23.7	-23.7	---	---	23.5	ENE	0.39	26.1	-39.4	---	---	723.2	0.029	0.000	18.4	1	1
03/21/06	12:32 p	-23.7	-23.7	-23.7	---	---	22.6	ENE	0.38	26.1	-39.2	---	---	723.2	0.029	0.000	18.4	1	1
03/21/06	12:33 p	-23.7	-23.7	-23.7	---	---	24.3	ENE	0.41	26.1	-39.7	---	---	723.2	0.029	0.000	18.4	1	1
03/21/06	12:34 p	-23.7	-23.7	-23.7	---	---	22.6	ENE	0.38	25.2	-39.2	---	---	723.3	0.029	0.000	18.4	1	1
03/21/06	12:35 p	-23.7	-23.7	-23.7	---	---	22.6	E	0.38	25.2	-39.3	---	---	723.2	0.029	0.000	18.4	1	1
03/21/06	12:36 p	-23.7	-23.7	-23.7	---	---	24.3	ENE	0.41	27.0	-39.7	---	---	723.2	0.029	0.000	18.4	1	1
03/21/06	12:37 p	-23.7	-23.7	-23.7	---	---	21.7	E	0.36	24.3	-39.0	---	---	723.2	0.029	0.000	18.4	1	1
03/21/06	12:38 p	-23.7	-23.7	-23.7	---	---	23.5	E	0.39	25.2	-39.5	---	---	723.2	0.029	0.000	18.3	1	1
03/21/06	12:39 p	-23.7	-23.7	-23.7	---	---	22.6	ENE	0.38	24.3	-39.3	---	---	723.3	0.029	0.000	18.3	1	1
03/21/06	12:40 p	-23.7	-23.7	-23.7	---	---	21.7	ENE	0.36	24.3	-39.1	---	---	723.3	0.029	0.000	18.3	1	1
03/21/06	12:41 p	-23.7	-23.7	-23.7	---	---	20.9	ENE	0.35	22.6	-38.8	---	---	723.3	0.029	0.000	18.3	1	1
03/21/06	12:42 p	-23.7	-23.7	-23.7	---	---	20.0	E	0.33	23.5	-38.6	---	---	723.4	0.029	0.000	18.3	1	1
03/21/06	12:43 p	-23.7	-23.7	-23.7	---	---	20.9	E	0.35	24.3	-38.8	---	---	723.3	0.029	0.000	18.3	1	1
03/21/06	12:44 p	-23.7	-23.7	-23.7	---	---	20.0	ENE	0.33	23.5	-38.6	---	---	723.4	0.029	0.000	18.3	1	1
03/21/06	12:45 p	-23.7	-23.7	-23.7	---	---	20.0	E	0.33	22.6	-38.6	---	---	723.3	0.029	0.000	18.3	1	1
03/21/06	12:46 p	-23.7	-23.7	-23.7	---	---	20.0	ENE	0.33	21.7	-38.6	---	---	723.4	0.029	0.000	18.3	1	1
03/21/06	12:47 p	-23.7	-23.7	-23.8	---	---	19.1	ENE	0.32	22.6	-38.3	---	---	723.3	0.029	0.000	18.3	1	1
03/21/06	12:48 p	-23.7	-23.7	-23.7	---	---	18.3	E	0.30	21.7	-38.0	---	---	723.3	0.029	0.000	18.3	1	1
03/21/06	12:49 p	-23.7	-23.7	-23.7	---	---	20.0	ENE	0.33	23.5	-38.6	---	---	723.4	0.029	0.000	18.4	1	1
03/21/06	12:50 p	-23.7	-23.7	-23.7	---	---	20.0	E	0.33	23.5	-38.6	---	---	723.3	0.029	0.000	18.3	1	1
03/21/06	12:51 p	-23.7	-23.7	-23.7	---	---	20.9	ENE	0.35	22.6	-38.8	---	---	723.3	0.029	0.000	18.3	1	1
03/21/06	12:52 p	-23.7	-23.7	-23.7	---	---	20.0	E	0.33	23.5	-38.6	---	---	723.2	0.029	0.000	18.3	1	1
03/21/06	12:53 p	-23.7	-23.7	-23.8	---	---	20.9	E	0.35	23.5	-38.8	---	---	723.2	0.029	0.000	18.3	1	1
03/21/06	12:54 p	-23.7	-23.7	-23.8	---	---	20.9	E	0.35	24.3	-38.8	---	---	723.2	0.029	0.000	18.3	1	1
03/21/06	12:55 p	-23.7	-23.7	-23.7	---	---	21.7	ENE	0.36	22.6	-39.1	---	---	723.3	0.029	0.000	18.4	1	1
03/21/06	12:56 p	-23.7	-23.7	-23.8	---	---	20.0	E	0.33	23.5	-38.6	---	---	723.3	0.029	0.000	18.4	1	1
03/21/06	12:57 p	-23.7	-23.7	-23.7	---	---	20.9	E	0.35	24.3	-38.8	---	---	723.2	0.029	0.000	18.4	1	1
03/21/06	12:58 p	-23.7	-23.7	-23.8	---	---	20.0	E	0.33	22.6	-38.6	---	---	723.3	0.029	0.000	18.4	1	1
03/21/06	12:59 p	-23.7	-23.7	-23.7	---	---	21.7	E	0.36	23.5	-39.1	---	---	723.1	0.029	0.000	18.4	1	1
03/21/06	1:00 p	-23.8	-23.7	-23.8	---	---	19.1	E	0.32	22.6	-38.4	---	---	723.2	0.029	0.000	18.4	1	1
03/21/06	1:01 p	-23.8	-23.7	-23.8	---	---	18.3	E	0.30	22.6	-38.1	---	---	723.2	0.029	0.000	18.4	1	1
03/21/06	1:02 p	-23.7	-23.7	-23.8	---	---	19.1	E	0.32	22.6	-38.3	---	---	723.3	0.029	0.000	18.4	1	1
03/21/06	1:03 p	-23.7	-23.7	-23.7	---	---	18.3	E	0.30	22.6	-38.0	---	---	723.3	0.029	0.000	18.4	1	1
03/21/06	1:04 p	-23.7	-23.7	-23.7	---	---	20.0	E	0.33	22.6	-38.6	---	---	723.2	0.029	0.000	18.4	1	1
03/21/06	1:05 p	-23.7	-23.7	-23.8	---	---	20.9	E	0.35	21.7	-38.8	---	---	723.2	0.029	0.000	18.4	1	1
03/21/06	1:06 p	-23.7	-23.7	-23.8	---	---	20.9	ENE	0.35	23.5	-38.8	---	---	723.2	0.029	0.000	18.4	1	1
03/21/06	1:07 p	-23.8	-23.7	-23.8	---	---	21.7	ENE	0.36	23.5	-39.1	---	---	723.2	0.029	0.000	18.4	1	1
03/21/06	1:08 p	-23.8	-23.7	-23.8	---	---	20.0	ENE	0.33	21.7	-38.6	---	---	723.2	0.029	0.000	18.4	1	1
03/21/06	1:09 p	-23.7	-23.7	-23.8	---	---	19.1	ENE	0.32	22.6	-38.3	---	---	723.2	0.029	0.000	18.4	1	1
03/21/06	1:10 p	-23.7	-23.7	-23.7	---	---	20.0	E	0.33	23.5	-38.6	---	---	723.2	0.029	0.000	18.4	1	1
03/21/06	1:11 p	-23.7	-23.7	-23.8	---	---	21.7	ENE	0.36	23.5	-39.1	---	---	723.2	0.029	0.000	18.4	1	1
03/21/06	1:12 p	-23.7	-23.7	-23.8	---	---	20.0	ENE	0.33	22.6	-38.6	---	---	723.1	0.029	0.000	18.4	1	1
03/21/06	1:13 p	-23.7	-23.7	-23.8	---	---	19.1	E	0.32	21.7	-38.3	---	---	723.2	0.029	0.000	18.4	1	1
03/21/06	1:14 p	-23.7	-23.7	-23.8	---	---	18.3	E	0.30	21.7	-38.0	---	---	723.2	0.029	0.000	18.4	1	1
03/21/06	1:15 p	-23.7	-23.7	-23.7	---	---	20.9	E	0.35	24.3	-38.8	---	---	723.3	0.029	0.000	18.4	1	1
03/21/06	1:16 p	-23.7	-23.7	-23.7	---	---	20.9	E	0.35	23.5	-38.8	---	---	723.2	0.029	0.000	18.4	1	1
03/21/06	1:17 p	-23.7	-23.7	-23.7	---	---	20.0	E	0.33	22.6	-38.6	---	---	723.3	0.029	0.000	18.4	1	1
03/21/06	1:18 p	-23.7	-23.7	-23.7	---	---	18.3	E	0.30	21.7	-38.0	---	---	723.3	0.029	0.000	18.4	1	1
03/21/06	1:19 p	-23.7	-23.7	-23.7	---	---	20.0	E	0.33	22.6	-38.5	---	---	723.2	0.029	0.000	18.4	1	1
03/21/06	1:20 p	-23.7	-23.7	-23.7	---	---	20.0	E	0.33	23.5	-38.6	---	---	723.2	0.029	0.000	18.4	1	1
03/21/06	1:21 p	-23.7	-23.7	-23.7	---	---	20.0	E	0.33	23.5	-38.5	---	---	723.1	0.029	0.000	18.4	1	1
03/21/06	1:22 p	-23.7	-23.7	-23.7	---	---	19.1	E	0.32	23.5	-38.2	---	---	723.2	0.029	0.000	18.4	1	1
03/21/06	1:23 p	-23.7	-23.7	-23.7	---	---	20.0	E	0.33	23.5	-38.5	---	---	723.1	0.029	0.000	18.4	1	1
03/21/06	1:24 p	-23.7	-23.7	-23.7	---	---	20.0	E	0.33	21.7	-38.5	---	---	723.1	0.029	0.000	18.4	1	1
03/21/06	1:25 p	-23.7	-23.7	-23.7	---	---	20.0	E	0.33	22.6	-38.5	---	---	723.1	0.029	0.000	18.4	1	1
03/21/06	1:26 p	-23.7	-23.7	-23.7	---	---	20.9	E	0.35	24.3	-38.7	---	---	723.0	0.029	0.000	18.4	1	1
03/21/06	1:27 p	-23.7	-23.7	-23.7	---	---	19.1	E	0.32	22.6	-38.2	---	---	723.2	0.029	0.000	18.4	1	1
03/21/06	1:28 p	-23.7	-23.7	-23.7	---	---	20.0	E	0.33	22.6	-38.5	---	---	723.1	0.029	0.000	18.4	1	1
03/21/06	1:29 p	-23.7	-23.7	-23.7	---	---	19.1	E	0.32	21.7	-38.2	---	---	723.1	0.029	0.000	18.4	1	1
03/21/06	1:30 p	-23.7	-23.6	-23.7	---	---	19.1	E	0.32	22.6	-38.2	---	---	723.1	0.029	0.000	18.4	1	1
03/21/06	1:31 p	-23.7	-23.6	-23.7	---	---	19.1	E	0.32	22.6	-38.2	---	---	723.2	0.029	0.000	18.4	1	1
03/21/06	1:32 p	-23.7	-23.6	-23.7	---	---	20.0	E	0.33	22.6	-38.5	---	---	723.2	0.029	0.000	18.4	1	1
03/21/06	1:33 p	-23.7	-23.6	-23.7	---	---	20.0	E	0.33	22.6	-38.5	---	---	723.2	0.029	0.000	18.4	1	1
03/21/06	1:34 p	-23.6	-23.6	-23.7	---	---	19.1	E	0.32	21.7	-38.2	---	---	723.2	0.029	0.000	18.4	1	1
03/21/06	1:35 p	-23.6	-23.6	-23.7	---	---	19.1	E	0.32	22.6	-38.2	---	---	723.2	0.029	0.000	18.4	1	1
03/21/06	1:36 p	-23.6	-23.6	-23.6	---	---	19.1	E	0.32	22.6	-38.2	---	---	723.2	0.029	0.000	18.4	1	1
03/21/06	1:37 p	-23.6	-23.6	-23.6	---	---	20.0	E	0.33	22.6	-38.4	---	---	723.2	0.029	0.000	18.4	1	1
03/21/06	1:38 p	-23.6	-23.6	-23.6	---	---	20.0	ENE	0.33	21.7	-38.4	---	---	723.3	0.029	0.000	18.4	1	1
03/21/06	1:39 p	-23.6	-23.6	-23.6	---	---	19.1	E	0.32	21.7	-38.2	---	---	723.2	0.029	0.000	18.4	1	1
03/21/06	1:40 p	-23.6	-23.6	-23.6	---	---	20.0	E	0.33	22.6	-38.4	---	---	723.2	0.029	0.000	18.4	1	1
03/21/06	1:41 p	-23.6	-23.6	-23.6	---	---	20.9	E	0.35	22.6	-38.7	---	---	723.2	0.029	0.000	18.3	1	1
03/21/06	1:42 p	-23.6	-23.6	-23.6	---	---	19.1	ENE	0.32	23.5	-38.2	---	---	723.2	0.029	0.000	18.3	1	1
03/21/06	1:43 p	-23.6	-23.6	-23.6	---	---	20.0	E	0.33	24.3	-38.3	---	---	723.1	0.029	0.000	18.4	1	1
03/21/06	1:44 p	-23.6	-23.6	-23.6	---	---	18.3	E	0.30	22.6	-37.8	---	---	723.2	0.029	0.000	18.4	1	1
03/21/06	1:45 p	-23.6	-23.6	-23.6	---	---	19.1	E	0.32	22.6	-38.1	---	---	723.1	0.029	0.000	18.4	1	1
03/21/06	1:46 p	-23.6	-23.6	-23.6	---	---	20.0	E	0.33	22.6	-38.3	---	---	723.2	0.029	0.000	18.4	1	1
03/21/06	1:47 p	-23.6	-23.5	-23.6	---	---	20.0	E	0.33	23.5	-38.3	---	---	723.2	0.029	0.000	18.4	1	1
03/21/06	1:48 p	-23.6	-23.6	-23.6	---	---	20.0	E	0.33	23.5	-38.3	---	---	723.1	0.029	0.000	18.4	1	1
03/21/06	1:49 p	-23.6	-23.5	-23.6	---	---	20.0	E	0.33	23.5	-38.3	---	---	723.2	0.029	0.000	18.4	1	1
03/21/06	1:50 p	-23.6	-23.5	-23.6	---	---	20.0	E	0.33	23.5	-38.3	---	---	723.1	0.029	0.000	18.4	1	1
03/21/06	1:51 p	-23.5	-23.5	-23.6	---	---	20.0	E	0.33	22.6	-38.3	---	---	723.1	0.029	0.000	18.4	1	1
03/21/06	1:52 p	-23.5	-23.5	-23.5	---	---	21.7	E	0.36	25.2	-38.8	---	---	723.1	0.029	0.000	18.4	1	1
03/21/06	1:53 p	-23.5	-23.5	-23.5	---	---	20.0	E	0.33	23.5	-38.3	---	---	723.1	0.029	0.000	18.4	1	1
03/21/06	1:54 p	-23.5	-23.5	-23.6	---	---	19.1	E	0.32	22.6	-38.0	---	---	723.1	0.029	0.000	18.4	1	1
03/21/06	1:55 p	-23.5	-23.4	-23.5	---	---	20.9	E	0.35	23.5	-38.5	---	---	723.0	0.029	0.000	18.4	1	1
03/21/06	1:56 p	-23.5	-23.4	-23.6	---	---	20.0	E	0.33	22.6	-38.3	---	---	723.1	0.029	0.000	18.4	1	1
03/21/06	1:57 p	-23.4	-23.4	-23.5	---	---	20.0	E	0.33	25.2	-38.2	---	---	723.1	0.029	0.000	18.4	1	1
03/21/06	1:58 p	-23.5	-23.5	-23.5	---	---	18.3	E	0.30	21.7	-37.7	---	---	723.0	0.029	0.000	18.4	1	1
03/21/06	1:59 p	-23.4	-23.4	-23.4	---	---	20.9	E	0.35	23.5	-38.4	---	---	723.1	0.029	0.000	18.4	1	1
03/21/06	2:00 p	-23.4	-23.4	-23.4	---	---	19.1	E	0.32	22.6	-37.9	---	---	723.1	0.029	0.000	18.4	1	1
03/21/06	2:01 p	-23.4	-23.4	-23.4	---	---	20.0	E	0.33	24.3	-38.2	---	---	723.2	0.029	0.000	18.4	1	1
03/21/06	2:02 p	-23.4	-23.4	-23.5	---	---	20.0	E	0.33	23.5	-38.2	---	---	723.1	0.029	0.000	18.4	1	1
03/21/06	2:03 p	-23.4	-23.4	-23.4	---	---	20.0	E	0.33	22.6	-38.2	---	---	723.1	0.029	0.000	18.4	1	1
03/21/06	2:04 p	-23.4	-23.4	-23.4	---	---	19.1	E	0.32	21.7	-37.9	---	---	723.1	0.029	0.000	18.4	1	1
03/21/06	2:05 p	-23.4	-23.4	-23.4	---	---	20.0	E	0.33	22.6	-38.2	---	---	723.0	0.029	0.000	18.4	1	1
03/21/06	2:06 p	-23.4	-23.4	-23.4	---	---	19.1	E	0.32	21.7	-37.8	---	---	723.1	0.029	0.000	18.4	1	1
03/21/06	2:07 p	-23.4	-23.4	-23.4	---	---	19.1	E	0.32	21.7	-37.8	---	---	723.1	0.029	0.000	18.4	1	1
03/21/06	2:08 p	-23.4	-23.4	-23.4	---	---	19.1	E	0.32	22.6	-37.9	---	---	723.1	0.029	0.000	18.4	1	1
03/21/06	2:09 p	-23.4	-23.4	-23.4	---	---	19.1	E	0.32	21.7	-37.8	---	---	723.1	0.029	0.000	18.4	1	1
03/21/06	2:10 p	-23.4	-23.4	-23.4	---	---	19.1	E	0.32	22.6	-37.8	---	---	723.2	0.029	0.000	18.4	1	1
03/21/06	2:11 p	-23.4	-23.4	-23.4	---	---	20.0	E	0.33	23.5	-38.1	---	---	723.2	0.029	0.000	18.4	1	1
03/21/06	2:12 p	-23.4	-23.3	-23.4	---	---	20.9	E	0.35	22.6	-38.4	---	---	723.2	0.029	0.000	18.3	1	1
03/21/06	2:13 p	-23.4	-23.3	-23.4	---	---	19.1	E	0.32	21.7	-37.8	---	---	723.1	0.029	0.000	18.3	1	1
03/21/06	2:14 p	-23.4	-23.3	-23.4	---	---	17.4	E	0.29	20.9	-37.3	---	---	723.0	0.029	0.000	18.3	1	1
03/21/06	2:15 p	-23.4	-23.4	-23.4	---	---	17.4	E	0.29	20.0	-37.3	---	---	723.1	0.029	0.000	18.3	1	1
03/21/06	2:16 p	-23.4	-23.4	-23.4	---	---	19.1	E	0.32	23.5	-37.8	---	---	723.1	0.029	0.000	18.3	1	1
03/21/06	2:17 p	-23.3	-23.3	-23.4	---	---	19.1	E	0.32	22.6	-37.8	---	---	723.1	0.029	0.000	18.4	1	1
03/21/06	2:18 p	-23.3	-23.3	-23.4	---	---	20.0	E	0.33	22.6	-38.1	---	---	723.0	0.029	0.000	18.3	1	1
03/21/06	2:19 p	-23.3	-23.3	-23.4	---	---	19.1	E	0.32	22.6	-37.8	---	---	723.0	0.029	0.000	18.3	1	1
03/21/06	2:20 p	-23.3	-23.3	-23.3	---	---	19.1	E	0.32	22.6	-37.8	---	---	723.0	0.029	0.000	18.3	1	1
03/21/06	2:21 p	-23.3	-23.3	-23.3	---	---	20.0	E	0.33	24.3	-38.1	---	---	723.0	0.029	0.000	18.3	1	1
03/21/06	2:22 p	-23.3	-23.3	-23.4	---	---	19.1	E	0.32	20.9	-37.8	---	---	723.0	0.029	0.000	18.3	1	1
03/21/06	2:23 p	-23.3	-23.3	-23.3	---	---	17.4	E	0.29	21.7	-37.2	---	---	723.2	0.029	0.000	18.3	1	1
03/21/06	2:24 p	-23.3	-23.3	-23.3	---	---	16.5	E	0.28	20.0	-36.9	---	---	723.0	0.029	0.000	18.3	1	1
03/21/06	2:25 p	-23.3	-23.3	-23.3	---	---	16.5	E	0.28	19.1	-36.9	---	---	723.1	0.029	0.000	18.3	1	1
03/21/06	2:26 p	-23.3	-23.3	-23.3	---	---	15.7	E	0.26	18.3	-36.6	---	---	723.1	0.029	0.000	18.3	1	1
03/21/06	2:27 p	-23.3	-23.2	-23.3	---	---	16.5	E	0.28	20.0	-36.9	---	---	723.1	0.029	0.000	18.3	1	1
03/21/06	2:28 p	-23.3	-23.3	-23.3	---	---	17.4	E	0.29	20.9	-37.2	---	---	723.2	0.029	0.000	18.3	1	1
03/21/06	2:29 p	-23.3	-23.2	-23.3	---	---	14.8	E	0.25	17.4	-36.2	---	---	723.2	0.029	0.000	18.3	1	1
03/21/06	2:30 p	-23.3	-23.2	-23.3	---	---	16.5	E	0.28	20.0	-36.9	---	---	723.1	0.029	0.000	18.3	1	1
03/21/06	2:31 p	-23.3	-23.2	-23.3	---	---	16.5	E	0.28	20.0	-36.9	---	---	723.1	0.029	0.000	18.3	1	1
03/21/06	2:32 p	-23.3	-23.2	-23.3	---	---	17.4	E	0.29	20.0	-37.2	---	---	723.2	0.029	0.000	18.3	1	1
03/21/06	2:33 p	-23.2	-23.2	-23.3	---	---	16.5	E	0.28	19.1	-36.8	---	---	723.1	0.029	0.000	18.3	1	1
03/21/06	2:34 p	-23.3	-23.2	-23.3	---	---	17.4	E	0.29	20.0	-37.2	---	---	723.1	0.029	0.000	18.3	1	1
03/21/06	2:35 p	-23.3	-23.2	-23.3	---	---	16.5	E	0.28	19.1	-36.9	---	---	723.2	0.029	0.000	18.3	1	1
03/21/06	2:36 p	-23.2	-23.2	-23.2	---	---	13.9	E	0.23	18.3	-35.8	---	---	723.1	0.029	0.000	18.3	1	1
03/21/06	2:37 p	-23.2	-23.2	-23.3	---	---	14.8	E	0.25	17.4	-36.2	---	---	723.1	0.029	0.000	18.3	1	1
03/21/06	2:38 p	-23.2	-23.2	-23.3	---	---	16.5	E	0.28	18.3	-36.8	---	---	723.2	0.029	0.000	18.3	1	1
03/21/06	2:39 p	-23.2	-23.2	-23.2	---	---	16.5	E	0.28	18.3	-36.8	---	---	723.1	0.029	0.000	18.3	1	1
03/21/06	2:40 p	-23.2	-23.2	-23.2	---	---	16.5	E	0.28	19.1	-36.8	---	---	723.1	0.029	0.000	18.3	1	1
03/21/06	2:41 p	-23.2	-23.2	-23.3	---	---	15.7	E	0.26	18.3	-36.5	---	---	723.1	0.029	0.000	18.3	1	1
03/21/06	2:42 p	-23.2	-23.2	-23.3	---	---	14.8	E	0.25	18.3	-36.2	---	---	723.0	0.029	0.000	18.3	1	1
03/21/06	2:43 p	-23.2	-23.2	-23.2	---	---	16.5	E	0.28	19.1	-36.8	---	---	723.1	0.029	0.000	18.3	1	1
03/21/06	2:44 p	-23.2	-23.2	-23.2	---	---	17.4	E	0.29	20.9	-37.1	---	---	723.1	0.029	0.000	18.3	1	1
03/21/06	2:45 p	-23.2	-23.2	-23.2	---	---	18.3	E	0.30	20.9	-37.3	---	---	722.9	0.029	0.000	18.3	1	1
03/21/06	2:46 p	-23.2	-23.2	-23.2	---	---	19.1	E	0.32	21.7	-37.6	---	---	723.0	0.029	0.000	18.3	1	1
03/21/06	2:47 p	-23.2	-23.2	-23.2	---	---	18.3	E	0.30	23.5	-37.3	---	---	722.9	0.029	0.000	18.3	1	1
03/21/06	2:48 p	-23.2	-23.2	-23.2	---	---	19.1	E	0.32	22.6	-37.6	---	---	722.8	0.029	0.000	18.3	1	1
03/21/06	2:49 p	-23.2	-23.2	-23.2	---	---	16.5	E	0.28	20.0	-36.7	---	---	723.0	0.029	0.000	18.3	1	1
03/21/06	2:50 p	-23.2	-23.2	-23.2	---	---	16.5	E	0.28	20.0	-36.7	---	---	722.9	0.029	0.000	18.3	1	1
03/21/06	2:51 p	-23.2	-23.2	-23.2	---	---	17.4	E	0.29	21.7	-37.0	---	---	722.9	0.029	0.000	18.3	1	1
03/21/06	2:52 p	-23.2	-23.2	-23.2	---	---	17.4	E	0.29	22.6	-37.0	---	---	722.9	0.029	0.000	18.3	1	1
03/21/06	2:53 p	-23.2	-23.1	-23.2	---	---	17.4	E	0.29	20.9	-37.0	---	---	723.0	0.029	0.000	18.3	1	1
03/21/06	2:54 p	-23.1	-23.1	-23.2	---	---	16.5	E	0.28	19.1	-36.7	---	---	723.0	0.029	0.000	18.3	1	1
03/21/06	2:55 p	-23.1	-23.1	-23.1	---	---	17.4	E	0.29	20.9	-36.9	---	---	723.0	0.029	0.000	18.3	1	1
03/21/06	2:56 p	-23.1	-23.1	-23.1	---	---	18.3	E	0.30	20.0	-37.2	---	---	723.0	0.029	0.000	18.3	1	1
03/21/06	2:57 p	-23.1	-23.1	-23.2	---	---	18.3	E	0.30	20.0	-37.2	---	---	722.9	0.029	0.000	18.3	1	1
03/21/06	2:58 p	-23.1	-23.1	-23.1	---	---	17.4	E	0.29	20.0	-36.9	---	---	722.9	0.029	0.000	18.3	1	1
03/21/06	2:59 p	-23.1	-23.1	-23.1	---	---	17.4	E	0.29	19.1	-36.9	---	---	722.9	0.029	0.000	18.3	1	1
03/21/06	3:00 p	-23.1	-23.1	-23.1	---	---	17.4	E	0.29	20.9	-36.9	---	---	722.9	0.029	0.000	18.3	1	1
03/21/06	3:01 p	-23.1	-23.1	-23.1	---	---	17.4	E	0.29	20.9	-36.9	---	---	722.8	0.029	0.000	18.3	1	1
03/21/06	3:02 p	-23.1	-23.1	-23.1	---	---	18.3	E	0.30	20.9	-37.2	---	---	722.9	0.029	0.000	18.3	1	1
03/21/06	3:03 p	-23.1	-23.1	-23.1	---	---	19.1	E	0.32	22.6	-37.4	---	---	722.7	0.029	0.000	18.3	1	1
03/21/06	3:04 p	-23.1	-23.1	-23.1	---	---	17.4	E	0.29	20.9	-36.9	---	---	722.9	0.029	0.000	18.2	1	1
03/21/06	3:05 p	-23.1	-23.1	-23.1	---	---	19.1	E	0.32	22.6	-37.4	---	---	722.8	0.029	0.000	18.2	1	1
03/21/06	3:06 p	-23.1	-23.1	-23.1	---	---	18.3	E	0.30	20.9	-37.2	---	---	722.8	0.029	0.000	18.3	1	1
03/21/06	3:07 p	-23.1	-23.1	-23.1	---	---	17.4	E	0.29	20.0	-36.9	---	---	723.0	0.029	0.000	18.2	1	1
03/21/06	3:08 p	-23.1	-23.1	-23.1	---	---	17.4	E	0.29	20.9	-36.9	---	---	722.9	0.029	0.000	18.2	1	1
03/21/06	3:09 p	-23.1	-23.1	-23.1	---	---	18.3	E	0.30	20.9	-37.2	---	---	722.9	0.029	0.000	18.2	1	1
03/21/06	3:10 p	-23.1	-23.1	-23.1	---	---	19.1	E	0.32	20.9	-37.4	---	---	722.9	0.029	0.000	18.2	1	1
03/21/06	3:11 p	-23.1	-23.1	-23.1	---	---	18.3	E	0.30	20.9	-37.2	---	---	722.8	0.029	0.000	18.2	1	1
03/21/06	3:12 p	-23.1	-23.1	-23.1	---	---	18.3	E	0.30	23.5	-37.2	---	---	722.9	0.029	0.000	18.2	1	1
03/21/06	3:13 p	-23.1	-23.1	-23.1	---	---	18.3	E	0.30	20.9	-37.2	---	---	722.9	0.029	0.000	18.2	1	1
03/21/06	3:14 p	-23.1	-23.0	-23.1	---	---	19.1	E	0.32	22.6	-37.4	---	---	722.7	0.029	0.000	18.2	1	1
03/21/06	3:15 p	-23.1	-23.1	-23.1	---	---	20.9	E	0.35	23.5	-37.9	---	---	722.8	0.029	0.000	18.2	1	1
03/21/06	3:16 p	-23.1	-23.1	-23.1	---	---	18.3	E	0.30	22.6	-37.2	---	---	722.8	0.029	0.000	18.2	1	1
03/21/06	3:17 p	-23.1	-23.0	-23.1	---	---	20.9	E	0.35	24.3	-37.9	---	---	722.7	0.029	0.000	18.2	1	1
03/21/06	3:18 p	-23.1	-23.0	-23.1	---	---	20.0	E	0.33	26.1	-37.7	---	---	722.8	0.029	0.000	18.1	1	1
03/21/06	3:19 p	-23.0	-23.0	-23.1	---	---	20.9	E	0.35	22.6	-37.8	---	---	722.8	0.029	0.000	18.1	1	1
03/21/06	3:20 p	-23.1	-23.0	-23.1	---	---	20.0	E	0.33	25.2	-37.7	---	---	722.9	0.029	0.000	18.1	1	1
03/21/06	3:21 p	-23.0	-23.0	-23.0	---	---	18.3	E	0.30	21.7	-37.1	---	---	722.9	0.029	0.000	18.1	1	1
03/21/06	3:22 p	-23.0	-23.0	-23.0	---	---	17.4	E	0.29	22.6	-36.8	---	---	722.9	0.029	0.000	18.1	1	1
03/21/06	3:23 p	-23.0	-23.0	-23.0	---	---	18.3	E	0.30	23.5	-37.1	---	---	722.7	0.029	0.000	18.1	1	1
03/21/06	3:24 p	-23.0	-23.0	-23.1	---	---	18.3	E	0.30	22.6	-37.1	---	---	722.9	0.029	0.000	18.1	1	1
03/21/06	3:25 p	-23.0	-23.0	-23.0	---	---	19.1	E	0.32	20.9	-37.3	---	---	723.0	0.029	0.000	18.1	1	1
03/21/06	3:26 p	-23.0	-22.9	-23.0	---	---	17.4	E	0.29	21.7	-36.8	---	---	722.9	0.029	0.000	18.1	1	1
03/21/06	3:27 p	-22.9	-22.9	-23.0	---	---	18.3	E	0.30	23.5	-37.0	---	---	722.8	0.029	0.000	18.1	1	1
03/21/06	3:28 p	-22.9	-22.9	-22.9	---	---	20.0	E	0.33	24.3	-37.5	---	---	722.9	0.029	0.000	18.1	1	1
03/21/06	3:29 p	-23.0	-22.9	-23.0	---	---	19.1	E	0.32	22.6	-37.3	---	---	722.8	0.029	0.000	18.1	1	1
03/21/06	3:30 p	-22.9	-22.9	-22.9	---	---	19.1	E	0.32	23.5	-37.3	---	---	722.9	0.029	0.000	18.1	1	1
03/21/06	3:31 p	-22.9	-22.9	-22.9	---	---	20.0	E	0.33	22.6	-37.5	---	---	722.9	0.029	0.000	18.1	1	1
03/21/06	3:32 p	-22.9	-22.9	-22.9	---	---	17.4	E	0.29	20.0	-36.7	---	---	722.9	0.029	0.000	18.1	1	1
03/21/06	3:33 p	-22.9	-22.9	-22.9	---	---	19.1	E	0.32	21.7	-37.3	---	---	722.8	0.029	0.000	18.1	1	1
03/21/06	3:34 p	-22.9	-22.9	-22.9	---	---	19.1	E	0.32	23.5	-37.3	---	---	722.9	0.029	0.000	18.1	1	1
03/21/06	3:35 p	-22.9	-22.9	-22.9	---	---	19.1	E	0.32	23.5	-37.3	---	---	722.9	0.029	0.000	18.1	1	1
03/21/06	3:36 p	-22.9	-22.9	-22.9	---	---	20.0	E	0.33	23.5	-37.5	---	---	722.9	0.029	0.000	18.1	1	1
03/21/06	3:37 p	-22.9	-22.9	-22.9	---	---	21.7	E	0.36	25.2	-38.0	---	---	722.9	0.029	0.000	18.1	1	1
03/21/06	3:38 p	-22.9	-22.9	-22.9	---	---	20.0	E	0.33	24.3	-37.4	---	---	722.8	0.029	0.000	18.1	1	1
03/21/06	3:39 p	-22.9	-22.9	-22.9	---	---	18.3	E	0.30	22.6	-37.0	---	---	722.9	0.029	0.000	18.1	1	1
03/21/06	3:40 p	-22.9	-22.9	-22.9	---	---	19.1	E	0.32	21.7	-37.2	---	---	722.8	0.029	0.000	18.1	1	1
03/21/06	3:41 p	-22.9	-22.9	-22.9	---	---	20.0	ESE	0.33	22.6	-37.4	---	---	722.9	0.029	0.000	18.1	1	1
03/21/06	3:42 p	-22.9	-22.9	-22.9	---	---	18.3	E	0.30	22.6	-36.9	---	---	722.9	0.029	0.000	18.1	1	1
03/21/06	3:43 p	-22.9	-22.8	-22.9	---	---	19.1	E	0.32	23.5	-37.2	---	---	722.8	0.029	0.000	18.1	1	1
03/21/06	3:44 p	-22.9	-22.9	-22.9	---	---	20.9	E	0.35	22.6	-37.7	---	---	722.9	0.029	0.000	18.1	1	1
03/21/06	3:45 p	-22.9	-22.8	-22.9	---	---	19.1	E	0.32	23.5	-37.2	---	---	722.8	0.029	0.000	18.1	1	1
03/21/06	3:46 p	-22.9	-22.8	-22.9	---	---	20.9	E	0.35	24.3	-37.7	---	---	722.9	0.029	0.000	18.1	1	1
03/21/06	3:47 p	-22.9	-22.8	-22.9	---	---	20.0	E	0.33	26.1	-37.4	---	---	722.9	0.029	0.000	18.1	1	1
03/21/06	3:48 p	-22.9	-22.8	-22.9	---	---	21.7	E	0.36	24.3	-37.9	---	---	722.9	0.029	0.000	18.1	1	1
03/21/06	3:49 p	-22.8	-22.8	-22.8	---	---	20.9	E	0.35	25.2	-37.6	---	---	723.0	0.029	0.000	18.2	1	1
03/21/06	3:50 p	-22.8	-22.8	-22.8	---	---	18.3	E	0.30	20.9	-36.8	---	---	722.9	0.029	0.000	18.2	1	1
03/21/06	3:51 p	-22.8	-22.8	-22.9	---	---	19.1	E	0.32	24.3	-37.1	---	---	723.0	0.029	0.000	18.2	1	1
03/21/06	3:52 p	-22.8	-22.8	-22.8	---	---	18.3	E	0.30	23.5	-36.8	---	---	723.0	0.029	0.000	18.1	1	1
03/21/06	3:53 p	-22.8	-22.8	-22.8	---	---	19.1	E	0.32	21.7	-37.1	---	---	723.0	0.029	0.000	18.1	1	1
03/21/06	3:54 p	-22.8	-22.8	-22.8	---	---	20.0	E	0.33	23.5	-37.4	---	---	723.0	0.029	0.000	18.1	1	1
03/21/06	3:55 p	-22.8	-22.8	-22.8	---	---	20.0	E	0.33	22.6	-37.4	---	---	723.0	0.029	0.000	18.2	1	1
03/21/06	3:56 p	-22.8	-22.8	-22.8	---	---	20.9	E	0.35	24.3	-37.6	---	---	723.0	0.029	0.000	18.2	1	1
03/21/06	3:57 p	-22.8	-22.8	-22.8	---	---	20.0	E	0.33	24.3	-37.4	---	---	722.9	0.029	0.000	18.2	1	1
03/21/06	3:58 p	-22.8	-22.8	-22.8	---	---	21.7	E	0.36	24.3	-37.9	---	---	723.0	0.029	0.000	18.2	1	1
03/21/06	3:59 p	-22.8	-22.8	-22.8	---	---	20.9	E	0.35	25.2	-37.6	---	---	722.9	0.029	0.000	18.1	1	1
03/21/06	4:00 p	-22.8	-22.8	-22.8	---	---	19.1	E	0.32	22.6	-37.1	---	---	722.9	0.029	0.000	18.2	1	1
03/21/06	4:01 p	-22.8	-22.8	-22.8	---	---	19.1	E	0.32	23.5	-37.1	---	---	722.9	0.029	0.000	18.2	1	1
03/21/06	4:02 p	-22.8	-22.8	-22.8	---	---	18.3	E	0.30	20.9	-36.8	---	---	723.0	0.029	0.000	18.2	1	1
03/21/06	4:03 p	-22.8	-22.8	-22.8	---	---	20.0	E	0.33	23.5	-37.3	---	---	722.9	0.029	0.000	18.2	1	1
03/21/06	4:04 p	-22.8	-22.8	-22.8	---	---	20.0	E	0.33	22.6	-37.3	---	---	722.8	0.029	0.000	18.2	1	1
03/21/06	4:05 p	-22.8	-22.8	-22.8	---	---	20.9	E	0.35	26.1	-37.6	---	---	722.8	0.029	0.000	18.2	1	1
03/21/06	4:06 p	-22.8	-22.8	-22.8	---	---	20.9	E	0.35	23.5	-37.6	---	---	722.8	0.029	0.000	18.2	1	1
03/21/06	4:07 p	-22.8	-22.8	-22.8	---	---	21.7	E	0.36	24.3	-37.8	---	---	722.9	0.029	0.000	18.2	1	1
03/21/06	4:08 p	-22.8	-22.7	-22.8	---	---	20.0	E	0.33	22.6	-37.3	---	---	722.9	0.029	0.000	18.2	1	1
03/21/06	4:09 p	-22.8	-22.8	-22.8	---	---	19.1	E	0.32	24.3	-37.1	---	---	722.8	0.029	0.000	18.2	1	1
03/21/06	4:10 p	-22.8	-22.8	-22.8	---	---	20.9	E	0.35	25.2	-37.6	---	---	722.9	0.029	0.000	18.2	1	1
03/21/06	4:11 p	-22.8	-22.8	-22.8	---	---	20.0	E	0.33	25.2	-37.3	---	---	722.9	0.029	0.000	18.1	1	1
03/21/06	4:12 p	-22.8	-22.7	-22.8	---	---	21.7	E	0.36	25.2	-37.8	---	---	722.9	0.029	0.000	18.1	1	1
03/21/06	4:13 p	-22.8	-22.8	-22.8	---	---	18.3	E	0.30	20.9	-36.8	---	---	722.8	0.029	0.000	18.1	1	1
03/21/06	4:14 p	-22.8	-22.7	-22.8	---	---	19.1	E	0.32	21.7	-37.1	---	---	722.8	0.029	0.000	18.1	1	1
03/21/06	4:15 p	-22.7	-22.7	-22.8	---	---	20.0	E	0.33	23.5	-37.2	---	---	722.9	0.029	0.000	18.2	1	1
03/21/06	4:16 p	-22.7	-22.7	-22.8	---	---	18.3	E	0.30	21.7	-36.7	---	---	722.9	0.029	0.000	18.1	1	1
03/21/06	4:17 p	-22.7	-22.7	-22.8	---	---	18.3	E	0.30	22.6	-36.7	---	---	722.9	0.029	0.000	18.2	1	1
03/21/06	4:18 p	-22.7	-22.7	-22.8	---	---	18.3	E	0.30	23.5	-36.7	---	---	722.9	0.029	0.000	18.2	1	1
03/21/06	4:19 p	-22.7	-22.7	-22.7	---	---	20.0	E	0.33	22.6	-37.2	---	---	722.9	0.029	0.000	18.2	1	1
03/21/06	4:20 p	-22.7	-22.7	-22.8	---	---	19.1	E	0.32	22.6	-37.0	---	---	722.9	0.029	0.000	18.2	1	1
03/21/06	4:21 p	-22.7	-22.7	-22.8	---	---	19.1	E	0.32	22.6	-37.0	---	---	722.9	0.029	0.000	18.2	1	1
03/21/06	4:22 p	-22.7	-22.7	-22.7	---	---	19.1	E	0.32	21.7	-37.0	---	---	722.9	0.029	0.000	18.2	1	1
03/21/06	4:23 p	-22.7	-22.7	-22.7	---	---	20.9	E	0.35	25.2	-37.5	---	---	722.8	0.029	0.000	18.2	1	1
03/21/06	4:24 p	-22.7	-22.7	-22.8	---	---	20.0	E	0.33	24.3	-37.2	---	---	722.9	0.029	0.000	18.2	1	1
03/21/06	4:25 p	-22.7	-22.7	-22.7	---	---	19.1	E	0.32	22.6	-36.9	---	---	722.9	0.028	0.000	18.2	1	1
03/21/06	4:26 p	-22.7	-22.7	-22.7	---	---	20.9	E	0.35	26.1	-37.4	---	---	722.8	0.028	0.000	18.2	1	1
03/21/06	4:27 p	-22.7	-22.7	-22.7	---	---	20.0	E	0.33	23.5	-37.2	---	---	722.8	0.028	0.000	18.2	1	1
03/21/06	4:28 p	-22.7	-22.7	-22.7	---	---	20.9	E	0.35	26.1	-37.4	---	---	722.8	0.028	0.000	18.2	1	1
03/21/06	4:29 p	-22.7	-22.7	-22.7	---	---	22.6	E	0.38	26.1	-37.9	---	---	722.8	0.028	0.000	18.2	1	1
03/21/06	4:30 p	-22.7	-22.7	-22.7	---	---	20.0	E	0.33	23.5	-37.2	---	---	722.8	0.028	0.000	18.2	1	1
03/21/06	4:31 p	-22.7	-22.6	-22.7	---	---	21.7	E	0.36	27.0	-37.7	---	---	722.7	0.028	0.000	18.2	1	1
03/21/06	4:32 p	-22.7	-22.6	-22.7	---	---	23.5	E	0.39	26.1	-38.1	---	---	722.7	0.028	0.000	18.2	1	1
03/21/06	4:33 p	-22.6	-22.6	-22.7	---	---	22.6	E	0.38	27.8	-37.8	---	---	722.7	0.028	0.000	18.2	1	1
03/21/06	4:34 p	-22.6	-22.6	-22.6	---	---	21.7	E	0.36	27.0	-37.6	---	---	722.6	0.028	0.000	18.2	1	1
03/21/06	4:35 p	-22.6	-22.6	-22.6	---	---	22.6	E	0.38	26.1	-37.8	---	---	722.6	0.028	0.000	18.2	1	1
03/21/06	4:36 p	-22.6	-22.6	-22.6	---	---	23.5	E	0.39	27.8	-38.0	---	---	722.7	0.028	0.000	18.2	1	1
03/21/06	4:37 p	-22.6	-22.6	-22.6	---	---	23.5	E	0.39	28.7	-37.9	---	---	722.6	0.028	0.000	18.2	1	1
03/21/06	4:38 p	-22.6	-22.6	-22.6	---	---	24.3	E	0.41	27.8	-38.2	---	---	722.6	0.028	0.000	18.2	1	1
03/21/06	4:39 p	-22.6	-22.6	-22.6	---	---	23.5	E	0.39	27.8	-38.0	---	---	722.7	0.028	0.000	18.2	1	1
03/21/06	4:40 p	-22.6	-22.6	-22.6	---	---	23.5	E	0.39	27.8	-38.0	---	---	722.6	0.028	0.000	18.2	1	1
03/21/06	4:41 p	-22.6	-22.6	-22.6	---	---	26.1	E	0.43	27.8	-38.6	---	---	722.6	0.028	0.000	18.2	1	1
03/21/06	4:42 p	-22.6	-22.6	-22.6	---	---	26.1	E	0.43	30.4	-38.6	---	---	722.6	0.028	0.000	18.2	1	1
03/21/06	4:43 p	-22.6	-22.6	-22.6	---	---	23.5	E	0.39	28.7	-37.9	---	---	722.6	0.028	0.000	18.2	1	1
03/21/06	4:44 p	-22.6	-22.5	-22.6	---	---	24.3	E	0.41	28.7	-38.2	---	---	722.6	0.028	0.000	18.2	1	1
03/21/06	4:45 p	-22.5	-22.5	-22.6	---	---	24.3	E	0.41	27.8	-38.1	---	---	722.6	0.028	0.000	18.2	1	1
03/21/06	4:46 p	-22.6	-22.5	-22.6	---	---	24.3	E	0.41	27.0	-38.2	---	---	722.7	0.028	0.000	18.2	1	1
03/21/06	4:47 p	-22.5	-22.5	-22.5	---	---	23.5	E	0.39	27.8	-37.9	---	---	722.6	0.028	0.000	18.2	1	1
03/21/06	4:48 p	-22.5	-22.5	-22.6	---	---	22.6	E	0.38	26.1	-37.7	---	---	722.6	0.028	0.000	18.1	1	1
03/21/06	4:49 p	-22.5	-22.4	-22.5	---	---	22.6	E	0.38	28.7	-37.7	---	---	722.6	0.028	0.000	18.2	1	1
03/21/06	4:50 p	-22.5	-22.4	-22.5	---	---	22.6	E	0.38	26.1	-37.7	---	---	722.6	0.028	0.000	18.1	1	1
03/21/06	4:51 p	-22.4	-22.4	-22.5	---	---	23.5	E	0.39	27.0	-37.8	---	---	722.6	0.028	0.000	18.2	1	1
03/21/06	4:52 p	-22.5	-22.4	-22.5	---	---	21.7	E	0.36	27.0	-37.4	---	---	722.7	0.028	0.000	18.1	1	1
03/21/06	4:53 p	-22.4	-22.4	-22.4	---	---	23.5	E	0.39	28.7	-37.8	---	---	722.6	0.028	0.000	18.2	1	1
03/21/06	4:54 p	-22.4	-22.4	-22.4	---	---	23.5	E	0.39	27.0	-37.8	---	---	722.7	0.028	0.000	18.2	1	1
03/21/06	4:55 p	-22.4	-22.4	-22.4	---	---	23.5	E	0.39	27.0	-37.8	---	---	722.6	0.028	0.000	18.2	1	1
03/21/06	4:56 p	-22.4	-22.4	-22.4	---	---	24.3	E	0.41	27.8	-37.9	---	---	722.6	0.028	0.000	18.2	1	1
03/21/06	4:57 p	-22.4	-22.4	-22.4	---	---	23.5	E	0.39	27.8	-37.7	---	---	722.7	0.028	0.000	18.2	1	1
03/21/06	4:58 p	-22.4	-22.4	-22.4	---	---	23.5	E	0.39	28.7	-37.7	---	---	722.7	0.028	0.000	18.2	1	1
03/21/06	4:59 p	-22.4	-22.3	-22.4	---	---	22.6	E	0.38	27.0	-37.5	---	---	722.6	0.028	0.000	18.2	1	1
03/21/06	5:00 p	-22.4	-22.3	-22.4	---	---	23.5	E	0.39	27.0	-37.7	---	---	722.7	0.028	0.000	18.2	1	1
03/21/06	5:01 p	-22.3	-22.3	-22.4	---	---	21.7	E	0.36	26.1	-37.2	---	---	722.8	0.028	0.000	18.2	1	1
03/21/06	5:02 p	-22.3	-22.3	-22.3	---	---	20.9	E	0.35	26.1	-36.9	---	---	722.6	0.028	0.000	18.2	1	1
03/21/06	5:03 p	-22.3	-22.3	-22.3	---	---	22.6	E	0.38	25.2	-37.4	---	---	722.7	0.028	0.000	18.2	1	1
03/21/06	5:04 p	-22.3	-22.3	-22.3	---	---	22.6	E	0.38	27.0	-37.3	---	---	722.7	0.028	0.000	18.2	1	1
03/21/06	5:05 p	-22.3	-22.3	-22.3	---	---	23.5	E	0.39	28.7	-37.7	---	---	722.7	0.028	0.000	18.2	1	1
03/21/06	5:06 p	-22.3	-22.3	-22.3	---	---	22.6	E	0.38	27.0	-37.3	---	---	722.6	0.028	0.000	18.2	1	1
03/21/06	5:07 p	-22.3	-22.3	-22.3	---	---	22.6	E	0.38	27.8	-37.4	---	---	722.6	0.028	0.000	18.2	1	1
03/21/06	5:08 p	-22.3	-22.2	-22.3	---	---	22.6	E	0.38	28.7	-37.3	---	---	722.7	0.028	0.000	18.2	1	1
03/21/06	5:09 p	-22.3	-22.3	-22.3	---	---	22.6	E	0.38	26.1	-37.3	---	---	722.6	0.028	0.000	18.2	1	1
03/21/06	5:10 p	-22.3	-22.3	-22.3	---	---	23.5	E	0.39	26.1	-37.6	---	---	722.6	0.028	0.000	18.2	1	1
03/21/06	5:11 p	-22.3	-22.3	-22.3	---	---	26.1	E	0.43	29.6	-38.2	---	---	722.6	0.028	0.000	18.2	1	1
03/21/06	5:12 p	-22.3	-22.2	-22.3	---	---	24.3	E	0.41	27.8	-37.8	---	---	722.7	0.028	0.000	18.2	1	1
03/21/06	5:13 p	-22.2	-22.2	-22.2	---	---	24.3	E	0.41	29.6	-37.7	---	---	722.7	0.028	0.000	18.2	1	1
03/21/06	5:14 p	-22.2	-22.2	-22.2	---	---	24.3	E	0.41	28.7	-37.7	---	---	722.6	0.028	0.000	18.2	1	1
03/21/06	5:15 p	-22.2	-22.2	-22.2	---	---	23.5	E	0.39	28.7	-37.5	---	---	722.6	0.028	0.000	18.2	1	1
03/21/06	5:16 p	-22.2	-22.2	-22.2	---	---	24.3	E	0.41	30.4	-37.7	---	---	722.7	0.028	0.000	18.2	1	1
03/21/06	5:17 p	-22.2	-22.2	-22.2	---	---	24.3	E	0.41	27.8	-37.7	---	---	722.7	0.028	0.000	18.2	1	1
03/21/06	5:18 p	-22.2	-22.2	-22.2	---	---	22.6	E	0.38	27.8	-37.3	---	---	722.7	0.028	0.000	18.2	1	1
03/21/06	5:19 p	-22.2	-22.2	-22.2	---	---	23.5	E	0.39	27.8	-37.5	---	---	722.6	0.028	0.000	18.2	1	1
03/21/06	5:20 p	-22.2	-22.2	-22.2	---	---	24.3	E	0.41	27.8	-37.7	---	---	722.7	0.028	0.000	18.2	1	1
03/21/06	5:21 p	-22.2	-22.2	-22.2	---	---	21.7	E	0.36	27.0	-37.0	---	---	722.6	0.028	0.000	18.2	1	1
03/21/06	5:22 p	-22.2	-22.2	-22.2	---	---	23.5	E	0.39	26.1	-37.4	---	---	722.7	0.028	0.000	18.2	1	1
03/21/06	5:23 p	-22.2	-22.1	-22.2	---	---	22.6	E	0.38	26.1	-37.2	---	---	722.6	0.028	0.000	18.2	1	1
03/21/06	5:24 p	-22.2	-22.2	-22.2	---	---	23.5	E	0.39	26.1	-37.4	---	---	722.5	0.028	0.000	18.2	1	1
03/21/06	5:25 p	-22.2	-22.2	-22.2	---	---	22.6	E	0.38	26.1	-37.2	---	---	722.6	0.028	0.000	18.2	1	1
03/21/06	5:26 p	-22.2	-22.1	-22.2	---	---	24.3	E	0.41	27.8	-37.7	---	---	722.6	0.028	0.000	18.2	1	1
03/21/06	5:27 p	-22.2	-22.2	-22.2	---	---	22.6	E	0.38	26.1	-37.2	---	---	722.7	0.028	0.000	18.2	1	1
03/21/06	5:28 p	-22.1	-22.1	-22.1	---	---	23.5	E	0.39	26.1	-37.3	---	---	722.6	0.028	0.000	18.2	1	1
03/21/06	5:29 p	-22.1	-22.1	-22.1	---	---	22.6	E	0.38	27.0	-37.1	---	---	722.7	0.028	0.000	18.2	1	1
03/21/06	5:30 p	-22.1	-22.1	-22.1	---	---	22.6	E	0.38	27.0	-37.1	---	---	722.7	0.028	0.000	18.2	1	1
03/21/06	5:31 p	-22.1	-22.1	-22.2	---	---	20.0	E	0.33	23.5	-36.4	---	---	722.7	0.028	0.000	18.2	1	1
03/21/06	5:32 p	-22.1	-22.1	-22.1	---	---	22.6	E	0.38	27.0	-37.1	---	---	722.7	0.028	0.000	18.2	1	1
03/21/06	5:33 p	-22.1	-22.1	-22.1	---	---	22.6	E	0.38	24.3	-37.1	---	---	722.8	0.028	0.000	18.2	1	1
03/21/06	5:34 p	-22.1	-22.1	-22.1	---	---	21.7	E	0.36	26.1	-36.9	---	---	722.7	0.028	0.000	18.2	1	1
03/21/06	5:35 p	-22.1	-22.1	-22.1	---	---	20.9	E	0.35	24.3	-36.7	---	---	722.8	0.028	0.000	18.2	1	1
03/21/06	5:36 p	-22.1	-22.1	-22.1	---	---	22.6	E	0.38	26.1	-37.1	---	---	722.8	0.028	0.000	18.2	1	1
03/21/06	5:37 p	-22.1	-22.1	-22.1	---	---	21.7	E	0.36	26.1	-36.9	---	---	722.7	0.028	0.000	18.2	1	1
03/21/06	5:38 p	-22.1	-22.1	-22.1	---	---	23.5	E	0.39	27.8	-37.3	---	---	722.8	0.028	0.000	18.2	1	1
03/21/06	5:39 p	-22.1	-22.1	-22.1	---	---	23.5	E	0.39	26.1	-37.3	---	---	722.8	0.028	0.000	18.2	1	1
03/21/06	5:40 p	-22.1	-22.1	-22.1	---	---	22.6	E	0.38	27.0	-37.1	---	---	722.8	0.028	0.000	18.2	1	1
03/21/06	5:41 p	-22.1	-22.1	-22.1	---	---	20.0	E	0.33	23.5	-36.4	---	---	722.8	0.028	0.000	18.2	1	1
03/21/06	5:42 p	-22.1	-22.1	-22.1	---	---	21.7	E	0.36	26.1	-36.9	---	---	722.8	0.028	0.000	18.2	1	1
03/21/06	5:43 p	-22.1	-22.1	-22.1	---	---	23.5	E	0.39	26.1	-37.3	---	---	722.8	0.028	0.000	18.2	1	1
03/21/06	5:44 p	-22.1	-22.1	-22.1	---	---	20.9	E	0.35	24.3	-36.7	---	---	722.8	0.028	0.000	18.1	1	1
03/21/06	5:45 p	-22.1	-22.1	-22.2	---	---	20.0	E	0.33	23.5	-36.4	---	---	722.7	0.028	0.000	18.1	1	1
03/21/06	5:46 p	-22.1	-22.1	-22.1	---	---	22.6	E	0.38	27.0	-37.1	---	---	722.6	0.028	0.000	18.1	1	1
03/21/06	5:47 p	-22.1	-22.1	-22.1	---	---	23.5	E	0.39	27.0	-37.3	---	---	722.7	0.028	0.000	18.1	1	1
03/21/06	5:48 p	-22.1	-22.1	-22.1	---	---	23.5	E	0.39	27.8	-37.3	---	---	722.7	0.028	0.000	18.1	1	1
03/21/06	5:49 p	-22.1	-22.1	-22.2	---	---	23.5	E	0.39	25.2	-37.3	---	---	722.6	0.028	0.000	18.1	1	1
03/21/06	5:50 p	-22.1	-22.1	-22.1	---	---	23.5	E	0.39	27.0	-37.3	---	---	722.6	0.028	0.000	18.1	1	1
03/21/06	5:51 p	-22.1	-22.1	-22.2	---	---	23.5	E	0.39	27.8	-37.3	---	---	722.5	0.028	0.000	18.0	1	1
03/21/06	5:52 p	-22.2	-22.1	-22.2	---	---	23.5	E	0.39	28.7	-37.4	---	---	722.6	0.028	0.000	18.0	1	1
03/21/06	5:53 p	-22.1	-22.1	-22.2	---	---	24.3	E	0.41	28.7	-37.6	---	---	722.6	0.028	0.000	18.0	1	1
03/21/06	5:54 p	-22.1	-22.1	-22.2	---	---	24.3	E	0.41	28.7	-37.6	---	---	722.6	0.028	0.000	18.0	1	1
03/21/06	5:55 p	-22.1	-22.1	-22.1	---	---	21.7	E	0.36	25.2	-36.9	---	---	722.6	0.028	0.000	18.0	1	1
03/21/06	5:56 p	-22.1	-22.1	-22.2	---	---	23.5	E	0.39	27.0	-37.3	---	---	722.7	0.028	0.000	18.0	1	1
03/21/06	5:57 p	-22.2	-22.2	-22.2	---	---	22.6	E	0.38	26.1	-37.2	---	---	722.6	0.028	0.000	18.0	1	1
03/21/06	5:58 p	-22.2	-22.2	-22.2	---	---	23.5	E	0.39	27.0	-37.4	---	---	722.6	0.028	0.000	18.0	1	1
03/21/06	5:59 p	-22.2	-22.2	-22.2	---	---	23.5	E	0.39	26.1	-37.4	---	---	722.6	0.028	0.000	18.0	1	1
03/21/06	6:00 p	-22.2	-22.2	-22.2	---	---	21.7	E	0.36	27.0	-37.0	---	---	722.6	0.028	0.000	18.0	1	1
03/21/06	6:01 p	-22.2	-22.2	-22.2	---	---	25.2	E	0.42	27.8	-37.8	---	---	722.7	0.028	0.000	18.0	1	1
03/21/06	6:02 p	-22.2	-22.2	-22.2	---	---	21.7	E	0.36	26.1	-37.0	---	---	722.7	0.028	0.000	18.0	1	1
03/21/06	6:03 p	-22.2	-22.2	-22.2	---	---	23.5	E	0.39	27.8	-37.4	---	---	722.7	0.028	0.000	18.1	1	1
03/21/06	6:04 p	-22.2	-22.2	-22.2	---	---	23.5	E	0.39	27.0	-37.4	---	---	722.7	0.028	0.000	18.1	1	1
03/21/06	6:05 p	-22.2	-22.2	-22.2	---	---	20.9	E	0.35	26.1	-36.7	---	---	722.7	0.028	0.000	18.0	1	1
03/21/06	6:06 p	-22.2	-22.2	-22.2	---	---	22.6	E	0.38	26.1	-37.3	---	---	722.6	0.028	0.000	18.0	1	1
03/21/06	6:07 p	-22.2	-22.2	-22.2	---	---	24.3	E	0.41	27.0	-37.7	---	---	722.8	0.028	0.000	18.0	1	1
03/21/06	6:08 p	-22.2	-22.2	-22.2	---	---	21.7	E	0.36	25.2	-37.1	---	---	722.8	0.028	0.000	18.0	1	1
03/21/06	6:09 p	-22.2	-22.2	-22.2	---	---	22.6	E	0.38	27.0	-37.3	---	---	722.7	0.028	0.000	18.0	1	1
03/21/06	6:10 p	-22.2	-22.2	-22.2	---	---	24.3	E	0.41	27.0	-37.7	---	---	722.7	0.028	0.000	18.1	1	1
03/21/06	6:11 p	-22.2	-22.2	-22.2	---	---	22.6	E	0.38	27.8	-37.3	---	---	722.8	0.028	0.000	18.1	1	1
03/21/06	6:12 p	-22.2	-22.2	-22.2	---	---	20.9	E	0.35	26.1	-36.8	---	---	722.9	0.028	0.000	18.0	1	1
03/21/06	6:13 p	-22.3	-22.2	-22.3	---	---	22.6	E	0.38	26.1	-37.3	---	---	722.8	0.028	0.000	18.0	1	1
03/21/06	6:14 p	-22.2	-22.2	-22.2	---	---	20.9	E	0.35	24.3	-36.8	---	---	722.8	0.028	0.000	18.0	1	1
03/21/06	6:15 p	-22.2	-22.2	-22.3	---	---	21.7	E	0.36	25.2	-37.1	---	---	722.8	0.028	0.000	18.0	1	1
03/21/06	6:16 p	-22.3	-22.2	-22.3	---	---	21.7	E	0.36	26.1	-37.1	---	---	722.8	0.028	0.000	18.0	1	1
03/21/06	6:17 p	-22.2	-22.2	-22.3	---	---	21.7	E	0.36	24.3	-37.1	---	---	722.9	0.028	0.000	18.0	1	1
03/21/06	6:18 p	-22.3	-22.2	-22.3	---	---	21.7	E	0.36	26.1	-37.1	---	---	722.9	0.028	0.000	18.0	1	1
03/21/06	6:19 p	-22.3	-22.2	-22.3	---	---	20.9	E	0.35	24.3	-36.9	---	---	722.8	0.028	0.000	18.0	1	1
03/21/06	6:20 p	-22.3	-22.3	-22.3	---	---	20.9	E	0.35	25.2	-36.9	---	---	722.8	0.028	0.000	18.0	1	1
03/21/06	6:21 p	-22.3	-22.3	-22.3	---	---	20.0	E	0.33	23.5	-36.7	---	---	722.9	0.028	0.000	18.0	1	1
03/21/06	6:22 p	-22.3	-22.3	-22.3	---	---	20.0	E	0.33	24.3	-36.7	---	---	722.9	0.028	0.000	18.0	1	1
03/21/06	6:23 p	-22.2	-22.2	-22.3	---	---	20.0	E	0.33	22.6	-36.6	---	---	722.8	0.028	0.000	18.1	1	1
03/21/06	6:24 p	-22.3	-22.3	-22.3	---	---	19.1	E	0.32	22.6	-36.4	---	---	722.8	0.028	0.000	18.0	1	1
03/21/06	6:25 p	-22.3	-22.3	-22.3	---	---	20.9	E	0.35	23.5	-36.9	---	---	722.9	0.028	0.000	18.1	1	1
03/21/06	6:26 p	-22.3	-22.3	-22.3	---	---	20.9	E	0.35	24.3	-36.9	---	---	722.8	0.028	0.000	18.1	1	1
03/21/06	6:27 p	-22.3	-22.3	-22.3	---	---	19.1	E	0.32	21.7	-36.4	---	---	722.9	0.028	0.000	18.0	1	1
03/21/06	6:28 p	-22.3	-22.3	-22.3	---	---	20.0	E	0.33	24.3	-36.7	---	---	722.9	0.028	0.000	18.0	1	1
03/21/06	6:29 p	-22.3	-22.3	-22.3	---	---	21.7	E	0.36	25.2	-37.2	---	---	722.9	0.028	0.000	18.0	1	1
03/21/06	6:30 p	-22.3	-22.3	-22.3	---	---	20.9	E	0.35	24.3	-36.9	---	---	722.8	0.028	0.000	18.0	1	1
03/21/06	6:31 p	-22.3	-22.3	-22.3	---	---	21.7	E	0.36	25.2	-37.1	---	---	722.9	0.028	0.000	18.1	1	1
03/21/06	6:32 p	-22.3	-22.3	-22.3	---	---	21.7	E	0.36	24.3	-37.2	---	---	723.0	0.028	0.000	18.0	1	1
03/21/06	6:33 p	-22.3	-22.3	-22.3	---	---	21.7	E	0.36	26.1	-37.2	---	---	722.9	0.028	0.000	18.1	1	1
03/21/06	6:34 p	-22.3	-22.3	-22.3	---	---	20.9	E	0.35	23.5	-36.9	---	---	722.9	0.028	0.000	18.1	1	1
03/21/06	6:35 p	-22.3	-22.3	-22.3	---	---	21.7	E	0.36	25.2	-37.2	---	---	722.9	0.028	0.000	18.1	1	1
03/21/06	6:36 p	-22.3	-22.3	-22.4	---	---	20.9	E	0.35	24.3	-36.9	---	---	722.9	0.028	0.000	18.0	1	1
03/21/06	6:37 p	-22.3	-22.3	-22.4	---	---	20.9	E	0.35	23.5	-36.9	---	---	722.9	0.028	0.000	18.1	1	1
03/21/06	6:38 p	-22.3	-22.3	-22.3	---	---	20.0	E	0.33	23.5	-36.7	---	---	722.9	0.028	0.000	18.1	1	1
03/21/06	6:39 p	-22.3	-22.3	-22.3	---	---	19.1	E	0.32	23.5	-36.4	---	---	723.0	0.028	0.000	18.1	1	1
03/21/06	6:40 p	-22.3	-22.3	-22.3	---	---	20.9	E	0.35	23.5	-36.9	---	---	722.9	0.028	0.000	18.1	1	1
03/21/06	6:41 p	-22.3	-22.3	-22.3	---	---	20.9	E	0.35	24.3	-36.9	---	---	723.0	0.028	0.000	18.0	1	1
03/21/06	6:42 p	-22.3	-22.3	-22.4	---	---	20.9	E	0.35	24.3	-36.9	---	---	722.9	0.028	0.000	18.0	1	1
03/21/06	6:43 p	-22.3	-22.3	-22.3	---	---	19.1	E	0.32	23.5	-36.4	---	---	722.9	0.028	0.000	18.0	1	1
03/21/06	6:44 p	-22.4	-22.3	-22.4	---	---	20.0	E	0.33	24.3	-36.8	---	---	723.0	0.028	0.000	18.0	1	1
03/21/06	6:45 p	-22.3	-22.3	-22.3	---	---	20.0	E	0.33	23.5	-36.7	---	---	723.1	0.028	0.000	18.0	1	1
03/21/06	6:46 p	-22.3	-22.3	-22.4	---	---	20.9	E	0.35	23.5	-36.9	---	---	722.9	0.028	0.000	18.0	1	1
03/21/06	6:47 p	-22.3	-22.3	-22.4	---	---	21.7	E	0.36	24.3	-37.2	---	---	723.0	0.028	0.000	18.0	1	1
03/21/06	6:48 p	-22.3	-22.3	-22.3	---	---	22.6	E	0.38	26.1	-37.4	---	---	723.0	0.028	0.000	18.0	1	1
03/21/06	6:49 p	-22.3	-22.3	-22.4	---	---	20.9	E	0.35	23.5	-36.9	---	---	723.0	0.028	0.000	18.0	1	1
03/21/06	6:50 p	-22.3	-22.3	-22.4	---	---	19.1	E	0.32	22.6	-36.4	---	---	723.1	0.028	0.000	18.0	1	1
03/21/06	6:51 p	-22.4	-22.3	-22.4	---	---	19.1	E	0.32	25.2	-36.6	---	---	723.0	0.028	0.000	18.0	1	1
03/21/06	6:52 p	-22.3	-22.3	-22.4	---	---	20.0	E	0.33	23.5	-36.7	---	---	723.0	0.028	0.000	18.0	1	1
03/21/06	6:53 p	-22.4	-22.3	-22.4	---	---	20.9	E	0.35	24.3	-37.1	---	---	722.9	0.028	0.000	18.1	1	1
03/21/06	6:54 p	-22.4	-22.3	-22.4	---	---	20.9	E	0.35	24.3	-37.1	---	---	722.9	0.028	0.000	18.1	1	1
03/21/06	6:55 p	-22.3	-22.3	-22.4	---	---	20.0	E	0.33	21.7	-36.7	---	---	723.0	0.028	0.000	18.0	1	1
03/21/06	6:56 p	-22.4	-22.3	-22.4	---	---	19.1	E	0.32	22.6	-36.6	---	---	723.0	0.028	0.000	18.1	1	1
03/21/06	6:57 p	-22.4	-22.4	-22.4	---	---	20.0	ENE	0.33	25.2	-36.8	---	---	723.0	0.028	0.000	18.1	1	1
03/21/06	6:58 p	-22.4	-22.4	-22.4	---	---	19.1	E	0.32	23.5	-36.6	---	---	723.1	0.028	0.000	18.1	1	1
03/21/06	6:59 p	-22.4	-22.4	-22.4	---	---	20.9	E	0.35	22.6	-37.1	---	---	723.2	0.028	0.000	18.1	1	1
03/21/06	7:00 p	-22.4	-22.4	-22.4	---	---	19.1	E	0.32	22.6	-36.6	---	---	723.0	0.028	0.000	18.1	1	1
03/21/06	7:01 p	-22.4	-22.4	-22.4	---	---	20.0	ENE	0.33	22.6	-36.8	---	---	723.1	0.028	0.000	18.1	1	1
03/21/06	7:02 p	-22.4	-22.3	-22.4	---	---	17.4	E	0.29	22.6	-36.0	---	---	723.2	0.028	0.000	18.1	1	1
03/21/06	7:03 p	-22.4	-22.3	-22.4	---	---	19.1	E	0.32	23.5	-36.6	---	---	723.0	0.028	0.000	18.1	1	1
03/21/06	7:04 p	-22.4	-22.4	-22.4	---	---	20.0	E	0.33	23.5	-36.8	---	---	723.0	0.028	0.000	18.1	1	1
03/21/06	7:05 p	-22.4	-22.3	-22.4	---	---	18.3	E	0.30	22.6	-36.3	---	---	723.1	0.028	0.000	18.1	1	1
03/21/06	7:06 p	-22.4	-22.4	-22.4	---	---	21.7	E	0.36	25.2	-37.3	---	---	723.1	0.028	0.000	18.1	1	1
03/21/06	7:07 p	-22.4	-22.4	-22.4	---	---	23.5	ENE	0.39	26.1	-37.7	---	---	723.1	0.028	0.000	18.1	1	1
03/21/06	7:08 p	-22.4	-22.4	-22.4	---	---	20.0	ENE	0.33	22.6	-36.8	---	---	723.0	0.028	0.000	18.1	1	1
03/21/06	7:09 p	-22.4	-22.4	-22.4	---	---	20.9	ENE	0.35	23.5	-37.1	---	---	723.1	0.028	0.000	18.1	1	1
03/21/06	7:10 p	-22.4	-22.4	-22.4	---	---	20.9	ENE	0.35	23.5	-37.1	---	---	723.1	0.028	0.000	18.1	1	1
03/21/06	7:11 p	-22.4	-22.4	-22.4	---	---	20.9	ENE	0.35	25.2	-37.1	---	---	723.1	0.028	0.000	18.1	1	1
03/21/06	7:12 p	-22.4	-22.4	-22.4	---	---	20.9	E	0.35	24.3	-37.1	---	---	723.1	0.028	0.000	18.1	1	1
03/21/06	7:13 p	-22.4	-22.4	-22.4	---	---	19.1	ENE	0.32	22.6	-36.6	---	---	723.1	0.028	0.000	18.1	1	1
03/21/06	7:14 p	-22.4	-22.4	-22.4	---	---	20.0	E	0.33	21.7	-36.9	---	---	723.0	0.028	0.000	18.1	1	1
03/21/06	7:15 p	-22.4	-22.4	-22.4	---	---	18.3	E	0.30	22.6	-36.3	---	---	723.1	0.028	0.000	18.1	1	1
03/21/06	7:16 p	-22.4	-22.4	-22.4	---	---	20.0	E	0.33	24.3	-36.8	---	---	722.9	0.028	0.000	18.1	1	1
03/21/06	7:17 p	-22.4	-22.4	-22.4	---	---	20.0	E	0.33	24.3	-36.8	---	---	723.0	0.028	0.000	18.1	1	1
03/21/06	7:18 p	-22.4	-22.4	-22.4	---	---	20.9	ENE	0.35	22.6	-37.1	---	---	723.0	0.028	0.000	18.1	1	1
03/21/06	7:19 p	-22.4	-22.4	-22.4	---	---	18.3	E	0.30	21.7	-36.3	---	---	723.1	0.028	0.000	18.1	1	1
03/21/06	7:20 p	-22.4	-22.4	-22.4	---	---	16.5	E	0.28	20.9	-35.7	---	---	723.0	0.028	0.000	18.1	1	1
03/21/06	7:21 p	-22.4	-22.4	-22.4	---	---	19.1	E	0.32	22.6	-36.6	---	---	723.1	0.028	0.000	18.1	1	1
03/21/06	7:22 p	-22.4	-22.3	-22.4	---	---	19.1	E	0.32	22.6	-36.6	---	---	723.0	0.028	0.000	18.1	1	1
03/21/06	7:23 p	-22.4	-22.4	-22.4	---	---	20.0	E	0.33	23.5	-36.8	---	---	723.0	0.028	0.000	18.1	1	1
03/21/06	7:24 p	-22.4	-22.4	-22.4	---	---	20.0	E	0.33	24.3	-36.8	---	---	723.0	0.028	0.000	18.1	1	1
03/21/06	7:25 p	-22.4	-22.3	-22.4	---	---	20.9	E	0.35	23.5	-37.1	---	---	722.9	0.028	0.000	18.1	1	1
03/21/06	7:26 p	-22.4	-22.4	-22.4	---	---	20.0	E	0.33	23.5	-36.8	---	---	723.0	0.028	0.000	18.1	1	1
03/21/06	7:27 p	-22.4	-22.3	-22.4	---	---	20.9	E	0.35	24.3	-37.1	---	---	723.1	0.028	0.000	18.1	1	1
03/21/06	7:28 p	-22.3	-22.3	-22.4	---	---	19.1	E	0.32	21.7	-36.4	---	---	723.0	0.028	0.000	18.1	1	1
03/21/06	7:29 p	-22.3	-22.3	-22.4	---	---	20.0	E	0.33	24.3	-36.7	---	---	723.0	0.028	0.000	18.1	1	1
03/21/06	7:30 p	-22.4	-22.3	-22.4	---	---	21.7	E	0.36	24.3	-37.3	---	---	723.0	0.028	0.000	18.1	1	1
03/21/06	7:31 p	-22.3	-22.3	-22.4	---	---	18.3	E	0.30	21.7	-36.2	---	---	723.0	0.028	0.000	18.1	1	1
03/21/06	7:32 p	-22.4	-22.3	-22.4	---	---	20.0	E	0.33	23.5	-36.8	---	---	723.0	0.028	0.000	18.1	1	1
03/21/06	7:33 p	-22.4	-22.4	-22.4	---	---	20.0	E	0.33	22.6	-36.8	---	---	723.0	0.028	0.000	18.1	1	1
03/21/06	7:34 p	-22.4	-22.4	-22.4	---	---	19.1	E	0.32	21.7	-36.6	---	---	723.0	0.028	0.000	18.1	1	1
03/21/06	7:35 p	-22.4	-22.3	-22.4	---	---	17.4	E	0.29	20.0	-36.0	---	---	723.0	0.028	0.000	18.1	1	1
03/21/06	7:36 p	-22.4	-22.3	-22.4	---	---	18.3	E	0.30	22.6	-36.3	---	---	723.0	0.028	0.000	18.1	1	1
03/21/06	7:37 p	-22.3	-22.3	-22.4	---	---	18.3	E	0.30	22.6	-36.2	---	---	722.9	0.028	0.000	18.1	1	1
03/21/06	7:38 p	-22.4	-22.3	-22.4	---	---	20.0	E	0.33	24.3	-36.8	---	---	722.8	0.028	0.000	18.1	1	1
03/21/06	7:39 p	-22.4	-22.3	-22.4	---	---	20.0	E	0.33	22.6	-36.8	---	---	722.9	0.028	0.000	18.1	1	1
03/21/06	7:40 p	-22.3	-22.3	-22.4	---	---	20.9	E	0.35	24.3	-36.9	---	---	722.8	0.028	0.000	18.1	1	1
03/21/06	7:41 p	-22.3	-22.3	-22.4	---	---	20.9	E	0.35	24.3	-36.9	---	---	722.8	0.028	0.000	18.1	1	1
03/21/06	7:42 p	-22.4	-22.3	-22.4	---	---	21.7	E	0.36	25.2	-37.3	---	---	722.7	0.028	0.000	18.1	1	1
03/21/06	7:43 p	-22.3	-22.3	-22.3	---	---	20.0	E	0.33	21.7	-36.7	---	---	722.7	0.028	0.000	18.1	1	1
03/21/06	7:44 p	-22.4	-22.3	-22.4	---	---	20.9	E	0.35	24.3	-37.1	---	---	722.7	0.028	0.000	18.1	1	1
03/21/06	7:45 p	-22.3	-22.3	-22.3	---	---	20.0	E	0.33	23.5	-36.7	---	---	722.8	0.028	0.000	18.1	1	1
03/21/06	7:46 p	-22.3	-22.3	-22.3	---	---	20.9	E	0.35	24.3	-36.9	---	---	722.8	0.028	0.000	18.1	1	1
03/21/06	7:47 p	-22.3	-22.3	-22.3	---	---	20.0	E	0.33	25.2	-36.7	---	---	722.7	0.028	0.000	18.1	1	1
03/21/06	7:48 p	-22.3	-22.3	-22.3	---	---	20.0	E	0.33	23.5	-36.7	---	---	722.7	0.028	0.000	18.1	1	1
03/21/06	7:49 p	-22.3	-22.3	-22.3	---	---	20.0	E	0.33	24.3	-36.7	---	---	722.6	0.028	0.000	18.1	1	1
03/21/06	7:50 p	-22.3	-22.3	-22.3	---	---	21.7	E	0.36	24.3	-37.2	---	---	722.7	0.028	0.000	18.1	1	1
03/21/06	7:51 p	-22.3	-22.3	-22.4	---	---	22.6	E	0.38	26.1	-37.4	---	---	722.6	0.028	0.000	18.1	1	1
03/21/06	7:52 p	-22.3	-22.3	-22.4	---	---	21.7	E	0.36	26.1	-37.2	---	---	722.7	0.028	0.000	18.1	1	1
03/21/06	7:53 p	-22.3	-22.3	-22.3	---	---	24.3	E	0.41	27.8	-37.9	---	---	722.6	0.028	0.000	18.1	1	1
03/21/06	7:54 p	-22.3	-22.3	-22.3	---	---	20.9	E	0.35	26.1	-36.9	---	---	722.8	0.028	0.000	18.1	1	1
03/21/06	7:55 p	-22.3	-22.3	-22.3	---	---	23.5	E	0.39	27.8	-37.7	---	---	722.7	0.028	0.000	18.1	1	1
03/21/06	7:56 p	-22.3	-22.3	-22.3	---	---	22.6	E	0.38	27.0	-37.4	---	---	722.7	0.028	0.000	18.1	1	1
03/21/06	7:57 p	-22.3	-22.3	-22.3	---	---	21.7	E	0.36	25.2	-37.2	---	---	722.7	0.028	0.000	18.1	1	1
03/21/06	7:58 p	-22.3	-22.3	-22.3	---	---	21.7	E	0.36	26.1	-37.2	---	---	722.7	0.028	0.000	18.1	1	1
03/21/06	7:59 p	-22.3	-22.3	-22.3	---	---	20.9	E	0.35	24.3	-36.9	---	---	722.9	0.028	0.000	18.1	1	1
03/21/06	8:00 p	-22.3	-22.3	-22.3	---	---	22.6	E	0.38	26.1	-37.4	---	---	722.7	0.028	0.000	18.1	1	1
03/21/06	8:01 p	-22.3	-22.3	-22.3	---	---	22.6	E	0.38	26.1	-37.4	---	---	722.8	0.028	0.000	18.1	1	1
03/21/06	8:02 p	-22.3	-22.3	-22.3	---	---	22.6	E	0.38	27.0	-37.4	---	---	722.7	0.028	0.000	18.1	1	1
03/21/06	8:03 p	-22.3	-22.3	-22.3	---	---	23.5	E	0.39	26.1	-37.7	---	---	722.8	0.028	0.000	18.1	1	1
03/21/06	8:04 p	-22.3	-22.3	-22.3	---	---	21.7	E	0.36	25.2	-37.2	---	---	722.8	0.028	0.000	18.1	1	1
03/21/06	8:05 p	-22.3	-22.3	-22.4	---	---	21.7	E	0.36	25.2	-37.2	---	---	722.9	0.028	0.000	18.1	1	1
03/21/06	8:06 p	-22.3	-22.3	-22.3	---	---	21.7	E	0.36	27.0	-37.2	---	---	722.7	0.028	0.000	18.1	1	1
03/21/06	8:07 p	-22.3	-22.3	-22.3	---	---	26.1	E	0.43	30.4	-38.3	---	---	722.6	0.028	0.000	18.1	1	1
03/21/06	8:08 p	-22.3	-22.3	-22.3	---	---	26.1	E	0.43	30.4	-38.3	---	---	722.6	0.028	0.000	18.1	1	1
03/21/06	8:09 p	-22.3	-22.3	-22.3	---	---	25.2	E	0.42	29.6	-38.0	---	---	722.6	0.028	0.000	18.1	1	1
03/21/06	8:10 p	-22.3	-22.3	-22.3	---	---	26.1	E	0.43	29.6	-38.2	---	---	722.5	0.028	0.000	18.1	1	1
03/21/06	8:11 p	-22.3	-22.3	-22.3	---	---	27.0	E	0.45	30.4	-38.5	---	---	722.5	0.028	0.000	18.1	1	1
03/21/06	8:12 p	-22.3	-22.3	-22.3	---	---	27.8	E	0.46	31.3	-38.7	---	---	722.4	0.028	0.000	18.1	1	1
03/21/06	8:13 p	-22.3	-22.3	-22.3	---	---	24.3	E	0.41	27.8	-37.9	---	---	722.5	0.028	0.000	18.1	1	1
03/21/06	8:14 p	-22.3	-22.3	-22.3	---	---	23.5	E	0.39	26.1	-37.7	---	---	722.6	0.028	0.000	18.1	1	1
03/21/06	8:15 p	-22.3	-22.3	-22.3	---	---	23.5	E	0.39	27.8	-37.7	---	---	722.5	0.028	0.000	18.1	1	1
03/21/06	8:16 p	-22.3	-22.3	-22.3	---	---	24.3	E	0.41	27.8	-37.9	---	---	722.5	0.028	0.000	18.1	1	1
03/21/06	8:17 p	-22.3	-22.3	-22.3	---	---	25.2	E	0.42	30.4	-38.0	---	---	722.6	0.028	0.000	18.1	1	1
03/21/06	8:18 p	-22.3	-22.3	-22.3	---	---	26.1	E	0.43	28.7	-38.3	---	---	722.4	0.028	0.000	18.1	1	1
03/21/06	8:19 p	-22.3	-22.3	-22.3	---	---	25.2	E	0.42	28.7	-38.0	---	---	722.4	0.028	0.000	18.1	1	1
03/21/06	8:20 p	-22.3	-22.3	-22.3	---	---	22.6	E	0.38	26.1	-37.4	---	---	722.5	0.028	0.000	18.1	1	1
03/21/06	8:21 p	-22.3	-22.3	-22.3	---	---	26.1	E	0.43	30.4	-38.3	---	---	722.3	0.028	0.000	18.1	1	1
03/21/06	8:22 p	-22.3	-22.3	-22.3	---	---	25.2	E	0.42	32.2	-38.1	---	---	722.2	0.028	0.000	18.1	1	1
03/21/06	8:23 p	-22.3	-22.3	-22.3	---	---	25.2	E	0.42	30.4	-38.1	---	---	722.3	0.028	0.000	18.1	1	1
03/21/06	8:24 p	-22.3	-22.3	-22.3	---	---	25.2	E	0.42	28.7	-38.0	---	---	722.3	0.028	0.000	18.1	1	1
03/21/06	8:25 p	-22.3	-22.3	-22.3	---	---	27.0	E	0.45	30.4	-38.4	---	---	722.1	0.028	0.000	18.1	1	1
03/21/06	8:26 p	-22.3	-22.3	-22.3	---	---	29.6	E	0.49	33.0	-39.1	---	---	722.0	0.028	0.000	18.1	1	1
03/21/06	8:27 p	-22.3	-22.3	-22.3	---	---	30.4	E	0.51	33.0	-39.2	---	---	721.9	0.028	0.000	18.1	1	1
03/21/06	8:28 p	-22.3	-22.3	-22.3	---	---	29.6	E	0.49	34.8	-39.1	---	---	722.2	0.028	0.000	18.0	1	1
03/21/06	8:29 p	-22.3	-22.3	-22.3	---	---	26.1	E	0.43	29.6	-38.2	---	---	722.3	0.028	0.000	18.0	1	1
03/21/06	8:30 p	-22.3	-22.3	-22.3	---	---	25.2	E	0.42	28.7	-38.0	---	---	722.3	0.028	0.000	17.9	1	1
03/21/06	8:31 p	-22.3	-22.3	-22.3	---	---	25.2	E	0.42	29.6	-38.0	---	---	722.2	0.028	0.000	17.9	1	1
03/21/06	8:32 p	-22.3	-22.3	-22.3	---	---	27.0	E	0.45	32.2	-38.4	---	---	722.1	0.028	0.000	17.9	1	1
03/21/06	8:33 p	-22.3	-22.3	-22.3	---	---	29.6	E	0.49	33.9	-38.9	---	---	722.1	0.028	0.000	17.9	1	1
03/21/06	8:34 p	-22.2	-22.2	-22.2	---	---	28.7	E	0.48	33.9	-38.7	---	---	722.3	0.028	0.000	17.9	1	1
03/21/06	8:35 p	-22.2	-22.2	-22.3	---	---	27.8	E	0.46	34.8	-38.5	---	---	722.4	0.028	0.000	17.9	1	1
03/21/06	8:36 p	-22.2	-22.2	-22.3	---	---	27.0	E	0.45	32.2	-38.3	---	---	722.4	0.028	0.000	17.9	1	1
03/21/06	8:37 p	-22.2	-22.2	-22.3	---	---	29.6	E	0.49	32.2	-38.9	---	---	722.1	0.028	0.000	17.9	1	1
03/21/06	8:38 p	-22.3	-22.2	-22.3	---	---	28.7	E	0.48	33.9	-38.8	---	---	722.1	0.028	0.000	17.9	1	1
03/21/06	8:39 p	-22.2	-22.2	-22.2	---	---	29.6	E	0.49	34.8	-38.9	---	---	722.1	0.028	0.000	17.9	1	1
03/21/06	8:40 p	-22.2	-22.2	-22.3	---	---	29.6	E	0.49	32.2	-38.9	---	---	722.1	0.028	0.000	17.9	1	1
03/21/06	8:41 p	-22.2	-22.2	-22.2	---	---	29.6	E	0.49	34.8	-38.8	---	---	722.2	0.028	0.000	17.9	1	1
03/21/06	8:42 p	-22.2	-22.2	-22.2	---	---	28.7	E	0.48	32.2	-38.6	---	---	722.1	0.028	0.000	17.9	1	1
03/21/06	8:43 p	-22.2	-22.2	-22.2	---	---	28.7	E	0.48	32.2	-38.6	---	---	722.2	0.028	0.000	17.9	1	1
03/21/06	8:44 p	-22.2	-22.2	-22.2	---	---	27.8	E	0.46	32.2	-38.4	---	---	722.1	0.028	0.000	17.9	1	1
03/21/06	8:45 p	-22.2	-22.1	-22.2	---	---	27.8	E	0.46	31.3	-38.4	---	---	722.2	0.028	0.000	17.9	1	1
03/21/06	8:46 p	-22.1	-22.1	-22.1	---	---	27.0	E	0.45	29.6	-38.2	---	---	722.3	0.028	0.000	17.9	1	1
03/21/06	8:47 p	-22.1	-22.1	-22.1	---	---	27.8	E	0.46	31.3	-38.4	---	---	722.3	0.028	0.000	17.9	1	1
03/21/06	8:48 p	-22.1	-22.1	-22.1	---	---	27.0	E	0.45	30.4	-38.2	---	---	722.2	0.028	0.000	17.9	1	1
03/21/06	8:49 p	-22.1	-22.1	-22.1	---	---	26.1	E	0.43	30.4	-37.9	---	---	722.2	0.028	0.000	17.9	1	1
03/21/06	8:50 p	-22.1	-22.1	-22.1	---	---	27.8	E	0.46	31.3	-38.4	---	---	722.1	0.028	0.000	17.9	1	1
03/21/06	8:51 p	-22.1	-22.1	-22.1	---	---	27.8	E	0.46	32.2	-38.3	---	---	722.2	0.028	0.000	17.9	1	1
03/21/06	8:52 p	-22.1	-22.0	-22.1	---	---	28.7	E	0.48	32.2	-38.5	---	---	722.0	0.028	0.000	17.9	1	1
03/21/06	8:53 p	-22.1	-22.0	-22.1	---	---	29.6	E	0.49	33.9	-38.7	---	---	722.1	0.028	0.000	17.9	1	1
03/21/06	8:54 p	-22.0	-22.0	-22.0	---	---	29.6	E	0.49	33.0	-38.6	---	---	722.3	0.028	0.000	17.9	1	1
03/21/06	8:55 p	-22.0	-22.0	-22.0	---	---	27.8	E	0.46	30.4	-38.2	---	---	722.3	0.028	0.000	17.9	1	1
03/21/06	8:56 p	-22.0	-21.9	-22.0	---	---	26.1	E	0.43	31.3	-37.8	---	---	722.4	0.028	0.000	17.9	1	1
03/21/06	8:57 p	-21.9	-21.9	-22.0	---	---	26.1	E	0.43	31.3	-37.8	---	---	722.3	0.028	0.000	17.9	1	1
03/21/06	8:58 p	-21.9	-21.9	-21.9	---	---	27.0	E	0.45	29.6	-37.9	---	---	722.4	0.028	0.000	17.9	1	1
03/21/06	8:59 p	-21.9	-21.9	-21.9	---	---	27.8	E	0.46	32.2	-38.1	---	---	722.3	0.028	0.000	17.9	1	1
03/21/06	9:00 p	-21.9	-21.9	-21.9	---	---	26.1	E	0.43	32.2	-37.7	---	---	722.4	0.028	0.000	17.9	1	1
03/21/06	9:01 p	-21.9	-21.9	-21.9	---	---	25.2	E	0.42	30.4	-37.5	---	---	722.5	0.028	0.000	17.9	1	1
03/21/06	9:02 p	-21.9	-21.9	-21.9	---	---	26.1	E	0.43	31.3	-37.7	---	---	722.4	0.028	0.000	17.9	1	1
03/21/06	9:03 p	-21.9	-21.9	-21.9	---	---	28.7	E	0.48	31.3	-38.2	---	---	722.4	0.028	0.000	17.9	1	1
03/21/06	9:04 p	-21.9	-21.9	-21.9	---	---	26.1	E	0.43	30.4	-37.7	---	---	722.4	0.028	0.000	17.9	1	1
03/21/06	9:05 p	-21.9	-21.8	-21.9	---	---	27.8	E	0.46	33.0	-38.1	---	---	722.4	0.028	0.000	17.9	1	1
03/21/06	9:06 p	-21.9	-21.8	-21.9	---	---	26.1	E	0.43	28.7	-37.7	---	---	722.5	0.028	0.000	17.9	1	1
03/21/06	9:07 p	-21.8	-21.8	-21.9	---	---	25.2	E	0.42	27.0	-37.4	---	---	722.5	0.028	0.000	17.9	1	1
03/21/06	9:08 p	-21.8	-21.8	-21.8	---	---	25.2	E	0.42	31.3	-37.4	---	---	722.5	0.028	0.000	17.9	1	1
03/21/06	9:09 p	-21.8	-21.8	-21.8	---	---	26.1	E	0.43	31.3	-37.6	---	---	722.5	0.028	0.000	17.9	1	1
03/21/06	9:10 p	-21.8	-21.8	-21.8	---	---	27.8	E	0.46	31.3	-38.0	---	---	722.5	0.028	0.000	17.9	1	1
03/21/06	9:11 p	-21.8	-21.8	-21.8	---	---	26.1	E	0.43	31.3	-37.6	---	---	722.5	0.028	0.000	17.9	1	1
03/21/06	9:12 p	-21.8	-21.8	-21.8	---	---	25.2	E	0.42	28.7	-37.4	---	---	722.6	0.028	0.000	17.9	1	1
03/21/06	9:13 p	-21.8	-21.8	-21.8	---	---	23.5	E	0.39	27.0	-37.0	---	---	722.5	0.028	0.000	17.9	1	1
03/21/06	9:14 p	-21.8	-21.8	-21.8	---	---	25.2	E	0.42	30.4	-37.4	---	---	722.5	0.028	0.000	17.9	1	1
03/21/06	9:15 p	-21.8	-21.8	-21.8	---	---	23.5	E	0.39	31.3	-37.0	---	---	722.5	0.028	0.000	17.9	1	1
03/21/06	9:16 p	-21.8	-21.8	-21.8	---	---	26.1	E	0.43	30.4	-37.5	---	---	722.7	0.028	0.000	17.9	1	1
03/21/06	9:17 p	-21.7	-21.7	-21.8	---	---	27.0	E	0.45	29.6	-37.7	---	---	722.5	0.028	0.000	17.9	1	1
03/21/06	9:18 p	-21.8	-21.7	-21.8	---	---	26.1	E	0.43	32.2	-37.5	---	---	722.6	0.028	0.000	17.9	1	1
03/21/06	9:19 p	-21.8	-21.7	-21.8	---	---	26.1	E	0.43	30.4	-37.5	---	---	722.6	0.028	0.000	17.9	1	1
03/21/06	9:20 p	-21.7	-21.7	-21.7	---	---	27.0	E	0.45	31.3	-37.7	---	---	722.6	0.028	0.000	18.0	1	1
03/21/06	9:21 p	-21.7	-21.7	-21.7	---	---	26.1	E	0.43	31.3	-37.4	---	---	722.6	0.028	0.000	18.0	1	1
03/21/06	9:22 p	-21.7	-21.7	-21.7	---	---	26.1	E	0.43	29.6	-37.4	---	---	722.6	0.028	0.000	18.0	1	1
03/21/06	9:23 p	-21.7	-21.7	-21.7	---	---	26.1	E	0.43	30.4	-37.4	---	---	722.6	0.028	0.000	18.0	1	1
03/21/06	9:24 p	-21.7	-21.7	-21.7	---	---	28.7	E	0.48	32.2	-38.0	---	---	722.6	0.028	0.000	18.1	1	1
03/21/06	9:25 p	-21.7	-21.7	-21.7	---	---	27.8	E	0.46	31.3	-37.8	---	---	722.7	0.028	0.000	18.1	1	1
03/21/06	9:26 p	-21.7	-21.7	-21.7	---	---	27.8	E	0.46	32.2	-37.8	---	---	722.7	0.028	0.000	18.1	1	1
03/21/06	9:27 p	-21.7	-21.7	-21.7	---	---	24.3	E	0.41	29.6	-36.9	---	---	722.7	0.028	0.000	18.1	1	1
03/21/06	9:28 p	-21.7	-21.7	-21.7	---	---	27.0	E	0.45	30.4	-37.6	---	---	722.8	0.028	0.000	18.1	1	1
03/21/06	9:29 p	-21.7	-21.7	-21.7	---	---	25.2	E	0.42	28.7	-37.2	---	---	722.7	0.028	0.000	18.1	1	1
03/21/06	9:30 p	-21.7	-21.7	-21.7	---	---	23.5	E	0.39	29.6	-36.8	---	---	722.7	0.028	0.000	18.2	1	1
03/21/06	9:31 p	-21.7	-21.7	-21.7	---	---	22.6	E	0.38	26.1	-36.6	---	---	722.8	0.028	0.000	18.2	1	1
03/21/06	9:32 p	-21.7	-21.7	-21.7	---	---	26.1	E	0.43	29.6	-37.4	---	---	722.7	0.028	0.000	18.2	1	1
03/21/06	9:33 p	-21.7	-21.7	-21.7	---	---	23.5	E	0.39	27.8	-36.8	---	---	722.7	0.028	0.000	18.2	1	1
03/21/06	9:34 p	-21.7	-21.7	-21.7	---	---	24.3	E	0.41	28.7	-36.9	---	---	722.6	0.028	0.000	18.2	1	1
03/21/06	9:35 p	-21.7	-21.7	-21.7	---	---	27.0	E	0.45	29.6	-37.6	---	---	722.6	0.028	0.000	18.2	1	1
03/21/06	9:36 p	-21.7	-21.7	-21.7	---	---	25.2	E	0.42	29.6	-37.2	---	---	722.6	0.028	0.000	18.2	1	1
03/21/06	9:37 p	-21.7	-21.6	-21.7	---	---	25.2	E	0.42	28.7	-37.2	---	---	722.6	0.028	0.000	18.3	1	1
03/21/06	9:38 p	-21.7	-21.7	-21.7	---	---	22.6	E	0.38	26.1	-36.6	---	---	722.6	0.028	0.000	18.3	1	1
03/21/06	9:39 p	-21.7	-21.7	-21.7	---	---	22.6	E	0.38	25.2	-36.6	---	---	722.7	0.028	0.000	18.3	1	1
03/21/06	9:40 p	-21.7	-21.6	-21.7	---	---	23.5	E	0.39	27.8	-36.8	---	---	722.6	0.028	0.000	18.3	1	1
03/21/06	9:41 p	-21.6	-21.6	-21.6	---	---	24.3	E	0.41	27.8	-36.9	---	---	722.7	0.028	0.000	18.3	1	1
03/21/06	9:42 p	-21.6	-21.6	-21.6	---	---	25.2	E	0.42	28.7	-37.1	---	---	722.7	0.028	0.000	18.3	1	1
03/21/06	9:43 p	-21.6	-21.6	-21.6	---	---	24.3	E	0.41	27.8	-36.9	---	---	722.8	0.028	0.000	18.3	1	1
03/21/06	9:44 p	-21.6	-21.6	-21.6	---	---	25.2	E	0.42	28.7	-37.1	---	---	722.6	0.028	0.000	18.3	1	1
03/21/06	9:45 p	-21.6	-21.6	-21.6	---	---	26.1	E	0.43	28.7	-37.3	---	---	722.7	0.028	0.000	18.3	1	1
03/21/06	9:46 p	-21.6	-21.6	-21.6	---	---	26.1	E	0.43	28.7	-37.3	---	---	722.7	0.028	0.000	18.3	1	1
03/21/06	9:47 p	-21.6	-21.6	-21.6	---	---	24.3	E	0.41	28.7	-36.9	---	---	722.6	0.028	0.000	18.3	1	1
03/21/06	9:48 p	-21.6	-21.6	-21.6	---	---	25.2	E	0.42	28.7	-37.1	---	---	722.6	0.028	0.000	18.3	1	1
03/21/06	9:49 p	-21.6	-21.6	-21.6	---	---	23.5	E	0.39	26.1	-36.7	---	---	722.6	0.028	0.000	18.3	1	1
03/21/06	9:50 p	-21.6	-21.6	-21.6	---	---	24.3	E	0.41	26.1	-36.9	---	---	722.6	0.028	0.000	18.3	1	1
03/21/06	9:51 p	-21.6	-21.6	-21.6	---	---	25.2	E	0.42	28.7	-37.0	---	---	722.7	0.028	0.000	18.3	1	1
03/21/06	9:52 p	-21.6	-21.6	-21.6	---	---	25.2	E	0.42	29.6	-37.0	---	---	722.7	0.028	0.000	18.3	1	1
03/21/06	9:53 p	-21.6	-21.5	-21.6	---	---	24.3	E	0.41	26.1	-36.8	---	---	722.7	0.028	0.000	18.4	1	1
03/21/06	9:54 p	-21.5	-21.5	-21.5	---	---	24.3	E	0.41	27.8	-36.7	---	---	722.8	0.028	0.000	18.4	1	1
03/21/06	9:55 p	-21.6	-21.5	-21.6	---	---	26.1	ENE	0.43	28.7	-37.2	---	---	722.7	0.028	0.000	18.4	1	1
03/21/06	9:56 p	-21.5	-21.5	-21.6	---	---	23.5	E	0.39	27.0	-36.6	---	---	722.7	0.028	0.000	18.4	2	1
03/21/06	9:57 p	-21.6	-21.5	-21.6	---	---	23.5	E	0.39	27.0	-36.6	---	---	722.8	0.028	0.000	18.4	2	1
03/21/06	9:58 p	-21.5	-21.5	-21.5	---	---	24.3	E	0.41	27.8	-36.7	---	---	722.7	0.028	0.000	18.4	2	1
03/21/06	9:59 p	-21.5	-21.5	-21.6	---	---	23.5	E	0.39	28.7	-36.6	---	---	722.6	0.028	0.000	18.4	2	1
03/21/06	10:00 p	-21.5	-21.5	-21.5	---	---	23.5	E	0.39	27.0	-36.6	---	---	722.7	0.028	0.000	18.4	2	1
03/21/06	10:01 p	-21.5	-21.5	-21.5	---	---	22.6	E	0.38	25.2	-36.3	---	---	722.7	0.028	0.000	18.5	2	1
03/21/06	10:02 p	-21.5	-21.5	-21.5	---	---	21.7	E	0.36	25.2	-36.1	---	---	722.8	0.028	0.000	18.5	2	1
03/21/06	10:03 p	-21.5	-21.5	-21.5	---	---	23.5	E	0.39	26.1	-36.6	---	---	722.8	0.028	0.000	18.5	2	1
03/21/06	10:04 p	-21.5	-21.5	-21.5	---	---	21.7	E	0.36	24.3	-36.1	---	---	722.8	0.028	0.000	18.5	2	1
03/21/06	10:05 p	-21.5	-21.4	-21.5	---	---	21.7	E	0.36	24.3	-36.1	---	---	722.8	0.028	0.000	18.5	2	1
03/21/06	10:06 p	-21.5	-21.4	-21.5	---	---	22.6	E	0.38	26.1	-36.3	---	---	722.7	0.028	0.000	18.5	2	1
03/21/06	10:07 p	-21.4	-21.4	-21.5	---	---	22.6	E	0.38	27.0	-36.2	---	---	722.7	0.028	0.000	18.6	2	1
03/21/06	10:08 p	-21.4	-21.4	-21.5	---	---	22.6	E	0.38	26.1	-36.2	---	---	722.8	0.028	0.000	18.6	2	1
03/21/06	10:09 p	-21.4	-21.4	-21.4	---	---	25.2	E	0.42	27.0	-36.9	---	---	722.8	0.028	0.000	18.6	2	1
03/21/06	10:10 p	-21.4	-21.4	-21.4	---	---	23.5	E	0.39	27.8	-36.4	---	---	722.7	0.028	0.000	18.6	2	1
03/21/06	10:11 p	-21.4	-21.4	-21.4	---	---	23.5	E	0.39	25.2	-36.4	---	---	722.8	0.028	0.000	18.7	2	1
03/21/06	10:12 p	-21.4	-21.4	-21.4	---	---	24.3	E	0.41	26.1	-36.7	---	---	722.8	0.028	0.000	18.7	2	1
03/21/06	10:13 p	-21.4	-21.4	-21.4	---	---	20.9	E	0.35	24.3	-35.7	---	---	722.8	0.028	0.000	18.7	2	1
03/21/06	10:14 p	-21.4	-21.4	-21.4	---	---	22.6	E	0.38	26.1	-36.2	---	---	722.8	0.028	0.000	18.7	2	1
03/21/06	10:15 p	-21.4	-21.4	-21.4	---	---	24.3	E	0.41	27.0	-36.6	---	---	722.7	0.028	0.000	18.7	2	1
03/21/06	10:16 p	-21.4	-21.4	-21.4	---	---	23.5	ENE	0.39	27.0	-36.4	---	---	722.8	0.028	0.000	18.7	2	1
03/21/06	10:17 p	-21.4	-21.4	-21.4	---	---	25.2	ENE	0.42	27.0	-36.8	---	---	722.8	0.028	0.000	18.7	2	1
03/21/06	10:18 p	-21.4	-21.4	-21.4	---	---	23.5	E	0.39	26.1	-36.4	---	---	722.8	0.028	0.000	18.7	2	1
03/21/06	10:19 p	-21.4	-21.4	-21.4	---	---	21.7	E	0.36	25.2	-35.9	---	---	722.8	0.028	0.000	18.7	2	1
03/21/06	10:20 p	-21.4	-21.4	-21.4	---	---	20.9	E	0.35	27.0	-35.7	---	---	722.8	0.028	0.000	18.7	2	1
03/21/06	10:21 p	-21.4	-21.3	-21.4	---	---	21.7	E	0.36	24.3	-35.9	---	---	722.8	0.028	0.000	18.7	2	1
03/21/06	10:22 p	-21.3	-21.3	-21.4	---	---	23.5	E	0.39	26.1	-36.3	---	---	722.8	0.028	0.000	18.7	2	1
03/21/06	10:23 p	-21.3	-21.3	-21.4	---	---	23.5	E	0.39	27.0	-36.3	---	---	722.8	0.028	0.000	18.7	2	1
03/21/06	10:24 p	-21.4	-21.3	-21.4	---	---	21.7	E	0.36	24.3	-35.9	---	---	722.8	0.028	0.000	18.7	2	1
03/21/06	10:25 p	-21.4	-21.3	-21.4	---	---	22.6	E	0.38	25.2	-36.2	---	---	722.8	0.028	0.000	18.7	2	1
03/21/06	10:26 p	-21.3	-21.3	-21.3	---	---	19.1	E	0.32	24.3	-35.1	---	---	722.9	0.028	0.000	18.6	2	1
03/21/06	10:27 p	-21.3	-21.3	-21.3	---	---	20.9	E	0.35	27.0	-35.6	---	---	722.8	0.028	0.000	18.6	2	1
03/21/06	10:28 p	-21.3	-21.3	-21.3	---	---	21.7	E	0.36	25.2	-35.8	---	---	722.8	0.028	0.000	18.6	2	1
03/21/06	10:29 p	-21.3	-21.3	-21.3	---	---	21.7	E	0.36	24.3	-35.9	---	---	722.8	0.028	0.000	18.6	2	1
03/21/06	10:30 p	-21.3	-21.3	-21.3	---	---	21.7	E	0.36	23.5	-35.8	---	---	722.8	0.028	0.000	18.5	2	1
03/21/06	10:31 p	-21.3	-21.3	-21.3	---	---	20.9	E	0.35	25.2	-35.6	---	---	722.8	0.028	0.000	18.5	2	1
03/21/06	10:32 p	-21.3	-21.3	-21.3	---	---	20.9	E	0.35	23.5	-35.6	---	---	722.8	0.028	0.000	18.5	2	1
03/21/06	10:33 p	-21.3	-21.3	-21.3	---	---	21.7	E	0.36	26.1	-35.8	---	---	722.7	0.028	0.000	18.4	2	1
03/21/06	10:34 p	-21.3	-21.3	-21.3	---	---	20.9	E	0.35	24.3	-35.6	---	---	722.8	0.028	0.000	18.4	2	1
03/21/06	10:35 p	-21.3	-21.3	-21.3	---	---	19.1	E	0.32	20.9	-35.1	---	---	722.8	0.028	0.000	18.4	2	1
03/21/06	10:36 p	-21.3	-21.3	-21.3	---	---	21.7	E	0.36	25.2	-35.8	---	---	722.8	0.028	0.000	18.4	2	1
03/21/06	10:37 p	-21.3	-21.3	-21.3	---	---	21.7	E	0.36	25.2	-35.8	---	---	722.8	0.028	0.000	18.4	2	1
03/21/06	10:38 p	-21.3	-21.3	-21.3	---	---	21.7	E	0.36	23.5	-35.8	---	---	722.8	0.028	0.000	18.4	2	1
03/21/06	10:39 p	-21.3	-21.2	-21.3	---	---	21.7	ENE	0.36	24.3	-35.8	---	---	722.9	0.028	0.000	18.4	2	1
03/21/06	10:40 p	-21.3	-21.3	-21.3	---	---	20.0	E	0.33	22.6	-35.3	---	---	722.8	0.028	0.000	18.4	2	1
03/21/06	10:41 p	-21.2	-21.2	-21.3	---	---	20.9	E	0.35	24.3	-35.5	---	---	722.9	0.027	0.000	18.3	1	1
03/21/06	10:42 p	-21.2	-21.2	-21.2	---	---	20.9	E	0.35	24.3	-35.5	---	---	722.8	0.027	0.000	18.3	1	1
03/21/06	10:43 p	-21.2	-21.2	-21.2	---	---	22.6	E	0.38	25.2	-35.9	---	---	722.8	0.027	0.000	18.3	1	1
03/21/06	10:44 p	-21.2	-21.2	-21.2	---	---	20.9	E	0.35	23.5	-35.5	---	---	722.9	0.027	0.000	18.3	2	1
03/21/06	10:45 p	-21.2	-21.2	-21.2	---	---	20.0	E	0.33	23.5	-35.2	---	---	722.9	0.027	0.000	18.3	1	1
03/21/06	10:46 p	-21.2	-21.2	-21.2	---	---	17.4	E	0.29	20.0	-34.4	---	---	722.9	0.027	0.000	18.3	1	1
03/21/06	10:47 p	-21.2	-21.2	-21.2	---	---	19.1	E	0.32	20.9	-35.0	---	---	722.9	0.027	0.000	18.3	1	1
03/21/06	10:48 p	-21.2	-21.2	-21.2	---	---	20.0	E	0.33	22.6	-35.2	---	---	722.8	0.027	0.000	18.3	1	1
03/21/06	10:49 p	-21.2	-21.2	-21.2	---	---	20.0	E	0.33	24.3	-35.2	---	---	722.8	0.027	0.000	18.3	1	1
03/21/06	10:50 p	-21.2	-21.2	-21.2	---	---	21.7	E	0.36	24.3	-35.7	---	---	722.8	0.027	0.000	18.3	1	1
03/21/06	10:51 p	-21.2	-21.2	-21.2	---	---	24.3	ENE	0.41	27.0	-36.4	---	---	722.7	0.027	0.000	18.3	1	1
03/21/06	10:52 p	-21.2	-21.2	-21.2	---	---	20.9	ENE	0.35	22.6	-35.5	---	---	722.8	0.027	0.000	18.3	1	1
03/21/06	10:53 p	-21.2	-21.2	-21.2	---	---	20.0	ENE	0.33	22.6	-35.2	---	---	723.0	0.027	0.000	18.3	1	1
03/21/06	10:54 p	-21.2	-21.2	-21.2	---	---	19.1	ENE	0.32	22.6	-35.0	---	---	723.0	0.027	0.000	18.2	1	1
03/21/06	10:55 p	-21.2	-21.2	-21.2	---	---	18.3	E	0.30	20.9	-34.7	---	---	723.0	0.027	0.000	18.3	1	1
03/21/06	10:56 p	-21.2	-21.2	-21.2	---	---	16.5	E	0.28	20.0	-34.1	---	---	722.9	0.027	0.000	18.2	1	1
03/21/06	10:57 p	-21.2	-21.2	-21.2	---	---	18.3	E	0.30	24.3	-34.7	---	---	722.7	0.027	0.000	18.2	1	1
03/21/06	10:58 p	-21.2	-21.2	-21.2	---	---	20.9	E	0.35	24.3	-35.4	---	---	722.7	0.027	0.000	18.2	1	1
03/21/06	10:59 p	-21.2	-21.2	-21.2	---	---	23.5	E	0.39	26.1	-36.1	---	---	722.7	0.027	0.000	18.2	1	1
03/21/06	11:00 p	-21.2	-21.2	-21.2	---	---	23.5	E	0.39	26.1	-36.1	---	---	722.8	0.027	0.000	18.2	1	1
03/21/06	11:01 p	-21.2	-21.1	-21.2	---	---	21.7	E	0.36	23.5	-35.6	---	---	722.8	0.027	0.000	18.2	1	1
03/21/06	11:02 p	-21.2	-21.2	-21.2	---	---	20.9	E	0.35	23.5	-35.4	---	---	722.8	0.027	0.000	18.2	1	1
03/21/06	11:03 p	-21.2	-21.1	-21.2	---	---	19.1	E	0.32	20.9	-34.9	---	---	722.8	0.027	0.000	18.2	1	1
03/21/06	11:04 p	-21.2	-21.1	-21.2	---	---	18.3	E	0.30	20.9	-34.7	---	---	722.8	0.027	0.000	18.2	1	1
03/21/06	11:05 p	-21.1	-21.1	-21.2	---	---	20.0	E	0.33	25.2	-35.1	---	---	722.8	0.027	0.000	18.2	1	1
03/21/06	11:06 p	-21.1	-21.1	-21.1	---	---	20.9	E	0.35	23.5	-35.3	---	---	722.6	0.027	0.000	18.2	1	1
03/21/06	11:07 p	-21.1	-21.1	-21.1	---	---	22.6	E	0.38	25.2	-35.8	---	---	722.6	0.027	0.000	18.2	1	1
03/21/06	11:08 p	-21.1	-21.1	-21.1	---	---	22.6	E	0.38	24.3	-35.8	---	---	722.7	0.027	0.000	18.2	1	1
03/21/06	11:09 p	-21.1	-21.1	-21.1	---	---	21.7	E	0.36	25.2	-35.6	---	---	722.7	0.027	0.000	18.2	1	1
03/21/06	11:10 p	-21.1	-21.1	-21.1	---	---	20.9	E	0.35	24.3	-35.3	---	---	722.6	0.027	0.000	18.2	1	1
03/21/06	11:11 p	-21.1	-21.1	-21.1	---	---	23.5	E	0.39	26.1	-35.9	---	---	722.5	0.027	0.000	18.2	1	1
03/21/06	11:12 p	-21.1	-21.1	-21.1	---	---	25.2	ENE	0.42	28.7	-36.3	---	---	722.6	0.027	0.000	18.2	1	1
03/21/06	11:13 p	-21.1	-21.1	-21.1	---	---	25.2	ENE	0.42	28.7	-36.3	---	---	722.6	0.027	0.000	18.2	1	1
03/21/06	11:14 p	-21.1	-21.1	-21.1	---	---	24.3	E	0.41	27.0	-36.2	---	---	722.5	0.027	0.000	18.2	1	1
03/21/06	11:15 p	-21.1	-21.1	-21.1	---	---	23.5	E	0.39	27.0	-35.9	---	---	722.5	0.027	0.000	18.2	1	1
03/21/06	11:16 p	-21.0	-21.0	-21.1	---	---	20.9	E	0.35	24.3	-35.2	---	---	722.6	0.027	0.000	18.2	1	1
03/21/06	11:17 p	-21.0	-21.0	-21.0	---	---	22.6	E	0.38	26.1	-35.7	---	---	722.5	0.027	0.000	18.2	1	1
03/21/06	11:18 p	-21.0	-21.0	-21.0	---	---	25.2	ENE	0.42	27.8	-36.3	---	---	722.5	0.027	0.000	18.2	1	1
03/21/06	11:19 p	-21.0	-21.0	-21.0	---	---	25.2	ENE	0.42	27.0	-36.3	---	---	722.6	0.027	0.000	18.2	1	1
03/21/06	11:20 p	-21.0	-21.0	-21.0	---	---	24.3	ENE	0.41	27.0	-36.1	---	---	722.5	0.027	0.000	18.2	1	1
03/21/06	11:21 p	-21.0	-21.0	-21.0	---	---	24.3	E	0.41	27.0	-36.1	---	---	722.5	0.027	0.000	18.2	1	1
03/21/06	11:22 p	-21.0	-21.0	-21.0	---	---	21.7	E	0.36	25.2	-35.4	---	---	722.5	0.027	0.000	18.2	1	1
03/21/06	11:23 p	-21.0	-20.9	-21.0	---	---	23.5	E	0.39	25.2	-35.8	---	---	722.5	0.027	0.000	18.2	1	1
03/21/06	11:24 p	-21.0	-20.9	-21.0	---	---	23.5	E	0.39	26.1	-35.8	---	---	722.4	0.027	0.000	18.2	1	1
03/21/06	11:25 p	-21.0	-20.9	-21.0	---	---	24.3	E	0.41	27.8	-36.1	---	---	722.4	0.027	0.000	18.2	1	1
03/21/06	11:26 p	-20.9	-20.9	-20.9	---	---	25.2	E	0.42	27.0	-36.2	---	---	722.5	0.027	0.000	18.2	1	1
03/21/06	11:27 p	-20.9	-20.9	-20.9	---	---	22.6	ENE	0.38	26.1	-35.6	---	---	722.5	0.027	0.000	18.2	1	1
03/21/06	11:28 p	-20.9	-20.9	-20.9	---	---	24.3	ENE	0.41	28.7	-36.0	---	---	722.5	0.027	0.000	18.2	1	1
03/21/06	11:29 p	-20.9	-20.9	-20.9	---	---	27.8	ENE	0.46	29.6	-36.7	---	---	722.3	0.027	0.000	18.2	1	1
03/21/06	11:30 p	-20.9	-20.9	-20.9	---	---	25.2	ENE	0.42	27.8	-36.2	---	---	722.4	0.027	0.000	18.2	1	1
03/21/06	11:31 p	-20.9	-20.9	-20.9	---	---	25.2	E	0.42	27.0	-36.1	---	---	722.4	0.027	0.000	18.2	1	1
03/21/06	11:32 p	-20.9	-20.9	-20.9	---	---	24.3	E	0.41	27.8	-35.9	---	---	722.4	0.027	0.000	18.2	1	1
03/21/06	11:33 p	-20.9	-20.9	-20.9	---	---	22.6	E	0.38	26.1	-35.5	---	---	722.5	0.027	0.000	18.2	1	1
03/21/06	11:34 p	-20.9	-20.9	-20.9	---	---	21.7	E	0.36	25.2	-35.3	---	---	722.5	0.027	0.000	18.2	1	1
03/21/06	11:35 p	-20.8	-20.8	-20.9	---	---	22.6	E	0.38	26.1	-35.4	---	---	722.5	0.027	0.000	18.2	1	1
03/21/06	11:36 p	-20.9	-20.8	-20.9	---	---	23.5	E	0.39	27.0	-35.7	---	---	722.4	0.027	0.000	18.2	1	1
03/21/06	11:37 p	-20.8	-20.8	-20.9	---	---	26.1	E	0.43	28.7	-36.2	---	---	722.4	0.027	0.000	18.1	1	1
03/21/06	11:38 p	-20.8	-20.8	-20.8	---	---	26.1	E	0.43	28.7	-36.2	---	---	722.3	0.027	0.000	18.1	1	1
03/21/06	11:39 p	-20.8	-20.8	-20.8	---	---	26.1	E	0.43	28.7	-36.2	---	---	722.3	0.027	0.000	18.1	1	1
03/21/06	11:40 p	-20.8	-20.8	-20.8	---	---	25.2	E	0.42	28.7	-36.1	---	---	722.3	0.027	0.000	18.1	1	1
03/21/06	11:41 p	-20.8	-20.8	-20.8	---	---	27.0	E	0.45	29.6	-36.4	---	---	722.4	0.027	0.000	18.1	1	1
03/21/06	11:42 p	-20.8	-20.8	-20.8	---	---	21.7	E	0.36	26.1	-35.2	---	---	722.6	0.027	0.000	18.1	1	1
03/21/06	11:43 p	-20.8	-20.8	-20.8	---	---	19.1	E	0.32	22.6	-34.5	---	---	722.7	0.027	0.000	18.1	1	1
03/21/06	11:44 p	-20.8	-20.8	-20.8	---	---	18.3	E	0.30	20.9	-34.2	---	---	722.6	0.027	0.000	18.1	1	1
03/21/06	11:45 p	-20.8	-20.8	-20.8	---	---	20.0	E	0.33	24.3	-34.7	---	---	722.4	0.027	0.000	18.1	1	1
03/21/06	11:46 p	-20.8	-20.8	-20.8	---	---	20.9	E	0.35	24.3	-34.9	---	---	722.4	0.027	0.000	18.1	1	1
03/21/06	11:47 p	-20.8	-20.8	-20.8	---	---	25.2	E	0.42	28.7	-35.9	---	---	722.3	0.027	0.000	18.1	1	1
03/21/06	11:48 p	-20.8	-20.8	-20.8	---	---	25.2	ENE	0.42	27.8	-35.9	---	---	722.3	0.027	0.000	18.1	1	1
03/21/06	11:49 p	-20.8	-20.8	-20.8	---	---	23.5	ENE	0.39	27.0	-35.6	---	---	722.5	0.027	0.000	18.1	1	1
03/21/06	11:50 p	-20.8	-20.8	-20.8	---	---	20.9	ENE	0.35	23.5	-34.9	---	---	722.6	0.027	0.000	18.1	1	1
03/21/06	11:51 p	-20.8	-20.7	-20.8	---	---	21.7	ENE	0.36	26.1	-35.1	---	---	722.4	0.027	0.000	18.1	1	1
03/21/06	11:52 p	-20.8	-20.8	-20.8	---	---	26.1	ENE	0.43	28.7	-36.2	---	---	722.3	0.027	0.000	18.1	1	1
03/21/06	11:53 p	-20.7	-20.7	-20.8	---	---	26.1	ENE	0.43	28.7	-36.1	---	---	722.4	0.027	0.000	18.1	1	1
03/21/06	11:54 p	-20.8	-20.7	-20.8	---	---	26.1	ENE	0.43	27.8	-36.2	---	---	722.4	0.027	0.000	18.1	1	1
03/21/06	11:55 p	-20.7	-20.7	-20.8	---	---	26.1	ENE	0.43	27.8	-36.1	---	---	722.3	0.027	0.000	18.1	1	1
03/21/06	11:56 p	-20.7	-20.7	-20.7	---	---	25.2	ENE	0.42	28.7	-35.9	---	---	722.3	0.027	0.000	18.1	1	1
03/21/06	11:57 p	-20.7	-20.7	-20.7	---	---	25.2	ENE	0.42	28.7	-35.9	---	---	722.3	0.027	0.000	18.1	1	1
03/21/06	11:58 p	-20.7	-20.7	-20.7	---	---	27.8	ENE	0.46	30.4	-36.4	---	---	722.2	0.027	0.000	18.1	1	1
03/21/06	11:59 p	-20.7	-20.7	-20.7	---	---	27.8	ENE	0.46	30.4	-36.4	---	---	722.3	0.027	0.000	18.1	1	1
03/22/06	12:00 a	-20.7	-20.7	-20.7	---	---	25.2	ENE	0.42	27.8	-35.9	---	---	722.4	0.027	0.000	18.1	1	1
03/22/06	12:01 a	-20.7	-20.7	-20.7	---	---	24.3	E	0.41	27.8	-35.6	---	---	722.3	0.027	0.000	18.1	1	1
03/22/06	12:02 a	-20.7	-20.7	-20.7	---	---	26.1	ENE	0.43	29.6	-36.0	---	---	722.3	0.027	0.000	18.1	1	1
03/22/06	12:03 a	-20.7	-20.7	-20.7	---	---	25.2	E	0.42	28.7	-35.8	---	---	722.1	0.027	0.000	18.1	1	1
03/22/06	12:04 a	-20.7	-20.7	-20.7	---	---	24.3	E	0.41	27.8	-35.6	---	---	722.4	0.027	0.000	18.1	1	1
03/22/06	12:05 a	-20.7	-20.7	-20.7	---	---	24.3	ENE	0.41	27.0	-35.6	---	---	722.2	0.027	0.000	18.1	1	1
03/22/06	12:06 a	-20.7	-20.6	-20.7	---	---	25.2	E	0.42	28.7	-35.8	---	---	722.1	0.027	0.000	18.1	1	1
03/22/06	12:07 a	-20.6	-20.6	-20.7	---	---	27.0	E	0.45	30.4	-36.1	---	---	722.4	0.027	0.000	18.1	1	1
03/22/06	12:08 a	-20.6	-20.6	-20.7	---	---	23.5	E	0.39	28.7	-35.3	---	---	722.1	0.027	0.000	18.1	1	1
03/22/06	12:09 a	-20.6	-20.6	-20.7	---	---	25.2	E	0.42	29.6	-35.7	---	---	722.3	0.027	0.000	18.1	1	1
03/22/06	12:10 a	-20.6	-20.6	-20.6	---	---	21.7	ENE	0.36	27.0	-34.9	---	---	722.3	0.027	0.000	18.0	1	1
03/22/06	12:11 a	-20.6	-20.6	-20.6	---	---	23.5	E	0.39	27.0	-35.3	---	---	722.1	0.027	0.000	18.0	1	1
03/22/06	12:12 a	-20.6	-20.6	-20.6	---	---	27.0	E	0.45	30.4	-36.1	---	---	722.1	0.027	0.000	18.0	1	1
03/22/06	12:13 a	-20.6	-20.6	-20.6	---	---	29.6	ENE	0.49	32.2	-36.7	---	---	722.1	0.027	0.000	18.0	1	1
03/22/06	12:14 a	-20.6	-20.6	-20.6	---	---	24.3	ENE	0.41	29.6	-35.6	---	---	722.5	0.027	0.000	18.0	1	1
03/22/06	12:15 a	-20.6	-20.6	-20.6	---	---	20.9	ENE	0.35	23.5	-34.6	---	---	722.3	0.027	0.000	18.0	1	1
03/22/06	12:16 a	-20.6	-20.6	-20.6	---	---	27.0	E	0.45	32.2	-36.1	---	---	722.0	0.027	0.000	18.0	1	1
03/22/06	12:17 a	-20.6	-20.6	-20.6	---	---	27.0	ENE	0.45	29.6	-36.1	---	---	722.1	0.027	0.000	18.0	1	1
03/22/06	12:18 a	-20.6	-20.6	-20.6	---	---	26.1	ENE	0.43	29.6	-35.9	---	---	721.9	0.027	0.000	18.0	1	1
03/22/06	12:19 a	-20.6	-20.6	-20.6	---	---	28.7	E	0.48	32.2	-36.4	---	---	722.1	0.027	0.000	18.0	1	1
03/22/06	12:20 a	-20.6	-20.6	-20.6	---	---	23.5	E	0.39	27.8	-35.3	---	---	722.2	0.027	0.000	18.0	1	1
03/22/06	12:21 a	-20.6	-20.6	-20.6	---	---	27.8	E	0.46	29.6	-36.2	---	---	722.0	0.027	0.000	18.0	1	1
03/22/06	12:22 a	-20.6	-20.6	-20.6	---	---	29.6	ENE	0.49	32.2	-36.6	---	---	722.2	0.027	0.000	18.0	1	1
03/22/06	12:23 a	-20.6	-20.5	-20.6	---	---	26.1	ENE	0.43	28.7	-35.9	---	---	722.3	0.027	0.000	18.0	1	1
03/22/06	12:24 a	-20.5	-20.5	-20.5	---	---	21.7	E	0.36	24.3	-34.7	---	---	722.1	0.027	0.000	18.0	1	1
03/22/06	12:25 a	-20.5	-20.5	-20.5	---	---	26.1	E	0.43	30.4	-35.8	---	---	722.0	0.027	0.000	18.0	1	1
03/22/06	12:26 a	-20.5	-20.5	-20.5	---	---	29.6	ENE	0.49	31.3	-36.5	---	---	722.1	0.027	0.000	18.0	1	1
03/22/06	12:27 a	-20.5	-20.5	-20.5	---	---	25.2	ENE	0.42	28.7	-35.6	---	---	722.2	0.027	0.000	18.0	1	1
03/22/06	12:28 a	-20.5	-20.4	-20.5	---	---	26.1	E	0.43	28.7	-35.8	---	---	722.1	0.027	0.000	18.0	1	1
03/22/06	12:29 a	-20.5	-20.4	-20.5	---	---	25.2	E	0.42	28.7	-35.6	---	---	722.2	0.027	0.000	18.0	1	1
03/22/06	12:30 a	-20.5	-20.5	-20.5	---	---	28.7	ENE	0.48	30.4	-36.3	---	---	722.1	0.027	0.000	18.0	1	1
03/22/06	12:31 a	-20.5	-20.4	-20.5	---	---	25.2	ENE	0.42	27.8	-35.6	---	---	722.4	0.027	0.000	18.0	1	1
03/22/06	12:32 a	-20.5	-20.4	-20.5	---	---	20.9	ENE	0.35	24.3	-34.5	---	---	722.3	0.027	0.000	18.0	1	1
03/22/06	12:33 a	-20.4	-20.4	-20.5	---	---	23.5	E	0.39	29.6	-35.1	---	---	722.0	0.027	0.000	18.0	1	1
03/22/06	12:34 a	-20.4	-20.4	-20.5	---	---	27.8	ENE	0.46	31.3	-36.1	---	---	722.1	0.027	0.000	18.0	1	1
03/22/06	12:35 a	-20.4	-20.4	-20.4	---	---	26.1	ENE	0.43	28.7	-35.7	---	---	722.2	0.027	0.000	18.0	1	1
03/22/06	12:36 a	-20.4	-20.4	-20.4	---	---	25.2	ENE	0.42	27.0	-35.5	---	---	722.3	0.027	0.000	18.0	1	1
03/22/06	12:37 a	-20.4	-20.4	-20.4	---	---	23.5	ENE	0.39	25.2	-35.1	---	---	722.3	0.027	0.000	18.0	1	1
03/22/06	12:38 a	-20.4	-20.4	-20.4	---	---	27.0	ENE	0.45	29.6	-35.9	---	---	722.1	0.027	0.000	18.0	1	1
03/22/06	12:39 a	-20.4	-20.4	-20.4	---	---	27.0	ENE	0.45	29.6	-35.9	---	---	722.3	0.027	0.000	18.0	1	1
03/22/06	12:40 a	-20.4	-20.4	-20.4	---	---	23.5	ENE	0.39	27.0	-35.1	---	---	722.4	0.027	0.000	18.0	1	1
03/22/06	12:41 a	-20.4	-20.4	-20.4	---	---	23.5	ENE	0.39	27.0	-35.1	---	---	722.2	0.027	0.000	18.0	1	1
03/22/06	12:42 a	-20.4	-20.4	-20.4	---	---	27.0	ENE	0.45	28.7	-35.9	---	---	722.2	0.027	0.000	18.0	1	1
03/22/06	12:43 a	-20.4	-20.4	-20.4	---	---	25.2	ENE	0.42	27.8	-35.4	---	---	722.3	0.027	0.000	18.0	1	1
03/22/06	12:44 a	-20.4	-20.4	-20.4	---	---	26.1	ENE	0.43	28.7	-35.6	---	---	722.2	0.027	0.000	18.0	1	1
03/22/06	12:45 a	-20.4	-20.4	-20.4	---	---	22.6	ENE	0.38	25.2	-34.8	---	---	722.4	0.027	0.000	18.0	1	1
03/22/06	12:46 a	-20.4	-20.4	-20.4	---	---	24.3	ENE	0.41	27.8	-35.2	---	---	722.2	0.027	0.000	18.0	1	1
03/22/06	12:47 a	-20.4	-20.4	-20.4	---	---	27.0	ENE	0.45	29.6	-35.8	---	---	722.3	0.027	0.000	18.0	1	1
03/22/06	12:48 a	-20.4	-20.4	-20.4	---	---	24.3	ENE	0.41	27.0	-35.2	---	---	722.5	0.027	0.000	18.0	1	1
03/22/06	12:49 a	-20.4	-20.4	-20.4	---	---	19.1	ENE	0.32	21.7	-33.9	---	---	722.5	0.027	0.000	18.0	1	1
03/22/06	12:50 a	-20.4	-20.4	-20.4	---	---	22.6	ENE	0.38	27.0	-34.8	---	---	722.2	0.027	0.000	18.0	1	1
03/22/06	12:51 a	-20.4	-20.3	-20.4	---	---	26.1	ENE	0.43	29.6	-35.6	---	---	722.2	0.027	0.000	18.0	1	1
03/22/06	12:52 a	-20.3	-20.3	-20.4	---	---	25.2	ENE	0.42	27.0	-35.4	---	---	722.3	0.027	0.000	18.0	1	1
03/22/06	12:53 a	-20.3	-20.3	-20.4	---	---	23.5	ENE	0.39	25.2	-34.9	---	---	722.4	0.027	0.000	18.0	1	1
03/22/06	12:54 a	-20.3	-20.3	-20.3	---	---	20.0	ENE	0.33	22.6	-34.1	---	---	722.5	0.027	0.000	18.0	1	1
03/22/06	12:55 a	-20.3	-20.3	-20.3	---	---	20.0	ENE	0.33	21.7	-34.1	---	---	722.5	0.027	0.000	18.0	1	1
03/22/06	12:56 a	-20.3	-20.3	-20.3	---	---	22.6	ENE	0.38	27.8	-34.7	---	---	722.2	0.027	0.000	18.0	1	1
03/22/06	12:57 a	-20.3	-20.3	-20.3	---	---	27.8	ENE	0.46	30.4	-35.9	---	---	722.1	0.027	0.000	18.0	1	1
03/22/06	12:58 a	-20.3	-20.3	-20.3	---	---	26.1	ENE	0.43	27.8	-35.6	---	---	722.4	0.027	0.000	18.0	1	1
03/22/06	12:59 a	-20.3	-20.3	-20.3	---	---	21.7	ENE	0.36	24.3	-34.4	---	---	722.6	0.027	0.000	18.0	1	1
03/22/06	1:00 a	-20.3	-20.3	-20.3	---	---	18.3	ENE	0.30	20.0	-33.5	---	---	722.7	0.027	0.000	18.0	1	1
03/22/06	1:01 a	-20.3	-20.3	-20.3	---	---	14.8	ENE	0.25	17.4	-32.3	---	---	722.6	0.027	0.000	18.0	1	1
03/22/06	1:02 a	-20.3	-20.3	-20.3	---	---	19.1	ENE	0.32	25.2	-33.7	---	---	722.5	0.027	0.000	18.0	1	1
03/22/06	1:03 a	-20.3	-20.3	-20.3	---	---	24.3	ENE	0.41	26.1	-35.1	---	---	722.3	0.027	0.000	18.0	1	1
03/22/06	1:04 a	-20.3	-20.2	-20.3	---	---	22.6	ENE	0.38	24.3	-34.7	---	---	722.4	0.027	0.000	18.0	1	1
03/22/06	1:05 a	-20.3	-20.2	-20.3	---	---	20.0	ENE	0.33	22.6	-34.0	---	---	722.5	0.027	0.000	18.0	1	1
03/22/06	1:06 a	-20.2	-20.2	-20.2	---	---	18.3	ENE	0.30	20.0	-33.4	---	---	722.6	0.027	0.000	18.0	1	1
03/22/06	1:07 a	-20.2	-20.2	-20.2	---	---	20.9	ENE	0.35	24.3	-34.2	---	---	722.3	0.027	0.000	18.0	1	1
03/22/06	1:08 a	-20.2	-20.2	-20.3	---	---	25.2	ENE	0.42	27.8	-35.2	---	---	722.2	0.027	0.000	18.0	1	1
03/22/06	1:09 a	-20.2	-20.2	-20.2	---	---	24.3	ENE	0.41	27.0	-35.0	---	---	722.5	0.027	0.000	18.0	1	1
03/22/06	1:10 a	-20.2	-20.2	-20.2	---	---	20.0	ENE	0.33	22.6	-33.9	---	---	722.7	0.027	0.000	18.0	1	1
03/22/06	1:11 a	-20.2	-20.2	-20.2	---	---	18.3	ENE	0.30	20.0	-33.4	---	---	722.6	0.027	0.000	18.0	1	1
03/22/06	1:12 a	-20.2	-20.2	-20.2	---	---	17.4	ENE	0.29	19.1	-33.2	---	---	722.6	0.027	0.000	18.0	1	1
03/22/06	1:13 a	-20.2	-20.2	-20.2	---	---	17.4	NE	0.29	18.3	-33.1	---	---	722.7	0.027	0.000	18.0	1	1
03/22/06	1:14 a	-20.2	-20.2	-20.2	---	---	17.4	ENE	0.29	21.7	-33.1	---	---	722.4	0.027	0.000	18.0	1	1
03/22/06	1:15 a	-20.2	-20.2	-20.2	---	---	21.7	ENE	0.36	23.5	-34.3	---	---	722.4	0.027	0.000	18.0	1	1
03/22/06	1:16 a	-20.2	-20.2	-20.2	---	---	22.6	ENE	0.38	24.3	-34.5	---	---	722.4	0.027	0.000	18.0	1	1
03/22/06	1:17 a	-20.2	-20.2	-20.2	---	---	20.0	ENE	0.33	21.7	-33.8	---	---	722.5	0.027	0.000	18.1	1	1
03/22/06	1:18 a	-20.2	-20.1	-20.2	---	---	18.3	ENE	0.30	20.9	-33.3	---	---	722.6	0.027	0.000	18.1	1	1
03/22/06	1:19 a	-20.2	-20.1	-20.2	---	---	20.0	ENE	0.33	22.6	-33.8	---	---	722.4	0.027	0.000	18.1	1	1
03/22/06	1:20 a	-20.1	-20.1	-20.1	---	---	20.9	ENE	0.35	24.3	-34.0	---	---	722.3	0.027	0.000	18.1	1	1
03/22/06	1:21 a	-20.1	-20.1	-20.1	---	---	24.3	ENE	0.41	26.1	-34.9	---	---	722.3	0.027	0.000	18.1	1	1
03/22/06	1:22 a	-20.1	-20.1	-20.1	---	---	21.7	ENE	0.36	23.5	-34.2	---	---	722.5	0.027	0.000	18.1	1	1
03/22/06	1:23 a	-20.1	-20.1	-20.1	---	---	18.3	ENE	0.30	20.9	-33.2	---	---	722.6	0.027	0.000	18.1	1	1
03/22/06	1:24 a	-20.1	-20.1	-20.1	---	---	17.4	NE	0.29	20.0	-32.9	---	---	722.7	0.027	0.000	18.1	1	1
03/22/06	1:25 a	-20.1	-20.1	-20.1	---	---	14.8	NE	0.25	16.5	-32.1	---	---	722.6	0.027	0.000	18.1	1	1
03/22/06	1:26 a	-20.1	-20.1	-20.1	---	---	19.1	ENE	0.32	24.3	-33.4	---	---	722.4	0.027	0.000	18.1	1	1
03/22/06	1:27 a	-20.1	-20.1	-20.1	---	---	23.5	ENE	0.39	25.2	-34.6	---	---	722.4	0.027	0.000	18.1	1	1
03/22/06	1:28 a	-20.1	-20.1	-20.1	---	---	20.9	ENE	0.35	21.7	-33.9	---	---	722.5	0.027	0.000	18.1	1	1
03/22/06	1:29 a	-20.1	-20.0	-20.1	---	---	18.3	ENE	0.30	21.7	-33.2	---	---	722.6	0.027	0.000	18.1	1	1
03/22/06	1:30 a	-20.0	-20.0	-20.0	---	---	18.3	ENE	0.30	20.0	-33.1	---	---	722.5	0.027	0.000	18.1	1	1
03/22/06	1:31 a	-20.0	-20.0	-20.0	---	---	19.1	ENE	0.32	20.9	-33.4	---	---	722.5	0.027	0.000	18.1	1	1
03/22/06	1:32 a	-19.9	-19.9	-20.0	---	---	20.0	ENE	0.33	21.7	-33.6	---	---	722.4	0.027	0.000	18.1	1	1
03/22/06	1:33 a	-20.0	-19.9	-20.0	---	---	22.6	ENE	0.38	24.3	-34.3	---	---	722.4	0.027	0.000	18.1	1	1
03/22/06	1:34 a	-20.0	-19.9	-20.0	---	---	20.9	ENE	0.35	22.6	-33.8	---	---	722.5	0.027	0.000	18.1	1	1
03/22/06	1:35 a	-19.9	-19.9	-19.9	---	---	17.4	ENE	0.29	20.9	-32.8	---	---	722.5	0.027	0.000	18.1	1	1
03/22/06	1:36 a	-19.9	-19.9	-19.9	---	---	16.5	ENE	0.28	18.3	-32.5	---	---	722.6	0.027	0.000	18.1	1	1
03/22/06	1:37 a	-19.9	-19.9	-19.9	---	---	18.3	ENE	0.30	20.9	-33.1	---	---	722.5	0.027	0.000	18.1	1	1
03/22/06	1:38 a	-19.9	-19.9	-19.9	---	---	20.0	ENE	0.33	21.7	-33.4	---	---	722.5	0.027	0.000	18.1	1	1
03/22/06	1:39 a	-19.9	-19.9	-19.9	---	---	20.0	ENE	0.33	22.6	-33.4	---	---	722.4	0.027	0.000	18.1	1	1
03/22/06	1:40 a	-19.9	-19.9	-19.9	---	---	19.1	ENE	0.32	20.0	-33.2	---	---	722.5	0.027	0.000	18.1	1	1
03/22/06	1:41 a	-19.9	-19.9	-19.9	---	---	18.3	ENE	0.30	20.9	-33.0	---	---	722.4	0.027	0.000	18.1	1	1
03/22/06	1:42 a	-19.9	-19.8	-19.9	---	---	20.0	ENE	0.33	22.6	-33.4	---	---	722.4	0.027	0.000	18.1	1	1
03/22/06	1:43 a	-19.8	-19.8	-19.8	---	---	21.7	ENE	0.36	23.5	-33.8	---	---	722.4	0.027	0.000	18.1	1	1
03/22/06	1:44 a	-19.8	-19.8	-19.8	---	---	20.0	ENE	0.33	21.7	-33.4	---	---	722.4	0.027	0.000	18.1	1	1
03/22/06	1:45 a	-19.8	-19.8	-19.8	---	---	20.0	ENE	0.33	21.7	-33.4	---	---	722.4	0.027	0.000	18.1	1	1
03/22/06	1:46 a	-19.8	-19.8	-19.8	---	---	18.3	ENE	0.30	20.9	-32.9	---	---	722.5	0.027	0.000	18.1	1	1
03/22/06	1:47 a	-19.8	-19.8	-19.8	---	---	17.4	ENE	0.29	20.0	-32.6	---	---	722.4	0.027	0.000	18.1	1	1
03/22/06	1:48 a	-19.8	-19.8	-19.8	---	---	20.9	ENE	0.35	21.7	-33.6	---	---	722.5	0.026	0.000	18.1	1	1
03/22/06	1:49 a	-19.8	-19.8	-19.8	---	---	20.0	ENE	0.33	22.6	-33.3	---	---	722.4	0.026	0.000	18.1	1	1
03/22/06	1:50 a	-19.8	-19.8	-19.8	---	---	21.7	ENE	0.36	24.3	-33.8	---	---	722.3	0.026	0.000	18.1	1	1
03/22/06	1:51 a	-19.8	-19.8	-19.8	---	---	22.6	ENE	0.38	24.3	-34.0	---	---	722.4	0.026	0.000	18.1	1	1
03/22/06	1:52 a	-19.8	-19.8	-19.8	---	---	20.9	ENE	0.35	23.5	-33.6	---	---	722.4	0.026	0.000	18.1	1	1
03/22/06	1:53 a	-19.8	-19.8	-19.8	---	---	19.1	ENE	0.32	20.9	-33.1	---	---	722.5	0.026	0.000	18.1	1	1
03/22/06	1:54 a	-19.8	-19.7	-19.8	---	---	17.4	ENE	0.29	20.0	-32.6	---	---	722.4	0.026	0.000	18.0	1	1
03/22/06	1:55 a	-19.7	-19.7	-19.7	---	---	19.1	ENE	0.32	21.7	-33.0	---	---	722.3	0.026	0.000	18.0	1	1
03/22/06	1:56 a	-19.7	-19.7	-19.7	---	---	20.9	ENE	0.35	22.6	-33.5	---	---	722.2	0.026	0.000	18.0	1	1
03/22/06	1:57 a	-19.7	-19.7	-19.7	---	---	20.0	ENE	0.33	21.7	-33.2	---	---	722.3	0.026	0.000	18.0	1	1
03/22/06	1:58 a	-19.7	-19.7	-19.7	---	---	19.1	E	0.32	21.7	-33.0	---	---	722.4	0.026	0.000	18.0	1	1
03/22/06	1:59 a	-19.7	-19.7	-19.7	---	---	20.9	ENE	0.35	22.6	-33.5	---	---	722.2	0.026	0.000	18.0	1	1
03/22/06	2:00 a	-19.7	-19.7	-19.7	---	---	20.9	ENE	0.35	22.6	-33.4	---	---	722.2	0.026	0.000	18.0	1	1
03/22/06	2:01 a	-19.7	-19.7	-19.7	---	---	18.3	ENE	0.30	20.0	-32.7	---	---	722.3	0.026	0.000	18.0	1	1
03/22/06	2:02 a	-19.7	-19.6	-19.7	---	---	16.5	ENE	0.28	18.3	-32.2	---	---	722.3	0.026	0.000	18.0	1	1
03/22/06	2:03 a	-19.7	-19.6	-19.7	---	---	16.5	E	0.28	20.0	-32.2	---	---	722.2	0.026	0.000	18.0	1	1
03/22/06	2:04 a	-19.7	-19.6	-19.7	---	---	22.6	ENE	0.38	24.3	-33.8	---	---	722.1	0.026	0.000	18.0	1	1
03/22/06	2:05 a	-19.6	-19.6	-19.6	---	---	21.7	ENE	0.36	24.3	-33.6	---	---	722.3	0.026	0.000	18.0	1	1
03/22/06	2:06 a	-19.6	-19.6	-19.6	---	---	17.4	ENE	0.29	20.0	-32.3	---	---	722.4	0.026	0.000	17.9	1	1
03/22/06	2:07 a	-19.6	-19.6	-19.6	---	---	16.5	ENE	0.28	19.1	-32.1	---	---	722.2	0.026	0.000	18.0	1	1
03/22/06	2:08 a	-19.6	-19.6	-19.6	---	---	20.9	ENE	0.35	23.5	-33.3	---	---	722.1	0.026	0.000	18.0	1	1
03/22/06	2:09 a	-19.6	-19.6	-19.6	---	---	20.9	ENE	0.35	21.7	-33.3	---	---	722.1	0.026	0.000	18.0	1	1
03/22/06	2:10 a	-19.6	-19.6	-19.6	---	---	16.5	ENE	0.28	20.0	-32.0	---	---	722.2	0.026	0.000	18.0	1	1
03/22/06	2:11 a	-19.6	-19.6	-19.6	---	---	18.3	ENE	0.30	21.7	-32.6	---	---	722.1	0.026	0.000	18.0	1	1
03/22/06	2:12 a	-19.6	-19.6	-19.6	---	---	22.6	E	0.38	24.3	-33.7	---	---	722.0	0.026	0.000	18.0	1	1
03/22/06	2:13 a	-19.6	-19.6	-19.6	---	---	20.0	ENE	0.33	23.5	-33.0	---	---	722.2	0.026	0.000	18.0	1	1
03/22/06	2:14 a	-19.6	-19.6	-19.6	---	---	15.7	ENE	0.26	17.4	-31.7	---	---	722.4	0.026	0.000	18.0	1	1
03/22/06	2:15 a	-19.6	-19.5	-19.6	---	---	13.9	ENE	0.23	16.5	-31.1	---	---	722.3	0.026	0.000	18.0	1	1
03/22/06	2:16 a	-19.5	-19.5	-19.6	---	---	19.1	ENE	0.32	22.6	-32.7	---	---	722.2	0.026	0.000	18.0	1	1
03/22/06	2:17 a	-19.6	-19.5	-19.6	---	---	20.9	ENE	0.35	23.5	-33.3	---	---	722.2	0.026	0.000	18.0	1	1
03/22/06	2:18 a	-19.5	-19.5	-19.5	---	---	18.3	ENE	0.30	19.1	-32.4	---	---	722.3	0.026	0.000	18.0	1	1
03/22/06	2:19 a	-19.5	-19.5	-19.5	---	---	16.5	ENE	0.28	19.1	-31.9	---	---	722.1	0.026	0.000	18.0	1	1
03/22/06	2:20 a	-19.5	-19.5	-19.5	---	---	18.3	ENE	0.30	21.7	-32.4	---	---	722.0	0.026	0.000	18.0	1	1
03/22/06	2:21 a	-19.5	-19.5	-19.5	---	---	20.9	E	0.35	22.6	-33.2	---	---	722.0	0.026	0.000	18.0	1	1
03/22/06	2:22 a	-19.5	-19.5	-19.5	---	---	20.9	ENE	0.35	23.5	-33.2	---	---	722.1	0.026	0.000	18.0	1	1
03/22/06	2:23 a	-19.5	-19.4	-19.5	---	---	20.0	ENE	0.33	21.7	-32.9	---	---	722.1	0.026	0.000	18.0	1	1
03/22/06	2:24 a	-19.4	-19.4	-19.4	---	---	16.5	ENE	0.28	18.3	-31.8	---	---	722.1	0.026	0.000	18.0	1	1
03/22/06	2:25 a	-19.4	-19.4	-19.4	---	---	19.1	ENE	0.32	22.6	-32.6	---	---	721.9	0.026	0.000	18.0	1	1
03/22/06	2:26 a	-19.4	-19.4	-19.4	---	---	22.6	ENE	0.38	23.5	-33.6	---	---	722.0	0.026	0.000	18.0	1	1
03/22/06	2:27 a	-19.4	-19.4	-19.4	---	---	22.6	ENE	0.38	25.2	-33.6	---	---	722.0	0.026	0.000	18.0	1	1
03/22/06	2:28 a	-19.4	-19.4	-19.4	---	---	18.3	ENE	0.30	20.9	-32.4	---	---	722.1	0.026	0.000	18.0	1	1
03/22/06	2:29 a	-19.4	-19.4	-19.4	---	---	18.3	ENE	0.30	20.0	-32.4	---	---	722.2	0.026	0.000	18.0	1	1
03/22/06	2:30 a	-19.4	-19.4	-19.4	---	---	18.3	ENE	0.30	19.1	-32.3	---	---	722.2	0.026	0.000	18.0	1	1
03/22/06	2:31 a	-19.4	-19.4	-19.4	---	---	16.5	ENE	0.28	19.1	-31.8	---	---	722.2	0.026	0.000	18.0	1	1
03/22/06	2:32 a	-19.4	-19.4	-19.4	---	---	15.7	ENE	0.26	18.3	-31.5	---	---	722.2	0.026	0.000	18.0	1	1
03/22/06	2:33 a	-19.3	-19.3	-19.4	---	---	14.8	ENE	0.25	16.5	-31.1	---	---	722.2	0.026	0.000	18.0	1	1
03/22/06	2:34 a	-19.3	-19.3	-19.3	---	---	16.5	ENE	0.28	18.3	-31.7	---	---	722.2	0.026	0.000	18.1	1	1
03/22/06	2:35 a	-19.3	-19.3	-19.3	---	---	15.7	ENE	0.26	18.3	-31.4	---	---	722.1	0.026	0.000	18.1	1	1
03/22/06	2:36 a	-19.3	-19.3	-19.3	---	---	19.1	ENE	0.32	21.7	-32.5	---	---	722.1	0.026	0.000	18.1	1	1
03/22/06	2:37 a	-19.3	-19.3	-19.3	---	---	20.0	NE	0.33	21.7	-32.7	---	---	722.1	0.026	0.000	18.1	1	1
03/22/06	2:38 a	-19.3	-19.3	-19.3	---	---	16.5	NE	0.28	18.3	-31.7	---	---	722.1	0.026	0.000	18.1	1	1
03/22/06	2:39 a	-19.3	-19.3	-19.3	---	---	20.9	ENE	0.35	24.3	-32.9	---	---	721.9	0.026	0.000	18.1	1	1
03/22/06	2:40 a	-19.3	-19.3	-19.3	---	---	23.5	ENE	0.39	24.3	-33.6	---	---	722.0	0.026	0.000	18.1	1	1
03/22/06	2:41 a	-19.3	-19.2	-19.3	---	---	21.7	NE	0.36	23.5	-33.1	---	---	722.1	0.026	0.000	18.1	1	1
03/22/06	2:42 a	-19.2	-19.2	-19.2	---	---	17.4	NE	0.29	19.1	-31.8	---	---	722.2	0.026	0.000	18.1	1	1
03/22/06	2:43 a	-19.2	-19.2	-19.2	---	---	16.5	ENE	0.28	18.3	-31.6	---	---	722.2	0.026	0.000	18.1	1	1
03/22/06	2:44 a	-19.2	-19.2	-19.2	---	---	20.0	ENE	0.33	22.6	-32.5	---	---	722.0	0.026	0.000	18.1	1	1
03/22/06	2:45 a	-19.2	-19.2	-19.2	---	---	22.6	ENE	0.38	23.5	-33.3	---	---	722.1	0.026	0.000	18.1	1	1
03/22/06	2:46 a	-19.2	-19.2	-19.2	---	---	20.9	ENE	0.35	22.6	-32.7	---	---	722.1	0.026	0.000	18.1	1	1
03/22/06	2:47 a	-19.2	-19.1	-19.2	---	---	19.1	ENE	0.32	20.0	-32.3	---	---	722.1	0.026	0.000	18.1	1	1
03/22/06	2:48 a	-19.1	-19.1	-19.1	---	---	17.4	ENE	0.29	19.1	-31.7	---	---	722.2	0.026	0.000	18.1	1	1
03/22/06	2:49 a	-19.1	-19.1	-19.1	---	---	19.1	ENE	0.32	20.9	-32.2	---	---	722.0	0.026	0.000	18.1	1	1
03/22/06	2:50 a	-19.1	-19.1	-19.1	---	---	21.7	ENE	0.36	23.5	-32.9	---	---	721.9	0.026	0.000	18.1	1	1
03/22/06	2:51 a	-19.1	-19.1	-19.1	---	---	20.0	ENE	0.33	22.6	-32.4	---	---	722.1	0.026	0.000	18.1	1	1
03/22/06	2:52 a	-19.1	-19.1	-19.1	---	---	18.3	ENE	0.30	20.0	-31.9	---	---	722.1	0.026	0.000	18.1	1	1
03/22/06	2:53 a	-19.1	-19.1	-19.1	---	---	20.0	ENE	0.33	21.7	-32.4	---	---	722.0	0.026	0.000	18.1	1	1
03/22/06	2:54 a	-19.1	-19.1	-19.1	---	---	22.6	ENE	0.38	24.3	-33.1	---	---	721.9	0.026	0.000	18.1	1	1
03/22/06	2:55 a	-19.1	-19.1	-19.1	---	---	21.7	ENE	0.36	23.5	-32.8	---	---	722.0	0.026	0.000	18.1	1	1
03/22/06	2:56 a	-19.1	-19.1	-19.1	---	---	19.1	ENE	0.32	20.9	-32.1	---	---	722.1	0.026	0.000	18.1	1	1
03/22/06	2:57 a	-19.0	-19.0	-19.1	---	---	20.9	ENE	0.35	22.6	-32.5	---	---	722.0	0.026	0.000	18.1	1	1
03/22/06	2:58 a	-19.0	-19.0	-19.0	---	---	20.0	ENE	0.33	22.6	-32.3	---	---	722.0	0.026	0.000	18.1	1	1
03/22/06	2:59 a	-19.0	-19.0	-19.0	---	---	19.1	ENE	0.32	20.9	-32.1	---	---	722.0	0.026	0.000	18.1	1	1
03/22/06	3:00 a	-19.0	-19.0	-19.0	---	---	20.0	ENE	0.33	21.7	-32.3	---	---	721.9	0.026	0.000	18.1	1	1
03/22/06	3:01 a	-18.9	-18.9	-19.0	---	---	21.7	ENE	0.36	23.5	-32.7	---	---	721.9	0.026	0.000	18.1	1	1
03/22/06	3:02 a	-18.9	-18.9	-18.9	---	---	20.9	ENE	0.35	22.6	-32.4	---	---	722.1	0.026	0.000	18.1	1	1
03/22/06	3:03 a	-18.9	-18.9	-18.9	---	---	18.3	ENE	0.30	20.0	-31.7	---	---	722.0	0.026	0.000	18.1	1	1
03/22/06	3:04 a	-18.9	-18.9	-18.9	---	---	17.4	ENE	0.29	19.1	-31.4	---	---	722.0	0.026	0.000	18.1	1	1
03/22/06	3:05 a	-18.9	-18.9	-18.9	---	---	20.0	ENE	0.33	23.5	-32.2	---	---	721.9	0.026	0.000	18.1	1	1
03/22/06	3:06 a	-18.9	-18.9	-18.9	---	---	21.7	ENE	0.36	23.5	-32.6	---	---	721.9	0.026	0.000	18.1	1	1
03/22/06	3:07 a	-18.9	-18.8	-18.9	---	---	20.9	ENE	0.35	22.6	-32.4	---	---	722.0	0.026	0.000	18.1	1	1
03/22/06	3:08 a	-18.8	-18.8	-18.8	---	---	20.0	ENE	0.33	21.7	-32.1	---	---	721.9	0.026	0.000	18.1	1	1
03/22/06	3:09 a	-18.8	-18.8	-18.8	---	---	20.0	ENE	0.33	21.7	-32.1	---	---	722.1	0.026	0.000	18.1	1	1
03/22/06	3:10 a	-18.8	-18.8	-18.8	---	---	17.4	ENE	0.29	20.0	-31.3	---	---	722.1	0.026	0.000	18.1	1	1
03/22/06	3:11 a	-18.8	-18.8	-18.8	---	---	16.5	ENE	0.28	18.3	-31.0	---	---	722.0	0.026	0.000	18.1	1	1
03/22/06	3:12 a	-18.8	-18.8	-18.8	---	---	18.3	ENE	0.30	20.0	-31.5	---	---	722.0	0.026	0.000	18.1	1	1
03/22/06	3:13 a	-18.8	-18.8	-18.8	---	---	20.0	ENE	0.33	21.7	-32.0	---	---	721.9	0.026	0.000	18.1	1	1
03/22/06	3:14 a	-18.8	-18.7	-18.8	---	---	21.7	ENE	0.36	23.5	-32.4	---	---	721.8	0.026	0.000	18.1	1	1
03/22/06	3:15 a	-18.7	-18.7	-18.7	---	---	22.6	ENE	0.38	25.2	-32.6	---	---	722.0	0.026	0.000	18.1	1	1
03/22/06	3:16 a	-18.7	-18.7	-18.7	---	---	18.3	ENE	0.30	20.9	-31.4	---	---	722.0	0.026	0.000	18.1	1	1
03/22/06	3:17 a	-18.7	-18.7	-18.7	---	---	19.1	ENE	0.32	20.0	-31.7	---	---	722.0	0.026	0.000	18.1	1	1
03/22/06	3:18 a	-18.7	-18.7	-18.7	---	---	20.0	ENE	0.33	21.7	-31.8	---	---	722.0	0.026	0.000	18.1	1	1
03/22/06	3:19 a	-18.7	-18.6	-18.7	---	---	19.1	ENE	0.32	21.7	-31.6	---	---	722.0	0.026	0.000	18.1	1	1
03/22/06	3:20 a	-18.6	-18.6	-18.6	---	---	17.4	ENE	0.29	18.3	-31.1	---	---	722.1	0.026	0.000	18.1	1	1
03/22/06	3:21 a	-18.6	-18.6	-18.6	---	---	17.4	ENE	0.29	18.3	-31.1	---	---	722.1	0.026	0.000	18.1	1	1
03/22/06	3:22 a	-18.6	-18.6	-18.6	---	---	17.4	ENE	0.29	19.1	-31.1	---	---	722.0	0.026	0.000	18.1	1	1
03/22/06	3:23 a	-18.6	-18.6	-18.6	---	---	19.1	ENE	0.32	21.7	-31.6	---	---	721.9	0.026	0.000	18.1	1	1
03/22/06	3:24 a	-18.6	-18.6	-18.6	---	---	20.0	E	0.33	21.7	-31.8	---	---	721.8	0.026	0.000	18.1	1	1
03/22/06	3:25 a	-18.6	-18.6	-18.6	---	---	18.3	E	0.30	20.9	-31.2	---	---	721.8	0.026	0.000	18.1	1	1
03/22/06	3:26 a	-18.6	-18.6	-18.6	---	---	20.9	ENE	0.35	21.7	-31.9	---	---	721.9	0.026	0.000	18.1	1	1
03/22/06	3:27 a	-18.6	-18.6	-18.6	---	---	19.1	ENE	0.32	21.7	-31.4	---	---	721.9	0.026	0.000	18.1	1	1
03/22/06	3:28 a	-18.5	-18.5	-18.6	---	---	20.0	ENE	0.33	21.7	-31.6	---	---	721.9	0.026	0.000	18.1	1	1
03/22/06	3:29 a	-18.5	-18.5	-18.6	---	---	20.0	ENE	0.33	20.9	-31.6	---	---	721.9	0.026	0.000	18.1	1	1
03/22/06	3:30 a	-18.5	-18.5	-18.5	---	---	18.3	ENE	0.30	20.0	-31.2	---	---	722.0	0.026	0.000	18.1	1	1
03/22/06	3:31 a	-18.5	-18.5	-18.5	---	---	15.7	ENE	0.26	17.4	-30.3	---	---	722.0	0.026	0.000	18.1	1	1
03/22/06	3:32 a	-18.5	-18.4	-18.5	---	---	15.7	ENE	0.26	18.3	-30.3	---	---	722.0	0.026	0.000	18.1	1	1
03/22/06	3:33 a	-18.4	-18.4	-18.5	---	---	17.4	ENE	0.29	20.9	-30.8	---	---	721.9	0.026	0.000	18.1	1	1
03/22/06	3:34 a	-18.4	-18.4	-18.4	---	---	20.9	ENE	0.35	22.6	-31.8	---	---	721.8	0.026	0.000	18.1	1	1
03/22/06	3:35 a	-18.4	-18.4	-18.4	---	---	20.9	ENE	0.35	21.7	-31.8	---	---	721.8	0.026	0.000	18.1	1	1
03/22/06	3:36 a	-18.4	-18.4	-18.4	---	---	20.0	ENE	0.33	21.7	-31.6	---	---	721.8	0.026	0.000	18.1	1	1
03/22/06	3:37 a	-18.4	-18.4	-18.4	---	---	18.3	ENE	0.30	20.9	-31.0	---	---	721.9	0.026	0.000	18.1	1	1
03/22/06	3:38 a	-18.4	-18.4	-18.4	---	---	14.8	E	0.25	17.4	-30.0	---	---	722.0	0.026	0.000	18.1	1	1
03/22/06	3:39 a	-18.4	-18.4	-18.4	---	---	16.5	E	0.28	20.0	-30.5	---	---	721.9	0.026	0.000	18.1	1	1
03/22/06	3:40 a	-18.4	-18.4	-18.4	---	---	17.4	ENE	0.29	19.1	-30.7	---	---	721.9	0.026	0.000	18.1	1	1
03/22/06	3:41 a	-18.4	-18.4	-18.4	---	---	18.3	ENE	0.30	20.9	-31.0	---	---	721.9	0.026	0.000	18.1	1	1
03/22/06	3:42 a	-18.4	-18.4	-18.4	---	---	18.3	ENE	0.30	20.0	-31.0	---	---	721.9	0.026	0.000	18.1	1	1
03/22/06	3:43 a	-18.3	-18.3	-18.3	---	---	18.3	ENE	0.30	20.0	-30.9	---	---	721.8	0.025	0.000	18.1	1	1
03/22/06	3:44 a	-18.4	-18.3	-18.4	---	---	19.1	ENE	0.32	20.0	-31.2	---	---	721.9	0.026	0.000	18.1	1	1
03/22/06	3:45 a	-18.4	-18.4	-18.4	---	---	19.1	ENE	0.32	20.0	-31.2	---	---	721.9	0.026	0.000	18.1	1	1
03/22/06	3:46 a	-18.3	-18.3	-18.3	---	---	20.0	ENE	0.33	21.7	-31.4	---	---	721.8	0.025	0.000	18.1	1	1
03/22/06	3:47 a	-18.3	-18.3	-18.3	---	---	20.0	ENE	0.33	20.9	-31.4	---	---	721.9	0.025	0.000	18.1	1	1
03/22/06	3:48 a	-18.3	-18.3	-18.3	---	---	19.1	ENE	0.32	20.9	-31.2	---	---	721.8	0.025	0.000	18.1	1	1
03/22/06	3:49 a	-18.3	-18.3	-18.3	---	---	19.1	ENE	0.32	20.9	-31.2	---	---	722.0	0.025	0.000	18.1	1	1
03/22/06	3:50 a	-18.3	-18.3	-18.3	---	---	19.1	ENE	0.32	20.0	-31.2	---	---	721.9	0.025	0.000	18.1	1	1
03/22/06	3:51 a	-18.3	-18.3	-18.3	---	---	17.4	ENE	0.29	19.1	-30.6	---	---	722.0	0.025	0.000	18.1	1	1
03/22/06	3:52 a	-18.3	-18.3	-18.3	---	---	16.5	ENE	0.28	19.1	-30.3	---	---	721.9	0.025	0.000	18.1	1	1
03/22/06	3:53 a	-18.3	-18.3	-18.3	---	---	20.9	ENE	0.35	22.6	-31.6	---	---	721.8	0.025	0.000	18.1	1	1
03/22/06	3:54 a	-18.3	-18.3	-18.3	---	---	19.1	ENE	0.32	21.7	-31.2	---	---	722.0	0.025	0.000	18.1	1	1
03/22/06	3:55 a	-18.3	-18.3	-18.3	---	---	16.5	ENE	0.28	17.4	-30.4	---	---	722.0	0.025	0.000	18.1	1	1
03/22/06	3:56 a	-18.3	-18.3	-18.3	---	---	17.4	ENE	0.29	18.3	-30.7	---	---	722.0	0.025	0.000	18.1	1	1
03/22/06	3:57 a	-18.3	-18.3	-18.3	---	---	16.5	ENE	0.28	18.3	-30.3	---	---	721.9	0.025	0.000	18.1	1	1
03/22/06	3:58 a	-18.3	-18.3	-18.3	---	---	15.7	ENE	0.26	16.5	-30.1	---	---	722.0	0.025	0.000	18.1	1	1
03/22/06	3:59 a	-18.3	-18.3	-18.3	---	---	15.7	ENE	0.26	17.4	-30.1	---	---	721.8	0.025	0.000	18.2	1	1
03/22/06	4:00 a	-18.3	-18.3	-18.3	---	---	18.3	ENE	0.30	20.0	-30.8	---	---	721.8	0.025	0.000	18.2	1	1
03/22/06	4:01 a	-18.3	-18.3	-18.3	---	---	19.1	ENE	0.32	20.9	-31.1	---	---	721.8	0.025	0.000	18.2	1	1
03/22/06	4:02 a	-18.3	-18.3	-18.3	---	---	20.0	ENE	0.33	21.7	-31.3	---	---	721.8	0.025	0.000	18.2	1	1
03/22/06	4:03 a	-18.3	-18.3	-18.3	---	---	18.3	ENE	0.30	20.0	-30.8	---	---	721.9	0.025	0.000	18.2	1	1
03/22/06	4:04 a	-18.3	-18.3	-18.3	---	---	17.4	ENE	0.29	18.3	-30.6	---	---	722.0	0.025	0.000	18.2	1	1
03/22/06	4:05 a	-18.3	-18.3	-18.3	---	---	14.8	ENE	0.25	16.5	-29.8	---	---	722.0	0.025	0.000	18.2	1	1
03/22/06	4:06 a	-18.3	-18.3	-18.3	---	---	13.9	ENE	0.23	15.7	-29.4	---	---	721.8	0.025	0.000	18.2	1	1
03/22/06	4:07 a	-18.3	-18.3	-18.3	---	---	17.4	ENE	0.29	19.1	-30.6	---	---	721.8	0.025	0.000	18.2	1	1
03/22/06	4:08 a	-18.3	-18.3	-18.3	---	---	18.3	ENE	0.30	20.0	-30.8	---	---	721.9	0.025	0.000	18.2	1	1
03/22/06	4:09 a	-18.3	-18.3	-18.3	---	---	15.7	ENE	0.26	16.5	-30.1	---	---	721.9	0.025	0.000	18.2	1	1
03/22/06	4:10 a	-18.3	-18.3	-18.3	---	---	16.5	ENE	0.28	17.4	-30.3	---	---	721.9	0.025	0.000	18.2	1	1
03/22/06	4:11 a	-18.3	-18.3	-18.3	---	---	14.8	ENE	0.25	17.4	-29.8	---	---	721.9	0.025	0.000	18.2	1	1
03/22/06	4:12 a	-18.3	-18.3	-18.3	---	---	15.7	ENE	0.26	18.3	-30.1	---	---	721.8	0.025	0.000	18.2	1	1
03/22/06	4:13 a	-18.3	-18.3	-18.3	---	---	18.3	ENE	0.30	19.1	-30.8	---	---	721.8	0.025	0.000	18.2	1	1
03/22/06	4:14 a	-18.3	-18.3	-18.3	---	---	17.4	ENE	0.29	19.1	-30.6	---	---	721.7	0.025	0.000	18.2	1	1
03/22/06	4:15 a	-18.3	-18.2	-18.3	---	---	16.5	ENE	0.28	18.3	-30.3	---	---	721.8	0.025	0.000	18.2	1	1
03/22/06	4:16 a	-18.2	-18.2	-18.2	---	---	16.5	E	0.28	18.3	-30.3	---	---	721.8	0.025	0.000	18.2	1	1
03/22/06	4:17 a	-18.3	-18.2	-18.3	---	---	17.4	E	0.29	20.0	-30.6	---	---	721.9	0.025	0.000	18.2	1	1
03/22/06	4:18 a	-18.3	-18.3	-18.3	---	---	15.7	E	0.26	17.4	-30.1	---	---	721.8	0.025	0.000	18.2	1	1
03/22/06	4:19 a	-18.3	-18.2	-18.3	---	---	13.0	E	0.22	15.7	-29.2	---	---	721.9	0.025	0.000	18.2	1	1
03/22/06	4:20 a	-18.2	-18.2	-18.3	---	---	13.9	ENE	0.23	15.7	-29.4	---	---	721.8	0.025	0.000	18.2	1	1
03/22/06	4:21 a	-18.3	-18.2	-18.3	---	---	15.7	E	0.26	17.4	-30.1	---	---	721.9	0.025	0.000	18.2	1	1
03/22/06	4:22 a	-18.3	-18.2	-18.3	---	---	17.4	ENE	0.29	18.3	-30.6	---	---	721.7	0.025	0.000	18.2	1	1
03/22/06	4:23 a	-18.2	-18.2	-18.3	---	---	16.5	E	0.28	18.3	-30.3	---	---	721.7	0.025	0.000	18.2	1	1
03/22/06	4:24 a	-18.3	-18.2	-18.3	---	---	15.7	ENE	0.26	17.4	-30.1	---	---	721.9	0.025	0.000	18.2	1	1
03/22/06	4:25 a	-18.2	-18.2	-18.3	---	---	15.7	ENE	0.26	18.3	-30.0	---	---	721.8	0.025	0.000	18.2	1	1
03/22/06	4:26 a	-18.2	-18.2	-18.3	---	---	16.5	ENE	0.28	18.3	-30.3	---	---	721.8	0.025	0.000	18.2	1	1
03/22/06	4:27 a	-18.2	-18.2	-18.3	---	---	17.4	ENE	0.29	19.1	-30.5	---	---	721.8	0.025	0.000	18.2	1	1
03/22/06	4:28 a	-18.3	-18.2	-18.3	---	---	16.5	ENE	0.28	18.3	-30.3	---	---	721.8	0.025	0.000	18.2	1	1
03/22/06	4:29 a	-18.2	-18.2	-18.3	---	---	17.4	ENE	0.29	19.1	-30.5	---	---	721.8	0.025	0.000	18.2	1	1
03/22/06	4:30 a	-18.3	-18.3	-18.3	---	---	17.4	ENE	0.29	19.1	-30.6	---	---	721.7	0.025	0.000	18.2	1	1
03/22/06	4:31 a	-18.3	-18.2	-18.3	---	---	17.4	ENE	0.29	19.1	-30.6	---	---	721.8	0.025	0.000	18.2	1	1
03/22/06	4:32 a	-18.3	-18.2	-18.3	---	---	18.3	ENE	0.30	19.1	-30.8	---	---	721.8	0.025	0.000	18.2	1	1
03/22/06	4:33 a	-18.3	-18.3	-18.3	---	---	17.4	ENE	0.29	20.0	-30.6	---	---	721.8	0.025	0.000	18.2	1	1
03/22/06	4:34 a	-18.3	-18.3	-18.3	---	---	18.3	ENE	0.30	19.1	-30.8	---	---	721.7	0.025	0.000	18.2	1	1
03/22/06	4:35 a	-18.3	-18.3	-18.3	---	---	20.0	ENE	0.33	21.7	-31.3	---	---	721.7	0.025	0.000	18.2	1	1
03/22/06	4:36 a	-18.3	-18.3	-18.3	---	---	17.4	ENE	0.29	20.0	-30.6	---	---	721.8	0.025	0.000	18.2	1	1
03/22/06	4:37 a	-18.3	-18.3	-18.3	---	---	17.4	ENE	0.29	18.3	-30.6	---	---	721.8	0.025	0.000	18.2	1	1
03/22/06	4:38 a	-18.3	-18.3	-18.3	---	---	15.7	ENE	0.26	18.3	-30.1	---	---	721.9	0.025	0.000	18.2	1	1
03/22/06	4:39 a	-18.3	-18.3	-18.3	---	---	12.2	ENE	0.20	13.0	-28.8	---	---	721.8	0.025	0.000	18.2	1	1
03/22/06	4:40 a	-18.3	-18.3	-18.3	---	---	17.4	ENE	0.29	20.0	-30.6	---	---	721.6	0.025	0.000	18.2	1	1
03/22/06	4:41 a	-18.3	-18.3	-18.3	---	---	18.3	E	0.30	20.0	-30.8	---	---	721.7	0.025	0.000	18.2	1	1
03/22/06	4:42 a	-18.3	-18.3	-18.3	---	---	15.7	E	0.26	18.3	-30.1	---	---	721.8	0.025	0.000	18.2	1	1
03/22/06	4:43 a	-18.3	-18.3	-18.3	---	---	13.9	ENE	0.23	15.7	-29.4	---	---	721.8	0.025	0.000	18.2	1	1
03/22/06	4:44 a	-18.3	-18.3	-18.3	---	---	15.7	ENE	0.26	17.4	-30.1	---	---	721.7	0.025	0.000	18.2	1	1
03/22/06	4:45 a	-18.3	-18.3	-18.3	---	---	15.7	ENE	0.26	17.4	-30.1	---	---	721.7	0.025	0.000	18.2	1	1
03/22/06	4:46 a	-18.3	-18.3	-18.3	---	---	17.4	ENE	0.29	19.1	-30.7	---	---	721.7	0.025	0.000	18.2	1	1
03/22/06	4:47 a	-18.3	-18.3	-18.3	---	---	14.8	ENE	0.25	17.4	-29.8	---	---	721.7	0.025	0.000	18.2	1	1
03/22/06	4:48 a	-18.3	-18.3	-18.3	---	---	14.8	ENE	0.25	16.5	-29.8	---	---	721.8	0.025	0.000	18.2	1	1
03/22/06	4:49 a	-18.3	-18.3	-18.3	---	---	13.9	E	0.23	15.7	-29.6	---	---	721.7	0.025	0.000	18.2	1	1
03/22/06	4:50 a	-18.3	-18.3	-18.3	---	---	20.0	ENE	0.33	21.7	-31.4	---	---	721.7	0.025	0.000	18.2	1	1
03/22/06	4:51 a	-18.3	-18.3	-18.3	---	---	19.1	ENE	0.32	20.9	-31.2	---	---	721.7	0.025	0.000	18.2	1	1
03/22/06	4:52 a	-18.3	-18.3	-18.4	---	---	16.5	ENE	0.28	17.4	-30.4	---	---	721.8	0.025	0.000	18.2	1	1
03/22/06	4:53 a	-18.3	-18.3	-18.4	---	---	14.8	ENE	0.25	15.7	-29.8	---	---	721.8	0.025	0.000	18.2	1	1
03/22/06	4:54 a	-18.4	-18.4	-18.4	---	---	13.9	ENE	0.23	16.5	-29.6	---	---	721.7	0.026	0.000	18.2	1	1
03/22/06	4:55 a	-18.4	-18.4	-18.4	---	---	17.4	ENE	0.29	21.7	-30.7	---	---	721.7	0.026	0.000	18.2	1	1
03/22/06	4:56 a	-18.4	-18.4	-18.4	---	---	19.1	ENE	0.32	20.9	-31.2	---	---	721.8	0.026	0.000	18.2	1	1
03/22/06	4:57 a	-18.4	-18.4	-18.4	---	---	16.5	ENE	0.28	18.3	-30.5	---	---	721.8	0.026	0.000	18.2	1	1
03/22/06	4:58 a	-18.4	-18.4	-18.4	---	---	14.8	ENE	0.25	15.7	-29.9	---	---	721.8	0.026	0.000	18.2	1	1
03/22/06	4:59 a	-18.4	-18.4	-18.4	---	---	14.8	ENE	0.25	15.7	-29.9	---	---	721.8	0.026	0.000	18.2	1	1
03/22/06	5:00 a	-18.4	-18.4	-18.4	---	---	13.0	ENE	0.22	14.8	-29.3	---	---	721.8	0.026	0.000	18.2	1	1
03/22/06	5:01 a	-18.4	-18.4	-18.4	---	---	14.8	ENE	0.25	18.3	-30.0	---	---	721.8	0.026	0.000	18.2	1	1
03/22/06	5:02 a	-18.4	-18.4	-18.4	---	---	17.4	ENE	0.29	19.1	-30.8	---	---	721.7	0.026	0.000	18.2	1	1
03/22/06	5:03 a	-18.4	-18.4	-18.4	---	---	16.5	ENE	0.28	18.3	-30.6	---	---	721.7	0.026	0.000	18.2	1	1
03/22/06	5:04 a	-18.5	-18.4	-18.5	---	---	16.5	ENE	0.28	18.3	-30.6	---	---	721.7	0.026	0.000	18.2	1	1
03/22/06	5:05 a	-18.5	-18.5	-18.5	---	---	16.5	ENE	0.28	17.4	-30.6	---	---	721.7	0.026	0.000	18.2	1	1
03/22/06	5:06 a	-18.5	-18.5	-18.5	---	---	14.8	ENE	0.25	16.5	-30.1	---	---	721.8	0.026	0.000	18.2	1	1
03/22/06	5:07 a	-18.5	-18.5	-18.5	---	---	13.9	E	0.23	16.5	-29.7	---	---	721.8	0.026	0.000	18.2	1	1
03/22/06	5:08 a	-18.5	-18.5	-18.5	---	---	16.5	ENE	0.28	17.4	-30.6	---	---	721.8	0.026	0.000	18.2	1	1
03/22/06	5:09 a	-18.5	-18.5	-18.6	---	---	16.5	ENE	0.28	17.4	-30.6	---	---	721.7	0.026	0.000	18.2	1	1
03/22/06	5:10 a	-18.6	-18.6	-18.6	---	---	17.4	ENE	0.29	19.1	-30.9	---	---	721.7	0.026	0.000	18.2	1	1
03/22/06	5:11 a	-18.6	-18.6	-18.6	---	---	15.7	ENE	0.26	17.4	-30.4	---	---	721.7	0.026	0.000	18.2	1	1
03/22/06	5:12 a	-18.6	-18.6	-18.6	---	---	13.9	ENE	0.23	15.7	-29.8	---	---	721.8	0.026	0.000	18.2	1	1
03/22/06	5:13 a	-18.6	-18.6	-18.6	---	---	15.7	ENE	0.26	17.4	-30.4	---	---	721.7	0.026	0.000	18.2	1	1
03/22/06	5:14 a	-18.6	-18.6	-18.6	---	---	17.4	ENE	0.29	19.1	-30.9	---	---	721.6	0.026	0.000	18.2	1	1
03/22/06	5:15 a	-18.6	-18.6	-18.6	---	---	17.4	ENE	0.29	19.1	-31.1	---	---	721.7	0.026	0.000	18.2	1	1
03/22/06	5:16 a	-18.6	-18.6	-18.6	---	---	17.4	ENE	0.29	19.1	-31.1	---	---	721.7	0.026	0.000	18.2	1	1
03/22/06	5:17 a	-18.6	-18.6	-18.6	---	---	17.4	ENE	0.29	20.0	-31.1	---	---	721.8	0.026	0.000	18.3	1	1
03/22/06	5:18 a	-18.6	-18.6	-18.6	---	---	15.7	ENE	0.26	17.4	-30.5	---	---	721.8	0.026	0.000	18.3	1	1
03/22/06	5:19 a	-18.6	-18.6	-18.6	---	---	15.7	ENE	0.26	18.3	-30.5	---	---	721.7	0.026	0.000	18.3	1	1
03/22/06	5:20 a	-18.6	-18.6	-18.7	---	---	17.4	ENE	0.29	20.0	-31.1	---	---	721.6	0.026	0.000	18.3	1	1
03/22/06	5:21 a	-18.7	-18.7	-18.7	---	---	17.4	ENE	0.29	19.1	-31.1	---	---	721.6	0.026	0.000	18.3	1	1
03/22/06	5:22 a	-18.7	-18.6	-18.7	---	---	18.3	ENE	0.30	20.0	-31.4	---	---	721.7	0.026	0.000	18.3	1	1
03/22/06	5:23 a	-18.7	-18.7	-18.7	---	---	15.7	ENE	0.26	16.5	-30.6	---	---	721.7	0.026	0.000	18.3	1	1
03/22/06	5:24 a	-18.7	-18.7	-18.7	---	---	13.9	ENE	0.23	15.7	-29.9	---	---	721.7	0.026	0.000	18.3	1	1
03/22/06	5:25 a	-18.7	-18.7	-18.7	---	---	15.7	ENE	0.26	19.1	-30.6	---	---	721.7	0.026	0.000	18.3	1	1
03/22/06	5:26 a	-18.7	-18.7	-18.7	---	---	18.3	ENE	0.30	20.0	-31.4	---	---	721.6	0.026	0.000	18.3	1	1
03/22/06	5:27 a	-18.7	-18.7	-18.7	---	---	16.5	ENE	0.28	17.4	-30.9	---	---	721.7	0.026	0.000	18.3	1	1
03/22/06	5:28 a	-18.7	-18.7	-18.7	---	---	14.8	ENE	0.25	15.7	-30.3	---	---	721.7	0.026	0.000	18.3	1	1
03/22/06	5:29 a	-18.7	-18.7	-18.7	---	---	15.7	ENE	0.26	18.3	-30.6	---	---	721.6	0.026	0.000	18.3	1	1
03/22/06	5:30 a	-18.7	-18.7	-18.7	---	---	18.3	ENE	0.30	19.1	-31.4	---	---	721.6	0.026	0.000	18.3	1	1
03/22/06	5:31 a	-18.7	-18.7	-18.7	---	---	17.4	ENE	0.29	18.3	-31.2	---	---	721.6	0.026	0.000	18.3	1	1
03/22/06	5:32 a	-18.7	-18.7	-18.8	---	---	14.8	ENE	0.25	16.5	-30.3	---	---	721.8	0.026	0.000	18.3	1	1
03/22/06	5:33 a	-18.8	-18.7	-18.8	---	---	15.7	ENE	0.26	17.4	-30.7	---	---	721.7	0.026	0.000	18.3	1	1
03/22/06	5:34 a	-18.8	-18.8	-18.8	---	---	15.7	ENE	0.26	16.5	-30.7	---	---	721.6	0.026	0.000	18.3	1	1
03/22/06	5:35 a	-18.8	-18.8	-18.8	---	---	15.7	ENE	0.26	16.5	-30.7	---	---	721.6	0.026	0.000	18.3	1	1
03/22/06	5:36 a	-18.8	-18.8	-18.8	---	---	15.7	ENE	0.26	18.3	-30.7	---	---	721.6	0.026	0.000	18.3	1	1
03/22/06	5:37 a	-18.8	-18.8	-18.8	---	---	16.5	ENE	0.28	18.3	-31.0	---	---	721.6	0.026	0.000	18.3	1	1
03/22/06	5:38 a	-18.8	-18.8	-18.8	---	---	17.4	ENE	0.29	18.3	-31.3	---	---	721.6	0.026	0.000	18.3	1	1
03/22/06	5:39 a	-18.8	-18.8	-18.8	---	---	17.4	ENE	0.29	19.1	-31.3	---	---	721.6	0.026	0.000	18.3	1	1
03/22/06	5:40 a	-18.8	-18.8	-18.8	---	---	16.5	ENE	0.28	17.4	-31.1	---	---	721.7	0.026	0.000	18.3	1	1
03/22/06	5:41 a	-18.8	-18.8	-18.8	---	---	13.9	ENE	0.23	15.7	-30.2	---	---	721.7	0.026	0.000	18.3	1	1
03/22/06	5:42 a	-18.8	-18.8	-18.8	---	---	12.2	ENE	0.20	13.0	-29.5	---	---	721.7	0.026	0.000	18.3	1	1
03/22/06	5:43 a	-18.8	-18.8	-18.8	---	---	14.8	ENE	0.25	16.5	-30.5	---	---	721.5	0.026	0.000	18.3	1	1
03/22/06	5:44 a	-18.9	-18.9	-18.9	---	---	17.4	ENE	0.29	18.3	-31.4	---	---	721.6	0.026	0.000	18.3	1	1
03/22/06	5:45 a	-18.9	-18.8	-18.9	---	---	16.5	ENE	0.28	18.3	-31.1	---	---	721.6	0.026	0.000	18.3	1	1
03/22/06	5:46 a	-18.9	-18.8	-18.9	---	---	17.4	ENE	0.29	18.3	-31.4	---	---	721.5	0.026	0.000	18.3	1	1
03/22/06	5:47 a	-18.9	-18.9	-18.9	---	---	17.4	ENE	0.29	18.3	-31.4	---	---	721.6	0.026	0.000	18.3	1	1
03/22/06	5:48 a	-18.9	-18.9	-18.9	---	---	14.8	ENE	0.25	16.5	-30.6	---	---	721.6	0.026	0.000	18.3	1	1
03/22/06	5:49 a	-18.9	-18.9	-18.9	---	---	14.8	ENE	0.25	15.7	-30.6	---	---	721.7	0.026	0.000	18.3	1	1
03/22/06	5:50 a	-18.9	-18.9	-18.9	---	---	14.8	ENE	0.25	15.7	-30.6	---	---	721.5	0.026	0.000	18.3	1	1
03/22/06	5:51 a	-18.9	-18.9	-18.9	---	---	17.4	ENE	0.29	20.0	-31.4	---	---	721.4	0.026	0.000	18.3	1	1
03/22/06	5:52 a	-18.9	-18.9	-18.9	---	---	19.1	ENE	0.32	20.9	-32.0	---	---	721.6	0.026	0.000	18.3	1	1
03/22/06	5:53 a	-18.9	-18.9	-18.9	---	---	16.5	ENE	0.28	18.3	-31.2	---	---	721.6	0.026	0.000	18.3	1	1
03/22/06	5:54 a	-18.9	-18.9	-18.9	---	---	14.8	ENE	0.25	15.7	-30.6	---	---	721.7	0.026	0.000	18.3	1	1
03/22/06	5:55 a	-18.9	-18.9	-18.9	---	---	13.9	ENE	0.23	14.8	-30.3	---	---	721.6	0.026	0.000	18.3	1	1
03/22/06	5:56 a	-18.9	-18.9	-18.9	---	---	14.8	ENE	0.25	15.7	-30.6	---	---	721.6	0.026	0.000	18.3	1	1
03/22/06	5:57 a	-18.9	-18.9	-19.0	---	---	15.7	ENE	0.26	16.5	-30.9	---	---	721.5	0.026	0.000	18.3	1	1
03/22/06	5:58 a	-19.0	-18.9	-19.0	---	---	16.5	ENE	0.28	18.3	-31.3	---	---	721.5	0.026	0.000	18.3	1	1
03/22/06	5:59 a	-19.0	-18.9	-19.0	---	---	17.4	ENE	0.29	18.3	-31.6	---	---	721.6	0.026	0.000	18.3	1	1
03/22/06	6:00 a	-19.0	-19.0	-19.0	---	---	14.8	ENE	0.25	16.5	-30.7	---	---	721.5	0.026	0.000	18.3	1	1
03/22/06	6:01 a	-19.0	-19.0	-19.0	---	---	14.8	ENE	0.25	15.7	-30.7	---	---	721.5	0.026	0.000	18.3	1	1
03/22/06	6:02 a	-19.0	-18.9	-19.0	---	---	15.7	ENE	0.26	16.5	-31.0	---	---	721.5	0.026	0.000	18.3	1	1
03/22/06	6:03 a	-19.0	-19.0	-19.0	---	---	16.5	ENE	0.28	17.4	-31.3	---	---	721.5	0.026	0.000	18.3	1	1
03/22/06	6:04 a	-19.0	-19.0	-19.0	---	---	15.7	ENE	0.26	16.5	-31.0	---	---	721.6	0.026	0.000	18.3	1	1
03/22/06	6:05 a	-19.0	-19.0	-19.0	---	---	14.8	ENE	0.25	16.5	-30.7	---	---	721.6	0.026	0.000	18.3	1	1
03/22/06	6:06 a	-19.0	-19.0	-19.0	---	---	13.0	NE	0.22	14.8	-30.1	---	---	721.6	0.026	0.000	18.3	1	1
03/22/06	6:07 a	-19.0	-19.0	-19.1	---	---	12.2	NE	0.20	14.8	-29.7	---	---	721.5	0.026	0.000	18.3	1	1
03/22/06	6:08 a	-19.0	-19.0	-19.1	---	---	17.4	ENE	0.29	20.0	-31.6	---	---	721.4	0.026	0.000	18.3	1	1
03/22/06	6:09 a	-19.1	-19.1	-19.1	---	---	18.3	ENE	0.30	19.1	-31.9	---	---	721.5	0.026	0.000	18.3	1	1
03/22/06	6:10 a	-19.1	-19.0	-19.1	---	---	15.7	ENE	0.26	17.4	-31.1	---	---	721.5	0.026	0.000	18.3	1	1
03/22/06	6:11 a	-19.1	-19.1	-19.1	---	---	12.2	NE	0.20	13.9	-29.8	---	---	721.6	0.026	0.000	18.3	1	1
03/22/06	6:12 a	-19.1	-19.1	-19.1	---	---	9.6	NE	0.16	11.3	-28.6	---	---	721.7	0.026	0.000	18.3	1	1
03/22/06	6:13 a	-19.1	-19.1	-19.1	---	---	9.6	ENE	0.16	16.5	-28.6	---	---	721.6	0.026	0.000	18.3	1	1
03/22/06	6:14 a	-19.1	-19.1	-19.1	---	---	19.1	ENE	0.32	20.0	-32.1	---	---	721.4	0.026	0.000	18.3	1	1
03/22/06	6:15 a	-19.1	-19.1	-19.1	---	---	16.5	NE	0.28	19.1	-31.3	---	---	721.6	0.026	0.000	18.3	1	1
03/22/06	6:16 a	-19.1	-19.1	-19.1	---	---	12.2	NE	0.20	13.9	-29.8	---	---	721.6	0.026	0.000	18.3	1	1
03/22/06	6:17 a	-19.1	-19.1	-19.1	---	---	7.8	NE	0.13	9.6	-27.7	---	---	721.6	0.026	0.000	18.3	1	1
03/22/06	6:18 a	-19.1	-19.1	-19.1	---	---	11.3	ENE	0.19	14.8	-29.4	---	---	721.5	0.026	0.000	18.3	1	1
03/22/06	6:19 a	-19.1	-19.1	-19.1	---	---	15.7	ENE	0.26	16.5	-31.1	---	---	721.4	0.026	0.000	18.3	1	1
03/22/06	6:20 a	-19.1	-19.1	-19.1	---	---	14.8	ENE	0.25	16.5	-30.8	---	---	721.5	0.026	0.000	18.3	1	1
03/22/06	6:21 a	-19.1	-19.1	-19.1	---	---	13.0	ENE	0.22	14.8	-30.1	---	---	721.6	0.026	0.000	18.3	1	1
03/22/06	6:22 a	-19.1	-19.1	-19.1	---	---	13.0	ENE	0.22	14.8	-30.1	---	---	721.5	0.026	0.000	18.3	1	1
03/22/06	6:23 a	-19.1	-19.1	-19.1	---	---	15.7	ENE	0.26	16.5	-31.2	---	---	721.5	0.026	0.000	18.3	1	1
03/22/06	6:24 a	-19.1	-19.1	-19.1	---	---	13.9	ENE	0.23	14.8	-30.6	---	---	721.5	0.026	0.000	18.4	1	1
03/22/06	6:25 a	-19.1	-19.1	-19.1	---	---	13.0	ENE	0.22	13.9	-30.2	---	---	721.5	0.026	0.000	18.4	1	1
03/22/06	6:26 a	-19.1	-19.1	-19.1	---	---	13.0	ENE	0.22	13.9	-30.2	---	---	721.5	0.026	0.000	18.4	1	1
03/22/06	6:27 a	-19.1	-19.1	-19.1	---	---	13.9	ENE	0.23	14.8	-30.6	---	---	721.5	0.026	0.000	18.4	1	1
03/22/06	6:28 a	-19.1	-19.1	-19.1	---	---	14.8	NE	0.25	15.7	-30.8	---	---	721.5	0.026	0.000	18.4	1	1
03/22/06	6:29 a	-19.1	-19.1	-19.1	---	---	15.7	NE	0.26	16.5	-31.2	---	---	721.5	0.026	0.000	18.4	1	1
03/22/06	6:30 a	-19.1	-19.1	-19.1	---	---	15.7	ENE	0.26	16.5	-31.2	---	---	721.5	0.026	0.000	18.4	1	1
03/22/06	6:31 a	-19.1	-19.1	-19.1	---	---	14.8	ENE	0.25	15.7	-30.8	---	---	721.5	0.026	0.000	18.4	1	1
03/22/06	6:32 a	-19.1	-19.1	-19.1	---	---	12.2	ENE	0.20	13.9	-29.8	---	---	721.5	0.026	0.000	18.4	1	1
03/22/06	6:33 a	-19.1	-19.1	-19.1	---	---	12.2	ENE	0.20	13.9	-29.8	---	---	721.4	0.026	0.000	18.4	1	1
03/22/06	6:34 a	-19.1	-19.1	-19.1	---	---	14.8	NE	0.25	15.7	-30.8	---	---	721.5	0.026	0.000	18.4	1	1
03/22/06	6:35 a	-19.1	-19.1	-19.1	---	---	13.0	NE	0.22	13.9	-30.2	---	---	721.5	0.026	0.000	18.4	1	1
03/22/06	6:36 a	-19.1	-19.1	-19.1	---	---	13.9	ENE	0.23	14.8	-30.6	---	---	721.5	0.026	0.000	18.4	1	1
03/22/06	6:37 a	-19.1	-19.1	-19.1	---	---	13.9	NE	0.23	14.8	-30.6	---	---	721.4	0.026	0.000	18.4	1	1
03/22/06	6:38 a	-19.1	-19.1	-19.1	---	---	13.9	NE	0.23	14.8	-30.6	---	---	721.4	0.026	0.000	18.4	1	1
03/22/06	6:39 a	-19.1	-19.1	-19.1	---	---	13.0	NE	0.22	14.8	-30.2	---	---	721.5	0.026	0.000	18.4	1	1
03/22/06	6:40 a	-19.1	-19.1	-19.1	---	---	9.6	NE	0.16	11.3	-28.7	---	---	721.5	0.026	0.000	18.4	1	1
03/22/06	6:41 a	-19.1	-19.1	-19.1	---	---	9.6	ENE	0.16	13.9	-28.7	---	---	721.4	0.026	0.000	18.4	1	1
03/22/06	6:42 a	-19.1	-19.1	-19.1	---	---	15.7	ENE	0.26	17.4	-31.2	---	---	721.3	0.026	0.000	18.4	1	1
03/22/06	6:43 a	-19.1	-19.1	-19.1	---	---	15.7	ENE	0.26	17.4	-31.2	---	---	721.4	0.026	0.000	18.4	1	1
03/22/06	6:44 a	-19.1	-19.1	-19.1	---	---	12.2	ENE	0.20	14.8	-29.8	---	---	721.4	0.026	0.000	18.4	1	1
03/22/06	6:45 a	-19.1	-19.1	-19.2	---	---	9.6	ENE	0.16	11.3	-28.7	---	---	721.4	0.026	0.000	18.4	1	1
03/22/06	6:46 a	-19.1	-19.1	-19.2	---	---	13.0	ENE	0.22	14.8	-30.2	---	---	721.5	0.026	0.000	18.4	1	1
03/22/06	6:47 a	-19.1	-19.1	-19.1	---	---	14.8	ENE	0.25	15.7	-30.8	---	---	721.5	0.026	0.000	18.4	1	1
03/22/06	6:48 a	-19.1	-19.1	-19.2	---	---	13.0	ENE	0.22	14.8	-30.2	---	---	721.5	0.026	0.000	18.4	1	1
03/22/06	6:49 a	-19.2	-19.1	-19.2	---	---	10.4	ENE	0.17	12.2	-29.2	---	---	721.4	0.026	0.000	18.4	1	1
03/22/06	6:50 a	-19.1	-19.1	-19.2	---	---	12.2	ENE	0.20	13.9	-29.8	---	---	721.4	0.026	0.000	18.4	1	1
03/22/06	6:51 a	-19.1	-19.1	-19.1	---	---	13.9	ENE	0.23	14.8	-30.6	---	---	721.4	0.026	0.000	18.4	1	1
03/22/06	6:52 a	-19.2	-19.1	-19.2	---	---	14.8	ENE	0.25	16.5	-30.9	---	---	721.4	0.026	0.000	18.4	1	1
03/22/06	6:53 a	-19.1	-19.1	-19.2	---	---	13.0	NE	0.22	14.8	-30.2	---	---	721.5	0.026	0.000	18.5	1	1
03/22/06	6:54 a	-19.2	-19.1	-19.2	---	---	11.3	ENE	0.19	12.2	-29.6	---	---	721.5	0.026	0.000	18.4	1	1
03/22/06	6:55 a	-19.2	-19.1	-19.2	---	---	11.3	NE	0.19	12.2	-29.6	---	---	721.5	0.026	0.000	18.4	1	1
03/22/06	6:56 a	-19.2	-19.1	-19.2	---	---	9.6	NE	0.16	11.3	-28.8	---	---	721.4	0.026	0.000	18.4	1	1
03/22/06	6:57 a	-19.2	-19.1	-19.2	---	---	10.4	NE	0.17	13.0	-29.2	---	---	721.4	0.026	0.000	18.4	1	1
03/22/06	6:58 a	-19.2	-19.2	-19.2	---	---	13.0	ENE	0.22	14.8	-30.3	---	---	721.3	0.026	0.000	18.4	1	1
03/22/06	6:59 a	-19.1	-19.1	-19.2	---	---	14.8	ENE	0.25	16.5	-30.8	---	---	721.3	0.026	0.000	18.4	1	1
03/22/06	7:00 a	-19.1	-19.1	-19.2	---	---	15.7	ENE	0.26	16.5	-31.2	---	---	721.4	0.026	0.000	18.4	1	1
03/22/06	7:01 a	-19.2	-19.1	-19.2	---	---	13.0	NE	0.22	14.8	-30.3	---	---	721.4	0.026	0.000	18.4	1	1
03/22/06	7:02 a	-19.2	-19.2	-19.2	---	---	10.4	NE	0.17	13.0	-29.2	---	---	721.4	0.026	0.000	18.4	1	1
03/22/06	7:03 a	-19.2	-19.2	-19.2	---	---	7.8	NE	0.13	9.6	-27.8	---	---	721.4	0.026	0.000	18.4	1	1
03/22/06	7:04 a	-19.2	-19.1	-19.2	---	---	6.1	NE	0.10	7.8	-26.7	---	---	721.4	0.026	0.000	18.4	1	1
03/22/06	7:05 a	-19.1	-19.1	-19.2	---	---	12.2	ENE	0.20	15.7	-29.8	---	---	721.3	0.026	0.000	18.4	1	1
03/22/06	7:06 a	-19.2	-19.2	-19.2	---	---	15.7	ENE	0.26	16.5	-31.2	---	---	721.3	0.026	0.000	18.4	1	1
03/22/06	7:07 a	-19.1	-19.1	-19.2	---	---	13.9	NE	0.23	14.8	-30.6	---	---	721.4	0.026	0.000	18.4	1	1
03/22/06	7:08 a	-19.2	-19.2	-19.2	---	---	10.4	NE	0.17	12.2	-29.2	---	---	721.4	0.026	0.000	18.4	1	1
03/22/06	7:09 a	-19.2	-19.2	-19.2	---	---	7.8	NE	0.13	9.6	-27.8	---	---	721.4	0.026	0.000	18.4	1	1
03/22/06	7:10 a	-19.2	-19.2	-19.2	---	---	5.2	NE	0.09	7.0	-26.0	---	---	721.4	0.026	0.000	18.4	1	1
03/22/06	7:11 a	-19.2	-19.1	-19.2	---	---	9.6	ENE	0.16	13.9	-28.8	---	---	721.3	0.026	0.000	18.4	1	1
03/22/06	7:12 a	-19.1	-19.1	-19.2	---	---	13.9	ENE	0.23	14.8	-30.6	---	---	721.3	0.026	0.000	18.4	1	1
03/22/06	7:13 a	-19.2	-19.1	-19.2	---	---	12.2	NE	0.20	13.9	-29.9	---	---	721.3	0.026	0.000	18.4	1	1
03/22/06	7:14 a	-19.2	-19.2	-19.2	---	---	12.2	NE	0.20	13.0	-29.9	---	---	721.4	0.026	0.000	18.4	1	1
03/22/06	7:15 a	-19.2	-19.2	-19.2	---	---	13.0	ENE	0.22	14.8	-30.3	---	---	721.3	0.026	0.000	18.4	1	1
03/22/06	7:16 a	-19.2	-19.2	-19.2	---	---	13.9	NE	0.23	14.8	-30.6	---	---	721.3	0.026	0.000	18.4	1	1
03/22/06	7:17 a	-19.2	-19.2	-19.2	---	---	12.2	NE	0.20	13.9	-29.9	---	---	721.4	0.026	0.000	18.4	1	1
03/22/06	7:18 a	-19.2	-19.1	-19.2	---	---	10.4	NE	0.17	12.2	-29.2	---	---	721.4	0.026	0.000	18.4	1	1
03/22/06	7:19 a	-19.1	-19.1	-19.2	---	---	8.7	NE	0.14	9.6	-28.2	---	---	721.4	0.026	0.000	18.4	1	1
03/22/06	7:20 a	-19.2	-19.1	-19.2	---	---	7.0	NE	0.12	8.7	-27.3	---	---	721.4	0.026	0.000	18.4	1	1
03/22/06	7:21 a	-19.2	-19.2	-19.2	---	---	9.6	NE	0.16	13.0	-28.8	---	---	721.3	0.026	0.000	18.4	1	1
03/22/06	7:22 a	-19.2	-19.2	-19.2	---	---	13.0	NE	0.22	14.8	-30.3	---	---	721.2	0.026	0.000	18.4	1	1
03/22/06	7:23 a	-19.2	-19.2	-19.2	---	---	14.8	NE	0.25	15.7	-30.9	---	---	721.3	0.026	0.000	18.4	1	1
03/22/06	7:24 a	-19.2	-19.2	-19.2	---	---	13.0	NE	0.22	14.8	-30.3	---	---	721.3	0.026	0.000	18.4	1	1
03/22/06	7:25 a	-19.2	-19.2	-19.2	---	---	10.4	NE	0.17	11.3	-29.2	---	---	721.4	0.026	0.000	18.4	1	1
03/22/06	7:26 a	-19.2	-19.1	-19.2	---	---	7.8	ENE	0.13	10.4	-27.8	---	---	721.4	0.026	0.000	18.4	1	1
03/22/06	7:27 a	-19.2	-19.1	-19.2	---	---	11.3	ENE	0.19	13.9	-29.6	---	---	721.2	0.026	0.000	18.4	1	1
03/22/06	7:28 a	-19.2	-19.1	-19.2	---	---	13.9	NE	0.23	14.8	-30.6	---	---	721.3	0.026	0.000	18.5	1	1
03/22/06	7:29 a	-19.2	-19.2	-19.2	---	---	13.0	NE	0.22	13.9	-30.3	---	---	721.3	0.026	0.000	18.5	1	1
03/22/06	7:30 a	-19.2	-19.1	-19.2	---	---	12.2	NE	0.20	13.0	-29.9	---	---	721.4	0.026	0.000	18.5	1	1
03/22/06	7:31 a	-19.2	-19.2	-19.2	---	---	10.4	NE	0.17	12.2	-29.2	---	---	721.4	0.026	0.000	18.5	1	1
03/22/06	7:32 a	-19.2	-19.2	-19.2	---	---	7.0	NE	0.12	9.6	-27.3	---	---	721.4	0.026	0.000	18.5	1	1
03/22/06	7:33 a	-19.1	-19.1	-19.2	---	---	7.0	ENE	0.12	11.3	-27.2	---	---	721.2	0.026	0.000	18.5	1	1
03/22/06	7:34 a	-19.2	-19.1	-19.2	---	---	13.9	NE	0.23	15.7	-30.6	---	---	721.3	0.026	0.000	18.5	1	1
03/22/06	7:35 a	-19.2	-19.2	-19.2	---	---	13.9	NE	0.23	15.7	-30.6	---	---	721.4	0.026	0.000	18.5	1	1
03/22/06	7:36 a	-19.2	-19.2	-19.2	---	---	11.3	NE	0.19	12.2	-29.6	---	---	721.3	0.026	0.000	18.5	1	1
03/22/06	7:37 a	-19.2	-19.1	-19.2	---	---	10.4	NE	0.17	11.3	-29.2	---	---	721.4	0.026	0.000	18.5	1	1
03/22/06	7:38 a	-19.2	-19.2	-19.2	---	---	8.7	NE	0.14	10.4	-28.3	---	---	721.4	0.026	0.000	18.5	1	1
03/22/06	7:39 a	-19.2	-19.2	-19.2	---	---	8.7	ENE	0.14	13.0	-28.3	---	---	721.3	0.026	0.000	18.5	1	1
03/22/06	7:40 a	-19.2	-19.1	-19.2	---	---	13.0	ENE	0.22	13.9	-30.3	---	---	721.3	0.026	0.000	18.6	1	1
03/22/06	7:41 a	-19.2	-19.2	-19.2	---	---	8.7	NE	0.14	11.3	-28.3	---	---	721.3	0.026	0.000	18.6	1	1
03/22/06	7:42 a	-19.2	-19.2	-19.2	---	---	6.1	NE	0.10	14.8	-26.7	---	---	721.3	0.026	0.000	18.5	1	1
03/22/06	7:43 a	-19.2	-19.1	-19.2	---	---	13.9	NE	0.23	15.7	-30.6	---	---	721.2	0.026	0.000	18.6	1	1
03/22/06	7:44 a	-19.2	-19.2	-19.2	---	---	14.8	ENE	0.25	16.5	-30.9	---	---	721.4	0.026	0.000	18.6	1	1
03/22/06	7:45 a	-19.2	-19.1	-19.2	---	---	11.3	ENE	0.19	13.0	-29.6	---	---	721.4	0.026	0.000	18.6	1	1
03/22/06	7:46 a	-19.2	-19.1	-19.2	---	---	8.7	NE	0.14	9.6	-28.3	---	---	721.3	0.026	0.000	18.6	1	1
03/22/06	7:47 a	-19.2	-19.1	-19.2	---	---	7.0	NE	0.12	8.7	-27.3	---	---	721.3	0.026	0.000	18.6	1	1
03/22/06	7:48 a	-19.2	-19.1	-19.2	---	---	7.8	NE	0.13	10.4	-27.8	---	---	721.4	0.026	0.000	18.6	1	1
03/22/06	7:49 a	-19.1	-19.1	-19.2	---	---	13.0	ENE	0.22	13.9	-30.2	---	---	721.2	0.026	0.000	18.6	1	1
03/22/06	7:50 a	-19.2	-19.2	-19.2	---	---	12.2	NE	0.20	13.0	-29.9	---	---	721.3	0.026	0.000	18.6	1	1
03/22/06	7:51 a	-19.2	-19.1	-19.2	---	---	11.3	NE	0.19	13.0	-29.6	---	---	721.2	0.026	0.000	18.6	1	1
03/22/06	7:52 a	-19.2	-19.2	-19.2	---	---	13.0	ENE	0.22	13.9	-30.3	---	---	721.3	0.026	0.000	18.6	1	1
03/22/06	7:53 a	-19.2	-19.2	-19.2	---	---	12.2	ENE	0.20	13.0	-29.9	---	---	721.3	0.026	0.000	18.6	1	1
03/22/06	7:54 a	-19.2	-19.2	-19.2	---	---	11.3	ENE	0.19	12.2	-29.6	---	---	721.2	0.026	0.000	18.6	1	1
03/22/06	7:55 a	-19.2	-19.2	-19.2	---	---	11.3	NE	0.19	12.2	-29.6	---	---	721.2	0.026	0.000	18.6	1	1
03/22/06	7:56 a	-19.2	-19.2	-19.2	---	---	12.2	NE	0.20	13.0	-29.9	---	---	721.1	0.026	0.000	18.6	1	1
03/22/06	7:57 a	-19.2	-19.2	-19.2	---	---	11.3	NE	0.19	13.0	-29.6	---	---	721.2	0.026	0.000	18.6	1	1
03/22/06	7:58 a	-19.2	-19.2	-19.2	---	---	11.3	NE	0.19	13.0	-29.6	---	---	721.3	0.026	0.000	18.6	1	1
03/22/06	7:59 a	-19.2	-19.2	-19.2	---	---	13.0	ENE	0.22	13.9	-30.3	---	---	721.1	0.026	0.000	18.6	1	1
03/22/06	8:00 a	-19.2	-19.2	-19.2	---	---	12.2	ENE	0.20	13.0	-29.9	---	---	721.2	0.026	0.000	18.6	1	1
03/22/06	8:01 a	-19.2	-19.2	-19.2	---	---	11.3	ENE	0.19	13.0	-29.6	---	---	721.2	0.026	0.000	18.6	1	1
03/22/06	8:02 a	-19.2	-19.2	-19.2	---	---	11.3	ENE	0.19	11.3	-29.6	---	---	721.2	0.026	0.000	18.6	1	1
03/22/06	8:03 a	-19.2	-19.1	-19.2	---	---	9.6	NE	0.16	10.4	-28.8	---	---	721.2	0.026	0.000	18.6	1	1
03/22/06	8:04 a	-19.2	-19.2	-19.2	---	---	12.2	NE	0.20	13.9	-29.9	---	---	721.2	0.026	0.000	18.6	1	1
03/22/06	8:05 a	-19.2	-19.1	-19.2	---	---	12.2	NE	0.20	13.9	-29.9	---	---	721.2	0.026	0.000	18.6	1	1
03/22/06	8:06 a	-19.2	-19.1	-19.2	---	---	11.3	NE	0.19	13.0	-29.6	---	---	721.2	0.026	0.000	18.6	1	1
03/22/06	8:07 a	-19.2	-19.2	-19.2	---	---	10.4	NE	0.17	12.2	-29.2	---	---	721.2	0.026	0.000	18.6	1	1
03/22/06	8:08 a	-19.2	-19.1	-19.2	---	---	10.4	NE	0.17	12.2	-29.2	---	---	721.2	0.026	0.000	18.6	1	1
03/22/06	8:09 a	-19.2	-19.2	-19.2	---	---	9.6	NE	0.16	11.3	-28.8	---	---	721.1	0.026	0.000	18.6	1	1
03/22/06	8:10 a	-19.2	-19.2	-19.2	---	---	11.3	NE	0.19	12.2	-29.6	---	---	721.2	0.026	0.000	18.6	1	1
03/22/06	8:11 a	-19.2	-19.2	-19.2	---	---	10.4	NE	0.17	11.3	-29.2	---	---	721.1	0.026	0.000	18.6	1	1
03/22/06	8:12 a	-19.1	-19.1	-19.2	---	---	9.6	NE	0.16	10.4	-28.7	---	---	721.1	0.026	0.000	18.6	1	1
03/22/06	8:13 a	-19.2	-19.1	-19.2	---	---	9.6	NE	0.16	11.3	-28.8	---	---	721.2	0.026	0.000	18.6	1	1
03/22/06	8:14 a	-19.1	-19.1	-19.1	---	---	10.4	NE	0.17	13.9	-29.1	---	---	721.2	0.026	0.000	18.6	1	1
03/22/06	8:15 a	-19.1	-19.1	-19.2	---	---	12.2	NE	0.20	13.9	-29.8	---	---	721.1	0.026	0.000	18.6	1	1
03/22/06	8:16 a	-19.2	-19.1	-19.2	---	---	11.3	NE	0.19	12.2	-29.6	---	---	721.2	0.026	0.000	18.6	1	1
03/22/06	8:17 a	-19.1	-19.1	-19.1	---	---	11.3	NE	0.19	12.2	-29.5	---	---	721.1	0.026	0.000	18.6	1	1
03/22/06	8:18 a	-19.2	-19.1	-19.2	---	---	9.6	NE	0.16	12.2	-28.8	---	---	721.1	0.026	0.000	18.6	1	1
03/22/06	8:19 a	-19.1	-19.1	-19.2	---	---	11.3	NE	0.19	12.2	-29.5	---	---	721.1	0.026	0.000	18.6	1	1
03/22/06	8:20 a	-19.2	-19.1	-19.2	---	---	10.4	NE	0.17	11.3	-29.2	---	---	721.1	0.026	0.000	18.6	1	1
03/22/06	8:21 a	-19.1	-19.1	-19.1	---	---	9.6	NE	0.16	10.4	-28.7	---	---	721.1	0.026	0.000	18.6	1	1
03/22/06	8:22 a	-19.1	-19.1	-19.1	---	---	6.1	NE	0.10	9.6	-26.6	---	---	721.2	0.026	0.000	18.6	1	1
03/22/06	8:23 a	-19.1	-19.1	-19.1	---	---	7.8	NE	0.13	13.9	-27.7	---	---	721.2	0.026	0.000	18.6	1	1
03/22/06	8:24 a	-19.1	-19.1	-19.1	---	---	12.2	NNE	0.20	13.9	-29.8	---	---	721.1	0.026	0.000	18.6	1	1
03/22/06	8:25 a	-19.1	-19.1	-19.1	---	---	10.4	NNE	0.17	12.2	-29.1	---	---	721.1	0.026	0.000	18.6	1	1
03/22/06	8:26 a	-19.1	-19.1	-19.1	---	---	9.6	NE	0.16	12.2	-28.7	---	---	721.1	0.026	0.000	18.6	1	1
03/22/06	8:27 a	-19.1	-19.1	-19.1	---	---	11.3	NE	0.19	13.0	-29.5	---	---	721.0	0.026	0.000	18.6	1	1
03/22/06	8:28 a	-19.1	-19.1	-19.1	---	---	10.4	NE	0.17	11.3	-29.1	---	---	721.1	0.026	0.000	18.6	1	1
03/22/06	8:29 a	-19.1	-19.1	-19.1	---	---	7.8	NE	0.13	9.6	-27.7	---	---	721.1	0.026	0.000	18.6	1	1
03/22/06	8:30 a	-19.1	-19.1	-19.1	---	---	8.7	NE	0.14	9.6	-28.2	---	---	721.1	0.026	0.000	18.6	1	1
03/22/06	8:31 a	-19.1	-19.1	-19.1	---	---	9.6	NE	0.16	11.3	-28.7	---	---	721.1	0.026	0.000	18.6	1	1
03/22/06	8:32 a	-19.1	-19.1	-19.1	---	---	9.6	NE	0.16	11.3	-28.7	---	---	721.1	0.026	0.000	18.6	1	1
03/22/06	8:33 a	-19.1	-19.1	-19.1	---	---	10.4	NE	0.17	11.3	-29.1	---	---	721.0	0.026	0.000	18.6	1	1
03/22/06	8:34 a	-19.1	-19.1	-19.1	---	---	10.4	NE	0.17	11.3	-29.1	---	---	721.1	0.026	0.000	18.6	1	1
03/22/06	8:35 a	-19.1	-19.1	-19.1	---	---	11.3	NE	0.19	12.2	-29.5	---	---	721.0	0.026	0.000	18.6	1	1
03/22/06	8:36 a	-19.1	-19.1	-19.1	---	---	11.3	NE	0.19	11.3	-29.5	---	---	721.1	0.026	0.000	18.6	1	1
03/22/06	8:37 a	-19.1	-19.1	-19.1	---	---	9.6	NE	0.16	11.3	-28.7	---	---	721.1	0.026	0.000	18.7	1	1
03/22/06	8:38 a	-19.1	-19.1	-19.1	---	---	7.8	NE	0.13	8.7	-27.7	---	---	721.1	0.026	0.000	18.7	1	1
03/22/06	8:39 a	-19.1	-19.1	-19.1	---	---	7.0	NE	0.12	9.6	-27.2	---	---	721.0	0.026	0.000	18.7	1	1
03/22/06	8:40 a	-19.1	-19.1	-19.1	---	---	9.6	NE	0.16	12.2	-28.7	---	---	721.0	0.026	0.000	18.7	1	1
03/22/06	8:41 a	-19.1	-19.1	-19.1	---	---	12.2	NE	0.20	13.0	-29.8	---	---	721.0	0.026	0.000	18.7	1	1
03/22/06	8:42 a	-19.1	-19.1	-19.1	---	---	11.3	NE	0.19	12.2	-29.5	---	---	721.0	0.026	0.000	18.7	1	1
03/22/06	8:43 a	-19.1	-19.1	-19.1	---	---	10.4	NE	0.17	12.2	-29.1	---	---	721.0	0.026	0.000	18.7	1	1
03/22/06	8:44 a	-19.1	-19.1	-19.1	---	---	9.6	NE	0.16	10.4	-28.7	---	---	721.0	0.026	0.000	18.7	1	1
03/22/06	8:45 a	-19.1	-19.1	-19.1	---	---	8.7	NE	0.14	9.6	-28.2	---	---	721.0	0.026	0.000	18.7	1	1
03/22/06	8:46 a	-19.1	-19.1	-19.1	---	---	9.6	NE	0.16	10.4	-28.7	---	---	721.0	0.026	0.000	18.7	1	1
03/22/06	8:47 a	-19.1	-19.1	-19.1	---	---	9.6	NE	0.16	11.3	-28.7	---	---	721.0	0.026	0.000	18.7	1	1
03/22/06	8:48 a	-19.1	-19.1	-19.1	---	---	6.1	NE	0.10	8.7	-26.6	---	---	721.1	0.026	0.000	18.7	1	1
03/22/06	8:49 a	-19.1	-19.1	-19.1	---	---	10.4	NE	0.17	11.3	-29.1	---	---	721.0	0.026	0.000	18.7	1	1
03/22/06	8:50 a	-19.1	-19.1	-19.1	---	---	10.4	NE	0.17	11.3	-29.1	---	---	721.0	0.026	0.000	18.7	1	1
03/22/06	8:51 a	-19.1	-19.1	-19.1	---	---	11.3	NE	0.19	11.3	-29.5	---	---	721.0	0.026	0.000	18.7	1	1
03/22/06	8:52 a	-19.1	-19.1	-19.1	---	---	10.4	NE	0.17	11.3	-29.1	---	---	721.0	0.026	0.000	18.7	1	1
03/22/06	8:53 a	-19.1	-19.1	-19.1	---	---	8.7	NE	0.14	10.4	-28.2	---	---	721.1	0.026	0.000	18.7	1	1
03/22/06	8:54 a	-19.1	-19.1	-19.1	---	---	7.0	NE	0.12	8.7	-27.2	---	---	721.0	0.026	0.000	18.7	1	1
03/22/06	8:55 a	-19.1	-19.1	-19.1	---	---	6.1	NE	0.10	7.8	-26.6	---	---	721.0	0.026	0.000	18.7	1	1
03/22/06	8:56 a	-19.1	-19.1	-19.1	---	---	11.3	NE	0.19	13.0	-29.5	---	---	721.1	0.026	0.000	18.7	1	1
03/22/06	8:57 a	-19.1	-19.1	-19.1	---	---	9.6	NE	0.16	10.4	-28.7	---	---	720.9	0.026	0.000	18.7	1	1
03/22/06	8:58 a	-19.1	-19.1	-19.1	---	---	9.6	NE	0.16	11.3	-28.7	---	---	721.0	0.026	0.000	18.7	1	1
03/22/06	8:59 a	-19.1	-19.1	-19.1	---	---	9.6	NE	0.16	11.3	-28.7	---	---	721.1	0.026	0.000	18.7	1	1
03/22/06	9:00 a	-19.1	-19.1	-19.2	---	---	7.8	NE	0.13	8.7	-27.7	---	---	721.0	0.026	0.000	18.7	1	1
03/22/06	9:01 a	-19.1	-19.1	-19.2	---	---	9.6	NE	0.16	10.4	-28.7	---	---	721.0	0.026	0.000	18.7	1	1
03/22/06	9:02 a	-19.2	-19.1	-19.2	---	---	9.6	NE	0.16	10.4	-28.8	---	---	721.0	0.026	0.000	18.7	1	1
03/22/06	9:03 a	-19.1	-19.1	-19.1	---	---	8.7	NE	0.14	9.6	-28.2	---	---	721.0	0.026	0.000	18.7	1	1
03/22/06	9:04 a	-19.2	-19.1	-19.2	---	---	7.8	NE	0.13	10.4	-27.8	---	---	721.0	0.026	0.000	18.7	1	1
03/22/06	9:05 a	-19.1	-19.1	-19.1	---	---	9.6	NE	0.16	10.4	-28.7	---	---	721.0	0.026	0.000	18.7	1	1
03/22/06	9:06 a	-19.2	-19.1	-19.2	---	---	9.6	NE	0.16	10.4	-28.8	---	---	721.0	0.026	0.000	18.7	1	1
03/22/06	9:07 a	-19.1	-19.1	-19.2	---	---	9.6	NE	0.16	10.4	-28.7	---	---	721.0	0.026	0.000	18.7	1	1
03/22/06	9:08 a	-19.2	-19.1	-19.2	---	---	8.7	NE	0.14	9.6	-28.3	---	---	721.0	0.026	0.000	18.7	1	1
03/22/06	9:09 a	-19.1	-19.1	-19.2	---	---	7.0	NE	0.12	8.7	-27.2	---	---	721.0	0.026	0.000	18.7	1	1
03/22/06	9:10 a	-19.1	-19.1	-19.2	---	---	7.0	NNE	0.12	7.8	-27.2	---	---	721.0	0.026	0.000	18.7	1	1
03/22/06	9:11 a	-19.1	-19.1	-19.1	---	---	8.7	NE	0.14	10.4	-28.2	---	---	721.0	0.026	0.000	18.7	1	1
03/22/06	9:12 a	-19.2	-19.2	-19.2	---	---	8.7	NE	0.14	10.4	-28.3	---	---	721.0	0.026	0.000	18.7	1	1
03/22/06	9:13 a	-19.2	-19.1	-19.2	---	---	7.8	NE	0.13	8.7	-27.8	---	---	720.9	0.026	0.000	18.7	1	1
03/22/06	9:14 a	-19.1	-19.1	-19.2	---	---	8.7	NE	0.14	11.3	-28.2	---	---	720.9	0.026	0.000	18.7	1	1
03/22/06	9:15 a	-19.2	-19.2	-19.2	---	---	9.6	NE	0.16	11.3	-28.8	---	---	721.0	0.026	0.000	18.7	1	1
03/22/06	9:16 a	-19.2	-19.2	-19.2	---	---	8.7	NE	0.14	9.6	-28.3	---	---	721.0	0.026	0.000	18.7	1	1
03/22/06	9:17 a	-19.2	-19.1	-19.2	---	---	7.8	NE	0.13	8.7	-27.8	---	---	720.9	0.026	0.000	18.7	1	1
03/22/06	9:18 a	-19.2	-19.1	-19.2	---	---	7.0	NNE	0.12	8.7	-27.3	---	---	721.0	0.026	0.000	18.7	1	1
03/22/06	9:19 a	-19.2	-19.1	-19.2	---	---	7.8	NE	0.13	8.7	-27.8	---	---	720.9	0.026	0.000	18.7	1	1
03/22/06	9:20 a	-19.1	-19.1	-19.1	---	---	7.8	NE	0.13	8.7	-27.7	---	---	721.0	0.026	0.000	18.7	1	1
03/22/06	9:21 a	-19.1	-19.1	-19.2	---	---	7.8	NE	0.13	9.6	-27.7	---	---	720.9	0.026	0.000	18.7	1	1
03/22/06	9:22 a	-19.2	-19.2	-19.2	---	---	8.7	NE	0.14	9.6	-28.3	---	---	721.0	0.026	0.000	18.7	1	1
03/22/06	9:23 a	-19.2	-19.1	-19.2	---	---	8.7	NE	0.14	10.4	-28.3	---	---	720.9	0.026	0.000	18.7	1	1
03/22/06	9:24 a	-19.2	-19.1	-19.2	---	---	8.7	NE	0.14	9.6	-28.3	---	---	721.0	0.026	0.000	18.7	1	1
03/22/06	9:25 a	-19.1	-19.1	-19.1	---	---	7.0	NE	0.12	8.7	-27.2	---	---	720.9	0.026	0.000	18.7	1	1
03/22/06	9:26 a	-19.1	-19.1	-19.1	---	---	7.0	NE	0.12	8.7	-27.2	---	---	721.0	0.026	0.000	18.7	1	1
03/22/06	9:27 a	-19.2	-19.1	-19.2	---	---	7.0	NE	0.12	7.8	-27.3	---	---	720.9	0.026	0.000	18.7	1	1
03/22/06	9:28 a	-19.1	-19.1	-19.2	---	---	6.1	NE	0.10	8.7	-26.6	---	---	720.9	0.026	0.000	18.7	1	1
03/22/06	9:29 a	-19.1	-19.1	-19.1	---	---	7.8	NE	0.13	8.7	-27.7	---	---	720.9	0.026	0.000	18.7	1	1
03/22/06	9:30 a	-19.1	-19.1	-19.1	---	---	7.0	NE	0.12	7.8	-27.2	---	---	720.9	0.026	0.000	18.7	1	1
03/22/06	9:31 a	-19.1	-19.1	-19.1	---	---	6.1	NE	0.10	7.0	-26.6	---	---	720.9	0.026	0.000	18.7	1	1
03/22/06	9:32 a	-19.1	-19.1	-19.2	---	---	6.1	NNE	0.10	8.7	-26.6	---	---	720.9	0.026	0.000	18.7	1	1
03/22/06	9:33 a	-19.1	-19.1	-19.1	---	---	5.2	NNE	0.09	6.1	-25.9	---	---	720.9	0.026	0.000	18.7	1	1
03/22/06	9:34 a	-19.1	-19.1	-19.1	---	---	7.8	NE	0.13	9.6	-27.7	---	---	720.9	0.026	0.000	18.7	1	1
03/22/06	9:35 a	-19.1	-19.1	-19.1	---	---	8.7	NE	0.14	9.6	-28.2	---	---	720.8	0.026	0.000	18.7	1	1
03/22/06	9:36 a	-19.1	-19.1	-19.1	---	---	7.0	NE	0.12	8.7	-27.2	---	---	720.9	0.026	0.000	18.7	1	1
03/22/06	9:37 a	-19.1	-19.1	-19.1	---	---	6.1	NE	0.10	7.0	-26.6	---	---	720.9	0.026	0.000	18.7	1	1
03/22/06	9:38 a	-19.1	-19.1	-19.1	---	---	7.0	NE	0.12	7.8	-27.2	---	---	720.9	0.026	0.000	18.7	1	1
03/22/06	9:39 a	-19.1	-19.1	-19.1	---	---	7.0	NE	0.12	7.8	-27.2	---	---	720.9	0.026	0.000	18.7	1	1
03/22/06	9:40 a	-19.1	-19.1	-19.1	---	---	5.2	NE	0.09	6.1	-25.9	---	---	720.9	0.026	0.000	18.7	1	1
03/22/06	9:41 a	-19.1	-19.1	-19.1	---	---	5.2	NE	0.09	7.0	-25.9	---	---	720.9	0.026	0.000	18.8	1	1
03/22/06	9:42 a	-19.1	-19.1	-19.1	---	---	7.0	NE	0.12	7.8	-27.2	---	---	720.9	0.026	0.000	18.8	1	1
03/22/06	9:43 a	-19.1	-19.1	-19.1	---	---	7.8	NE	0.13	7.8	-27.7	---	---	720.9	0.026	0.000	18.8	1	1
03/22/06	9:44 a	-19.1	-19.1	-19.1	---	---	6.1	NE	0.10	7.0	-26.5	---	---	721.0	0.026	0.000	18.8	1	1
03/22/06	9:45 a	-19.1	-19.1	-19.1	---	---	6.1	NE	0.10	7.0	-26.5	---	---	720.9	0.026	0.000	18.8	1	1
03/22/06	9:46 a	-19.1	-19.1	-19.1	---	---	5.2	NE	0.09	7.0	-25.8	---	---	720.9	0.026	0.000	18.8	1	1
03/22/06	9:47 a	-19.1	-19.1	-19.1	---	---	4.3	NE	0.07	5.2	-25.1	---	---	720.8	0.026	0.000	18.8	1	1
03/22/06	9:48 a	-19.1	-19.1	-19.1	---	---	6.1	NE	0.10	7.8	-26.5	---	---	720.8	0.026	0.000	18.8	1	1
03/22/06	9:49 a	-19.1	-19.1	-19.1	---	---	7.0	NE	0.12	7.8	-27.1	---	---	720.9	0.026	0.000	18.8	1	1
03/22/06	9:50 a	-19.1	-19.1	-19.1	---	---	6.1	NE	0.10	7.8	-26.5	---	---	720.9	0.026	0.000	18.8	1	1
03/22/06	9:51 a	-19.1	-19.1	-19.1	---	---	5.2	NE	0.09	7.0	-25.8	---	---	720.8	0.026	0.000	18.8	1	1
03/22/06	9:52 a	-19.1	-19.1	-19.1	---	---	5.2	NNE	0.09	6.1	-25.8	---	---	720.8	0.026	0.000	18.8	1	1
03/22/06	9:53 a	-19.1	-19.0	-19.1	---	---	7.0	NE	0.12	7.8	-27.1	---	---	720.8	0.026	0.000	18.8	1	1
03/22/06	9:54 a	-19.1	-19.1	-19.1	---	---	7.8	NE	0.13	8.7	-27.7	---	---	720.8	0.026	0.000	18.8	1	1
03/22/06	9:55 a	-19.1	-19.0	-19.1	---	---	6.1	NE	0.10	7.0	-26.5	---	---	720.8	0.026	0.000	18.8	1	1
03/22/06	9:56 a	-19.1	-19.0	-19.1	---	---	6.1	NE	0.10	7.8	-26.5	---	---	720.9	0.026	0.000	18.8	1	1
03/22/06	9:57 a	-19.0	-19.0	-19.0	---	---	7.0	NE	0.12	7.8	-27.1	---	---	720.8	0.026	0.000	18.8	1	1
03/22/06	9:58 a	-19.0	-19.0	-19.0	---	---	6.1	NE	0.10	7.8	-26.4	---	---	720.8	0.026	0.000	18.8	1	1
03/22/06	9:59 a	-19.0	-19.0	-19.0	---	---	5.2	NE	0.09	7.0	-25.8	---	---	720.8	0.026	0.000	18.8	1	1
03/22/06	10:00 a	-19.0	-19.0	-19.0	---	---	7.0	NE	0.12	7.8	-27.1	---	---	720.7	0.026	0.000	18.8	1	1
03/22/06	10:01 a	-19.0	-19.0	-19.0	---	---	5.2	NE	0.09	7.0	-25.8	---	---	720.9	0.026	0.000	18.8	1	1
03/22/06	10:02 a	-19.0	-19.0	-19.0	---	---	7.0	NE	0.12	7.8	-27.1	---	---	720.8	0.026	0.000	18.8	1	1
03/22/06	10:03 a	-19.0	-18.9	-19.0	---	---	6.1	NE	0.10	7.0	-26.4	---	---	720.8	0.026	0.000	18.8	1	1
03/22/06	10:04 a	-19.0	-18.9	-19.0	---	---	6.1	NE	0.10	7.8	-26.4	---	---	720.8	0.026	0.000	18.8	1	1
03/22/06	10:05 a	-19.0	-19.0	-19.0	---	---	7.0	NE	0.12	7.8	-27.1	---	---	720.8	0.026	0.000	18.8	1	1
03/22/06	10:06 a	-19.0	-18.9	-19.0	---	---	7.0	NE	0.12	7.0	-27.1	---	---	720.8	0.026	0.000	18.8	1	1
03/22/06	10:07 a	-18.9	-18.9	-19.0	---	---	5.2	NE	0.09	6.1	-25.7	---	---	720.7	0.026	0.000	18.8	1	1
03/22/06	10:08 a	-18.9	-18.9	-19.0	---	---	4.3	NNE	0.07	7.8	-24.9	---	---	720.8	0.026	0.000	18.8	1	1
03/22/06	10:09 a	-18.9	-18.9	-18.9	---	---	7.8	NE	0.13	7.8	-27.6	---	---	720.7	0.026	0.000	18.8	1	1
03/22/06	10:10 a	-18.9	-18.9	-18.9	---	---	6.1	NE	0.10	7.8	-26.4	---	---	720.8	0.026	0.000	18.8	1	1
03/22/06	10:11 a	-18.9	-18.9	-18.9	---	---	6.1	NE	0.10	7.0	-26.4	---	---	720.8	0.026	0.000	18.8	1	1
03/22/06	10:12 a	-18.9	-18.9	-18.9	---	---	7.8	NE	0.13	8.7	-27.6	---	---	720.8	0.026	0.000	18.8	1	1
03/22/06	10:13 a	-18.9	-18.9	-18.9	---	---	6.1	NE	0.10	8.7	-26.4	---	---	720.7	0.026	0.000	18.8	1	1
03/22/06	10:14 a	-18.9	-18.9	-18.9	---	---	7.0	NE	0.12	7.8	-27.0	---	---	720.8	0.026	0.000	18.8	1	1
03/22/06	10:15 a	-18.9	-18.9	-18.9	---	---	7.8	NE	0.13	8.7	-27.6	---	---	720.7	0.026	0.000	18.8	1	1
03/22/06	10:16 a	-18.9	-18.9	-18.9	---	---	7.0	NE	0.12	7.8	-27.0	---	---	720.7	0.026	0.000	18.8	1	1
03/22/06	10:17 a	-18.9	-18.9	-18.9	---	---	7.0	NE	0.12	7.8	-27.0	---	---	720.7	0.026	0.000	18.8	1	1
03/22/06	10:18 a	-18.9	-18.9	-18.9	---	---	7.8	NE	0.13	8.7	-27.6	---	---	720.8	0.026	0.000	18.8	1	1
03/22/06	10:19 a	-18.9	-18.9	-18.9	---	---	7.0	NE	0.12	7.0	-27.0	---	---	720.7	0.026	0.000	18.8	1	1
03/22/06	10:20 a	-18.9	-18.9	-18.9	---	---	6.1	NE	0.10	7.8	-26.4	---	---	720.7	0.026	0.000	18.8	1	1
03/22/06	10:21 a	-18.9	-18.9	-18.9	---	---	6.1	NE	0.10	7.8	-26.4	---	---	720.6	0.026	0.000	18.8	1	1
03/22/06	10:22 a	-18.9	-18.9	-18.9	---	---	8.7	NE	0.14	8.7	-28.0	---	---	720.7	0.026	0.000	18.8	1	1
03/22/06	10:23 a	-18.9	-18.9	-18.9	---	---	6.1	NE	0.10	7.0	-26.3	---	---	720.7	0.026	0.000	18.8	1	1
03/22/06	10:24 a	-18.9	-18.9	-18.9	---	---	6.1	NE	0.10	7.0	-26.3	---	---	720.8	0.026	0.000	18.8	1	1
03/22/06	10:25 a	-18.9	-18.9	-18.9	---	---	7.0	NE	0.12	7.8	-26.9	---	---	720.6	0.026	0.000	18.8	1	1
03/22/06	10:26 a	-18.9	-18.9	-18.9	---	---	7.0	NE	0.12	7.8	-26.9	---	---	720.8	0.026	0.000	18.8	1	1
03/22/06	10:27 a	-18.9	-18.9	-18.9	---	---	7.0	NE	0.12	7.8	-26.9	---	---	720.7	0.026	0.000	18.8	1	1
03/22/06	10:28 a	-18.9	-18.9	-18.9	---	---	6.1	NE	0.10	7.0	-26.3	---	---	720.7	0.026	0.000	18.8	1	1
03/22/06	10:29 a	-18.9	-18.9	-18.9	---	---	6.1	NE	0.10	8.7	-26.3	---	---	720.7	0.026	0.000	18.8	1	1
03/22/06	10:30 a	-18.9	-18.9	-18.9	---	---	7.0	NE	0.12	7.8	-26.9	---	---	720.7	0.026	0.000	18.8	1	1
03/22/06	10:31 a	-18.9	-18.9	-18.9	---	---	7.0	NE	0.12	7.0	-26.9	---	---	720.6	0.026	0.000	18.8	1	1
03/22/06	10:32 a	-18.9	-18.9	-18.9	---	---	5.2	NE	0.09	7.0	-25.7	---	---	720.7	0.026	0.000	18.8	1	1
03/22/06	10:33 a	-18.9	-18.9	-18.9	---	---	7.0	NE	0.12	8.7	-26.9	---	---	720.7	0.026	0.000	18.8	1	1
03/22/06	10:34 a	-18.9	-18.9	-18.9	---	---	7.0	NE	0.12	7.8	-26.9	---	---	720.7	0.026	0.000	18.8	1	1
03/22/06	10:35 a	-18.9	-18.9	-18.9	---	---	7.0	NE	0.12	7.8	-26.9	---	---	720.7	0.026	0.000	18.8	1	1
03/22/06	10:36 a	-18.9	-18.9	-18.9	---	---	7.0	NE	0.12	8.7	-26.9	---	---	720.6	0.026	0.000	18.8	1	1
03/22/06	10:37 a	-18.9	-18.9	-18.9	---	---	7.0	NE	0.12	7.8	-26.9	---	---	720.6	0.026	0.000	18.8	1	1
03/22/06	10:38 a	-18.9	-18.9	-18.9	---	---	7.0	NE	0.12	8.7	-26.9	---	---	720.6	0.026	0.000	18.8	1	1
03/22/06	10:39 a	-18.9	-18.9	-18.9	---	---	7.0	NE	0.12	8.7	-26.9	---	---	720.6	0.026	0.000	18.8	1	1
03/22/06	10:40 a	-18.9	-18.9	-18.9	---	---	7.0	NE	0.12	7.8	-26.9	---	---	720.6	0.026	0.000	18.8	1	1
03/22/06	10:41 a	-18.9	-18.9	-18.9	---	---	7.0	NE	0.12	7.8	-26.9	---	---	720.6	0.026	0.000	18.8	1	1
03/22/06	10:42 a	-18.9	-18.9	-18.9	---	---	6.1	NE	0.10	7.8	-26.3	---	---	720.6	0.026	0.000	18.8	1	1
03/22/06	10:43 a	-18.9	-18.9	-18.9	---	---	7.0	NE	0.12	8.7	-26.9	---	---	720.6	0.026	0.000	18.9	1	1
03/22/06	10:44 a	-18.9	-18.9	-18.9	---	---	7.0	NE	0.12	8.7	-26.9	---	---	720.6	0.026	0.000	18.9	1	1
03/22/06	10:45 a	-18.9	-18.9	-18.9	---	---	7.8	NE	0.13	8.7	-27.4	---	---	720.6	0.026	0.000	18.9	1	1
03/22/06	10:46 a	-18.9	-18.9	-18.9	---	---	7.0	NE	0.12	7.8	-26.9	---	---	720.6	0.026	0.000	18.9	1	1
03/22/06	10:47 a	-18.9	-18.9	-18.9	---	---	7.8	NE	0.13	8.7	-27.4	---	---	720.6	0.026	0.000	18.9	1	1
03/22/06	10:48 a	-18.9	-18.9	-18.9	---	---	7.8	NE	0.13	8.7	-27.4	---	---	720.6	0.026	0.000	18.9	1	1
03/22/06	10:49 a	-18.9	-18.9	-18.9	---	---	7.8	NE	0.13	7.8	-27.4	---	---	720.5	0.026	0.000	18.9	1	1
03/22/06	10:50 a	-18.9	-18.9	-18.9	---	---	7.8	NE	0.13	7.8	-27.4	---	---	720.6	0.026	0.000	18.9	1	1
03/22/06	10:51 a	-18.9	-18.9	-18.9	---	---	7.0	NE	0.12	7.8	-26.9	---	---	720.5	0.026	0.000	18.9	1	1
03/22/06	10:52 a	-18.9	-18.9	-18.9	---	---	6.1	NNE	0.10	7.0	-26.3	---	---	720.5	0.026	0.000	18.9	1	1
03/22/06	10:53 a	-18.9	-18.9	-18.9	---	---	7.0	NE	0.12	7.8	-26.9	---	---	720.5	0.026	0.000	18.9	1	1
03/22/06	10:54 a	-18.9	-18.9	-18.9	---	---	7.0	NE	0.12	7.8	-26.9	---	---	720.6	0.026	0.000	18.9	1	1
03/22/06	10:55 a	-18.9	-18.9	-18.9	---	---	7.0	NE	0.12	7.8	-26.9	---	---	720.5	0.026	0.000	18.9	1	1
03/22/06	10:56 a	-18.9	-18.9	-18.9	---	---	7.0	NNE	0.12	8.7	-26.9	---	---	720.5	0.026	0.000	18.9	1	1
03/22/06	10:57 a	-18.9	-18.9	-18.9	---	---	7.0	NE	0.12	8.7	-26.9	---	---	720.6	0.026	0.000	18.9	1	1
03/22/06	10:58 a	-18.9	-18.9	-18.9	---	---	7.0	NNE	0.12	7.8	-27.0	---	---	720.5	0.026	0.000	18.9	1	1
03/22/06	10:59 a	-18.9	-18.9	-18.9	---	---	7.0	NE	0.12	7.8	-26.9	---	---	720.5	0.026	0.000	18.9	1	1
03/22/06	11:00 a	-18.9	-18.9	-18.9	---	---	6.1	NNE	0.10	7.8	-26.3	---	---	720.5	0.026	0.000	18.9	1	1
03/22/06	11:01 a	-18.9	-18.9	-18.9	---	---	6.1	NNE	0.10	7.8	-26.3	---	---	720.5	0.026	0.000	18.9	1	1
03/22/06	11:02 a	-18.9	-18.9	-18.9	---	---	7.0	NE	0.12	7.8	-26.9	---	---	720.5	0.026	0.000	18.9	1	1
03/22/06	11:03 a	-18.9	-18.9	-18.9	---	---	6.1	NE	0.10	7.0	-26.3	---	---	720.5	0.026	0.000	18.9	1	1
03/22/06	11:04 a	-18.9	-18.9	-18.9	---	---	5.2	NE	0.09	6.1	-25.7	---	---	720.5	0.026	0.000	18.9	1	1
03/22/06	11:05 a	-18.9	-18.9	-18.9	---	---	5.2	NNE	0.09	6.1	-25.7	---	---	720.4	0.026	0.000	18.9	1	1
03/22/06	11:06 a	-18.9	-18.9	-18.9	---	---	6.1	NE	0.10	7.0	-26.3	---	---	720.5	0.026	0.000	18.9	1	1
03/22/06	11:07 a	-18.9	-18.9	-18.9	---	---	6.1	NE	0.10	7.0	-26.3	---	---	720.4	0.026	0.000	18.9	1	1
03/22/06	11:08 a	-18.9	-18.9	-18.9	---	---	6.1	NE	0.10	7.0	-26.3	---	---	720.4	0.026	0.000	18.9	1	1
03/22/06	11:09 a	-18.9	-18.9	-18.9	---	---	6.1	NE	0.10	7.0	-26.3	---	---	720.4	0.026	0.000	18.9	1	1
03/22/06	11:10 a	-18.9	-18.9	-18.9	---	---	7.0	NE	0.12	7.8	-26.9	---	---	720.5	0.026	0.000	18.9	1	1
03/22/06	11:11 a	-18.9	-18.9	-18.9	---	---	6.1	NNE	0.10	7.0	-26.3	---	---	720.5	0.026	0.000	18.9	1	1
03/22/06	11:12 a	-18.9	-18.9	-18.9	---	---	6.1	NNE	0.10	7.0	-26.3	---	---	720.5	0.026	0.000	18.9	1	1
03/22/06	11:13 a	-18.9	-18.9	-18.9	---	---	7.0	NE	0.12	7.8	-26.9	---	---	720.4	0.026	0.000	18.9	1	1
03/22/06	11:14 a	-18.9	-18.9	-18.9	---	---	5.2	NNE	0.09	7.0	-25.7	---	---	720.5	0.026	0.000	18.9	1	1
03/22/06	11:15 a	-18.9	-18.9	-18.9	---	---	5.2	NNE	0.09	7.0	-25.7	---	---	720.5	0.026	0.000	18.9	1	1
03/22/06	11:16 a	-18.9	-18.8	-18.9	---	---	6.1	NE	0.10	7.0	-26.3	---	---	720.5	0.026	0.000	18.9	1	1
03/22/06	11:17 a	-18.9	-18.9	-18.9	---	---	4.3	NNE	0.07	7.0	-24.9	---	---	720.5	0.026	0.000	18.9	1	1
03/22/06	11:18 a	-18.9	-18.8	-18.9	---	---	1.7	NNE	0.03	2.6	-21.3	---	---	720.5	0.026	0.000	18.9	1	1
03/22/06	11:19 a	-18.9	-18.8	-18.9	---	---	1.7	NNE	0.03	2.6	-21.3	---	---	720.5	0.026	0.000	18.9	1	1
03/22/06	11:20 a	-18.8	-18.8	-18.9	---	---	1.7	NNE	0.03	2.6	-21.2	---	---	720.5	0.026	0.000	18.9	1	1
03/22/06	11:21 a	-18.8	-18.8	-18.9	---	---	1.7	NNE	0.03	2.6	-21.2	---	---	720.5	0.026	0.000	18.9	1	1
03/22/06	11:22 a	-18.8	-18.8	-18.8	---	---	0.9	NNE	0.01	1.7	-18.8	---	---	720.5	0.026	0.000	18.9	1	1
03/22/06	11:23 a	-18.8	-18.8	-18.8	---	---	0.9	NNE	0.01	1.7	-18.8	---	---	720.4	0.026	0.000	18.9	1	1
03/22/06	11:24 a	-18.8	-18.8	-18.8	---	---	0.9	NNE	0.01	0.9	-18.8	---	---	720.4	0.026	0.000	18.9	1	1
03/22/06	11:25 a	-18.8	-18.8	-18.8	---	---	0.9	NNE	0.01	1.7	-18.8	---	---	720.4	0.026	0.000	18.9	1	1
03/22/06	11:26 a	-18.8	-18.8	-18.8	---	---	0.9	NNE	0.01	1.7	-18.8	---	---	720.5	0.026	0.000	18.9	1	1
03/22/06	11:27 a	-18.8	-18.8	-18.8	---	---	0.9	NNE	0.01	1.7	-18.8	---	---	720.5	0.026	0.000	18.9	1	1
03/22/06	11:28 a	-18.8	-18.8	-18.8	---	---	0.0	NNE	0.00	0.9	-18.7	---	---	720.5	0.026	0.000	18.9	1	1
03/22/06	11:29 a	-18.8	-18.8	-18.8	---	---	0.0	NNE	0.00	0.9	-18.7	---	---	720.5	0.026	0.000	18.9	1	1
03/22/06	11:30 a	-18.8	-18.8	-18.8	---	---	0.0	NNE	0.00	0.9	-18.7	---	---	720.5	0.026	0.000	18.9	1	1
03/22/06	11:31 a	-18.8	-18.8	-18.8	---	---	0.0	NNE	0.00	0.9	-18.7	---	---	720.5	0.026	0.000	18.9	1	1
03/22/06	11:32 a	-18.8	-18.8	-18.8	---	---	0.9	NNE	0.01	0.9	-18.8	---	---	720.5	0.026	0.000	18.9	1	1
03/22/06	11:33 a	-18.8	-18.7	-18.8	---	---	0.0	NNE	0.00	0.9	-18.7	---	---	720.4	0.026	0.000	18.9	1	1
03/22/06	11:34 a	-18.8	-18.7	-18.8	---	---	0.9	NNE	0.01	1.7	-18.8	---	---	720.5	0.026	0.000	18.9	1	1
03/22/06	11:35 a	-18.8	-18.7	-18.8	---	---	2.6	NNE	0.04	2.6	-22.7	---	---	720.5	0.026	0.000	18.9	1	1
03/22/06	11:36 a	-18.8	-18.8	-18.8	---	---	2.6	NE	0.04	3.5	-22.7	---	---	720.4	0.026	0.000	18.9	1	1
03/22/06	11:37 a	-18.8	-18.7	-18.8	---	---	3.5	NE	0.06	4.3	-23.8	---	---	720.4	0.026	0.000	18.9	1	1
03/22/06	11:38 a	-18.7	-18.7	-18.8	---	---	4.3	NE	0.07	5.2	-24.7	---	---	720.4	0.026	0.000	18.9	1	1
03/22/06	11:39 a	-18.8	-18.7	-18.8	---	---	4.3	NE	0.07	6.1	-24.7	---	---	720.4	0.026	0.000	18.9	1	1
03/22/06	11:40 a	-18.8	-18.7	-18.8	---	---	5.2	NE	0.09	7.0	-25.5	---	---	720.4	0.026	0.000	18.9	1	1
03/22/06	11:41 a	-18.8	-18.8	-18.8	---	---	6.1	NE	0.10	7.0	-26.2	---	---	720.4	0.026	0.000	19.0	1	1
03/22/06	11:42 a	-18.8	-18.8	-18.8	---	---	5.2	NE	0.09	6.1	-25.5	---	---	720.5	0.026	0.000	19.0	1	1
03/22/06	11:43 a	-18.8	-18.8	-18.8	---	---	6.1	NE	0.10	7.0	-26.2	---	---	720.4	0.026	0.000	19.0	1	1
03/22/06	11:44 a	-18.8	-18.8	-18.8	---	---	6.1	NE	0.10	7.0	-26.2	---	---	720.4	0.026	0.000	19.0	1	1
03/22/06	11:45 a	-18.8	-18.8	-18.8	---	---	6.1	NE	0.10	7.0	-26.2	---	---	720.4	0.026	0.000	19.0	1	1
03/22/06	11:46 a	-18.8	-18.8	-18.8	---	---	6.1	NE	0.10	7.8	-26.2	---	---	720.4	0.026	0.000	19.0	1	1
03/22/06	11:47 a	-18.8	-18.8	-18.8	---	---	6.1	NE	0.10	7.8	-26.2	---	---	720.4	0.026	0.000	19.0	1	1
03/22/06	11:48 a	-18.8	-18.8	-18.8	---	---	6.1	NE	0.10	7.8	-26.2	---	---	720.3	0.026	0.000	19.0	1	1
03/22/06	11:49 a	-18.8	-18.8	-18.8	---	---	7.8	NE	0.13	7.8	-27.3	---	---	720.4	0.026	0.000	19.1	1	1
03/22/06	11:50 a	-18.8	-18.8	-18.8	---	---	6.1	NE	0.10	7.8	-26.2	---	---	720.4	0.026	0.000	19.0	1	1
03/22/06	11:51 a	-18.8	-18.8	-18.8	---	---	6.1	NE	0.10	7.0	-26.2	---	---	720.4	0.026	0.000	19.0	1	1
03/22/06	11:52 a	-18.8	-18.8	-18.8	---	---	5.2	NNE	0.09	7.0	-25.6	---	---	720.4	0.026	0.000	19.0	1	1
03/22/06	11:53 a	-18.8	-18.8	-18.8	---	---	5.2	NE	0.09	7.0	-25.6	---	---	720.4	0.026	0.000	19.0	1	1
03/22/06	11:54 a	-18.8	-18.8	-18.8	---	---	7.0	NE	0.12	8.7	-26.8	---	---	720.5	0.026	0.000	19.0	1	1
03/22/06	11:55 a	-18.8	-18.8	-18.8	---	---	8.7	NE	0.14	9.6	-27.9	---	---	720.4	0.026	0.000	19.0	1	1
03/22/06	11:56 a	-18.8	-18.8	-18.8	---	---	8.7	NNE	0.14	10.4	-27.9	---	---	720.4	0.026	0.000	19.0	1	1
03/22/06	11:57 a	-18.9	-18.8	-18.9	---	---	7.0	NNE	0.12	8.7	-26.9	---	---	720.3	0.026	0.000	19.0	1	1
03/22/06	11:58 a	-18.8	-18.8	-18.9	---	---	7.8	NE	0.13	8.7	-27.4	---	---	720.5	0.026	0.000	19.0	1	1
03/22/06	11:59 a	-18.8	-18.8	-18.8	---	---	6.1	NE	0.10	7.8	-26.3	---	---	720.4	0.026	0.000	19.0	1	1
03/22/06	12:00 p	-18.9	-18.8	-18.9	---	---	6.1	NNE	0.10	7.8	-26.3	---	---	720.4	0.026	0.000	19.0	1	1
03/22/06	12:01 p	-18.8	-18.8	-18.9	---	---	7.0	NNE	0.12	8.7	-26.8	---	---	720.3	0.026	0.000	19.0	1	1
03/22/06	12:02 p	-18.9	-18.9	-18.9	---	---	7.0	NE	0.12	8.7	-26.9	---	---	720.4	0.026	0.000	19.0	1	1
03/22/06	12:03 p	-18.9	-18.8	-18.9	---	---	7.8	NE	0.13	10.4	-27.4	---	---	720.4	0.026	0.000	19.0	1	1
03/22/06	12:04 p	-18.9	-18.9	-18.9	---	---	7.8	NE	0.13	9.6	-27.4	---	---	720.4	0.026	0.000	19.0	1	1
03/22/06	12:05 p	-18.9	-18.9	-18.9	---	---	7.8	NE	0.13	8.7	-27.4	---	---	720.4	0.026	0.000	19.0	1	1
03/22/06	12:06 p	-18.9	-18.9	-18.9	---	---	7.8	NE	0.13	8.7	-27.4	---	---	720.4	0.026	0.000	19.0	1	1
03/22/06	12:07 p	-18.9	-18.9	-18.9	---	---	8.7	NE	0.14	9.6	-27.9	---	---	720.3	0.026	0.000	19.0	1	1
03/22/06	12:08 p	-18.9	-18.9	-18.9	---	---	8.7	NE	0.14	9.6	-27.9	---	---	720.4	0.026	0.000	19.0	1	1
03/22/06	12:09 p	-18.9	-18.9	-18.9	---	---	7.8	NE	0.13	9.6	-27.4	---	---	720.4	0.026	0.000	19.0	1	1
03/22/06	12:10 p	-18.9	-18.9	-18.9	---	---	7.8	NE	0.13	8.7	-27.4	---	---	720.4	0.026	0.000	19.0	1	1
03/22/06	12:11 p	-18.9	-18.9	-18.9	---	---	8.7	NE	0.14	8.7	-28.0	---	---	720.3	0.026	0.000	19.0	1	1
03/22/06	12:12 p	-18.9	-18.9	-18.9	---	---	8.7	NE	0.14	9.6	-28.0	---	---	720.3	0.026	0.000	19.0	1	1
03/22/06	12:13 p	-18.9	-18.9	-18.9	---	---	7.8	NE	0.13	8.7	-27.6	---	---	720.4	0.026	0.000	19.0	1	1
03/22/06	12:14 p	-18.9	-18.9	-18.9	---	---	7.8	NE	0.13	8.7	-27.6	---	---	720.3	0.026	0.000	19.0	1	1
03/22/06	12:15 p	-18.9	-18.9	-18.9	---	---	8.7	NE	0.14	9.6	-28.0	---	---	720.4	0.026	0.000	19.0	1	1
03/22/06	12:16 p	-18.9	-18.9	-18.9	---	---	7.8	NE	0.13	8.7	-27.6	---	---	720.3	0.026	0.000	19.0	1	1
03/22/06	12:17 p	-18.9	-18.9	-18.9	---	---	8.7	NE	0.14	8.7	-28.0	---	---	720.3	0.026	0.000	19.0	1	1
03/22/06	12:18 p	-18.9	-18.9	-18.9	---	---	7.8	NE	0.13	8.7	-27.6	---	---	720.3	0.026	0.000	19.0	1	1
03/22/06	12:19 p	-19.0	-18.9	-19.0	---	---	7.0	NE	0.12	8.7	-27.1	---	---	720.4	0.026	0.000	19.0	1	1
03/22/06	12:20 p	-18.9	-18.9	-19.0	---	---	8.7	NE	0.14	9.6	-28.0	---	---	720.4	0.026	0.000	19.0	1	1
03/22/06	12:21 p	-18.9	-18.9	-19.0	---	---	8.7	NE	0.14	8.7	-28.0	---	---	720.3	0.026	0.000	19.0	1	1
03/22/06	12:22 p	-18.9	-18.9	-19.0	---	---	7.8	NNE	0.13	8.7	-27.6	---	---	720.4	0.026	0.000	19.0	1	1
03/22/06	12:23 p	-19.0	-19.0	-19.0	---	---	7.0	NNE	0.12	8.7	-27.1	---	---	720.4	0.026	0.000	19.0	1	1
03/22/06	12:24 p	-18.9	-18.9	-18.9	---	---	7.0	NNE	0.12	7.8	-27.0	---	---	720.3	0.026	0.000	19.1	1	1
03/22/06	12:25 p	-19.0	-18.9	-19.0	---	---	7.8	NE	0.13	8.7	-27.6	---	---	720.4	0.026	0.000	19.1	1	1
03/22/06	12:26 p	-18.9	-18.9	-19.0	---	---	7.8	NE	0.13	8.7	-27.6	---	---	720.3	0.026	0.000	19.1	1	1
03/22/06	12:27 p	-19.0	-18.9	-19.0	---	---	5.2	NNE	0.09	7.0	-25.8	---	---	720.4	0.026	0.000	19.1	1	1
03/22/06	12:28 p	-19.0	-18.9	-19.0	---	---	7.0	NE	0.12	7.8	-27.1	---	---	720.3	0.026	0.000	19.1	1	1
03/22/06	12:29 p	-19.0	-19.0	-19.0	---	---	5.2	NE	0.09	6.1	-25.8	---	---	720.3	0.026	0.000	19.1	1	1
03/22/06	12:30 p	-19.0	-19.0	-19.1	---	---	8.7	NE	0.14	9.6	-28.1	---	---	720.3	0.026	0.000	19.1	1	1
03/22/06	12:31 p	-19.0	-19.0	-19.0	---	---	7.8	NE	0.13	9.6	-27.6	---	---	720.3	0.026	0.000	19.1	1	1
03/22/06	12:32 p	-19.1	-19.0	-19.1	---	---	9.6	NE	0.16	11.3	-28.6	---	---	720.2	0.026	0.000	19.1	1	1
03/22/06	12:33 p	-19.1	-19.0	-19.1	---	---	9.6	NE	0.16	10.4	-28.6	---	---	720.3	0.026	0.000	19.1	1	1
03/22/06	12:34 p	-19.1	-19.0	-19.1	---	---	8.7	NE	0.14	9.6	-28.2	---	---	720.3	0.026	0.000	19.1	1	1
03/22/06	12:35 p	-19.1	-19.1	-19.1	---	---	7.0	NE	0.12	8.7	-27.1	---	---	720.3	0.026	0.000	19.1	1	1
03/22/06	12:36 p	-19.1	-19.1	-19.1	---	---	8.7	NE	0.14	10.4	-28.2	---	---	720.2	0.026	0.000	19.1	1	1
03/22/06	12:37 p	-19.1	-19.1	-19.1	---	---	7.0	NE	0.12	9.6	-27.1	---	---	720.3	0.026	0.000	19.1	1	1
03/22/06	12:38 p	-19.1	-19.1	-19.1	---	---	7.8	NE	0.13	8.7	-27.7	---	---	720.3	0.026	0.000	19.1	1	1
03/22/06	12:39 p	-19.1	-19.1	-19.1	---	---	8.7	NE	0.14	9.6	-28.2	---	---	720.3	0.026	0.000	19.1	1	1
03/22/06	12:40 p	-19.1	-19.1	-19.1	---	---	5.2	NE	0.09	7.8	-25.9	---	---	720.3	0.026	0.000	19.1	1	1
03/22/06	12:41 p	-19.1	-19.1	-19.1	---	---	7.8	NE	0.13	9.6	-27.7	---	---	720.3	0.026	0.000	19.1	1	1
03/22/06	12:42 p	-19.1	-19.1	-19.1	---	---	9.6	NE	0.16	10.4	-28.7	---	---	720.2	0.026	0.000	19.1	1	1
03/22/06	12:43 p	-19.1	-19.1	-19.1	---	---	9.6	NE	0.16	12.2	-28.7	---	---	720.3	0.026	0.000	19.1	1	1
03/22/06	12:44 p	-19.1	-19.1	-19.2	---	---	7.8	ENE	0.13	10.4	-27.7	---	---	720.2	0.026	0.000	19.1	1	1
03/22/06	12:45 p	-19.2	-19.1	-19.2	---	---	7.0	NE	0.12	11.3	-27.3	---	---	720.3	0.026	0.000	19.1	1	1
03/22/06	12:46 p	-19.2	-19.2	-19.2	---	---	9.6	NE	0.16	11.3	-28.8	---	---	720.4	0.026	0.000	19.1	1	1
03/22/06	12:47 p	-19.2	-19.2	-19.2	---	---	6.1	NE	0.10	8.7	-26.7	---	---	720.3	0.026	0.000	19.1	1	1
03/22/06	12:48 p	-19.2	-19.2	-19.2	---	---	10.4	NE	0.17	11.3	-29.2	---	---	720.2	0.026	0.000	19.1	1	1
03/22/06	12:49 p	-19.2	-19.2	-19.2	---	---	9.6	NE	0.16	10.4	-28.8	---	---	720.2	0.026	0.000	19.1	1	1
03/22/06	12:50 p	-19.2	-19.2	-19.2	---	---	7.0	NE	0.12	8.7	-27.3	---	---	720.3	0.026	0.000	19.1	1	1
03/22/06	12:51 p	-19.3	-19.2	-19.3	---	---	9.6	NE	0.16	13.0	-28.9	---	---	720.2	0.026	0.000	19.1	1	1
03/22/06	12:52 p	-19.3	-19.3	-19.3	---	---	9.6	NE	0.16	11.3	-28.9	---	---	720.3	0.026	0.000	19.1	1	1
03/22/06	12:53 p	-19.3	-19.3	-19.3	---	---	6.1	NE	0.10	7.0	-26.8	---	---	720.3	0.026	0.000	19.1	1	1
03/22/06	12:54 p	-19.3	-19.3	-19.3	---	---	9.6	NE	0.16	12.2	-28.9	---	---	720.2	0.026	0.000	19.1	1	1
03/22/06	12:55 p	-19.3	-19.3	-19.3	---	---	9.6	NE	0.16	10.4	-28.9	---	---	720.1	0.026	0.000	19.1	1	1
03/22/06	12:56 p	-19.3	-19.3	-19.3	---	---	8.7	NE	0.14	10.4	-28.5	---	---	720.3	0.026	0.000	19.1	1	1
03/22/06	12:57 p	-19.3	-19.3	-19.3	---	---	7.0	NE	0.12	8.7	-27.4	---	---	720.3	0.026	0.000	19.1	1	1
03/22/06	12:58 p	-19.3	-19.3	-19.3	---	---	9.6	NE	0.16	11.3	-28.9	---	---	720.2	0.026	0.000	19.1	1	1
03/22/06	12:59 p	-19.3	-19.3	-19.3	---	---	8.7	NE	0.14	10.4	-28.5	---	---	720.2	0.026	0.000	19.1	1	1
03/22/06	1:00 p	-19.3	-19.3	-19.3	---	---	11.3	NE	0.19	13.0	-29.8	---	---	720.2	0.026	0.000	19.1	1	1
03/22/06	1:01 p	-19.4	-19.3	-19.4	---	---	10.4	NE	0.17	11.3	-29.4	---	---	720.2	0.026	0.000	19.1	1	1
03/22/06	1:02 p	-19.4	-19.3	-19.4	---	---	9.6	NE	0.16	11.3	-29.1	---	---	720.1	0.026	0.000	19.1	1	1
03/22/06	1:03 p	-19.4	-19.4	-19.4	---	---	8.7	NE	0.14	10.4	-28.6	---	---	720.2	0.026	0.000	19.1	1	1
03/22/06	1:04 p	-19.4	-19.4	-19.4	---	---	8.7	NE	0.14	9.6	-28.6	---	---	720.2	0.026	0.000	19.1	1	1
03/22/06	1:05 p	-19.4	-19.4	-19.4	---	---	7.0	NE	0.12	10.4	-27.6	---	---	720.2	0.026	0.000	19.1	1	1
03/22/06	1:06 p	-19.4	-19.4	-19.4	---	---	10.4	NE	0.17	11.3	-29.4	---	---	720.1	0.026	0.000	19.1	1	1
03/22/06	1:07 p	-19.4	-19.4	-19.4	---	---	10.4	NE	0.17	12.2	-29.5	---	---	720.2	0.026	0.000	19.1	1	1
03/22/06	1:08 p	-19.5	-19.4	-19.5	---	---	9.6	NE	0.16	10.4	-29.2	---	---	720.1	0.026	0.000	19.1	1	1
03/22/06	1:09 p	-19.4	-19.4	-19.4	---	---	9.6	NE	0.16	12.2	-29.1	---	---	720.2	0.026	0.000	19.1	1	1
03/22/06	1:10 p	-19.4	-19.4	-19.5	---	---	10.4	NE	0.17	11.3	-29.5	---	---	720.2	0.026	0.000	19.1	1	1
03/22/06	1:11 p	-19.5	-19.5	-19.5	---	---	10.4	NE	0.17	11.3	-29.6	---	---	720.1	0.026	0.000	19.1	1	1
03/22/06	1:12 p	-19.5	-19.5	-19.5	---	---	8.7	NE	0.14	10.4	-28.7	---	---	720.1	0.026	0.000	19.1	1	1
03/22/06	1:13 p	-19.5	-19.5	-19.5	---	---	11.3	NE	0.19	12.2	-30.0	---	---	720.1	0.026	0.000	19.1	1	1
03/22/06	1:14 p	-19.5	-19.5	-19.5	---	---	8.7	NE	0.14	10.4	-28.7	---	---	720.2	0.026	0.000	19.1	1	1
03/22/06	1:15 p	-19.5	-19.5	-19.5	---	---	9.6	NE	0.16	12.2	-29.2	---	---	720.2	0.026	0.000	19.2	1	1
03/22/06	1:16 p	-19.5	-19.5	-19.5	---	---	11.3	NE	0.19	12.2	-30.0	---	---	720.1	0.026	0.000	19.2	1	1
03/22/06	1:17 p	-19.6	-19.5	-19.6	---	---	7.8	NE	0.13	10.4	-28.3	---	---	720.1	0.026	0.000	19.2	1	1
03/22/06	1:18 p	-19.5	-19.5	-19.5	---	---	9.6	NE	0.16	10.4	-29.2	---	---	720.1	0.026	0.000	19.2	1	1
03/22/06	1:19 p	-19.5	-19.5	-19.6	---	---	8.7	NE	0.14	10.4	-28.7	---	---	720.2	0.026	0.000	19.2	1	1
03/22/06	1:20 p	-19.6	-19.6	-19.6	---	---	11.3	NE	0.19	12.2	-30.1	---	---	720.1	0.026	0.000	19.2	1	1
03/22/06	1:21 p	-19.6	-19.6	-19.6	---	---	9.6	NE	0.16	10.4	-29.2	---	---	720.1	0.026	0.000	19.2	1	1
03/22/06	1:22 p	-19.6	-19.6	-19.6	---	---	9.6	NE	0.16	11.3	-29.2	---	---	720.1	0.026	0.000	19.2	1	1
03/22/06	1:23 p	-19.6	-19.6	-19.6	---	---	9.6	NE	0.16	12.2	-29.2	---	---	720.1	0.026	0.000	19.3	1	1
03/22/06	1:24 p	-19.6	-19.6	-19.6	---	---	10.4	NE	0.17	11.3	-29.7	---	---	720.1	0.026	0.000	19.3	1	1
03/22/06	1:25 p	-19.6	-19.6	-19.6	---	---	10.4	NE	0.17	11.3	-29.7	---	---	720.2	0.026	0.000	19.3	1	1
03/22/06	1:26 p	-19.6	-19.6	-19.6	---	---	10.4	NE	0.17	12.2	-29.7	---	---	720.1	0.026	0.000	19.3	1	1
03/22/06	1:27 p	-19.6	-19.6	-19.6	---	---	11.3	NE	0.19	13.0	-30.1	---	---	720.2	0.026	0.000	19.3	1	1
03/22/06	1:28 p	-19.6	-19.6	-19.6	---	---	7.8	NE	0.13	8.7	-28.3	---	---	720.1	0.026	0.000	19.3	1	1
03/22/06	1:29 p	-19.6	-19.6	-19.6	---	---	10.4	NE	0.17	11.3	-29.7	---	---	720.2	0.026	0.000	19.3	1	1
03/22/06	1:30 p	-19.6	-19.6	-19.6	---	---	11.3	NE	0.19	13.9	-30.1	---	---	720.1	0.026	0.000	19.3	1	1
03/22/06	1:31 p	-19.6	-19.6	-19.6	---	---	10.4	NE	0.17	13.0	-29.7	---	---	720.1	0.026	0.000	19.3	1	1
03/22/06	1:32 p	-19.6	-19.6	-19.6	---	---	9.6	NE	0.16	10.4	-29.3	---	---	720.1	0.026	0.000	19.3	1	1
03/22/06	1:33 p	-19.6	-19.6	-19.7	---	---	9.6	NE	0.16	11.3	-29.3	---	---	720.1	0.026	0.000	19.3	1	1
03/22/06	1:34 p	-19.6	-19.6	-19.7	---	---	10.4	NE	0.17	11.3	-29.7	---	---	720.0	0.026	0.000	19.3	1	1
03/22/06	1:35 p	-19.6	-19.6	-19.6	---	---	9.6	NE	0.16	11.3	-29.3	---	---	720.1	0.026	0.000	19.3	1	1
03/22/06	1:36 p	-19.6	-19.6	-19.6	---	---	8.7	NE	0.14	10.4	-28.8	---	---	720.1	0.026	0.000	19.3	1	1
03/22/06	1:37 p	-19.6	-19.6	-19.6	---	---	9.6	NE	0.16	10.4	-29.3	---	---	720.1	0.026	0.000	19.3	1	1
03/22/06	1:38 p	-19.7	-19.6	-19.7	---	---	8.7	NE	0.14	10.4	-28.9	---	---	720.1	0.026	0.000	19.3	1	1
03/22/06	1:39 p	-19.7	-19.6	-19.7	---	---	8.7	NE	0.14	10.4	-28.9	---	---	720.1	0.026	0.000	19.3	1	1
03/22/06	1:40 p	-19.6	-19.6	-19.6	---	---	9.6	NE	0.16	11.3	-29.3	---	---	720.1	0.026	0.000	19.3	1	1
03/22/06	1:41 p	-19.7	-19.6	-19.7	---	---	9.6	NE	0.16	10.4	-29.4	---	---	720.0	0.026	0.000	19.3	1	1
03/22/06	1:42 p	-19.6	-19.6	-19.6	---	---	9.6	NE	0.16	11.3	-29.3	---	---	720.1	0.026	0.000	19.3	1	1
03/22/06	1:43 p	-19.7	-19.6	-19.7	---	---	10.4	NE	0.17	11.3	-29.8	---	---	720.2	0.026	0.000	19.3	1	1
03/22/06	1:44 p	-19.6	-19.6	-19.7	---	---	10.4	NE	0.17	11.3	-29.7	---	---	720.1	0.026	0.000	19.3	1	1
03/22/06	1:45 p	-19.7	-19.7	-19.7	---	---	8.7	NNE	0.14	11.3	-28.9	---	---	720.1	0.026	0.000	19.3	1	1
03/22/06	1:46 p	-19.7	-19.7	-19.7	---	---	6.1	NE	0.10	7.8	-27.3	---	---	720.1	0.026	0.000	19.3	1	1
03/22/06	1:47 p	-19.7	-19.7	-19.7	---	---	9.6	NE	0.16	10.4	-29.4	---	---	720.0	0.026	0.000	19.3	1	1
03/22/06	1:48 p	-19.7	-19.6	-19.7	---	---	9.6	NE	0.16	10.4	-29.4	---	---	720.1	0.026	0.000	19.3	1	1
03/22/06	1:49 p	-19.7	-19.6	-19.7	---	---	8.7	NE	0.14	10.4	-28.9	---	---	720.1	0.026	0.000	19.3	1	1
03/22/06	1:50 p	-19.7	-19.7	-19.7	---	---	8.7	NE	0.14	10.4	-28.9	---	---	720.1	0.026	0.000	19.3	1	1
03/22/06	1:51 p	-19.7	-19.7	-19.7	---	---	7.8	NE	0.13	9.6	-28.4	---	---	720.1	0.026	0.000	19.3	1	1
03/22/06	1:52 p	-19.7	-19.7	-19.7	---	---	8.7	NE	0.14	10.4	-28.9	---	---	720.1	0.026	0.000	19.3	1	1
03/22/06	1:53 p	-19.7	-19.7	-19.7	---	---	7.8	NE	0.13	8.7	-28.4	---	---	720.1	0.026	0.000	19.3	1	1
03/22/06	1:54 p	-19.7	-19.7	-19.7	---	---	8.7	NE	0.14	10.4	-28.9	---	---	720.1	0.026	0.000	19.3	1	1
03/22/06	1:55 p	-19.7	-19.7	-19.7	---	---	8.7	NE	0.14	10.4	-28.9	---	---	720.0	0.026	0.000	19.3	1	1
03/22/06	1:56 p	-19.7	-19.7	-19.7	---	---	7.8	NE	0.13	9.6	-28.4	---	---	720.1	0.026	0.000	19.3	1	1
03/22/06	1:57 p	-19.7	-19.7	-19.7	---	---	9.6	NE	0.16	12.2	-29.4	---	---	719.9	0.026	0.000	19.3	1	1
03/22/06	1:58 p	-19.7	-19.7	-19.7	---	---	9.6	NE	0.16	10.4	-29.4	---	---	720.1	0.026	0.000	19.3	1	1
03/22/06	1:59 p	-19.7	-19.7	-19.7	---	---	9.6	NE	0.16	10.4	-29.4	---	---	720.0	0.026	0.000	19.3	1	1
03/22/06	2:00 p	-19.7	-19.7	-19.7	---	---	9.6	NE	0.16	11.3	-29.4	---	---	720.1	0.026	0.000	19.3	1	1
03/22/06	2:01 p	-19.7	-19.7	-19.7	---	---	9.6	NE	0.16	11.3	-29.4	---	---	720.0	0.026	0.000	19.3	1	1
03/22/06	2:02 p	-19.7	-19.7	-19.7	---	---	9.6	NE	0.16	11.3	-29.4	---	---	720.2	0.026	0.000	19.3	1	1
03/22/06	2:03 p	-19.7	-19.7	-19.7	---	---	9.6	NE	0.16	10.4	-29.4	---	---	720.0	0.026	0.000	19.3	1	1
03/22/06	2:04 p	-19.7	-19.7	-19.7	---	---	7.0	NE	0.12	8.7	-27.9	---	---	720.0	0.026	0.000	19.3	1	1
03/22/06	2:05 p	-19.7	-19.7	-19.7	---	---	10.4	NE	0.17	11.3	-29.8	---	---	720.0	0.026	0.000	19.3	1	1
03/22/06	2:06 p	-19.7	-19.7	-19.7	---	---	9.6	NE	0.16	10.4	-29.4	---	---	720.1	0.026	0.000	19.3	1	1
03/22/06	2:07 p	-19.7	-19.7	-19.7	---	---	7.8	NE	0.13	10.4	-28.5	---	---	720.0	0.026	0.000	19.3	1	1
03/22/06	2:08 p	-19.7	-19.7	-19.7	---	---	9.6	NE	0.16	12.2	-29.4	---	---	720.0	0.026	0.000	19.3	1	1
03/22/06	2:09 p	-19.7	-19.7	-19.7	---	---	9.6	NE	0.16	10.4	-29.4	---	---	720.1	0.026	0.000	19.3	1	1
03/22/06	2:10 p	-19.7	-19.7	-19.7	---	---	8.7	NE	0.14	9.6	-29.0	---	---	720.0	0.026	0.000	19.3	1	1
03/22/06	2:11 p	-19.7	-19.7	-19.7	---	---	10.4	NE	0.17	11.3	-29.9	---	---	720.0	0.026	0.000	19.3	1	1
03/22/06	2:12 p	-19.7	-19.7	-19.7	---	---	9.6	NE	0.16	11.3	-29.4	---	---	720.0	0.026	0.000	19.3	1	1
03/22/06	2:13 p	-19.7	-19.7	-19.7	---	---	7.0	NE	0.12	9.6	-27.9	---	---	720.0	0.026	0.000	19.3	1	1
03/22/06	2:14 p	-19.7	-19.7	-19.7	---	---	11.3	NE	0.19	12.2	-30.3	---	---	720.0	0.026	0.000	19.3	1	1
03/22/06	2:15 p	-19.7	-19.7	-19.7	---	---	9.6	NE	0.16	10.4	-29.4	---	---	720.0	0.026	0.000	19.3	1	1
03/22/06	2:16 p	-19.7	-19.7	-19.7	---	---	7.8	NE	0.13	10.4	-28.5	---	---	720.0	0.026	0.000	19.3	1	1
03/22/06	2:17 p	-19.7	-19.7	-19.7	---	---	10.4	NE	0.17	12.2	-29.9	---	---	720.0	0.026	0.000	19.3	1	1
03/22/06	2:18 p	-19.7	-19.7	-19.7	---	---	9.6	NE	0.16	10.4	-29.4	---	---	720.0	0.026	0.000	19.3	1	1
03/22/06	2:19 p	-19.7	-19.7	-19.7	---	---	10.4	NE	0.17	11.3	-29.9	---	---	720.0	0.026	0.000	19.3	1	1
03/22/06	2:20 p	-19.7	-19.7	-19.7	---	---	8.7	NE	0.14	10.4	-29.0	---	---	720.0	0.026	0.000	19.3	1	1
03/22/06	2:21 p	-19.7	-19.7	-19.8	---	---	10.4	NE	0.17	11.3	-29.9	---	---	720.1	0.026	0.000	19.3	1	1
03/22/06	2:22 p	-19.7	-19.7	-19.7	---	---	7.8	NE	0.13	10.4	-28.5	---	---	720.0	0.026	0.000	19.3	1	1
03/22/06	2:23 p	-19.8	-19.7	-19.8	---	---	10.4	NE	0.17	12.2	-29.9	---	---	719.9	0.026	0.000	19.3	1	1
03/22/06	2:24 p	-19.7	-19.7	-19.8	---	---	9.6	NE	0.16	11.3	-29.4	---	---	720.0	0.026	0.000	19.3	1	1
03/22/06	2:25 p	-19.7	-19.7	-19.7	---	---	5.2	NNE	0.09	8.7	-26.6	---	---	720.0	0.026	0.000	19.3	1	1
03/22/06	2:26 p	-19.7	-19.7	-19.7	---	---	8.7	NE	0.14	10.4	-29.0	---	---	720.0	0.026	0.000	19.3	1	1
03/22/06	2:27 p	-19.7	-19.7	-19.7	---	---	10.4	NE	0.17	10.4	-29.9	---	---	720.0	0.026	0.000	19.3	1	1
03/22/06	2:28 p	-19.7	-19.7	-19.7	---	---	7.8	NE	0.13	10.4	-28.5	---	---	720.0	0.026	0.000	19.3	1	1
03/22/06	2:29 p	-19.7	-19.7	-19.7	---	---	9.6	NE	0.16	11.3	-29.4	---	---	720.1	0.026	0.000	19.3	1	1
03/22/06	2:30 p	-19.7	-19.7	-19.7	---	---	7.0	NE	0.12	10.4	-27.9	---	---	720.1	0.026	0.000	19.3	1	1
03/22/06	2:31 p	-19.7	-19.7	-19.7	---	---	10.4	NE	0.17	12.2	-29.9	---	---	720.0	0.026	0.000	19.3	1	1
03/22/06	2:32 p	-19.7	-19.7	-19.7	---	---	9.6	NE	0.16	10.4	-29.4	---	---	720.0	0.026	0.000	19.3	1	1
03/22/06	2:33 p	-19.7	-19.7	-19.7	---	---	10.4	NE	0.17	11.3	-29.9	---	---	720.0	0.026	0.000	19.3	1	1
03/22/06	2:34 p	-19.7	-19.7	-19.7	---	---	9.6	NE	0.16	9.6	-29.4	---	---	720.0	0.026	0.000	19.3	1	1
03/22/06	2:35 p	-19.7	-19.7	-19.7	---	---	8.7	NE	0.14	10.4	-29.0	---	---	720.0	0.026	0.000	19.3	1	1
03/22/06	2:36 p	-19.7	-19.7	-19.7	---	---	8.7	NE	0.14	9.6	-29.0	---	---	720.0	0.026	0.000	19.3	1	1
03/22/06	2:37 p	-19.7	-19.7	-19.7	---	---	8.7	NE	0.14	8.7	-29.0	---	---	720.0	0.026	0.000	19.3	1	1
03/22/06	2:38 p	-19.7	-19.7	-19.7	---	---	8.7	NE	0.14	10.4	-29.0	---	---	720.1	0.026	0.000	19.3	1	1
03/22/06	2:39 p	-19.7	-19.7	-19.7	---	---	9.6	NE	0.16	10.4	-29.4	---	---	720.1	0.026	0.000	19.3	1	1
03/22/06	2:40 p	-19.7	-19.7	-19.7	---	---	9.6	NE	0.16	10.4	-29.4	---	---	720.1	0.026	0.000	19.3	1	1
03/22/06	2:41 p	-19.7	-19.7	-19.7	---	---	8.7	NE	0.14	10.4	-28.9	---	---	720.0	0.026	0.000	19.3	1	1
03/22/06	2:42 p	-19.7	-19.7	-19.7	---	---	8.7	NE	0.14	9.6	-28.9	---	---	720.1	0.026	0.000	19.3	1	1
03/22/06	2:43 p	-19.7	-19.7	-19.7	---	---	8.7	NE	0.14	8.7	-28.9	---	---	720.1	0.026	0.000	19.3	1	1
03/22/06	2:44 p	-19.7	-19.7	-19.7	---	---	8.7	NE	0.14	9.6	-28.9	---	---	720.1	0.026	0.000	19.3	1	1
03/22/06	2:45 p	-19.7	-19.7	-19.7	---	---	8.7	NE	0.14	9.6	-28.9	---	---	720.0	0.026	0.000	19.3	1	1
03/22/06	2:46 p	-19.7	-19.6	-19.7	---	---	7.8	NE	0.13	9.6	-28.4	---	---	720.0	0.026	0.000	19.3	1	1
03/22/06	2:47 p	-19.7	-19.7	-19.7	---	---	8.7	NE	0.14	9.6	-28.9	---	---	720.0	0.026	0.000	19.3	1	1
03/22/06	2:48 p	-19.7	-19.6	-19.7	---	---	7.8	NE	0.13	8.7	-28.4	---	---	720.0	0.026	0.000	19.3	1	1
03/22/06	2:49 p	-19.7	-19.6	-19.7	---	---	7.8	NE	0.13	9.6	-28.4	---	---	720.0	0.026	0.000	19.3	1	1
03/22/06	2:50 p	-19.6	-19.6	-19.7	---	---	7.8	NE	0.13	8.7	-28.3	---	---	720.0	0.026	0.000	19.3	1	1
03/22/06	2:51 p	-19.6	-19.6	-19.6	---	---	7.8	NE	0.13	9.6	-28.3	---	---	720.1	0.026	0.000	19.3	1	1
03/22/06	2:52 p	-19.6	-19.6	-19.6	---	---	7.8	NE	0.13	8.7	-28.3	---	---	720.0	0.026	0.000	19.3	1	1
03/22/06	2:53 p	-19.6	-19.6	-19.6	---	---	7.0	NE	0.12	8.7	-27.8	---	---	720.1	0.026	0.000	19.3	1	1
03/22/06	2:54 p	-19.6	-19.6	-19.6	---	---	7.8	NE	0.13	8.7	-28.3	---	---	720.0	0.026	0.000	19.3	1	1
03/22/06	2:55 p	-19.6	-19.6	-19.6	---	---	6.1	NE	0.10	7.8	-27.1	---	---	720.1	0.026	0.000	19.3	1	1
03/22/06	2:56 p	-19.6	-19.6	-19.6	---	---	7.0	NE	0.12	7.8	-27.7	---	---	720.1	0.026	0.000	19.3	1	1
03/22/06	2:57 p	-19.6	-19.5	-19.6	---	---	7.0	NE	0.12	8.7	-27.7	---	---	720.0	0.026	0.000	19.3	1	1
03/22/06	2:58 p	-19.6	-19.5	-19.6	---	---	7.0	NE	0.12	7.8	-27.7	---	---	720.0	0.026	0.000	19.3	1	1
03/22/06	2:59 p	-19.5	-19.5	-19.5	---	---	7.0	NE	0.12	7.8	-27.7	---	---	720.1	0.026	0.000	19.3	1	1
03/22/06	3:00 p	-19.5	-19.5	-19.6	---	---	6.1	NE	0.10	7.8	-27.1	---	---	720.0	0.026	0.000	19.3	1	1
03/22/06	3:01 p	-19.5	-19.5	-19.5	---	---	6.1	NE	0.10	7.0	-27.1	---	---	720.0	0.026	0.000	19.3	1	1
03/22/06	3:02 p	-19.5	-19.5	-19.5	---	---	7.0	NE	0.12	8.7	-27.7	---	---	720.0	0.026	0.000	19.3	1	1
03/22/06	3:03 p	-19.5	-19.4	-19.5	---	---	7.8	NE	0.13	9.6	-28.2	---	---	720.1	0.026	0.000	19.3	1	1
03/22/06	3:04 p	-19.4	-19.4	-19.5	---	---	7.0	NE	0.12	8.7	-27.6	---	---	720.0	0.026	0.000	19.3	1	1
03/22/06	3:05 p	-19.4	-19.4	-19.4	---	---	4.3	NNE	0.07	5.2	-25.5	---	---	720.0	0.026	0.000	19.3	1	1
03/22/06	3:06 p	-19.4	-19.4	-19.4	---	---	7.8	NE	0.13	9.6	-28.2	---	---	720.0	0.026	0.000	19.3	1	1
03/22/06	3:07 p	-19.4	-19.4	-19.4	---	---	7.8	NE	0.13	9.6	-28.2	---	---	720.0	0.026	0.000	19.3	1	1
03/22/06	3:08 p	-19.4	-19.4	-19.4	---	---	8.7	NE	0.14	9.6	-28.7	---	---	720.0	0.026	0.000	19.3	1	1
03/22/06	3:09 p	-19.4	-19.4	-19.4	---	---	7.8	NE	0.13	8.7	-28.2	---	---	720.0	0.026	0.000	19.3	1	1
03/22/06	3:10 p	-19.4	-19.4	-19.4	---	---	6.1	NE	0.10	7.8	-26.9	---	---	720.1	0.026	0.000	19.3	1	1
03/22/06	3:11 p	-19.4	-19.4	-19.4	---	---	7.0	NE	0.12	8.7	-27.6	---	---	720.0	0.026	0.000	19.3	1	1
03/22/06	3:12 p	-19.4	-19.4	-19.4	---	---	7.8	NE	0.13	8.7	-28.1	---	---	720.0	0.026	0.000	19.3	1	1
03/22/06	3:13 p	-19.4	-19.3	-19.4	---	---	7.8	NE	0.13	9.6	-28.1	---	---	720.0	0.026	0.000	19.3	1	1
03/22/06	3:14 p	-19.3	-19.3	-19.4	---	---	7.8	NE	0.13	8.7	-28.0	---	---	720.0	0.026	0.000	19.3	1	1
03/22/06	3:15 p	-19.3	-19.3	-19.4	---	---	7.0	NE	0.12	8.7	-27.4	---	---	720.0	0.026	0.000	19.3	1	1
03/22/06	3:16 p	-19.3	-19.3	-19.3	---	---	7.0	NE	0.12	8.7	-27.4	---	---	720.1	0.026	0.000	19.3	1	1
03/22/06	3:17 p	-19.3	-19.3	-19.3	---	---	7.8	NE	0.13	9.6	-28.0	---	---	720.0	0.026	0.000	19.3	1	1
03/22/06	3:18 p	-19.3	-19.3	-19.3	---	---	7.0	NE	0.12	8.7	-27.4	---	---	720.0	0.026	0.000	19.3	1	1
03/22/06	3:19 p	-19.3	-19.3	-19.3	---	---	7.0	NE	0.12	7.8	-27.4	---	---	720.0	0.026	0.000	19.3	1	1
03/22/06	3:20 p	-19.3	-19.3	-19.3	---	---	7.0	NE	0.12	7.8	-27.4	---	---	720.0	0.026	0.000	19.3	1	1
03/22/06	3:21 p	-19.3	-19.3	-19.3	---	---	7.0	NE	0.12	7.8	-27.4	---	---	720.1	0.026	0.000	19.3	1	1
03/22/06	3:22 p	-19.3	-19.3	-19.3	---	---	7.8	NE	0.13	8.7	-28.0	---	---	720.0	0.026	0.000	19.3	1	1
03/22/06	3:23 p	-19.3	-19.3	-19.3	---	---	7.0	NE	0.12	7.8	-27.4	---	---	720.0	0.026	0.000	19.3	1	1
03/22/06	3:24 p	-19.3	-19.3	-19.3	---	---	7.8	NE	0.13	8.7	-28.0	---	---	719.9	0.026	0.000	19.3	1	1
03/22/06	3:25 p	-19.3	-19.3	-19.3	---	---	5.2	NE	0.09	7.8	-26.1	---	---	719.9	0.026	0.000	19.3	1	1
03/22/06	3:26 p	-19.3	-19.3	-19.3	---	---	7.8	NE	0.13	8.7	-27.9	---	---	719.9	0.026	0.000	19.3	1	1
03/22/06	3:27 p	-19.3	-19.3	-19.3	---	---	7.0	NE	0.12	8.7	-27.4	---	---	720.0	0.026	0.000	19.3	1	1
03/22/06	3:28 p	-19.3	-19.3	-19.3	---	---	7.0	NE	0.12	8.7	-27.4	---	---	719.9	0.026	0.000	19.3	1	1
03/22/06	3:29 p	-19.3	-19.3	-19.3	---	---	7.0	NE	0.12	7.8	-27.4	---	---	719.9	0.026	0.000	19.3	1	1
03/22/06	3:30 p	-19.3	-19.2	-19.3	---	---	7.0	NE	0.12	8.7	-27.4	---	---	719.9	0.026	0.000	19.3	1	1
03/22/06	3:31 p	-19.3	-19.3	-19.3	---	---	7.0	NE	0.12	7.8	-27.4	---	---	719.9	0.026	0.000	19.3	1	1
03/22/06	3:32 p	-19.3	-19.2	-19.3	---	---	6.1	NE	0.10	7.8	-26.8	---	---	720.0	0.026	0.000	19.3	1	1
03/22/06	3:33 p	-19.3	-19.2	-19.3	---	---	5.2	NE	0.09	7.0	-26.1	---	---	720.0	0.026	0.000	19.3	1	1
03/22/06	3:34 p	-19.2	-19.2	-19.3	---	---	7.0	NE	0.12	8.7	-27.3	---	---	720.0	0.026	0.000	19.3	1	1
03/22/06	3:35 p	-19.2	-19.2	-19.2	---	---	7.0	NE	0.12	9.6	-27.3	---	---	720.0	0.026	0.000	19.3	1	1
03/22/06	3:36 p	-19.2	-19.2	-19.2	---	---	7.0	NE	0.12	7.8	-27.3	---	---	720.0	0.026	0.000	19.3	1	1
03/22/06	3:37 p	-19.2	-19.2	-19.2	---	---	7.8	NE	0.13	7.8	-27.9	---	---	720.0	0.026	0.000	19.3	1	1
03/22/06	3:38 p	-19.2	-19.2	-19.2	---	---	7.0	NE	0.12	8.7	-27.3	---	---	719.9	0.026	0.000	19.3	1	1
03/22/06	3:39 p	-19.2	-19.2	-19.2	---	---	7.8	NE	0.13	8.7	-27.9	---	---	719.9	0.026	0.000	19.3	1	1
03/22/06	3:40 p	-19.2	-19.2	-19.3	---	---	8.7	NE	0.14	9.6	-28.4	---	---	719.9	0.026	0.000	19.3	1	1
03/22/06	3:41 p	-19.2	-19.2	-19.2	---	---	7.8	NE	0.13	8.7	-27.9	---	---	719.9	0.026	0.000	19.3	1	1
03/22/06	3:42 p	-19.2	-19.2	-19.2	---	---	7.0	NE	0.12	8.7	-27.3	---	---	720.0	0.026	0.000	19.3	1	1
03/22/06	3:43 p	-19.2	-19.2	-19.2	---	---	8.7	NE	0.14	10.4	-28.4	---	---	719.9	0.026	0.000	19.3	1	1
03/22/06	3:44 p	-19.2	-19.2	-19.2	---	---	8.7	NE	0.14	9.6	-28.4	---	---	720.0	0.026	0.000	19.3	1	1
03/22/06	3:45 p	-19.2	-19.2	-19.2	---	---	8.7	NE	0.14	10.4	-28.4	---	---	719.9	0.026	0.000	19.3	1	1
03/22/06	3:46 p	-19.2	-19.2	-19.2	---	---	7.8	NE	0.13	8.7	-27.9	---	---	719.9	0.026	0.000	19.3	1	1
03/22/06	3:47 p	-19.2	-19.2	-19.2	---	---	9.6	NE	0.16	10.4	-28.8	---	---	719.8	0.026	0.000	19.3	1	1
03/22/06	3:48 p	-19.2	-19.2	-19.2	---	---	8.7	NE	0.14	9.6	-28.4	---	---	719.9	0.026	0.000	19.3	1	1
03/22/06	3:49 p	-19.2	-19.2	-19.2	---	---	8.7	NE	0.14	9.6	-28.4	---	---	719.9	0.026	0.000	19.4	1	1
03/22/06	3:50 p	-19.2	-19.2	-19.2	---	---	7.8	NE	0.13	10.4	-27.9	---	---	720.0	0.026	0.000	19.4	1	1
03/22/06	3:51 p	-19.2	-19.2	-19.2	---	---	8.7	NE	0.14	10.4	-28.4	---	---	719.9	0.026	0.000	19.4	1	1
03/22/06	3:52 p	-19.2	-19.2	-19.2	---	---	8.7	NE	0.14	9.6	-28.4	---	---	719.9	0.026	0.000	19.4	1	1
03/22/06	3:53 p	-19.2	-19.2	-19.2	---	---	9.6	NE	0.16	10.4	-28.8	---	---	719.9	0.026	0.000	19.4	1	1
03/22/06	3:54 p	-19.2	-19.2	-19.2	---	---	9.6	NE	0.16	10.4	-28.8	---	---	719.9	0.026	0.000	19.4	1	1
03/22/06	3:55 p	-19.2	-19.2	-19.2	---	---	8.7	NE	0.14	11.3	-28.4	---	---	719.8	0.026	0.000	19.4	1	1
03/22/06	3:56 p	-19.2	-19.2	-19.2	---	---	8.7	NE	0.14	10.4	-28.4	---	---	719.8	0.026	0.000	19.4	1	1
03/22/06	3:57 p	-19.2	-19.2	-19.2	---	---	8.7	NE	0.14	9.6	-28.4	---	---	719.9	0.026	0.000	19.4	1	1
03/22/06	3:58 p	-19.2	-19.2	-19.2	---	---	7.8	NE	0.13	10.4	-27.9	---	---	719.8	0.026	0.000	19.4	1	1
03/22/06	3:59 p	-19.2	-19.2	-19.2	---	---	9.6	NE	0.16	11.3	-28.8	---	---	719.9	0.026	0.000	19.4	1	1
03/22/06	4:00 p	-19.2	-19.2	-19.2	---	---	7.8	NE	0.13	10.4	-27.9	---	---	719.9	0.026	0.000	19.4	1	1
03/22/06	4:01 p	-19.2	-19.2	-19.2	---	---	10.4	NE	0.17	11.3	-29.2	---	---	719.8	0.026	0.000	19.4	1	1
03/22/06	4:02 p	-19.2	-19.2	-19.2	---	---	7.8	NE	0.13	9.6	-27.9	---	---	719.9	0.026	0.000	19.4	1	1
03/22/06	4:03 p	-19.2	-19.2	-19.2	---	---	7.0	NE	0.12	9.6	-27.3	---	---	719.8	0.026	0.000	19.4	1	1
03/22/06	4:04 p	-19.2	-19.2	-19.2	---	---	10.4	NE	0.17	11.3	-29.2	---	---	719.8	0.026	0.000	19.4	1	1
03/22/06	4:05 p	-19.2	-19.2	-19.2	---	---	8.7	NE	0.14	10.4	-28.4	---	---	719.9	0.026	0.000	19.4	1	1
03/22/06	4:06 p	-19.2	-19.2	-19.2	---	---	7.8	NE	0.13	10.4	-27.8	---	---	719.8	0.026	0.000	19.4	1	1
03/22/06	4:07 p	-19.2	-19.2	-19.2	---	---	8.7	NE	0.14	10.4	-28.4	---	---	719.7	0.026	0.000	19.4	1	1
03/22/06	4:08 p	-19.2	-19.2	-19.2	---	---	9.6	NE	0.16	11.3	-28.8	---	---	719.8	0.026	0.000	19.4	1	1
03/22/06	4:09 p	-19.2	-19.2	-19.2	---	---	9.6	NE	0.16	11.3	-28.8	---	---	719.8	0.026	0.000	19.4	1	1
03/22/06	4:10 p	-19.2	-19.2	-19.2	---	---	5.2	NE	0.09	7.0	-26.1	---	---	719.9	0.026	0.000	19.4	1	1
03/22/06	4:11 p	-19.2	-19.2	-19.2	---	---	7.0	NE	0.12	9.6	-27.3	---	---	719.8	0.026	0.000	19.4	1	1
03/22/06	4:12 p	-19.2	-19.2	-19.2	---	---	9.6	NE	0.16	10.4	-28.8	---	---	719.9	0.026	0.000	19.4	1	1
03/22/06	4:13 p	-19.2	-19.2	-19.2	---	---	7.8	NE	0.13	10.4	-27.8	---	---	719.8	0.026	0.000	19.4	1	1
03/22/06	4:14 p	-19.2	-19.2	-19.2	---	---	9.6	NE	0.16	11.3	-28.8	---	---	719.8	0.026	0.000	19.4	1	1
03/22/06	4:15 p	-19.2	-19.2	-19.2	---	---	7.8	NE	0.13	8.7	-27.8	---	---	719.8	0.026	0.000	19.4	1	1
03/22/06	4:16 p	-19.2	-19.2	-19.2	---	---	7.0	NE	0.12	8.7	-27.3	---	---	719.9	0.026	0.000	19.4	1	1
03/22/06	4:17 p	-19.2	-19.2	-19.2	---	---	8.7	NE	0.14	9.6	-28.3	---	---	719.8	0.026	0.000	19.4	1	1
03/22/06	4:18 p	-19.2	-19.2	-19.2	---	---	8.7	NE	0.14	9.6	-28.3	---	---	719.8	0.026	0.000	19.4	1	1
03/22/06	4:19 p	-19.2	-19.2	-19.2	---	---	7.8	NE	0.13	10.4	-27.8	---	---	719.9	0.026	0.000	19.4	1	1
03/22/06	4:20 p	-19.2	-19.2	-19.2	---	---	9.6	NE	0.16	9.6	-28.8	---	---	719.8	0.026	0.000	19.4	1	1
03/22/06	4:21 p	-19.2	-19.2	-19.2	---	---	6.1	NNE	0.10	8.7	-26.7	---	---	719.8	0.026	0.000	19.4	1	1
03/22/06	4:22 p	-19.2	-19.2	-19.2	---	---	8.7	NE	0.14	9.6	-28.3	---	---	719.8	0.026	0.000	19.4	1	1
03/22/06	4:23 p	-19.2	-19.2	-19.2	---	---	7.8	NE	0.13	9.6	-27.8	---	---	719.8	0.026	0.000	19.4	1	1
03/22/06	4:24 p	-19.2	-19.2	-19.2	---	---	8.7	NE	0.14	9.6	-28.3	---	---	719.8	0.026	0.000	19.4	1	1
03/22/06	4:25 p	-19.2	-19.1	-19.2	---	---	7.0	NE	0.12	9.6	-27.3	---	---	719.8	0.026	0.000	19.4	1	1
03/22/06	4:26 p	-19.2	-19.1	-19.2	---	---	7.8	NE	0.13	9.6	-27.8	---	---	719.8	0.026	0.000	19.4	1	1
03/22/06	4:27 p	-19.2	-19.1	-19.2	---	---	7.0	NNE	0.12	9.6	-27.3	---	---	719.9	0.026	0.000	19.4	1	1
03/22/06	4:28 p	-19.2	-19.2	-19.2	---	---	8.7	NE	0.14	9.6	-28.3	---	---	719.9	0.026	0.000	19.4	1	1
03/22/06	4:29 p	-19.2	-19.1	-19.2	---	---	7.0	NE	0.12	8.7	-27.3	---	---	719.9	0.026	0.000	19.4	1	1
03/22/06	4:30 p	-19.1	-19.1	-19.2	---	---	7.8	NE	0.13	9.6	-27.7	---	---	719.9	0.026	0.000	19.4	1	1
03/22/06	4:31 p	-19.1	-19.1	-19.1	---	---	7.0	NE	0.12	9.6	-27.2	---	---	719.8	0.026	0.000	19.4	1	1
03/22/06	4:32 p	-19.1	-19.1	-19.2	---	---	7.8	NE	0.13	9.6	-27.7	---	---	719.9	0.026	0.000	19.4	1	1
03/22/06	4:33 p	-19.1	-19.1	-19.2	---	---	6.1	NNE	0.10	7.0	-26.6	---	---	719.9	0.026	0.000	19.4	1	1
03/22/06	4:34 p	-19.1	-19.1	-19.1	---	---	7.0	NE	0.12	8.7	-27.2	---	---	719.8	0.026	0.000	19.4	1	1
03/22/06	4:35 p	-19.1	-19.1	-19.1	---	---	7.0	NE	0.12	9.6	-27.2	---	---	719.8	0.026	0.000	19.4	1	1
03/22/06	4:36 p	-19.1	-19.1	-19.1	---	---	7.0	NE	0.12	7.8	-27.2	---	---	719.9	0.026	0.000	19.4	1	1
03/22/06	4:37 p	-19.1	-19.1	-19.1	---	---	7.0	NE	0.12	8.7	-27.2	---	---	719.9	0.026	0.000	19.4	1	1
03/22/06	4:38 p	-19.1	-19.1	-19.1	---	---	7.0	NE	0.12	8.7	-27.1	---	---	719.9	0.026	0.000	19.4	1	1
03/22/06	4:39 p	-19.1	-19.1	-19.1	---	---	7.0	NE	0.12	8.7	-27.1	---	---	719.8	0.026	0.000	19.4	1	1
03/22/06	4:40 p	-19.1	-19.1	-19.1	---	---	5.2	NNE	0.09	6.1	-25.8	---	---	719.9	0.026	0.000	19.4	1	1
03/22/06	4:41 p	-19.1	-19.1	-19.1	---	---	7.0	NE	0.12	8.7	-27.1	---	---	719.9	0.026	0.000	19.4	1	1
03/22/06	4:42 p	-19.1	-19.1	-19.1	---	---	7.8	NE	0.13	8.7	-27.7	---	---	719.9	0.026	0.000	19.4	1	1
03/22/06	4:43 p	-19.1	-19.1	-19.1	---	---	7.0	NE	0.12	7.8	-27.1	---	---	719.9	0.026	0.000	19.4	1	1
03/22/06	4:44 p	-19.1	-19.1	-19.1	---	---	6.1	NE	0.10	7.8	-26.5	---	---	719.9	0.026	0.000	19.4	1	1
03/22/06	4:45 p	-19.1	-19.1	-19.1	---	---	7.0	NE	0.12	8.7	-27.1	---	---	719.9	0.026	0.000	19.4	1	1
03/22/06	4:46 p	-19.1	-19.1	-19.1	---	---	7.0	NE	0.12	8.7	-27.1	---	---	719.9	0.026	0.000	19.4	1	1
03/22/06	4:47 p	-19.1	-19.0	-19.1	---	---	7.0	NE	0.12	8.7	-27.1	---	---	719.9	0.026	0.000	19.4	1	1
03/22/06	4:48 p	-19.1	-19.0	-19.1	---	---	6.1	NE	0.10	7.0	-26.5	---	---	719.9	0.026	0.000	19.4	1	1
03/22/06	4:49 p	-19.0	-19.0	-19.1	---	---	5.2	NE	0.09	6.1	-25.8	---	---	719.9	0.026	0.000	19.4	1	1
03/22/06	4:50 p	-19.0	-19.0	-19.0	---	---	6.1	NNE	0.10	8.7	-26.4	---	---	720.0	0.026	0.000	19.4	1	1
03/22/06	4:51 p	-19.0	-19.0	-19.0	---	---	7.0	NE	0.12	7.8	-27.1	---	---	719.9	0.026	0.000	19.4	1	1
03/22/06	4:52 p	-19.0	-19.0	-19.0	---	---	6.1	NE	0.10	7.0	-26.4	---	---	719.9	0.026	0.000	19.4	1	1
03/22/06	4:53 p	-19.0	-19.0	-19.0	---	---	6.1	NE	0.10	7.8	-26.4	---	---	719.9	0.026	0.000	19.4	1	1
03/22/06	4:54 p	-19.0	-19.0	-19.0	---	---	6.1	NE	0.10	8.7	-26.4	---	---	720.0	0.026	0.000	19.4	1	1
03/22/06	4:55 p	-19.0	-19.0	-19.0	---	---	6.1	NE	0.10	7.8	-26.4	---	---	719.9	0.026	0.000	19.4	1	1
03/22/06	4:56 p	-19.0	-18.9	-19.0	---	---	6.1	NE	0.10	7.8	-26.4	---	---	719.9	0.026	0.000	19.4	1	1
03/22/06	4:57 p	-19.0	-18.9	-19.0	---	---	6.1	NE	0.10	7.8	-26.4	---	---	719.9	0.026	0.000	19.4	1	1
03/22/06	4:58 p	-19.0	-19.0	-19.0	---	---	6.1	NE	0.10	7.0	-26.4	---	---	720.0	0.026	0.000	19.4	1	1
03/22/06	4:59 p	-19.0	-18.9	-19.0	---	---	6.1	NE	0.10	7.0	-26.4	---	---	720.0	0.026	0.000	19.4	1	1
03/22/06	5:00 p	-18.9	-18.9	-19.0	---	---	6.1	NE	0.10	7.8	-26.4	---	---	719.8	0.026	0.000	19.4	1	1
03/22/06	5:01 p	-19.0	-18.9	-19.0	---	---	6.1	NE	0.10	7.0	-26.4	---	---	719.9	0.026	0.000	19.4	1	1
03/22/06	5:02 p	-18.9	-18.9	-18.9	---	---	5.2	NE	0.09	7.0	-25.7	---	---	719.9	0.026	0.000	19.4	1	1
03/22/06	5:03 p	-18.9	-18.9	-18.9	---	---	5.2	NE	0.09	6.1	-25.7	---	---	720.0	0.026	0.000	19.4	1	1
03/22/06	5:04 p	-18.9	-18.9	-18.9	---	---	6.1	NE	0.10	7.8	-26.4	---	---	719.9	0.026	0.000	19.4	1	1
03/22/06	5:05 p	-18.9	-18.9	-18.9	---	---	4.3	NE	0.07	5.2	-24.9	---	---	719.9	0.026	0.000	19.4	1	1
03/22/06	5:06 p	-18.9	-18.9	-18.9	---	---	5.2	NE	0.09	7.0	-25.7	---	---	719.9	0.026	0.000	19.4	1	1
03/22/06	5:07 p	-18.9	-18.9	-18.9	---	---	5.2	NE	0.09	7.0	-25.7	---	---	720.0	0.026	0.000	19.4	1	1
03/22/06	5:08 p	-18.9	-18.9	-18.9	---	---	5.2	NE	0.09	6.1	-25.7	---	---	720.0	0.026	0.000	19.4	1	1
03/22/06	5:09 p	-18.9	-18.9	-18.9	---	---	6.1	NE	0.10	6.1	-26.3	---	---	720.0	0.026	0.000	19.4	1	1
03/22/06	5:10 p	-18.9	-18.9	-18.9	---	---	6.1	NE	0.10	7.0	-26.3	---	---	720.0	0.026	0.000	19.4	1	1
03/22/06	5:11 p	-18.9	-18.9	-18.9	---	---	5.2	NE	0.09	6.1	-25.7	---	---	720.0	0.026	0.000	19.4	1	1
03/22/06	5:12 p	-18.9	-18.9	-18.9	---	---	6.1	NE	0.10	7.0	-26.3	---	---	720.0	0.026	0.000	19.4	1	1
03/22/06	5:13 p	-18.9	-18.9	-18.9	---	---	6.1	NE	0.10	7.0	-26.3	---	---	720.0	0.026	0.000	19.4	1	1
03/22/06	5:14 p	-18.9	-18.9	-18.9	---	---	6.1	NE	0.10	7.0	-26.3	---	---	719.9	0.026	0.000	19.4	1	1
03/22/06	5:15 p	-18.9	-18.8	-18.9	---	---	6.1	NE	0.10	7.0	-26.3	---	---	720.0	0.026	0.000	19.4	1	1
03/22/06	5:16 p	-18.9	-18.8	-18.9	---	---	6.1	NE	0.10	7.0	-26.3	---	---	720.0	0.026	0.000	19.4	1	1
03/22/06	5:17 p	-18.8	-18.8	-18.8	---	---	6.1	NE	0.10	7.0	-26.3	---	---	720.0	0.026	0.000	19.4	1	1
03/22/06	5:18 p	-18.8	-18.8	-18.9	---	---	6.1	NE	0.10	7.8	-26.3	---	---	720.0	0.026	0.000	19.4	1	1
03/22/06	5:19 p	-18.8	-18.8	-18.8	---	---	6.1	NE	0.10	7.0	-26.3	---	---	720.0	0.026	0.000	19.4	1	1
03/22/06	5:20 p	-18.8	-18.8	-18.8	---	---	5.2	NE	0.09	7.0	-25.6	---	---	720.0	0.026	0.000	19.4	1	1
03/22/06	5:21 p	-18.8	-18.8	-18.8	---	---	5.2	NE	0.09	7.0	-25.6	---	---	720.0	0.026	0.000	19.4	1	1
03/22/06	5:22 p	-18.8	-18.8	-18.8	---	---	6.1	NE	0.10	7.0	-26.3	---	---	720.1	0.026	0.000	19.4	1	1
03/22/06	5:23 p	-18.8	-18.8	-18.8	---	---	5.2	NE	0.09	6.1	-25.6	---	---	720.0	0.026	0.000	19.4	1	1
03/22/06	5:24 p	-18.8	-18.8	-18.8	---	---	5.2	NE	0.09	6.1	-25.6	---	---	720.1	0.026	0.000	19.4	1	1
03/22/06	5:25 p	-18.8	-18.8	-18.8	---	---	4.3	NE	0.07	5.2	-24.8	---	---	720.1	0.026	0.000	19.4	1	1
03/22/06	5:26 p	-18.8	-18.8	-18.8	---	---	5.2	NE	0.09	6.1	-25.6	---	---	720.0	0.026	0.000	19.4	1	1
03/22/06	5:27 p	-18.8	-18.8	-18.8	---	---	5.2	NE	0.09	5.2	-25.6	---	---	720.1	0.026	0.000	19.4	2	1
03/22/06	5:28 p	-18.8	-18.8	-18.8	---	---	5.2	NE	0.09	6.1	-25.5	---	---	720.1	0.026	0.000	19.4	2	1
03/22/06	5:29 p	-18.8	-18.8	-18.8	---	---	5.2	NE	0.09	6.1	-25.5	---	---	720.0	0.026	0.000	19.4	1	1
03/22/06	5:30 p	-18.8	-18.8	-18.8	---	---	6.1	NE	0.10	7.0	-26.3	---	---	720.0	0.026	0.000	19.4	1	1
03/22/06	5:31 p	-18.8	-18.8	-18.8	---	---	5.2	NE	0.09	7.0	-25.6	---	---	720.1	0.026	0.000	19.4	1	1
03/22/06	5:32 p	-18.8	-18.8	-18.8	---	---	5.2	NE	0.09	7.0	-25.5	---	---	720.1	0.026	0.000	19.4	1	1
03/22/06	5:33 p	-18.8	-18.8	-18.8	---	---	6.1	NE	0.10	7.8	-26.2	---	---	720.1	0.026	0.000	19.4	1	1
03/22/06	5:34 p	-18.8	-18.8	-18.8	---	---	5.2	NE	0.09	7.0	-25.5	---	---	720.0	0.026	0.000	19.4	1	1
03/22/06	5:35 p	-18.8	-18.8	-18.8	---	---	5.2	NE	0.09	6.1	-25.5	---	---	720.0	0.026	0.000	19.4	2	1
03/22/06	5:36 p	-18.8	-18.8	-18.8	---	---	5.2	NE	0.09	7.0	-25.5	---	---	720.0	0.026	0.000	19.4	1	1
03/22/06	5:37 p	-18.8	-18.8	-18.8	---	---	5.2	NE	0.09	6.1	-25.5	---	---	720.1	0.026	0.000	19.5	2	1
03/22/06	5:38 p	-18.8	-18.8	-18.8	---	---	6.1	NE	0.10	6.1	-26.2	---	---	720.0	0.026	0.000	19.5	1	1
03/22/06	5:39 p	-18.8	-18.8	-18.8	---	---	6.1	NE	0.10	7.0	-26.2	---	---	720.0	0.026	0.000	19.5	1	1
03/22/06	5:40 p	-18.8	-18.8	-18.8	---	---	5.2	NE	0.09	7.0	-25.5	---	---	720.0	0.026	0.000	19.5	1	1
03/22/06	5:41 p	-18.8	-18.8	-18.8	---	---	5.2	NE	0.09	7.0	-25.5	---	---	720.1	0.026	0.000	19.5	1	1
03/22/06	5:42 p	-18.8	-18.8	-18.8	---	---	6.1	NE	0.10	7.0	-26.2	---	---	720.0	0.026	0.000	19.5	1	1
03/22/06	5:43 p	-18.8	-18.8	-18.8	---	---	5.2	NE	0.09	7.0	-25.5	---	---	720.1	0.026	0.000	19.4	1	1
03/22/06	5:44 p	-18.8	-18.8	-18.8	---	---	6.1	NE	0.10	7.0	-26.2	---	---	720.0	0.026	0.000	19.4	1	1
03/22/06	5:45 p	-18.8	-18.8	-18.8	---	---	5.2	NE	0.09	6.1	-25.5	---	---	720.1	0.026	0.000	19.4	1	1
03/22/06	5:46 p	-18.8	-18.8	-18.8	---	---	5.2	NE	0.09	7.0	-25.5	---	---	720.1	0.026	0.000	19.4	1	1
03/22/06	5:47 p	-18.8	-18.8	-18.8	---	---	5.2	NE	0.09	6.1	-25.5	---	---	720.1	0.026	0.000	19.4	1	1
03/22/06	5:48 p	-18.8	-18.8	-18.8	---	---	6.1	NE	0.10	7.0	-26.2	---	---	720.1	0.026	0.000	19.4	1	1
03/22/06	5:49 p	-18.8	-18.8	-18.8	---	---	5.2	NE	0.09	6.1	-25.5	---	---	720.2	0.026	0.000	19.4	1	1
03/22/06	5:50 p	-18.8	-18.8	-18.8	---	---	5.2	NE	0.09	7.0	-25.5	---	---	720.1	0.026	0.000	19.4	1	1
03/22/06	5:51 p	-18.8	-18.8	-18.8	---	---	5.2	NE	0.09	6.1	-25.5	---	---	720.1	0.026	0.000	19.4	1	1
03/22/06	5:52 p	-18.8	-18.8	-18.8	---	---	5.2	NE	0.09	6.1	-25.5	---	---	720.1	0.026	0.000	19.4	2	1
03/22/06	5:53 p	-18.8	-18.8	-18.8	---	---	6.1	NE	0.10	7.0	-26.2	---	---	720.1	0.026	0.000	19.4	1	1
03/22/06	5:54 p	-18.8	-18.8	-18.8	---	---	6.1	NE	0.10	7.0	-26.3	---	---	720.1	0.026	0.000	19.4	1	1
03/22/06	5:55 p	-18.8	-18.8	-18.8	---	---	5.2	NE	0.09	7.0	-25.6	---	---	720.1	0.026	0.000	19.4	1	1
03/22/06	5:56 p	-18.8	-18.8	-18.8	---	---	6.1	NE	0.10	7.0	-26.3	---	---	720.1	0.026	0.000	19.4	1	1
03/22/06	5:57 p	-18.8	-18.8	-18.8	---	---	6.1	NE	0.10	6.1	-26.3	---	---	720.1	0.026	0.000	19.4	2	1
03/22/06	5:58 p	-18.8	-18.8	-18.8	---	---	7.0	NE	0.12	7.0	-26.8	---	---	720.1	0.026	0.000	19.4	2	1
03/22/06	5:59 p	-18.8	-18.8	-18.8	---	---	5.2	NE	0.09	7.0	-25.6	---	---	720.1	0.026	0.000	19.4	1	1
03/22/06	6:00 p	-18.8	-18.8	-18.8	---	---	5.2	NE	0.09	7.0	-25.6	---	---	720.2	0.026	0.000	19.4	1	1
03/22/06	6:01 p	-18.8	-18.8	-18.8	---	---	6.1	NE	0.10	7.0	-26.3	---	---	720.1	0.026	0.000	19.4	1	1
03/22/06	6:02 p	-18.8	-18.8	-18.8	---	---	6.1	NE	0.10	7.0	-26.3	---	---	720.0	0.026	0.000	19.4	1	1
03/22/06	6:03 p	-18.8	-18.8	-18.8	---	---	7.0	NE	0.12	7.8	-26.8	---	---	720.2	0.026	0.000	19.4	2	1
03/22/06	6:04 p	-18.8	-18.8	-18.9	---	---	6.1	NE	0.10	7.8	-26.3	---	---	720.2	0.026	0.000	19.4	1	1
03/22/06	6:05 p	-18.8	-18.8	-18.8	---	---	7.0	NE	0.12	7.0	-26.8	---	---	720.2	0.026	0.000	19.4	1	1
03/22/06	6:06 p	-18.8	-18.8	-18.8	---	---	6.1	NE	0.10	7.8	-26.3	---	---	720.1	0.026	0.000	19.4	1	1
03/22/06	6:07 p	-18.8	-18.8	-18.8	---	---	7.0	NE	0.12	7.8	-26.8	---	---	720.2	0.026	0.000	19.4	1	1
03/22/06	6:08 p	-18.8	-18.8	-18.9	---	---	7.0	NE	0.12	7.8	-26.8	---	---	720.1	0.026	0.000	19.4	1	1
03/22/06	6:09 p	-18.9	-18.8	-18.9	---	---	6.1	NE	0.10	7.0	-26.3	---	---	720.1	0.026	0.000	19.4	1	1
03/22/06	6:10 p	-18.9	-18.9	-18.9	---	---	7.0	NE	0.12	7.0	-26.9	---	---	720.1	0.026	0.000	19.4	2	1
03/22/06	6:11 p	-18.9	-18.8	-18.9	---	---	6.1	NE	0.10	7.0	-26.3	---	---	720.1	0.026	0.000	19.5	1	1
03/22/06	6:12 p	-18.9	-18.8	-18.9	---	---	6.1	NE	0.10	7.8	-26.3	---	---	720.1	0.026	0.000	19.5	2	1
03/22/06	6:13 p	-18.9	-18.8	-18.9	---	---	7.0	NE	0.12	7.8	-26.9	---	---	720.2	0.026	0.000	19.5	1	1
03/22/06	6:14 p	-18.9	-18.9	-18.9	---	---	6.1	NE	0.10	7.0	-26.3	---	---	720.2	0.026	0.000	19.5	1	1
03/22/06	6:15 p	-18.9	-18.9	-18.9	---	---	6.1	NE	0.10	7.0	-26.3	---	---	720.2	0.026	0.000	19.5	1	1
03/22/06	6:16 p	-18.9	-18.9	-18.9	---	---	6.1	NE	0.10	7.8	-26.3	---	---	720.2	0.026	0.000	19.5	1	1
03/22/06	6:17 p	-18.9	-18.9	-18.9	---	---	6.1	NE	0.10	7.0	-26.3	---	---	720.2	0.026	0.000	19.5	1	1
03/22/06	6:18 p	-18.9	-18.9	-18.9	---	---	6.1	NE	0.10	7.0	-26.3	---	---	720.2	0.026	0.000	19.5	1	1
03/22/06	6:19 p	-18.9	-18.9	-18.9	---	---	6.1	NE	0.10	7.0	-26.3	---	---	720.1	0.026	0.000	19.5	1	1
03/22/06	6:20 p	-18.9	-18.9	-18.9	---	---	6.1	NE	0.10	7.0	-26.3	---	---	720.1	0.026	0.000	19.5	1	1
03/22/06	6:21 p	-18.9	-18.9	-18.9	---	---	7.0	NE	0.12	7.0	-26.9	---	---	720.2	0.026	0.000	19.5	2	1
03/22/06	6:22 p	-18.9	-18.9	-18.9	---	---	6.1	NE	0.10	7.0	-26.3	---	---	720.1	0.026	0.000	19.5	1	1
03/22/06	6:23 p	-18.9	-18.9	-18.9	---	---	6.1	NE	0.10	7.0	-26.3	---	---	720.1	0.026	0.000	19.5	1	1
03/22/06	6:24 p	-18.9	-18.9	-18.9	---	---	6.1	NE	0.10	7.0	-26.3	---	---	720.2	0.026	0.000	19.5	1	1
03/22/06	6:25 p	-18.9	-18.9	-18.9	---	---	6.1	NE	0.10	7.0	-26.3	---	---	720.2	0.026	0.000	19.5	1	1
03/22/06	6:26 p	-18.9	-18.9	-18.9	---	---	6.1	NE	0.10	7.8	-26.3	---	---	720.1	0.026	0.000	19.5	1	1
03/22/06	6:27 p	-18.9	-18.9	-18.9	---	---	6.1	NE	0.10	7.8	-26.3	---	---	720.1	0.026	0.000	19.5	1	1
03/22/06	6:28 p	-18.9	-18.9	-18.9	---	---	6.1	NE	0.10	7.0	-26.3	---	---	720.1	0.026	0.000	19.5	2	1
03/22/06	6:29 p	-18.9	-18.9	-18.9	---	---	5.2	NE	0.09	6.1	-25.7	---	---	720.2	0.026	0.000	19.5	1	1
03/22/06	6:30 p	-18.9	-18.9	-18.9	---	---	7.0	NE	0.12	7.8	-26.9	---	---	720.2	0.026	0.000	19.5	1	1
03/22/06	6:31 p	-18.9	-18.9	-18.9	---	---	7.0	NE	0.12	7.0	-26.9	---	---	720.2	0.026	0.000	19.5	1	1
03/22/06	6:32 p	-18.9	-18.9	-18.9	---	---	7.0	NE	0.12	7.0	-27.0	---	---	720.1	0.026	0.000	19.5	1	1
03/22/06	6:33 p	-18.9	-18.9	-18.9	---	---	7.0	NE	0.12	7.0	-27.0	---	---	720.2	0.026	0.000	19.5	1	1
03/22/06	6:34 p	-18.9	-18.9	-18.9	---	---	6.1	NE	0.10	7.8	-26.4	---	---	720.2	0.026	0.000	19.5	1	1
03/22/06	6:35 p	-18.9	-18.9	-18.9	---	---	5.2	NE	0.09	6.1	-25.7	---	---	720.2	0.026	0.000	19.5	2	1
03/22/06	6:36 p	-18.9	-18.9	-18.9	---	---	7.0	NE	0.12	7.8	-27.0	---	---	720.1	0.026	0.000	19.5	1	1
03/22/06	6:37 p	-18.9	-18.9	-18.9	---	---	6.1	NE	0.10	7.8	-26.4	---	---	720.1	0.026	0.000	19.5	2	1
03/22/06	6:38 p	-18.9	-18.9	-18.9	---	---	4.3	NE	0.07	6.1	-24.9	---	---	720.1	0.026	0.000	19.5	1	1
03/22/06	6:39 p	-18.9	-18.9	-18.9	---	---	6.1	NE	0.10	7.0	-26.4	---	---	720.1	0.026	0.000	19.5	1	1
03/22/06	6:40 p	-18.9	-18.9	-18.9	---	---	7.0	NE	0.12	7.0	-27.0	---	---	720.2	0.026	0.000	19.5	1	1
03/22/06	6:41 p	-18.9	-18.9	-18.9	---	---	4.3	NE	0.07	6.1	-24.9	---	---	720.2	0.026	0.000	19.5	1	1
03/22/06	6:42 p	-18.9	-18.9	-18.9	---	---	5.2	NE	0.09	7.8	-25.7	---	---	720.1	0.026	0.000	19.5	2	1
03/22/06	6:43 p	-18.9	-18.9	-18.9	---	---	7.8	NE	0.13	7.8	-27.6	---	---	720.2	0.026	0.000	19.5	2	1
03/22/06	6:44 p	-18.9	-18.9	-18.9	---	---	6.1	NE	0.10	7.0	-26.4	---	---	720.2	0.026	0.000	19.5	2	1
03/22/06	6:45 p	-18.9	-18.9	-18.9	---	---	6.1	NE	0.10	7.0	-26.4	---	---	720.1	0.026	0.000	19.5	1	1
03/22/06	6:46 p	-18.9	-18.9	-18.9	---	---	7.0	ENE	0.12	7.8	-27.0	---	---	720.1	0.026	0.000	19.5	2	1
03/22/06	6:47 p	-18.9	-18.9	-18.9	---	---	7.0	ENE	0.12	7.8	-27.0	---	---	720.2	0.026	0.000	19.5	2	1
03/22/06	6:48 p	-18.9	-18.9	-19.0	---	---	6.1	ENE	0.10	7.0	-26.4	---	---	720.1	0.026	0.000	19.5	2	1
03/22/06	6:49 p	-18.9	-18.9	-18.9	---	---	8.7	ENE	0.14	9.6	-28.0	---	---	720.1	0.026	0.000	19.5	1	1
03/22/06	6:50 p	-18.9	-18.9	-18.9	---	---	7.8	ENE	0.13	8.7	-27.6	---	---	720.2	0.026	0.000	19.5	1	1
03/22/06	6:51 p	-19.0	-18.9	-19.0	---	---	7.0	ENE	0.12	7.8	-27.1	---	---	720.1	0.026	0.000	19.5	2	1
03/22/06	6:52 p	-19.0	-19.0	-19.0	---	---	7.0	ENE	0.12	7.8	-27.1	---	---	720.2	0.026	0.000	19.5	2	1
03/22/06	6:53 p	-19.0	-19.0	-19.0	---	---	7.0	ENE	0.12	7.8	-27.1	---	---	720.1	0.026	0.000	19.5	1	1
03/22/06	6:54 p	-19.0	-19.0	-19.1	---	---	7.8	ENE	0.13	9.6	-27.6	---	---	720.2	0.026	0.000	19.5	1	1
03/22/06	6:55 p	-19.0	-19.0	-19.1	---	---	9.6	ENE	0.16	10.4	-28.6	---	---	720.1	0.026	0.000	19.5	1	1
03/22/06	6:56 p	-19.1	-19.0	-19.1	---	---	9.6	ENE	0.16	10.4	-28.6	---	---	720.2	0.026	0.000	19.5	1	1
03/22/06	6:57 p	-19.1	-19.1	-19.1	---	---	8.7	ENE	0.14	9.6	-28.2	---	---	720.2	0.026	0.000	19.5	2	1
03/22/06	6:58 p	-19.1	-19.1	-19.1	---	---	8.7	ENE	0.14	8.7	-28.2	---	---	720.2	0.026	0.000	19.5	1	1
03/22/06	6:59 p	-19.1	-19.1	-19.1	---	---	7.8	ENE	0.13	8.7	-27.7	---	---	720.2	0.026	0.000	19.6	2	1
03/22/06	7:00 p	-19.1	-19.1	-19.1	---	---	8.7	ENE	0.14	9.6	-28.2	---	---	720.2	0.026	0.000	19.6	1	1
03/22/06	7:01 p	-19.1	-19.1	-19.1	---	---	9.6	ENE	0.16	10.4	-28.7	---	---	720.1	0.026	0.000	19.6	2	1
03/22/06	7:02 p	-19.1	-19.1	-19.1	---	---	9.6	ENE	0.16	10.4	-28.7	---	---	720.1	0.026	0.000	19.6	2	1
03/22/06	7:03 p	-19.1	-19.1	-19.1	---	---	9.6	ENE	0.16	10.4	-28.7	---	---	720.2	0.026	0.000	19.6	1	1
03/22/06	7:04 p	-19.1	-19.1	-19.1	---	---	9.6	ENE	0.16	10.4	-28.7	---	---	720.1	0.026	0.000	19.6	2	1
03/22/06	7:05 p	-19.1	-19.1	-19.1	---	---	8.7	ENE	0.14	9.6	-28.2	---	---	720.2	0.026	0.000	19.6	2	1
03/22/06	7:06 p	-19.1	-19.1	-19.2	---	---	8.7	ENE	0.14	9.6	-28.2	---	---	720.1	0.026	0.000	19.6	2	1
03/22/06	7:07 p	-19.2	-19.2	-19.2	---	---	9.6	ENE	0.16	10.4	-28.8	---	---	720.1	0.026	0.000	19.6	2	1
03/22/06	7:08 p	-19.2	-19.2	-19.2	---	---	10.4	ENE	0.17	11.3	-29.2	---	---	720.1	0.026	0.000	19.6	1	1
03/22/06	7:09 p	-19.2	-19.2	-19.2	---	---	10.4	ENE	0.17	11.3	-29.2	---	---	720.1	0.026	0.000	19.6	2	1
03/22/06	7:10 p	-19.2	-19.2	-19.2	---	---	9.6	ENE	0.16	11.3	-28.8	---	---	720.1	0.026	0.000	19.6	2	1
03/22/06	7:11 p	-19.2	-19.2	-19.2	---	---	7.8	E	0.13	9.6	-27.9	---	---	720.1	0.026	0.000	19.6	2	1
03/22/06	7:12 p	-19.2	-19.2	-19.2	---	---	8.7	E	0.14	10.4	-28.4	---	---	720.1	0.026	0.000	19.6	1	1
03/22/06	7:13 p	-19.2	-19.2	-19.3	---	---	9.6	E	0.16	11.3	-28.8	---	---	720.1	0.026	0.000	19.6	2	1
03/22/06	7:14 p	-19.3	-19.2	-19.3	---	---	11.3	E	0.19	12.2	-29.7	---	---	720.0	0.026	0.000	19.6	1	1
03/22/06	7:15 p	-19.3	-19.3	-19.3	---	---	10.4	E	0.17	11.3	-29.3	---	---	720.0	0.026	0.000	19.6	2	1
03/22/06	7:16 p	-19.3	-19.3	-19.3	---	---	10.4	E	0.17	12.2	-29.3	---	---	720.1	0.026	0.000	19.6	1	1
03/22/06	7:17 p	-19.3	-19.3	-19.3	---	---	11.3	ENE	0.19	12.2	-29.7	---	---	720.1	0.026	0.000	19.6	1	1
03/22/06	7:18 p	-19.3	-19.3	-19.3	---	---	9.6	E	0.16	12.2	-28.9	---	---	720.1	0.026	0.000	19.6	1	1
03/22/06	7:19 p	-19.3	-19.3	-19.3	---	---	11.3	ENE	0.19	12.2	-29.8	---	---	720.0	0.026	0.000	19.6	2	1
03/22/06	7:20 p	-19.3	-19.3	-19.3	---	---	12.2	ENE	0.20	13.9	-30.2	---	---	720.1	0.026	0.000	19.6	1	1
03/22/06	7:21 p	-19.3	-19.3	-19.3	---	---	11.3	ENE	0.19	13.0	-29.8	---	---	720.1	0.026	0.000	19.6	2	1
03/22/06	7:22 p	-19.3	-19.3	-19.4	---	---	10.4	ENE	0.17	12.2	-29.4	---	---	720.1	0.026	0.000	19.6	2	1
03/22/06	7:23 p	-19.4	-19.4	-19.4	---	---	11.3	ENE	0.19	12.2	-29.8	---	---	720.0	0.026	0.000	19.6	2	1
03/22/06	7:24 p	-19.4	-19.3	-19.4	---	---	11.3	ENE	0.19	13.0	-29.8	---	---	720.1	0.026	0.000	19.6	1	1
03/22/06	7:25 p	-19.4	-19.4	-19.4	---	---	10.4	ENE	0.17	11.3	-29.4	---	---	720.0	0.026	0.000	19.6	2	1
03/22/06	7:26 p	-19.4	-19.4	-19.4	---	---	10.4	ENE	0.17	12.2	-29.4	---	---	720.1	0.026	0.000	19.6	2	1
03/22/06	7:27 p	-19.4	-19.4	-19.4	---	---	11.3	ENE	0.19	12.2	-29.9	---	---	720.2	0.026	0.000	19.6	2	1
03/22/06	7:28 p	-19.4	-19.4	-19.4	---	---	11.3	ENE	0.19	12.2	-29.9	---	---	720.1	0.026	0.000	19.6	2	1
03/22/06	7:29 p	-19.4	-19.4	-19.4	---	---	11.3	ENE	0.19	12.2	-29.9	---	---	720.1	0.026	0.000	19.6	2	1
03/22/06	7:30 p	-19.4	-19.4	-19.5	---	---	11.3	ENE	0.19	12.2	-29.9	---	---	720.2	0.026	0.000	19.6	1	1
03/22/06	7:31 p	-19.5	-19.5	-19.5	---	---	12.2	ENE	0.20	13.0	-30.3	---	---	720.2	0.026	0.000	19.6	2	1
03/22/06	7:32 p	-19.5	-19.5	-19.5	---	---	10.4	ENE	0.17	12.2	-29.6	---	---	720.1	0.026	0.000	19.6	1	1
03/22/06	7:33 p	-19.5	-19.5	-19.5	---	---	10.4	ENE	0.17	11.3	-29.6	---	---	720.1	0.026	0.000	19.6	2	1
03/22/06	7:34 p	-19.5	-19.5	-19.5	---	---	12.2	ENE	0.20	13.0	-30.3	---	---	720.1	0.026	0.000	19.6	2	1
03/22/06	7:35 p	-19.5	-19.5	-19.6	---	---	12.2	ENE	0.20	13.0	-30.3	---	---	720.1	0.026	0.000	19.6	1	1
03/22/06	7:36 p	-19.6	-19.6	-19.6	---	---	10.4	ENE	0.17	12.2	-29.7	---	---	720.1	0.026	0.000	19.6	1	1
03/22/06	7:37 p	-19.6	-19.6	-19.6	---	---	10.4	ENE	0.17	12.2	-29.7	---	---	720.1	0.026	0.000	19.6	1	1
03/22/06	7:38 p	-19.6	-19.6	-19.6	---	---	12.2	ENE	0.20	13.0	-30.4	---	---	720.1	0.026	0.000	19.6	2	1
03/22/06	7:39 p	-19.6	-19.6	-19.6	---	---	11.3	ENE	0.19	13.0	-30.1	---	---	720.1	0.026	0.000	19.6	2	1
03/22/06	7:40 p	-19.6	-19.6	-19.6	---	---	11.3	ENE	0.19	13.0	-30.1	---	---	720.0	0.026	0.000	19.6	1	1
03/22/06	7:41 p	-19.6	-19.6	-19.6	---	---	13.0	ENE	0.22	13.0	-30.8	---	---	720.0	0.026	0.000	19.6	2	1
03/22/06	7:42 p	-19.6	-19.6	-19.7	---	---	12.2	ENE	0.20	12.2	-30.5	---	---	720.0	0.026	0.000	19.6	2	1
03/22/06	7:43 p	-19.7	-19.7	-19.7	---	---	11.3	ENE	0.19	12.2	-30.2	---	---	720.1	0.026	0.000	19.6	1	1
03/22/06	7:44 p	-19.7	-19.7	-19.7	---	---	12.2	ENE	0.20	13.0	-30.6	---	---	720.1	0.026	0.000	19.6	1	1
03/22/06	7:45 p	-19.7	-19.7	-19.7	---	---	12.2	ENE	0.20	14.8	-30.6	---	---	720.1	0.026	0.000	19.6	2	1
03/22/06	7:46 p	-19.7	-19.7	-19.7	---	---	13.0	ENE	0.22	13.9	-31.0	---	---	720.1	0.026	0.000	19.6	1	1
03/22/06	7:47 p	-19.7	-19.7	-19.7	---	---	12.2	ENE	0.20	13.0	-30.7	---	---	720.1	0.026	0.000	19.6	1	1
03/22/06	7:48 p	-19.7	-19.7	-19.8	---	---	9.6	ENE	0.16	11.3	-29.4	---	---	720.2	0.026	0.000	19.6	1	1
03/22/06	7:49 p	-19.8	-19.7	-19.8	---	---	12.2	ENE	0.20	13.9	-30.7	---	---	720.1	0.026	0.000	19.6	2	1
03/22/06	7:50 p	-19.8	-19.7	-19.8	---	---	13.0	ENE	0.22	14.8	-31.1	---	---	720.0	0.026	0.000	19.6	2	1
03/22/06	7:51 p	-19.8	-19.8	-19.8	---	---	13.0	ENE	0.22	13.9	-31.1	---	---	720.1	0.026	0.000	19.6	2	1
03/22/06	7:52 p	-19.8	-19.8	-19.8	---	---	10.4	ENE	0.17	11.3	-29.9	---	---	720.1	0.026	0.000	19.6	1	1
03/22/06	7:53 p	-19.8	-19.8	-19.8	---	---	12.2	ENE	0.20	13.0	-30.8	---	---	720.1	0.027	0.000	19.6	2	1
03/22/06	7:54 p	-19.8	-19.8	-19.8	---	---	13.0	ENE	0.22	13.9	-31.1	---	---	720.0	0.027	0.000	19.6	2	1
03/22/06	7:55 p	-19.8	-19.8	-19.8	---	---	13.0	ENE	0.22	13.9	-31.1	---	---	720.1	0.027	0.000	19.6	1	1
03/22/06	7:56 p	-19.8	-19.8	-19.9	---	---	11.3	ENE	0.19	12.2	-30.4	---	---	720.1	0.027	0.000	19.6	2	1
03/22/06	7:57 p	-19.9	-19.8	-19.9	---	---	12.2	ENE	0.20	13.0	-30.8	---	---	720.0	0.027	0.000	19.6	2	1
03/22/06	7:58 p	-19.9	-19.9	-19.9	---	---	12.2	ENE	0.20	13.0	-30.8	---	---	720.1	0.027	0.000	19.6	1	1
03/22/06	7:59 p	-19.9	-19.9	-19.9	---	---	11.3	ENE	0.19	13.0	-30.5	---	---	720.1	0.027	0.000	19.6	2	1
03/22/06	8:00 p	-19.9	-19.9	-19.9	---	---	13.9	ENE	0.23	14.8	-31.6	---	---	720.1	0.027	0.000	19.6	1	1
03/22/06	8:01 p	-19.9	-19.9	-19.9	---	---	11.3	ENE	0.19	13.0	-30.6	---	---	720.1	0.027	0.000	19.6	1	1
03/22/06	8:02 p	-19.9	-19.9	-19.9	---	---	11.3	ENE	0.19	13.9	-30.6	---	---	720.1	0.027	0.000	19.6	1	1
03/22/06	8:03 p	-19.9	-19.9	-19.9	---	---	14.8	ENE	0.25	14.8	-31.9	---	---	720.1	0.027	0.000	19.6	1	1
03/22/06	8:04 p	-19.9	-19.9	-20.0	---	---	12.2	ENE	0.20	14.8	-30.9	---	---	720.1	0.027	0.000	19.6	1	1
03/22/06	8:05 p	-20.0	-20.0	-20.0	---	---	10.4	NE	0.17	11.3	-30.2	---	---	720.1	0.027	0.000	19.6	2	1
03/22/06	8:06 p	-20.0	-20.0	-20.0	---	---	11.3	ENE	0.19	14.8	-30.6	---	---	720.1	0.027	0.000	19.6	1	1
03/22/06	8:07 p	-20.1	-20.1	-20.1	---	---	13.0	ENE	0.22	13.9	-31.4	---	---	720.1	0.027	0.000	19.6	1	1
03/22/06	8:08 p	-20.1	-20.0	-20.1	---	---	11.3	NE	0.19	12.2	-30.7	---	---	720.1	0.027	0.000	19.6	2	1
03/22/06	8:09 p	-20.1	-20.1	-20.1	---	---	11.3	ENE	0.19	13.0	-30.7	---	---	720.1	0.027	0.000	19.6	1	1
03/22/06	8:10 p	-20.1	-20.1	-20.1	---	---	13.0	ENE	0.22	13.9	-31.4	---	---	720.1	0.027	0.000	19.6	2	1
03/22/06	8:11 p	-20.1	-20.1	-20.1	---	---	11.3	NE	0.19	13.0	-30.7	---	---	720.1	0.027	0.000	19.6	2	1
03/22/06	8:12 p	-20.1	-20.1	-20.1	---	---	12.2	ENE	0.20	13.0	-31.1	---	---	720.1	0.027	0.000	19.6	2	1
03/22/06	8:13 p	-20.1	-20.1	-20.1	---	---	13.0	ENE	0.22	13.0	-31.5	---	---	720.1	0.027	0.000	19.6	2	1
03/22/06	8:14 p	-20.1	-20.1	-20.1	---	---	11.3	NE	0.19	13.0	-30.8	---	---	720.2	0.027	0.000	19.6	1	1
03/22/06	8:15 p	-20.2	-20.1	-20.2	---	---	11.3	NE	0.19	12.2	-30.8	---	---	720.2	0.027	0.000	19.6	1	1
03/22/06	8:16 p	-20.2	-20.2	-20.2	---	---	11.3	ENE	0.19	12.2	-30.8	---	---	720.2	0.027	0.000	19.6	1	1
03/22/06	8:17 p	-20.2	-20.2	-20.2	---	---	13.0	ENE	0.22	13.9	-31.6	---	---	720.2	0.027	0.000	19.6	2	1
03/22/06	8:18 p	-20.2	-20.2	-20.2	---	---	13.0	NE	0.22	13.9	-31.6	---	---	720.2	0.027	0.000	19.6	1	1
03/22/06	8:19 p	-20.2	-20.2	-20.2	---	---	11.3	NE	0.19	12.2	-30.8	---	---	720.2	0.027	0.000	19.6	2	1
03/22/06	8:20 p	-20.2	-20.2	-20.2	---	---	13.0	ENE	0.22	14.8	-31.6	---	---	720.2	0.027	0.000	19.6	2	1
03/22/06	8:21 p	-20.2	-20.2	-20.2	---	---	13.9	ENE	0.23	13.9	-31.9	---	---	720.2	0.027	0.000	19.6	2	1
03/22/06	8:22 p	-20.2	-20.2	-20.3	---	---	12.2	ENE	0.20	13.9	-31.3	---	---	720.1	0.027	0.000	19.6	1	1
03/22/06	8:23 p	-20.2	-20.2	-20.3	---	---	12.2	ENE	0.20	13.0	-31.3	---	---	720.2	0.027	0.000	19.6	2	1
03/22/06	8:24 p	-20.3	-20.3	-20.3	---	---	13.0	ENE	0.22	13.9	-31.7	---	---	720.2	0.027	0.000	19.6	2	1
03/22/06	8:25 p	-20.3	-20.3	-20.3	---	---	15.7	ENE	0.26	15.7	-32.7	---	---	720.1	0.027	0.000	19.6	1	1
03/22/06	8:26 p	-20.3	-20.3	-20.3	---	---	13.0	ENE	0.22	14.8	-31.7	---	---	720.1	0.027	0.000	19.6	2	1
03/22/06	8:27 p	-20.3	-20.3	-20.3	---	---	11.3	NE	0.19	13.0	-31.1	---	---	720.1	0.027	0.000	19.6	1	1
03/22/06	8:28 p	-20.3	-20.3	-20.3	---	---	13.0	ENE	0.22	13.9	-31.8	---	---	720.1	0.027	0.000	19.6	2	1
03/22/06	8:29 p	-20.3	-20.3	-20.3	---	---	12.2	ENE	0.20	13.9	-31.4	---	---	720.1	0.027	0.000	19.6	1	1
03/22/06	8:30 p	-20.3	-20.3	-20.4	---	---	14.8	ENE	0.25	15.7	-32.4	---	---	720.0	0.027	0.000	19.6	2	1
03/22/06	8:31 p	-20.4	-20.4	-20.4	---	---	13.9	ENE	0.23	14.8	-32.2	---	---	720.1	0.027	0.000	19.6	2	1
03/22/06	8:32 p	-20.4	-20.4	-20.4	---	---	12.2	ENE	0.20	13.0	-31.5	---	---	720.2	0.027	0.000	19.6	1	1
03/22/06	8:33 p	-20.4	-20.4	-20.4	---	---	13.0	ENE	0.22	13.9	-31.9	---	---	720.0	0.027	0.000	19.6	1	1
03/22/06	8:34 p	-20.4	-20.4	-20.4	---	---	13.0	ENE	0.22	14.8	-31.9	---	---	720.1	0.027	0.000	19.7	2	1
03/22/06	8:35 p	-20.4	-20.4	-20.4	---	---	13.0	ENE	0.22	14.8	-31.9	---	---	720.2	0.027	0.000	19.7	1	1
03/22/06	8:36 p	-20.4	-20.4	-20.5	---	---	12.2	ENE	0.20	13.9	-31.6	---	---	720.2	0.027	0.000	19.7	1	1
03/22/06	8:37 p	-20.5	-20.5	-20.5	---	---	13.0	ENE	0.22	13.9	-32.0	---	---	720.1	0.027	0.000	19.7	2	1
03/22/06	8:38 p	-20.6	-20.5	-20.6	---	---	14.8	ENE	0.25	14.8	-32.7	---	---	720.1	0.027	0.000	19.7	1	1
03/22/06	8:39 p	-20.6	-20.6	-20.6	---	---	13.9	ENE	0.23	14.8	-32.4	---	---	720.2	0.027	0.000	19.7	1	1
03/22/06	8:40 p	-20.6	-20.6	-20.6	---	---	13.0	ENE	0.22	13.9	-32.1	---	---	720.1	0.027	0.000	19.7	1	1
03/22/06	8:41 p	-20.6	-20.6	-20.6	---	---	13.0	ENE	0.22	13.9	-32.1	---	---	720.1	0.027	0.000	19.7	1	1
03/22/06	8:42 p	-20.6	-20.6	-20.6	---	---	13.0	ENE	0.22	13.9	-32.1	---	---	720.2	0.027	0.000	19.7	1	1
03/22/06	8:43 p	-20.6	-20.6	-20.6	---	---	13.9	ENE	0.23	14.8	-32.4	---	---	720.1	0.027	0.000	19.7	1	1
03/22/06	8:44 p	-20.6	-20.6	-20.7	---	---	13.0	ENE	0.22	13.9	-32.1	---	---	720.2	0.027	0.000	19.7	1	1
03/22/06	8:45 p	-20.7	-20.7	-20.7	---	---	13.0	ENE	0.22	13.9	-32.2	---	---	720.2	0.027	0.000	19.7	1	1
03/22/06	8:46 p	-20.7	-20.7	-20.7	---	---	12.2	ENE	0.20	13.9	-31.8	---	---	720.2	0.027	0.000	19.7	1	1
03/22/06	8:47 p	-20.7	-20.7	-20.7	---	---	13.9	ENE	0.23	14.8	-32.6	---	---	720.2	0.027	0.000	19.7	2	1
03/22/06	8:48 p	-20.7	-20.7	-20.7	---	---	13.0	ENE	0.22	13.0	-32.3	---	---	720.2	0.027	0.000	19.7	1	1
03/22/06	8:49 p	-20.8	-20.8	-20.8	---	---	13.0	ENE	0.22	13.9	-32.3	---	---	720.3	0.027	0.000	19.7	2	1
03/22/06	8:50 p	-20.8	-20.7	-20.8	---	---	13.0	ENE	0.22	13.9	-32.3	---	---	720.2	0.027	0.000	19.7	1	1
03/22/06	8:51 p	-20.8	-20.8	-20.8	---	---	13.0	ENE	0.22	13.9	-32.3	---	---	720.2	0.027	0.000	19.7	1	1
03/22/06	8:52 p	-20.8	-20.8	-20.8	---	---	12.2	ENE	0.20	13.0	-32.1	---	---	720.3	0.027	0.000	19.7	1	1
03/22/06	8:53 p	-20.8	-20.8	-20.9	---	---	12.2	ENE	0.20	13.9	-32.1	---	---	720.4	0.027	0.000	19.7	2	1
03/22/06	8:54 p	-20.9	-20.8	-20.9	---	---	14.8	ENE	0.25	15.7	-33.2	---	---	720.2	0.027	0.000	19.7	2	1
03/22/06	8:55 p	-20.9	-20.9	-20.9	---	---	13.0	ENE	0.22	14.8	-32.5	---	---	720.3	0.027	0.000	19.7	1	1
03/22/06	8:56 p	-20.9	-20.9	-20.9	---	---	11.3	ENE	0.19	13.9	-31.7	---	---	720.3	0.027	0.000	19.7	2	1
03/22/06	8:57 p	-20.9	-20.9	-20.9	---	---	13.9	ENE	0.23	15.7	-32.9	---	---	720.3	0.027	0.000	19.7	1	1
03/22/06	8:58 p	-20.9	-20.9	-21.0	---	---	13.0	ENE	0.22	14.8	-32.6	---	---	720.3	0.027	0.000	19.7	1	1
03/22/06	8:59 p	-21.0	-21.0	-21.0	---	---	11.3	NE	0.19	12.2	-31.9	---	---	720.3	0.027	0.000	19.7	1	1
03/22/06	9:00 p	-21.0	-21.0	-21.0	---	---	11.3	ENE	0.19	13.9	-31.9	---	---	720.2	0.027	0.000	19.7	1	1
03/22/06	9:01 p	-21.1	-21.0	-21.1	---	---	13.9	ENE	0.23	14.8	-33.1	---	---	720.3	0.027	0.000	19.6	1	1
03/22/06	9:02 p	-21.1	-21.1	-21.1	---	---	11.3	NE	0.19	13.9	-31.9	---	---	720.4	0.027	0.000	19.7	1	1
03/22/06	9:03 p	-21.1	-21.1	-21.1	---	---	12.2	NE	0.20	13.0	-32.3	---	---	720.3	0.027	0.000	19.6	1	1
03/22/06	9:04 p	-21.1	-21.1	-21.1	---	---	13.0	ENE	0.22	13.9	-32.8	---	---	720.3	0.027	0.000	19.6	1	1
03/22/06	9:05 p	-21.2	-21.1	-21.2	---	---	13.0	ENE	0.22	13.9	-32.8	---	---	720.3	0.027	0.000	19.6	1	1
03/22/06	9:06 p	-21.2	-21.2	-21.2	---	---	13.0	ENE	0.22	13.9	-32.8	---	---	720.3	0.027	0.000	19.6	1	1
03/22/06	9:07 p	-21.2	-21.2	-21.2	---	---	11.3	ENE	0.19	12.2	-32.2	---	---	720.3	0.027	0.000	19.6	2	1
03/22/06	9:08 p	-21.2	-21.2	-21.2	---	---	13.9	ENE	0.23	15.7	-33.3	---	---	720.3	0.027	0.000	19.6	1	1
03/22/06	9:09 p	-21.2	-21.2	-21.2	---	---	13.0	ENE	0.22	14.8	-32.9	---	---	720.4	0.027	0.000	19.6	1	1
03/22/06	9:10 p	-21.2	-21.2	-21.2	---	---	10.4	NE	0.17	13.0	-31.8	---	---	720.3	0.027	0.000	19.6	1	1
03/22/06	9:11 p	-21.2	-21.2	-21.2	---	---	13.0	ENE	0.22	13.9	-32.9	---	---	720.4	0.027	0.000	19.6	2	1
03/22/06	9:12 p	-21.3	-21.3	-21.3	---	---	12.2	ENE	0.20	14.8	-32.6	---	---	720.3	0.028	0.000	19.7	1	1
03/22/06	9:13 p	-21.3	-21.3	-21.3	---	---	14.8	ENE	0.25	14.8	-33.7	---	---	720.3	0.028	0.000	19.6	1	1
03/22/06	9:14 p	-21.3	-21.3	-21.3	---	---	13.0	NE	0.22	13.9	-33.1	---	---	720.3	0.028	0.000	19.6	1	1
03/22/06	9:15 p	-21.3	-21.3	-21.3	---	---	13.9	ENE	0.23	13.9	-33.4	---	---	720.3	0.028	0.000	19.6	2	1
03/22/06	9:16 p	-21.3	-21.3	-21.3	---	---	10.4	NE	0.17	13.0	-31.9	---	---	720.4	0.028	0.000	19.6	2	1
03/22/06	9:17 p	-21.4	-21.3	-21.4	---	---	11.3	NE	0.19	15.7	-32.4	---	---	720.3	0.028	0.000	19.7	1	1
03/22/06	9:18 p	-21.4	-21.4	-21.4	---	---	14.8	ENE	0.25	16.5	-33.8	---	---	720.3	0.028	0.000	19.7	1	1
03/22/06	9:19 p	-21.4	-21.4	-21.4	---	---	11.3	NE	0.19	13.0	-32.4	---	---	720.4	0.028	0.000	19.7	1	1
03/22/06	9:20 p	-21.4	-21.4	-21.4	---	---	8.7	NE	0.14	14.8	-31.1	---	---	720.3	0.028	0.000	19.7	2	1
03/22/06	9:21 p	-21.4	-21.4	-21.4	---	---	13.0	ENE	0.22	14.8	-33.1	---	---	720.4	0.028	0.000	19.7	1	1
03/22/06	9:22 p	-21.4	-21.4	-21.4	---	---	12.2	ENE	0.20	13.9	-32.8	---	---	720.4	0.028	0.000	19.7	1	1
03/22/06	9:23 p	-21.4	-21.4	-21.4	---	---	13.9	ENE	0.23	15.7	-33.6	---	---	720.4	0.028	0.000	19.7	2	1
03/22/06	9:24 p	-21.4	-21.4	-21.4	---	---	13.0	ENE	0.22	14.8	-33.2	---	---	720.3	0.028	0.000	19.7	1	1
03/22/06	9:25 p	-21.4	-21.4	-21.4	---	---	11.3	ENE	0.19	13.9	-32.4	---	---	720.3	0.028	0.000	19.7	1	1
03/22/06	9:26 p	-21.4	-21.4	-21.4	---	---	13.9	ENE	0.23	15.7	-33.6	---	---	720.4	0.028	0.000	19.7	1	1
03/22/06	9:27 p	-21.4	-21.4	-21.4	---	---	13.9	ENE	0.23	14.8	-33.6	---	---	720.4	0.028	0.000	19.7	2	1
03/22/06	9:28 p	-21.4	-21.4	-21.5	---	---	13.0	ENE	0.22	14.8	-33.2	---	---	720.3	0.028	0.000	19.7	1	1
03/22/06	9:29 p	-21.4	-21.4	-21.4	---	---	14.8	ENE	0.25	15.7	-33.9	---	---	720.4	0.028	0.000	19.7	1	1
03/22/06	9:30 p	-21.5	-21.5	-21.5	---	---	12.2	ENE	0.20	13.9	-32.9	---	---	720.4	0.028	0.000	19.7	2	1
03/22/06	9:31 p	-21.5	-21.5	-21.5	---	---	13.0	ENE	0.22	15.7	-33.3	---	---	720.3	0.028	0.000	19.7	2	1
03/22/06	9:32 p	-21.5	-21.5	-21.5	---	---	15.7	ENE	0.26	15.7	-34.2	---	---	720.5	0.028	0.000	19.7	1	1
03/22/06	9:33 p	-21.5	-21.5	-21.5	---	---	13.0	ENE	0.22	15.7	-33.3	---	---	720.5	0.028	0.000	19.7	1	1
03/22/06	9:34 p	-21.5	-21.5	-21.5	---	---	9.6	ENE	0.16	14.8	-31.7	---	---	720.3	0.028	0.000	19.7	2	1
03/22/06	9:35 p	-21.5	-21.5	-21.5	---	---	13.9	ENE	0.23	15.7	-33.6	---	---	720.3	0.028	0.000	19.7	1	1
03/22/06	9:36 p	-21.5	-21.5	-21.5	---	---	15.7	ENE	0.26	16.5	-34.2	---	---	720.4	0.028	0.000	19.7	1	1
03/22/06	9:37 p	-21.5	-21.5	-21.5	---	---	13.0	ENE	0.22	15.7	-33.3	---	---	720.5	0.028	0.000	19.7	1	1
03/22/06	9:38 p	-21.5	-21.5	-21.5	---	---	10.4	NE	0.17	11.3	-32.1	---	---	720.4	0.028	0.000	19.7	1	1
03/22/06	9:39 p	-21.5	-21.5	-21.5	---	---	13.0	ENE	0.22	15.7	-33.3	---	---	720.4	0.028	0.000	19.7	1	1
03/22/06	9:40 p	-21.5	-21.5	-21.5	---	---	14.8	ENE	0.25	16.5	-33.9	---	---	720.4	0.028	0.000	19.7	1	1
03/22/06	9:41 p	-21.5	-21.5	-21.5	---	---	12.2	ENE	0.20	13.9	-32.9	---	---	720.4	0.028	0.000	19.7	1	1
03/22/06	9:42 p	-21.5	-21.5	-21.5	---	---	14.8	ENE	0.25	15.7	-33.9	---	---	720.4	0.028	0.000	19.7	1	1
03/22/06	9:43 p	-21.5	-21.5	-21.5	---	---	13.0	ENE	0.22	14.8	-33.3	---	---	720.5	0.028	0.000	19.7	1	1
03/22/06	9:44 p	-21.5	-21.5	-21.5	---	---	11.3	ENE	0.19	13.9	-32.5	---	---	720.3	0.028	0.000	19.7	1	1
03/22/06	9:45 p	-21.5	-21.5	-21.6	---	---	15.7	ENE	0.26	16.5	-34.2	---	---	720.4	0.028	0.000	19.7	1	1
03/22/06	9:46 p	-21.5	-21.5	-21.5	---	---	14.8	ENE	0.25	15.7	-33.9	---	---	720.4	0.028	0.000	19.7	1	1
03/22/06	9:47 p	-21.5	-21.5	-21.5	---	---	14.8	ENE	0.25	15.7	-33.9	---	---	720.3	0.028	0.000	19.7	1	1
03/22/06	9:48 p	-21.5	-21.5	-21.5	---	---	13.0	ENE	0.22	14.8	-33.3	---	---	720.4	0.028	0.000	19.7	1	1
03/22/06	9:49 p	-21.5	-21.5	-21.5	---	---	9.6	ENE	0.16	14.8	-31.7	---	---	720.4	0.028	0.000	19.7	1	1
03/22/06	9:50 p	-21.5	-21.5	-21.5	---	---	14.8	ENE	0.25	15.7	-33.9	---	---	720.3	0.028	0.000	19.7	1	1
03/22/06	9:51 p	-21.5	-21.5	-21.5	---	---	13.9	ENE	0.23	15.7	-33.6	---	---	720.5	0.028	0.000	19.7	1	1
03/22/06	9:52 p	-21.4	-21.4	-21.5	---	---	13.0	ENE	0.22	15.7	-33.2	---	---	720.3	0.028	0.000	19.7	1	1
03/22/06	9:53 p	-21.5	-21.5	-21.5	---	---	15.7	ENE	0.26	17.4	-34.2	---	---	720.3	0.028	0.000	19.6	1	1
03/22/06	9:54 p	-21.4	-21.4	-21.5	---	---	12.2	ENE	0.20	14.8	-32.8	---	---	720.4	0.028	0.000	19.7	1	1
03/22/06	9:55 p	-21.4	-21.4	-21.5	---	---	13.9	ENE	0.23	16.5	-33.6	---	---	720.3	0.028	0.000	19.7	2	1
03/22/06	9:56 p	-21.4	-21.4	-21.4	---	---	15.7	ENE	0.26	16.5	-34.2	---	---	720.3	0.028	0.000	19.7	2	1
03/22/06	9:57 p	-21.4	-21.4	-21.4	---	---	13.0	ENE	0.22	15.7	-33.2	---	---	720.5	0.028	0.000	19.7	2	1
03/22/06	9:58 p	-21.4	-21.4	-21.4	---	---	11.3	ENE	0.19	13.9	-32.4	---	---	720.3	0.028	0.000	19.7	2	1
03/22/06	9:59 p	-21.4	-21.4	-21.4	---	---	14.8	ENE	0.25	17.4	-33.9	---	---	720.4	0.028	0.000	19.7	2	1
03/22/06	10:00 p	-21.4	-21.4	-21.4	---	---	13.9	ENE	0.23	15.7	-33.4	---	---	720.5	0.028	0.000	19.7	2	1
03/22/06	10:01 p	-21.4	-21.4	-21.4	---	---	11.3	ENE	0.19	13.0	-32.4	---	---	720.4	0.028	0.000	19.7	2	1
03/22/06	10:02 p	-21.4	-21.4	-21.4	---	---	15.7	ENE	0.26	17.4	-34.1	---	---	720.4	0.028	0.000	19.7	2	1
03/22/06	10:03 p	-21.3	-21.3	-21.4	---	---	16.5	ENE	0.28	17.4	-34.3	---	---	720.4	0.028	0.000	19.7	2	1
03/22/06	10:04 p	-21.3	-21.3	-21.4	---	---	11.3	ENE	0.19	13.9	-32.3	---	---	720.5	0.028	0.000	19.7	2	1
03/22/06	10:05 p	-21.3	-21.3	-21.3	---	---	10.4	ENE	0.17	15.7	-31.9	---	---	720.4	0.028	0.000	19.7	2	1
03/22/06	10:06 p	-21.3	-21.3	-21.3	---	---	16.5	ENE	0.28	17.4	-34.3	---	---	720.4	0.028	0.000	19.7	2	1
03/22/06	10:07 p	-21.3	-21.3	-21.3	---	---	14.8	ENE	0.25	16.5	-33.7	---	---	720.4	0.028	0.000	19.7	2	1
03/22/06	10:08 p	-21.3	-21.3	-21.3	---	---	13.0	ENE	0.22	15.7	-33.0	---	---	720.4	0.028	0.000	19.7	2	1
03/22/06	10:09 p	-21.3	-21.3	-21.3	---	---	11.3	ENE	0.19	13.0	-32.2	---	---	720.4	0.028	0.000	19.7	2	1
03/22/06	10:10 p	-21.3	-21.2	-21.3	---	---	15.7	ENE	0.26	17.4	-33.9	---	---	720.3	0.028	0.000	19.7	2	1
03/22/06	10:11 p	-21.2	-21.2	-21.3	---	---	14.8	ENE	0.25	16.5	-33.6	---	---	720.4	0.027	0.000	19.7	2	1
03/22/06	10:12 p	-21.2	-21.2	-21.2	---	---	13.9	E	0.23	15.7	-33.3	---	---	720.4	0.027	0.000	19.7	2	1
03/22/06	10:13 p	-21.2	-21.2	-21.2	---	---	13.9	ENE	0.23	15.7	-33.3	---	---	720.5	0.027	0.000	19.7	2	1
03/22/06	10:14 p	-21.2	-21.2	-21.2	---	---	13.0	NE	0.22	15.7	-32.9	---	---	720.3	0.027	0.000	19.7	2	1
03/22/06	10:15 p	-21.2	-21.2	-21.2	---	---	16.5	E	0.28	19.1	-34.1	---	---	720.4	0.027	0.000	19.7	2	1
03/22/06	10:16 p	-21.2	-21.2	-21.2	---	---	15.7	ENE	0.26	19.1	-33.9	---	---	720.4	0.027	0.000	19.7	2	1
03/22/06	10:17 p	-21.2	-21.1	-21.2	---	---	11.3	ENE	0.19	13.0	-32.1	---	---	720.4	0.027	0.000	19.7	2	1
03/22/06	10:18 p	-21.1	-21.1	-21.1	---	---	13.9	ENE	0.23	17.4	-33.1	---	---	720.4	0.027	0.000	19.7	2	1
03/22/06	10:19 p	-21.1	-21.1	-21.1	---	---	13.9	E	0.23	17.4	-33.1	---	---	720.5	0.027	0.000	19.7	2	1
03/22/06	10:20 p	-21.1	-21.1	-21.1	---	---	13.9	E	0.23	17.4	-33.1	---	---	720.3	0.027	0.000	19.8	3	1
03/22/06	10:21 p	-21.1	-21.1	-21.1	---	---	15.7	ENE	0.26	17.4	-33.7	---	---	720.5	0.027	0.000	19.8	3	1
03/22/06	10:22 p	-21.1	-21.0	-21.1	---	---	13.0	ENE	0.22	14.8	-32.7	---	---	720.4	0.027	0.000	19.8	3	1
03/22/06	10:23 p	-21.1	-21.0	-21.1	---	---	13.9	ENE	0.23	15.7	-33.1	---	---	720.4	0.027	0.000	19.8	3	1
03/22/06	10:24 p	-21.1	-21.0	-21.1	---	---	13.9	E	0.23	14.8	-33.1	---	---	720.4	0.027	0.000	19.8	3	1
03/22/06	10:25 p	-21.0	-21.0	-21.0	---	---	15.7	E	0.26	17.4	-33.6	---	---	720.3	0.027	0.000	19.8	3	1
03/22/06	10:26 p	-21.0	-21.0	-21.0	---	---	16.5	ENE	0.28	17.4	-33.9	---	---	720.4	0.027	0.000	19.7	3	1
03/22/06	10:27 p	-21.0	-20.9	-21.0	---	---	13.9	ENE	0.23	14.8	-32.9	---	---	720.4	0.027	0.000	19.7	3	1
03/22/06	10:28 p	-20.9	-20.9	-21.0	---	---	13.9	ENE	0.23	15.7	-32.9	---	---	720.3	0.027	0.000	19.7	3	1
03/22/06	10:29 p	-20.9	-20.9	-20.9	---	---	16.5	ENE	0.28	18.3	-33.8	---	---	720.3	0.027	0.000	19.7	3	1
03/22/06	10:30 p	-20.9	-20.9	-20.9	---	---	15.7	ENE	0.26	17.4	-33.5	---	---	720.4	0.027	0.000	19.7	3	1
03/22/06	10:31 p	-20.9	-20.9	-20.9	---	---	12.2	ENE	0.20	14.8	-32.1	---	---	720.5	0.027	0.000	19.7	3	1
03/22/06	10:32 p	-20.9	-20.8	-20.9	---	---	14.8	ENE	0.25	17.4	-33.2	---	---	720.3	0.027	0.000	19.7	3	1
03/22/06	10:33 p	-20.8	-20.8	-20.9	---	---	16.5	ENE	0.28	18.3	-33.7	---	---	720.4	0.027	0.000	19.7	3	1
03/22/06	10:34 p	-20.9	-20.8	-20.9	---	---	13.9	ENE	0.23	15.7	-32.8	---	---	720.5	0.027	0.000	19.7	3	1
03/22/06	10:35 p	-20.8	-20.8	-20.8	---	---	14.8	E	0.25	19.1	-33.1	---	---	720.3	0.027	0.000	19.7	3	1
03/22/06	10:36 p	-20.8	-20.8	-20.8	---	---	16.5	ENE	0.28	17.4	-33.7	---	---	720.5	0.027	0.000	19.8	3	1
03/22/06	10:37 p	-20.8	-20.8	-20.8	---	---	12.2	ENE	0.20	14.8	-32.0	---	---	720.4	0.027	0.000	19.8	3	1
03/22/06	10:38 p	-20.8	-20.8	-20.8	---	---	13.0	E	0.22	16.5	-32.3	---	---	720.3	0.027	0.000	19.8	3	1
03/22/06	10:39 p	-20.8	-20.8	-20.8	---	---	15.7	ENE	0.26	16.5	-33.3	---	---	720.4	0.027	0.000	19.8	3	1
03/22/06	10:40 p	-20.7	-20.7	-20.8	---	---	13.0	ENE	0.22	14.8	-32.3	---	---	720.4	0.027	0.000	19.8	3	1
03/22/06	10:41 p	-20.7	-20.7	-20.8	---	---	15.7	ENE	0.26	18.3	-33.2	---	---	720.4	0.027	0.000	19.8	3	1
03/22/06	10:42 p	-20.7	-20.7	-20.7	---	---	13.9	ENE	0.23	15.7	-32.6	---	---	720.4	0.027	0.000	19.8	3	1
03/22/06	10:43 p	-20.7	-20.7	-20.7	---	---	13.9	ENE	0.23	15.7	-32.6	---	---	720.4	0.027	0.000	19.8	3	1
03/22/06	10:44 p	-20.7	-20.7	-20.7	---	---	14.8	ENE	0.25	16.5	-32.8	---	---	720.4	0.027	0.000	19.8	3	1
03/22/06	10:45 p	-20.7	-20.6	-20.7	---	---	15.7	ENE	0.26	17.4	-33.2	---	---	720.3	0.027	0.000	19.8	3	1
03/22/06	10:46 p	-20.7	-20.6	-20.7	---	---	15.7	ENE	0.26	18.3	-33.2	---	---	720.3	0.027	0.000	19.7	3	1
03/22/06	10:47 p	-20.7	-20.6	-20.7	---	---	15.7	ENE	0.26	16.5	-33.2	---	---	720.3	0.027	0.000	19.8	3	1
03/22/06	10:48 p	-20.6	-20.6	-20.7	---	---	16.5	ENE	0.28	17.4	-33.4	---	---	720.4	0.027	0.000	19.8	3	1
03/22/06	10:49 p	-20.6	-20.6	-20.6	---	---	13.9	ENE	0.23	15.7	-32.4	---	---	720.4	0.027	0.000	19.8	3	1
03/22/06	10:50 p	-20.6	-20.6	-20.6	---	---	13.9	ENE	0.23	16.5	-32.4	---	---	720.4	0.027	0.000	19.8	3	1
03/22/06	10:51 p	-20.6	-20.6	-20.6	---	---	15.7	ENE	0.26	18.3	-33.0	---	---	720.4	0.027	0.000	19.8	3	1
03/22/06	10:52 p	-20.6	-20.6	-20.6	---	---	17.4	E	0.29	18.3	-33.6	---	---	720.4	0.027	0.000	19.8	3	1
03/22/06	10:53 p	-20.6	-20.5	-20.6	---	---	14.8	ENE	0.25	17.4	-32.7	---	---	720.5	0.027	0.000	19.8	3	1
03/22/06	10:54 p	-20.6	-20.5	-20.6	---	---	12.2	ENE	0.20	15.7	-31.7	---	---	720.5	0.027	0.000	19.8	3	1
03/22/06	10:55 p	-20.5	-20.5	-20.5	---	---	16.5	ENE	0.28	17.4	-33.2	---	---	720.3	0.027	0.000	19.8	3	1
03/22/06	10:56 p	-20.5	-20.5	-20.5	---	---	17.4	ENE	0.29	19.1	-33.5	---	---	720.4	0.027	0.000	19.8	3	1
03/22/06	10:57 p	-20.5	-20.4	-20.5	---	---	15.7	ENE	0.26	17.4	-32.9	---	---	720.4	0.027	0.000	19.8	3	1
03/22/06	10:58 p	-20.4	-20.4	-20.5	---	---	14.8	ENE	0.25	16.5	-32.6	---	---	720.4	0.027	0.000	19.8	3	1
03/22/06	10:59 p	-20.4	-20.4	-20.4	---	---	13.9	ENE	0.23	15.7	-32.3	---	---	720.4	0.027	0.000	19.8	3	1
03/22/06	11:00 p	-20.4	-20.4	-20.4	---	---	18.3	ENE	0.30	20.9	-33.7	---	---	720.4	0.027	0.000	19.8	3	1
03/22/06	11:01 p	-20.4	-20.4	-20.4	---	---	16.5	ENE	0.28	19.1	-33.1	---	---	720.4	0.027	0.000	19.8	3	1
03/22/06	11:02 p	-20.4	-20.4	-20.4	---	---	15.7	E	0.26	17.4	-32.8	---	---	720.5	0.027	0.000	19.8	3	1
03/22/06	11:03 p	-20.4	-20.3	-20.4	---	---	15.7	E	0.26	17.4	-32.8	---	---	720.4	0.027	0.000	19.8	3	1
03/22/06	11:04 p	-20.3	-20.3	-20.4	---	---	14.8	E	0.25	17.4	-32.4	---	---	720.4	0.027	0.000	19.8	3	1
03/22/06	11:05 p	-20.3	-20.3	-20.4	---	---	17.4	E	0.29	19.1	-33.3	---	---	720.4	0.027	0.000	19.8	3	1
03/22/06	11:06 p	-20.3	-20.3	-20.4	---	---	16.5	ENE	0.28	18.3	-33.0	---	---	720.4	0.027	0.000	19.8	3	1
03/22/06	11:07 p	-20.3	-20.3	-20.3	---	---	15.7	ENE	0.26	17.4	-32.7	---	---	720.4	0.027	0.000	19.8	3	1
03/22/06	11:08 p	-20.3	-20.3	-20.3	---	---	17.4	ENE	0.29	19.1	-33.3	---	---	720.4	0.027	0.000	19.8	3	1
03/22/06	11:09 p	-20.3	-20.3	-20.3	---	---	17.4	ENE	0.29	19.1	-33.3	---	---	720.4	0.027	0.000	19.7	3	1
03/22/06	11:10 p	-20.3	-20.3	-20.3	---	---	18.3	ENE	0.30	20.0	-33.5	---	---	720.4	0.027	0.000	19.7	3	1
03/22/06	11:11 p	-20.3	-20.3	-20.3	---	---	17.4	ENE	0.29	19.1	-33.2	---	---	720.4	0.027	0.000	19.7	3	1
03/22/06	11:12 p	-20.3	-20.3	-20.3	---	---	16.5	ENE	0.28	18.3	-32.9	---	---	720.4	0.027	0.000	19.7	3	1
03/22/06	11:13 p	-20.3	-20.2	-20.3	---	---	18.3	ENE	0.30	20.0	-33.5	---	---	720.5	0.027	0.000	19.7	3	1
03/22/06	11:14 p	-20.2	-20.2	-20.3	---	---	17.4	ENE	0.29	19.1	-33.2	---	---	720.4	0.027	0.000	19.7	3	1
03/22/06	11:15 p	-20.2	-20.2	-20.2	---	---	15.7	E	0.26	19.1	-32.6	---	---	720.4	0.027	0.000	19.7	3	1
03/22/06	11:16 p	-20.2	-20.2	-20.2	---	---	17.4	E	0.29	19.1	-33.2	---	---	720.5	0.027	0.000	19.7	3	1
03/22/06	11:17 p	-20.2	-20.2	-20.2	---	---	18.3	ENE	0.30	20.0	-33.4	---	---	720.4	0.027	0.000	19.7	2	1
03/22/06	11:18 p	-20.2	-20.2	-20.2	---	---	18.3	E	0.30	20.0	-33.4	---	---	720.4	0.027	0.000	19.7	3	1
03/22/06	11:19 p	-20.2	-20.2	-20.2	---	---	17.4	E	0.29	20.0	-33.1	---	---	720.4	0.027	0.000	19.7	3	1
03/22/06	11:20 p	-20.2	-20.2	-20.2	---	---	17.4	ENE	0.29	18.3	-33.1	---	---	720.5	0.027	0.000	19.7	2	1
03/22/06	11:21 p	-20.2	-20.2	-20.2	---	---	15.7	E	0.26	18.3	-32.5	---	---	720.5	0.027	0.000	19.7	2	1
03/22/06	11:22 p	-20.2	-20.2	-20.2	---	---	18.3	E	0.30	20.9	-33.3	---	---	720.3	0.027	0.000	19.7	3	1
03/22/06	11:23 p	-20.1	-20.1	-20.2	---	---	17.4	ENE	0.29	20.9	-33.0	---	---	720.5	0.027	0.000	19.7	3	1
03/22/06	11:24 p	-20.2	-20.1	-20.2	---	---	14.8	E	0.25	17.4	-32.2	---	---	720.5	0.027	0.000	19.7	3	1
03/22/06	11:25 p	-20.1	-20.1	-20.2	---	---	17.4	E	0.29	20.0	-33.0	---	---	720.4	0.027	0.000	19.7	2	1
03/22/06	11:26 p	-20.1	-20.1	-20.1	---	---	17.4	E	0.29	20.9	-33.0	---	---	720.5	0.027	0.000	19.7	2	1
03/22/06	11:27 p	-20.1	-20.1	-20.1	---	---	19.1	E	0.32	20.0	-33.5	---	---	720.4	0.027	0.000	19.7	2	1
03/22/06	11:28 p	-20.1	-20.1	-20.2	---	---	15.7	ENE	0.26	20.0	-32.4	---	---	720.4	0.027	0.000	19.7	2	1
03/22/06	11:29 p	-20.1	-20.1	-20.2	---	---	18.3	E	0.30	22.6	-33.3	---	---	720.3	0.027	0.000	19.7	2	1
03/22/06	11:30 p	-20.1	-20.1	-20.1	---	---	20.0	ENE	0.33	20.9	-33.7	---	---	720.4	0.027	0.000	19.7	2	1
03/22/06	11:31 p	-20.1	-20.1	-20.1	---	---	17.4	ENE	0.29	20.0	-32.9	---	---	720.4	0.027	0.000	19.7	2	1
03/22/06	11:32 p	-20.1	-20.1	-20.1	---	---	18.3	E	0.30	20.9	-33.2	---	---	720.4	0.027	0.000	19.7	3	1
03/22/06	11:33 p	-20.1	-20.1	-20.1	---	---	19.1	ENE	0.32	21.7	-33.4	---	---	720.5	0.027	0.000	19.7	2	1
03/22/06	11:34 p	-20.1	-20.1	-20.1	---	---	19.1	ENE	0.32	20.9	-33.4	---	---	720.4	0.027	0.000	19.7	2	1
03/22/06	11:35 p	-20.1	-20.1	-20.1	---	---	19.1	E	0.32	22.6	-33.4	---	---	720.3	0.027	0.000	19.7	2	1
03/22/06	11:36 p	-20.1	-20.1	-20.1	---	---	19.1	ENE	0.32	21.7	-33.4	---	---	720.4	0.027	0.000	19.7	2	1
03/22/06	11:37 p	-20.1	-20.0	-20.1	---	---	17.4	E	0.29	20.9	-32.9	---	---	720.3	0.027	0.000	19.7	2	1
03/22/06	11:38 p	-20.1	-20.0	-20.1	---	---	20.9	ENE	0.35	23.5	-33.9	---	---	720.4	0.027	0.000	19.7	2	1
03/22/06	11:39 p	-20.1	-20.0	-20.1	---	---	18.3	E	0.30	20.9	-33.2	---	---	720.4	0.027	0.000	19.7	2	1
03/22/06	11:40 p	-20.1	-20.0	-20.1	---	---	17.4	E	0.29	21.7	-32.9	---	---	720.3	0.027	0.000	19.7	2	1
03/22/06	11:41 p	-20.1	-20.0	-20.1	---	---	20.9	ENE	0.35	22.6	-33.9	---	---	720.4	0.027	0.000	19.7	2	1
03/22/06	11:42 p	-20.1	-20.0	-20.1	---	---	18.3	ENE	0.30	20.9	-33.2	---	---	720.4	0.027	0.000	19.7	2	1
03/22/06	11:43 p	-20.0	-20.0	-20.1	---	---	17.4	E	0.29	19.1	-32.8	---	---	720.4	0.027	0.000	19.7	2	1
03/22/06	11:44 p	-20.1	-20.0	-20.1	---	---	20.9	ENE	0.35	22.6	-33.9	---	---	720.4	0.027	0.000	19.7	2	1
03/22/06	11:45 p	-20.1	-20.0	-20.1	---	---	17.4	E	0.29	21.7	-32.9	---	---	720.5	0.027	0.000	19.7	2	1
03/22/06	11:46 p	-20.1	-20.0	-20.1	---	---	16.5	E	0.28	20.0	-32.7	---	---	720.4	0.027	0.000	19.7	2	1
03/22/06	11:47 p	-20.1	-20.0	-20.1	---	---	20.0	ENE	0.33	22.6	-33.7	---	---	720.4	0.027	0.000	19.7	2	1
03/22/06	11:48 p	-20.1	-20.0	-20.1	---	---	19.1	ENE	0.32	21.7	-33.4	---	---	720.4	0.027	0.000	19.7	2	1
03/22/06	11:49 p	-20.1	-20.0	-20.1	---	---	16.5	ENE	0.28	19.1	-32.7	---	---	720.4	0.027	0.000	19.7	2	1
03/22/06	11:50 p	-20.1	-20.1	-20.1	---	---	18.3	E	0.30	21.7	-33.2	---	---	720.4	0.027	0.000	19.7	2	1
03/22/06	11:51 p	-20.1	-20.1	-20.1	---	---	21.7	ENE	0.36	23.5	-34.2	---	---	720.4	0.027	0.000	19.7	2	1
03/22/06	11:52 p	-20.1	-20.0	-20.1	---	---	18.3	ENE	0.30	20.0	-33.2	---	---	720.4	0.027	0.000	19.7	2	1
03/22/06	11:53 p	-20.1	-20.1	-20.1	---	---	17.4	ENE	0.29	20.9	-32.9	---	---	720.4	0.027	0.000	19.7	2	1
03/22/06	11:54 p	-20.1	-20.1	-20.1	---	---	20.0	E	0.33	21.7	-33.7	---	---	720.4	0.027	0.000	19.7	2	1
03/22/06	11:55 p	-20.1	-20.1	-20.1	---	---	20.0	ENE	0.33	21.7	-33.7	---	---	720.4	0.027	0.000	19.7	2	1
03/22/06	11:56 p	-20.1	-20.0	-20.1	---	---	18.3	ENE	0.30	20.0	-33.2	---	---	720.4	0.027	0.000	19.7	2	1
03/22/06	11:57 p	-20.1	-20.1	-20.1	---	---	20.0	ENE	0.33	22.6	-33.7	---	---	720.4	0.027	0.000	19.7	2	1
03/22/06	11:58 p	-20.1	-20.1	-20.1	---	---	19.1	ENE	0.32	21.7	-33.4	---	---	720.4	0.027	0.000	19.7	2	1
03/22/06	11:59 p	-20.1	-20.1	-20.1	---	---	18.3	ENE	0.30	20.9	-33.2	---	---	720.5	0.027	0.000	19.7	2	1
03/23/06	12:00 a	-20.1	-20.1	-20.1	---	---	20.9	ENE	0.35	23.5	-33.9	---	---	720.4	0.027	0.000	19.7	2	1
03/23/06	12:01 a	-20.1	-20.1	-20.1	---	---	19.1	ENE	0.32	21.7	-33.4	---	---	720.4	0.027	0.000	19.7	2	1
03/23/06	12:02 a	-20.1	-20.1	-20.1	---	---	19.1	ENE	0.32	22.6	-33.5	---	---	720.4	0.027	0.000	19.7	2	1
03/23/06	12:03 a	-20.1	-20.1	-20.1	---	---	21.7	ENE	0.36	23.5	-34.2	---	---	720.4	0.027	0.000	19.7	2	1
03/23/06	12:04 a	-20.1	-20.1	-20.1	---	---	19.1	ENE	0.32	21.7	-33.4	---	---	720.3	0.027	0.000	19.7	2	1
03/23/06	12:05 a	-20.1	-20.1	-20.1	---	---	19.1	ENE	0.32	21.7	-33.5	---	---	720.4	0.027	0.000	19.6	2	1
03/23/06	12:06 a	-20.1	-20.1	-20.1	---	---	19.1	ENE	0.32	22.6	-33.4	---	---	720.4	0.027	0.000	19.7	2	1
03/23/06	12:07 a	-20.1	-20.1	-20.1	---	---	20.0	ENE	0.33	21.7	-33.8	---	---	720.3	0.027	0.000	19.7	2	1
03/23/06	12:08 a	-20.1	-20.1	-20.1	---	---	20.0	ENE	0.33	22.6	-33.8	---	---	720.4	0.027	0.000	19.7	2	1
03/23/06	12:09 a	-20.1	-20.1	-20.1	---	---	19.1	ENE	0.32	20.9	-33.4	---	---	720.5	0.027	0.000	19.7	2	1
03/23/06	12:10 a	-20.1	-20.1	-20.1	---	---	19.1	ENE	0.32	22.6	-33.5	---	---	720.4	0.027	0.000	19.7	2	1
03/23/06	12:11 a	-20.1	-20.1	-20.1	---	---	20.0	ENE	0.33	21.7	-33.8	---	---	720.5	0.027	0.000	19.7	2	1
03/23/06	12:12 a	-20.1	-20.1	-20.2	---	---	18.3	ENE	0.30	20.9	-33.3	---	---	720.5	0.027	0.000	19.7	2	1
03/23/06	12:13 a	-20.1	-20.1	-20.1	---	---	20.0	ENE	0.33	21.7	-33.8	---	---	720.5	0.027	0.000	19.7	2	1
03/23/06	12:14 a	-20.1	-20.1	-20.1	---	---	19.1	ENE	0.32	21.7	-33.5	---	---	720.4	0.027	0.000	19.7	2	1
03/23/06	12:15 a	-20.1	-20.1	-20.2	---	---	20.0	ENE	0.33	21.7	-33.8	---	---	720.5	0.027	0.000	19.6	2	1
03/23/06	12:16 a	-20.2	-20.1	-20.2	---	---	19.1	ENE	0.32	20.9	-33.6	---	---	720.5	0.027	0.000	19.6	2	1
03/23/06	12:17 a	-20.2	-20.2	-20.2	---	---	19.1	ENE	0.32	20.9	-33.6	---	---	720.5	0.027	0.000	19.6	2	1
03/23/06	12:18 a	-20.2	-20.2	-20.2	---	---	19.1	ENE	0.32	20.9	-33.6	---	---	720.4	0.027	0.000	19.7	2	1
03/23/06	12:19 a	-20.2	-20.2	-20.2	---	---	20.0	ENE	0.33	21.7	-33.8	---	---	720.6	0.027	0.000	19.6	2	1
03/23/06	12:20 a	-20.2	-20.2	-20.2	---	---	18.3	ENE	0.30	22.6	-33.3	---	---	720.4	0.027	0.000	19.6	2	1
03/23/06	12:21 a	-20.2	-20.2	-20.2	---	---	20.0	ENE	0.33	22.6	-33.9	---	---	720.5	0.027	0.000	19.7	2	1
03/23/06	12:22 a	-20.2	-20.2	-20.2	---	---	19.1	ENE	0.32	21.7	-33.7	---	---	720.4	0.027	0.000	19.6	2	1
03/23/06	12:23 a	-20.3	-20.2	-20.3	---	---	20.9	ENE	0.35	21.7	-34.2	---	---	720.5	0.027	0.000	19.7	2	1
03/23/06	12:24 a	-20.2	-20.2	-20.3	---	---	18.3	ENE	0.30	20.9	-33.4	---	---	720.5	0.027	0.000	19.7	2	1
03/23/06	12:25 a	-20.3	-20.2	-20.3	---	---	18.3	ENE	0.30	20.0	-33.5	---	---	720.4	0.027	0.000	19.7	2	1
03/23/06	12:26 a	-20.3	-20.3	-20.3	---	---	19.1	ENE	0.32	20.9	-33.7	---	---	720.5	0.027	0.000	19.7	2	1
03/23/06	12:27 a	-20.3	-20.3	-20.3	---	---	19.1	ENE	0.32	21.7	-33.7	---	---	720.5	0.027	0.000	19.7	2	1
03/23/06	12:28 a	-20.3	-20.3	-20.3	---	---	20.9	ENE	0.35	22.6	-34.2	---	---	720.5	0.027	0.000	19.7	2	1
03/23/06	12:29 a	-20.3	-20.3	-20.3	---	---	20.0	ENE	0.33	22.6	-34.1	---	---	720.5	0.027	0.000	19.7	2	1
03/23/06	12:30 a	-20.3	-20.3	-20.4	---	---	20.0	ENE	0.33	21.7	-34.1	---	---	720.5	0.027	0.000	19.7	2	1
03/23/06	12:31 a	-20.4	-20.3	-20.4	---	---	19.1	ENE	0.32	21.7	-33.9	---	---	720.5	0.027	0.000	19.7	2	1
03/23/06	12:32 a	-20.4	-20.4	-20.4	---	---	20.0	ENE	0.33	21.7	-34.2	---	---	720.4	0.027	0.000	19.7	2	1
03/23/06	12:33 a	-20.4	-20.4	-20.4	---	---	20.9	ENE	0.35	22.6	-34.4	---	---	720.5	0.027	0.000	19.7	2	1
03/23/06	12:34 a	-20.4	-20.4	-20.4	---	---	19.1	ENE	0.32	21.7	-33.9	---	---	720.4	0.027	0.000	19.7	2	1
03/23/06	12:35 a	-20.4	-20.4	-20.5	---	---	20.0	ENE	0.33	20.9	-34.2	---	---	720.5	0.027	0.000	19.7	2	1
03/23/06	12:36 a	-20.5	-20.4	-20.5	---	---	20.0	ENE	0.33	20.9	-34.3	---	---	720.5	0.027	0.000	19.7	2	1
03/23/06	12:37 a	-20.5	-20.5	-20.6	---	---	19.1	ENE	0.32	20.9	-34.1	---	---	720.5	0.027	0.000	19.7	2	1
03/23/06	12:38 a	-20.6	-20.5	-20.6	---	---	20.0	ENE	0.33	21.7	-34.3	---	---	720.5	0.027	0.000	19.7	2	1
03/23/06	12:39 a	-20.6	-20.6	-20.6	---	---	18.3	ENE	0.30	20.0	-33.8	---	---	720.5	0.027	0.000	19.7	2	1
03/23/06	12:40 a	-20.6	-20.6	-20.6	---	---	20.0	ENE	0.33	21.7	-34.4	---	---	720.6	0.027	0.000	19.7	2	1
03/23/06	12:41 a	-20.6	-20.6	-20.6	---	---	20.0	ENE	0.33	21.7	-34.4	---	---	720.5	0.027	0.000	19.6	2	1
03/23/06	12:42 a	-20.6	-20.6	-20.7	---	---	20.0	ENE	0.33	20.9	-34.4	---	---	720.5	0.027	0.000	19.6	2	1
03/23/06	12:43 a	-20.7	-20.7	-20.7	---	---	19.1	ENE	0.32	20.9	-34.3	---	---	720.5	0.027	0.000	19.6	2	1
03/23/06	12:44 a	-20.7	-20.7	-20.7	---	---	20.0	ENE	0.33	21.7	-34.6	---	---	720.6	0.027	0.000	19.6	2	1
03/23/06	12:45 a	-20.7	-20.7	-20.8	---	---	20.0	ENE	0.33	21.7	-34.6	---	---	720.6	0.027	0.000	19.6	2	1
03/23/06	12:46 a	-20.7	-20.7	-20.8	---	---	20.9	ENE	0.35	22.6	-34.8	---	---	720.6	0.027	0.000	19.6	2	1
03/23/06	12:47 a	-20.8	-20.8	-20.8	---	---	20.9	ENE	0.35	21.7	-34.9	---	---	720.4	0.027	0.000	19.6	2	1
03/23/06	12:48 a	-20.8	-20.8	-20.8	---	---	20.0	ENE	0.33	22.6	-34.7	---	---	720.4	0.027	0.000	19.6	2	1
03/23/06	12:49 a	-20.8	-20.8	-20.8	---	---	20.9	ENE	0.35	21.7	-34.9	---	---	720.6	0.027	0.000	19.6	2	1
03/23/06	12:50 a	-20.8	-20.8	-20.8	---	---	20.0	ENE	0.33	20.9	-34.7	---	---	720.6	0.027	0.000	19.6	2	1
03/23/06	12:51 a	-20.9	-20.8	-20.9	---	---	20.9	ENE	0.35	21.7	-35.1	---	---	720.4	0.027	0.000	19.6	2	1
03/23/06	12:52 a	-20.9	-20.9	-20.9	---	---	20.9	ENE	0.35	22.6	-35.1	---	---	720.5	0.027	0.000	19.6	2	1
03/23/06	12:53 a	-20.9	-20.9	-20.9	---	---	19.1	ENE	0.32	20.9	-34.6	---	---	720.5	0.027	0.000	19.6	2	1
03/23/06	12:54 a	-20.9	-20.9	-20.9	---	---	20.9	ENE	0.35	22.6	-35.1	---	---	720.5	0.027	0.000	19.6	2	1
03/23/06	12:55 a	-21.0	-20.9	-21.1	---	---	20.0	ENE	0.33	21.7	-34.9	---	---	720.5	0.027	0.000	19.6	2	1
03/23/06	12:56 a	-21.0	-21.0	-21.0	---	---	20.0	ENE	0.33	21.7	-34.9	---	---	720.5	0.027	0.000	19.6	2	1
03/23/06	12:57 a	-21.1	-21.0	-21.1	---	---	20.9	ENE	0.35	22.6	-35.3	---	---	720.6	0.027	0.000	19.6	2	1
03/23/06	12:58 a	-21.1	-21.1	-21.1	---	---	19.1	ENE	0.32	20.9	-34.8	---	---	720.6	0.027	0.000	19.6	2	1
03/23/06	12:59 a	-21.1	-21.1	-21.1	---	---	19.1	ENE	0.32	21.7	-34.8	---	---	720.5	0.027	0.000	19.6	2	1
03/23/06	1:00 a	-21.2	-21.1	-21.2	---	---	20.9	ENE	0.35	22.6	-35.4	---	---	720.5	0.027	0.000	19.6	2	1
03/23/06	1:01 a	-21.2	-21.2	-21.2	---	---	19.1	ENE	0.32	20.9	-34.9	---	---	720.5	0.027	0.000	19.6	2	1
03/23/06	1:02 a	-21.2	-21.2	-21.2	---	---	19.1	ENE	0.32	20.9	-34.9	---	---	720.6	0.027	0.000	19.6	2	1
03/23/06	1:03 a	-21.2	-21.2	-21.2	---	---	20.0	ENE	0.33	21.7	-35.2	---	---	720.6	0.027	0.000	19.6	2	1
03/23/06	1:04 a	-21.3	-21.2	-21.3	---	---	20.9	ENE	0.35	21.7	-35.6	---	---	720.5	0.028	0.000	19.6	2	1
03/23/06	1:05 a	-21.3	-21.3	-21.3	---	---	20.0	ENE	0.33	22.6	-35.3	---	---	720.6	0.028	0.000	19.6	2	1
03/23/06	1:06 a	-21.3	-21.3	-21.3	---	---	19.1	ENE	0.32	20.9	-35.1	---	---	720.6	0.028	0.000	19.6	2	1
03/23/06	1:07 a	-21.4	-21.3	-21.4	---	---	20.0	ENE	0.33	21.7	-35.4	---	---	720.5	0.028	0.000	19.6	2	1
03/23/06	1:08 a	-21.4	-21.3	-21.4	---	---	19.1	ENE	0.32	20.9	-35.2	---	---	720.5	0.028	0.000	19.6	2	1
03/23/06	1:09 a	-21.4	-21.4	-21.4	---	---	20.9	ENE	0.35	22.6	-35.7	---	---	720.5	0.028	0.000	19.6	2	1
03/23/06	1:10 a	-21.4	-21.4	-21.4	---	---	20.0	ENE	0.33	21.7	-35.6	---	---	720.5	0.028	0.000	19.6	2	1
03/23/06	1:11 a	-21.4	-21.4	-21.4	---	---	20.9	ENE	0.35	22.6	-35.8	---	---	720.6	0.028	0.000	19.6	2	1
03/23/06	1:12 a	-21.4	-21.4	-21.5	---	---	20.9	ENE	0.35	22.6	-35.8	---	---	720.5	0.028	0.000	19.6	2	1
03/23/06	1:13 a	-21.5	-21.4	-21.6	---	---	21.7	ENE	0.36	24.3	-36.1	---	---	720.4	0.028	0.000	19.6	2	1
03/23/06	1:14 a	-21.6	-21.5	-21.6	---	---	21.7	ENE	0.36	23.5	-36.2	---	---	720.5	0.028	0.000	19.6	2	1
03/23/06	1:15 a	-21.6	-21.6	-21.6	---	---	21.7	ENE	0.36	24.3	-36.2	---	---	720.4	0.028	0.000	19.6	2	1
03/23/06	1:16 a	-21.6	-21.6	-21.6	---	---	21.7	ENE	0.36	24.3	-36.2	---	---	720.6	0.028	0.000	19.6	2	1
03/23/06	1:17 a	-21.6	-21.6	-21.6	---	---	22.6	ENE	0.38	24.3	-36.4	---	---	720.5	0.028	0.000	19.6	2	1
03/23/06	1:18 a	-21.7	-21.6	-21.7	---	---	23.5	ENE	0.39	24.3	-36.8	---	---	720.5	0.028	0.000	19.6	2	1
03/23/06	1:19 a	-21.7	-21.7	-21.7	---	---	22.6	ENE	0.38	24.3	-36.6	---	---	720.5	0.028	0.000	19.6	2	1
03/23/06	1:20 a	-21.7	-21.7	-21.7	---	---	22.6	ENE	0.38	23.5	-36.6	---	---	720.5	0.028	0.000	19.6	2	1
03/23/06	1:21 a	-21.7	-21.7	-21.7	---	---	23.5	ENE	0.39	26.1	-36.8	---	---	720.5	0.028	0.000	19.6	2	1
03/23/06	1:22 a	-21.8	-21.7	-21.8	---	---	23.5	ENE	0.39	24.3	-36.9	---	---	720.6	0.028	0.000	19.6	2	1
03/23/06	1:23 a	-21.8	-21.8	-21.8	---	---	23.5	ENE	0.39	24.3	-36.9	---	---	720.5	0.028	0.000	19.6	2	1
03/23/06	1:24 a	-21.8	-21.8	-21.8	---	---	21.7	ENE	0.36	24.3	-36.6	---	---	720.6	0.028	0.000	19.6	2	1
03/23/06	1:25 a	-21.8	-21.8	-21.9	---	---	22.6	ENE	0.38	24.3	-36.8	---	---	720.4	0.028	0.000	19.6	2	1
03/23/06	1:26 a	-21.8	-21.8	-21.9	---	---	22.6	ENE	0.38	26.1	-36.8	---	---	720.7	0.028	0.000	19.6	2	1
03/23/06	1:27 a	-21.9	-21.8	-21.9	---	---	21.7	ENE	0.36	23.5	-36.6	---	---	720.6	0.028	0.000	19.6	2	1
03/23/06	1:28 a	-21.9	-21.9	-21.9	---	---	22.6	ENE	0.38	24.3	-36.8	---	---	720.5	0.028	0.000	19.6	2	1
03/23/06	1:29 a	-21.9	-21.9	-21.9	---	---	20.9	ENE	0.35	22.6	-36.4	---	---	720.6	0.028	0.000	19.6	2	1
03/23/06	1:30 a	-21.9	-21.9	-21.9	---	---	23.5	ENE	0.39	24.3	-37.1	---	---	720.5	0.028	0.000	19.6	2	1
03/23/06	1:31 a	-21.9	-21.9	-22.0	---	---	22.6	ENE	0.38	24.3	-36.9	---	---	720.6	0.028	0.000	19.5	2	1
03/23/06	1:32 a	-22.0	-21.9	-22.0	---	---	22.6	ENE	0.38	23.5	-37.0	---	---	720.5	0.028	0.000	19.5	1	1
03/23/06	1:33 a	-22.0	-22.0	-22.1	---	---	23.5	ENE	0.39	24.3	-37.2	---	---	720.7	0.028	0.000	19.5	2	1
03/23/06	1:34 a	-22.0	-22.0	-22.1	---	---	21.7	ENE	0.36	24.3	-36.8	---	---	720.6	0.028	0.000	19.6	2	1
03/23/06	1:35 a	-22.1	-22.1	-22.1	---	---	23.5	ENE	0.39	25.2	-37.3	---	---	720.6	0.028	0.000	19.5	2	1
03/23/06	1:36 a	-22.1	-22.1	-22.1	---	---	21.7	ENE	0.36	23.5	-36.9	---	---	720.5	0.028	0.000	19.5	2	1
03/23/06	1:37 a	-22.1	-22.1	-22.1	---	---	22.6	ENE	0.38	25.2	-37.1	---	---	720.5	0.028	0.000	19.5	1	1
03/23/06	1:38 a	-22.1	-22.1	-22.1	---	---	23.5	ENE	0.39	25.2	-37.3	---	---	720.5	0.028	0.000	19.5	1	1
03/23/06	1:39 a	-22.1	-22.1	-22.2	---	---	22.6	ENE	0.38	24.3	-37.1	---	---	720.5	0.028	0.000	19.5	2	1
03/23/06	1:40 a	-22.2	-22.1	-22.2	---	---	22.6	ENE	0.38	25.2	-37.2	---	---	720.5	0.028	0.000	19.5	2	1
03/23/06	1:41 a	-22.2	-22.2	-22.2	---	---	24.3	ENE	0.41	25.2	-37.7	---	---	720.5	0.028	0.000	19.5	2	1
03/23/06	1:42 a	-22.2	-22.2	-22.2	---	---	23.5	ENE	0.39	25.2	-37.4	---	---	720.5	0.028	0.000	19.5	1	1
03/23/06	1:43 a	-22.2	-22.2	-22.2	---	---	22.6	ENE	0.38	25.2	-37.3	---	---	720.5	0.028	0.000	19.5	2	1
03/23/06	1:44 a	-22.2	-22.2	-22.2	---	---	22.6	ENE	0.38	24.3	-37.3	---	---	720.5	0.028	0.000	19.5	1	1
03/23/06	1:45 a	-22.2	-22.2	-22.3	---	---	21.7	ENE	0.36	23.5	-37.1	---	---	720.6	0.028	0.000	19.5	2	1
03/23/06	1:46 a	-22.2	-22.2	-22.2	---	---	24.3	ENE	0.41	26.1	-37.7	---	---	720.6	0.028	0.000	19.5	1	1
03/23/06	1:47 a	-22.3	-22.2	-22.3	---	---	22.6	ENE	0.38	27.8	-37.3	---	---	720.5	0.028	0.000	19.5	1	1
03/23/06	1:48 a	-22.3	-22.2	-22.3	---	---	24.3	ENE	0.41	27.0	-37.8	---	---	720.6	0.028	0.000	19.5	1	1
03/23/06	1:49 a	-22.3	-22.2	-22.3	---	---	23.5	ENE	0.39	26.1	-37.6	---	---	720.5	0.028	0.000	19.5	1	1
03/23/06	1:50 a	-22.3	-22.3	-22.3	---	---	23.5	ENE	0.39	25.2	-37.6	---	---	720.5	0.028	0.000	19.5	1	1
03/23/06	1:51 a	-22.3	-22.3	-22.3	---	---	22.6	ENE	0.38	25.2	-37.4	---	---	720.5	0.028	0.000	19.5	1	1
03/23/06	1:52 a	-22.3	-22.3	-22.3	---	---	23.5	ENE	0.39	25.2	-37.7	---	---	720.4	0.028	0.000	19.5	1	1
03/23/06	1:53 a	-22.3	-22.3	-22.3	---	---	23.5	ENE	0.39	24.3	-37.7	---	---	720.5	0.028	0.000	19.4	1	1
03/23/06	1:54 a	-22.3	-22.3	-22.4	---	---	23.5	ENE	0.39	27.0	-37.7	---	---	720.5	0.028	0.000	19.5	1	1
03/23/06	1:55 a	-22.3	-22.3	-22.4	---	---	23.5	ENE	0.39	26.1	-37.7	---	---	720.5	0.028	0.000	19.4	1	1
03/23/06	1:56 a	-22.4	-22.3	-22.4	---	---	23.5	ENE	0.39	26.1	-37.7	---	---	720.5	0.028	0.000	19.4	1	1
03/23/06	1:57 a	-22.4	-22.4	-22.4	---	---	23.5	ENE	0.39	26.1	-37.7	---	---	720.5	0.028	0.000	19.4	1	1
03/23/06	1:58 a	-22.4	-22.4	-22.4	---	---	24.3	ENE	0.41	26.1	-38.0	---	---	720.5	0.028	0.000	19.4	1	1
03/23/06	1:59 a	-22.4	-22.4	-22.5	---	---	23.5	ENE	0.39	27.0	-37.8	---	---	720.5	0.028	0.000	19.5	1	1
03/23/06	2:00 a	-22.4	-22.4	-22.5	---	---	24.3	ENE	0.41	27.0	-38.0	---	---	720.6	0.028	0.000	19.5	1	1
03/23/06	2:01 a	-22.5	-22.5	-22.5	---	---	23.5	ENE	0.39	25.2	-37.9	---	---	720.5	0.028	0.000	19.5	1	1
03/23/06	2:02 a	-22.6	-22.5	-22.6	---	---	23.5	ENE	0.39	26.1	-37.9	---	---	720.6	0.028	0.000	19.5	1	1
03/23/06	2:03 a	-22.6	-22.6	-22.6	---	---	24.3	ENE	0.41	26.1	-38.2	---	---	720.5	0.028	0.000	19.5	1	1
03/23/06	2:04 a	-22.6	-22.6	-22.6	---	---	23.5	ENE	0.39	25.2	-38.0	---	---	720.5	0.028	0.000	19.5	1	1
03/23/06	2:05 a	-22.6	-22.6	-22.7	---	---	24.3	ENE	0.41	25.2	-38.2	---	---	720.6	0.028	0.000	19.5	1	1
03/23/06	2:06 a	-22.7	-22.7	-22.7	---	---	24.3	ENE	0.41	27.0	-38.4	---	---	720.5	0.029	0.000	19.4	1	1
03/23/06	2:07 a	-22.7	-22.7	-22.8	---	---	25.2	ENE	0.42	27.0	-38.6	---	---	720.6	0.029	0.000	19.5	1	1
03/23/06	2:08 a	-22.8	-22.7	-22.8	---	---	26.1	ENE	0.43	27.0	-38.9	---	---	720.5	0.029	0.000	19.5	1	1
03/23/06	2:09 a	-22.8	-22.8	-22.8	---	---	25.2	ENE	0.42	27.0	-38.7	---	---	720.6	0.029	0.000	19.4	1	1
03/23/06	2:10 a	-22.8	-22.8	-22.9	---	---	24.3	ENE	0.41	26.1	-38.6	---	---	720.6	0.029	0.000	19.4	1	1
03/23/06	2:11 a	-22.9	-22.9	-22.9	---	---	24.3	ENE	0.41	27.0	-38.6	---	---	720.6	0.029	0.000	19.4	1	1
03/23/06	2:12 a	-22.9	-22.9	-22.9	---	---	24.3	ENE	0.41	26.1	-38.7	---	---	720.6	0.029	0.000	19.4	1	1
03/23/06	2:13 a	-22.9	-22.9	-23.0	---	---	25.2	ENE	0.42	26.1	-38.9	---	---	720.6	0.029	0.000	19.4	1	1
03/23/06	2:14 a	-23.0	-23.0	-23.1	---	---	24.3	ENE	0.41	26.1	-38.8	---	---	720.7	0.029	0.000	19.4	1	1
03/23/06	2:15 a	-23.1	-23.1	-23.1	---	---	24.3	ENE	0.41	27.0	-38.8	---	---	720.7	0.029	0.000	19.4	1	1
03/23/06	2:16 a	-23.1	-23.1	-23.1	---	---	24.3	ENE	0.41	27.0	-38.9	---	---	720.8	0.029	0.000	19.4	1	1
03/23/06	2:17 a	-23.1	-23.1	-23.2	---	---	24.3	ENE	0.41	26.1	-38.9	---	---	720.6	0.029	0.000	19.4	1	1
03/23/06	2:18 a	-23.2	-23.2	-23.2	---	---	23.5	ENE	0.39	25.2	-38.8	---	---	720.7	0.029	0.000	19.4	1	1
03/23/06	2:19 a	-23.2	-23.2	-23.2	---	---	23.5	ENE	0.39	25.2	-38.8	---	---	720.7	0.029	0.000	19.4	1	1
03/23/06	2:20 a	-23.3	-23.2	-23.3	---	---	24.3	ENE	0.41	26.1	-39.2	---	---	720.6	0.029	0.000	19.4	1	1
03/23/06	2:21 a	-23.3	-23.3	-23.3	---	---	25.2	ENE	0.42	27.0	-39.3	---	---	720.7	0.029	0.000	19.4	1	1
03/23/06	2:22 a	-23.3	-23.3	-23.3	---	---	23.5	ENE	0.39	25.2	-39.0	---	---	720.8	0.029	0.000	19.4	1	1
03/23/06	2:23 a	-23.4	-23.3	-23.4	---	---	25.2	ENE	0.42	27.0	-39.5	---	---	720.7	0.029	0.000	19.4	1	1
03/23/06	2:24 a	-23.4	-23.4	-23.4	---	---	24.3	ENE	0.41	26.1	-39.3	---	---	720.8	0.029	0.000	19.4	1	1
03/23/06	2:25 a	-23.4	-23.4	-23.4	---	---	24.3	ENE	0.41	26.1	-39.4	---	---	720.6	0.029	0.000	19.4	1	1
03/23/06	2:26 a	-23.5	-23.4	-23.5	---	---	24.3	ENE	0.41	26.1	-39.4	---	---	720.6	0.029	0.000	19.4	1	1
03/23/06	2:27 a	-23.5	-23.4	-23.5	---	---	24.3	ENE	0.41	27.0	-39.4	---	---	720.6	0.029	0.000	19.3	1	1
03/23/06	2:28 a	-23.5	-23.5	-23.6	---	---	23.5	ENE	0.39	25.2	-39.2	---	---	720.6	0.029	0.000	19.3	1	1
03/23/06	2:29 a	-23.6	-23.5	-23.6	---	---	25.2	ENE	0.42	27.0	-39.7	---	---	720.7	0.029	0.000	19.3	1	1
03/23/06	2:30 a	-23.6	-23.6	-23.6	---	---	25.2	ENE	0.42	27.0	-39.7	---	---	720.6	0.029	0.000	19.3	1	1
03/23/06	2:31 a	-23.6	-23.6	-23.6	---	---	25.2	ENE	0.42	27.0	-39.7	---	---	720.6	0.029	0.000	19.3	1	1
03/23/06	2:32 a	-23.6	-23.6	-23.6	---	---	25.2	ENE	0.42	27.0	-39.8	---	---	720.5	0.029	0.000	19.3	1	1
03/23/06	2:33 a	-23.6	-23.6	-23.6	---	---	25.2	ENE	0.42	27.0	-39.8	---	---	720.6	0.029	0.000	19.3	1	1
03/23/06	2:34 a	-23.6	-23.6	-23.6	---	---	25.2	ENE	0.42	26.1	-39.8	---	---	720.6	0.029	0.000	19.3	1	1
03/23/06	2:35 a	-23.6	-23.6	-23.7	---	---	26.1	ENE	0.43	27.0	-40.0	---	---	720.6	0.029	0.000	19.3	1	1
03/23/06	2:36 a	-23.6	-23.6	-23.6	---	---	26.1	ENE	0.43	27.0	-40.0	---	---	720.6	0.029	0.000	19.3	1	1
03/23/06	2:37 a	-23.7	-23.6	-23.7	---	---	25.2	ENE	0.42	27.0	-39.9	---	---	720.5	0.029	0.000	19.3	1	1
03/23/06	2:38 a	-23.6	-23.6	-23.7	---	---	25.2	ENE	0.42	27.8	-39.8	---	---	720.6	0.029	0.000	19.3	1	1
03/23/06	2:39 a	-23.7	-23.7	-23.7	---	---	26.1	ENE	0.43	27.8	-40.1	---	---	720.5	0.029	0.000	19.3	1	1
03/23/06	2:40 a	-23.7	-23.7	-23.7	---	---	27.0	ENE	0.45	28.7	-40.3	---	---	720.4	0.029	0.000	19.3	1	1
03/23/06	2:41 a	-23.7	-23.7	-23.7	---	---	26.1	ENE	0.43	27.8	-40.1	---	---	720.4	0.029	0.000	19.3	1	1
03/23/06	2:42 a	-23.7	-23.7	-23.7	---	---	27.8	ENE	0.46	29.6	-40.5	---	---	720.5	0.029	0.000	19.3	1	1
03/23/06	2:43 a	-23.7	-23.7	-23.7	---	---	27.0	ENE	0.45	28.7	-40.3	---	---	720.5	0.029	0.000	19.3	1	1
03/23/06	2:44 a	-23.7	-23.7	-23.7	---	---	26.1	ENE	0.43	28.7	-40.1	---	---	720.4	0.029	0.000	19.3	1	1
03/23/06	2:45 a	-23.7	-23.7	-23.7	---	---	26.1	ENE	0.43	28.7	-40.1	---	---	720.4	0.029	0.000	19.3	1	1
03/23/06	2:46 a	-23.7	-23.7	-23.7	---	---	26.1	ENE	0.43	27.8	-40.2	---	---	720.4	0.029	0.000	19.3	1	1
03/23/06	2:47 a	-23.7	-23.7	-23.7	---	---	26.1	ENE	0.43	28.7	-40.2	---	---	720.5	0.029	0.000	19.3	1	1
03/23/06	2:48 a	-23.7	-23.7	-23.7	---	---	27.0	ENE	0.45	29.6	-40.3	---	---	720.5	0.029	0.000	19.3	1	1
03/23/06	2:49 a	-23.7	-23.7	-23.8	---	---	27.0	ENE	0.45	29.6	-40.4	---	---	720.5	0.029	0.000	19.3	1	1
03/23/06	2:50 a	-23.7	-23.7	-23.7	---	---	27.8	ENE	0.46	29.6	-40.6	---	---	720.5	0.029	0.000	19.3	1	1
03/23/06	2:51 a	-23.7	-23.7	-23.7	---	---	27.0	ENE	0.45	28.7	-40.4	---	---	720.5	0.029	0.000	19.3	1	1
03/23/06	2:52 a	-23.8	-23.7	-23.8	---	---	27.8	ENE	0.46	29.6	-40.7	---	---	720.4	0.029	0.000	19.3	1	1
03/23/06	2:53 a	-23.8	-23.7	-23.8	---	---	27.8	ENE	0.46	28.7	-40.7	---	---	720.4	0.029	0.000	19.3	1	1
03/23/06	2:54 a	-23.8	-23.8	-23.8	---	---	27.0	ENE	0.45	28.7	-40.4	---	---	720.4	0.029	0.000	19.3	1	1
03/23/06	2:55 a	-23.8	-23.8	-23.8	---	---	27.8	ENE	0.46	29.6	-40.7	---	---	720.4	0.029	0.000	19.3	1	1
03/23/06	2:56 a	-23.8	-23.8	-23.8	---	---	27.8	ENE	0.46	29.6	-40.7	---	---	720.4	0.029	0.000	19.3	1	1
03/23/06	2:57 a	-23.8	-23.8	-23.8	---	---	27.8	ENE	0.46	28.7	-40.7	---	---	720.5	0.029	0.000	19.3	1	1
03/23/06	2:58 a	-23.8	-23.8	-23.8	---	---	27.8	ENE	0.46	30.4	-40.7	---	---	720.4	0.029	0.000	19.3	1	1
03/23/06	2:59 a	-23.8	-23.8	-23.9	---	---	29.6	ENE	0.49	30.4	-41.1	---	---	720.4	0.029	0.000	19.3	1	1
03/23/06	3:00 a	-23.8	-23.8	-23.8	---	---	27.8	ENE	0.46	31.3	-40.7	---	---	720.4	0.029	0.000	19.3	1	1
03/23/06	3:01 a	-23.9	-23.9	-23.9	---	---	28.7	ENE	0.48	31.3	-41.0	---	---	720.4	0.029	0.000	19.3	1	1
03/23/06	3:02 a	-23.9	-23.9	-23.9	---	---	29.6	ENE	0.49	31.3	-41.2	---	---	720.4	0.029	0.000	19.3	1	1
03/23/06	3:03 a	-23.9	-23.8	-23.9	---	---	28.7	ENE	0.48	31.3	-41.0	---	---	720.3	0.029	0.000	19.3	1	1
03/23/06	3:04 a	-23.9	-23.9	-23.9	---	---	29.6	ENE	0.49	31.3	-41.2	---	---	720.4	0.029	0.000	19.3	1	1
03/23/06	3:05 a	-23.9	-23.9	-23.9	---	---	29.6	ENE	0.49	32.2	-41.2	---	---	720.4	0.029	0.000	19.3	1	1
03/23/06	3:06 a	-23.9	-23.9	-23.9	---	---	31.3	ENE	0.52	32.2	-41.6	---	---	720.4	0.029	0.000	19.3	1	1
03/23/06	3:07 a	-23.9	-23.9	-23.9	---	---	31.3	ENE	0.52	33.9	-41.6	---	---	720.4	0.029	0.000	19.3	1	1
03/23/06	3:08 a	-23.9	-23.9	-23.9	---	---	29.6	ENE	0.49	32.2	-41.3	---	---	720.4	0.029	0.000	19.3	1	1
03/23/06	3:09 a	-23.9	-23.9	-23.9	---	---	29.6	ENE	0.49	33.0	-41.3	---	---	720.4	0.029	0.000	19.3	1	1
03/23/06	3:10 a	-23.9	-23.9	-24.0	---	---	31.3	ENE	0.52	33.0	-41.6	---	---	720.3	0.029	0.000	19.3	1	1
03/23/06	3:11 a	-23.9	-23.9	-24.0	---	---	30.4	ENE	0.51	33.0	-41.4	---	---	720.4	0.029	0.000	19.3	1	1
03/23/06	3:12 a	-23.9	-23.9	-23.9	---	---	29.6	ENE	0.49	32.2	-41.3	---	---	720.5	0.029	0.000	19.3	1	1
03/23/06	3:13 a	-24.0	-23.9	-24.0	---	---	31.3	ENE	0.52	33.9	-41.7	---	---	720.3	0.029	0.000	19.3	1	1
03/23/06	3:14 a	-24.0	-23.9	-24.0	---	---	30.4	ENE	0.51	32.2	-41.5	---	---	720.5	0.029	0.000	19.2	1	1
03/23/06	3:15 a	-24.0	-24.0	-24.0	---	---	30.4	ENE	0.51	33.0	-41.5	---	---	720.4	0.029	0.000	19.2	1	1
03/23/06	3:16 a	-24.0	-24.0	-24.1	---	---	29.6	ENE	0.49	31.3	-41.3	---	---	720.5	0.029	0.000	19.2	1	1
03/23/06	3:17 a	-24.0	-24.0	-24.1	---	---	30.4	ENE	0.51	32.2	-41.5	---	---	720.4	0.029	0.000	19.2	1	1
03/23/06	3:18 a	-24.0	-24.0	-24.0	---	---	30.4	ENE	0.51	33.0	-41.5	---	---	720.4	0.029	0.000	19.2	1	1
03/23/06	3:19 a	-24.0	-24.0	-24.0	---	---	29.6	ENE	0.49	31.3	-41.3	---	---	720.5	0.029	0.000	19.2	1	1
03/23/06	3:20 a	-24.0	-24.0	-24.1	---	---	30.4	ENE	0.51	32.2	-41.5	---	---	720.5	0.029	0.000	19.2	1	1
03/23/06	3:21 a	-24.0	-23.9	-24.0	---	---	30.4	ENE	0.51	32.2	-41.5	---	---	720.5	0.029	0.000	19.2	1	1
03/23/06	3:22 a	-24.0	-24.0	-24.1	---	---	29.6	ENE	0.49	31.3	-41.3	---	---	720.5	0.029	0.000	19.2	1	1
03/23/06	3:23 a	-24.0	-24.0	-24.0	---	---	30.4	ENE	0.51	32.2	-41.5	---	---	720.6	0.029	0.000	19.2	1	1
03/23/06	3:24 a	-24.0	-24.0	-24.1	---	---	28.7	ENE	0.48	31.3	-41.1	---	---	720.5	0.029	0.000	19.2	1	1
03/23/06	3:25 a	-24.0	-23.9	-24.0	---	---	29.6	ENE	0.49	32.2	-41.3	---	---	720.5	0.029	0.000	19.2	1	1
03/23/06	3:26 a	-24.0	-23.9	-24.0	---	---	30.4	ENE	0.51	33.9	-41.5	---	---	720.6	0.029	0.000	19.2	1	1
03/23/06	3:27 a	-23.9	-23.9	-24.0	---	---	30.4	ENE	0.51	33.0	-41.4	---	---	720.5	0.029	0.000	19.2	1	1
03/23/06	3:28 a	-24.0	-24.0	-24.0	---	---	28.7	ENE	0.48	31.3	-41.1	---	---	720.6	0.029	0.000	19.2	1	1
03/23/06	3:29 a	-24.0	-24.0	-24.0	---	---	28.7	ENE	0.48	30.4	-41.1	---	---	720.5	0.029	0.000	19.2	1	1
03/23/06	3:30 a	-24.0	-23.9	-24.0	---	---	29.6	ENE	0.49	32.2	-41.3	---	---	720.5	0.029	0.000	19.2	1	1
03/23/06	3:31 a	-23.9	-23.9	-24.0	---	---	32.2	ENE	0.54	34.8	-41.8	---	---	720.5	0.029	0.000	19.2	1	1
03/23/06	3:32 a	-24.0	-23.9	-24.0	---	---	29.6	ENE	0.49	31.3	-41.3	---	---	720.7	0.029	0.000	19.2	1	1
03/23/06	3:33 a	-23.9	-23.9	-24.0	---	---	29.6	ENE	0.49	32.2	-41.3	---	---	720.7	0.029	0.000	19.2	1	1
03/23/06	3:34 a	-23.9	-23.9	-23.9	---	---	27.8	ENE	0.46	29.6	-40.9	---	---	720.5	0.029	0.000	19.2	1	1
03/23/06	3:35 a	-23.9	-23.9	-24.0	---	---	33.0	ENE	0.55	34.8	-41.9	---	---	720.4	0.029	0.000	19.2	1	1
03/23/06	3:36 a	-23.9	-23.9	-23.9	---	---	31.3	ENE	0.52	33.9	-41.6	---	---	720.7	0.029	0.000	19.2	1	1
03/23/06	3:37 a	-23.9	-23.9	-23.9	---	---	29.6	ENE	0.49	31.3	-41.3	---	---	720.7	0.029	0.000	19.2	1	1
03/23/06	3:38 a	-23.9	-23.9	-23.9	---	---	29.6	ENE	0.49	30.4	-41.3	---	---	720.8	0.029	0.000	19.2	1	1
03/23/06	3:39 a	-23.9	-23.9	-23.9	---	---	31.3	ENE	0.52	33.9	-41.6	---	---	720.7	0.029	0.000	19.2	1	1
03/23/06	3:40 a	-23.9	-23.9	-23.9	---	---	31.3	ENE	0.52	33.0	-41.6	---	---	720.7	0.029	0.000	19.2	1	1
03/23/06	3:41 a	-23.9	-23.9	-23.9	---	---	31.3	ENE	0.52	34.8	-41.6	---	---	720.5	0.029	0.000	19.2	1	1
03/23/06	3:42 a	-23.9	-23.9	-23.9	---	---	30.4	ENE	0.51	31.3	-41.3	---	---	720.6	0.029	0.000	19.2	1	1
03/23/06	3:43 a	-23.9	-23.9	-23.9	---	---	30.4	ENE	0.51	33.0	-41.3	---	---	720.7	0.029	0.000	19.2	1	1
03/23/06	3:44 a	-23.9	-23.9	-23.9	---	---	31.3	ENE	0.52	33.9	-41.6	---	---	720.5	0.029	0.000	19.2	1	1
03/23/06	3:45 a	-23.9	-23.8	-23.9	---	---	31.3	ENE	0.52	33.9	-41.6	---	---	720.6	0.029	0.000	19.2	1	1
03/23/06	3:46 a	-23.9	-23.9	-23.9	---	---	32.2	ENE	0.54	33.9	-41.7	---	---	720.6	0.029	0.000	19.1	1	1
03/23/06	3:47 a	-23.9	-23.8	-23.9	---	---	31.3	ENE	0.52	33.0	-41.6	---	---	720.6	0.029	0.000	19.2	1	1
03/23/06	3:48 a	-23.9	-23.8	-23.9	---	---	31.3	ENE	0.52	33.9	-41.6	---	---	720.6	0.029	0.000	19.2	1	1
03/23/06	3:49 a	-23.9	-23.8	-23.9	---	---	31.3	ENE	0.52	33.9	-41.6	---	---	720.6	0.029	0.000	19.1	1	1
03/23/06	3:50 a	-23.9	-23.8	-23.9	---	---	31.3	ENE	0.52	33.0	-41.6	---	---	720.6	0.029	0.000	19.1	1	1
03/23/06	3:51 a	-23.8	-23.8	-23.9	---	---	31.3	ENE	0.52	33.9	-41.4	---	---	720.5	0.029	0.000	19.1	1	1
03/23/06	3:52 a	-23.8	-23.8	-23.8	---	---	31.3	ENE	0.52	33.0	-41.4	---	---	720.5	0.029	0.000	19.1	1	1
03/23/06	3:53 a	-23.8	-23.8	-23.8	---	---	32.2	ENE	0.54	33.9	-41.6	---	---	720.6	0.029	0.000	19.1	1	1
03/23/06	3:54 a	-23.8	-23.7	-23.8	---	---	32.2	ENE	0.54	33.9	-41.6	---	---	720.5	0.029	0.000	19.1	1	1
03/23/06	3:55 a	-23.8	-23.7	-23.8	---	---	33.0	ENE	0.55	34.8	-41.7	---	---	720.5	0.029	0.000	19.1	1	1
03/23/06	3:56 a	-23.7	-23.7	-23.7	---	---	31.3	ENE	0.52	34.8	-41.3	---	---	720.5	0.029	0.000	19.1	1	1
03/23/06	3:57 a	-23.7	-23.7	-23.7	---	---	33.0	ENE	0.55	34.8	-41.7	---	---	720.5	0.029	0.000	19.1	1	1
03/23/06	3:58 a	-23.7	-23.7	-23.7	---	---	33.0	ENE	0.55	34.8	-41.6	---	---	720.5	0.029	0.000	19.1	1	1
03/23/06	3:59 a	-23.7	-23.6	-23.7	---	---	32.2	ENE	0.54	33.9	-41.4	---	---	720.6	0.029	0.000	19.1	1	1
03/23/06	4:00 a	-23.7	-23.6	-23.7	---	---	31.3	ENE	0.52	34.8	-41.2	---	---	720.6	0.029	0.000	19.1	1	1
03/23/06	4:01 a	-23.6	-23.6	-23.7	---	---	31.3	ENE	0.52	34.8	-41.2	---	---	720.6	0.029	0.000	19.1	1	1
03/23/06	4:02 a	-23.6	-23.6	-23.6	---	---	33.0	ENE	0.55	35.7	-41.4	---	---	720.5	0.029	0.000	19.1	1	1
03/23/06	4:03 a	-23.6	-23.5	-23.6	---	---	32.2	ENE	0.54	34.8	-41.3	---	---	720.6	0.029	0.000	19.1	1	1
03/23/06	4:04 a	-23.5	-23.5	-23.5	---	---	32.2	ENE	0.54	35.7	-41.2	---	---	720.6	0.029	0.000	19.1	1	1
03/23/06	4:05 a	-23.5	-23.4	-23.5	---	---	33.0	ENE	0.55	36.5	-41.3	---	---	720.5	0.029	0.000	19.1	1	1
03/23/06	4:06 a	-23.4	-23.4	-23.4	---	---	33.0	ENE	0.55	36.5	-41.3	---	---	720.6	0.029	0.000	19.1	1	1
03/23/06	4:07 a	-23.4	-23.4	-23.4	---	---	33.0	ENE	0.55	35.7	-41.3	---	---	720.5	0.029	0.000	19.1	1	1
03/23/06	4:08 a	-23.4	-23.4	-23.4	---	---	31.3	ENE	0.52	35.7	-40.8	---	---	720.5	0.029	0.000	19.1	1	1
03/23/06	4:09 a	-23.3	-23.3	-23.4	---	---	33.0	ENE	0.55	36.5	-41.1	---	---	720.4	0.029	0.000	19.1	1	1
03/23/06	4:10 a	-23.3	-23.3	-23.3	---	---	33.0	ENE	0.55	36.5	-41.1	---	---	720.5	0.029	0.000	19.0	1	1
03/23/06	4:11 a	-23.3	-23.3	-23.3	---	---	32.2	ENE	0.54	36.5	-40.9	---	---	720.4	0.029	0.000	19.0	1	1
03/23/06	4:12 a	-23.3	-23.2	-23.3	---	---	31.3	ENE	0.52	34.8	-40.7	---	---	720.5	0.029	0.000	19.0	1	1
03/23/06	4:13 a	-23.3	-23.2	-23.3	---	---	33.0	ENE	0.55	35.7	-41.1	---	---	720.4	0.029	0.000	19.0	1	1
03/23/06	4:14 a	-23.2	-23.2	-23.2	---	---	33.0	ENE	0.55	35.7	-40.9	---	---	720.4	0.029	0.000	19.0	1	1
03/23/06	4:15 a	-23.2	-23.2	-23.2	---	---	32.2	ENE	0.54	35.7	-40.7	---	---	720.5	0.029	0.000	19.0	1	1
03/23/06	4:16 a	-23.2	-23.1	-23.2	---	---	31.3	E	0.52	34.8	-40.6	---	---	720.6	0.029	0.000	19.0	1	1
03/23/06	4:17 a	-23.1	-23.1	-23.2	---	---	32.2	E	0.54	33.9	-40.6	---	---	720.5	0.029	0.000	19.0	1	1
03/23/06	4:18 a	-23.1	-23.1	-23.1	---	---	31.3	E	0.52	33.9	-40.4	---	---	720.4	0.029	0.000	19.0	1	1
03/23/06	4:19 a	-23.1	-23.1	-23.1	---	---	32.2	E	0.54	35.7	-40.6	---	---	720.5	0.029	0.000	18.9	1	1
03/23/06	4:20 a	-23.1	-23.1	-23.1	---	---	32.2	E	0.54	35.7	-40.6	---	---	720.4	0.029	0.000	18.9	1	1
03/23/06	4:21 a	-23.1	-23.1	-23.1	---	---	32.2	E	0.54	35.7	-40.6	---	---	720.4	0.029	0.000	18.9	1	1
03/23/06	4:22 a	-23.1	-23.1	-23.1	---	---	33.9	E	0.57	37.4	-40.9	---	---	720.4	0.029	0.000	18.9	1	1
03/23/06	4:23 a	-23.1	-23.0	-23.1	---	---	33.9	ENE	0.57	36.5	-40.9	---	---	720.5	0.029	0.000	18.9	1	1
03/23/06	4:24 a	-23.1	-23.1	-23.1	---	---	33.0	ENE	0.55	35.7	-40.7	---	---	720.5	0.029	0.000	18.9	1	1
03/23/06	4:25 a	-23.1	-23.1	-23.1	---	---	33.0	ENE	0.55	36.5	-40.7	---	---	720.4	0.029	0.000	18.9	1	1
03/23/06	4:26 a	-23.1	-23.1	-23.1	---	---	30.4	ENE	0.51	34.8	-40.2	---	---	720.4	0.029	0.000	18.9	1	1
03/23/06	4:27 a	-23.1	-23.1	-23.1	---	---	33.9	E	0.57	36.5	-40.9	---	---	720.4	0.029	0.000	18.9	1	1
03/23/06	4:28 a	-23.1	-23.1	-23.1	---	---	33.9	ENE	0.57	36.5	-40.9	---	---	720.4	0.029	0.000	18.9	1	1
03/23/06	4:29 a	-23.1	-23.1	-23.1	---	---	32.2	ENE	0.54	34.8	-40.6	---	---	720.5	0.029	0.000	18.9	1	1
03/23/06	4:30 a	-23.1	-23.0	-23.1	---	---	31.3	E	0.52	35.7	-40.4	---	---	720.4	0.029	0.000	18.9	1	1
03/23/06	4:31 a	-23.1	-23.1	-23.1	---	---	33.0	E	0.55	35.7	-40.8	---	---	720.5	0.029	0.000	18.9	1	1
03/23/06	4:32 a	-23.1	-23.1	-23.1	---	---	31.3	E	0.52	35.7	-40.4	---	---	720.5	0.029	0.000	18.9	1	1
03/23/06	4:33 a	-23.1	-23.1	-23.1	---	---	33.0	E	0.55	36.5	-40.8	---	---	720.5	0.029	0.000	18.9	1	1
03/23/06	4:34 a	-23.1	-23.1	-23.1	---	---	33.0	ENE	0.55	36.5	-40.8	---	---	720.5	0.029	0.000	18.9	1	1
03/23/06	4:35 a	-23.1	-23.1	-23.2	---	---	33.9	ENE	0.57	35.7	-40.9	---	---	720.5	0.029	0.000	18.9	1	1
03/23/06	4:36 a	-23.2	-23.2	-23.2	---	---	31.3	E	0.52	35.7	-40.6	---	---	720.5	0.029	0.000	18.9	1	1
03/23/06	4:37 a	-23.2	-23.2	-23.2	---	---	33.0	ENE	0.55	35.7	-40.9	---	---	720.5	0.029	0.000	18.9	1	1
03/23/06	4:38 a	-23.2	-23.2	-23.2	---	---	32.2	ENE	0.54	35.7	-40.7	---	---	720.6	0.029	0.000	18.9	1	1
03/23/06	4:39 a	-23.2	-23.2	-23.2	---	---	30.4	ENE	0.51	33.9	-40.4	---	---	720.5	0.029	0.000	18.9	1	1
03/23/06	4:40 a	-23.2	-23.2	-23.3	---	---	31.3	ENE	0.52	35.7	-40.6	---	---	720.6	0.029	0.000	18.9	1	1
03/23/06	4:41 a	-23.2	-23.2	-23.3	---	---	32.2	ENE	0.54	34.8	-40.8	---	---	720.6	0.029	0.000	18.9	1	1
03/23/06	4:42 a	-23.3	-23.2	-23.3	---	---	33.9	ENE	0.57	35.7	-41.2	---	---	720.7	0.029	0.000	18.9	1	1
03/23/06	4:43 a	-23.3	-23.3	-23.3	---	---	32.2	ENE	0.54	36.5	-40.9	---	---	720.6	0.029	0.000	18.9	1	1
03/23/06	4:44 a	-23.3	-23.3	-23.3	---	---	32.2	ENE	0.54	35.7	-40.9	---	---	720.7	0.029	0.000	18.9	1	1
03/23/06	4:45 a	-23.3	-23.3	-23.4	---	---	32.2	ENE	0.54	34.8	-40.9	---	---	720.6	0.029	0.000	18.9	1	1
03/23/06	4:46 a	-23.4	-23.4	-23.4	---	---	31.3	ENE	0.52	33.9	-40.8	---	---	720.6	0.029	0.000	18.9	1	1
03/23/06	4:47 a	-23.4	-23.4	-23.4	---	---	31.3	ENE	0.52	33.9	-40.8	---	---	720.7	0.029	0.000	18.9	1	1
03/23/06	4:48 a	-23.4	-23.4	-23.4	---	---	31.3	ENE	0.52	33.9	-40.9	---	---	720.6	0.029	0.000	18.9	1	1
03/23/06	4:49 a	-23.4	-23.4	-23.4	---	---	33.0	ENE	0.55	35.7	-41.3	---	---	720.5	0.029	0.000	18.9	1	1
03/23/06	4:50 a	-23.4	-23.4	-23.5	---	---	29.6	ENE	0.49	33.9	-40.6	---	---	720.6	0.029	0.000	18.8	1	1
03/23/06	4:51 a	-23.5	-23.5	-23.6	---	---	33.0	ENE	0.55	35.7	-41.3	---	---	720.6	0.029	0.000	18.8	1	1
03/23/06	4:52 a	-23.6	-23.5	-23.6	---	---	32.2	ENE	0.54	34.8	-41.3	---	---	720.7	0.029	0.000	18.8	1	1
03/23/06	4:53 a	-23.6	-23.6	-23.6	---	---	29.6	ENE	0.49	32.2	-40.7	---	---	720.6	0.029	0.000	18.8	1	1
03/23/06	4:54 a	-23.6	-23.6	-23.6	---	---	31.3	ENE	0.52	33.9	-41.1	---	---	720.6	0.029	0.000	18.8	1	1
03/23/06	4:55 a	-23.6	-23.6	-23.6	---	---	31.3	ENE	0.52	33.9	-41.2	---	---	720.5	0.029	0.000	18.8	1	1
03/23/06	4:56 a	-23.6	-23.6	-23.6	---	---	31.3	ENE	0.52	35.7	-41.2	---	---	720.6	0.029	0.000	18.8	1	1
03/23/06	4:57 a	-23.7	-23.7	-23.7	---	---	29.6	ENE	0.49	33.9	-40.9	---	---	720.8	0.029	0.000	18.8	1	1
03/23/06	4:58 a	-23.7	-23.7	-23.7	---	---	31.3	ENE	0.52	33.9	-41.2	---	---	720.5	0.029	0.000	18.8	1	1
03/23/06	4:59 a	-23.7	-23.7	-23.7	---	---	32.2	ENE	0.54	34.8	-41.4	---	---	720.8	0.029	0.000	18.8	1	1
03/23/06	5:00 a	-23.7	-23.7	-23.7	---	---	32.2	ENE	0.54	34.8	-41.5	---	---	720.6	0.029	0.000	18.8	1	1
03/23/06	5:01 a	-23.7	-23.7	-23.7	---	---	30.4	ENE	0.51	33.0	-41.1	---	---	720.7	0.029	0.000	18.8	1	1
03/23/06	5:02 a	-23.7	-23.7	-23.8	---	---	33.0	ENE	0.55	36.5	-41.7	---	---	720.7	0.029	0.000	18.8	1	1
03/23/06	5:03 a	-23.7	-23.7	-23.8	---	---	29.6	ENE	0.49	34.8	-40.9	---	---	720.9	0.029	0.000	18.8	1	1
03/23/06	5:04 a	-23.8	-23.8	-23.8	---	---	29.6	ENE	0.49	33.0	-41.0	---	---	720.6	0.029	0.000	18.8	1	1
03/23/06	5:05 a	-23.8	-23.8	-23.8	---	---	31.3	E	0.52	35.7	-41.4	---	---	720.5	0.029	0.000	18.8	1	1
03/23/06	5:06 a	-23.8	-23.8	-23.8	---	---	29.6	ENE	0.49	35.7	-41.1	---	---	721.0	0.029	0.000	18.8	1	1
03/23/06	5:07 a	-23.8	-23.8	-23.8	---	---	27.0	E	0.45	33.0	-40.5	---	---	720.7	0.029	0.000	18.8	1	1
03/23/06	5:08 a	-23.9	-23.8	-23.9	---	---	30.4	E	0.51	34.8	-41.3	---	---	720.6	0.029	0.000	18.7	1	1
03/23/06	5:09 a	-23.9	-23.9	-23.9	---	---	29.6	ENE	0.49	35.7	-41.2	---	---	721.1	0.029	0.000	18.7	1	1
03/23/06	5:10 a	-23.9	-23.9	-23.9	---	---	27.8	ENE	0.46	33.0	-40.8	---	---	720.8	0.029	0.000	18.7	1	1
03/23/06	5:11 a	-23.9	-23.9	-23.9	---	---	30.4	ENE	0.51	34.8	-41.4	---	---	720.7	0.029	0.000	18.7	1	1
03/23/06	5:12 a	-23.9	-23.9	-23.9	---	---	31.3	E	0.52	34.8	-41.6	---	---	720.7	0.029	0.000	18.7	1	1
03/23/06	5:13 a	-24.0	-23.9	-24.0	---	---	27.8	E	0.46	29.6	-40.9	---	---	720.8	0.029	0.000	18.7	1	1
03/23/06	5:14 a	-24.0	-24.0	-24.0	---	---	29.6	ENE	0.49	33.0	-41.3	---	---	720.6	0.029	0.000	18.7	1	1
03/23/06	5:15 a	-24.0	-24.0	-24.1	---	---	32.2	ENE	0.54	36.5	-41.9	---	---	720.9	0.029	0.000	18.7	1	1
03/23/06	5:16 a	-24.1	-24.0	-24.1	---	---	24.3	ENE	0.41	27.8	-40.2	---	---	721.0	0.029	0.000	18.7	1	1
03/23/06	5:17 a	-24.1	-24.1	-24.1	---	---	31.3	ENE	0.52	35.7	-41.8	---	---	720.6	0.029	0.000	18.7	1	1
03/23/06	5:18 a	-24.1	-24.1	-24.1	---	---	31.3	ENE	0.52	33.9	-41.8	---	---	720.8	0.029	0.000	18.7	1	1
03/23/06	5:19 a	-24.1	-24.1	-24.1	---	---	31.3	E	0.52	34.8	-41.8	---	---	720.6	0.029	0.000	18.6	1	1
03/23/06	5:20 a	-24.2	-24.1	-24.2	---	---	29.6	ENE	0.49	33.0	-41.6	---	---	720.9	0.030	0.000	18.6	1	1
03/23/06	5:21 a	-24.2	-24.2	-24.2	---	---	27.8	ENE	0.46	33.9	-41.2	---	---	720.5	0.030	0.000	18.6	1	1
03/23/06	5:22 a	-24.2	-24.2	-24.2	---	---	33.9	E	0.57	36.5	-42.4	---	---	720.5	0.030	0.000	18.6	1	1
03/23/06	5:23 a	-24.2	-24.2	-24.3	---	---	27.0	ENE	0.45	31.3	-41.1	---	---	720.8	0.030	0.000	18.6	1	1
03/23/06	5:24 a	-24.3	-24.2	-24.3	---	---	23.5	E	0.39	31.3	-40.3	---	---	720.6	0.030	0.000	18.6	1	1
03/23/06	5:25 a	-24.3	-24.2	-24.3	---	---	32.2	E	0.54	36.5	-42.3	---	---	720.7	0.030	0.000	18.6	1	1
03/23/06	5:26 a	-24.3	-24.3	-24.3	---	---	27.0	ENE	0.45	31.3	-41.1	---	---	720.9	0.030	0.000	18.6	1	1
03/23/06	5:27 a	-24.3	-24.3	-24.3	---	---	27.8	ENE	0.46	35.7	-41.4	---	---	720.4	0.030	0.000	18.6	1	1
03/23/06	5:28 a	-24.3	-24.3	-24.3	---	---	31.3	E	0.52	36.5	-42.2	---	---	720.8	0.030	0.000	18.6	1	1
03/23/06	5:29 a	-24.3	-24.3	-24.3	---	---	30.4	ENE	0.51	33.9	-41.9	---	---	720.7	0.030	0.000	18.6	1	1
03/23/06	5:30 a	-24.4	-24.3	-24.4	---	---	27.8	E	0.46	29.6	-41.5	---	---	720.8	0.030	0.000	18.6	1	1
03/23/06	5:31 a	-24.4	-24.4	-24.4	---	---	27.8	ENE	0.46	33.0	-41.5	---	---	720.7	0.030	0.000	18.6	1	1
03/23/06	5:32 a	-24.4	-24.4	-24.4	---	---	33.0	ENE	0.55	35.7	-42.7	---	---	720.7	0.030	0.000	18.6	1	1
03/23/06	5:33 a	-24.4	-24.4	-24.5	---	---	27.0	ENE	0.45	33.9	-41.3	---	---	720.8	0.030	0.000	18.6	1	1
03/23/06	5:34 a	-24.5	-24.5	-24.5	---	---	33.0	ENE	0.55	36.5	-42.7	---	---	720.9	0.030	0.000	18.6	1	1
03/23/06	5:35 a	-24.5	-24.4	-24.5	---	---	27.8	ENE	0.46	32.2	-41.6	---	---	720.8	0.030	0.000	18.6	1	1
03/23/06	5:36 a	-24.5	-24.5	-24.5	---	---	31.3	E	0.52	34.8	-42.4	---	---	720.9	0.030	0.000	18.6	1	1
03/23/06	5:37 a	-24.6	-24.6	-24.6	---	---	30.4	ENE	0.51	33.9	-42.3	---	---	720.8	0.030	0.000	18.6	1	1
03/23/06	5:38 a	-24.6	-24.6	-24.6	---	---	28.7	ENE	0.48	32.2	-41.9	---	---	721.0	0.030	0.000	18.6	1	1
03/23/06	5:39 a	-24.6	-24.6	-24.6	---	---	27.0	ENE	0.45	29.6	-41.5	---	---	721.0	0.030	0.000	18.6	1	1
03/23/06	5:40 a	-24.6	-24.6	-24.6	---	---	33.9	E	0.57	39.1	-43.1	---	---	720.6	0.030	0.000	18.6	1	1
03/23/06	5:41 a	-24.6	-24.6	-24.7	---	---	27.8	ENE	0.46	35.7	-41.8	---	---	721.1	0.030	0.000	18.6	1	1
03/23/06	5:42 a	-24.7	-24.6	-24.7	---	---	26.1	ENE	0.43	30.4	-41.4	---	---	720.9	0.030	0.000	18.6	1	1
03/23/06	5:43 a	-24.7	-24.7	-24.7	---	---	31.3	ENE	0.52	34.8	-42.6	---	---	720.9	0.030	0.000	18.6	1	1
03/23/06	5:44 a	-24.7	-24.7	-24.7	---	---	27.0	ENE	0.45	31.3	-41.7	---	---	721.0	0.030	0.000	18.6	1	1
03/23/06	5:45 a	-24.7	-24.7	-24.7	---	---	29.6	ENE	0.49	34.8	-42.2	---	---	720.8	0.030	0.000	18.6	1	1
03/23/06	5:46 a	-24.7	-24.7	-24.8	---	---	28.7	ENE	0.48	33.0	-42.1	---	---	721.1	0.030	0.000	18.6	1	1
03/23/06	5:47 a	-24.8	-24.7	-24.8	---	---	27.0	ENE	0.45	31.3	-41.8	---	---	720.8	0.030	0.000	18.6	1	1
03/23/06	5:48 a	-24.8	-24.8	-24.8	---	---	32.2	E	0.54	34.8	-42.9	---	---	720.7	0.030	0.000	18.6	1	1
03/23/06	5:49 a	-24.8	-24.8	-24.8	---	---	27.8	ENE	0.46	30.4	-42.0	---	---	721.0	0.030	0.000	18.6	1	1
03/23/06	5:50 a	-24.8	-24.8	-24.8	---	---	29.6	E	0.49	33.0	-42.4	---	---	720.7	0.030	0.000	18.5	1	1
03/23/06	5:51 a	-24.8	-24.8	-24.9	---	---	30.4	ENE	0.51	35.7	-42.7	---	---	721.0	0.030	0.000	18.6	1	1
03/23/06	5:52 a	-24.9	-24.9	-24.9	---	---	25.2	ENE	0.42	27.8	-41.6	---	---	720.8	0.030	0.000	18.5	1	1
03/23/06	5:53 a	-24.9	-24.9	-24.9	---	---	30.4	ENE	0.51	33.9	-42.7	---	---	720.8	0.030	0.000	18.5	1	1
03/23/06	5:54 a	-24.9	-24.9	-24.9	---	---	27.0	ENE	0.45	29.6	-42.1	---	---	720.8	0.030	0.000	18.5	1	1
03/23/06	5:55 a	-24.9	-24.9	-24.9	---	---	30.4	ENE	0.51	33.0	-42.8	---	---	720.9	0.030	0.000	18.5	1	1
03/23/06	5:56 a	-24.9	-24.9	-25.0	---	---	27.8	ENE	0.46	29.6	-42.2	---	---	720.8	0.030	0.000	18.5	1	1
03/23/06	5:57 a	-25.0	-24.9	-25.0	---	---	27.8	ENE	0.46	33.0	-42.3	---	---	720.7	0.030	0.000	18.5	1	1
03/23/06	5:58 a	-25.0	-25.0	-25.1	---	---	32.2	ENE	0.54	35.7	-43.3	---	---	720.6	0.030	0.000	18.5	1	1
03/23/06	5:59 a	-25.1	-25.0	-25.1	---	---	27.0	ENE	0.45	29.6	-42.2	---	---	721.0	0.030	0.000	18.5	1	1
03/23/06	6:00 a	-25.1	-25.0	-25.1	---	---	27.8	ENE	0.46	33.0	-42.4	---	---	720.8	0.030	0.000	18.5	1	1
03/23/06	6:01 a	-25.1	-25.1	-25.1	---	---	32.2	ENE	0.54	34.8	-43.3	---	---	720.8	0.030	0.000	18.5	1	1
03/23/06	6:02 a	-25.1	-25.1	-25.1	---	---	28.7	ENE	0.48	30.4	-42.6	---	---	720.9	0.030	0.000	18.5	1	1
03/23/06	6:03 a	-25.1	-25.1	-25.1	---	---	27.0	ENE	0.45	30.4	-42.2	---	---	721.0	0.030	0.000	18.5	1	1
03/23/06	6:04 a	-25.1	-25.1	-25.1	---	---	32.2	E	0.54	38.3	-43.4	---	---	720.5	0.030	0.000	18.5	1	1
03/23/06	6:05 a	-25.1	-25.1	-25.2	---	---	27.8	ENE	0.46	36.5	-42.4	---	---	721.1	0.030	0.000	18.5	1	1
03/23/06	6:06 a	-25.2	-25.2	-25.2	---	---	23.5	ENE	0.39	27.0	-41.4	---	---	721.0	0.030	0.000	18.5	1	1
03/23/06	6:07 a	-25.2	-25.1	-25.2	---	---	32.2	ENE	0.54	34.8	-43.5	---	---	720.8	0.030	0.000	18.5	1	1
03/23/06	6:08 a	-25.2	-25.2	-25.2	---	---	29.6	ENE	0.49	31.3	-42.9	---	---	720.9	0.030	0.000	18.4	1	1
03/23/06	6:09 a	-25.2	-25.2	-25.2	---	---	27.8	ENE	0.46	29.6	-42.6	---	---	721.0	0.030	0.000	18.5	1	1
03/23/06	6:10 a	-25.2	-25.2	-25.2	---	---	29.6	E	0.49	36.5	-43.0	---	---	720.6	0.030	0.000	18.4	1	1
03/23/06	6:11 a	-25.2	-25.2	-25.3	---	---	30.4	ENE	0.51	34.8	-43.2	---	---	721.0	0.030	0.000	18.4	1	1
03/23/06	6:12 a	-25.3	-25.2	-25.3	---	---	24.3	ENE	0.41	27.0	-41.8	---	---	720.9	0.030	0.000	18.4	1	1
03/23/06	6:13 a	-25.3	-25.3	-25.3	---	---	31.3	E	0.52	36.5	-43.4	---	---	720.6	0.030	0.000	18.4	1	1
03/23/06	6:14 a	-25.3	-25.3	-25.3	---	---	29.6	ENE	0.49	35.7	-43.1	---	---	721.0	0.030	0.000	18.4	1	1
03/23/06	6:15 a	-25.3	-25.3	-25.4	---	---	24.3	ENE	0.41	27.0	-41.9	---	---	721.0	0.030	0.000	18.4	1	1
03/23/06	6:16 a	-25.3	-25.3	-25.3	---	---	27.8	E	0.46	30.4	-42.8	---	---	720.8	0.030	0.000	18.4	1	1
03/23/06	6:17 a	-25.4	-25.4	-25.4	---	---	27.0	E	0.45	30.4	-42.6	---	---	721.0	0.030	0.000	18.4	1	1
03/23/06	6:18 a	-25.4	-25.4	-25.4	---	---	27.8	E	0.46	30.4	-42.8	---	---	721.0	0.030	0.000	18.4	1	1
03/23/06	6:19 a	-25.4	-25.4	-25.4	---	---	26.1	ENE	0.43	27.8	-42.4	---	---	721.0	0.030	0.000	18.4	1	1
03/23/06	6:20 a	-25.4	-25.4	-25.4	---	---	27.8	E	0.46	29.6	-42.8	---	---	720.9	0.030	0.000	18.4	1	1
03/23/06	6:21 a	-25.4	-25.4	-25.5	---	---	29.6	ENE	0.49	33.0	-43.3	---	---	720.9	0.030	0.000	18.4	1	1
03/23/06	6:22 a	-25.5	-25.4	-25.5	---	---	29.6	ENE	0.49	31.3	-43.4	---	---	721.0	0.030	0.000	18.4	1	1
03/23/06	6:23 a	-25.4	-25.4	-25.5	---	---	24.3	ENE	0.41	29.6	-42.1	---	---	720.9	0.030	0.000	18.4	1	1
03/23/06	6:24 a	-25.5	-25.4	-25.5	---	---	32.2	E	0.54	34.8	-43.9	---	---	720.8	0.030	0.000	18.4	1	1
03/23/06	6:25 a	-25.5	-25.5	-25.6	---	---	29.6	ENE	0.49	33.9	-43.4	---	---	721.1	0.030	0.000	18.4	1	1
03/23/06	6:26 a	-25.5	-25.5	-25.5	---	---	27.0	E	0.45	28.7	-42.8	---	---	721.0	0.030	0.000	18.4	1	1
03/23/06	6:27 a	-25.6	-25.6	-25.6	---	---	27.0	E	0.45	28.7	-42.9	---	---	721.0	0.030	0.000	18.3	1	1
03/23/06	6:28 a	-25.6	-25.5	-25.6	---	---	29.6	E	0.49	33.9	-43.4	---	---	720.7	0.030	0.000	18.3	1	1
03/23/06	6:29 a	-25.6	-25.6	-25.6	---	---	27.8	ENE	0.46	30.4	-43.1	---	---	721.2	0.030	0.000	18.3	1	1
03/23/06	6:30 a	-25.6	-25.6	-25.6	---	---	27.0	ENE	0.45	31.3	-42.9	---	---	721.0	0.030	0.000	18.3	1	1
03/23/06	6:31 a	-25.6	-25.6	-25.6	---	---	26.1	ENE	0.43	28.7	-42.7	---	---	721.1	0.030	0.000	18.3	1	1
03/23/06	6:32 a	-25.6	-25.6	-25.6	---	---	30.4	ENE	0.51	32.2	-43.7	---	---	720.9	0.031	0.000	18.3	1	1
03/23/06	6:33 a	-25.6	-25.6	-25.7	---	---	30.4	ENE	0.51	33.0	-43.7	---	---	720.9	0.031	0.000	18.3	1	1
03/23/06	6:34 a	-25.6	-25.6	-25.7	---	---	21.7	E	0.36	27.0	-41.6	---	---	721.2	0.031	0.000	18.3	1	1
03/23/06	6:35 a	-25.6	-25.6	-25.6	---	---	27.8	E	0.46	35.7	-43.2	---	---	720.8	0.031	0.000	18.3	1	1
03/23/06	6:36 a	-25.6	-25.6	-25.6	---	---	30.4	ENE	0.51	34.8	-43.7	---	---	721.0	0.031	0.000	18.3	1	1
03/23/06	6:37 a	-25.6	-25.6	-25.7	---	---	21.7	ENE	0.36	27.8	-41.6	---	---	721.3	0.031	0.000	18.3	1	1
03/23/06	6:38 a	-25.7	-25.6	-25.7	---	---	27.0	E	0.45	36.5	-43.0	---	---	720.6	0.031	0.000	18.3	1	1
03/23/06	6:39 a	-25.7	-25.6	-25.7	---	---	31.3	E	0.52	37.4	-44.0	---	---	721.1	0.031	0.000	18.3	1	1
03/23/06	6:40 a	-25.7	-25.6	-25.7	---	---	21.7	ENE	0.36	24.3	-41.7	---	---	721.2	0.031	0.000	18.3	1	1
03/23/06	6:41 a	-25.7	-25.6	-25.7	---	---	21.7	E	0.36	27.8	-41.7	---	---	720.7	0.031	0.000	18.2	1	1
03/23/06	6:42 a	-25.7	-25.7	-25.7	---	---	29.6	E	0.49	35.7	-43.6	---	---	720.9	0.031	0.000	18.2	1	1
03/23/06	6:43 a	-25.7	-25.6	-25.7	---	---	22.6	E	0.38	28.7	-41.9	---	---	721.1	0.031	0.000	18.2	1	1
03/23/06	6:44 a	-25.7	-25.7	-25.7	---	---	29.6	E	0.49	32.2	-43.6	---	---	720.8	0.031	0.000	18.2	1	1
03/23/06	6:45 a	-25.6	-25.6	-25.7	---	---	27.8	ENE	0.46	33.0	-43.2	---	---	721.0	0.031	0.000	18.2	1	1
03/23/06	6:46 a	-25.7	-25.7	-25.7	---	---	27.8	ENE	0.46	30.4	-43.2	---	---	721.0	0.031	0.000	18.2	1	1
03/23/06	6:47 a	-25.7	-25.6	-25.7	---	---	29.6	E	0.49	33.9	-43.6	---	---	720.8	0.031	0.000	18.2	1	1
03/23/06	6:48 a	-25.7	-25.6	-25.7	---	---	28.7	E	0.48	33.9	-43.4	---	---	721.0	0.031	0.000	18.2	1	1
03/23/06	6:49 a	-25.7	-25.7	-25.7	---	---	26.1	E	0.43	27.8	-42.8	---	---	721.0	0.031	0.000	18.2	1	1
03/23/06	6:50 a	-25.7	-25.7	-25.7	---	---	29.6	E	0.49	33.9	-43.6	---	---	720.8	0.031	0.000	18.2	1	1
03/23/06	6:51 a	-25.7	-25.7	-25.7	---	---	28.7	E	0.48	31.3	-43.4	---	---	721.0	0.031	0.000	18.2	1	1
03/23/06	6:52 a	-25.7	-25.7	-25.7	---	---	27.8	ENE	0.46	31.3	-43.2	---	---	720.8	0.031	0.000	18.2	1	1
03/23/06	6:53 a	-25.7	-25.7	-25.7	---	---	27.8	ENE	0.46	31.3	-43.2	---	---	721.1	0.031	0.000	18.2	1	1
03/23/06	6:54 a	-25.7	-25.7	-25.7	---	---	25.2	ENE	0.42	28.7	-42.6	---	---	721.1	0.031	0.000	18.2	1	1
03/23/06	6:55 a	-25.7	-25.7	-25.7	---	---	31.3	ENE	0.52	33.9	-44.0	---	---	720.8	0.031	0.000	18.2	1	1
03/23/06	6:56 a	-25.7	-25.7	-25.7	---	---	29.6	ENE	0.49	33.9	-43.6	---	---	721.1	0.031	0.000	18.2	1	1
03/23/06	6:57 a	-25.7	-25.7	-25.7	---	---	26.1	ENE	0.43	29.6	-42.8	---	---	721.0	0.031	0.000	18.2	1	1
03/23/06	6:58 a	-25.7	-25.7	-25.7	---	---	30.4	E	0.51	33.9	-43.8	---	---	720.9	0.031	0.000	18.2	1	1
03/23/06	6:59 a	-25.7	-25.7	-25.7	---	---	28.7	ENE	0.48	31.3	-43.5	---	---	721.1	0.031	0.000	18.2	1	1
03/23/06	7:00 a	-25.7	-25.7	-25.7	---	---	27.0	E	0.45	31.3	-43.0	---	---	720.8	0.031	0.000	18.2	1	1
03/23/06	7:01 a	-25.7	-25.7	-25.7	---	---	30.4	E	0.51	33.0	-43.9	---	---	721.0	0.031	0.000	18.2	1	1
03/23/06	7:02 a	-25.7	-25.7	-25.7	---	---	27.0	ENE	0.45	29.6	-43.1	---	---	721.0	0.031	0.000	18.2	1	1
03/23/06	7:03 a	-25.7	-25.7	-25.7	---	---	24.3	E	0.41	28.7	-42.4	---	---	720.9	0.031	0.000	18.2	1	1
03/23/06	7:04 a	-25.7	-25.7	-25.7	---	---	30.4	E	0.51	33.9	-43.9	---	---	721.0	0.031	0.000	18.2	1	1
03/23/06	7:05 a	-25.7	-25.7	-25.7	---	---	27.0	ENE	0.45	30.4	-43.1	---	---	721.1	0.031	0.000	18.2	1	1
03/23/06	7:06 a	-25.7	-25.7	-25.7	---	---	24.3	E	0.41	29.6	-42.4	---	---	720.9	0.031	0.000	18.2	1	1
03/23/06	7:07 a	-25.7	-25.7	-25.8	---	---	28.7	ENE	0.48	31.3	-43.5	---	---	721.0	0.031	0.000	18.2	1	1
03/23/06	7:08 a	-25.7	-25.7	-25.8	---	---	27.8	E	0.46	29.6	-43.3	---	---	721.0	0.031	0.000	18.2	1	1
03/23/06	7:09 a	-25.8	-25.7	-25.8	---	---	26.1	E	0.43	29.6	-42.9	---	---	721.0	0.031	0.000	18.2	1	1
03/23/06	7:10 a	-25.8	-25.7	-25.8	---	---	26.1	E	0.43	30.4	-42.9	---	---	721.0	0.031	0.000	18.2	1	1
03/23/06	7:11 a	-25.8	-25.8	-25.8	---	---	27.0	E	0.45	28.7	-43.2	---	---	721.0	0.031	0.000	18.1	1	1
03/23/06	7:12 a	-25.8	-25.8	-25.8	---	---	26.1	E	0.43	28.7	-42.9	---	---	720.9	0.031	0.000	18.1	1	1
03/23/06	7:13 a	-25.8	-25.8	-25.8	---	---	28.7	ENE	0.48	31.3	-43.6	---	---	721.0	0.031	0.000	18.1	1	1
03/23/06	7:14 a	-25.8	-25.8	-25.8	---	---	26.1	ENE	0.43	28.7	-42.9	---	---	721.0	0.031	0.000	18.1	1	1
03/23/06	7:15 a	-25.8	-25.8	-25.9	---	---	25.2	E	0.42	32.2	-42.8	---	---	720.7	0.031	0.000	18.1	1	1
03/23/06	7:16 a	-25.8	-25.8	-25.8	---	---	29.6	ENE	0.49	33.0	-43.8	---	---	721.1	0.031	0.000	18.1	1	1
03/23/06	7:17 a	-25.9	-25.8	-25.9	---	---	23.5	ENE	0.39	28.7	-42.4	---	---	721.0	0.031	0.000	18.1	1	1
03/23/06	7:18 a	-25.8	-25.8	-25.9	---	---	27.8	ENE	0.46	30.4	-43.4	---	---	720.9	0.031	0.000	18.1	1	1
03/23/06	7:19 a	-25.9	-25.9	-25.9	---	---	23.5	E	0.39	27.0	-42.4	---	---	720.9	0.031	0.000	18.1	1	1
03/23/06	7:20 a	-25.9	-25.9	-25.9	---	---	27.8	E	0.46	30.4	-43.5	---	---	721.0	0.031	0.000	18.1	1	1
03/23/06	7:21 a	-25.9	-25.9	-25.9	---	---	26.1	ENE	0.43	28.7	-43.1	---	---	721.1	0.031	0.000	18.1	1	1
03/23/06	7:22 a	-25.9	-25.9	-25.9	---	---	25.2	E	0.42	28.7	-42.9	---	---	720.9	0.031	0.000	18.1	1	1
03/23/06	7:23 a	-25.9	-25.9	-25.9	---	---	27.0	E	0.45	29.6	-43.4	---	---	721.2	0.031	0.000	18.1	1	1
03/23/06	7:24 a	-25.9	-25.9	-26.0	---	---	26.1	E	0.43	30.4	-43.2	---	---	720.9	0.031	0.000	18.1	1	1
03/23/06	7:25 a	-25.9	-25.9	-25.9	---	---	29.6	E	0.49	32.2	-44.0	---	---	721.1	0.031	0.000	18.1	1	1
03/23/06	7:26 a	-25.9	-25.9	-25.9	---	---	25.2	ENE	0.42	28.7	-42.9	---	---	721.3	0.031	0.000	18.1	1	1
03/23/06	7:27 a	-25.9	-25.9	-26.0	---	---	22.6	ENE	0.38	27.8	-42.3	---	---	721.1	0.031	0.000	18.1	1	1
03/23/06	7:28 a	-26.0	-26.0	-26.0	---	---	28.7	E	0.48	34.8	-43.9	---	---	720.7	0.031	0.000	18.1	1	1
03/23/06	7:29 a	-26.0	-26.0	-26.0	---	---	27.8	ENE	0.46	34.8	-43.7	---	---	721.1	0.031	0.000	18.1	1	1
03/23/06	7:30 a	-26.0	-25.9	-26.0	---	---	20.9	ENE	0.35	23.5	-41.8	---	---	721.1	0.031	0.000	18.1	1	1
03/23/06	7:31 a	-26.0	-26.0	-26.1	---	---	25.2	E	0.42	29.6	-43.1	---	---	720.9	0.031	0.000	18.1	1	1
03/23/06	7:32 a	-26.0	-26.0	-26.0	---	---	28.7	ENE	0.48	31.3	-43.9	---	---	721.0	0.031	0.000	18.1	1	1
03/23/06	7:33 a	-26.0	-26.0	-26.1	---	---	25.2	ENE	0.42	27.0	-43.1	---	---	721.0	0.031	0.000	18.1	1	1
03/23/06	7:34 a	-26.0	-26.0	-26.1	---	---	28.7	ENE	0.48	31.3	-43.9	---	---	720.9	0.031	0.000	18.1	1	1
03/23/06	7:35 a	-26.1	-26.0	-26.1	---	---	28.7	ENE	0.48	30.4	-43.9	---	---	721.1	0.031	0.000	18.1	1	1
03/23/06	7:36 a	-26.1	-26.1	-26.1	---	---	23.5	ENE	0.39	27.8	-42.7	---	---	721.0	0.031	0.000	18.1	1	1
03/23/06	7:37 a	-26.1	-26.1	-26.1	---	---	27.8	E	0.46	33.9	-43.8	---	---	720.7	0.031	0.000	18.0	1	1
03/23/06	7:38 a	-26.1	-26.0	-26.1	---	---	32.2	ENE	0.54	35.7	-44.7	---	---	721.3	0.031	0.000	18.1	1	1
03/23/06	7:39 a	-26.1	-26.1	-26.1	---	---	19.1	ENE	0.32	27.8	-41.4	---	---	721.4	0.031	0.000	18.0	1	1
03/23/06	7:40 a	-26.1	-26.1	-26.1	---	---	24.3	E	0.41	38.3	-42.9	---	---	720.6	0.031	0.000	18.0	1	1
03/23/06	7:41 a	-26.1	-26.1	-26.1	---	---	30.4	ENE	0.51	38.3	-44.3	---	---	721.3	0.031	0.000	18.0	1	1
03/23/06	7:42 a	-26.1	-26.1	-26.1	---	---	18.3	E	0.30	22.6	-41.1	---	---	721.3	0.031	0.000	18.0	1	1
03/23/06	7:43 a	-26.1	-26.1	-26.1	---	---	22.6	E	0.38	32.2	-42.4	---	---	720.8	0.031	0.000	18.0	1	1
03/23/06	7:44 a	-26.1	-26.1	-26.1	---	---	27.0	ENE	0.45	31.3	-43.6	---	---	721.0	0.031	0.000	18.0	1	1
03/23/06	7:45 a	-26.1	-26.1	-26.1	---	---	29.6	E	0.49	35.7	-44.2	---	---	720.9	0.031	0.000	18.0	1	1
03/23/06	7:46 a	-26.1	-26.1	-26.1	---	---	24.3	ENE	0.41	29.6	-42.9	---	---	721.4	0.031	0.000	18.0	1	1
03/23/06	7:47 a	-26.1	-26.1	-26.1	---	---	19.1	E	0.32	31.3	-41.4	---	---	720.9	0.031	0.000	18.0	1	1
03/23/06	7:48 a	-26.1	-26.1	-26.1	---	---	30.4	ENE	0.51	33.0	-44.3	---	---	720.9	0.031	0.000	18.0	1	1
03/23/06	7:49 a	-26.1	-26.1	-26.1	---	---	24.3	E	0.41	28.7	-42.9	---	---	720.9	0.031	0.000	18.0	1	1
03/23/06	7:50 a	-26.1	-26.1	-26.1	---	---	27.0	ENE	0.45	28.7	-43.6	---	---	721.0	0.031	0.000	18.0	1	1
03/23/06	7:51 a	-26.1	-26.1	-26.1	---	---	23.5	E	0.39	26.1	-42.7	---	---	720.8	0.031	0.000	18.0	1	1
03/23/06	7:52 a	-26.1	-26.1	-26.1	---	---	27.8	E	0.46	32.2	-43.8	---	---	720.8	0.031	0.000	18.0	1	1
03/23/06	7:53 a	-26.1	-26.1	-26.1	---	---	23.5	E	0.39	29.6	-42.7	---	---	721.3	0.031	0.000	18.0	1	1
03/23/06	7:54 a	-26.1	-26.1	-26.1	---	---	20.9	E	0.35	30.4	-41.9	---	---	720.8	0.031	0.000	17.9	1	1
03/23/06	7:55 a	-26.1	-26.1	-26.1	---	---	27.8	ENE	0.46	33.0	-43.8	---	---	721.1	0.031	0.000	17.9	1	1
03/23/06	7:56 a	-26.1	-26.1	-26.1	---	---	21.7	ENE	0.36	23.5	-42.2	---	---	721.0	0.031	0.000	17.9	1	1
03/23/06	7:57 a	-26.1	-26.1	-26.1	---	---	23.5	E	0.39	27.8	-42.7	---	---	720.8	0.031	0.000	17.9	1	1
03/23/06	7:58 a	-26.1	-26.1	-26.1	---	---	27.0	E	0.45	31.3	-43.6	---	---	720.8	0.031	0.000	17.9	1	1
03/23/06	7:59 a	-26.1	-26.1	-26.1	---	---	29.6	E	0.49	33.0	-44.2	---	---	721.0	0.031	0.000	17.9	1	1
03/23/06	8:00 a	-26.1	-26.1	-26.1	---	---	24.3	ENE	0.41	27.0	-42.9	---	---	721.2	0.031	0.000	17.9	1	1
03/23/06	8:01 a	-26.1	-26.1	-26.1	---	---	20.9	ENE	0.35	23.5	-41.9	---	---	720.9	0.031	0.000	17.9	1	1
03/23/06	8:02 a	-26.1	-26.1	-26.1	---	---	27.8	E	0.46	32.2	-43.8	---	---	720.8	0.031	0.000	17.9	1	1
03/23/06	8:03 a	-26.1	-26.1	-26.1	---	---	27.8	E	0.46	30.4	-43.8	---	---	721.0	0.031	0.000	17.9	1	1
03/23/06	8:04 a	-26.1	-26.1	-26.1	---	---	24.3	E	0.41	27.8	-42.9	---	---	721.1	0.031	0.000	17.9	1	1
03/23/06	8:05 a	-26.1	-26.1	-26.1	---	---	20.9	ENE	0.35	23.5	-41.9	---	---	720.9	0.031	0.000	17.9	1	1
03/23/06	8:06 a	-26.1	-26.1	-26.1	---	---	27.0	E	0.45	29.6	-43.6	---	---	720.8	0.031	0.000	17.9	1	1
03/23/06	8:07 a	-26.1	-26.1	-26.1	---	---	27.0	E	0.45	30.4	-43.6	---	---	720.9	0.031	0.000	17.9	1	1
03/23/06	8:08 a	-26.1	-26.1	-26.2	---	---	25.2	ENE	0.42	27.8	-43.2	---	---	721.2	0.031	0.000	17.9	1	1
03/23/06	8:09 a	-26.1	-26.1	-26.1	---	---	21.7	ENE	0.36	24.3	-42.2	---	---	720.9	0.031	0.000	17.9	1	1
03/23/06	8:10 a	-26.1	-26.1	-26.1	---	---	27.0	E	0.45	31.3	-43.6	---	---	720.7	0.031	0.000	17.9	1	1
03/23/06	8:11 a	-26.1	-26.1	-26.1	---	---	26.1	ENE	0.43	30.4	-43.4	---	---	721.1	0.031	0.000	17.9	1	1
03/23/06	8:12 a	-26.2	-26.1	-26.2	---	---	25.2	ENE	0.42	26.1	-43.3	---	---	721.1	0.031	0.000	17.9	1	1
03/23/06	8:13 a	-26.2	-26.1	-26.2	---	---	23.5	ENE	0.39	25.2	-42.8	---	---	721.0	0.031	0.000	17.9	1	1
03/23/06	8:14 a	-26.2	-26.1	-26.2	---	---	25.2	E	0.42	29.6	-43.3	---	---	720.7	0.031	0.000	17.9	1	1
03/23/06	8:15 a	-26.2	-26.1	-26.2	---	---	27.8	E	0.46	29.6	-43.9	---	---	720.9	0.031	0.000	17.9	1	1
03/23/06	8:16 a	-26.2	-26.1	-26.2	---	---	26.1	E	0.43	28.7	-43.5	---	---	721.0	0.031	0.000	17.9	1	1
03/23/06	8:17 a	-26.2	-26.2	-26.2	---	---	24.3	ENE	0.41	27.0	-43.1	---	---	721.0	0.031	0.000	17.9	1	1
03/23/06	8:18 a	-26.2	-26.2	-26.2	---	---	21.7	E	0.36	27.0	-42.4	---	---	720.9	0.031	0.000	17.9	1	1
03/23/06	8:19 a	-26.2	-26.2	-26.2	---	---	30.4	E	0.51	33.9	-44.5	---	---	720.8	0.031	0.000	17.9	1	1
03/23/06	8:20 a	-26.2	-26.2	-26.2	---	---	27.0	ENE	0.45	30.4	-43.7	---	---	721.2	0.031	0.000	17.9	1	1
03/23/06	8:21 a	-26.2	-26.2	-26.2	---	---	22.6	ENE	0.38	25.2	-42.6	---	---	721.2	0.031	0.000	17.9	1	1
03/23/06	8:22 a	-26.2	-26.2	-26.2	---	---	20.0	E	0.33	27.8	-41.8	---	---	720.8	0.031	0.000	17.9	1	1
03/23/06	8:23 a	-26.2	-26.2	-26.2	---	---	28.7	E	0.48	32.2	-44.2	---	---	720.8	0.031	0.000	17.9	1	1
03/23/06	8:24 a	-26.2	-26.2	-26.2	---	---	25.2	E	0.42	28.7	-43.3	---	---	721.1	0.031	0.000	17.9	1	1
03/23/06	8:25 a	-26.2	-26.2	-26.2	---	---	20.9	ENE	0.35	24.3	-42.2	---	---	721.1	0.031	0.000	17.9	1	1
03/23/06	8:26 a	-26.2	-26.2	-26.2	---	---	26.1	E	0.43	33.9	-43.6	---	---	720.7	0.031	0.000	17.8	1	1
03/23/06	8:27 a	-26.2	-26.2	-26.2	---	---	25.2	E	0.42	30.4	-43.3	---	---	721.1	0.031	0.000	17.8	1	1
03/23/06	8:28 a	-26.2	-26.2	-26.2	---	---	20.0	E	0.33	24.3	-41.9	---	---	720.8	0.031	0.000	17.8	1	1
03/23/06	8:29 a	-26.2	-26.2	-26.2	---	---	28.7	E	0.48	34.8	-44.2	---	---	720.8	0.031	0.000	17.8	1	1
03/23/06	8:30 a	-26.2	-26.2	-26.2	---	---	24.3	ENE	0.41	29.6	-43.1	---	---	721.2	0.031	0.000	17.8	1	1
03/23/06	8:31 a	-26.2	-26.2	-26.2	---	---	18.3	ENE	0.30	20.9	-41.3	---	---	721.2	0.031	0.000	17.8	1	1
03/23/06	8:32 a	-26.2	-26.2	-26.3	---	---	24.3	E	0.41	33.9	-43.1	---	---	720.8	0.031	0.000	17.8	1	1
03/23/06	8:33 a	-26.2	-26.2	-26.3	---	---	27.8	E	0.46	33.0	-44.0	---	---	721.2	0.031	0.000	17.8	1	1
03/23/06	8:34 a	-26.2	-26.2	-26.3	---	---	19.1	ENE	0.32	23.5	-41.6	---	---	720.9	0.031	0.000	17.8	1	1
03/23/06	8:35 a	-26.3	-26.2	-26.3	---	---	26.1	E	0.43	30.4	-43.6	---	---	721.0	0.031	0.000	17.8	1	1
03/23/06	8:36 a	-26.2	-26.2	-26.2	---	---	23.5	ENE	0.39	27.0	-42.9	---	---	721.0	0.031	0.000	17.8	1	1
03/23/06	8:37 a	-26.2	-26.2	-26.2	---	---	22.6	E	0.38	27.0	-42.7	---	---	721.0	0.031	0.000	17.8	1	1
03/23/06	8:38 a	-26.3	-26.2	-26.3	---	---	18.3	E	0.30	24.3	-41.4	---	---	721.0	0.031	0.000	17.8	1	1
03/23/06	8:39 a	-26.2	-26.2	-26.2	---	---	23.5	E	0.39	31.3	-42.9	---	---	720.6	0.031	0.000	17.8	1	1
03/23/06	8:40 a	-26.2	-26.2	-26.2	---	---	27.8	E	0.46	34.8	-44.0	---	---	721.0	0.031	0.000	17.8	1	1
03/23/06	8:41 a	-26.3	-26.2	-26.3	---	---	23.5	ENE	0.39	26.1	-42.9	---	---	721.0	0.031	0.000	17.8	1	1
03/23/06	8:42 a	-26.2	-26.2	-26.3	---	---	22.6	E	0.38	27.0	-42.7	---	---	720.9	0.031	0.000	17.8	1	1
03/23/06	8:43 a	-26.3	-26.2	-26.3	---	---	26.1	E	0.43	28.7	-43.6	---	---	720.8	0.031	0.000	17.8	1	1
03/23/06	8:44 a	-26.2	-26.2	-26.2	---	---	23.5	E	0.39	27.8	-42.9	---	---	721.0	0.031	0.000	17.8	1	1
03/23/06	8:45 a	-26.2	-26.2	-26.3	---	---	23.5	E	0.39	27.0	-42.9	---	---	721.0	0.031	0.000	17.8	1	1
03/23/06	8:46 a	-26.2	-26.2	-26.3	---	---	25.2	E	0.42	28.7	-43.3	---	---	721.0	0.031	0.000	17.8	1	1
03/23/06	8:47 a	-26.2	-26.2	-26.3	---	---	24.3	E	0.41	29.6	-43.1	---	---	720.9	0.031	0.000	17.8	1	1
03/23/06	8:48 a	-26.2	-26.2	-26.3	---	---	23.5	E	0.39	26.1	-42.9	---	---	721.0	0.031	0.000	17.8	1	1
03/23/06	8:49 a	-26.2	-26.2	-26.3	---	---	23.5	E	0.39	30.4	-42.9	---	---	720.9	0.031	0.000	17.8	1	1
03/23/06	8:50 a	-26.2	-26.2	-26.3	---	---	21.7	ENE	0.36	28.7	-42.4	---	---	721.1	0.031	0.000	17.8	1	1
03/23/06	8:51 a	-26.2	-26.2	-26.2	---	---	20.0	E	0.33	26.1	-41.9	---	---	720.8	0.031	0.000	17.8	1	1
03/23/06	8:52 a	-26.2	-26.2	-26.3	---	---	24.3	E	0.41	27.8	-43.1	---	---	721.1	0.031	0.000	17.7	1	1
03/23/06	8:53 a	-26.2	-26.2	-26.2	---	---	17.4	ENE	0.29	20.9	-41.0	---	---	720.9	0.031	0.000	17.7	1	1
03/23/06	8:54 a	-26.3	-26.2	-26.3	---	---	25.2	E	0.42	29.6	-43.4	---	---	721.0	0.031	0.000	17.7	1	1
03/23/06	8:55 a	-26.2	-26.2	-26.3	---	---	20.0	ENE	0.33	25.2	-41.9	---	---	721.0	0.031	0.000	17.7	1	1
03/23/06	8:56 a	-26.2	-26.2	-26.3	---	---	20.9	E	0.35	27.0	-42.2	---	---	720.7	0.031	0.000	17.7	1	1
03/23/06	8:57 a	-26.3	-26.2	-26.3	---	---	27.0	E	0.45	30.4	-43.8	---	---	721.0	0.031	0.000	17.7	1	1
03/23/06	8:58 a	-26.3	-26.2	-26.3	---	---	19.1	ENE	0.32	24.3	-41.7	---	---	721.0	0.031	0.000	17.7	1	1
03/23/06	8:59 a	-26.3	-26.3	-26.3	---	---	23.5	E	0.39	27.8	-42.9	---	---	720.8	0.031	0.000	17.7	1	1
03/23/06	9:00 a	-26.3	-26.3	-26.3	---	---	22.6	E	0.38	27.0	-42.7	---	---	721.0	0.031	0.000	17.7	1	1
03/23/06	9:01 a	-26.3	-26.3	-26.3	---	---	23.5	E	0.39	29.6	-42.9	---	---	720.7	0.031	0.000	17.7	1	1
03/23/06	9:02 a	-26.2	-26.2	-26.3	---	---	27.8	ENE	0.46	31.3	-44.0	---	---	721.0	0.031	0.000	17.7	1	1
03/23/06	9:03 a	-26.3	-26.3	-26.3	---	---	22.6	ENE	0.38	25.2	-42.7	---	---	720.9	0.031	0.000	17.7	1	1
03/23/06	9:04 a	-26.3	-26.3	-26.3	---	---	25.2	E	0.42	28.7	-43.4	---	---	720.9	0.031	0.000	17.7	1	1
03/23/06	9:05 a	-26.3	-26.3	-26.3	---	---	19.1	E	0.32	23.5	-41.7	---	---	721.0	0.031	0.000	17.7	1	1
03/23/06	9:06 a	-26.3	-26.3	-26.4	---	---	27.0	E	0.45	34.8	-43.9	---	---	720.6	0.031	0.000	17.7	1	1
03/23/06	9:07 a	-26.3	-26.3	-26.3	---	---	27.0	ENE	0.45	33.0	-43.9	---	---	721.0	0.031	0.000	17.7	1	1
03/23/06	9:08 a	-26.3	-26.3	-26.3	---	---	16.5	E	0.28	20.9	-40.8	---	---	721.0	0.031	0.000	17.7	1	1
03/23/06	9:09 a	-26.3	-26.3	-26.3	---	---	22.6	E	0.38	30.4	-42.7	---	---	720.6	0.031	0.000	17.7	1	1
03/23/06	9:10 a	-26.3	-26.3	-26.3	---	---	27.8	E	0.46	30.4	-44.1	---	---	720.9	0.031	0.000	17.7	1	1
03/23/06	9:11 a	-26.3	-26.3	-26.4	---	---	19.1	E	0.32	23.5	-41.7	---	---	720.9	0.031	0.000	17.7	1	1
03/23/06	9:12 a	-26.3	-26.3	-26.3	---	---	26.1	E	0.43	30.4	-43.7	---	---	720.6	0.031	0.000	17.7	1	1
03/23/06	9:13 a	-26.3	-26.3	-26.4	---	---	24.3	E	0.41	29.6	-43.3	---	---	721.1	0.031	0.000	17.7	1	1
03/23/06	9:14 a	-26.3	-26.3	-26.3	---	---	18.3	E	0.30	27.0	-41.4	---	---	720.9	0.031	0.000	17.7	1	1
03/23/06	9:15 a	-26.3	-26.3	-26.4	---	---	29.6	E	0.49	33.9	-44.6	---	---	720.8	0.031	0.000	17.7	1	1
03/23/06	9:16 a	-26.3	-26.3	-26.3	---	---	23.5	E	0.39	26.1	-43.1	---	---	721.1	0.031	0.000	17.7	1	1
03/23/06	9:17 a	-26.4	-26.3	-26.4	---	---	18.3	ENE	0.30	20.0	-41.6	---	---	720.9	0.031	0.000	17.6	1	1
03/23/06	9:18 a	-26.4	-26.4	-26.4	---	---	23.5	E	0.39	28.7	-43.1	---	---	720.5	0.031	0.000	17.6	1	1
03/23/06	9:19 a	-26.4	-26.3	-26.4	---	---	25.2	E	0.42	29.6	-43.6	---	---	720.9	0.031	0.000	17.6	1	1
03/23/06	9:20 a	-26.4	-26.4	-26.4	---	---	24.3	ENE	0.41	28.7	-43.3	---	---	720.7	0.031	0.000	17.6	1	1
03/23/06	9:21 a	-26.4	-26.3	-26.4	---	---	25.2	ENE	0.42	30.4	-43.6	---	---	721.1	0.031	0.000	17.6	1	1
03/23/06	9:22 a	-26.4	-26.3	-26.4	---	---	16.5	ENE	0.28	19.1	-40.9	---	---	721.1	0.031	0.000	17.6	1	1
03/23/06	9:23 a	-26.4	-26.4	-26.4	---	---	23.5	E	0.39	29.6	-43.1	---	---	720.6	0.031	0.000	17.6	1	1
03/23/06	9:24 a	-26.4	-26.4	-26.4	---	---	27.8	E	0.46	30.4	-44.2	---	---	720.9	0.031	0.000	17.6	1	1
03/23/06	9:25 a	-26.4	-26.4	-26.4	---	---	21.7	ENE	0.36	25.2	-42.6	---	---	721.1	0.031	0.000	17.6	1	1
03/23/06	9:26 a	-26.4	-26.4	-26.4	---	---	20.9	E	0.35	29.6	-42.4	---	---	720.6	0.031	0.000	17.6	1	1
03/23/06	9:27 a	-26.4	-26.4	-26.4	---	---	27.8	E	0.46	30.4	-44.2	---	---	720.6	0.031	0.000	17.6	1	1
03/23/06	9:28 a	-26.4	-26.4	-26.4	---	---	26.1	ENE	0.43	29.6	-43.8	---	---	720.9	0.031	0.000	17.6	1	1
03/23/06	9:29 a	-26.4	-26.4	-26.4	---	---	20.0	E	0.33	24.3	-42.1	---	---	721.0	0.031	0.000	17.6	1	1
03/23/06	9:30 a	-26.4	-26.4	-26.4	---	---	23.5	E	0.39	31.3	-43.1	---	---	720.5	0.031	0.000	17.6	1	1
03/23/06	9:31 a	-26.4	-26.4	-26.4	---	---	29.6	ENE	0.49	33.0	-44.6	---	---	721.0	0.031	0.000	17.6	1	1
03/23/06	9:32 a	-26.4	-26.4	-26.4	---	---	20.9	ENE	0.35	25.2	-42.4	---	---	721.1	0.031	0.000	17.6	1	1
03/23/06	9:33 a	-26.4	-26.4	-26.4	---	---	18.3	E	0.30	23.5	-41.6	---	---	720.6	0.031	0.000	17.6	1	1
03/23/06	9:34 a	-26.4	-26.4	-26.4	---	---	28.7	E	0.48	31.3	-44.5	---	---	720.7	0.031	0.000	17.6	1	1
03/23/06	9:35 a	-26.4	-26.4	-26.4	---	---	27.8	ENE	0.46	29.6	-44.3	---	---	721.0	0.031	0.000	17.6	1	1
03/23/06	9:36 a	-26.4	-26.4	-26.4	---	---	23.5	ENE	0.39	27.0	-43.2	---	---	721.2	0.031	0.000	17.6	1	1
03/23/06	9:37 a	-26.4	-26.4	-26.4	---	---	14.8	NE	0.25	20.0	-40.3	---	---	721.0	0.031	0.000	17.6	1	1
03/23/06	9:38 a	-26.4	-26.4	-26.4	---	---	24.3	E	0.41	30.4	-43.4	---	---	720.6	0.031	0.000	17.6	1	1
03/23/06	9:39 a	-26.4	-26.4	-26.4	---	---	27.0	E	0.45	28.7	-44.1	---	---	721.0	0.031	0.000	17.6	1	1
03/23/06	9:40 a	-26.4	-26.4	-26.4	---	---	17.4	ENE	0.29	24.3	-41.3	---	---	721.1	0.031	0.000	17.6	1	1
03/23/06	9:41 a	-26.4	-26.4	-26.5	---	---	20.0	ENE	0.33	27.0	-42.2	---	---	720.8	0.031	0.000	17.6	1	1
03/23/06	9:42 a	-26.4	-26.4	-26.4	---	---	28.7	E	0.48	30.4	-44.5	---	---	720.6	0.031	0.000	17.6	1	1
03/23/06	9:43 a	-26.4	-26.4	-26.4	---	---	22.6	ENE	0.38	28.7	-42.9	---	---	721.1	0.031	0.000	17.6	1	1
03/23/06	9:44 a	-26.4	-26.4	-26.5	---	---	18.3	ENE	0.30	24.3	-41.6	---	---	720.8	0.031	0.000	17.6	1	1
03/23/06	9:45 a	-26.4	-26.4	-26.5	---	---	27.8	ENE	0.46	30.4	-44.3	---	---	720.7	0.031	0.000	17.7	1	1
03/23/06	9:46 a	-26.4	-26.4	-26.4	---	---	24.3	ENE	0.41	28.7	-43.4	---	---	720.9	0.031	0.000	17.7	1	1
03/23/06	9:47 a	-26.4	-26.4	-26.5	---	---	17.4	ENE	0.29	25.2	-41.3	---	---	720.8	0.031	0.000	17.7	1	1
03/23/06	9:48 a	-26.5	-26.4	-26.5	---	---	28.7	E	0.48	32.2	-44.6	---	---	720.6	0.031	0.000	17.8	1	1
03/23/06	9:49 a	-26.5	-26.4	-26.5	---	---	27.0	ENE	0.45	29.6	-44.2	---	---	720.9	0.031	0.000	17.8	1	1
03/23/06	9:50 a	-26.5	-26.4	-26.6	---	---	20.0	ENE	0.33	23.5	-42.2	---	---	721.1	0.031	0.000	17.8	1	1
03/23/06	9:51 a	-26.5	-26.5	-26.5	---	---	17.4	ENE	0.29	27.8	-41.4	---	---	720.6	0.031	0.000	17.8	1	1
03/23/06	9:52 a	-26.5	-26.5	-26.5	---	---	29.6	ENE	0.49	31.3	-44.8	---	---	720.6	0.031	0.000	17.8	1	1
03/23/06	9:53 a	-26.5	-26.4	-26.5	---	---	24.3	ENE	0.41	28.7	-43.5	---	---	721.0	0.031	0.000	17.8	1	1
03/23/06	9:54 a	-26.6	-26.5	-26.6	---	---	16.5	ENE	0.28	20.9	-41.2	---	---	721.0	0.031	0.000	17.8	1	1
03/23/06	9:55 a	-26.5	-26.5	-26.6	---	---	23.5	ENE	0.39	28.7	-43.3	---	---	720.8	0.031	0.000	17.8	1	1
03/23/06	9:56 a	-26.5	-26.5	-26.5	---	---	23.5	ENE	0.39	25.2	-43.3	---	---	720.9	0.031	0.000	17.8	1	1
03/23/06	9:57 a	-26.5	-26.5	-26.6	---	---	21.7	ENE	0.36	27.0	-42.8	---	---	720.8	0.031	0.000	17.8	1	1
03/23/06	9:58 a	-26.6	-26.5	-26.6	---	---	26.1	ENE	0.43	27.0	-44.0	---	---	720.8	0.031	0.000	17.8	1	1
03/23/06	9:59 a	-26.6	-26.5	-26.6	---	---	22.6	ENE	0.38	25.2	-43.1	---	---	721.1	0.031	0.000	17.8	1	1
03/23/06	10:00 a	-26.5	-26.5	-26.6	---	---	23.5	ENE	0.39	26.1	-43.3	---	---	720.8	0.031	0.000	17.8	1	1
03/23/06	10:01 a	-26.6	-26.6	-26.6	---	---	24.3	E	0.41	27.0	-43.6	---	---	720.9	0.031	0.000	17.8	1	1
03/23/06	10:02 a	-26.6	-26.6	-26.6	---	---	18.3	ENE	0.30	27.0	-41.8	---	---	720.8	0.031	0.000	17.8	1	1
03/23/06	10:03 a	-26.6	-26.6	-26.6	---	---	28.7	ENE	0.48	33.9	-44.6	---	---	720.9	0.031	0.000	17.8	1	1
03/23/06	10:04 a	-26.6	-26.6	-26.6	---	---	20.9	ENE	0.35	24.3	-42.7	---	---	721.0	0.031	0.000	17.7	1	1
03/23/06	10:05 a	-26.6	-26.6	-26.6	---	---	16.5	ENE	0.28	21.7	-41.2	---	---	720.8	0.031	0.000	17.7	1	1
03/23/06	10:06 a	-26.6	-26.6	-26.6	---	---	26.1	ENE	0.43	30.4	-44.1	---	---	720.6	0.031	0.000	17.7	1	1
03/23/06	10:07 a	-26.6	-26.6	-26.6	---	---	25.2	ENE	0.42	27.8	-43.8	---	---	721.0	0.031	0.000	17.7	1	1
03/23/06	10:08 a	-26.6	-26.6	-26.6	---	---	19.1	ENE	0.32	23.5	-42.1	---	---	720.9	0.031	0.000	17.7	1	1
03/23/06	10:09 a	-26.6	-26.6	-26.6	---	---	27.0	ENE	0.45	28.7	-44.3	---	---	720.8	0.031	0.000	17.7	1	1
03/23/06	10:10 a	-26.6	-26.6	-26.7	---	---	24.3	ENE	0.41	27.0	-43.7	---	---	721.0	0.031	0.000	17.7	1	1
03/23/06	10:11 a	-26.7	-26.6	-26.7	---	---	20.9	ENE	0.35	29.6	-42.7	---	---	720.8	0.031	0.000	17.7	1	1
03/23/06	10:12 a	-26.7	-26.7	-26.7	---	---	27.8	ENE	0.46	29.6	-44.6	---	---	720.8	0.031	0.000	17.7	1	1
03/23/06	10:13 a	-26.7	-26.6	-26.7	---	---	22.6	ENE	0.38	25.2	-43.2	---	---	720.9	0.031	0.000	17.7	1	1
03/23/06	10:14 a	-26.7	-26.6	-26.7	---	---	21.7	ENE	0.36	27.0	-43.0	---	---	720.8	0.031	0.000	17.7	1	1
03/23/06	10:15 a	-26.7	-26.6	-26.7	---	---	25.2	ENE	0.42	27.0	-43.9	---	---	721.0	0.031	0.000	17.7	1	1
03/23/06	10:16 a	-26.7	-26.7	-26.7	---	---	24.3	ENE	0.41	27.0	-43.7	---	---	720.8	0.031	0.000	17.7	1	1
03/23/06	10:17 a	-26.7	-26.7	-26.7	---	---	22.6	ENE	0.38	27.0	-43.2	---	---	720.9	0.031	0.000	17.6	1	1
03/23/06	10:18 a	-26.7	-26.7	-26.7	---	---	20.9	E	0.35	25.2	-42.8	---	---	720.9	0.031	0.000	17.6	1	1
03/23/06	10:19 a	-26.7	-26.7	-26.7	---	---	23.5	ENE	0.39	27.8	-43.6	---	---	721.1	0.031	0.000	17.6	1	1
03/23/06	10:20 a	-26.7	-26.7	-26.7	---	---	19.1	ENE	0.32	21.7	-42.3	---	---	720.9	0.031	0.000	17.6	1	1
03/23/06	10:21 a	-26.7	-26.7	-26.7	---	---	22.6	ENE	0.38	25.2	-43.3	---	---	720.9	0.031	0.000	17.6	1	1
03/23/06	10:22 a	-26.7	-26.7	-26.7	---	---	22.6	ENE	0.38	24.3	-43.2	---	---	720.8	0.031	0.000	17.6	1	1
03/23/06	10:23 a	-26.7	-26.7	-26.7	---	---	22.6	ENE	0.38	25.2	-43.3	---	---	721.1	0.031	0.000	17.6	1	1
03/23/06	10:24 a	-26.7	-26.7	-26.7	---	---	18.3	ENE	0.30	20.9	-42.0	---	---	721.0	0.031	0.000	17.6	1	1
03/23/06	10:25 a	-26.7	-26.7	-26.8	---	---	25.2	ENE	0.42	29.6	-44.0	---	---	720.8	0.031	0.000	17.6	1	1
03/23/06	10:26 a	-26.7	-26.7	-26.7	---	---	22.6	ENE	0.38	27.8	-43.3	---	---	721.1	0.031	0.000	17.6	1	1
03/23/06	10:27 a	-26.7	-26.7	-26.7	---	---	14.8	ENE	0.25	17.4	-40.7	---	---	721.1	0.031	0.000	17.6	1	1
03/23/06	10:28 a	-26.7	-26.7	-26.8	---	---	19.1	ENE	0.32	28.7	-42.3	---	---	720.8	0.031	0.000	17.6	1	1
03/23/06	10:29 a	-26.7	-26.7	-26.8	---	---	22.6	ENE	0.38	25.2	-43.3	---	---	721.1	0.031	0.000	17.6	1	1
03/23/06	10:30 a	-26.7	-26.7	-26.8	---	---	17.4	ENE	0.29	19.1	-41.7	---	---	721.3	0.031	0.000	17.6	1	1
03/23/06	10:31 a	-26.8	-26.7	-26.8	---	---	20.0	ENE	0.33	23.5	-42.6	---	---	721.1	0.031	0.000	17.6	1	1
03/23/06	10:32 a	-26.7	-26.7	-26.8	---	---	20.0	NE	0.33	22.6	-42.6	---	---	721.2	0.031	0.000	17.6	1	1
03/23/06	10:33 a	-26.7	-26.7	-26.8	---	---	13.9	NE	0.23	17.4	-40.3	---	---	721.2	0.031	0.000	17.6	1	1
03/23/06	10:34 a	-26.7	-26.7	-26.8	---	---	20.9	ENE	0.35	24.3	-42.8	---	---	720.9	0.031	0.000	17.6	1	1
03/23/06	10:35 a	-26.8	-26.7	-26.8	---	---	22.6	ENE	0.38	23.5	-43.4	---	---	721.0	0.031	0.000	17.6	1	1
03/23/06	10:36 a	-26.7	-26.7	-26.8	---	---	19.1	NE	0.32	20.9	-42.3	---	---	721.2	0.031	0.000	17.6	1	1
03/23/06	10:37 a	-26.7	-26.7	-26.8	---	---	17.4	NE	0.29	18.3	-41.7	---	---	721.3	0.031	0.000	17.6	1	1
03/23/06	10:38 a	-26.8	-26.7	-26.8	---	---	16.5	ENE	0.28	19.1	-41.4	---	---	721.1	0.031	0.000	17.7	1	1
03/23/06	10:39 a	-26.8	-26.7	-26.8	---	---	23.5	ENE	0.39	27.8	-43.6	---	---	721.0	0.031	0.000	17.7	1	1
03/23/06	10:40 a	-26.7	-26.7	-26.8	---	---	20.0	ENE	0.33	25.2	-42.6	---	---	721.3	0.031	0.000	17.7	1	1
03/23/06	10:41 a	-26.7	-26.7	-26.8	---	---	13.0	NE	0.22	16.5	-39.9	---	---	721.4	0.031	0.000	17.8	1	1
03/23/06	10:42 a	-26.7	-26.7	-26.7	---	---	19.1	ENE	0.32	22.6	-42.3	---	---	721.0	0.031	0.000	17.8	1	1
03/23/06	10:43 a	-26.7	-26.7	-26.8	---	---	18.3	ENE	0.30	22.6	-42.0	---	---	721.1	0.031	0.000	17.8	1	1
03/23/06	10:44 a	-26.8	-26.7	-26.8	---	---	22.6	ENE	0.38	27.0	-43.4	---	---	720.9	0.031	0.000	17.8	1	1
03/23/06	10:45 a	-26.7	-26.7	-26.8	---	---	22.6	ENE	0.38	25.2	-43.3	---	---	721.2	0.031	0.000	17.9	1	1
03/23/06	10:46 a	-26.7	-26.7	-26.7	---	---	17.4	ENE	0.29	20.9	-41.7	---	---	721.1	0.031	0.000	17.9	1	1
03/23/06	10:47 a	-26.7	-26.7	-26.7	---	---	19.1	ENE	0.32	20.9	-42.3	---	---	721.2	0.031	0.000	17.9	1	1
03/23/06	10:48 a	-26.7	-26.7	-26.7	---	---	20.9	ENE	0.35	24.3	-42.8	---	---	721.0	0.031	0.000	17.9	1	1
03/23/06	10:49 a	-26.7	-26.7	-26.7	---	---	20.9	ENE	0.35	24.3	-42.8	---	---	721.2	0.031	0.000	17.9	1	1
03/23/06	10:50 a	-26.7	-26.7	-26.8	---	---	18.3	ENE	0.30	20.9	-42.0	---	---	721.0	0.031	0.000	17.9	1	1
03/23/06	10:51 a	-26.7	-26.7	-26.8	---	---	26.1	ENE	0.43	28.7	-44.2	---	---	721.0	0.031	0.000	17.8	1	1
03/23/06	10:52 a	-26.7	-26.7	-26.7	---	---	19.1	ENE	0.32	22.6	-42.3	---	---	721.3	0.031	0.000	17.8	1	1
03/23/06	10:53 a	-26.7	-26.7	-26.8	---	---	10.4	NE	0.17	14.8	-38.7	---	---	721.2	0.031	0.000	17.8	1	1
03/23/06	10:54 a	-26.7	-26.7	-26.7	---	---	20.0	ENE	0.33	22.6	-42.6	---	---	721.0	0.031	0.000	17.8	1	1
03/23/06	10:55 a	-26.7	-26.7	-26.7	---	---	18.3	ENE	0.30	20.9	-42.0	---	---	721.2	0.031	0.000	17.8	1	1
03/23/06	10:56 a	-26.7	-26.7	-26.7	---	---	18.3	ENE	0.30	22.6	-41.9	---	---	721.1	0.031	0.000	17.8	1	1
03/23/06	10:57 a	-26.7	-26.7	-26.7	---	---	20.0	ENE	0.33	21.7	-42.6	---	---	721.2	0.031	0.000	17.8	1	1
03/23/06	10:58 a	-26.7	-26.7	-26.7	---	---	20.9	ENE	0.35	22.6	-42.7	---	---	721.1	0.031	0.000	17.8	1	1
03/23/06	10:59 a	-26.7	-26.7	-26.7	---	---	19.1	ENE	0.32	20.9	-42.2	---	---	721.2	0.031	0.000	17.8	1	1
03/23/06	11:00 a	-26.7	-26.7	-26.7	---	---	18.3	ENE	0.30	20.0	-41.9	---	---	721.3	0.031	0.000	17.8	1	1
03/23/06	11:01 a	-26.7	-26.6	-26.7	---	---	18.3	ENE	0.30	20.9	-41.9	---	---	721.1	0.031	0.000	17.8	1	1
03/23/06	11:02 a	-26.7	-26.7	-26.7	---	---	20.0	ENE	0.33	21.7	-42.4	---	---	721.3	0.031	0.000	17.8	1	1
03/23/06	11:03 a	-26.7	-26.6	-26.7	---	---	19.1	ENE	0.32	21.7	-42.2	---	---	721.2	0.031	0.000	17.7	1	1
03/23/06	11:04 a	-26.7	-26.6	-26.7	---	---	20.0	ENE	0.33	21.7	-42.4	---	---	721.3	0.031	0.000	17.7	1	1
03/23/06	11:05 a	-26.7	-26.6	-26.7	---	---	14.8	NE	0.25	18.3	-40.6	---	---	721.4	0.031	0.000	17.7	1	1
03/23/06	11:06 a	-26.7	-26.7	-26.7	---	---	13.9	ENE	0.23	19.1	-40.3	---	---	721.3	0.031	0.000	17.7	1	1
03/23/06	11:07 a	-26.7	-26.7	-26.7	---	---	20.9	ENE	0.35	23.5	-42.7	---	---	721.4	0.031	0.000	17.7	1	1
03/23/06	11:08 a	-26.7	-26.6	-26.7	---	---	14.8	NE	0.25	19.1	-40.6	---	---	721.6	0.031	0.000	17.7	1	1
03/23/06	11:09 a	-26.7	-26.6	-26.7	---	---	7.8	NNE	0.13	13.9	-37.0	---	---	721.4	0.031	0.000	17.7	1	1
03/23/06	11:10 a	-26.7	-26.6	-26.7	---	---	20.0	ENE	0.33	21.7	-42.4	---	---	721.3	0.031	0.000	17.7	1	1
03/23/06	11:11 a	-26.6	-26.6	-26.7	---	---	15.7	NE	0.26	19.1	-40.9	---	---	721.6	0.031	0.000	17.7	1	1
03/23/06	11:12 a	-26.6	-26.6	-26.6	---	---	8.7	NE	0.14	16.5	-37.5	---	---	721.5	0.031	0.000	17.7	1	1
03/23/06	11:13 a	-26.6	-26.6	-26.6	---	---	20.0	ENE	0.33	21.7	-42.4	---	---	721.4	0.031	0.000	17.7	1	1
03/23/06	11:14 a	-26.6	-26.6	-26.6	---	---	14.8	NE	0.25	18.3	-40.6	---	---	721.5	0.031	0.000	17.7	1	1
03/23/06	11:15 a	-26.6	-26.6	-26.6	---	---	14.8	NE	0.25	20.9	-40.6	---	---	721.3	0.031	0.000	17.6	1	1
03/23/06	11:16 a	-26.6	-26.6	-26.6	---	---	18.3	ENE	0.30	20.9	-41.8	---	---	721.4	0.031	0.000	17.6	1	1
03/23/06	11:17 a	-26.6	-26.6	-26.7	---	---	11.3	ENE	0.19	15.7	-39.0	---	---	721.5	0.031	0.000	17.6	1	1
03/23/06	11:18 a	-26.7	-26.6	-26.7	---	---	18.3	ENE	0.30	21.7	-41.9	---	---	721.2	0.031	0.000	17.6	1	1
03/23/06	11:19 a	-26.6	-26.6	-26.6	---	---	18.3	ENE	0.30	22.6	-41.8	---	---	721.5	0.031	0.000	17.6	1	1
03/23/06	11:20 a	-26.6	-26.6	-26.7	---	---	12.2	NE	0.20	14.8	-39.4	---	---	721.5	0.031	0.000	17.6	1	1
03/23/06	11:21 a	-26.6	-26.6	-26.7	---	---	13.9	ENE	0.23	20.9	-40.2	---	---	721.4	0.031	0.000	17.6	1	1
03/23/06	11:22 a	-26.6	-26.6	-26.7	---	---	20.0	ENE	0.33	20.9	-42.4	---	---	721.3	0.031	0.000	17.6	1	1
03/23/06	11:23 a	-26.6	-26.6	-26.6	---	---	16.5	ENE	0.28	20.0	-41.2	---	---	721.4	0.031	0.000	17.6	1	1
03/23/06	11:24 a	-26.6	-26.6	-26.6	---	---	13.0	ENE	0.22	14.8	-39.8	---	---	721.4	0.031	0.000	17.6	1	1
03/23/06	11:25 a	-26.6	-26.6	-26.7	---	---	19.1	ENE	0.32	20.9	-42.1	---	---	721.4	0.031	0.000	17.6	1	1
03/23/06	11:26 a	-26.6	-26.6	-26.6	---	---	19.1	ENE	0.32	20.0	-42.1	---	---	721.5	0.031	0.000	17.7	1	1
03/23/06	11:27 a	-26.6	-26.6	-26.6	---	---	13.9	NE	0.23	17.4	-40.2	---	---	721.7	0.031	0.000	17.7	1	1
03/23/06	11:28 a	-26.6	-26.6	-26.6	---	---	13.9	ENE	0.23	16.5	-40.2	---	---	721.5	0.031	0.000	17.7	1	1
03/23/06	11:29 a	-26.6	-26.6	-26.7	---	---	18.3	ENE	0.30	20.0	-41.8	---	---	721.4	0.031	0.000	17.7	1	1
03/23/06	11:30 a	-26.6	-26.6	-26.6	---	---	18.3	ENE	0.30	20.9	-41.8	---	---	721.6	0.031	0.000	17.8	1	1
03/23/06	11:31 a	-26.6	-26.6	-26.7	---	---	13.0	ENE	0.22	15.7	-39.8	---	---	721.5	0.031	0.000	17.8	1	1
03/23/06	11:32 a	-26.6	-26.6	-26.7	---	---	12.2	ENE	0.20	14.8	-39.4	---	---	721.5	0.031	0.000	17.8	1	1
03/23/06	11:33 a	-26.6	-26.6	-26.6	---	---	17.4	ENE	0.29	20.0	-41.6	---	---	721.4	0.031	0.000	17.8	1	1
03/23/06	11:34 a	-26.6	-26.6	-26.6	---	---	16.5	ENE	0.28	19.1	-41.2	---	---	721.4	0.031	0.000	17.9	1	1
03/23/06	11:35 a	-26.7	-26.6	-26.7	---	---	14.8	ENE	0.25	16.5	-40.6	---	---	721.4	0.031	0.000	17.9	1	1
03/23/06	11:36 a	-26.7	-26.6	-26.7	---	---	15.7	ENE	0.26	18.3	-40.9	---	---	721.6	0.031	0.000	17.9	1	1
03/23/06	11:37 a	-26.6	-26.6	-26.7	---	---	11.3	ENE	0.19	14.8	-39.0	---	---	721.4	0.031	0.000	17.9	1	1
03/23/06	11:38 a	-26.6	-26.6	-26.7	---	---	20.0	ENE	0.33	22.6	-42.4	---	---	721.3	0.031	0.000	17.9	1	1
03/23/06	11:39 a	-26.6	-26.6	-26.7	---	---	17.4	ENE	0.29	20.0	-41.6	---	---	721.6	0.031	0.000	17.9	1	1
03/23/06	11:40 a	-26.7	-26.6	-26.7	---	---	13.0	ENE	0.22	15.7	-39.9	---	---	721.5	0.031	0.000	17.9	1	1
03/23/06	11:41 a	-26.6	-26.6	-26.6	---	---	9.6	ENE	0.16	11.3	-38.1	---	---	721.4	0.031	0.000	17.9	1	1
03/23/06	11:42 a	-26.7	-26.6	-26.7	---	---	16.5	ENE	0.28	18.3	-41.3	---	---	721.4	0.031	0.000	17.9	1	1
03/23/06	11:43 a	-26.7	-26.6	-26.7	---	---	15.7	ENE	0.26	17.4	-40.9	---	---	721.5	0.031	0.000	17.9	1	1
03/23/06	11:44 a	-26.7	-26.7	-26.7	---	---	13.9	ENE	0.23	14.8	-40.3	---	---	721.4	0.031	0.000	17.9	1	1
03/23/06	11:45 a	-26.7	-26.6	-26.7	---	---	15.7	ENE	0.26	16.5	-40.9	---	---	721.3	0.031	0.000	17.9	1	1
03/23/06	11:46 a	-26.7	-26.6	-26.7	---	---	14.8	ENE	0.25	15.7	-40.6	---	---	721.4	0.031	0.000	17.9	1	1
03/23/06	11:47 a	-26.7	-26.7	-26.7	---	---	18.3	ENE	0.30	20.0	-41.9	---	---	721.4	0.031	0.000	17.9	1	1
03/23/06	11:48 a	-26.7	-26.7	-26.7	---	---	16.5	ENE	0.28	19.1	-41.3	---	---	721.6	0.031	0.000	17.9	1	1
03/23/06	11:49 a	-26.7	-26.7	-26.7	---	---	13.9	NE	0.23	14.8	-40.3	---	---	721.5	0.031	0.000	17.8	1	1
03/23/06	11:50 a	-26.7	-26.7	-26.7	---	---	17.4	ENE	0.29	20.9	-41.6	---	---	721.3	0.031	0.000	17.8	1	1
03/23/06	11:51 a	-26.7	-26.7	-26.7	---	---	19.1	ENE	0.32	21.7	-42.3	---	---	721.4	0.031	0.000	17.8	1	1
03/23/06	11:52 a	-26.7	-26.7	-26.7	---	---	18.3	ENE	0.30	20.0	-42.0	---	---	721.4	0.031	0.000	17.8	1	1
03/23/06	11:53 a	-26.7	-26.7	-26.7	---	---	16.5	ENE	0.28	17.4	-41.4	---	---	721.4	0.031	0.000	17.8	1	1
03/23/06	11:54 a	-26.7	-26.7	-26.7	---	---	16.5	ENE	0.28	17.4	-41.3	---	---	721.4	0.031	0.000	17.8	1	1
03/23/06	11:55 a	-26.7	-26.7	-26.7	---	---	18.3	ENE	0.30	20.0	-42.0	---	---	721.3	0.031	0.000	17.8	1	1
03/23/06	11:56 a	-26.7	-26.7	-26.7	---	---	17.4	ENE	0.29	19.1	-41.7	---	---	721.3	0.031	0.000	17.8	1	1
03/23/06	11:57 a	-26.7	-26.7	-26.7	---	---	17.4	ENE	0.29	18.3	-41.7	---	---	721.4	0.031	0.000	17.8	1	1
03/23/06	11:58 a	-26.7	-26.7	-26.7	---	---	16.5	ENE	0.28	17.4	-41.4	---	---	721.3	0.031	0.000	17.8	1	1
03/23/06	11:59 a	-26.7	-26.7	-26.7	---	---	17.4	ENE	0.29	18.3	-41.6	---	---	721.4	0.031	0.000	17.8	1	1
03/23/06	12:00 p	-26.7	-26.7	-26.7	---	---	18.3	ENE	0.30	20.0	-42.0	---	---	721.4	0.031	0.000	17.8	1	1
03/23/06	12:01 p	-26.7	-26.7	-26.7	---	---	17.4	ENE	0.29	18.3	-41.7	---	---	721.3	0.031	0.000	17.8	1	1
03/23/06	12:02 p	-26.7	-26.7	-26.7	---	---	15.7	ENE	0.26	16.5	-41.1	---	---	721.3	0.031	0.000	17.8	1	1
03/23/06	12:03 p	-26.7	-26.7	-26.7	---	---	17.4	ENE	0.29	20.9	-41.7	---	---	721.2	0.031	0.000	17.7	1	1
03/23/06	12:04 p	-26.7	-26.7	-26.8	---	---	20.0	ENE	0.33	21.7	-42.6	---	---	721.4	0.031	0.000	17.7	1	1
03/23/06	12:05 p	-26.7	-26.7	-26.8	---	---	14.8	ENE	0.25	18.3	-40.7	---	---	721.5	0.031	0.000	17.7	1	1
03/23/06	12:06 p	-26.7	-26.7	-26.8	---	---	13.9	ENE	0.23	19.1	-40.3	---	---	721.3	0.031	0.000	17.7	1	1
03/23/06	12:07 p	-26.7	-26.7	-26.8	---	---	20.9	ENE	0.35	21.7	-42.8	---	---	721.3	0.031	0.000	17.7	1	1
03/23/06	12:08 p	-26.7	-26.7	-26.8	---	---	18.3	ENE	0.30	20.9	-42.0	---	---	721.5	0.031	0.000	17.7	1	1
03/23/06	12:09 p	-26.7	-26.7	-26.8	---	---	13.0	ENE	0.22	14.8	-39.9	---	---	721.5	0.031	0.000	17.7	1	1
03/23/06	12:10 p	-26.7	-26.7	-26.8	---	---	14.8	ENE	0.25	16.5	-40.7	---	---	721.5	0.031	0.000	17.7	1	1
03/23/06	12:11 p	-26.7	-26.7	-26.8	---	---	16.5	ENE	0.28	17.4	-41.4	---	---	721.4	0.031	0.000	17.7	1	1
03/23/06	12:12 p	-26.8	-26.7	-26.8	---	---	18.3	ENE	0.30	19.1	-42.1	---	---	721.5	0.031	0.000	17.7	1	1
03/23/06	12:13 p	-26.8	-26.7	-26.8	---	---	15.7	NE	0.26	18.3	-41.1	---	---	721.5	0.031	0.000	17.7	1	1
03/23/06	12:14 p	-26.8	-26.8	-26.8	---	---	16.5	ENE	0.28	20.0	-41.4	---	---	721.3	0.031	0.000	17.7	1	1
03/23/06	12:15 p	-26.8	-26.8	-26.8	---	---	19.1	ENE	0.32	20.9	-42.3	---	---	721.5	0.031	0.000	17.7	1	1
03/23/06	12:16 p	-26.8	-26.7	-26.8	---	---	17.4	ENE	0.29	20.0	-41.7	---	---	721.3	0.031	0.000	17.7	1	1
03/23/06	12:17 p	-26.8	-26.8	-26.8	---	---	18.3	ENE	0.30	20.0	-42.1	---	---	721.5	0.031	0.000	17.7	1	1
03/23/06	12:18 p	-26.8	-26.8	-26.8	---	---	14.8	ENE	0.25	17.4	-40.8	---	---	721.5	0.031	0.000	17.7	1	1
03/23/06	12:19 p	-26.8	-26.8	-26.8	---	---	15.7	ENE	0.26	20.0	-41.2	---	---	721.4	0.031	0.000	17.7	1	1
03/23/06	12:20 p	-26.8	-26.8	-26.8	---	---	19.1	ENE	0.32	20.0	-42.4	---	---	721.4	0.031	0.000	17.7	1	1
03/23/06	12:21 p	-26.8	-26.8	-26.9	---	---	15.7	ENE	0.26	16.5	-41.2	---	---	721.5	0.031	0.000	17.7	1	1
03/23/06	12:22 p	-26.8	-26.8	-26.8	---	---	17.4	ENE	0.29	20.9	-41.8	---	---	721.5	0.031	0.000	17.7	1	1
03/23/06	12:23 p	-26.8	-26.8	-26.8	---	---	16.5	NE	0.28	20.9	-41.5	---	---	721.6	0.031	0.000	17.7	1	1
03/23/06	12:24 p	-26.8	-26.8	-26.9	---	---	14.8	ENE	0.25	16.5	-40.8	---	---	721.5	0.031	0.000	17.7	1	1
03/23/06	12:25 p	-26.9	-26.8	-26.9	---	---	16.5	ENE	0.28	18.3	-41.6	---	---	721.5	0.031	0.000	17.8	1	1
03/23/06	12:26 p	-26.9	-26.9	-26.9	---	---	15.7	ENE	0.26	17.4	-41.3	---	---	721.5	0.031	0.000	17.8	1	1
03/23/06	12:27 p	-26.9	-26.9	-26.9	---	---	15.7	ENE	0.26	17.4	-41.3	---	---	721.5	0.031	0.000	17.8	1	1
03/23/06	12:28 p	-26.9	-26.8	-26.9	---	---	16.5	ENE	0.28	18.3	-41.6	---	---	721.5	0.031	0.000	17.8	1	1
03/23/06	12:29 p	-26.9	-26.9	-26.9	---	---	17.4	ENE	0.29	19.1	-41.9	---	---	721.5	0.031	0.000	17.9	1	1
03/23/06	12:30 p	-26.9	-26.9	-26.9	---	---	16.5	ENE	0.28	17.4	-41.7	---	---	721.6	0.031	0.000	17.9	1	1
03/23/06	12:31 p	-26.9	-26.9	-26.9	---	---	13.9	ENE	0.23	14.8	-40.6	---	---	721.5	0.031	0.000	17.9	1	1
03/23/06	12:32 p	-26.9	-26.9	-26.9	---	---	16.5	ENE	0.28	19.1	-41.7	---	---	721.5	0.031	0.000	17.9	1	1
03/23/06	12:33 p	-26.9	-26.9	-26.9	---	---	18.3	ENE	0.30	20.0	-42.3	---	---	721.5	0.031	0.000	17.9	1	1
03/23/06	12:34 p	-26.9	-26.9	-26.9	---	---	19.1	ENE	0.32	20.0	-42.6	---	---	721.5	0.031	0.000	17.9	1	1
03/23/06	12:35 p	-26.9	-26.9	-26.9	---	---	16.5	NE	0.28	19.1	-41.7	---	---	721.6	0.031	0.000	17.9	1	1
03/23/06	12:36 p	-26.9	-26.9	-26.9	---	---	11.3	NE	0.19	12.2	-39.4	---	---	721.6	0.031	0.000	17.9	1	1
03/23/06	12:37 p	-26.9	-26.9	-27.0	---	---	12.2	ENE	0.20	23.5	-39.8	---	---	721.2	0.031	0.000	17.9	1	1
03/23/06	12:38 p	-26.9	-26.9	-26.9	---	---	21.7	ENE	0.36	24.3	-43.4	---	---	721.3	0.031	0.000	17.9	1	1
03/23/06	12:39 p	-26.9	-26.9	-26.9	---	---	13.9	ENE	0.23	18.3	-40.6	---	---	721.4	0.031	0.000	17.9	1	1
03/23/06	12:40 p	-26.9	-26.9	-26.9	---	---	16.5	ENE	0.28	18.3	-41.7	---	---	721.5	0.031	0.000	17.9	1	1
03/23/06	12:41 p	-26.9	-26.9	-26.9	---	---	13.9	NE	0.23	17.4	-40.6	---	---	721.5	0.031	0.000	17.8	1	1
03/23/06	12:42 p	-26.9	-26.9	-26.9	---	---	12.2	NE	0.20	13.9	-39.8	---	---	721.4	0.031	0.000	17.8	1	1
03/23/06	12:43 p	-26.9	-26.9	-26.9	---	---	14.8	ENE	0.25	19.1	-41.0	---	---	721.3	0.031	0.000	17.8	1	1
03/23/06	12:44 p	-26.9	-26.9	-26.9	---	---	20.9	ENE	0.35	22.6	-43.1	---	---	721.4	0.031	0.000	17.8	1	1
03/23/06	12:45 p	-26.9	-26.9	-26.9	---	---	15.7	ENE	0.26	20.0	-41.3	---	---	721.5	0.031	0.000	17.8	1	1
03/23/06	12:46 p	-26.9	-26.9	-26.9	---	---	13.9	NE	0.23	13.9	-40.6	---	---	721.5	0.031	0.000	17.8	1	1
03/23/06	12:47 p	-26.9	-26.9	-26.9	---	---	13.9	ENE	0.23	14.8	-40.6	---	---	721.4	0.031	0.000	17.8	1	1
03/23/06	12:48 p	-26.9	-26.9	-26.9	---	---	15.7	ENE	0.26	19.1	-41.3	---	---	721.2	0.031	0.000	17.8	1	1
03/23/06	12:49 p	-26.9	-26.9	-26.9	---	---	19.1	ENE	0.32	20.9	-42.6	---	---	721.5	0.031	0.000	17.8	1	1
03/23/06	12:50 p	-26.9	-26.9	-26.9	---	---	15.7	ENE	0.26	19.1	-41.3	---	---	721.4	0.031	0.000	17.8	1	1
03/23/06	12:51 p	-26.9	-26.9	-26.9	---	---	18.3	ENE	0.30	20.9	-42.2	---	---	721.5	0.031	0.000	17.8	1	1
03/23/06	12:52 p	-26.9	-26.9	-26.9	---	---	10.4	ENE	0.17	12.2	-38.9	---	---	721.5	0.031	0.000	17.8	1	1
03/23/06	12:53 p	-26.9	-26.9	-26.9	---	---	7.8	ENE	0.13	15.7	-37.3	---	---	721.3	0.031	0.000	17.8	1	1
03/23/06	12:54 p	-26.9	-26.9	-26.9	---	---	20.0	ENE	0.33	23.5	-42.8	---	---	721.1	0.031	0.000	17.8	1	1
03/23/06	12:55 p	-26.9	-26.9	-26.9	---	---	20.9	ENE	0.35	24.3	-43.1	---	---	721.3	0.031	0.000	17.8	1	1
03/23/06	12:56 p	-26.9	-26.8	-26.9	---	---	14.8	NE	0.25	17.4	-40.9	---	---	721.5	0.031	0.000	17.8	1	1
03/23/06	12:57 p	-26.9	-26.8	-26.9	---	---	15.7	ENE	0.26	20.0	-41.3	---	---	721.3	0.031	0.000	17.8	1	1
03/23/06	12:58 p	-26.8	-26.8	-26.9	---	---	19.1	ENE	0.32	20.9	-42.4	---	---	721.3	0.031	0.000	17.7	1	1
03/23/06	12:59 p	-26.8	-26.8	-26.8	---	---	15.7	ENE	0.26	18.3	-41.2	---	---	721.4	0.031	0.000	17.7	1	1
03/23/06	1:00 p	-26.8	-26.8	-26.9	---	---	13.9	ENE	0.23	15.7	-40.5	---	---	721.2	0.031	0.000	17.7	1	1
03/23/06	1:01 p	-26.8	-26.8	-26.9	---	---	19.1	ENE	0.32	22.6	-42.4	---	---	721.1	0.031	0.000	17.7	1	1
03/23/06	1:02 p	-26.8	-26.8	-26.9	---	---	19.1	ENE	0.32	20.9	-42.4	---	---	721.3	0.031	0.000	17.7	1	1
03/23/06	1:03 p	-26.8	-26.8	-26.9	---	---	18.3	ENE	0.30	20.0	-42.1	---	---	721.3	0.031	0.000	17.7	1	1
03/23/06	1:04 p	-26.8	-26.8	-26.8	---	---	16.5	ENE	0.28	17.4	-41.5	---	---	721.3	0.031	0.000	17.7	1	1
03/23/06	1:05 p	-26.8	-26.8	-26.8	---	---	18.3	ENE	0.30	20.0	-42.1	---	---	721.3	0.031	0.000	17.7	1	1
03/23/06	1:06 p	-26.8	-26.8	-26.8	---	---	20.0	ENE	0.33	20.9	-42.6	---	---	721.3	0.031	0.000	17.7	1	1
03/23/06	1:07 p	-26.8	-26.8	-26.8	---	---	15.7	ENE	0.26	18.3	-41.1	---	---	721.4	0.031	0.000	17.7	1	1
03/23/06	1:08 p	-26.8	-26.8	-26.8	---	---	13.9	ENE	0.23	20.0	-40.4	---	---	721.3	0.031	0.000	17.7	1	1
03/23/06	1:09 p	-26.8	-26.8	-26.8	---	---	20.9	ENE	0.35	22.6	-42.9	---	---	721.3	0.031	0.000	17.7	1	1
03/23/06	1:10 p	-26.8	-26.7	-26.8	---	---	18.3	ENE	0.30	21.7	-42.1	---	---	721.3	0.031	0.000	17.7	1	1
03/23/06	1:11 p	-26.8	-26.8	-26.8	---	---	20.0	ENE	0.33	20.0	-42.6	---	---	721.3	0.031	0.000	17.7	1	1
03/23/06	1:12 p	-26.7	-26.7	-26.8	---	---	18.3	ENE	0.30	19.1	-42.0	---	---	721.3	0.031	0.000	17.7	1	1
03/23/06	1:13 p	-26.7	-26.7	-26.8	---	---	16.5	ENE	0.28	20.0	-41.4	---	---	721.3	0.031	0.000	17.7	1	1
03/23/06	1:14 p	-26.8	-26.7	-26.8	---	---	19.1	ENE	0.32	20.9	-42.3	---	---	721.4	0.031	0.000	17.7	1	1
03/23/06	1:15 p	-26.7	-26.7	-26.8	---	---	16.5	ENE	0.28	19.1	-41.4	---	---	721.4	0.031	0.000	17.7	1	1
03/23/06	1:16 p	-26.7	-26.7	-26.7	---	---	19.1	ENE	0.32	21.7	-42.3	---	---	721.2	0.031	0.000	17.7	1	1
03/23/06	1:17 p	-26.7	-26.7	-26.8	---	---	18.3	ENE	0.30	21.7	-42.0	---	---	721.4	0.031	0.000	17.7	1	1
03/23/06	1:18 p	-26.7	-26.7	-26.7	---	---	16.5	ENE	0.28	20.0	-41.4	---	---	721.2	0.031	0.000	17.8	1	1
03/23/06	1:19 p	-26.7	-26.7	-26.7	---	---	18.3	ENE	0.30	20.9	-41.9	---	---	721.4	0.031	0.000	17.8	1	1
03/23/06	1:20 p	-26.7	-26.7	-26.7	---	---	15.7	ENE	0.26	19.1	-41.1	---	---	721.3	0.031	0.000	17.8	1	1
03/23/06	1:21 p	-26.7	-26.7	-26.7	---	---	19.1	ENE	0.32	21.7	-42.2	---	---	721.4	0.031	0.000	17.8	1	1
03/23/06	1:22 p	-26.7	-26.7	-26.7	---	---	17.4	NE	0.29	18.3	-41.6	---	---	721.4	0.031	0.000	17.8	1	1
03/23/06	1:23 p	-26.7	-26.7	-26.7	---	---	19.1	ENE	0.32	20.9	-42.2	---	---	721.3	0.031	0.000	17.8	1	1
03/23/06	1:24 p	-26.7	-26.6	-26.7	---	---	18.3	ENE	0.30	20.0	-41.9	---	---	721.5	0.031	0.000	17.8	1	1
03/23/06	1:25 p	-26.7	-26.7	-26.7	---	---	15.7	ENE	0.26	16.5	-40.9	---	---	721.4	0.031	0.000	17.8	1	1
03/23/06	1:26 p	-26.7	-26.6	-26.7	---	---	17.4	ENE	0.29	20.0	-41.6	---	---	721.3	0.031	0.000	17.8	1	1
03/23/06	1:27 p	-26.7	-26.6	-26.7	---	---	19.1	ENE	0.32	20.0	-42.2	---	---	721.4	0.031	0.000	17.8	1	1
03/23/06	1:28 p	-26.6	-26.6	-26.7	---	---	17.4	ENE	0.29	20.0	-41.6	---	---	721.3	0.031	0.000	17.8	1	1
03/23/06	1:29 p	-26.6	-26.6	-26.6	---	---	16.5	ENE	0.28	17.4	-41.2	---	---	721.3	0.031	0.000	17.8	1	1
03/23/06	1:30 p	-26.6	-26.6	-26.6	---	---	16.5	ENE	0.28	18.3	-41.2	---	---	721.3	0.031	0.000	17.8	1	1
03/23/06	1:31 p	-26.6	-26.6	-26.6	---	---	17.4	ENE	0.29	19.1	-41.6	---	---	721.3	0.031	0.000	17.8	1	1
03/23/06	1:32 p	-26.6	-26.6	-26.6	---	---	19.1	ENE	0.32	20.0	-42.1	---	---	721.2	0.031	0.000	17.8	1	1
03/23/06	1:33 p	-26.6	-26.6	-26.6	---	---	19.1	ENE	0.32	20.9	-42.1	---	---	721.4	0.031	0.000	17.8	1	1
03/23/06	1:34 p	-26.6	-26.6	-26.6	---	---	16.5	ENE	0.28	19.1	-41.2	---	---	721.4	0.031	0.000	17.8	1	1
03/23/06	1:35 p	-26.6	-26.6	-26.6	---	---	19.1	ENE	0.32	20.9	-42.1	---	---	721.3	0.031	0.000	17.8	1	1
03/23/06	1:36 p	-26.6	-26.5	-26.6	---	---	19.1	ENE	0.32	20.9	-42.1	---	---	721.5	0.031	0.000	17.8	1	1
03/23/06	1:37 p	-26.5	-26.5	-26.5	---	---	18.3	ENE	0.30	19.1	-41.7	---	---	721.5	0.031	0.000	17.7	1	1
03/23/06	1:38 p	-26.5	-26.4	-26.5	---	---	18.3	ENE	0.30	20.0	-41.7	---	---	721.4	0.031	0.000	17.7	1	1
03/23/06	1:39 p	-26.5	-26.5	-26.5	---	---	18.3	ENE	0.30	20.0	-41.7	---	---	721.5	0.031	0.000	17.7	1	1
03/23/06	1:40 p	-26.4	-26.4	-26.5	---	---	17.4	ENE	0.29	19.1	-41.3	---	---	721.5	0.031	0.000	17.7	1	1
03/23/06	1:41 p	-26.4	-26.4	-26.4	---	---	14.8	ENE	0.25	16.5	-40.3	---	---	721.4	0.031	0.000	17.7	1	1
03/23/06	1:42 p	-26.4	-26.4	-26.4	---	---	18.3	ENE	0.30	19.1	-41.6	---	---	721.4	0.031	0.000	17.7	1	1
03/23/06	1:43 p	-26.4	-26.4	-26.4	---	---	18.3	ENE	0.30	20.9	-41.6	---	---	721.4	0.031	0.000	17.7	1	1
03/23/06	1:44 p	-26.4	-26.4	-26.4	---	---	19.1	ENE	0.32	21.7	-41.8	---	---	721.4	0.031	0.000	17.7	1	1
03/23/06	1:45 p	-26.4	-26.4	-26.4	---	---	18.3	ENE	0.30	20.0	-41.6	---	---	721.5	0.031	0.000	17.7	1	1
03/23/06	1:46 p	-26.4	-26.3	-26.4	---	---	16.5	ENE	0.28	18.3	-40.9	---	---	721.4	0.031	0.000	17.7	1	1
03/23/06	1:47 p	-26.3	-26.3	-26.4	---	---	18.3	ENE	0.30	19.1	-41.4	---	---	721.4	0.031	0.000	17.8	1	1
03/23/06	1:48 p	-26.3	-26.3	-26.4	---	---	20.0	ENE	0.33	20.9	-42.0	---	---	721.5	0.031	0.000	17.8	1	1
03/23/06	1:49 p	-26.3	-26.3	-26.3	---	---	16.5	ENE	0.28	19.1	-40.8	---	---	721.4	0.031	0.000	17.8	1	1
03/23/06	1:50 p	-26.3	-26.3	-26.3	---	---	18.3	ENE	0.30	20.0	-41.4	---	---	721.3	0.031	0.000	17.8	1	1
03/23/06	1:51 p	-26.3	-26.3	-26.3	---	---	19.1	ENE	0.32	20.9	-41.7	---	---	721.4	0.031	0.000	17.8	1	1
03/23/06	1:52 p	-26.2	-26.2	-26.3	---	---	19.1	ENE	0.32	20.9	-41.6	---	---	721.4	0.031	0.000	17.9	1	1
03/23/06	1:53 p	-26.2	-26.2	-26.3	---	---	18.3	ENE	0.30	20.0	-41.3	---	---	721.4	0.031	0.000	17.9	1	1
03/23/06	1:54 p	-26.2	-26.2	-26.2	---	---	18.3	ENE	0.30	20.0	-41.3	---	---	721.4	0.031	0.000	17.9	1	1
03/23/06	1:55 p	-26.2	-26.2	-26.2	---	---	19.1	ENE	0.32	21.7	-41.6	---	---	721.4	0.031	0.000	17.9	1	1
03/23/06	1:56 p	-26.2	-26.2	-26.2	---	---	20.0	ENE	0.33	20.9	-41.8	---	---	721.3	0.031	0.000	18.0	1	1
03/23/06	1:57 p	-26.2	-26.2	-26.2	---	---	20.0	ENE	0.33	20.9	-41.8	---	---	721.3	0.031	0.000	18.0	1	1
03/23/06	1:58 p	-26.2	-26.1	-26.2	---	---	19.1	ENE	0.32	20.9	-41.6	---	---	721.3	0.031	0.000	18.0	1	1
03/23/06	1:59 p	-26.2	-26.1	-26.2	---	---	19.1	ENE	0.32	20.0	-41.6	---	---	721.4	0.031	0.000	18.1	1	1
03/23/06	2:00 p	-26.2	-26.1	-26.2	---	---	16.5	ENE	0.28	18.3	-40.6	---	---	721.3	0.031	0.000	18.1	1	1
03/23/06	2:01 p	-26.1	-26.1	-26.2	---	---	18.3	ENE	0.30	20.0	-41.2	---	---	721.3	0.031	0.000	18.1	1	1
03/23/06	2:02 p	-26.1	-26.1	-26.1	---	---	20.0	ENE	0.33	21.7	-41.7	---	---	721.4	0.031	0.000	18.1	1	1
03/23/06	2:03 p	-26.1	-26.1	-26.2	---	---	18.3	ENE	0.30	21.7	-41.2	---	---	721.4	0.031	0.000	18.1	1	1
03/23/06	2:04 p	-26.1	-26.1	-26.1	---	---	18.3	ENE	0.30	20.0	-41.2	---	---	721.4	0.031	0.000	18.1	1	1
03/23/06	2:05 p	-26.1	-26.1	-26.1	---	---	18.3	ENE	0.30	20.0	-41.2	---	---	721.3	0.031	0.000	18.1	1	1
03/23/06	2:06 p	-26.1	-26.1	-26.1	---	---	18.3	ENE	0.30	20.9	-41.1	---	---	721.5	0.031	0.000	18.1	1	1
03/23/06	2:07 p	-26.1	-26.1	-26.1	---	---	15.7	ENE	0.26	18.3	-40.2	---	---	721.4	0.031	0.000	18.1	1	1
03/23/06	2:08 p	-26.1	-26.1	-26.1	---	---	16.5	ENE	0.28	18.3	-40.5	---	---	721.5	0.031	0.000	18.0	1	1
03/23/06	2:09 p	-26.1	-26.1	-26.1	---	---	18.3	ENE	0.30	20.0	-41.1	---	---	721.3	0.031	0.000	18.0	1	1
03/23/06	2:10 p	-26.1	-26.1	-26.1	---	---	20.0	ENE	0.33	21.7	-41.7	---	---	721.4	0.031	0.000	18.0	1	1
03/23/06	2:11 p	-26.1	-26.1	-26.1	---	---	18.3	ENE	0.30	20.0	-41.1	---	---	721.5	0.031	0.000	18.0	1	1
03/23/06	2:12 p	-26.1	-26.1	-26.1	---	---	18.3	ENE	0.30	19.1	-41.1	---	---	721.4	0.031	0.000	18.0	1	1
03/23/06	2:13 p	-26.1	-26.0	-26.1	---	---	17.4	ENE	0.29	18.3	-40.8	---	---	721.4	0.031	0.000	18.0	1	1
03/23/06	2:14 p	-26.0	-26.0	-26.1	---	---	18.3	ENE	0.30	19.1	-41.0	---	---	721.4	0.031	0.000	17.9	1	1
03/23/06	2:15 p	-26.0	-26.0	-26.1	---	---	16.5	ENE	0.28	17.4	-40.4	---	---	721.3	0.031	0.000	17.9	1	1
03/23/06	2:16 p	-26.0	-26.0	-26.1	---	---	16.5	ENE	0.28	19.1	-40.4	---	---	721.3	0.031	0.000	17.9	1	1
03/23/06	2:17 p	-26.0	-26.0	-26.1	---	---	18.3	ENE	0.30	20.0	-41.0	---	---	721.2	0.031	0.000	17.9	1	1
03/23/06	2:18 p	-26.0	-26.0	-26.1	---	---	20.9	ENE	0.35	24.3	-41.8	---	---	721.3	0.031	0.000	17.9	1	1
03/23/06	2:19 p	-26.0	-26.0	-26.0	---	---	18.3	ENE	0.30	19.1	-41.0	---	---	721.4	0.031	0.000	17.9	1	1
03/23/06	2:20 p	-26.0	-26.0	-26.0	---	---	14.8	NE	0.25	16.5	-39.8	---	---	721.5	0.031	0.000	17.9	1	1
03/23/06	2:21 p	-26.0	-26.0	-26.1	---	---	14.8	ENE	0.25	20.0	-39.8	---	---	721.3	0.031	0.000	17.9	1	1
03/23/06	2:22 p	-26.0	-26.0	-26.1	---	---	20.0	E	0.33	20.9	-41.6	---	---	721.2	0.031	0.000	17.9	1	1
03/23/06	2:23 p	-26.0	-26.0	-26.0	---	---	19.1	ENE	0.32	20.9	-41.3	---	---	721.4	0.031	0.000	17.9	1	1
03/23/06	2:24 p	-26.0	-26.0	-26.0	---	---	15.7	ENE	0.26	17.4	-40.1	---	---	721.3	0.031	0.000	17.9	1	1
03/23/06	2:25 p	-26.0	-25.9	-26.0	---	---	15.7	ENE	0.26	18.3	-40.1	---	---	721.3	0.031	0.000	17.9	1	1
03/23/06	2:26 p	-26.0	-26.0	-26.0	---	---	19.1	ENE	0.32	20.9	-41.3	---	---	721.2	0.031	0.000	17.9	1	1
03/23/06	2:27 p	-26.0	-25.9	-26.0	---	---	20.9	ENE	0.35	23.5	-41.8	---	---	721.3	0.031	0.000	17.9	1	1
03/23/06	2:28 p	-26.0	-25.9	-26.0	---	---	17.4	ENE	0.29	20.0	-40.7	---	---	721.4	0.031	0.000	17.8	1	1
03/23/06	2:29 p	-25.9	-25.9	-26.0	---	---	17.4	ENE	0.29	19.1	-40.7	---	---	721.3	0.031	0.000	17.8	1	1
03/23/06	2:30 p	-26.0	-26.0	-26.0	---	---	20.0	ENE	0.33	24.3	-41.6	---	---	721.2	0.031	0.000	17.8	1	1
03/23/06	2:31 p	-26.0	-25.9	-26.0	---	---	19.1	ENE	0.32	21.7	-41.3	---	---	721.4	0.031	0.000	17.8	1	1
03/23/06	2:32 p	-26.0	-26.0	-26.0	---	---	15.7	ENE	0.26	17.4	-40.1	---	---	721.3	0.031	0.000	17.8	1	1
03/23/06	2:33 p	-25.9	-25.9	-26.0	---	---	15.7	ENE	0.26	17.4	-40.0	---	---	721.3	0.031	0.000	17.8	1	1
03/23/06	2:34 p	-26.0	-25.9	-26.0	---	---	19.1	ENE	0.32	21.7	-41.3	---	---	721.2	0.031	0.000	17.8	1	1
03/23/06	2:35 p	-26.0	-25.9	-26.0	---	---	17.4	ENE	0.29	19.1	-40.7	---	---	721.3	0.031	0.000	17.8	1	1
03/23/06	2:36 p	-25.9	-25.9	-26.0	---	---	18.3	ENE	0.30	19.1	-40.9	---	---	721.3	0.031	0.000	17.8	1	1
03/23/06	2:37 p	-26.0	-26.0	-26.0	---	---	13.9	ENE	0.23	15.7	-39.4	---	---	721.3	0.031	0.000	17.8	1	1
03/23/06	2:38 p	-26.0	-26.0	-26.0	---	---	19.1	ENE	0.32	22.6	-41.3	---	---	721.2	0.031	0.000	17.8	1	1
03/23/06	2:39 p	-26.0	-26.0	-26.0	---	---	20.0	ENE	0.33	21.7	-41.6	---	---	721.2	0.031	0.000	17.8	1	1
03/23/06	2:40 p	-26.0	-26.0	-26.1	---	---	17.4	ENE	0.29	19.1	-40.7	---	---	721.3	0.031	0.000	17.8	1	1
03/23/06	2:41 p	-26.0	-26.0	-26.1	---	---	14.8	ENE	0.25	17.4	-39.8	---	---	721.3	0.031	0.000	17.8	1	1
03/23/06	2:42 p	-26.0	-26.0	-26.1	---	---	13.9	ENE	0.23	16.5	-39.4	---	---	721.3	0.031	0.000	17.8	1	1
03/23/06	2:43 p	-26.0	-26.0	-26.1	---	---	15.7	ENE	0.26	21.7	-40.1	---	---	721.2	0.031	0.000	17.8	1	1
03/23/06	2:44 p	-26.1	-26.0	-26.1	---	---	19.1	ENE	0.32	21.7	-41.4	---	---	721.3	0.031	0.000	17.8	1	1
03/23/06	2:45 p	-26.1	-26.0	-26.1	---	---	16.5	ENE	0.28	19.1	-40.5	---	---	721.2	0.031	0.000	17.8	1	1
03/23/06	2:46 p	-26.1	-26.1	-26.1	---	---	15.7	ENE	0.26	17.4	-40.2	---	---	721.3	0.031	0.000	17.8	1	1
03/23/06	2:47 p	-26.1	-26.1	-26.1	---	---	14.8	ENE	0.25	15.7	-39.8	---	---	721.2	0.031	0.000	17.8	1	1
03/23/06	2:48 p	-26.1	-26.1	-26.1	---	---	17.4	ENE	0.29	19.1	-40.8	---	---	721.2	0.031	0.000	17.8	1	1
03/23/06	2:49 p	-26.1	-26.0	-26.1	---	---	16.5	ENE	0.28	17.4	-40.5	---	---	721.2	0.031	0.000	17.7	1	1
03/23/06	2:50 p	-26.1	-26.1	-26.1	---	---	15.7	ENE	0.26	18.3	-40.2	---	---	721.3	0.031	0.000	17.7	1	1
03/23/06	2:51 p	-26.1	-26.1	-26.1	---	---	14.8	ENE	0.25	16.5	-39.9	---	---	721.3	0.031	0.000	17.7	1	1
03/23/06	2:52 p	-26.1	-26.1	-26.2	---	---	15.7	ENE	0.26	16.5	-40.2	---	---	721.3	0.031	0.000	17.7	1	1
03/23/06	2:53 p	-26.2	-26.1	-26.2	---	---	16.5	ENE	0.28	18.3	-40.6	---	---	721.3	0.031	0.000	17.7	1	1
03/23/06	2:54 p	-26.1	-26.1	-26.2	---	---	15.7	ENE	0.26	17.4	-40.2	---	---	721.3	0.031	0.000	17.7	1	1
03/23/06	2:55 p	-26.2	-26.2	-26.2	---	---	17.4	ENE	0.29	19.1	-40.9	---	---	721.3	0.031	0.000	17.7	1	1
03/23/06	2:56 p	-26.2	-26.2	-26.2	---	---	15.7	ENE	0.26	16.5	-40.3	---	---	721.2	0.031	0.000	17.7	1	1
03/23/06	2:57 p	-26.2	-26.2	-26.2	---	---	14.8	NE	0.25	18.3	-40.0	---	---	721.2	0.031	0.000	17.7	1	1
03/23/06	2:58 p	-26.2	-26.2	-26.2	---	---	17.4	ENE	0.29	18.3	-40.9	---	---	721.3	0.031	0.000	17.7	1	1
03/23/06	2:59 p	-26.2	-26.2	-26.2	---	---	15.7	ENE	0.26	17.4	-40.4	---	---	721.3	0.031	0.000	17.7	1	1
03/23/06	3:00 p	-26.2	-26.2	-26.2	---	---	17.4	NE	0.29	18.3	-41.0	---	---	721.2	0.031	0.000	17.7	1	1
03/23/06	3:01 p	-26.2	-26.2	-26.3	---	---	15.7	ENE	0.26	17.4	-40.4	---	---	721.3	0.031	0.000	17.7	1	1
03/23/06	3:02 p	-26.3	-26.2	-26.3	---	---	15.7	ENE	0.26	16.5	-40.4	---	---	721.3	0.031	0.000	17.7	1	1
03/23/06	3:03 p	-26.3	-26.2	-26.3	---	---	18.3	ENE	0.30	19.1	-41.4	---	---	721.2	0.031	0.000	17.7	1	1
03/23/06	3:04 p	-26.3	-26.3	-26.3	---	---	15.7	ENE	0.26	16.5	-40.4	---	---	721.2	0.031	0.000	17.7	1	1
03/23/06	3:05 p	-26.3	-26.3	-26.3	---	---	15.7	ENE	0.26	18.3	-40.4	---	---	721.3	0.031	0.000	17.7	1	1
03/23/06	3:06 p	-26.3	-26.3	-26.3	---	---	18.3	ENE	0.30	20.9	-41.4	---	---	721.2	0.031	0.000	17.7	1	1
03/23/06	3:07 p	-26.3	-26.3	-26.3	---	---	16.5	ENE	0.28	18.3	-40.8	---	---	721.3	0.031	0.000	17.7	1	1
03/23/06	3:08 p	-26.3	-26.3	-26.3	---	---	16.5	ENE	0.28	18.3	-40.8	---	---	721.4	0.031	0.000	17.8	1	1
03/23/06	3:09 p	-26.3	-26.3	-26.3	---	---	17.4	ENE	0.29	19.1	-41.2	---	---	721.4	0.031	0.000	17.8	1	1
03/23/06	3:10 p	-26.3	-26.3	-26.4	---	---	15.7	NE	0.26	20.0	-40.6	---	---	721.2	0.031	0.000	17.8	1	1
03/23/06	3:11 p	-26.3	-26.3	-26.3	---	---	19.1	ENE	0.32	20.0	-41.7	---	---	721.2	0.031	0.000	17.9	1	1
03/23/06	3:12 p	-26.4	-26.3	-26.4	---	---	17.4	ENE	0.29	18.3	-41.2	---	---	721.4	0.031	0.000	17.9	1	1
03/23/06	3:13 p	-26.4	-26.4	-26.4	---	---	11.3	ENE	0.19	17.4	-38.7	---	---	721.4	0.031	0.000	17.9	1	1
03/23/06	3:14 p	-26.4	-26.4	-26.4	---	---	14.8	ENE	0.25	20.0	-40.3	---	---	721.3	0.031	0.000	17.9	1	1
03/23/06	3:15 p	-26.4	-26.4	-26.4	---	---	15.7	NE	0.26	17.4	-40.6	---	---	721.4	0.031	0.000	18.0	1	1
03/23/06	3:16 p	-26.4	-26.4	-26.4	---	---	17.4	NE	0.29	20.9	-41.2	---	---	721.4	0.031	0.000	18.0	1	1
03/23/06	3:17 p	-26.4	-26.4	-26.4	---	---	17.4	NE	0.29	18.3	-41.2	---	---	721.4	0.031	0.000	18.0	1	1
03/23/06	3:18 p	-26.4	-26.4	-26.4	---	---	16.5	NE	0.28	18.3	-40.9	---	---	721.4	0.031	0.000	18.0	1	1
03/23/06	3:19 p	-26.4	-26.4	-26.4	---	---	16.5	NE	0.28	17.4	-41.0	---	---	721.3	0.031	0.000	18.0	1	1
03/23/06	3:20 p	-26.4	-26.4	-26.4	---	---	16.5	NE	0.28	18.3	-41.0	---	---	721.4	0.031	0.000	18.0	1	1
03/23/06	3:21 p	-26.4	-26.4	-26.4	---	---	13.9	NE	0.23	14.8	-40.0	---	---	721.4	0.031	0.000	18.0	1	1
03/23/06	3:22 p	-26.4	-26.4	-26.4	---	---	17.4	ENE	0.29	20.0	-41.3	---	---	721.4	0.031	0.000	18.0	1	1
03/23/06	3:23 p	-26.4	-26.4	-26.4	---	---	16.5	ENE	0.28	17.4	-41.0	---	---	721.4	0.031	0.000	18.0	1	1
03/23/06	3:24 p	-26.4	-26.4	-26.4	---	---	16.5	ENE	0.28	17.4	-41.0	---	---	721.4	0.031	0.000	18.0	1	1
03/23/06	3:25 p	-26.5	-26.4	-26.5	---	---	16.5	ENE	0.28	17.4	-41.1	---	---	721.5	0.031	0.000	18.0	1	1
03/23/06	3:26 p	-26.4	-26.4	-26.4	---	---	16.5	ENE	0.28	17.4	-41.0	---	---	721.4	0.031	0.000	17.9	1	1
03/23/06	3:27 p	-26.4	-26.4	-26.4	---	---	18.3	ENE	0.30	19.1	-41.6	---	---	721.5	0.031	0.000	17.9	1	1
03/23/06	3:28 p	-26.4	-26.4	-26.5	---	---	13.9	ENE	0.23	15.7	-40.0	---	---	721.4	0.031	0.000	17.9	1	1
03/23/06	3:29 p	-26.4	-26.4	-26.5	---	---	14.8	ENE	0.25	15.7	-40.3	---	---	721.4	0.031	0.000	17.9	1	1
03/23/06	3:30 p	-26.4	-26.4	-26.5	---	---	16.5	ENE	0.28	18.3	-41.0	---	---	721.4	0.031	0.000	17.9	1	1
03/23/06	3:31 p	-26.5	-26.4	-26.5	---	---	14.8	ENE	0.25	15.7	-40.4	---	---	721.4	0.031	0.000	17.9	1	1
03/23/06	3:32 p	-26.5	-26.5	-26.5	---	---	16.5	ENE	0.28	19.1	-41.1	---	---	721.5	0.031	0.000	17.9	1	1
03/23/06	3:33 p	-26.5	-26.4	-26.5	---	---	12.2	ENE	0.20	16.5	-39.3	---	---	721.4	0.031	0.000	17.9	1	1
03/23/06	3:34 p	-26.5	-26.5	-26.5	---	---	20.0	NE	0.33	21.7	-42.2	---	---	721.4	0.031	0.000	17.9	1	1
03/23/06	3:35 p	-26.5	-26.5	-26.5	---	---	14.8	ENE	0.25	18.3	-40.4	---	---	721.6	0.031	0.000	17.9	1	1
03/23/06	3:36 p	-26.5	-26.5	-26.5	---	---	12.2	ENE	0.20	20.0	-39.3	---	---	721.3	0.031	0.000	17.9	1	1
03/23/06	3:37 p	-26.5	-26.5	-26.5	---	---	20.0	NE	0.33	21.7	-42.2	---	---	721.5	0.031	0.000	17.9	1	1
03/23/06	3:38 p	-26.5	-26.5	-26.5	---	---	14.8	ENE	0.25	16.5	-40.4	---	---	721.5	0.031	0.000	17.9	1	1
03/23/06	3:39 p	-26.5	-26.5	-26.6	---	---	17.4	NE	0.29	19.1	-41.4	---	---	721.6	0.031	0.000	17.8	1	1
03/23/06	3:40 p	-26.5	-26.5	-26.6	---	---	14.8	ENE	0.25	16.5	-40.4	---	---	721.4	0.031	0.000	17.8	1	1
03/23/06	3:41 p	-26.6	-26.5	-26.6	---	---	17.4	NE	0.29	19.1	-41.4	---	---	721.3	0.031	0.000	17.8	1	1
03/23/06	3:42 p	-26.6	-26.5	-26.6	---	---	16.5	ENE	0.28	20.0	-41.2	---	---	721.5	0.031	0.000	17.8	1	1
03/23/06	3:43 p	-26.6	-26.5	-26.6	---	---	16.5	NE	0.28	20.0	-41.2	---	---	721.6	0.031	0.000	17.8	1	1
03/23/06	3:44 p	-26.6	-26.6	-26.6	---	---	7.0	N	0.12	12.2	-36.3	---	---	721.5	0.031	0.000	17.8	1	1
03/23/06	3:45 p	-26.6	-26.5	-26.6	---	---	17.4	NE	0.29	21.7	-41.4	---	---	721.3	0.031	0.000	17.8	1	1
03/23/06	3:46 p	-26.6	-26.6	-26.6	---	---	13.9	NE	0.23	20.0	-40.1	---	---	721.5	0.031	0.000	17.8	1	1
03/23/06	3:47 p	-26.6	-26.6	-26.6	---	---	13.0	ENE	0.22	17.4	-39.7	---	---	721.5	0.031	0.000	17.8	1	1
03/23/06	3:48 p	-26.6	-26.5	-26.6	---	---	18.3	NE	0.30	20.0	-41.8	---	---	721.5	0.031	0.000	17.8	1	1
03/23/06	3:49 p	-26.5	-26.5	-26.6	---	---	11.3	NE	0.19	17.4	-38.8	---	---	721.6	0.031	0.000	17.8	1	1
03/23/06	3:50 p	-26.6	-26.6	-26.6	---	---	13.9	ENE	0.23	22.6	-40.1	---	---	721.5	0.031	0.000	17.8	1	1
03/23/06	3:51 p	-26.5	-26.5	-26.5	---	---	18.3	ENE	0.30	21.7	-41.7	---	---	721.5	0.031	0.000	17.8	1	1
03/23/06	3:52 p	-26.5	-26.5	-26.6	---	---	11.3	NE	0.19	16.5	-38.8	---	---	721.6	0.031	0.000	17.8	1	1
03/23/06	3:53 p	-26.5	-26.5	-26.6	---	---	16.5	NE	0.28	18.3	-41.1	---	---	721.5	0.031	0.000	17.8	1	1
03/23/06	3:54 p	-26.5	-26.5	-26.5	---	---	14.8	NE	0.25	16.5	-40.4	---	---	721.6	0.031	0.000	17.8	1	1
03/23/06	3:55 p	-26.5	-26.5	-26.5	---	---	7.0	NE	0.12	11.3	-36.2	---	---	721.5	0.031	0.000	17.8	1	1
03/23/06	3:56 p	-26.5	-26.5	-26.5	---	---	20.0	ENE	0.33	22.6	-42.2	---	---	721.3	0.031	0.000	17.8	1	1
03/23/06	3:57 p	-26.5	-26.4	-26.5	---	---	17.4	ENE	0.29	20.9	-41.4	---	---	721.6	0.031	0.000	17.8	1	1
03/23/06	3:58 p	-26.5	-26.4	-26.5	---	---	5.2	NE	0.09	8.7	-34.7	---	---	721.6	0.031	0.000	17.8	1	1
03/23/06	3:59 p	-26.4	-26.4	-26.5	---	---	13.0	ENE	0.22	15.7	-39.6	---	---	721.5	0.031	0.000	17.8	1	1
03/23/06	4:00 p	-26.4	-26.4	-26.5	---	---	9.6	NE	0.16	14.8	-37.8	---	---	721.4	0.031	0.000	17.7	1	1
03/23/06	4:01 p	-26.4	-26.4	-26.4	---	---	20.0	ENE	0.33	21.7	-42.2	---	---	721.4	0.031	0.000	17.7	1	1
03/23/06	4:02 p	-26.4	-26.4	-26.4	---	---	14.8	ENE	0.25	19.1	-40.3	---	---	721.5	0.031	0.000	17.7	1	1
03/23/06	4:03 p	-26.4	-26.4	-26.4	---	---	11.3	NE	0.19	19.1	-38.8	---	---	721.4	0.031	0.000	17.7	1	1
03/23/06	4:04 p	-26.4	-26.4	-26.4	---	---	19.1	ENE	0.32	20.0	-41.9	---	---	721.4	0.031	0.000	17.7	1	1
03/23/06	4:05 p	-26.4	-26.4	-26.4	---	---	14.8	NE	0.25	19.1	-40.3	---	---	721.5	0.031	0.000	17.7	1	1
03/23/06	4:06 p	-26.4	-26.4	-26.4	---	---	18.3	ENE	0.30	19.1	-41.6	---	---	721.4	0.031	0.000	17.7	1	1
03/23/06	4:07 p	-26.4	-26.4	-26.4	---	---	13.9	NE	0.23	18.3	-39.9	---	---	721.4	0.031	0.000	17.7	1	1
03/23/06	4:08 p	-26.4	-26.4	-26.4	---	---	18.3	NE	0.30	20.9	-41.6	---	---	721.4	0.031	0.000	17.7	1	1
03/23/06	4:09 p	-26.4	-26.3	-26.4	---	---	13.9	NE	0.23	15.7	-39.9	---	---	721.5	0.031	0.000	17.7	1	1
03/23/06	4:10 p	-26.4	-26.4	-26.4	---	---	15.7	ENE	0.26	17.4	-40.6	---	---	721.5	0.031	0.000	17.7	1	1
03/23/06	4:11 p	-26.4	-26.3	-26.4	---	---	13.9	NE	0.23	19.1	-39.9	---	---	721.4	0.031	0.000	17.7	1	1
03/23/06	4:12 p	-26.4	-26.3	-26.4	---	---	17.4	ENE	0.29	20.9	-41.2	---	---	721.4	0.031	0.000	17.7	1	1
03/23/06	4:13 p	-26.3	-26.3	-26.4	---	---	12.2	ENE	0.20	14.8	-39.1	---	---	721.4	0.031	0.000	17.7	1	1
03/23/06	4:14 p	-26.3	-26.3	-26.3	---	---	16.5	ENE	0.28	18.3	-40.8	---	---	721.4	0.031	0.000	17.7	1	1
03/23/06	4:15 p	-26.3	-26.3	-26.3	---	---	16.5	ENE	0.28	18.3	-40.8	---	---	721.5	0.031	0.000	17.7	1	1
03/23/06	4:16 p	-26.3	-26.3	-26.3	---	---	16.5	ENE	0.28	17.4	-40.8	---	---	721.4	0.031	0.000	17.7	1	1
03/23/06	4:17 p	-26.3	-26.3	-26.4	---	---	14.8	ENE	0.25	16.5	-40.2	---	---	721.4	0.031	0.000	17.7	1	1
03/23/06	4:18 p	-26.3	-26.3	-26.3	---	---	19.1	ENE	0.32	20.9	-41.7	---	---	721.4	0.031	0.000	17.7	1	1
03/23/06	4:19 p	-26.3	-26.3	-26.3	---	---	18.3	ENE	0.30	20.9	-41.4	---	---	721.4	0.031	0.000	17.7	1	1
03/23/06	4:20 p	-26.3	-26.3	-26.3	---	---	11.3	ENE	0.19	15.7	-38.6	---	---	721.4	0.031	0.000	17.7	1	1
03/23/06	4:21 p	-26.3	-26.3	-26.3	---	---	18.3	ENE	0.30	22.6	-41.4	---	---	721.1	0.031	0.000	17.7	1	1
03/23/06	4:22 p	-26.3	-26.3	-26.3	---	---	18.3	ENE	0.30	20.0	-41.4	---	---	721.3	0.031	0.000	17.8	1	1
03/23/06	4:23 p	-26.3	-26.3	-26.3	---	---	14.8	ENE	0.25	17.4	-40.1	---	---	721.3	0.031	0.000	17.8	1	1
03/23/06	4:24 p	-26.3	-26.3	-26.3	---	---	17.4	ENE	0.29	20.0	-41.1	---	---	721.3	0.031	0.000	17.8	1	1
03/23/06	4:25 p	-26.3	-26.2	-26.3	---	---	13.9	ENE	0.23	15.7	-39.8	---	---	721.4	0.031	0.000	17.9	1	1
03/23/06	4:26 p	-26.3	-26.3	-26.3	---	---	15.7	ENE	0.26	18.3	-40.4	---	---	721.3	0.031	0.000	17.9	1	1
03/23/06	4:27 p	-26.3	-26.2	-26.3	---	---	17.4	ENE	0.29	20.0	-41.1	---	---	721.3	0.031	0.000	17.9	1	1
03/23/06	4:28 p	-26.3	-26.3	-26.3	---	---	16.5	ENE	0.28	18.3	-40.8	---	---	721.2	0.031	0.000	17.9	1	1
03/23/06	4:29 p	-26.3	-26.3	-26.3	---	---	16.5	ENE	0.28	18.3	-40.8	---	---	721.3	0.031	0.000	18.0	1	1
03/23/06	4:30 p	-26.3	-26.2	-26.3	---	---	16.5	ENE	0.28	18.3	-40.8	---	---	721.3	0.031	0.000	18.0	1	1
03/23/06	4:31 p	-26.3	-26.3	-26.3	---	---	16.5	ENE	0.28	19.1	-40.8	---	---	721.2	0.031	0.000	18.0	1	1
03/23/06	4:32 p	-26.2	-26.2	-26.2	---	---	19.1	ENE	0.32	20.0	-41.6	---	---	721.2	0.031	0.000	18.0	1	1
03/23/06	4:33 p	-26.2	-26.2	-26.3	---	---	17.4	ENE	0.29	18.3	-41.0	---	---	721.2	0.031	0.000	18.0	1	1
03/23/06	4:34 p	-26.3	-26.2	-26.3	---	---	18.3	ENE	0.30	20.0	-41.4	---	---	721.2	0.031	0.000	17.9	1	1
03/23/06	4:35 p	-26.3	-26.2	-26.3	---	---	18.3	ENE	0.30	20.0	-41.4	---	---	721.3	0.031	0.000	17.9	1	1
03/23/06	4:36 p	-26.2	-26.2	-26.3	---	---	19.1	ENE	0.32	20.0	-41.6	---	---	721.2	0.031	0.000	17.9	1	1
03/23/06	4:37 p	-26.3	-26.2	-26.3	---	---	18.3	ENE	0.30	19.1	-41.4	---	---	721.2	0.031	0.000	17.9	1	1
03/23/06	4:38 p	-26.2	-26.2	-26.3	---	---	15.7	ENE	0.26	18.3	-40.4	---	---	721.3	0.031	0.000	17.9	1	1
03/23/06	4:39 p	-26.3	-26.3	-26.3	---	---	17.4	ENE	0.29	19.1	-41.1	---	---	721.2	0.031	0.000	17.9	1	1
03/23/06	4:40 p	-26.3	-26.2	-26.3	---	---	20.0	ENE	0.33	21.7	-41.9	---	---	721.2	0.031	0.000	17.9	1	1
03/23/06	4:41 p	-26.3	-26.2	-26.3	---	---	17.4	ENE	0.29	19.1	-41.1	---	---	721.2	0.031	0.000	17.9	1	1
03/23/06	4:42 p	-26.3	-26.3	-26.3	---	---	16.5	ENE	0.28	19.1	-40.8	---	---	721.4	0.031	0.000	17.9	1	1
03/23/06	4:43 p	-26.3	-26.2	-26.3	---	---	18.3	ENE	0.30	20.0	-41.4	---	---	721.1	0.031	0.000	17.9	1	1
03/23/06	4:44 p	-26.3	-26.2	-26.3	---	---	20.0	ENE	0.33	20.9	-41.9	---	---	721.3	0.031	0.000	17.9	1	1
03/23/06	4:45 p	-26.3	-26.2	-26.3	---	---	18.3	ENE	0.30	20.0	-41.4	---	---	721.3	0.031	0.000	17.9	1	1
03/23/06	4:46 p	-26.3	-26.2	-26.3	---	---	17.4	ENE	0.29	20.0	-41.1	---	---	721.3	0.031	0.000	17.8	1	1
03/23/06	4:47 p	-26.3	-26.2	-26.3	---	---	17.4	ENE	0.29	19.1	-41.1	---	---	721.3	0.031	0.000	17.8	1	1
03/23/06	4:48 p	-26.3	-26.3	-26.3	---	---	19.1	ENE	0.32	20.9	-41.7	---	---	721.3	0.031	0.000	17.8	1	1
03/23/06	4:49 p	-26.3	-26.2	-26.3	---	---	18.3	ENE	0.30	20.9	-41.4	---	---	721.4	0.031	0.000	17.8	1	1
03/23/06	4:50 p	-26.3	-26.2	-26.3	---	---	16.5	ENE	0.28	18.3	-40.8	---	---	721.4	0.031	0.000	17.8	1	1
03/23/06	4:51 p	-26.3	-26.2	-26.3	---	---	18.3	ENE	0.30	19.1	-41.4	---	---	721.3	0.031	0.000	17.8	1	1
03/23/06	4:52 p	-26.3	-26.3	-26.3	---	---	17.4	ENE	0.29	19.1	-41.1	---	---	721.2	0.031	0.000	17.8	1	1
03/23/06	4:53 p	-26.3	-26.2	-26.3	---	---	18.3	ENE	0.30	20.0	-41.4	---	---	721.3	0.031	0.000	17.8	1	1
03/23/06	4:54 p	-26.3	-26.3	-26.3	---	---	17.4	ENE	0.29	19.1	-41.1	---	---	721.4	0.031	0.000	17.8	1	1
03/23/06	4:55 p	-26.3	-26.2	-26.3	---	---	14.8	ENE	0.25	17.4	-40.1	---	---	721.4	0.031	0.000	17.8	1	1
03/23/06	4:56 p	-26.3	-26.2	-26.3	---	---	18.3	ENE	0.30	20.0	-41.4	---	---	721.3	0.031	0.000	17.8	1	1
03/23/06	4:57 p	-26.3	-26.3	-26.3	---	---	19.1	ENE	0.32	20.0	-41.7	---	---	721.3	0.031	0.000	17.8	1	1
03/23/06	4:58 p	-26.3	-26.3	-26.3	---	---	17.4	ENE	0.29	19.1	-41.1	---	---	721.3	0.031	0.000	17.8	1	1
03/23/06	4:59 p	-26.3	-26.3	-26.3	---	---	17.4	ENE	0.29	19.1	-41.1	---	---	721.2	0.031	0.000	17.8	1	1
03/23/06	5:00 p	-26.3	-26.2	-26.3	---	---	17.4	ENE	0.29	19.1	-41.1	---	---	721.3	0.031	0.000	17.8	1	1
03/23/06	5:01 p	-26.3	-26.3	-26.3	---	---	19.1	ENE	0.32	20.9	-41.7	---	---	721.2	0.031	0.000	17.8	1	1
03/23/06	5:02 p	-26.3	-26.3	-26.3	---	---	18.3	ENE	0.30	20.0	-41.4	---	---	721.2	0.031	0.000	17.8	1	1
03/23/06	5:03 p	-26.3	-26.3	-26.3	---	---	19.1	ENE	0.32	20.0	-41.7	---	---	721.2	0.031	0.000	17.8	1	1
03/23/06	5:04 p	-26.3	-26.2	-26.3	---	---	15.7	ENE	0.26	17.4	-40.4	---	---	721.2	0.031	0.000	17.8	1	1
03/23/06	5:05 p	-26.3	-26.3	-26.3	---	---	17.4	ENE	0.29	20.9	-41.1	---	---	721.3	0.031	0.000	17.8	1	1
03/23/06	5:06 p	-26.3	-26.2	-26.3	---	---	20.0	ENE	0.33	22.6	-41.9	---	---	721.3	0.031	0.000	17.8	1	1
03/23/06	5:07 p	-26.3	-26.3	-26.3	---	---	17.4	ENE	0.29	19.1	-41.1	---	---	721.3	0.031	0.000	17.8	1	1
03/23/06	5:08 p	-26.3	-26.3	-26.3	---	---	15.7	ENE	0.26	20.9	-40.4	---	---	721.2	0.031	0.000	17.8	1	1
03/23/06	5:09 p	-26.3	-26.2	-26.3	---	---	20.0	ENE	0.33	20.9	-41.9	---	---	721.3	0.031	0.000	17.8	1	1
03/23/06	5:10 p	-26.3	-26.2	-26.3	---	---	18.3	ENE	0.30	20.0	-41.4	---	---	721.2	0.031	0.000	17.8	1	1
03/23/06	5:11 p	-26.3	-26.2	-26.3	---	---	16.5	ENE	0.28	18.3	-40.8	---	---	721.3	0.031	0.000	17.7	1	1
03/23/06	5:12 p	-26.2	-26.2	-26.3	---	---	18.3	ENE	0.30	20.0	-41.3	---	---	721.2	0.031	0.000	17.7	1	1
03/23/06	5:13 p	-26.3	-26.2	-26.3	---	---	19.1	ENE	0.32	20.9	-41.7	---	---	721.2	0.031	0.000	17.7	1	1
03/23/06	5:14 p	-26.3	-26.2	-26.3	---	---	20.9	ENE	0.35	22.6	-42.2	---	---	721.4	0.031	0.000	17.7	1	1
03/23/06	5:15 p	-26.3	-26.2	-26.3	---	---	15.7	ENE	0.26	18.3	-40.4	---	---	721.3	0.031	0.000	17.7	1	1
03/23/06	5:16 p	-26.2	-26.2	-26.3	---	---	16.5	ENE	0.28	20.9	-40.7	---	---	721.2	0.031	0.000	17.7	1	1
03/23/06	5:17 p	-26.2	-26.2	-26.3	---	---	19.1	ENE	0.32	20.9	-41.6	---	---	721.3	0.031	0.000	17.7	1	1
03/23/06	5:18 p	-26.2	-26.2	-26.3	---	---	18.3	ENE	0.30	20.0	-41.3	---	---	721.2	0.031	0.000	17.7	1	1
03/23/06	5:19 p	-26.2	-26.2	-26.3	---	---	20.0	ENE	0.33	21.7	-41.9	---	---	721.3	0.031	0.000	17.7	1	1
03/23/06	5:20 p	-26.2	-26.2	-26.3	---	---	14.8	ENE	0.25	19.1	-40.1	---	---	721.3	0.031	0.000	17.7	1	1
03/23/06	5:21 p	-26.3	-26.2	-26.3	---	---	18.3	ENE	0.30	21.7	-41.4	---	---	721.2	0.031	0.000	17.7	1	1
03/23/06	5:22 p	-26.2	-26.2	-26.2	---	---	20.9	ENE	0.35	23.5	-42.2	---	---	721.2	0.031	0.000	17.7	1	1
03/23/06	5:23 p	-26.2	-26.2	-26.2	---	---	14.8	ENE	0.25	17.4	-40.1	---	---	721.3	0.031	0.000	17.7	1	1
03/23/06	5:24 p	-26.2	-26.2	-26.2	---	---	20.0	ENE	0.33	23.5	-41.9	---	---	721.3	0.031	0.000	17.7	1	1
03/23/06	5:25 p	-26.2	-26.2	-26.2	---	---	16.5	ENE	0.28	21.7	-40.7	---	---	721.3	0.031	0.000	17.7	1	1
03/23/06	5:26 p	-26.2	-26.2	-26.2	---	---	20.9	ENE	0.35	23.5	-42.2	---	---	721.3	0.031	0.000	17.7	1	1
03/23/06	5:27 p	-26.2	-26.2	-26.2	---	---	18.3	ENE	0.30	20.9	-41.3	---	---	721.3	0.031	0.000	17.7	1	1
03/23/06	5:28 p	-26.2	-26.2	-26.2	---	---	13.9	ENE	0.23	20.9	-39.7	---	---	721.2	0.031	0.000	17.7	1	1
03/23/06	5:29 p	-26.2	-26.2	-26.2	---	---	21.7	ENE	0.36	23.5	-42.4	---	---	721.2	0.031	0.000	17.7	1	1
03/23/06	5:30 p	-26.2	-26.2	-26.2	---	---	20.9	ENE	0.35	22.6	-42.2	---	---	721.2	0.031	0.000	17.7	1	1
03/23/06	5:31 p	-26.2	-26.2	-26.2	---	---	16.5	ENE	0.28	20.0	-40.7	---	---	721.4	0.031	0.000	17.7	1	1
03/23/06	5:32 p	-26.2	-26.2	-26.2	---	---	19.1	ENE	0.32	21.7	-41.6	---	---	721.2	0.031	0.000	17.7	1	1
03/23/06	5:33 p	-26.2	-26.2	-26.2	---	---	20.0	ENE	0.33	21.7	-41.8	---	---	721.3	0.031	0.000	17.7	1	1
03/23/06	5:34 p	-26.2	-26.2	-26.2	---	---	18.3	ENE	0.30	20.0	-41.2	---	---	721.3	0.031	0.000	17.7	1	1
03/23/06	5:35 p	-26.2	-26.2	-26.2	---	---	18.3	ENE	0.30	20.0	-41.2	---	---	721.3	0.031	0.000	17.7	1	1
03/23/06	5:36 p	-26.2	-26.2	-26.2	---	---	20.9	ENE	0.35	22.6	-42.1	---	---	721.2	0.031	0.000	17.7	1	1
03/23/06	5:37 p	-26.2	-26.2	-26.2	---	---	18.3	ENE	0.30	20.0	-41.2	---	---	721.2	0.031	0.000	17.8	1	1
03/23/06	5:38 p	-26.2	-26.2	-26.2	---	---	19.1	ENE	0.32	20.9	-41.6	---	---	721.2	0.031	0.000	17.8	1	1
03/23/06	5:39 p	-26.2	-26.2	-26.2	---	---	19.1	ENE	0.32	20.9	-41.6	---	---	721.3	0.031	0.000	17.8	1	1
03/23/06	5:40 p	-26.2	-26.2	-26.2	---	---	17.4	ENE	0.29	19.1	-40.9	---	---	721.3	0.031	0.000	17.9	1	1
03/23/06	5:41 p	-26.2	-26.2	-26.2	---	---	17.4	ENE	0.29	20.0	-40.9	---	---	721.3	0.031	0.000	17.9	1	1
03/23/06	5:42 p	-26.2	-26.2	-26.2	---	---	20.0	ENE	0.33	21.7	-41.8	---	---	721.3	0.031	0.000	17.9	1	1
03/23/06	5:43 p	-26.2	-26.2	-26.2	---	---	19.1	ENE	0.32	21.7	-41.6	---	---	721.3	0.031	0.000	18.0	1	1
03/23/06	5:44 p	-26.2	-26.2	-26.2	---	---	15.7	ENE	0.26	17.4	-40.3	---	---	721.3	0.031	0.000	18.0	1	1
03/23/06	5:45 p	-26.2	-26.2	-26.2	---	---	20.0	ENE	0.33	21.7	-41.8	---	---	721.3	0.031	0.000	18.0	1	1
03/23/06	5:46 p	-26.2	-26.1	-26.2	---	---	17.4	ENE	0.29	19.1	-40.9	---	---	721.4	0.031	0.000	18.0	1	1
03/23/06	5:47 p	-26.2	-26.1	-26.2	---	---	17.4	ENE	0.29	21.7	-40.9	---	---	721.2	0.031	0.000	18.0	1	1
03/23/06	5:48 p	-26.2	-26.1	-26.2	---	---	16.5	ENE	0.28	20.0	-40.6	---	---	721.3	0.031	0.000	18.0	1	1
03/23/06	5:49 p	-26.2	-26.1	-26.2	---	---	18.3	ENE	0.30	20.0	-41.2	---	---	721.3	0.031	0.000	17.9	1	1
03/23/06	5:50 p	-26.2	-26.1	-26.2	---	---	17.4	ENE	0.29	19.1	-40.9	---	---	721.3	0.031	0.000	17.9	1	1
03/23/06	5:51 p	-26.2	-26.1	-26.2	---	---	19.1	ENE	0.32	21.7	-41.6	---	---	721.2	0.031	0.000	17.9	1	1
03/23/06	5:52 p	-26.1	-26.1	-26.2	---	---	20.0	ENE	0.33	22.6	-41.7	---	---	721.2	0.031	0.000	17.9	1	1
03/23/06	5:53 p	-26.2	-26.1	-26.2	---	---	13.9	ENE	0.23	18.3	-39.6	---	---	721.3	0.031	0.000	17.9	1	1
03/23/06	5:54 p	-26.2	-26.1	-26.2	---	---	23.5	ENE	0.39	25.2	-42.8	---	---	721.1	0.031	0.000	17.9	1	1
03/23/06	5:55 p	-26.1	-26.1	-26.2	---	---	15.7	ENE	0.26	22.6	-40.2	---	---	721.4	0.031	0.000	17.9	1	1
03/23/06	5:56 p	-26.1	-26.1	-26.1	---	---	20.0	ENE	0.33	24.3	-41.7	---	---	721.2	0.031	0.000	17.9	1	1
03/23/06	5:57 p	-26.1	-26.1	-26.1	---	---	14.8	ENE	0.25	21.7	-39.8	---	---	721.4	0.031	0.000	17.9	1	1
03/23/06	5:58 p	-26.1	-26.1	-26.1	---	---	22.6	ENE	0.38	23.5	-42.5	---	---	721.3	0.031	0.000	17.9	1	1
03/23/06	5:59 p	-26.1	-26.1	-26.1	---	---	13.0	ENE	0.22	20.9	-39.1	---	---	721.5	0.031	0.000	17.9	1	1
03/23/06	6:00 p	-26.1	-26.1	-26.1	---	---	16.5	ENE	0.28	25.2	-40.6	---	---	721.2	0.031	0.000	17.9	1	1
03/23/06	6:01 p	-26.1	-26.1	-26.1	---	---	20.0	ENE	0.33	24.3	-41.7	---	---	721.5	0.031	0.000	17.9	1	1
03/23/06	6:02 p	-26.1	-26.1	-26.1	---	---	10.4	ENE	0.17	16.5	-37.8	---	---	721.5	0.031	0.000	17.8	1	1
03/23/06	6:03 p	-26.0	-26.0	-26.1	---	---	19.1	ENE	0.32	21.7	-41.3	---	---	721.3	0.031	0.000	17.8	1	1
03/23/06	6:04 p	-26.0	-26.0	-26.0	---	---	20.0	ENE	0.33	20.9	-41.6	---	---	721.4	0.031	0.000	17.8	1	1
03/23/06	6:05 p	-26.0	-26.0	-26.1	---	---	15.7	ENE	0.26	20.0	-40.1	---	---	721.4	0.031	0.000	17.8	1	1
03/23/06	6:06 p	-26.0	-26.0	-26.1	---	---	20.9	ENE	0.35	22.6	-41.8	---	---	721.3	0.031	0.000	17.8	1	1
03/23/06	6:07 p	-26.0	-25.9	-26.0	---	---	17.4	ENE	0.29	20.0	-40.7	---	---	721.4	0.031	0.000	17.8	1	1
03/23/06	6:08 p	-25.9	-25.9	-26.0	---	---	14.8	ENE	0.25	20.9	-39.7	---	---	721.4	0.031	0.000	17.8	1	1
03/23/06	6:09 p	-25.9	-25.9	-26.0	---	---	19.1	ENE	0.32	21.7	-41.2	---	---	721.3	0.031	0.000	17.8	1	1
03/23/06	6:10 p	-25.9	-25.9	-25.9	---	---	16.5	ENE	0.28	20.0	-40.3	---	---	721.6	0.031	0.000	17.8	1	1
03/23/06	6:11 p	-25.9	-25.9	-25.9	---	---	15.7	ENE	0.26	19.1	-40.0	---	---	721.3	0.031	0.000	17.8	1	1
03/23/06	6:12 p	-25.9	-25.9	-25.9	---	---	18.3	ENE	0.30	20.9	-40.9	---	---	721.3	0.031	0.000	17.8	1	1
03/23/06	6:13 p	-25.9	-25.9	-25.9	---	---	19.1	ENE	0.32	20.9	-41.2	---	---	721.5	0.031	0.000	17.8	1	1
03/23/06	6:14 p	-25.9	-25.8	-25.9	---	---	14.8	ENE	0.25	19.1	-39.6	---	---	721.5	0.031	0.000	17.8	1	1
03/23/06	6:15 p	-25.9	-25.9	-25.9	---	---	14.8	ENE	0.25	20.9	-39.6	---	---	721.2	0.031	0.000	17.8	1	1
03/23/06	6:16 p	-25.9	-25.8	-25.9	---	---	20.9	ENE	0.35	21.7	-41.7	---	---	721.3	0.031	0.000	17.8	1	1
03/23/06	6:17 p	-25.8	-25.8	-25.9	---	---	16.5	ENE	0.28	20.0	-40.2	---	---	721.4	0.031	0.000	17.8	1	1
03/23/06	6:18 p	-25.8	-25.8	-25.8	---	---	9.6	E	0.16	13.0	-37.1	---	---	721.4	0.031	0.000	17.8	1	1
03/23/06	6:19 p	-25.8	-25.8	-25.9	---	---	20.9	ENE	0.35	23.5	-41.6	---	---	721.3	0.031	0.000	17.8	1	1
03/23/06	6:20 p	-25.8	-25.8	-25.8	---	---	17.4	ENE	0.29	20.9	-40.4	---	---	721.4	0.031	0.000	17.8	1	1
03/23/06	6:21 p	-25.8	-25.8	-25.8	---	---	16.5	ENE	0.28	21.7	-40.2	---	---	721.3	0.031	0.000	17.8	1	1
03/23/06	6:22 p	-25.8	-25.7	-25.8	---	---	18.3	ENE	0.30	20.0	-40.7	---	---	721.5	0.031	0.000	17.8	1	1
03/23/06	6:23 p	-25.8	-25.7	-25.8	---	---	15.7	ENE	0.26	20.9	-39.8	---	---	721.4	0.031	0.000	17.8	1	1
03/23/06	6:24 p	-25.7	-25.7	-25.8	---	---	18.3	ENE	0.30	19.1	-40.7	---	---	721.4	0.031	0.000	17.8	1	1
03/23/06	6:25 p	-25.7	-25.7	-25.7	---	---	15.7	ENE	0.26	19.1	-39.7	---	---	721.5	0.031	0.000	17.8	1	1
03/23/06	6:26 p	-25.7	-25.7	-25.7	---	---	16.5	ENE	0.28	18.3	-40.1	---	---	721.4	0.031	0.000	17.8	1	1
03/23/06	6:27 p	-25.7	-25.7	-25.7	---	---	15.7	ENE	0.26	17.4	-39.7	---	---	721.4	0.031	0.000	17.8	1	1
03/23/06	6:28 p	-25.7	-25.7	-25.7	---	---	15.7	ENE	0.26	18.3	-39.7	---	---	721.4	0.031	0.000	17.8	1	1
03/23/06	6:29 p	-25.6	-25.6	-25.7	---	---	16.5	ENE	0.28	18.3	-39.9	---	---	721.3	0.031	0.000	17.8	1	1
03/23/06	6:30 p	-25.7	-25.6	-25.7	---	---	18.3	ENE	0.30	20.9	-40.6	---	---	721.3	0.031	0.000	17.8	1	1
03/23/06	6:31 p	-25.6	-25.6	-25.6	---	---	18.3	ENE	0.30	20.9	-40.5	---	---	721.4	0.031	0.000	17.8	1	1
03/23/06	6:32 p	-25.6	-25.6	-25.6	---	---	14.8	ENE	0.25	15.7	-39.3	---	---	721.4	0.031	0.000	17.7	1	1
03/23/06	6:33 p	-25.6	-25.6	-25.6	---	---	15.7	ENE	0.26	19.1	-39.5	---	---	721.3	0.030	0.000	17.8	1	1
03/23/06	6:34 p	-25.6	-25.6	-25.6	---	---	18.3	ENE	0.30	19.1	-40.4	---	---	721.3	0.030	0.000	17.8	1	1
03/23/06	6:35 p	-25.6	-25.6	-25.6	---	---	16.5	ENE	0.28	19.1	-39.8	---	---	721.4	0.030	0.000	17.7	1	1
03/23/06	6:36 p	-25.6	-25.5	-25.6	---	---	14.8	ENE	0.25	19.1	-39.2	---	---	721.4	0.030	0.000	17.7	1	1
03/23/06	6:37 p	-25.5	-25.5	-25.6	---	---	19.1	ENE	0.32	20.0	-40.7	---	---	721.3	0.030	0.000	17.7	1	1
03/23/06	6:38 p	-25.5	-25.5	-25.5	---	---	17.4	ENE	0.29	19.1	-40.1	---	---	721.4	0.030	0.000	17.7	1	1
03/23/06	6:39 p	-25.5	-25.5	-25.6	---	---	13.9	ENE	0.23	15.7	-38.8	---	---	721.3	0.030	0.000	17.7	1	1
03/23/06	6:40 p	-25.5	-25.4	-25.5	---	---	16.5	ENE	0.28	17.4	-39.8	---	---	721.5	0.030	0.000	17.7	1	1
03/23/06	6:41 p	-25.4	-25.4	-25.5	---	---	15.7	NE	0.26	19.1	-39.4	---	---	721.4	0.030	0.000	17.7	1	1
03/23/06	6:42 p	-25.4	-25.4	-25.5	---	---	16.5	ENE	0.28	20.0	-39.7	---	---	721.4	0.030	0.000	17.7	1	1
03/23/06	6:43 p	-25.4	-25.4	-25.4	---	---	14.8	ENE	0.25	16.5	-39.1	---	---	721.4	0.030	0.000	17.7	1	1
03/23/06	6:44 p	-25.4	-25.4	-25.4	---	---	17.4	ENE	0.29	19.1	-40.0	---	---	721.4	0.030	0.000	17.7	1	1
03/23/06	6:45 p	-25.4	-25.4	-25.4	---	---	15.7	ENE	0.26	17.4	-39.3	---	---	721.4	0.030	0.000	17.7	1	1
03/23/06	6:46 p	-25.4	-25.4	-25.4	---	---	13.9	ENE	0.23	17.4	-38.6	---	---	721.4	0.030	0.000	17.7	1	1
03/23/06	6:47 p	-25.4	-25.4	-25.4	---	---	18.3	ENE	0.30	20.0	-40.2	---	---	721.4	0.030	0.000	17.7	1	1
03/23/06	6:48 p	-25.4	-25.4	-25.4	---	---	13.0	ENE	0.22	17.4	-38.2	---	---	721.4	0.030	0.000	17.7	1	1
03/23/06	6:49 p	-25.4	-25.4	-25.4	---	---	16.5	ENE	0.28	18.3	-39.6	---	---	721.3	0.030	0.000	17.7	1	1
03/23/06	6:50 p	-25.4	-25.4	-25.4	---	---	14.8	ENE	0.25	18.3	-38.9	---	---	721.4	0.030	0.000	17.7	1	1
03/23/06	6:51 p	-25.4	-25.4	-25.4	---	---	17.4	ENE	0.29	18.3	-39.9	---	---	721.4	0.030	0.000	17.7	1	1
03/23/06	6:52 p	-25.4	-25.3	-25.4	---	---	15.7	ENE	0.26	18.3	-39.3	---	---	721.5	0.030	0.000	17.7	1	1
03/23/06	6:53 p	-25.4	-25.4	-25.4	---	---	13.0	ENE	0.22	18.3	-38.2	---	---	721.3	0.030	0.000	17.7	1	1
03/23/06	6:54 p	-25.4	-25.3	-25.4	---	---	17.4	ENE	0.29	19.1	-39.9	---	---	721.4	0.030	0.000	17.7	1	1
03/23/06	6:55 p	-25.3	-25.3	-25.4	---	---	14.8	ENE	0.25	16.5	-38.9	---	---	721.4	0.030	0.000	17.7	1	1
03/23/06	6:56 p	-25.3	-25.3	-25.3	---	---	16.5	ENE	0.28	18.3	-39.6	---	---	721.4	0.030	0.000	17.8	1	1
03/23/06	6:57 p	-25.3	-25.3	-25.3	---	---	17.4	ENE	0.29	19.1	-39.8	---	---	721.5	0.030	0.000	17.8	1	1
03/23/06	6:58 p	-25.3	-25.3	-25.3	---	---	14.8	ENE	0.25	17.4	-38.9	---	---	721.5	0.030	0.000	17.8	1	1
03/23/06	6:59 p	-25.3	-25.3	-25.3	---	---	17.4	ENE	0.29	19.1	-39.8	---	---	721.5	0.030	0.000	17.9	1	1
03/23/06	7:00 p	-25.3	-25.3	-25.3	---	---	14.8	ENE	0.25	17.4	-38.9	---	---	721.6	0.030	0.000	17.9	1	1
03/23/06	7:01 p	-25.3	-25.3	-25.3	---	---	12.2	ENE	0.20	13.9	-37.8	---	---	721.5	0.030	0.000	17.9	1	1
03/23/06	7:02 p	-25.3	-25.3	-25.3	---	---	14.8	NE	0.25	16.5	-38.9	---	---	721.6	0.030	0.000	17.9	1	1
03/23/06	7:03 p	-25.3	-25.3	-25.3	---	---	14.8	NE	0.25	15.7	-38.9	---	---	721.5	0.030	0.000	18.0	1	1
03/23/06	7:04 p	-25.3	-25.3	-25.3	---	---	13.9	ENE	0.23	15.7	-38.6	---	---	721.5	0.030	0.000	18.0	1	1
03/23/06	7:05 p	-25.3	-25.3	-25.3	---	---	15.7	NE	0.26	16.5	-39.2	---	---	721.5	0.030	0.000	18.0	1	1
03/23/06	7:06 p	-25.3	-25.3	-25.3	---	---	13.0	ENE	0.22	16.5	-38.2	---	---	721.5	0.030	0.000	18.0	1	1
03/23/06	7:07 p	-25.3	-25.3	-25.3	---	---	14.8	ENE	0.25	16.5	-38.9	---	---	721.6	0.030	0.000	18.0	1	1
03/23/06	7:08 p	-25.3	-25.3	-25.3	---	---	13.9	NE	0.23	15.7	-38.6	---	---	721.6	0.030	0.000	18.0	1	1
03/23/06	7:09 p	-25.3	-25.3	-25.3	---	---	13.9	NE	0.23	16.5	-38.6	---	---	721.5	0.030	0.000	18.0	1	1
03/23/06	7:10 p	-25.3	-25.3	-25.3	---	---	15.7	NE	0.26	17.4	-39.2	---	---	721.6	0.030	0.000	17.9	1	1
03/23/06	7:11 p	-25.3	-25.3	-25.4	---	---	15.7	NE	0.26	18.3	-39.2	---	---	721.7	0.030	0.000	17.9	1	1
03/23/06	7:12 p	-25.3	-25.3	-25.3	---	---	17.4	ENE	0.29	18.3	-39.8	---	---	721.5	0.030	0.000	17.9	1	1
03/23/06	7:13 p	-25.3	-25.3	-25.4	---	---	13.9	ENE	0.23	16.5	-38.6	---	---	721.6	0.030	0.000	17.9	1	1
03/23/06	7:14 p	-25.3	-25.3	-25.3	---	---	14.8	ENE	0.25	16.5	-38.9	---	---	721.7	0.030	0.000	17.9	1	1
03/23/06	7:15 p	-25.3	-25.3	-25.4	---	---	13.0	NE	0.22	14.8	-38.2	---	---	721.6	0.030	0.000	17.9	1	1
03/23/06	7:16 p	-25.4	-25.4	-25.4	---	---	15.7	NE	0.26	17.4	-39.3	---	---	721.5	0.030	0.000	17.9	1	1
03/23/06	7:17 p	-25.3	-25.3	-25.4	---	---	13.9	NE	0.23	15.7	-38.6	---	---	721.7	0.030	0.000	17.9	1	1
03/23/06	7:18 p	-25.4	-25.3	-25.4	---	---	11.3	NE	0.19	15.7	-37.4	---	---	721.7	0.030	0.000	17.9	1	1
03/23/06	7:19 p	-25.4	-25.3	-25.4	---	---	15.7	NE	0.26	16.5	-39.3	---	---	721.7	0.030	0.000	17.9	1	1
03/23/06	7:20 p	-25.4	-25.4	-25.4	---	---	14.8	NE	0.25	15.7	-38.9	---	---	721.6	0.030	0.000	17.9	1	1
03/23/06	7:21 p	-25.4	-25.4	-25.4	---	---	15.7	NE	0.26	17.4	-39.3	---	---	721.7	0.030	0.000	17.9	1	1
03/23/06	7:22 p	-25.4	-25.4	-25.4	---	---	12.2	NE	0.20	13.9	-37.8	---	---	721.7	0.030	0.000	17.9	1	1
03/23/06	7:23 p	-25.4	-25.4	-25.4	---	---	14.8	NE	0.25	16.5	-38.9	---	---	721.7	0.030	0.000	17.9	1	1
03/23/06	7:24 p	-25.4	-25.4	-25.4	---	---	14.8	NE	0.25	15.7	-38.9	---	---	721.7	0.030	0.000	17.9	1	1
03/23/06	7:25 p	-25.4	-25.4	-25.4	---	---	13.9	NE	0.23	17.4	-38.7	---	---	721.6	0.030	0.000	17.9	1	1
03/23/06	7:26 p	-25.4	-25.4	-25.4	---	---	15.7	NE	0.26	16.5	-39.4	---	---	721.7	0.030	0.000	17.9	1	1
03/23/06	7:27 p	-25.4	-25.4	-25.5	---	---	13.9	NE	0.23	15.7	-38.7	---	---	721.7	0.030	0.000	17.8	1	1
03/23/06	7:28 p	-25.4	-25.4	-25.4	---	---	15.7	NE	0.26	16.5	-39.4	---	---	721.6	0.030	0.000	17.8	1	1
03/23/06	7:29 p	-25.4	-25.4	-25.5	---	---	15.7	NE	0.26	17.4	-39.4	---	---	721.6	0.030	0.000	17.8	1	1
03/23/06	7:30 p	-25.5	-25.4	-25.5	---	---	15.7	NE	0.26	16.5	-39.4	---	---	721.7	0.030	0.000	17.8	1	1
03/23/06	7:31 p	-25.5	-25.5	-25.5	---	---	13.9	NE	0.23	16.5	-38.8	---	---	721.6	0.030	0.000	17.8	1	1
03/23/06	7:32 p	-25.5	-25.4	-25.5	---	---	15.7	NE	0.26	16.5	-39.4	---	---	721.7	0.030	0.000	17.8	1	1
03/23/06	7:33 p	-25.5	-25.5	-25.6	---	---	13.0	NE	0.22	14.8	-38.4	---	---	721.5	0.030	0.000	17.8	1	1
03/23/06	7:34 p	-25.6	-25.5	-25.6	---	---	15.7	NE	0.26	17.4	-39.5	---	---	721.5	0.030	0.000	17.8	1	1
03/23/06	7:35 p	-25.6	-25.5	-25.6	---	---	13.9	NE	0.23	16.5	-38.8	---	---	721.7	0.030	0.000	17.8	1	1
03/23/06	7:36 p	-25.6	-25.6	-25.6	---	---	15.7	NE	0.26	17.4	-39.5	---	---	721.6	0.030	0.000	17.8	1	1
03/23/06	7:37 p	-25.6	-25.6	-25.6	---	---	14.8	NE	0.25	16.5	-39.2	---	---	721.7	0.030	0.000	17.8	1	1
03/23/06	7:38 p	-25.6	-25.6	-25.6	---	---	13.9	NE	0.23	14.8	-38.8	---	---	721.7	0.030	0.000	17.8	1	1
03/23/06	7:39 p	-25.6	-25.6	-25.6	---	---	13.0	NE	0.22	15.7	-38.4	---	---	721.7	0.030	0.000	17.8	1	1
03/23/06	7:40 p	-25.6	-25.6	-25.6	---	---	15.7	NE	0.26	16.5	-39.6	---	---	721.6	0.031	0.000	17.8	1	1
03/23/06	7:41 p	-25.6	-25.6	-25.6	---	---	13.9	NE	0.23	16.5	-38.9	---	---	721.7	0.031	0.000	17.8	1	1
03/23/06	7:42 p	-25.6	-25.6	-25.6	---	---	13.9	NE	0.23	16.5	-38.9	---	---	721.7	0.031	0.000	17.8	1	1
03/23/06	7:43 p	-25.6	-25.6	-25.6	---	---	16.5	NE	0.28	18.3	-39.9	---	---	721.6	0.031	0.000	17.8	1	1
03/23/06	7:44 p	-25.6	-25.6	-25.7	---	---	14.8	NE	0.25	15.7	-39.3	---	---	721.6	0.031	0.000	17.8	1	1
03/23/06	7:45 p	-25.7	-25.6	-25.7	---	---	15.7	NE	0.26	18.3	-39.7	---	---	721.6	0.031	0.000	17.8	1	1
03/23/06	7:46 p	-25.7	-25.7	-25.7	---	---	14.8	NE	0.25	17.4	-39.3	---	---	721.7	0.031	0.000	17.8	1	1
03/23/06	7:47 p	-25.7	-25.6	-25.7	---	---	14.8	ENE	0.25	16.5	-39.3	---	---	721.7	0.031	0.000	17.8	1	1
03/23/06	7:48 p	-25.7	-25.7	-25.7	---	---	15.7	NE	0.26	17.4	-39.7	---	---	721.6	0.031	0.000	17.8	1	1
03/23/06	7:49 p	-25.7	-25.7	-25.7	---	---	15.7	NE	0.26	19.1	-39.7	---	---	721.6	0.031	0.000	17.8	1	1
03/23/06	7:50 p	-25.7	-25.7	-25.7	---	---	16.5	NE	0.28	19.1	-40.0	---	---	721.7	0.031	0.000	17.8	1	1
03/23/06	7:51 p	-25.7	-25.7	-25.7	---	---	14.8	NE	0.25	16.5	-39.4	---	---	721.7	0.031	0.000	17.8	1	1
03/23/06	7:52 p	-25.7	-25.7	-25.7	---	---	15.7	NE	0.26	16.5	-39.7	---	---	721.8	0.031	0.000	17.8	1	1
03/23/06	7:53 p	-25.7	-25.7	-25.8	---	---	14.8	ENE	0.25	16.5	-39.4	---	---	721.7	0.031	0.000	17.8	1	1
03/23/06	7:54 p	-25.8	-25.7	-25.8	---	---	14.8	NE	0.25	17.4	-39.4	---	---	721.7	0.031	0.000	17.8	1	1
03/23/06	7:55 p	-25.8	-25.7	-25.8	---	---	14.8	NE	0.25	16.5	-39.4	---	---	721.7	0.031	0.000	17.8	1	1
03/23/06	7:56 p	-25.8	-25.7	-25.8	---	---	14.8	NE	0.25	16.5	-39.4	---	---	721.7	0.031	0.000	17.8	1	1
03/23/06	7:57 p	-25.8	-25.8	-25.8	---	---	14.8	NE	0.25	19.1	-39.4	---	---	721.7	0.031	0.000	17.8	1	1
03/23/06	7:58 p	-25.8	-25.8	-25.8	---	---	18.3	NE	0.30	19.1	-40.7	---	---	721.7	0.031	0.000	17.8	1	1
03/23/06	7:59 p	-25.8	-25.8	-25.8	---	---	13.9	NE	0.23	15.7	-39.1	---	---	721.7	0.031	0.000	17.8	1	1
03/23/06	8:00 p	-25.8	-25.8	-25.8	---	---	16.5	NE	0.28	18.3	-40.1	---	---	721.7	0.031	0.000	17.8	1	1
03/23/06	8:01 p	-25.8	-25.8	-25.8	---	---	16.5	NE	0.28	17.4	-40.1	---	---	721.8	0.031	0.000	17.8	1	1
03/23/06	8:02 p	-25.8	-25.8	-25.8	---	---	16.5	NE	0.28	19.1	-40.2	---	---	721.7	0.031	0.000	17.8	1	1
03/23/06	8:03 p	-25.8	-25.8	-25.8	---	---	18.3	ENE	0.30	20.0	-40.8	---	---	721.7	0.031	0.000	17.8	1	1
03/23/06	8:04 p	-25.8	-25.8	-25.8	---	---	13.9	NE	0.23	17.4	-39.2	---	---	721.8	0.031	0.000	17.8	1	1
03/23/06	8:05 p	-25.8	-25.8	-25.8	---	---	16.5	NE	0.28	18.3	-40.2	---	---	721.6	0.031	0.000	17.8	1	1
03/23/06	8:06 p	-25.8	-25.8	-25.9	---	---	16.5	NE	0.28	19.1	-40.2	---	---	721.7	0.031	0.000	17.8	1	1
03/23/06	8:07 p	-25.8	-25.8	-25.9	---	---	14.8	NE	0.25	19.1	-39.6	---	---	721.7	0.031	0.000	17.8	1	1
03/23/06	8:08 p	-25.8	-25.8	-25.8	---	---	16.5	NE	0.28	19.1	-40.2	---	---	721.8	0.031	0.000	17.8	1	1
03/23/06	8:09 p	-25.9	-25.8	-25.9	---	---	16.5	NE	0.28	17.4	-40.3	---	---	721.8	0.031	0.000	17.8	1	1
03/23/06	8:10 p	-25.9	-25.8	-25.9	---	---	13.9	NE	0.23	16.5	-39.3	---	---	721.9	0.031	0.000	17.8	1	1
03/23/06	8:11 p	-25.9	-25.8	-25.9	---	---	14.8	NE	0.25	16.5	-39.6	---	---	721.8	0.031	0.000	17.8	1	1
03/23/06	8:12 p	-25.9	-25.9	-25.9	---	---	16.5	NE	0.28	18.3	-40.3	---	---	721.8	0.031	0.000	17.8	1	1
03/23/06	8:13 p	-25.9	-25.9	-25.9	---	---	16.5	NE	0.28	18.3	-40.3	---	---	721.8	0.031	0.000	17.8	1	1
03/23/06	8:14 p	-25.9	-25.9	-25.9	---	---	16.5	NE	0.28	17.4	-40.3	---	---	721.9	0.031	0.000	17.8	1	1
03/23/06	8:15 p	-25.9	-25.9	-25.9	---	---	13.9	NE	0.23	15.7	-39.3	---	---	721.8	0.031	0.000	17.8	1	1
03/23/06	8:16 p	-25.9	-25.9	-25.9	---	---	17.4	NE	0.29	18.3	-40.7	---	---	721.7	0.031	0.000	17.8	1	1
03/23/06	8:17 p	-25.9	-25.9	-25.9	---	---	15.7	NE	0.26	18.3	-40.0	---	---	721.8	0.031	0.000	17.8	1	1
03/23/06	8:18 p	-25.9	-25.9	-26.0	---	---	16.5	NE	0.28	18.3	-40.3	---	---	721.7	0.031	0.000	17.8	1	1
03/23/06	8:19 p	-25.9	-25.9	-25.9	---	---	16.5	NE	0.28	18.3	-40.3	---	---	721.8	0.031	0.000	17.7	1	1
03/23/06	8:20 p	-25.9	-25.9	-25.9	---	---	14.8	NE	0.25	15.7	-39.7	---	---	721.8	0.031	0.000	17.7	1	1
03/23/06	8:21 p	-25.9	-25.9	-26.0	---	---	12.2	NE	0.20	14.8	-38.6	---	---	721.8	0.031	0.000	17.8	1	1
03/23/06	8:22 p	-25.9	-25.9	-26.0	---	---	16.5	NE	0.28	19.1	-40.3	---	---	721.8	0.031	0.000	17.8	1	1
03/23/06	8:23 p	-26.0	-25.9	-26.0	---	---	17.4	NE	0.29	18.3	-40.7	---	---	721.7	0.031	0.000	17.7	1	1
03/23/06	8:24 p	-26.0	-26.0	-26.0	---	---	17.4	NE	0.29	19.1	-40.7	---	---	721.8	0.031	0.000	17.7	1	1
03/23/06	8:25 p	-26.0	-26.0	-26.0	---	---	15.7	NE	0.26	16.5	-40.1	---	---	721.8	0.031	0.000	17.7	1	1
03/23/06	8:26 p	-26.0	-26.0	-26.1	---	---	14.8	NE	0.25	17.4	-39.8	---	---	721.8	0.031	0.000	17.8	1	1
03/23/06	8:27 p	-26.1	-26.1	-26.1	---	---	16.5	NE	0.28	18.3	-40.5	---	---	721.8	0.031	0.000	17.8	1	1
03/23/06	8:28 p	-26.1	-26.0	-26.1	---	---	15.7	NE	0.26	18.3	-40.2	---	---	721.8	0.031	0.000	17.8	1	1
03/23/06	8:29 p	-26.1	-26.1	-26.1	---	---	16.5	NE	0.28	17.4	-40.5	---	---	721.8	0.031	0.000	17.8	1	1
03/23/06	8:30 p	-26.1	-26.1	-26.1	---	---	15.7	NE	0.26	17.4	-40.2	---	---	721.9	0.031	0.000	17.8	1	1
03/23/06	8:31 p	-26.1	-26.1	-26.1	---	---	13.0	NE	0.22	14.8	-39.1	---	---	721.8	0.031	0.000	17.8	1	1
03/23/06	8:32 p	-26.1	-26.1	-26.1	---	---	16.5	NE	0.28	19.1	-40.5	---	---	721.9	0.031	0.000	17.8	1	1
03/23/06	8:33 p	-26.1	-26.1	-26.1	---	---	14.8	NE	0.25	17.4	-39.9	---	---	721.8	0.031	0.000	17.8	1	1
03/23/06	8:34 p	-26.1	-26.1	-26.2	---	---	14.8	NE	0.25	17.4	-39.9	---	---	721.8	0.031	0.000	17.7	1	1
03/23/06	8:35 p	-26.1	-26.1	-26.1	---	---	15.7	NE	0.26	17.4	-40.2	---	---	721.8	0.031	0.000	17.8	1	1
03/23/06	8:36 p	-26.1	-26.1	-26.2	---	---	15.7	NE	0.26	16.5	-40.2	---	---	721.8	0.031	0.000	17.8	1	1
03/23/06	8:37 p	-26.2	-26.1	-26.2	---	---	14.8	NE	0.25	16.5	-40.0	---	---	721.8	0.031	0.000	17.8	1	1
03/23/06	8:38 p	-26.2	-26.1	-26.2	---	---	15.7	NE	0.26	17.4	-40.3	---	---	721.8	0.031	0.000	17.8	1	1
03/23/06	8:48 p	-26.2	-26.2	-26.2	---	---	14.8	NE	0.25	16.5	-40.1	---	---	721.8	0.031	0.000	17.7	1	1
03/23/06	8:49 p	-26.2	-26.2	-26.2	---	---	13.9	NE	0.23	16.5	-39.7	---	---	721.8	0.031	0.000	17.7	1	1
03/23/06	8:50 p	-26.2	-26.2	-26.2	---	---	16.5	NE	0.28	18.3	-40.6	---	---	721.8	0.031	0.000	17.7	1	1
03/23/06	8:51 p	-26.2	-26.2	-26.2	---	---	14.8	NE	0.25	16.5	-40.0	---	---	721.9	0.031	0.000	17.7	1	1
03/23/06	8:52 p	-26.2	-26.2	-26.2	---	---	13.9	NE	0.23	17.4	-39.7	---	---	721.8	0.031	0.000	17.7	1	1
03/23/06	8:53 p	-26.2	-26.2	-26.2	---	---	14.8	NE	0.25	17.4	-40.1	---	---	722.0	0.031	0.000	17.7	1	1
03/23/06	8:54 p	-26.2	-26.2	-26.2	---	---	13.0	NE	0.22	15.7	-39.2	---	---	721.8	0.031	0.000	17.7	1	1
03/23/06	8:55 p	-26.2	-26.2	-26.2	---	---	14.8	NE	0.25	17.4	-40.0	---	---	721.9	0.031	0.000	17.7	1	1
03/23/06	8:56 p	-26.2	-26.2	-26.2	---	---	15.7	NE	0.26	17.4	-40.3	---	---	721.8	0.031	0.000	17.7	1	1
03/23/06	8:57 p	-26.2	-26.2	-26.2	---	---	13.9	NE	0.23	15.7	-39.6	---	---	721.9	0.031	0.000	17.7	1	1
03/23/06	8:58 p	-26.2	-26.1	-26.2	---	---	14.8	NE	0.25	16.5	-40.0	---	---	721.8	0.031	0.000	17.7	1	1
03/23/06	8:59 p	-26.2	-26.1	-26.2	---	---	13.9	NE	0.23	15.7	-39.6	---	---	721.9	0.031	0.000	17.7	1	1
03/23/06	9:00 p	-26.2	-26.1	-26.2	---	---	15.7	NE	0.26	16.5	-40.3	---	---	721.9	0.031	0.000	17.7	1	1
03/23/06	9:01 p	-26.1	-26.1	-26.1	---	---	15.7	NE	0.26	17.4	-40.2	---	---	721.9	0.031	0.000	17.7	1	1
03/23/06	9:02 p	-26.1	-26.1	-26.1	---	---	14.8	NE	0.25	16.5	-39.9	---	---	721.9	0.031	0.000	17.7	1	1
03/23/06	9:03 p	-26.1	-26.1	-26.2	---	---	13.9	NE	0.23	16.5	-39.6	---	---	721.8	0.031	0.000	17.7	1	1
03/23/06	9:04 p	-26.1	-26.1	-26.1	---	---	13.9	NE	0.23	16.5	-39.6	---	---	722.0	0.031	0.000	17.7	1	1
03/23/06	9:05 p	-26.1	-26.1	-26.1	---	---	13.0	NE	0.22	14.8	-39.1	---	---	721.9	0.031	0.000	17.7	1	1
03/23/06	9:06 p	-26.1	-26.1	-26.1	---	---	13.0	NE	0.22	14.8	-39.1	---	---	721.9	0.031	0.000	17.7	1	1
03/23/06	9:07 p	-26.1	-26.1	-26.1	---	---	13.0	NE	0.22	13.9	-39.1	---	---	722.0	0.031	0.000	17.7	1	1
03/23/06	9:08 p	-26.1	-26.0	-26.1	---	---	14.8	NE	0.25	16.5	-39.8	---	---	722.0	0.031	0.000	17.7	1	1
03/23/06	9:09 p	-26.1	-26.0	-26.1	---	---	13.0	NE	0.22	15.7	-39.1	---	---	722.0	0.031	0.000	17.7	1	1
03/23/06	9:10 p	-26.0	-26.0	-26.0	---	---	15.7	NE	0.26	17.4	-40.1	---	---	722.0	0.031	0.000	17.7	1	1
03/23/06	9:11 p	-26.0	-26.0	-26.0	---	---	11.3	NE	0.19	15.7	-38.2	---	---	722.0	0.031	0.000	17.7	1	1
03/23/06	9:12 p	-26.0	-25.9	-26.0	---	---	14.8	NE	0.25	15.7	-39.8	---	---	722.0	0.031	0.000	17.7	1	1
03/23/06	9:13 p	-25.9	-25.9	-26.0	---	---	12.2	NE	0.20	13.9	-38.6	---	---	722.1	0.031	0.000	17.7	1	1
03/23/06	9:14 p	-25.9	-25.9	-25.9	---	---	13.0	NE	0.22	13.9	-38.9	---	---	722.0	0.031	0.000	17.7	1	1
03/23/06	9:15 p	-25.9	-25.9	-25.9	---	---	12.2	NE	0.20	14.8	-38.6	---	---	722.0	0.031	0.000	17.7	1	1
03/23/06	9:16 p	-25.9	-25.9	-25.9	---	---	13.0	NE	0.22	14.8	-38.9	---	---	722.0	0.031	0.000	17.8	1	1
03/23/06	9:17 p	-25.9	-25.9	-25.9	---	---	12.2	NE	0.20	13.9	-38.5	---	---	722.0	0.031	0.000	17.8	1	1
03/23/06	9:18 p	-25.8	-25.8	-25.9	---	---	13.9	NE	0.23	15.7	-39.2	---	---	722.0	0.031	0.000	17.8	1	1
03/23/06	9:19 p	-25.8	-25.8	-25.9	---	---	13.0	NE	0.22	14.8	-38.8	---	---	722.0	0.031	0.000	17.8	1	1
03/23/06	9:20 p	-25.8	-25.8	-25.8	---	---	13.0	NE	0.22	14.8	-38.8	---	---	722.1	0.031	0.000	17.8	1	1
03/23/06	9:21 p	-25.8	-25.8	-25.8	---	---	13.0	NE	0.22	14.8	-38.8	---	---	722.0	0.031	0.000	17.8	1	1
03/23/06	9:22 p	-25.8	-25.8	-25.8	---	---	9.6	NE	0.16	12.2	-37.0	---	---	722.0	0.031	0.000	17.8	1	1
03/23/06	9:23 p	-25.8	-25.8	-25.8	---	---	13.0	NE	0.22	15.7	-38.7	---	---	722.0	0.031	0.000	17.8	1	1
03/23/06	9:24 p	-25.8	-25.8	-25.8	---	---	13.0	NE	0.22	13.9	-38.7	---	---	722.0	0.031	0.000	17.8	1	1
03/23/06	9:25 p	-25.8	-25.7	-25.8	---	---	13.0	NE	0.22	14.8	-38.7	---	---	722.0	0.031	0.000	17.9	1	1
03/23/06	9:26 p	-25.7	-25.7	-25.7	---	---	13.0	NE	0.22	14.8	-38.7	---	---	722.1	0.031	0.000	17.9	1	1
03/23/06	9:27 p	-25.7	-25.7	-25.7	---	---	13.9	NE	0.23	15.7	-39.1	---	---	722.0	0.031	0.000	17.9	1	1
03/23/06	9:28 p	-25.7	-25.7	-25.7	---	---	12.2	NE	0.20	14.8	-38.3	---	---	722.1	0.031	0.000	17.9	1	1
03/23/06	9:29 p	-25.7	-25.7	-25.7	---	---	13.9	NE	0.23	16.5	-39.0	---	---	722.0	0.031	0.000	17.9	1	1
03/23/06	9:30 p	-25.7	-25.6	-25.7	---	---	12.2	NE	0.20	14.8	-38.2	---	---	722.1	0.031	0.000	18.0	1	1
03/23/06	9:31 p	-25.7	-25.7	-25.7	---	---	14.8	NE	0.25	15.7	-39.3	---	---	722.1	0.031	0.000	18.0	1	1
03/23/06	9:32 p	-25.7	-25.6	-25.7	---	---	13.0	NE	0.22	14.8	-38.6	---	---	722.0	0.031	0.000	18.0	1	1
03/23/06	9:33 p	-25.6	-25.6	-25.6	---	---	12.2	NE	0.20	14.8	-38.2	---	---	722.0	0.031	0.000	18.0	1	1
03/23/06	9:34 p	-25.6	-25.6	-25.6	---	---	13.0	NE	0.22	14.8	-38.6	---	---	722.1	0.031	0.000	18.0	1	1
03/23/06	9:35 p	-25.6	-25.6	-25.6	---	---	12.2	NE	0.20	14.8	-38.2	---	---	722.1	0.031	0.000	18.0	1	1
03/23/06	9:36 p	-25.6	-25.6	-25.6	---	---	12.2	NE	0.20	13.9	-38.1	---	---	722.1	0.030	0.000	18.0	1	1
03/23/06	9:37 p	-25.6	-25.5	-25.6	---	---	13.0	NE	0.22	14.8	-38.4	---	---	722.1	0.030	0.000	18.0	1	1
03/23/06	9:38 p	-25.6	-25.5	-25.6	---	---	13.9	NE	0.23	15.7	-38.8	---	---	722.1	0.030	0.000	18.0	1	1
03/23/06	9:39 p	-25.5	-25.5	-25.6	---	---	13.0	NE	0.22	14.8	-38.4	---	---	722.1	0.030	0.000	18.0	1	1
03/23/06	9:40 p	-25.5	-25.5	-25.6	---	---	13.9	NE	0.23	14.8	-38.8	---	---	722.1	0.030	0.000	18.0	1	1
03/23/06	9:41 p	-25.5	-25.5	-25.6	---	---	12.2	NE	0.20	13.9	-38.0	---	---	722.0	0.030	0.000	18.0	1	1
03/23/06	9:42 p	-25.5	-25.5	-25.5	---	---	13.0	NE	0.22	13.9	-38.4	---	---	722.1	0.030	0.000	18.1	1	1
03/23/06	9:43 p	-25.5	-25.5	-25.5	---	---	12.2	NE	0.20	13.0	-38.0	---	---	722.1	0.030	0.000	18.1	1	1
03/23/06	9:44 p	-25.4	-25.4	-25.5	---	---	13.0	NE	0.22	13.9	-38.3	---	---	722.1	0.030	0.000	18.1	1	1
03/23/06	9:45 p	-25.4	-25.4	-25.4	---	---	13.0	NE	0.22	13.9	-38.3	---	---	722.1	0.030	0.000	18.0	1	1
03/23/06	9:46 p	-25.4	-25.4	-25.4	---	---	13.9	NE	0.23	15.7	-38.6	---	---	722.1	0.030	0.000	18.0	1	1
03/23/06	9:47 p	-25.4	-25.4	-25.4	---	---	13.0	NE	0.22	14.8	-38.2	---	---	722.1	0.030	0.000	18.0	1	1
03/23/06	9:48 p	-25.4	-25.4	-25.4	---	---	12.2	NE	0.20	13.9	-37.8	---	---	722.2	0.030	0.000	18.0	1	1
03/23/06	9:49 p	-25.4	-25.3	-25.4	---	---	14.8	NE	0.25	15.7	-38.9	---	---	722.1	0.030	0.000	18.0	1	1
03/23/06	9:50 p	-25.4	-25.3	-25.4	---	---	11.3	NE	0.19	13.0	-37.4	---	---	722.1	0.030	0.000	18.0	1	1
03/23/06	9:51 p	-25.3	-25.3	-25.4	---	---	12.2	NE	0.20	14.8	-37.8	---	---	722.1	0.030	0.000	18.1	1	1
03/23/06	9:52 p	-25.3	-25.3	-25.3	---	---	13.0	NE	0.22	13.9	-38.2	---	---	722.2	0.030	0.000	18.1	1	1
03/23/06	9:53 p	-25.3	-25.3	-25.3	---	---	11.3	NE	0.19	12.2	-37.4	---	---	722.1	0.030	0.000	18.1	1	1
03/23/06	9:54 p	-25.3	-25.3	-25.3	---	---	13.0	NE	0.22	14.8	-38.2	---	---	722.1	0.030	0.000	18.1	1	1
03/23/06	9:55 p	-25.3	-25.2	-25.3	---	---	13.0	NE	0.22	13.9	-38.1	---	---	722.1	0.030	0.000	18.1	1	1
03/23/06	9:56 p	-25.3	-25.2	-25.3	---	---	13.9	NE	0.23	15.7	-38.5	---	---	722.2	0.030	0.000	18.1	1	1
03/23/06	9:57 p	-25.2	-25.2	-25.2	---	---	12.2	NE	0.20	13.9	-37.7	---	---	722.1	0.030	0.000	18.1	1	1
03/23/06	9:58 p	-25.2	-25.2	-25.2	---	---	12.2	NE	0.20	13.9	-37.7	---	---	722.1	0.030	0.000	18.1	1	1
03/23/06	9:59 p	-25.2	-25.2	-25.2	---	---	12.2	NE	0.20	13.9	-37.7	---	---	722.2	0.030	0.000	18.0	1	1
03/23/06	10:00 p	-25.2	-25.2	-25.2	---	---	12.2	NE	0.20	13.9	-37.7	---	---	722.1	0.030	0.000	18.0	1	1
03/23/06	10:01 p	-25.2	-25.2	-25.2	---	---	12.2	NE	0.20	13.9	-37.6	---	---	722.2	0.030	0.000	18.0	1	1
03/23/06	10:02 p	-25.2	-25.2	-25.2	---	---	12.2	NE	0.20	13.0	-37.6	---	---	722.2	0.030	0.000	18.0	1	1
03/23/06	10:03 p	-25.2	-25.1	-25.2	---	---	12.2	NE	0.20	13.9	-37.6	---	---	722.3	0.030	0.000	18.0	1	1
03/23/06	10:04 p	-25.1	-25.1	-25.1	---	---	11.3	NE	0.19	13.0	-37.1	---	---	722.2	0.030	0.000	18.0	2	1
03/23/06	10:05 p	-25.1	-25.1	-25.1	---	---	11.3	NE	0.19	13.9	-37.0	---	---	722.2	0.030	0.000	18.0	2	1
03/23/06	10:06 p	-25.1	-25.0	-25.1	---	---	12.2	NE	0.20	13.0	-37.4	---	---	722.2	0.030	0.000	18.0	2	1
03/23/06	10:07 p	-25.0	-24.9	-25.0	---	---	12.2	NE	0.20	13.0	-37.3	---	---	722.3	0.030	0.000	18.0	2	1
03/23/06	10:08 p	-25.0	-24.9	-25.0	---	---	12.2	NE	0.20	13.9	-37.3	---	---	722.3	0.030	0.000	18.0	2	1
03/23/06	10:09 p	-24.9	-24.9	-24.9	---	---	12.2	NE	0.20	13.9	-37.3	---	---	722.3	0.030	0.000	18.0	2	1
03/23/06	10:10 p	-24.9	-24.9	-24.9	---	---	12.2	NE	0.20	13.0	-37.3	---	---	722.2	0.030	0.000	18.0	2	1
03/23/06	10:11 p	-24.9	-24.9	-24.9	---	---	10.4	NE	0.17	13.0	-36.4	---	---	722.2	0.030	0.000	18.0	2	1
03/23/06	10:12 p	-24.9	-24.8	-24.9	---	---	12.2	NE	0.20	13.9	-37.2	---	---	722.3	0.030	0.000	18.0	2	1
03/23/06	10:13 p	-24.9	-24.8	-24.9	---	---	11.3	NE	0.19	13.0	-36.8	---	---	722.3	0.030	0.000	18.0	2	1
03/23/06	10:14 p	-24.8	-24.8	-24.9	---	---	11.3	NE	0.19	13.0	-36.7	---	---	722.3	0.030	0.000	18.0	2	1
03/23/06	10:15 p	-24.8	-24.8	-24.8	---	---	11.3	NE	0.19	12.2	-36.7	---	---	722.2	0.030	0.000	18.0	2	1
03/23/06	10:16 p	-24.8	-24.8	-24.8	---	---	11.3	NE	0.19	13.0	-36.7	---	---	722.2	0.030	0.000	18.0	2	1
03/23/06	10:17 p	-24.7	-24.7	-24.8	---	---	10.4	NE	0.17	12.2	-36.2	---	---	722.2	0.030	0.000	18.0	2	1
03/23/06	10:18 p	-24.7	-24.7	-24.7	---	---	10.4	NE	0.17	12.2	-36.1	---	---	722.3	0.030	0.000	18.0	2	1
03/23/06	10:19 p	-24.6	-24.6	-24.7	---	---	10.4	NE	0.17	12.2	-36.0	---	---	722.2	0.030	0.000	18.0	2	1
03/23/06	10:20 p	-24.6	-24.6	-24.6	---	---	9.6	NE	0.16	11.3	-35.5	---	---	722.3	0.030	0.000	18.1	2	1
03/23/06	10:21 p	-24.6	-24.6	-24.6	---	---	11.3	NE	0.19	11.3	-36.4	---	---	722.2	0.030	0.000	18.1	2	1
03/23/06	10:22 p	-24.5	-24.5	-24.6	---	---	10.4	NE	0.17	11.3	-35.9	---	---	722.3	0.030	0.000	18.1	2	1
03/23/06	10:23 p	-24.5	-24.4	-24.5	---	---	9.6	NE	0.16	10.4	-35.4	---	---	722.2	0.030	0.000	18.1	2	1
03/23/06	10:24 p	-24.4	-24.4	-24.4	---	---	10.4	NE	0.17	10.4	-35.8	---	---	722.2	0.030	0.000	18.1	2	1
03/23/06	10:25 p	-24.4	-24.3	-24.4	---	---	8.7	NE	0.14	9.6	-34.8	---	---	722.4	0.030	0.000	18.1	2	1
03/23/06	10:26 p	-24.3	-24.3	-24.3	---	---	9.6	NE	0.16	11.3	-35.2	---	---	722.3	0.030	0.000	18.1	2	1
03/23/06	10:27 p	-24.3	-24.3	-24.3	---	---	10.4	NE	0.17	11.3	-35.7	---	---	722.3	0.030	0.000	18.1	2	1
03/23/06	10:28 p	-24.3	-24.3	-24.3	---	---	11.3	NE	0.19	12.2	-36.1	---	---	722.3	0.030	0.000	18.1	2	1
03/23/06	10:29 p	-24.3	-24.2	-24.3	---	---	11.3	NE	0.19	12.2	-36.1	---	---	722.4	0.030	0.000	18.1	2	1
03/23/06	10:30 p	-24.2	-24.2	-24.2	---	---	10.4	NE	0.17	11.3	-35.6	---	---	722.4	0.030	0.000	18.1	2	1
03/23/06	10:31 p	-24.2	-24.2	-24.2	---	---	9.6	NE	0.16	11.3	-35.0	---	---	722.3	0.030	0.000	18.1	2	1
03/23/06	10:32 p	-24.1	-24.1	-24.2	---	---	10.4	NE	0.17	11.3	-35.4	---	---	722.4	0.029	0.000	18.1	2	1
03/23/06	10:33 p	-24.1	-24.1	-24.1	---	---	9.6	NE	0.16	10.4	-34.9	---	---	722.3	0.029	0.000	18.1	2	1
03/23/06	10:34 p	-24.1	-24.0	-24.1	---	---	10.4	NE	0.17	11.3	-35.3	---	---	722.4	0.029	0.000	18.1	2	1
03/23/06	10:35 p	-24.0	-23.9	-24.0	---	---	9.6	NE	0.16	11.3	-34.8	---	---	722.3	0.029	0.000	18.1	2	1
03/23/06	10:36 p	-23.9	-23.9	-23.9	---	---	10.4	NE	0.17	11.3	-35.2	---	---	722.4	0.029	0.000	18.1	3	1
03/23/06	10:37 p	-23.9	-23.9	-23.9	---	---	11.3	NE	0.19	12.2	-35.6	---	---	722.4	0.029	0.000	18.1	2	1
03/23/06	10:38 p	-23.9	-23.9	-23.9	---	---	10.4	NE	0.17	11.3	-35.1	---	---	722.4	0.029	0.000	18.1	3	1
03/23/06	10:39 p	-23.8	-23.8	-23.9	---	---	10.4	NE	0.17	12.2	-35.1	---	---	722.4	0.029	0.000	18.1	3	1
03/23/06	10:40 p	-23.8	-23.8	-23.8	---	---	10.4	NE	0.17	11.3	-35.1	---	---	722.3	0.029	0.000	18.2	3	1
03/23/06	10:41 p	-23.8	-23.7	-23.8	---	---	10.4	NE	0.17	11.3	-34.9	---	---	722.4	0.029	0.000	18.2	3	1
03/23/06	10:42 p	-23.7	-23.7	-23.8	---	---	10.4	NE	0.17	11.3	-34.9	---	---	722.4	0.029	0.000	18.2	3	1
03/23/06	10:43 p	-23.7	-23.7	-23.7	---	---	10.4	NE	0.17	11.3	-34.8	---	---	722.4	0.029	0.000	18.2	3	1
03/23/06	10:44 p	-23.7	-23.6	-23.7	---	---	10.4	NE	0.17	11.3	-34.8	---	---	722.4	0.029	0.000	18.2	3	1
03/23/06	10:45 p	-23.6	-23.6	-23.6	---	---	10.4	NE	0.17	12.2	-34.8	---	---	722.5	0.029	0.000	18.2	3	1
03/23/06	10:46 p	-23.6	-23.6	-23.6	---	---	11.3	NE	0.19	12.2	-35.1	---	---	722.4	0.029	0.000	18.2	3	1
03/23/06	10:47 p	-23.5	-23.5	-23.5	---	---	10.4	NE	0.17	12.2	-34.6	---	---	722.4	0.029	0.000	18.2	3	1
03/23/06	10:48 p	-23.4	-23.4	-23.4	---	---	9.6	NE	0.16	11.3	-34.1	---	---	722.4	0.029	0.000	18.2	3	1
03/23/06	10:49 p	-23.4	-23.3	-23.4	---	---	9.6	NE	0.16	10.4	-34.0	---	---	722.4	0.029	0.000	18.2	3	1
03/23/06	10:50 p	-23.3	-23.2	-23.3	---	---	9.6	NE	0.16	10.4	-33.9	---	---	722.4	0.029	0.000	18.2	3	1
03/23/06	10:51 p	-23.2	-23.2	-23.2	---	---	10.4	NE	0.17	11.3	-34.3	---	---	722.4	0.029	0.000	18.2	3	1
03/23/06	10:52 p	-23.2	-23.1	-23.2	---	---	10.4	NE	0.17	12.2	-34.2	---	---	722.5	0.029	0.000	18.1	3	1
03/23/06	10:53 p	-23.1	-23.1	-23.1	---	---	11.3	NE	0.19	13.0	-34.6	---	---	722.4	0.029	0.000	18.1	3	1
03/23/06	10:54 p	-23.0	-23.0	-23.1	---	---	11.3	NE	0.19	13.0	-34.4	---	---	722.5	0.029	0.000	18.1	3	1
03/23/06	10:55 p	-23.0	-23.0	-23.0	---	---	11.3	NE	0.19	12.2	-34.4	---	---	722.6	0.029	0.000	18.1	3	1
03/23/06	10:56 p	-23.0	-22.9	-23.0	---	---	11.3	NE	0.19	13.0	-34.4	---	---	722.5	0.029	0.000	18.0	3	1
03/23/06	10:57 p	-22.9	-22.9	-22.9	---	---	10.4	NE	0.17	12.2	-33.9	---	---	722.5	0.029	0.000	18.0	3	1
03/23/06	10:58 p	-22.9	-22.8	-22.9	---	---	10.4	NE	0.17	12.2	-33.8	---	---	722.4	0.029	0.000	18.0	3	1
03/23/06	10:59 p	-22.8	-22.8	-22.8	---	---	11.3	NE	0.19	12.2	-34.2	---	---	722.3	0.029	0.000	18.0	3	1
03/23/06	11:00 p	-22.8	-22.8	-22.8	---	---	11.3	NE	0.19	13.0	-34.1	---	---	722.5	0.029	0.000	18.0	3	1
03/23/06	11:01 p	-22.7	-22.7	-22.7	---	---	11.3	NE	0.19	13.0	-34.1	---	---	722.4	0.029	0.000	18.0	3	1
03/23/06	11:02 p	-22.7	-22.7	-22.7	---	---	10.4	NE	0.17	11.3	-33.6	---	---	722.4	0.028	0.000	18.0	3	1
03/23/06	11:03 p	-22.7	-22.6	-22.7	---	---	9.6	NE	0.16	10.4	-33.1	---	---	722.5	0.028	0.000	18.0	3	1
03/23/06	11:04 p	-22.6	-22.6	-22.6	---	---	9.6	NE	0.16	11.3	-33.0	---	---	722.5	0.028	0.000	18.0	3	1
03/23/06	11:05 p	-22.5	-22.5	-22.6	---	---	9.6	ENE	0.16	11.3	-32.9	---	---	722.5	0.028	0.000	18.0	3	1
03/23/06	11:06 p	-22.4	-22.4	-22.5	---	---	10.4	NE	0.17	12.2	-33.3	---	---	722.4	0.028	0.000	18.0	3	1
03/23/06	11:07 p	-22.4	-22.3	-22.4	---	---	9.6	ENE	0.16	11.3	-32.8	---	---	722.5	0.028	0.000	18.1	3	1
03/23/06	11:08 p	-22.3	-22.3	-22.3	---	---	9.6	ENE	0.16	10.4	-32.7	---	---	722.5	0.028	0.000	18.1	3	1
03/23/06	11:09 p	-22.2	-22.2	-22.3	---	---	9.6	ENE	0.16	11.3	-32.6	---	---	722.5	0.028	0.000	18.1	3	1
03/23/06	11:10 p	-22.1	-22.1	-22.2	---	---	10.4	ENE	0.17	12.2	-32.9	---	---	722.5	0.028	0.000	18.1	3	1
03/23/06	11:11 p	-22.1	-22.0	-22.1	---	---	11.3	NE	0.19	12.2	-33.2	---	---	722.5	0.028	0.000	18.1	3	1
03/23/06	11:12 p	-22.0	-21.9	-22.0	---	---	12.2	NE	0.20	12.2	-33.6	---	---	722.5	0.028	0.000	18.1	3	1
03/23/06	11:13 p	-21.9	-21.8	-21.9	---	---	12.2	ENE	0.20	13.0	-33.4	---	---	722.4	0.028	0.000	18.1	3	1
03/23/06	11:14 p	-21.8	-21.8	-21.8	---	---	11.3	ENE	0.19	12.2	-32.9	---	---	722.5	0.028	0.000	18.1	3	1
03/23/06	11:15 p	-21.8	-21.7	-21.8	---	---	11.3	ENE	0.19	12.2	-32.9	---	---	722.5	0.028	0.000	18.1	3	1
03/23/06	11:16 p	-21.7	-21.7	-21.7	---	---	11.3	ENE	0.19	12.2	-32.8	---	---	722.4	0.028	0.000	18.1	2	1
03/23/06	11:17 p	-21.7	-21.6	-21.7	---	---	11.3	ENE	0.19	12.2	-32.7	---	---	722.5	0.028	0.000	18.1	2	1
03/23/06	11:18 p	-21.6	-21.6	-21.6	---	---	10.4	ENE	0.17	12.2	-32.2	---	---	722.5	0.028	0.000	18.1	3	1
03/23/06	11:19 p	-21.6	-21.5	-21.6	---	---	10.4	ENE	0.17	12.2	-32.2	---	---	722.5	0.028	0.000	18.1	2	1
03/23/06	11:20 p	-21.4	-21.4	-21.5	---	---	10.4	ENE	0.17	12.2	-32.1	---	---	722.5	0.028	0.000	18.1	2	1
03/23/06	11:21 p	-21.4	-21.4	-21.4	---	---	10.4	ENE	0.17	12.2	-31.9	---	---	722.5	0.028	0.000	18.1	2	1
03/23/06	11:22 p	-21.3	-21.3	-21.3	---	---	9.6	ENE	0.16	11.3	-31.4	---	---	722.4	0.028	0.000	18.1	2	1
03/23/06	11:23 p	-21.3	-21.2	-21.3	---	---	12.2	ENE	0.20	13.9	-32.6	---	---	722.5	0.028	0.000	18.1	2	1
03/23/06	11:24 p	-21.2	-21.2	-21.2	---	---	11.3	ENE	0.19	13.0	-32.2	---	---	722.5	0.027	0.000	18.1	2	1
03/23/06	11:25 p	-21.2	-21.2	-21.2	---	---	8.7	ENE	0.14	9.6	-30.8	---	---	722.5	0.027	0.000	18.1	2	1
03/23/06	11:26 p	-21.1	-21.1	-21.1	---	---	10.4	ENE	0.17	13.0	-31.6	---	---	722.4	0.027	0.000	18.1	2	1
03/23/06	11:27 p	-21.1	-21.0	-21.1	---	---	10.4	ENE	0.17	13.0	-31.6	---	---	722.5	0.027	0.000	18.1	2	1
03/23/06	11:28 p	-20.9	-20.9	-21.0	---	---	11.3	ENE	0.19	13.0	-31.8	---	---	722.4	0.027	0.000	18.1	2	1
03/23/06	11:29 p	-20.9	-20.8	-20.9	---	---	12.2	ENE	0.20	13.9	-32.1	---	---	722.4	0.027	0.000	18.1	2	1
03/23/06	11:30 p	-20.8	-20.8	-20.8	---	---	12.2	ENE	0.20	13.9	-32.1	---	---	722.4	0.027	0.000	18.1	2	1
03/23/06	11:31 p	-20.8	-20.7	-20.8	---	---	12.2	ENE	0.20	13.9	-32.0	---	---	722.5	0.027	0.000	18.1	2	1
03/23/06	11:32 p	-20.7	-20.7	-20.7	---	---	12.2	ENE	0.20	13.9	-31.8	---	---	722.4	0.027	0.000	18.1	2	1
03/23/06	11:33 p	-20.7	-20.6	-20.7	---	---	13.0	ENE	0.22	14.8	-32.2	---	---	722.5	0.027	0.000	18.1	2	1
03/23/06	11:34 p	-20.6	-20.6	-20.6	---	---	12.2	ENE	0.20	13.0	-31.7	---	---	722.5	0.027	0.000	18.1	2	1
03/23/06	11:35 p	-20.6	-20.5	-20.6	---	---	10.4	ENE	0.17	13.0	-30.9	---	---	722.5	0.027	0.000	18.1	2	1
03/23/06	11:36 p	-20.4	-20.4	-20.5	---	---	9.6	ENE	0.16	13.0	-30.3	---	---	722.4	0.027	0.000	18.1	2	1
03/23/06	11:37 p	-20.4	-20.4	-20.4	---	---	10.4	ENE	0.17	13.0	-30.7	---	---	722.5	0.027	0.000	18.1	2	1
03/23/06	11:38 p	-20.3	-20.3	-20.4	---	---	12.2	ENE	0.20	13.0	-31.4	---	---	722.5	0.027	0.000	18.1	2	1
03/23/06	11:39 p	-20.3	-20.2	-20.3	---	---	12.2	NE	0.20	13.0	-31.3	---	---	722.5	0.027	0.000	18.1	2	1
03/23/06	11:40 p	-20.2	-20.2	-20.2	---	---	12.2	NE	0.20	12.2	-31.3	---	---	722.5	0.027	0.000	18.1	2	1
03/23/06	11:41 p	-20.2	-20.2	-20.2	---	---	11.3	NE	0.19	12.2	-30.9	---	---	722.5	0.027	0.000	18.1	2	1
03/23/06	11:42 p	-20.2	-20.1	-20.2	---	---	10.4	NE	0.17	11.3	-30.4	---	---	722.6	0.027	0.000	18.1	2	1
03/23/06	11:43 p	-20.1	-20.1	-20.1	---	---	10.4	NE	0.17	11.3	-30.3	---	---	722.5	0.027	0.000	18.1	2	1
03/23/06	11:44 p	-20.1	-20.0	-20.1	---	---	10.4	NE	0.17	11.3	-30.3	---	---	722.5	0.027	0.000	18.1	2	1
03/23/06	11:45 p	-20.0	-20.0	-20.0	---	---	10.4	NE	0.17	11.3	-30.2	---	---	722.5	0.027	0.000	18.1	2	1
03/23/06	11:46 p	-19.9	-19.9	-20.0	---	---	10.4	NE	0.17	12.2	-30.2	---	---	722.5	0.027	0.000	18.1	2	1
03/23/06	11:47 p	-19.9	-19.9	-19.9	---	---	11.3	NE	0.19	13.0	-30.6	---	---	722.5	0.027	0.000	18.1	2	1
03/23/06	11:48 p	-19.9	-19.9	-19.9	---	---	12.2	NE	0.20	13.9	-30.8	---	---	722.5	0.027	0.000	18.1	2	1
03/23/06	11:49 p	-19.8	-19.8	-19.9	---	---	12.2	NE	0.20	13.0	-30.8	---	---	722.5	0.027	0.000	18.1	2	1
03/23/06	11:50 p	-19.8	-19.8	-19.8	---	---	12.2	NE	0.20	13.0	-30.8	---	---	722.5	0.027	0.000	18.1	2	1
03/23/06	11:51 p	-19.8	-19.8	-19.8	---	---	12.2	NE	0.20	13.0	-30.8	---	---	722.5	0.027	0.000	18.1	2	1
03/23/06	11:52 p	-19.8	-19.8	-19.8	---	---	11.3	NE	0.19	12.2	-30.3	---	---	722.6	0.026	0.000	18.1	2	1
03/23/06	11:53 p	-19.8	-19.7	-19.8	---	---	11.3	NE	0.19	13.0	-30.3	---	---	722.6	0.026	0.000	18.1	2	1
03/23/06	11:54 p	-19.7	-19.7	-19.7	---	---	11.3	NE	0.19	12.2	-30.3	---	---	722.6	0.026	0.000	18.1	2	1
03/23/06	11:55 p	-19.7	-19.7	-19.7	---	---	11.3	NE	0.19	12.2	-30.2	---	---	722.5	0.026	0.000	18.1	2	1
03/23/06	11:56 p	-19.7	-19.6	-19.7	---	---	11.3	NE	0.19	13.0	-30.2	---	---	722.5	0.026	0.000	18.1	2	1
03/23/06	11:57 p	-19.6	-19.6	-19.6	---	---	12.2	NE	0.20	13.0	-30.5	---	---	722.6	0.026	0.000	18.1	2	1
03/23/06	11:58 p	-19.6	-19.6	-19.6	---	---	12.2	NE	0.20	13.0	-30.5	---	---	722.5	0.026	0.000	18.1	2	1
03/23/06	11:59 p	-19.6	-19.6	-19.6	---	---	11.3	NE	0.19	13.0	-30.1	---	---	722.6	0.026	0.000	18.1	2	1
03/24/06	12:00 a	-19.6	-19.6	-19.6	---	---	11.3	NE	0.19	12.2	-30.1	---	---	722.6	0.026	0.000	18.1	2	1
03/24/06	12:01 a	-19.6	-19.6	-19.6	---	---	12.2	NE	0.20	13.9	-30.4	---	---	722.6	0.026	0.000	18.1	2	1
03/24/06	12:02 a	-19.6	-19.6	-19.6	---	---	11.3	NE	0.19	13.0	-30.1	---	---	722.6	0.026	0.000	18.1	2	1
03/24/06	12:03 a	-19.6	-19.6	-19.6	---	---	11.3	NE	0.19	13.9	-30.1	---	---	722.5	0.026	0.000	18.1	2	1
03/24/06	12:04 a	-19.6	-19.6	-19.6	---	---	12.2	ENE	0.20	13.9	-30.4	---	---	722.6	0.026	0.000	18.1	2	1
03/24/06	12:05 a	-19.6	-19.6	-19.6	---	---	13.0	ENE	0.22	13.9	-30.8	---	---	722.5	0.026	0.000	18.1	2	1
03/24/06	12:06 a	-19.6	-19.6	-19.6	---	---	12.2	NE	0.20	13.0	-30.4	---	---	722.7	0.026	0.000	18.1	2	1
03/24/06	12:07 a	-19.6	-19.6	-19.6	---	---	10.4	NE	0.17	12.2	-29.7	---	---	722.6	0.026	0.000	18.1	2	1
03/24/06	12:08 a	-19.6	-19.6	-19.6	---	---	12.2	NE	0.20	13.9	-30.5	---	---	722.7	0.026	0.000	18.1	2	1
03/24/06	12:09 a	-19.6	-19.6	-19.6	---	---	11.3	NE	0.19	13.9	-30.1	---	---	722.7	0.026	0.000	18.1	2	1
03/24/06	12:10 a	-19.6	-19.6	-19.6	---	---	11.3	NE	0.19	13.9	-30.1	---	---	722.6	0.026	0.000	18.1	2	1
03/24/06	12:11 a	-19.6	-19.6	-19.6	---	---	12.2	NE	0.20	13.9	-30.5	---	---	722.7	0.026	0.000	18.1	2	1
03/24/06	12:12 a	-19.6	-19.6	-19.6	---	---	11.3	NE	0.19	13.0	-30.1	---	---	722.7	0.026	0.000	18.1	2	1
03/24/06	12:13 a	-19.6	-19.6	-19.6	---	---	11.3	NE	0.19	13.9	-30.1	---	---	722.6	0.026	0.000	18.1	2	1
03/24/06	12:14 a	-19.7	-19.7	-19.7	---	---	11.3	NE	0.19	13.0	-30.2	---	---	722.6	0.026	0.000	18.1	2	1
03/24/06	12:15 a	-19.7	-19.7	-19.7	---	---	13.0	NE	0.22	13.9	-30.9	---	---	722.7	0.026	0.000	18.1	2	1
03/24/06	12:16 a	-19.7	-19.7	-19.7	---	---	13.0	NE	0.22	13.0	-30.9	---	---	722.6	0.026	0.000	18.1	2	1
03/24/06	12:17 a	-19.7	-19.7	-19.7	---	---	13.0	NE	0.22	13.9	-31.0	---	---	722.7	0.026	0.000	18.1	2	1
03/24/06	12:18 a	-19.7	-19.7	-19.7	---	---	13.0	NE	0.22	13.0	-31.0	---	---	722.7	0.026	0.000	18.1	2	1
03/24/06	12:19 a	-19.7	-19.7	-19.7	---	---	12.2	NE	0.20	13.0	-30.7	---	---	722.7	0.026	0.000	18.1	2	1
03/24/06	12:20 a	-19.7	-19.7	-19.8	---	---	12.2	NE	0.20	13.0	-30.7	---	---	722.7	0.026	0.000	18.1	2	1
03/24/06	12:21 a	-19.8	-19.8	-19.8	---	---	11.3	NE	0.19	12.2	-30.3	---	---	722.7	0.026	0.000	18.1	2	1
03/24/06	12:22 a	-19.8	-19.8	-19.8	---	---	12.2	NE	0.20	14.8	-30.7	---	---	722.8	0.026	0.000	18.2	2	1
03/24/06	12:23 a	-19.8	-19.8	-19.8	---	---	12.2	NE	0.20	13.9	-30.8	---	---	722.7	0.027	0.000	18.2	2	1
03/24/06	12:24 a	-19.8	-19.8	-19.9	---	---	11.3	NE	0.19	13.0	-30.4	---	---	722.7	0.027	0.000	18.2	2	1
03/24/06	12:25 a	-19.9	-19.9	-19.9	---	---	11.3	NE	0.19	13.0	-30.5	---	---	722.7	0.027	0.000	18.2	2	1
03/24/06	12:26 a	-19.9	-19.9	-19.9	---	---	11.3	NE	0.19	12.2	-30.6	---	---	722.7	0.027	0.000	18.2	2	1
03/24/06	12:27 a	-20.0	-19.9	-20.0	---	---	11.3	ENE	0.19	13.0	-30.6	---	---	722.7	0.027	0.000	18.2	2	1
03/24/06	12:28 a	-20.0	-20.0	-20.1	---	---	13.0	NE	0.22	14.8	-31.3	---	---	722.7	0.027	0.000	18.2	2	1
03/24/06	12:29 a	-20.1	-20.1	-20.1	---	---	12.2	NE	0.20	13.0	-31.1	---	---	722.7	0.027	0.000	18.2	2	1
03/24/06	12:30 a	-20.2	-20.1	-20.2	---	---	11.3	NE	0.19	13.0	-30.8	---	---	722.8	0.027	0.000	18.2	2	1
03/24/06	12:31 a	-20.2	-20.2	-20.2	---	---	11.3	NE	0.19	12.2	-30.8	---	---	722.8	0.027	0.000	18.2	2	1
03/24/06	12:32 a	-20.2	-20.2	-20.3	---	---	12.2	NE	0.20	13.9	-31.3	---	---	722.6	0.027	0.000	18.2	2	1
03/24/06	12:33 a	-20.3	-20.3	-20.3	---	---	13.0	NE	0.22	14.8	-31.7	---	---	722.7	0.027	0.000	18.2	1	1
03/24/06	12:34 a	-20.3	-20.3	-20.4	---	---	12.2	NE	0.20	13.9	-31.4	---	---	722.7	0.027	0.000	18.2	2	1
03/24/06	12:35 a	-20.4	-20.4	-20.4	---	---	13.0	NE	0.22	14.8	-31.8	---	---	722.7	0.027	0.000	18.2	1	1
03/24/06	12:36 a	-20.4	-20.4	-20.4	---	---	13.0	NE	0.22	13.9	-31.9	---	---	722.7	0.027	0.000	18.2	1	1
03/24/06	12:37 a	-20.5	-20.5	-20.6	---	---	10.4	NE	0.17	12.2	-30.8	---	---	722.7	0.027	0.000	18.2	1	1
03/24/06	12:38 a	-20.6	-20.6	-20.6	---	---	11.3	NE	0.19	13.0	-31.3	---	---	722.6	0.027	0.000	18.2	1	1
03/24/06	12:39 a	-20.6	-20.6	-20.6	---	---	11.3	NE	0.19	12.2	-31.4	---	---	722.7	0.027	0.000	18.2	2	1
03/24/06	12:40 a	-20.7	-20.6	-20.7	---	---	11.3	NE	0.19	12.2	-31.4	---	---	722.6	0.027	0.000	18.2	1	1
03/24/06	12:41 a	-20.7	-20.7	-20.7	---	---	11.3	NE	0.19	13.0	-31.6	---	---	722.7	0.027	0.000	18.2	1	1
03/24/06	12:42 a	-20.8	-20.7	-20.8	---	---	13.9	ENE	0.23	14.8	-32.7	---	---	722.6	0.027	0.000	18.2	2	1
03/24/06	12:43 a	-20.8	-20.8	-20.8	---	---	12.2	ENE	0.20	13.9	-32.1	---	---	722.7	0.027	0.000	18.2	1	1
03/24/06	12:44 a	-20.9	-20.8	-20.9	---	---	13.0	ENE	0.22	13.9	-32.5	---	---	722.7	0.027	0.000	18.2	1	1
03/24/06	12:45 a	-20.9	-20.9	-20.9	---	---	13.0	ENE	0.22	14.8	-32.5	---	---	722.7	0.027	0.000	18.2	1	1
03/24/06	12:46 a	-20.9	-20.9	-21.0	---	---	13.9	ENE	0.23	13.9	-32.9	---	---	722.7	0.027	0.000	18.2	1	1
03/24/06	12:47 a	-21.0	-21.0	-21.1	---	---	13.0	NE	0.22	14.8	-32.6	---	---	722.7	0.027	0.000	18.2	1	1
03/24/06	12:48 a	-21.1	-21.1	-21.1	---	---	13.9	NE	0.23	14.8	-33.1	---	---	722.7	0.027	0.000	18.2	1	1
03/24/06	12:49 a	-21.1	-21.1	-21.1	---	---	12.2	ENE	0.20	14.8	-32.4	---	---	722.7	0.027	0.000	18.2	1	1
03/24/06	12:50 a	-21.1	-21.1	-21.2	---	---	10.4	NE	0.17	11.3	-31.6	---	---	722.7	0.027	0.000	18.2	1	1
03/24/06	12:51 a	-21.2	-21.2	-21.2	---	---	10.4	NE	0.17	11.3	-31.7	---	---	722.6	0.027	0.000	18.2	1	1
03/24/06	12:52 a	-21.2	-21.2	-21.3	---	---	10.4	NE	0.17	13.0	-31.8	---	---	722.7	0.027	0.000	18.2	1	1
03/24/06	12:53 a	-21.3	-21.3	-21.3	---	---	13.9	NE	0.23	13.9	-33.3	---	---	722.7	0.028	0.000	18.2	1	1
03/24/06	12:54 a	-21.3	-21.3	-21.3	---	---	13.0	NE	0.22	13.9	-33.1	---	---	722.7	0.028	0.000	18.2	1	1
03/24/06	12:55 a	-21.4	-21.3	-21.4	---	---	12.2	NE	0.20	13.0	-32.8	---	---	722.7	0.028	0.000	18.2	1	1
03/24/06	12:56 a	-21.4	-21.4	-21.4	---	---	13.0	NE	0.22	13.9	-33.1	---	---	722.7	0.028	0.000	18.2	1	1
03/24/06	12:57 a	-21.4	-21.4	-21.4	---	---	13.9	NE	0.23	14.8	-33.6	---	---	722.7	0.028	0.000	18.2	1	1
03/24/06	12:58 a	-21.5	-21.5	-21.5	---	---	13.0	NE	0.22	14.8	-33.3	---	---	722.7	0.028	0.000	18.2	1	1
03/24/06	12:59 a	-21.5	-21.5	-21.5	---	---	13.9	NE	0.23	14.8	-33.6	---	---	722.7	0.028	0.000	18.2	1	1
03/24/06	1:00 a	-21.6	-21.6	-21.6	---	---	14.8	NE	0.25	14.8	-34.0	---	---	722.7	0.028	0.000	18.2	1	1
03/24/06	1:01 a	-21.6	-21.6	-21.6	---	---	13.9	NE	0.23	14.8	-33.8	---	---	722.7	0.028	0.000	18.2	1	1
03/24/06	1:02 a	-21.6	-21.6	-21.7	---	---	13.0	ENE	0.22	13.9	-33.4	---	---	722.7	0.028	0.000	18.2	1	1
03/24/06	1:03 a	-21.7	-21.7	-21.7	---	---	13.0	ENE	0.22	13.9	-33.5	---	---	722.7	0.028	0.000	18.2	1	1
03/24/06	1:04 a	-21.7	-21.7	-21.7	---	---	13.0	ENE	0.22	13.9	-33.5	---	---	722.8	0.028	0.000	18.2	1	1
03/24/06	1:05 a	-21.7	-21.7	-21.7	---	---	13.0	ENE	0.22	13.9	-33.5	---	---	722.7	0.028	0.000	18.2	1	1
03/24/06	1:06 a	-21.7	-21.7	-21.7	---	---	13.9	ENE	0.23	14.8	-33.9	---	---	722.7	0.028	0.000	18.2	1	1
03/24/06	1:07 a	-21.7	-21.7	-21.8	---	---	13.9	ENE	0.23	14.8	-33.9	---	---	722.7	0.028	0.000	18.2	1	1
03/24/06	1:08 a	-21.8	-21.8	-21.8	---	---	11.3	NE	0.19	13.0	-32.9	---	---	722.8	0.028	0.000	18.2	1	1
03/24/06	1:09 a	-21.8	-21.8	-21.8	---	---	13.0	ENE	0.22	14.8	-33.6	---	---	722.7	0.028	0.000	18.2	1	1
03/24/06	1:10 a	-21.8	-21.8	-21.8	---	---	13.9	ENE	0.23	14.8	-33.9	---	---	722.8	0.028	0.000	18.2	1	1
03/24/06	1:11 a	-21.8	-21.8	-21.8	---	---	11.3	ENE	0.19	13.0	-32.9	---	---	722.8	0.028	0.000	18.2	1	1
03/24/06	1:12 a	-21.8	-21.8	-21.8	---	---	11.3	ENE	0.19	13.0	-32.9	---	---	722.8	0.028	0.000	18.2	1	1
03/24/06	1:13 a	-21.8	-21.8	-21.9	---	---	13.0	ENE	0.22	14.8	-33.7	---	---	722.8	0.028	0.000	18.2	1	1
03/24/06	1:14 a	-21.9	-21.8	-21.9	---	---	13.9	ENE	0.23	15.7	-34.1	---	---	722.8	0.028	0.000	18.2	1	1
03/24/06	1:15 a	-21.9	-21.9	-21.9	---	---	13.0	ENE	0.22	13.9	-33.8	---	---	722.8	0.028	0.000	18.2	1	1
03/24/06	1:16 a	-21.9	-21.9	-21.9	---	---	13.0	ENE	0.22	14.8	-33.8	---	---	722.8	0.028	0.000	18.2	1	1
03/24/06	1:17 a	-21.9	-21.9	-21.9	---	---	13.0	ENE	0.22	14.8	-33.8	---	---	722.8	0.028	0.000	18.2	1	1
03/24/06	1:18 a	-21.9	-21.9	-21.9	---	---	13.0	ENE	0.22	13.0	-33.8	---	---	722.8	0.028	0.000	18.2	1	1
03/24/06	1:19 a	-21.9	-21.9	-21.9	---	---	13.9	ENE	0.23	15.7	-34.2	---	---	722.8	0.028	0.000	18.2	1	1
03/24/06	1:20 a	-21.9	-21.9	-21.9	---	---	13.9	ENE	0.23	15.7	-34.2	---	---	722.8	0.028	0.000	18.2	1	1
03/24/06	1:21 a	-21.9	-21.9	-22.0	---	---	12.2	NE	0.20	13.9	-33.4	---	---	722.8	0.028	0.000	18.2	1	1
03/24/06	1:22 a	-22.0	-21.9	-22.0	---	---	14.8	ENE	0.25	15.7	-34.6	---	---	722.7	0.028	0.000	18.2	1	1
03/24/06	1:23 a	-22.0	-22.0	-22.0	---	---	13.9	ENE	0.23	15.7	-34.3	---	---	722.8	0.028	0.000	18.2	1	1
03/24/06	1:24 a	-22.0	-22.0	-22.0	---	---	13.0	ENE	0.22	13.9	-33.9	---	---	722.7	0.028	0.000	18.2	1	1
03/24/06	1:25 a	-22.1	-22.0	-22.1	---	---	13.9	ENE	0.23	14.8	-34.3	---	---	722.8	0.028	0.000	18.2	1	1
03/24/06	1:26 a	-22.1	-22.0	-22.1	---	---	12.2	NE	0.20	13.9	-33.6	---	---	722.8	0.028	0.000	18.2	1	1
03/24/06	1:27 a	-22.1	-22.1	-22.1	---	---	11.3	NE	0.19	13.9	-33.2	---	---	722.8	0.028	0.000	18.2	1	1
03/24/06	1:28 a	-22.1	-22.1	-22.1	---	---	15.7	NE	0.26	17.4	-34.9	---	---	722.7	0.028	0.000	18.2	1	1
03/24/06	1:29 a	-22.1	-22.1	-22.1	---	---	18.3	NE	0.30	19.1	-35.9	---	---	722.6	0.028	0.000	18.2	1	1
03/24/06	1:30 a	-22.1	-22.1	-22.1	---	---	15.7	ENE	0.26	17.4	-35.1	---	---	722.9	0.028	0.000	18.2	1	1
03/24/06	1:31 a	-22.1	-22.1	-22.1	---	---	13.0	NE	0.22	13.9	-34.1	---	---	722.9	0.028	0.000	18.2	1	1
03/24/06	1:32 a	-22.1	-22.1	-22.1	---	---	13.0	NE	0.22	14.8	-34.1	---	---	722.9	0.028	0.000	18.2	1	1
03/24/06	1:33 a	-22.1	-22.1	-22.1	---	---	13.0	NE	0.22	13.9	-34.1	---	---	722.9	0.028	0.000	18.2	1	1
03/24/06	1:34 a	-22.1	-22.1	-22.1	---	---	13.0	NE	0.22	14.8	-34.1	---	---	722.8	0.028	0.000	18.2	1	1
03/24/06	1:35 a	-22.2	-22.1	-22.2	---	---	14.8	NE	0.25	16.5	-34.8	---	---	722.9	0.028	0.000	18.2	1	1
03/24/06	1:36 a	-22.2	-22.2	-22.2	---	---	15.7	NE	0.26	16.5	-35.1	---	---	722.8	0.028	0.000	18.2	1	1
03/24/06	1:37 a	-22.2	-22.2	-22.2	---	---	15.7	NE	0.26	16.5	-35.1	---	---	722.8	0.028	0.000	18.2	1	1
03/24/06	1:38 a	-22.2	-22.2	-22.2	---	---	15.7	NE	0.26	16.5	-35.2	---	---	722.9	0.028	0.000	18.2	1	1
03/24/06	1:39 a	-22.2	-22.2	-22.2	---	---	14.8	NE	0.25	16.5	-34.9	---	---	722.9	0.028	0.000	18.2	1	1
03/24/06	1:40 a	-22.2	-22.2	-22.2	---	---	15.7	NE	0.26	16.5	-35.2	---	---	722.9	0.028	0.000	18.2	1	1
03/24/06	1:41 a	-22.3	-22.3	-22.3	---	---	14.8	NE	0.25	15.7	-34.9	---	---	722.9	0.028	0.000	18.2	1	1
03/24/06	1:42 a	-22.3	-22.3	-22.3	---	---	13.0	NE	0.22	14.8	-34.3	---	---	722.9	0.028	0.000	18.2	1	1
03/24/06	1:43 a	-22.3	-22.3	-22.3	---	---	14.8	NE	0.25	15.7	-34.9	---	---	722.8	0.028	0.000	18.2	1	1
03/24/06	1:44 a	-22.3	-22.3	-22.3	---	---	14.8	ENE	0.25	16.5	-35.0	---	---	723.0	0.028	0.000	18.2	1	1
03/24/06	1:45 a	-22.3	-22.3	-22.3	---	---	8.7	NE	0.14	14.8	-32.2	---	---	722.9	0.028	0.000	18.2	1	1
03/24/06	1:46 a	-22.3	-22.3	-22.3	---	---	14.8	ENE	0.25	18.3	-35.0	---	---	722.9	0.028	0.000	18.2	1	1
03/24/06	1:47 a	-22.3	-22.3	-22.3	---	---	17.4	ENE	0.29	19.1	-35.9	---	---	722.9	0.028	0.000	18.2	1	1
03/24/06	1:48 a	-22.3	-22.3	-22.3	---	---	16.5	ENE	0.28	17.4	-35.6	---	---	722.9	0.028	0.000	18.2	1	1
03/24/06	1:49 a	-22.3	-22.3	-22.4	---	---	14.8	ENE	0.25	15.7	-35.0	---	---	723.0	0.028	0.000	18.2	1	1
03/24/06	1:50 a	-22.4	-22.4	-22.4	---	---	13.0	ENE	0.22	13.9	-34.4	---	---	723.0	0.028	0.000	18.2	1	1
03/24/06	1:51 a	-22.4	-22.4	-22.4	---	---	9.6	ENE	0.16	11.3	-32.8	---	---	723.0	0.028	0.000	18.2	1	1
03/24/06	1:52 a	-22.4	-22.4	-22.4	---	---	4.3	ENE	0.07	9.6	-29.0	---	---	723.0	0.028	0.000	18.2	1	1
03/24/06	1:53 a	-22.4	-22.4	-22.4	---	---	15.7	NE	0.26	18.3	-35.4	---	---	722.7	0.028	0.000	18.2	1	1
03/24/06	1:54 a	-22.4	-22.4	-22.4	---	---	16.5	ENE	0.28	17.4	-35.7	---	---	722.8	0.028	0.000	18.2	1	1
03/24/06	1:55 a	-22.4	-22.4	-22.4	---	---	16.5	NE	0.28	17.4	-35.7	---	---	722.9	0.028	0.000	18.2	1	1
03/24/06	1:56 a	-22.4	-22.4	-22.4	---	---	15.7	NE	0.26	17.4	-35.5	---	---	723.0	0.028	0.000	18.2	1	1
03/24/06	1:57 a	-22.4	-22.4	-22.4	---	---	13.9	NE	0.23	14.8	-34.8	---	---	723.0	0.028	0.000	18.2	1	1
03/24/06	1:58 a	-22.4	-22.4	-22.4	---	---	13.9	NE	0.23	14.8	-34.8	---	---	723.0	0.028	0.000	18.2	1	1
03/24/06	1:59 a	-22.4	-22.4	-22.4	---	---	14.8	NE	0.25	15.7	-35.2	---	---	722.9	0.028	0.000	18.3	1	1
03/24/06	2:00 a	-22.4	-22.4	-22.5	---	---	13.9	NE	0.23	14.8	-34.8	---	---	722.9	0.028	0.000	18.3	1	1
03/24/06	2:01 a	-22.5	-22.5	-22.5	---	---	13.0	NE	0.22	14.8	-34.6	---	---	723.0	0.028	0.000	18.2	1	1
03/24/06	2:02 a	-22.5	-22.5	-22.5	---	---	14.8	NE	0.25	16.5	-35.2	---	---	722.9	0.028	0.000	18.2	1	1
03/24/06	2:03 a	-22.5	-22.5	-22.6	---	---	16.5	NE	0.28	17.4	-35.8	---	---	722.9	0.028	0.000	18.3	1	1
03/24/06	2:04 a	-22.6	-22.6	-22.6	---	---	14.8	NE	0.25	16.5	-35.3	---	---	722.9	0.028	0.000	18.3	1	1
03/24/06	2:05 a	-22.6	-22.6	-22.6	---	---	12.2	NE	0.20	13.9	-34.2	---	---	723.0	0.028	0.000	18.3	1	1
03/24/06	2:06 a	-22.6	-22.6	-22.6	---	---	13.9	NE	0.23	16.5	-34.9	---	---	723.0	0.028	0.000	18.3	1	1
03/24/06	2:07 a	-22.6	-22.6	-22.6	---	---	17.4	NE	0.29	18.3	-36.2	---	---	722.9	0.028	0.000	18.3	1	1
03/24/06	2:08 a	-22.6	-22.6	-22.6	---	---	17.4	NE	0.29	18.3	-36.3	---	---	722.9	0.028	0.000	18.3	1	1
03/24/06	2:09 a	-22.7	-22.6	-22.7	---	---	15.7	NE	0.26	17.4	-35.8	---	---	723.0	0.028	0.000	18.3	1	1
03/24/06	2:10 a	-22.7	-22.7	-22.7	---	---	13.9	NE	0.23	15.7	-35.1	---	---	722.9	0.028	0.000	18.3	1	1
03/24/06	2:11 a	-22.7	-22.7	-22.7	---	---	12.2	NE	0.20	13.9	-34.4	---	---	723.1	0.028	0.000	18.3	1	1
03/24/06	2:12 a	-22.7	-22.7	-22.8	---	---	13.9	NE	0.23	15.7	-35.2	---	---	723.0	0.029	0.000	18.3	1	1
03/24/06	2:13 a	-22.7	-22.7	-22.7	---	---	13.9	NE	0.23	15.7	-35.2	---	---	722.9	0.029	0.000	18.3	1	1
03/24/06	2:14 a	-22.8	-22.8	-22.8	---	---	15.7	NE	0.26	16.5	-35.9	---	---	723.0	0.029	0.000	18.3	1	1
03/24/06	2:15 a	-22.8	-22.8	-22.8	---	---	14.8	NE	0.25	15.7	-35.6	---	---	723.0	0.029	0.000	18.3	1	1
03/24/06	2:16 a	-22.8	-22.8	-22.8	---	---	14.8	NE	0.25	17.4	-35.7	---	---	722.9	0.029	0.000	18.3	1	1
03/24/06	2:17 a	-22.8	-22.8	-22.9	---	---	16.5	NE	0.28	17.4	-36.3	---	---	723.0	0.029	0.000	18.3	1	1
03/24/06	2:18 a	-22.9	-22.8	-22.9	---	---	14.8	NE	0.25	15.7	-35.7	---	---	723.0	0.029	0.000	18.3	1	1
03/24/06	2:19 a	-22.9	-22.9	-22.9	---	---	12.2	NE	0.20	14.8	-34.7	---	---	723.1	0.029	0.000	18.3	1	1
03/24/06	2:20 a	-22.9	-22.9	-22.9	---	---	13.9	ENE	0.23	14.8	-35.4	---	---	723.1	0.029	0.000	18.3	1	1
03/24/06	2:21 a	-22.9	-22.9	-23.0	---	---	13.9	ENE	0.23	14.8	-35.4	---	---	723.0	0.029	0.000	18.3	1	1
03/24/06	2:22 a	-22.9	-22.9	-23.0	---	---	12.2	NE	0.20	13.9	-34.7	---	---	723.1	0.029	0.000	18.3	1	1
03/24/06	2:23 a	-23.0	-23.0	-23.0	---	---	10.4	NE	0.17	13.0	-34.0	---	---	723.1	0.029	0.000	18.3	1	1
03/24/06	2:24 a	-23.1	-23.0	-23.1	---	---	13.9	NE	0.23	15.7	-35.6	---	---	723.0	0.029	0.000	18.3	1	1
03/24/06	2:25 a	-23.1	-23.0	-23.1	---	---	14.8	NE	0.25	15.7	-35.9	---	---	723.0	0.029	0.000	18.3	1	1
03/24/06	2:26 a	-23.1	-23.1	-23.1	---	---	13.9	NE	0.23	14.8	-35.6	---	---	723.0	0.029	0.000	18.3	1	1
03/24/06	2:27 a	-23.1	-23.1	-23.1	---	---	12.2	NE	0.20	14.8	-34.9	---	---	723.1	0.029	0.000	18.3	1	1
03/24/06	2:28 a	-23.1	-23.1	-23.1	---	---	12.2	NE	0.20	13.9	-34.9	---	---	723.1	0.029	0.000	18.3	1	1
03/24/06	2:29 a	-23.1	-23.1	-23.1	---	---	16.5	NE	0.28	18.3	-36.7	---	---	722.9	0.029	0.000	18.3	1	1
03/24/06	2:30 a	-23.2	-23.2	-23.2	---	---	16.5	NE	0.28	17.4	-36.7	---	---	723.0	0.029	0.000	18.3	1	1
03/24/06	2:31 a	-23.2	-23.2	-23.2	---	---	13.9	NE	0.23	14.8	-35.8	---	---	723.1	0.029	0.000	18.3	1	1
03/24/06	2:32 a	-23.2	-23.2	-23.2	---	---	12.2	NE	0.20	13.0	-35.1	---	---	723.1	0.029	0.000	18.3	1	1
03/24/06	2:33 a	-23.2	-23.2	-23.2	---	---	12.2	NE	0.20	13.9	-35.1	---	---	723.1	0.029	0.000	18.3	1	1
03/24/06	2:34 a	-23.2	-23.2	-23.2	---	---	13.9	NE	0.23	15.7	-35.8	---	---	723.1	0.029	0.000	18.3	1	1
03/24/06	2:35 a	-23.3	-23.2	-23.3	---	---	15.7	NE	0.26	17.4	-36.6	---	---	723.0	0.029	0.000	18.3	1	1
03/24/06	2:36 a	-23.3	-23.3	-23.3	---	---	16.5	NE	0.28	17.4	-36.9	---	---	723.0	0.029	0.000	18.3	1	1
03/24/06	2:37 a	-23.3	-23.3	-23.3	---	---	14.8	NE	0.25	15.7	-36.3	---	---	723.1	0.029	0.000	18.3	1	1
03/24/06	2:38 a	-23.3	-23.3	-23.3	---	---	13.9	NE	0.23	15.7	-35.9	---	---	723.1	0.029	0.000	18.3	1	1
03/24/06	2:39 a	-23.3	-23.3	-23.4	---	---	14.8	NE	0.25	15.7	-36.3	---	---	723.1	0.029	0.000	18.3	1	1
03/24/06	2:40 a	-23.4	-23.4	-23.4	---	---	16.5	NE	0.28	17.4	-37.0	---	---	723.0	0.029	0.000	18.3	1	1
03/24/06	2:41 a	-23.4	-23.4	-23.4	---	---	15.7	NE	0.26	17.4	-36.7	---	---	723.0	0.029	0.000	18.3	1	1
03/24/06	2:42 a	-23.4	-23.4	-23.4	---	---	16.5	NE	0.28	18.3	-37.1	---	---	723.1	0.029	0.000	18.3	1	1
03/24/06	2:43 a	-23.4	-23.4	-23.4	---	---	15.7	NE	0.26	17.4	-36.8	---	---	723.2	0.029	0.000	18.3	1	1
03/24/06	2:44 a	-23.4	-23.4	-23.4	---	---	13.0	NE	0.22	14.8	-35.8	---	---	723.1	0.029	0.000	18.3	1	1
03/24/06	2:45 a	-23.4	-23.4	-23.5	---	---	13.9	NE	0.23	15.7	-36.1	---	---	723.2	0.029	0.000	18.3	1	1
03/24/06	2:46 a	-23.5	-23.4	-23.5	---	---	13.9	NE	0.23	14.8	-36.2	---	---	723.1	0.029	0.000	18.3	1	1
03/24/06	2:47 a	-23.5	-23.5	-23.5	---	---	13.9	NE	0.23	14.8	-36.2	---	---	723.1	0.029	0.000	18.3	1	1
03/24/06	2:48 a	-23.5	-23.5	-23.6	---	---	11.3	NE	0.19	13.0	-35.1	---	---	723.0	0.029	0.000	18.4	1	1
03/24/06	2:49 a	-23.6	-23.6	-23.6	---	---	14.8	NE	0.25	16.5	-36.6	---	---	723.1	0.029	0.000	18.4	1	1
03/24/06	2:50 a	-23.6	-23.6	-23.6	---	---	15.7	NE	0.26	16.5	-36.9	---	---	723.2	0.029	0.000	18.4	1	1
03/24/06	2:51 a	-23.6	-23.6	-23.6	---	---	12.2	NE	0.20	15.7	-35.5	---	---	723.2	0.029	0.000	18.4	1	1
03/24/06	2:52 a	-23.6	-23.6	-23.6	---	---	14.8	NE	0.25	16.5	-36.7	---	---	723.1	0.029	0.000	18.4	1	1
03/24/06	2:53 a	-23.6	-23.6	-23.6	---	---	15.7	ENE	0.26	16.5	-36.9	---	---	723.1	0.029	0.000	18.4	1	1
03/24/06	2:54 a	-23.6	-23.6	-23.6	---	---	13.9	NE	0.23	14.8	-36.3	---	---	723.1	0.029	0.000	18.4	1	1
03/24/06	2:55 a	-23.6	-23.6	-23.6	---	---	13.9	NE	0.23	14.8	-36.3	---	---	723.1	0.029	0.000	18.4	1	1
03/24/06	2:56 a	-23.6	-23.6	-23.6	---	---	13.9	NE	0.23	14.8	-36.3	---	---	723.1	0.029	0.000	18.4	1	1
03/24/06	2:57 a	-23.6	-23.6	-23.6	---	---	14.8	NE	0.25	14.8	-36.7	---	---	723.1	0.029	0.000	18.4	1	1
03/24/06	2:58 a	-23.6	-23.6	-23.6	---	---	13.0	NE	0.22	13.9	-35.9	---	---	723.2	0.029	0.000	18.4	1	1
03/24/06	2:59 a	-23.6	-23.6	-23.6	---	---	12.2	NE	0.20	13.9	-35.6	---	---	723.3	0.029	0.000	18.4	1	1
03/24/06	3:00 a	-23.6	-23.6	-23.6	---	---	14.8	NE	0.25	15.7	-36.7	---	---	723.1	0.029	0.000	18.4	1	1
03/24/06	3:01 a	-23.6	-23.6	-23.6	---	---	14.8	NE	0.25	14.8	-36.7	---	---	723.2	0.029	0.000	18.4	1	1
03/24/06	3:02 a	-23.6	-23.6	-23.6	---	---	13.9	NE	0.23	14.8	-36.3	---	---	723.2	0.029	0.000	18.4	1	1
03/24/06	3:03 a	-23.6	-23.6	-23.6	---	---	13.9	NE	0.23	14.8	-36.3	---	---	723.3	0.029	0.000	18.3	1	1
03/24/06	3:04 a	-23.6	-23.6	-23.6	---	---	11.3	NE	0.19	13.9	-35.2	---	---	723.2	0.029	0.000	18.3	1	1
03/24/06	3:05 a	-23.6	-23.6	-23.6	---	---	13.0	ENE	0.22	13.9	-35.9	---	---	723.3	0.029	0.000	18.3	1	1
03/24/06	3:06 a	-23.6	-23.6	-23.6	---	---	14.8	ENE	0.25	15.7	-36.7	---	---	723.2	0.029	0.000	18.3	1	1
03/24/06	3:07 a	-23.6	-23.6	-23.6	---	---	14.8	ENE	0.25	15.7	-36.7	---	---	723.2	0.029	0.000	18.3	1	1
03/24/06	3:08 a	-23.6	-23.6	-23.6	---	---	14.8	ENE	0.25	15.7	-36.7	---	---	723.3	0.029	0.000	18.3	1	1
03/24/06	3:09 a	-23.6	-23.6	-23.6	---	---	12.2	NE	0.20	13.9	-35.6	---	---	723.4	0.029	0.000	18.3	1	1
03/24/06	3:10 a	-23.6	-23.6	-23.6	---	---	11.3	NE	0.19	11.3	-35.2	---	---	723.3	0.029	0.000	18.3	1	1
03/24/06	3:11 a	-23.6	-23.6	-23.6	---	---	12.2	NE	0.20	14.8	-35.6	---	---	723.3	0.029	0.000	18.3	1	1
03/24/06	3:12 a	-23.6	-23.6	-23.6	---	---	13.9	ENE	0.23	15.7	-36.3	---	---	723.2	0.029	0.000	18.3	1	1
03/24/06	3:13 a	-23.6	-23.6	-23.6	---	---	14.8	NE	0.25	14.8	-36.6	---	---	723.3	0.029	0.000	18.3	1	1
03/24/06	3:14 a	-23.6	-23.6	-23.6	---	---	13.9	NE	0.23	14.8	-36.3	---	---	723.3	0.029	0.000	18.3	1	1
03/24/06	3:15 a	-23.6	-23.6	-23.6	---	---	13.0	NE	0.22	14.8	-35.9	---	---	723.3	0.029	0.000	18.2	1	1
03/24/06	3:16 a	-23.6	-23.6	-23.6	---	---	14.8	ENE	0.25	14.8	-36.6	---	---	723.2	0.029	0.000	18.3	1	1
03/24/06	3:17 a	-23.6	-23.6	-23.6	---	---	13.0	NE	0.22	14.8	-35.9	---	---	723.3	0.029	0.000	18.3	1	1
03/24/06	3:18 a	-23.6	-23.6	-23.6	---	---	12.2	ENE	0.20	14.8	-35.5	---	---	723.2	0.029	0.000	18.3	1	1
03/24/06	3:19 a	-23.6	-23.5	-23.6	---	---	14.8	ENE	0.25	15.7	-36.6	---	---	723.3	0.029	0.000	18.3	1	1
03/24/06	3:20 a	-23.6	-23.5	-23.6	---	---	13.9	NE	0.23	15.7	-36.3	---	---	723.3	0.029	0.000	18.3	1	1
03/24/06	3:21 a	-23.6	-23.5	-23.6	---	---	13.0	NE	0.22	14.8	-35.9	---	---	723.4	0.029	0.000	18.3	1	1
03/24/06	3:22 a	-23.5	-23.5	-23.5	---	---	13.0	NE	0.22	14.8	-35.8	---	---	723.3	0.029	0.000	18.3	1	1
03/24/06	3:23 a	-23.5	-23.5	-23.6	---	---	13.9	NE	0.23	14.8	-36.2	---	---	723.4	0.029	0.000	18.3	1	1
03/24/06	3:24 a	-23.6	-23.5	-23.6	---	---	13.9	NE	0.23	14.8	-36.3	---	---	723.3	0.029	0.000	18.3	1	1
03/24/06	3:25 a	-23.5	-23.5	-23.6	---	---	12.2	NE	0.20	13.0	-35.4	---	---	723.4	0.029	0.000	18.3	1	1
03/24/06	3:26 a	-23.6	-23.5	-23.6	---	---	11.3	NE	0.19	13.0	-35.1	---	---	723.3	0.029	0.000	18.3	1	1
03/24/06	3:27 a	-23.5	-23.5	-23.5	---	---	13.0	NE	0.22	13.9	-35.8	---	---	723.4	0.029	0.000	18.3	1	1
03/24/06	3:28 a	-23.5	-23.5	-23.5	---	---	13.0	NE	0.22	14.8	-35.8	---	---	723.2	0.029	0.000	18.3	1	1
03/24/06	3:29 a	-23.5	-23.5	-23.5	---	---	13.9	NE	0.23	15.7	-36.2	---	---	723.3	0.029	0.000	18.3	1	1
03/24/06	3:30 a	-23.5	-23.5	-23.6	---	---	15.7	NE	0.26	16.5	-36.8	---	---	723.3	0.029	0.000	18.3	1	1
03/24/06	3:31 a	-23.6	-23.5	-23.6	---	---	15.7	NE	0.26	16.5	-36.9	---	---	723.3	0.029	0.000	18.3	1	1
03/24/06	3:32 a	-23.5	-23.5	-23.6	---	---	14.8	NE	0.25	15.7	-36.5	---	---	723.3	0.029	0.000	18.3	1	1
03/24/06	3:33 a	-23.5	-23.5	-23.6	---	---	13.0	NE	0.22	14.8	-35.8	---	---	723.4	0.029	0.000	18.3	1	1
03/24/06	3:34 a	-23.5	-23.5	-23.6	---	---	11.3	NE	0.19	13.0	-35.1	---	---	723.3	0.029	0.000	18.3	1	1
03/24/06	3:35 a	-23.5	-23.5	-23.6	---	---	13.0	NE	0.22	13.9	-35.8	---	---	723.3	0.029	0.000	18.3	1	1
03/24/06	3:36 a	-23.6	-23.5	-23.6	---	---	13.9	NE	0.23	15.7	-36.3	---	---	723.4	0.029	0.000	18.3	1	1
03/24/06	3:37 a	-23.5	-23.5	-23.5	---	---	13.9	NE	0.23	14.8	-36.2	---	---	723.4	0.029	0.000	18.3	1	1
03/24/06	3:38 a	-23.6	-23.5	-23.6	---	---	13.9	NE	0.23	14.8	-36.3	---	---	723.3	0.029	0.000	18.3	1	1
03/24/06	3:39 a	-23.6	-23.5	-23.6	---	---	13.0	NE	0.22	15.7	-35.9	---	---	723.3	0.029	0.000	18.3	1	1
03/24/06	3:40 a	-23.6	-23.6	-23.6	---	---	13.0	NE	0.22	13.9	-35.9	---	---	723.3	0.029	0.000	18.3	1	1
03/24/06	3:41 a	-23.6	-23.6	-23.6	---	---	13.0	NE	0.22	14.8	-35.9	---	---	723.4	0.029	0.000	18.4	1	1
03/24/06	3:42 a	-23.6	-23.6	-23.6	---	---	13.9	NE	0.23	15.7	-36.3	---	---	723.4	0.029	0.000	18.4	1	1
03/24/06	3:43 a	-23.6	-23.6	-23.6	---	---	13.0	NE	0.22	13.9	-35.9	---	---	723.3	0.029	0.000	18.4	1	1
03/24/06	3:44 a	-23.6	-23.6	-23.6	---	---	13.9	NE	0.23	15.7	-36.3	---	---	723.4	0.029	0.000	18.4	1	1
03/24/06	3:45 a	-23.6	-23.6	-23.6	---	---	13.9	NE	0.23	15.7	-36.3	---	---	723.5	0.029	0.000	18.4	1	1
03/24/06	3:46 a	-23.6	-23.6	-23.6	---	---	13.0	NE	0.22	13.9	-35.9	---	---	723.4	0.029	0.000	18.4	1	1
03/24/06	3:47 a	-23.6	-23.6	-23.6	---	---	12.2	NE	0.20	13.9	-35.5	---	---	723.4	0.029	0.000	18.4	1	1
03/24/06	3:48 a	-23.6	-23.6	-23.6	---	---	13.0	NE	0.22	13.9	-35.9	---	---	723.4	0.029	0.000	18.4	1	1
03/24/06	3:49 a	-23.6	-23.6	-23.6	---	---	13.0	NE	0.22	14.8	-35.9	---	---	723.3	0.029	0.000	18.4	1	1
03/24/06	3:50 a	-23.6	-23.6	-23.6	---	---	14.8	NE	0.25	16.5	-36.7	---	---	723.4	0.029	0.000	18.4	1	1
03/24/06	3:51 a	-23.7	-23.6	-23.7	---	---	13.9	NE	0.23	15.7	-36.4	---	---	723.5	0.029	0.000	18.4	1	1
03/24/06	3:52 a	-23.7	-23.6	-23.7	---	---	12.2	NE	0.20	13.9	-35.7	---	---	723.6	0.029	0.000	18.4	1	1
03/24/06	3:53 a	-23.6	-23.6	-23.6	---	---	12.2	NE	0.20	12.2	-35.6	---	---	723.6	0.029	0.000	18.4	1	1
03/24/06	3:54 a	-23.7	-23.6	-23.7	---	---	11.3	NE	0.19	13.0	-35.3	---	---	723.6	0.029	0.000	18.4	1	1
03/24/06	3:55 a	-23.7	-23.7	-23.7	---	---	10.4	NE	0.17	12.2	-34.8	---	---	723.5	0.029	0.000	18.4	1	1
03/24/06	3:56 a	-23.7	-23.7	-23.7	---	---	12.2	ENE	0.20	14.8	-35.7	---	---	723.5	0.029	0.000	18.4	1	1
03/24/06	3:57 a	-23.7	-23.7	-23.7	---	---	13.9	ENE	0.23	15.7	-36.4	---	---	723.4	0.029	0.000	18.4	1	1
03/24/06	3:58 a	-23.7	-23.7	-23.7	---	---	14.8	NE	0.25	16.5	-36.7	---	---	723.4	0.029	0.000	18.4	1	1
03/24/06	3:59 a	-23.7	-23.7	-23.7	---	---	15.7	ENE	0.26	17.4	-37.1	---	---	723.4	0.029	0.000	18.4	1	1
03/24/06	4:00 a	-23.7	-23.7	-23.7	---	---	15.7	ENE	0.26	16.5	-37.1	---	---	723.5	0.029	0.000	18.4	1	1
03/24/06	4:01 a	-23.7	-23.7	-23.7	---	---	13.9	NE	0.23	14.8	-36.4	---	---	723.5	0.029	0.000	18.4	1	1
03/24/06	4:02 a	-23.7	-23.7	-23.7	---	---	12.2	NE	0.20	13.9	-35.7	---	---	723.5	0.029	0.000	18.4	1	1
03/24/06	4:03 a	-23.7	-23.7	-23.7	---	---	10.4	NE	0.17	12.2	-34.9	---	---	723.6	0.029	0.000	18.4	1	1
03/24/06	4:04 a	-23.7	-23.7	-23.7	---	---	9.6	NE	0.16	11.3	-34.4	---	---	723.6	0.029	0.000	18.4	1	1
03/24/06	4:05 a	-23.7	-23.7	-23.7	---	---	8.7	NE	0.14	10.4	-33.9	---	---	723.5	0.029	0.000	18.4	1	1
03/24/06	4:06 a	-23.7	-23.7	-23.7	---	---	9.6	NE	0.16	13.0	-34.4	---	---	723.5	0.029	0.000	18.4	1	1
03/24/06	4:07 a	-23.7	-23.7	-23.7	---	---	13.9	NE	0.23	16.5	-36.4	---	---	723.5	0.029	0.000	18.4	1	1
03/24/06	4:08 a	-23.8	-23.7	-23.8	---	---	16.5	NE	0.28	18.3	-37.5	---	---	723.5	0.029	0.000	18.4	1	1
03/24/06	4:09 a	-23.8	-23.7	-23.8	---	---	14.8	NE	0.25	16.5	-36.9	---	---	723.5	0.029	0.000	18.4	1	1
03/24/06	4:10 a	-23.7	-23.7	-23.8	---	---	14.8	NE	0.25	15.7	-36.8	---	---	723.6	0.029	0.000	18.4	1	1
03/24/06	4:11 a	-23.8	-23.8	-23.8	---	---	14.8	NE	0.25	15.7	-36.9	---	---	723.5	0.029	0.000	18.4	1	1
03/24/06	4:12 a	-23.8	-23.8	-23.8	---	---	13.9	NE	0.23	14.8	-36.6	---	---	723.6	0.029	0.000	18.4	1	1
03/24/06	4:13 a	-23.8	-23.8	-23.8	---	---	13.0	NE	0.22	14.8	-36.2	---	---	723.5	0.029	0.000	18.4	1	1
03/24/06	4:14 a	-23.8	-23.8	-23.8	---	---	13.0	NE	0.22	14.8	-36.3	---	---	723.5	0.029	0.000	18.4	1	1
03/24/06	4:15 a	-23.8	-23.8	-23.8	---	---	16.5	ENE	0.28	19.1	-37.6	---	---	723.4	0.029	0.000	18.4	1	1
03/24/06	4:16 a	-23.9	-23.8	-23.9	---	---	20.0	ENE	0.33	20.0	-38.8	---	---	723.4	0.029	0.000	18.4	1	1
03/24/06	4:17 a	-23.8	-23.8	-23.9	---	---	18.3	ENE	0.30	20.0	-38.2	---	---	723.5	0.029	0.000	18.4	1	1
03/24/06	4:18 a	-23.9	-23.8	-23.9	---	---	17.4	NE	0.29	18.3	-37.9	---	---	723.6	0.029	0.000	18.4	1	1
03/24/06	4:19 a	-23.9	-23.9	-23.9	---	---	16.5	NE	0.28	18.3	-37.7	---	---	723.6	0.029	0.000	18.4	1	1
03/24/06	4:20 a	-23.9	-23.9	-23.9	---	---	15.7	NE	0.26	16.5	-37.3	---	---	723.6	0.029	0.000	18.4	1	1
03/24/06	4:21 a	-23.9	-23.9	-23.9	---	---	14.8	NE	0.25	17.4	-37.0	---	---	723.6	0.029	0.000	18.4	1	1
03/24/06	4:22 a	-23.9	-23.9	-23.9	---	---	14.8	ENE	0.25	16.5	-37.0	---	---	723.5	0.029	0.000	18.4	1	1
03/24/06	4:23 a	-23.9	-23.9	-23.9	---	---	14.8	ENE	0.25	16.5	-37.1	---	---	723.5	0.029	0.000	18.4	1	1
03/24/06	4:24 a	-23.9	-23.9	-23.9	---	---	15.7	ENE	0.26	16.5	-37.4	---	---	723.6	0.029	0.000	18.4	1	1
03/24/06	4:25 a	-23.9	-23.9	-23.9	---	---	15.7	ENE	0.26	16.5	-37.4	---	---	723.6	0.029	0.000	18.4	1	1
03/24/06	4:26 a	-23.9	-23.9	-23.9	---	---	14.8	ENE	0.25	15.7	-37.1	---	---	723.6	0.029	0.000	18.4	1	1
03/24/06	4:27 a	-23.9	-23.9	-23.9	---	---	14.8	ENE	0.25	16.5	-37.1	---	---	723.6	0.029	0.000	18.4	1	1
03/24/06	4:28 a	-23.9	-23.9	-24.0	---	---	14.8	NE	0.25	16.5	-37.1	---	---	723.7	0.029	0.000	18.4	1	1
03/24/06	4:29 a	-23.9	-23.9	-24.0	---	---	14.8	NE	0.25	16.5	-37.1	---	---	723.6	0.029	0.000	18.4	1	1
03/24/06	4:30 a	-23.9	-23.9	-24.0	---	---	14.8	NE	0.25	17.4	-37.1	---	---	723.6	0.029	0.000	18.4	1	1
03/24/06	4:31 a	-24.0	-23.9	-24.0	---	---	14.8	NE	0.25	16.5	-37.2	---	---	723.6	0.029	0.000	18.4	1	1
03/24/06	4:32 a	-24.0	-24.0	-24.0	---	---	14.8	NE	0.25	17.4	-37.2	---	---	723.6	0.029	0.000	18.4	1	1
03/24/06	4:33 a	-24.0	-24.0	-24.0	---	---	15.7	NE	0.26	17.4	-37.5	---	---	723.7	0.029	0.000	18.4	1	1
03/24/06	4:34 a	-24.0	-24.0	-24.0	---	---	14.8	NE	0.25	16.5	-37.2	---	---	723.7	0.029	0.000	18.4	1	1
03/24/06	4:35 a	-24.0	-24.0	-24.0	---	---	13.9	NE	0.23	14.8	-36.8	---	---	723.6	0.029	0.000	18.4	1	1
03/24/06	4:36 a	-24.1	-24.0	-24.1	---	---	14.8	NE	0.25	16.5	-37.2	---	---	723.7	0.029	0.000	18.4	1	1
03/24/06	4:37 a	-24.1	-24.0	-24.1	---	---	14.8	NE	0.25	17.4	-37.2	---	---	723.7	0.029	0.000	18.4	1	1
03/24/06	4:38 a	-24.1	-24.0	-24.1	---	---	14.8	NE	0.25	16.5	-37.2	---	---	723.7	0.029	0.000	18.4	1	1
03/24/06	4:39 a	-24.1	-24.1	-24.1	---	---	14.8	NE	0.25	16.5	-37.2	---	---	723.7	0.029	0.000	18.4	1	1
03/24/06	4:40 a	-24.1	-24.1	-24.1	---	---	13.0	NE	0.22	14.8	-36.6	---	---	723.6	0.029	0.000	18.4	1	1
03/24/06	4:41 a	-24.1	-24.1	-24.1	---	---	13.0	NE	0.22	14.8	-36.6	---	---	723.7	0.029	0.000	18.4	1	1
03/24/06	4:42 a	-24.1	-24.1	-24.1	---	---	13.0	NE	0.22	13.9	-36.6	---	---	723.7	0.029	0.000	18.4	1	1
03/24/06	4:43 a	-24.1	-24.1	-24.2	---	---	12.2	NE	0.20	13.9	-36.2	---	---	723.7	0.029	0.000	18.4	1	1
03/24/06	4:44 a	-24.2	-24.1	-24.2	---	---	13.0	NE	0.22	14.8	-36.7	---	---	723.7	0.030	0.000	18.4	1	1
03/24/06	4:45 a	-24.2	-24.2	-24.2	---	---	14.8	ENE	0.25	16.5	-37.4	---	---	723.7	0.030	0.000	18.4	1	1
03/24/06	4:46 a	-24.2	-24.2	-24.2	---	---	13.9	ENE	0.23	16.5	-37.1	---	---	723.7	0.030	0.000	18.4	1	1
03/24/06	4:47 a	-24.2	-24.2	-24.2	---	---	14.8	ENE	0.25	16.5	-37.4	---	---	723.6	0.030	0.000	18.4	1	1
03/24/06	4:48 a	-24.2	-24.2	-24.2	---	---	15.7	ENE	0.26	17.4	-37.8	---	---	723.6	0.030	0.000	18.4	1	1
03/24/06	4:49 a	-24.2	-24.2	-24.2	---	---	14.8	NE	0.25	16.5	-37.4	---	---	723.6	0.030	0.000	18.3	1	1
03/24/06	4:50 a	-24.2	-24.2	-24.3	---	---	15.7	NE	0.26	17.4	-37.8	---	---	723.6	0.030	0.000	18.3	1	1
03/24/06	4:51 a	-24.3	-24.3	-24.3	---	---	15.7	NE	0.26	18.3	-37.8	---	---	723.6	0.030	0.000	18.3	1	1
03/24/06	4:52 a	-24.3	-24.3	-24.3	---	---	17.4	NE	0.29	18.3	-38.4	---	---	723.6	0.030	0.000	18.3	1	1
03/24/06	4:53 a	-24.3	-24.3	-24.3	---	---	17.4	NE	0.29	17.4	-38.4	---	---	723.6	0.030	0.000	18.3	1	1
03/24/06	4:54 a	-24.3	-24.3	-24.4	---	---	15.7	NE	0.26	17.4	-37.9	---	---	723.6	0.030	0.000	18.3	1	1
03/24/06	4:55 a	-24.4	-24.3	-24.4	---	---	16.5	NE	0.28	18.3	-38.3	---	---	723.6	0.030	0.000	18.3	1	1
03/24/06	4:56 a	-24.4	-24.4	-24.4	---	---	16.5	NE	0.28	17.4	-38.3	---	---	723.7	0.030	0.000	18.3	1	1
03/24/06	4:57 a	-24.4	-24.4	-24.4	---	---	16.5	NE	0.28	17.4	-38.3	---	---	723.6	0.030	0.000	18.3	1	1
03/24/06	4:58 a	-24.4	-24.4	-24.4	---	---	16.5	ENE	0.28	19.1	-38.3	---	---	723.6	0.030	0.000	18.4	1	1
03/24/06	4:59 a	-24.4	-24.4	-24.5	---	---	18.3	NE	0.30	19.1	-39.0	---	---	723.6	0.030	0.000	18.4	1	1
03/24/06	5:00 a	-24.5	-24.5	-24.5	---	---	17.4	NE	0.29	19.1	-38.8	---	---	723.6	0.030	0.000	18.4	1	1
03/24/06	5:01 a	-24.5	-24.5	-24.5	---	---	17.4	NE	0.29	20.0	-38.8	---	---	723.5	0.030	0.000	18.4	1	1
03/24/06	5:02 a	-24.6	-24.6	-24.6	---	---	18.3	NE	0.30	19.1	-39.1	---	---	723.6	0.030	0.000	18.4	1	1
03/24/06	5:03 a	-24.6	-24.6	-24.6	---	---	18.3	NE	0.30	20.9	-39.1	---	---	723.7	0.030	0.000	18.4	1	1
03/24/06	5:04 a	-24.6	-24.6	-24.6	---	---	19.1	ENE	0.32	20.9	-39.4	---	---	723.6	0.030	0.000	18.4	1	1
03/24/06	5:05 a	-24.7	-24.6	-24.7	---	---	18.3	ENE	0.30	20.0	-39.3	---	---	723.6	0.030	0.000	18.4	1	1
03/24/06	5:06 a	-24.7	-24.7	-24.7	---	---	18.3	NE	0.30	20.0	-39.3	---	---	723.7	0.030	0.000	18.4	1	1
03/24/06	5:07 a	-24.7	-24.7	-24.7	---	---	17.4	NE	0.29	19.1	-39.1	---	---	723.6	0.030	0.000	18.4	1	1
03/24/06	5:08 a	-24.8	-24.7	-24.8	---	---	18.3	NE	0.30	19.1	-39.4	---	---	723.7	0.030	0.000	18.4	1	1
03/24/06	5:09 a	-24.8	-24.8	-24.8	---	---	18.3	NE	0.30	20.0	-39.4	---	---	723.6	0.030	0.000	18.4	1	1
03/24/06	5:10 a	-24.8	-24.8	-24.9	---	---	18.3	NE	0.30	19.1	-39.5	---	---	723.6	0.030	0.000	18.4	1	1
03/24/06	5:11 a	-24.9	-24.9	-24.9	---	---	19.1	NE	0.32	20.0	-39.8	---	---	723.6	0.030	0.000	18.4	1	1
03/24/06	5:12 a	-24.9	-24.9	-24.9	---	---	19.1	ENE	0.32	20.0	-39.8	---	---	723.7	0.030	0.000	18.4	1	1
03/24/06	5:13 a	-24.9	-24.9	-24.9	---	---	17.4	NE	0.29	19.1	-39.3	---	---	723.6	0.030	0.000	18.4	1	1
03/24/06	5:14 a	-25.0	-25.0	-25.0	---	---	16.5	NE	0.28	18.3	-39.1	---	---	723.7	0.030	0.000	18.4	1	1
03/24/06	5:15 a	-25.1	-25.1	-25.1	---	---	17.4	NE	0.29	19.1	-39.5	---	---	723.7	0.030	0.000	18.4	1	1
03/24/06	5:16 a	-25.1	-25.1	-25.1	---	---	18.3	NE	0.30	19.1	-39.8	---	---	723.7	0.030	0.000	18.4	1	1
03/24/06	5:17 a	-25.1	-25.1	-25.1	---	---	17.4	ENE	0.29	19.1	-39.5	---	---	723.7	0.030	0.000	18.4	1	1
03/24/06	5:18 a	-25.1	-25.1	-25.2	---	---	18.3	ENE	0.30	19.1	-39.8	---	---	723.6	0.030	0.000	18.4	1	1
03/24/06	5:19 a	-25.2	-25.2	-25.2	---	---	17.4	ENE	0.29	19.1	-39.6	---	---	723.7	0.030	0.000	18.4	1	1
03/24/06	5:20 a	-25.2	-25.2	-25.2	---	---	16.5	ENE	0.28	19.1	-39.4	---	---	723.7	0.030	0.000	18.4	1	1
03/24/06	5:21 a	-25.2	-25.2	-25.2	---	---	16.5	ENE	0.28	18.3	-39.4	---	---	723.8	0.030	0.000	18.4	1	1
03/24/06	5:22 a	-25.2	-25.2	-25.3	---	---	17.4	NE	0.29	19.1	-39.7	---	---	723.7	0.030	0.000	18.4	1	1
03/24/06	5:23 a	-25.3	-25.2	-25.3	---	---	17.4	NE	0.29	19.1	-39.8	---	---	723.7	0.030	0.000	18.4	1	1
03/24/06	5:24 a	-25.3	-25.3	-25.3	---	---	18.3	ENE	0.30	20.0	-40.1	---	---	723.7	0.030	0.000	18.4	1	1
03/24/06	5:25 a	-25.3	-25.3	-25.4	---	---	17.4	ENE	0.29	18.3	-39.8	---	---	723.7	0.030	0.000	18.4	1	1
03/24/06	5:26 a	-25.4	-25.3	-25.4	---	---	18.3	ENE	0.30	19.1	-40.2	---	---	723.7	0.030	0.000	18.4	1	1
03/24/06	5:27 a	-25.4	-25.4	-25.4	---	---	17.4	ENE	0.29	18.3	-39.9	---	---	723.7	0.030	0.000	18.4	1	1
03/24/06	5:28 a	-25.4	-25.4	-25.4	---	---	15.7	ENE	0.26	17.4	-39.3	---	---	723.7	0.030	0.000	18.4	1	1
03/24/06	5:29 a	-25.4	-25.4	-25.4	---	---	16.5	ENE	0.28	18.3	-39.7	---	---	723.7	0.030	0.000	18.4	1	1
03/24/06	5:30 a	-25.4	-25.4	-25.5	---	---	16.5	ENE	0.28	18.3	-39.7	---	---	723.6	0.030	0.000	18.4	1	1
03/24/06	5:31 a	-25.4	-25.4	-25.5	---	---	15.7	ENE	0.26	17.4	-39.4	---	---	723.7	0.030	0.000	18.4	1	1
03/24/06	5:32 a	-25.5	-25.5	-25.5	---	---	15.7	ENE	0.26	17.4	-39.4	---	---	723.7	0.030	0.000	18.4	1	1
03/24/06	5:33 a	-25.5	-25.5	-25.5	---	---	15.7	ENE	0.26	17.4	-39.4	---	---	723.7	0.030	0.000	18.4	1	1
03/24/06	5:34 a	-25.6	-25.6	-25.6	---	---	15.7	ENE	0.26	17.4	-39.5	---	---	723.7	0.030	0.000	18.4	1	1
03/24/06	5:35 a	-25.6	-25.5	-25.6	---	---	15.7	ENE	0.26	17.4	-39.5	---	---	723.7	0.030	0.000	18.4	1	1
03/24/06	5:36 a	-25.6	-25.6	-25.6	---	---	15.7	E	0.26	18.3	-39.5	---	---	723.7	0.030	0.000	18.4	1	1
03/24/06	5:37 a	-25.6	-25.6	-25.6	---	---	13.9	E	0.23	15.7	-38.8	---	---	723.7	0.030	0.000	18.4	1	1
03/24/06	5:38 a	-25.6	-25.6	-25.6	---	---	14.8	ENE	0.25	17.4	-39.2	---	---	723.7	0.030	0.000	18.4	1	1
03/24/06	5:39 a	-25.6	-25.6	-25.6	---	---	15.7	ENE	0.26	17.4	-39.6	---	---	723.6	0.031	0.000	18.4	1	1
03/24/06	5:40 a	-25.6	-25.6	-25.6	---	---	15.7	E	0.26	19.1	-39.5	---	---	723.7	0.030	0.000	18.4	1	1
03/24/06	5:41 a	-25.6	-25.6	-25.6	---	---	17.4	E	0.29	19.1	-40.2	---	---	723.7	0.030	0.000	18.4	1	1
03/24/06	5:42 a	-25.6	-25.6	-25.6	---	---	18.3	ENE	0.30	20.0	-40.5	---	---	723.6	0.031	0.000	18.4	1	1
03/24/06	5:43 a	-25.6	-25.6	-25.6	---	---	17.4	E	0.29	20.0	-40.2	---	---	723.6	0.031	0.000	18.4	1	1
03/24/06	5:44 a	-25.6	-25.6	-25.7	---	---	16.5	E	0.28	19.1	-39.9	---	---	723.7	0.031	0.000	18.4	1	1
03/24/06	5:45 a	-25.6	-25.6	-25.6	---	---	17.4	E	0.29	19.1	-40.2	---	---	723.6	0.031	0.000	18.4	1	1
03/24/06	5:46 a	-25.6	-25.6	-25.6	---	---	16.5	E	0.28	19.1	-39.9	---	---	723.7	0.031	0.000	18.4	1	1
03/24/06	5:47 a	-25.6	-25.6	-25.6	---	---	17.4	ENE	0.29	19.1	-40.2	---	---	723.6	0.031	0.000	18.4	1	1
03/24/06	5:48 a	-25.6	-25.6	-25.6	---	---	18.3	E	0.30	20.0	-40.5	---	---	723.6	0.031	0.000	18.4	1	1
03/24/06	5:49 a	-25.6	-25.6	-25.6	---	---	17.4	ENE	0.29	19.1	-40.2	---	---	723.6	0.031	0.000	18.4	1	1
03/24/06	5:50 a	-25.6	-25.6	-25.6	---	---	17.4	ENE	0.29	19.1	-40.2	---	---	723.6	0.031	0.000	18.4	1	1
03/24/06	5:51 a	-25.6	-25.6	-25.6	---	---	17.4	ENE	0.29	20.0	-40.2	---	---	723.7	0.030	0.000	18.4	1	1
03/24/06	5:52 a	-25.6	-25.6	-25.6	---	---	18.3	ENE	0.30	20.0	-40.5	---	---	723.6	0.031	0.000	18.4	1	1
03/24/06	5:53 a	-25.6	-25.6	-25.6	---	---	18.3	ENE	0.30	20.0	-40.5	---	---	723.7	0.031	0.000	18.4	1	1
03/24/06	5:54 a	-25.6	-25.6	-25.6	---	---	17.4	ENE	0.29	20.0	-40.2	---	---	723.6	0.030	0.000	18.4	1	1
03/24/06	5:55 a	-25.6	-25.6	-25.6	---	---	18.3	ENE	0.30	19.1	-40.4	---	---	723.7	0.030	0.000	18.4	1	1
03/24/06	5:56 a	-25.6	-25.6	-25.6	---	---	16.5	ENE	0.28	18.3	-39.9	---	---	723.7	0.031	0.000	18.4	1	1
03/24/06	5:57 a	-25.6	-25.6	-25.6	---	---	16.5	ENE	0.28	18.3	-39.9	---	---	723.7	0.031	0.000	18.4	1	1
03/24/06	5:58 a	-25.6	-25.6	-25.6	---	---	18.3	ENE	0.30	20.0	-40.5	---	---	723.7	0.031	0.000	18.4	1	1
03/24/06	5:59 a	-25.6	-25.6	-25.6	---	---	16.5	ENE	0.28	19.1	-39.9	---	---	723.6	0.031	0.000	18.4	1	1
03/24/06	6:00 a	-25.6	-25.6	-25.6	---	---	16.5	ENE	0.28	18.3	-39.9	---	---	723.7	0.031	0.000	18.4	1	1
03/24/06	6:01 a	-25.6	-25.6	-25.6	---	---	15.7	ENE	0.26	17.4	-39.6	---	---	723.7	0.031	0.000	18.4	1	1
03/24/06	6:02 a	-25.6	-25.6	-25.6	---	---	17.4	ENE	0.29	18.3	-40.2	---	---	723.7	0.031	0.000	18.4	1	1
03/24/06	6:03 a	-25.6	-25.6	-25.6	---	---	17.4	ENE	0.29	18.3	-40.2	---	---	723.8	0.031	0.000	18.4	1	1
03/24/06	6:04 a	-25.6	-25.6	-25.6	---	---	16.5	ENE	0.28	18.3	-39.8	---	---	723.7	0.030	0.000	18.4	1	1
03/24/06	6:05 a	-25.6	-25.6	-25.6	---	---	17.4	ENE	0.29	19.1	-40.2	---	---	723.7	0.031	0.000	18.4	1	1
03/24/06	6:06 a	-25.6	-25.6	-25.6	---	---	18.3	ENE	0.30	20.0	-40.5	---	---	723.8	0.031	0.000	18.4	1	1
03/24/06	6:07 a	-25.6	-25.6	-25.6	---	---	17.4	ENE	0.29	18.3	-40.2	---	---	723.8	0.031	0.000	18.4	1	1
03/24/06	6:08 a	-25.6	-25.6	-25.6	---	---	17.4	ENE	0.29	18.3	-40.2	---	---	723.8	0.031	0.000	18.4	1	1
03/24/06	6:09 a	-25.7	-25.6	-25.7	---	---	16.5	ENE	0.28	17.4	-40.0	---	---	723.8	0.031	0.000	18.4	1	1
03/24/06	6:10 a	-25.7	-25.7	-25.7	---	---	15.7	ENE	0.26	18.3	-39.7	---	---	723.9	0.031	0.000	18.4	1	1
03/24/06	6:11 a	-25.7	-25.7	-25.7	---	---	15.7	ENE	0.26	17.4	-39.7	---	---	723.9	0.031	0.000	18.4	1	1
03/24/06	6:12 a	-25.7	-25.7	-25.7	---	---	14.8	ENE	0.25	16.5	-39.4	---	---	724.0	0.031	0.000	18.4	1	1
03/24/06	6:13 a	-25.7	-25.7	-25.7	---	---	15.7	ENE	0.26	17.4	-39.7	---	---	723.8	0.031	0.000	18.4	1	1
03/24/06	6:14 a	-25.7	-25.7	-25.7	---	---	16.5	ENE	0.28	18.3	-40.1	---	---	723.8	0.031	0.000	18.4	1	1
03/24/06	6:15 a	-25.7	-25.7	-25.7	---	---	16.5	ENE	0.28	17.4	-40.1	---	---	723.9	0.031	0.000	18.4	1	1
03/24/06	6:16 a	-25.7	-25.7	-25.7	---	---	15.7	ENE	0.26	16.5	-39.7	---	---	723.9	0.031	0.000	18.4	1	1
03/24/06	6:17 a	-25.7	-25.7	-25.8	---	---	13.0	ENE	0.22	14.8	-38.7	---	---	724.0	0.031	0.000	18.4	1	1
03/24/06	6:18 a	-25.8	-25.7	-25.8	---	---	13.9	E	0.23	15.7	-39.1	---	---	723.9	0.031	0.000	18.4	1	1
03/24/06	6:19 a	-25.8	-25.8	-25.8	---	---	14.8	ENE	0.25	17.4	-39.4	---	---	724.1	0.031	0.000	18.4	1	1
03/24/06	6:20 a	-25.8	-25.8	-25.8	---	---	13.9	ENE	0.23	15.7	-39.1	---	---	724.0	0.031	0.000	18.4	1	1
03/24/06	6:21 a	-25.8	-25.8	-25.8	---	---	12.2	ENE	0.20	14.8	-38.4	---	---	724.1	0.031	0.000	18.4	1	1
03/24/06	6:22 a	-25.8	-25.8	-25.8	---	---	10.4	ENE	0.17	13.0	-37.6	---	---	724.1	0.031	0.000	18.4	1	1
03/24/06	6:23 a	-25.8	-25.8	-25.9	---	---	13.0	ENE	0.22	14.8	-38.8	---	---	724.0	0.031	0.000	18.4	1	1
03/24/06	6:24 a	-25.9	-25.9	-25.9	---	---	10.4	ENE	0.17	13.0	-37.6	---	---	724.2	0.031	0.000	18.4	1	1
03/24/06	6:25 a	-25.9	-25.9	-25.9	---	---	12.2	E	0.20	14.8	-38.5	---	---	724.1	0.031	0.000	18.4	1	1
03/24/06	6:26 a	-25.9	-25.9	-25.9	---	---	10.4	E	0.17	13.0	-37.7	---	---	724.2	0.031	0.000	18.4	1	1
03/24/06	6:27 a	-25.9	-25.9	-25.9	---	---	12.2	ENE	0.20	13.9	-38.6	---	---	724.0	0.031	0.000	18.4	1	1
03/24/06	6:28 a	-25.9	-25.9	-25.9	---	---	12.2	ENE	0.20	13.9	-38.6	---	---	724.1	0.031	0.000	18.4	1	1
03/24/06	6:29 a	-25.9	-25.9	-25.9	---	---	10.4	E	0.17	12.2	-37.7	---	---	724.1	0.031	0.000	18.4	1	1
03/24/06	6:30 a	-26.0	-25.9	-26.0	---	---	11.3	E	0.19	13.9	-38.2	---	---	724.2	0.031	0.000	18.3	1	1
03/24/06	6:31 a	-26.0	-26.0	-26.0	---	---	13.0	E	0.22	14.8	-39.1	---	---	724.2	0.031	0.000	18.3	1	1
03/24/06	6:32 a	-26.0	-26.0	-26.0	---	---	12.2	E	0.20	15.7	-38.6	---	---	724.1	0.031	0.000	18.3	1	1
03/24/06	6:33 a	-26.0	-26.0	-26.0	---	---	13.9	E	0.23	15.7	-39.4	---	---	724.2	0.031	0.000	18.3	1	1
03/24/06	6:34 a	-26.0	-26.0	-26.0	---	---	11.3	E	0.19	13.9	-38.2	---	---	724.1	0.031	0.000	18.3	1	1
03/24/06	6:35 a	-26.1	-26.0	-26.1	---	---	10.4	E	0.17	13.9	-37.8	---	---	724.1	0.031	0.000	18.3	1	1
03/24/06	6:36 a	-26.1	-26.1	-26.1	---	---	11.3	E	0.19	13.0	-38.3	---	---	724.2	0.031	0.000	18.3	1	1
03/24/06	6:37 a	-26.1	-26.1	-26.1	---	---	11.3	E	0.19	13.9	-38.3	---	---	724.1	0.031	0.000	18.3	1	1
03/24/06	6:38 a	-26.1	-26.1	-26.1	---	---	12.2	E	0.20	14.8	-38.7	---	---	724.1	0.031	0.000	18.3	1	1
03/24/06	6:39 a	-26.1	-26.1	-26.1	---	---	12.2	E	0.20	14.8	-38.7	---	---	724.2	0.031	0.000	18.3	1	1
03/24/06	6:40 a	-26.1	-26.1	-26.1	---	---	11.3	E	0.19	13.9	-38.3	---	---	724.3	0.031	0.000	18.3	1	1
03/24/06	6:41 a	-26.1	-26.1	-26.1	---	---	11.3	E	0.19	13.9	-38.3	---	---	724.2	0.031	0.000	18.3	1	1
03/24/06	6:42 a	-26.1	-26.0	-26.1	---	---	10.4	E	0.17	13.0	-37.8	---	---	724.3	0.031	0.000	18.3	1	1
03/24/06	6:43 a	-26.1	-26.0	-26.1	---	---	9.6	E	0.16	11.3	-37.3	---	---	724.3	0.031	0.000	18.3	1	1
03/24/06	6:44 a	-26.1	-26.1	-26.1	---	---	8.7	E	0.14	10.4	-36.8	---	---	724.3	0.031	0.000	18.3	1	1
03/24/06	6:45 a	-26.1	-26.1	-26.1	---	---	8.7	E	0.14	11.3	-36.8	---	---	724.3	0.031	0.000	18.3	1	1
03/24/06	6:46 a	-26.1	-26.1	-26.1	---	---	8.7	E	0.14	10.4	-36.8	---	---	724.4	0.031	0.000	18.3	1	1
03/24/06	6:47 a	-26.0	-26.0	-26.0	---	---	10.4	E	0.17	13.0	-37.8	---	---	724.4	0.031	0.000	18.3	1	1
03/24/06	6:48 a	-26.0	-26.0	-26.0	---	---	10.4	E	0.17	12.2	-37.8	---	---	724.3	0.031	0.000	18.3	1	1
03/24/06	6:49 a	-26.0	-26.0	-26.0	---	---	9.6	E	0.16	10.4	-37.3	---	---	724.4	0.031	0.000	18.3	1	1
03/24/06	6:50 a	-26.0	-26.0	-26.0	---	---	8.7	E	0.14	11.3	-36.8	---	---	724.4	0.031	0.000	18.3	1	1
03/24/06	6:51 a	-26.0	-26.0	-26.0	---	---	8.7	E	0.14	11.3	-36.8	---	---	724.4	0.031	0.000	18.3	1	1
03/24/06	6:52 a	-26.0	-26.0	-26.0	---	---	9.6	ENE	0.16	11.3	-37.3	---	---	724.3	0.031	0.000	18.3	1	1
03/24/06	6:53 a	-26.0	-26.0	-26.0	---	---	9.6	ENE	0.16	11.3	-37.3	---	---	724.4	0.031	0.000	18.3	1	1
03/24/06	6:54 a	-26.0	-25.9	-26.0	---	---	8.7	E	0.14	10.4	-36.8	---	---	724.4	0.031	0.000	18.3	1	1
03/24/06	6:55 a	-25.9	-25.9	-26.0	---	---	9.6	E	0.16	11.3	-37.2	---	---	724.4	0.031	0.000	18.3	1	1
03/24/06	6:56 a	-25.9	-25.9	-25.9	---	---	9.6	E	0.16	12.2	-37.2	---	---	724.4	0.031	0.000	18.4	1	1
03/24/06	6:57 a	-25.9	-25.9	-25.9	---	---	11.3	E	0.19	13.0	-38.2	---	---	724.4	0.031	0.000	18.3	1	1
03/24/06	6:58 a	-25.9	-25.9	-25.9	---	---	9.6	E	0.16	11.3	-37.2	---	---	724.4	0.031	0.000	18.3	1	1
03/24/06	6:59 a	-25.9	-25.9	-25.9	---	---	9.6	E	0.16	11.3	-37.2	---	---	724.4	0.031	0.000	18.3	1	1
03/24/06	7:00 a	-25.9	-25.9	-25.9	---	---	9.6	E	0.16	11.3	-37.2	---	---	724.4	0.031	0.000	18.3	1	1
03/24/06	7:01 a	-25.9	-25.9	-25.9	---	---	8.7	E	0.14	11.3	-36.7	---	---	724.4	0.031	0.000	18.4	1	1
03/24/06	7:02 a	-25.9	-25.9	-25.9	---	---	12.2	E	0.20	13.9	-38.6	---	---	724.3	0.031	0.000	18.3	1	1
03/24/06	7:03 a	-25.9	-25.9	-25.9	---	---	10.4	E	0.17	13.0	-37.7	---	---	724.4	0.031	0.000	18.3	1	1
03/24/06	7:04 a	-25.9	-25.9	-25.9	---	---	12.2	E	0.20	13.9	-38.5	---	---	724.3	0.031	0.000	18.4	1	1
03/24/06	7:05 a	-25.9	-25.9	-25.9	---	---	12.2	E	0.20	13.0	-38.5	---	---	724.4	0.031	0.000	18.3	1	1
03/24/06	7:06 a	-25.9	-25.9	-25.9	---	---	10.4	E	0.17	12.2	-37.6	---	---	724.4	0.031	0.000	18.3	1	1
03/24/06	7:07 a	-25.9	-25.9	-25.9	---	---	12.2	E	0.20	13.9	-38.5	---	---	724.4	0.031	0.000	18.4	1	1
03/24/06	7:08 a	-25.9	-25.9	-25.9	---	---	11.3	E	0.19	13.0	-38.1	---	---	724.4	0.031	0.000	18.4	1	1
03/24/06	7:09 a	-25.9	-25.8	-25.9	---	---	12.2	E	0.20	14.8	-38.5	---	---	724.4	0.031	0.000	18.4	1	1
03/24/06	7:10 a	-25.9	-25.8	-25.9	---	---	11.3	E	0.19	13.0	-38.1	---	---	724.4	0.031	0.000	18.4	1	1
03/24/06	7:11 a	-25.9	-25.8	-25.9	---	---	12.2	E	0.20	14.8	-38.5	---	---	724.3	0.031	0.000	18.4	1	1
03/24/06	7:12 a	-25.9	-25.8	-25.9	---	---	12.2	E	0.20	13.9	-38.5	---	---	724.3	0.031	0.000	18.4	1	1
03/24/06	7:13 a	-25.8	-25.8	-25.8	---	---	12.2	E	0.20	13.9	-38.4	---	---	724.4	0.031	0.000	18.4	1	1
03/24/06	7:14 a	-25.8	-25.8	-25.9	---	---	13.0	E	0.22	14.8	-38.8	---	---	724.4	0.031	0.000	18.4	1	1
03/24/06	7:15 a	-25.9	-25.9	-25.9	---	---	12.2	ENE	0.20	13.0	-38.5	---	---	724.4	0.031	0.000	18.4	1	1
03/24/06	7:16 a	-25.9	-25.8	-25.9	---	---	12.2	ENE	0.20	13.0	-38.5	---	---	724.4	0.031	0.000	18.4	1	1
03/24/06	7:17 a	-25.8	-25.8	-25.8	---	---	11.3	ENE	0.19	13.9	-38.0	---	---	724.4	0.031	0.000	18.4	1	1
03/24/06	7:18 a	-25.9	-25.8	-25.9	---	---	12.2	ENE	0.20	13.0	-38.5	---	---	724.5	0.031	0.000	18.4	1	1
03/24/06	7:19 a	-25.9	-25.9	-25.9	---	---	10.4	ENE	0.17	13.0	-37.6	---	---	724.5	0.031	0.000	18.4	1	1
03/24/06	7:20 a	-25.9	-25.8	-25.9	---	---	10.4	ENE	0.17	12.2	-37.6	---	---	724.5	0.031	0.000	18.4	1	1
03/24/06	7:21 a	-25.9	-25.8	-25.9	---	---	9.6	E	0.16	12.2	-37.2	---	---	724.5	0.031	0.000	18.4	1	1
03/24/06	7:22 a	-25.9	-25.9	-25.9	---	---	9.6	E	0.16	11.3	-37.2	---	---	724.5	0.031	0.000	18.4	1	1
03/24/06	7:23 a	-25.9	-25.9	-25.9	---	---	8.7	E	0.14	10.4	-36.6	---	---	724.6	0.031	0.000	18.4	1	1
03/24/06	7:24 a	-25.9	-25.9	-25.9	---	---	8.7	E	0.14	10.4	-36.6	---	---	724.5	0.031	0.000	18.4	1	1
03/24/06	7:25 a	-25.9	-25.8	-25.9	---	---	8.7	E	0.14	10.4	-36.6	---	---	724.5	0.031	0.000	18.4	1	1
03/24/06	7:26 a	-25.9	-25.9	-25.9	---	---	9.6	E	0.16	10.4	-37.2	---	---	724.5	0.031	0.000	18.4	1	1
03/24/06	7:27 a	-25.9	-25.9	-25.9	---	---	8.7	E	0.14	10.4	-36.6	---	---	724.5	0.031	0.000	18.4	1	1
03/24/06	7:28 a	-25.9	-25.9	-25.9	---	---	7.8	E	0.13	10.4	-36.1	---	---	724.5	0.031	0.000	18.4	1	1
03/24/06	7:29 a	-25.9	-25.9	-25.9	---	---	7.8	E	0.13	8.7	-36.1	---	---	724.5	0.031	0.000	18.4	1	1
03/24/06	7:30 a	-25.9	-25.9	-25.9	---	---	8.7	E	0.14	9.6	-36.6	---	---	724.6	0.031	0.000	18.4	1	1
03/24/06	7:31 a	-25.9	-25.9	-25.9	---	---	9.6	ENE	0.16	10.4	-37.2	---	---	724.6	0.031	0.000	18.4	1	1
03/24/06	7:32 a	-25.9	-25.9	-25.9	---	---	9.6	ENE	0.16	10.4	-37.2	---	---	724.6	0.031	0.000	18.4	1	1
03/24/06	7:33 a	-25.9	-25.9	-25.9	---	---	9.6	ENE	0.16	10.4	-37.2	---	---	724.5	0.031	0.000	18.4	1	1
03/24/06	7:34 a	-25.9	-25.9	-25.9	---	---	8.7	E	0.14	9.6	-36.7	---	---	724.6	0.031	0.000	18.4	1	1
03/24/06	7:35 a	-25.9	-25.9	-25.9	---	---	8.7	E	0.14	10.4	-36.7	---	---	724.6	0.031	0.000	18.4	1	1
03/24/06	7:36 a	-25.9	-25.9	-26.0	---	---	8.7	ENE	0.14	10.4	-36.7	---	---	724.6	0.031	0.000	18.4	1	1
03/24/06	7:37 a	-25.9	-25.9	-25.9	---	---	9.6	ENE	0.16	10.4	-37.2	---	---	724.6	0.031	0.000	18.4	1	1
03/24/06	7:38 a	-25.9	-25.9	-26.0	---	---	9.6	ENE	0.16	10.4	-37.2	---	---	724.6	0.031	0.000	18.4	1	1
03/24/06	7:39 a	-26.0	-26.0	-26.0	---	---	9.6	ENE	0.16	9.6	-37.3	---	---	724.7	0.031	0.000	18.4	1	1
03/24/06	7:40 a	-26.0	-26.0	-26.0	---	---	9.6	ENE	0.16	10.4	-37.3	---	---	724.6	0.031	0.000	18.4	1	1
03/24/06	7:41 a	-26.0	-26.0	-26.0	---	---	10.4	ENE	0.17	10.4	-37.8	---	---	724.7	0.031	0.000	18.4	1	1
03/24/06	7:42 a	-26.0	-26.0	-26.1	---	---	10.4	ENE	0.17	11.3	-37.8	---	---	724.6	0.031	0.000	18.4	1	1
03/24/06	7:43 a	-26.0	-26.0	-26.0	---	---	10.4	ENE	0.17	11.3	-37.8	---	---	724.6	0.031	0.000	18.4	1	1
03/24/06	7:44 a	-26.0	-26.0	-26.0	---	---	11.3	ENE	0.19	12.2	-38.2	---	---	724.6	0.031	0.000	18.4	1	1
03/24/06	7:45 a	-26.0	-26.0	-26.1	---	---	11.3	ENE	0.19	12.2	-38.2	---	---	724.6	0.031	0.000	18.4	1	1
03/24/06	7:46 a	-26.1	-26.0	-26.1	---	---	10.4	ENE	0.17	12.2	-37.8	---	---	724.7	0.031	0.000	18.4	1	1
03/24/06	7:47 a	-26.1	-26.0	-26.1	---	---	10.4	ENE	0.17	11.3	-37.8	---	---	724.6	0.031	0.000	18.4	1	1
03/24/06	7:48 a	-26.1	-26.1	-26.1	---	---	10.4	ENE	0.17	11.3	-37.8	---	---	724.6	0.031	0.000	18.4	1	1
03/24/06	7:49 a	-26.1	-26.1	-26.1	---	---	11.3	ENE	0.19	11.3	-38.3	---	---	724.6	0.031	0.000	18.4	1	1
03/24/06	7:50 a	-26.1	-26.1	-26.1	---	---	11.3	E	0.19	12.2	-38.3	---	---	724.6	0.031	0.000	18.4	1	1
03/24/06	7:51 a	-26.1	-26.1	-26.1	---	---	11.3	E	0.19	12.2	-38.3	---	---	724.5	0.031	0.000	18.4	1	1
03/24/06	7:52 a	-26.1	-26.1	-26.1	---	---	11.3	E	0.19	12.2	-38.3	---	---	724.6	0.031	0.000	18.4	1	1
03/24/06	7:53 a	-26.1	-26.1	-26.1	---	---	11.3	E	0.19	12.2	-38.3	---	---	724.6	0.031	0.000	18.4	1	1
03/24/06	7:54 a	-26.1	-26.1	-26.1	---	---	11.3	E	0.19	13.0	-38.3	---	---	724.6	0.031	0.000	18.4	1	1
03/24/06	7:55 a	-26.1	-26.1	-26.1	---	---	11.3	E	0.19	12.2	-38.3	---	---	724.6	0.031	0.000	18.4	1	1
03/24/06	7:56 a	-26.1	-26.1	-26.1	---	---	11.3	E	0.19	13.0	-38.3	---	---	724.5	0.031	0.000	18.4	1	1
03/24/06	7:57 a	-26.1	-26.1	-26.1	---	---	10.4	E	0.17	12.2	-37.9	---	---	724.5	0.031	0.000	18.4	1	1
03/24/06	7:58 a	-26.1	-26.1	-26.1	---	---	11.3	E	0.19	12.2	-38.3	---	---	724.6	0.031	0.000	18.4	1	1
03/24/06	7:59 a	-26.1	-26.1	-26.1	---	---	10.4	E	0.17	12.2	-37.9	---	---	724.6	0.031	0.000	18.4	1	1
03/24/06	8:00 a	-26.1	-26.1	-26.1	---	---	10.4	E	0.17	12.2	-37.9	---	---	724.6	0.031	0.000	18.4	1	1
03/24/06	8:01 a	-26.1	-26.1	-26.2	---	---	10.4	E	0.17	12.2	-37.9	---	---	724.5	0.031	0.000	18.4	1	1
03/24/06	8:02 a	-26.2	-26.2	-26.2	---	---	11.3	E	0.19	12.2	-38.4	---	---	724.6	0.031	0.000	18.4	1	1
03/24/06	8:03 a	-26.2	-26.2	-26.2	---	---	11.3	E	0.19	12.2	-38.4	---	---	724.6	0.031	0.000	18.4	1	1
03/24/06	8:04 a	-26.2	-26.1	-26.2	---	---	11.3	E	0.19	13.0	-38.4	---	---	724.7	0.031	0.000	18.4	1	1
03/24/06	8:05 a	-26.2	-26.1	-26.2	---	---	11.3	E	0.19	13.0	-38.4	---	---	724.7	0.031	0.000	18.4	1	1
03/24/06	8:06 a	-26.2	-26.1	-26.2	---	---	12.2	E	0.20	13.0	-38.8	---	---	724.6	0.031	0.000	18.4	1	1
03/24/06	8:07 a	-26.2	-26.1	-26.2	---	---	12.2	E	0.20	13.0	-38.8	---	---	724.7	0.031	0.000	18.4	1	1
03/24/06	8:08 a	-26.2	-26.2	-26.2	---	---	12.2	E	0.20	13.9	-38.8	---	---	724.6	0.031	0.000	18.4	1	1
03/24/06	8:09 a	-26.2	-26.2	-26.2	---	---	13.0	E	0.22	15.7	-39.2	---	---	724.6	0.031	0.000	18.4	1	1
03/24/06	8:10 a	-26.1	-26.1	-26.2	---	---	13.0	E	0.22	15.7	-39.2	---	---	724.7	0.031	0.000	18.4	1	1
03/24/06	8:11 a	-26.1	-26.1	-26.1	---	---	11.3	E	0.19	13.9	-38.3	---	---	724.6	0.031	0.000	18.4	1	1
03/24/06	8:12 a	-26.1	-26.1	-26.1	---	---	13.0	E	0.22	14.8	-39.2	---	---	724.6	0.031	0.000	18.4	1	1
03/24/06	8:13 a	-26.1	-26.1	-26.2	---	---	13.0	E	0.22	13.9	-39.2	---	---	724.7	0.031	0.000	18.4	1	1
03/24/06	8:14 a	-26.1	-26.1	-26.1	---	---	12.2	E	0.20	15.7	-38.8	---	---	724.7	0.031	0.000	18.4	1	1
03/24/06	8:15 a	-26.1	-26.1	-26.1	---	---	13.9	E	0.23	16.5	-39.5	---	---	724.8	0.031	0.000	18.3	1	1
03/24/06	8:16 a	-26.1	-26.1	-26.1	---	---	13.9	E	0.23	15.7	-39.5	---	---	724.7	0.031	0.000	18.3	1	1
03/24/06	8:17 a	-26.1	-26.1	-26.1	---	---	13.9	E	0.23	15.7	-39.5	---	---	724.7	0.031	0.000	18.3	1	1
03/24/06	8:18 a	-26.1	-26.1	-26.1	---	---	13.9	E	0.23	15.7	-39.5	---	---	724.7	0.031	0.000	18.3	1	1
03/24/06	8:19 a	-26.1	-26.1	-26.1	---	---	13.9	E	0.23	16.5	-39.5	---	---	724.7	0.031	0.000	18.3	1	1
03/24/06	8:20 a	-26.1	-26.0	-26.1	---	---	13.9	E	0.23	15.7	-39.5	---	---	724.6	0.031	0.000	18.3	1	1
03/24/06	8:21 a	-26.1	-26.0	-26.1	---	---	13.9	E	0.23	16.5	-39.5	---	---	724.7	0.031	0.000	18.3	1	1
03/24/06	8:22 a	-26.0	-26.0	-26.0	---	---	14.8	E	0.25	15.7	-39.8	---	---	724.7	0.031	0.000	18.3	1	1
03/24/06	8:23 a	-26.0	-26.0	-26.1	---	---	13.9	ENE	0.23	14.8	-39.4	---	---	724.7	0.031	0.000	18.3	1	1
03/24/06	8:24 a	-26.0	-26.0	-26.0	---	---	13.9	E	0.23	15.7	-39.4	---	---	724.6	0.031	0.000	18.3	1	1
03/24/06	8:25 a	-26.0	-26.0	-26.0	---	---	14.8	ENE	0.25	15.7	-39.8	---	---	724.6	0.031	0.000	18.3	1	1
03/24/06	8:26 a	-26.0	-26.0	-26.0	---	---	14.8	E	0.25	16.5	-39.8	---	---	724.6	0.031	0.000	18.3	1	1
03/24/06	8:27 a	-26.0	-26.0	-26.0	---	---	13.9	E	0.23	16.5	-39.4	---	---	724.6	0.031	0.000	18.3	1	1
03/24/06	8:28 a	-26.0	-26.0	-26.0	---	---	13.9	E	0.23	15.7	-39.4	---	---	724.6	0.031	0.000	18.3	1	1
03/24/06	8:29 a	-26.0	-26.0	-26.0	---	---	14.8	E	0.25	17.4	-39.8	---	---	724.7	0.031	0.000	18.2	1	1
03/24/06	8:30 a	-26.0	-25.9	-26.0	---	---	13.9	E	0.23	15.7	-39.4	---	---	724.8	0.031	0.000	18.2	1	1
03/24/06	8:31 a	-25.9	-25.9	-25.9	---	---	14.8	E	0.25	17.4	-39.7	---	---	724.7	0.031	0.000	18.3	1	1
03/24/06	8:32 a	-25.9	-25.9	-25.9	---	---	14.8	E	0.25	16.5	-39.7	---	---	724.7	0.031	0.000	18.3	1	1
03/24/06	8:33 a	-25.9	-25.9	-25.9	---	---	13.9	E	0.23	16.5	-39.3	---	---	724.8	0.031	0.000	18.3	1	1
03/24/06	8:34 a	-25.9	-25.9	-25.9	---	---	13.9	E	0.23	15.7	-39.3	---	---	724.7	0.031	0.000	18.3	1	1
03/24/06	8:35 a	-25.9	-25.9	-25.9	---	---	13.9	E	0.23	16.5	-39.3	---	---	724.8	0.031	0.000	18.3	1	1
03/24/06	8:36 a	-25.9	-25.9	-25.9	---	---	12.2	E	0.20	13.9	-38.6	---	---	724.7	0.031	0.000	18.3	1	1
03/24/06	8:37 a	-25.9	-25.9	-25.9	---	---	12.2	E	0.20	14.8	-38.6	---	---	724.7	0.031	0.000	18.3	1	1
03/24/06	8:38 a	-25.9	-25.9	-25.9	---	---	13.9	E	0.23	14.8	-39.3	---	---	724.8	0.031	0.000	18.3	1	1
03/24/06	8:39 a	-25.9	-25.9	-25.9	---	---	12.2	E	0.20	14.8	-38.5	---	---	724.8	0.031	0.000	18.3	1	1
03/24/06	8:40 a	-25.9	-25.9	-25.9	---	---	13.0	E	0.22	16.5	-38.9	---	---	724.7	0.031	0.000	18.3	1	1
03/24/06	8:41 a	-25.9	-25.9	-25.9	---	---	12.2	E	0.20	14.8	-38.5	---	---	724.8	0.031	0.000	18.3	1	1
03/24/06	8:42 a	-25.9	-25.9	-25.9	---	---	13.9	ENE	0.23	16.5	-39.3	---	---	724.8	0.031	0.000	18.3	1	1
03/24/06	8:43 a	-25.9	-25.9	-25.9	---	---	13.9	ENE	0.23	15.7	-39.3	---	---	724.8	0.031	0.000	18.3	1	1
03/24/06	8:44 a	-25.9	-25.9	-25.9	---	---	13.9	E	0.23	15.7	-39.3	---	---	724.8	0.031	0.000	18.3	1	1
03/24/06	8:45 a	-25.9	-25.9	-25.9	---	---	13.9	ENE	0.23	14.8	-39.3	---	---	724.8	0.031	0.000	18.3	1	1
03/24/06	8:46 a	-25.8	-25.8	-25.9	---	---	13.9	E	0.23	16.5	-39.2	---	---	724.9	0.031	0.000	18.3	1	1
03/24/06	8:47 a	-25.8	-25.8	-25.8	---	---	13.9	E	0.23	15.7	-39.2	---	---	724.8	0.031	0.000	18.3	1	1
03/24/06	8:48 a	-25.9	-25.9	-25.9	---	---	14.8	E	0.25	15.7	-39.6	---	---	724.8	0.031	0.000	18.3	1	1
03/24/06	8:49 a	-25.9	-25.9	-25.9	---	---	13.0	E	0.22	14.8	-38.9	---	---	724.8	0.031	0.000	18.3	1	1
03/24/06	8:50 a	-25.8	-25.8	-25.9	---	---	13.9	E	0.23	16.5	-39.2	---	---	724.8	0.031	0.000	18.3	1	1
03/24/06	8:51 a	-25.9	-25.8	-25.9	---	---	13.9	E	0.23	16.5	-39.3	---	---	724.8	0.031	0.000	18.3	1	1
03/24/06	8:52 a	-25.8	-25.8	-25.8	---	---	13.9	E	0.23	16.5	-39.2	---	---	724.8	0.031	0.000	18.3	1	1
03/24/06	8:53 a	-25.8	-25.8	-25.8	---	---	13.9	E	0.23	15.7	-39.2	---	---	724.8	0.031	0.000	18.3	1	1
03/24/06	8:54 a	-25.8	-25.8	-25.9	---	---	12.2	E	0.20	13.9	-38.4	---	---	724.8	0.031	0.000	18.3	1	1
03/24/06	8:55 a	-25.8	-25.8	-25.8	---	---	13.0	E	0.22	13.9	-38.8	---	---	724.7	0.031	0.000	18.3	1	1
03/24/06	8:56 a	-25.8	-25.8	-25.9	---	---	13.0	E	0.22	14.8	-38.8	---	---	724.9	0.031	0.000	18.3	1	1
03/24/06	8:57 a	-25.9	-25.8	-25.9	---	---	12.2	E	0.20	13.9	-38.5	---	---	724.8	0.031	0.000	18.3	1	1
03/24/06	8:58 a	-25.9	-25.8	-25.9	---	---	13.0	E	0.22	14.8	-38.9	---	---	724.8	0.031	0.000	18.3	1	1
03/24/06	8:59 a	-25.9	-25.9	-25.9	---	---	13.0	E	0.22	14.8	-38.9	---	---	724.8	0.031	0.000	18.3	1	1
03/24/06	9:00 a	-25.9	-25.8	-25.9	---	---	12.2	E	0.20	13.9	-38.5	---	---	724.8	0.031	0.000	18.3	1	1
03/24/06	9:01 a	-25.9	-25.8	-25.9	---	---	12.2	E	0.20	14.8	-38.5	---	---	724.8	0.031	0.000	18.3	1	1
03/24/06	9:02 a	-25.9	-25.8	-25.9	---	---	12.2	E	0.20	13.9	-38.5	---	---	724.8	0.031	0.000	18.3	1	1
03/24/06	9:03 a	-25.9	-25.9	-25.9	---	---	11.3	E	0.19	13.0	-38.1	---	---	724.8	0.031	0.000	18.3	1	1
03/24/06	9:04 a	-25.9	-25.8	-25.9	---	---	12.2	E	0.20	14.8	-38.5	---	---	724.8	0.031	0.000	18.3	1	1
03/24/06	9:05 a	-25.9	-25.9	-25.9	---	---	12.2	E	0.20	14.8	-38.5	---	---	724.8	0.031	0.000	18.3	1	1
03/24/06	9:06 a	-25.9	-25.9	-25.9	---	---	13.9	E	0.23	14.8	-39.3	---	---	724.8	0.031	0.000	18.3	1	1
03/24/06	9:07 a	-25.9	-25.9	-25.9	---	---	13.9	E	0.23	15.7	-39.3	---	---	724.8	0.031	0.000	18.3	1	1
03/24/06	9:08 a	-25.9	-25.9	-25.9	---	---	13.9	E	0.23	15.7	-39.3	---	---	724.8	0.031	0.000	18.3	1	1
03/24/06	9:09 a	-25.9	-25.9	-25.9	---	---	13.0	E	0.22	15.7	-38.9	---	---	724.8	0.031	0.000	18.3	1	1
03/24/06	9:10 a	-25.9	-25.9	-25.9	---	---	13.0	E	0.22	14.8	-38.9	---	---	724.9	0.031	0.000	18.3	1	1
03/24/06	9:11 a	-25.9	-25.9	-25.9	---	---	13.0	E	0.22	14.8	-38.9	---	---	724.8	0.031	0.000	18.3	1	1
03/24/06	9:12 a	-25.9	-25.9	-25.9	---	---	12.2	E	0.20	13.9	-38.5	---	---	724.8	0.031	0.000	18.3	1	1
03/24/06	9:13 a	-25.9	-25.9	-25.9	---	---	13.0	E	0.22	14.8	-38.9	---	---	724.8	0.031	0.000	18.3	1	1
03/24/06	9:14 a	-25.9	-25.9	-25.9	---	---	13.9	E	0.23	14.8	-39.3	---	---	724.9	0.031	0.000	18.3	1	1
03/24/06	9:15 a	-25.9	-25.9	-25.9	---	---	13.0	E	0.22	15.7	-38.9	---	---	724.8	0.031	0.000	18.3	1	1
03/24/06	9:16 a	-25.9	-25.9	-25.9	---	---	13.0	E	0.22	15.7	-38.9	---	---	724.8	0.031	0.000	18.3	1	1
03/24/06	9:17 a	-25.9	-25.9	-25.9	---	---	13.0	E	0.22	14.8	-38.9	---	---	724.8	0.031	0.000	18.3	1	1
03/24/06	9:18 a	-25.9	-25.9	-25.9	---	---	13.9	E	0.23	15.7	-39.3	---	---	724.8	0.031	0.000	18.3	1	1
03/24/06	9:19 a	-25.9	-25.9	-25.9	---	---	13.9	E	0.23	15.7	-39.3	---	---	724.8	0.031	0.000	18.3	1	1
03/24/06	9:20 a	-25.9	-25.9	-25.9	---	---	13.0	E	0.22	14.8	-38.9	---	---	724.8	0.031	0.000	18.3	1	1
03/24/06	9:21 a	-25.9	-25.9	-25.9	---	---	13.0	E	0.22	14.8	-38.9	---	---	724.8	0.031	0.000	18.3	1	1
03/24/06	9:22 a	-25.9	-25.9	-25.9	---	---	13.9	E	0.23	16.5	-39.3	---	---	724.8	0.031	0.000	18.3	1	1
03/24/06	9:23 a	-25.9	-25.9	-25.9	---	---	13.9	E	0.23	15.7	-39.3	---	---	724.7	0.031	0.000	18.3	1	1
03/24/06	9:24 a	-25.9	-25.9	-25.9	---	---	13.9	E	0.23	15.7	-39.3	---	---	724.8	0.031	0.000	18.3	1	1
03/24/06	9:25 a	-25.9	-25.9	-25.9	---	---	13.9	E	0.23	15.7	-39.3	---	---	724.8	0.031	0.000	18.3	1	1
03/24/06	9:26 a	-25.9	-25.9	-25.9	---	---	13.0	E	0.22	14.8	-38.9	---	---	724.8	0.031	0.000	18.3	1	1
03/24/06	9:27 a	-25.9	-25.9	-26.0	---	---	13.0	E	0.22	14.8	-38.9	---	---	724.8	0.031	0.000	18.3	1	1
03/24/06	9:28 a	-25.9	-25.9	-26.0	---	---	13.9	E	0.23	14.8	-39.3	---	---	724.8	0.031	0.000	18.3	1	1
03/24/06	9:29 a	-26.0	-25.9	-26.0	---	---	13.9	E	0.23	14.8	-39.4	---	---	724.8	0.031	0.000	18.3	1	1
03/24/06	9:30 a	-26.0	-25.9	-26.0	---	---	13.9	E	0.23	15.7	-39.4	---	---	724.9	0.031	0.000	18.3	1	1
03/24/06	9:31 a	-25.9	-25.9	-26.0	---	---	14.8	E	0.25	16.5	-39.7	---	---	724.9	0.031	0.000	18.3	1	1
03/24/06	9:32 a	-26.0	-25.9	-26.0	---	---	13.9	E	0.23	15.7	-39.4	---	---	724.8	0.031	0.000	18.3	1	1
03/24/06	9:33 a	-26.0	-26.0	-26.0	---	---	13.9	E	0.23	15.7	-39.4	---	---	724.8	0.031	0.000	18.3	1	1
03/24/06	9:34 a	-26.0	-26.0	-26.0	---	---	13.9	E	0.23	15.7	-39.4	---	---	725.0	0.031	0.000	18.3	1	1
03/24/06	9:35 a	-26.0	-26.0	-26.0	---	---	13.9	E	0.23	15.7	-39.4	---	---	724.9	0.031	0.000	18.3	1	1
03/24/06	9:36 a	-26.0	-26.0	-26.1	---	---	14.8	E	0.25	15.7	-39.8	---	---	724.8	0.031	0.000	18.3	1	1
03/24/06	9:37 a	-26.0	-26.0	-26.0	---	---	15.7	E	0.26	17.4	-40.1	---	---	724.9	0.031	0.000	18.3	1	1
03/24/06	9:38 a	-26.0	-26.0	-26.1	---	---	14.8	E	0.25	16.5	-39.8	---	---	724.9	0.031	0.000	18.3	1	1
03/24/06	9:39 a	-26.0	-26.0	-26.1	---	---	13.9	E	0.23	15.7	-39.4	---	---	724.9	0.031	0.000	18.3	1	1
03/24/06	9:40 a	-26.1	-26.0	-26.1	---	---	14.8	E	0.25	16.5	-39.8	---	---	724.9	0.031	0.000	18.3	1	1
03/24/06	9:41 a	-26.1	-26.1	-26.1	---	---	13.9	E	0.23	15.7	-39.5	---	---	724.9	0.031	0.000	18.3	1	1
03/24/06	9:42 a	-26.1	-26.1	-26.1	---	---	13.9	E	0.23	15.7	-39.5	---	---	725.0	0.031	0.000	18.3	1	1
03/24/06	9:43 a	-26.1	-26.1	-26.1	---	---	13.9	E	0.23	16.5	-39.5	---	---	724.9	0.031	0.000	18.3	1	1
03/24/06	9:44 a	-26.1	-26.1	-26.1	---	---	13.9	E	0.23	15.7	-39.5	---	---	724.9	0.031	0.000	18.3	1	1
03/24/06	9:45 a	-26.1	-26.1	-26.1	---	---	13.9	E	0.23	14.8	-39.6	---	---	725.0	0.031	0.000	18.3	1	1
03/24/06	9:46 a	-26.1	-26.1	-26.1	---	---	13.9	E	0.23	15.7	-39.5	---	---	724.9	0.031	0.000	18.3	1	1
03/24/06	9:47 a	-26.1	-26.1	-26.1	---	---	13.9	E	0.23	15.7	-39.6	---	---	724.9	0.031	0.000	18.3	1	1
03/24/06	9:48 a	-26.1	-26.1	-26.1	---	---	13.9	E	0.23	15.7	-39.5	---	---	724.9	0.031	0.000	18.3	1	1
03/24/06	9:49 a	-26.1	-26.1	-26.1	---	---	13.9	E	0.23	15.7	-39.6	---	---	725.0	0.031	0.000	18.3	1	1
03/24/06	9:50 a	-26.1	-26.1	-26.1	---	---	14.8	E	0.25	15.7	-39.9	---	---	724.9	0.031	0.000	18.3	1	1
03/24/06	9:51 a	-26.1	-26.1	-26.1	---	---	13.9	E	0.23	15.7	-39.6	---	---	724.9	0.031	0.000	18.3	1	1
03/24/06	9:52 a	-26.1	-26.1	-26.1	---	---	13.9	E	0.23	15.7	-39.6	---	---	724.9	0.031	0.000	18.3	1	1
03/24/06	9:53 a	-26.1	-26.1	-26.1	---	---	13.0	E	0.22	15.7	-39.2	---	---	725.0	0.031	0.000	18.3	1	1
03/24/06	9:54 a	-26.1	-26.1	-26.1	---	---	13.0	E	0.22	14.8	-39.2	---	---	725.0	0.031	0.000	18.3	1	1
03/24/06	9:55 a	-26.1	-26.1	-26.1	---	---	12.2	E	0.20	14.8	-38.8	---	---	725.1	0.031	0.000	18.3	1	1
03/24/06	9:56 a	-26.1	-26.1	-26.1	---	---	12.2	E	0.20	13.9	-38.7	---	---	725.1	0.031	0.000	18.3	1	1
03/24/06	9:57 a	-26.1	-26.1	-26.1	---	---	13.0	E	0.22	13.9	-39.2	---	---	725.1	0.031	0.000	18.3	1	1
03/24/06	9:58 a	-26.1	-26.1	-26.1	---	---	13.0	E	0.22	13.9	-39.2	---	---	725.1	0.031	0.000	18.3	1	1
03/24/06	9:59 a	-26.1	-26.1	-26.1	---	---	12.2	E	0.20	13.9	-38.8	---	---	725.1	0.031	0.000	18.3	1	1
03/24/06	10:00 a	-26.1	-26.1	-26.1	---	---	13.0	E	0.22	13.9	-39.2	---	---	725.2	0.031	0.000	18.3	1	1
03/24/06	10:01 a	-26.1	-26.1	-26.2	---	---	13.0	E	0.22	13.9	-39.2	---	---	725.0	0.031	0.000	18.3	1	1
03/24/06	10:02 a	-26.1	-26.1	-26.2	---	---	13.0	E	0.22	13.9	-39.2	---	---	725.1	0.031	0.000	18.3	1	1
03/24/06	10:03 a	-26.1	-26.1	-26.2	---	---	12.2	E	0.20	13.0	-38.8	---	---	725.1	0.031	0.000	18.3	1	1
03/24/06	10:04 a	-26.2	-26.2	-26.2	---	---	12.2	E	0.20	13.0	-38.8	---	---	725.1	0.031	0.000	18.3	1	1
03/24/06	10:05 a	-26.2	-26.2	-26.2	---	---	12.2	E	0.20	13.0	-38.8	---	---	725.1	0.031	0.000	18.3	1	1
03/24/06	10:06 a	-26.2	-26.2	-26.2	---	---	12.2	E	0.20	13.9	-38.8	---	---	725.1	0.031	0.000	18.3	1	1
03/24/06	10:07 a	-26.2	-26.2	-26.2	---	---	12.2	ENE	0.20	13.9	-38.8	---	---	725.1	0.031	0.000	18.3	1	1
03/24/06	10:08 a	-26.2	-26.2	-26.2	---	---	11.3	ENE	0.19	13.0	-38.4	---	---	725.1	0.031	0.000	18.3	1	1
03/24/06	10:09 a	-26.2	-26.2	-26.2	---	---	11.3	ENE	0.19	12.2	-38.4	---	---	725.2	0.031	0.000	18.3	1	1
03/24/06	10:10 a	-26.2	-26.2	-26.2	---	---	11.3	ENE	0.19	13.0	-38.4	---	---	725.1	0.031	0.000	18.3	1	1
03/24/06	10:11 a	-26.2	-26.2	-26.2	---	---	11.3	ENE	0.19	12.2	-38.5	---	---	725.3	0.031	0.000	18.3	1	1
03/24/06	10:12 a	-26.2	-26.2	-26.2	---	---	12.2	ENE	0.20	13.0	-38.9	---	---	725.2	0.031	0.000	18.3	1	1
03/24/06	10:13 a	-26.2	-26.2	-26.2	---	---	12.2	ENE	0.20	13.0	-38.9	---	---	725.2	0.031	0.000	18.3	1	1
03/24/06	10:14 a	-26.2	-26.2	-26.2	---	---	12.2	ENE	0.20	13.9	-38.9	---	---	725.2	0.031	0.000	18.3	1	1
03/24/06	10:15 a	-26.2	-26.2	-26.3	---	---	13.0	ENE	0.22	13.9	-39.3	---	---	725.1	0.031	0.000	18.3	1	1
03/24/06	10:16 a	-26.3	-26.2	-26.3	---	---	13.0	ENE	0.22	13.9	-39.4	---	---	725.1	0.031	0.000	18.3	1	1
03/24/06	10:17 a	-26.3	-26.3	-26.3	---	---	13.0	ENE	0.22	13.9	-39.4	---	---	725.2	0.031	0.000	18.3	1	1
03/24/06	10:18 a	-26.2	-26.2	-26.2	---	---	13.0	ENE	0.22	14.8	-39.3	---	---	725.2	0.031	0.000	18.3	1	1
03/24/06	10:19 a	-26.2	-26.2	-26.3	---	---	13.9	ENE	0.23	14.8	-39.7	---	---	725.1	0.031	0.000	18.3	1	1
03/24/06	10:20 a	-26.3	-26.3	-26.3	---	---	13.0	ENE	0.22	13.9	-39.4	---	---	725.2	0.031	0.000	18.3	1	1
03/24/06	10:21 a	-26.3	-26.3	-26.3	---	---	13.0	ENE	0.22	13.0	-39.4	---	---	725.1	0.031	0.000	18.3	1	1
03/24/06	10:22 a	-26.3	-26.3	-26.3	---	---	13.0	ENE	0.22	14.8	-39.4	---	---	725.1	0.031	0.000	18.3	1	1
03/24/06	10:23 a	-26.3	-26.3	-26.3	---	---	13.0	ENE	0.22	14.8	-39.4	---	---	725.2	0.031	0.000	18.3	1	1
03/24/06	10:24 a	-26.3	-26.3	-26.3	---	---	13.0	ENE	0.22	13.9	-39.4	---	---	725.1	0.031	0.000	18.3	1	1
03/24/06	10:25 a	-26.3	-26.3	-26.3	---	---	13.0	ENE	0.22	13.9	-39.4	---	---	725.2	0.031	0.000	18.3	1	1
03/24/06	10:26 a	-26.3	-26.3	-26.3	---	---	13.0	ENE	0.22	13.9	-39.4	---	---	725.2	0.031	0.000	18.3	1	1
03/24/06	10:27 a	-26.3	-26.3	-26.3	---	---	12.2	ENE	0.20	13.0	-39.1	---	---	725.2	0.031	0.000	18.3	1	1
03/24/06	10:28 a	-26.3	-26.3	-26.4	---	---	13.0	ENE	0.22	13.9	-39.4	---	---	725.2	0.031	0.000	18.3	1	1
03/24/06	10:29 a	-26.3	-26.3	-26.3	---	---	13.9	ENE	0.23	14.8	-39.8	---	---	725.2	0.031	0.000	18.3	1	1
03/24/06	10:30 a	-26.3	-26.3	-26.3	---	---	13.9	ENE	0.23	14.8	-39.8	---	---	725.2	0.031	0.000	18.3	1	1
03/24/06	10:31 a	-26.3	-26.3	-26.3	---	---	13.0	ENE	0.22	13.9	-39.4	---	---	725.2	0.031	0.000	18.3	1	1
03/24/06	10:32 a	-26.4	-26.3	-26.4	---	---	13.9	ENE	0.23	14.8	-39.9	---	---	725.2	0.031	0.000	18.3	1	1
03/24/06	10:33 a	-26.4	-26.3	-26.4	---	---	13.9	ENE	0.23	14.8	-39.9	---	---	725.2	0.031	0.000	18.3	1	1
03/24/06	10:34 a	-26.3	-26.3	-26.3	---	---	13.9	ENE	0.23	14.8	-39.8	---	---	725.1	0.031	0.000	18.3	1	1
03/24/06	10:35 a	-26.3	-26.3	-26.3	---	---	13.9	ENE	0.23	14.8	-39.8	---	---	725.2	0.031	0.000	18.3	1	1
03/24/06	10:36 a	-26.4	-26.3	-26.4	---	---	14.8	ENE	0.25	15.7	-40.3	---	---	725.2	0.031	0.000	18.3	1	1
03/24/06	10:37 a	-26.3	-26.3	-26.3	---	---	14.8	ENE	0.25	15.7	-40.2	---	---	725.1	0.031	0.000	18.3	1	1
03/24/06	10:38 a	-26.3	-26.3	-26.3	---	---	14.8	ENE	0.25	15.7	-40.2	---	---	725.1	0.031	0.000	18.3	1	1
03/24/06	10:39 a	-26.3	-26.3	-26.3	---	---	14.8	ENE	0.25	15.7	-40.2	---	---	725.2	0.031	0.000	18.3	1	1
03/24/06	10:40 a	-26.3	-26.3	-26.3	---	---	14.8	ENE	0.25	15.7	-40.2	---	---	725.2	0.031	0.000	18.3	1	1
03/24/06	10:41 a	-26.3	-26.3	-26.3	---	---	14.8	ENE	0.25	15.7	-40.1	---	---	725.2	0.031	0.000	18.3	1	1
03/24/06	10:42 a	-26.3	-26.3	-26.3	---	---	14.8	ENE	0.25	16.5	-40.2	---	---	725.2	0.031	0.000	18.3	1	1
03/24/06	10:43 a	-26.3	-26.3	-26.3	---	---	15.7	ENE	0.26	15.7	-40.4	---	---	725.2	0.031	0.000	18.3	1	1
03/24/06	10:44 a	-26.3	-26.3	-26.3	---	---	15.7	ENE	0.26	15.7	-40.6	---	---	725.2	0.031	0.000	18.3	1	1
03/24/06	10:45 a	-26.3	-26.3	-26.3	---	---	15.7	ENE	0.26	16.5	-40.4	---	---	725.2	0.031	0.000	18.3	1	1
03/24/06	10:46 a	-26.3	-26.3	-26.3	---	---	14.8	ENE	0.25	16.5	-40.1	---	---	725.3	0.031	0.000	18.3	1	1
03/24/06	10:47 a	-26.3	-26.3	-26.3	---	---	14.8	ENE	0.25	16.5	-40.1	---	---	725.1	0.031	0.000	18.3	1	1
03/24/06	10:48 a	-26.3	-26.3	-26.3	---	---	14.8	ENE	0.25	14.8	-40.1	---	---	725.2	0.031	0.000	18.3	1	1
03/24/06	10:49 a	-26.2	-26.2	-26.3	---	---	14.8	ENE	0.25	14.8	-40.1	---	---	725.2	0.031	0.000	18.2	1	1
03/24/06	10:50 a	-26.2	-26.2	-26.2	---	---	13.9	ENE	0.23	14.8	-39.7	---	---	725.2	0.031	0.000	18.2	1	1
03/24/06	10:51 a	-26.2	-26.2	-26.2	---	---	14.8	ENE	0.25	15.7	-40.1	---	---	725.2	0.031	0.000	18.2	1	1
03/24/06	10:52 a	-26.2	-26.2	-26.2	---	---	14.8	ENE	0.25	15.7	-40.1	---	---	725.2	0.031	0.000	18.2	1	1
03/24/06	10:53 a	-26.2	-26.2	-26.2	---	---	14.8	ENE	0.25	14.8	-40.0	---	---	725.3	0.031	0.000	18.2	1	1
03/24/06	10:54 a	-26.2	-26.2	-26.2	---	---	14.8	ENE	0.25	15.7	-40.0	---	---	725.2	0.031	0.000	18.2	1	1
03/24/06	10:55 a	-26.2	-26.2	-26.2	---	---	14.8	ENE	0.25	15.7	-40.1	---	---	725.2	0.031	0.000	18.2	1	1
03/24/06	10:56 a	-26.2	-26.1	-26.2	---	---	13.9	ENE	0.23	15.7	-39.6	---	---	725.3	0.031	0.000	18.2	1	1
03/24/06	10:57 a	-26.1	-26.1	-26.1	---	---	13.9	ENE	0.23	14.8	-39.6	---	---	725.3	0.031	0.000	18.2	1	1
03/24/06	10:58 a	-26.1	-26.1	-26.1	---	---	13.0	ENE	0.22	13.9	-39.2	---	---	725.3	0.031	0.000	18.2	1	1
03/24/06	10:59 a	-26.1	-26.1	-26.1	---	---	13.0	ENE	0.22	13.9	-39.2	---	---	725.3	0.031	0.000	18.2	1	1
03/24/06	11:00 a	-26.1	-26.1	-26.1	---	---	13.0	ENE	0.22	13.9	-39.2	---	---	725.3	0.031	0.000	18.2	1	1
03/24/06	11:01 a	-26.1	-26.1	-26.1	---	---	12.2	ENE	0.20	13.0	-38.8	---	---	725.3	0.031	0.000	18.2	1	1
03/24/06	11:02 a	-26.1	-26.1	-26.1	---	---	12.2	ENE	0.20	13.0	-38.7	---	---	725.4	0.031	0.000	18.2	1	1
03/24/06	11:03 a	-26.1	-26.1	-26.1	---	---	12.2	ENE	0.20	13.9	-38.7	---	---	725.3	0.031	0.000	18.2	1	1
03/24/06	11:04 a	-26.0	-26.0	-26.0	---	---	13.0	ENE	0.22	13.9	-39.1	---	---	725.3	0.031	0.000	18.2	1	1
03/24/06	11:05 a	-26.0	-26.0	-26.0	---	---	13.0	ENE	0.22	13.9	-39.1	---	---	725.4	0.031	0.000	18.2	1	1
03/24/06	11:06 a	-26.0	-26.0	-26.0	---	---	13.0	ENE	0.22	13.9	-39.1	---	---	725.3	0.031	0.000	18.2	1	1
03/24/06	11:07 a	-25.9	-25.9	-26.0	---	---	13.0	ENE	0.22	13.0	-38.9	---	---	725.2	0.031	0.000	18.2	1	1
03/24/06	11:08 a	-25.9	-25.9	-25.9	---	---	12.2	ENE	0.20	13.0	-38.6	---	---	725.3	0.031	0.000	18.2	1	1
03/24/06	11:09 a	-25.9	-25.9	-25.9	---	---	12.2	ENE	0.20	13.0	-38.6	---	---	725.3	0.031	0.000	18.2	1	1
03/24/06	11:10 a	-25.9	-25.9	-25.9	---	---	12.2	ENE	0.20	13.0	-38.6	---	---	725.4	0.031	0.000	18.2	1	1
03/24/06	11:11 a	-25.9	-25.9	-25.9	---	---	11.3	ENE	0.19	12.2	-38.1	---	---	725.4	0.031	0.000	18.2	1	1
03/24/06	11:12 a	-25.8	-25.8	-25.9	---	---	11.3	ENE	0.19	11.3	-38.0	---	---	725.4	0.031	0.000	18.2	1	1
03/24/06	11:13 a	-25.8	-25.8	-25.8	---	---	11.3	ENE	0.19	11.3	-38.0	---	---	725.4	0.031	0.000	18.2	1	1
03/24/06	11:14 a	-25.8	-25.8	-25.8	---	---	11.3	ENE	0.19	12.2	-38.0	---	---	725.3	0.031	0.000	18.2	1	1
03/24/06	11:15 a	-25.8	-25.8	-25.8	---	---	12.2	ENE	0.20	13.0	-38.3	---	---	725.3	0.031	0.000	18.2	1	1
03/24/06	11:16 a	-25.8	-25.8	-25.8	---	---	12.2	ENE	0.20	13.0	-38.3	---	---	725.4	0.031	0.000	18.2	1	1
03/24/06	11:17 a	-25.8	-25.7	-25.8	---	---	12.2	ENE	0.20	13.9	-38.3	---	---	725.4	0.031	0.000	18.2	1	1
03/24/06	11:18 a	-25.7	-25.7	-25.7	---	---	12.2	ENE	0.20	13.0	-38.3	---	---	725.4	0.031	0.000	18.2	1	1
03/24/06	11:19 a	-25.7	-25.7	-25.7	---	---	12.2	ENE	0.20	13.0	-38.3	---	---	725.4	0.031	0.000	18.2	1	1
03/24/06	11:20 a	-25.7	-25.7	-25.7	---	---	12.2	ENE	0.20	13.0	-38.3	---	---	725.4	0.031	0.000	18.2	1	1
03/24/06	11:21 a	-25.7	-25.7	-25.7	---	---	11.3	ENE	0.19	12.2	-37.9	---	---	725.4	0.031	0.000	18.2	1	1
03/24/06	11:22 a	-25.7	-25.7	-25.7	---	---	11.3	ENE	0.19	12.2	-37.8	---	---	725.4	0.031	0.000	18.2	1	1
03/24/06	11:23 a	-25.6	-25.6	-25.6	---	---	11.3	ENE	0.19	12.2	-37.7	---	---	725.4	0.031	0.000	18.2	1	1
03/24/06	11:24 a	-25.6	-25.6	-25.6	---	---	12.2	ENE	0.20	13.0	-38.2	---	---	725.4	0.031	0.000	18.2	1	1
03/24/06	11:25 a	-25.6	-25.6	-25.6	---	---	12.2	ENE	0.20	13.0	-38.2	---	---	725.4	0.031	0.000	18.2	1	1
03/24/06	11:26 a	-25.6	-25.6	-25.6	---	---	11.3	ENE	0.19	13.0	-37.7	---	---	725.4	0.030	0.000	18.2	1	1
03/24/06	11:27 a	-25.6	-25.6	-25.6	---	---	11.3	ENE	0.19	12.2	-37.7	---	---	725.4	0.030	0.000	18.2	1	1
03/24/06	11:28 a	-25.6	-25.5	-25.6	---	---	11.3	ENE	0.19	12.2	-37.7	---	---	725.4	0.030	0.000	18.2	1	1
03/24/06	11:29 a	-25.5	-25.5	-25.5	---	---	11.3	ENE	0.19	12.2	-37.6	---	---	725.4	0.030	0.000	18.2	1	1
03/24/06	11:30 a	-25.5	-25.4	-25.5	---	---	11.3	ENE	0.19	13.0	-37.6	---	---	725.4	0.030	0.000	18.2	1	1
03/24/06	11:31 a	-25.5	-25.4	-25.5	---	---	11.3	ENE	0.19	12.2	-37.6	---	---	725.4	0.030	0.000	18.2	1	1
03/24/06	11:32 a	-25.4	-25.4	-25.4	---	---	11.3	ENE	0.19	13.0	-37.5	---	---	725.4	0.030	0.000	18.2	1	1
03/24/06	11:33 a	-25.4	-25.4	-25.4	---	---	11.3	ENE	0.19	12.2	-37.5	---	---	725.4	0.030	0.000	18.2	1	1
03/24/06	11:34 a	-25.4	-25.4	-25.4	---	---	11.3	ENE	0.19	11.3	-37.4	---	---	725.3	0.030	0.000	18.2	1	1
03/24/06	11:35 a	-25.4	-25.4	-25.4	---	---	11.3	ENE	0.19	12.2	-37.4	---	---	725.5	0.030	0.000	18.2	1	1
03/24/06	11:36 a	-25.4	-25.3	-25.4	---	---	11.3	ENE	0.19	12.2	-37.4	---	---	725.3	0.030	0.000	18.2	1	1
03/24/06	11:37 a	-25.3	-25.3	-25.4	---	---	11.3	ENE	0.19	11.3	-37.4	---	---	725.3	0.030	0.000	18.2	1	1
03/24/06	11:38 a	-25.3	-25.3	-25.3	---	---	11.3	ENE	0.19	12.2	-37.4	---	---	725.4	0.030	0.000	18.2	1	1
03/24/06	11:39 a	-25.3	-25.3	-25.3	---	---	11.3	ENE	0.19	12.2	-37.4	---	---	725.4	0.030	0.000	18.2	1	1
03/24/06	11:40 a	-25.3	-25.3	-25.3	---	---	11.3	ENE	0.19	12.2	-37.3	---	---	725.4	0.030	0.000	18.2	1	1
03/24/06	11:41 a	-25.3	-25.3	-25.3	---	---	11.3	ENE	0.19	12.2	-37.3	---	---	725.5	0.030	0.000	18.2	1	1
03/24/06	11:42 a	-25.2	-25.2	-25.3	---	---	11.3	ENE	0.19	12.2	-37.2	---	---	725.4	0.030	0.000	18.2	1	1
03/24/06	11:43 a	-25.2	-25.2	-25.2	---	---	11.3	ENE	0.19	11.3	-37.2	---	---	725.5	0.030	0.000	18.2	1	1
03/24/06	11:44 a	-25.2	-25.2	-25.2	---	---	11.3	ENE	0.19	12.2	-37.2	---	---	725.4	0.030	0.000	18.2	1	1
03/24/06	11:45 a	-25.2	-25.2	-25.2	---	---	12.2	ENE	0.20	13.0	-37.7	---	---	725.4	0.030	0.000	18.2	1	1
03/24/06	11:46 a	-25.2	-25.2	-25.2	---	---	12.2	ENE	0.20	13.0	-37.6	---	---	725.4	0.030	0.000	18.2	1	1
03/24/06	11:47 a	-25.2	-25.2	-25.2	---	---	12.2	ENE	0.20	13.0	-37.6	---	---	725.4	0.030	0.000	18.2	1	1
03/24/06	11:48 a	-25.2	-25.2	-25.2	---	---	12.2	ENE	0.20	12.2	-37.6	---	---	725.4	0.030	0.000	18.2	1	1
03/24/06	11:49 a	-25.2	-25.1	-25.2	---	---	12.2	ENE	0.20	13.0	-37.6	---	---	725.4	0.030	0.000	18.3	1	1
03/24/06	11:50 a	-25.1	-25.1	-25.2	---	---	12.2	ENE	0.20	12.2	-37.5	---	---	725.4	0.030	0.000	18.2	1	1
03/24/06	11:51 a	-25.1	-25.1	-25.2	---	---	12.2	ENE	0.20	12.2	-37.5	---	---	725.4	0.030	0.000	18.2	1	1
03/24/06	11:52 a	-25.1	-25.1	-25.1	---	---	12.2	ENE	0.20	12.2	-37.5	---	---	725.4	0.030	0.000	18.2	1	1
03/24/06	11:53 a	-25.1	-25.1	-25.1	---	---	12.2	ENE	0.20	12.2	-37.5	---	---	725.4	0.030	0.000	18.2	1	1
03/24/06	11:54 a	-25.1	-25.1	-25.1	---	---	11.3	ENE	0.19	12.2	-37.0	---	---	725.4	0.030	0.000	18.2	1	1
03/24/06	11:55 a	-25.1	-25.1	-25.1	---	---	12.2	ENE	0.20	12.2	-37.4	---	---	725.4	0.030	0.000	18.2	1	1
03/24/06	11:56 a	-25.1	-25.1	-25.1	---	---	12.2	ENE	0.20	12.2	-37.4	---	---	725.5	0.030	0.000	18.2	1	1
03/24/06	11:57 a	-25.1	-25.0	-25.1	---	---	12.2	ENE	0.20	12.2	-37.4	---	---	725.4	0.030	0.000	18.2	1	1
03/24/06	11:58 a	-25.1	-25.0	-25.1	---	---	12.2	ENE	0.20	12.2	-37.4	---	---	725.4	0.030	0.000	18.2	1	1
03/24/06	11:59 a	-25.0	-25.0	-25.1	---	---	12.2	ENE	0.20	12.2	-37.3	---	---	725.4	0.030	0.000	18.2	1	1
03/24/06	12:00 p	-25.0	-25.0	-25.0	---	---	11.3	ENE	0.19	12.2	-36.9	---	---	725.4	0.030	0.000	18.2	1	1
03/24/06	12:01 p	-25.0	-24.9	-25.0	---	---	11.3	ENE	0.19	12.2	-36.9	---	---	725.4	0.030	0.000	18.3	1	1
03/24/06	12:02 p	-25.0	-24.9	-25.0	---	---	11.3	ENE	0.19	12.2	-36.9	---	---	725.4	0.030	0.000	18.3	1	1
03/24/06	12:03 p	-24.9	-24.9	-24.9	---	---	11.3	ENE	0.19	12.2	-36.9	---	---	725.4	0.030	0.000	18.3	1	1
03/24/06	12:04 p	-24.9	-24.9	-24.9	---	---	11.3	NE	0.19	12.2	-36.9	---	---	725.4	0.030	0.000	18.3	1	1
03/24/06	12:05 p	-24.9	-24.9	-24.9	---	---	11.3	NE	0.19	12.2	-36.9	---	---	725.5	0.030	0.000	18.3	1	1
03/24/06	12:06 p	-24.9	-24.9	-24.9	---	---	11.3	NE	0.19	11.3	-36.9	---	---	725.5	0.030	0.000	18.3	1	1
03/24/06	12:07 p	-24.9	-24.9	-24.9	---	---	11.3	NE	0.19	11.3	-36.9	---	---	725.5	0.030	0.000	18.2	1	1
03/24/06	12:08 p	-24.9	-24.9	-24.9	---	---	11.3	NE	0.19	12.2	-36.9	---	---	725.5	0.030	0.000	18.3	1	1
03/24/06	12:09 p	-24.9	-24.9	-24.9	---	---	11.3	NE	0.19	12.2	-36.8	---	---	725.5	0.030	0.000	18.3	1	1
03/24/06	12:10 p	-24.9	-24.9	-24.9	---	---	11.3	NE	0.19	12.2	-36.9	---	---	725.5	0.030	0.000	18.2	1	1
03/24/06	12:11 p	-24.9	-24.9	-24.9	---	---	12.2	NE	0.20	12.2	-37.2	---	---	725.4	0.030	0.000	18.3	1	1
03/24/06	12:12 p	-24.9	-24.9	-24.9	---	---	12.2	NE	0.20	13.0	-37.2	---	---	725.4	0.030	0.000	18.2	1	1
03/24/06	12:13 p	-24.9	-24.9	-24.9	---	---	12.2	NE	0.20	13.0	-37.2	---	---	725.4	0.030	0.000	18.2	1	1
03/24/06	12:14 p	-24.9	-24.8	-24.9	---	---	12.2	NE	0.20	13.0	-37.2	---	---	725.4	0.030	0.000	18.2	1	1
03/24/06	12:15 p	-24.8	-24.8	-24.8	---	---	12.2	NE	0.20	13.0	-37.2	---	---	725.5	0.030	0.000	18.3	1	1
03/24/06	12:16 p	-24.8	-24.8	-24.9	---	---	11.3	NE	0.19	12.2	-36.7	---	---	725.4	0.030	0.000	18.3	1	1
03/24/06	12:17 p	-24.8	-24.8	-24.8	---	---	11.3	NE	0.19	12.2	-36.7	---	---	725.4	0.030	0.000	18.3	1	1
03/24/06	12:18 p	-24.8	-24.8	-24.8	---	---	11.3	NE	0.19	12.2	-36.7	---	---	725.4	0.030	0.000	18.3	1	1
03/24/06	12:19 p	-24.8	-24.8	-24.8	---	---	11.3	NE	0.19	12.2	-36.7	---	---	725.5	0.030	0.000	18.3	1	1
03/24/06	12:20 p	-24.8	-24.8	-24.8	---	---	12.2	NE	0.20	12.2	-37.1	---	---	725.6	0.030	0.000	18.3	1	1
03/24/06	12:21 p	-24.8	-24.8	-24.8	---	---	11.3	NE	0.19	12.2	-36.7	---	---	725.5	0.030	0.000	18.3	1	1
03/24/06	12:22 p	-24.8	-24.8	-24.8	---	---	11.3	NE	0.19	12.2	-36.7	---	---	725.6	0.030	0.000	18.3	1	1
03/24/06	12:23 p	-24.8	-24.8	-24.8	---	---	11.3	NE	0.19	12.2	-36.7	---	---	725.5	0.030	0.000	18.3	1	1
03/24/06	12:24 p	-24.8	-24.8	-24.8	---	---	10.4	NE	0.17	11.3	-36.2	---	---	725.5	0.030	0.000	18.3	1	1
03/24/06	12:25 p	-24.7	-24.7	-24.8	---	---	11.3	NE	0.19	12.2	-36.6	---	---	725.5	0.030	0.000	18.3	1	1
03/24/06	12:26 p	-24.7	-24.7	-24.7	---	---	11.3	NE	0.19	12.2	-36.6	---	---	725.5	0.030	0.000	18.3	1	1
03/24/06	12:27 p	-24.7	-24.7	-24.8	---	---	11.3	NE	0.19	12.2	-36.6	---	---	725.6	0.030	0.000	18.3	1	1
03/24/06	12:28 p	-24.7	-24.7	-24.7	---	---	11.3	NE	0.19	12.2	-36.6	---	---	725.5	0.030	0.000	18.3	1	1
03/24/06	12:29 p	-24.7	-24.7	-24.7	---	---	11.3	NE	0.19	12.2	-36.6	---	---	725.5	0.030	0.000	18.3	1	1
03/24/06	12:30 p	-24.7	-24.7	-24.7	---	---	11.3	NE	0.19	12.2	-36.6	---	---	725.4	0.030	0.000	18.3	1	1
03/24/06	12:31 p	-24.7	-24.7	-24.7	---	---	11.3	NE	0.19	12.2	-36.5	---	---	725.5	0.030	0.000	18.3	1	1
03/24/06	12:32 p	-24.7	-24.7	-24.7	---	---	12.2	NE	0.20	12.2	-36.9	---	---	725.6	0.030	0.000	18.3	1	1
03/24/06	12:33 p	-24.7	-24.7	-24.7	---	---	11.3	NE	0.19	12.2	-36.5	---	---	725.5	0.030	0.000	18.3	1	1
03/24/06	12:34 p	-24.7	-24.6	-24.7	---	---	11.3	NE	0.19	12.2	-36.5	---	---	725.5	0.030	0.000	18.3	1	1
03/24/06	12:35 p	-24.6	-24.6	-24.6	---	---	10.4	NE	0.17	12.2	-36.0	---	---	725.4	0.030	0.000	18.3	1	1
03/24/06	12:36 p	-24.6	-24.6	-24.6	---	---	12.2	NE	0.20	13.0	-36.9	---	---	725.4	0.030	0.000	18.3	1	1
03/24/06	12:37 p	-24.6	-24.6	-24.6	---	---	12.2	NE	0.20	13.0	-36.9	---	---	725.5	0.030	0.000	18.3	1	1
03/24/06	12:38 p	-24.6	-24.6	-24.6	---	---	12.2	NE	0.20	13.0	-36.9	---	---	725.4	0.030	0.000	18.3	1	1
03/24/06	12:39 p	-24.6	-24.6	-24.6	---	---	12.2	NE	0.20	13.0	-36.9	---	---	725.6	0.030	0.000	18.3	1	1
03/24/06	12:40 p	-24.6	-24.6	-24.6	---	---	11.3	NE	0.19	12.2	-36.4	---	---	725.5	0.030	0.000	18.3	1	1
03/24/06	12:41 p	-24.6	-24.6	-24.6	---	---	11.3	NE	0.19	12.2	-36.4	---	---	725.5	0.030	0.000	18.3	1	1
03/24/06	12:42 p	-24.6	-24.6	-24.6	---	---	10.4	NE	0.17	11.3	-35.9	---	---	725.5	0.030	0.000	18.3	1	1
03/24/06	12:43 p	-24.6	-24.6	-24.6	---	---	10.4	NE	0.17	11.3	-35.9	---	---	725.4	0.030	0.000	18.3	1	1
03/24/06	12:44 p	-24.6	-24.5	-24.6	---	---	10.4	NE	0.17	10.4	-35.9	---	---	725.5	0.030	0.000	18.3	1	1
03/24/06	12:45 p	-24.6	-24.5	-24.6	---	---	10.4	NE	0.17	11.3	-35.9	---	---	725.5	0.030	0.000	18.3	1	1
03/24/06	12:46 p	-24.5	-24.5	-24.5	---	---	10.4	NE	0.17	11.3	-35.9	---	---	725.5	0.030	0.000	18.3	1	1
03/24/06	12:47 p	-24.5	-24.5	-24.5	---	---	10.4	NE	0.17	11.3	-35.9	---	---	725.5	0.030	0.000	18.3	1	1
03/24/06	12:48 p	-24.5	-24.5	-24.5	---	---	10.4	NE	0.17	11.3	-35.9	---	---	725.5	0.030	0.000	18.3	1	1
03/24/06	12:49 p	-24.5	-24.4	-24.5	---	---	10.4	NE	0.17	11.3	-35.9	---	---	725.5	0.030	0.000	18.3	1	1
03/24/06	12:50 p	-24.4	-24.4	-24.5	---	---	11.3	NE	0.19	12.2	-36.2	---	---	725.6	0.030	0.000	18.3	1	1
03/24/06	12:51 p	-24.4	-24.4	-24.4	---	---	10.4	NE	0.17	11.3	-35.8	---	---	725.5	0.030	0.000	18.3	1	1
03/24/06	12:52 p	-24.4	-24.4	-24.4	---	---	9.6	NE	0.16	11.3	-35.3	---	---	725.6	0.030	0.000	18.3	1	1
03/24/06	12:53 p	-24.4	-24.4	-24.4	---	---	10.4	NE	0.17	12.2	-35.8	---	---	725.6	0.030	0.000	18.3	1	1
03/24/06	12:54 p	-24.4	-24.4	-24.4	---	---	10.4	NE	0.17	11.3	-35.8	---	---	725.5	0.030	0.000	18.3	1	1
03/24/06	12:55 p	-24.4	-24.4	-24.4	---	---	10.4	NE	0.17	11.3	-35.7	---	---	725.5	0.030	0.000	18.3	1	1
03/24/06	12:56 p	-24.4	-24.4	-24.4	---	---	11.3	NE	0.19	11.3	-36.2	---	---	725.6	0.030	0.000	18.3	1	1
03/24/06	12:57 p	-24.4	-24.3	-24.4	---	---	11.3	NE	0.19	12.2	-36.2	---	---	725.6	0.030	0.000	18.3	1	1
03/24/06	12:58 p	-24.4	-24.3	-24.4	---	---	10.4	NE	0.17	11.3	-35.7	---	---	725.5	0.030	0.000	18.3	1	1
03/24/06	12:59 p	-24.3	-24.3	-24.3	---	---	11.3	NE	0.19	12.2	-36.1	---	---	725.5	0.030	0.000	18.3	1	1
03/24/06	1:00 p	-24.3	-24.3	-24.3	---	---	11.3	NE	0.19	12.2	-36.1	---	---	725.6	0.030	0.000	18.3	1	1
03/24/06	1:01 p	-24.3	-24.3	-24.3	---	---	10.4	NE	0.17	11.3	-35.7	---	---	725.5	0.030	0.000	18.3	1	1
03/24/06	1:02 p	-24.3	-24.3	-24.3	---	---	11.3	NE	0.19	12.2	-36.1	---	---	725.5	0.030	0.000	18.3	1	1
03/24/06	1:03 p	-24.3	-24.3	-24.3	---	---	10.4	NE	0.17	11.3	-35.7	---	---	725.6	0.030	0.000	18.3	1	1
03/24/06	1:04 p	-24.3	-24.3	-24.3	---	---	11.3	NE	0.19	12.2	-36.1	---	---	725.5	0.030	0.000	18.3	1	1
03/24/06	1:05 p	-24.3	-24.3	-24.3	---	---	11.3	NE	0.19	12.2	-36.1	---	---	725.6	0.030	0.000	18.3	1	1
03/24/06	1:06 p	-24.3	-24.3	-24.3	---	---	11.3	NE	0.19	11.3	-36.1	---	---	725.6	0.030	0.000	18.3	1	1
03/24/06	1:07 p	-24.3	-24.3	-24.3	---	---	11.3	NE	0.19	12.2	-36.1	---	---	725.6	0.030	0.000	18.3	1	1
03/24/06	1:08 p	-24.3	-24.2	-24.3	---	---	10.4	NE	0.17	12.2	-35.6	---	---	725.5	0.030	0.000	18.3	1	1
03/24/06	1:09 p	-24.2	-24.2	-24.2	---	---	10.4	NE	0.17	11.3	-35.6	---	---	725.6	0.030	0.000	18.3	1	1
03/24/06	1:10 p	-24.2	-24.2	-24.2	---	---	10.4	NE	0.17	11.3	-35.6	---	---	725.6	0.030	0.000	18.3	1	1
03/24/06	1:11 p	-24.2	-24.2	-24.2	---	---	11.3	NE	0.19	12.2	-35.9	---	---	725.5	0.030	0.000	18.3	1	1
03/24/06	1:12 p	-24.2	-24.2	-24.2	---	---	11.3	NE	0.19	12.2	-35.9	---	---	725.5	0.030	0.000	18.3	1	1
03/24/06	1:13 p	-24.2	-24.2	-24.2	---	---	11.3	NE	0.19	12.2	-35.9	---	---	725.6	0.030	0.000	18.3	1	1
03/24/06	1:14 p	-24.2	-24.2	-24.2	---	---	12.2	NE	0.20	13.0	-36.3	---	---	725.5	0.030	0.000	18.4	1	1
03/24/06	1:15 p	-24.2	-24.2	-24.2	---	---	11.3	NE	0.19	12.2	-35.9	---	---	725.5	0.030	0.000	18.4	1	1
03/24/06	1:16 p	-24.2	-24.2	-24.2	---	---	10.4	NE	0.17	11.3	-35.6	---	---	725.5	0.030	0.000	18.4	1	1
03/24/06	1:17 p	-24.2	-24.2	-24.2	---	---	10.4	NE	0.17	11.3	-35.4	---	---	725.5	0.030	0.000	18.4	1	1
03/24/06	1:18 p	-24.2	-24.2	-24.2	---	---	10.4	NE	0.17	12.2	-35.4	---	---	725.4	0.030	0.000	18.4	1	1
03/24/06	1:19 p	-24.2	-24.2	-24.2	---	---	11.3	NE	0.19	12.2	-35.9	---	---	725.5	0.030	0.000	18.4	1	1
03/24/06	1:20 p	-24.2	-24.2	-24.2	---	---	11.3	NE	0.19	13.0	-35.9	---	---	725.5	0.030	0.000	18.4	1	1
03/24/06	1:21 p	-24.2	-24.1	-24.2	---	---	11.3	NE	0.19	12.2	-35.9	---	---	725.4	0.030	0.000	18.4	1	1
03/24/06	1:22 p	-24.2	-24.2	-24.2	---	---	12.2	NE	0.20	13.0	-36.3	---	---	725.5	0.030	0.000	18.4	1	1
03/24/06	1:23 p	-24.2	-24.2	-24.2	---	---	11.3	NE	0.19	12.2	-35.9	---	---	725.4	0.030	0.000	18.4	1	1
03/24/06	1:24 p	-24.2	-24.2	-24.2	---	---	11.3	NE	0.19	12.2	-35.9	---	---	725.4	0.030	0.000	18.4	1	1
03/24/06	1:25 p	-24.2	-24.1	-24.2	---	---	11.3	NE	0.19	12.2	-35.9	---	---	725.5	0.030	0.000	18.4	1	1
03/24/06	1:26 p	-24.2	-24.1	-24.2	---	---	11.3	NE	0.19	13.0	-35.9	---	---	725.5	0.030	0.000	18.4	1	1
03/24/06	1:27 p	-24.1	-24.1	-24.2	---	---	11.3	NE	0.19	13.0	-35.8	---	---	725.4	0.029	0.000	18.4	1	1
03/24/06	1:28 p	-24.1	-24.1	-24.2	---	---	11.3	NE	0.19	12.2	-35.8	---	---	725.5	0.029	0.000	18.5	1	1
03/24/06	1:29 p	-24.1	-24.1	-24.1	---	---	11.3	NE	0.19	12.2	-35.8	---	---	725.5	0.029	0.000	18.5	1	1
03/24/06	1:30 p	-24.1	-24.1	-24.1	---	---	10.4	NE	0.17	12.2	-35.4	---	---	725.5	0.029	0.000	18.5	1	1
03/24/06	1:31 p	-24.1	-24.1	-24.2	---	---	11.3	NE	0.19	12.2	-35.8	---	---	725.4	0.029	0.000	18.4	1	1
03/24/06	1:32 p	-24.1	-24.1	-24.2	---	---	12.2	NE	0.20	13.0	-36.2	---	---	725.4	0.029	0.000	18.4	1	1
03/24/06	1:33 p	-24.1	-24.1	-24.2	---	---	12.2	NE	0.20	13.0	-36.2	---	---	725.4	0.029	0.000	18.4	1	1
03/24/06	1:34 p	-24.1	-24.1	-24.1	---	---	11.3	NE	0.19	13.0	-35.8	---	---	725.4	0.029	0.000	18.4	1	1
03/24/06	1:35 p	-24.1	-24.1	-24.1	---	---	12.2	NE	0.20	13.0	-36.2	---	---	725.5	0.029	0.000	18.4	1	1
03/24/06	1:36 p	-24.1	-24.1	-24.1	---	---	11.3	NE	0.19	12.2	-35.8	---	---	725.4	0.029	0.000	18.4	1	1
03/24/06	1:37 p	-24.1	-24.1	-24.1	---	---	11.3	NE	0.19	13.0	-35.8	---	---	725.4	0.029	0.000	18.4	1	1
03/24/06	1:38 p	-24.1	-24.1	-24.1	---	---	11.3	NE	0.19	13.0	-35.8	---	---	725.5	0.029	0.000	18.4	1	1
03/24/06	1:39 p	-24.1	-24.1	-24.1	---	---	11.3	NE	0.19	13.0	-35.8	---	---	725.4	0.029	0.000	18.4	1	1
03/24/06	1:40 p	-24.1	-24.1	-24.1	---	---	10.4	NE	0.17	12.2	-35.4	---	---	725.5	0.029	0.000	18.4	1	1
03/24/06	1:41 p	-24.1	-24.1	-24.1	---	---	11.3	NE	0.19	12.2	-35.8	---	---	725.5	0.029	0.000	18.4	1	1
03/24/06	1:42 p	-24.1	-24.1	-24.1	---	---	11.3	NE	0.19	13.0	-35.8	---	---	725.6	0.029	0.000	18.3	1	1
03/24/06	1:43 p	-24.1	-24.1	-24.1	---	---	11.3	NE	0.19	13.0	-35.8	---	---	725.5	0.029	0.000	18.3	1	1
03/24/06	1:44 p	-24.1	-24.1	-24.1	---	---	12.2	NE	0.20	13.0	-36.2	---	---	725.4	0.029	0.000	18.3	1	1
03/24/06	1:45 p	-24.1	-24.1	-24.1	---	---	11.3	NE	0.19	12.2	-35.8	---	---	725.4	0.029	0.000	18.3	1	1
03/24/06	1:46 p	-24.1	-24.1	-24.1	---	---	11.3	NE	0.19	12.2	-35.8	---	---	725.4	0.029	0.000	18.4	1	1
03/24/06	1:47 p	-24.1	-24.1	-24.1	---	---	10.4	NE	0.17	12.2	-35.4	---	---	725.5	0.029	0.000	18.4	1	1
03/24/06	1:48 p	-24.1	-24.1	-24.1	---	---	11.3	NE	0.19	12.2	-35.8	---	---	725.6	0.029	0.000	18.4	1	1
03/24/06	1:49 p	-24.1	-24.1	-24.1	---	---	11.3	NE	0.19	12.2	-35.8	---	---	725.5	0.029	0.000	18.4	1	1
03/24/06	1:50 p	-24.1	-24.1	-24.1	---	---	11.3	NE	0.19	13.0	-35.8	---	---	725.4	0.029	0.000	18.4	1	1
03/24/06	1:51 p	-24.1	-24.1	-24.1	---	---	11.3	NE	0.19	12.2	-35.8	---	---	725.4	0.029	0.000	18.4	1	1
03/24/06	1:52 p	-24.1	-24.1	-24.1	---	---	12.2	NE	0.20	13.0	-36.2	---	---	725.4	0.029	0.000	18.4	1	1
03/24/06	1:53 p	-24.1	-24.1	-24.1	---	---	11.3	NE	0.19	12.2	-35.8	---	---	725.5	0.029	0.000	18.4	1	1
03/24/06	1:54 p	-24.1	-24.1	-24.1	---	---	10.4	NE	0.17	11.3	-35.3	---	---	725.5	0.029	0.000	18.4	1	1
03/24/06	1:55 p	-24.1	-24.1	-24.1	---	---	11.3	NE	0.19	13.0	-35.8	---	---	725.5	0.029	0.000	18.4	1	1
03/24/06	1:56 p	-24.1	-24.1	-24.1	---	---	11.3	NE	0.19	12.2	-35.8	---	---	725.4	0.029	0.000	18.4	1	1
03/24/06	1:57 p	-24.1	-24.1	-24.1	---	---	11.3	NE	0.19	13.0	-35.8	---	---	725.5	0.029	0.000	18.4	1	1
03/24/06	1:58 p	-24.1	-24.1	-24.1	---	---	12.2	NE	0.20	13.0	-36.2	---	---	725.5	0.029	0.000	18.4	1	1
03/24/06	1:59 p	-24.1	-24.1	-24.1	---	---	11.3	NE	0.19	13.0	-35.8	---	---	725.5	0.029	0.000	18.4	1	1
03/24/06	2:00 p	-24.1	-24.1	-24.1	---	---	11.3	NE	0.19	12.2	-35.8	---	---	725.4	0.029	0.000	18.4	1	1
03/24/06	2:01 p	-24.1	-24.1	-24.1	---	---	11.3	NE	0.19	12.2	-35.8	---	---	725.4	0.029	0.000	18.4	1	1
03/24/06	2:02 p	-24.1	-24.1	-24.1	---	---	12.2	NE	0.20	13.0	-36.2	---	---	725.4	0.029	0.000	18.4	1	1
03/24/06	2:03 p	-24.1	-24.1	-24.1	---	---	11.3	NE	0.19	12.2	-35.8	---	---	725.5	0.029	0.000	18.4	1	1
03/24/06	2:04 p	-24.1	-24.1	-24.1	---	---	12.2	NE	0.20	13.0	-36.2	---	---	725.5	0.029	0.000	18.4	1	1
03/24/06	2:05 p	-24.1	-24.1	-24.1	---	---	12.2	NE	0.20	12.2	-36.2	---	---	725.5	0.029	0.000	18.4	1	1
03/24/06	2:06 p	-24.1	-24.0	-24.1	---	---	11.3	NE	0.19	12.2	-35.8	---	---	725.5	0.029	0.000	18.4	1	1
03/24/06	2:07 p	-24.0	-24.0	-24.1	---	---	12.2	NE	0.20	13.0	-36.1	---	---	725.6	0.029	0.000	18.4	1	1
03/24/06	2:08 p	-24.0	-24.0	-24.1	---	---	11.3	NE	0.19	12.2	-35.7	---	---	725.5	0.029	0.000	18.4	1	1
03/24/06	2:09 p	-24.1	-24.1	-24.1	---	---	11.3	NE	0.19	13.0	-35.8	---	---	725.5	0.029	0.000	18.4	1	1
03/24/06	2:10 p	-24.1	-24.0	-24.1	---	---	12.2	NE	0.20	12.2	-36.2	---	---	725.4	0.029	0.000	18.4	1	1
03/24/06	2:11 p	-24.0	-24.0	-24.0	---	---	11.3	NE	0.19	12.2	-35.7	---	---	725.5	0.029	0.000	18.4	1	1
03/24/06	2:12 p	-24.0	-24.0	-24.0	---	---	11.3	NE	0.19	12.2	-35.7	---	---	725.4	0.029	0.000	18.4	1	1
03/24/06	2:13 p	-24.0	-24.0	-24.0	---	---	11.3	NE	0.19	12.2	-35.7	---	---	725.4	0.029	0.000	18.4	1	1
03/24/06	2:14 p	-24.0	-24.0	-24.0	---	---	11.3	NE	0.19	12.2	-35.7	---	---	725.4	0.029	0.000	18.4	1	1
03/24/06	2:15 p	-24.0	-23.9	-24.0	---	---	11.3	NE	0.19	12.2	-35.7	---	---	725.4	0.029	0.000	18.4	1	1
03/24/06	2:16 p	-23.9	-23.9	-24.0	---	---	11.3	NE	0.19	12.2	-35.6	---	---	725.4	0.029	0.000	18.4	1	1
03/24/06	2:17 p	-24.0	-23.9	-24.0	---	---	12.2	NE	0.20	13.0	-36.1	---	---	725.4	0.029	0.000	18.4	1	1
03/24/06	2:18 p	-24.0	-23.9	-24.0	---	---	11.3	NE	0.19	13.0	-35.7	---	---	725.5	0.029	0.000	18.4	1	1
03/24/06	2:19 p	-23.9	-23.9	-23.9	---	---	12.2	NE	0.20	13.0	-36.0	---	---	725.4	0.029	0.000	18.4	1	1
03/24/06	2:20 p	-23.9	-23.9	-23.9	---	---	11.3	NE	0.19	13.0	-35.6	---	---	725.4	0.029	0.000	18.4	1	1
03/24/06	2:21 p	-23.9	-23.9	-23.9	---	---	12.2	NE	0.20	13.0	-36.0	---	---	725.4	0.029	0.000	18.4	1	1
03/24/06	2:22 p	-23.9	-23.9	-23.9	---	---	11.3	NE	0.19	13.0	-35.6	---	---	725.4	0.029	0.000	18.4	1	1
03/24/06	2:23 p	-23.9	-23.9	-23.9	---	---	10.4	NE	0.17	12.2	-35.2	---	---	725.4	0.029	0.000	18.4	1	1
03/24/06	2:24 p	-23.9	-23.9	-23.9	---	---	12.2	NE	0.20	13.0	-36.0	---	---	725.5	0.029	0.000	18.4	1	1
03/24/06	2:25 p	-23.9	-23.9	-23.9	---	---	11.3	NE	0.19	12.2	-35.6	---	---	725.4	0.029	0.000	18.4	1	1
03/24/06	2:26 p	-23.9	-23.9	-23.9	---	---	11.3	NE	0.19	12.2	-35.6	---	---	725.4	0.029	0.000	18.4	1	1
03/24/06	2:27 p	-23.9	-23.9	-23.9	---	---	12.2	NE	0.20	13.0	-35.9	---	---	725.4	0.029	0.000	18.4	1	1
03/24/06	2:28 p	-23.9	-23.9	-23.9	---	---	11.3	NE	0.19	13.0	-35.6	---	---	725.4	0.029	0.000	18.4	1	1
03/24/06	2:29 p	-23.9	-23.9	-23.9	---	---	12.2	NE	0.20	13.0	-35.9	---	---	725.4	0.029	0.000	18.4	1	1
03/24/06	2:30 p	-23.9	-23.8	-23.9	---	---	11.3	NE	0.19	12.2	-35.6	---	---	725.4	0.029	0.000	18.4	1	1
03/24/06	2:31 p	-23.9	-23.8	-23.9	---	---	11.3	NE	0.19	13.0	-35.6	---	---	725.4	0.029	0.000	18.4	1	1
03/24/06	2:32 p	-23.8	-23.8	-23.8	---	---	12.2	NE	0.20	12.2	-35.9	---	---	725.4	0.029	0.000	18.4	1	1
03/24/06	2:33 p	-23.8	-23.8	-23.8	---	---	12.2	NE	0.20	12.2	-35.9	---	---	725.4	0.029	0.000	18.4	1	1
03/24/06	2:34 p	-23.8	-23.8	-23.8	---	---	12.2	NE	0.20	12.2	-35.9	---	---	725.4	0.029	0.000	18.4	1	1
03/24/06	2:35 p	-23.8	-23.8	-23.8	---	---	11.3	NE	0.19	12.2	-35.4	---	---	725.4	0.029	0.000	18.4	1	1
03/24/06	2:36 p	-23.8	-23.8	-23.8	---	---	12.2	NE	0.20	13.0	-35.8	---	---	725.4	0.029	0.000	18.4	1	1
03/24/06	2:37 p	-23.7	-23.7	-23.8	---	---	11.3	NE	0.19	12.2	-35.3	---	---	725.3	0.029	0.000	18.4	1	1
03/24/06	2:38 p	-23.7	-23.7	-23.7	---	---	11.3	NE	0.19	12.2	-35.3	---	---	725.4	0.029	0.000	18.4	1	1
03/24/06	2:39 p	-23.7	-23.7	-23.7	---	---	11.3	NE	0.19	12.2	-35.3	---	---	725.4	0.029	0.000	18.4	1	1
03/24/06	2:40 p	-23.7	-23.7	-23.7	---	---	11.3	NE	0.19	12.2	-35.3	---	---	725.4	0.029	0.000	18.4	1	1
03/24/06	2:41 p	-23.7	-23.7	-23.7	---	---	11.3	NE	0.19	12.2	-35.3	---	---	725.4	0.029	0.000	18.4	1	1
03/24/06	2:42 p	-23.7	-23.6	-23.7	---	---	11.3	NE	0.19	12.2	-35.3	---	---	725.4	0.029	0.000	18.4	1	1
03/24/06	2:43 p	-23.6	-23.6	-23.6	---	---	11.3	NE	0.19	12.2	-35.2	---	---	725.4	0.029	0.000	18.4	1	1
03/24/06	2:44 p	-23.6	-23.6	-23.6	---	---	11.3	NE	0.19	12.2	-35.2	---	---	725.4	0.029	0.000	18.4	1	1
03/24/06	2:45 p	-23.6	-23.6	-23.6	---	---	11.3	NE	0.19	12.2	-35.1	---	---	725.4	0.029	0.000	18.4	1	1
03/24/06	2:46 p	-23.6	-23.5	-23.6	---	---	11.3	NE	0.19	12.2	-35.1	---	---	725.4	0.029	0.000	18.4	1	1
03/24/06	2:47 p	-23.5	-23.5	-23.6	---	---	11.3	NE	0.19	13.0	-35.1	---	---	725.4	0.029	0.000	18.4	1	1
03/24/06	2:48 p	-23.5	-23.5	-23.5	---	---	11.3	NE	0.19	12.2	-35.1	---	---	725.5	0.029	0.000	18.4	1	1
03/24/06	2:49 p	-23.5	-23.5	-23.5	---	---	11.3	NE	0.19	12.2	-35.1	---	---	725.4	0.029	0.000	18.4	1	1
03/24/06	2:50 p	-23.4	-23.4	-23.5	---	---	11.3	NE	0.19	12.2	-35.0	---	---	725.4	0.029	0.000	18.4	1	1
03/24/06	2:51 p	-23.4	-23.4	-23.4	---	---	11.3	NE	0.19	11.3	-35.0	---	---	725.4	0.029	0.000	18.4	1	1
03/24/06	2:52 p	-23.4	-23.4	-23.4	---	---	11.3	NE	0.19	11.3	-34.9	---	---	725.4	0.029	0.000	18.4	1	1
03/24/06	2:53 p	-23.4	-23.4	-23.4	---	---	10.4	NE	0.17	11.3	-34.5	---	---	725.4	0.029	0.000	18.4	1	1
03/24/06	2:54 p	-23.4	-23.3	-23.4	---	---	11.3	NE	0.19	11.3	-34.9	---	---	725.4	0.029	0.000	18.4	1	1
03/24/06	2:55 p	-23.3	-23.3	-23.3	---	---	10.4	NE	0.17	11.3	-34.4	---	---	725.4	0.029	0.000	18.4	1	1
03/24/06	2:56 p	-23.3	-23.3	-23.3	---	---	10.4	NE	0.17	11.3	-34.4	---	---	725.4	0.029	0.000	18.4	1	1
03/24/06	2:57 p	-23.3	-23.3	-23.3	---	---	11.3	NE	0.19	12.2	-34.8	---	---	725.3	0.029	0.000	18.4	1	1
03/24/06	2:58 p	-23.3	-23.2	-23.3	---	---	11.3	NE	0.19	12.2	-34.8	---	---	725.4	0.029	0.000	18.4	1	1
03/24/06	2:59 p	-23.2	-23.2	-23.2	---	---	10.4	NE	0.17	12.2	-34.3	---	---	725.4	0.029	0.000	18.4	1	1
03/24/06	3:00 p	-23.2	-23.2	-23.2	---	---	10.4	NE	0.17	11.3	-34.3	---	---	725.4	0.029	0.000	18.4	1	1
03/24/06	3:01 p	-23.2	-23.2	-23.2	---	---	10.4	NE	0.17	11.3	-34.2	---	---	725.4	0.029	0.000	18.4	1	1
03/24/06	3:02 p	-23.2	-23.1	-23.2	---	---	10.4	NE	0.17	11.3	-34.2	---	---	725.4	0.029	0.000	18.4	1	1
03/24/06	3:03 p	-23.1	-23.1	-23.1	---	---	10.4	NE	0.17	11.3	-34.1	---	---	725.3	0.029	0.000	18.4	1	1
03/24/06	3:04 p	-23.1	-23.1	-23.1	---	---	10.4	NE	0.17	11.3	-34.1	---	---	725.4	0.029	0.000	18.4	1	1
03/24/06	3:05 p	-23.1	-23.1	-23.1	---	---	9.6	NE	0.16	10.4	-33.7	---	---	725.4	0.029	0.000	18.4	1	1
03/24/06	3:06 p	-23.1	-23.1	-23.1	---	---	9.6	NE	0.16	11.3	-33.6	---	---	725.4	0.029	0.000	18.4	1	1
03/24/06	3:07 p	-23.1	-23.0	-23.1	---	---	10.4	NE	0.17	11.3	-34.1	---	---	725.4	0.029	0.000	18.4	1	1
03/24/06	3:08 p	-23.0	-23.0	-23.0	---	---	9.6	NE	0.16	10.4	-33.6	---	---	725.4	0.029	0.000	18.4	1	1
03/24/06	3:09 p	-23.0	-23.0	-23.0	---	---	8.7	NE	0.14	10.4	-33.1	---	---	725.5	0.029	0.000	18.4	1	1
03/24/06	3:10 p	-23.0	-22.9	-23.0	---	---	9.6	NE	0.16	10.4	-33.6	---	---	725.4	0.029	0.000	18.4	1	1
03/24/06	3:11 p	-22.9	-22.9	-22.9	---	---	9.6	NE	0.16	9.6	-33.4	---	---	725.4	0.029	0.000	18.4	1	1
03/24/06	3:12 p	-22.9	-22.9	-22.9	---	---	8.7	NE	0.14	10.4	-33.0	---	---	725.4	0.029	0.000	18.4	1	1
03/24/06	3:13 p	-22.9	-22.9	-22.9	---	---	8.7	NE	0.14	9.6	-32.9	---	---	725.4	0.029	0.000	18.4	1	1
03/24/06	3:14 p	-22.9	-22.9	-22.9	---	---	7.8	NE	0.13	8.7	-32.4	---	---	725.3	0.029	0.000	18.4	1	1
03/24/06	3:15 p	-22.9	-22.9	-22.9	---	---	7.8	NE	0.13	8.7	-32.4	---	---	725.4	0.029	0.000	18.4	1	1
03/24/06	3:16 p	-22.8	-22.8	-22.8	---	---	7.8	NE	0.13	8.7	-32.3	---	---	725.3	0.029	0.000	18.4	1	1
03/24/06	3:17 p	-22.8	-22.8	-22.8	---	---	7.8	NE	0.13	8.7	-32.3	---	---	725.3	0.029	0.000	18.4	1	1
03/24/06	3:18 p	-22.8	-22.8	-22.8	---	---	7.0	NE	0.12	7.8	-31.7	---	---	725.4	0.029	0.000	18.4	1	1
03/24/06	3:19 p	-22.8	-22.7	-22.8	---	---	7.8	NE	0.13	7.8	-32.2	---	---	725.4	0.029	0.000	18.4	1	1
03/24/06	3:20 p	-22.7	-22.7	-22.7	---	---	7.0	NE	0.12	7.8	-31.6	---	---	725.4	0.029	0.000	18.4	1	1
03/24/06	3:21 p	-22.7	-22.7	-22.7	---	---	5.2	NE	0.09	7.8	-30.2	---	---	725.5	0.029	0.000	18.4	1	1
03/24/06	3:22 p	-22.7	-22.7	-22.7	---	---	4.3	NNE	0.07	6.1	-29.3	---	---	725.5	0.028	0.000	18.4	1	1
03/24/06	3:23 p	-22.7	-22.7	-22.7	---	---	3.5	NNE	0.06	6.1	-28.3	---	---	725.5	0.028	0.000	18.4	1	1
03/24/06	3:24 p	-22.7	-22.6	-22.7	---	---	1.7	NNE	0.03	2.6	-25.4	---	---	725.5	0.028	0.000	18.3	1	1
03/24/06	3:25 p	-22.6	-22.6	-22.7	---	---	1.7	NNE	0.03	2.6	-25.4	---	---	725.4	0.028	0.000	18.3	1	1
03/24/06	3:26 p	-22.6	-22.6	-22.6	---	---	0.0	NNE	0.00	0.9	-22.6	---	---	725.5	0.028	0.000	18.3	1	1
03/24/06	3:27 p	-22.6	-22.6	-22.6	---	---	0.0	---	0.00	0.0	-22.5	---	---	725.4	0.028	0.000	18.3	1	1
03/24/06	3:28 p	-22.6	-22.6	-22.6	---	---	0.9	NNE	0.01	0.9	-22.7	---	---	725.5	0.028	0.000	18.3	1	1
03/24/06	3:29 p	-22.6	-22.5	-22.6	---	---	0.0	NNE	0.00	0.9	-22.5	---	---	725.5	0.028	0.000	18.3	1	1
03/24/06	3:30 p	-22.5	-22.5	-22.5	---	---	0.0	---	0.00	0.0	-22.4	---	---	725.6	0.028	0.000	18.3	1	1
03/24/06	3:31 p	-22.5	-22.5	-22.5	---	---	0.0	---	0.00	0.9	-22.4	---	---	725.5	0.028	0.000	18.3	1	1
03/24/06	3:32 p	-22.4	-22.4	-22.5	---	---	0.0	---	0.00	0.0	-22.4	---	---	725.5	0.028	0.000	18.3	1	1
03/24/06	3:33 p	-22.4	-22.4	-22.5	---	---	0.0	---	0.00	0.0	-22.4	---	---	725.5	0.028	0.000	18.3	1	1
03/24/06	3:34 p	-22.4	-22.4	-22.4	---	---	0.0	---	0.00	0.0	-22.4	---	---	725.5	0.028	0.000	18.3	1	1
03/24/06	3:35 p	-22.4	-22.4	-22.4	---	---	0.0	NNE	0.00	0.9	-22.3	---	---	725.4	0.028	0.000	18.4	1	1
03/24/06	3:36 p	-22.4	-22.4	-22.4	---	---	0.0	---	0.00	0.0	-22.3	---	---	725.5	0.028	0.000	18.4	1	1
03/24/06	3:37 p	-22.4	-22.4	-22.4	---	---	0.0	---	0.00	0.0	-22.3	---	---	725.4	0.028	0.000	18.4	1	1
03/24/06	3:38 p	-22.3	-22.3	-22.4	---	---	0.0	---	0.00	0.0	-22.3	---	---	725.5	0.028	0.000	18.4	1	1
03/24/06	3:39 p	-22.3	-22.3	-22.4	---	---	0.0	---	0.00	0.0	-22.3	---	---	725.5	0.028	0.000	18.4	1	1
03/24/06	3:40 p	-22.3	-22.3	-22.3	---	---	0.0	NNE	0.00	0.9	-22.3	---	---	725.5	0.028	0.000	18.4	1	1
03/24/06	3:41 p	-22.3	-22.3	-22.3	---	---	0.0	NNE	0.00	1.7	-22.3	---	---	725.5	0.028	0.000	18.4	1	1
03/24/06	3:42 p	-22.3	-22.3	-22.3	---	---	0.9	NNE	0.01	1.7	-22.5	---	---	725.5	0.028	0.000	18.4	1	1
03/24/06	3:43 p	-22.3	-22.3	-22.3	---	---	0.9	NNE	0.01	0.9	-22.5	---	---	725.6	0.028	0.000	18.4	1	1
03/24/06	3:44 p	-22.3	-22.3	-22.3	---	---	0.0	---	0.00	0.9	-22.2	---	---	725.5	0.028	0.000	18.4	1	1
03/24/06	3:45 p	-22.3	-22.2	-22.3	---	---	0.0	NNE	0.00	0.9	-22.2	---	---	725.5	0.028	0.000	18.4	1	1
03/24/06	3:46 p	-22.3	-22.2	-22.3	---	---	0.9	NNE	0.01	0.9	-22.4	---	---	725.5	0.028	0.000	18.4	1	1
03/24/06	3:47 p	-22.2	-22.2	-22.2	---	---	0.0	NNE	0.00	0.9	-22.2	---	---	725.5	0.028	0.000	18.4	1	1
03/24/06	3:48 p	-22.2	-22.2	-22.2	---	---	0.0	NNE	0.00	0.9	-22.2	---	---	725.5	0.028	0.000	18.4	1	1
03/24/06	3:49 p	-22.2	-22.2	-22.2	---	---	0.0	NNE	0.00	0.9	-22.2	---	---	725.5	0.028	0.000	18.4	1	1
03/24/06	3:50 p	-22.2	-22.2	-22.2	---	---	0.0	NNE	0.00	0.9	-22.2	---	---	725.5	0.028	0.000	18.4	1	1
03/24/06	3:51 p	-22.2	-22.2	-22.2	---	---	0.9	NNE	0.01	0.9	-22.3	---	---	725.5	0.028	0.000	18.4	1	1
03/24/06	3:52 p	-22.2	-22.2	-22.2	---	---	0.9	NNE	0.01	0.9	-22.3	---	---	725.5	0.028	0.000	18.4	1	1
03/24/06	3:53 p	-22.2	-22.2	-22.2	---	---	0.0	NNE	0.00	0.9	-22.1	---	---	725.5	0.028	0.000	18.4	1	1
03/24/06	3:54 p	-22.2	-22.1	-22.2	---	---	0.0	---	0.00	0.0	-22.1	---	---	725.5	0.028	0.000	18.4	1	1
03/24/06	3:55 p	-22.2	-22.2	-22.2	---	---	0.0	---	0.00	0.0	-22.1	---	---	725.5	0.028	0.000	18.4	1	1
03/24/06	3:56 p	-22.2	-22.2	-22.2	---	---	0.9	NNE	0.01	0.9	-22.3	---	---	725.5	0.028	0.000	18.4	1	1
03/24/06	3:57 p	-22.1	-22.1	-22.2	---	---	0.9	NNE	0.01	0.9	-22.3	---	---	725.5	0.028	0.000	18.4	1	1
03/24/06	3:58 p	-22.1	-22.1	-22.1	---	---	0.0	NNE	0.00	0.9	-22.1	---	---	725.5	0.028	0.000	18.4	1	1
03/24/06	3:59 p	-22.1	-22.1	-22.1	---	---	0.0	NNE	0.00	0.9	-22.1	---	---	725.6	0.028	0.000	18.4	1	1
03/24/06	4:00 p	-22.1	-22.1	-22.1	---	---	0.9	NNE	0.01	0.9	-22.3	---	---	725.5	0.028	0.000	18.4	1	1
03/24/06	4:01 p	-22.1	-22.1	-22.1	---	---	0.9	NNE	0.01	1.7	-22.3	---	---	725.6	0.028	0.000	18.4	1	1
03/24/06	4:02 p	-22.1	-22.1	-22.1	---	---	0.9	NNE	0.01	1.7	-22.3	---	---	725.6	0.028	0.000	18.4	1	1
03/24/06	4:03 p	-22.1	-22.1	-22.1	---	---	0.9	NNE	0.01	1.7	-22.2	---	---	725.6	0.028	0.000	18.4	1	1
03/24/06	4:04 p	-22.1	-22.1	-22.1	---	---	0.9	NNE	0.01	1.7	-22.2	---	---	725.5	0.028	0.000	18.5	1	1
03/24/06	4:05 p	-22.1	-22.1	-22.1	---	---	1.7	NNE	0.03	1.7	-24.8	---	---	725.5	0.028	0.000	18.5	1	1
03/24/06	4:06 p	-22.1	-22.1	-22.1	---	---	1.7	NNE	0.03	1.7	-24.8	---	---	725.5	0.028	0.000	18.4	1	1
03/24/06	4:07 p	-22.1	-22.0	-22.1	---	---	1.7	NNE	0.03	2.6	-24.8	---	---	725.5	0.028	0.000	18.5	1	1
03/24/06	4:08 p	-22.1	-22.0	-22.1	---	---	1.7	NNE	0.03	2.6	-24.8	---	---	725.5	0.028	0.000	18.5	1	1
03/24/06	4:09 p	-22.0	-22.0	-22.1	---	---	2.6	NNE	0.04	2.6	-26.3	---	---	725.4	0.028	0.000	18.5	1	1
03/24/06	4:10 p	-22.0	-22.0	-22.0	---	---	2.6	NNE	0.04	3.5	-26.3	---	---	725.5	0.028	0.000	18.5	1	1
03/24/06	4:11 p	-21.9	-21.9	-22.0	---	---	2.6	NNE	0.04	3.5	-26.3	---	---	725.5	0.028	0.000	18.5	1	1
03/24/06	4:12 p	-21.9	-21.9	-22.0	---	---	2.6	NNE	0.04	3.5	-26.3	---	---	725.6	0.028	0.000	18.5	1	1
03/24/06	4:13 p	-21.9	-21.9	-21.9	---	---	2.6	NNE	0.04	3.5	-26.3	---	---	725.4	0.028	0.000	18.5	1	1
03/24/06	4:14 p	-21.9	-21.9	-21.9	---	---	3.5	NNE	0.06	3.5	-27.5	---	---	725.5	0.028	0.000	18.5	1	1
03/24/06	4:15 p	-21.9	-21.9	-21.9	---	---	2.6	NNE	0.04	3.5	-26.3	---	---	725.6	0.028	0.000	18.5	1	1
03/24/06	4:16 p	-21.9	-21.9	-21.9	---	---	2.6	NNE	0.04	3.5	-26.3	---	---	725.6	0.028	0.000	18.5	1	1
03/24/06	4:17 p	-21.9	-21.9	-21.9	---	---	2.6	NNE	0.04	3.5	-26.3	---	---	725.6	0.028	0.000	18.5	1	1
03/24/06	4:18 p	-21.9	-21.9	-21.9	---	---	3.5	NNE	0.06	3.5	-27.4	---	---	725.6	0.028	0.000	18.5	1	1
03/24/06	4:19 p	-21.9	-21.9	-21.9	---	---	2.6	NNE	0.04	3.5	-26.2	---	---	725.6	0.028	0.000	18.5	1	1
03/24/06	4:20 p	-21.9	-21.8	-21.9	---	---	3.5	NNE	0.06	4.3	-27.4	---	---	725.6	0.028	0.000	18.5	1	1
03/24/06	4:21 p	-21.8	-21.8	-21.9	---	---	3.5	N	0.06	4.3	-27.3	---	---	725.5	0.028	0.000	18.5	1	1
03/24/06	4:22 p	-21.8	-21.8	-21.9	---	---	3.5	N	0.06	3.5	-27.3	---	---	725.5	0.028	0.000	18.5	1	1
03/24/06	4:23 p	-21.8	-21.8	-21.8	---	---	3.5	N	0.06	4.3	-27.3	---	---	725.6	0.028	0.000	18.5	1	1
03/24/06	4:24 p	-21.8	-21.8	-21.8	---	---	3.5	N	0.06	4.3	-27.3	---	---	725.5	0.028	0.000	18.5	1	1
03/24/06	4:25 p	-21.8	-21.8	-21.8	---	---	4.3	NNW	0.07	4.3	-28.3	---	---	725.6	0.028	0.000	18.5	1	1
03/24/06	4:26 p	-21.8	-21.8	-21.8	---	---	3.5	NNW	0.06	4.3	-27.3	---	---	725.6	0.028	0.000	18.5	1	1
03/24/06	4:27 p	-21.8	-21.8	-21.8	---	---	3.5	NNW	0.06	4.3	-27.3	---	---	725.6	0.028	0.000	18.5	1	1
03/24/06	4:28 p	-21.8	-21.8	-21.8	---	---	3.5	NNW	0.06	4.3	-27.3	---	---	725.5	0.028	0.000	18.5	1	1
03/24/06	4:29 p	-21.8	-21.8	-21.8	---	---	3.5	NNW	0.06	4.3	-27.3	---	---	725.6	0.028	0.000	18.5	1	1
03/24/06	4:30 p	-21.8	-21.8	-21.8	---	---	3.5	NNW	0.06	4.3	-27.3	---	---	725.6	0.028	0.000	18.5	1	1
03/24/06	4:31 p	-21.8	-21.8	-21.8	---	---	4.3	NNW	0.07	4.3	-28.3	---	---	725.5	0.028	0.000	18.5	1	1
03/24/06	4:32 p	-21.8	-21.8	-21.8	---	---	4.3	NNW	0.07	4.3	-28.3	---	---	725.6	0.028	0.000	18.5	1	1
03/24/06	4:33 p	-21.8	-21.8	-21.8	---	---	4.3	NNW	0.07	4.3	-28.3	---	---	725.6	0.028	0.000	18.5	1	1
03/24/06	4:34 p	-21.8	-21.8	-21.8	---	---	4.3	NNW	0.07	4.3	-28.3	---	---	725.6	0.028	0.000	18.5	1	1
03/24/06	4:35 p	-21.8	-21.8	-21.8	---	---	3.5	NNW	0.06	4.3	-27.3	---	---	725.6	0.028	0.000	18.5	1	1
03/24/06	4:36 p	-21.7	-21.7	-21.8	---	---	4.3	NNW	0.07	4.3	-28.2	---	---	725.6	0.028	0.000	18.5	1	1
03/24/06	4:37 p	-21.7	-21.7	-21.8	---	---	3.5	NNW	0.06	5.2	-27.2	---	---	725.6	0.028	0.000	18.5	1	1
03/24/06	4:38 p	-21.8	-21.8	-21.8	---	---	3.5	N	0.06	3.5	-27.3	---	---	725.6	0.028	0.000	18.5	1	1
03/24/06	4:39 p	-21.7	-21.7	-21.8	---	---	4.3	N	0.07	5.2	-28.2	---	---	725.6	0.028	0.000	18.5	1	1
03/24/06	4:40 p	-21.7	-21.7	-21.7	---	---	3.5	N	0.06	4.3	-27.2	---	---	725.6	0.028	0.000	18.5	1	1
03/24/06	4:41 p	-21.7	-21.7	-21.7	---	---	4.3	N	0.07	5.2	-28.2	---	---	725.6	0.028	0.000	18.5	1	1
03/24/06	4:42 p	-21.7	-21.7	-21.7	---	---	4.3	N	0.07	5.2	-28.2	---	---	725.6	0.028	0.000	18.5	1	1
03/24/06	4:43 p	-21.7	-21.7	-21.7	---	---	5.2	NNW	0.09	6.1	-29.0	---	---	725.6	0.028	0.000	18.5	1	1
03/24/06	4:44 p	-21.7	-21.7	-21.7	---	---	5.2	NNW	0.09	6.1	-29.0	---	---	725.6	0.028	0.000	18.5	1	1
03/24/06	4:45 p	-21.7	-21.7	-21.7	---	---	5.2	NNW	0.09	6.1	-29.0	---	---	725.6	0.028	0.000	18.5	1	1
03/24/06	4:46 p	-21.7	-21.7	-21.7	---	---	5.2	NNW	0.09	5.2	-29.0	---	---	725.6	0.028	0.000	18.5	1	1
03/24/06	4:47 p	-21.7	-21.7	-21.7	---	---	5.2	NNW	0.09	5.2	-29.0	---	---	725.6	0.028	0.000	18.5	1	1
03/24/06	4:48 p	-21.7	-21.7	-21.7	---	---	5.2	NNW	0.09	5.2	-29.0	---	---	725.6	0.028	0.000	18.5	1	1
03/24/06	4:49 p	-21.7	-21.7	-21.7	---	---	4.3	NNW	0.07	5.2	-28.2	---	---	725.7	0.028	0.000	18.5	1	1
03/24/06	4:50 p	-21.7	-21.7	-21.7	---	---	5.2	NNW	0.09	5.2	-29.0	---	---	725.6	0.028	0.000	18.4	1	1
03/24/06	4:51 p	-21.7	-21.7	-21.7	---	---	5.2	NNW	0.09	5.2	-29.0	---	---	725.6	0.028	0.000	18.4	1	1
03/24/06	4:52 p	-21.7	-21.7	-21.7	---	---	5.2	NNW	0.09	5.2	-29.0	---	---	725.6	0.028	0.000	18.4	1	1
03/24/06	4:53 p	-21.7	-21.7	-21.7	---	---	5.2	NNW	0.09	6.1	-29.0	---	---	725.6	0.028	0.000	18.4	1	1
03/24/06	4:54 p	-21.7	-21.7	-21.7	---	---	5.2	NNW	0.09	6.1	-29.0	---	---	725.6	0.028	0.000	18.4	1	1
03/24/06	4:55 p	-21.7	-21.7	-21.7	---	---	5.2	NNW	0.09	6.1	-29.0	---	---	725.7	0.028	0.000	18.4	1	1
03/24/06	4:56 p	-21.7	-21.7	-21.7	---	---	5.2	NNW	0.09	6.1	-29.0	---	---	725.6	0.028	0.000	18.4	1	1
03/24/06	4:57 p	-21.7	-21.7	-21.7	---	---	5.2	NNW	0.09	6.1	-29.0	---	---	725.6	0.028	0.000	18.4	1	1
03/24/06	4:58 p	-21.7	-21.7	-21.7	---	---	5.2	NNW	0.09	6.1	-28.9	---	---	725.7	0.028	0.000	18.4	1	1
03/24/06	4:59 p	-21.7	-21.7	-21.7	---	---	6.1	NNW	0.10	6.1	-29.7	---	---	725.6	0.028	0.000	18.4	1	1
03/24/06	5:00 p	-21.7	-21.7	-21.7	---	---	5.2	NNW	0.09	6.1	-28.9	---	---	725.7	0.028	0.000	18.3	1	1
03/24/06	5:01 p	-21.7	-21.7	-21.7	---	---	5.2	NNW	0.09	6.1	-28.9	---	---	725.7	0.028	0.000	18.3	1	1
03/24/06	5:02 p	-21.7	-21.7	-21.7	---	---	6.1	NNW	0.10	6.1	-29.7	---	---	725.7	0.028	0.000	18.3	1	1
03/24/06	5:03 p	-21.7	-21.7	-21.7	---	---	5.2	NNW	0.09	6.1	-28.9	---	---	725.6	0.028	0.000	18.3	1	1
03/24/06	5:04 p	-21.7	-21.7	-21.7	---	---	5.2	NNW	0.09	6.1	-28.9	---	---	725.7	0.028	0.000	18.3	1	1
03/24/06	5:05 p	-21.7	-21.6	-21.7	---	---	5.2	NNW	0.09	5.2	-28.9	---	---	725.7	0.028	0.000	18.3	1	1
03/24/06	5:06 p	-21.7	-21.6	-21.7	---	---	5.2	NNW	0.09	5.2	-28.9	---	---	725.6	0.028	0.000	18.3	1	1
03/24/06	5:07 p	-21.6	-21.6	-21.6	---	---	5.2	NNW	0.09	5.2	-28.9	---	---	725.7	0.028	0.000	18.3	1	1
03/24/06	5:08 p	-21.6	-21.6	-21.6	---	---	5.2	NNW	0.09	5.2	-28.9	---	---	725.7	0.028	0.000	18.3	1	1
03/24/06	5:09 p	-21.6	-21.6	-21.6	---	---	4.3	NNW	0.07	5.2	-28.1	---	---	725.6	0.028	0.000	18.3	1	1
03/24/06	5:10 p	-21.6	-21.6	-21.6	---	---	4.3	NNW	0.07	5.2	-28.1	---	---	725.6	0.028	0.000	18.3	1	1
03/24/06	5:11 p	-21.6	-21.6	-21.6	---	---	5.2	NNW	0.09	5.2	-28.8	---	---	725.7	0.028	0.000	18.3	1	1
03/24/06	5:12 p	-21.6	-21.6	-21.6	---	---	5.2	NNW	0.09	6.1	-28.8	---	---	725.6	0.028	0.000	18.3	1	1
03/24/06	5:13 p	-21.6	-21.6	-21.6	---	---	5.2	NNW	0.09	6.1	-28.8	---	---	725.6	0.028	0.000	18.3	1	1
03/24/06	5:14 p	-21.5	-21.5	-21.6	---	---	5.2	NNW	0.09	6.1	-28.8	---	---	725.6	0.028	0.000	18.4	1	1
03/24/06	5:15 p	-21.6	-21.5	-21.6	---	---	5.2	NNW	0.09	6.1	-28.8	---	---	725.7	0.028	0.000	18.4	1	1
03/24/06	5:16 p	-21.5	-21.5	-21.5	---	---	4.3	NNW	0.07	5.2	-27.9	---	---	725.6	0.028	0.000	18.4	1	1
03/24/06	5:17 p	-21.6	-21.5	-21.6	---	---	5.2	NNW	0.09	5.2	-28.8	---	---	725.6	0.028	0.000	18.4	1	1
03/24/06	5:18 p	-21.5	-21.5	-21.5	---	---	4.3	NNW	0.07	5.2	-27.9	---	---	725.5	0.028	0.000	18.4	1	1
03/24/06	5:19 p	-21.5	-21.5	-21.5	---	---	4.3	NNW	0.07	5.2	-27.9	---	---	725.6	0.028	0.000	18.4	1	1
03/24/06	5:20 p	-21.5	-21.5	-21.5	---	---	4.3	NNW	0.07	4.3	-27.9	---	---	725.6	0.028	0.000	18.4	1	1
03/24/06	5:21 p	-21.5	-21.4	-21.5	---	---	4.3	NNW	0.07	4.3	-27.9	---	---	725.6	0.028	0.000	18.4	1	1
03/24/06	5:22 p	-21.5	-21.4	-21.5	---	---	4.3	NNW	0.07	4.3	-27.9	---	---	725.6	0.028	0.000	18.4	1	1
03/24/06	5:23 p	-21.5	-21.4	-21.5	---	---	4.3	NNW	0.07	5.2	-27.9	---	---	725.6	0.028	0.000	18.4	1	1
03/24/06	5:24 p	-21.5	-21.4	-21.5	---	---	3.5	NNW	0.06	4.3	-26.9	---	---	725.6	0.028	0.000	18.4	1	1
03/24/06	5:25 p	-21.4	-21.4	-21.4	---	---	3.5	NNW	0.06	4.3	-26.9	---	---	725.6	0.028	0.000	18.4	1	1
03/24/06	5:26 p	-21.5	-21.4	-21.5	---	---	3.5	NNW	0.06	4.3	-26.9	---	---	725.6	0.028	0.000	18.4	1	1
03/24/06	5:27 p	-21.5	-21.4	-21.5	---	---	3.5	NNW	0.06	4.3	-26.9	---	---	725.6	0.028	0.000	18.4	1	1
03/24/06	5:28 p	-21.5	-21.4	-21.5	---	---	3.5	NNW	0.06	3.5	-26.9	---	---	725.6	0.028	0.000	18.4	1	1
03/24/06	5:29 p	-21.5	-21.4	-21.5	---	---	3.5	NNW	0.06	3.5	-26.9	---	---	725.6	0.028	0.000	18.4	1	1
03/24/06	5:30 p	-21.4	-21.4	-21.5	---	---	3.5	NNW	0.06	3.5	-26.9	---	---	725.6	0.028	0.000	18.4	1	1
03/24/06	5:31 p	-21.4	-21.4	-21.5	---	---	3.5	NNW	0.06	3.5	-26.9	---	---	725.5	0.028	0.000	18.4	1	1
03/24/06	5:32 p	-21.4	-21.4	-21.4	---	---	3.5	NNW	0.06	3.5	-26.9	---	---	725.6	0.028	0.000	18.4	1	1
03/24/06	5:33 p	-21.4	-21.4	-21.4	---	---	3.5	NNW	0.06	4.3	-26.9	---	---	725.6	0.028	0.000	18.4	1	1
03/24/06	5:34 p	-21.4	-21.4	-21.4	---	---	4.3	NNW	0.07	4.3	-27.9	---	---	725.6	0.028	0.000	18.4	1	1
03/24/06	5:35 p	-21.4	-21.4	-21.4	---	---	4.3	NNW	0.07	4.3	-27.8	---	---	725.6	0.028	0.000	18.4	1	1
03/24/06	5:36 p	-21.4	-21.4	-21.4	---	---	3.5	NNW	0.06	4.3	-26.8	---	---	725.5	0.028	0.000	18.4	1	1
03/24/06	5:37 p	-21.4	-21.4	-21.4	---	---	3.5	NNW	0.06	4.3	-26.8	---	---	725.6	0.028	0.000	18.4	1	1
03/24/06	5:38 p	-21.4	-21.4	-21.4	---	---	3.5	NNW	0.06	4.3	-26.8	---	---	725.5	0.028	0.000	18.4	1	1
03/24/06	5:39 p	-21.4	-21.4	-21.4	---	---	4.3	NNW	0.07	5.2	-27.8	---	---	725.5	0.028	0.000	18.4	1	1
03/24/06	5:40 p	-21.3	-21.3	-21.4	---	---	4.3	NNW	0.07	4.3	-27.7	---	---	725.5	0.028	0.000	18.4	1	1
03/24/06	5:41 p	-21.4	-21.3	-21.4	---	---	4.3	NNW	0.07	4.3	-27.8	---	---	725.6	0.028	0.000	18.4	1	1
03/24/06	5:42 p	-21.3	-21.3	-21.3	---	---	3.5	NNW	0.06	4.3	-26.8	---	---	725.6	0.028	0.000	18.4	1	1
03/24/06	5:43 p	-21.3	-21.3	-21.3	---	---	3.5	NNW	0.06	4.3	-26.8	---	---	725.6	0.028	0.000	18.4	1	1
03/24/06	5:44 p	-21.3	-21.3	-21.3	---	---	3.5	NNW	0.06	4.3	-26.8	---	---	725.6	0.028	0.000	18.4	1	1
03/24/06	5:45 p	-21.3	-21.3	-21.3	---	---	3.5	NNW	0.06	4.3	-26.8	---	---	725.6	0.028	0.000	18.4	1	1
03/24/06	5:46 p	-21.3	-21.3	-21.3	---	---	4.3	NNW	0.07	4.3	-27.7	---	---	725.6	0.028	0.000	18.4	1	1
03/24/06	5:47 p	-21.3	-21.3	-21.3	---	---	4.3	NNW	0.07	5.2	-27.7	---	---	725.5	0.028	0.000	18.4	1	1
03/24/06	5:48 p	-21.3	-21.3	-21.3	---	---	4.3	NNW	0.07	5.2	-27.7	---	---	725.5	0.028	0.000	18.4	1	1
03/24/06	5:49 p	-21.3	-21.3	-21.3	---	---	4.3	NNW	0.07	5.2	-27.7	---	---	725.5	0.028	0.000	18.4	1	1
03/24/06	5:50 p	-21.3	-21.3	-21.3	---	---	4.3	NNW	0.07	5.2	-27.7	---	---	725.5	0.028	0.000	18.4	1	1
03/24/06	5:51 p	-21.3	-21.3	-21.3	---	---	4.3	NNW	0.07	5.2	-27.7	---	---	725.5	0.028	0.000	18.4	1	1
03/24/06	5:52 p	-21.3	-21.3	-21.3	---	---	5.2	NNW	0.09	6.1	-28.6	---	---	725.6	0.028	0.000	18.4	1	1
03/24/06	5:53 p	-21.3	-21.3	-21.3	---	---	4.3	NNW	0.07	5.2	-27.7	---	---	725.5	0.028	0.000	18.4	1	1
03/24/06	5:54 p	-21.3	-21.3	-21.3	---	---	4.3	NNW	0.07	6.1	-27.7	---	---	725.6	0.028	0.000	18.4	1	1
03/24/06	5:55 p	-21.3	-21.3	-21.3	---	---	5.2	NNW	0.09	6.1	-28.5	---	---	725.6	0.028	0.000	18.4	1	1
03/24/06	5:56 p	-21.3	-21.2	-21.3	---	---	5.2	NNW	0.09	6.1	-28.5	---	---	725.5	0.028	0.000	18.4	1	1
03/24/06	5:57 p	-21.3	-21.3	-21.3	---	---	4.3	NNW	0.07	5.2	-27.7	---	---	725.5	0.028	0.000	18.4	1	1
03/24/06	5:58 p	-21.3	-21.3	-21.3	---	---	4.3	NNW	0.07	5.2	-27.7	---	---	725.6	0.028	0.000	18.5	1	1
03/24/06	5:59 p	-21.3	-21.2	-21.3	---	---	4.3	NNW	0.07	5.2	-27.7	---	---	725.6	0.028	0.000	18.5	1	1
03/24/06	6:00 p	-21.3	-21.2	-21.3	---	---	5.2	NNW	0.09	6.1	-28.5	---	---	725.6	0.028	0.000	18.5	1	1
03/24/06	6:01 p	-21.3	-21.3	-21.3	---	---	4.3	NNW	0.07	5.2	-27.7	---	---	725.6	0.028	0.000	18.5	1	1
03/24/06	6:02 p	-21.3	-21.2	-21.3	---	---	4.3	NNW	0.07	5.2	-27.7	---	---	725.6	0.028	0.000	18.5	1	1
03/24/06	6:03 p	-21.3	-21.3	-21.3	---	---	4.3	NNW	0.07	4.3	-27.7	---	---	725.6	0.028	0.000	18.5	1	1
03/24/06	6:04 p	-21.3	-21.3	-21.3	---	---	4.3	NNW	0.07	5.2	-27.7	---	---	725.6	0.028	0.000	18.5	1	1
03/24/06	6:05 p	-21.3	-21.3	-21.3	---	---	4.3	NNW	0.07	5.2	-27.7	---	---	725.6	0.028	0.000	18.5	1	1
03/24/06	6:06 p	-21.3	-21.3	-21.3	---	---	4.3	NNW	0.07	5.2	-27.7	---	---	725.6	0.028	0.000	18.5	1	1
03/24/06	6:07 p	-21.3	-21.3	-21.3	---	---	4.3	NNW	0.07	5.2	-27.7	---	---	725.6	0.028	0.000	18.5	1	1
03/24/06	6:08 p	-21.3	-21.3	-21.3	---	---	4.3	NNW	0.07	5.2	-27.7	---	---	725.6	0.028	0.000	18.5	1	1
03/24/06	6:09 p	-21.3	-21.3	-21.3	---	---	4.3	NNW	0.07	4.3	-27.7	---	---	725.6	0.028	0.000	18.5	1	1
03/24/06	6:10 p	-21.3	-21.3	-21.3	---	---	4.3	NNW	0.07	5.2	-27.7	---	---	725.6	0.028	0.000	18.5	1	1
03/24/06	6:11 p	-21.3	-21.3	-21.3	---	---	4.3	NNW	0.07	5.2	-27.7	---	---	725.6	0.028	0.000	18.5	1	1
03/24/06	6:12 p	-21.3	-21.3	-21.3	---	---	4.3	NNW	0.07	5.2	-27.7	---	---	725.5	0.028	0.000	18.5	1	1
03/24/06	6:13 p	-21.3	-21.3	-21.3	---	---	4.3	NNW	0.07	4.3	-27.7	---	---	725.6	0.028	0.000	18.5	1	1
03/24/06	6:14 p	-21.3	-21.3	-21.3	---	---	4.3	NNW	0.07	5.2	-27.7	---	---	725.5	0.028	0.000	18.5	1	1
03/24/06	6:15 p	-21.3	-21.3	-21.3	---	---	4.3	NNW	0.07	5.2	-27.7	---	---	725.6	0.028	0.000	18.5	1	1
03/24/06	6:16 p	-21.3	-21.3	-21.3	---	---	4.3	NNW	0.07	5.2	-27.7	---	---	725.5	0.028	0.000	18.4	1	1
03/24/06	6:17 p	-21.3	-21.3	-21.3	---	---	4.3	NNW	0.07	5.2	-27.7	---	---	725.6	0.028	0.000	18.4	1	1
03/24/06	6:18 p	-21.3	-21.3	-21.3	---	---	4.3	NNW	0.07	5.2	-27.7	---	---	725.6	0.028	0.000	18.4	1	1
03/24/06	6:19 p	-21.3	-21.3	-21.3	---	---	5.2	NNW	0.09	5.2	-28.5	---	---	725.5	0.028	0.000	18.4	1	1
03/24/06	6:20 p	-21.3	-21.3	-21.3	---	---	4.3	NNW	0.07	5.2	-27.7	---	---	725.6	0.028	0.000	18.4	1	1
03/24/06	6:21 p	-21.3	-21.3	-21.3	---	---	4.3	NNW	0.07	5.2	-27.7	---	---	725.5	0.028	0.000	18.4	1	1
03/24/06	6:22 p	-21.3	-21.3	-21.3	---	---	5.2	NNW	0.09	6.1	-28.6	---	---	725.6	0.028	0.000	18.4	1	1
03/24/06	6:23 p	-21.3	-21.3	-21.3	---	---	5.2	NNW	0.09	6.1	-28.6	---	---	725.5	0.028	0.000	18.4	1	1
03/24/06	6:24 p	-21.3	-21.3	-21.3	---	---	5.2	NNW	0.09	6.1	-28.6	---	---	725.5	0.028	0.000	18.4	1	1
03/24/06	6:25 p	-21.3	-21.3	-21.3	---	---	6.1	NNW	0.10	6.1	-29.3	---	---	725.5	0.028	0.000	18.4	1	1
03/24/06	6:26 p	-21.3	-21.3	-21.3	---	---	5.2	NNW	0.09	6.1	-28.6	---	---	725.6	0.028	0.000	18.4	1	1
03/24/06	6:27 p	-21.4	-21.4	-21.4	---	---	5.2	NNW	0.09	6.1	-28.6	---	---	725.5	0.028	0.000	18.4	1	1
03/24/06	6:28 p	-21.3	-21.3	-21.4	---	---	5.2	NNW	0.09	6.1	-28.6	---	---	725.5	0.028	0.000	18.4	1	1
03/24/06	6:29 p	-21.3	-21.3	-21.4	---	---	5.2	NNW	0.09	6.1	-28.6	---	---	725.5	0.028	0.000	18.4	1	1
03/24/06	6:30 p	-21.4	-21.3	-21.4	---	---	5.2	NNW	0.09	6.1	-28.6	---	---	725.6	0.028	0.000	18.4	1	1
03/24/06	6:31 p	-21.4	-21.3	-21.4	---	---	5.2	NNW	0.09	6.1	-28.6	---	---	725.5	0.028	0.000	18.4	1	1
03/24/06	6:32 p	-21.4	-21.3	-21.4	---	---	5.2	NNW	0.09	6.1	-28.6	---	---	725.5	0.028	0.000	18.4	1	1
03/24/06	6:33 p	-21.4	-21.3	-21.4	---	---	5.2	NNW	0.09	6.1	-28.6	---	---	725.5	0.028	0.000	18.4	1	1
03/24/06	6:34 p	-21.3	-21.3	-21.3	---	---	6.1	NNW	0.10	7.0	-29.3	---	---	725.6	0.028	0.000	18.4	1	1
03/24/06	6:35 p	-21.3	-21.3	-21.4	---	---	6.1	NNW	0.10	7.0	-29.3	---	---	725.6	0.028	0.000	18.4	1	1
03/24/06	6:36 p	-21.3	-21.3	-21.3	---	---	6.1	NNW	0.10	6.1	-29.3	---	---	725.6	0.028	0.000	18.4	1	1
03/24/06	6:37 p	-21.3	-21.3	-21.3	---	---	5.2	NNW	0.09	6.1	-28.6	---	---	725.6	0.028	0.000	18.4	1	1
03/24/06	6:38 p	-21.3	-21.3	-21.4	---	---	5.2	NNW	0.09	6.1	-28.6	---	---	725.5	0.028	0.000	18.4	1	1
03/24/06	6:39 p	-21.4	-21.3	-21.4	---	---	5.2	NNW	0.09	6.1	-28.6	---	---	725.5	0.028	0.000	18.4	1	1
03/24/06	6:40 p	-21.3	-21.3	-21.3	---	---	5.2	NNW	0.09	6.1	-28.6	---	---	725.5	0.028	0.000	18.4	1	1
03/24/06	6:41 p	-21.3	-21.3	-21.3	---	---	5.2	NNW	0.09	6.1	-28.6	---	---	725.4	0.028	0.000	18.4	1	1
03/24/06	6:42 p	-21.3	-21.3	-21.3	---	---	6.1	NNW	0.10	6.1	-29.3	---	---	725.6	0.028	0.000	18.4	1	1
03/24/06	6:43 p	-21.3	-21.3	-21.3	---	---	5.2	NNW	0.09	6.1	-28.6	---	---	725.5	0.028	0.000	18.4	1	1
03/24/06	6:44 p	-21.3	-21.3	-21.3	---	---	6.1	NNW	0.10	7.0	-29.3	---	---	725.6	0.028	0.000	18.4	1	1
03/24/06	6:45 p	-21.3	-21.3	-21.3	---	---	5.2	NNW	0.09	6.1	-28.6	---	---	725.6	0.028	0.000	18.4	1	1
03/24/06	6:46 p	-21.3	-21.3	-21.3	---	---	6.1	NNW	0.10	7.0	-29.3	---	---	725.5	0.028	0.000	18.4	1	1
03/24/06	6:47 p	-21.3	-21.3	-21.3	---	---	6.1	NNW	0.10	7.0	-29.2	---	---	725.5	0.028	0.000	18.4	1	1
03/24/06	6:48 p	-21.3	-21.3	-21.3	---	---	6.1	NNW	0.10	7.0	-29.3	---	---	725.5	0.028	0.000	18.4	1	1
03/24/06	6:49 p	-21.3	-21.3	-21.3	---	---	6.1	NNW	0.10	7.0	-29.3	---	---	725.5	0.028	0.000	18.4	1	1
03/24/06	6:50 p	-21.3	-21.3	-21.3	---	---	6.1	NNW	0.10	7.0	-29.2	---	---	725.4	0.028	0.000	18.4	1	1
03/24/06	6:51 p	-21.3	-21.3	-21.3	---	---	6.1	NNW	0.10	7.0	-29.2	---	---	725.5	0.028	0.000	18.4	1	1
03/24/06	6:52 p	-21.3	-21.3	-21.3	---	---	6.1	NNW	0.10	7.8	-29.2	---	---	725.5	0.028	0.000	18.4	1	1
03/24/06	6:53 p	-21.3	-21.3	-21.3	---	---	6.1	NNW	0.10	7.0	-29.2	---	---	725.4	0.028	0.000	18.4	1	1
03/24/06	6:54 p	-21.3	-21.3	-21.3	---	---	6.1	NNW	0.10	7.0	-29.2	---	---	725.6	0.028	0.000	18.4	1	1
03/24/06	6:55 p	-21.3	-21.3	-21.3	---	---	6.1	NNW	0.10	7.0	-29.2	---	---	725.6	0.028	0.000	18.4	1	1
03/24/06	6:56 p	-21.3	-21.3	-21.3	---	---	6.1	NNW	0.10	7.0	-29.2	---	---	725.6	0.028	0.000	18.4	1	1
03/24/06	6:57 p	-21.3	-21.2	-21.3	---	---	7.0	NNW	0.12	7.8	-29.8	---	---	725.5	0.028	0.000	18.4	1	1
03/24/06	6:58 p	-21.2	-21.2	-21.3	---	---	7.0	NNW	0.12	7.8	-29.8	---	---	725.5	0.027	0.000	18.4	1	1
03/24/06	6:59 p	-21.3	-21.2	-21.3	---	---	7.8	NNW	0.13	8.7	-30.4	---	---	725.5	0.028	0.000	18.4	1	1
03/24/06	7:00 p	-21.2	-21.2	-21.3	---	---	7.0	NNW	0.12	7.8	-29.8	---	---	725.5	0.027	0.000	18.4	1	1
03/24/06	7:01 p	-21.2	-21.2	-21.3	---	---	7.0	NNW	0.12	7.8	-29.8	---	---	725.5	0.027	0.000	18.4	1	1
03/24/06	7:02 p	-21.2	-21.2	-21.2	---	---	7.0	NNW	0.12	7.8	-29.8	---	---	725.5	0.027	0.000	18.4	1	1
03/24/06	7:03 p	-21.3	-21.2	-21.3	---	---	7.0	NNW	0.12	7.0	-29.8	---	---	725.6	0.028	0.000	18.4	1	1
03/24/06	7:04 p	-21.3	-21.3	-21.3	---	---	7.0	NNW	0.12	7.8	-29.8	---	---	725.5	0.028	0.000	18.4	1	1
03/24/06	7:05 p	-21.3	-21.2	-21.3	---	---	7.0	NNW	0.12	7.8	-29.8	---	---	725.5	0.028	0.000	18.4	1	1
03/24/06	7:06 p	-21.3	-21.3	-21.3	---	---	6.1	NNW	0.10	7.0	-29.2	---	---	725.5	0.028	0.000	18.4	1	1
03/24/06	7:07 p	-21.3	-21.3	-21.3	---	---	7.0	NNW	0.12	7.8	-29.8	---	---	725.5	0.028	0.000	18.4	1	1
03/24/06	7:08 p	-21.3	-21.3	-21.3	---	---	6.1	NNW	0.10	7.0	-29.2	---	---	725.5	0.028	0.000	18.4	1	1
03/24/06	7:09 p	-21.3	-21.2	-21.3	---	---	6.1	NNW	0.10	7.8	-29.2	---	---	725.6	0.028	0.000	18.4	1	1
03/24/06	7:10 p	-21.3	-21.2	-21.3	---	---	6.1	NNW	0.10	7.0	-29.2	---	---	725.6	0.028	0.000	18.4	1	1
03/24/06	7:11 p	-21.3	-21.3	-21.3	---	---	7.0	NNW	0.12	7.0	-29.8	---	---	725.5	0.028	0.000	18.4	1	1
03/24/06	7:12 p	-21.3	-21.3	-21.3	---	---	5.2	NNW	0.09	6.1	-28.5	---	---	725.6	0.028	0.000	18.4	1	1
03/24/06	7:13 p	-21.3	-21.3	-21.3	---	---	5.2	NNW	0.09	7.8	-28.5	---	---	725.5	0.028	0.000	18.4	1	1
03/24/06	7:14 p	-21.3	-21.3	-21.3	---	---	6.1	NNW	0.10	7.0	-29.2	---	---	725.5	0.028	0.000	18.4	1	1
03/24/06	7:15 p	-21.3	-21.3	-21.3	---	---	5.2	NNW	0.09	6.1	-28.5	---	---	725.6	0.028	0.000	18.4	1	1
03/24/06	7:16 p	-21.3	-21.3	-21.3	---	---	5.2	NNW	0.09	6.1	-28.6	---	---	725.6	0.028	0.000	18.4	1	1
03/24/06	7:17 p	-21.3	-21.3	-21.3	---	---	6.1	NNW	0.10	7.0	-29.3	---	---	725.6	0.028	0.000	18.4	1	1
03/24/06	7:18 p	-21.3	-21.3	-21.4	---	---	6.1	NNW	0.10	6.1	-29.3	---	---	725.6	0.028	0.000	18.4	1	1
03/24/06	7:19 p	-21.3	-21.3	-21.4	---	---	5.2	NNW	0.09	5.2	-28.6	---	---	725.6	0.028	0.000	18.4	1	1
03/24/06	7:20 p	-21.3	-21.3	-21.3	---	---	5.2	NNW	0.09	6.1	-28.6	---	---	725.5	0.028	0.000	18.4	1	1
03/24/06	7:21 p	-21.3	-21.3	-21.3	---	---	6.1	NNW	0.10	6.1	-29.3	---	---	725.5	0.028	0.000	18.4	1	1
03/24/06	7:22 p	-21.3	-21.3	-21.4	---	---	5.2	NNW	0.09	6.1	-28.6	---	---	725.6	0.028	0.000	18.4	1	1
03/24/06	7:23 p	-21.3	-21.3	-21.4	---	---	5.2	NNW	0.09	6.1	-28.6	---	---	725.5	0.028	0.000	18.4	1	1
03/24/06	7:24 p	-21.4	-21.4	-21.4	---	---	5.2	NNW	0.09	7.0	-28.6	---	---	725.6	0.028	0.000	18.4	1	1
03/24/06	7:25 p	-21.4	-21.4	-21.4	---	---	5.2	NNW	0.09	6.1	-28.6	---	---	725.4	0.028	0.000	18.4	1	1
03/24/06	7:26 p	-21.4	-21.4	-21.4	---	---	6.1	NNW	0.10	7.0	-29.3	---	---	725.5	0.028	0.000	18.4	1	1
03/24/06	7:27 p	-21.4	-21.3	-21.4	---	---	6.1	NNW	0.10	7.0	-29.3	---	---	725.6	0.028	0.000	18.4	1	1
03/24/06	7:28 p	-21.4	-21.3	-21.4	---	---	5.2	NNW	0.09	6.1	-28.6	---	---	725.6	0.028	0.000	18.4	1	1
03/24/06	7:29 p	-21.3	-21.3	-21.3	---	---	6.1	NNW	0.10	7.0	-29.3	---	---	725.5	0.028	0.000	18.5	1	1
03/24/06	7:30 p	-21.4	-21.3	-21.4	---	---	5.2	NNW	0.09	6.1	-28.6	---	---	725.5	0.028	0.000	18.4	1	1
03/24/06	7:31 p	-21.4	-21.4	-21.4	---	---	6.1	NNW	0.10	7.0	-29.3	---	---	725.4	0.028	0.000	18.4	1	1
03/24/06	7:32 p	-21.4	-21.4	-21.4	---	---	6.1	NNW	0.10	7.0	-29.3	---	---	725.5	0.028	0.000	18.4	1	1
03/24/06	7:33 p	-21.3	-21.3	-21.3	---	---	5.2	NNW	0.09	6.1	-28.6	---	---	725.6	0.028	0.000	18.4	1	1
03/24/06	7:34 p	-21.3	-21.3	-21.3	---	---	5.2	NNW	0.09	7.0	-28.6	---	---	725.4	0.028	0.000	18.4	1	1
03/24/06	7:35 p	-21.4	-21.3	-21.4	---	---	6.1	NNW	0.10	7.0	-29.3	---	---	725.5	0.028	0.000	18.5	1	1
03/24/06	7:36 p	-21.3	-21.3	-21.4	---	---	6.1	NNW	0.10	7.0	-29.3	---	---	725.5	0.028	0.000	18.5	1	1
03/24/06	7:37 p	-21.3	-21.3	-21.3	---	---	7.0	NNW	0.12	7.8	-29.9	---	---	725.5	0.028	0.000	18.5	1	1
03/24/06	7:38 p	-21.3	-21.3	-21.3	---	---	6.1	NNW	0.10	7.0	-29.3	---	---	725.4	0.028	0.000	18.5	1	1
03/24/06	7:39 p	-21.3	-21.3	-21.3	---	---	6.1	NNW	0.10	7.0	-29.3	---	---	725.5	0.028	0.000	18.5	1	1
03/24/06	7:40 p	-21.3	-21.3	-21.3	---	---	6.1	NNW	0.10	6.1	-29.3	---	---	725.5	0.028	0.000	18.5	1	1
03/24/06	7:41 p	-21.3	-21.3	-21.3	---	---	6.1	NNW	0.10	7.8	-29.2	---	---	725.4	0.028	0.000	18.5	1	1
03/24/06	7:42 p	-21.3	-21.3	-21.3	---	---	7.0	NNW	0.12	7.8	-29.8	---	---	725.4	0.028	0.000	18.5	1	1
03/24/06	7:43 p	-21.3	-21.3	-21.3	---	---	6.1	NNW	0.10	7.0	-29.2	---	---	725.5	0.028	0.000	18.5	1	1
03/24/06	7:44 p	-21.3	-21.3	-21.3	---	---	6.1	NNW	0.10	7.0	-29.2	---	---	725.5	0.028	0.000	18.5	1	1
03/24/06	7:45 p	-21.2	-21.2	-21.3	---	---	7.0	NNW	0.12	8.7	-29.8	---	---	725.5	0.027	0.000	18.5	1	1
03/24/06	7:46 p	-21.2	-21.2	-21.3	---	---	5.2	NNW	0.09	6.1	-28.4	---	---	725.5	0.027	0.000	18.5	1	1
03/24/06	7:47 p	-21.2	-21.2	-21.2	---	---	6.1	NNW	0.10	7.0	-29.1	---	---	725.6	0.027	0.000	18.5	1	1
03/24/06	7:48 p	-21.2	-21.2	-21.2	---	---	6.1	NNW	0.10	7.0	-29.1	---	---	725.4	0.027	0.000	18.5	1	1
03/24/06	7:49 p	-21.2	-21.2	-21.2	---	---	6.1	NNW	0.10	7.0	-29.1	---	---	725.5	0.027	0.000	18.4	1	1
03/24/06	7:50 p	-21.2	-21.2	-21.2	---	---	7.0	NNW	0.12	7.8	-29.7	---	---	725.5	0.027	0.000	18.4	1	1
03/24/06	7:51 p	-21.2	-21.1	-21.2	---	---	7.0	NNW	0.12	7.8	-29.7	---	---	725.5	0.027	0.000	18.4	1	1
03/24/06	7:52 p	-21.1	-21.1	-21.2	---	---	6.1	NW	0.10	7.8	-29.0	---	---	725.5	0.027	0.000	18.4	1	1
03/24/06	7:53 p	-21.1	-21.1	-21.1	---	---	7.8	NW	0.13	10.4	-30.2	---	---	725.5	0.027	0.000	18.4	1	1
03/24/06	7:54 p	-21.1	-21.1	-21.1	---	---	7.0	NW	0.12	7.8	-29.6	---	---	725.6	0.027	0.000	18.4	1	1
03/24/06	7:55 p	-21.1	-21.1	-21.1	---	---	7.8	NW	0.13	8.7	-30.1	---	---	725.5	0.027	0.000	18.4	1	1
03/24/06	7:56 p	-21.0	-21.0	-21.1	---	---	7.0	NW	0.12	7.8	-29.5	---	---	725.4	0.027	0.000	18.4	1	1
03/24/06	7:57 p	-21.0	-21.0	-21.0	---	---	6.1	NW	0.10	7.0	-28.9	---	---	725.5	0.027	0.000	18.4	1	1
03/24/06	7:58 p	-21.0	-21.0	-21.0	---	---	7.8	NW	0.13	8.7	-30.1	---	---	725.5	0.027	0.000	18.4	1	1
03/24/06	7:59 p	-21.0	-20.9	-21.0	---	---	7.8	NW	0.13	8.7	-30.1	---	---	725.4	0.027	0.000	18.4	1	1
03/24/06	8:00 p	-20.9	-20.9	-20.9	---	---	8.7	NW	0.14	11.3	-30.5	---	---	725.4	0.027	0.000	18.4	1	1
03/24/06	8:01 p	-20.9	-20.9	-20.9	---	---	8.7	NW	0.14	10.4	-30.5	---	---	725.4	0.027	0.000	18.3	1	1
03/24/06	8:02 p	-20.9	-20.9	-20.9	---	---	9.6	NW	0.16	10.4	-30.9	---	---	725.4	0.027	0.000	18.3	1	1
03/24/06	8:03 p	-20.8	-20.8	-20.9	---	---	8.7	NW	0.14	10.4	-30.4	---	---	725.4	0.027	0.000	18.3	1	1
03/24/06	8:04 p	-20.8	-20.8	-20.8	---	---	8.7	NW	0.14	9.6	-30.4	---	---	725.5	0.027	0.000	18.3	1	1
03/24/06	8:05 p	-20.8	-20.8	-20.8	---	---	7.8	NW	0.13	8.7	-29.8	---	---	725.6	0.027	0.000	18.3	1	1
03/24/06	8:06 p	-20.8	-20.8	-20.8	---	---	8.7	NW	0.14	10.4	-30.3	---	---	725.6	0.027	0.000	18.3	1	1
03/24/06	8:07 p	-20.8	-20.8	-20.8	---	---	7.8	NW	0.13	9.6	-29.8	---	---	725.5	0.027	0.000	18.3	1	1
03/24/06	8:08 p	-20.7	-20.7	-20.7	---	---	7.8	NW	0.13	9.6	-29.7	---	---	725.5	0.027	0.000	18.3	1	1
03/24/06	8:09 p	-20.7	-20.7	-20.7	---	---	7.8	NW	0.13	9.6	-29.7	---	---	725.5	0.027	0.000	18.3	1	1
03/24/06	8:10 p	-20.7	-20.7	-20.7	---	---	8.7	NW	0.14	11.3	-30.2	---	---	725.4	0.027	0.000	18.3	1	1
03/24/06	8:11 p	-20.7	-20.7	-20.7	---	---	8.7	NW	0.14	10.4	-30.2	---	---	725.4	0.027	0.000	18.4	1	1
03/24/06	8:12 p	-20.6	-20.6	-20.7	---	---	9.6	NW	0.16	12.2	-30.6	---	---	725.4	0.027	0.000	18.4	1	1
03/24/06	8:13 p	-20.7	-20.6	-20.7	---	---	11.3	NW	0.19	13.0	-31.4	---	---	725.4	0.027	0.000	18.4	1	1
03/24/06	8:14 p	-20.6	-20.6	-20.6	---	---	12.2	NW	0.20	13.9	-31.8	---	---	725.4	0.027	0.000	18.4	1	1
03/24/06	8:15 p	-20.6	-20.6	-20.6	---	---	9.6	NW	0.16	12.2	-30.5	---	---	725.4	0.027	0.000	18.4	1	1
03/24/06	8:16 p	-20.6	-20.6	-20.6	---	---	10.4	NW	0.17	11.3	-30.9	---	---	725.4	0.027	0.000	18.4	1	1
03/24/06	8:17 p	-20.6	-20.5	-20.6	---	---	10.4	NW	0.17	11.3	-30.9	---	---	725.4	0.027	0.000	18.4	1	1
03/24/06	8:18 p	-20.6	-20.5	-20.6	---	---	10.4	NW	0.17	12.2	-30.9	---	---	725.4	0.027	0.000	18.4	1	1
03/24/06	8:19 p	-20.5	-20.5	-20.6	---	---	11.3	NW	0.19	13.0	-31.3	---	---	725.4	0.027	0.000	18.4	1	1
03/24/06	8:20 p	-20.4	-20.4	-20.5	---	---	11.3	NW	0.19	12.2	-31.2	---	---	725.5	0.027	0.000	18.4	1	1
03/24/06	8:21 p	-20.4	-20.4	-20.4	---	---	10.4	NW	0.17	11.3	-30.8	---	---	725.4	0.027	0.000	18.4	1	1
03/24/06	8:22 p	-20.4	-20.4	-20.4	---	---	10.4	NW	0.17	11.3	-30.8	---	---	725.4	0.027	0.000	18.4	1	1
03/24/06	8:23 p	-20.4	-20.4	-20.4	---	---	9.6	NW	0.16	11.3	-30.3	---	---	725.4	0.027	0.000	18.4	1	1
03/24/06	8:24 p	-20.4	-20.4	-20.4	---	---	10.4	NW	0.17	12.2	-30.8	---	---	725.5	0.027	0.000	18.4	1	1
03/24/06	8:25 p	-20.4	-20.4	-20.4	---	---	10.4	NW	0.17	11.3	-30.7	---	---	725.4	0.027	0.000	18.4	1	1
03/24/06	8:26 p	-20.4	-20.4	-20.4	---	---	11.3	NW	0.19	13.0	-31.1	---	---	725.4	0.027	0.000	18.4	1	1
03/24/06	8:27 p	-20.4	-20.3	-20.4	---	---	11.3	NW	0.19	13.0	-31.1	---	---	725.4	0.027	0.000	18.4	1	1
03/24/06	8:28 p	-20.3	-20.3	-20.4	---	---	11.3	NW	0.19	12.2	-31.1	---	---	725.4	0.027	0.000	18.4	1	1
03/24/06	8:29 p	-20.3	-20.3	-20.4	---	---	12.2	NW	0.20	13.9	-31.4	---	---	725.5	0.027	0.000	18.4	1	1
03/24/06	8:30 p	-20.3	-20.3	-20.3	---	---	12.2	NW	0.20	14.8	-31.4	---	---	725.4	0.027	0.000	18.4	1	1
03/24/06	8:31 p	-20.3	-20.3	-20.3	---	---	11.3	NW	0.19	13.0	-31.1	---	---	725.4	0.027	0.000	18.3	1	1
03/24/06	8:32 p	-20.3	-20.3	-20.3	---	---	11.3	NW	0.19	12.2	-30.9	---	---	725.4	0.027	0.000	18.4	1	1
03/24/06	8:33 p	-20.3	-20.3	-20.3	---	---	13.0	NW	0.22	13.9	-31.7	---	---	725.4	0.027	0.000	18.4	1	1
03/24/06	8:34 p	-20.3	-20.3	-20.3	---	---	11.3	NW	0.19	13.0	-30.9	---	---	725.4	0.027	0.000	18.4	1	1
03/24/06	8:35 p	-20.3	-20.3	-20.3	---	---	12.2	NW	0.20	14.8	-31.3	---	---	725.3	0.027	0.000	18.4	1	1
03/24/06	8:36 p	-20.3	-20.3	-20.3	---	---	10.4	NW	0.17	12.2	-30.6	---	---	725.5	0.027	0.000	18.3	1	1
03/24/06	8:37 p	-20.3	-20.2	-20.3	---	---	11.3	NW	0.19	13.0	-30.9	---	---	725.3	0.027	0.000	18.3	1	1
03/24/06	8:38 p	-20.2	-20.2	-20.3	---	---	10.4	NW	0.17	12.2	-30.5	---	---	725.5	0.027	0.000	18.4	1	1
03/24/06	8:39 p	-20.2	-20.2	-20.2	---	---	9.6	NW	0.16	11.3	-30.1	---	---	725.5	0.027	0.000	18.4	1	1
03/24/06	8:40 p	-20.2	-20.2	-20.2	---	---	10.4	NW	0.17	11.3	-30.5	---	---	725.5	0.027	0.000	18.4	1	1
03/24/06	8:41 p	-20.3	-20.2	-20.3	---	---	10.4	NW	0.17	11.3	-30.6	---	---	725.5	0.027	0.000	18.4	1	1
03/24/06	8:42 p	-20.2	-20.2	-20.3	---	---	8.7	NW	0.14	11.3	-29.6	---	---	725.5	0.027	0.000	18.4	1	1
03/24/06	8:43 p	-20.3	-20.3	-20.3	---	---	9.6	NW	0.16	10.4	-30.1	---	---	725.4	0.027	0.000	18.4	1	1
03/24/06	8:44 p	-20.3	-20.2	-20.3	---	---	10.4	NW	0.17	13.0	-30.6	---	---	725.5	0.027	0.000	18.4	1	1
03/24/06	8:45 p	-20.3	-20.3	-20.3	---	---	8.7	NW	0.14	9.6	-29.7	---	---	725.5	0.027	0.000	18.4	1	1
03/24/06	8:46 p	-20.3	-20.2	-20.3	---	---	8.7	NW	0.14	9.6	-29.7	---	---	725.5	0.027	0.000	18.4	1	1
03/24/06	8:47 p	-20.3	-20.3	-20.3	---	---	7.8	NW	0.13	8.7	-29.2	---	---	725.5	0.027	0.000	18.4	1	1
03/24/06	8:48 p	-20.3	-20.3	-20.3	---	---	7.8	NW	0.13	8.7	-29.2	---	---	725.4	0.027	0.000	18.4	1	1
03/24/06	8:49 p	-20.3	-20.3	-20.3	---	---	7.8	NW	0.13	9.6	-29.2	---	---	725.5	0.027	0.000	18.4	1	1
03/24/06	8:50 p	-20.3	-20.3	-20.3	---	---	7.8	NW	0.13	8.7	-29.2	---	---	725.6	0.027	0.000	18.4	1	1
03/24/06	8:51 p	-20.3	-20.3	-20.3	---	---	7.0	NW	0.12	7.8	-28.6	---	---	725.5	0.027	0.000	18.4	1	1
03/24/06	8:52 p	-20.3	-20.3	-20.3	---	---	7.8	NW	0.13	8.7	-29.2	---	---	725.4	0.027	0.000	18.4	1	1
03/24/06	8:53 p	-20.3	-20.3	-20.3	---	---	8.7	NW	0.14	10.4	-29.7	---	---	725.5	0.027	0.000	18.4	1	1
03/24/06	8:54 p	-20.3	-20.3	-20.3	---	---	7.8	NW	0.13	9.6	-29.2	---	---	725.5	0.027	0.000	18.4	1	1
03/24/06	8:55 p	-20.3	-20.3	-20.3	---	---	7.8	NW	0.13	9.6	-29.2	---	---	725.4	0.027	0.000	18.4	1	1
03/24/06	8:56 p	-20.3	-20.3	-20.3	---	---	7.0	NW	0.12	8.7	-28.7	---	---	725.5	0.027	0.000	18.4	1	1
03/24/06	8:57 p	-20.3	-20.3	-20.3	---	---	7.8	NW	0.13	10.4	-29.2	---	---	725.5	0.027	0.000	18.4	1	1
03/24/06	8:58 p	-20.3	-20.3	-20.3	---	---	7.8	NW	0.13	7.8	-29.2	---	---	725.5	0.027	0.000	18.4	1	1
03/24/06	8:59 p	-20.3	-20.3	-20.3	---	---	7.8	NW	0.13	9.6	-29.2	---	---	725.5	0.027	0.000	18.4	1	1
03/24/06	9:00 p	-20.4	-20.4	-20.4	---	---	9.6	NW	0.16	10.4	-30.3	---	---	725.5	0.027	0.000	18.4	1	1
03/24/06	9:01 p	-20.4	-20.4	-20.4	---	---	9.6	NW	0.16	10.4	-30.3	---	---	725.5	0.027	0.000	18.4	1	1
03/24/06	9:02 p	-20.4	-20.3	-20.4	---	---	9.6	NW	0.16	10.4	-30.3	---	---	725.6	0.027	0.000	18.4	1	1
03/24/06	9:03 p	-20.4	-20.4	-20.4	---	---	9.6	NW	0.16	9.6	-30.3	---	---	725.5	0.027	0.000	18.4	1	1
03/24/06	9:04 p	-20.4	-20.4	-20.4	---	---	9.6	NW	0.16	10.4	-30.3	---	---	725.4	0.027	0.000	18.4	1	1
03/24/06	9:05 p	-20.4	-20.4	-20.4	---	---	8.7	NW	0.14	9.6	-29.8	---	---	725.5	0.027	0.000	18.4	1	1
03/24/06	9:06 p	-20.4	-20.4	-20.4	---	---	8.7	NW	0.14	9.6	-29.8	---	---	725.5	0.027	0.000	18.4	1	1
03/24/06	9:07 p	-20.4	-20.4	-20.4	---	---	8.7	NW	0.14	9.6	-29.8	---	---	725.5	0.027	0.000	18.4	1	1
03/24/06	9:08 p	-20.4	-20.4	-20.4	---	---	9.6	NW	0.16	11.3	-30.3	---	---	725.5	0.027	0.000	18.4	1	1
03/24/06	9:09 p	-20.4	-20.4	-20.4	---	---	9.6	NW	0.16	10.4	-30.3	---	---	725.5	0.027	0.000	18.4	1	1
03/24/06	9:10 p	-20.4	-20.4	-20.4	---	---	9.6	NW	0.16	10.4	-30.3	---	---	725.4	0.027	0.000	18.4	1	1
03/24/06	9:11 p	-20.4	-20.4	-20.4	---	---	9.6	NW	0.16	11.3	-30.3	---	---	725.4	0.027	0.000	18.4	1	1
03/24/06	9:12 p	-20.4	-20.4	-20.4	---	---	9.6	NW	0.16	10.4	-30.3	---	---	725.4	0.027	0.000	18.4	1	1
03/24/06	9:13 p	-20.4	-20.4	-20.4	---	---	10.4	NW	0.17	11.3	-30.8	---	---	725.4	0.027	0.000	18.4	1	1
03/24/06	9:14 p	-20.4	-20.4	-20.4	---	---	11.3	NW	0.19	12.2	-31.1	---	---	725.5	0.027	0.000	18.4	1	1
03/24/06	9:15 p	-20.4	-20.4	-20.4	---	---	9.6	NW	0.16	11.3	-30.3	---	---	725.4	0.027	0.000	18.4	1	1
03/24/06	9:16 p	-20.4	-20.4	-20.4	---	---	11.3	NW	0.19	13.9	-31.1	---	---	725.5	0.027	0.000	18.4	1	1
03/24/06	9:17 p	-20.4	-20.4	-20.4	---	---	9.6	NW	0.16	10.4	-30.3	---	---	725.4	0.027	0.000	18.4	1	1
03/24/06	9:18 p	-20.4	-20.3	-20.4	---	---	10.4	NW	0.17	13.0	-30.7	---	---	725.5	0.027	0.000	18.4	1	1
03/24/06	9:19 p	-20.4	-20.4	-20.4	---	---	10.4	NW	0.17	12.2	-30.7	---	---	725.5	0.027	0.000	18.4	1	1
03/24/06	9:20 p	-20.4	-20.3	-20.4	---	---	11.3	NW	0.19	13.0	-31.1	---	---	725.4	0.027	0.000	18.3	1	1
03/24/06	9:21 p	-20.3	-20.3	-20.3	---	---	10.4	NW	0.17	12.2	-30.6	---	---	725.4	0.027	0.000	18.3	1	1
03/24/06	9:22 p	-20.3	-20.3	-20.3	---	---	10.4	NW	0.17	11.3	-30.6	---	---	725.4	0.027	0.000	18.3	1	1
03/24/06	9:23 p	-20.3	-20.3	-20.3	---	---	10.4	NW	0.17	11.3	-30.6	---	---	725.4	0.027	0.000	18.3	1	1
03/24/06	9:24 p	-20.3	-20.3	-20.3	---	---	9.6	NW	0.16	11.3	-30.2	---	---	725.5	0.027	0.000	18.3	1	1
03/24/06	9:25 p	-20.3	-20.3	-20.3	---	---	9.6	NW	0.16	10.4	-30.2	---	---	725.4	0.027	0.000	18.3	1	1
03/24/06	9:26 p	-20.3	-20.3	-20.3	---	---	10.4	NNW	0.17	12.2	-30.6	---	---	725.4	0.027	0.000	18.3	1	1
03/24/06	9:27 p	-20.3	-20.3	-20.3	---	---	10.4	NNW	0.17	12.2	-30.6	---	---	725.4	0.027	0.000	18.3	1	1
03/24/06	9:28 p	-20.3	-20.3	-20.3	---	---	9.6	NNW	0.16	11.3	-30.1	---	---	725.4	0.027	0.000	18.3	1	1
03/24/06	9:29 p	-20.3	-20.2	-20.3	---	---	10.4	NNW	0.17	12.2	-30.6	---	---	725.5	0.027	0.000	18.3	1	1
03/24/06	9:30 p	-20.2	-20.2	-20.2	---	---	8.7	NNW	0.14	9.6	-29.6	---	---	725.4	0.027	0.000	18.3	1	1
03/24/06	9:31 p	-20.2	-20.2	-20.2	---	---	10.4	NW	0.17	12.2	-30.5	---	---	725.4	0.027	0.000	18.3	1	1
03/24/06	9:32 p	-20.2	-20.2	-20.2	---	---	10.4	NNW	0.17	11.3	-30.5	---	---	725.4	0.027	0.000	18.3	1	1
03/24/06	9:33 p	-20.2	-20.2	-20.2	---	---	9.6	NNW	0.16	11.3	-30.0	---	---	725.4	0.027	0.000	18.2	1	1
03/24/06	9:34 p	-20.2	-20.2	-20.2	---	---	9.6	NNW	0.16	10.4	-30.0	---	---	725.5	0.027	0.000	18.2	1	1
03/24/06	9:35 p	-20.1	-20.1	-20.1	---	---	9.6	NW	0.16	12.2	-29.9	---	---	725.4	0.027	0.000	18.2	1	1
03/24/06	9:36 p	-20.1	-20.1	-20.1	---	---	11.3	NW	0.19	13.0	-30.8	---	---	725.4	0.027	0.000	18.2	1	1
03/24/06	9:37 p	-20.1	-20.1	-20.1	---	---	9.6	NW	0.16	10.4	-29.8	---	---	725.5	0.027	0.000	18.2	1	1
03/24/06	9:38 p	-20.1	-20.1	-20.1	---	---	8.7	NW	0.14	9.6	-29.4	---	---	725.4	0.027	0.000	18.2	1	1
03/24/06	9:39 p	-20.1	-20.1	-20.1	---	---	9.6	NW	0.16	10.4	-29.8	---	---	725.5	0.027	0.000	18.2	1	1
03/24/06	9:40 p	-20.0	-20.0	-20.1	---	---	10.4	NW	0.17	12.2	-30.2	---	---	725.4	0.027	0.000	18.2	1	1
03/24/06	9:41 p	-20.0	-20.0	-20.0	---	---	9.6	NW	0.16	12.2	-29.8	---	---	725.5	0.027	0.000	18.3	1	1
03/24/06	9:42 p	-20.0	-20.0	-20.0	---	---	8.7	NW	0.14	11.3	-29.3	---	---	725.4	0.027	0.000	18.3	1	1
03/24/06	9:43 p	-20.0	-20.0	-20.0	---	---	11.3	NW	0.19	13.9	-30.6	---	---	725.3	0.027	0.000	18.3	1	1
03/24/06	9:44 p	-19.9	-19.9	-20.0	---	---	9.6	NW	0.16	11.3	-29.7	---	---	725.5	0.027	0.000	18.3	1	1
03/24/06	9:45 p	-19.9	-19.9	-19.9	---	---	9.6	NNW	0.16	11.3	-29.7	---	---	725.4	0.027	0.000	18.3	1	1
03/24/06	9:46 p	-19.9	-19.9	-20.0	---	---	10.4	NNW	0.17	11.3	-30.2	---	---	725.5	0.027	0.000	18.3	1	1
03/24/06	9:47 p	-19.9	-19.9	-19.9	---	---	10.4	NW	0.17	11.3	-30.2	---	---	725.5	0.027	0.000	18.3	1	1
03/24/06	9:48 p	-19.9	-19.9	-19.9	---	---	9.6	NNW	0.16	10.4	-29.7	---	---	725.4	0.027	0.000	18.3	1	1
03/24/06	9:49 p	-19.9	-19.9	-19.9	---	---	9.6	NW	0.16	10.4	-29.7	---	---	725.5	0.027	0.000	18.3	1	1
03/24/06	9:50 p	-19.9	-19.9	-19.9	---	---	10.4	NNW	0.17	12.2	-30.1	---	---	725.4	0.027	0.000	18.3	1	1
03/24/06	9:51 p	-19.9	-19.9	-19.9	---	---	9.6	NW	0.16	10.4	-29.7	---	---	725.5	0.027	0.000	18.3	1	1
03/24/06	9:52 p	-19.9	-19.9	-19.9	---	---	9.6	NNW	0.16	10.4	-29.7	---	---	725.5	0.027	0.000	18.3	1	1
03/24/06	9:53 p	-19.9	-19.9	-19.9	---	---	9.6	NW	0.16	10.4	-29.7	---	---	725.5	0.027	0.000	18.3	1	1
03/24/06	9:54 p	-19.9	-19.9	-19.9	---	---	8.7	NW	0.14	9.6	-29.3	---	---	725.4	0.027	0.000	18.3	1	1
03/24/06	9:55 p	-19.9	-19.9	-19.9	---	---	9.6	NW	0.16	11.3	-29.7	---	---	725.4	0.027	0.000	18.3	1	1
03/24/06	9:56 p	-19.9	-19.9	-19.9	---	---	10.4	NW	0.17	12.2	-30.2	---	---	725.4	0.027	0.000	18.3	1	1
03/24/06	9:57 p	-19.9	-19.9	-19.9	---	---	9.6	NNW	0.16	10.4	-29.7	---	---	725.5	0.027	0.000	18.3	1	1
03/24/06	9:58 p	-19.9	-19.9	-19.9	---	---	8.7	NW	0.14	9.6	-29.2	---	---	725.5	0.027	0.000	18.3	1	1
03/24/06	9:59 p	-19.9	-19.9	-19.9	---	---	8.7	NW	0.14	11.3	-29.2	---	---	725.4	0.027	0.000	18.3	1	1
03/24/06	10:00 p	-19.9	-19.9	-19.9	---	---	8.7	NNW	0.14	10.4	-29.3	---	---	725.5	0.027	0.000	18.3	1	1
03/24/06	10:01 p	-19.9	-19.9	-19.9	---	---	8.7	NW	0.14	9.6	-29.2	---	---	725.6	0.027	0.000	18.3	1	1
03/24/06	10:02 p	-19.9	-19.9	-19.9	---	---	8.7	NNW	0.14	9.6	-29.3	---	---	725.5	0.027	0.000	18.3	1	1
03/24/06	10:03 p	-19.9	-19.9	-19.9	---	---	8.7	NW	0.14	10.4	-29.3	---	---	725.6	0.027	0.000	18.3	1	1
03/24/06	10:04 p	-19.9	-19.9	-19.9	---	---	9.6	NW	0.16	10.4	-29.7	---	---	725.4	0.027	0.000	18.3	1	1
03/24/06	10:05 p	-19.9	-19.9	-19.9	---	---	8.7	NW	0.14	9.6	-29.3	---	---	725.6	0.027	0.000	18.3	1	1
03/24/06	10:06 p	-19.9	-19.9	-20.0	---	---	7.8	NW	0.13	8.7	-28.8	---	---	725.5	0.027	0.000	18.3	1	1
03/24/06	10:07 p	-20.0	-19.9	-20.0	---	---	7.0	NW	0.12	7.8	-28.3	---	---	725.5	0.027	0.000	18.3	1	1
03/24/06	10:08 p	-20.0	-20.0	-20.0	---	---	7.8	NNW	0.13	10.4	-28.8	---	---	725.6	0.027	0.000	18.3	1	1
03/24/06	10:09 p	-20.0	-20.0	-20.0	---	---	8.7	NW	0.14	11.3	-29.3	---	---	725.5	0.027	0.000	18.3	1	1
03/24/06	10:10 p	-20.0	-20.0	-20.0	---	---	8.7	NW	0.14	10.4	-29.3	---	---	725.6	0.027	0.000	18.3	1	1
03/24/06	10:11 p	-20.0	-20.0	-20.0	---	---	8.7	NW	0.14	9.6	-29.3	---	---	725.6	0.027	0.000	18.3	1	1
03/24/06	10:12 p	-20.0	-20.0	-20.0	---	---	8.7	NW	0.14	9.6	-29.3	---	---	725.6	0.027	0.000	18.3	1	1
03/24/06	10:13 p	-20.0	-20.0	-20.1	---	---	7.0	NW	0.12	7.8	-28.3	---	---	725.6	0.027	0.000	18.3	1	1
03/24/06	10:14 p	-20.1	-20.0	-20.1	---	---	7.8	NW	0.13	9.6	-28.9	---	---	725.6	0.027	0.000	18.3	1	1
03/24/06	10:15 p	-20.0	-20.0	-20.1	---	---	8.7	NW	0.14	9.6	-29.3	---	---	725.6	0.027	0.000	18.3	1	1
03/24/06	10:16 p	-20.1	-20.1	-20.1	---	---	8.7	NW	0.14	9.6	-29.4	---	---	725.6	0.027	0.000	18.3	1	1
03/24/06	10:17 p	-20.1	-20.1	-20.1	---	---	7.8	NW	0.13	8.7	-28.9	---	---	725.6	0.027	0.000	18.4	1	1
03/24/06	10:18 p	-20.1	-20.1	-20.1	---	---	8.7	NW	0.14	10.4	-29.4	---	---	725.5	0.027	0.000	18.4	1	1
03/24/06	10:19 p	-20.1	-20.1	-20.1	---	---	9.6	NW	0.16	11.3	-29.8	---	---	725.6	0.027	0.000	18.4	1	1
03/24/06	10:20 p	-20.1	-20.1	-20.1	---	---	7.8	NW	0.13	9.6	-28.9	---	---	725.5	0.027	0.000	18.4	1	1
03/24/06	10:21 p	-20.1	-20.1	-20.1	---	---	8.7	NW	0.14	10.4	-29.4	---	---	725.6	0.027	0.000	18.4	1	1
03/24/06	10:22 p	-20.1	-20.1	-20.1	---	---	7.8	NW	0.13	9.6	-28.9	---	---	725.6	0.027	0.000	18.4	1	1
03/24/06	10:23 p	-20.1	-20.1	-20.1	---	---	8.7	NW	0.14	9.6	-29.4	---	---	725.6	0.027	0.000	18.4	1	1
03/24/06	10:24 p	-20.1	-20.1	-20.1	---	---	7.8	NW	0.13	9.6	-28.9	---	---	725.6	0.027	0.000	18.4	1	1
03/24/06	10:25 p	-20.1	-20.1	-20.1	---	---	8.7	NW	0.14	12.2	-29.4	---	---	725.6	0.027	0.000	18.4	1	1
03/24/06	10:26 p	-20.1	-20.1	-20.1	---	---	9.6	NW	0.16	10.4	-29.8	---	---	725.6	0.027	0.000	18.4	1	1
03/24/06	10:27 p	-20.1	-20.1	-20.1	---	---	8.7	NW	0.14	9.6	-29.4	---	---	725.6	0.027	0.000	18.3	1	1
03/24/06	10:28 p	-20.1	-20.1	-20.1	---	---	7.8	NW	0.13	9.6	-28.9	---	---	725.5	0.027	0.000	18.4	1	1
03/24/06	10:29 p	-20.1	-20.1	-20.1	---	---	8.7	NW	0.14	10.4	-29.4	---	---	725.6	0.027	0.000	18.4	1	1
03/24/06	10:30 p	-20.1	-20.1	-20.1	---	---	7.8	NW	0.13	8.7	-28.9	---	---	725.5	0.027	0.000	18.4	1	1
03/24/06	10:31 p	-20.1	-20.1	-20.1	---	---	7.8	NNW	0.13	9.6	-28.9	---	---	725.5	0.027	0.000	18.4	1	1
03/24/06	10:32 p	-20.1	-20.1	-20.1	---	---	7.8	NW	0.13	8.7	-28.9	---	---	725.6	0.027	0.000	18.4	1	1
03/24/06	10:33 p	-20.1	-20.1	-20.1	---	---	9.6	NNW	0.16	12.2	-29.8	---	---	725.5	0.027	0.000	18.4	1	1
03/24/06	10:34 p	-20.1	-20.1	-20.1	---	---	9.6	NW	0.16	11.3	-29.8	---	---	725.5	0.027	0.000	18.4	1	1
03/24/06	10:35 p	-20.1	-20.1	-20.1	---	---	9.6	NW	0.16	11.3	-29.8	---	---	725.5	0.027	0.000	18.4	1	1
03/24/06	10:36 p	-20.1	-20.1	-20.1	---	---	9.6	NW	0.16	10.4	-29.8	---	---	725.5	0.027	0.000	18.4	1	1
03/24/06	10:37 p	-20.1	-20.0	-20.1	---	---	9.6	NNW	0.16	11.3	-29.8	---	---	725.5	0.027	0.000	18.4	1	1
03/24/06	10:38 p	-20.1	-20.0	-20.1	---	---	9.6	NW	0.16	10.4	-29.8	---	---	725.5	0.027	0.000	18.4	1	1
03/24/06	10:39 p	-20.1	-20.1	-20.1	---	---	8.7	NW	0.14	9.6	-29.4	---	---	725.5	0.027	0.000	18.3	1	1
03/24/06	10:40 p	-20.1	-20.0	-20.1	---	---	9.6	NW	0.16	11.3	-29.8	---	---	725.4	0.027	0.000	18.3	1	1
03/24/06	10:41 p	-20.1	-20.0	-20.1	---	---	9.6	NW	0.16	10.4	-29.8	---	---	725.4	0.027	0.000	18.3	1	1
03/24/06	10:42 p	-20.0	-20.0	-20.0	---	---	10.4	NW	0.17	11.3	-30.2	---	---	725.5	0.027	0.000	18.3	1	1
03/24/06	10:43 p	-20.0	-20.0	-20.0	---	---	9.6	NW	0.16	10.4	-29.8	---	---	725.6	0.027	0.000	18.3	1	1
03/24/06	10:44 p	-20.0	-20.0	-20.0	---	---	9.6	NW	0.16	10.4	-29.8	---	---	725.5	0.027	0.000	18.3	1	1
03/24/06	10:45 p	-20.0	-20.0	-20.0	---	---	8.7	NW	0.14	10.4	-29.3	---	---	725.5	0.027	0.000	18.3	1	1
03/24/06	10:46 p	-20.0	-20.0	-20.0	---	---	8.7	NW	0.14	10.4	-29.3	---	---	725.5	0.027	0.000	18.3	1	1
03/24/06	10:47 p	-20.0	-19.9	-20.0	---	---	8.7	NW	0.14	10.4	-29.3	---	---	725.5	0.027	0.000	18.3	1	1
03/24/06	10:48 p	-19.9	-19.9	-19.9	---	---	8.7	NW	0.14	9.6	-29.3	---	---	725.5	0.027	0.000	18.3	1	1
03/24/06	10:49 p	-19.9	-19.9	-19.9	---	---	7.8	NW	0.13	9.6	-28.8	---	---	725.5	0.027	0.000	18.3	1	1
03/24/06	10:50 p	-19.9	-19.9	-19.9	---	---	8.7	NW	0.14	9.6	-29.3	---	---	725.5	0.027	0.000	18.3	1	1
03/24/06	10:51 p	-19.9	-19.9	-19.9	---	---	7.8	NW	0.13	8.7	-28.8	---	---	725.6	0.027	0.000	18.3	1	1
03/24/06	10:52 p	-19.9	-19.9	-19.9	---	---	8.7	NW	0.14	10.4	-29.2	---	---	725.6	0.027	0.000	18.3	1	1
03/24/06	10:53 p	-19.9	-19.9	-19.9	---	---	9.6	NW	0.16	12.2	-29.7	---	---	725.6	0.027	0.000	18.3	1	1
03/24/06	10:54 p	-19.9	-19.9	-19.9	---	---	8.7	NW	0.14	9.6	-29.2	---	---	725.5	0.027	0.000	18.3	1	1
03/24/06	10:55 p	-19.9	-19.9	-19.9	---	---	8.7	NW	0.14	10.4	-29.2	---	---	725.5	0.027	0.000	18.3	1	1
03/24/06	10:56 p	-19.8	-19.8	-19.9	---	---	8.7	NW	0.14	11.3	-29.1	---	---	725.5	0.027	0.000	18.3	1	1
03/24/06	10:57 p	-19.9	-19.9	-19.9	---	---	8.7	NW	0.14	10.4	-29.2	---	---	725.6	0.027	0.000	18.3	1	1
03/24/06	10:58 p	-19.8	-19.8	-19.9	---	---	9.6	NW	0.16	11.3	-29.6	---	---	725.5	0.027	0.000	18.3	1	1
03/24/06	10:59 p	-19.8	-19.8	-19.8	---	---	8.7	NW	0.14	9.6	-29.1	---	---	725.5	0.027	0.000	18.3	1	1
03/24/06	11:00 p	-19.8	-19.8	-19.8	---	---	7.8	NW	0.13	9.6	-28.6	---	---	725.5	0.027	0.000	18.3	1	1
03/24/06	11:01 p	-19.8	-19.8	-19.8	---	---	7.0	NW	0.12	7.8	-28.1	---	---	725.5	0.027	0.000	18.3	1	1
03/24/06	11:02 p	-19.8	-19.8	-19.8	---	---	8.7	NW	0.14	10.4	-29.1	---	---	725.5	0.027	0.000	18.3	1	1
03/24/06	11:03 p	-19.8	-19.8	-19.8	---	---	7.8	NW	0.13	8.7	-28.6	---	---	725.5	0.027	0.000	18.3	1	1
03/24/06	11:04 p	-19.8	-19.8	-19.8	---	---	7.8	NW	0.13	8.7	-28.6	---	---	725.5	0.027	0.000	18.3	1	1
03/24/06	11:05 p	-19.8	-19.8	-19.8	---	---	7.8	NW	0.13	9.6	-28.6	---	---	725.4	0.026	0.000	18.3	1	1
03/24/06	11:06 p	-19.8	-19.8	-19.8	---	---	8.7	NW	0.14	9.6	-29.1	---	---	725.4	0.026	0.000	18.3	1	1
03/24/06	11:07 p	-19.8	-19.8	-19.8	---	---	10.4	NW	0.17	12.2	-29.9	---	---	725.4	0.026	0.000	18.3	1	1
03/24/06	11:08 p	-19.8	-19.8	-19.8	---	---	10.4	NW	0.17	10.4	-29.9	---	---	725.5	0.026	0.000	18.3	1	1
03/24/06	11:09 p	-19.8	-19.7	-19.8	---	---	9.6	NW	0.16	10.4	-29.5	---	---	725.5	0.026	0.000	18.3	1	1
03/24/06	11:10 p	-19.8	-19.7	-19.8	---	---	9.6	NW	0.16	10.4	-29.5	---	---	725.5	0.026	0.000	18.3	1	1
03/24/06	11:11 p	-19.8	-19.7	-19.8	---	---	8.7	NW	0.14	9.6	-29.1	---	---	725.5	0.026	0.000	18.3	1	1
03/24/06	11:12 p	-19.7	-19.7	-19.8	---	---	10.4	NW	0.17	12.2	-29.9	---	---	725.4	0.026	0.000	18.3	1	1
03/24/06	11:13 p	-19.7	-19.7	-19.7	---	---	9.6	NW	0.16	11.3	-29.4	---	---	725.5	0.026	0.000	18.4	1	1
03/24/06	11:14 p	-19.7	-19.7	-19.8	---	---	8.7	NW	0.14	9.6	-29.0	---	---	725.5	0.026	0.000	18.4	1	1
03/24/06	11:15 p	-19.7	-19.7	-19.7	---	---	9.6	NW	0.16	11.3	-29.4	---	---	725.4	0.026	0.000	18.4	1	1
03/24/06	11:16 p	-19.7	-19.7	-19.7	---	---	8.7	NW	0.14	10.4	-29.0	---	---	725.5	0.026	0.000	18.4	1	1
03/24/06	11:17 p	-19.7	-19.7	-19.7	---	---	7.8	NW	0.13	8.7	-28.5	---	---	725.4	0.026	0.000	18.4	1	1
03/24/06	11:18 p	-19.7	-19.7	-19.7	---	---	8.7	NW	0.14	9.6	-28.9	---	---	725.4	0.026	0.000	18.4	1	1
03/24/06	11:19 p	-19.7	-19.7	-19.7	---	---	8.7	NW	0.14	9.6	-28.9	---	---	725.4	0.026	0.000	18.4	1	1
03/24/06	11:20 p	-19.7	-19.7	-19.7	---	---	9.6	NW	0.16	10.4	-29.4	---	---	725.5	0.026	0.000	18.4	1	1
03/24/06	11:21 p	-19.7	-19.7	-19.7	---	---	8.7	NW	0.14	10.4	-28.9	---	---	725.5	0.026	0.000	18.4	1	1
03/24/06	11:22 p	-19.7	-19.7	-19.7	---	---	8.7	NW	0.14	9.6	-28.9	---	---	725.5	0.026	0.000	18.4	1	1
03/24/06	11:23 p	-19.7	-19.6	-19.7	---	---	8.7	NW	0.14	9.6	-28.9	---	---	725.4	0.026	0.000	18.4	1	1
03/24/06	11:24 p	-19.6	-19.6	-19.7	---	---	8.7	NW	0.14	9.6	-28.8	---	---	725.5	0.026	0.000	18.4	1	1
03/24/06	11:25 p	-19.6	-19.6	-19.6	---	---	8.7	NW	0.14	9.6	-28.8	---	---	725.5	0.026	0.000	18.4	1	1
03/24/06	11:26 p	-19.6	-19.6	-19.6	---	---	9.6	NW	0.16	10.4	-29.3	---	---	725.5	0.026	0.000	18.4	1	1
03/24/06	11:27 p	-19.6	-19.6	-19.6	---	---	8.7	NW	0.14	9.6	-28.8	---	---	725.4	0.026	0.000	18.4	1	1
03/24/06	11:28 p	-19.6	-19.6	-19.6	---	---	9.6	NW	0.16	10.4	-29.3	---	---	725.5	0.026	0.000	18.4	1	1
03/24/06	11:29 p	-19.6	-19.6	-19.6	---	---	9.6	NW	0.16	10.4	-29.2	---	---	725.5	0.026	0.000	18.4	1	1
03/24/06	11:30 p	-19.6	-19.6	-19.6	---	---	10.4	NW	0.17	12.2	-29.7	---	---	725.5	0.026	0.000	18.4	1	1
03/24/06	11:31 p	-19.6	-19.6	-19.6	---	---	10.4	NW	0.17	11.3	-29.7	---	---	725.4	0.026	0.000	18.4	1	1
03/24/06	11:32 p	-19.6	-19.5	-19.6	---	---	8.7	NW	0.14	9.6	-28.8	---	---	725.5	0.026	0.000	18.4	1	1
03/24/06	11:33 p	-19.5	-19.5	-19.6	---	---	9.6	NW	0.16	10.4	-29.2	---	---	725.4	0.026	0.000	18.4	1	1
03/24/06	11:34 p	-19.5	-19.5	-19.5	---	---	9.6	NW	0.16	11.3	-29.2	---	---	725.5	0.026	0.000	18.4	1	1
03/24/06	11:35 p	-19.5	-19.5	-19.5	---	---	9.6	NW	0.16	11.3	-29.2	---	---	725.4	0.026	0.000	18.4	1	1
03/24/06	11:36 p	-19.5	-19.5	-19.5	---	---	8.7	NW	0.14	9.6	-28.7	---	---	725.5	0.026	0.000	18.4	1	1
03/24/06	11:37 p	-19.5	-19.5	-19.5	---	---	7.8	NW	0.13	9.6	-28.2	---	---	725.5	0.026	0.000	18.4	1	1
03/24/06	11:38 p	-19.5	-19.5	-19.5	---	---	8.7	NW	0.14	9.6	-28.7	---	---	725.4	0.026	0.000	18.4	1	1
03/24/06	11:39 p	-19.5	-19.4	-19.5	---	---	7.8	NW	0.13	9.6	-28.2	---	---	725.5	0.026	0.000	18.4	1	1
03/24/06	11:40 p	-19.4	-19.4	-19.4	---	---	6.1	NW	0.10	7.0	-27.0	---	---	725.5	0.026	0.000	18.4	1	1
03/24/06	11:41 p	-19.4	-19.4	-19.4	---	---	7.0	NW	0.12	7.8	-27.6	---	---	725.5	0.026	0.000	18.4	1	1
03/24/06	11:42 p	-19.4	-19.4	-19.4	---	---	7.8	NW	0.13	8.7	-28.2	---	---	725.4	0.026	0.000	18.4	1	1
03/24/06	11:43 p	-19.4	-19.4	-19.4	---	---	7.0	NW	0.12	9.6	-27.6	---	---	725.4	0.026	0.000	18.4	1	1
03/24/06	11:44 p	-19.4	-19.4	-19.4	---	---	7.0	NW	0.12	7.8	-27.6	---	---	725.5	0.026	0.000	18.4	1	1
03/24/06	11:45 p	-19.4	-19.4	-19.4	---	---	6.1	NW	0.10	7.8	-27.0	---	---	725.5	0.026	0.000	18.4	1	1
03/24/06	11:46 p	-19.4	-19.4	-19.4	---	---	6.1	NW	0.10	6.1	-27.0	---	---	725.4	0.026	0.000	18.4	1	1
03/24/06	11:47 p	-19.4	-19.4	-19.4	---	---	7.0	NW	0.12	7.8	-27.6	---	---	725.5	0.026	0.000	18.5	1	1
03/24/06	11:48 p	-19.4	-19.4	-19.4	---	---	6.1	NW	0.10	7.0	-26.9	---	---	725.4	0.026	0.000	18.5	1	1
03/24/06	11:49 p	-19.4	-19.4	-19.4	---	---	6.1	NW	0.10	7.8	-27.0	---	---	725.4	0.026	0.000	18.5	1	1
03/24/06	11:50 p	-19.4	-19.4	-19.4	---	---	6.1	NW	0.10	7.0	-26.9	---	---	725.4	0.026	0.000	18.5	1	1
03/24/06	11:51 p	-19.4	-19.4	-19.4	---	---	6.1	NW	0.10	7.8	-26.9	---	---	725.5	0.026	0.000	18.5	1	1
03/24/06	11:52 p	-19.4	-19.4	-19.4	---	---	7.8	NW	0.13	8.7	-28.1	---	---	725.4	0.026	0.000	18.5	1	1
03/24/06	11:53 p	-19.4	-19.4	-19.4	---	---	7.8	NW	0.13	8.7	-28.1	---	---	725.5	0.026	0.000	18.5	1	1
03/24/06	11:54 p	-19.4	-19.4	-19.4	---	---	6.1	NNW	0.10	7.8	-26.9	---	---	725.4	0.026	0.000	18.5	1	1
03/24/06	11:55 p	-19.4	-19.3	-19.4	---	---	8.7	NW	0.14	9.6	-28.6	---	---	725.4	0.026	0.000	18.5	1	1
03/24/06	11:56 p	-19.4	-19.4	-19.4	---	---	7.0	NW	0.12	8.7	-27.6	---	---	725.3	0.026	0.000	18.5	1	1
03/24/06	11:57 p	-19.4	-19.4	-19.4	---	---	7.0	NW	0.12	7.8	-27.6	---	---	725.4	0.026	0.000	18.5	1	1
03/24/06	11:58 p	-19.4	-19.4	-19.4	---	---	8.7	NW	0.14	9.6	-28.6	---	---	725.4	0.026	0.000	18.4	1	1
03/24/06	11:59 p	-19.4	-19.4	-19.4	---	---	10.4	NW	0.17	12.2	-29.4	---	---	725.3	0.026	0.000	18.4	1	1
03/25/06	12:00 a	-19.4	-19.3	-19.4	---	---	11.3	NW	0.19	13.0	-29.8	---	---	725.4	0.026	0.000	18.4	1	1
03/25/06	12:01 a	-19.4	-19.3	-19.4	---	---	10.4	NW	0.17	12.2	-29.4	---	---	725.4	0.026	0.000	18.4	1	1
03/25/06	12:02 a	-19.4	-19.3	-19.4	---	---	9.6	NW	0.16	11.3	-29.1	---	---	725.4	0.026	0.000	18.4	1	1
03/25/06	12:03 a	-19.4	-19.3	-19.4	---	---	9.6	NNW	0.16	11.3	-29.1	---	---	725.4	0.026	0.000	18.4	1	1
03/25/06	12:04 a	-19.3	-19.3	-19.3	---	---	8.7	NW	0.14	10.4	-28.5	---	---	725.4	0.026	0.000	18.4	1	1
03/25/06	12:05 a	-19.3	-19.3	-19.3	---	---	8.7	NW	0.14	10.4	-28.5	---	---	725.4	0.026	0.000	18.4	1	1
03/25/06	12:06 a	-19.3	-19.3	-19.3	---	---	7.8	NW	0.13	9.6	-28.0	---	---	725.4	0.026	0.000	18.4	1	1
03/25/06	12:07 a	-19.3	-19.3	-19.3	---	---	7.8	NW	0.13	9.6	-28.0	---	---	725.5	0.026	0.000	18.4	1	1
03/25/06	12:08 a	-19.3	-19.3	-19.3	---	---	7.0	NW	0.12	8.7	-27.4	---	---	725.5	0.026	0.000	18.4	1	1
03/25/06	12:09 a	-19.3	-19.3	-19.3	---	---	7.8	NW	0.13	9.6	-27.9	---	---	725.4	0.026	0.000	18.4	1	1
03/25/06	12:10 a	-19.3	-19.3	-19.3	---	---	7.8	NW	0.13	8.7	-27.9	---	---	725.5	0.026	0.000	18.4	1	1
03/25/06	12:11 a	-19.3	-19.3	-19.3	---	---	7.0	NW	0.12	7.8	-27.4	---	---	725.4	0.026	0.000	18.4	1	1
03/25/06	12:12 a	-19.3	-19.2	-19.3	---	---	7.0	NNW	0.12	8.7	-27.4	---	---	725.4	0.026	0.000	18.4	1	1
03/25/06	12:13 a	-19.3	-19.2	-19.3	---	---	7.8	NW	0.13	9.6	-27.9	---	---	725.5	0.026	0.000	18.3	1	1
03/25/06	12:14 a	-19.2	-19.2	-19.3	---	---	5.2	NW	0.09	7.0	-26.1	---	---	725.5	0.026	0.000	18.4	1	1
03/25/06	12:15 a	-19.2	-19.2	-19.2	---	---	8.7	NW	0.14	12.2	-28.4	---	---	725.4	0.026	0.000	18.4	1	1
03/25/06	12:16 a	-19.2	-19.2	-19.2	---	---	8.7	NW	0.14	10.4	-28.4	---	---	725.4	0.026	0.000	18.4	1	1
03/25/06	12:17 a	-19.2	-19.2	-19.2	---	---	11.3	NW	0.19	13.9	-29.6	---	---	725.3	0.026	0.000	18.4	1	1
03/25/06	12:18 a	-19.2	-19.2	-19.2	---	---	10.4	NW	0.17	12.2	-29.2	---	---	725.4	0.026	0.000	18.4	1	1
03/25/06	12:19 a	-19.2	-19.2	-19.2	---	---	8.7	NW	0.14	12.2	-28.3	---	---	725.5	0.026	0.000	18.4	1	1
03/25/06	12:20 a	-19.2	-19.2	-19.2	---	---	10.4	NNW	0.17	12.2	-29.2	---	---	725.5	0.026	0.000	18.4	1	1
03/25/06	12:21 a	-19.2	-19.2	-19.2	---	---	7.8	NNW	0.13	9.6	-27.8	---	---	725.4	0.026	0.000	18.4	1	1
03/25/06	12:22 a	-19.2	-19.2	-19.2	---	---	7.0	NW	0.12	7.8	-27.3	---	---	725.4	0.026	0.000	18.4	1	1
03/25/06	12:23 a	-19.2	-19.2	-19.2	---	---	10.4	NW	0.17	13.0	-29.2	---	---	725.4	0.026	0.000	18.5	1	1
03/25/06	12:24 a	-19.1	-19.1	-19.2	---	---	10.4	NW	0.17	13.0	-29.1	---	---	725.4	0.026	0.000	18.5	1	1
03/25/06	12:25 a	-19.1	-19.1	-19.1	---	---	8.7	NNW	0.14	12.2	-28.2	---	---	725.4	0.026	0.000	18.6	1	1
03/25/06	12:26 a	-19.1	-19.1	-19.1	---	---	7.8	NNW	0.13	11.3	-27.7	---	---	725.4	0.026	0.000	18.6	1	1
03/25/06	12:27 a	-19.1	-19.1	-19.1	---	---	12.2	NNW	0.20	15.7	-29.8	---	---	725.4	0.026	0.000	18.6	1	1
03/25/06	12:28 a	-19.1	-19.0	-19.1	---	---	11.3	NW	0.19	14.8	-29.4	---	---	725.4	0.026	0.000	18.6	1	1
03/25/06	12:29 a	-19.0	-19.0	-19.1	---	---	11.3	NNW	0.19	13.9	-29.3	---	---	725.3	0.026	0.000	18.7	1	1
03/25/06	12:30 a	-19.0	-18.9	-19.0	---	---	12.2	NW	0.20	14.8	-29.7	---	---	725.4	0.026	0.000	18.6	1	1
03/25/06	12:31 a	-18.9	-18.9	-18.9	---	---	13.0	NW	0.22	15.7	-30.0	---	---	725.4	0.026	0.000	18.7	1	1
03/25/06	12:32 a	-18.9	-18.9	-18.9	---	---	12.2	NW	0.20	15.7	-29.7	---	---	725.4	0.026	0.000	18.7	1	1
03/25/06	12:33 a	-18.9	-18.9	-18.9	---	---	11.3	NW	0.19	13.9	-29.3	---	---	725.4	0.026	0.000	18.7	1	1
03/25/06	12:34 a	-18.9	-18.9	-18.9	---	---	12.2	NW	0.20	14.8	-29.6	---	---	725.4	0.026	0.000	18.7	1	1
03/25/06	12:35 a	-18.9	-18.9	-18.9	---	---	10.4	NW	0.17	14.8	-28.8	---	---	725.5	0.026	0.000	18.7	1	1
03/25/06	12:36 a	-18.8	-18.8	-18.8	---	---	11.3	NNW	0.19	13.0	-29.2	---	---	725.5	0.026	0.000	18.7	1	1
03/25/06	12:37 a	-18.8	-18.8	-18.8	---	---	11.3	NNW	0.19	13.0	-29.2	---	---	725.5	0.026	0.000	18.7	1	1
03/25/06	12:38 a	-18.8	-18.8	-18.8	---	---	7.8	NNW	0.13	8.7	-27.4	---	---	725.5	0.026	0.000	18.7	1	1
03/25/06	12:39 a	-18.8	-18.8	-18.8	---	---	8.7	NW	0.14	11.3	-27.9	---	---	725.4	0.026	0.000	18.7	1	1
03/25/06	12:40 a	-18.8	-18.8	-18.8	---	---	11.3	NW	0.19	13.0	-29.2	---	---	725.4	0.026	0.000	18.7	1	1
03/25/06	12:41 a	-18.8	-18.8	-18.8	---	---	10.4	NW	0.17	15.7	-28.7	---	---	725.4	0.026	0.000	18.7	1	1
03/25/06	12:42 a	-18.8	-18.8	-18.8	---	---	8.7	NW	0.14	10.4	-27.8	---	---	725.4	0.026	0.000	18.7	1	1
03/25/06	12:43 a	-18.8	-18.7	-18.8	---	---	13.0	NNW	0.22	14.8	-29.8	---	---	725.3	0.026	0.000	18.8	1	1
03/25/06	12:44 a	-18.8	-18.7	-18.8	---	---	13.0	NW	0.22	14.8	-29.8	---	---	725.4	0.026	0.000	18.8	1	1
03/25/06	12:45 a	-18.8	-18.7	-18.8	---	---	9.6	NW	0.16	12.2	-28.3	---	---	725.3	0.026	0.000	18.8	1	1
03/25/06	12:46 a	-18.7	-18.7	-18.7	---	---	10.4	NNW	0.17	12.2	-28.6	---	---	725.4	0.026	0.000	18.8	1	1
03/25/06	12:47 a	-18.7	-18.7	-18.7	---	---	11.3	NNW	0.19	13.9	-29.0	---	---	725.4	0.026	0.000	18.8	1	1
03/25/06	12:48 a	-18.7	-18.7	-18.7	---	---	10.4	NW	0.17	13.0	-28.6	---	---	725.3	0.026	0.000	18.8	1	1
03/25/06	12:49 a	-18.7	-18.7	-18.7	---	---	10.4	NNW	0.17	12.2	-28.6	---	---	725.4	0.026	0.000	18.8	1	1
03/25/06	12:50 a	-18.7	-18.7	-18.7	---	---	7.8	NW	0.13	8.7	-27.2	---	---	725.4	0.026	0.000	18.8	1	1
03/25/06	12:51 a	-18.7	-18.6	-18.7	---	---	7.0	NW	0.12	8.7	-26.7	---	---	725.4	0.026	0.000	18.8	1	1
03/25/06	12:52 a	-18.6	-18.6	-18.6	---	---	8.7	NW	0.14	10.4	-27.6	---	---	725.5	0.026	0.000	18.8	1	1
03/25/06	12:53 a	-18.6	-18.6	-18.6	---	---	9.6	NNW	0.16	13.0	-28.1	---	---	725.4	0.026	0.000	18.8	1	1
03/25/06	12:54 a	-18.6	-18.6	-18.6	---	---	8.7	NNW	0.14	11.3	-27.6	---	---	725.4	0.026	0.000	18.8	1	1
03/25/06	12:55 a	-18.6	-18.6	-18.6	---	---	7.8	NNW	0.13	10.4	-27.1	---	---	725.4	0.026	0.000	18.9	1	1
03/25/06	12:56 a	-18.5	-18.5	-18.6	---	---	7.8	NW	0.13	8.7	-27.0	---	---	725.5	0.026	0.000	18.9	1	1
03/25/06	12:57 a	-18.5	-18.5	-18.5	---	---	9.6	NW	0.16	11.3	-27.9	---	---	725.4	0.026	0.000	18.9	1	1
03/25/06	12:58 a	-18.4	-18.4	-18.5	---	---	7.8	NW	0.13	10.4	-26.9	---	---	725.4	0.026	0.000	18.9	1	1
03/25/06	12:59 a	-18.4	-18.4	-18.4	---	---	7.8	NW	0.13	9.6	-26.9	---	---	725.3	0.026	0.000	18.9	1	1
03/25/06	1:00 a	-18.4	-18.4	-18.4	---	---	9.6	NW	0.16	11.3	-27.8	---	---	725.3	0.026	0.000	18.9	1	1
03/25/06	1:01 a	-18.4	-18.4	-18.4	---	---	9.6	NNW	0.16	13.0	-27.8	---	---	725.3	0.026	0.000	18.9	1	1
03/25/06	1:02 a	-18.4	-18.4	-18.4	---	---	13.0	NNW	0.22	16.5	-29.3	---	---	725.3	0.026	0.000	18.9	1	1
03/25/06	1:03 a	-18.4	-18.3	-18.4	---	---	10.4	NW	0.17	14.8	-28.2	---	---	725.3	0.026	0.000	18.9	1	1
03/25/06	1:04 a	-18.3	-18.3	-18.3	---	---	9.6	NW	0.16	12.2	-27.7	---	---	725.3	0.025	0.000	18.9	1	1
03/25/06	1:05 a	-18.3	-18.3	-18.3	---	---	11.3	NW	0.19	13.0	-28.4	---	---	725.3	0.025	0.000	18.9	1	1
03/25/06	1:06 a	-18.3	-18.2	-18.3	---	---	10.4	NW	0.17	13.0	-28.1	---	---	725.3	0.025	0.000	19.0	1	1
03/25/06	1:07 a	-18.2	-18.2	-18.2	---	---	11.3	NW	0.19	13.9	-28.4	---	---	725.3	0.025	0.000	19.0	1	1
03/25/06	1:08 a	-18.2	-18.2	-18.2	---	---	9.6	NW	0.16	11.3	-27.5	---	---	725.3	0.025	0.000	19.0	1	1
03/25/06	1:09 a	-18.2	-18.2	-18.2	---	---	9.6	NNW	0.16	10.4	-27.5	---	---	725.3	0.025	0.000	19.0	1	1
03/25/06	1:10 a	-18.2	-18.2	-18.2	---	---	8.7	NW	0.14	11.3	-27.1	---	---	725.4	0.025	0.000	19.0	1	1
03/25/06	1:11 a	-18.2	-18.2	-18.2	---	---	7.8	NW	0.13	10.4	-26.6	---	---	725.4	0.025	0.000	19.0	1	1
03/25/06	1:12 a	-18.2	-18.1	-18.2	---	---	8.7	NW	0.14	10.4	-27.1	---	---	725.3	0.025	0.000	19.0	1	1
03/25/06	1:13 a	-18.2	-18.1	-18.2	---	---	10.4	NW	0.17	13.0	-27.9	---	---	725.3	0.025	0.000	19.0	1	1
03/25/06	1:14 a	-18.2	-18.2	-18.2	---	---	10.4	NW	0.17	13.0	-27.9	---	---	725.3	0.025	0.000	19.0	2	1
03/25/06	1:15 a	-18.2	-18.2	-18.2	---	---	8.7	NW	0.14	10.4	-27.1	---	---	725.3	0.025	0.000	19.0	1	1
03/25/06	1:16 a	-18.1	-18.1	-18.1	---	---	8.7	NW	0.14	10.4	-27.0	---	---	725.4	0.025	0.000	19.0	2	1
03/25/06	1:17 a	-18.1	-18.1	-18.1	---	---	9.6	NW	0.16	10.4	-27.4	---	---	725.3	0.025	0.000	19.1	2	1
03/25/06	1:18 a	-18.1	-18.1	-18.1	---	---	8.7	NW	0.14	9.6	-27.0	---	---	725.3	0.025	0.000	19.0	2	1
03/25/06	1:19 a	-18.1	-18.1	-18.1	---	---	8.7	NW	0.14	10.4	-27.0	---	---	725.3	0.025	0.000	19.0	1	1
03/25/06	1:20 a	-18.1	-18.1	-18.1	---	---	8.7	NW	0.14	11.3	-27.0	---	---	725.3	0.025	0.000	19.1	2	1
03/25/06	1:21 a	-18.1	-18.1	-18.1	---	---	8.7	NNW	0.14	10.4	-27.0	---	---	725.3	0.025	0.000	19.1	1	1
03/25/06	1:22 a	-18.1	-18.1	-18.1	---	---	7.8	NNW	0.13	10.4	-26.5	---	---	725.3	0.025	0.000	19.1	1	1
03/25/06	1:23 a	-18.1	-18.1	-18.1	---	---	8.7	NW	0.14	10.4	-27.0	---	---	725.3	0.025	0.000	19.0	2	1
03/25/06	1:24 a	-18.1	-18.1	-18.2	---	---	9.6	NW	0.16	11.3	-27.4	---	---	725.3	0.025	0.000	19.1	1	1
03/25/06	1:25 a	-18.1	-18.1	-18.1	---	---	10.4	NW	0.17	12.2	-27.8	---	---	725.3	0.025	0.000	19.1	1	1
03/25/06	1:26 a	-18.1	-18.1	-18.1	---	---	11.3	NW	0.19	13.0	-28.2	---	---	725.2	0.025	0.000	19.1	2	1
03/25/06	1:27 a	-18.1	-18.1	-18.2	---	---	10.4	NW	0.17	12.2	-27.8	---	---	725.3	0.025	0.000	19.1	2	1
03/25/06	1:28 a	-18.1	-18.1	-18.2	---	---	11.3	NW	0.19	13.0	-28.2	---	---	725.2	0.025	0.000	19.1	2	1
03/25/06	1:29 a	-18.1	-18.1	-18.2	---	---	12.2	NW	0.20	13.9	-28.6	---	---	725.2	0.025	0.000	19.1	2	1
03/25/06	1:30 a	-18.2	-18.2	-18.2	---	---	9.6	NW	0.16	13.9	-27.5	---	---	725.2	0.025	0.000	19.1	1	1
03/25/06	1:31 a	-18.2	-18.2	-18.2	---	---	9.6	NW	0.16	11.3	-27.5	---	---	725.3	0.025	0.000	19.1	1	1
03/25/06	1:32 a	-18.2	-18.2	-18.2	---	---	10.4	NW	0.17	12.2	-27.9	---	---	725.2	0.025	0.000	19.1	1	1
03/25/06	1:33 a	-18.2	-18.2	-18.2	---	---	10.4	NW	0.17	11.3	-27.9	---	---	725.3	0.025	0.000	19.1	2	1
03/25/06	1:34 a	-18.2	-18.2	-18.2	---	---	10.4	NW	0.17	11.3	-27.9	---	---	725.3	0.025	0.000	19.1	2	1
03/25/06	1:35 a	-18.2	-18.2	-18.2	---	---	9.6	NW	0.16	11.3	-27.5	---	---	725.4	0.025	0.000	19.1	2	1
03/25/06	1:36 a	-18.2	-18.2	-18.2	---	---	9.6	NW	0.16	10.4	-27.6	---	---	725.3	0.025	0.000	19.1	2	1
03/25/06	1:37 a	-18.2	-18.2	-18.2	---	---	10.4	NW	0.17	11.3	-28.0	---	---	725.2	0.025	0.000	19.1	2	1
03/25/06	1:38 a	-18.2	-18.2	-18.2	---	---	11.3	NW	0.19	13.9	-28.4	---	---	725.2	0.025	0.000	19.1	2	1
03/25/06	1:39 a	-18.2	-18.2	-18.2	---	---	10.4	NW	0.17	12.2	-28.0	---	---	725.2	0.025	0.000	19.1	2	1
03/25/06	1:40 a	-18.3	-18.2	-18.3	---	---	9.6	NW	0.16	10.4	-27.7	---	---	725.2	0.025	0.000	19.1	2	1
03/25/06	1:41 a	-18.2	-18.2	-18.3	---	---	9.6	NW	0.16	11.3	-27.6	---	---	725.2	0.025	0.000	19.2	2	1
03/25/06	1:42 a	-18.2	-18.2	-18.2	---	---	10.4	NW	0.17	13.9	-28.0	---	---	725.2	0.025	0.000	19.2	2	1
03/25/06	1:43 a	-18.3	-18.3	-18.3	---	---	9.6	NW	0.16	12.2	-27.7	---	---	725.2	0.025	0.000	19.2	2	1
03/25/06	1:44 a	-18.3	-18.3	-18.3	---	---	11.3	NW	0.19	13.0	-28.4	---	---	725.2	0.025	0.000	19.2	2	1
03/25/06	1:45 a	-18.3	-18.3	-18.3	---	---	13.0	NW	0.22	14.8	-29.2	---	---	725.2	0.025	0.000	19.2	2	1
03/25/06	1:46 a	-18.3	-18.3	-18.3	---	---	14.8	NW	0.25	20.0	-29.8	---	---	725.1	0.025	0.000	19.2	2	1
03/25/06	1:47 a	-18.3	-18.3	-18.3	---	---	15.7	NW	0.26	18.3	-30.1	---	---	725.1	0.025	0.000	19.2	2	1
03/25/06	1:48 a	-18.3	-18.3	-18.3	---	---	12.2	NW	0.20	14.8	-28.8	---	---	725.1	0.025	0.000	19.3	2	1
03/25/06	1:49 a	-18.2	-18.2	-18.3	---	---	13.0	NW	0.22	15.7	-29.1	---	---	725.1	0.025	0.000	19.3	2	1
03/25/06	1:50 a	-18.2	-18.2	-18.3	---	---	15.7	NW	0.26	17.4	-30.0	---	---	725.2	0.025	0.000	19.3	2	1
03/25/06	1:51 a	-18.2	-18.2	-18.2	---	---	12.2	NW	0.20	14.8	-28.7	---	---	725.1	0.025	0.000	19.3	2	1
03/25/06	1:52 a	-18.2	-18.2	-18.2	---	---	11.3	NW	0.19	13.9	-28.4	---	---	725.1	0.025	0.000	19.3	2	1
03/25/06	1:53 a	-18.2	-18.2	-18.2	---	---	9.6	NW	0.16	11.3	-27.6	---	---	725.1	0.025	0.000	19.3	2	1
03/25/06	1:54 a	-18.2	-18.2	-18.2	---	---	9.6	NW	0.16	11.3	-27.5	---	---	725.1	0.025	0.000	19.3	2	1
03/25/06	1:55 a	-18.1	-18.1	-18.2	---	---	9.6	NW	0.16	13.0	-27.4	---	---	725.2	0.025	0.000	19.3	2	1
03/25/06	1:56 a	-18.1	-18.1	-18.1	---	---	10.4	NNW	0.17	11.3	-27.8	---	---	725.2	0.025	0.000	19.4	2	1
03/25/06	1:57 a	-18.1	-18.1	-18.1	---	---	9.6	NW	0.16	12.2	-27.4	---	---	725.1	0.025	0.000	19.4	2	1
03/25/06	1:58 a	-18.1	-18.1	-18.1	---	---	12.2	NW	0.20	13.9	-28.5	---	---	725.2	0.025	0.000	19.4	2	1
03/25/06	1:59 a	-18.1	-18.0	-18.1	---	---	11.3	NW	0.19	14.8	-28.2	---	---	725.1	0.025	0.000	19.4	2	1
03/25/06	2:00 a	-18.0	-18.0	-18.0	---	---	11.3	NW	0.19	12.2	-28.1	---	---	725.1	0.025	0.000	19.4	2	1
03/25/06	2:01 a	-17.9	-17.9	-18.0	---	---	9.6	NNW	0.16	11.3	-27.2	---	---	725.1	0.025	0.000	19.4	2	1
03/25/06	2:02 a	-17.9	-17.9	-17.9	---	---	11.3	NNW	0.19	13.9	-28.0	---	---	725.1	0.025	0.000	19.4	2	1
03/25/06	2:03 a	-17.9	-17.9	-17.9	---	---	13.0	NW	0.22	14.8	-28.7	---	---	725.1	0.025	0.000	19.4	2	1
03/25/06	2:04 a	-17.9	-17.9	-17.9	---	---	13.0	NW	0.22	13.9	-28.7	---	---	725.0	0.025	0.000	19.4	2	1
03/25/06	2:05 a	-17.9	-17.8	-17.9	---	---	10.4	NW	0.17	13.0	-27.6	---	---	725.1	0.025	0.000	19.4	2	1
03/25/06	2:06 a	-17.9	-17.8	-17.9	---	---	9.6	NNW	0.16	11.3	-27.2	---	---	725.1	0.025	0.000	19.4	2	1
03/25/06	2:07 a	-17.8	-17.8	-17.9	---	---	10.4	NW	0.17	11.3	-27.5	---	---	725.1	0.025	0.000	19.4	2	1
03/25/06	2:08 a	-17.8	-17.8	-17.8	---	---	12.2	NNW	0.20	13.9	-28.2	---	---	725.1	0.025	0.000	19.4	2	1
03/25/06	2:09 a	-17.8	-17.8	-17.8	---	---	13.0	NW	0.22	14.8	-28.6	---	---	725.1	0.025	0.000	19.4	2	1
03/25/06	2:10 a	-17.8	-17.8	-17.8	---	---	12.2	NW	0.20	14.8	-28.2	---	---	725.1	0.025	0.000	19.4	2	1
03/25/06	2:11 a	-17.8	-17.8	-17.8	---	---	10.4	NNW	0.17	13.0	-27.5	---	---	725.1	0.025	0.000	19.4	2	1
03/25/06	2:12 a	-17.8	-17.8	-17.8	---	---	9.6	NNW	0.16	12.2	-27.1	---	---	725.2	0.025	0.000	19.4	2	1
03/25/06	2:13 a	-17.8	-17.8	-17.8	---	---	11.3	NNW	0.19	13.0	-27.9	---	---	725.2	0.025	0.000	19.4	2	1
03/25/06	2:14 a	-17.8	-17.8	-17.8	---	---	10.4	NNW	0.17	12.2	-27.5	---	---	725.0	0.025	0.000	19.4	2	1
03/25/06	2:15 a	-17.8	-17.8	-17.8	---	---	10.4	NW	0.17	12.2	-27.5	---	---	725.2	0.025	0.000	19.4	2	1
03/25/06	2:16 a	-17.8	-17.8	-17.8	---	---	9.6	NNW	0.16	12.2	-27.1	---	---	725.1	0.025	0.000	19.4	2	1
03/25/06	2:17 a	-17.8	-17.8	-17.8	---	---	11.3	NNW	0.19	13.0	-27.8	---	---	725.1	0.025	0.000	19.4	2	1
03/25/06	2:18 a	-17.8	-17.8	-17.8	---	---	12.2	NNW	0.20	13.9	-28.2	---	---	725.1	0.025	0.000	19.4	2	1
03/25/06	2:19 a	-17.8	-17.8	-17.8	---	---	8.7	NW	0.14	10.4	-26.6	---	---	725.1	0.025	0.000	19.4	2	1
03/25/06	2:20 a	-17.8	-17.8	-17.8	---	---	10.4	NNW	0.17	13.0	-27.4	---	---	725.1	0.025	0.000	19.4	2	1
03/25/06	2:21 a	-17.8	-17.8	-17.8	---	---	11.3	NNW	0.19	14.8	-27.8	---	---	725.1	0.025	0.000	19.3	2	1
03/25/06	2:22 a	-17.8	-17.8	-17.8	---	---	10.4	NW	0.17	12.2	-27.4	---	---	725.1	0.025	0.000	19.4	2	1
03/25/06	2:23 a	-17.8	-17.7	-17.8	---	---	12.2	NNW	0.20	17.4	-28.2	---	---	725.1	0.025	0.000	19.4	2	1
03/25/06	2:24 a	-17.7	-17.7	-17.8	---	---	15.7	NW	0.26	18.3	-29.3	---	---	725.1	0.025	0.000	19.4	2	1
03/25/06	2:25 a	-17.7	-17.7	-17.7	---	---	13.9	NW	0.23	17.4	-28.7	---	---	725.2	0.025	0.000	19.4	2	1
03/25/06	2:26 a	-17.7	-17.7	-17.7	---	---	12.2	NW	0.20	13.9	-28.1	---	---	725.2	0.025	0.000	19.4	2	1
03/25/06	2:27 a	-17.7	-17.7	-17.7	---	---	12.2	NW	0.20	13.0	-28.0	---	---	725.2	0.025	0.000	19.3	2	1
03/25/06	2:28 a	-17.7	-17.7	-17.7	---	---	13.0	NW	0.22	14.8	-28.3	---	---	725.1	0.025	0.000	19.4	2	1
03/25/06	2:29 a	-17.7	-17.6	-17.7	---	---	13.0	NNW	0.22	16.5	-28.3	---	---	725.2	0.025	0.000	19.4	2	1
03/25/06	2:30 a	-17.6	-17.6	-17.7	---	---	12.2	NNW	0.20	13.9	-27.9	---	---	725.1	0.025	0.000	19.3	2	1
03/25/06	2:31 a	-17.6	-17.6	-17.6	---	---	12.2	NNW	0.20	13.9	-27.9	---	---	725.1	0.025	0.000	19.3	2	1
03/25/06	2:32 a	-17.6	-17.6	-17.6	---	---	11.3	NNW	0.19	14.8	-27.5	---	---	725.2	0.025	0.000	19.3	2	1
03/25/06	2:33 a	-17.6	-17.6	-17.6	---	---	13.0	NNW	0.22	13.9	-28.2	---	---	725.1	0.025	0.000	19.3	2	1
03/25/06	2:34 a	-17.6	-17.6	-17.6	---	---	11.3	NW	0.19	13.9	-27.5	---	---	725.2	0.025	0.000	19.3	2	1
03/25/06	2:35 a	-17.6	-17.6	-17.6	---	---	12.2	NNW	0.20	16.5	-27.9	---	---	725.2	0.025	0.000	19.3	2	1
03/25/06	2:36 a	-17.6	-17.6	-17.6	---	---	13.0	NNW	0.22	14.8	-28.2	---	---	725.2	0.025	0.000	19.3	2	1
03/25/06	2:37 a	-17.6	-17.6	-17.6	---	---	10.4	NW	0.17	12.2	-27.2	---	---	725.2	0.025	0.000	19.3	2	1
03/25/06	2:38 a	-17.6	-17.6	-17.6	---	---	10.4	NNW	0.17	13.9	-27.2	---	---	725.2	0.025	0.000	19.3	2	1
03/25/06	2:39 a	-17.6	-17.5	-17.6	---	---	11.3	NNW	0.19	13.0	-27.5	---	---	725.2	0.025	0.000	19.4	2	1
03/25/06	2:40 a	-17.6	-17.6	-17.6	---	---	10.4	NW	0.17	12.2	-27.2	---	---	725.2	0.025	0.000	19.4	2	1
03/25/06	2:41 a	-17.6	-17.6	-17.6	---	---	10.4	NNW	0.17	12.2	-27.2	---	---	725.2	0.025	0.000	19.4	2	1
03/25/06	2:42 a	-17.6	-17.5	-17.6	---	---	11.3	NNW	0.19	14.8	-27.5	---	---	725.2	0.025	0.000	19.4	2	1
03/25/06	2:43 a	-17.6	-17.6	-17.6	---	---	13.0	NNW	0.22	14.8	-28.2	---	---	725.1	0.025	0.000	19.4	2	1
03/25/06	2:44 a	-17.6	-17.6	-17.6	---	---	12.2	NW	0.20	14.8	-27.9	---	---	725.3	0.025	0.000	19.4	2	1
03/25/06	2:45 a	-17.6	-17.6	-17.6	---	---	9.6	NW	0.16	11.3	-26.7	---	---	725.2	0.025	0.000	19.4	2	1
03/25/06	2:46 a	-17.6	-17.5	-17.6	---	---	12.2	NNW	0.20	13.9	-27.9	---	---	725.1	0.025	0.000	19.4	2	1
03/25/06	2:47 a	-17.6	-17.6	-17.6	---	---	13.9	NW	0.23	14.8	-28.6	---	---	725.1	0.025	0.000	19.4	2	1
03/25/06	2:48 a	-17.6	-17.6	-17.6	---	---	12.2	NW	0.20	13.0	-27.9	---	---	725.1	0.025	0.000	19.4	2	1
03/25/06	2:49 a	-17.6	-17.6	-17.6	---	---	13.9	NW	0.23	16.5	-28.6	---	---	725.2	0.025	0.000	19.4	2	1
03/25/06	2:50 a	-17.6	-17.6	-17.6	---	---	12.2	NW	0.20	14.8	-27.9	---	---	725.1	0.025	0.000	19.5	2	1
03/25/06	2:51 a	-17.6	-17.6	-17.6	---	---	12.2	NNW	0.20	13.9	-27.9	---	---	725.1	0.025	0.000	19.5	2	1
03/25/06	2:52 a	-17.6	-17.6	-17.6	---	---	15.7	NW	0.26	20.9	-29.1	---	---	725.1	0.025	0.000	19.5	2	1
03/25/06	2:53 a	-17.6	-17.6	-17.6	---	---	12.2	NW	0.20	13.9	-27.9	---	---	725.2	0.025	0.000	19.5	2	1
03/25/06	2:54 a	-17.6	-17.6	-17.6	---	---	13.0	NW	0.22	15.7	-28.2	---	---	725.0	0.025	0.000	19.5	2	1
03/25/06	2:55 a	-17.6	-17.6	-17.6	---	---	13.9	NNW	0.23	16.5	-28.6	---	---	725.1	0.025	0.000	19.5	2	1
03/25/06	2:56 a	-17.6	-17.6	-17.6	---	---	13.9	NW	0.23	19.1	-28.6	---	---	725.1	0.025	0.000	19.5	2	1
03/25/06	2:57 a	-17.6	-17.6	-17.6	---	---	15.7	NW	0.26	19.1	-29.2	---	---	725.1	0.025	0.000	19.5	2	1
03/25/06	2:58 a	-17.6	-17.6	-17.6	---	---	13.9	NNW	0.23	15.7	-28.6	---	---	725.1	0.025	0.000	19.6	2	1
03/25/06	2:59 a	-17.6	-17.6	-17.6	---	---	14.8	NW	0.25	17.4	-28.9	---	---	725.1	0.025	0.000	19.6	2	1
03/25/06	3:00 a	-17.6	-17.6	-17.6	---	---	13.9	NNW	0.23	17.4	-28.6	---	---	725.1	0.025	0.000	19.6	2	1
03/25/06	3:01 a	-17.6	-17.6	-17.6	---	---	13.0	NNW	0.22	15.7	-28.2	---	---	725.1	0.025	0.000	19.6	2	1
03/25/06	3:02 a	-17.6	-17.6	-17.6	---	---	13.9	NNW	0.23	16.5	-28.6	---	---	725.1	0.025	0.000	19.6	2	1
03/25/06	3:03 a	-17.6	-17.6	-17.6	---	---	13.9	NNW	0.23	16.5	-28.6	---	---	725.0	0.025	0.000	19.6	2	1
03/25/06	3:04 a	-17.6	-17.6	-17.6	---	---	13.0	NNW	0.22	13.9	-28.2	---	---	725.1	0.025	0.000	19.6	2	1
03/25/06	3:05 a	-17.6	-17.6	-17.6	---	---	12.2	NNW	0.20	14.8	-27.9	---	---	725.1	0.025	0.000	19.6	2	1
03/25/06	3:06 a	-17.5	-17.5	-17.6	---	---	11.3	NNW	0.19	15.7	-27.4	---	---	725.1	0.025	0.000	19.6	2	1
03/25/06	3:07 a	-17.4	-17.4	-17.4	---	---	12.2	NNW	0.20	14.8	-27.7	---	---	725.0	0.025	0.000	19.6	2	1
03/25/06	3:08 a	-17.4	-17.4	-17.4	---	---	12.2	NNW	0.20	14.8	-27.7	---	---	725.1	0.025	0.000	19.6	2	1
03/25/06	3:09 a	-17.4	-17.4	-17.4	---	---	11.3	NNW	0.19	13.9	-27.3	---	---	725.1	0.025	0.000	19.6	2	1
03/25/06	3:10 a	-17.3	-17.3	-17.4	---	---	12.2	NW	0.20	15.7	-27.6	---	---	725.0	0.025	0.000	19.6	2	1
03/25/06	3:11 a	-17.3	-17.3	-17.3	---	---	13.9	NNW	0.23	15.7	-28.2	---	---	725.0	0.025	0.000	19.6	2	1
03/25/06	3:12 a	-17.3	-17.2	-17.3	---	---	13.0	NNW	0.22	15.7	-27.8	---	---	725.0	0.025	0.000	19.6	2	1
03/25/06	3:13 a	-17.2	-17.2	-17.2	---	---	14.8	NNW	0.25	16.5	-28.3	---	---	725.0	0.025	0.000	19.6	2	1
03/25/06	3:14 a	-17.1	-17.1	-17.2	---	---	13.9	NW	0.23	15.7	-27.9	---	---	725.0	0.025	0.000	19.6	2	1
03/25/06	3:15 a	-17.1	-17.1	-17.1	---	---	13.9	NW	0.23	18.3	-27.9	---	---	724.9	0.025	0.000	19.6	2	1
03/25/06	3:16 a	-17.0	-17.0	-17.1	---	---	13.0	NNW	0.22	16.5	-27.5	---	---	725.0	0.025	0.000	19.6	2	1
03/25/06	3:17 a	-17.0	-16.9	-17.0	---	---	13.9	NW	0.23	16.5	-27.8	---	---	724.9	0.025	0.000	19.6	2	1
03/25/06	3:18 a	-16.9	-16.9	-16.9	---	---	14.8	NNW	0.25	18.3	-28.1	---	---	725.0	0.024	0.000	19.6	2	1
03/25/06	3:19 a	-16.9	-16.9	-16.9	---	---	14.8	NNW	0.25	18.3	-27.9	---	---	725.0	0.024	0.000	19.6	2	1
03/25/06	3:20 a	-16.9	-16.9	-16.9	---	---	13.0	NW	0.22	16.5	-27.3	---	---	725.1	0.024	0.000	19.6	2	1
03/25/06	3:21 a	-16.9	-16.9	-16.9	---	---	12.2	NNW	0.20	13.0	-27.1	---	---	725.1	0.024	0.000	19.6	2	1
03/25/06	3:22 a	-16.8	-16.8	-16.8	---	---	13.0	NNW	0.22	16.5	-27.3	---	---	725.0	0.024	0.000	19.6	2	1
03/25/06	3:23 a	-16.8	-16.8	-16.8	---	---	13.9	NNW	0.23	15.7	-27.6	---	---	725.0	0.024	0.000	19.6	2	1
03/25/06	3:24 a	-16.8	-16.8	-16.8	---	---	12.2	NNW	0.20	16.5	-26.9	---	---	724.9	0.024	0.000	19.6	2	1
03/25/06	3:25 a	-16.8	-16.8	-16.9	---	---	15.7	NNW	0.26	16.5	-28.2	---	---	725.0	0.024	0.000	19.6	2	1
03/25/06	3:26 a	-16.9	-16.9	-16.9	---	---	16.5	NNW	0.28	19.1	-28.5	---	---	724.9	0.024	0.000	19.6	2	1
03/25/06	3:27 a	-16.9	-16.9	-16.9	---	---	15.7	NNW	0.26	19.1	-28.2	---	---	724.9	0.024	0.000	19.6	2	1
03/25/06	3:28 a	-16.9	-16.9	-16.9	---	---	13.0	NNW	0.22	13.9	-27.4	---	---	725.0	0.024	0.000	19.6	2	1
03/25/06	3:29 a	-16.9	-16.9	-17.0	---	---	13.9	NNW	0.23	16.5	-27.7	---	---	725.0	0.024	0.000	19.6	2	1
03/25/06	3:30 a	-17.0	-17.0	-17.0	---	---	11.3	NNW	0.19	13.9	-26.8	---	---	724.9	0.025	0.000	19.6	2	1
03/25/06	3:31 a	-17.0	-17.0	-17.0	---	---	13.0	NNW	0.22	13.9	-27.5	---	---	725.0	0.025	0.000	19.6	2	1
03/25/06	3:32 a	-17.0	-17.0	-17.1	---	---	12.2	NNW	0.20	13.0	-27.2	---	---	724.9	0.025	0.000	19.6	2	1
03/25/06	3:33 a	-17.1	-17.1	-17.1	---	---	13.9	NNW	0.23	16.5	-27.9	---	---	724.8	0.025	0.000	19.6	2	1
03/25/06	3:34 a	-17.1	-17.1	-17.1	---	---	13.9	NNW	0.23	15.7	-27.9	---	---	724.9	0.025	0.000	19.6	2	1
03/25/06	3:35 a	-17.1	-17.1	-17.1	---	---	13.0	NNW	0.22	15.7	-27.7	---	---	724.9	0.025	0.000	19.6	2	1
03/25/06	3:36 a	-17.1	-17.1	-17.1	---	---	12.2	NW	0.20	13.9	-27.3	---	---	725.0	0.025	0.000	19.6	2	1
03/25/06	3:37 a	-17.1	-17.1	-17.1	---	---	13.9	NW	0.23	15.7	-27.9	---	---	724.9	0.025	0.000	19.6	2	1
03/25/06	3:38 a	-17.2	-17.1	-17.2	---	---	13.0	NNW	0.22	14.8	-27.7	---	---	724.9	0.025	0.000	19.6	3	1
03/25/06	3:39 a	-17.2	-17.2	-17.2	---	---	15.7	NNW	0.26	19.1	-28.6	---	---	724.9	0.025	0.000	19.6	2	1
03/25/06	3:40 a	-17.2	-17.2	-17.2	---	---	14.8	NNW	0.25	17.4	-28.3	---	---	725.0	0.025	0.000	19.6	2	1
03/25/06	3:41 a	-17.2	-17.2	-17.2	---	---	13.0	NNW	0.22	14.8	-27.7	---	---	724.9	0.025	0.000	19.6	2	1
03/25/06	3:42 a	-17.2	-17.2	-17.2	---	---	12.2	NNW	0.20	13.9	-27.4	---	---	725.0	0.025	0.000	19.6	2	1
03/25/06	3:43 a	-17.2	-17.2	-17.2	---	---	13.9	NNW	0.23	15.7	-28.1	---	---	724.9	0.025	0.000	19.6	2	1
03/25/06	3:44 a	-17.2	-17.2	-17.2	---	---	13.0	NNW	0.22	16.5	-27.7	---	---	724.8	0.025	0.000	19.6	2	1
03/25/06	3:45 a	-17.2	-17.2	-17.2	---	---	16.5	NW	0.28	17.4	-28.9	---	---	724.9	0.025	0.000	19.6	2	1
03/25/06	3:46 a	-17.2	-17.2	-17.2	---	---	15.7	NW	0.26	19.1	-28.6	---	---	725.0	0.025	0.000	19.6	2	1
03/25/06	3:47 a	-17.2	-17.2	-17.2	---	---	12.2	NNW	0.20	13.9	-27.4	---	---	724.9	0.025	0.000	19.6	2	1
03/25/06	3:48 a	-17.2	-17.2	-17.2	---	---	14.8	NW	0.25	16.5	-28.3	---	---	724.9	0.025	0.000	19.6	2	1
03/25/06	3:49 a	-17.2	-17.2	-17.2	---	---	17.4	NNW	0.29	20.9	-29.2	---	---	725.0	0.025	0.000	19.6	2	1
03/25/06	3:50 a	-17.2	-17.2	-17.2	---	---	13.9	NW	0.23	16.5	-28.1	---	---	725.0	0.025	0.000	19.6	2	1
03/25/06	3:51 a	-17.1	-17.1	-17.2	---	---	13.9	NW	0.23	16.5	-27.9	---	---	725.0	0.025	0.000	19.5	2	1
03/25/06	3:52 a	-17.1	-17.1	-17.1	---	---	13.9	NW	0.23	17.4	-27.9	---	---	725.1	0.025	0.000	19.5	2	1
03/25/06	3:53 a	-17.1	-17.1	-17.1	---	---	13.0	NW	0.22	17.4	-27.6	---	---	725.0	0.025	0.000	19.5	2	1
03/25/06	3:54 a	-17.1	-17.0	-17.1	---	---	13.9	NNW	0.23	17.4	-27.9	---	---	725.0	0.025	0.000	19.5	2	1
03/25/06	3:55 a	-17.0	-17.0	-17.0	---	---	13.9	NNW	0.23	16.5	-27.8	---	---	724.9	0.025	0.000	19.5	2	1
03/25/06	3:56 a	-16.9	-16.9	-17.0	---	---	13.9	NW	0.23	17.4	-27.7	---	---	725.0	0.024	0.000	19.5	2	1
03/25/06	3:57 a	-16.9	-16.9	-16.9	---	---	13.9	NW	0.23	17.4	-27.7	---	---	725.0	0.024	0.000	19.5	2	1
03/25/06	3:58 a	-16.9	-16.8	-16.9	---	---	14.8	NNW	0.25	19.1	-27.9	---	---	724.9	0.024	0.000	19.5	2	1
03/25/06	3:59 a	-16.8	-16.8	-16.8	---	---	15.7	NW	0.26	17.4	-28.1	---	---	725.0	0.024	0.000	19.5	2	1
03/25/06	4:00 a	-16.7	-16.7	-16.7	---	---	14.8	NNW	0.25	20.0	-27.8	---	---	725.0	0.024	0.000	19.5	2	1
03/25/06	4:01 a	-16.7	-16.7	-16.7	---	---	13.9	NNW	0.23	16.5	-27.4	---	---	724.9	0.024	0.000	19.5	2	1
03/25/06	4:02 a	-16.6	-16.6	-16.6	---	---	14.8	NNW	0.25	16.5	-27.6	---	---	724.9	0.024	0.000	19.5	2	1
03/25/06	4:03 a	-16.6	-16.5	-16.6	---	---	14.8	NNW	0.25	16.5	-27.6	---	---	725.0	0.024	0.000	19.5	2	1
03/25/06	4:04 a	-16.4	-16.4	-16.5	---	---	12.2	NW	0.20	14.8	-26.4	---	---	725.0	0.024	0.000	19.5	2	1
03/25/06	4:05 a	-16.4	-16.4	-16.4	---	---	14.8	NW	0.25	16.5	-27.3	---	---	724.9	0.024	0.000	19.5	2	1
03/25/06	4:06 a	-16.3	-16.3	-16.4	---	---	13.9	NW	0.23	17.4	-26.9	---	---	725.0	0.024	0.000	19.5	2	1
03/25/06	4:07 a	-16.3	-16.3	-16.3	---	---	14.8	NW	0.25	18.3	-27.2	---	---	724.9	0.024	0.000	19.4	2	1
03/25/06	4:08 a	-16.2	-16.2	-16.3	---	---	16.5	NNW	0.28	18.3	-27.7	---	---	725.0	0.024	0.000	19.4	2	1
03/25/06	4:09 a	-16.2	-16.2	-16.2	---	---	17.4	NW	0.29	20.9	-27.8	---	---	725.0	0.024	0.000	19.4	2	1
03/25/06	4:10 a	-16.1	-16.1	-16.2	---	---	13.0	NNW	0.22	14.8	-26.4	---	---	725.0	0.024	0.000	19.4	2	1
03/25/06	4:11 a	-16.1	-16.1	-16.1	---	---	13.9	NNW	0.23	17.4	-26.7	---	---	724.9	0.024	0.000	19.4	2	1
03/25/06	4:12 a	-16.1	-16.1	-16.1	---	---	13.9	NW	0.23	15.7	-26.6	---	---	724.9	0.024	0.000	19.4	2	1
03/25/06	4:13 a	-16.0	-16.0	-16.1	---	---	13.0	NNW	0.22	15.7	-26.2	---	---	725.0	0.024	0.000	19.4	2	1
03/25/06	4:14 a	-15.9	-15.9	-15.9	---	---	13.0	NNW	0.22	13.9	-26.2	---	---	724.9	0.024	0.000	19.4	2	1
03/25/06	4:15 a	-15.9	-15.9	-15.9	---	---	13.0	NNW	0.22	13.9	-26.1	---	---	724.9	0.024	0.000	19.4	2	1
03/25/06	4:16 a	-15.9	-15.8	-15.9	---	---	14.8	NW	0.25	17.4	-26.7	---	---	725.0	0.024	0.000	19.4	2	1
03/25/06	4:17 a	-15.8	-15.8	-15.8	---	---	14.8	NNW	0.25	15.7	-26.6	---	---	724.9	0.024	0.000	19.4	2	1
03/25/06	4:18 a	-15.8	-15.8	-15.8	---	---	14.8	NW	0.25	16.5	-26.6	---	---	725.0	0.024	0.000	19.4	2	1
03/25/06	4:19 a	-15.8	-15.8	-15.8	---	---	13.9	NW	0.23	15.7	-26.3	---	---	725.0	0.024	0.000	19.3	2	1
03/25/06	4:20 a	-15.8	-15.8	-15.8	---	---	13.0	NW	0.22	14.8	-26.0	---	---	724.9	0.024	0.000	19.3	2	1
03/25/06	4:21 a	-15.8	-15.8	-15.8	---	---	13.0	NNW	0.22	15.7	-26.0	---	---	724.9	0.024	0.000	19.3	2	1
03/25/06	4:22 a	-15.8	-15.8	-15.8	---	---	13.0	NW	0.22	14.8	-26.0	---	---	725.0	0.024	0.000	19.3	2	1
03/25/06	4:23 a	-15.8	-15.8	-15.8	---	---	13.9	NW	0.23	14.8	-26.3	---	---	724.9	0.024	0.000	19.3	2	1
03/25/06	4:24 a	-15.8	-15.8	-15.8	---	---	13.9	NNW	0.23	16.5	-26.3	---	---	724.9	0.024	0.000	19.3	2	1
03/25/06	4:25 a	-15.8	-15.8	-15.8	---	---	13.9	NNW	0.23	15.7	-26.3	---	---	724.9	0.024	0.000	19.3	2	1
03/25/06	4:26 a	-15.8	-15.8	-15.8	---	---	13.9	NW	0.23	20.0	-26.3	---	---	725.0	0.024	0.000	19.3	2	1
03/25/06	4:27 a	-15.8	-15.8	-15.8	---	---	15.7	NW	0.26	19.1	-26.9	---	---	724.9	0.024	0.000	19.3	2	1
03/25/06	4:28 a	-15.8	-15.8	-15.8	---	---	14.8	NW	0.25	16.5	-26.6	---	---	724.9	0.024	0.000	19.3	2	1
03/25/06	4:29 a	-15.8	-15.8	-15.8	---	---	14.8	NNW	0.25	16.5	-26.6	---	---	725.0	0.024	0.000	19.3	2	1
03/25/06	4:30 a	-15.8	-15.8	-15.8	---	---	13.9	NNW	0.23	16.5	-26.2	---	---	724.9	0.024	0.000	19.3	2	1
03/25/06	4:31 a	-15.8	-15.8	-15.8	---	---	13.9	NNW	0.23	15.7	-26.2	---	---	725.0	0.024	0.000	19.3	2	1
03/25/06	4:32 a	-15.8	-15.8	-15.8	---	---	15.7	NNW	0.26	19.1	-26.8	---	---	724.9	0.024	0.000	19.3	2	1
03/25/06	4:33 a	-15.8	-15.8	-15.8	---	---	12.2	NW	0.20	15.7	-25.6	---	---	724.9	0.024	0.000	19.3	2	1
03/25/06	4:34 a	-15.8	-15.8	-15.8	---	---	13.0	NW	0.22	13.9	-25.9	---	---	724.9	0.024	0.000	19.3	2	1
03/25/06	4:35 a	-15.8	-15.8	-15.8	---	---	13.0	NNW	0.22	16.5	-25.9	---	---	724.9	0.024	0.000	19.3	2	1
03/25/06	4:36 a	-15.8	-15.8	-15.8	---	---	13.9	NW	0.23	14.8	-26.2	---	---	725.0	0.024	0.000	19.3	2	1
03/25/06	4:37 a	-15.8	-15.8	-15.8	---	---	13.9	NW	0.23	15.7	-26.2	---	---	725.0	0.024	0.000	19.3	2	1
03/25/06	4:38 a	-15.8	-15.8	-15.8	---	---	13.0	NNW	0.22	14.8	-25.9	---	---	724.9	0.024	0.000	19.3	2	1
03/25/06	4:39 a	-15.8	-15.7	-15.8	---	---	10.4	NW	0.17	12.2	-24.9	---	---	725.0	0.024	0.000	19.3	2	1
03/25/06	4:40 a	-15.7	-15.7	-15.8	---	---	11.3	NNW	0.19	12.2	-25.2	---	---	724.9	0.024	0.000	19.3	2	1
03/25/06	4:41 a	-15.7	-15.7	-15.7	---	---	14.8	NNW	0.25	17.4	-26.4	---	---	724.9	0.024	0.000	19.3	2	1
03/25/06	4:42 a	-15.7	-15.7	-15.7	---	---	13.9	NW	0.23	14.8	-26.2	---	---	725.0	0.024	0.000	19.3	2	1
03/25/06	4:43 a	-15.7	-15.7	-15.7	---	---	13.9	NNW	0.23	14.8	-26.2	---	---	724.9	0.024	0.000	19.3	2	1
03/25/06	4:44 a	-15.8	-15.7	-15.8	---	---	14.8	NNW	0.25	17.4	-26.6	---	---	724.9	0.024	0.000	19.3	2	1
03/25/06	4:45 a	-15.7	-15.7	-15.7	---	---	14.8	NNW	0.25	15.7	-26.4	---	---	724.9	0.024	0.000	19.3	2	1
03/25/06	4:46 a	-15.7	-15.7	-15.8	---	---	13.9	NNW	0.23	15.7	-26.2	---	---	724.9	0.024	0.000	19.3	2	1
03/25/06	4:47 a	-15.7	-15.7	-15.7	---	---	13.0	NNW	0.22	14.8	-25.9	---	---	724.9	0.024	0.000	19.3	2	1
03/25/06	4:48 a	-15.7	-15.7	-15.8	---	---	13.9	NNW	0.23	17.4	-26.2	---	---	724.9	0.024	0.000	19.3	2	1
03/25/06	4:49 a	-15.7	-15.7	-15.8	---	---	13.0	NNW	0.22	13.9	-25.9	---	---	724.9	0.024	0.000	19.3	2	1
03/25/06	4:50 a	-15.7	-15.7	-15.8	---	---	13.0	NNW	0.22	14.8	-25.9	---	---	724.9	0.024	0.000	19.3	2	1
03/25/06	4:51 a	-15.7	-15.7	-15.8	---	---	13.9	NNW	0.23	15.7	-26.2	---	---	724.9	0.024	0.000	19.3	2	1
03/25/06	4:52 a	-15.7	-15.7	-15.7	---	---	13.0	NNW	0.22	15.7	-25.9	---	---	724.8	0.024	0.000	19.3	2	1
03/25/06	4:53 a	-15.7	-15.7	-15.8	---	---	14.8	NW	0.25	18.3	-26.4	---	---	724.9	0.024	0.000	19.3	2	1
03/25/06	4:54 a	-15.8	-15.8	-15.8	---	---	13.0	NNW	0.22	13.0	-25.9	---	---	724.9	0.024	0.000	19.3	2	1
03/25/06	4:55 a	-15.8	-15.8	-15.8	---	---	13.0	NW	0.22	13.9	-25.9	---	---	724.9	0.024	0.000	19.3	2	1
03/25/06	4:56 a	-15.8	-15.8	-15.8	---	---	12.2	NNW	0.20	13.0	-25.6	---	---	724.9	0.024	0.000	19.3	2	1
03/25/06	4:57 a	-15.8	-15.7	-15.8	---	---	13.0	NNW	0.22	14.8	-25.9	---	---	724.9	0.024	0.000	19.3	2	1
03/25/06	4:58 a	-15.8	-15.8	-15.8	---	---	13.0	NNW	0.22	14.8	-25.9	---	---	724.9	0.024	0.000	19.3	2	1
03/25/06	4:59 a	-15.8	-15.8	-15.8	---	---	13.0	NNW	0.22	14.8	-25.9	---	---	725.0	0.024	0.000	19.3	2	1
03/25/06	5:00 a	-15.8	-15.8	-15.8	---	---	12.2	NNW	0.20	14.8	-25.6	---	---	724.9	0.024	0.000	19.3	2	1
03/25/06	5:01 a	-15.8	-15.8	-15.8	---	---	13.0	NNW	0.22	13.9	-25.9	---	---	725.0	0.024	0.000	19.3	2	1
03/25/06	5:02 a	-15.8	-15.8	-15.8	---	---	13.0	NNW	0.22	13.9	-25.9	---	---	724.9	0.024	0.000	19.3	2	1
03/25/06	5:03 a	-15.8	-15.8	-15.8	---	---	13.0	NNW	0.22	14.8	-25.9	---	---	724.9	0.024	0.000	19.2	2	1
03/25/06	5:04 a	-15.8	-15.8	-15.8	---	---	13.9	NNW	0.23	15.7	-26.2	---	---	724.9	0.024	0.000	19.2	2	1
03/25/06	5:05 a	-15.8	-15.8	-15.8	---	---	10.4	NNW	0.17	12.2	-25.0	---	---	724.9	0.024	0.000	19.2	2	1
03/25/06	5:06 a	-15.8	-15.8	-15.8	---	---	11.3	NNW	0.19	13.0	-25.3	---	---	724.9	0.024	0.000	19.2	2	1
03/25/06	5:07 a	-15.8	-15.8	-15.8	---	---	11.3	NW	0.19	13.9	-25.3	---	---	724.9	0.024	0.000	19.2	2	1
03/25/06	5:08 a	-15.8	-15.8	-15.8	---	---	12.2	NNW	0.20	15.7	-25.7	---	---	724.9	0.024	0.000	19.2	2	1
03/25/06	5:09 a	-15.8	-15.8	-15.8	---	---	11.3	NNW	0.19	12.2	-25.3	---	---	724.9	0.024	0.000	19.2	2	1
03/25/06	5:10 a	-15.8	-15.8	-15.8	---	---	12.2	NNW	0.20	14.8	-25.7	---	---	724.9	0.024	0.000	19.2	2	1
03/25/06	5:11 a	-15.8	-15.8	-15.8	---	---	13.9	NNW	0.23	15.7	-26.3	---	---	724.8	0.024	0.000	19.2	2	1
03/25/06	5:12 a	-15.8	-15.8	-15.8	---	---	14.8	NW	0.25	15.7	-26.6	---	---	724.9	0.024	0.000	19.2	2	1
03/25/06	5:13 a	-15.8	-15.8	-15.9	---	---	15.7	NW	0.26	18.3	-26.9	---	---	724.9	0.024	0.000	19.2	2	1
03/25/06	5:14 a	-15.9	-15.9	-15.9	---	---	12.2	NW	0.20	13.9	-25.8	---	---	724.8	0.024	0.000	19.2	2	1
03/25/06	5:15 a	-15.9	-15.9	-15.9	---	---	12.2	NNW	0.20	16.5	-25.8	---	---	724.8	0.024	0.000	19.2	2	1
03/25/06	5:16 a	-15.9	-15.9	-15.9	---	---	13.0	NW	0.22	15.7	-26.1	---	---	724.8	0.024	0.000	19.1	2	1
03/25/06	5:17 a	-15.9	-15.9	-15.9	---	---	12.2	NNW	0.20	14.8	-25.8	---	---	724.8	0.024	0.000	19.1	2	1
03/25/06	5:18 a	-15.9	-15.9	-15.9	---	---	12.2	NW	0.20	14.8	-25.8	---	---	724.8	0.024	0.000	19.1	2	1
03/25/06	5:19 a	-15.9	-15.9	-15.9	---	---	12.2	NW	0.20	13.9	-25.8	---	---	724.8	0.024	0.000	19.1	2	1
03/25/06	5:20 a	-15.9	-15.9	-15.9	---	---	13.9	NW	0.23	16.5	-26.4	---	---	724.8	0.024	0.000	19.1	2	1
03/25/06	5:21 a	-16.0	-15.9	-16.0	---	---	12.2	NW	0.20	13.9	-25.9	---	---	724.9	0.024	0.000	19.1	2	1
03/25/06	5:22 a	-16.0	-15.9	-16.0	---	---	11.3	NNW	0.19	12.2	-25.6	---	---	724.9	0.024	0.000	19.1	2	1
03/25/06	5:23 a	-16.0	-15.9	-16.0	---	---	13.9	NNW	0.23	17.4	-26.5	---	---	724.9	0.024	0.000	19.1	2	1
03/25/06	5:24 a	-16.0	-16.0	-16.0	---	---	13.0	NW	0.22	14.8	-26.2	---	---	724.8	0.024	0.000	19.1	2	1
03/25/06	5:25 a	-16.0	-16.0	-16.1	---	---	13.9	NW	0.23	14.8	-26.5	---	---	724.8	0.024	0.000	19.1	2	1
03/25/06	5:26 a	-16.0	-16.0	-16.1	---	---	12.2	NW	0.20	13.9	-25.9	---	---	724.9	0.024	0.000	19.1	2	1
03/25/06	5:27 a	-16.1	-16.0	-16.1	---	---	10.4	NW	0.17	13.9	-25.3	---	---	724.9	0.024	0.000	19.1	2	1
03/25/06	5:28 a	-16.1	-16.0	-16.1	---	---	11.3	NNW	0.19	17.4	-25.6	---	---	724.9	0.024	0.000	19.1	2	1
03/25/06	5:29 a	-16.1	-16.0	-16.1	---	---	13.0	NNW	0.22	16.5	-26.3	---	---	724.9	0.024	0.000	19.1	2	1
03/25/06	5:30 a	-16.1	-16.0	-16.1	---	---	12.2	NNW	0.20	13.9	-25.9	---	---	724.8	0.024	0.000	19.1	2	1
03/25/06	5:31 a	-16.1	-16.1	-16.1	---	---	13.9	NW	0.23	15.7	-26.6	---	---	724.9	0.024	0.000	19.1	2	1
03/25/06	5:32 a	-16.1	-16.1	-16.1	---	---	15.7	NW	0.26	18.3	-27.2	---	---	724.9	0.024	0.000	19.1	2	1
03/25/06	5:33 a	-16.1	-16.1	-16.1	---	---	11.3	NW	0.19	15.7	-25.6	---	---	725.0	0.024	0.000	19.1	2	1
03/25/06	5:34 a	-16.1	-16.1	-16.1	---	---	11.3	NW	0.19	12.2	-25.6	---	---	724.9	0.024	0.000	19.1	2	1
03/25/06	5:35 a	-16.1	-16.1	-16.1	---	---	13.0	NW	0.22	14.8	-26.3	---	---	724.8	0.024	0.000	19.1	2	1
03/25/06	5:36 a	-16.1	-16.1	-16.1	---	---	13.0	NW	0.22	16.5	-26.3	---	---	724.8	0.024	0.000	19.1	2	1
03/25/06	5:37 a	-16.1	-16.1	-16.1	---	---	11.3	NW	0.19	13.0	-25.6	---	---	724.8	0.024	0.000	19.0	2	1
03/25/06	5:38 a	-16.1	-16.1	-16.1	---	---	12.2	NW	0.20	13.9	-26.1	---	---	724.9	0.024	0.000	19.0	2	1
03/25/06	5:39 a	-16.1	-16.1	-16.1	---	---	13.0	NNW	0.22	13.9	-26.4	---	---	724.8	0.024	0.000	19.0	2	1
03/25/06	5:40 a	-16.1	-16.1	-16.1	---	---	13.0	NNW	0.22	16.5	-26.4	---	---	724.9	0.024	0.000	19.0	2	1
03/25/06	5:41 a	-16.1	-16.1	-16.1	---	---	13.9	NNW	0.23	15.7	-26.7	---	---	724.7	0.024	0.000	19.1	2	1
03/25/06	5:42 a	-16.2	-16.2	-16.2	---	---	14.8	NW	0.25	18.3	-27.1	---	---	724.9	0.024	0.000	19.1	2	1
03/25/06	5:43 a	-16.2	-16.2	-16.2	---	---	13.0	NNW	0.22	16.5	-26.4	---	---	724.8	0.024	0.000	19.1	2	1
03/25/06	5:44 a	-16.2	-16.2	-16.2	---	---	13.0	NW	0.22	17.4	-26.4	---	---	724.9	0.024	0.000	19.1	2	1
03/25/06	5:45 a	-16.2	-16.2	-16.2	---	---	11.3	NW	0.19	13.9	-25.8	---	---	724.8	0.024	0.000	19.1	2	1
03/25/06	5:46 a	-16.2	-16.2	-16.2	---	---	12.2	NW	0.20	15.7	-26.2	---	---	724.9	0.024	0.000	19.1	2	1
03/25/06	5:47 a	-16.2	-16.2	-16.2	---	---	11.3	NNW	0.19	12.2	-25.8	---	---	724.8	0.024	0.000	19.1	2	1
03/25/06	5:48 a	-16.3	-16.3	-16.3	---	---	12.2	NNW	0.20	13.9	-26.3	---	---	724.9	0.024	0.000	19.1	2	1
03/25/06	5:49 a	-16.3	-16.3	-16.3	---	---	10.4	NNW	0.17	11.3	-25.6	---	---	724.9	0.024	0.000	19.1	2	1
03/25/06	5:50 a	-16.3	-16.3	-16.3	---	---	10.4	NW	0.17	13.9	-25.6	---	---	724.7	0.024	0.000	19.1	2	1
03/25/06	5:51 a	-16.3	-16.3	-16.3	---	---	12.2	NW	0.20	13.9	-26.3	---	---	724.8	0.024	0.000	19.1	2	1
03/25/06	5:52 a	-16.3	-16.3	-16.3	---	---	12.2	NW	0.20	15.7	-26.3	---	---	724.8	0.024	0.000	19.1	2	1
03/25/06	5:53 a	-16.3	-16.3	-16.3	---	---	13.9	NNW	0.23	15.7	-26.9	---	---	724.8	0.024	0.000	19.1	2	1
03/25/06	5:54 a	-16.4	-16.4	-16.4	---	---	14.8	NNW	0.25	17.4	-27.3	---	---	724.8	0.024	0.000	19.1	2	1
03/25/06	5:55 a	-16.4	-16.4	-16.4	---	---	12.2	NW	0.20	13.9	-26.4	---	---	724.7	0.024	0.000	19.1	2	1
03/25/06	5:56 a	-16.4	-16.4	-16.4	---	---	13.0	NW	0.22	15.7	-26.8	---	---	724.8	0.024	0.000	19.1	2	1
03/25/06	5:57 a	-16.4	-16.4	-16.4	---	---	12.2	NNW	0.20	13.0	-26.4	---	---	724.8	0.024	0.000	19.1	2	1
03/25/06	5:58 a	-16.4	-16.4	-16.4	---	---	11.3	NW	0.19	12.2	-26.1	---	---	724.8	0.024	0.000	19.1	2	1
03/25/06	5:59 a	-16.5	-16.4	-16.5	---	---	14.8	NW	0.25	19.1	-27.4	---	---	724.7	0.024	0.000	19.1	2	1
03/25/06	6:00 a	-16.5	-16.5	-16.5	---	---	13.9	NW	0.23	18.3	-27.2	---	---	724.8	0.024	0.000	19.1	2	1
03/25/06	6:01 a	-16.5	-16.5	-16.5	---	---	13.9	NNW	0.23	17.4	-27.2	---	---	724.7	0.024	0.000	19.1	2	1
03/25/06	6:02 a	-16.5	-16.5	-16.5	---	---	13.0	NNW	0.22	15.7	-26.9	---	---	724.8	0.024	0.000	19.1	2	1
03/25/06	6:03 a	-16.5	-16.5	-16.6	---	---	13.9	NNW	0.23	16.5	-27.2	---	---	724.8	0.024	0.000	19.1	2	1
03/25/06	6:04 a	-16.6	-16.5	-16.6	---	---	12.2	NW	0.20	14.8	-26.6	---	---	724.8	0.024	0.000	19.1	2	1
03/25/06	6:05 a	-16.6	-16.6	-16.6	---	---	10.4	NW	0.17	12.2	-25.9	---	---	724.8	0.024	0.000	19.1	2	1
03/25/06	6:06 a	-16.6	-16.6	-16.6	---	---	11.3	NW	0.19	12.2	-26.3	---	---	724.8	0.024	0.000	19.1	2	1
03/25/06	6:07 a	-16.6	-16.6	-16.6	---	---	13.0	NW	0.22	14.8	-26.9	---	---	724.7	0.024	0.000	19.1	2	1
03/25/06	6:08 a	-16.6	-16.6	-16.6	---	---	13.9	NW	0.23	17.4	-27.2	---	---	724.8	0.024	0.000	19.1	2	1
03/25/06	6:09 a	-16.6	-16.6	-16.6	---	---	13.0	NW	0.22	17.4	-26.9	---	---	724.8	0.024	0.000	19.1	2	1
03/25/06	6:10 a	-16.6	-16.6	-16.6	---	---	11.3	NNW	0.19	13.9	-26.3	---	---	724.7	0.024	0.000	19.1	2	1
03/25/06	6:11 a	-16.6	-16.6	-16.6	---	---	11.3	NW	0.19	13.0	-26.3	---	---	724.8	0.024	0.000	19.1	2	1
03/25/06	6:12 a	-16.6	-16.6	-16.6	---	---	13.0	NNW	0.22	16.5	-26.9	---	---	724.7	0.024	0.000	19.2	2	1
03/25/06	6:13 a	-16.6	-16.6	-16.6	---	---	12.2	NNW	0.20	13.9	-26.6	---	---	724.8	0.024	0.000	19.2	2	1
03/25/06	6:14 a	-16.6	-16.6	-16.6	---	---	10.4	NNW	0.17	12.2	-25.9	---	---	724.8	0.024	0.000	19.2	2	1
03/25/06	6:15 a	-16.6	-16.6	-16.6	---	---	11.3	NNW	0.19	12.2	-26.3	---	---	724.8	0.024	0.000	19.2	2	1
03/25/06	6:16 a	-16.6	-16.6	-16.6	---	---	10.4	NW	0.17	12.2	-25.9	---	---	724.8	0.024	0.000	19.2	2	1
03/25/06	6:17 a	-16.6	-16.6	-16.6	---	---	8.7	NW	0.14	10.4	-25.1	---	---	724.9	0.024	0.000	19.2	2	1
03/25/06	6:18 a	-16.6	-16.6	-16.6	---	---	13.0	NNW	0.22	16.5	-27.0	---	---	724.8	0.024	0.000	19.2	2	1
03/25/06	6:19 a	-16.6	-16.6	-16.6	---	---	13.9	NW	0.23	16.5	-27.3	---	---	724.8	0.024	0.000	19.2	2	1
03/25/06	6:20 a	-16.7	-16.7	-16.7	---	---	10.4	NNW	0.17	13.0	-26.0	---	---	724.8	0.024	0.000	19.3	2	1
03/25/06	6:21 a	-16.7	-16.7	-16.7	---	---	9.6	NNW	0.16	13.0	-25.6	---	---	724.8	0.024	0.000	19.3	2	1
03/25/06	6:22 a	-16.7	-16.7	-16.7	---	---	13.0	NNW	0.22	15.7	-27.2	---	---	724.7	0.024	0.000	19.3	2	1
03/25/06	6:23 a	-16.7	-16.7	-16.8	---	---	13.9	NW	0.23	15.7	-27.4	---	---	724.8	0.024	0.000	19.2	2	1
03/25/06	6:24 a	-16.8	-16.8	-16.8	---	---	11.3	NW	0.19	12.2	-26.6	---	---	724.8	0.024	0.000	19.2	2	1
03/25/06	6:25 a	-16.8	-16.8	-16.8	---	---	10.4	NW	0.17	11.3	-26.2	---	---	724.9	0.024	0.000	19.2	2	1
03/25/06	6:26 a	-16.8	-16.8	-16.9	---	---	9.6	NW	0.16	10.4	-25.8	---	---	724.8	0.024	0.000	19.2	2	1
03/25/06	6:27 a	-16.9	-16.9	-16.9	---	---	9.6	NNW	0.16	10.4	-25.9	---	---	724.8	0.024	0.000	19.2	2	1
03/25/06	6:28 a	-16.9	-16.9	-16.9	---	---	12.2	NNW	0.20	13.9	-27.1	---	---	724.8	0.024	0.000	19.2	2	1
03/25/06	6:29 a	-16.9	-16.9	-16.9	---	---	12.2	NW	0.20	13.0	-27.1	---	---	724.8	0.024	0.000	19.2	2	1
03/25/06	6:30 a	-17.0	-16.9	-17.0	---	---	11.3	NW	0.19	13.9	-26.8	---	---	724.8	0.025	0.000	19.2	2	1
03/25/06	6:31 a	-17.0	-17.0	-17.1	---	---	11.3	NNW	0.19	13.9	-26.8	---	---	724.7	0.025	0.000	19.2	2	1
03/25/06	6:32 a	-17.1	-17.1	-17.1	---	---	13.0	NNW	0.22	14.8	-27.6	---	---	724.8	0.025	0.000	19.1	2	1
03/25/06	6:33 a	-17.1	-17.1	-17.1	---	---	8.7	NNW	0.14	11.3	-25.7	---	---	724.8	0.025	0.000	19.1	2	1
03/25/06	6:34 a	-17.2	-17.1	-17.2	---	---	9.6	NNW	0.16	11.3	-26.3	---	---	724.8	0.025	0.000	19.1	2	1
03/25/06	6:35 a	-17.2	-17.2	-17.2	---	---	8.7	NW	0.14	10.4	-25.8	---	---	724.8	0.025	0.000	19.1	2	1
03/25/06	6:36 a	-17.2	-17.2	-17.2	---	---	11.3	NNW	0.19	14.8	-27.1	---	---	724.8	0.025	0.000	19.1	2	1
03/25/06	6:37 a	-17.2	-17.2	-17.2	---	---	12.2	NW	0.20	15.7	-27.4	---	---	724.7	0.025	0.000	19.1	2	1
03/25/06	6:38 a	-17.3	-17.3	-17.3	---	---	12.2	NW	0.20	14.8	-27.5	---	---	724.7	0.025	0.000	19.1	2	1
03/25/06	6:39 a	-17.3	-17.3	-17.3	---	---	11.3	NW	0.19	13.0	-27.2	---	---	724.7	0.025	0.000	19.1	2	1
03/25/06	6:40 a	-17.3	-17.3	-17.3	---	---	12.2	NNW	0.20	13.9	-27.5	---	---	724.8	0.025	0.000	19.1	2	1
03/25/06	6:41 a	-17.3	-17.3	-17.3	---	---	10.4	NNW	0.17	13.0	-26.9	---	---	724.8	0.025	0.000	19.1	2	1
03/25/06	6:42 a	-17.3	-17.3	-17.3	---	---	10.4	NNW	0.17	11.3	-26.9	---	---	724.7	0.025	0.000	19.1	2	1
03/25/06	6:43 a	-17.4	-17.3	-17.4	---	---	13.0	NNW	0.22	17.4	-28.0	---	---	724.7	0.025	0.000	19.1	2	1
03/25/06	6:44 a	-17.4	-17.4	-17.4	---	---	13.9	NW	0.23	15.7	-28.3	---	---	724.7	0.025	0.000	19.1	2	1
03/25/06	6:45 a	-17.4	-17.4	-17.4	---	---	12.2	NW	0.20	13.9	-27.7	---	---	724.7	0.025	0.000	19.1	2	1
03/25/06	6:46 a	-17.4	-17.4	-17.4	---	---	9.6	NW	0.16	11.3	-26.6	---	---	724.8	0.025	0.000	19.1	2	1
03/25/06	6:47 a	-17.4	-17.4	-17.4	---	---	11.3	NW	0.19	13.9	-27.4	---	---	724.8	0.025	0.000	19.1	2	1
03/25/06	6:48 a	-17.4	-17.4	-17.4	---	---	10.4	NW	0.17	12.2	-27.0	---	---	724.7	0.025	0.000	19.1	2	1
03/25/06	6:49 a	-17.4	-17.4	-17.4	---	---	10.4	NNW	0.17	13.9	-27.0	---	---	724.7	0.025	0.000	19.1	2	1
03/25/06	6:50 a	-17.4	-17.4	-17.4	---	---	12.2	NNW	0.20	13.9	-27.7	---	---	724.7	0.025	0.000	19.1	2	1
03/25/06	6:51 a	-17.4	-17.4	-17.4	---	---	10.4	NNW	0.17	12.2	-27.0	---	---	724.7	0.025	0.000	19.0	2	1
03/25/06	6:52 a	-17.4	-17.4	-17.4	---	---	11.3	NNW	0.19	12.2	-27.4	---	---	724.8	0.025	0.000	19.0	2	1
03/25/06	6:53 a	-17.4	-17.4	-17.5	---	---	9.6	NNW	0.16	12.2	-26.6	---	---	724.7	0.025	0.000	19.0	2	1
03/25/06	6:54 a	-17.4	-17.4	-17.5	---	---	14.8	NNW	0.25	17.4	-28.7	---	---	724.6	0.025	0.000	19.0	2	1
03/25/06	6:55 a	-17.4	-17.4	-17.4	---	---	11.3	NW	0.19	13.9	-27.4	---	---	724.7	0.025	0.000	19.0	2	1
03/25/06	6:56 a	-17.4	-17.4	-17.5	---	---	9.6	NNW	0.16	11.3	-26.6	---	---	724.7	0.025	0.000	18.9	2	1
03/25/06	6:57 a	-17.4	-17.4	-17.5	---	---	12.2	NNW	0.20	14.8	-27.7	---	---	724.8	0.025	0.000	18.9	2	1
03/25/06	6:58 a	-17.5	-17.5	-17.5	---	---	11.3	NNW	0.19	13.0	-27.4	---	---	724.7	0.025	0.000	18.9	2	1
03/25/06	6:59 a	-17.5	-17.4	-17.5	---	---	11.3	NNW	0.19	13.0	-27.4	---	---	724.7	0.025	0.000	18.9	2	1
03/25/06	7:00 a	-17.5	-17.5	-17.5	---	---	9.6	NNW	0.16	11.3	-26.7	---	---	724.7	0.025	0.000	18.9	2	1
03/25/06	7:01 a	-17.5	-17.5	-17.5	---	---	8.7	NNW	0.14	9.6	-26.2	---	---	724.7	0.025	0.000	18.9	2	1
03/25/06	7:02 a	-17.5	-17.5	-17.5	---	---	9.6	NNW	0.16	11.3	-26.7	---	---	724.8	0.025	0.000	18.9	2	1
03/25/06	7:03 a	-17.5	-17.5	-17.5	---	---	12.2	NNW	0.20	15.7	-27.8	---	---	724.6	0.025	0.000	18.9	2	1
03/25/06	7:04 a	-17.5	-17.5	-17.5	---	---	11.3	NNW	0.19	13.9	-27.4	---	---	724.8	0.025	0.000	18.9	2	1
03/25/06	7:05 a	-17.5	-17.5	-17.5	---	---	10.4	NW	0.17	13.0	-27.1	---	---	724.8	0.025	0.000	18.9	2	1
03/25/06	7:06 a	-17.5	-17.5	-17.6	---	---	9.6	NW	0.16	12.2	-26.7	---	---	724.8	0.025	0.000	18.8	2	1
03/25/06	7:07 a	-17.5	-17.5	-17.6	---	---	9.6	NNW	0.16	11.3	-26.7	---	---	724.8	0.025	0.000	18.8	2	1
03/25/06	7:08 a	-17.6	-17.5	-17.6	---	---	9.6	NW	0.16	11.3	-26.7	---	---	724.7	0.025	0.000	18.8	2	1
03/25/06	7:09 a	-17.6	-17.5	-17.6	---	---	8.7	NW	0.14	10.4	-26.3	---	---	724.8	0.025	0.000	18.8	2	1
03/25/06	7:10 a	-17.5	-17.5	-17.6	---	---	9.6	NNW	0.16	10.4	-26.7	---	---	724.8	0.025	0.000	18.8	2	1
03/25/06	7:11 a	-17.6	-17.6	-17.6	---	---	10.4	NNW	0.17	11.3	-27.2	---	---	724.8	0.025	0.000	18.8	2	1
03/25/06	7:12 a	-17.6	-17.6	-17.6	---	---	7.0	NNW	0.12	10.4	-25.3	---	---	724.8	0.025	0.000	18.9	2	1
03/25/06	7:13 a	-17.6	-17.6	-17.6	---	---	9.6	NW	0.16	12.2	-26.7	---	---	724.7	0.025	0.000	18.9	2	1
03/25/06	7:14 a	-17.6	-17.6	-17.6	---	---	7.8	NNW	0.13	9.6	-25.8	---	---	724.8	0.025	0.000	18.9	2	1
03/25/06	7:15 a	-17.6	-17.6	-17.6	---	---	11.3	NW	0.19	15.7	-27.5	---	---	724.7	0.025	0.000	18.9	2	1
03/25/06	7:16 a	-17.6	-17.6	-17.6	---	---	12.2	WNW	0.20	15.7	-27.9	---	---	724.7	0.025	0.000	18.9	2	1
03/25/06	7:17 a	-17.6	-17.6	-17.6	---	---	9.6	NW	0.16	12.2	-26.7	---	---	724.7	0.025	0.000	18.9	2	1
03/25/06	7:18 a	-17.6	-17.6	-17.6	---	---	9.6	NNW	0.16	13.9	-26.8	---	---	724.6	0.025	0.000	18.9	2	1
03/25/06	7:19 a	-17.6	-17.6	-17.6	---	---	11.3	NW	0.19	14.8	-27.6	---	---	724.7	0.025	0.000	18.9	2	1
03/25/06	7:20 a	-17.6	-17.6	-17.6	---	---	10.4	NW	0.17	13.9	-27.2	---	---	724.8	0.025	0.000	18.9	2	1
03/25/06	7:21 a	-17.6	-17.6	-17.6	---	---	11.3	NW	0.19	13.9	-27.6	---	---	724.7	0.025	0.000	18.9	2	1
03/25/06	7:22 a	-17.6	-17.6	-17.6	---	---	12.2	NNW	0.20	18.3	-27.9	---	---	724.7	0.025	0.000	18.9	2	1
03/25/06	7:23 a	-17.6	-17.6	-17.6	---	---	13.9	NNW	0.23	15.7	-28.6	---	---	724.7	0.025	0.000	18.9	2	1
03/25/06	7:24 a	-17.6	-17.6	-17.6	---	---	13.9	NW	0.23	17.4	-28.6	---	---	724.7	0.025	0.000	18.9	2	1
03/25/06	7:25 a	-17.6	-17.6	-17.6	---	---	12.2	NW	0.20	14.8	-27.9	---	---	724.7	0.025	0.000	18.9	2	1
03/25/06	7:26 a	-17.6	-17.6	-17.6	---	---	12.2	NW	0.20	13.9	-27.9	---	---	724.7	0.025	0.000	18.9	2	1
03/25/06	7:27 a	-17.6	-17.6	-17.6	---	---	13.0	NW	0.22	14.8	-28.3	---	---	724.7	0.025	0.000	18.9	2	1
03/25/06	7:28 a	-17.6	-17.6	-17.6	---	---	9.6	NW	0.16	11.3	-26.8	---	---	724.6	0.025	0.000	18.9	2	1
03/25/06	7:29 a	-17.6	-17.6	-17.6	---	---	11.3	NW	0.19	13.0	-27.6	---	---	724.7	0.025	0.000	18.9	2	1
03/25/06	7:30 a	-17.6	-17.6	-17.6	---	---	13.0	NW	0.22	16.5	-28.3	---	---	724.6	0.025	0.000	18.9	2	1
03/25/06	7:31 a	-17.6	-17.6	-17.6	---	---	13.9	NW	0.23	16.5	-28.6	---	---	724.7	0.025	0.000	18.9	2	1
03/25/06	7:32 a	-17.6	-17.6	-17.6	---	---	12.2	NW	0.20	14.8	-27.9	---	---	724.7	0.025	0.000	18.9	2	1
03/25/06	7:33 a	-17.6	-17.6	-17.6	---	---	12.2	NW	0.20	13.9	-27.9	---	---	724.7	0.025	0.000	18.9	2	1
03/25/06	7:34 a	-17.6	-17.6	-17.6	---	---	11.3	NW	0.19	13.9	-27.5	---	---	724.8	0.025	0.000	18.9	2	1
03/25/06	7:35 a	-17.5	-17.5	-17.6	---	---	11.3	NW	0.19	14.8	-27.4	---	---	724.7	0.025	0.000	18.9	2	1
03/25/06	7:36 a	-17.5	-17.5	-17.6	---	---	11.3	NW	0.19	13.9	-27.4	---	---	724.7	0.025	0.000	18.9	2	1
03/25/06	7:37 a	-17.5	-17.5	-17.5	---	---	8.7	NNW	0.14	12.2	-26.2	---	---	724.7	0.025	0.000	18.9	2	1
03/25/06	7:38 a	-17.5	-17.5	-17.5	---	---	8.7	NNW	0.14	9.6	-26.2	---	---	724.7	0.025	0.000	18.9	2	1
03/25/06	7:39 a	-17.5	-17.5	-17.5	---	---	10.4	NW	0.17	13.0	-27.1	---	---	724.7	0.025	0.000	18.9	2	1
03/25/06	7:40 a	-17.5	-17.5	-17.5	---	---	11.3	NNW	0.19	17.4	-27.4	---	---	724.7	0.025	0.000	18.9	2	1
03/25/06	7:41 a	-17.5	-17.5	-17.5	---	---	9.6	NNW	0.16	11.3	-26.7	---	---	724.7	0.025	0.000	18.9	2	1
03/25/06	7:42 a	-17.5	-17.5	-17.5	---	---	8.7	NNW	0.14	13.0	-26.2	---	---	724.7	0.025	0.000	18.9	2	1
03/25/06	7:43 a	-17.5	-17.5	-17.5	---	---	9.6	NW	0.16	13.0	-26.7	---	---	724.6	0.025	0.000	18.9	2	1
03/25/06	7:44 a	-17.5	-17.5	-17.5	---	---	11.3	NNW	0.19	13.9	-27.4	---	---	724.7	0.025	0.000	18.9	2	1
03/25/06	7:45 a	-17.5	-17.5	-17.5	---	---	13.0	NW	0.22	13.9	-28.2	---	---	724.7	0.025	0.000	18.9	2	1
03/25/06	7:46 a	-17.5	-17.4	-17.5	---	---	13.0	NW	0.22	16.5	-28.2	---	---	724.6	0.025	0.000	18.9	2	1
03/25/06	7:47 a	-17.4	-17.4	-17.5	---	---	13.0	NW	0.22	16.5	-28.1	---	---	724.6	0.025	0.000	18.9	2	1
03/25/06	7:48 a	-17.4	-17.4	-17.5	---	---	8.7	NW	0.14	11.3	-26.2	---	---	724.7	0.025	0.000	18.9	2	1
03/25/06	7:49 a	-17.4	-17.4	-17.5	---	---	13.9	NW	0.23	17.4	-28.4	---	---	724.7	0.025	0.000	18.9	2	1
03/25/06	7:50 a	-17.4	-17.4	-17.4	---	---	10.4	NW	0.17	12.2	-27.0	---	---	724.7	0.025	0.000	18.9	2	1
03/25/06	7:51 a	-17.4	-17.4	-17.4	---	---	9.6	NW	0.16	10.4	-26.6	---	---	724.6	0.025	0.000	18.9	2	1
03/25/06	7:52 a	-17.4	-17.4	-17.4	---	---	11.3	NNW	0.19	12.2	-27.4	---	---	724.6	0.025	0.000	18.9	2	1
03/25/06	7:53 a	-17.4	-17.4	-17.4	---	---	11.3	NW	0.19	14.8	-27.4	---	---	724.6	0.025	0.000	18.9	2	1
03/25/06	7:54 a	-17.4	-17.4	-17.4	---	---	12.2	NW	0.20	13.9	-27.7	---	---	724.6	0.025	0.000	18.9	2	1
03/25/06	7:55 a	-17.4	-17.4	-17.4	---	---	11.3	NW	0.19	16.5	-27.4	---	---	724.5	0.025	0.000	18.9	2	1
03/25/06	7:56 a	-17.4	-17.4	-17.4	---	---	10.4	NW	0.17	12.2	-27.0	---	---	724.6	0.025	0.000	18.9	2	1
03/25/06	7:57 a	-17.4	-17.4	-17.4	---	---	13.0	NNW	0.22	15.7	-28.1	---	---	724.5	0.025	0.000	18.9	2	1
03/25/06	7:58 a	-17.4	-17.4	-17.4	---	---	12.2	NNW	0.20	14.8	-27.7	---	---	724.6	0.025	0.000	18.9	2	1
03/25/06	7:59 a	-17.4	-17.4	-17.4	---	---	10.4	NW	0.17	13.0	-27.0	---	---	724.6	0.025	0.000	18.8	2	1
03/25/06	8:00 a	-17.4	-17.4	-17.4	---	---	10.4	NW	0.17	12.2	-27.0	---	---	724.6	0.025	0.000	18.8	2	1
03/25/06	8:01 a	-17.4	-17.4	-17.4	---	---	7.8	NW	0.13	8.7	-25.7	---	---	724.6	0.025	0.000	18.8	2	1
03/25/06	8:02 a	-17.4	-17.4	-17.4	---	---	9.6	NW	0.16	12.2	-26.6	---	---	724.6	0.025	0.000	18.8	2	1
03/25/06	8:03 a	-17.4	-17.4	-17.4	---	---	11.3	NW	0.19	12.2	-27.4	---	---	724.6	0.025	0.000	18.8	2	1
03/25/06	8:04 a	-17.4	-17.4	-17.4	---	---	8.7	NW	0.14	10.4	-26.2	---	---	724.7	0.025	0.000	18.8	2	1
03/25/06	8:05 a	-17.4	-17.4	-17.5	---	---	7.8	NW	0.13	10.4	-25.7	---	---	724.7	0.025	0.000	18.8	2	1
03/25/06	8:06 a	-17.4	-17.4	-17.5	---	---	8.7	NW	0.14	12.2	-26.2	---	---	724.7	0.025	0.000	18.8	2	1
03/25/06	8:07 a	-17.4	-17.4	-17.4	---	---	7.8	NW	0.13	10.4	-25.7	---	---	724.7	0.025	0.000	18.8	2	1
03/25/06	8:08 a	-17.4	-17.4	-17.5	---	---	7.0	NW	0.12	9.6	-25.2	---	---	724.7	0.025	0.000	18.8	2	1
03/25/06	8:09 a	-17.5	-17.5	-17.5	---	---	7.0	NNW	0.12	8.7	-25.2	---	---	724.6	0.025	0.000	18.8	2	1
03/25/06	8:10 a	-17.5	-17.5	-17.5	---	---	9.6	NW	0.16	12.2	-26.7	---	---	724.6	0.025	0.000	18.8	2	1
03/25/06	8:11 a	-17.5	-17.5	-17.5	---	---	8.7	NW	0.14	11.3	-26.2	---	---	724.6	0.025	0.000	18.8	2	1
03/25/06	8:12 a	-17.5	-17.5	-17.5	---	---	7.0	NNW	0.12	8.7	-25.2	---	---	724.7	0.025	0.000	18.8	2	1
03/25/06	8:13 a	-17.5	-17.5	-17.5	---	---	7.8	NW	0.13	9.6	-25.8	---	---	724.7	0.025	0.000	18.8	2	1
03/25/06	8:14 a	-17.5	-17.5	-17.5	---	---	7.8	NW	0.13	9.6	-25.8	---	---	724.7	0.025	0.000	18.8	2	1
03/25/06	8:15 a	-17.6	-17.6	-17.6	---	---	7.0	NW	0.12	7.8	-25.3	---	---	724.7	0.025	0.000	18.8	2	1
03/25/06	8:16 a	-17.6	-17.6	-17.6	---	---	7.0	NW	0.12	7.8	-25.3	---	---	724.7	0.025	0.000	18.8	2	1
03/25/06	8:17 a	-17.6	-17.6	-17.6	---	---	7.0	NW	0.12	8.7	-25.3	---	---	724.6	0.025	0.000	18.8	2	1
03/25/06	8:18 a	-17.6	-17.6	-17.6	---	---	7.0	NW	0.12	7.8	-25.3	---	---	724.7	0.025	0.000	18.8	2	1
03/25/06	8:19 a	-17.6	-17.6	-17.6	---	---	6.1	NW	0.10	7.8	-24.8	---	---	724.7	0.025	0.000	18.8	2	1
03/25/06	8:20 a	-17.6	-17.6	-17.6	---	---	7.0	NW	0.12	7.8	-25.4	---	---	724.6	0.025	0.000	18.9	2	1
03/25/06	8:21 a	-17.6	-17.6	-17.6	---	---	6.1	NW	0.10	7.0	-24.8	---	---	724.7	0.025	0.000	18.9	2	1
03/25/06	8:22 a	-17.6	-17.6	-17.6	---	---	6.1	NW	0.10	7.0	-24.8	---	---	724.7	0.025	0.000	18.9	2	1
03/25/06	8:23 a	-17.6	-17.6	-17.7	---	---	7.0	NW	0.12	8.7	-25.4	---	---	724.7	0.025	0.000	18.9	2	1
03/25/06	8:24 a	-17.6	-17.6	-17.7	---	---	7.0	NW	0.12	8.7	-25.4	---	---	724.6	0.025	0.000	18.9	2	1
03/25/06	8:25 a	-17.7	-17.7	-17.7	---	---	6.1	NNW	0.10	7.8	-24.8	---	---	724.7	0.025	0.000	18.9	2	1
03/25/06	8:26 a	-17.7	-17.7	-17.7	---	---	6.1	NNW	0.10	7.8	-24.8	---	---	724.7	0.025	0.000	18.9	2	1
03/25/06	8:27 a	-17.7	-17.7	-17.7	---	---	7.0	NNW	0.12	7.8	-25.5	---	---	724.6	0.025	0.000	18.9	2	1
03/25/06	8:28 a	-17.7	-17.7	-17.7	---	---	7.0	NNW	0.12	7.8	-25.5	---	---	724.6	0.025	0.000	18.9	2	1
03/25/06	8:29 a	-17.7	-17.7	-17.7	---	---	6.1	NW	0.10	7.0	-24.9	---	---	724.6	0.025	0.000	18.9	2	1
03/25/06	8:30 a	-17.7	-17.7	-17.7	---	---	5.2	NW	0.09	6.1	-24.3	---	---	724.6	0.025	0.000	18.9	2	1
03/25/06	8:31 a	-17.8	-17.7	-17.8	---	---	6.1	NNW	0.10	7.0	-25.0	---	---	724.7	0.025	0.000	18.9	2	1
03/25/06	8:32 a	-17.8	-17.8	-17.8	---	---	5.2	NW	0.09	6.1	-24.3	---	---	724.6	0.025	0.000	18.9	2	1
03/25/06	8:33 a	-17.8	-17.8	-17.8	---	---	5.2	NNW	0.09	7.0	-24.3	---	---	724.7	0.025	0.000	18.9	2	1
03/25/06	8:34 a	-17.8	-17.8	-17.8	---	---	6.1	NNW	0.10	7.0	-25.1	---	---	724.7	0.025	0.000	18.9	2	1
03/25/06	8:35 a	-17.8	-17.8	-17.8	---	---	5.2	NW	0.09	7.8	-24.4	---	---	724.7	0.025	0.000	18.9	2	1
03/25/06	8:36 a	-17.8	-17.8	-17.9	---	---	6.1	NW	0.10	7.8	-25.1	---	---	724.7	0.025	0.000	18.9	2	1
03/25/06	8:37 a	-17.9	-17.8	-17.9	---	---	6.1	NW	0.10	7.0	-25.1	---	---	724.6	0.025	0.000	19.0	2	1
03/25/06	8:38 a	-17.9	-17.9	-17.9	---	---	7.0	NW	0.12	7.8	-25.7	---	---	724.7	0.025	0.000	19.0	2	1
03/25/06	8:39 a	-17.9	-17.9	-17.9	---	---	6.1	NW	0.10	7.8	-25.1	---	---	724.6	0.025	0.000	19.0	2	1
03/25/06	8:40 a	-17.9	-17.9	-17.9	---	---	6.1	NNW	0.10	7.0	-25.1	---	---	724.7	0.025	0.000	19.0	2	1
03/25/06	8:41 a	-17.9	-17.9	-17.9	---	---	6.1	NW	0.10	7.0	-25.1	---	---	724.6	0.025	0.000	19.0	2	1
03/25/06	8:42 a	-17.9	-17.9	-17.9	---	---	6.1	NW	0.10	7.8	-25.2	---	---	724.6	0.025	0.000	19.0	2	1
03/25/06	8:43 a	-17.9	-17.9	-17.9	---	---	6.1	NNW	0.10	7.8	-25.2	---	---	724.6	0.025	0.000	19.0	2	1
03/25/06	8:44 a	-17.9	-17.9	-17.9	---	---	6.1	NW	0.10	7.0	-25.2	---	---	724.6	0.025	0.000	19.0	2	1
03/25/06	8:45 a	-17.9	-17.9	-17.9	---	---	5.2	NNW	0.09	7.0	-24.5	---	---	724.6	0.025	0.000	19.0	2	1
03/25/06	8:46 a	-17.9	-17.9	-17.9	---	---	5.2	NW	0.09	6.1	-24.5	---	---	724.6	0.025	0.000	19.0	2	1
03/25/06	8:47 a	-18.0	-17.9	-18.0	---	---	6.1	NW	0.10	7.8	-25.3	---	---	724.6	0.025	0.000	19.0	2	1
03/25/06	8:48 a	-18.0	-18.0	-18.0	---	---	7.0	NW	0.12	7.8	-25.8	---	---	724.6	0.025	0.000	19.0	2	1
03/25/06	8:49 a	-18.0	-18.0	-18.0	---	---	7.8	NW	0.13	8.7	-26.4	---	---	724.6	0.025	0.000	19.0	2	1
03/25/06	8:50 a	-18.0	-18.0	-18.0	---	---	6.1	NW	0.10	7.8	-25.3	---	---	724.6	0.025	0.000	19.0	2	1
03/25/06	8:51 a	-18.1	-18.0	-18.1	---	---	5.2	NNW	0.09	7.0	-24.7	---	---	724.6	0.025	0.000	19.0	2	1
03/25/06	8:52 a	-18.1	-18.1	-18.1	---	---	6.1	NNW	0.10	7.8	-25.3	---	---	724.6	0.025	0.000	19.0	2	1
03/25/06	8:53 a	-18.1	-18.1	-18.1	---	---	5.2	NNW	0.09	6.1	-24.7	---	---	724.6	0.025	0.000	19.0	2	1
03/25/06	8:54 a	-18.1	-18.1	-18.1	---	---	4.3	NW	0.07	5.2	-23.9	---	---	724.6	0.025	0.000	19.0	2	1
03/25/06	8:55 a	-18.1	-18.1	-18.1	---	---	5.2	NNW	0.09	7.0	-24.7	---	---	724.5	0.025	0.000	19.0	2	1
03/25/06	8:56 a	-18.1	-18.1	-18.1	---	---	5.2	NW	0.09	7.0	-24.7	---	---	724.6	0.025	0.000	19.0	2	1
03/25/06	8:57 a	-18.1	-18.1	-18.1	---	---	4.3	NW	0.07	5.2	-23.9	---	---	724.5	0.025	0.000	19.0	2	1
03/25/06	8:58 a	-18.1	-18.1	-18.1	---	---	4.3	NNW	0.07	6.1	-23.9	---	---	724.5	0.025	0.000	19.0	2	1
03/25/06	8:59 a	-18.1	-18.1	-18.2	---	---	4.3	NNW	0.07	6.1	-23.9	---	---	724.6	0.025	0.000	18.9	2	1
03/25/06	9:00 a	-18.2	-18.1	-18.2	---	---	5.2	NNW	0.09	7.0	-24.8	---	---	724.6	0.025	0.000	18.9	2	1
03/25/06	9:01 a	-18.2	-18.2	-18.2	---	---	5.2	NW	0.09	7.0	-24.8	---	---	724.5	0.025	0.000	18.9	2	1
03/25/06	9:02 a	-18.2	-18.2	-18.2	---	---	4.3	NW	0.07	5.2	-24.0	---	---	724.6	0.025	0.000	18.9	2	1
03/25/06	9:03 a	-18.2	-18.2	-18.2	---	---	4.3	NNW	0.07	5.2	-24.0	---	---	724.6	0.025	0.000	18.9	2	1
03/25/06	9:04 a	-18.2	-18.2	-18.2	---	---	5.2	NW	0.09	6.1	-24.8	---	---	724.6	0.025	0.000	18.9	2	1
03/25/06	9:05 a	-18.2	-18.2	-18.2	---	---	3.5	NW	0.06	5.2	-23.2	---	---	724.6	0.025	0.000	18.9	2	1
03/25/06	9:06 a	-18.2	-18.2	-18.3	---	---	4.3	NW	0.07	7.0	-24.1	---	---	724.5	0.025	0.000	18.9	2	1
03/25/06	9:07 a	-18.2	-18.2	-18.3	---	---	6.1	NNW	0.10	7.8	-25.5	---	---	724.5	0.025	0.000	18.9	2	1
03/25/06	9:08 a	-18.3	-18.3	-18.3	---	---	5.2	NNW	0.09	7.0	-24.9	---	---	724.5	0.025	0.000	18.9	2	1
03/25/06	9:09 a	-18.3	-18.3	-18.3	---	---	6.1	NNW	0.10	7.0	-25.6	---	---	724.5	0.025	0.000	18.9	2	1
03/25/06	9:10 a	-18.3	-18.3	-18.3	---	---	6.1	NNW	0.10	8.7	-25.6	---	---	724.5	0.025	0.000	18.9	2	1
03/25/06	9:11 a	-18.3	-18.3	-18.3	---	---	6.1	NW	0.10	7.8	-25.6	---	---	724.4	0.025	0.000	19.0	2	1
03/25/06	9:12 a	-18.3	-18.3	-18.3	---	---	6.1	NW	0.10	8.7	-25.6	---	---	724.5	0.025	0.000	19.0	2	1
03/25/06	9:13 a	-18.3	-18.3	-18.3	---	---	7.8	NW	0.13	8.7	-26.7	---	---	724.5	0.025	0.000	19.0	2	1
03/25/06	9:14 a	-18.3	-18.3	-18.3	---	---	7.0	NNW	0.12	8.7	-26.2	---	---	724.4	0.025	0.000	19.0	2	1
03/25/06	9:15 a	-18.3	-18.3	-18.3	---	---	5.2	NNW	0.09	6.1	-24.9	---	---	724.4	0.025	0.000	19.0	2	1
03/25/06	9:16 a	-18.3	-18.3	-18.3	---	---	5.2	NNW	0.09	7.0	-24.9	---	---	724.4	0.025	0.000	19.0	2	1
03/25/06	9:17 a	-18.3	-18.3	-18.3	---	---	4.3	NNW	0.07	7.0	-24.2	---	---	724.4	0.025	0.000	19.0	2	1
03/25/06	9:18 a	-18.3	-18.3	-18.3	---	---	3.5	NNW	0.06	4.3	-23.2	---	---	724.5	0.025	0.000	19.1	2	1
03/25/06	9:19 a	-18.3	-18.3	-18.3	---	---	3.5	NNW	0.06	4.3	-23.2	---	---	724.5	0.025	0.000	19.1	2	1
03/25/06	9:20 a	-18.3	-18.3	-18.3	---	---	4.3	NNW	0.07	5.2	-24.2	---	---	724.5	0.025	0.000	19.1	2	1
03/25/06	9:21 a	-18.3	-18.3	-18.3	---	---	4.3	NW	0.07	5.2	-24.2	---	---	724.5	0.025	0.000	19.1	2	1
03/25/06	9:22 a	-18.3	-18.3	-18.3	---	---	5.2	NNW	0.09	7.0	-24.9	---	---	724.4	0.025	0.000	19.1	2	1
03/25/06	9:23 a	-18.3	-18.3	-18.3	---	---	6.1	NW	0.10	7.8	-25.6	---	---	724.5	0.025	0.000	19.1	2	1
03/25/06	9:24 a	-18.3	-18.3	-18.3	---	---	5.2	NW	0.09	6.1	-24.9	---	---	724.5	0.025	0.000	19.1	2	1
03/25/06	9:25 a	-18.3	-18.3	-18.3	---	---	4.3	NW	0.07	5.2	-24.2	---	---	724.5	0.025	0.000	19.1	2	1
03/25/06	9:26 a	-18.3	-18.3	-18.3	---	---	5.2	NNW	0.09	7.0	-24.9	---	---	724.4	0.025	0.000	19.1	2	1
03/25/06	9:27 a	-18.3	-18.3	-18.3	---	---	3.5	NW	0.06	4.3	-23.2	---	---	724.4	0.025	0.000	19.1	2	1
03/25/06	9:28 a	-18.3	-18.3	-18.3	---	---	3.5	NW	0.06	4.3	-23.2	---	---	724.4	0.025	0.000	19.1	2	1
03/25/06	9:29 a	-18.3	-18.3	-18.3	---	---	3.5	NW	0.06	5.2	-23.2	---	---	724.4	0.025	0.000	19.1	2	1
03/25/06	9:30 a	-18.3	-18.3	-18.3	---	---	2.6	NNW	0.04	4.3	-22.1	---	---	724.4	0.025	0.000	19.1	2	1
03/25/06	9:31 a	-18.3	-18.3	-18.3	---	---	2.6	NNW	0.04	5.2	-22.1	---	---	724.4	0.025	0.000	19.1	2	1
03/25/06	9:32 a	-18.3	-18.3	-18.3	---	---	3.5	NNW	0.06	4.3	-23.2	---	---	724.4	0.025	0.000	19.1	2	1
03/25/06	9:33 a	-18.3	-18.3	-18.3	---	---	2.6	NNW	0.04	3.5	-22.1	---	---	724.4	0.025	0.000	19.1	2	1
03/25/06	9:34 a	-18.3	-18.3	-18.3	---	---	1.7	NNW	0.03	2.6	-20.6	---	---	724.4	0.025	0.000	19.1	2	1
03/25/06	9:35 a	-18.3	-18.3	-18.3	---	---	0.9	NNW	0.01	1.7	-18.3	---	---	724.4	0.025	0.000	19.1	2	1
03/25/06	9:36 a	-18.3	-18.3	-18.3	---	---	0.0	NNW	0.00	0.9	-18.2	---	---	724.4	0.025	0.000	19.1	2	1
03/25/06	9:37 a	-18.3	-18.3	-18.3	---	---	0.0	---	0.00	0.9	-18.2	---	---	724.5	0.025	0.000	19.2	2	1
03/25/06	9:38 a	-18.3	-18.3	-18.3	---	---	0.0	NNW	0.00	0.9	-18.2	---	---	724.5	0.025	0.000	19.2	2	1
03/25/06	9:39 a	-18.3	-18.3	-18.3	---	---	0.0	---	0.00	0.9	-18.2	---	---	724.4	0.025	0.000	19.2	2	1
03/25/06	9:40 a	-18.3	-18.3	-18.3	---	---	5.2	NE	0.09	7.8	-24.9	---	---	724.5	0.025	0.000	19.2	2	1
03/25/06	9:41 a	-18.3	-18.3	-18.3	---	---	7.8	NE	0.13	10.4	-26.7	---	---	724.4	0.025	0.000	19.2	2	1
03/25/06	9:42 a	-18.3	-18.3	-18.3	---	---	7.0	NE	0.12	8.7	-26.2	---	---	724.5	0.025	0.000	19.2	2	1
03/25/06	9:43 a	-18.3	-18.3	-18.4	---	---	5.2	NE	0.09	7.0	-25.0	---	---	724.5	0.025	0.000	19.2	2	1
03/25/06	9:44 a	-18.4	-18.4	-18.4	---	---	6.1	NE	0.10	7.8	-25.7	---	---	724.5	0.026	0.000	19.2	2	1
03/25/06	9:45 a	-18.4	-18.4	-18.4	---	---	7.0	NE	0.12	7.8	-26.4	---	---	724.4	0.026	0.000	19.2	2	1
03/25/06	9:46 a	-18.5	-18.4	-18.5	---	---	7.0	NE	0.12	7.8	-26.4	---	---	724.4	0.026	0.000	19.2	2	1
03/25/06	9:47 a	-18.6	-18.5	-18.6	---	---	7.8	NE	0.13	8.7	-27.1	---	---	724.5	0.026	0.000	19.2	2	1
03/25/06	9:48 a	-18.6	-18.6	-18.6	---	---	7.0	NE	0.12	7.8	-26.5	---	---	724.4	0.026	0.000	19.2	2	1
03/25/06	9:49 a	-18.6	-18.6	-18.6	---	---	4.3	NE	0.07	7.0	-24.6	---	---	724.3	0.026	0.000	19.2	2	1
03/25/06	9:50 a	-18.7	-18.6	-18.7	---	---	1.7	NE	0.03	3.5	-21.1	---	---	724.3	0.026	0.000	19.2	2	1
03/25/06	9:51 a	-18.7	-18.7	-18.7	---	---	2.6	NE	0.04	4.3	-22.6	---	---	724.4	0.026	0.000	19.2	2	1
03/25/06	9:52 a	-18.7	-18.7	-18.7	---	---	2.6	NE	0.04	3.5	-22.6	---	---	724.4	0.026	0.000	19.2	2	1
03/25/06	9:53 a	-18.8	-18.7	-18.8	---	---	1.7	NE	0.03	3.5	-21.2	---	---	724.4	0.026	0.000	19.2	2	1
03/25/06	9:54 a	-18.8	-18.8	-18.8	---	---	3.5	NE	0.06	5.2	-23.9	---	---	724.4	0.026	0.000	19.2	2	1
03/25/06	9:55 a	-18.8	-18.8	-18.9	---	---	2.6	NE	0.04	4.3	-22.7	---	---	724.4	0.026	0.000	19.2	2	1
03/25/06	9:56 a	-18.9	-18.9	-18.9	---	---	1.7	NE	0.03	2.6	-21.3	---	---	724.3	0.026	0.000	19.2	2	1
03/25/06	9:57 a	-18.9	-18.9	-18.9	---	---	3.5	NW	0.06	4.3	-23.9	---	---	724.4	0.026	0.000	19.2	2	1
03/25/06	9:58 a	-18.9	-18.9	-18.9	---	---	3.5	WNW	0.06	5.2	-24.0	---	---	724.3	0.026	0.000	19.2	2	1
03/25/06	9:59 a	-18.9	-18.9	-19.0	---	---	5.2	WNW	0.09	7.8	-25.7	---	---	724.3	0.026	0.000	19.2	2	1
03/25/06	10:00 a	-19.0	-18.9	-19.0	---	---	3.5	WNW	0.06	4.3	-24.1	---	---	724.3	0.026	0.000	19.2	2	1
03/25/06	10:01 a	-19.0	-19.0	-19.0	---	---	1.7	NW	0.03	2.6	-21.4	---	---	724.3	0.026	0.000	19.2	2	1
03/25/06	10:02 a	-19.0	-19.0	-19.1	---	---	0.9	NW	0.01	1.7	-19.0	---	---	724.3	0.026	0.000	19.2	2	1
03/25/06	10:03 a	-19.1	-19.0	-19.1	---	---	0.0	NW	0.00	0.9	-19.0	---	---	724.4	0.026	0.000	19.2	2	1
03/25/06	10:04 a	-19.1	-19.0	-19.1	---	---	0.0	NW	0.00	0.9	-19.0	---	---	724.4	0.026	0.000	19.2	2	1
03/25/06	10:05 a	-19.1	-19.1	-19.1	---	---	1.7	NW	0.03	4.3	-21.4	---	---	724.3	0.026	0.000	19.2	2	1
03/25/06	10:06 a	-19.1	-19.1	-19.1	---	---	0.9	NW	0.01	2.6	-19.1	---	---	724.3	0.026	0.000	19.2	2	1
03/25/06	10:07 a	-19.1	-19.1	-19.1	---	---	1.7	NW	0.03	2.6	-21.4	---	---	724.4	0.026	0.000	19.2	2	1
03/25/06	10:08 a	-19.1	-19.1	-19.1	---	---	0.0	NW	0.00	0.9	-19.1	---	---	724.3	0.026	0.000	19.2	2	1
03/25/06	10:09 a	-19.1	-19.1	-19.1	---	---	0.0	NW	0.00	0.9	-19.1	---	---	724.4	0.026	0.000	19.2	2	1
03/25/06	10:10 a	-19.1	-19.1	-19.1	---	---	1.7	NNE	0.03	4.3	-21.5	---	---	724.3	0.026	0.000	19.2	2	1
03/25/06	10:11 a	-19.1	-19.1	-19.1	---	---	2.6	NE	0.04	3.5	-23.1	---	---	724.3	0.026	0.000	19.2	2	1
03/25/06	10:12 a	-19.2	-19.1	-19.2	---	---	1.7	N	0.03	2.6	-21.6	---	---	724.3	0.026	0.000	19.2	2	1
03/25/06	10:13 a	-19.2	-19.2	-19.2	---	---	1.7	NE	0.03	3.5	-21.6	---	---	724.3	0.026	0.000	19.2	2	1
03/25/06	10:14 a	-19.2	-19.2	-19.2	---	---	1.7	ENE	0.03	2.6	-21.6	---	---	724.3	0.026	0.000	19.2	2	1
03/25/06	10:15 a	-19.2	-19.2	-19.2	---	---	2.6	ENE	0.04	3.5	-23.1	---	---	724.3	0.026	0.000	19.3	2	1
03/25/06	10:16 a	-19.2	-19.2	-19.2	---	---	2.6	NE	0.04	5.2	-23.2	---	---	724.4	0.026	0.000	19.2	2	1
03/25/06	10:17 a	-19.2	-19.2	-19.2	---	---	4.3	NE	0.07	6.1	-25.3	---	---	724.3	0.026	0.000	19.3	2	1
03/25/06	10:18 a	-19.3	-19.2	-19.3	---	---	3.5	NE	0.06	5.2	-24.4	---	---	724.2	0.026	0.000	19.3	2	1
03/25/06	10:19 a	-19.3	-19.2	-19.3	---	---	2.6	NW	0.04	4.3	-23.2	---	---	724.4	0.026	0.000	19.3	2	1
03/25/06	10:20 a	-19.3	-19.3	-19.3	---	---	0.9	NNW	0.01	3.5	-19.3	---	---	724.3	0.026	0.000	19.3	2	1
03/25/06	10:21 a	-19.3	-19.3	-19.3	---	---	0.0	NNW	0.00	0.9	-19.2	---	---	724.2	0.026	0.000	19.3	2	1
03/25/06	10:22 a	-19.3	-19.3	-19.3	---	---	0.0	---	0.00	0.0	-19.2	---	---	724.2	0.026	0.000	19.3	2	1
03/25/06	10:23 a	-19.3	-19.3	-19.3	---	---	0.9	NNW	0.01	2.6	-19.3	---	---	724.3	0.026	0.000	19.3	2	1
03/25/06	10:24 a	-19.3	-19.3	-19.3	---	---	2.6	E	0.04	3.5	-23.3	---	---	724.3	0.026	0.000	19.3	2	1
03/25/06	10:25 a	-19.3	-19.3	-19.3	---	---	3.5	E	0.06	6.1	-24.4	---	---	724.3	0.026	0.000	19.3	2	1
03/25/06	10:26 a	-19.3	-19.3	-19.4	---	---	6.1	NE	0.10	7.8	-26.8	---	---	724.3	0.026	0.000	19.3	2	1
03/25/06	10:27 a	-19.4	-19.3	-19.4	---	---	4.3	NE	0.07	7.8	-25.4	---	---	724.3	0.026	0.000	19.3	2	1
03/25/06	10:28 a	-19.4	-19.4	-19.4	---	---	3.5	NE	0.06	4.3	-24.5	---	---	724.2	0.026	0.000	19.3	2	1
03/25/06	10:29 a	-19.4	-19.4	-19.4	---	---	5.2	NE	0.09	7.0	-26.2	---	---	724.3	0.026	0.000	19.3	2	1
03/25/06	10:30 a	-19.4	-19.4	-19.4	---	---	4.3	NE	0.07	5.2	-25.5	---	---	724.3	0.026	0.000	19.3	2	1
03/25/06	10:31 a	-19.4	-19.4	-19.5	---	---	4.3	NE	0.07	6.1	-25.5	---	---	724.3	0.026	0.000	19.3	2	1
03/25/06	10:32 a	-19.5	-19.5	-19.5	---	---	6.1	NE	0.10	7.8	-27.1	---	---	724.2	0.026	0.000	19.3	2	1
03/25/06	10:33 a	-19.5	-19.5	-19.5	---	---	6.1	NE	0.10	7.8	-27.1	---	---	724.2	0.026	0.000	19.3	2	1
03/25/06	10:34 a	-19.5	-19.5	-19.5	---	---	7.0	NE	0.12	7.8	-27.7	---	---	724.2	0.026	0.000	19.3	2	1
03/25/06	10:35 a	-19.5	-19.5	-19.6	---	---	6.1	NE	0.10	7.0	-27.1	---	---	724.2	0.026	0.000	19.3	2	1
03/25/06	10:36 a	-19.6	-19.6	-19.6	---	---	5.2	NE	0.09	7.0	-26.4	---	---	724.2	0.026	0.000	19.3	2	1
03/25/06	10:37 a	-19.6	-19.6	-19.6	---	---	6.1	NE	0.10	7.8	-27.2	---	---	724.2	0.026	0.000	19.3	2	1
03/25/06	10:38 a	-19.6	-19.6	-19.6	---	---	6.1	NE	0.10	7.8	-27.2	---	---	724.2	0.026	0.000	19.3	2	1
03/25/06	10:39 a	-19.7	-19.6	-19.7	---	---	4.3	NE	0.07	6.1	-25.8	---	---	724.2	0.026	0.000	19.3	2	1
03/25/06	10:40 a	-19.7	-19.7	-19.7	---	---	5.2	NE	0.09	7.0	-26.6	---	---	724.2	0.026	0.000	19.3	2	1
03/25/06	10:41 a	-19.8	-19.7	-19.8	---	---	4.3	NE	0.07	6.1	-25.9	---	---	724.2	0.026	0.000	19.3	2	1
03/25/06	10:42 a	-19.8	-19.8	-19.8	---	---	3.5	NE	0.06	4.3	-24.9	---	---	724.2	0.026	0.000	19.3	2	1
03/25/06	10:43 a	-19.8	-19.8	-19.8	---	---	3.5	NE	0.06	4.3	-25.1	---	---	724.3	0.027	0.000	19.3	2	1
03/25/06	10:44 a	-19.8	-19.8	-19.8	---	---	4.3	NE	0.07	7.0	-26.0	---	---	724.2	0.027	0.000	19.3	2	1
03/25/06	10:45 a	-19.9	-19.9	-19.9	---	---	7.0	NE	0.12	7.8	-28.1	---	---	724.1	0.027	0.000	19.3	2	1
03/25/06	10:46 a	-19.9	-19.9	-19.9	---	---	7.0	NE	0.12	7.8	-28.2	---	---	724.2	0.027	0.000	19.3	2	1
03/25/06	10:47 a	-19.9	-19.9	-20.0	---	---	3.5	NE	0.06	7.8	-25.2	---	---	724.2	0.027	0.000	19.3	2	1
03/25/06	10:48 a	-20.0	-20.0	-20.0	---	---	7.0	NE	0.12	8.7	-28.3	---	---	724.2	0.027	0.000	19.3	2	1
03/25/06	10:49 a	-20.0	-20.0	-20.0	---	---	5.2	NE	0.09	7.0	-26.9	---	---	724.1	0.027	0.000	19.3	2	1
03/25/06	10:50 a	-20.1	-20.0	-20.1	---	---	8.7	NE	0.14	11.3	-29.4	---	---	724.2	0.027	0.000	19.3	2	1
03/25/06	10:51 a	-20.1	-20.1	-20.1	---	---	7.8	NE	0.13	9.6	-28.9	---	---	724.2	0.027	0.000	19.3	2	1
03/25/06	10:52 a	-20.2	-20.1	-20.2	---	---	7.8	NE	0.13	9.6	-29.1	---	---	724.1	0.027	0.000	19.3	2	1
03/25/06	10:53 a	-20.2	-20.2	-20.2	---	---	6.1	NE	0.10	8.7	-27.9	---	---	724.1	0.027	0.000	19.3	2	1
03/25/06	10:54 a	-20.2	-20.2	-20.3	---	---	7.0	NE	0.12	9.6	-28.6	---	---	724.2	0.027	0.000	19.3	2	1
03/25/06	10:55 a	-20.3	-20.3	-20.3	---	---	7.0	NE	0.12	8.7	-28.6	---	---	724.1	0.027	0.000	19.3	2	1
03/25/06	10:56 a	-20.3	-20.3	-20.3	---	---	7.0	NE	0.12	8.7	-28.7	---	---	724.1	0.027	0.000	19.3	2	1
03/25/06	10:57 a	-20.3	-20.3	-20.4	---	---	7.8	NE	0.13	8.7	-29.2	---	---	724.1	0.027	0.000	19.3	2	1
03/25/06	10:58 a	-20.4	-20.4	-20.4	---	---	7.8	NE	0.13	8.7	-29.3	---	---	724.2	0.027	0.000	19.3	2	1
03/25/06	10:59 a	-20.4	-20.4	-20.4	---	---	7.0	NE	0.12	8.7	-28.8	---	---	724.2	0.027	0.000	19.3	2	1
03/25/06	11:00 a	-20.5	-20.4	-20.5	---	---	7.8	NE	0.13	8.7	-29.4	---	---	724.1	0.027	0.000	19.3	2	1
03/25/06	11:01 a	-20.6	-20.5	-20.6	---	---	7.0	NE	0.12	8.7	-28.9	---	---	724.2	0.027	0.000	19.3	2	1
03/25/06	11:02 a	-20.6	-20.6	-20.6	---	---	8.7	NE	0.14	10.4	-30.0	---	---	724.1	0.027	0.000	19.3	2	1
03/25/06	11:03 a	-20.6	-20.6	-20.6	---	---	9.6	NE	0.16	10.4	-30.6	---	---	724.1	0.027	0.000	19.4	2	1
03/25/06	11:04 a	-20.7	-20.6	-20.7	---	---	8.7	NE	0.14	9.6	-30.2	---	---	724.2	0.027	0.000	19.4	2	1
03/25/06	11:05 a	-20.7	-20.7	-20.7	---	---	8.7	NE	0.14	9.6	-30.2	---	---	724.1	0.027	0.000	19.4	2	1
03/25/06	11:06 a	-20.8	-20.7	-20.8	---	---	8.7	NE	0.14	10.4	-30.3	---	---	724.1	0.027	0.000	19.4	2	1
03/25/06	11:07 a	-20.8	-20.8	-20.8	---	---	7.0	NE	0.12	7.8	-29.3	---	---	724.1	0.027	0.000	19.4	2	1
03/25/06	11:08 a	-20.8	-20.8	-20.8	---	---	7.8	NE	0.13	9.6	-29.8	---	---	724.1	0.027	0.000	19.4	2	1
03/25/06	11:09 a	-20.8	-20.8	-20.9	---	---	7.8	NE	0.13	7.8	-29.8	---	---	724.1	0.027	0.000	19.4	2	1
03/25/06	11:10 a	-20.9	-20.9	-20.9	---	---	7.0	NE	0.12	8.7	-29.3	---	---	724.0	0.027	0.000	19.4	2	1
03/25/06	11:11 a	-20.9	-20.9	-20.9	---	---	7.0	NE	0.12	7.8	-29.4	---	---	724.0	0.027	0.000	19.4	2	1
03/25/06	11:12 a	-20.9	-20.9	-21.0	---	---	7.0	NE	0.12	7.8	-29.4	---	---	724.1	0.027	0.000	19.4	2	1
03/25/06	11:13 a	-21.0	-21.0	-21.1	---	---	7.0	NE	0.12	7.8	-29.5	---	---	724.1	0.027	0.000	19.4	2	1
03/25/06	11:14 a	-21.1	-21.1	-21.1	---	---	7.0	NE	0.12	8.7	-29.6	---	---	724.0	0.027	0.000	19.4	2	1
03/25/06	11:15 a	-21.1	-21.1	-21.1	---	---	7.0	NE	0.12	8.7	-29.6	---	---	724.0	0.027	0.000	19.4	2	1
03/25/06	11:16 a	-21.1	-21.1	-21.1	---	---	7.0	NE	0.12	7.8	-29.6	---	---	724.1	0.027	0.000	19.4	2	1
03/25/06	11:17 a	-21.2	-21.1	-21.2	---	---	7.0	NE	0.12	7.8	-29.7	---	---	724.0	0.027	0.000	19.4	2	1
03/25/06	11:18 a	-21.2	-21.2	-21.2	---	---	6.1	NE	0.10	7.8	-29.1	---	---	724.1	0.027	0.000	19.4	2	1
03/25/06	11:19 a	-21.2	-21.2	-21.2	---	---	7.0	NE	0.12	8.7	-29.8	---	---	724.1	0.027	0.000	19.4	2	1
03/25/06	11:20 a	-21.2	-21.2	-21.2	---	---	7.8	NE	0.13	8.7	-30.3	---	---	724.0	0.027	0.000	19.5	2	1
03/25/06	11:21 a	-21.3	-21.2	-21.3	---	---	7.0	NE	0.12	8.7	-29.8	---	---	723.9	0.028	0.000	19.5	2	1
03/25/06	11:22 a	-21.3	-21.3	-21.3	---	---	9.6	NE	0.16	10.4	-31.4	---	---	724.0	0.028	0.000	19.5	2	1
03/25/06	11:23 a	-21.3	-21.3	-21.3	---	---	9.6	NE	0.16	10.4	-31.4	---	---	723.9	0.028	0.000	19.4	2	1
03/25/06	11:24 a	-21.4	-21.3	-21.4	---	---	8.7	NE	0.14	9.6	-31.1	---	---	724.0	0.028	0.000	19.5	2	1
03/25/06	11:25 a	-21.4	-21.4	-21.4	---	---	7.8	NE	0.13	8.7	-30.6	---	---	724.0	0.028	0.000	19.5	2	1
03/25/06	11:26 a	-21.4	-21.4	-21.4	---	---	7.0	NE	0.12	7.8	-30.1	---	---	724.0	0.028	0.000	19.4	2	1
03/25/06	11:27 a	-21.4	-21.4	-21.4	---	---	7.8	NE	0.13	8.7	-30.6	---	---	724.0	0.028	0.000	19.4	2	1
03/25/06	11:28 a	-21.5	-21.4	-21.5	---	---	7.0	NE	0.12	8.7	-30.1	---	---	723.9	0.028	0.000	19.4	2	1
03/25/06	11:29 a	-21.5	-21.5	-21.5	---	---	7.0	NE	0.12	7.8	-30.1	---	---	724.0	0.028	0.000	19.4	2	1
03/25/06	11:30 a	-21.6	-21.5	-21.6	---	---	7.0	NE	0.12	8.7	-30.2	---	---	724.0	0.028	0.000	19.4	2	1
03/25/06	11:31 a	-21.6	-21.6	-21.6	---	---	7.0	NE	0.12	7.8	-30.2	---	---	724.1	0.028	0.000	19.4	2	1
03/25/06	11:32 a	-21.6	-21.6	-21.6	---	---	5.2	NE	0.09	7.0	-28.8	---	---	724.0	0.028	0.000	19.4	2	1
03/25/06	11:33 a	-21.6	-21.6	-21.6	---	---	4.3	NE	0.07	5.2	-28.1	---	---	724.0	0.028	0.000	19.4	2	1
03/25/06	11:34 a	-21.6	-21.6	-21.6	---	---	5.2	NE	0.09	6.1	-28.9	---	---	724.0	0.028	0.000	19.4	2	1
03/25/06	11:35 a	-21.7	-21.7	-21.7	---	---	4.3	NE	0.07	5.2	-28.1	---	---	724.1	0.028	0.000	19.4	2	1
03/25/06	11:36 a	-21.7	-21.7	-21.7	---	---	5.2	NE	0.09	6.1	-28.9	---	---	724.0	0.028	0.000	19.4	2	1
03/25/06	11:37 a	-21.7	-21.7	-21.7	---	---	5.2	NE	0.09	6.1	-28.9	---	---	724.0	0.028	0.000	19.4	2	1
03/25/06	11:38 a	-21.7	-21.7	-21.7	---	---	3.5	NE	0.06	4.3	-27.2	---	---	724.0	0.028	0.000	19.4	2	1
03/25/06	11:39 a	-21.7	-21.7	-21.7	---	---	2.6	NE	0.04	3.5	-26.0	---	---	724.0	0.028	0.000	19.4	2	1
03/25/06	11:40 a	-21.7	-21.7	-21.7	---	---	2.6	NE	0.04	4.3	-26.0	---	---	724.0	0.028	0.000	19.4	2	1
03/25/06	11:41 a	-21.7	-21.7	-21.7	---	---	4.3	NE	0.07	5.2	-28.2	---	---	723.9	0.028	0.000	19.4	2	1
03/25/06	11:42 a	-21.7	-21.7	-21.7	---	---	6.1	NE	0.10	7.0	-29.7	---	---	724.0	0.028	0.000	19.4	2	1
03/25/06	11:43 a	-21.7	-21.7	-21.7	---	---	7.8	NE	0.13	9.6	-30.9	---	---	723.9	0.028	0.000	19.4	2	1
03/25/06	11:44 a	-21.7	-21.7	-21.8	---	---	7.8	NE	0.13	9.6	-30.9	---	---	724.0	0.028	0.000	19.4	2	1
03/25/06	11:45 a	-21.8	-21.8	-21.8	---	---	6.1	NE	0.10	7.8	-29.8	---	---	723.9	0.028	0.000	19.4	2	1
03/25/06	11:46 a	-21.8	-21.8	-21.8	---	---	5.2	NE	0.09	5.2	-29.1	---	---	723.9	0.028	0.000	19.4	2	1
03/25/06	11:47 a	-21.8	-21.8	-21.8	---	---	3.5	NE	0.06	5.2	-27.3	---	---	723.9	0.028	0.000	19.4	2	1
03/25/06	11:48 a	-21.8	-21.8	-21.8	---	---	2.6	NE	0.04	4.3	-26.1	---	---	723.9	0.028	0.000	19.4	2	1
03/25/06	11:49 a	-21.8	-21.8	-21.8	---	---	2.6	NE	0.04	3.5	-26.1	---	---	724.0	0.028	0.000	19.4	2	1
03/25/06	11:50 a	-21.8	-21.8	-21.8	---	---	0.9	ENE	0.01	1.7	-22.0	---	---	723.9	0.028	0.000	19.4	2	1
03/25/06	11:51 a	-21.8	-21.8	-21.8	---	---	0.9	ENE	0.01	1.7	-21.9	---	---	724.0	0.028	0.000	19.4	2	1
03/25/06	11:52 a	-21.8	-21.8	-21.8	---	---	0.0	ENE	0.00	0.9	-21.7	---	---	723.8	0.028	0.000	19.4	2	1
03/25/06	11:53 a	-21.8	-21.8	-21.8	---	---	0.9	ENE	0.01	0.9	-21.9	---	---	723.9	0.028	0.000	19.4	2	1
03/25/06	11:54 a	-21.8	-21.8	-21.8	---	---	0.9	ENE	0.01	0.9	-21.9	---	---	723.9	0.028	0.000	19.4	2	1
03/25/06	11:55 a	-21.8	-21.7	-21.8	---	---	0.0	---	0.00	0.9	-21.7	---	---	723.9	0.028	0.000	19.5	2	1
03/25/06	11:56 a	-21.7	-21.7	-21.8	---	---	0.0	ENE	0.00	0.9	-21.7	---	---	723.9	0.028	0.000	19.5	2	1
03/25/06	11:57 a	-21.7	-21.7	-21.8	---	---	0.9	ENE	0.01	1.7	-21.9	---	---	723.9	0.028	0.000	19.5	2	1
03/25/06	11:58 a	-21.7	-21.7	-21.7	---	---	0.9	ENE	0.01	1.7	-21.9	---	---	723.9	0.028	0.000	19.5	2	1
03/25/06	11:59 a	-21.7	-21.7	-21.7	---	---	0.9	ENE	0.01	1.7	-21.9	---	---	723.9	0.028	0.000	19.5	2	1
03/25/06	12:00 p	-21.7	-21.7	-21.7	---	---	0.9	ENE	0.01	1.7	-21.9	---	---	723.9	0.028	0.000	19.5	2	1
03/25/06	12:01 p	-21.7	-21.7	-21.7	---	---	2.6	ENE	0.04	3.5	-25.9	---	---	723.9	0.028	0.000	19.5	2	1
03/25/06	12:02 p	-21.7	-21.7	-21.7	---	---	2.6	ENE	0.04	3.5	-25.9	---	---	723.9	0.028	0.000	19.5	2	1
03/25/06	12:03 p	-21.7	-21.7	-21.7	---	---	2.6	ENE	0.04	3.5	-25.9	---	---	724.0	0.028	0.000	19.5	2	1
03/25/06	12:04 p	-21.7	-21.7	-21.7	---	---	2.6	ENE	0.04	2.6	-25.9	---	---	724.0	0.028	0.000	19.5	2	1
03/25/06	12:05 p	-21.7	-21.6	-21.7	---	---	2.6	ENE	0.04	4.3	-25.9	---	---	723.9	0.028	0.000	19.5	2	1
03/25/06	12:06 p	-21.6	-21.6	-21.7	---	---	4.3	ENE	0.07	5.2	-28.1	---	---	723.9	0.028	0.000	19.5	2	1
03/25/06	12:07 p	-21.7	-21.6	-21.7	---	---	5.2	ENE	0.09	5.2	-28.9	---	---	723.9	0.028	0.000	19.5	2	1
03/25/06	12:08 p	-21.7	-21.6	-21.7	---	---	4.3	ENE	0.07	5.2	-28.1	---	---	724.0	0.028	0.000	19.5	2	1
03/25/06	12:09 p	-21.7	-21.6	-21.7	---	---	4.3	ENE	0.07	5.2	-28.1	---	---	723.8	0.028	0.000	19.5	2	1
03/25/06	12:10 p	-21.6	-21.6	-21.7	---	---	3.5	ENE	0.06	4.3	-27.1	---	---	723.9	0.028	0.000	19.5	2	1
03/25/06	12:11 p	-21.6	-21.6	-21.6	---	---	3.5	ENE	0.06	4.3	-27.1	---	---	724.0	0.028	0.000	19.5	2	1
03/25/06	12:12 p	-21.6	-21.6	-21.6	---	---	3.5	ENE	0.06	4.3	-27.1	---	---	724.0	0.028	0.000	19.5	2	1
03/25/06	12:13 p	-21.6	-21.6	-21.6	---	---	3.5	ENE	0.06	3.5	-27.1	---	---	724.0	0.028	0.000	19.5	2	1
03/25/06	12:14 p	-21.6	-21.6	-21.6	---	---	3.5	ENE	0.06	4.3	-27.1	---	---	723.8	0.028	0.000	19.5	2	1
03/25/06	12:15 p	-21.6	-21.6	-21.6	---	---	3.5	ENE	0.06	4.3	-27.0	---	---	723.9	0.028	0.000	19.5	2	1
03/25/06	12:16 p	-21.6	-21.6	-21.6	---	---	3.5	ENE	0.06	3.5	-27.0	---	---	723.9	0.028	0.000	19.5	2	1
03/25/06	12:17 p	-21.6	-21.6	-21.6	---	---	2.6	ENE	0.04	3.5	-25.8	---	---	723.8	0.028	0.000	19.5	2	1
03/25/06	12:18 p	-21.6	-21.6	-21.6	---	---	2.6	ENE	0.04	3.5	-25.8	---	---	723.9	0.028	0.000	19.5	2	1
03/25/06	12:19 p	-21.5	-21.5	-21.6	---	---	3.5	ENE	0.06	3.5	-26.9	---	---	723.9	0.028	0.000	19.5	2	1
03/25/06	12:20 p	-21.5	-21.5	-21.5	---	---	2.6	ENE	0.04	2.6	-25.8	---	---	723.9	0.028	0.000	19.5	2	1
03/25/06	12:21 p	-21.5	-21.5	-21.5	---	---	1.7	ENE	0.03	2.6	-24.2	---	---	723.8	0.028	0.000	19.5	2	1
03/25/06	12:22 p	-21.5	-21.5	-21.5	---	---	1.7	ENE	0.03	2.6	-24.2	---	---	723.9	0.028	0.000	19.5	2	1
03/25/06	12:23 p	-21.5	-21.4	-21.5	---	---	1.7	ENE	0.03	2.6	-24.2	---	---	723.9	0.028	0.000	19.5	2	1
03/25/06	12:24 p	-21.4	-21.4	-21.4	---	---	2.6	ENE	0.04	2.6	-25.7	---	---	723.9	0.028	0.000	19.5	2	1
03/25/06	12:25 p	-21.4	-21.4	-21.4	---	---	2.6	ENE	0.04	2.6	-25.7	---	---	723.8	0.028	0.000	19.5	2	1
03/25/06	12:26 p	-21.4	-21.4	-21.4	---	---	1.7	ENE	0.03	2.6	-24.1	---	---	723.8	0.028	0.000	19.5	2	1
03/25/06	12:27 p	-21.4	-21.4	-21.4	---	---	1.7	ENE	0.03	1.7	-24.1	---	---	723.8	0.028	0.000	19.5	2	1
03/25/06	12:28 p	-21.4	-21.4	-21.4	---	---	1.7	ENE	0.03	1.7	-24.0	---	---	723.8	0.028	0.000	19.5	2	1
03/25/06	12:29 p	-21.4	-21.4	-21.4	---	---	1.7	ENE	0.03	2.6	-24.0	---	---	723.7	0.028	0.000	19.5	2	1
03/25/06	12:30 p	-21.4	-21.4	-21.4	---	---	1.7	ENE	0.03	2.6	-24.0	---	---	723.7	0.028	0.000	19.5	2	1
03/25/06	12:31 p	-21.4	-21.3	-21.4	---	---	1.7	ENE	0.03	2.6	-24.0	---	---	723.8	0.028	0.000	19.5	2	1
03/25/06	12:32 p	-21.3	-21.3	-21.3	---	---	1.7	ENE	0.03	1.7	-23.9	---	---	723.9	0.028	0.000	19.5	2	1
03/25/06	12:33 p	-21.3	-21.3	-21.3	---	---	0.9	ENE	0.01	1.7	-21.4	---	---	723.8	0.028	0.000	19.5	2	1
03/25/06	12:34 p	-21.3	-21.3	-21.3	---	---	0.0	ENE	0.00	0.9	-21.3	---	---	723.8	0.028	0.000	19.5	2	1
03/25/06	12:35 p	-21.3	-21.3	-21.3	---	---	0.9	ENE	0.01	1.7	-21.4	---	---	723.9	0.028	0.000	19.5	2	1
03/25/06	12:36 p	-21.3	-21.3	-21.3	---	---	1.7	ENE	0.03	2.6	-23.9	---	---	723.8	0.028	0.000	19.5	2	1
03/25/06	12:37 p	-21.3	-21.2	-21.3	---	---	0.9	ENE	0.01	1.7	-21.4	---	---	723.9	0.028	0.000	19.5	2	1
03/25/06	12:38 p	-21.2	-21.2	-21.2	---	---	0.0	---	0.00	0.0	-21.2	---	---	723.8	0.027	0.000	19.5	2	1
03/25/06	12:39 p	-21.2	-21.2	-21.2	---	---	0.0	---	0.00	0.0	-21.2	---	---	723.8	0.027	0.000	19.5	2	1
03/25/06	12:40 p	-21.2	-21.2	-21.2	---	---	0.0	ENE	0.00	0.9	-21.1	---	---	723.8	0.027	0.000	19.5	2	1
03/25/06	12:41 p	-21.2	-21.2	-21.2	---	---	1.7	NW	0.03	3.5	-23.8	---	---	723.9	0.027	0.000	19.5	2	1
03/25/06	12:42 p	-21.2	-21.1	-21.2	---	---	2.6	NW	0.04	3.5	-25.4	---	---	723.8	0.027	0.000	19.5	2	1
03/25/06	12:43 p	-21.1	-21.1	-21.2	---	---	4.3	NW	0.07	7.0	-27.5	---	---	723.7	0.027	0.000	19.5	2	1
03/25/06	12:44 p	-21.1	-21.1	-21.1	---	---	3.5	NW	0.06	5.2	-26.4	---	---	723.8	0.027	0.000	19.6	2	1
03/25/06	12:45 p	-21.0	-21.0	-21.1	---	---	4.3	NW	0.07	7.0	-27.3	---	---	723.8	0.027	0.000	19.6	2	1
03/25/06	12:46 p	-20.9	-20.9	-21.0	---	---	4.3	NW	0.07	6.1	-27.3	---	---	723.7	0.027	0.000	19.6	2	1
03/25/06	12:47 p	-20.9	-20.9	-20.9	---	---	2.6	N	0.04	4.3	-25.1	---	---	723.9	0.027	0.000	19.6	2	1
03/25/06	12:48 p	-20.9	-20.9	-20.9	---	---	2.6	N	0.04	3.5	-25.1	---	---	723.9	0.027	0.000	19.6	2	1
03/25/06	12:49 p	-20.8	-20.8	-20.9	---	---	0.0	NNW	0.00	1.7	-20.8	---	---	723.8	0.027	0.000	19.6	2	1
03/25/06	12:50 p	-20.8	-20.8	-20.8	---	---	1.7	W	0.03	2.6	-23.3	---	---	723.9	0.027	0.000	19.6	2	1
03/25/06	12:51 p	-20.8	-20.7	-20.8	---	---	0.9	W	0.01	2.6	-20.9	---	---	723.8	0.027	0.000	19.6	2	1
03/25/06	12:52 p	-20.7	-20.7	-20.7	---	---	1.7	W	0.03	2.6	-23.3	---	---	723.8	0.027	0.000	19.6	2	1
03/25/06	12:53 p	-20.7	-20.7	-20.7	---	---	0.9	W	0.01	1.7	-20.8	---	---	723.8	0.027	0.000	19.6	2	1
03/25/06	12:54 p	-20.6	-20.6	-20.7	---	---	0.9	W	0.01	1.7	-20.7	---	---	723.8	0.027	0.000	19.6	2	1
03/25/06	12:55 p	-20.6	-20.6	-20.6	---	---	0.9	W	0.01	1.7	-20.7	---	---	723.8	0.027	0.000	19.6	2	1
03/25/06	12:56 p	-20.6	-20.6	-20.6	---	---	0.0	W	0.00	0.9	-20.5	---	---	723.7	0.027	0.000	19.6	2	1
03/25/06	12:57 p	-20.5	-20.5	-20.6	---	---	0.0	---	0.00	0.0	-20.4	---	---	723.8	0.027	0.000	19.6	2	1
03/25/06	12:58 p	-20.4	-20.4	-20.5	---	---	0.0	W	0.00	0.9	-20.4	---	---	723.8	0.027	0.000	19.6	2	1
03/25/06	12:59 p	-20.4	-20.4	-20.4	---	---	0.0	---	0.00	0.0	-20.3	---	---	723.7	0.027	0.000	19.6	2	1
03/25/06	1:00 p	-20.3	-20.3	-20.4	---	---	0.0	W	0.00	1.7	-20.3	---	---	723.8	0.027	0.000	19.6	2	1
03/25/06	1:01 p	-20.3	-20.3	-20.3	---	---	0.0	W	0.00	0.9	-20.2	---	---	723.8	0.027	0.000	19.6	2	1
03/25/06	1:02 p	-20.2	-20.2	-20.3	---	---	1.7	NW	0.03	2.6	-22.7	---	---	723.8	0.027	0.000	19.6	2	1
03/25/06	1:03 p	-20.2	-20.2	-20.2	---	---	1.7	NNW	0.03	3.5	-22.7	---	---	723.8	0.027	0.000	19.6	2	1
03/25/06	1:04 p	-20.1	-20.1	-20.2	---	---	0.9	NNW	0.01	1.7	-20.2	---	---	723.7	0.027	0.000	19.6	2	1
03/25/06	1:05 p	-20.1	-20.1	-20.1	---	---	0.0	NNW	0.00	0.9	-20.1	---	---	723.8	0.027	0.000	19.6	2	1
03/25/06	1:06 p	-20.0	-20.0	-20.1	---	---	0.9	NNW	0.01	2.6	-20.1	---	---	723.8	0.027	0.000	19.6	2	1
03/25/06	1:07 p	-20.0	-20.0	-20.0	---	---	0.0	NNW	0.00	1.7	-19.9	---	---	723.8	0.027	0.000	19.6	2	1
03/25/06	1:08 p	-19.9	-19.9	-19.9	---	---	0.0	---	0.00	0.9	-19.9	---	---	723.8	0.027	0.000	19.6	2	1
03/25/06	1:09 p	-19.9	-19.9	-19.9	---	---	0.0	NNW	0.00	0.9	-19.8	---	---	723.7	0.027	0.000	19.6	2	1
03/25/06	1:10 p	-19.8	-19.8	-19.9	---	---	0.0	NNW	0.00	0.9	-19.8	---	---	723.8	0.027	0.000	19.6	2	1
03/25/06	1:11 p	-19.8	-19.8	-19.8	---	---	0.0	---	0.00	0.0	-19.8	---	---	723.8	0.027	0.000	19.6	2	1
03/25/06	1:12 p	-19.8	-19.7	-19.8	---	---	0.0	NNW	0.00	0.9	-19.7	---	---	723.8	0.026	0.000	19.6	2	1
03/25/06	1:13 p	-19.7	-19.7	-19.7	---	---	0.0	NNW	0.00	0.9	-19.7	---	---	723.7	0.026	0.000	19.6	2	1
03/25/06	1:14 p	-19.7	-19.7	-19.7	---	---	0.0	---	0.00	0.0	-19.6	---	---	723.7	0.026	0.000	19.6	2	1
03/25/06	1:15 p	-19.7	-19.6	-19.7	---	---	0.0	---	0.00	0.0	-19.6	---	---	723.7	0.026	0.000	19.6	2	1
03/25/06	1:16 p	-19.7	-19.6	-19.7	---	---	0.9	NNW	0.01	1.7	-19.7	---	---	723.7	0.026	0.000	19.6	2	1
03/25/06	1:17 p	-19.6	-19.6	-19.6	---	---	0.9	NNW	0.01	1.7	-19.7	---	---	723.7	0.026	0.000	19.6	2	1
03/25/06	1:18 p	-19.6	-19.6	-19.6	---	---	0.9	NNW	0.01	1.7	-19.6	---	---	723.6	0.026	0.000	19.6	2	1
03/25/06	1:19 p	-19.6	-19.6	-19.6	---	---	1.7	NE	0.03	2.6	-22.0	---	---	723.7	0.026	0.000	19.6	2	1
03/25/06	1:20 p	-19.6	-19.6	-19.6	---	---	1.7	NE	0.03	2.6	-22.0	---	---	723.6	0.026	0.000	19.6	2	1
03/25/06	1:21 p	-19.5	-19.5	-19.6	---	---	1.7	NE	0.03	2.6	-21.9	---	---	723.8	0.026	0.000	19.7	2	1
03/25/06	1:22 p	-19.5	-19.5	-19.5	---	---	0.0	NE	0.00	0.9	-19.4	---	---	723.7	0.026	0.000	19.7	2	1
03/25/06	1:23 p	-19.5	-19.5	-19.5	---	---	0.0	---	0.00	0.0	-19.4	---	---	723.6	0.026	0.000	19.7	2	1
03/25/06	1:24 p	-19.4	-19.4	-19.5	---	---	0.0	NE	0.00	0.9	-19.4	---	---	723.6	0.026	0.000	19.7	2	1
03/25/06	1:25 p	-19.4	-19.4	-19.4	---	---	0.0	NE	0.00	0.9	-19.4	---	---	723.6	0.026	0.000	19.7	2	1
03/25/06	1:26 p	-19.4	-19.4	-19.4	---	---	0.0	NE	0.00	0.9	-19.3	---	---	723.7	0.026	0.000	19.7	2	1
03/25/06	1:27 p	-19.4	-19.3	-19.4	---	---	1.7	WNW	0.03	4.3	-21.8	---	---	723.6	0.026	0.000	19.7	2	1
03/25/06	1:28 p	-19.3	-19.3	-19.4	---	---	2.6	WNW	0.04	3.5	-23.3	---	---	723.6	0.026	0.000	19.7	2	1
03/25/06	1:29 p	-19.3	-19.3	-19.3	---	---	2.6	WNW	0.04	3.5	-23.3	---	---	723.6	0.026	0.000	19.7	2	1
03/25/06	1:30 p	-19.3	-19.3	-19.3	---	---	2.6	NW	0.04	4.3	-23.2	---	---	723.6	0.026	0.000	19.7	2	1
03/25/06	1:31 p	-19.3	-19.2	-19.3	---	---	1.7	NW	0.03	2.6	-21.7	---	---	723.6	0.026	0.000	19.7	2	1
03/25/06	1:32 p	-19.2	-19.2	-19.2	---	---	1.7	NW	0.03	1.7	-21.7	---	---	723.5	0.026	0.000	19.7	2	1
03/25/06	1:33 p	-19.2	-19.2	-19.2	---	---	1.7	NW	0.03	2.6	-21.7	---	---	723.6	0.026	0.000	19.7	2	1
03/25/06	1:34 p	-19.2	-19.2	-19.2	---	---	2.6	NW	0.04	4.3	-23.1	---	---	723.5	0.026	0.000	19.7	2	1
03/25/06	1:35 p	-19.2	-19.2	-19.2	---	---	2.6	WNW	0.04	3.5	-23.1	---	---	723.5	0.026	0.000	19.7	2	1
03/25/06	1:36 p	-19.1	-19.1	-19.2	---	---	3.5	WNW	0.06	4.3	-24.2	---	---	723.6	0.026	0.000	19.7	2	1
03/25/06	1:37 p	-19.1	-19.1	-19.1	---	---	2.6	NW	0.04	4.3	-23.1	---	---	723.6	0.026	0.000	19.7	2	1
03/25/06	1:38 p	-19.1	-19.1	-19.1	---	---	4.3	NW	0.07	5.2	-25.1	---	---	723.5	0.026	0.000	19.7	2	1
03/25/06	1:39 p	-19.1	-19.0	-19.1	---	---	2.6	NW	0.04	3.5	-23.0	---	---	723.6	0.026	0.000	19.7	2	1
03/25/06	1:40 p	-19.0	-19.0	-19.1	---	---	2.6	NW	0.04	3.5	-22.9	---	---	723.5	0.026	0.000	19.7	2	1
03/25/06	1:41 p	-19.0	-18.9	-19.0	---	---	2.6	NW	0.04	3.5	-22.9	---	---	723.6	0.026	0.000	19.7	2	1
03/25/06	1:42 p	-18.9	-18.9	-18.9	---	---	3.5	NW	0.06	4.3	-24.0	---	---	723.5	0.026	0.000	19.7	2	1
03/25/06	1:43 p	-18.9	-18.9	-18.9	---	---	3.5	WNW	0.06	5.2	-24.0	---	---	723.6	0.026	0.000	19.7	2	1
03/25/06	1:44 p	-18.9	-18.9	-18.9	---	---	2.6	WNW	0.04	4.3	-22.8	---	---	723.5	0.026	0.000	19.7	2	1
03/25/06	1:45 p	-18.9	-18.9	-18.9	---	---	3.5	NW	0.06	4.3	-23.9	---	---	723.6	0.026	0.000	19.7	2	1
03/25/06	1:46 p	-18.8	-18.8	-18.8	---	---	3.5	NW	0.06	4.3	-23.9	---	---	723.6	0.026	0.000	19.7	2	1
03/25/06	1:47 p	-18.8	-18.8	-18.8	---	---	2.6	NW	0.04	3.5	-22.7	---	---	723.5	0.026	0.000	19.7	2	1
03/25/06	1:48 p	-18.8	-18.8	-18.8	---	---	1.7	NW	0.03	3.5	-21.2	---	---	723.5	0.026	0.000	19.7	2	1
03/25/06	1:49 p	-18.8	-18.7	-18.8	---	---	1.7	WNW	0.03	2.6	-21.2	---	---	723.5	0.026	0.000	19.7	2	1
03/25/06	1:50 p	-18.7	-18.7	-18.7	---	---	1.7	WNW	0.03	4.3	-21.1	---	---	723.6	0.026	0.000	19.7	2	1
03/25/06	1:51 p	-18.7	-18.7	-18.7	---	---	3.5	NW	0.06	4.3	-23.8	---	---	723.6	0.026	0.000	19.7	2	1
03/25/06	1:52 p	-18.7	-18.6	-18.7	---	---	2.6	NW	0.04	3.5	-22.6	---	---	723.6	0.026	0.000	19.7	2	1
03/25/06	1:53 p	-18.6	-18.6	-18.6	---	---	1.7	NNW	0.03	2.6	-21.0	---	---	723.6	0.026	0.000	19.7	2	1
03/25/06	1:54 p	-18.6	-18.6	-18.6	---	---	2.6	NW	0.04	3.5	-22.5	---	---	723.6	0.026	0.000	19.7	2	1
03/25/06	1:55 p	-18.6	-18.6	-18.6	---	---	1.7	NW	0.03	2.6	-20.9	---	---	723.5	0.026	0.000	19.7	2	1
03/25/06	1:56 p	-18.6	-18.5	-18.6	---	---	2.6	NW	0.04	3.5	-22.4	---	---	723.5	0.026	0.000	19.7	2	1
03/25/06	1:57 p	-18.5	-18.5	-18.6	---	---	2.6	NW	0.04	2.6	-22.4	---	---	723.6	0.026	0.000	19.6	2	1
03/25/06	1:58 p	-18.5	-18.4	-18.5	---	---	2.6	NW	0.04	3.5	-22.4	---	---	723.5	0.026	0.000	19.6	2	1
03/25/06	1:59 p	-18.5	-18.4	-18.5	---	---	1.7	NW	0.03	2.6	-20.8	---	---	723.5	0.026	0.000	19.6	2	1
03/25/06	2:00 p	-18.4	-18.4	-18.4	---	---	2.6	NW	0.04	3.5	-22.3	---	---	723.6	0.026	0.000	19.6	2	1
03/25/06	2:01 p	-18.4	-18.4	-18.4	---	---	1.7	NW	0.03	2.6	-20.8	---	---	723.5	0.026	0.000	19.6	2	1
03/25/06	2:02 p	-18.4	-18.4	-18.4	---	---	1.7	NW	0.03	2.6	-20.7	---	---	723.6	0.026	0.000	19.6	2	1
03/25/06	2:03 p	-18.4	-18.3	-18.4	---	---	1.7	NW	0.03	2.6	-20.7	---	---	723.6	0.026	0.000	19.6	2	1
03/25/06	2:04 p	-18.3	-18.3	-18.3	---	---	1.7	NW	0.03	2.6	-20.7	---	---	723.6	0.025	0.000	19.6	2	1
03/25/06	2:05 p	-18.3	-18.3	-18.3	---	---	0.9	NW	0.01	1.7	-18.3	---	---	723.6	0.025	0.000	19.6	2	1
03/25/06	2:06 p	-18.3	-18.3	-18.3	---	---	0.9	NW	0.01	1.7	-18.3	---	---	723.5	0.025	0.000	19.6	2	1
03/25/06	2:07 p	-18.3	-18.2	-18.3	---	---	0.0	NW	0.00	0.9	-18.2	---	---	723.5	0.025	0.000	19.6	2	1
03/25/06	2:08 p	-18.3	-18.2	-18.3	---	---	1.7	NW	0.03	2.6	-20.6	---	---	723.6	0.025	0.000	19.6	2	1
03/25/06	2:09 p	-18.2	-18.2	-18.2	---	---	0.0	NW	0.00	0.9	-18.2	---	---	723.6	0.025	0.000	19.6	2	1
03/25/06	2:10 p	-18.2	-18.2	-18.2	---	---	0.0	NW	0.00	0.9	-18.2	---	---	723.6	0.025	0.000	19.6	2	1
03/25/06	2:11 p	-18.2	-18.2	-18.2	---	---	0.9	NW	0.01	1.7	-18.1	---	---	723.6	0.025	0.000	19.6	2	1
03/25/06	2:12 p	-18.2	-18.2	-18.2	---	---	2.6	NNW	0.04	3.5	-22.0	---	---	723.5	0.025	0.000	19.6	2	1
03/25/06	2:13 p	-18.2	-18.1	-18.2	---	---	1.7	N	0.03	2.6	-20.5	---	---	723.4	0.025	0.000	19.6	2	1
03/25/06	2:14 p	-18.2	-18.1	-18.2	---	---	1.7	N	0.03	3.5	-20.5	---	---	723.5	0.025	0.000	19.6	2	1
03/25/06	2:15 p	-18.1	-18.1	-18.1	---	---	1.7	N	0.03	1.7	-20.4	---	---	723.5	0.025	0.000	19.6	2	1
03/25/06	2:16 p	-18.1	-18.1	-18.1	---	---	1.7	N	0.03	2.6	-20.4	---	---	723.4	0.025	0.000	19.6	2	1
03/25/06	2:17 p	-18.1	-18.1	-18.1	---	---	1.7	N	0.03	2.6	-20.4	---	---	723.5	0.025	0.000	19.7	2	1
03/25/06	2:18 p	-18.0	-18.0	-18.1	---	---	1.7	N	0.03	2.6	-20.3	---	---	723.5	0.025	0.000	19.7	2	1
03/25/06	2:19 p	-18.0	-18.0	-18.0	---	---	1.7	N	0.03	2.6	-20.3	---	---	723.5	0.025	0.000	19.7	2	1
03/25/06	2:20 p	-18.0	-18.0	-18.0	---	---	1.7	N	0.03	2.6	-20.3	---	---	723.5	0.025	0.000	19.7	2	1
03/25/06	2:21 p	-18.0	-18.0	-18.0	---	---	1.7	N	0.03	2.6	-20.3	---	---	723.4	0.025	0.000	19.7	2	1
03/25/06	2:22 p	-17.9	-17.9	-18.0	---	---	1.7	N	0.03	2.6	-20.2	---	---	723.5	0.025	0.000	19.7	2	1
03/25/06	2:23 p	-17.9	-17.9	-17.9	---	---	1.7	N	0.03	1.7	-20.2	---	---	723.4	0.025	0.000	19.7	2	1
03/25/06	2:24 p	-17.9	-17.9	-17.9	---	---	0.9	N	0.01	1.7	-17.9	---	---	723.4	0.025	0.000	19.7	2	1
03/25/06	2:25 p	-17.9	-17.9	-17.9	---	---	0.9	N	0.01	1.7	-17.9	---	---	723.5	0.025	0.000	19.7	2	1
03/25/06	2:26 p	-17.9	-17.9	-17.9	---	---	1.7	N	0.03	2.6	-20.2	---	---	723.4	0.025	0.000	19.7	2	1
03/25/06	2:27 p	-17.9	-17.9	-17.9	---	---	1.7	N	0.03	2.6	-20.2	---	---	723.5	0.025	0.000	19.7	2	1
03/25/06	2:28 p	-17.9	-17.9	-17.9	---	---	1.7	N	0.03	1.7	-20.2	---	---	723.4	0.025	0.000	19.7	2	1
03/25/06	2:29 p	-17.9	-17.8	-17.9	---	---	0.9	N	0.01	1.7	-17.8	---	---	723.5	0.025	0.000	19.7	2	1
03/25/06	2:30 p	-17.9	-17.8	-17.9	---	---	0.0	N	0.00	0.9	-17.8	---	---	723.4	0.025	0.000	19.7	2	1
03/25/06	2:31 p	-17.9	-17.8	-17.9	---	---	1.7	N	0.03	3.5	-20.2	---	---	723.4	0.025	0.000	19.7	2	1
03/25/06	2:32 p	-17.8	-17.8	-17.8	---	---	2.6	N	0.04	3.5	-21.6	---	---	723.3	0.025	0.000	19.7	2	1
03/25/06	2:33 p	-17.8	-17.8	-17.8	---	---	0.9	N	0.01	1.7	-17.8	---	---	723.4	0.025	0.000	19.7	2	1
03/25/06	2:34 p	-17.8	-17.8	-17.8	---	---	0.9	N	0.01	0.9	-17.8	---	---	723.4	0.025	0.000	19.7	2	1
03/25/06	2:35 p	-17.8	-17.8	-17.8	---	---	0.9	N	0.01	1.7	-17.8	---	---	723.5	0.025	0.000	19.7	2	1
03/25/06	2:36 p	-17.8	-17.8	-17.8	---	---	1.7	N	0.03	2.6	-20.1	---	---	723.5	0.025	0.000	19.7	2	1
03/25/06	2:37 p	-17.8	-17.8	-17.8	---	---	1.7	N	0.03	3.5	-20.1	---	---	723.5	0.025	0.000	19.7	2	1
03/25/06	2:38 p	-17.8	-17.8	-17.8	---	---	0.9	N	0.01	1.7	-17.8	---	---	723.5	0.025	0.000	19.7	2	1
03/25/06	2:39 p	-17.8	-17.8	-17.8	---	---	0.9	N	0.01	1.7	-17.8	---	---	723.5	0.025	0.000	19.7	2	1
03/25/06	2:40 p	-17.8	-17.8	-17.8	---	---	0.0	N	0.00	1.7	-17.8	---	---	723.5	0.025	0.000	19.7	2	1
03/25/06	2:41 p	-17.8	-17.7	-17.8	---	---	0.9	N	0.01	1.7	-17.8	---	---	723.4	0.025	0.000	19.7	2	1
03/25/06	2:42 p	-17.7	-17.7	-17.8	---	---	0.9	N	0.01	0.9	-17.7	---	---	723.4	0.025	0.000	19.7	2	1
03/25/06	2:43 p	-17.8	-17.7	-17.8	---	---	0.9	N	0.01	1.7	-17.8	---	---	723.4	0.025	0.000	19.7	2	1
03/25/06	2:44 p	-17.7	-17.7	-17.7	---	---	1.7	N	0.03	3.5	-20.0	---	---	723.5	0.025	0.000	19.7	2	1
03/25/06	2:45 p	-17.7	-17.7	-17.7	---	---	1.7	NNW	0.03	3.5	-20.0	---	---	723.4	0.025	0.000	19.7	2	1
03/25/06	2:46 p	-17.7	-17.7	-17.7	---	---	1.7	NNW	0.03	2.6	-20.0	---	---	723.4	0.025	0.000	19.7	2	1
03/25/06	2:47 p	-17.7	-17.7	-17.7	---	---	2.6	NNW	0.04	3.5	-21.5	---	---	723.5	0.025	0.000	19.7	2	1
03/25/06	2:48 p	-17.7	-17.7	-17.7	---	---	2.6	NNW	0.04	4.3	-21.4	---	---	723.4	0.025	0.000	19.7	2	1
03/25/06	2:49 p	-17.7	-17.7	-17.7	---	---	2.6	NNW	0.04	3.5	-21.5	---	---	723.5	0.025	0.000	19.7	2	1
03/25/06	2:50 p	-17.7	-17.7	-17.7	---	---	1.7	NNW	0.03	3.5	-20.0	---	---	723.5	0.025	0.000	19.7	2	1
03/25/06	2:51 p	-17.7	-17.7	-17.7	---	---	2.6	NNW	0.04	3.5	-21.4	---	---	723.4	0.025	0.000	19.7	2	1
03/25/06	2:52 p	-17.7	-17.7	-17.7	---	---	2.6	NNW	0.04	3.5	-21.4	---	---	723.5	0.025	0.000	19.7	2	1
03/25/06	2:53 p	-17.7	-17.7	-17.7	---	---	2.6	NNW	0.04	3.5	-21.4	---	---	723.4	0.025	0.000	19.6	2	1
03/25/06	2:54 p	-17.7	-17.7	-17.7	---	---	1.7	NNW	0.03	2.6	-19.9	---	---	723.6	0.025	0.000	19.6	2	1
03/25/06	2:55 p	-17.7	-17.7	-17.7	---	---	2.6	NNW	0.04	3.5	-21.4	---	---	723.5	0.025	0.000	19.7	2	1
03/25/06	2:56 p	-17.7	-17.7	-17.7	---	---	1.7	NNW	0.03	2.6	-19.9	---	---	723.5	0.025	0.000	19.7	2	1
03/25/06	2:57 p	-17.7	-17.7	-17.7	---	---	0.9	NNW	0.01	1.7	-17.7	---	---	723.5	0.025	0.000	19.7	2	1
03/25/06	2:58 p	-17.7	-17.7	-17.7	---	---	1.7	NNW	0.03	2.6	-19.9	---	---	723.5	0.025	0.000	19.6	2	1
03/25/06	2:59 p	-17.7	-17.7	-17.7	---	---	0.9	NNW	0.01	2.6	-17.7	---	---	723.5	0.025	0.000	19.6	2	1
03/25/06	3:00 p	-17.7	-17.7	-17.7	---	---	0.9	NNW	0.01	0.9	-17.7	---	---	723.5	0.025	0.000	19.7	2	1
03/25/06	3:01 p	-17.7	-17.7	-17.7	---	---	0.0	NNW	0.00	0.9	-17.7	---	---	723.5	0.025	0.000	19.7	2	1
03/25/06	3:02 p	-17.7	-17.7	-17.7	---	---	0.0	NNW	0.00	0.9	-17.7	---	---	723.5	0.025	0.000	19.7	2	1
03/25/06	3:03 p	-17.7	-17.6	-17.7	---	---	0.0	NNW	0.00	0.9	-17.7	---	---	723.5	0.025	0.000	19.7	2	1
03/25/06	3:04 p	-17.6	-17.6	-17.7	---	---	0.9	NNW	0.01	0.9	-17.6	---	---	723.5	0.025	0.000	19.7	2	1
03/25/06	3:05 p	-17.7	-17.6	-17.7	---	---	0.9	NNW	0.01	1.7	-17.7	---	---	723.5	0.025	0.000	19.7	2	1
03/25/06	3:06 p	-17.6	-17.6	-17.6	---	---	0.9	NNW	0.01	1.7	-17.6	---	---	723.5	0.025	0.000	19.7	2	1
03/25/06	3:07 p	-17.7	-17.6	-17.7	---	---	0.9	NNW	0.01	1.7	-17.7	---	---	723.5	0.025	0.000	19.7	2	1
03/25/06	3:08 p	-17.6	-17.6	-17.6	---	---	0.0	---	0.00	0.0	-17.6	---	---	723.5	0.025	0.000	19.7	2	1
03/25/06	3:09 p	-17.6	-17.6	-17.6	---	---	0.0	---	0.00	0.0	-17.6	---	---	723.6	0.025	0.000	19.7	2	1
03/25/06	3:10 p	-17.6	-17.6	-17.6	---	---	0.0	---	0.00	0.0	-17.6	---	---	723.5	0.025	0.000	19.7	2	1
03/25/06	3:11 p	-17.6	-17.6	-17.6	---	---	0.9	NNW	0.01	1.7	-17.6	---	---	723.5	0.025	0.000	19.7	2	1
03/25/06	3:12 p	-17.6	-17.6	-17.7	---	---	0.0	NNW	0.00	0.9	-17.6	---	---	723.5	0.025	0.000	19.7	2	1
03/25/06	3:13 p	-17.6	-17.6	-17.6	---	---	0.0	---	0.00	0.0	-17.6	---	---	723.4	0.025	0.000	19.7	2	1
03/25/06	3:14 p	-17.6	-17.6	-17.7	---	---	0.9	NNW	0.01	1.7	-17.6	---	---	723.4	0.025	0.000	19.7	2	1
03/25/06	3:15 p	-17.6	-17.6	-17.6	---	---	1.7	NNW	0.03	2.6	-19.9	---	---	723.4	0.025	0.000	19.7	2	1
03/25/06	3:16 p	-17.7	-17.6	-17.7	---	---	1.7	NNW	0.03	2.6	-19.9	---	---	723.4	0.025	0.000	19.8	2	1
03/25/06	3:17 p	-17.6	-17.6	-17.6	---	---	1.7	NNW	0.03	2.6	-19.9	---	---	723.4	0.025	0.000	19.8	2	1
03/25/06	3:18 p	-17.7	-17.7	-17.7	---	---	1.7	NNW	0.03	1.7	-19.9	---	---	723.4	0.025	0.000	19.8	2	1
03/25/06	3:19 p	-17.7	-17.7	-17.7	---	---	0.9	NNW	0.01	1.7	-17.7	---	---	723.4	0.025	0.000	19.8	2	1
03/25/06	3:20 p	-17.6	-17.6	-17.6	---	---	0.9	NNW	0.01	1.7	-17.6	---	---	723.4	0.025	0.000	19.8	2	1
03/25/06	3:21 p	-17.6	-17.6	-17.6	---	---	0.9	NNW	0.01	1.7	-17.6	---	---	723.5	0.025	0.000	19.8	2	1
03/25/06	3:22 p	-17.6	-17.6	-17.6	---	---	1.7	NNW	0.03	2.6	-19.9	---	---	723.4	0.025	0.000	19.8	2	1
03/25/06	3:23 p	-17.7	-17.6	-17.7	---	---	2.6	NNW	0.04	4.3	-21.4	---	---	723.5	0.025	0.000	19.7	2	1
03/25/06	3:24 p	-17.6	-17.6	-17.7	---	---	4.3	NNW	0.07	5.2	-23.4	---	---	723.4	0.025	0.000	19.7	2	1
03/25/06	3:25 p	-17.6	-17.6	-17.7	---	---	2.6	NNW	0.04	5.2	-21.3	---	---	723.4	0.025	0.000	19.7	2	1
03/25/06	3:26 p	-17.7	-17.6	-17.7	---	---	1.7	NNW	0.03	2.6	-19.9	---	---	723.3	0.025	0.000	19.7	2	1
03/25/06	3:27 p	-17.6	-17.6	-17.7	---	---	1.7	N	0.03	2.6	-19.9	---	---	723.4	0.025	0.000	19.7	2	1
03/25/06	3:28 p	-17.6	-17.6	-17.6	---	---	2.6	N	0.04	3.5	-21.3	---	---	723.4	0.025	0.000	19.7	2	1
03/25/06	3:29 p	-17.6	-17.6	-17.6	---	---	1.7	NNW	0.03	2.6	-19.9	---	---	723.4	0.025	0.000	19.7	2	1
03/25/06	3:30 p	-17.6	-17.6	-17.7	---	---	1.7	NNW	0.03	2.6	-19.9	---	---	723.4	0.025	0.000	19.7	2	1
03/25/06	3:31 p	-17.6	-17.6	-17.7	---	---	0.9	NNW	0.01	1.7	-17.6	---	---	723.4	0.025	0.000	19.7	2	1
03/25/06	3:32 p	-17.6	-17.6	-17.7	---	---	0.0	---	0.00	0.0	-17.6	---	---	723.5	0.025	0.000	19.7	2	1
03/25/06	3:33 p	-17.6	-17.6	-17.7	---	---	0.0	NNW	0.00	0.9	-17.6	---	---	723.5	0.025	0.000	19.7	2	1
03/25/06	3:34 p	-17.7	-17.7	-17.7	---	---	0.0	---	0.00	0.0	-17.7	---	---	723.4	0.025	0.000	19.7	2	1
03/25/06	3:35 p	-17.7	-17.7	-17.7	---	---	0.0	NNW	0.00	0.9	-17.7	---	---	723.5	0.025	0.000	19.7	2	1
03/25/06	3:36 p	-17.7	-17.7	-17.7	---	---	0.0	---	0.00	0.0	-17.7	---	---	723.4	0.025	0.000	19.7	2	1
03/25/06	3:37 p	-17.7	-17.7	-17.7	---	---	0.0	---	0.00	0.0	-17.7	---	---	723.5	0.025	0.000	19.7	2	1
03/25/06	3:38 p	-17.7	-17.7	-17.7	---	---	0.0	---	0.00	0.0	-17.7	---	---	723.5	0.025	0.000	19.7	2	1
03/25/06	3:39 p	-17.7	-17.7	-17.7	---	---	0.0	---	0.00	0.0	-17.7	---	---	723.5	0.025	0.000	19.7	2	1
03/25/06	3:40 p	-17.7	-17.7	-17.7	---	---	2.6	NNW	0.04	4.3	-21.4	---	---	723.5	0.025	0.000	19.7	2	1
03/25/06	3:41 p	-17.7	-17.7	-17.7	---	---	2.6	ENE	0.04	4.3	-21.5	---	---	723.5	0.025	0.000	19.7	2	1
03/25/06	3:42 p	-17.7	-17.7	-17.7	---	---	3.5	NE	0.06	5.2	-22.6	---	---	723.5	0.025	0.000	19.7	2	1
03/25/06	3:43 p	-17.7	-17.7	-17.7	---	---	0.9	NE	0.01	1.7	-17.7	---	---	723.5	0.025	0.000	19.7	2	1
03/25/06	3:44 p	-17.7	-17.7	-17.7	---	---	3.5	NE	0.06	4.3	-22.6	---	---	723.5	0.025	0.000	19.7	2	1
03/25/06	3:45 p	-17.7	-17.7	-17.8	---	---	5.2	NE	0.09	6.1	-24.3	---	---	723.5	0.025	0.000	19.7	2	1
03/25/06	3:46 p	-17.8	-17.8	-17.8	---	---	5.2	NE	0.09	6.1	-24.3	---	---	723.5	0.025	0.000	19.7	2	1
03/25/06	3:47 p	-17.8	-17.8	-17.8	---	---	5.2	NE	0.09	7.0	-24.3	---	---	723.5	0.025	0.000	19.7	2	1
03/25/06	3:48 p	-17.8	-17.8	-17.8	---	---	2.6	NE	0.04	4.3	-21.6	---	---	723.5	0.025	0.000	19.7	2	1
03/25/06	3:49 p	-17.8	-17.8	-17.8	---	---	2.6	NE	0.04	4.3	-21.6	---	---	723.5	0.025	0.000	19.7	2	1
03/25/06	3:50 p	-17.9	-17.8	-17.9	---	---	2.6	NE	0.04	3.5	-21.7	---	---	723.6	0.025	0.000	19.7	2	1
03/25/06	3:51 p	-17.9	-17.9	-17.9	---	---	2.6	NE	0.04	5.2	-21.7	---	---	723.6	0.025	0.000	19.7	2	1
03/25/06	3:52 p	-17.9	-17.9	-17.9	---	---	3.5	NE	0.06	5.2	-22.8	---	---	723.5	0.025	0.000	19.8	2	1
03/25/06	3:53 p	-17.9	-17.9	-17.9	---	---	2.6	NNE	0.04	3.5	-21.7	---	---	723.5	0.025	0.000	19.8	2	1
03/25/06	3:54 p	-17.9	-17.9	-18.0	---	---	1.7	NNE	0.03	3.5	-20.2	---	---	723.5	0.025	0.000	19.8	2	1
03/25/06	3:55 p	-18.0	-18.0	-18.0	---	---	0.9	NNE	0.01	1.7	-17.9	---	---	723.5	0.025	0.000	19.8	2	1
03/25/06	3:56 p	-18.0	-18.0	-18.0	---	---	2.6	NE	0.04	5.2	-21.8	---	---	723.5	0.025	0.000	19.8	2	1
03/25/06	3:57 p	-18.0	-18.0	-18.1	---	---	4.3	NE	0.07	5.2	-23.8	---	---	723.5	0.025	0.000	19.8	2	1
03/25/06	3:58 p	-18.1	-18.1	-18.1	---	---	5.2	NE	0.09	7.0	-24.7	---	---	723.4	0.025	0.000	19.8	2	1
03/25/06	3:59 p	-18.1	-18.1	-18.1	---	---	5.2	NE	0.09	7.0	-24.7	---	---	723.5	0.025	0.000	19.8	2	1
03/25/06	4:00 p	-18.1	-18.1	-18.2	---	---	5.2	NE	0.09	7.0	-24.7	---	---	723.4	0.025	0.000	19.8	2	1
03/25/06	4:01 p	-18.1	-18.1	-18.2	---	---	2.6	E	0.04	4.3	-21.9	---	---	723.4	0.025	0.000	19.8	2	1
03/25/06	4:02 p	-18.2	-18.2	-18.2	---	---	3.5	ENE	0.06	4.3	-23.1	---	---	723.4	0.025	0.000	19.8	2	1
03/25/06	4:03 p	-18.2	-18.2	-18.2	---	---	2.6	ENE	0.04	3.5	-22.1	---	---	723.4	0.025	0.000	19.8	2	1
03/25/06	4:04 p	-18.2	-18.2	-18.2	---	---	3.5	NNE	0.06	5.2	-23.2	---	---	723.5	0.025	0.000	19.8	2	1
03/25/06	4:05 p	-18.2	-18.2	-18.2	---	---	7.0	NE	0.12	7.8	-26.1	---	---	723.4	0.025	0.000	19.8	2	1
03/25/06	4:06 p	-18.3	-18.3	-18.3	---	---	7.0	NE	0.12	7.0	-26.2	---	---	723.5	0.025	0.000	19.8	2	1
03/25/06	4:07 p	-18.3	-18.3	-18.3	---	---	5.2	NE	0.09	6.1	-24.9	---	---	723.5	0.025	0.000	19.8	2	1
03/25/06	4:08 p	-18.3	-18.3	-18.3	---	---	5.2	NE	0.09	6.1	-25.0	---	---	723.5	0.025	0.000	19.8	2	1
03/25/06	4:09 p	-18.3	-18.3	-18.4	---	---	5.2	NE	0.09	6.1	-25.0	---	---	723.5	0.025	0.000	19.8	2	1
03/25/06	4:10 p	-18.4	-18.4	-18.4	---	---	5.2	NE	0.09	7.0	-25.1	---	---	723.5	0.026	0.000	19.8	2	1
03/25/06	4:11 p	-18.4	-18.4	-18.4	---	---	5.2	NE	0.09	7.0	-25.1	---	---	723.5	0.026	0.000	19.8	2	1
03/25/06	4:12 p	-18.4	-18.4	-18.4	---	---	5.2	ENE	0.09	6.1	-25.1	---	---	723.5	0.026	0.000	19.8	2	1
03/25/06	4:13 p	-18.5	-18.5	-18.5	---	---	5.2	NE	0.09	7.8	-25.2	---	---	723.4	0.026	0.000	19.8	2	1
03/25/06	4:14 p	-18.5	-18.5	-18.5	---	---	5.2	NE	0.09	7.0	-25.2	---	---	723.5	0.026	0.000	19.8	2	1
03/25/06	4:15 p	-18.5	-18.5	-18.6	---	---	4.3	NE	0.07	5.2	-24.4	---	---	723.4	0.026	0.000	19.8	2	1
03/25/06	4:16 p	-18.6	-18.6	-18.6	---	---	4.3	NE	0.07	5.2	-24.5	---	---	723.4	0.026	0.000	19.8	2	1
03/25/06	4:17 p	-18.6	-18.6	-18.6	---	---	3.5	NE	0.06	4.3	-23.6	---	---	723.5	0.026	0.000	19.8	2	1
03/25/06	4:18 p	-18.6	-18.6	-18.6	---	---	4.3	NE	0.07	6.1	-24.6	---	---	723.4	0.026	0.000	19.8	2	1
03/25/06	4:19 p	-18.6	-18.6	-18.6	---	---	4.3	NE	0.07	6.1	-24.6	---	---	723.5	0.026	0.000	19.8	2	1
03/25/06	4:20 p	-18.7	-18.6	-18.7	---	---	5.2	NE	0.09	6.1	-25.4	---	---	723.4	0.026	0.000	19.8	2	1
03/25/06	4:21 p	-18.7	-18.7	-18.7	---	---	4.3	NE	0.07	6.1	-24.7	---	---	723.5	0.026	0.000	19.8	2	1
03/25/06	4:22 p	-18.7	-18.7	-18.7	---	---	2.6	NNE	0.04	4.3	-22.6	---	---	723.6	0.026	0.000	19.8	2	1
03/25/06	4:23 p	-18.7	-18.7	-18.7	---	---	5.2	NE	0.09	6.1	-25.4	---	---	723.6	0.026	0.000	19.8	2	1
03/25/06	4:24 p	-18.8	-18.8	-18.8	---	---	5.2	NE	0.09	6.1	-25.5	---	---	723.5	0.026	0.000	19.8	2	1
03/25/06	4:25 p	-18.8	-18.8	-18.8	---	---	6.1	NE	0.10	7.0	-26.2	---	---	723.5	0.026	0.000	19.8	2	1
03/25/06	4:26 p	-18.8	-18.8	-18.8	---	---	6.1	NE	0.10	7.0	-26.2	---	---	723.5	0.026	0.000	19.8	2	1
03/25/06	4:27 p	-18.8	-18.8	-18.8	---	---	6.1	NE	0.10	7.0	-26.3	---	---	723.4	0.026	0.000	19.8	2	1
03/25/06	4:28 p	-18.8	-18.8	-18.9	---	---	5.2	NE	0.09	6.1	-25.6	---	---	723.5	0.026	0.000	19.8	2	1
03/25/06	4:29 p	-18.9	-18.9	-18.9	---	---	5.2	NE	0.09	5.2	-25.7	---	---	723.5	0.026	0.000	19.8	2	1
03/25/06	4:30 p	-18.9	-18.9	-18.9	---	---	7.0	ENE	0.12	7.8	-27.0	---	---	723.4	0.026	0.000	19.8	2	1
03/25/06	4:31 p	-18.9	-18.9	-18.9	---	---	7.0	ENE	0.12	7.8	-27.0	---	---	723.5	0.026	0.000	19.8	2	1
03/25/06	4:32 p	-18.9	-18.9	-19.0	---	---	7.8	NE	0.13	8.7	-27.6	---	---	723.5	0.026	0.000	19.8	2	1
03/25/06	4:33 p	-19.0	-19.0	-19.0	---	---	6.1	NE	0.10	7.0	-26.4	---	---	723.6	0.026	0.000	19.8	2	1
03/25/06	4:34 p	-19.0	-19.0	-19.0	---	---	5.2	NE	0.09	6.1	-25.8	---	---	723.5	0.026	0.000	19.8	2	1
03/25/06	4:35 p	-19.1	-19.1	-19.1	---	---	2.6	NE	0.04	3.5	-23.0	---	---	723.5	0.026	0.000	19.8	2	1
03/25/06	4:36 p	-19.1	-19.1	-19.1	---	---	5.2	NE	0.09	6.1	-25.8	---	---	723.4	0.026	0.000	19.8	2	1
03/25/06	4:37 p	-19.1	-19.1	-19.1	---	---	5.2	ENE	0.09	6.1	-25.9	---	---	723.5	0.026	0.000	19.8	2	1
03/25/06	4:38 p	-19.1	-19.1	-19.1	---	---	5.2	ENE	0.09	7.8	-25.9	---	---	723.5	0.026	0.000	19.8	2	1
03/25/06	4:39 p	-19.1	-19.1	-19.2	---	---	6.1	ENE	0.10	7.8	-26.6	---	---	723.5	0.026	0.000	19.8	2	1
03/25/06	4:40 p	-19.2	-19.2	-19.2	---	---	5.2	ENE	0.09	6.1	-26.1	---	---	723.5	0.026	0.000	19.8	2	1
03/25/06	4:41 p	-19.2	-19.2	-19.2	---	---	6.1	ENE	0.10	6.1	-26.7	---	---	723.4	0.026	0.000	19.8	2	1
03/25/06	4:42 p	-19.2	-19.2	-19.3	---	---	4.3	ENE	0.07	5.2	-25.3	---	---	723.4	0.026	0.000	19.8	2	1
03/25/06	4:43 p	-19.3	-19.3	-19.3	---	---	4.3	ENE	0.07	6.1	-25.3	---	---	723.5	0.026	0.000	19.8	2	1
03/25/06	4:44 p	-19.3	-19.3	-19.3	---	---	5.2	ENE	0.09	6.1	-26.2	---	---	723.4	0.026	0.000	19.8	2	1
03/25/06	4:45 p	-19.3	-19.3	-19.3	---	---	5.2	ENE	0.09	6.1	-26.2	---	---	723.4	0.026	0.000	19.8	2	1
03/25/06	4:46 p	-19.4	-19.3	-19.4	---	---	6.1	ENE	0.10	7.8	-26.9	---	---	723.4	0.026	0.000	19.8	2	1
03/25/06	4:47 p	-19.4	-19.4	-19.4	---	---	6.1	NE	0.10	7.0	-26.9	---	---	723.5	0.026	0.000	19.8	2	1
03/25/06	4:48 p	-19.4	-19.4	-19.4	---	---	5.2	NE	0.09	7.0	-26.3	---	---	723.5	0.026	0.000	19.9	2	1
03/25/06	4:49 p	-19.4	-19.4	-19.5	---	---	6.1	NE	0.10	7.0	-27.0	---	---	723.4	0.026	0.000	19.9	2	1
03/25/06	4:50 p	-19.5	-19.5	-19.5	---	---	7.0	NE	0.12	7.0	-27.7	---	---	723.4	0.026	0.000	19.9	2	1
03/25/06	4:51 p	-19.5	-19.5	-19.5	---	---	6.1	NE	0.10	7.0	-27.1	---	---	723.4	0.026	0.000	19.9	2	1
03/25/06	4:52 p	-19.5	-19.5	-19.6	---	---	6.1	NE	0.10	7.0	-27.1	---	---	723.5	0.026	0.000	19.9	2	1
03/25/06	4:53 p	-19.6	-19.5	-19.6	---	---	6.1	NE	0.10	7.0	-27.1	---	---	723.5	0.026	0.000	19.9	2	1
03/25/06	4:54 p	-19.6	-19.6	-19.6	---	---	7.0	NE	0.12	7.8	-27.7	---	---	723.5	0.026	0.000	19.9	2	1
03/25/06	4:55 p	-19.6	-19.6	-19.6	---	---	7.0	NE	0.12	7.8	-27.8	---	---	723.5	0.026	0.000	19.9	2	1
03/25/06	4:56 p	-19.7	-19.7	-19.7	---	---	6.1	NE	0.10	7.0	-27.3	---	---	723.5	0.026	0.000	19.9	2	1
03/25/06	4:57 p	-19.7	-19.7	-19.7	---	---	6.1	NE	0.10	7.0	-27.3	---	---	723.5	0.026	0.000	19.9	2	1
03/25/06	4:58 p	-19.7	-19.7	-19.7	---	---	7.0	NE	0.12	7.0	-27.9	---	---	723.5	0.026	0.000	19.9	2	1
03/25/06	4:59 p	-19.7	-19.7	-19.7	---	---	7.0	NE	0.12	7.8	-27.9	---	---	723.4	0.026	0.000	19.9	2	1
03/25/06	5:00 p	-19.8	-19.8	-19.8	---	---	7.0	NE	0.12	7.0	-28.0	---	---	723.5	0.026	0.000	19.9	2	1
03/25/06	5:01 p	-19.8	-19.8	-19.8	---	---	7.0	NE	0.12	7.0	-28.0	---	---	723.6	0.026	0.000	19.9	2	1
03/25/06	5:02 p	-19.8	-19.8	-19.8	---	---	6.1	NE	0.10	7.0	-27.4	---	---	723.5	0.027	0.000	19.9	2	1
03/25/06	5:03 p	-19.8	-19.8	-19.8	---	---	7.0	NE	0.12	7.0	-28.1	---	---	723.5	0.027	0.000	19.9	2	1
03/25/06	5:04 p	-19.8	-19.8	-19.8	---	---	6.1	NE	0.10	7.0	-27.4	---	---	723.6	0.027	0.000	19.9	2	1
03/25/06	5:05 p	-19.8	-19.8	-19.9	---	---	6.1	NE	0.10	7.8	-27.4	---	---	723.4	0.027	0.000	19.9	2	1
03/25/06	5:06 p	-19.9	-19.9	-19.9	---	---	7.8	NE	0.13	7.8	-28.7	---	---	723.5	0.027	0.000	19.9	2	1
03/25/06	5:07 p	-19.9	-19.9	-19.9	---	---	7.0	NE	0.12	7.8	-28.2	---	---	723.4	0.027	0.000	19.8	2	1
03/25/06	5:08 p	-19.9	-19.9	-19.9	---	---	7.0	NE	0.12	7.0	-28.2	---	---	723.4	0.027	0.000	19.8	2	1
03/25/06	5:09 p	-19.9	-19.9	-19.9	---	---	7.0	NE	0.12	7.8	-28.2	---	---	723.4	0.027	0.000	19.8	2	1
03/25/06	5:10 p	-20.0	-19.9	-20.0	---	---	7.8	ENE	0.13	7.8	-28.8	---	---	723.4	0.027	0.000	19.8	2	1
03/25/06	5:11 p	-20.0	-20.0	-20.1	---	---	7.8	ENE	0.13	7.8	-28.8	---	---	723.5	0.027	0.000	19.8	2	1
03/25/06	5:12 p	-20.1	-20.0	-20.1	---	---	7.0	ENE	0.12	7.0	-28.3	---	---	723.5	0.027	0.000	19.8	2	1
03/25/06	5:13 p	-20.1	-20.1	-20.1	---	---	7.0	ENE	0.12	7.0	-28.3	---	---	723.5	0.027	0.000	19.8	2	1
03/25/06	5:14 p	-20.1	-20.1	-20.1	---	---	7.0	ENE	0.12	7.8	-28.4	---	---	723.5	0.027	0.000	19.8	2	1
03/25/06	5:15 p	-20.1	-20.1	-20.1	---	---	7.8	ENE	0.13	7.8	-28.9	---	---	723.5	0.027	0.000	19.8	2	1
03/25/06	5:16 p	-20.2	-20.1	-20.2	---	---	7.8	ENE	0.13	8.7	-29.1	---	---	723.4	0.027	0.000	19.8	2	1
03/25/06	5:17 p	-20.2	-20.2	-20.2	---	---	7.8	ENE	0.13	7.8	-29.1	---	---	723.5	0.027	0.000	19.8	2	1
03/25/06	5:18 p	-20.2	-20.2	-20.2	---	---	7.8	ENE	0.13	7.8	-29.1	---	---	723.4	0.027	0.000	19.8	2	1
03/25/06	5:19 p	-20.2	-20.2	-20.2	---	---	7.8	ENE	0.13	7.8	-29.1	---	---	723.4	0.027	0.000	19.8	2	1
03/25/06	5:20 p	-20.2	-20.2	-20.3	---	---	7.8	NE	0.13	8.7	-29.1	---	---	723.4	0.027	0.000	19.8	2	1
03/25/06	5:21 p	-20.2	-20.2	-20.3	---	---	7.8	NE	0.13	8.7	-29.1	---	---	723.4	0.027	0.000	19.8	2	1
03/25/06	5:22 p	-20.3	-20.3	-20.3	---	---	7.8	NE	0.13	7.8	-29.2	---	---	723.4	0.027	0.000	19.8	2	1
03/25/06	5:23 p	-20.3	-20.3	-20.3	---	---	7.8	NE	0.13	7.8	-29.2	---	---	723.3	0.027	0.000	19.8	2	1
03/25/06	5:24 p	-20.3	-20.3	-20.3	---	---	7.8	NE	0.13	8.7	-29.2	---	---	723.3	0.027	0.000	19.8	2	1
03/25/06	5:25 p	-20.3	-20.3	-20.4	---	---	7.8	NE	0.13	8.7	-29.2	---	---	723.4	0.027	0.000	19.9	2	1
03/25/06	5:26 p	-20.4	-20.4	-20.4	---	---	6.1	NE	0.10	7.8	-28.1	---	---	723.4	0.027	0.000	19.9	2	1
03/25/06	5:27 p	-20.4	-20.4	-20.4	---	---	7.8	ENE	0.13	8.7	-29.3	---	---	723.4	0.027	0.000	19.9	2	1
03/25/06	5:28 p	-20.4	-20.4	-20.4	---	---	8.7	ENE	0.14	10.4	-29.9	---	---	723.4	0.027	0.000	19.9	2	1
03/25/06	5:29 p	-20.4	-20.4	-20.4	---	---	9.6	ENE	0.16	10.4	-30.3	---	---	723.4	0.027	0.000	19.9	2	1
03/25/06	5:30 p	-20.4	-20.4	-20.4	---	---	7.8	ENE	0.13	8.7	-29.4	---	---	723.4	0.027	0.000	19.9	2	1
03/25/06	5:31 p	-20.5	-20.5	-20.5	---	---	7.0	ENE	0.12	7.8	-28.9	---	---	723.4	0.027	0.000	19.9	2	1
03/25/06	5:32 p	-20.5	-20.5	-20.5	---	---	8.7	NE	0.14	10.4	-29.9	---	---	723.4	0.027	0.000	19.9	2	1
03/25/06	5:33 p	-20.5	-20.5	-20.5	---	---	8.7	NE	0.14	9.6	-29.9	---	---	723.4	0.027	0.000	19.9	2	1
03/25/06	5:34 p	-20.5	-20.5	-20.5	---	---	8.7	NE	0.14	10.4	-29.9	---	---	723.4	0.027	0.000	19.9	2	1
03/25/06	5:35 p	-20.6	-20.5	-20.6	---	---	7.8	ENE	0.13	9.6	-29.5	---	---	723.4	0.027	0.000	19.9	2	1
03/25/06	5:36 p	-20.6	-20.6	-20.6	---	---	7.8	NE	0.13	8.7	-29.5	---	---	723.4	0.027	0.000	19.9	2	1
03/25/06	5:37 p	-20.6	-20.6	-20.6	---	---	7.8	NE	0.13	8.7	-29.5	---	---	723.3	0.027	0.000	19.9	2	1
03/25/06	5:38 p	-20.6	-20.6	-20.6	---	---	7.0	NE	0.12	8.7	-29.0	---	---	723.5	0.027	0.000	19.9	2	1
03/25/06	5:39 p	-20.6	-20.6	-20.7	---	---	7.8	ENE	0.13	8.7	-29.6	---	---	723.4	0.027	0.000	19.9	2	1
03/25/06	5:40 p	-20.6	-20.6	-20.7	---	---	7.8	ENE	0.13	8.7	-29.6	---	---	723.3	0.027	0.000	19.9	2	1
03/25/06	5:41 p	-20.7	-20.7	-20.7	---	---	8.7	ENE	0.14	9.6	-30.2	---	---	723.3	0.027	0.000	19.9	2	1
03/25/06	5:42 p	-20.7	-20.7	-20.7	---	---	7.8	ENE	0.13	8.7	-29.7	---	---	723.4	0.027	0.000	19.9	2	1
03/25/06	5:43 p	-20.7	-20.7	-20.7	---	---	7.8	ENE	0.13	8.7	-29.7	---	---	723.4	0.027	0.000	19.9	2	1
03/25/06	5:44 p	-20.7	-20.7	-20.7	---	---	7.8	NE	0.13	8.7	-29.7	---	---	723.4	0.027	0.000	19.9	2	1
03/25/06	5:45 p	-20.7	-20.7	-20.7	---	---	8.7	NE	0.14	9.6	-30.2	---	---	723.3	0.027	0.000	19.9	2	1
03/25/06	5:46 p	-20.7	-20.7	-20.8	---	---	7.8	NE	0.13	8.7	-29.7	---	---	723.4	0.027	0.000	19.9	2	1
03/25/06	5:47 p	-20.8	-20.8	-20.8	---	---	7.8	NE	0.13	9.6	-29.8	---	---	723.4	0.027	0.000	19.9	2	1
03/25/06	5:48 p	-20.8	-20.8	-20.8	---	---	8.7	NE	0.14	9.6	-30.3	---	---	723.4	0.027	0.000	19.9	2	1
03/25/06	5:49 p	-20.8	-20.8	-20.8	---	---	7.8	NE	0.13	8.7	-29.8	---	---	723.4	0.027	0.000	19.9	2	1
03/25/06	5:50 p	-20.8	-20.8	-20.8	---	---	8.7	NE	0.14	9.6	-30.4	---	---	723.3	0.027	0.000	19.9	2	1
03/25/06	5:51 p	-20.8	-20.8	-20.8	---	---	7.8	ENE	0.13	8.7	-29.8	---	---	723.3	0.027	0.000	19.9	2	1
03/25/06	5:52 p	-20.8	-20.8	-20.8	---	---	8.7	NE	0.14	9.6	-30.4	---	---	723.3	0.027	0.000	19.9	2	1
03/25/06	5:53 p	-20.8	-20.8	-20.9	---	---	8.7	NE	0.14	9.6	-30.4	---	---	723.3	0.027	0.000	19.9	2	1
03/25/06	5:54 p	-20.9	-20.9	-20.9	---	---	8.7	NE	0.14	9.6	-30.4	---	---	723.4	0.027	0.000	19.9	2	1
03/25/06	5:55 p	-20.9	-20.9	-20.9	---	---	9.6	NE	0.16	10.4	-30.9	---	---	723.3	0.027	0.000	19.9	2	1
03/25/06	5:56 p	-20.9	-20.9	-20.9	---	---	7.8	NE	0.13	8.7	-29.9	---	---	723.3	0.027	0.000	19.9	2	1
03/25/06	5:57 p	-20.9	-20.9	-20.9	---	---	7.8	NE	0.13	7.8	-30.0	---	---	723.3	0.027	0.000	19.9	2	1
03/25/06	5:58 p	-20.9	-20.9	-20.9	---	---	8.7	NE	0.14	10.4	-30.5	---	---	723.3	0.027	0.000	19.9	2	1
03/25/06	5:59 p	-20.9	-20.9	-20.9	---	---	8.7	NE	0.14	9.6	-30.5	---	---	723.3	0.027	0.000	19.9	2	1
03/25/06	6:00 p	-20.9	-20.9	-21.0	---	---	7.8	NE	0.13	9.6	-30.0	---	---	723.3	0.027	0.000	19.9	2	1
03/25/06	6:01 p	-21.0	-21.0	-21.0	---	---	7.0	NE	0.12	8.7	-29.5	---	---	723.3	0.027	0.000	19.9	2	1
03/25/06	6:02 p	-21.0	-20.9	-21.0	---	---	8.7	NE	0.14	8.7	-30.6	---	---	723.3	0.027	0.000	19.9	2	1
03/25/06	6:03 p	-21.0	-21.0	-21.0	---	---	8.7	NE	0.14	9.6	-30.6	---	---	723.3	0.027	0.000	19.9	2	1
03/25/06	6:04 p	-21.0	-21.0	-21.0	---	---	7.8	NE	0.13	7.8	-30.1	---	---	723.3	0.027	0.000	19.9	2	1
03/25/06	6:05 p	-21.0	-21.0	-21.1	---	---	7.8	NE	0.13	8.7	-30.1	---	---	723.3	0.027	0.000	19.9	2	1
03/25/06	6:06 p	-21.1	-21.1	-21.1	---	---	7.0	NE	0.12	7.8	-29.6	---	---	723.4	0.027	0.000	19.9	2	1
03/25/06	6:07 p	-21.1	-21.1	-21.1	---	---	6.1	NE	0.10	9.6	-28.9	---	---	723.3	0.027	0.000	19.9	2	1
03/25/06	6:08 p	-21.1	-21.1	-21.1	---	---	8.7	ENE	0.14	9.6	-30.6	---	---	723.4	0.027	0.000	19.9	2	1
03/25/06	6:09 p	-21.1	-21.1	-21.1	---	---	7.0	NE	0.12	7.8	-29.6	---	---	723.3	0.027	0.000	19.9	2	1
03/25/06	6:10 p	-21.1	-21.1	-21.1	---	---	7.8	NE	0.13	9.6	-30.1	---	---	723.3	0.027	0.000	19.9	2	1
03/25/06	6:11 p	-21.1	-21.1	-21.1	---	---	10.4	ENE	0.17	11.3	-31.6	---	---	723.3	0.027	0.000	19.9	2	1
03/25/06	6:12 p	-21.1	-21.1	-21.2	---	---	8.7	ENE	0.14	10.4	-30.7	---	---	723.4	0.027	0.000	19.9	2	1
03/25/06	6:13 p	-21.1	-21.1	-21.2	---	---	6.1	ENE	0.10	8.7	-29.0	---	---	723.4	0.027	0.000	19.9	2	1
03/25/06	6:14 p	-21.2	-21.2	-21.2	---	---	6.1	ENE	0.10	9.6	-29.1	---	---	723.4	0.027	0.000	19.9	2	1
03/25/06	6:15 p	-21.2	-21.2	-21.2	---	---	9.6	NE	0.16	10.4	-31.2	---	---	723.3	0.027	0.000	19.9	2	1
03/25/06	6:16 p	-21.2	-21.2	-21.2	---	---	7.8	NE	0.13	10.4	-30.3	---	---	723.2	0.027	0.000	19.9	2	1
03/25/06	6:17 p	-21.2	-21.2	-21.2	---	---	10.4	ENE	0.17	11.3	-31.8	---	---	723.2	0.027	0.000	19.9	2	1
03/25/06	6:18 p	-21.3	-21.3	-21.3	---	---	7.8	ENE	0.13	9.6	-30.4	---	---	723.3	0.028	0.000	19.9	2	1
03/25/06	6:19 p	-21.3	-21.3	-21.3	---	---	7.8	ENE	0.13	9.6	-30.4	---	---	723.3	0.028	0.000	19.9	2	1
03/25/06	6:20 p	-21.3	-21.3	-21.3	---	---	8.7	ENE	0.14	10.4	-31.0	---	---	723.2	0.028	0.000	19.9	2	1
03/25/06	6:21 p	-21.3	-21.3	-21.3	---	---	9.6	ENE	0.16	10.4	-31.4	---	---	723.3	0.028	0.000	19.9	2	1
03/25/06	6:22 p	-21.4	-21.3	-21.4	---	---	6.1	ENE	0.10	7.8	-29.3	---	---	723.4	0.028	0.000	19.9	2	1
03/25/06	6:23 p	-21.4	-21.4	-21.4	---	---	6.1	ENE	0.10	8.7	-29.3	---	---	723.2	0.028	0.000	19.9	2	1
03/25/06	6:24 p	-21.4	-21.4	-21.4	---	---	8.7	NE	0.14	8.7	-31.1	---	---	723.2	0.028	0.000	19.9	2	1
03/25/06	6:25 p	-21.4	-21.4	-21.4	---	---	7.8	NE	0.13	7.8	-30.6	---	---	723.3	0.028	0.000	19.9	2	1
03/25/06	6:26 p	-21.4	-21.4	-21.5	---	---	7.8	NE	0.13	8.7	-30.6	---	---	723.3	0.028	0.000	19.9	2	1
03/25/06	6:27 p	-21.5	-21.5	-21.5	---	---	7.0	NE	0.12	8.7	-30.1	---	---	723.3	0.028	0.000	19.9	2	1
03/25/06	6:28 p	-21.5	-21.5	-21.6	---	---	8.7	ENE	0.14	8.7	-31.2	---	---	723.3	0.028	0.000	19.9	2	1
03/25/06	6:29 p	-21.6	-21.6	-21.6	---	---	7.8	ENE	0.13	8.7	-30.7	---	---	723.3	0.028	0.000	19.9	2	1
03/25/06	6:30 p	-21.6	-21.6	-21.6	---	---	7.0	ENE	0.12	8.7	-30.2	---	---	723.3	0.028	0.000	19.9	2	1
03/25/06	6:31 p	-21.6	-21.6	-21.6	---	---	8.7	ENE	0.14	8.7	-31.3	---	---	723.2	0.028	0.000	19.9	2	1
03/25/06	6:32 p	-21.6	-21.6	-21.7	---	---	7.8	ENE	0.13	8.7	-30.8	---	---	723.3	0.028	0.000	19.9	2	1
03/25/06	6:33 p	-21.7	-21.6	-21.7	---	---	7.0	ENE	0.12	7.8	-30.3	---	---	723.2	0.028	0.000	19.9	2	1
03/25/06	6:34 p	-21.7	-21.7	-21.7	---	---	7.8	ENE	0.13	8.7	-30.9	---	---	723.3	0.028	0.000	19.9	2	1
03/25/06	6:35 p	-21.7	-21.7	-21.7	---	---	7.8	ENE	0.13	8.7	-30.9	---	---	723.3	0.028	0.000	19.9	2	1
03/25/06	6:36 p	-21.7	-21.7	-21.7	---	---	7.8	ENE	0.13	8.7	-30.9	---	---	723.2	0.028	0.000	19.9	2	1
03/25/06	6:37 p	-21.7	-21.7	-21.7	---	---	7.8	ENE	0.13	7.8	-30.9	---	---	723.2	0.028	0.000	19.9	2	1
03/25/06	6:38 p	-21.7	-21.7	-21.7	---	---	7.8	ENE	0.13	8.7	-30.9	---	---	723.2	0.028	0.000	19.9	2	1
03/25/06	6:39 p	-21.7	-21.7	-21.7	---	---	8.7	ENE	0.14	8.7	-31.4	---	---	723.2	0.028	0.000	19.9	2	1
03/25/06	6:40 p	-21.8	-21.7	-21.8	---	---	7.8	ENE	0.13	8.7	-31.0	---	---	723.2	0.028	0.000	19.9	2	1
03/25/06	6:41 p	-21.7	-21.7	-21.8	---	---	7.8	ENE	0.13	7.8	-30.9	---	---	723.2	0.028	0.000	19.9	2	1
03/25/06	6:42 p	-21.8	-21.8	-21.8	---	---	7.8	ENE	0.13	9.6	-31.0	---	---	723.3	0.028	0.000	19.9	2	1
03/25/06	6:43 p	-21.8	-21.8	-21.8	---	---	7.8	ENE	0.13	8.7	-31.0	---	---	723.2	0.028	0.000	19.9	2	1
03/25/06	6:44 p	-21.8	-21.8	-21.8	---	---	7.0	ENE	0.12	8.7	-30.5	---	---	723.3	0.028	0.000	19.9	2	1
03/25/06	6:45 p	-21.8	-21.8	-21.8	---	---	7.0	ENE	0.12	7.8	-30.5	---	---	723.3	0.028	0.000	19.9	2	1
03/25/06	6:46 p	-21.8	-21.8	-21.8	---	---	7.8	ENE	0.13	8.7	-31.1	---	---	723.3	0.028	0.000	19.9	2	1
03/25/06	6:47 p	-21.8	-21.8	-21.8	---	---	7.8	ENE	0.13	8.7	-31.1	---	---	723.3	0.028	0.000	19.9	2	1
03/25/06	6:48 p	-21.8	-21.8	-21.8	---	---	8.7	ENE	0.14	9.6	-31.6	---	---	723.3	0.028	0.000	19.9	2	1
03/25/06	6:49 p	-21.8	-21.8	-21.8	---	---	8.7	ENE	0.14	8.7	-31.6	---	---	723.3	0.028	0.000	19.8	2	1
03/25/06	6:50 p	-21.8	-21.8	-21.8	---	---	7.8	ENE	0.13	8.7	-31.1	---	---	723.3	0.028	0.000	19.8	2	1
03/25/06	6:51 p	-21.8	-21.8	-21.9	---	---	7.8	ENE	0.13	8.7	-31.1	---	---	723.1	0.028	0.000	19.8	2	1
03/25/06	6:52 p	-21.8	-21.8	-21.9	---	---	7.8	ENE	0.13	7.8	-31.1	---	---	723.2	0.028	0.000	19.8	2	1
03/25/06	6:53 p	-21.8	-21.8	-21.8	---	---	7.8	ENE	0.13	7.8	-31.1	---	---	723.2	0.028	0.000	19.9	2	1
03/25/06	6:54 p	-21.8	-21.8	-21.8	---	---	7.8	ENE	0.13	8.7	-31.1	---	---	723.2	0.028	0.000	19.9	2	1
03/25/06	6:55 p	-21.9	-21.8	-21.9	---	---	7.8	ENE	0.13	8.7	-31.2	---	---	723.3	0.028	0.000	19.9	2	1
03/25/06	6:56 p	-21.9	-21.9	-21.9	---	---	7.0	ENE	0.12	7.0	-30.6	---	---	723.3	0.028	0.000	19.9	2	1
03/25/06	6:57 p	-21.9	-21.9	-21.9	---	---	8.7	ENE	0.14	9.6	-31.7	---	---	723.2	0.028	0.000	19.9	2	1
03/25/06	6:58 p	-21.9	-21.9	-21.9	---	---	7.8	ENE	0.13	8.7	-31.2	---	---	723.3	0.028	0.000	19.9	2	1
03/25/06	6:59 p	-21.9	-21.9	-21.9	---	---	7.0	ENE	0.12	7.8	-30.6	---	---	723.3	0.028	0.000	19.9	2	1
03/25/06	7:00 p	-21.9	-21.8	-21.9	---	---	7.8	ENE	0.13	8.7	-31.2	---	---	723.2	0.028	0.000	19.9	2	1
03/25/06	7:01 p	-21.9	-21.9	-21.9	---	---	7.0	ENE	0.12	7.8	-30.6	---	---	723.2	0.028	0.000	19.9	2	1
03/25/06	7:02 p	-21.9	-21.9	-21.9	---	---	7.0	ENE	0.12	7.0	-30.6	---	---	723.3	0.028	0.000	19.9	2	1
03/25/06	7:03 p	-21.9	-21.9	-21.9	---	---	7.0	ENE	0.12	7.8	-30.6	---	---	723.2	0.028	0.000	19.9	2	1
03/25/06	7:04 p	-21.9	-21.8	-21.9	---	---	7.8	ENE	0.13	8.7	-31.2	---	---	723.2	0.028	0.000	19.9	2	1
03/25/06	7:05 p	-21.9	-21.9	-21.9	---	---	7.0	ENE	0.12	8.7	-30.6	---	---	723.2	0.028	0.000	19.9	2	1
03/25/06	7:06 p	-21.9	-21.8	-21.9	---	---	7.8	ENE	0.13	8.7	-31.2	---	---	723.1	0.028	0.000	19.9	2	1
03/25/06	7:07 p	-21.9	-21.9	-21.9	---	---	7.8	ENE	0.13	8.7	-31.2	---	---	723.3	0.028	0.000	19.9	2	1
03/25/06	7:08 p	-21.9	-21.9	-21.9	---	---	7.8	ENE	0.13	7.8	-31.2	---	---	723.2	0.028	0.000	19.9	2	1
03/25/06	7:09 p	-21.9	-21.8	-21.9	---	---	7.0	ENE	0.12	7.8	-30.6	---	---	723.2	0.028	0.000	19.9	2	1
03/25/06	7:10 p	-21.9	-21.8	-21.9	---	---	7.8	ENE	0.13	8.7	-31.2	---	---	723.1	0.028	0.000	19.9	2	1
03/25/06	7:11 p	-21.8	-21.8	-21.9	---	---	7.8	ENE	0.13	8.7	-31.1	---	---	723.2	0.028	0.000	19.9	2	1
03/25/06	7:12 p	-21.9	-21.9	-21.9	---	---	7.0	NE	0.12	7.8	-30.6	---	---	723.3	0.028	0.000	19.9	2	1
03/25/06	7:13 p	-21.9	-21.8	-21.9	---	---	7.0	NE	0.12	7.8	-30.6	---	---	723.2	0.028	0.000	19.9	2	1
03/25/06	7:14 p	-21.9	-21.8	-21.9	---	---	7.0	ENE	0.12	8.7	-30.6	---	---	723.3	0.028	0.000	19.9	2	1
03/25/06	7:15 p	-21.8	-21.8	-21.8	---	---	7.8	ENE	0.13	8.7	-31.1	---	---	723.2	0.028	0.000	19.9	2	1
03/25/06	7:16 p	-21.8	-21.8	-21.8	---	---	7.8	ENE	0.13	8.7	-31.1	---	---	723.2	0.028	0.000	19.9	2	1
03/25/06	7:17 p	-21.8	-21.8	-21.8	---	---	8.7	ENE	0.14	9.6	-31.6	---	---	723.2	0.028	0.000	19.9	2	1
03/25/06	7:18 p	-21.8	-21.8	-21.8	---	---	8.7	ENE	0.14	9.6	-31.6	---	---	723.3	0.028	0.000	19.9	2	1
03/25/06	7:19 p	-21.8	-21.8	-21.8	---	---	7.8	ENE	0.13	9.6	-31.1	---	---	723.3	0.028	0.000	19.9	2	1
03/25/06	7:20 p	-21.8	-21.8	-21.8	---	---	7.8	ENE	0.13	8.7	-31.1	---	---	723.2	0.028	0.000	19.9	2	1
03/25/06	7:21 p	-21.8	-21.8	-21.8	---	---	7.0	ENE	0.12	7.8	-30.5	---	---	723.3	0.028	0.000	19.9	2	1
03/25/06	7:22 p	-21.8	-21.8	-21.8	---	---	7.0	NE	0.12	7.8	-30.5	---	---	723.2	0.028	0.000	19.9	2	1
03/25/06	7:23 p	-21.8	-21.8	-21.8	---	---	8.7	ENE	0.14	9.6	-31.6	---	---	723.2	0.028	0.000	19.9	2	1
03/25/06	7:24 p	-21.8	-21.8	-21.8	---	---	8.7	ENE	0.14	9.6	-31.6	---	---	723.2	0.028	0.000	19.9	2	1
03/25/06	7:25 p	-21.8	-21.8	-21.8	---	---	8.7	ENE	0.14	8.7	-31.6	---	---	723.2	0.028	0.000	19.9	2	1
03/25/06	7:26 p	-21.8	-21.8	-21.8	---	---	7.8	NE	0.13	8.7	-31.0	---	---	723.3	0.028	0.000	19.9	2	1
03/25/06	7:27 p	-21.8	-21.8	-21.8	---	---	7.8	NE	0.13	8.7	-31.0	---	---	723.3	0.028	0.000	19.9	2	1
03/25/06	7:28 p	-21.8	-21.8	-21.8	---	---	8.7	ENE	0.14	8.7	-31.6	---	---	723.2	0.028	0.000	19.9	2	1
03/25/06	7:29 p	-21.8	-21.8	-21.8	---	---	8.7	ENE	0.14	8.7	-31.6	---	---	723.3	0.028	0.000	19.9	2	1
03/25/06	7:30 p	-21.8	-21.7	-21.8	---	---	7.8	NE	0.13	8.7	-31.0	---	---	723.3	0.028	0.000	19.9	2	1
03/25/06	7:31 p	-21.8	-21.8	-21.8	---	---	7.8	NE	0.13	8.7	-31.0	---	---	723.3	0.028	0.000	19.9	2	1
03/25/06	7:32 p	-21.7	-21.7	-21.7	---	---	7.8	NE	0.13	8.7	-30.9	---	---	723.2	0.028	0.000	19.9	2	1
03/25/06	7:33 p	-21.8	-21.7	-21.8	---	---	7.8	NE	0.13	8.7	-31.0	---	---	723.3	0.028	0.000	19.9	2	1
03/25/06	7:34 p	-21.7	-21.7	-21.7	---	---	8.7	NE	0.14	9.6	-31.4	---	---	723.3	0.028	0.000	19.9	2	1
03/25/06	7:35 p	-21.7	-21.7	-21.7	---	---	8.7	NE	0.14	9.6	-31.4	---	---	723.3	0.028	0.000	19.9	2	1
03/25/06	7:36 p	-21.7	-21.7	-21.7	---	---	7.8	NE	0.13	8.7	-30.9	---	---	723.3	0.028	0.000	19.9	2	1
03/25/06	7:37 p	-21.7	-21.7	-21.7	---	---	7.8	NE	0.13	8.7	-30.9	---	---	723.3	0.028	0.000	19.9	2	1
03/25/06	7:38 p	-21.7	-21.7	-21.7	---	---	9.6	NE	0.16	9.6	-31.9	---	---	723.3	0.028	0.000	19.9	1	1
03/25/06	7:39 p	-21.7	-21.7	-21.7	---	---	8.7	NE	0.14	9.6	-31.4	---	---	723.3	0.028	0.000	19.9	2	1
03/25/06	7:40 p	-21.7	-21.7	-21.7	---	---	8.7	ENE	0.14	9.6	-31.4	---	---	723.3	0.028	0.000	19.9	2	1
03/25/06	7:41 p	-21.7	-21.7	-21.7	---	---	7.8	NE	0.13	8.7	-30.9	---	---	723.2	0.028	0.000	19.9	2	1
03/25/06	7:42 p	-21.7	-21.7	-21.7	---	---	7.8	ENE	0.13	8.7	-30.9	---	---	723.3	0.028	0.000	19.9	2	1
03/25/06	7:43 p	-21.7	-21.7	-21.7	---	---	7.8	ENE	0.13	8.7	-30.9	---	---	723.3	0.028	0.000	19.9	2	1
03/25/06	7:44 p	-21.7	-21.7	-21.7	---	---	8.7	ENE	0.14	8.7	-31.4	---	---	723.3	0.028	0.000	19.9	2	1
03/25/06	7:45 p	-21.7	-21.7	-21.7	---	---	8.7	NE	0.14	9.6	-31.4	---	---	723.2	0.028	0.000	19.9	2	1
03/25/06	7:46 p	-21.6	-21.6	-21.7	---	---	8.7	NE	0.14	9.6	-31.3	---	---	723.2	0.028	0.000	19.9	2	1
03/25/06	7:47 p	-21.6	-21.6	-21.6	---	---	9.6	ENE	0.16	9.6	-31.8	---	---	723.3	0.028	0.000	19.9	2	1
03/25/06	7:48 p	-21.6	-21.6	-21.6	---	---	8.7	ENE	0.14	9.6	-31.3	---	---	723.3	0.028	0.000	19.9	2	1
03/25/06	7:49 p	-21.6	-21.6	-21.6	---	---	7.8	NE	0.13	8.7	-30.8	---	---	723.3	0.028	0.000	19.9	2	1
03/25/06	7:50 p	-21.6	-21.6	-21.6	---	---	7.8	NE	0.13	8.7	-30.8	---	---	723.2	0.028	0.000	19.9	2	1
03/25/06	7:51 p	-21.6	-21.6	-21.6	---	---	8.7	NE	0.14	8.7	-31.3	---	---	723.2	0.028	0.000	19.9	2	1
03/25/06	7:52 p	-21.6	-21.6	-21.6	---	---	7.8	NE	0.13	8.7	-30.8	---	---	723.2	0.028	0.000	19.9	2	1
03/25/06	7:53 p	-21.6	-21.6	-21.6	---	---	8.7	NE	0.14	8.7	-31.3	---	---	723.2	0.028	0.000	19.9	1	1
03/25/06	7:54 p	-21.6	-21.6	-21.6	---	---	8.7	NE	0.14	8.7	-31.3	---	---	723.2	0.028	0.000	19.9	2	1
03/25/06	7:55 p	-21.6	-21.6	-21.6	---	---	8.7	NE	0.14	8.7	-31.3	---	---	723.2	0.028	0.000	19.9	2	1
03/25/06	7:56 p	-21.6	-21.5	-21.6	---	---	7.8	NE	0.13	8.7	-30.7	---	---	723.3	0.028	0.000	19.9	1	1
03/25/06	7:57 p	-21.6	-21.6	-21.6	---	---	7.8	NE	0.13	8.7	-30.7	---	---	723.2	0.028	0.000	19.9	2	1
03/25/06	7:58 p	-21.5	-21.5	-21.5	---	---	7.8	NE	0.13	8.7	-30.7	---	---	723.3	0.028	0.000	19.9	1	1
03/25/06	7:59 p	-21.5	-21.5	-21.5	---	---	7.8	NE	0.13	8.7	-30.7	---	---	723.2	0.028	0.000	19.9	1	1
03/25/06	8:00 p	-21.5	-21.5	-21.5	---	---	7.8	NE	0.13	8.7	-30.7	---	---	723.3	0.028	0.000	19.9	2	1
03/25/06	8:01 p	-21.5	-21.4	-21.5	---	---	7.8	ENE	0.13	8.7	-30.7	---	---	723.2	0.028	0.000	19.9	1	1
03/25/06	8:02 p	-21.4	-21.4	-21.5	---	---	7.8	ENE	0.13	8.7	-30.6	---	---	723.2	0.028	0.000	19.9	1	1
03/25/06	8:03 p	-21.4	-21.4	-21.4	---	---	8.7	ENE	0.14	8.7	-31.1	---	---	723.3	0.028	0.000	19.9	2	1
03/25/06	8:04 p	-21.4	-21.4	-21.4	---	---	7.8	ENE	0.13	8.7	-30.6	---	---	723.3	0.028	0.000	19.9	2	1
03/25/06	8:05 p	-21.4	-21.4	-21.4	---	---	7.8	ENE	0.13	7.8	-30.6	---	---	723.2	0.028	0.000	19.9	2	1
03/25/06	8:06 p	-21.4	-21.4	-21.4	---	---	7.8	ENE	0.13	8.7	-30.6	---	---	723.2	0.028	0.000	19.9	1	1
03/25/06	8:07 p	-21.4	-21.4	-21.4	---	---	7.8	ENE	0.13	8.7	-30.6	---	---	723.3	0.028	0.000	19.9	1	1
03/25/06	8:08 p	-21.4	-21.4	-21.4	---	---	7.8	ENE	0.13	8.7	-30.6	---	---	723.2	0.028	0.000	19.9	2	1
03/25/06	8:09 p	-21.3	-21.3	-21.3	---	---	7.8	NE	0.13	7.8	-30.4	---	---	723.2	0.028	0.000	19.9	1	1
03/25/06	8:10 p	-21.3	-21.3	-21.3	---	---	7.0	NE	0.12	7.8	-29.9	---	---	723.2	0.028	0.000	19.9	2	1
03/25/06	8:11 p	-21.3	-21.3	-21.3	---	---	7.0	NE	0.12	7.8	-29.8	---	---	723.1	0.028	0.000	19.9	2	1
03/25/06	8:12 p	-21.3	-21.3	-21.3	---	---	7.0	NE	0.12	7.8	-29.8	---	---	723.2	0.028	0.000	19.9	2	1
03/25/06	8:13 p	-21.3	-21.2	-21.3	---	---	7.0	NE	0.12	7.8	-29.8	---	---	723.2	0.028	0.000	19.9	1	1
03/25/06	8:14 p	-21.2	-21.2	-21.2	---	---	7.0	NE	0.12	7.8	-29.8	---	---	723.2	0.027	0.000	19.9	2	1
03/25/06	8:15 p	-21.2	-21.2	-21.2	---	---	7.0	NE	0.12	7.0	-29.8	---	---	723.2	0.027	0.000	19.9	2	1
03/25/06	8:16 p	-21.2	-21.2	-21.2	---	---	6.1	NE	0.10	7.0	-29.1	---	---	723.2	0.027	0.000	19.8	1	1
03/25/06	8:17 p	-21.2	-21.1	-21.2	---	---	7.0	NE	0.12	7.8	-29.7	---	---	723.2	0.027	0.000	19.9	2	1
03/25/06	8:18 p	-21.1	-21.1	-21.2	---	---	7.8	NE	0.13	7.8	-30.2	---	---	723.2	0.027	0.000	19.8	2	1
03/25/06	8:19 p	-21.1	-21.1	-21.1	---	---	7.8	NE	0.13	7.8	-30.2	---	---	723.1	0.027	0.000	19.8	2	1
03/25/06	8:20 p	-21.1	-21.1	-21.1	---	---	7.0	NE	0.12	7.8	-29.6	---	---	723.1	0.027	0.000	19.8	1	1
03/25/06	8:21 p	-21.0	-21.0	-21.0	---	---	6.1	NE	0.10	7.0	-28.9	---	---	723.1	0.027	0.000	19.8	2	1
03/25/06	8:22 p	-21.0	-21.0	-21.0	---	---	6.1	NE	0.10	7.0	-28.9	---	---	723.1	0.027	0.000	19.8	2	1
03/25/06	8:23 p	-21.0	-20.9	-21.0	---	---	7.0	NE	0.12	7.8	-29.5	---	---	723.2	0.027	0.000	19.8	2	1
03/25/06	8:24 p	-20.9	-20.9	-20.9	---	---	7.8	NE	0.13	8.7	-29.9	---	---	723.1	0.027	0.000	19.8	2	1
03/25/06	8:25 p	-20.9	-20.9	-20.9	---	---	7.0	NE	0.12	7.8	-29.3	---	---	723.2	0.027	0.000	19.9	1	1
03/25/06	8:26 p	-20.8	-20.8	-20.8	---	---	7.0	NE	0.12	7.0	-29.3	---	---	723.2	0.027	0.000	19.9	1	1
03/25/06	8:27 p	-20.8	-20.8	-20.8	---	---	7.8	NE	0.13	7.8	-29.8	---	---	723.1	0.027	0.000	19.9	1	1
03/25/06	8:28 p	-20.8	-20.8	-20.8	---	---	7.8	NE	0.13	8.7	-29.8	---	---	723.0	0.027	0.000	19.9	1	1
03/25/06	8:29 p	-20.8	-20.7	-20.8	---	---	7.0	NE	0.12	7.8	-29.2	---	---	723.1	0.027	0.000	19.9	1	1
03/25/06	8:30 p	-20.7	-20.7	-20.7	---	---	7.0	NE	0.12	7.0	-29.2	---	---	723.1	0.027	0.000	19.9	1	1
03/25/06	8:31 p	-20.7	-20.7	-20.7	---	---	7.0	NE	0.12	7.0	-29.1	---	---	723.2	0.027	0.000	19.9	1	1
03/25/06	8:32 p	-20.6	-20.6	-20.7	---	---	7.0	NE	0.12	7.8	-29.0	---	---	723.1	0.027	0.000	19.9	1	1
03/25/06	8:33 p	-20.6	-20.6	-20.6	---	---	7.8	NE	0.13	7.8	-29.6	---	---	723.1	0.027	0.000	19.9	2	1
03/25/06	8:34 p	-20.6	-20.6	-20.6	---	---	6.1	NE	0.10	7.8	-28.3	---	---	723.2	0.027	0.000	19.9	1	1
03/25/06	8:35 p	-20.6	-20.5	-20.6	---	---	5.2	NE	0.09	6.1	-27.6	---	---	723.1	0.027	0.000	19.9	1	1
03/25/06	8:36 p	-20.5	-20.4	-20.5	---	---	6.1	NE	0.10	7.0	-28.3	---	---	723.1	0.027	0.000	19.9	1	1
03/25/06	8:37 p	-20.4	-20.4	-20.4	---	---	6.1	NE	0.10	7.0	-28.2	---	---	723.2	0.027	0.000	19.9	1	1
03/25/06	8:38 p	-20.4	-20.4	-20.4	---	---	7.0	NE	0.12	7.8	-28.8	---	---	723.2	0.027	0.000	19.9	2	1
03/25/06	8:39 p	-20.3	-20.3	-20.4	---	---	6.1	NE	0.10	7.0	-28.1	---	---	723.1	0.027	0.000	19.9	2	1
03/25/06	8:40 p	-20.3	-20.3	-20.3	---	---	6.1	NE	0.10	7.0	-28.1	---	---	723.1	0.027	0.000	19.9	2	1
03/25/06	8:41 p	-20.3	-20.3	-20.3	---	---	7.0	NE	0.12	7.0	-28.6	---	---	723.0	0.027	0.000	19.9	2	1
03/25/06	8:42 p	-20.2	-20.2	-20.3	---	---	6.1	NE	0.10	7.0	-27.9	---	---	723.1	0.027	0.000	19.9	2	1
03/25/06	8:43 p	-20.2	-20.2	-20.2	---	---	6.1	NE	0.10	7.0	-27.9	---	---	723.2	0.027	0.000	19.9	1	1
03/25/06	8:44 p	-20.2	-20.2	-20.2	---	---	6.1	NE	0.10	7.0	-27.9	---	---	723.1	0.027	0.000	19.9	2	1
03/25/06	8:45 p	-20.2	-20.1	-20.2	---	---	6.1	NE	0.10	7.0	-27.9	---	---	723.1	0.027	0.000	19.9	1	1
03/25/06	8:46 p	-20.1	-20.1	-20.1	---	---	6.1	NE	0.10	6.1	-27.8	---	---	723.2	0.027	0.000	19.9	1	1
03/25/06	8:47 p	-20.1	-20.0	-20.1	---	---	5.2	NE	0.09	6.1	-27.1	---	---	723.1	0.027	0.000	19.9	2	1
03/25/06	8:48 p	-20.0	-20.0	-20.1	---	---	6.1	NE	0.10	7.0	-27.7	---	---	723.1	0.027	0.000	19.9	1	1
03/25/06	8:49 p	-20.0	-19.9	-20.0	---	---	6.1	NE	0.10	6.1	-27.7	---	---	723.1	0.027	0.000	19.9	1	1
03/25/06	8:50 p	-19.9	-19.9	-19.9	---	---	5.2	NE	0.09	6.1	-26.9	---	---	723.1	0.027	0.000	19.9	1	1
03/25/06	8:51 p	-19.9	-19.9	-19.9	---	---	5.2	NE	0.09	6.1	-26.9	---	---	723.1	0.027	0.000	19.9	2	1
03/25/06	8:52 p	-19.9	-19.9	-19.9	---	---	5.2	NE	0.09	6.1	-26.8	---	---	723.1	0.027	0.000	19.9	2	1
03/25/06	8:53 p	-19.8	-19.8	-19.9	---	---	6.1	NE	0.10	6.1	-27.4	---	---	723.1	0.027	0.000	19.9	2	1
03/25/06	8:54 p	-19.8	-19.8	-19.8	---	---	6.1	NE	0.10	7.0	-27.4	---	---	723.1	0.027	0.000	19.9	1	1
03/25/06	8:55 p	-19.8	-19.7	-19.8	---	---	6.1	NE	0.10	7.0	-27.4	---	---	723.1	0.026	0.000	19.9	2	1
03/25/06	8:56 p	-19.8	-19.7	-19.8	---	---	6.1	NE	0.10	7.0	-27.4	---	---	723.0	0.026	0.000	19.9	2	1
03/25/06	8:57 p	-19.7	-19.7	-19.7	---	---	6.1	NE	0.10	7.0	-27.3	---	---	723.1	0.026	0.000	19.9	1	1
03/25/06	8:58 p	-19.7	-19.7	-19.7	---	---	6.1	NE	0.10	6.1	-27.3	---	---	723.1	0.026	0.000	19.9	2	1
03/25/06	8:59 p	-19.7	-19.6	-19.7	---	---	6.1	NE	0.10	7.0	-27.3	---	---	723.1	0.026	0.000	19.9	2	1
03/25/06	9:00 p	-19.6	-19.6	-19.6	---	---	6.1	NE	0.10	7.0	-27.2	---	---	723.1	0.026	0.000	19.9	1	1
03/25/06	9:01 p	-19.6	-19.6	-19.6	---	---	6.1	NE	0.10	6.1	-27.2	---	---	723.1	0.026	0.000	19.9	1	1
03/25/06	9:02 p	-19.6	-19.6	-19.6	---	---	6.1	NE	0.10	6.1	-27.1	---	---	723.1	0.026	0.000	19.9	2	1
03/25/06	9:03 p	-19.6	-19.6	-19.6	---	---	6.1	NE	0.10	6.1	-27.1	---	---	723.0	0.026	0.000	19.8	1	1
03/25/06	9:04 p	-19.5	-19.5	-19.6	---	---	6.1	NE	0.10	6.1	-27.1	---	---	723.1	0.026	0.000	19.8	1	1
03/25/06	9:05 p	-19.5	-19.5	-19.5	---	---	5.2	ENE	0.09	6.1	-26.4	---	---	723.1	0.026	0.000	19.9	1	1
03/25/06	9:06 p	-19.5	-19.4	-19.5	---	---	5.2	ENE	0.09	5.2	-26.4	---	---	723.1	0.026	0.000	19.8	2	1
03/25/06	9:07 p	-19.4	-19.4	-19.4	---	---	5.2	ENE	0.09	6.1	-26.3	---	---	723.0	0.026	0.000	19.9	1	1
03/25/06	9:08 p	-19.4	-19.4	-19.4	---	---	5.2	ENE	0.09	5.2	-26.2	---	---	723.1	0.026	0.000	19.9	1	1
03/25/06	9:09 p	-19.4	-19.4	-19.4	---	---	5.2	ENE	0.09	5.2	-26.2	---	---	723.2	0.026	0.000	19.9	1	1
03/25/06	9:10 p	-19.3	-19.3	-19.4	---	---	5.2	ENE	0.09	5.2	-26.2	---	---	723.1	0.026	0.000	19.9	1	1
03/25/06	9:11 p	-19.3	-19.3	-19.3	---	---	5.2	ENE	0.09	5.2	-26.2	---	---	723.1	0.026	0.000	19.9	1	1
03/25/06	9:12 p	-19.3	-19.3	-19.3	---	---	5.2	ENE	0.09	5.2	-26.1	---	---	723.0	0.026	0.000	19.9	1	1
03/25/06	9:13 p	-19.3	-19.2	-19.3	---	---	5.2	ENE	0.09	5.2	-26.1	---	---	723.0	0.026	0.000	19.9	1	1
03/25/06	9:14 p	-19.3	-19.2	-19.3	---	---	5.2	ENE	0.09	5.2	-26.1	---	---	723.1	0.026	0.000	19.9	2	1
03/25/06	9:15 p	-19.2	-19.2	-19.3	---	---	5.2	ENE	0.09	5.2	-26.1	---	---	723.0	0.026	0.000	19.9	1	1
03/25/06	9:16 p	-19.2	-19.2	-19.2	---	---	5.2	ENE	0.09	5.2	-26.0	---	---	723.1	0.026	0.000	19.9	2	1
03/25/06	9:17 p	-19.2	-19.2	-19.2	---	---	5.2	ENE	0.09	5.2	-26.0	---	---	723.1	0.026	0.000	19.9	2	1
03/25/06	9:18 p	-19.2	-19.1	-19.2	---	---	4.3	ENE	0.07	5.2	-25.2	---	---	723.0	0.026	0.000	19.9	1	1
03/25/06	9:19 p	-19.1	-19.1	-19.1	---	---	4.3	ENE	0.07	4.3	-25.1	---	---	723.1	0.026	0.000	19.9	1	1
03/25/06	9:20 p	-19.1	-19.1	-19.1	---	---	4.3	ENE	0.07	4.3	-25.1	---	---	723.1	0.026	0.000	19.9	2	1
03/25/06	9:21 p	-19.1	-19.0	-19.1	---	---	4.3	ENE	0.07	4.3	-25.1	---	---	723.1	0.026	0.000	19.9	2	1
03/25/06	9:22 p	-19.0	-19.0	-19.0	---	---	4.3	ENE	0.07	4.3	-25.0	---	---	723.1	0.026	0.000	19.9	1	1
03/25/06	9:23 p	-19.0	-19.0	-19.0	---	---	4.3	ENE	0.07	4.3	-25.0	---	---	723.2	0.026	0.000	19.9	1	1
03/25/06	9:24 p	-19.0	-18.9	-19.0	---	---	4.3	ENE	0.07	4.3	-25.0	---	---	723.2	0.026	0.000	19.9	1	1
03/25/06	9:25 p	-18.9	-18.9	-19.0	---	---	4.3	ENE	0.07	4.3	-24.9	---	---	723.2	0.026	0.000	19.9	1	1
03/25/06	9:26 p	-18.9	-18.9	-18.9	---	---	4.3	ENE	0.07	5.2	-24.9	---	---	723.2	0.026	0.000	19.9	1	1
03/25/06	9:27 p	-18.9	-18.9	-18.9	---	---	4.3	ENE	0.07	5.2	-24.9	---	---	723.2	0.026	0.000	19.9	2	1
03/25/06	9:28 p	-18.9	-18.9	-18.9	---	---	4.3	ENE	0.07	5.2	-24.9	---	---	723.1	0.026	0.000	19.9	2	1
03/25/06	9:29 p	-18.8	-18.8	-18.8	---	---	4.3	ENE	0.07	5.2	-24.8	---	---	723.1	0.026	0.000	19.9	2	1
03/25/06	9:30 p	-18.8	-18.8	-18.8	---	---	4.3	ENE	0.07	5.2	-24.8	---	---	723.1	0.026	0.000	19.9	2	1
03/25/06	9:31 p	-18.8	-18.8	-18.8	---	---	4.3	ENE	0.07	5.2	-24.8	---	---	723.1	0.026	0.000	19.9	1	1
03/25/06	9:32 p	-18.8	-18.8	-18.8	---	---	4.3	ENE	0.07	5.2	-24.7	---	---	723.1	0.026	0.000	19.9	1	1
03/25/06	9:33 p	-18.8	-18.8	-18.8	---	---	4.3	ENE	0.07	5.2	-24.7	---	---	723.2	0.026	0.000	19.9	1	1
03/25/06	9:34 p	-18.8	-18.7	-18.8	---	---	4.3	ENE	0.07	5.2	-24.7	---	---	723.2	0.026	0.000	19.9	2	1
03/25/06	9:35 p	-18.8	-18.8	-18.8	---	---	4.3	ENE	0.07	5.2	-24.7	---	---	723.2	0.026	0.000	19.9	1	1
03/25/06	9:36 p	-18.7	-18.7	-18.7	---	---	4.3	ENE	0.07	5.2	-24.7	---	---	723.2	0.026	0.000	19.9	2	1
03/25/06	9:37 p	-18.7	-18.7	-18.7	---	---	4.3	ENE	0.07	4.3	-24.7	---	---	723.2	0.026	0.000	19.9	1	1
03/25/06	9:38 p	-18.7	-18.7	-18.7	---	---	4.3	ENE	0.07	5.2	-24.7	---	---	723.2	0.026	0.000	19.9	2	1
03/25/06	9:39 p	-18.7	-18.7	-18.7	---	---	4.3	ENE	0.07	4.3	-24.6	---	---	723.2	0.026	0.000	19.9	2	1
03/25/06	9:40 p	-18.7	-18.7	-18.7	---	---	3.5	ENE	0.06	4.3	-23.7	---	---	723.2	0.026	0.000	19.9	2	1
03/25/06	9:41 p	-18.7	-18.6	-18.7	---	---	3.5	ENE	0.06	4.3	-23.7	---	---	723.2	0.026	0.000	19.9	2	1
03/25/06	9:42 p	-18.6	-18.6	-18.6	---	---	3.5	ENE	0.06	4.3	-23.6	---	---	723.2	0.026	0.000	19.9	1	1
03/25/06	9:43 p	-18.6	-18.6	-18.6	---	---	4.3	ENE	0.07	4.3	-24.6	---	---	723.2	0.026	0.000	19.9	2	1
03/25/06	9:44 p	-18.6	-18.6	-18.6	---	---	3.5	ENE	0.06	4.3	-23.6	---	---	723.2	0.026	0.000	19.9	2	1
03/25/06	9:45 p	-18.6	-18.6	-18.6	---	---	3.5	ENE	0.06	4.3	-23.6	---	---	723.1	0.026	0.000	19.9	1	1
03/25/06	9:46 p	-18.6	-18.6	-18.6	---	---	3.5	ENE	0.06	3.5	-23.6	---	---	723.2	0.026	0.000	19.9	2	1
03/25/06	9:47 p	-18.6	-18.6	-18.6	---	---	2.6	ENE	0.04	2.6	-22.4	---	---	723.2	0.026	0.000	19.9	1	1
03/25/06	9:48 p	-18.6	-18.6	-18.6	---	---	1.7	ENE	0.03	2.6	-20.9	---	---	723.2	0.026	0.000	19.9	2	1
03/25/06	9:49 p	-18.6	-18.5	-18.6	---	---	1.7	ENE	0.03	1.7	-20.9	---	---	723.2	0.026	0.000	19.9	2	1
03/25/06	9:50 p	-18.6	-18.5	-18.6	---	---	0.9	ENE	0.01	1.7	-18.6	---	---	723.2	0.026	0.000	19.9	1	1
03/25/06	9:51 p	-18.6	-18.6	-18.6	---	---	1.7	ENE	0.03	2.6	-20.9	---	---	723.1	0.026	0.000	19.9	2	1
03/25/06	9:52 p	-18.5	-18.5	-18.6	---	---	1.7	ENE	0.03	2.6	-20.8	---	---	723.2	0.026	0.000	19.9	2	1
03/25/06	9:53 p	-18.6	-18.5	-18.6	---	---	2.6	ENE	0.04	3.5	-22.4	---	---	723.3	0.026	0.000	19.9	1	1
03/25/06	9:54 p	-18.5	-18.5	-18.6	---	---	2.6	ENE	0.04	3.5	-22.4	---	---	723.2	0.026	0.000	19.9	1	1
03/25/06	9:55 p	-18.6	-18.5	-18.6	---	---	2.6	ENE	0.04	3.5	-22.4	---	---	723.2	0.026	0.000	19.9	1	1
03/25/06	9:56 p	-18.5	-18.5	-18.5	---	---	2.6	ENE	0.04	3.5	-22.4	---	---	723.2	0.026	0.000	19.9	1	1
03/25/06	9:57 p	-18.5	-18.5	-18.5	---	---	2.6	ENE	0.04	3.5	-22.4	---	---	723.2	0.026	0.000	19.9	2	1
03/25/06	9:58 p	-18.5	-18.5	-18.5	---	---	3.5	ENE	0.06	3.5	-23.5	---	---	723.2	0.026	0.000	19.9	1	1
03/25/06	9:59 p	-18.5	-18.5	-18.5	---	---	3.5	ENE	0.06	4.3	-23.5	---	---	723.2	0.026	0.000	19.9	1	1
03/25/06	10:00 p	-18.5	-18.5	-18.5	---	---	3.5	ENE	0.06	3.5	-23.5	---	---	723.2	0.026	0.000	19.9	1	1
03/25/06	10:01 p	-18.4	-18.4	-18.4	---	---	2.6	ENE	0.04	3.5	-22.3	---	---	723.2	0.026	0.000	19.9	2	1
03/25/06	10:02 p	-18.4	-18.4	-18.4	---	---	3.5	ENE	0.06	3.5	-23.4	---	---	723.3	0.026	0.000	19.9	1	1
03/25/06	10:03 p	-18.4	-18.4	-18.4	---	---	3.5	NE	0.06	4.3	-23.4	---	---	723.3	0.026	0.000	19.9	1	1
03/25/06	10:04 p	-18.4	-18.4	-18.4	---	---	3.5	NE	0.06	4.3	-23.4	---	---	723.2	0.026	0.000	19.9	2	1
03/25/06	10:05 p	-18.4	-18.4	-18.4	---	---	3.5	NE	0.06	4.3	-23.4	---	---	723.3	0.026	0.000	19.9	1	1
03/25/06	10:06 p	-18.3	-18.3	-18.4	---	---	4.3	NNE	0.07	5.2	-24.2	---	---	723.3	0.025	0.000	19.9	1	1
03/25/06	10:07 p	-18.3	-18.3	-18.3	---	---	4.3	N	0.07	6.1	-24.2	---	---	723.3	0.025	0.000	19.9	1	1
03/25/06	10:08 p	-18.3	-18.3	-18.3	---	---	4.3	N	0.07	6.1	-24.2	---	---	723.2	0.025	0.000	19.9	1	1
03/25/06	10:09 p	-18.3	-18.3	-18.3	---	---	4.3	N	0.07	5.2	-24.2	---	---	723.2	0.025	0.000	19.9	2	1
03/25/06	10:10 p	-18.3	-18.2	-18.3	---	---	4.3	N	0.07	5.2	-24.2	---	---	723.2	0.025	0.000	19.9	2	1
03/25/06	10:11 p	-18.2	-18.2	-18.2	---	---	5.2	N	0.09	5.2	-24.8	---	---	723.2	0.025	0.000	19.9	1	1
03/25/06	10:12 p	-18.2	-18.2	-18.2	---	---	4.3	N	0.07	5.2	-24.0	---	---	723.2	0.025	0.000	19.9	2	1
03/25/06	10:13 p	-18.2	-18.1	-18.2	---	---	4.3	N	0.07	4.3	-24.0	---	---	723.3	0.025	0.000	19.9	2	1
03/25/06	10:14 p	-18.1	-18.1	-18.1	---	---	4.3	N	0.07	5.2	-23.9	---	---	723.2	0.025	0.000	19.9	1	1
03/25/06	10:15 p	-18.1	-18.1	-18.1	---	---	4.3	N	0.07	5.2	-23.9	---	---	723.3	0.025	0.000	19.9	1	1
03/25/06	10:16 p	-18.1	-18.1	-18.1	---	---	3.5	N	0.06	5.2	-23.0	---	---	723.2	0.025	0.000	19.9	2	1
03/25/06	10:17 p	-18.1	-18.0	-18.1	---	---	4.3	N	0.07	5.2	-23.9	---	---	723.3	0.025	0.000	19.9	2	1
03/25/06	10:18 p	-18.0	-18.0	-18.0	---	---	5.2	N	0.09	5.2	-24.6	---	---	723.2	0.025	0.000	19.9	2	1
03/25/06	10:19 p	-18.0	-17.9	-18.0	---	---	5.2	N	0.09	6.1	-24.6	---	---	723.3	0.025	0.000	19.9	2	1
03/25/06	10:20 p	-17.9	-17.9	-17.9	---	---	6.1	N	0.10	7.0	-25.2	---	---	723.3	0.025	0.000	19.9	1	1
03/25/06	10:21 p	-17.9	-17.9	-17.9	---	---	6.1	N	0.10	6.1	-25.2	---	---	723.2	0.025	0.000	19.9	1	1
03/25/06	10:22 p	-17.9	-17.9	-17.9	---	---	5.2	N	0.09	5.2	-24.4	---	---	723.2	0.025	0.000	19.9	2	1
03/25/06	10:23 p	-17.9	-17.9	-17.9	---	---	5.2	N	0.09	6.1	-24.4	---	---	723.2	0.025	0.000	19.9	2	1
03/25/06	10:24 p	-17.9	-17.8	-17.9	---	---	5.2	N	0.09	5.2	-24.4	---	---	723.3	0.025	0.000	19.9	2	1
03/25/06	10:25 p	-17.8	-17.8	-17.9	---	---	5.2	N	0.09	5.2	-24.4	---	---	723.2	0.025	0.000	19.9	2	1
03/25/06	10:26 p	-17.8	-17.8	-17.9	---	---	6.1	N	0.10	6.1	-25.1	---	---	723.3	0.025	0.000	19.9	1	1
03/25/06	10:27 p	-17.8	-17.8	-17.9	---	---	6.1	N	0.10	7.0	-25.1	---	---	723.3	0.025	0.000	19.9	2	1
03/25/06	10:28 p	-17.8	-17.8	-17.8	---	---	7.0	N	0.12	7.8	-25.6	---	---	723.3	0.025	0.000	19.9	1	1
03/25/06	10:29 p	-17.8	-17.8	-17.9	---	---	7.0	N	0.12	7.8	-25.6	---	---	723.2	0.025	0.000	19.9	2	1
03/25/06	10:30 p	-17.9	-17.8	-17.9	---	---	7.8	N	0.13	8.7	-26.2	---	---	723.3	0.025	0.000	19.9	1	1
03/25/06	10:31 p	-17.9	-17.8	-17.9	---	---	7.8	N	0.13	8.7	-26.2	---	---	723.3	0.025	0.000	19.9	2	1
03/25/06	10:32 p	-17.9	-17.9	-17.9	---	---	6.1	N	0.10	7.8	-25.1	---	---	723.3	0.025	0.000	19.9	2	1
03/25/06	10:33 p	-17.9	-17.9	-17.9	---	---	1.7	N	0.03	3.5	-20.2	---	---	723.2	0.025	0.000	19.9	1	1
03/25/06	10:34 p	-17.9	-17.9	-17.9	---	---	1.7	N	0.03	2.6	-20.2	---	---	723.3	0.025	0.000	19.9	2	1
03/25/06	10:35 p	-17.9	-17.9	-17.9	---	---	2.6	N	0.04	3.5	-21.7	---	---	723.2	0.025	0.000	19.9	2	1
03/25/06	10:36 p	-18.0	-17.9	-18.0	---	---	3.5	N	0.06	4.3	-22.9	---	---	723.2	0.025	0.000	19.9	1	1
03/25/06	10:37 p	-18.0	-18.0	-18.0	---	---	2.6	N	0.04	3.5	-21.8	---	---	723.3	0.025	0.000	19.9	2	1
03/25/06	10:38 p	-18.1	-18.0	-18.1	---	---	2.6	N	0.04	3.5	-21.8	---	---	723.3	0.025	0.000	19.9	2	1
03/25/06	10:39 p	-18.1	-18.1	-18.1	---	---	1.7	N	0.03	3.5	-20.4	---	---	723.2	0.025	0.000	19.9	1	1
03/25/06	10:40 p	-18.1	-18.1	-18.1	---	---	4.3	N	0.07	5.2	-23.9	---	---	723.3	0.025	0.000	19.9	2	1
03/25/06	10:41 p	-18.1	-18.1	-18.1	---	---	7.0	N	0.12	8.7	-26.0	---	---	723.3	0.025	0.000	19.9	2	1
03/25/06	10:42 p	-18.1	-18.1	-18.2	---	---	7.8	N	0.13	8.7	-26.5	---	---	723.2	0.025	0.000	19.9	2	1
03/25/06	10:43 p	-18.2	-18.2	-18.2	---	---	8.7	N	0.14	9.6	-27.1	---	---	723.3	0.025	0.000	19.9	2	1
03/25/06	10:44 p	-18.2	-18.2	-18.3	---	---	8.7	N	0.14	9.6	-27.1	---	---	723.3	0.025	0.000	19.9	2	1
03/25/06	10:45 p	-18.3	-18.3	-18.3	---	---	8.7	N	0.14	9.6	-27.2	---	---	723.3	0.025	0.000	19.9	1	1
03/25/06	10:46 p	-18.3	-18.3	-18.3	---	---	9.6	N	0.16	9.6	-27.7	---	---	723.3	0.025	0.000	19.9	1	1
03/25/06	10:47 p	-18.4	-18.3	-18.4	---	---	9.6	N	0.16	9.6	-27.8	---	---	723.2	0.026	0.000	19.9	2	1
03/25/06	10:48 p	-18.4	-18.4	-18.4	---	---	8.7	N	0.14	9.6	-27.3	---	---	723.3	0.026	0.000	19.9	1	1
03/25/06	10:49 p	-18.4	-18.4	-18.4	---	---	7.8	N	0.13	8.7	-26.8	---	---	723.3	0.026	0.000	19.9	2	1
03/25/06	10:50 p	-18.4	-18.4	-18.4	---	---	7.8	N	0.13	8.7	-26.8	---	---	723.2	0.026	0.000	20.0	1	1
03/25/06	10:51 p	-18.4	-18.3	-18.4	---	---	7.8	N	0.13	8.7	-26.8	---	---	723.2	0.026	0.000	20.0	2	1
03/25/06	10:52 p	-18.3	-18.3	-18.3	---	---	7.0	N	0.12	8.7	-26.2	---	---	723.2	0.025	0.000	19.9	2	1
03/25/06	10:53 p	-18.3	-18.3	-18.3	---	---	7.0	N	0.12	7.8	-26.2	---	---	723.2	0.025	0.000	20.0	2	1
03/25/06	10:54 p	-18.3	-18.3	-18.3	---	---	7.0	N	0.12	8.7	-26.2	---	---	723.3	0.025	0.000	20.0	2	1
03/25/06	10:55 p	-18.3	-18.3	-18.3	---	---	7.0	N	0.12	7.8	-26.2	---	---	723.3	0.025	0.000	20.0	2	1
03/25/06	10:56 p	-18.2	-18.2	-18.3	---	---	7.0	N	0.12	8.7	-26.1	---	---	723.2	0.025	0.000	20.0	2	1
03/25/06	10:57 p	-18.2	-18.2	-18.2	---	---	7.0	N	0.12	8.7	-26.1	---	---	723.3	0.025	0.000	20.0	1	1
03/25/06	10:58 p	-18.2	-18.2	-18.2	---	---	7.0	N	0.12	7.8	-26.1	---	---	723.3	0.025	0.000	20.0	2	1
03/25/06	10:59 p	-18.2	-18.2	-18.2	---	---	6.1	N	0.10	7.0	-25.4	---	---	723.2	0.025	0.000	19.9	2	1
03/25/06	11:00 p	-18.1	-18.1	-18.2	---	---	4.3	N	0.07	6.1	-23.9	---	---	723.3	0.025	0.000	19.9	1	1
03/25/06	11:01 p	-18.1	-18.1	-18.1	---	---	1.7	N	0.03	4.3	-20.4	---	---	723.3	0.025	0.000	19.9	1	1
03/25/06	11:02 p	-18.1	-18.1	-18.1	---	---	0.0	N	0.00	1.7	-18.0	---	---	723.2	0.025	0.000	19.9	1	1
03/25/06	11:03 p	-18.1	-18.1	-18.1	---	---	1.7	N	0.03	2.6	-20.4	---	---	723.2	0.025	0.000	19.9	2	1
03/25/06	11:04 p	-18.0	-18.0	-18.0	---	---	2.6	N	0.04	2.6	-21.8	---	---	723.2	0.025	0.000	19.9	1	1
03/25/06	11:05 p	-18.0	-18.0	-18.0	---	---	1.7	NW	0.03	2.6	-20.3	---	---	723.2	0.025	0.000	19.9	1	1
03/25/06	11:06 p	-18.0	-18.0	-18.1	---	---	1.7	NW	0.03	1.7	-20.3	---	---	723.2	0.025	0.000	19.9	2	1
03/25/06	11:07 p	-18.1	-18.0	-18.1	---	---	1.7	NW	0.03	1.7	-20.4	---	---	723.3	0.025	0.000	19.9	1	1
03/25/06	11:08 p	-18.1	-18.0	-18.1	---	---	0.0	NW	0.00	0.9	-18.0	---	---	723.3	0.025	0.000	19.9	1	1
03/25/06	11:09 p	-18.0	-18.0	-18.1	---	---	0.9	NW	0.01	1.7	-17.9	---	---	723.3	0.025	0.000	19.9	2	1
03/25/06	11:10 p	-18.0	-18.0	-18.0	---	---	1.7	NW	0.03	2.6	-20.3	---	---	723.2	0.025	0.000	19.9	2	1
03/25/06	11:11 p	-18.0	-17.9	-18.0	---	---	1.7	NW	0.03	1.7	-20.3	---	---	723.3	0.025	0.000	19.9	2	1
03/25/06	11:12 p	-17.9	-17.9	-17.9	---	---	0.9	NW	0.01	1.7	-17.9	---	---	723.2	0.025	0.000	19.9	2	1
03/25/06	11:13 p	-17.9	-17.9	-17.9	---	---	0.9	NW	0.01	2.6	-17.8	---	---	723.3	0.025	0.000	19.9	2	1
03/25/06	11:14 p	-17.9	-17.9	-17.9	---	---	0.9	NW	0.01	1.7	-17.8	---	---	723.3	0.025	0.000	19.9	1	1
03/25/06	11:15 p	-17.8	-17.8	-17.9	---	---	0.9	NW	0.01	1.7	-17.8	---	---	723.3	0.025	0.000	19.9	2	1
03/25/06	11:16 p	-17.8	-17.8	-17.8	---	---	0.0	---	0.00	0.0	-17.8	---	---	723.3	0.025	0.000	19.9	2	1
03/25/06	11:17 p	-17.8	-17.7	-17.8	---	---	0.0	NW	0.00	0.9	-17.8	---	---	723.4	0.025	0.000	19.9	2	1
03/25/06	11:18 p	-17.7	-17.7	-17.7	---	---	0.0	NW	0.00	0.9	-17.7	---	---	723.2	0.025	0.000	19.9	1	1
03/25/06	11:19 p	-17.6	-17.6	-17.7	---	---	0.0	---	0.00	0.9	-17.6	---	---	723.3	0.025	0.000	19.9	2	1
03/25/06	11:20 p	-17.6	-17.6	-17.6	---	---	0.0	---	0.00	0.0	-17.6	---	---	723.3	0.025	0.000	19.9	2	1
03/25/06	11:21 p	-17.6	-17.5	-17.6	---	---	0.0	---	0.00	0.0	-17.6	---	---	723.3	0.025	0.000	19.9	2	1
03/25/06	11:22 p	-17.4	-17.4	-17.5	---	---	0.0	NW	0.00	1.7	-17.4	---	---	723.3	0.025	0.000	19.9	2	1
03/25/06	11:23 p	-17.4	-17.3	-17.4	---	---	1.7	NW	0.03	2.6	-19.6	---	---	723.2	0.025	0.000	19.9	2	1
03/25/06	11:24 p	-17.3	-17.3	-17.3	---	---	0.9	NW	0.01	1.7	-17.3	---	---	723.3	0.025	0.000	19.9	2	1
03/25/06	11:25 p	-17.2	-17.2	-17.3	---	---	0.0	NW	0.00	0.9	-17.2	---	---	723.2	0.025	0.000	19.9	2	1
03/25/06	11:26 p	-17.2	-17.1	-17.2	---	---	0.0	---	0.00	0.0	-17.2	---	---	723.3	0.025	0.000	19.9	2	1
03/25/06	11:27 p	-17.1	-17.0	-17.1	---	---	0.0	---	0.00	0.9	-17.1	---	---	723.3	0.025	0.000	19.9	2	1
03/25/06	11:28 p	-16.9	-16.9	-17.0	---	---	0.0	---	0.00	0.0	-16.9	---	---	723.3	0.024	0.000	19.9	2	1
03/25/06	11:29 p	-16.9	-16.8	-16.9	---	---	0.0	---	0.00	0.0	-16.9	---	---	723.3	0.024	0.000	19.9	2	1
03/25/06	11:30 p	-16.8	-16.7	-16.8	---	---	0.9	NW	0.01	1.7	-16.8	---	---	723.2	0.024	0.000	19.9	2	1
03/25/06	11:31 p	-16.7	-16.7	-16.7	---	---	0.0	NW	0.00	0.9	-16.7	---	---	723.3	0.024	0.000	20.0	2	1
03/25/06	11:32 p	-16.6	-16.5	-16.6	---	---	0.0	NW	0.00	0.9	-16.6	---	---	723.4	0.024	0.000	20.0	2	1
03/25/06	11:33 p	-16.5	-16.4	-16.5	---	---	0.0	---	0.00	0.0	-16.5	---	---	723.3	0.024	0.000	20.0	2	1
03/25/06	11:34 p	-16.4	-16.3	-16.4	---	---	0.0	NW	0.00	0.9	-16.4	---	---	723.3	0.024	0.000	20.0	2	1
03/25/06	11:35 p	-16.3	-16.3	-16.3	---	---	0.9	NW	0.01	1.7	-16.3	---	---	723.3	0.024	0.000	20.0	2	1
03/25/06	11:36 p	-16.2	-16.2	-16.2	---	---	1.7	NW	0.03	2.6	-18.3	---	---	723.3	0.024	0.000	20.0	2	1
03/25/06	11:37 p	-16.2	-16.1	-16.2	---	---	2.6	NW	0.04	3.5	-19.7	---	---	723.3	0.024	0.000	20.0	2	1
03/25/06	11:38 p	-16.0	-15.9	-16.1	---	---	1.7	NW	0.03	2.6	-18.1	---	---	723.3	0.024	0.000	20.0	2	1
03/25/06	11:39 p	-15.9	-15.9	-15.9	---	---	2.6	N	0.04	3.5	-19.4	---	---	723.2	0.024	0.000	20.1	2	1
03/25/06	11:40 p	-15.8	-15.8	-15.8	---	---	2.6	NE	0.04	3.5	-19.3	---	---	723.3	0.024	0.000	20.1	2	1
03/25/06	11:41 p	-15.7	-15.7	-15.7	---	---	2.6	NE	0.04	3.5	-19.2	---	---	723.3	0.024	0.000	20.1	2	1
03/25/06	11:42 p	-15.7	-15.6	-15.7	---	---	3.5	NE	0.06	3.5	-20.2	---	---	723.3	0.024	0.000	20.1	2	1
03/25/06	11:43 p	-15.6	-15.5	-15.6	---	---	3.5	NE	0.06	3.5	-20.1	---	---	723.3	0.024	0.000	20.1	2	1
03/25/06	11:44 p	-15.4	-15.4	-15.5	---	---	3.5	NE	0.06	3.5	-19.9	---	---	723.2	0.023	0.000	20.1	2	1
03/25/06	11:45 p	-15.4	-15.3	-15.4	---	---	3.5	ENE	0.06	3.5	-19.9	---	---	723.3	0.023	0.000	20.1	2	1
03/25/06	11:46 p	-15.3	-15.2	-15.3	---	---	3.5	ENE	0.06	3.5	-19.8	---	---	723.3	0.023	0.000	20.1	2	1
03/25/06	11:47 p	-15.2	-15.1	-15.2	---	---	3.5	ENE	0.06	3.5	-19.7	---	---	723.4	0.023	0.000	20.1	2	1
03/25/06	11:48 p	-15.1	-15.0	-15.1	---	---	2.6	ENE	0.04	3.5	-18.4	---	---	723.3	0.023	0.000	20.0	2	1
03/25/06	11:49 p	-15.0	-14.9	-15.0	---	---	2.6	ENE	0.04	3.5	-18.4	---	---	723.3	0.023	0.000	20.0	2	1
03/25/06	11:50 p	-14.8	-14.8	-14.9	---	---	3.5	ENE	0.06	4.3	-19.3	---	---	723.3	0.023	0.000	20.0	2	1
03/25/06	11:51 p	-14.8	-14.7	-14.8	---	---	2.6	ENE	0.04	3.5	-18.2	---	---	723.3	0.023	0.000	20.0	2	1
03/25/06	11:52 p	-14.6	-14.6	-14.7	---	---	1.7	ENE	0.03	2.6	-16.6	---	---	723.3	0.023	0.000	20.0	2	1
03/25/06	11:53 p	-14.5	-14.5	-14.6	---	---	2.6	ENE	0.04	3.5	-17.8	---	---	723.4	0.023	0.000	20.0	2	1
03/25/06	11:54 p	-14.4	-14.4	-14.4	---	---	2.6	ENE	0.04	2.6	-17.8	---	---	723.3	0.023	0.000	20.0	2	1
03/25/06	11:55 p	-14.3	-14.3	-14.4	---	---	2.6	ENE	0.04	2.6	-17.7	---	---	723.3	0.023	0.000	20.0	2	1
03/25/06	11:56 p	-14.2	-14.2	-14.3	---	---	1.7	ENE	0.03	2.6	-16.2	---	---	723.3	0.023	0.000	20.0	2	1
03/25/06	11:57 p	-14.2	-14.1	-14.2	---	---	1.7	ENE	0.03	2.6	-16.2	---	---	723.3	0.023	0.000	20.0	2	1
03/25/06	11:58 p	-14.1	-14.0	-14.1	---	---	1.7	ENE	0.03	1.7	-16.0	---	---	723.3	0.022	0.000	20.0	2	1
03/25/06	11:59 p	-13.9	-13.9	-14.0	---	---	0.9	ENE	0.01	1.7	-13.9	---	---	723.2	0.022	0.000	20.0	2	1
03/26/06	12:00 a	-13.9	-13.9	-13.9	---	---	0.9	ENE	0.01	1.7	-13.9	---	---	723.3	0.022	0.000	20.0	2	1
03/26/06	12:01 a	-13.8	-13.8	-13.9	---	---	0.9	ENE	0.01	1.7	-13.8	---	---	723.3	0.022	0.000	20.0	2	1
03/26/06	12:02 a	-13.7	-13.7	-13.7	---	---	1.7	ENE	0.03	1.7	-15.7	---	---	723.2	0.022	0.000	20.0	2	1
03/26/06	12:03 a	-13.6	-13.6	-13.6	---	---	1.7	ENE	0.03	2.6	-15.6	---	---	723.2	0.022	0.000	20.0	2	1
03/26/06	12:04 a	-13.5	-13.5	-13.6	---	---	1.7	ENE	0.03	2.6	-15.4	---	---	723.1	0.022	0.000	20.0	2	1
03/26/06	12:05 a	-13.4	-13.4	-13.4	---	---	0.9	ENE	0.01	1.7	-13.4	---	---	723.2	0.022	0.000	20.0	2	1
03/26/06	12:06 a	-13.3	-13.3	-13.4	---	---	0.9	ENE	0.01	1.7	-13.3	---	---	723.2	0.022	0.000	20.0	2	1
03/26/06	12:07 a	-13.2	-13.2	-13.3	---	---	1.7	ENE	0.03	2.6	-15.1	---	---	723.2	0.022	0.000	20.0	2	1
03/26/06	12:08 a	-13.2	-13.2	-13.2	---	---	1.7	ENE	0.03	1.7	-15.1	---	---	723.2	0.022	0.000	20.0	2	1
03/26/06	12:09 a	-13.1	-13.1	-13.2	---	---	1.7	ENE	0.03	2.6	-15.0	---	---	723.2	0.022	0.000	20.0	2	1
03/26/06	12:10 a	-13.0	-13.0	-13.1	---	---	2.6	ENE	0.04	2.6	-16.2	---	---	723.3	0.022	0.000	20.0	2	1
03/26/06	12:11 a	-12.9	-12.8	-13.0	---	---	2.6	ENE	0.04	3.5	-16.1	---	---	723.2	0.022	0.000	20.0	2	1
03/26/06	12:12 a	-12.8	-12.8	-12.8	---	---	1.7	ENE	0.03	1.7	-14.7	---	---	723.2	0.022	0.000	20.1	2	1
03/26/06	12:13 a	-12.8	-12.8	-12.8	---	---	1.7	ENE	0.03	1.7	-14.6	---	---	723.2	0.022	0.000	20.0	2	1
03/26/06	12:14 a	-12.7	-12.7	-12.8	---	---	1.7	ENE	0.03	2.6	-14.6	---	---	723.2	0.022	0.000	20.1	2	1
03/26/06	12:15 a	-12.7	-12.6	-12.7	---	---	0.9	ENE	0.01	1.7	-12.7	---	---	723.2	0.022	0.000	20.1	2	1
03/26/06	12:16 a	-12.6	-12.6	-12.6	---	---	0.0	ENE	0.00	0.9	-12.6	---	---	723.2	0.021	0.000	20.1	2	1
03/26/06	12:17 a	-12.5	-12.4	-12.6	---	---	0.9	ENE	0.01	1.7	-12.5	---	---	723.2	0.021	0.000	20.1	2	1
03/26/06	12:18 a	-12.4	-12.4	-12.4	---	---	0.9	ENE	0.01	1.7	-12.4	---	---	723.2	0.021	0.000	20.1	2	1
03/26/06	12:19 a	-12.3	-12.2	-12.4	---	---	0.9	ENE	0.01	1.7	-12.3	---	---	723.2	0.021	0.000	20.1	2	1
03/26/06	12:20 a	-12.2	-12.2	-12.2	---	---	0.9	ENE	0.01	1.7	-12.2	---	---	723.3	0.021	0.000	20.1	2	1
03/26/06	12:21 a	-12.1	-12.1	-12.1	---	---	0.9	ENE	0.01	2.6	-12.1	---	---	723.2	0.021	0.000	20.1	2	1
03/26/06	12:22 a	-12.1	-12.0	-12.1	---	---	1.7	ENE	0.03	1.7	-13.8	---	---	723.2	0.021	0.000	20.1	2	1
03/26/06	12:23 a	-11.9	-11.9	-12.0	---	---	0.9	ENE	0.01	1.7	-11.9	---	---	723.2	0.021	0.000	20.1	2	1
03/26/06	12:24 a	-11.9	-11.9	-11.9	---	---	0.9	ENE	0.01	1.7	-11.9	---	---	723.2	0.021	0.000	20.1	2	1
03/26/06	12:25 a	-11.8	-11.8	-11.9	---	---	1.7	ENE	0.03	2.6	-13.6	---	---	723.2	0.021	0.000	20.1	2	1
03/26/06	12:26 a	-11.8	-11.7	-11.8	---	---	1.7	ENE	0.03	2.6	-13.5	---	---	723.3	0.021	0.000	20.1	2	1
03/26/06	12:27 a	-11.7	-11.7	-11.7	---	---	1.7	ENE	0.03	1.7	-13.4	---	---	723.3	0.021	0.000	20.1	2	1
03/26/06	12:28 a	-11.7	-11.6	-11.7	---	---	1.7	ENE	0.03	2.6	-13.4	---	---	723.2	0.021	0.000	20.1	2	1
03/26/06	12:29 a	-11.6	-11.6	-11.6	---	---	1.7	ENE	0.03	1.7	-13.3	---	---	723.2	0.021	0.000	20.1	2	1
03/26/06	12:30 a	-11.6	-11.5	-11.6	---	---	1.7	ENE	0.03	2.6	-13.3	---	---	723.3	0.021	0.000	20.1	2	1
03/26/06	12:31 a	-11.5	-11.4	-11.5	---	---	1.7	ENE	0.03	2.6	-13.2	---	---	723.2	0.021	0.000	20.1	2	1
03/26/06	12:32 a	-11.4	-11.4	-11.4	---	---	1.7	ENE	0.03	2.6	-13.1	---	---	723.2	0.021	0.000	20.1	2	1
03/26/06	12:33 a	-11.4	-11.3	-11.4	---	---	1.7	ENE	0.03	1.7	-13.1	---	---	723.2	0.021	0.000	20.1	2	1
03/26/06	12:34 a	-11.3	-11.3	-11.3	---	---	0.9	ENE	0.01	1.7	-11.3	---	---	723.2	0.021	0.000	20.1	2	1
03/26/06	12:35 a	-11.3	-11.3	-11.3	---	---	0.9	ENE	0.01	1.7	-11.3	---	---	723.2	0.021	0.000	20.1	2	1
03/26/06	12:36 a	-11.2	-11.2	-11.3	---	---	0.9	ENE	0.01	1.7	-11.2	---	---	723.2	0.021	0.000	20.1	2	1
03/26/06	12:37 a	-11.2	-11.2	-11.2	---	---	0.9	ENE	0.01	1.7	-11.2	---	---	723.3	0.021	0.000	20.1	2	1
03/26/06	12:38 a	-11.2	-11.2	-11.2	---	---	0.9	ENE	0.01	1.7	-11.2	---	---	723.2	0.020	0.000	20.1	2	1
03/26/06	12:39 a	-11.1	-11.1	-11.2	---	---	0.9	ENE	0.01	1.7	-11.1	---	---	723.2	0.020	0.000	20.1	2	1
03/26/06	12:40 a	-11.1	-11.1	-11.1	---	---	0.9	ENE	0.01	1.7	-11.1	---	---	723.3	0.020	0.000	20.1	2	1
03/26/06	12:41 a	-11.1	-11.0	-11.1	---	---	0.9	ENE	0.01	0.9	-11.1	---	---	723.2	0.020	0.000	20.1	2	1
03/26/06	12:42 a	-11.0	-11.0	-11.0	---	---	0.9	ENE	0.01	1.7	-11.0	---	---	723.3	0.020	0.000	20.1	2	1
03/26/06	12:43 a	-10.9	-10.9	-11.0	---	---	0.9	ENE	0.01	1.7	-10.9	---	---	723.2	0.020	0.000	20.1	2	1
03/26/06	12:44 a	-10.9	-10.9	-10.9	---	---	0.9	ENE	0.01	1.7	-10.9	---	---	723.2	0.020	0.000	20.1	2	1
03/26/06	12:45 a	-10.9	-10.9	-10.9	---	---	0.9	ENE	0.01	1.7	-10.9	---	---	723.2	0.020	0.000	20.1	2	1
03/26/06	12:46 a	-10.9	-10.9	-10.9	---	---	0.9	ENE	0.01	1.7	-10.9	---	---	723.2	0.020	0.000	20.1	2	1
03/26/06	12:47 a	-10.9	-10.9	-11.0	---	---	0.9	ENE	0.01	1.7	-10.9	---	---	723.3	0.020	0.000	20.1	2	1
03/26/06	12:48 a	-10.9	-10.9	-10.9	---	---	0.9	ENE	0.01	1.7	-10.9	---	---	723.3	0.020	0.000	20.1	2	1
03/26/06	12:49 a	-10.9	-10.9	-10.9	---	---	1.7	ENE	0.03	1.7	-12.6	---	---	723.2	0.020	0.000	20.1	2	1
03/26/06	12:50 a	-10.9	-10.9	-10.9	---	---	0.9	ENE	0.01	1.7	-10.9	---	---	723.2	0.020	0.000	20.1	2	1
03/26/06	12:51 a	-10.9	-10.8	-10.9	---	---	0.9	ENE	0.01	1.7	-10.9	---	---	723.2	0.020	0.000	20.1	2	1
03/26/06	12:52 a	-10.8	-10.8	-10.9	---	---	1.7	ENE	0.03	1.7	-12.5	---	---	723.2	0.020	0.000	20.1	2	1
03/26/06	12:53 a	-10.8	-10.8	-10.8	---	---	1.7	ENE	0.03	1.7	-12.5	---	---	723.1	0.020	0.000	20.1	2	1
03/26/06	12:54 a	-10.8	-10.8	-10.8	---	---	0.9	ENE	0.01	1.7	-10.8	---	---	723.1	0.020	0.000	20.1	2	1
03/26/06	12:55 a	-10.8	-10.8	-10.8	---	---	1.7	ENE	0.03	1.7	-12.5	---	---	723.2	0.020	0.000	20.1	2	1
03/26/06	12:56 a	-10.8	-10.8	-10.8	---	---	0.9	ENE	0.01	1.7	-10.8	---	---	723.1	0.020	0.000	20.1	2	1
03/26/06	12:57 a	-10.8	-10.8	-10.8	---	---	0.9	ENE	0.01	1.7	-10.8	---	---	723.1	0.020	0.000	20.1	2	1
03/26/06	12:58 a	-10.8	-10.8	-10.8	---	---	0.9	ENE	0.01	1.7	-10.8	---	---	723.1	0.020	0.000	20.1	2	1
03/26/06	12:59 a	-10.8	-10.8	-10.8	---	---	0.9	ENE	0.01	1.7	-10.8	---	---	723.2	0.020	0.000	20.1	2	1
03/26/06	1:00 a	-10.8	-10.8	-10.8	---	---	0.9	ENE	0.01	1.7	-10.8	---	---	723.2	0.020	0.000	20.2	2	1
03/26/06	1:01 a	-10.8	-10.8	-10.8	---	---	0.9	ENE	0.01	1.7	-10.8	---	---	723.1	0.020	0.000	20.2	2	1
03/26/06	1:02 a	-10.8	-10.7	-10.8	---	---	0.9	ENE	0.01	1.7	-10.8	---	---	723.1	0.020	0.000	20.2	2	1
03/26/06	1:03 a	-10.7	-10.7	-10.7	---	---	0.9	ENE	0.01	1.7	-10.7	---	---	723.2	0.020	0.000	20.2	2	1
03/26/06	1:04 a	-10.7	-10.7	-10.7	---	---	1.7	ENE	0.03	1.7	-12.3	---	---	723.2	0.020	0.000	20.2	2	1
03/26/06	1:05 a	-10.7	-10.7	-10.7	---	---	1.7	ENE	0.03	2.6	-12.3	---	---	723.1	0.020	0.000	20.2	2	1
03/26/06	1:06 a	-10.6	-10.6	-10.7	---	---	1.7	ENE	0.03	2.6	-12.2	---	---	723.2	0.020	0.000	20.2	2	1
03/26/06	1:07 a	-10.6	-10.5	-10.6	---	---	2.6	ENE	0.04	2.6	-13.4	---	---	723.1	0.020	0.000	20.2	2	1
03/26/06	1:08 a	-10.5	-10.5	-10.5	---	---	1.7	ENE	0.03	2.6	-12.1	---	---	723.2	0.020	0.000	20.2	2	1
03/26/06	1:09 a	-10.4	-10.4	-10.4	---	---	1.7	ENE	0.03	2.6	-12.1	---	---	723.1	0.020	0.000	20.2	2	1
03/26/06	1:10 a	-10.4	-10.4	-10.4	---	---	2.6	ENE	0.04	2.6	-13.2	---	---	723.1	0.020	0.000	20.2	2	1
03/26/06	1:11 a	-10.3	-10.3	-10.3	---	---	1.7	ENE	0.03	2.6	-11.9	---	---	723.1	0.020	0.000	20.2	2	1
03/26/06	1:12 a	-10.3	-10.3	-10.3	---	---	1.7	ENE	0.03	2.6	-11.9	---	---	723.1	0.020	0.000	20.2	2	1
03/26/06	1:13 a	-10.2	-10.2	-10.2	---	---	2.6	ENE	0.04	2.6	-13.1	---	---	723.2	0.020	0.000	20.2	2	1
03/26/06	1:14 a	-10.2	-10.2	-10.2	---	---	1.7	ENE	0.03	2.6	-11.8	---	---	723.1	0.020	0.000	20.2	2	1
03/26/06	1:15 a	-10.2	-10.2	-10.2	---	---	1.7	ENE	0.03	2.6	-11.7	---	---	723.1	0.020	0.000	20.2	2	1
03/26/06	1:16 a	-10.1	-10.1	-10.1	---	---	0.9	ENE	0.01	1.7	-10.1	---	---	723.2	0.020	0.000	20.2	2	1
03/26/06	1:17 a	-10.1	-10.1	-10.1	---	---	0.9	ENE	0.01	1.7	-10.1	---	---	723.1	0.020	0.000	20.2	2	1
03/26/06	1:18 a	-10.1	-10.0	-10.1	---	---	0.9	ENE	0.01	1.7	-10.1	---	---	723.1	0.020	0.000	20.2	2	1
03/26/06	1:19 a	-10.0	-10.0	-10.0	---	---	0.9	ENE	0.01	1.7	-10.0	---	---	723.2	0.020	0.000	20.2	2	1
03/26/06	1:20 a	-9.9	-9.9	-9.9	---	---	0.0	ENE	0.00	0.9	-9.9	---	---	723.2	0.020	0.000	20.2	2	1
03/26/06	1:21 a	-9.9	-9.8	-9.9	---	---	0.9	ENE	0.01	1.7	-9.9	---	---	723.2	0.020	0.000	20.2	2	1
03/26/06	1:22 a	-9.8	-9.8	-9.8	---	---	0.0	ENE	0.00	0.9	-9.8	---	---	723.1	0.020	0.000	20.2	2	1
03/26/06	1:23 a	-9.8	-9.8	-9.8	---	---	0.0	ENE	0.00	0.9	-9.8	---	---	723.2	0.020	0.000	20.2	2	1
03/26/06	1:24 a	-9.7	-9.7	-9.7	---	---	0.9	ENE	0.01	0.9	-9.7	---	---	723.2	0.019	0.000	20.2	2	1
03/26/06	1:25 a	-9.7	-9.6	-9.7	---	---	0.9	ENE	0.01	0.9	-9.7	---	---	723.2	0.019	0.000	20.2	2	1
03/26/06	1:26 a	-9.6	-9.6	-9.6	---	---	0.9	ENE	0.01	0.9	-9.6	---	---	723.2	0.019	0.000	20.2	2	1
03/26/06	1:27 a	-9.6	-9.6	-9.6	---	---	0.9	ENE	0.01	1.7	-9.6	---	---	723.2	0.019	0.000	20.2	2	1
03/26/06	1:28 a	-9.5	-9.5	-9.6	---	---	0.9	ENE	0.01	1.7	-9.5	---	---	723.2	0.019	0.000	20.2	2	1
03/26/06	1:29 a	-9.5	-9.4	-9.5	---	---	0.9	ENE	0.01	1.7	-9.5	---	---	723.2	0.019	0.000	20.2	2	1
03/26/06	1:30 a	-9.4	-9.4	-9.4	---	---	0.9	ENE	0.01	1.7	-9.4	---	---	723.2	0.019	0.000	20.2	2	1
03/26/06	1:31 a	-9.4	-9.3	-9.4	---	---	0.9	ENE	0.01	1.7	-9.4	---	---	723.1	0.019	0.000	20.2	2	1
03/26/06	1:32 a	-9.3	-9.3	-9.3	---	---	0.9	ENE	0.01	1.7	-9.3	---	---	723.2	0.019	0.000	20.2	2	1
03/26/06	1:33 a	-9.3	-9.2	-9.3	---	---	0.9	ENE	0.01	1.7	-9.3	---	---	723.2	0.019	0.000	20.2	2	1
03/26/06	1:34 a	-9.2	-9.2	-9.2	---	---	0.9	ENE	0.01	1.7	-9.2	---	---	723.2	0.019	0.000	20.2	2	1
03/26/06	1:35 a	-9.2	-9.2	-9.2	---	---	0.9	ENE	0.01	1.7	-9.2	---	---	723.2	0.019	0.000	20.2	2	1
03/26/06	1:36 a	-9.2	-9.2	-9.2	---	---	0.9	ENE	0.01	1.7	-9.2	---	---	723.1	0.019	0.000	20.2	2	1
03/26/06	1:37 a	-9.1	-9.1	-9.2	---	---	0.9	ENE	0.01	0.9	-9.1	---	---	723.2	0.019	0.000	20.2	2	1
03/26/06	1:38 a	-9.1	-9.1	-9.1	---	---	0.0	ENE	0.00	0.9	-9.1	---	---	723.1	0.019	0.000	20.2	2	1
03/26/06	1:39 a	-9.1	-9.1	-9.1	---	---	0.0	ENE	0.00	0.9	-9.1	---	---	723.2	0.019	0.000	20.2	2	1
03/26/06	1:40 a	-9.0	-9.0	-9.1	---	---	0.0	ENE	0.00	0.9	-9.0	---	---	723.2	0.019	0.000	20.2	2	1
03/26/06	1:41 a	-8.9	-8.9	-9.0	---	---	0.0	---	0.00	0.0	-8.9	---	---	723.1	0.019	0.000	20.2	2	1
03/26/06	1:42 a	-8.9	-8.9	-8.9	---	---	0.0	ENE	0.00	0.9	-8.9	---	---	723.1	0.019	0.000	20.2	2	1
03/26/06	1:43 a	-8.9	-8.9	-8.9	---	---	0.0	---	0.00	0.9	-8.9	---	---	723.1	0.019	0.000	20.2	2	1
03/26/06	1:44 a	-8.9	-8.9	-8.9	---	---	0.0	---	0.00	0.0	-8.9	---	---	723.1	0.019	0.000	20.3	2	1
03/26/06	1:45 a	-8.9	-8.9	-8.9	---	---	0.0	---	0.00	0.0	-8.9	---	---	723.1	0.019	0.000	20.3	2	1
03/26/06	1:46 a	-8.9	-8.9	-8.9	---	---	0.0	---	0.00	0.0	-8.9	---	---	723.1	0.019	0.000	20.3	2	1
03/26/06	1:47 a	-8.8	-8.8	-8.9	---	---	0.0	---	0.00	0.0	-8.8	---	---	723.1	0.019	0.000	20.3	2	1
03/26/06	1:48 a	-8.8	-8.8	-8.8	---	---	0.0	---	0.00	0.0	-8.8	---	---	723.1	0.019	0.000	20.3	2	1
03/26/06	1:49 a	-8.8	-8.8	-8.8	---	---	0.0	---	0.00	0.0	-8.8	---	---	723.1	0.019	0.000	20.3	2	1
03/26/06	1:50 a	-8.8	-8.7	-8.8	---	---	0.0	---	0.00	0.0	-8.8	---	---	723.1	0.019	0.000	20.3	2	1
03/26/06	1:51 a	-8.7	-8.7	-8.7	---	---	0.0	---	0.00	0.0	-8.7	---	---	723.1	0.019	0.000	20.3	2	1
03/26/06	1:52 a	-8.7	-8.6	-8.7	---	---	0.0	---	0.00	0.0	-8.7	---	---	723.1	0.019	0.000	20.3	2	1
03/26/06	1:53 a	-8.6	-8.6	-8.6	---	---	0.0	---	0.00	0.0	-8.6	---	---	723.1	0.019	0.000	20.3	2	1
03/26/06	1:54 a	-8.6	-8.5	-8.6	---	---	0.0	---	0.00	0.0	-8.6	---	---	723.1	0.019	0.000	20.3	2	1
03/26/06	1:55 a	-8.5	-8.4	-8.5	---	---	0.0	---	0.00	0.0	-8.5	---	---	723.1	0.019	0.000	20.3	2	1
03/26/06	1:56 a	-8.4	-8.4	-8.4	---	---	0.0	---	0.00	0.0	-8.4	---	---	723.0	0.019	0.000	20.3	2	1
03/26/06	1:57 a	-8.4	-8.4	-8.4	---	---	0.0	---	0.00	0.0	-8.4	---	---	723.0	0.019	0.000	20.3	2	1
03/26/06	1:58 a	-8.3	-8.3	-8.4	---	---	0.0	---	0.00	0.0	-8.3	---	---	723.0	0.019	0.000	20.3	2	1
03/26/06	1:59 a	-8.3	-8.3	-8.3	---	---	0.0	---	0.00	0.0	-8.3	---	---	723.1	0.019	0.000	20.3	2	1
03/26/06	2:00 a	-8.3	-8.3	-8.3	---	---	0.0	---	0.00	0.0	-8.3	---	---	723.0	0.018	0.000	20.3	2	1
03/26/06	2:01 a	-8.2	-8.2	-8.3	---	---	0.9	ENE	0.01	0.9	-8.2	---	---	723.0	0.018	0.000	20.3	2	1
03/26/06	2:02 a	-8.2	-8.2	-8.2	---	---	0.0	---	0.00	0.0	-8.2	---	---	723.0	0.018	0.000	20.3	2	1
03/26/06	2:03 a	-8.1	-8.1	-8.2	---	---	0.0	ENE	0.00	0.9	-8.1	---	---	723.0	0.018	0.000	20.3	2	1
03/26/06	2:04 a	-8.1	-8.0	-8.1	---	---	0.0	ENE	0.00	0.9	-8.1	---	---	723.0	0.018	0.000	20.3	2	1
03/26/06	2:05 a	-8.0	-7.9	-8.0	---	---	0.0	ENE	0.00	0.9	-8.0	---	---	723.0	0.018	0.000	20.3	2	1
03/26/06	2:06 a	-7.9	-7.9	-7.9	---	---	0.0	ENE	0.00	0.9	-7.9	---	---	723.1	0.018	0.000	20.3	2	1
03/26/06	2:07 a	-7.8	-7.8	-7.9	---	---	0.0	---	0.00	0.0	-7.8	---	---	723.0	0.018	0.000	20.3	2	1
03/26/06	2:08 a	-7.8	-7.8	-7.8	---	---	0.0	---	0.00	0.0	-7.8	---	---	723.0	0.018	0.000	20.3	2	1
03/26/06	2:09 a	-7.7	-7.7	-7.8	---	---	0.0	---	0.00	0.0	-7.7	---	---	723.0	0.018	0.000	20.3	2	1
03/26/06	2:10 a	-7.7	-7.7	-7.7	---	---	0.0	---	0.00	0.0	-7.7	---	---	723.0	0.018	0.000	20.3	2	1
03/26/06	2:11 a	-7.6	-7.6	-7.7	---	---	0.0	---	0.00	0.0	-7.6	---	---	723.0	0.018	0.000	20.3	2	1
03/26/06	2:12 a	-7.6	-7.6	-7.6	---	---	0.0	---	0.00	0.0	-7.6	---	---	723.1	0.018	0.000	20.3	2	1
03/26/06	2:13 a	-7.5	-7.4	-7.5	---	---	0.0	---	0.00	0.0	-7.5	---	---	723.0	0.018	0.000	20.3	2	1
03/26/06	2:14 a	-7.4	-7.4	-7.4	---	---	0.0	---	0.00	0.9	-7.4	---	---	723.0	0.018	0.000	20.3	2	1
03/26/06	2:15 a	-7.4	-7.3	-7.4	---	---	0.0	---	0.00	0.0	-7.4	---	---	723.0	0.018	0.000	20.3	2	1
03/26/06	2:16 a	-7.2	-7.2	-7.3	---	---	0.0	ENE	0.00	0.9	-7.2	---	---	723.0	0.018	0.000	20.3	2	1
03/26/06	2:17 a	-7.2	-7.2	-7.2	---	---	0.0	---	0.00	0.9	-7.2	---	---	723.0	0.018	0.000	20.3	2	1
03/26/06	2:18 a	-7.1	-7.1	-7.1	---	---	0.0	ENE	0.00	0.9	-7.1	---	---	722.9	0.018	0.000	20.3	2	1
03/26/06	2:19 a	-7.0	-7.0	-7.1	---	---	0.0	---	0.00	0.0	-7.0	---	---	723.0	0.018	0.000	20.3	2	1
03/26/06	2:20 a	-6.9	-6.9	-6.9	---	---	0.0	---	0.00	0.0	-6.9	---	---	723.0	0.018	0.000	20.4	2	1
03/26/06	2:21 a	-6.9	-6.8	-6.9	---	---	0.0	---	0.00	0.9	-6.9	---	---	723.0	0.018	0.000	20.4	2	1
03/26/06	2:22 a	-6.8	-6.8	-6.8	---	---	0.0	ENE	0.00	0.9	-6.8	---	---	723.0	0.017	0.000	20.4	2	1
03/26/06	2:23 a	-6.8	-6.7	-6.8	---	---	0.0	ENE	0.00	0.9	-6.8	---	---	723.0	0.017	0.000	20.4	2	1
03/26/06	2:24 a	-6.7	-6.7	-6.7	---	---	0.0	---	0.00	0.9	-6.7	---	---	722.9	0.017	0.000	20.4	2	1
03/26/06	2:25 a	-6.7	-6.7	-6.7	---	---	0.0	---	0.00	0.0	-6.7	---	---	723.0	0.017	0.000	20.4	2	1
03/26/06	2:26 a	-6.7	-6.7	-6.7	---	---	0.0	---	0.00	0.0	-6.7	---	---	723.0	0.017	0.000	20.4	2	1
03/26/06	2:27 a	-6.6	-6.6	-6.7	---	---	0.0	---	0.00	0.0	-6.6	---	---	722.9	0.017	0.000	20.4	2	1
03/26/06	2:28 a	-6.6	-6.6	-6.6	---	---	0.0	---	0.00	0.0	-6.6	---	---	723.1	0.017	0.000	20.4	2	1
03/26/06	2:29 a	-6.6	-6.5	-6.6	---	---	0.0	---	0.00	0.0	-6.6	---	---	723.0	0.017	0.000	20.4	2	1
03/26/06	2:30 a	-6.5	-6.4	-6.5	---	---	0.0	---	0.00	0.0	-6.5	---	---	722.9	0.017	0.000	20.4	2	1
03/26/06	2:31 a	-6.4	-6.4	-6.4	---	---	0.0	---	0.00	0.0	-6.4	---	---	723.0	0.017	0.000	20.4	2	1
03/26/06	2:32 a	-6.4	-6.4	-6.4	---	---	0.0	---	0.00	0.0	-6.4	---	---	722.9	0.017	0.000	20.4	2	1
03/26/06	2:33 a	-6.3	-6.3	-6.3	---	---	0.0	---	0.00	0.0	-6.3	---	---	722.9	0.017	0.000	20.4	2	1
03/26/06	2:34 a	-6.3	-6.3	-6.3	---	---	0.0	ENE	0.00	0.9	-6.3	---	---	723.0	0.017	0.000	20.4	2	1
03/26/06	2:35 a	-6.3	-6.3	-6.3	---	---	0.0	---	0.00	0.9	-6.3	---	---	723.0	0.017	0.000	20.4	2	1
03/26/06	2:36 a	-6.3	-6.2	-6.3	---	---	0.0	---	0.00	0.0	-6.3	---	---	723.1	0.017	0.000	20.4	2	1
03/26/06	2:37 a	-6.2	-6.2	-6.2	---	---	0.0	---	0.00	0.0	-6.2	---	---	723.0	0.017	0.000	20.4	2	1
03/26/06	2:38 a	-6.2	-6.1	-6.2	---	---	0.0	---	0.00	0.0	-6.2	---	---	722.9	0.017	0.000	20.4	2	1
03/26/06	2:39 a	-6.1	-6.1	-6.1	---	---	0.0	---	0.00	0.0	-6.1	---	---	723.0	0.017	0.000	20.4	2	1
03/26/06	2:40 a	-6.1	-6.1	-6.1	---	---	0.0	---	0.00	0.0	-6.1	---	---	723.0	0.017	0.000	20.4	2	1
03/26/06	2:41 a	-6.0	-5.9	-6.0	---	---	0.0	---	0.00	0.0	-6.0	---	---	723.0	0.017	0.000	20.4	2	1
03/26/06	2:42 a	-5.9	-5.9	-5.9	---	---	0.0	---	0.00	0.0	-5.9	---	---	723.0	0.017	0.000	20.4	2	1
03/26/06	2:43 a	-5.9	-5.8	-5.9	---	---	0.0	---	0.00	0.0	-5.9	---	---	723.0	0.017	0.000	20.4	2	1
03/26/06	2:44 a	-5.8	-5.8	-5.8	---	---	0.0	---	0.00	0.0	-5.8	---	---	723.0	0.017	0.000	20.4	2	1
03/26/06	2:45 a	-5.7	-5.7	-5.7	---	---	0.0	---	0.00	0.0	-5.7	---	---	723.0	0.017	0.000	20.4	2	1
03/26/06	2:46 a	-5.7	-5.7	-5.7	---	---	0.0	---	0.00	0.0	-5.7	---	---	722.9	0.017	0.000	20.4	2	1
03/26/06	2:47 a	-5.7	-5.6	-5.7	---	---	0.0	---	0.00	0.0	-5.7	---	---	723.0	0.017	0.000	20.4	2	1
03/26/06	2:48 a	-5.6	-5.6	-5.6	---	---	0.0	---	0.00	0.0	-5.6	---	---	722.9	0.017	0.000	20.4	2	1
03/26/06	2:49 a	-5.5	-5.5	-5.6	---	---	0.0	---	0.00	0.0	-5.5	---	---	723.0	0.017	0.000	20.4	2	1
03/26/06	2:50 a	-5.5	-5.4	-5.5	---	---	0.0	ENE	0.00	1.7	-5.5	---	---	723.0	0.017	0.000	20.4	2	1
03/26/06	2:51 a	-5.4	-5.4	-5.4	---	---	0.9	ENE	0.01	1.7	-5.4	---	---	722.9	0.017	0.000	20.4	2	1
03/26/06	2:52 a	-5.4	-5.4	-5.4	---	---	0.9	ENE	0.01	1.7	-5.4	---	---	723.0	0.017	0.000	20.4	2	1
03/26/06	2:53 a	-5.4	-5.4	-5.4	---	---	1.7	ENE	0.03	2.6	-6.6	---	---	723.0	0.017	0.000	20.4	2	1
03/26/06	2:54 a	-5.4	-5.4	-5.4	---	---	0.9	ENE	0.01	0.9	-5.4	---	---	722.9	0.017	0.000	20.4	2	1
03/26/06	2:55 a	-5.4	-5.4	-5.4	---	---	0.0	ENE	0.00	0.9	-5.4	---	---	723.0	0.017	0.000	20.4	2	1
03/26/06	2:56 a	-5.4	-5.4	-5.4	---	---	0.0	---	0.00	0.0	-5.4	---	---	722.9	0.017	0.000	20.4	2	1
03/26/06	2:57 a	-5.4	-5.4	-5.4	---	---	0.0	---	0.00	0.0	-5.4	---	---	722.9	0.017	0.000	20.4	2	1
03/26/06	2:58 a	-5.4	-5.4	-5.4	---	---	0.0	---	0.00	0.0	-5.4	---	---	722.9	0.016	0.000	20.4	2	1
03/26/06	2:59 a	-5.4	-5.3	-5.4	---	---	0.0	ENE	0.00	0.9	-5.4	---	---	722.9	0.016	0.000	20.4	2	1
03/26/06	3:00 a	-5.3	-5.3	-5.3	---	---	0.0	---	0.00	0.0	-5.3	---	---	722.8	0.016	0.000	20.4	2	1
03/26/06	3:01 a	-5.3	-5.3	-5.3	---	---	0.0	---	0.00	0.0	-5.3	---	---	722.9	0.016	0.000	20.4	2	1
03/26/06	3:02 a	-5.3	-5.3	-5.3	---	---	0.0	ENE	0.00	0.9	-5.3	---	---	722.9	0.016	0.000	20.5	2	1
03/26/06	3:03 a	-5.3	-5.3	-5.3	---	---	0.9	ENE	0.01	0.9	-5.3	---	---	722.9	0.016	0.000	20.5	2	1
03/26/06	3:04 a	-5.3	-5.3	-5.4	---	---	0.0	ENE	0.00	0.9	-5.3	---	---	722.9	0.016	0.000	20.5	2	1
03/26/06	3:05 a	-5.4	-5.4	-5.4	---	---	0.0	ENE	0.00	0.9	-5.4	---	---	722.9	0.016	0.000	20.4	2	1
03/26/06	3:06 a	-5.4	-5.4	-5.4	---	---	0.9	ENE	0.01	0.9	-5.4	---	---	722.8	0.016	0.000	20.4	2	1
03/26/06	3:07 a	-5.3	-5.3	-5.4	---	---	0.0	ENE	0.00	0.9	-5.3	---	---	723.0	0.016	0.000	20.4	2	1
03/26/06	3:08 a	-5.3	-5.3	-5.3	---	---	0.0	ENE	0.00	0.9	-5.3	---	---	722.9	0.016	0.000	20.4	2	1
03/26/06	3:09 a	-5.3	-5.2	-5.3	---	---	1.7	ENE	0.03	2.6	-6.4	---	---	722.9	0.016	0.000	20.5	2	1
03/26/06	3:10 a	-5.2	-5.2	-5.2	---	---	1.7	ENE	0.03	2.6	-6.3	---	---	722.9	0.016	0.000	20.5	2	1
03/26/06	3:11 a	-5.2	-5.2	-5.2	---	---	0.9	ENE	0.01	1.7	-5.2	---	---	723.0	0.016	0.000	20.5	2	1
03/26/06	3:12 a	-5.2	-5.2	-5.2	---	---	1.7	ENE	0.03	2.6	-6.3	---	---	722.9	0.016	0.000	20.5	2	1
03/26/06	3:13 a	-5.2	-5.2	-5.2	---	---	0.9	ENE	0.01	1.7	-5.2	---	---	722.9	0.016	0.000	20.5	2	1
03/26/06	3:14 a	-5.2	-5.2	-5.2	---	---	1.7	ENE	0.03	2.6	-6.3	---	---	723.1	0.016	0.000	20.5	2	1
03/26/06	3:15 a	-5.2	-5.2	-5.2	---	---	0.9	ENE	0.01	2.6	-5.2	---	---	722.9	0.016	0.000	20.5	2	1
03/26/06	3:16 a	-5.2	-5.2	-5.2	---	---	0.9	ENE	0.01	1.7	-5.2	---	---	722.9	0.016	0.000	20.5	2	1
03/26/06	3:17 a	-5.2	-5.2	-5.3	---	---	0.9	ENE	0.01	1.7	-5.2	---	---	722.9	0.016	0.000	20.5	2	1
03/26/06	3:18 a	-5.3	-5.3	-5.3	---	---	0.9	ENE	0.01	1.7	-5.3	---	---	723.0	0.016	0.000	20.5	2	1
03/26/06	3:19 a	-5.3	-5.3	-5.4	---	---	2.6	ENE	0.04	3.5	-7.5	---	---	722.9	0.016	0.000	20.5	2	1
03/26/06	3:20 a	-5.4	-5.4	-5.5	---	---	2.6	ENE	0.04	3.5	-7.7	---	---	722.9	0.017	0.000	20.5	2	1
03/26/06	3:21 a	-5.6	-5.6	-5.7	---	---	2.6	ENE	0.04	4.3	-7.8	---	---	722.9	0.017	0.000	20.5	2	1
03/26/06	3:22 a	-5.8	-5.7	-5.9	---	---	2.6	ENE	0.04	3.5	-8.0	---	---	722.9	0.017	0.000	20.5	2	1
03/26/06	3:23 a	-6.0	-5.9	-6.1	---	---	3.5	ENE	0.06	4.3	-9.1	---	---	722.9	0.017	0.000	20.5	2	1
03/26/06	3:24 a	-6.3	-6.2	-6.4	---	---	3.5	ENE	0.06	4.3	-9.5	---	---	722.9	0.017	0.000	20.5	2	1
03/26/06	3:25 a	-6.6	-6.6	-6.7	---	---	4.3	NNE	0.07	5.2	-10.5	---	---	722.9	0.017	0.000	20.5	2	1
03/26/06	3:26 a	-7.1	-6.9	-7.3	---	---	3.5	NNE	0.06	5.2	-10.3	---	---	722.9	0.018	0.000	20.5	2	1
03/26/06	3:27 a	-7.6	-7.6	-7.9	---	---	4.3	N	0.07	5.2	-11.7	---	---	722.9	0.018	0.000	20.6	2	1
03/26/06	3:28 a	-8.1	-7.9	-8.3	---	---	3.5	N	0.06	4.3	-11.5	---	---	722.9	0.018	0.000	20.6	2	1
03/26/06	3:29 a	-8.5	-8.4	-8.8	---	---	2.6	N	0.04	5.2	-11.1	---	---	722.8	0.019	0.000	20.6	2	1
03/26/06	3:30 a	-8.9	-8.8	-9.1	---	---	2.6	N	0.04	3.5	-11.6	---	---	722.9	0.019	0.000	20.6	2	1
03/26/06	3:31 a	-9.2	-9.2	-9.3	---	---	1.7	N	0.03	3.5	-10.7	---	---	722.8	0.019	0.000	20.6	2	1
03/26/06	3:32 a	-9.4	-9.4	-9.6	---	---	1.7	N	0.03	2.6	-10.9	---	---	722.9	0.019	0.000	20.6	2	1
03/26/06	3:33 a	-9.7	-9.6	-9.7	---	---	0.9	N	0.01	1.7	-9.7	---	---	722.9	0.019	0.000	20.6	2	1
03/26/06	3:34 a	-9.8	-9.8	-9.8	---	---	0.9	N	0.01	1.7	-9.8	---	---	722.9	0.020	0.000	20.6	2	1
03/26/06	3:35 a	-9.9	-9.9	-9.9	---	---	0.9	N	0.01	1.7	-9.9	---	---	722.9	0.020	0.000	20.6	2	1
03/26/06	3:36 a	-9.9	-9.9	-10.0	---	---	0.9	N	0.01	1.7	-9.9	---	---	723.0	0.020	0.000	20.6	2	1
03/26/06	3:37 a	-10.0	-10.0	-10.1	---	---	0.9	N	0.01	1.7	-10.0	---	---	723.0	0.020	0.000	20.6	2	1
03/26/06	3:38 a	-10.1	-10.1	-10.1	---	---	1.7	N	0.03	1.7	-11.7	---	---	722.9	0.020	0.000	20.6	2	1
03/26/06	3:39 a	-10.2	-10.1	-10.2	---	---	2.6	N	0.04	4.3	-13.0	---	---	722.9	0.020	0.000	20.6	2	1
03/26/06	3:40 a	-10.2	-10.2	-10.2	---	---	3.5	N	0.06	4.3	-14.0	---	---	723.0	0.020	0.000	20.6	2	1
03/26/06	3:41 a	-10.3	-10.2	-10.3	---	---	2.6	N	0.04	2.6	-13.1	---	---	723.0	0.020	0.000	20.6	2	1
03/26/06	3:42 a	-10.3	-10.3	-10.4	---	---	1.7	N	0.03	2.6	-11.9	---	---	723.0	0.020	0.000	20.6	2	1
03/26/06	3:43 a	-10.4	-10.4	-10.4	---	---	2.6	N	0.04	3.5	-13.2	---	---	722.9	0.020	0.000	20.6	2	1
03/26/06	3:44 a	-10.4	-10.4	-10.4	---	---	3.5	N	0.06	5.2	-14.2	---	---	722.9	0.020	0.000	20.6	2	1
03/26/06	3:45 a	-10.5	-10.4	-10.6	---	---	4.3	N	0.07	5.2	-15.1	---	---	722.9	0.020	0.000	20.6	2	1
03/26/06	3:46 a	-10.6	-10.6	-10.6	---	---	5.2	NNW	0.09	5.2	-15.8	---	---	722.9	0.020	0.000	20.6	2	1
03/26/06	3:47 a	-10.7	-10.6	-10.8	---	---	5.2	NNW	0.09	6.1	-15.9	---	---	723.0	0.020	0.000	20.6	2	1
03/26/06	3:48 a	-10.8	-10.8	-10.8	---	---	5.2	NNW	0.09	6.1	-16.1	---	---	722.9	0.020	0.000	20.6	2	1
03/26/06	3:49 a	-10.9	-10.8	-10.9	---	---	5.2	NNW	0.09	5.2	-16.2	---	---	722.9	0.020	0.000	20.6	2	1
03/26/06	3:50 a	-11.0	-11.0	-11.1	---	---	4.3	NNW	0.07	5.2	-15.7	---	---	722.9	0.020	0.000	20.6	2	1
03/26/06	3:51 a	-11.1	-11.1	-11.2	---	---	3.5	NNW	0.06	5.2	-15.0	---	---	723.0	0.020	0.000	20.6	2	1
03/26/06	3:52 a	-11.2	-11.2	-11.3	---	---	3.5	NNW	0.06	4.3	-15.2	---	---	722.9	0.021	0.000	20.6	2	1
03/26/06	3:53 a	-11.3	-11.3	-11.3	---	---	2.6	NNW	0.04	3.5	-14.2	---	---	722.9	0.021	0.000	20.6	2	1
03/26/06	3:54 a	-11.4	-11.3	-11.4	---	---	3.5	NNW	0.06	4.3	-15.3	---	---	723.0	0.021	0.000	20.6	2	1
03/26/06	3:55 a	-11.4	-11.4	-11.4	---	---	2.6	NNW	0.04	3.5	-14.4	---	---	722.9	0.021	0.000	20.6	2	1
03/26/06	3:56 a	-11.5	-11.4	-11.5	---	---	1.7	NNW	0.03	2.6	-13.2	---	---	723.0	0.021	0.000	20.6	2	1
03/26/06	3:57 a	-11.5	-11.5	-11.6	---	---	2.6	NNW	0.04	3.5	-14.5	---	---	722.9	0.021	0.000	20.6	2	1
03/26/06	3:58 a	-11.6	-11.6	-11.6	---	---	2.6	NNW	0.04	4.3	-14.6	---	---	723.0	0.021	0.000	20.6	2	1
03/26/06	3:59 a	-11.6	-11.6	-11.7	---	---	3.5	NNW	0.06	4.3	-15.6	---	---	722.9	0.021	0.000	20.6	2	1
03/26/06	4:00 a	-11.7	-11.7	-11.7	---	---	4.3	NNW	0.07	4.3	-16.4	---	---	723.0	0.021	0.000	20.6	2	1
03/26/06	4:01 a	-11.8	-11.7	-11.8	---	---	3.5	NNW	0.06	4.3	-15.8	---	---	723.0	0.021	0.000	20.6	2	1
03/26/06	4:02 a	-11.9	-11.8	-11.9	---	---	3.5	NNW	0.06	4.3	-15.9	---	---	722.9	0.021	0.000	20.6	2	1
03/26/06	4:03 a	-11.9	-11.9	-12.0	---	---	3.5	NNW	0.06	4.3	-16.0	---	---	722.9	0.021	0.000	20.6	2	1
03/26/06	4:04 a	-12.1	-12.1	-12.1	---	---	3.5	NNW	0.06	4.3	-16.1	---	---	723.0	0.021	0.000	20.6	2	1
03/26/06	4:05 a	-12.1	-12.1	-12.2	---	---	4.3	NNW	0.07	4.3	-16.9	---	---	723.0	0.021	0.000	20.6	2	1
03/26/06	4:06 a	-12.2	-12.2	-12.3	---	---	4.3	NNW	0.07	5.2	-17.1	---	---	723.0	0.021	0.000	20.6	2	1
03/26/06	4:07 a	-12.3	-12.3	-12.4	---	---	3.5	NNW	0.06	4.3	-16.4	---	---	723.0	0.021	0.000	20.6	2	1
03/26/06	4:08 a	-12.4	-12.4	-12.4	---	---	2.6	NNW	0.04	3.5	-15.5	---	---	723.0	0.021	0.000	20.6	2	1
03/26/06	4:09 a	-12.4	-12.4	-12.4	---	---	1.7	NNW	0.03	2.6	-14.3	---	---	723.0	0.021	0.000	20.6	2	1
03/26/06	4:10 a	-12.4	-12.4	-12.5	---	---	0.9	NNW	0.01	1.7	-12.4	---	---	723.0	0.021	0.000	20.6	2	1
03/26/06	4:11 a	-12.5	-12.4	-12.5	---	---	0.0	NNW	0.00	0.9	-12.5	---	---	723.0	0.021	0.000	20.6	2	1
03/26/06	4:12 a	-12.5	-12.4	-12.5	---	---	0.9	NNW	0.01	1.7	-12.5	---	---	723.0	0.021	0.000	20.6	2	1
03/26/06	4:13 a	-12.5	-12.5	-12.5	---	---	0.9	NNW	0.01	1.7	-12.5	---	---	723.0	0.021	0.000	20.6	2	1
03/26/06	4:14 a	-12.5	-12.5	-12.5	---	---	0.9	NNW	0.01	1.7	-12.5	---	---	723.0	0.021	0.000	20.6	2	1
03/26/06	4:15 a	-12.5	-12.5	-12.5	---	---	1.7	NNW	0.03	2.6	-14.3	---	---	723.0	0.021	0.000	20.6	2	1
03/26/06	4:16 a	-12.5	-12.5	-12.5	---	---	1.7	NNW	0.03	2.6	-14.3	---	---	723.0	0.021	0.000	20.6	2	1
03/26/06	4:17 a	-12.5	-12.5	-12.5	---	---	2.6	NNW	0.04	3.5	-15.6	---	---	723.0	0.021	0.000	20.6	2	1
03/26/06	4:18 a	-12.5	-12.5	-12.6	---	---	3.5	NNW	0.06	4.3	-16.6	---	---	723.0	0.021	0.000	20.6	2	1
03/26/06	4:19 a	-12.6	-12.5	-12.6	---	---	3.5	NNW	0.06	4.3	-16.7	---	---	723.1	0.021	0.000	20.6	2	1
03/26/06	4:20 a	-12.6	-12.6	-12.6	---	---	3.5	NNW	0.06	3.5	-16.7	---	---	723.1	0.021	0.000	20.6	2	1
03/26/06	4:21 a	-12.6	-12.6	-12.6	---	---	3.5	NNW	0.06	4.3	-16.7	---	---	723.0	0.021	0.000	20.6	2	1
03/26/06	4:22 a	-12.7	-12.6	-12.7	---	---	3.5	NNW	0.06	4.3	-16.8	---	---	723.0	0.022	0.000	20.6	2	1
03/26/06	4:23 a	-12.7	-12.7	-12.7	---	---	3.5	NNW	0.06	4.3	-16.8	---	---	723.0	0.022	0.000	20.6	2	1
03/26/06	4:24 a	-12.7	-12.7	-12.8	---	---	4.3	NNW	0.07	4.3	-17.7	---	---	723.0	0.022	0.000	20.6	2	1
03/26/06	4:25 a	-12.8	-12.8	-12.8	---	---	3.5	NNW	0.06	4.3	-16.9	---	---	723.0	0.022	0.000	20.6	2	1
03/26/06	4:26 a	-12.8	-12.8	-12.8	---	---	3.5	NNW	0.06	4.3	-17.0	---	---	723.0	0.022	0.000	20.6	2	1
03/26/06	4:27 a	-12.8	-12.8	-12.8	---	---	3.5	NNW	0.06	3.5	-17.0	---	---	723.0	0.022	0.000	20.6	2	1
03/26/06	4:28 a	-12.9	-12.9	-12.9	---	---	2.6	NNW	0.04	3.5	-16.1	---	---	723.1	0.022	0.000	20.6	2	1
03/26/06	4:29 a	-12.9	-12.9	-12.9	---	---	2.6	NNW	0.04	3.5	-16.1	---	---	723.0	0.022	0.000	20.6	2	1
03/26/06	4:30 a	-12.9	-12.9	-13.0	---	---	1.7	NNW	0.03	2.6	-14.8	---	---	722.9	0.022	0.000	20.6	2	1
03/26/06	4:31 a	-13.0	-13.0	-13.1	---	---	1.7	NNW	0.03	1.7	-14.9	---	---	722.9	0.022	0.000	20.6	2	1
03/26/06	4:32 a	-13.1	-13.1	-13.1	---	---	0.9	NNW	0.01	1.7	-13.1	---	---	723.0	0.022	0.000	20.7	2	1
03/26/06	4:33 a	-13.1	-13.1	-13.1	---	---	1.7	NNW	0.03	1.7	-14.9	---	---	723.0	0.022	0.000	20.7	2	1
03/26/06	4:34 a	-13.1	-13.1	-13.1	---	---	0.9	NNW	0.01	1.7	-13.1	---	---	722.9	0.022	0.000	20.7	2	1
03/26/06	4:35 a	-13.1	-13.1	-13.1	---	---	1.7	NNW	0.03	1.7	-14.9	---	---	722.9	0.022	0.000	20.7	2	1
03/26/06	4:36 a	-13.1	-13.1	-13.1	---	---	0.9	NNW	0.01	1.7	-13.1	---	---	722.9	0.022	0.000	20.7	2	1
03/26/06	4:37 a	-13.1	-13.1	-13.1	---	---	0.9	NNW	0.01	1.7	-13.1	---	---	722.9	0.022	0.000	20.7	2	1
03/26/06	4:38 a	-13.1	-13.1	-13.1	---	---	0.9	NNW	0.01	1.7	-13.1	---	---	723.0	0.022	0.000	20.7	2	1
03/26/06	4:39 a	-13.1	-13.1	-13.1	---	---	1.7	NNW	0.03	1.7	-14.9	---	---	723.0	0.022	0.000	20.7	2	1
03/26/06	4:40 a	-13.1	-13.1	-13.1	---	---	1.7	NNW	0.03	1.7	-14.9	---	---	722.9	0.022	0.000	20.7	2	1
03/26/06	4:41 a	-13.1	-13.1	-13.1	---	---	1.7	NNW	0.03	3.5	-14.9	---	---	722.9	0.022	0.000	20.7	2	1
03/26/06	4:42 a	-13.1	-13.1	-13.1	---	---	2.6	NNW	0.04	2.6	-16.3	---	---	722.9	0.022	0.000	20.7	2	1
03/26/06	4:43 a	-13.1	-13.1	-13.1	---	---	2.6	NNW	0.04	3.5	-16.3	---	---	722.9	0.022	0.000	20.8	2	1
03/26/06	4:44 a	-13.1	-13.1	-13.1	---	---	2.6	NNW	0.04	2.6	-16.3	---	---	722.9	0.022	0.000	20.7	2	1
03/26/06	4:45 a	-13.1	-13.1	-13.2	---	---	2.6	NNW	0.04	3.5	-16.3	---	---	722.9	0.022	0.000	20.8	2	1
03/26/06	4:46 a	-13.2	-13.2	-13.2	---	---	2.6	NNW	0.04	3.5	-16.4	---	---	723.0	0.022	0.000	20.8	2	1
03/26/06	4:47 a	-13.2	-13.2	-13.2	---	---	2.6	NNW	0.04	2.6	-16.4	---	---	722.9	0.022	0.000	20.8	2	1
03/26/06	4:48 a	-13.2	-13.2	-13.2	---	---	2.6	NNW	0.04	2.6	-16.4	---	---	722.9	0.022	0.000	20.8	2	1
03/26/06	4:49 a	-13.2	-13.2	-13.2	---	---	2.6	NNW	0.04	2.6	-16.4	---	---	722.9	0.022	0.000	20.8	2	1
03/26/06	4:50 a	-13.2	-13.2	-13.2	---	---	2.6	NNW	0.04	3.5	-16.4	---	---	723.0	0.022	0.000	20.8	2	1
03/26/06	4:51 a	-13.2	-13.2	-13.2	---	---	2.6	NNW	0.04	3.5	-16.4	---	---	722.9	0.022	0.000	20.8	2	1
03/26/06	4:52 a	-13.2	-13.2	-13.2	---	---	2.6	NNW	0.04	3.5	-16.4	---	---	723.0	0.022	0.000	20.8	2	1
03/26/06	4:53 a	-13.3	-13.2	-13.3	---	---	1.7	NNW	0.03	2.6	-15.2	---	---	722.9	0.022	0.000	20.8	2	1
03/26/06	4:54 a	-13.3	-13.3	-13.3	---	---	1.7	NNW	0.03	2.6	-15.2	---	---	722.9	0.022	0.000	20.8	2	1
03/26/06	4:55 a	-13.3	-13.3	-13.4	---	---	2.6	NNW	0.04	3.5	-16.6	---	---	723.0	0.022	0.000	20.8	2	1
03/26/06	4:56 a	-13.4	-13.4	-13.4	---	---	2.6	NNW	0.04	2.6	-16.6	---	---	722.9	0.022	0.000	20.8	2	1
03/26/06	4:57 a	-13.4	-13.4	-13.4	---	---	2.6	NNW	0.04	2.6	-16.7	---	---	723.0	0.022	0.000	20.8	2	1
03/26/06	4:58 a	-13.5	-13.5	-13.5	---	---	2.6	NNW	0.04	2.6	-16.8	---	---	723.0	0.022	0.000	20.8	2	1
03/26/06	4:59 a	-13.5	-13.5	-13.5	---	---	1.7	NNW	0.03	2.6	-15.4	---	---	722.9	0.022	0.000	20.8	2	1
03/26/06	5:00 a	-13.5	-13.4	-13.5	---	---	1.7	NNW	0.03	2.6	-15.4	---	---	723.0	0.022	0.000	20.8	2	1
03/26/06	5:01 a	-13.5	-13.4	-13.5	---	---	1.7	NNW	0.03	2.6	-15.4	---	---	723.0	0.022	0.000	20.8	2	1
03/26/06	5:02 a	-13.5	-13.5	-13.5	---	---	1.7	NNW	0.03	2.6	-15.4	---	---	723.0	0.022	0.000	20.8	2	1
03/26/06	5:03 a	-13.5	-13.4	-13.5	---	---	2.6	NNW	0.04	2.6	-16.8	---	---	723.0	0.022	0.000	20.8	2	1
03/26/06	5:04 a	-13.5	-13.4	-13.5	---	---	1.7	NNW	0.03	2.6	-15.4	---	---	723.0	0.022	0.000	20.8	2	1
03/26/06	5:05 a	-13.5	-13.4	-13.5	---	---	1.7	NNW	0.03	2.6	-15.4	---	---	723.1	0.022	0.000	20.8	2	1
03/26/06	5:06 a	-13.4	-13.4	-13.4	---	---	2.6	NNW	0.04	3.5	-16.7	---	---	723.1	0.022	0.000	20.8	2	1
03/26/06	5:07 a	-13.4	-13.4	-13.4	---	---	3.5	NNW	0.06	3.5	-17.7	---	---	723.0	0.022	0.000	20.8	2	1
03/26/06	5:08 a	-13.4	-13.4	-13.4	---	---	2.6	NNW	0.04	3.5	-16.6	---	---	723.0	0.022	0.000	20.8	2	1
03/26/06	5:09 a	-13.4	-13.4	-13.4	---	---	3.5	NNW	0.06	3.5	-17.7	---	---	723.0	0.022	0.000	20.8	2	1
03/26/06	5:10 a	-13.4	-13.4	-13.4	---	---	2.6	NNW	0.04	3.5	-16.7	---	---	722.9	0.022	0.000	20.8	2	1
03/26/06	5:11 a	-13.4	-13.4	-13.4	---	---	2.6	NNW	0.04	3.5	-16.7	---	---	723.1	0.022	0.000	20.8	2	1
03/26/06	5:12 a	-13.4	-13.4	-13.4	---	---	2.6	NNW	0.04	3.5	-16.7	---	---	723.0	0.022	0.000	20.8	2	1
03/26/06	5:13 a	-13.4	-13.4	-13.5	---	---	2.6	NNW	0.04	3.5	-16.7	---	---	723.1	0.022	0.000	20.8	2	1
03/26/06	5:14 a	-13.5	-13.5	-13.5	---	---	2.6	NNW	0.04	2.6	-16.8	---	---	723.1	0.022	0.000	20.8	2	1
03/26/06	5:15 a	-13.5	-13.5	-13.5	---	---	3.5	NNW	0.06	3.5	-17.8	---	---	723.0	0.022	0.000	20.8	2	1
03/26/06	5:16 a	-13.6	-13.6	-13.6	---	---	3.5	NNW	0.06	4.3	-17.8	---	---	723.0	0.022	0.000	20.7	2	1
03/26/06	5:17 a	-13.6	-13.6	-13.6	---	---	3.5	NW	0.06	4.3	-17.8	---	---	723.1	0.022	0.000	20.7	2	1
03/26/06	5:18 a	-13.6	-13.6	-13.6	---	---	3.5	NW	0.06	4.3	-17.8	---	---	723.0	0.022	0.000	20.7	2	1
03/26/06	5:19 a	-13.6	-13.6	-13.6	---	---	2.6	NW	0.04	3.5	-16.9	---	---	723.1	0.022	0.000	20.7	2	1
03/26/06	5:20 a	-13.7	-13.7	-13.7	---	---	1.7	NW	0.03	2.6	-15.6	---	---	723.1	0.022	0.000	20.7	2	1
03/26/06	5:21 a	-13.7	-13.7	-13.8	---	---	1.7	NW	0.03	1.7	-15.7	---	---	723.1	0.022	0.000	20.7	2	1
03/26/06	5:22 a	-13.8	-13.8	-13.8	---	---	1.7	NW	0.03	2.6	-15.7	---	---	723.1	0.022	0.000	20.7	2	1
03/26/06	5:23 a	-13.8	-13.8	-13.9	---	---	1.7	NW	0.03	2.6	-15.8	---	---	723.0	0.022	0.000	20.7	2	1
03/26/06	5:24 a	-13.9	-13.9	-13.9	---	---	1.7	NW	0.03	1.7	-15.8	---	---	723.1	0.022	0.000	20.7	2	1
03/26/06	5:25 a	-14.1	-13.9	-14.1	---	---	1.7	NW	0.03	2.6	-16.0	---	---	723.1	0.022	0.000	20.7	2	1
03/26/06	5:26 a	-14.2	-14.1	-14.2	---	---	1.7	NW	0.03	2.6	-16.2	---	---	723.1	0.023	0.000	20.7	2	1
03/26/06	5:27 a	-14.2	-14.2	-14.3	---	---	0.9	NW	0.01	1.7	-14.2	---	---	723.1	0.023	0.000	20.7	2	1
03/26/06	5:28 a	-14.3	-14.3	-14.4	---	---	0.0	---	0.00	0.0	-14.3	---	---	723.1	0.023	0.000	20.7	2	1
03/26/06	5:29 a	-14.5	-14.4	-14.5	---	---	0.9	NW	0.01	0.9	-14.5	---	---	723.1	0.023	0.000	20.7	2	1
03/26/06	5:30 a	-14.6	-14.6	-14.7	---	---	0.0	NW	0.00	0.9	-14.6	---	---	723.1	0.023	0.000	20.7	2	1
03/26/06	5:31 a	-14.7	-14.7	-14.8	---	---	0.0	---	0.00	0.0	-14.7	---	---	723.0	0.023	0.000	20.7	2	1
03/26/06	5:32 a	-14.8	-14.8	-14.9	---	---	0.9	NW	0.01	1.7	-14.8	---	---	723.0	0.023	0.000	20.7	2	1
03/26/06	5:33 a	-14.9	-14.9	-14.9	---	---	0.9	NW	0.01	1.7	-14.9	---	---	723.0	0.023	0.000	20.7	2	1
03/26/06	5:34 a	-15.0	-14.9	-15.0	---	---	1.7	NW	0.03	2.6	-17.1	---	---	723.0	0.023	0.000	20.7	2	1
03/26/06	5:35 a	-15.1	-15.0	-15.2	---	---	1.7	NW	0.03	2.6	-17.1	---	---	722.9	0.023	0.000	20.7	2	1
03/26/06	5:36 a	-15.2	-15.2	-15.2	---	---	2.6	NW	0.04	3.5	-18.6	---	---	723.0	0.023	0.000	20.7	2	1
03/26/06	5:37 a	-15.3	-15.2	-15.3	---	---	2.6	NNW	0.04	3.5	-18.7	---	---	723.0	0.023	0.000	20.7	2	1
03/26/06	5:38 a	-15.4	-15.3	-15.4	---	---	2.6	NNW	0.04	3.5	-18.8	---	---	723.0	0.023	0.000	20.7	2	1
03/26/06	5:39 a	-15.5	-15.4	-15.5	---	---	1.7	NNW	0.03	3.5	-17.6	---	---	723.0	0.023	0.000	20.7	2	1
03/26/06	5:40 a	-15.6	-15.6	-15.6	---	---	1.7	NNW	0.03	3.5	-17.7	---	---	723.0	0.024	0.000	20.7	2	1
03/26/06	5:41 a	-15.6	-15.6	-15.6	---	---	2.6	NNW	0.04	3.5	-19.1	---	---	723.0	0.024	0.000	20.7	2	1
03/26/06	5:42 a	-15.6	-15.6	-15.7	---	---	0.9	NNW	0.01	1.7	-15.6	---	---	723.0	0.024	0.000	20.7	2	1
03/26/06	5:43 a	-15.7	-15.7	-15.7	---	---	0.9	NNW	0.01	1.7	-15.7	---	---	723.1	0.024	0.000	20.7	2	1
03/26/06	5:44 a	-15.7	-15.7	-15.8	---	---	1.7	NNW	0.03	1.7	-17.8	---	---	722.9	0.024	0.000	20.7	2	1
03/26/06	5:45 a	-15.8	-15.8	-15.9	---	---	1.7	NNW	0.03	1.7	-17.9	---	---	723.0	0.024	0.000	20.7	2	1
03/26/06	5:46 a	-15.9	-15.9	-15.9	---	---	0.9	NNW	0.01	1.7	-15.9	---	---	723.0	0.024	0.000	20.7	2	1
03/26/06	5:47 a	-16.0	-15.9	-16.0	---	---	1.7	NNW	0.03	2.6	-18.1	---	---	723.0	0.024	0.000	20.7	2	1
03/26/06	5:48 a	-16.1	-16.1	-16.1	---	---	2.6	NNW	0.04	3.5	-19.6	---	---	722.9	0.024	0.000	20.7	2	1
03/26/06	5:49 a	-16.1	-16.1	-16.2	---	---	2.6	NNW	0.04	3.5	-19.7	---	---	723.0	0.024	0.000	20.7	2	1
03/26/06	5:50 a	-16.2	-16.2	-16.3	---	---	2.6	NNW	0.04	2.6	-19.8	---	---	722.9	0.024	0.000	20.7	2	1
03/26/06	5:51 a	-16.3	-16.3	-16.3	---	---	1.7	NNW	0.03	2.6	-18.4	---	---	722.9	0.024	0.000	20.7	2	1
03/26/06	5:52 a	-16.3	-16.3	-16.4	---	---	1.7	NNW	0.03	2.6	-18.4	---	---	722.9	0.024	0.000	20.7	2	1
03/26/06	5:53 a	-16.4	-16.4	-16.4	---	---	1.7	NNW	0.03	1.7	-18.6	---	---	723.0	0.024	0.000	20.7	2	1
03/26/06	5:54 a	-16.4	-16.4	-16.4	---	---	0.9	NNW	0.01	1.7	-16.4	---	---	722.9	0.024	0.000	20.7	2	1
03/26/06	5:55 a	-16.4	-16.4	-16.4	---	---	0.0	---	0.00	0.0	-16.4	---	---	723.0	0.024	0.000	20.8	2	1
03/26/06	5:56 a	-16.4	-16.4	-16.4	---	---	0.0	NNW	0.00	0.9	-16.4	---	---	723.0	0.024	0.000	20.8	2	1
03/26/06	5:57 a	-16.4	-16.4	-16.4	---	---	0.0	---	0.00	0.0	-16.4	---	---	723.0	0.024	0.000	20.8	2	1
03/26/06	5:58 a	-16.4	-16.4	-16.4	---	---	0.0	NNW	0.00	0.9	-16.4	---	---	723.0	0.024	0.000	20.8	2	1
03/26/06	5:59 a	-16.4	-16.4	-16.4	---	---	0.0	NNW	0.00	0.9	-16.4	---	---	723.0	0.024	0.000	20.8	2	1
03/26/06	6:00 a	-16.4	-16.4	-16.4	---	---	0.0	---	0.00	0.0	-16.4	---	---	723.1	0.024	0.000	20.8	2	1
03/26/06	6:01 a	-16.4	-16.4	-16.4	---	---	0.0	---	0.00	0.0	-16.4	---	---	723.0	0.024	0.000	20.8	2	1
03/26/06	6:02 a	-16.4	-16.4	-16.4	---	---	0.0	---	0.00	0.0	-16.4	---	---	723.1	0.024	0.000	20.8	2	1
03/26/06	6:03 a	-16.4	-16.4	-16.4	---	---	0.0	---	0.00	0.0	-16.4	---	---	723.0	0.024	0.000	20.8	2	1
03/26/06	6:04 a	-16.3	-16.3	-16.4	---	---	0.0	NNW	0.00	0.9	-16.3	---	---	723.0	0.024	0.000	20.8	2	1
03/26/06	6:05 a	-16.3	-16.3	-16.4	---	---	0.9	NNW	0.01	2.6	-16.3	---	---	723.0	0.024	0.000	20.8	2	1
03/26/06	6:06 a	-16.3	-16.3	-16.3	---	---	1.7	NNW	0.03	2.6	-18.4	---	---	723.0	0.024	0.000	20.8	2	1
03/26/06	6:07 a	-16.3	-16.3	-16.3	---	---	2.6	NNW	0.04	2.6	-19.8	---	---	723.0	0.024	0.000	20.8	2	1
03/26/06	6:08 a	-16.3	-16.3	-16.3	---	---	2.6	N	0.04	2.6	-19.8	---	---	723.0	0.024	0.000	20.8	2	1
03/26/06	6:09 a	-16.2	-16.2	-16.3	---	---	1.7	N	0.03	2.6	-18.3	---	---	722.9	0.024	0.000	20.8	2	1
03/26/06	6:10 a	-16.2	-16.2	-16.2	---	---	1.7	N	0.03	1.7	-18.3	---	---	722.9	0.024	0.000	20.8	2	1
03/26/06	6:11 a	-16.2	-16.2	-16.2	---	---	1.7	N	0.03	2.6	-18.3	---	---	723.0	0.024	0.000	20.8	2	1
03/26/06	6:12 a	-16.2	-16.2	-16.2	---	---	2.6	N	0.04	3.5	-19.7	---	---	723.0	0.024	0.000	20.8	2	1
03/26/06	6:13 a	-16.1	-16.1	-16.1	---	---	2.6	NE	0.04	3.5	-19.7	---	---	723.0	0.024	0.000	20.8	2	1
03/26/06	6:14 a	-16.1	-16.1	-16.1	---	---	2.6	NE	0.04	3.5	-19.7	---	---	723.1	0.024	0.000	20.8	2	1
03/26/06	6:15 a	-16.1	-16.1	-16.1	---	---	3.5	NE	0.06	3.5	-20.7	---	---	723.1	0.024	0.000	20.8	2	1
03/26/06	6:16 a	-16.1	-16.1	-16.1	---	---	3.5	ENE	0.06	4.3	-20.7	---	---	723.0	0.024	0.000	20.9	2	1
03/26/06	6:17 a	-16.1	-16.1	-16.1	---	---	3.5	ENE	0.06	3.5	-20.7	---	---	723.0	0.024	0.000	20.9	2	1
03/26/06	6:18 a	-16.1	-16.1	-16.1	---	---	3.5	ENE	0.06	4.3	-20.7	---	---	723.0	0.024	0.000	20.9	2	1
03/26/06	6:19 a	-16.1	-16.1	-16.1	---	---	3.5	ENE	0.06	4.3	-20.7	---	---	723.0	0.024	0.000	20.9	2	1
03/26/06	6:20 a	-16.1	-16.1	-16.1	---	---	3.5	ENE	0.06	4.3	-20.7	---	---	723.0	0.024	0.000	20.9	2	1
03/26/06	6:21 a	-16.0	-16.0	-16.1	---	---	3.5	ENE	0.06	4.3	-20.6	---	---	723.0	0.024	0.000	20.9	2	1
03/26/06	6:22 a	-16.1	-16.1	-16.1	---	---	3.5	ENE	0.06	4.3	-20.7	---	---	723.0	0.024	0.000	20.9	2	1
03/26/06	6:23 a	-16.1	-16.1	-16.1	---	---	3.5	ENE	0.06	4.3	-20.7	---	---	723.0	0.024	0.000	20.9	2	1
03/26/06	6:24 a	-16.1	-16.1	-16.1	---	---	3.5	ENE	0.06	3.5	-20.7	---	---	722.9	0.024	0.000	20.8	2	1
03/26/06	6:25 a	-16.1	-16.1	-16.1	---	---	2.6	ENE	0.04	4.3	-19.7	---	---	722.9	0.024	0.000	20.8	2	1
03/26/06	6:26 a	-16.1	-16.1	-16.1	---	---	2.6	ENE	0.04	3.5	-19.7	---	---	722.9	0.024	0.000	20.8	2	1
03/26/06	6:27 a	-16.1	-16.1	-16.2	---	---	2.6	ENE	0.04	4.3	-19.7	---	---	722.9	0.024	0.000	20.8	2	1
03/26/06	6:28 a	-16.2	-16.2	-16.2	---	---	3.5	ENE	0.06	5.2	-20.8	---	---	722.8	0.024	0.000	20.8	2	1
03/26/06	6:29 a	-16.2	-16.2	-16.2	---	---	3.5	ENE	0.06	4.3	-20.8	---	---	722.9	0.024	0.000	20.8	2	1
03/26/06	6:30 a	-16.2	-16.2	-16.2	---	---	2.6	ENE	0.04	3.5	-19.8	---	---	722.9	0.024	0.000	20.7	2	1
03/26/06	6:31 a	-16.3	-16.2	-16.3	---	---	2.6	ENE	0.04	3.5	-19.8	---	---	722.9	0.024	0.000	20.7	2	1
03/26/06	6:32 a	-16.3	-16.3	-16.3	---	---	3.5	ENE	0.06	4.3	-20.9	---	---	723.0	0.024	0.000	20.7	2	1
03/26/06	6:33 a	-16.3	-16.3	-16.3	---	---	4.3	ENE	0.07	5.2	-21.8	---	---	722.9	0.024	0.000	20.7	2	1
03/26/06	6:34 a	-16.3	-16.3	-16.4	---	---	3.5	ENE	0.06	4.3	-21.0	---	---	722.9	0.024	0.000	20.7	2	1
03/26/06	6:35 a	-16.4	-16.4	-16.4	---	---	4.3	ENE	0.07	5.2	-21.9	---	---	722.9	0.024	0.000	20.7	2	1
03/26/06	6:36 a	-16.4	-16.4	-16.4	---	---	4.3	ENE	0.07	5.2	-21.9	---	---	722.8	0.024	0.000	20.7	2	1
03/26/06	6:37 a	-16.4	-16.4	-16.5	---	---	3.5	E	0.06	5.2	-21.1	---	---	722.9	0.024	0.000	20.7	2	1
03/26/06	6:38 a	-16.5	-16.5	-16.6	---	---	4.3	E	0.07	4.3	-22.1	---	---	722.8	0.024	0.000	20.7	2	1
03/26/06	6:39 a	-16.6	-16.6	-16.6	---	---	4.3	E	0.07	5.2	-22.1	---	---	722.8	0.024	0.000	20.7	2	1
03/26/06	6:40 a	-16.6	-16.6	-16.6	---	---	5.2	E	0.09	5.2	-22.9	---	---	722.8	0.024	0.000	20.6	2	1
03/26/06	6:41 a	-16.7	-16.6	-16.7	---	---	5.2	E	0.09	6.1	-23.0	---	---	722.8	0.024	0.000	20.6	2	1
03/26/06	6:42 a	-16.7	-16.7	-16.7	---	---	5.2	E	0.09	5.2	-23.1	---	---	722.8	0.024	0.000	20.6	2	1
03/26/06	6:43 a	-16.7	-16.7	-16.8	---	---	4.3	E	0.07	5.2	-22.3	---	---	722.7	0.024	0.000	20.6	2	1
03/26/06	6:44 a	-16.8	-16.8	-16.8	---	---	5.2	E	0.09	5.2	-23.1	---	---	722.9	0.024	0.000	20.6	2	1
03/26/06	6:45 a	-16.8	-16.8	-16.8	---	---	5.2	E	0.09	5.2	-23.2	---	---	722.8	0.024	0.000	20.6	2	1
03/26/06	6:46 a	-16.9	-16.9	-16.9	---	---	4.3	E	0.07	5.2	-22.5	---	---	722.9	0.024	0.000	20.6	2	1
03/26/06	6:47 a	-16.9	-16.9	-16.9	---	---	4.3	E	0.07	4.3	-22.5	---	---	722.9	0.024	0.000	20.6	2	1
03/26/06	6:48 a	-16.9	-16.9	-17.0	---	---	3.5	E	0.06	3.5	-21.7	---	---	722.9	0.024	0.000	20.6	2	1
03/26/06	6:49 a	-17.0	-17.0	-17.1	---	---	3.5	E	0.06	4.3	-21.8	---	---	722.8	0.025	0.000	20.6	2	1
03/26/06	6:50 a	-17.1	-17.1	-17.1	---	---	3.5	E	0.06	4.3	-21.8	---	---	722.9	0.025	0.000	20.6	2	1
03/26/06	6:51 a	-17.1	-17.1	-17.2	---	---	2.6	E	0.04	3.5	-20.8	---	---	722.8	0.025	0.000	20.6	2	1
03/26/06	6:52 a	-17.2	-17.2	-17.2	---	---	1.7	E	0.03	2.6	-19.4	---	---	722.9	0.025	0.000	20.6	2	1
03/26/06	6:53 a	-17.2	-17.2	-17.2	---	---	1.7	E	0.03	2.6	-19.4	---	---	722.9	0.025	0.000	20.6	2	1
03/26/06	6:54 a	-17.2	-17.2	-17.3	---	---	1.7	E	0.03	2.6	-19.4	---	---	722.9	0.025	0.000	20.6	2	1
03/26/06	6:55 a	-17.3	-17.3	-17.3	---	---	2.6	E	0.04	3.5	-21.0	---	---	723.0	0.025	0.000	20.6	2	1
03/26/06	6:56 a	-17.3	-17.3	-17.3	---	---	3.5	E	0.06	4.3	-22.2	---	---	723.0	0.025	0.000	20.6	2	1
03/26/06	6:57 a	-17.4	-17.3	-17.4	---	---	3.5	E	0.06	4.3	-22.2	---	---	723.0	0.025	0.000	20.6	2	1
03/26/06	6:58 a	-17.4	-17.4	-17.4	---	---	2.6	E	0.04	3.5	-21.2	---	---	723.0	0.025	0.000	20.6	2	1
03/26/06	6:59 a	-17.4	-17.4	-17.5	---	---	3.5	E	0.06	4.3	-22.3	---	---	722.9	0.025	0.000	20.6	2	1
03/26/06	7:00 a	-17.6	-17.5	-17.6	---	---	2.6	E	0.04	4.3	-21.3	---	---	722.9	0.025	0.000	20.6	2	1
03/26/06	7:01 a	-17.6	-17.6	-17.6	---	---	2.6	E	0.04	3.5	-21.3	---	---	723.0	0.025	0.000	20.6	2	1
03/26/06	7:02 a	-17.6	-17.6	-17.7	---	---	2.6	E	0.04	3.5	-21.3	---	---	723.0	0.025	0.000	20.6	2	1
03/26/06	7:03 a	-17.7	-17.7	-17.7	---	---	2.6	E	0.04	3.5	-21.4	---	---	723.0	0.025	0.000	20.6	2	1
03/26/06	7:04 a	-17.7	-17.7	-17.7	---	---	3.5	E	0.06	3.5	-22.6	---	---	722.9	0.025	0.000	20.6	2	1
03/26/06	7:05 a	-17.8	-17.8	-17.8	---	---	3.5	E	0.06	4.3	-22.7	---	---	722.9	0.025	0.000	20.6	2	1
03/26/06	7:06 a	-17.8	-17.8	-17.8	---	---	3.5	E	0.06	4.3	-22.7	---	---	722.9	0.025	0.000	20.6	2	1
03/26/06	7:07 a	-17.8	-17.8	-17.8	---	---	4.3	E	0.07	4.3	-23.6	---	---	723.0	0.025	0.000	20.6	2	1
03/26/06	7:08 a	-17.9	-17.9	-17.9	---	---	3.5	E	0.06	4.3	-22.8	---	---	722.9	0.025	0.000	20.6	2	1
03/26/06	7:09 a	-17.9	-17.9	-17.9	---	---	3.5	E	0.06	5.2	-22.8	---	---	722.9	0.025	0.000	20.6	2	1
03/26/06	7:10 a	-17.9	-17.9	-18.0	---	---	3.5	E	0.06	4.3	-22.8	---	---	722.9	0.025	0.000	20.6	2	1
03/26/06	7:11 a	-18.0	-18.0	-18.1	---	---	3.5	E	0.06	4.3	-22.9	---	---	722.8	0.025	0.000	20.6	2	1
03/26/06	7:12 a	-18.1	-18.1	-18.1	---	---	2.6	E	0.04	3.5	-21.8	---	---	722.9	0.025	0.000	20.5	2	1
03/26/06	7:13 a	-18.1	-18.1	-18.1	---	---	2.6	E	0.04	3.5	-21.9	---	---	722.9	0.025	0.000	20.5	2	1
03/26/06	7:14 a	-18.1	-18.1	-18.2	---	---	4.3	E	0.07	5.2	-23.9	---	---	722.9	0.025	0.000	20.5	2	1
03/26/06	7:15 a	-18.2	-18.2	-18.2	---	---	3.5	E	0.06	4.3	-23.1	---	---	722.8	0.025	0.000	20.5	2	1
03/26/06	7:16 a	-18.2	-18.2	-18.2	---	---	2.6	E	0.04	3.5	-22.1	---	---	722.9	0.025	0.000	20.5	2	1
03/26/06	7:17 a	-18.2	-18.2	-18.3	---	---	3.5	E	0.06	5.2	-23.2	---	---	722.9	0.025	0.000	20.5	2	1
03/26/06	7:18 a	-18.3	-18.3	-18.3	---	---	5.2	E	0.09	7.0	-24.9	---	---	723.0	0.025	0.000	20.5	2	1
03/26/06	7:19 a	-18.3	-18.3	-18.3	---	---	4.3	E	0.07	5.2	-24.2	---	---	723.0	0.025	0.000	20.5	2	1
03/26/06	7:20 a	-18.3	-18.3	-18.3	---	---	4.3	E	0.07	6.1	-24.2	---	---	722.8	0.025	0.000	20.5	2	1
03/26/06	7:21 a	-18.4	-18.3	-18.4	---	---	3.5	E	0.06	4.3	-23.4	---	---	722.9	0.026	0.000	20.5	2	1
03/26/06	7:22 a	-18.4	-18.4	-18.4	---	---	3.5	E	0.06	4.3	-23.4	---	---	722.9	0.026	0.000	20.5	2	1
03/26/06	7:23 a	-18.4	-18.4	-18.4	---	---	3.5	E	0.06	5.2	-23.4	---	---	722.9	0.026	0.000	20.5	2	1
03/26/06	7:24 a	-18.4	-18.4	-18.4	---	---	4.3	E	0.07	5.2	-24.3	---	---	722.9	0.026	0.000	20.5	2	1
03/26/06	7:25 a	-18.4	-18.4	-18.5	---	---	4.3	E	0.07	6.1	-24.3	---	---	722.9	0.026	0.000	20.5	2	1
03/26/06	7:26 a	-18.5	-18.5	-18.5	---	---	4.3	E	0.07	6.1	-24.4	---	---	722.9	0.026	0.000	20.5	2	1
03/26/06	7:27 a	-18.5	-18.5	-18.6	---	---	4.3	E	0.07	6.1	-24.4	---	---	722.8	0.026	0.000	20.5	2	1
03/26/06	7:28 a	-18.6	-18.6	-18.6	---	---	4.3	E	0.07	6.1	-24.5	---	---	722.9	0.026	0.000	20.5	2	1
03/26/06	7:29 a	-18.6	-18.6	-18.6	---	---	4.3	E	0.07	4.3	-24.5	---	---	722.9	0.026	0.000	20.5	2	1
03/26/06	7:30 a	-18.6	-18.6	-18.6	---	---	4.3	E	0.07	5.2	-24.6	---	---	723.0	0.026	0.000	20.5	2	1
03/26/06	7:31 a	-18.6	-18.6	-18.6	---	---	3.5	E	0.06	4.3	-23.6	---	---	722.9	0.026	0.000	20.5	2	1
03/26/06	7:32 a	-18.6	-18.6	-18.7	---	---	4.3	E	0.07	5.2	-24.6	---	---	722.8	0.026	0.000	20.5	2	1
03/26/06	7:33 a	-18.7	-18.7	-18.7	---	---	4.3	E	0.07	5.2	-24.6	---	---	722.8	0.026	0.000	20.5	2	1
03/26/06	7:34 a	-18.7	-18.7	-18.7	---	---	4.3	E	0.07	5.2	-24.6	---	---	722.8	0.026	0.000	20.5	2	1
03/26/06	7:35 a	-18.7	-18.7	-18.7	---	---	5.2	ESE	0.09	7.0	-25.4	---	---	722.8	0.026	0.000	20.5	2	1
03/26/06	7:36 a	-18.7	-18.7	-18.7	---	---	6.1	ESE	0.10	7.0	-26.1	---	---	722.8	0.026	0.000	20.5	2	1
03/26/06	7:37 a	-18.7	-18.7	-18.7	---	---	6.1	ESE	0.10	7.0	-26.1	---	---	722.8	0.026	0.000	20.5	2	1
03/26/06	7:38 a	-18.7	-18.7	-18.7	---	---	5.2	ESE	0.09	7.0	-25.4	---	---	722.9	0.026	0.000	20.5	2	1
03/26/06	7:39 a	-18.7	-18.7	-18.8	---	---	6.1	ESE	0.10	7.0	-26.1	---	---	722.8	0.026	0.000	20.5	2	1
03/26/06	7:40 a	-18.8	-18.7	-18.8	---	---	6.1	SE	0.10	7.0	-26.2	---	---	722.8	0.026	0.000	20.5	2	1
03/26/06	7:41 a	-18.8	-18.8	-18.8	---	---	6.1	SE	0.10	7.8	-26.2	---	---	722.8	0.026	0.000	20.5	2	1
03/26/06	7:42 a	-18.8	-18.8	-18.8	---	---	7.0	SE	0.12	7.8	-26.8	---	---	722.8	0.026	0.000	20.5	2	1
03/26/06	7:43 a	-18.8	-18.8	-18.8	---	---	6.1	SE	0.10	7.0	-26.2	---	---	722.8	0.026	0.000	20.5	2	1
03/26/06	7:44 a	-18.8	-18.8	-18.8	---	---	7.0	SE	0.12	7.0	-26.8	---	---	722.8	0.026	0.000	20.5	2	1
03/26/06	7:45 a	-18.8	-18.8	-18.8	---	---	7.0	SE	0.12	7.8	-26.8	---	---	722.8	0.026	0.000	20.5	2	1
03/26/06	7:46 a	-18.8	-18.8	-18.8	---	---	7.0	SE	0.12	7.8	-26.8	---	---	722.8	0.026	0.000	20.5	2	1
03/26/06	7:47 a	-18.8	-18.8	-18.8	---	---	6.1	SE	0.10	7.8	-26.3	---	---	722.7	0.026	0.000	20.5	2	1
03/26/06	7:48 a	-18.8	-18.8	-18.8	---	---	7.8	SE	0.13	7.8	-27.4	---	---	722.8	0.026	0.000	20.5	2	1
03/26/06	7:49 a	-18.8	-18.8	-18.8	---	---	7.0	SE	0.12	7.8	-26.8	---	---	722.8	0.026	0.000	20.5	2	1
03/26/06	7:50 a	-18.8	-18.8	-18.8	---	---	7.0	SE	0.12	8.7	-26.8	---	---	722.8	0.026	0.000	20.5	2	1
03/26/06	7:51 a	-18.8	-18.8	-18.8	---	---	7.0	SE	0.12	8.7	-26.8	---	---	722.8	0.026	0.000	20.5	2	1
03/26/06	7:52 a	-18.8	-18.8	-18.8	---	---	7.0	SE	0.12	8.7	-26.8	---	---	722.9	0.026	0.000	20.5	2	1
03/26/06	7:53 a	-18.8	-18.8	-18.9	---	---	7.0	SE	0.12	7.8	-26.8	---	---	722.8	0.026	0.000	20.5	2	1
03/26/06	7:54 a	-18.8	-18.8	-18.9	---	---	7.0	SE	0.12	7.8	-26.8	---	---	722.7	0.026	0.000	20.5	2	1
03/26/06	7:55 a	-18.9	-18.8	-18.9	---	---	7.0	SE	0.12	7.8	-26.9	---	---	722.8	0.026	0.000	20.5	2	1
03/26/06	7:56 a	-18.8	-18.8	-18.8	---	---	7.0	SE	0.12	7.8	-26.8	---	---	722.8	0.026	0.000	20.5	2	1
03/26/06	7:57 a	-18.8	-18.8	-18.9	---	---	7.0	SE	0.12	8.7	-26.8	---	---	722.8	0.026	0.000	20.4	2	1
03/26/06	7:58 a	-18.8	-18.8	-18.8	---	---	7.0	SE	0.12	8.7	-26.8	---	---	722.7	0.026	0.000	20.5	2	1
03/26/06	7:59 a	-18.8	-18.8	-18.9	---	---	8.7	ESE	0.14	9.6	-27.9	---	---	722.7	0.026	0.000	20.5	2	1
03/26/06	8:00 a	-18.8	-18.8	-18.8	---	---	8.7	ESE	0.14	9.6	-27.9	---	---	722.8	0.026	0.000	20.5	2	1
03/26/06	8:01 a	-18.8	-18.8	-18.9	---	---	7.8	ESE	0.13	8.7	-27.4	---	---	722.7	0.026	0.000	20.4	2	1
03/26/06	8:02 a	-18.8	-18.8	-18.8	---	---	8.7	ESE	0.14	8.7	-27.9	---	---	722.7	0.026	0.000	20.4	2	1
03/26/06	8:03 a	-18.8	-18.8	-18.9	---	---	8.7	ESE	0.14	9.6	-27.9	---	---	722.7	0.026	0.000	20.4	2	1
03/26/06	8:04 a	-18.9	-18.9	-18.9	---	---	8.7	ESE	0.14	9.6	-27.9	---	---	722.7	0.026	0.000	20.4	2	1
03/26/06	8:05 a	-18.9	-18.8	-18.9	---	---	8.7	ESE	0.14	9.6	-27.9	---	---	722.7	0.026	0.000	20.4	2	1
03/26/06	8:06 a	-18.8	-18.8	-18.8	---	---	8.7	ESE	0.14	9.6	-27.9	---	---	722.6	0.026	0.000	20.4	2	1
03/26/06	8:07 a	-18.9	-18.8	-18.9	---	---	9.6	ESE	0.16	10.4	-28.4	---	---	722.6	0.026	0.000	20.4	2	1
03/26/06	8:08 a	-18.9	-18.8	-18.9	---	---	9.6	ESE	0.16	11.3	-28.4	---	---	722.7	0.026	0.000	20.4	2	1
03/26/06	8:09 a	-18.8	-18.8	-18.8	---	---	10.4	ESE	0.17	11.3	-28.8	---	---	722.7	0.026	0.000	20.4	2	1
03/26/06	8:10 a	-18.8	-18.8	-18.8	---	---	10.4	E	0.17	11.3	-28.8	---	---	722.7	0.026	0.000	20.4	2	1
03/26/06	8:11 a	-18.8	-18.8	-18.8	---	---	10.4	E	0.17	11.3	-28.8	---	---	722.7	0.026	0.000	20.4	2	1
03/26/06	8:12 a	-18.8	-18.8	-18.8	---	---	9.6	E	0.16	10.4	-28.3	---	---	722.7	0.026	0.000	20.4	2	1
03/26/06	8:13 a	-18.8	-18.8	-18.8	---	---	9.6	E	0.16	10.4	-28.3	---	---	722.7	0.026	0.000	20.4	2	1
03/26/06	8:14 a	-18.8	-18.8	-18.8	---	---	8.7	E	0.14	10.4	-27.9	---	---	722.7	0.026	0.000	20.4	2	1
03/26/06	8:15 a	-18.8	-18.8	-18.8	---	---	9.6	E	0.16	10.4	-28.3	---	---	722.6	0.026	0.000	20.4	2	1
03/26/06	8:16 a	-18.8	-18.8	-18.8	---	---	9.6	E	0.16	11.3	-28.3	---	---	722.7	0.026	0.000	20.4	2	1
03/26/06	8:17 a	-18.8	-18.8	-18.8	---	---	9.6	E	0.16	11.3	-28.3	---	---	722.7	0.026	0.000	20.4	2	1
03/26/06	8:18 a	-18.8	-18.8	-18.8	---	---	9.6	E	0.16	10.4	-28.3	---	---	722.7	0.026	0.000	20.4	2	1
03/26/06	8:19 a	-18.8	-18.7	-18.8	---	---	7.8	E	0.13	9.6	-27.3	---	---	722.6	0.026	0.000	20.4	2	1
03/26/06	8:20 a	-18.8	-18.7	-18.8	---	---	9.6	E	0.16	10.4	-28.3	---	---	722.7	0.026	0.000	20.4	2	1
03/26/06	8:21 a	-18.7	-18.7	-18.8	---	---	8.7	E	0.14	10.4	-27.7	---	---	722.7	0.026	0.000	20.4	2	1
03/26/06	8:22 a	-18.7	-18.7	-18.8	---	---	8.7	E	0.14	9.6	-27.7	---	---	722.6	0.026	0.000	20.4	2	1
03/26/06	8:23 a	-18.7	-18.7	-18.7	---	---	8.7	E	0.14	10.4	-27.7	---	---	722.6	0.026	0.000	20.4	2	1
03/26/06	8:24 a	-18.7	-18.7	-18.7	---	---	8.7	E	0.14	9.6	-27.7	---	---	722.7	0.026	0.000	20.4	2	1
03/26/06	8:25 a	-18.7	-18.7	-18.7	---	---	8.7	E	0.14	9.6	-27.7	---	---	722.7	0.026	0.000	20.5	2	1
03/26/06	8:26 a	-18.7	-18.7	-18.7	---	---	7.8	E	0.13	9.6	-27.2	---	---	722.6	0.026	0.000	20.5	2	1
03/26/06	8:27 a	-18.7	-18.7	-18.7	---	---	7.8	E	0.13	9.6	-27.2	---	---	722.6	0.026	0.000	20.5	2	1
03/26/06	8:28 a	-18.7	-18.6	-18.7	---	---	8.7	E	0.14	9.6	-27.7	---	---	722.7	0.026	0.000	20.4	2	1
03/26/06	8:29 a	-18.6	-18.6	-18.6	---	---	7.8	E	0.13	9.6	-27.1	---	---	722.6	0.026	0.000	20.4	2	1
03/26/06	8:30 a	-18.6	-18.6	-18.6	---	---	8.7	E	0.14	10.4	-27.6	---	---	722.6	0.026	0.000	20.4	2	1
03/26/06	8:31 a	-18.6	-18.6	-18.6	---	---	7.8	E	0.13	10.4	-27.1	---	---	722.6	0.026	0.000	20.4	2	1
03/26/06	8:32 a	-18.6	-18.6	-18.6	---	---	7.8	E	0.13	9.6	-27.1	---	---	722.7	0.026	0.000	20.4	2	1
03/26/06	8:33 a	-18.6	-18.6	-18.6	---	---	7.8	E	0.13	9.6	-27.1	---	---	722.7	0.026	0.000	20.4	2	1
03/26/06	8:34 a	-18.6	-18.6	-18.6	---	---	7.8	E	0.13	10.4	-27.1	---	---	722.6	0.026	0.000	20.4	2	1
03/26/06	8:35 a	-18.6	-18.5	-18.6	---	---	7.8	E	0.13	9.6	-27.1	---	---	722.7	0.026	0.000	20.4	2	1
03/26/06	8:36 a	-18.5	-18.5	-18.5	---	---	8.7	E	0.14	9.6	-27.4	---	---	722.6	0.026	0.000	20.4	2	1
03/26/06	8:37 a	-18.5	-18.5	-18.5	---	---	7.8	E	0.13	8.7	-27.0	---	---	722.7	0.026	0.000	20.4	2	1
03/26/06	8:38 a	-18.5	-18.4	-18.5	---	---	7.8	E	0.13	8.7	-27.0	---	---	722.6	0.026	0.000	20.4	2	1
03/26/06	8:39 a	-18.4	-18.4	-18.4	---	---	7.8	E	0.13	8.7	-26.9	---	---	722.6	0.026	0.000	20.4	2	1
03/26/06	8:40 a	-18.4	-18.4	-18.4	---	---	7.0	E	0.12	8.7	-26.4	---	---	722.6	0.026	0.000	20.4	2	1
03/26/06	8:41 a	-18.4	-18.4	-18.4	---	---	7.8	E	0.13	9.6	-26.9	---	---	722.6	0.026	0.000	20.4	2	1
03/26/06	8:42 a	-18.4	-18.4	-18.4	---	---	7.8	E	0.13	8.7	-26.8	---	---	722.6	0.026	0.000	20.4	2	1
03/26/06	8:43 a	-18.4	-18.4	-18.4	---	---	7.8	E	0.13	8.7	-26.8	---	---	722.6	0.026	0.000	20.4	2	1
03/26/06	8:44 a	-18.4	-18.3	-18.4	---	---	7.0	E	0.12	7.8	-26.3	---	---	722.6	0.026	0.000	20.4	2	1
03/26/06	8:45 a	-18.3	-18.3	-18.3	---	---	7.0	E	0.12	8.7	-26.2	---	---	722.6	0.025	0.000	20.4	2	1
03/26/06	8:46 a	-18.3	-18.3	-18.3	---	---	7.0	E	0.12	8.7	-26.2	---	---	722.6	0.025	0.000	20.4	2	1
03/26/06	8:47 a	-18.3	-18.3	-18.3	---	---	7.0	E	0.12	7.8	-26.2	---	---	722.6	0.025	0.000	20.4	2	1
03/26/06	8:48 a	-18.3	-18.3	-18.3	---	---	7.0	E	0.12	7.8	-26.2	---	---	722.5	0.025	0.000	20.4	2	1
03/26/06	8:49 a	-18.3	-18.3	-18.3	---	---	7.0	E	0.12	7.8	-26.2	---	---	722.5	0.025	0.000	20.4	2	1
03/26/06	8:50 a	-18.3	-18.2	-18.3	---	---	6.1	E	0.10	7.8	-25.6	---	---	722.6	0.025	0.000	20.4	2	1
03/26/06	8:51 a	-18.2	-18.2	-18.2	---	---	6.1	E	0.10	7.8	-25.5	---	---	722.5	0.025	0.000	20.4	2	1
03/26/06	8:52 a	-18.2	-18.2	-18.2	---	---	6.1	E	0.10	7.8	-25.5	---	---	722.6	0.025	0.000	20.4	2	1
03/26/06	8:53 a	-18.2	-18.2	-18.2	---	---	7.0	E	0.12	7.8	-26.1	---	---	722.5	0.025	0.000	20.4	2	1
03/26/06	8:54 a	-18.2	-18.2	-18.2	---	---	6.1	E	0.10	7.8	-25.4	---	---	722.6	0.025	0.000	20.4	2	1
03/26/06	8:55 a	-18.2	-18.2	-18.2	---	---	6.1	E	0.10	7.8	-25.4	---	---	722.6	0.025	0.000	20.4	2	1
03/26/06	8:56 a	-18.1	-18.1	-18.2	---	---	6.1	E	0.10	7.8	-25.4	---	---	722.6	0.025	0.000	20.4	2	1
03/26/06	8:57 a	-18.1	-18.1	-18.2	---	---	7.0	E	0.12	7.8	-26.0	---	---	722.6	0.025	0.000	20.4	2	1
03/26/06	8:58 a	-18.1	-18.1	-18.1	---	---	6.1	E	0.10	7.8	-25.4	---	---	722.5	0.025	0.000	20.4	2	1
03/26/06	8:59 a	-18.1	-18.1	-18.1	---	---	7.0	E	0.12	7.8	-26.0	---	---	722.5	0.025	0.000	20.4	2	1
03/26/06	9:00 a	-18.1	-18.1	-18.1	---	---	6.1	E	0.10	7.8	-25.4	---	---	722.5	0.025	0.000	20.4	2	1
03/26/06	9:01 a	-18.1	-18.1	-18.1	---	---	7.0	E	0.12	7.8	-25.9	---	---	722.6	0.025	0.000	20.4	2	1
03/26/06	9:02 a	-18.1	-18.1	-18.1	---	---	7.0	E	0.12	7.8	-25.9	---	---	722.5	0.025	0.000	20.4	2	1
03/26/06	9:03 a	-18.1	-18.0	-18.1	---	---	6.1	E	0.10	7.8	-25.3	---	---	722.5	0.025	0.000	20.4	2	1
03/26/06	9:04 a	-18.0	-18.0	-18.1	---	---	7.0	E	0.12	7.8	-25.8	---	---	722.6	0.025	0.000	20.4	2	1
03/26/06	9:05 a	-18.0	-18.0	-18.0	---	---	7.0	E	0.12	7.0	-25.8	---	---	722.5	0.025	0.000	20.4	2	1
03/26/06	9:06 a	-18.0	-18.0	-18.0	---	---	7.0	E	0.12	7.8	-25.8	---	---	722.5	0.025	0.000	20.4	2	1
03/26/06	9:07 a	-18.0	-17.9	-18.0	---	---	7.0	E	0.12	7.8	-25.8	---	---	722.5	0.025	0.000	20.4	2	1
03/26/06	9:08 a	-17.9	-17.9	-17.9	---	---	7.0	E	0.12	7.8	-25.8	---	---	722.5	0.025	0.000	20.4	2	1
03/26/06	9:09 a	-17.9	-17.9	-17.9	---	---	7.0	E	0.12	7.8	-25.8	---	---	722.5	0.025	0.000	20.4	2	1
03/26/06	9:10 a	-17.9	-17.9	-17.9	---	---	6.1	E	0.10	7.8	-25.2	---	---	722.4	0.025	0.000	20.4	2	1
03/26/06	9:11 a	-17.9	-17.9	-17.9	---	---	6.1	E	0.10	7.0	-25.1	---	---	722.5	0.025	0.000	20.4	2	1
03/26/06	9:12 a	-17.9	-17.9	-17.9	---	---	7.0	E	0.12	7.8	-25.7	---	---	722.4	0.025	0.000	20.4	2	1
03/26/06	9:13 a	-17.9	-17.8	-17.9	---	---	7.0	E	0.12	7.8	-25.7	---	---	722.5	0.025	0.000	20.4	2	1
03/26/06	9:14 a	-17.8	-17.8	-17.8	---	---	7.8	E	0.13	8.7	-26.2	---	---	722.4	0.025	0.000	20.4	2	1
03/26/06	9:15 a	-17.8	-17.8	-17.8	---	---	7.8	E	0.13	8.7	-26.2	---	---	722.5	0.025	0.000	20.4	2	1
03/26/06	9:16 a	-17.8	-17.8	-17.8	---	---	7.8	E	0.13	8.7	-26.2	---	---	722.4	0.025	0.000	20.4	2	1
03/26/06	9:17 a	-17.8	-17.8	-17.8	---	---	7.8	E	0.13	8.7	-26.1	---	---	722.4	0.025	0.000	20.4	2	1
03/26/06	9:18 a	-17.8	-17.8	-17.8	---	---	7.8	E	0.13	8.7	-26.1	---	---	722.4	0.025	0.000	20.4	2	1
03/26/06	9:19 a	-17.8	-17.8	-17.8	---	---	7.0	E	0.12	7.8	-25.6	---	---	722.3	0.025	0.000	20.4	2	1
03/26/06	9:20 a	-17.8	-17.7	-17.8	---	---	7.0	E	0.12	7.8	-25.6	---	---	722.4	0.025	0.000	20.4	2	1
03/26/06	9:21 a	-17.7	-17.7	-17.7	---	---	7.0	E	0.12	7.0	-25.5	---	---	722.5	0.025	0.000	20.4	2	1
03/26/06	9:22 a	-17.7	-17.7	-17.7	---	---	7.0	E	0.12	7.0	-25.5	---	---	722.4	0.025	0.000	20.4	2	1
03/26/06	9:23 a	-17.7	-17.7	-17.7	---	---	6.1	E	0.10	7.8	-24.9	---	---	722.4	0.025	0.000	20.4	2	1
03/26/06	9:24 a	-17.7	-17.7	-17.7	---	---	6.1	E	0.10	7.0	-24.8	---	---	722.4	0.025	0.000	20.4	2	1
03/26/06	9:25 a	-17.7	-17.7	-17.7	---	---	6.1	E	0.10	7.0	-24.8	---	---	722.4	0.025	0.000	20.4	2	1
03/26/06	9:26 a	-17.7	-17.6	-17.7	---	---	5.2	E	0.09	7.0	-24.2	---	---	722.4	0.025	0.000	20.4	2	1
03/26/06	9:27 a	-17.6	-17.6	-17.7	---	---	5.2	E	0.09	7.0	-24.1	---	---	722.3	0.025	0.000	20.4	2	1
03/26/06	9:28 a	-17.6	-17.6	-17.6	---	---	5.2	E	0.09	6.1	-24.1	---	---	722.4	0.025	0.000	20.4	2	1
03/26/06	9:29 a	-17.6	-17.6	-17.6	---	---	4.3	E	0.07	6.1	-23.4	---	---	722.3	0.025	0.000	20.4	2	1
03/26/06	9:30 a	-17.6	-17.6	-17.6	---	---	4.3	E	0.07	7.0	-23.4	---	---	722.3	0.025	0.000	20.4	2	1
03/26/06	9:31 a	-17.6	-17.6	-17.6	---	---	3.5	E	0.06	6.1	-22.4	---	---	722.3	0.025	0.000	20.4	2	1
03/26/06	9:32 a	-17.6	-17.6	-17.6	---	---	2.6	E	0.04	4.3	-21.3	---	---	722.4	0.025	0.000	20.4	2	1
03/26/06	9:33 a	-17.6	-17.5	-17.6	---	---	5.2	E	0.09	7.0	-24.1	---	---	722.3	0.025	0.000	20.4	2	1
03/26/06	9:34 a	-17.5	-17.5	-17.6	---	---	4.3	E	0.07	6.1	-23.2	---	---	722.3	0.025	0.000	20.4	2	1
03/26/06	9:35 a	-17.5	-17.5	-17.5	---	---	2.6	E	0.04	4.3	-21.2	---	---	722.4	0.025	0.000	20.4	2	1
03/26/06	9:36 a	-17.5	-17.5	-17.5	---	---	2.6	E	0.04	3.5	-21.2	---	---	722.4	0.025	0.000	20.4	2	1
03/26/06	9:37 a	-17.5	-17.5	-17.5	---	---	1.7	E	0.03	3.5	-19.8	---	---	722.4	0.025	0.000	20.4	2	1
03/26/06	9:38 a	-17.4	-17.4	-17.5	---	---	1.7	E	0.03	3.5	-19.7	---	---	722.4	0.025	0.000	20.4	2	1
03/26/06	9:39 a	-17.4	-17.4	-17.4	---	---	0.9	E	0.01	2.6	-17.4	---	---	722.4	0.025	0.000	20.4	2	1
03/26/06	9:40 a	-17.4	-17.4	-17.4	---	---	0.9	E	0.01	1.7	-17.4	---	---	722.2	0.025	0.000	20.4	2	1
03/26/06	9:41 a	-17.4	-17.4	-17.4	---	---	1.7	E	0.03	2.6	-19.7	---	---	722.3	0.025	0.000	20.4	2	1
03/26/06	9:42 a	-17.4	-17.4	-17.4	---	---	2.6	E	0.04	3.5	-21.1	---	---	722.3	0.025	0.000	20.4	2	1
03/26/06	9:43 a	-17.4	-17.4	-17.4	---	---	3.5	E	0.06	5.2	-22.2	---	---	722.3	0.025	0.000	20.4	2	1
03/26/06	9:44 a	-17.4	-17.3	-17.4	---	---	3.5	E	0.06	4.3	-22.2	---	---	722.4	0.025	0.000	20.4	2	1
03/26/06	9:45 a	-17.3	-17.3	-17.4	---	---	3.5	E	0.06	4.3	-22.2	---	---	722.3	0.025	0.000	20.4	2	1
03/26/06	9:46 a	-17.3	-17.3	-17.4	---	---	3.5	E	0.06	5.2	-22.2	---	---	722.3	0.025	0.000	20.4	2	1
03/26/06	9:47 a	-17.3	-17.3	-17.3	---	---	4.3	ESE	0.07	5.2	-23.1	---	---	722.4	0.025	0.000	20.4	2	1
03/26/06	9:48 a	-17.3	-17.3	-17.3	---	---	4.3	ESE	0.07	5.2	-23.0	---	---	722.4	0.025	0.000	20.4	2	1
03/26/06	9:49 a	-17.3	-17.3	-17.3	---	---	5.2	ESE	0.09	6.1	-23.7	---	---	722.3	0.025	0.000	20.4	2	1
03/26/06	9:50 a	-17.3	-17.3	-17.3	---	---	5.2	SE	0.09	5.2	-23.7	---	---	722.3	0.025	0.000	20.4	2	1
03/26/06	9:51 a	-17.2	-17.2	-17.3	---	---	4.3	SE	0.07	5.2	-22.9	---	---	722.4	0.025	0.000	20.4	2	1
03/26/06	9:52 a	-17.2	-17.2	-17.2	---	---	3.5	SE	0.06	4.3	-22.0	---	---	722.3	0.025	0.000	20.4	2	1
03/26/06	9:53 a	-17.2	-17.2	-17.2	---	---	4.3	SE	0.07	5.2	-22.9	---	---	722.3	0.025	0.000	20.4	2	1
03/26/06	9:54 a	-17.2	-17.2	-17.2	---	---	4.3	SE	0.07	5.2	-22.9	---	---	722.4	0.025	0.000	20.4	2	1
03/26/06	9:55 a	-17.2	-17.2	-17.2	---	---	4.3	SE	0.07	5.2	-22.9	---	---	722.3	0.025	0.000	20.4	2	1
03/26/06	9:56 a	-17.2	-17.2	-17.2	---	---	5.2	SE	0.09	6.1	-23.6	---	---	722.3	0.025	0.000	20.4	2	1
03/26/06	9:57 a	-17.2	-17.2	-17.2	---	---	5.2	SE	0.09	6.1	-23.6	---	---	722.4	0.025	0.000	20.4	2	1
03/26/06	9:58 a	-17.2	-17.2	-17.2	---	---	5.2	SE	0.09	5.2	-23.6	---	---	722.3	0.025	0.000	20.4	2	1
03/26/06	9:59 a	-17.2	-17.1	-17.2	---	---	4.3	SE	0.07	5.2	-22.8	---	---	722.3	0.025	0.000	20.4	2	1
03/26/06	10:00 a	-17.1	-17.1	-17.1	---	---	2.6	SE	0.04	3.5	-20.8	---	---	722.3	0.025	0.000	20.4	2	1
03/26/06	10:01 a	-17.1	-17.1	-17.2	---	---	2.6	SE	0.04	3.5	-20.8	---	---	722.3	0.025	0.000	20.4	2	1
03/26/06	10:02 a	-17.1	-17.1	-17.1	---	---	1.7	SE	0.03	3.5	-19.3	---	---	722.4	0.025	0.000	20.4	2	1
03/26/06	10:03 a	-17.1	-17.1	-17.1	---	---	1.7	SE	0.03	3.5	-19.3	---	---	722.4	0.025	0.000	20.4	2	1
03/26/06	10:04 a	-17.1	-17.1	-17.1	---	---	1.7	SE	0.03	2.6	-19.3	---	---	722.4	0.025	0.000	20.4	2	1
03/26/06	10:05 a	-17.1	-17.1	-17.1	---	---	2.6	SE	0.04	3.5	-20.7	---	---	722.4	0.025	0.000	20.4	2	1
03/26/06	10:06 a	-17.1	-17.1	-17.1	---	---	1.7	SE	0.03	2.6	-19.3	---	---	722.4	0.025	0.000	20.4	2	1
03/26/06	10:07 a	-17.1	-17.1	-17.1	---	---	0.9	SE	0.01	1.7	-17.1	---	---	722.3	0.025	0.000	20.4	2	1
03/26/06	10:08 a	-17.0	-17.0	-17.1	---	---	0.0	SE	0.00	0.9	-17.0	---	---	722.3	0.025	0.000	20.4	2	1
03/26/06	10:09 a	-17.0	-17.0	-17.1	---	---	0.0	---	0.00	0.0	-17.0	---	---	722.3	0.025	0.000	20.4	2	1
03/26/06	10:10 a	-17.0	-17.0	-17.1	---	---	0.0	---	0.00	0.9	-17.0	---	---	722.3	0.025	0.000	20.4	2	1
03/26/06	10:11 a	-17.0	-17.0	-17.1	---	---	0.0	---	0.00	0.0	-17.0	---	---	722.3	0.025	0.000	20.4	2	1
03/26/06	10:12 a	-17.0	-17.0	-17.0	---	---	0.0	---	0.00	0.9	-17.0	---	---	722.2	0.025	0.000	20.4	2	1
03/26/06	10:13 a	-17.0	-17.0	-17.0	---	---	0.0	---	0.00	0.0	-17.0	---	---	722.3	0.025	0.000	20.4	2	1
03/26/06	10:14 a	-17.0	-17.0	-17.0	---	---	0.0	---	0.00	0.0	-17.0	---	---	722.3	0.025	0.000	20.4	2	1
03/26/06	10:15 a	-17.0	-17.0	-17.0	---	---	0.0	SE	0.00	0.9	-17.0	---	---	722.3	0.025	0.000	20.4	2	1
03/26/06	10:16 a	-17.0	-17.0	-17.0	---	---	0.9	SE	0.01	1.7	-17.0	---	---	722.2	0.025	0.000	20.4	2	1
03/26/06	10:17 a	-17.0	-16.9	-17.0	---	---	0.9	SE	0.01	1.7	-17.0	---	---	722.3	0.025	0.000	20.4	2	1
03/26/06	10:18 a	-17.0	-17.0	-17.0	---	---	0.9	SE	0.01	1.7	-17.0	---	---	722.3	0.025	0.000	20.4	2	1
03/26/06	10:19 a	-16.9	-16.9	-17.0	---	---	0.9	SE	0.01	1.7	-16.9	---	---	722.2	0.024	0.000	20.4	2	1
03/26/06	10:20 a	-16.9	-16.9	-16.9	---	---	0.9	SE	0.01	2.6	-16.9	---	---	722.2	0.024	0.000	20.4	2	1
03/26/06	10:21 a	-16.9	-16.9	-16.9	---	---	0.9	SE	0.01	1.7	-16.9	---	---	722.3	0.024	0.000	20.4	2	1
03/26/06	10:22 a	-16.9	-16.9	-17.0	---	---	0.9	SE	0.01	1.7	-16.9	---	---	722.3	0.024	0.000	20.4	2	1
03/26/06	10:23 a	-16.9	-16.9	-17.0	---	---	1.7	SE	0.03	1.7	-19.2	---	---	722.2	0.024	0.000	20.4	2	1
03/26/06	10:24 a	-16.9	-16.9	-16.9	---	---	1.7	SE	0.03	1.7	-19.2	---	---	722.3	0.024	0.000	20.4	2	1
03/26/06	10:25 a	-16.9	-16.9	-16.9	---	---	1.7	SE	0.03	1.7	-19.2	---	---	722.4	0.024	0.000	20.4	2	1
03/26/06	10:26 a	-16.9	-16.9	-16.9	---	---	1.7	SE	0.03	2.6	-19.2	---	---	722.3	0.024	0.000	20.4	2	1
03/26/06	10:27 a	-16.9	-16.9	-16.9	---	---	1.7	SE	0.03	2.6	-19.2	---	---	722.3	0.024	0.000	20.4	2	1
03/26/06	10:28 a	-16.9	-16.9	-16.9	---	---	2.6	SE	0.04	2.6	-20.6	---	---	722.2	0.024	0.000	20.4	2	1
03/26/06	10:29 a	-16.9	-16.9	-16.9	---	---	1.7	SE	0.03	2.6	-19.2	---	---	722.2	0.024	0.000	20.4	2	1
03/26/06	10:30 a	-16.9	-16.9	-16.9	---	---	1.7	SE	0.03	2.6	-19.2	---	---	722.2	0.024	0.000	20.4	2	1
03/26/06	10:31 a	-16.9	-16.9	-16.9	---	---	1.7	SE	0.03	2.6	-19.2	---	---	722.2	0.024	0.000	20.4	2	1
03/26/06	10:32 a	-16.9	-16.9	-16.9	---	---	1.7	SE	0.03	1.7	-19.2	---	---	722.2	0.024	0.000	20.4	2	1
03/26/06	10:33 a	-16.9	-16.9	-16.9	---	---	1.7	SE	0.03	1.7	-19.2	---	---	722.3	0.024	0.000	20.4	2	1
03/26/06	10:34 a	-16.9	-16.9	-16.9	---	---	1.7	SE	0.03	1.7	-19.2	---	---	722.2	0.024	0.000	20.4	2	1
03/26/06	10:35 a	-16.9	-16.9	-16.9	---	---	1.7	SE	0.03	2.6	-19.2	---	---	722.2	0.024	0.000	20.4	2	1
03/26/06	10:36 a	-16.9	-16.9	-16.9	---	---	1.7	SE	0.03	2.6	-19.2	---	---	722.2	0.024	0.000	20.4	2	1
03/26/06	10:37 a	-16.9	-16.9	-16.9	---	---	1.7	SE	0.03	2.6	-19.2	---	---	722.2	0.024	0.000	20.4	2	1
03/26/06	10:38 a	-16.9	-16.9	-16.9	---	---	2.6	SE	0.04	2.6	-20.6	---	---	722.2	0.024	0.000	20.4	2	1
03/26/06	10:39 a	-16.9	-16.9	-16.9	---	---	1.7	SE	0.03	2.6	-19.2	---	---	722.3	0.024	0.000	20.4	2	1
03/26/06	10:40 a	-16.9	-16.9	-16.9	---	---	1.7	SE	0.03	2.6	-19.2	---	---	722.2	0.024	0.000	20.4	2	1
03/26/06	10:41 a	-16.9	-16.9	-16.9	---	---	2.6	SE	0.04	3.5	-20.6	---	---	722.2	0.024	0.000	20.4	2	1
03/26/06	10:42 a	-16.9	-16.9	-16.9	---	---	1.7	SE	0.03	2.6	-19.1	---	---	722.2	0.024	0.000	20.4	2	1
03/26/06	10:43 a	-16.9	-16.9	-16.9	---	---	1.7	SE	0.03	2.6	-19.1	---	---	722.2	0.024	0.000	20.5	2	1
03/26/06	10:44 a	-16.9	-16.9	-16.9	---	---	1.7	SE	0.03	2.6	-19.2	---	---	722.2	0.024	0.000	20.5	2	1
03/26/06	10:45 a	-16.9	-16.9	-16.9	---	---	2.6	SE	0.04	2.6	-20.6	---	---	722.3	0.024	0.000	20.5	2	1
03/26/06	10:46 a	-16.9	-16.9	-16.9	---	---	2.6	SE	0.04	2.6	-20.6	---	---	722.2	0.024	0.000	20.5	2	1
03/26/06	10:47 a	-16.9	-16.9	-16.9	---	---	1.7	SE	0.03	2.6	-19.2	---	---	722.2	0.024	0.000	20.5	2	1
03/26/06	10:48 a	-16.9	-16.9	-16.9	---	---	2.6	SE	0.04	2.6	-20.6	---	---	722.2	0.024	0.000	20.5	2	1
03/26/06	10:49 a	-16.9	-16.9	-16.9	---	---	1.7	SE	0.03	2.6	-19.1	---	---	722.2	0.024	0.000	20.5	2	1
03/26/06	10:50 a	-16.9	-16.9	-16.9	---	---	1.7	SE	0.03	2.6	-19.1	---	---	722.1	0.024	0.000	20.5	2	1
03/26/06	10:51 a	-16.9	-16.9	-16.9	---	---	1.7	SE	0.03	2.6	-19.1	---	---	722.1	0.024	0.000	20.5	2	1
03/26/06	10:52 a	-16.9	-16.8	-16.9	---	---	1.7	SE	0.03	1.7	-19.1	---	---	722.2	0.024	0.000	20.4	2	1
03/26/06	10:53 a	-16.9	-16.8	-16.9	---	---	2.6	SE	0.04	4.3	-20.6	---	---	722.2	0.024	0.000	20.5	2	1
03/26/06	10:54 a	-16.9	-16.9	-16.9	---	---	1.7	SE	0.03	4.3	-19.1	---	---	722.2	0.024	0.000	20.5	2	1
03/26/06	10:55 a	-16.9	-16.9	-16.9	---	---	0.0	---	0.00	0.9	-16.9	---	---	722.2	0.024	0.000	20.5	2	1
03/26/06	10:56 a	-16.9	-16.9	-16.9	---	---	0.0	---	0.00	0.0	-16.9	---	---	722.1	0.024	0.000	20.5	2	1
03/26/06	10:57 a	-16.9	-16.8	-16.9	---	---	0.0	---	0.00	0.0	-16.9	---	---	722.1	0.024	0.000	20.5	2	1
03/26/06	10:58 a	-16.8	-16.8	-16.9	---	---	0.0	SE	0.00	0.9	-16.8	---	---	722.1	0.024	0.000	20.5	2	1
03/26/06	10:59 a	-16.8	-16.8	-16.9	---	---	2.6	SE	0.04	3.5	-20.5	---	---	722.1	0.024	0.000	20.4	2	1
03/26/06	11:00 a	-16.9	-16.9	-16.9	---	---	1.7	SE	0.03	2.6	-19.1	---	---	722.1	0.024	0.000	20.4	2	1
03/26/06	11:01 a	-16.9	-16.9	-16.9	---	---	0.0	---	0.00	0.9	-16.9	---	---	722.1	0.024	0.000	20.4	2	1
03/26/06	11:02 a	-16.9	-16.8	-16.9	---	---	0.0	---	0.00	0.0	-16.9	---	---	722.2	0.024	0.000	20.4	2	1
03/26/06	11:03 a	-16.9	-16.8	-16.9	---	---	0.9	SE	0.01	1.7	-16.9	---	---	722.1	0.024	0.000	20.4	2	1
03/26/06	11:04 a	-16.9	-16.8	-16.9	---	---	2.6	SE	0.04	3.5	-20.6	---	---	722.1	0.024	0.000	20.4	2	1
03/26/06	11:05 a	-16.9	-16.8	-16.9	---	---	1.7	SE	0.03	3.5	-19.1	---	---	722.2	0.024	0.000	20.4	2	1
03/26/06	11:06 a	-16.9	-16.9	-16.9	---	---	1.7	SE	0.03	3.5	-19.1	---	---	722.2	0.024	0.000	20.4	2	1
03/26/06	11:07 a	-16.9	-16.9	-16.9	---	---	4.3	NE	0.07	6.1	-22.5	---	---	722.1	0.024	0.000	20.4	2	1
03/26/06	11:08 a	-16.9	-16.9	-16.9	---	---	3.5	NE	0.06	4.3	-21.6	---	---	722.1	0.024	0.000	20.4	2	1
03/26/06	11:09 a	-16.9	-16.9	-16.9	---	---	0.9	NE	0.01	1.7	-16.9	---	---	722.1	0.024	0.000	20.4	2	1
03/26/06	11:10 a	-16.9	-16.9	-16.9	---	---	1.7	NE	0.03	2.6	-19.2	---	---	722.1	0.024	0.000	20.4	2	1
03/26/06	11:11 a	-16.9	-16.9	-16.9	---	---	0.9	NE	0.01	1.7	-16.9	---	---	722.1	0.024	0.000	20.4	2	1
03/26/06	11:12 a	-16.9	-16.9	-16.9	---	---	0.0	---	0.00	0.0	-16.9	---	---	722.1	0.024	0.000	20.4	2	1
03/26/06	11:13 a	-16.9	-16.9	-16.9	---	---	0.0	---	0.00	0.0	-16.9	---	---	722.1	0.024	0.000	20.4	2	1
03/26/06	11:14 a	-16.9	-16.9	-16.9	---	---	0.0	NE	0.00	0.9	-16.9	---	---	722.1	0.024	0.000	20.4	2	1
03/26/06	11:15 a	-16.9	-16.9	-16.9	---	---	1.7	NE	0.03	1.7	-19.2	---	---	722.1	0.024	0.000	20.4	2	1
03/26/06	11:16 a	-16.9	-16.9	-16.9	---	---	1.7	NE	0.03	4.3	-19.2	---	---	722.1	0.024	0.000	20.4	2	1
03/26/06	11:17 a	-16.9	-16.9	-16.9	---	---	4.3	NE	0.07	6.1	-22.6	---	---	722.1	0.024	0.000	20.4	2	1
03/26/06	11:18 a	-16.9	-16.9	-16.9	---	---	4.3	NNE	0.07	5.2	-22.6	---	---	722.0	0.024	0.000	20.4	2	1
03/26/06	11:19 a	-17.0	-17.0	-17.0	---	---	5.2	NNE	0.09	6.1	-23.4	---	---	722.0	0.025	0.000	20.4	2	1
03/26/06	11:20 a	-17.1	-17.0	-17.1	---	---	5.2	NNE	0.09	7.0	-23.4	---	---	722.0	0.025	0.000	20.4	2	1
03/26/06	11:21 a	-17.1	-17.1	-17.1	---	---	4.3	N	0.07	6.1	-22.7	---	---	722.1	0.025	0.000	20.4	2	1
03/26/06	11:22 a	-17.1	-17.1	-17.1	---	---	4.3	N	0.07	7.0	-22.8	---	---	722.0	0.025	0.000	20.4	2	1
03/26/06	11:23 a	-17.2	-17.1	-17.2	---	---	7.0	N	0.12	8.7	-24.8	---	---	722.0	0.025	0.000	20.4	2	1
03/26/06	11:24 a	-17.2	-17.2	-17.3	---	---	7.0	N	0.12	8.7	-24.9	---	---	722.0	0.025	0.000	20.4	2	1
03/26/06	11:25 a	-17.3	-17.3	-17.4	---	---	5.2	N	0.09	7.0	-23.8	---	---	722.0	0.025	0.000	20.4	2	1
03/26/06	11:26 a	-17.5	-17.4	-17.6	---	---	6.1	N	0.10	10.4	-24.7	---	---	722.0	0.025	0.000	20.4	2	1
03/26/06	11:27 a	-17.6	-17.6	-17.7	---	---	7.8	N	0.13	10.4	-25.9	---	---	722.0	0.025	0.000	20.4	2	1
03/26/06	11:28 a	-17.8	-17.7	-17.9	---	---	8.7	N	0.14	10.4	-26.6	---	---	722.0	0.025	0.000	20.4	2	1
03/26/06	11:29 a	-18.0	-17.9	-18.1	---	---	9.6	N	0.16	11.3	-27.3	---	---	721.9	0.025	0.000	20.5	2	1
03/26/06	11:30 a	-18.2	-18.2	-18.3	---	---	7.0	N	0.12	9.6	-26.1	---	---	721.9	0.025	0.000	20.4	2	1
03/26/06	11:31 a	-18.4	-18.3	-18.4	---	---	5.2	N	0.09	8.7	-25.1	---	---	722.0	0.026	0.000	20.5	2	1
03/26/06	11:32 a	-18.6	-18.4	-18.6	---	---	7.0	N	0.12	8.7	-26.5	---	---	721.9	0.026	0.000	20.5	2	1
03/26/06	11:33 a	-18.6	-18.6	-18.6	---	---	8.7	N	0.14	13.0	-27.6	---	---	722.0	0.026	0.000	20.5	2	1
03/26/06	11:34 a	-18.7	-18.7	-18.8	---	---	7.8	NNW	0.13	10.4	-27.3	---	---	722.0	0.026	0.000	20.5	2	1
03/26/06	11:35 a	-18.8	-18.8	-18.9	---	---	11.3	NNW	0.19	13.0	-29.2	---	---	722.0	0.026	0.000	20.5	2	1
03/26/06	11:36 a	-18.9	-18.9	-19.0	---	---	9.6	NNW	0.16	11.3	-28.5	---	---	721.9	0.026	0.000	20.5	2	1
03/26/06	11:37 a	-19.1	-19.1	-19.1	---	---	7.8	N	0.13	9.6	-27.7	---	---	722.0	0.026	0.000	20.5	2	1
03/26/06	11:38 a	-19.2	-19.2	-19.3	---	---	8.7	N	0.14	10.4	-28.4	---	---	721.9	0.026	0.000	20.5	2	1
03/26/06	11:39 a	-19.3	-19.3	-19.4	---	---	7.8	N	0.13	8.7	-28.0	---	---	722.0	0.026	0.000	20.5	2	1
03/26/06	11:40 a	-19.5	-19.4	-19.6	---	---	7.8	N	0.13	9.6	-28.2	---	---	721.9	0.026	0.000	20.5	2	1
03/26/06	11:41 a	-19.6	-19.6	-19.6	---	---	7.8	N	0.13	8.7	-28.3	---	---	722.0	0.026	0.000	20.4	2	1
03/26/06	11:42 a	-19.7	-19.6	-19.7	---	---	9.6	N	0.16	11.3	-29.4	---	---	721.8	0.026	0.000	20.4	2	1
03/26/06	11:43 a	-19.7	-19.7	-19.7	---	---	8.7	NNW	0.14	9.6	-29.0	---	---	721.9	0.026	0.000	20.4	2	1
03/26/06	11:44 a	-19.8	-19.8	-19.8	---	---	7.8	N	0.13	9.6	-28.6	---	---	721.8	0.026	0.000	20.4	2	1
03/26/06	11:45 a	-19.8	-19.8	-19.8	---	---	8.7	N	0.14	9.6	-29.1	---	---	722.0	0.026	0.000	20.4	2	1
03/26/06	11:46 a	-19.8	-19.8	-19.8	---	---	7.8	N	0.13	8.7	-28.6	---	---	721.9	0.026	0.000	20.4	2	1
03/26/06	11:47 a	-19.8	-19.8	-19.8	---	---	8.7	NNW	0.14	9.6	-29.1	---	---	721.9	0.027	0.000	20.4	2	1
03/26/06	11:48 a	-19.8	-19.8	-19.8	---	---	7.8	N	0.13	9.6	-28.6	---	---	721.8	0.027	0.000	20.4	2	1
03/26/06	11:49 a	-19.8	-19.8	-19.8	---	---	8.7	N	0.14	8.7	-29.1	---	---	721.9	0.027	0.000	20.4	2	1
03/26/06	11:50 a	-19.8	-19.8	-19.8	---	---	7.8	N	0.13	9.6	-28.6	---	---	721.9	0.027	0.000	20.4	2	1
03/26/06	11:51 a	-19.8	-19.8	-19.8	---	---	7.8	N	0.13	8.7	-28.6	---	---	721.8	0.026	0.000	20.4	2	1
03/26/06	11:52 a	-19.8	-19.8	-19.8	---	---	7.0	N	0.12	7.8	-28.0	---	---	721.8	0.026	0.000	20.4	2	1
03/26/06	11:53 a	-19.8	-19.7	-19.8	---	---	7.8	N	0.13	9.6	-28.6	---	---	721.8	0.026	0.000	20.4	2	1
03/26/06	11:54 a	-19.7	-19.7	-19.7	---	---	8.7	N	0.14	9.6	-29.0	---	---	721.9	0.026	0.000	20.4	2	1
03/26/06	11:55 a	-19.7	-19.7	-19.7	---	---	8.7	N	0.14	10.4	-28.9	---	---	721.9	0.026	0.000	20.3	2	1
03/26/06	11:56 a	-19.7	-19.6	-19.7	---	---	8.7	N	0.14	9.6	-28.9	---	---	721.8	0.026	0.000	20.3	2	1
03/26/06	11:57 a	-19.6	-19.6	-19.6	---	---	7.8	N	0.13	8.7	-28.3	---	---	721.9	0.026	0.000	20.3	2	1
03/26/06	11:58 a	-19.6	-19.5	-19.6	---	---	7.8	N	0.13	8.7	-28.3	---	---	721.8	0.026	0.000	20.3	2	1
03/26/06	11:59 a	-19.5	-19.5	-19.5	---	---	7.8	N	0.13	8.7	-28.2	---	---	721.8	0.026	0.000	20.3	2	1
03/26/06	12:00 p	-19.5	-19.5	-19.5	---	---	7.8	N	0.13	9.6	-28.2	---	---	721.8	0.026	0.000	20.3	2	1
03/26/06	12:01 p	-19.5	-19.4	-19.5	---	---	9.6	NNW	0.16	11.3	-29.2	---	---	721.8	0.026	0.000	20.3	2	1
03/26/06	12:02 p	-19.4	-19.4	-19.4	---	---	10.4	NNW	0.17	13.0	-29.5	---	---	721.8	0.026	0.000	20.3	2	1
03/26/06	12:03 p	-19.4	-19.4	-19.4	---	---	7.8	N	0.13	9.6	-28.1	---	---	721.8	0.026	0.000	20.3	2	1
03/26/06	12:04 p	-19.4	-19.4	-19.4	---	---	8.7	NNW	0.14	9.6	-28.6	---	---	721.8	0.026	0.000	20.3	2	1
03/26/06	12:05 p	-19.3	-19.3	-19.4	---	---	9.6	NNW	0.16	11.3	-28.9	---	---	721.8	0.026	0.000	20.3	2	1
03/26/06	12:06 p	-19.3	-19.3	-19.3	---	---	9.6	NNW	0.16	11.3	-28.9	---	---	721.9	0.026	0.000	20.3	2	1
03/26/06	12:07 p	-19.3	-19.3	-19.3	---	---	8.7	NNW	0.14	10.4	-28.5	---	---	721.9	0.026	0.000	20.3	2	1
03/26/06	12:08 p	-19.3	-19.3	-19.3	---	---	9.6	NNW	0.16	11.3	-28.9	---	---	721.8	0.026	0.000	20.3	2	1
03/26/06	12:09 p	-19.3	-19.3	-19.3	---	---	8.7	NNW	0.14	11.3	-28.4	---	---	721.9	0.026	0.000	20.3	2	1
03/26/06	12:10 p	-19.3	-19.3	-19.3	---	---	9.6	NNW	0.16	10.4	-28.9	---	---	721.8	0.026	0.000	20.2	2	1
03/26/06	12:11 p	-19.3	-19.3	-19.3	---	---	8.7	NNW	0.14	9.6	-28.4	---	---	721.8	0.026	0.000	20.2	2	1
03/26/06	12:12 p	-19.3	-19.3	-19.3	---	---	7.8	NNW	0.13	9.6	-27.9	---	---	721.8	0.026	0.000	20.3	2	1
03/26/06	12:13 p	-19.3	-19.3	-19.3	---	---	7.0	N	0.12	7.8	-27.4	---	---	721.7	0.026	0.000	20.3	2	1
03/26/06	12:14 p	-19.3	-19.3	-19.3	---	---	7.0	N	0.12	7.8	-27.4	---	---	721.8	0.026	0.000	20.3	2	1
03/26/06	12:15 p	-19.3	-19.3	-19.3	---	---	7.0	N	0.12	7.8	-27.4	---	---	721.8	0.026	0.000	20.3	2	1
03/26/06	12:16 p	-19.3	-19.2	-19.3	---	---	7.8	N	0.13	8.7	-27.9	---	---	721.8	0.026	0.000	20.3	2	1
03/26/06	12:17 p	-19.2	-19.2	-19.3	---	---	7.8	N	0.13	8.7	-27.9	---	---	721.7	0.026	0.000	20.3	2	1
03/26/06	12:18 p	-19.2	-19.2	-19.2	---	---	8.7	N	0.14	10.4	-28.4	---	---	721.7	0.026	0.000	20.3	2	1
03/26/06	12:19 p	-19.2	-19.2	-19.2	---	---	7.8	N	0.13	9.6	-27.9	---	---	721.8	0.026	0.000	20.3	2	1
03/26/06	12:20 p	-19.2	-19.2	-19.2	---	---	9.6	NNW	0.16	10.4	-28.8	---	---	721.7	0.026	0.000	20.3	2	1
03/26/06	12:21 p	-19.2	-19.2	-19.2	---	---	7.0	NNW	0.12	8.7	-27.3	---	---	721.7	0.026	0.000	20.3	2	1
03/26/06	12:22 p	-19.2	-19.2	-19.2	---	---	7.8	NNW	0.13	9.6	-27.9	---	---	721.7	0.026	0.000	20.3	2	1
03/26/06	12:23 p	-19.2	-19.2	-19.2	---	---	8.7	NNW	0.14	9.6	-28.3	---	---	721.7	0.026	0.000	20.3	2	1
03/26/06	12:24 p	-19.2	-19.2	-19.2	---	---	8.7	NNW	0.14	9.6	-28.3	---	---	721.7	0.026	0.000	20.3	2	1
03/26/06	12:25 p	-19.2	-19.1	-19.2	---	---	7.8	NNW	0.13	9.6	-27.8	---	---	721.6	0.026	0.000	20.3	2	1
03/26/06	12:26 p	-19.1	-19.1	-19.1	---	---	7.8	NNW	0.13	10.4	-27.7	---	---	721.6	0.026	0.000	20.3	2	1
03/26/06	12:27 p	-19.1	-19.1	-19.1	---	---	8.7	NNW	0.14	10.4	-28.2	---	---	721.6	0.026	0.000	20.3	2	1
03/26/06	12:28 p	-19.1	-19.1	-19.1	---	---	7.8	NNW	0.13	8.7	-27.7	---	---	721.7	0.026	0.000	20.3	2	1
03/26/06	12:29 p	-19.1	-19.0	-19.1	---	---	7.8	NNW	0.13	8.7	-27.7	---	---	721.6	0.026	0.000	20.2	2	1
03/26/06	12:30 p	-19.0	-18.9	-19.0	---	---	7.8	NNW	0.13	8.7	-27.6	---	---	721.6	0.026	0.000	20.2	2	1
03/26/06	12:31 p	-18.9	-18.9	-19.0	---	---	7.8	NNW	0.13	8.7	-27.6	---	---	721.6	0.026	0.000	20.2	2	1
03/26/06	12:32 p	-18.9	-18.9	-18.9	---	---	7.8	NNW	0.13	8.7	-27.6	---	---	721.6	0.026	0.000	20.2	2	1
03/26/06	12:33 p	-18.9	-18.9	-18.9	---	---	7.8	NNW	0.13	9.6	-27.6	---	---	721.6	0.026	0.000	20.2	2	1
03/26/06	12:34 p	-18.9	-18.9	-18.9	---	---	7.8	NNW	0.13	9.6	-27.4	---	---	721.6	0.026	0.000	20.2	2	1
03/26/06	12:35 p	-18.9	-18.9	-18.9	---	---	9.6	NNW	0.16	10.4	-28.4	---	---	721.6	0.026	0.000	20.2	2	1
03/26/06	12:36 p	-18.8	-18.8	-18.8	---	---	7.8	NNW	0.13	10.4	-27.4	---	---	721.6	0.026	0.000	20.2	2	1
03/26/06	12:37 p	-18.8	-18.8	-18.8	---	---	8.7	NNW	0.14	8.7	-27.8	---	---	721.5	0.026	0.000	20.2	2	1
03/26/06	12:38 p	-18.8	-18.8	-18.8	---	---	7.8	NNW	0.13	8.7	-27.3	---	---	721.6	0.026	0.000	20.2	2	1
03/26/06	12:39 p	-18.7	-18.7	-18.7	---	---	7.0	NNW	0.12	7.8	-26.7	---	---	721.5	0.026	0.000	20.2	2	1
03/26/06	12:40 p	-18.7	-18.7	-18.7	---	---	7.8	NNW	0.13	8.7	-27.3	---	---	721.6	0.026	0.000	20.2	2	1
03/26/06	12:41 p	-18.7	-18.7	-18.7	---	---	8.7	NNW	0.14	9.6	-27.7	---	---	721.6	0.026	0.000	20.2	2	1
03/26/06	12:42 p	-18.7	-18.7	-18.7	---	---	7.8	NNW	0.13	9.6	-27.2	---	---	721.6	0.026	0.000	20.2	2	1
03/26/06	12:43 p	-18.7	-18.7	-18.7	---	---	7.8	NNW	0.13	8.7	-27.2	---	---	721.6	0.026	0.000	20.2	2	1
03/26/06	12:44 p	-18.6	-18.6	-18.7	---	---	7.0	NNW	0.12	7.8	-26.6	---	---	721.6	0.026	0.000	20.2	2	1
03/26/06	12:45 p	-18.6	-18.6	-18.6	---	---	7.0	NNW	0.12	7.8	-26.6	---	---	721.6	0.026	0.000	20.2	2	1
03/26/06	12:46 p	-18.6	-18.6	-18.6	---	---	7.8	NNW	0.13	9.6	-27.1	---	---	721.6	0.026	0.000	20.1	2	1
03/26/06	12:47 p	-18.6	-18.6	-18.6	---	---	7.8	NNW	0.13	9.6	-27.1	---	---	721.6	0.026	0.000	20.1	2	1
03/26/06	12:48 p	-18.6	-18.6	-18.6	---	---	8.7	NNW	0.14	9.6	-27.6	---	---	721.5	0.026	0.000	20.1	2	1
03/26/06	12:49 p	-18.6	-18.6	-18.6	---	---	8.7	NNW	0.14	9.6	-27.6	---	---	721.5	0.026	0.000	20.1	2	1
03/26/06	12:50 p	-18.6	-18.6	-18.6	---	---	7.8	NNW	0.13	8.7	-27.1	---	---	721.7	0.026	0.000	20.1	2	1
03/26/06	12:51 p	-18.6	-18.6	-18.6	---	---	7.8	NNW	0.13	8.7	-27.1	---	---	721.5	0.026	0.000	20.1	2	1
03/26/06	12:52 p	-18.6	-18.6	-18.6	---	---	7.0	NNW	0.12	7.8	-26.6	---	---	721.6	0.026	0.000	20.1	2	1
03/26/06	12:53 p	-18.6	-18.6	-18.6	---	---	7.0	NNW	0.12	7.8	-26.6	---	---	721.6	0.026	0.000	20.1	2	1
03/26/06	12:54 p	-18.6	-18.6	-18.6	---	---	7.0	NNW	0.12	7.8	-26.6	---	---	721.5	0.026	0.000	20.1	2	1
03/26/06	12:55 p	-18.7	-18.6	-18.7	---	---	7.8	NNW	0.13	7.8	-27.2	---	---	721.5	0.026	0.000	20.1	2	1
03/26/06	12:56 p	-18.6	-18.6	-18.7	---	---	7.0	NNW	0.12	8.7	-26.6	---	---	721.5	0.026	0.000	20.1	2	1
03/26/06	12:57 p	-18.7	-18.7	-18.7	---	---	7.0	NNW	0.12	7.0	-26.7	---	---	721.5	0.026	0.000	20.1	2	1
03/26/06	12:58 p	-18.7	-18.7	-18.7	---	---	7.8	NNW	0.13	8.7	-27.2	---	---	721.5	0.026	0.000	20.1	2	1
03/26/06	12:59 p	-18.7	-18.7	-18.7	---	---	7.8	NNW	0.13	8.7	-27.2	---	---	721.4	0.026	0.000	20.1	2	1
03/26/06	1:00 p	-18.7	-18.7	-18.7	---	---	7.8	NNW	0.13	9.6	-27.3	---	---	721.5	0.026	0.000	20.1	2	1
03/26/06	1:01 p	-18.8	-18.7	-18.8	---	---	9.6	NNW	0.16	9.6	-28.3	---	---	721.5	0.026	0.000	20.1	2	1
03/26/06	1:02 p	-18.7	-18.7	-18.7	---	---	7.8	NNW	0.13	9.6	-27.3	---	---	721.4	0.026	0.000	20.1	2	1
03/26/06	1:03 p	-18.7	-18.7	-18.8	---	---	7.0	NNW	0.12	8.7	-26.7	---	---	721.4	0.026	0.000	20.1	2	1
03/26/06	1:04 p	-18.8	-18.8	-18.8	---	---	7.8	NNW	0.13	8.7	-27.3	---	---	721.4	0.026	0.000	20.1	2	1
03/26/06	1:05 p	-18.8	-18.8	-18.8	---	---	8.7	NNW	0.14	10.4	-27.8	---	---	721.5	0.026	0.000	20.1	2	1
03/26/06	1:06 p	-18.8	-18.8	-18.8	---	---	8.7	NNW	0.14	10.4	-27.8	---	---	721.4	0.026	0.000	20.1	2	1
03/26/06	1:07 p	-18.8	-18.8	-18.8	---	---	7.8	NNW	0.13	8.7	-27.3	---	---	721.4	0.026	0.000	20.1	2	1
03/26/06	1:08 p	-18.8	-18.7	-18.8	---	---	8.7	NNW	0.14	10.4	-27.8	---	---	721.4	0.026	0.000	20.1	2	1
03/26/06	1:09 p	-18.7	-18.7	-18.7	---	---	8.7	NNW	0.14	10.4	-27.7	---	---	721.4	0.026	0.000	20.1	2	1
03/26/06	1:10 p	-18.7	-18.7	-18.7	---	---	9.6	NNW	0.16	10.4	-28.2	---	---	721.4	0.026	0.000	20.1	2	1
03/26/06	1:11 p	-18.7	-18.7	-18.7	---	---	8.7	NNW	0.14	9.6	-27.7	---	---	721.3	0.026	0.000	20.1	2	1
03/26/06	1:12 p	-18.7	-18.7	-18.7	---	---	8.7	NNW	0.14	10.4	-27.7	---	---	721.3	0.026	0.000	20.1	2	1
03/26/06	1:13 p	-18.7	-18.7	-18.7	---	---	8.7	NNW	0.14	11.3	-27.7	---	---	721.4	0.026	0.000	20.1	2	1
03/26/06	1:14 p	-18.7	-18.7	-18.7	---	---	9.6	NNW	0.16	11.3	-28.1	---	---	721.4	0.026	0.000	20.2	2	1
03/26/06	1:15 p	-18.7	-18.7	-18.7	---	---	8.7	NNW	0.14	11.3	-27.7	---	---	721.3	0.026	0.000	20.2	2	1
03/26/06	1:16 p	-18.7	-18.7	-18.7	---	---	8.7	NNW	0.14	10.4	-27.7	---	---	721.3	0.026	0.000	20.2	2	1
03/26/06	1:17 p	-18.7	-18.7	-18.7	---	---	8.7	NNW	0.14	10.4	-27.7	---	---	721.4	0.026	0.000	20.2	2	1
03/26/06	1:18 p	-18.7	-18.7	-18.7	---	---	9.6	NNW	0.16	10.4	-28.1	---	---	721.3	0.026	0.000	20.2	2	1
03/26/06	1:19 p	-18.7	-18.7	-18.7	---	---	8.7	NNW	0.14	9.6	-27.7	---	---	721.4	0.026	0.000	20.2	2	1
03/26/06	1:20 p	-18.7	-18.6	-18.7	---	---	7.8	NNW	0.13	9.6	-27.2	---	---	721.4	0.026	0.000	20.2	2	1
03/26/06	1:21 p	-18.6	-18.6	-18.7	---	---	8.7	NNW	0.14	9.6	-27.6	---	---	721.4	0.026	0.000	20.2	2	1
03/26/06	1:22 p	-18.7	-18.6	-18.7	---	---	8.7	NNW	0.14	9.6	-27.7	---	---	721.4	0.026	0.000	20.2	2	1
03/26/06	1:23 p	-18.7	-18.7	-18.7	---	---	8.7	NNW	0.14	10.4	-27.7	---	---	721.3	0.026	0.000	20.2	2	1
03/26/06	1:24 p	-18.6	-18.6	-18.7	---	---	11.3	NNW	0.19	13.0	-28.8	---	---	721.3	0.026	0.000	20.2	2	1
03/26/06	1:25 p	-18.6	-18.6	-18.7	---	---	10.4	NNW	0.17	11.3	-28.5	---	---	721.4	0.026	0.000	20.2	2	1
03/26/06	1:26 p	-18.6	-18.6	-18.6	---	---	9.6	NNW	0.16	10.4	-28.1	---	---	721.3	0.026	0.000	20.2	2	1
03/26/06	1:27 p	-18.6	-18.6	-18.7	---	---	8.7	NNW	0.14	9.6	-27.6	---	---	721.3	0.026	0.000	20.1	2	1
03/26/06	1:28 p	-18.7	-18.6	-18.7	---	---	8.7	NNW	0.14	10.4	-27.7	---	---	721.4	0.026	0.000	20.1	2	1
03/26/06	1:29 p	-18.7	-18.6	-18.7	---	---	8.7	NNW	0.14	10.4	-27.7	---	---	721.3	0.026	0.000	20.1	2	1
03/26/06	1:30 p	-18.6	-18.6	-18.6	---	---	7.8	NNW	0.13	9.6	-27.1	---	---	721.3	0.026	0.000	20.1	2	1
03/26/06	1:31 p	-18.6	-18.6	-18.7	---	---	7.8	NNW	0.13	9.6	-27.1	---	---	721.3	0.026	0.000	20.1	2	1
03/26/06	1:32 p	-18.6	-18.6	-18.6	---	---	9.6	NNW	0.16	10.4	-28.1	---	---	721.3	0.026	0.000	20.1	2	1
03/26/06	1:33 p	-18.6	-18.6	-18.6	---	---	9.6	NNW	0.16	11.3	-28.1	---	---	721.2	0.026	0.000	20.1	2	1
03/26/06	1:34 p	-18.6	-18.6	-18.6	---	---	8.7	NNW	0.14	9.6	-27.6	---	---	721.3	0.026	0.000	20.1	2	1
03/26/06	1:35 p	-18.6	-18.6	-18.6	---	---	8.7	NNW	0.14	9.6	-27.6	---	---	721.3	0.026	0.000	20.1	2	1
03/26/06	1:36 p	-18.6	-18.6	-18.6	---	---	8.7	NNW	0.14	10.4	-27.6	---	---	721.4	0.026	0.000	20.1	2	1
03/26/06	1:37 p	-18.6	-18.6	-18.6	---	---	7.8	NNW	0.13	8.7	-27.1	---	---	721.3	0.026	0.000	20.0	2	1
03/26/06	1:38 p	-18.6	-18.6	-18.6	---	---	6.1	NNW	0.10	7.0	-26.0	---	---	721.3	0.026	0.000	20.0	2	1
03/26/06	1:39 p	-18.6	-18.6	-18.6	---	---	5.2	N	0.09	7.0	-25.3	---	---	721.3	0.026	0.000	20.0	2	1
03/26/06	1:40 p	-18.6	-18.6	-18.6	---	---	6.1	N	0.10	7.0	-26.0	---	---	721.3	0.026	0.000	20.0	2	1
03/26/06	1:41 p	-18.6	-18.6	-18.6	---	---	7.0	NNW	0.12	7.8	-26.5	---	---	721.3	0.026	0.000	20.1	2	1
03/26/06	1:42 p	-18.6	-18.6	-18.6	---	---	7.0	NNW	0.12	8.7	-26.5	---	---	721.2	0.026	0.000	20.0	2	1
03/26/06	1:43 p	-18.6	-18.6	-18.6	---	---	7.0	NNW	0.12	9.6	-26.5	---	---	721.3	0.026	0.000	20.0	2	1
03/26/06	1:44 p	-18.6	-18.6	-18.6	---	---	7.8	NNW	0.13	9.6	-27.1	---	---	721.3	0.026	0.000	20.0	2	1
03/26/06	1:45 p	-18.6	-18.6	-18.6	---	---	7.8	NNW	0.13	9.6	-27.1	---	---	721.3	0.026	0.000	20.0	2	1
03/26/06	1:46 p	-18.6	-18.6	-18.6	---	---	7.8	NNW	0.13	8.7	-27.1	---	---	721.3	0.026	0.000	20.0	2	1
03/26/06	1:47 p	-18.6	-18.6	-18.6	---	---	7.0	NNW	0.12	7.8	-26.5	---	---	721.2	0.026	0.000	20.0	2	1
03/26/06	1:48 p	-18.6	-18.6	-18.6	---	---	7.0	NNW	0.12	8.7	-26.5	---	---	721.3	0.026	0.000	20.0	2	1
03/26/06	1:49 p	-18.6	-18.6	-18.6	---	---	7.0	NNW	0.12	9.6	-26.5	---	---	721.1	0.026	0.000	20.0	2	1
03/26/06	1:50 p	-18.6	-18.6	-18.6	---	---	7.0	NNW	0.12	9.6	-26.5	---	---	721.3	0.026	0.000	20.0	2	1
03/26/06	1:51 p	-18.6	-18.5	-18.6	---	---	8.7	NNW	0.14	9.6	-27.6	---	---	721.2	0.026	0.000	20.0	2	1
03/26/06	1:52 p	-18.5	-18.5	-18.5	---	---	7.8	NNW	0.13	8.7	-27.0	---	---	721.1	0.026	0.000	20.0	2	1
03/26/06	1:53 p	-18.5	-18.5	-18.5	---	---	7.8	NNW	0.13	10.4	-27.0	---	---	721.2	0.026	0.000	20.0	2	1
03/26/06	1:54 p	-18.5	-18.5	-18.5	---	---	9.6	NNW	0.16	11.3	-27.9	---	---	721.2	0.026	0.000	20.0	2	1
03/26/06	1:55 p	-18.5	-18.4	-18.5	---	---	8.7	NNW	0.14	10.4	-27.4	---	---	721.2	0.026	0.000	20.0	2	1
03/26/06	1:56 p	-18.4	-18.4	-18.4	---	---	9.6	NNW	0.16	10.4	-27.8	---	---	721.2	0.026	0.000	20.0	2	1
03/26/06	1:57 p	-18.4	-18.4	-18.4	---	---	8.7	NNW	0.14	9.6	-27.4	---	---	721.1	0.026	0.000	20.0	2	1
03/26/06	1:58 p	-18.4	-18.4	-18.4	---	---	8.7	NNW	0.14	9.6	-27.4	---	---	721.1	0.026	0.000	20.0	2	1
03/26/06	1:59 p	-18.4	-18.4	-18.4	---	---	8.7	NNW	0.14	8.7	-27.4	---	---	721.1	0.026	0.000	20.1	2	1
03/26/06	2:00 p	-18.4	-18.4	-18.4	---	---	7.0	NNW	0.12	8.7	-26.4	---	---	721.0	0.026	0.000	20.1	2	1
03/26/06	2:01 p	-18.4	-18.4	-18.4	---	---	9.6	NNW	0.16	11.3	-27.8	---	---	721.0	0.026	0.000	20.0	2	1
03/26/06	2:02 p	-18.4	-18.4	-18.4	---	---	8.7	NNW	0.14	10.4	-27.4	---	---	721.1	0.026	0.000	20.1	2	1
03/26/06	2:03 p	-18.4	-18.4	-18.4	---	---	7.0	NNW	0.12	8.7	-26.3	---	---	721.0	0.026	0.000	20.1	2	1
03/26/06	2:04 p	-18.4	-18.4	-18.4	---	---	7.8	NNW	0.13	10.4	-26.9	---	---	720.9	0.026	0.000	20.0	2	1
03/26/06	2:05 p	-18.4	-18.4	-18.4	---	---	8.7	NNW	0.14	10.4	-27.4	---	---	721.0	0.026	0.000	20.0	2	1
03/26/06	2:06 p	-18.4	-18.4	-18.4	---	---	7.8	NNW	0.13	9.6	-26.8	---	---	721.0	0.026	0.000	20.1	2	1
03/26/06	2:07 p	-18.4	-18.4	-18.4	---	---	9.6	NNW	0.16	10.4	-27.8	---	---	720.9	0.026	0.000	20.0	2	1
03/26/06	2:08 p	-18.4	-18.3	-18.4	---	---	8.7	NNW	0.14	10.4	-27.3	---	---	720.9	0.026	0.000	20.0	2	1
03/26/06	2:09 p	-18.3	-18.3	-18.4	---	---	7.8	NNW	0.13	9.6	-26.8	---	---	720.9	0.025	0.000	20.0	2	1
03/26/06	2:10 p	-18.3	-18.3	-18.4	---	---	7.8	NNW	0.13	9.6	-26.8	---	---	720.9	0.025	0.000	20.0	2	1
03/26/06	2:11 p	-18.3	-18.3	-18.3	---	---	6.1	NNW	0.10	8.7	-25.7	---	---	720.9	0.025	0.000	20.0	2	1
03/26/06	2:12 p	-18.3	-18.3	-18.3	---	---	7.8	NNW	0.13	11.3	-26.8	---	---	720.8	0.025	0.000	20.0	2	1
03/26/06	2:13 p	-18.3	-18.3	-18.3	---	---	7.0	NNW	0.12	8.7	-26.2	---	---	720.8	0.025	0.000	20.0	2	1
03/26/06	2:14 p	-18.3	-18.3	-18.3	---	---	8.7	NNW	0.14	11.3	-27.3	---	---	720.7	0.025	0.000	20.0	2	1
03/26/06	2:15 p	-18.3	-18.3	-18.3	---	---	10.4	NNW	0.17	13.0	-28.1	---	---	720.7	0.025	0.000	19.9	2	1
03/26/06	2:16 p	-18.3	-18.3	-18.3	---	---	9.6	NNW	0.16	13.0	-27.7	---	---	720.7	0.025	0.000	19.9	2	1
03/26/06	2:17 p	-18.2	-18.2	-18.3	---	---	10.4	NNW	0.17	13.0	-28.0	---	---	720.6	0.025	0.000	19.9	2	1
03/26/06	2:18 p	-18.3	-18.2	-18.3	---	---	9.6	NNW	0.16	13.0	-27.7	---	---	720.6	0.025	0.000	19.9	2	1
03/26/06	2:19 p	-18.2	-18.2	-18.2	---	---	8.7	NNW	0.14	12.2	-27.1	---	---	720.6	0.025	0.000	19.9	2	1
03/26/06	2:20 p	-18.2	-18.2	-18.2	---	---	9.6	NNW	0.16	13.0	-27.6	---	---	720.7	0.025	0.000	19.9	2	1
03/26/06	2:21 p	-18.2	-18.2	-18.2	---	---	11.3	NNW	0.19	13.9	-28.3	---	---	720.7	0.025	0.000	19.9	2	1
03/26/06	2:22 p	-18.2	-18.2	-18.2	---	---	9.6	NNW	0.16	11.3	-27.5	---	---	720.7	0.025	0.000	19.9	2	1
03/26/06	2:23 p	-18.2	-18.2	-18.2	---	---	8.7	NNW	0.14	11.3	-27.1	---	---	720.6	0.025	0.000	19.9	2	1
03/26/06	2:24 p	-18.2	-18.2	-18.2	---	---	8.7	NNW	0.14	9.6	-27.1	---	---	720.6	0.025	0.000	19.9	2	1
03/26/06	2:25 p	-18.2	-18.2	-18.2	---	---	9.6	NNW	0.16	11.3	-27.5	---	---	720.7	0.025	0.000	19.9	2	1
03/26/06	2:26 p	-18.2	-18.2	-18.2	---	---	11.3	NNW	0.19	13.0	-28.3	---	---	720.6	0.025	0.000	19.9	2	1
03/26/06	2:27 p	-18.2	-18.2	-18.2	---	---	8.7	NNW	0.14	9.6	-27.1	---	---	720.6	0.025	0.000	19.9	2	1
03/26/06	2:28 p	-18.2	-18.2	-18.2	---	---	11.3	NNW	0.19	14.8	-28.3	---	---	720.6	0.025	0.000	19.8	2	1
03/26/06	2:29 p	-18.2	-18.2	-18.2	---	---	10.4	NNW	0.17	13.9	-27.9	---	---	720.6	0.025	0.000	19.8	2	1
03/26/06	2:30 p	-18.2	-18.2	-18.2	---	---	10.4	NNW	0.17	12.2	-27.9	---	---	720.7	0.025	0.000	19.8	2	1
03/26/06	2:31 p	-18.2	-18.2	-18.2	---	---	10.4	NNW	0.17	12.2	-28.0	---	---	720.7	0.025	0.000	19.8	2	1
03/26/06	2:32 p	-18.2	-18.2	-18.2	---	---	9.6	NNW	0.16	10.4	-27.6	---	---	720.7	0.025	0.000	19.8	2	1
03/26/06	2:33 p	-18.2	-18.2	-18.2	---	---	8.7	NNW	0.14	12.2	-27.1	---	---	720.6	0.025	0.000	19.8	2	1
03/26/06	2:34 p	-18.2	-18.2	-18.2	---	---	8.7	NNW	0.14	12.2	-27.1	---	---	720.6	0.025	0.000	19.8	2	1
03/26/06	2:35 p	-18.2	-18.2	-18.2	---	---	8.7	NNW	0.14	10.4	-27.1	---	---	720.7	0.025	0.000	19.8	2	1
03/26/06	2:36 p	-18.2	-18.2	-18.2	---	---	9.6	NNW	0.16	11.3	-27.6	---	---	720.6	0.025	0.000	19.8	2	1
03/26/06	2:37 p	-18.2	-18.2	-18.2	---	---	9.6	NNW	0.16	10.4	-27.6	---	---	720.6	0.025	0.000	19.8	2	1
03/26/06	2:38 p	-18.2	-18.2	-18.2	---	---	9.6	NNW	0.16	11.3	-27.6	---	---	720.6	0.025	0.000	19.8	2	1
03/26/06	2:39 p	-18.2	-18.2	-18.2	---	---	10.4	NW	0.17	12.2	-28.0	---	---	720.6	0.025	0.000	19.8	2	1
03/26/06	2:40 p	-18.2	-18.2	-18.2	---	---	10.4	NW	0.17	13.0	-28.0	---	---	720.7	0.025	0.000	19.8	2	1
03/26/06	2:41 p	-18.2	-18.2	-18.2	---	---	10.4	NW	0.17	11.3	-28.0	---	---	720.7	0.025	0.000	19.8	2	1
03/26/06	2:42 p	-18.2	-18.2	-18.2	---	---	11.3	NW	0.19	13.0	-28.4	---	---	720.8	0.025	0.000	19.8	2	1
03/26/06	2:43 p	-18.3	-18.2	-18.3	---	---	8.7	NW	0.14	10.4	-27.2	---	---	720.8	0.025	0.000	19.8	2	1
03/26/06	2:44 p	-18.2	-18.2	-18.3	---	---	7.8	NW	0.13	9.6	-26.7	---	---	720.7	0.025	0.000	19.8	2	1
03/26/06	2:45 p	-18.2	-18.2	-18.3	---	---	7.0	NW	0.12	8.7	-26.1	---	---	720.9	0.025	0.000	19.8	2	1
03/26/06	2:46 p	-18.3	-18.2	-18.3	---	---	5.2	NW	0.09	6.1	-24.9	---	---	720.8	0.025	0.000	19.8	2	1
03/26/06	2:47 p	-18.3	-18.3	-18.3	---	---	6.1	NW	0.10	7.8	-25.6	---	---	720.8	0.025	0.000	19.8	2	1
03/26/06	2:48 p	-18.3	-18.3	-18.3	---	---	6.1	NW	0.10	7.0	-25.6	---	---	720.8	0.025	0.000	19.8	2	1
03/26/06	2:49 p	-18.3	-18.3	-18.3	---	---	6.1	NNW	0.10	7.0	-25.6	---	---	720.9	0.025	0.000	19.8	2	1
03/26/06	2:50 p	-18.3	-18.3	-18.3	---	---	4.3	NW	0.07	5.2	-24.2	---	---	720.8	0.025	0.000	19.8	2	1
03/26/06	2:51 p	-18.3	-18.3	-18.3	---	---	5.2	NW	0.09	6.1	-24.9	---	---	720.9	0.025	0.000	19.8	2	1
03/26/06	2:52 p	-18.3	-18.3	-18.3	---	---	5.2	NW	0.09	6.1	-25.0	---	---	720.9	0.025	0.000	19.8	2	1
03/26/06	2:53 p	-18.3	-18.3	-18.3	---	---	6.1	NW	0.10	7.8	-25.7	---	---	720.9	0.025	0.000	19.8	2	1
03/26/06	2:54 p	-18.3	-18.3	-18.4	---	---	5.2	NW	0.09	7.0	-25.0	---	---	720.9	0.025	0.000	19.8	2	1
03/26/06	2:55 p	-18.4	-18.4	-18.4	---	---	4.3	NW	0.07	5.2	-24.3	---	---	720.9	0.026	0.000	19.8	2	1
03/26/06	2:56 p	-18.4	-18.4	-18.4	---	---	6.1	NW	0.10	7.8	-25.7	---	---	721.0	0.026	0.000	19.8	2	1
03/26/06	2:57 p	-18.4	-18.4	-18.4	---	---	3.5	NW	0.06	4.3	-23.4	---	---	721.0	0.026	0.000	19.8	2	1
03/26/06	2:58 p	-18.4	-18.4	-18.4	---	---	3.5	NW	0.06	3.5	-23.4	---	---	721.0	0.026	0.000	19.8	2	1
03/26/06	2:59 p	-18.4	-18.4	-18.4	---	---	1.7	W	0.03	2.6	-20.8	---	---	721.1	0.026	0.000	19.8	2	1
03/26/06	3:00 p	-18.4	-18.4	-18.5	---	---	1.7	W	0.03	2.6	-20.8	---	---	721.1	0.026	0.000	19.8	2	1
03/26/06	3:01 p	-18.5	-18.5	-18.5	---	---	1.7	W	0.03	3.5	-20.8	---	---	721.1	0.026	0.000	19.8	2	1
03/26/06	3:02 p	-18.6	-18.5	-18.6	---	---	2.6	SSW	0.04	3.5	-22.4	---	---	721.1	0.026	0.000	19.8	2	1
03/26/06	3:03 p	-18.6	-18.6	-18.6	---	---	2.6	SSW	0.04	3.5	-22.4	---	---	721.1	0.026	0.000	19.8	2	1
03/26/06	3:04 p	-18.6	-18.6	-18.6	---	---	3.5	SSW	0.06	4.3	-23.6	---	---	721.2	0.026	0.000	19.8	2	1
03/26/06	3:05 p	-18.6	-18.6	-18.6	---	---	4.3	SSW	0.07	5.2	-24.6	---	---	721.2	0.026	0.000	19.8	2	1
03/26/06	3:06 p	-18.7	-18.7	-18.7	---	---	4.3	S	0.07	5.2	-24.6	---	---	721.2	0.026	0.000	19.8	2	1
03/26/06	3:07 p	-18.7	-18.7	-18.7	---	---	4.3	S	0.07	5.2	-24.7	---	---	721.2	0.026	0.000	19.8	2	1
03/26/06	3:08 p	-18.7	-18.7	-18.8	---	---	4.3	S	0.07	5.2	-24.7	---	---	721.3	0.026	0.000	19.8	2	1
03/26/06	3:09 p	-18.8	-18.8	-18.8	---	---	4.3	S	0.07	5.2	-24.8	---	---	721.2	0.026	0.000	19.8	2	1
03/26/06	3:10 p	-18.9	-18.8	-18.9	---	---	4.3	S	0.07	5.2	-24.9	---	---	721.3	0.026	0.000	19.8	2	1
03/26/06	3:11 p	-18.9	-18.9	-18.9	---	---	3.5	S	0.06	4.3	-23.9	---	---	721.3	0.026	0.000	19.8	2	1
03/26/06	3:12 p	-18.9	-18.9	-19.0	---	---	4.3	S	0.07	5.2	-24.9	---	---	721.3	0.026	0.000	19.8	2	1
03/26/06	3:13 p	-19.0	-19.0	-19.1	---	---	4.3	S	0.07	4.3	-25.0	---	---	721.2	0.026	0.000	19.8	2	1
03/26/06	3:14 p	-19.1	-19.1	-19.1	---	---	4.3	S	0.07	5.2	-25.1	---	---	721.3	0.026	0.000	19.8	2	1
03/26/06	3:15 p	-19.1	-19.1	-19.1	---	---	4.3	S	0.07	4.3	-25.1	---	---	721.3	0.026	0.000	19.8	2	1
03/26/06	3:16 p	-19.2	-19.2	-19.2	---	---	3.5	S	0.06	4.3	-24.3	---	---	721.3	0.026	0.000	19.8	2	1
03/26/06	3:17 p	-19.2	-19.2	-19.2	---	---	3.5	S	0.06	4.3	-24.3	---	---	721.3	0.026	0.000	19.8	2	1
03/26/06	3:18 p	-19.3	-19.3	-19.3	---	---	3.5	S	0.06	4.3	-24.4	---	---	721.3	0.026	0.000	19.8	2	1
03/26/06	3:19 p	-19.3	-19.3	-19.3	---	---	4.3	S	0.07	5.2	-25.4	---	---	721.3	0.026	0.000	19.8	2	1
03/26/06	3:20 p	-19.4	-19.3	-19.4	---	---	4.3	S	0.07	5.2	-25.4	---	---	721.3	0.026	0.000	19.8	2	1
03/26/06	3:21 p	-19.4	-19.4	-19.5	---	---	4.3	S	0.07	5.2	-25.5	---	---	721.4	0.026	0.000	19.8	2	1
03/26/06	3:22 p	-19.5	-19.5	-19.5	---	---	4.3	S	0.07	5.2	-25.6	---	---	721.4	0.026	0.000	19.8	2	1
03/26/06	3:23 p	-19.6	-19.6	-19.6	---	---	5.2	S	0.09	7.0	-26.4	---	---	721.3	0.026	0.000	19.8	2	1
03/26/06	3:24 p	-19.6	-19.6	-19.7	---	---	5.2	S	0.09	6.1	-26.5	---	---	721.4	0.026	0.000	19.8	2	1
03/26/06	3:25 p	-19.7	-19.7	-19.7	---	---	5.2	SSE	0.09	6.1	-26.6	---	---	721.3	0.026	0.000	19.8	2	1
03/26/06	3:26 p	-19.8	-19.7	-19.8	---	---	4.3	SSE	0.07	6.1	-25.9	---	---	721.4	0.026	0.000	19.9	2	1
03/26/06	3:27 p	-19.8	-19.8	-19.8	---	---	4.3	SSE	0.07	5.2	-25.9	---	---	721.4	0.026	0.000	19.9	2	1
03/26/06	3:28 p	-19.8	-19.8	-19.9	---	---	4.3	SSE	0.07	4.3	-26.0	---	---	721.4	0.027	0.000	19.9	2	1
03/26/06	3:29 p	-19.9	-19.9	-19.9	---	---	4.3	SSE	0.07	5.2	-26.1	---	---	721.4	0.027	0.000	19.9	2	1
03/26/06	3:30 p	-20.0	-19.9	-20.0	---	---	3.5	SSE	0.06	4.3	-25.2	---	---	721.4	0.027	0.000	19.9	2	1
03/26/06	3:31 p	-20.1	-20.0	-20.1	---	---	4.3	SSE	0.07	4.3	-26.2	---	---	721.4	0.027	0.000	19.9	2	1
03/26/06	3:32 p	-20.1	-20.1	-20.1	---	---	3.5	SE	0.06	4.3	-25.3	---	---	721.4	0.027	0.000	19.9	2	1
03/26/06	3:33 p	-20.1	-20.1	-20.2	---	---	2.6	SE	0.04	3.5	-24.2	---	---	721.4	0.027	0.000	19.9	2	1
03/26/06	3:34 p	-20.2	-20.2	-20.2	---	---	3.5	SE	0.06	3.5	-25.5	---	---	721.3	0.027	0.000	19.9	2	1
03/26/06	3:35 p	-20.3	-20.3	-20.3	---	---	2.6	SE	0.04	3.5	-24.4	---	---	721.3	0.027	0.000	19.9	2	1
03/26/06	3:36 p	-20.3	-20.3	-20.3	---	---	2.6	SE	0.04	4.3	-24.4	---	---	721.3	0.027	0.000	19.9	2	1
03/26/06	3:37 p	-20.3	-20.3	-20.4	---	---	1.7	SSE	0.03	2.6	-22.9	---	---	721.2	0.027	0.000	19.9	2	1
03/26/06	3:38 p	-20.4	-20.4	-20.4	---	---	2.6	SSE	0.04	3.5	-24.5	---	---	721.3	0.027	0.000	19.9	2	1
03/26/06	3:39 p	-20.4	-20.4	-20.4	---	---	1.7	SSE	0.03	2.6	-23.0	---	---	721.2	0.027	0.000	19.9	2	1
03/26/06	3:40 p	-20.5	-20.4	-20.5	---	---	1.7	SSE	0.03	3.5	-23.1	---	---	721.2	0.027	0.000	19.9	2	1
03/26/06	3:41 p	-20.6	-20.5	-20.6	---	---	2.6	SSE	0.04	2.6	-24.7	---	---	721.2	0.027	0.000	19.9	2	1
03/26/06	3:42 p	-20.6	-20.6	-20.6	---	---	1.7	SSE	0.03	2.6	-23.1	---	---	721.2	0.027	0.000	20.0	2	1
03/26/06	3:43 p	-20.6	-20.6	-20.6	---	---	1.7	SSE	0.03	3.5	-23.2	---	---	721.2	0.027	0.000	20.0	2	1
03/26/06	3:44 p	-20.6	-20.6	-20.6	---	---	2.6	S	0.04	3.5	-24.7	---	---	721.2	0.027	0.000	20.0	2	1
03/26/06	3:45 p	-20.6	-20.6	-20.7	---	---	3.5	S	0.06	3.5	-25.9	---	---	721.3	0.027	0.000	20.0	2	1
03/26/06	3:46 p	-20.6	-20.6	-20.7	---	---	3.5	S	0.06	3.5	-25.9	---	---	721.2	0.027	0.000	20.0	2	1
03/26/06	3:47 p	-20.7	-20.7	-20.7	---	---	3.5	S	0.06	5.2	-26.0	---	---	721.3	0.027	0.000	20.0	2	1
03/26/06	3:48 p	-20.7	-20.7	-20.7	---	---	4.3	SSW	0.07	5.2	-26.9	---	---	721.3	0.027	0.000	20.0	2	1
03/26/06	3:49 p	-20.7	-20.7	-20.7	---	---	3.5	SSW	0.06	5.2	-26.0	---	---	721.3	0.027	0.000	20.0	2	1
03/26/06	3:50 p	-20.7	-20.7	-20.7	---	---	5.2	SW	0.09	6.1	-27.8	---	---	721.4	0.027	0.000	20.0	2	1
03/26/06	3:51 p	-20.7	-20.7	-20.7	---	---	3.5	SSW	0.06	5.2	-26.1	---	---	721.3	0.027	0.000	20.0	2	1
03/26/06	3:52 p	-20.7	-20.7	-20.7	---	---	3.5	SSW	0.06	6.1	-26.1	---	---	721.3	0.027	0.000	20.0	2	1
03/26/06	3:53 p	-20.7	-20.7	-20.7	---	---	4.3	SSW	0.07	5.2	-27.0	---	---	721.3	0.027	0.000	20.0	2	1
03/26/06	3:54 p	-20.7	-20.7	-20.7	---	---	4.3	SSW	0.07	6.1	-27.0	---	---	721.3	0.027	0.000	20.0	2	1
03/26/06	3:55 p	-20.7	-20.7	-20.7	---	---	3.5	SSW	0.06	5.2	-26.1	---	---	721.3	0.027	0.000	20.0	2	1
03/26/06	3:56 p	-20.7	-20.7	-20.7	---	---	3.5	SW	0.06	4.3	-26.1	---	---	721.3	0.027	0.000	20.0	2	1
03/26/06	3:57 p	-20.7	-20.7	-20.7	---	---	3.5	SW	0.06	5.2	-26.1	---	---	721.3	0.027	0.000	20.0	2	1
03/26/06	3:58 p	-20.7	-20.7	-20.7	---	---	4.3	SW	0.07	5.2	-26.9	---	---	721.3	0.027	0.000	20.0	2	1
03/26/06	3:59 p	-20.7	-20.7	-20.7	---	---	4.3	SSW	0.07	5.2	-26.9	---	---	721.4	0.027	0.000	20.0	2	1
03/26/06	4:00 p	-20.7	-20.7	-20.7	---	---	4.3	SW	0.07	5.2	-26.9	---	---	721.3	0.027	0.000	20.0	2	1
03/26/06	4:01 p	-20.7	-20.7	-20.7	---	---	4.3	SSW	0.07	6.1	-26.9	---	---	721.4	0.027	0.000	20.0	2	1
03/26/06	4:02 p	-20.7	-20.7	-20.7	---	---	3.5	SSW	0.06	5.2	-26.0	---	---	721.4	0.027	0.000	20.0	2	1
03/26/06	4:03 p	-20.7	-20.6	-20.7	---	---	2.6	SSW	0.04	3.5	-24.8	---	---	721.5	0.027	0.000	20.0	2	1
03/26/06	4:04 p	-20.6	-20.6	-20.6	---	---	3.5	SSW	0.06	4.3	-25.9	---	---	721.4	0.027	0.000	20.0	2	1
03/26/06	4:05 p	-20.6	-20.6	-20.6	---	---	4.3	S	0.07	5.2	-26.9	---	---	721.5	0.027	0.000	20.0	2	1
03/26/06	4:06 p	-20.6	-20.6	-20.6	---	---	3.5	S	0.06	4.3	-25.9	---	---	721.4	0.027	0.000	20.0	2	1
03/26/06	4:07 p	-20.6	-20.6	-20.6	---	---	1.7	S	0.03	2.6	-23.2	---	---	721.5	0.027	0.000	20.0	2	1
03/26/06	4:08 p	-20.6	-20.6	-20.6	---	---	1.7	S	0.03	1.7	-23.1	---	---	721.4	0.027	0.000	20.0	2	1
03/26/06	4:09 p	-20.6	-20.6	-20.6	---	---	1.7	S	0.03	2.6	-23.1	---	---	721.4	0.027	0.000	20.0	2	1
03/26/06	4:10 p	-20.6	-20.6	-20.6	---	---	2.6	S	0.04	2.6	-24.7	---	---	721.4	0.027	0.000	20.0	2	1
03/26/06	4:11 p	-20.5	-20.5	-20.5	---	---	2.6	ENE	0.04	3.5	-24.6	---	---	721.5	0.027	0.000	20.0	2	1
03/26/06	4:12 p	-20.5	-20.5	-20.5	---	---	2.6	ENE	0.04	4.3	-24.6	---	---	721.5	0.027	0.000	20.0	2	1
03/26/06	4:13 p	-20.5	-20.5	-20.5	---	---	2.6	ENE	0.04	3.5	-24.6	---	---	721.5	0.027	0.000	20.0	2	1
03/26/06	4:14 p	-20.5	-20.5	-20.5	---	---	0.9	ENE	0.01	2.6	-20.6	---	---	721.4	0.027	0.000	20.0	2	1
03/26/06	4:15 p	-20.4	-20.4	-20.4	---	---	0.9	ENE	0.01	1.7	-20.5	---	---	721.5	0.027	0.000	20.0	2	1
03/26/06	4:16 p	-20.4	-20.4	-20.4	---	---	0.0	ENE	0.00	0.9	-20.4	---	---	721.5	0.027	0.000	20.1	2	1
03/26/06	4:17 p	-20.4	-20.4	-20.4	---	---	0.9	ENE	0.01	0.9	-20.5	---	---	721.4	0.027	0.000	20.1	2	1
03/26/06	4:18 p	-20.4	-20.4	-20.4	---	---	0.9	ENE	0.01	0.9	-20.4	---	---	721.5	0.027	0.000	20.1	2	1
03/26/06	4:19 p	-20.4	-20.4	-20.4	---	---	0.0	ENE	0.00	0.9	-20.3	---	---	721.5	0.027	0.000	20.1	2	1
03/26/06	4:20 p	-20.4	-20.4	-20.4	---	---	0.9	ENE	0.01	0.9	-20.4	---	---	721.5	0.027	0.000	20.1	2	1
03/26/06	4:21 p	-20.3	-20.3	-20.3	---	---	0.0	ENE	0.00	0.9	-20.3	---	---	721.5	0.027	0.000	20.1	2	1
03/26/06	4:22 p	-20.3	-20.3	-20.3	---	---	0.0	ENE	0.00	1.7	-20.3	---	---	721.6	0.027	0.000	20.1	2	1
03/26/06	4:23 p	-20.3	-20.3	-20.3	---	---	0.0	ENE	0.00	0.9	-20.3	---	---	721.6	0.027	0.000	20.1	2	1
03/26/06	4:24 p	-20.3	-20.3	-20.3	---	---	0.9	ENE	0.01	2.6	-20.4	---	---	721.6	0.027	0.000	20.1	2	1
03/26/06	4:25 p	-20.3	-20.2	-20.3	---	---	0.9	ENE	0.01	1.7	-20.3	---	---	721.5	0.027	0.000	20.1	2	1
03/26/06	4:26 p	-20.3	-20.2	-20.3	---	---	0.0	---	0.00	0.0	-20.2	---	---	721.4	0.027	0.000	20.1	2	1
03/26/06	4:27 p	-20.2	-20.2	-20.2	---	---	0.0	---	0.00	0.0	-20.2	---	---	721.6	0.027	0.000	20.1	2	1
03/26/06	4:28 p	-20.2	-20.2	-20.2	---	---	0.0	ENE	0.00	0.9	-20.1	---	---	721.7	0.027	0.000	20.1	2	1
03/26/06	4:29 p	-20.2	-20.2	-20.2	---	---	0.0	ENE	0.00	0.9	-20.2	---	---	721.6	0.027	0.000	20.1	2	1
03/26/06	4:30 p	-20.2	-20.2	-20.2	---	---	0.9	ENE	0.01	2.6	-20.2	---	---	721.6	0.027	0.000	20.1	2	1
03/26/06	4:31 p	-20.2	-20.1	-20.2	---	---	1.7	ENE	0.03	3.5	-22.7	---	---	721.6	0.027	0.000	20.1	2	1
03/26/06	4:32 p	-20.1	-20.1	-20.2	---	---	2.6	ENE	0.04	3.5	-24.2	---	---	721.4	0.027	0.000	20.1	2	1
03/26/06	4:33 p	-20.1	-20.1	-20.2	---	---	5.2	ENE	0.09	7.8	-27.1	---	---	721.4	0.027	0.000	20.1	2	1
03/26/06	4:34 p	-20.1	-20.1	-20.1	---	---	6.1	ENE	0.10	7.8	-27.8	---	---	721.5	0.027	0.000	20.1	2	1
03/26/06	4:35 p	-20.1	-20.1	-20.1	---	---	6.1	ENE	0.10	7.8	-27.8	---	---	721.6	0.027	0.000	20.1	2	1
03/26/06	4:36 p	-20.1	-20.1	-20.1	---	---	4.3	ENE	0.07	6.1	-26.3	---	---	721.5	0.027	0.000	20.1	2	1
03/26/06	4:37 p	-20.1	-20.1	-20.2	---	---	6.1	ENE	0.10	7.0	-27.8	---	---	721.5	0.027	0.000	20.1	2	1
03/26/06	4:38 p	-20.1	-20.1	-20.1	---	---	6.1	ENE	0.10	7.0	-27.8	---	---	721.4	0.027	0.000	20.1	2	1
03/26/06	4:39 p	-20.1	-20.1	-20.1	---	---	7.0	ENE	0.12	7.0	-28.4	---	---	721.5	0.027	0.000	20.1	2	1
03/26/06	4:40 p	-20.1	-20.1	-20.2	---	---	5.2	ENE	0.09	7.0	-27.1	---	---	721.4	0.027	0.000	20.1	2	1
03/26/06	4:41 p	-20.2	-20.1	-20.2	---	---	3.5	E	0.06	5.2	-25.4	---	---	721.4	0.027	0.000	20.1	2	1
03/26/06	4:42 p	-20.1	-20.1	-20.1	---	---	3.5	E	0.06	4.3	-25.3	---	---	721.5	0.027	0.000	20.1	2	1
03/26/06	4:43 p	-20.1	-20.1	-20.2	---	---	4.3	ESE	0.07	6.1	-26.3	---	---	721.5	0.027	0.000	20.1	2	1
03/26/06	4:44 p	-20.1	-20.1	-20.1	---	---	4.3	E	0.07	6.1	-26.3	---	---	721.4	0.027	0.000	20.1	2	1
03/26/06	4:45 p	-20.1	-20.1	-20.1	---	---	4.3	E	0.07	5.2	-26.3	---	---	721.4	0.027	0.000	20.1	2	1
03/26/06	4:46 p	-20.1	-20.1	-20.1	---	---	5.2	ESE	0.09	7.0	-27.1	---	---	721.5	0.027	0.000	20.1	2	1
03/26/06	4:47 p	-20.1	-20.1	-20.1	---	---	6.1	ESE	0.10	7.0	-27.8	---	---	721.4	0.027	0.000	20.1	2	1
03/26/06	4:48 p	-20.1	-20.1	-20.1	---	---	6.1	SE	0.10	7.8	-27.8	---	---	721.4	0.027	0.000	20.1	2	1
03/26/06	4:49 p	-20.1	-20.1	-20.1	---	---	5.2	SE	0.09	7.0	-27.1	---	---	721.4	0.027	0.000	20.1	2	1
03/26/06	4:50 p	-20.1	-20.1	-20.1	---	---	4.3	SE	0.07	6.1	-26.2	---	---	721.4	0.027	0.000	20.1	2	1
03/26/06	4:51 p	-20.1	-20.1	-20.1	---	---	6.1	SE	0.10	7.8	-27.7	---	---	721.5	0.027	0.000	20.1	2	1
03/26/06	4:52 p	-20.1	-20.1	-20.1	---	---	7.0	SSE	0.12	7.8	-28.3	---	---	721.5	0.027	0.000	20.1	2	1
03/26/06	4:53 p	-20.1	-20.1	-20.1	---	---	7.0	SSE	0.12	7.8	-28.3	---	---	721.4	0.027	0.000	20.1	2	1
03/26/06	4:54 p	-20.1	-20.1	-20.1	---	---	7.8	SSE	0.13	9.6	-28.9	---	---	721.5	0.027	0.000	20.1	2	1
03/26/06	4:55 p	-20.1	-20.0	-20.1	---	---	7.0	SSE	0.12	7.8	-28.3	---	---	721.4	0.027	0.000	20.1	2	1
03/26/06	4:56 p	-20.1	-20.0	-20.1	---	---	7.8	SSE	0.13	8.7	-28.9	---	---	721.4	0.027	0.000	20.1	2	1
03/26/06	4:57 p	-20.0	-20.0	-20.0	---	---	8.7	SE	0.14	11.3	-29.3	---	---	721.4	0.027	0.000	20.1	2	1
03/26/06	4:58 p	-20.0	-20.0	-20.0	---	---	9.6	SSE	0.16	11.3	-29.8	---	---	721.4	0.027	0.000	20.1	2	1
03/26/06	4:59 p	-20.0	-19.9	-20.0	---	---	10.4	SE	0.17	11.3	-30.2	---	---	721.4	0.027	0.000	20.1	2	1
03/26/06	5:00 p	-19.9	-19.9	-20.0	---	---	11.3	SSE	0.19	13.0	-30.6	---	---	721.3	0.027	0.000	20.1	2	1
03/26/06	5:01 p	-19.9	-19.9	-19.9	---	---	11.3	SE	0.19	12.2	-30.6	---	---	721.3	0.027	0.000	20.1	2	1
03/26/06	5:02 p	-19.9	-19.9	-19.9	---	---	12.2	SSE	0.20	13.0	-30.9	---	---	721.3	0.027	0.000	20.1	2	1
03/26/06	5:03 p	-19.9	-19.9	-19.9	---	---	11.3	SSE	0.19	13.0	-30.5	---	---	721.4	0.027	0.000	20.1	2	1
03/26/06	5:04 p	-19.9	-19.9	-19.9	---	---	12.2	SSE	0.20	13.0	-30.8	---	---	721.4	0.027	0.000	20.1	2	1
03/26/06	5:05 p	-19.9	-19.8	-19.9	---	---	12.2	SE	0.20	13.0	-30.8	---	---	721.4	0.027	0.000	20.1	2	1
03/26/06	5:06 p	-19.8	-19.8	-19.8	---	---	11.3	SE	0.19	12.2	-30.4	---	---	721.3	0.027	0.000	20.1	2	1
03/26/06	5:07 p	-19.8	-19.8	-19.8	---	---	10.4	SSE	0.17	12.2	-30.0	---	---	721.3	0.027	0.000	20.1	2	1
03/26/06	5:08 p	-19.8	-19.8	-19.8	---	---	12.2	SSE	0.20	14.8	-30.7	---	---	721.3	0.026	0.000	20.1	2	1
03/26/06	5:09 p	-19.8	-19.7	-19.8	---	---	13.9	SSE	0.23	16.5	-31.4	---	---	721.3	0.026	0.000	20.1	2	1
03/26/06	5:10 p	-19.7	-19.7	-19.8	---	---	13.0	SE	0.22	14.8	-31.0	---	---	721.3	0.026	0.000	20.2	2	1
03/26/06	5:11 p	-19.7	-19.7	-19.7	---	---	11.3	SSE	0.19	12.2	-30.3	---	---	721.2	0.026	0.000	20.2	2	1
03/26/06	5:12 p	-19.7	-19.7	-19.7	---	---	13.0	SE	0.22	14.8	-30.9	---	---	721.1	0.026	0.000	20.2	2	1
03/26/06	5:13 p	-19.6	-19.6	-19.6	---	---	13.9	SE	0.23	14.8	-31.2	---	---	721.2	0.026	0.000	20.2	2	1
03/26/06	5:14 p	-19.6	-19.6	-19.6	---	---	13.9	SE	0.23	15.7	-31.2	---	---	721.2	0.026	0.000	20.2	2	1
03/26/06	5:15 p	-19.6	-19.6	-19.6	---	---	14.8	SE	0.25	18.3	-31.5	---	---	721.2	0.026	0.000	20.2	2	1
03/26/06	5:16 p	-19.6	-19.5	-19.6	---	---	14.8	ESE	0.25	16.5	-31.4	---	---	721.3	0.026	0.000	20.2	2	1
03/26/06	5:17 p	-19.5	-19.5	-19.6	---	---	13.9	ESE	0.23	15.7	-31.1	---	---	721.2	0.026	0.000	20.2	2	1
03/26/06	5:18 p	-19.5	-19.5	-19.5	---	---	13.0	ESE	0.22	15.7	-30.7	---	---	721.3	0.026	0.000	20.2	2	1
03/26/06	5:19 p	-19.5	-19.5	-19.5	---	---	11.3	SE	0.19	13.0	-30.0	---	---	721.2	0.026	0.000	20.2	2	1
03/26/06	5:20 p	-19.4	-19.4	-19.5	---	---	12.2	SE	0.20	14.8	-30.3	---	---	721.2	0.026	0.000	20.2	2	1
03/26/06	5:21 p	-19.4	-19.4	-19.4	---	---	11.3	ESE	0.19	13.9	-29.9	---	---	721.1	0.026	0.000	20.2	2	1
03/26/06	5:22 p	-19.4	-19.4	-19.4	---	---	11.3	SE	0.19	12.2	-29.8	---	---	721.2	0.026	0.000	20.2	2	1
03/26/06	5:23 p	-19.4	-19.4	-19.4	---	---	14.8	SE	0.25	15.7	-31.2	---	---	721.3	0.026	0.000	20.2	2	1
03/26/06	5:24 p	-19.4	-19.3	-19.4	---	---	12.2	SE	0.20	14.8	-30.2	---	---	721.3	0.026	0.000	20.2	2	1
03/26/06	5:25 p	-19.3	-19.3	-19.3	---	---	11.3	ESE	0.19	13.0	-29.8	---	---	721.3	0.026	0.000	20.2	2	1
03/26/06	5:26 p	-19.3	-19.3	-19.3	---	---	12.2	ESE	0.20	13.9	-30.2	---	---	721.2	0.026	0.000	20.2	2	1
03/26/06	5:27 p	-19.3	-19.3	-19.3	---	---	13.9	ESE	0.23	15.7	-30.7	---	---	721.2	0.026	0.000	20.2	2	1
03/26/06	5:28 p	-19.3	-19.3	-19.3	---	---	13.9	ESE	0.23	15.7	-30.7	---	---	721.2	0.026	0.000	20.1	2	1
03/26/06	5:29 p	-19.3	-19.3	-19.3	---	---	11.3	ESE	0.19	13.0	-29.7	---	---	721.2	0.026	0.000	20.1	2	1
03/26/06	5:30 p	-19.2	-19.2	-19.2	---	---	11.3	SE	0.19	13.9	-29.6	---	---	721.2	0.026	0.000	20.1	2	1
03/26/06	5:31 p	-19.2	-19.2	-19.2	---	---	12.2	ESE	0.20	13.0	-30.0	---	---	721.2	0.026	0.000	20.1	2	1
03/26/06	5:32 p	-19.2	-19.2	-19.2	---	---	13.0	ESE	0.22	13.9	-30.3	---	---	721.3	0.026	0.000	20.1	2	1
03/26/06	5:33 p	-19.2	-19.2	-19.2	---	---	11.3	ESE	0.19	13.9	-29.6	---	---	721.3	0.026	0.000	20.1	2	1
03/26/06	5:34 p	-19.2	-19.2	-19.2	---	---	13.0	SE	0.22	16.5	-30.3	---	---	721.3	0.026	0.000	20.1	2	1
03/26/06	5:35 p	-19.1	-19.1	-19.2	---	---	13.9	SE	0.23	15.7	-30.6	---	---	721.3	0.026	0.000	20.1	2	1
03/26/06	5:36 p	-19.1	-19.1	-19.1	---	---	12.2	ESE	0.20	13.9	-29.8	---	---	721.3	0.026	0.000	20.1	2	1
03/26/06	5:37 p	-19.1	-19.1	-19.1	---	---	11.3	ESE	0.19	13.9	-29.5	---	---	721.3	0.026	0.000	20.1	2	1
03/26/06	5:38 p	-19.1	-19.1	-19.1	---	---	11.3	SE	0.19	15.7	-29.5	---	---	721.3	0.026	0.000	20.1	2	1
03/26/06	5:39 p	-19.1	-19.1	-19.1	---	---	10.4	SE	0.17	13.9	-29.1	---	---	721.3	0.026	0.000	20.1	2	1
03/26/06	5:40 p	-19.1	-19.1	-19.1	---	---	13.9	ESE	0.23	16.5	-30.4	---	---	721.3	0.026	0.000	20.1	2	1
03/26/06	5:41 p	-19.1	-19.0	-19.1	---	---	14.8	ESE	0.25	17.4	-30.8	---	---	721.3	0.026	0.000	20.1	2	1
03/26/06	5:42 p	-19.1	-19.0	-19.1	---	---	13.9	ESE	0.23	16.5	-30.4	---	---	721.2	0.026	0.000	20.1	2	1
03/26/06	5:43 p	-19.0	-19.0	-19.0	---	---	11.3	ESE	0.19	13.0	-29.3	---	---	721.3	0.026	0.000	20.1	2	1
03/26/06	5:44 p	-19.0	-19.0	-19.0	---	---	12.2	ESE	0.20	13.9	-29.7	---	---	721.2	0.026	0.000	20.1	2	1
03/26/06	5:45 p	-19.0	-18.9	-19.0	---	---	12.2	ESE	0.20	15.7	-29.7	---	---	721.2	0.026	0.000	20.1	2	1
03/26/06	5:46 p	-18.9	-18.9	-18.9	---	---	13.9	ESE	0.23	15.7	-30.3	---	---	721.2	0.026	0.000	20.1	2	1
03/26/06	5:47 p	-18.9	-18.9	-18.9	---	---	13.0	ESE	0.22	16.5	-30.0	---	---	721.1	0.026	0.000	20.1	2	1
03/26/06	5:48 p	-18.9	-18.9	-18.9	---	---	13.0	ESE	0.22	16.5	-30.0	---	---	721.2	0.026	0.000	20.1	2	1
03/26/06	5:49 p	-18.9	-18.9	-18.9	---	---	12.2	ESE	0.20	14.8	-29.7	---	---	721.2	0.026	0.000	20.1	2	1
03/26/06	5:50 p	-18.9	-18.9	-18.9	---	---	12.2	SE	0.20	14.8	-29.6	---	---	721.2	0.026	0.000	20.1	2	1
03/26/06	5:51 p	-18.9	-18.9	-18.9	---	---	9.6	ESE	0.16	10.4	-28.4	---	---	721.2	0.026	0.000	20.1	2	1
03/26/06	5:52 p	-18.9	-18.9	-18.9	---	---	10.4	SE	0.17	11.3	-28.8	---	---	721.1	0.026	0.000	20.1	2	1
03/26/06	5:53 p	-18.9	-18.8	-18.9	---	---	10.4	ESE	0.17	11.3	-28.8	---	---	721.1	0.026	0.000	20.1	2	1
03/26/06	5:54 p	-18.9	-18.8	-18.9	---	---	10.4	ESE	0.17	12.2	-28.8	---	---	721.1	0.026	0.000	20.1	2	1
03/26/06	5:55 p	-18.8	-18.8	-18.8	---	---	9.6	SE	0.16	12.2	-28.3	---	---	721.1	0.026	0.000	20.1	2	1
03/26/06	5:56 p	-18.8	-18.8	-18.8	---	---	8.7	SE	0.14	9.6	-27.9	---	---	721.0	0.026	0.000	20.2	2	1
03/26/06	5:57 p	-18.8	-18.8	-18.8	---	---	7.8	SE	0.13	9.6	-27.4	---	---	721.1	0.026	0.000	20.2	2	1
03/26/06	5:58 p	-18.8	-18.8	-18.8	---	---	8.7	SE	0.14	11.3	-27.9	---	---	721.1	0.026	0.000	20.2	2	1
03/26/06	5:59 p	-18.8	-18.8	-18.8	---	---	9.6	SSE	0.16	10.4	-28.3	---	---	721.1	0.026	0.000	20.2	2	1
03/26/06	6:00 p	-18.8	-18.7	-18.8	---	---	7.8	SE	0.13	11.3	-27.3	---	---	721.2	0.026	0.000	20.2	2	1
03/26/06	6:01 p	-18.8	-18.7	-18.8	---	---	8.7	ESE	0.14	9.6	-27.8	---	---	721.1	0.026	0.000	20.2	2	1
03/26/06	6:02 p	-18.7	-18.7	-18.8	---	---	8.7	SE	0.14	10.4	-27.7	---	---	721.0	0.026	0.000	20.2	2	1
03/26/06	6:03 p	-18.7	-18.7	-18.7	---	---	10.4	SE	0.17	12.2	-28.6	---	---	721.0	0.026	0.000	20.2	2	1
03/26/06	6:04 p	-18.7	-18.7	-18.7	---	---	7.8	SSE	0.13	8.7	-27.3	---	---	721.1	0.026	0.000	20.2	2	1
03/26/06	6:05 p	-18.7	-18.7	-18.7	---	---	7.0	SE	0.12	8.7	-26.7	---	---	721.0	0.026	0.000	20.2	2	1
03/26/06	6:06 p	-18.7	-18.7	-18.7	---	---	10.4	SE	0.17	13.0	-28.6	---	---	721.0	0.026	0.000	20.2	2	1
03/26/06	6:07 p	-18.7	-18.7	-18.7	---	---	8.7	ESE	0.14	9.6	-27.7	---	---	721.1	0.026	0.000	20.2	2	1
03/26/06	6:08 p	-18.7	-18.7	-18.7	---	---	8.7	E	0.14	11.3	-27.7	---	---	721.0	0.026	0.000	20.2	2	1
03/26/06	6:09 p	-18.7	-18.6	-18.7	---	---	8.7	E	0.14	9.6	-27.7	---	---	721.0	0.026	0.000	20.2	2	1
03/26/06	6:10 p	-18.6	-18.6	-18.6	---	---	9.6	E	0.16	12.2	-28.1	---	---	721.0	0.026	0.000	20.2	2	1
03/26/06	6:11 p	-18.6	-18.6	-18.6	---	---	9.6	E	0.16	11.3	-28.1	---	---	721.0	0.026	0.000	20.2	2	1
03/26/06	6:12 p	-18.6	-18.6	-18.6	---	---	10.4	E	0.17	12.2	-28.5	---	---	721.0	0.026	0.000	20.2	2	1
03/26/06	6:13 p	-18.6	-18.6	-18.6	---	---	10.4	E	0.17	13.0	-28.5	---	---	720.9	0.026	0.000	20.2	2	1
03/26/06	6:14 p	-18.6	-18.6	-18.6	---	---	10.4	E	0.17	13.0	-28.5	---	---	720.9	0.026	0.000	20.1	2	1
03/26/06	6:15 p	-18.6	-18.6	-18.6	---	---	11.3	E	0.19	13.0	-28.8	---	---	720.9	0.026	0.000	20.1	2	1
03/26/06	6:16 p	-18.6	-18.6	-18.6	---	---	12.2	E	0.20	13.9	-29.2	---	---	720.9	0.026	0.000	20.1	2	1
03/26/06	6:17 p	-18.6	-18.6	-18.6	---	---	11.3	E	0.19	13.0	-28.8	---	---	720.9	0.026	0.000	20.1	2	1
03/26/06	6:18 p	-18.6	-18.6	-18.6	---	---	12.2	E	0.20	13.9	-29.2	---	---	721.0	0.026	0.000	20.1	2	1
03/26/06	6:19 p	-18.6	-18.6	-18.6	---	---	13.0	E	0.22	13.9	-29.6	---	---	720.9	0.026	0.000	20.1	2	1
03/26/06	6:20 p	-18.6	-18.6	-18.6	---	---	13.0	E	0.22	14.8	-29.6	---	---	720.8	0.026	0.000	20.1	2	1
03/26/06	6:21 p	-18.6	-18.6	-18.6	---	---	12.2	E	0.20	14.8	-29.2	---	---	720.9	0.026	0.000	20.1	2	1
03/26/06	6:22 p	-18.6	-18.6	-18.6	---	---	13.9	E	0.23	15.7	-29.9	---	---	720.8	0.026	0.000	20.1	2	1
03/26/06	6:23 p	-18.6	-18.6	-18.6	---	---	13.0	E	0.22	14.8	-29.6	---	---	720.8	0.026	0.000	20.1	2	1
03/26/06	6:24 p	-18.7	-18.6	-18.7	---	---	14.8	ESE	0.25	17.4	-30.3	---	---	720.8	0.026	0.000	20.1	2	1
03/26/06	6:25 p	-18.7	-18.6	-18.7	---	---	16.5	E	0.28	19.1	-30.8	---	---	720.7	0.026	0.000	20.1	2	1
03/26/06	6:26 p	-18.7	-18.7	-18.7	---	---	17.4	E	0.29	19.1	-31.1	---	---	720.7	0.026	0.000	20.1	2	1
03/26/06	6:27 p	-18.7	-18.7	-18.7	---	---	18.3	ESE	0.30	19.1	-31.4	---	---	720.8	0.026	0.000	20.1	2	1
03/26/06	6:28 p	-18.7	-18.7	-18.7	---	---	19.1	ESE	0.32	20.9	-31.6	---	---	720.6	0.026	0.000	20.1	2	1
03/26/06	6:29 p	-18.7	-18.7	-18.7	---	---	16.5	E	0.28	19.1	-30.8	---	---	720.6	0.026	0.000	20.1	2	1
03/26/06	6:30 p	-18.7	-18.7	-18.7	---	---	17.4	E	0.29	21.7	-31.1	---	---	720.5	0.026	0.000	20.1	2	1
03/26/06	6:31 p	-18.7	-18.7	-18.7	---	---	15.7	E	0.26	20.9	-30.6	---	---	720.5	0.026	0.000	20.1	2	1
03/26/06	6:32 p	-18.7	-18.7	-18.7	---	---	20.0	ESE	0.33	26.1	-31.9	---	---	720.5	0.026	0.000	20.1	2	1
03/26/06	6:33 p	-18.7	-18.7	-18.7	---	---	19.1	E	0.32	22.6	-31.6	---	---	720.5	0.026	0.000	20.1	2	1
03/26/06	6:34 p	-18.7	-18.7	-18.7	---	---	19.1	E	0.32	25.2	-31.7	---	---	720.3	0.026	0.000	20.1	2	1
03/26/06	6:35 p	-18.7	-18.7	-18.7	---	---	19.1	E	0.32	24.3	-31.7	---	---	720.4	0.026	0.000	20.1	2	1
03/26/06	6:36 p	-18.7	-18.7	-18.7	---	---	18.3	E	0.30	23.5	-31.4	---	---	720.4	0.026	0.000	20.1	2	1
03/26/06	6:37 p	-18.7	-18.7	-18.7	---	---	18.3	E	0.30	23.5	-31.4	---	---	720.3	0.026	0.000	20.1	2	1
03/26/06	6:38 p	-18.7	-18.7	-18.7	---	---	18.3	E	0.30	22.6	-31.4	---	---	720.3	0.026	0.000	20.1	2	1
03/26/06	6:39 p	-18.7	-18.7	-18.7	---	---	20.0	E	0.33	22.6	-31.9	---	---	720.2	0.026	0.000	20.1	2	1
03/26/06	6:40 p	-18.8	-18.7	-18.8	---	---	20.9	E	0.35	23.5	-32.2	---	---	720.1	0.026	0.000	20.1	2	1
03/26/06	6:41 p	-18.8	-18.8	-18.8	---	---	25.2	E	0.42	27.0	-33.3	---	---	720.1	0.026	0.000	20.1	2	1
03/26/06	6:42 p	-18.8	-18.7	-18.8	---	---	22.6	E	0.38	27.0	-32.7	---	---	720.2	0.026	0.000	20.1	2	1
03/26/06	6:43 p	-18.8	-18.8	-18.8	---	---	20.0	E	0.33	23.5	-32.0	---	---	720.2	0.026	0.000	20.1	2	1
03/26/06	6:44 p	-18.8	-18.8	-18.8	---	---	19.1	E	0.32	22.6	-31.8	---	---	720.2	0.026	0.000	20.1	2	1
03/26/06	6:45 p	-18.8	-18.8	-18.8	---	---	20.0	E	0.33	23.5	-32.1	---	---	720.1	0.026	0.000	20.1	2	1
03/26/06	6:46 p	-18.8	-18.8	-18.8	---	---	21.7	E	0.36	25.2	-32.5	---	---	720.1	0.026	0.000	20.1	2	1
03/26/06	6:47 p	-18.8	-18.8	-18.8	---	---	20.0	E	0.33	22.6	-32.1	---	---	720.2	0.026	0.000	20.1	2	1
03/26/06	6:48 p	-18.8	-18.8	-18.8	---	---	21.7	E	0.36	25.2	-32.5	---	---	720.2	0.026	0.000	20.2	2	1
03/26/06	6:49 p	-18.8	-18.8	-18.8	---	---	20.9	E	0.35	25.2	-32.3	---	---	720.1	0.026	0.000	20.2	2	1
03/26/06	6:50 p	-18.8	-18.8	-18.8	---	---	23.5	E	0.39	25.2	-32.9	---	---	720.2	0.026	0.000	20.2	2	1
03/26/06	6:51 p	-18.8	-18.8	-18.8	---	---	22.6	E	0.38	27.0	-32.7	---	---	720.2	0.026	0.000	20.2	2	1
03/26/06	6:52 p	-18.8	-18.8	-18.8	---	---	23.5	E	0.39	26.1	-32.9	---	---	720.1	0.026	0.000	20.1	2	1
03/26/06	6:53 p	-18.8	-18.8	-18.9	---	---	25.2	E	0.42	27.0	-33.3	---	---	720.1	0.026	0.000	20.1	2	1
03/26/06	6:54 p	-18.9	-18.8	-18.9	---	---	20.0	E	0.33	24.3	-32.2	---	---	720.2	0.026	0.000	20.1	2	1
03/26/06	6:55 p	-18.8	-18.8	-18.9	---	---	20.9	E	0.35	23.5	-32.3	---	---	720.1	0.026	0.000	20.2	2	1
03/26/06	6:56 p	-18.8	-18.8	-18.9	---	---	23.5	E	0.39	29.6	-32.9	---	---	720.1	0.026	0.000	20.1	2	1
03/26/06	6:57 p	-18.9	-18.9	-18.9	---	---	22.6	E	0.38	27.0	-32.8	---	---	720.0	0.026	0.000	20.1	2	1
03/26/06	6:58 p	-18.9	-18.9	-18.9	---	---	22.6	E	0.38	27.8	-32.8	---	---	720.2	0.026	0.000	20.1	2	1
03/26/06	6:59 p	-18.9	-18.9	-18.9	---	---	23.5	E	0.39	26.1	-33.0	---	---	720.1	0.026	0.000	20.1	2	1
03/26/06	7:00 p	-18.9	-18.9	-18.9	---	---	22.6	E	0.38	27.8	-32.8	---	---	720.0	0.026	0.000	20.1	2	1
03/26/06	7:01 p	-18.9	-18.9	-18.9	---	---	20.0	E	0.33	27.8	-32.2	---	---	720.1	0.026	0.000	20.1	2	1
03/26/06	7:02 p	-18.9	-18.9	-18.9	---	---	19.1	E	0.32	22.6	-31.9	---	---	720.1	0.026	0.000	20.1	2	1
03/26/06	7:03 p	-18.9	-18.9	-18.9	---	---	20.9	E	0.35	24.3	-32.4	---	---	720.0	0.026	0.000	20.1	2	1
03/26/06	7:04 p	-18.9	-18.9	-18.9	---	---	22.6	E	0.38	26.1	-32.8	---	---	720.1	0.026	0.000	20.1	2	1
03/26/06	7:05 p	-18.9	-18.9	-18.9	---	---	21.7	E	0.36	24.3	-32.6	---	---	719.9	0.026	0.000	20.1	2	1
03/26/06	7:06 p	-18.9	-18.9	-18.9	---	---	25.2	E	0.42	29.6	-33.4	---	---	720.0	0.026	0.000	20.1	2	1
03/26/06	7:07 p	-18.9	-18.8	-18.9	---	---	25.2	E	0.42	28.7	-33.4	---	---	720.1	0.026	0.000	20.1	2	1
03/26/06	7:08 p	-18.9	-18.9	-18.9	---	---	21.7	E	0.36	25.2	-32.6	---	---	720.1	0.026	0.000	20.1	2	1
03/26/06	7:09 p	-18.9	-18.8	-18.9	---	---	21.7	E	0.36	27.8	-32.6	---	---	720.1	0.026	0.000	20.1	2	1
03/26/06	7:10 p	-18.8	-18.8	-18.9	---	---	21.7	E	0.36	25.2	-32.5	---	---	720.1	0.026	0.000	20.1	2	1
03/26/06	7:11 p	-18.8	-18.8	-18.9	---	---	20.0	E	0.33	23.5	-32.1	---	---	720.1	0.026	0.000	20.1	2	1
03/26/06	7:12 p	-18.8	-18.8	-18.8	---	---	20.9	E	0.35	26.1	-32.3	---	---	720.2	0.026	0.000	20.1	2	1
03/26/06	7:13 p	-18.8	-18.8	-18.8	---	---	22.6	E	0.38	25.2	-32.7	---	---	720.0	0.026	0.000	20.1	2	1
03/26/06	7:14 p	-18.8	-18.8	-18.8	---	---	23.5	E	0.39	27.8	-32.9	---	---	720.2	0.026	0.000	20.1	2	1
03/26/06	7:15 p	-18.8	-18.8	-18.8	---	---	21.7	E	0.36	24.3	-32.5	---	---	720.1	0.026	0.000	20.1	2	1
03/26/06	7:16 p	-18.8	-18.8	-18.8	---	---	23.5	E	0.39	27.8	-32.9	---	---	720.0	0.026	0.000	20.1	2	1
03/26/06	7:17 p	-18.8	-18.8	-18.8	---	---	21.7	E	0.36	27.0	-32.4	---	---	720.2	0.026	0.000	20.1	2	1
03/26/06	7:18 p	-18.8	-18.8	-18.8	---	---	20.9	E	0.35	22.6	-32.2	---	---	720.1	0.026	0.000	20.1	2	1
03/26/06	7:19 p	-18.8	-18.8	-18.8	---	---	20.9	E	0.35	26.1	-32.2	---	---	720.1	0.026	0.000	20.1	2	1
03/26/06	7:20 p	-18.8	-18.7	-18.8	---	---	19.1	E	0.32	21.7	-31.8	---	---	720.2	0.026	0.000	20.1	2	1
03/26/06	7:21 p	-18.7	-18.7	-18.7	---	---	19.1	E	0.32	22.6	-31.7	---	---	720.4	0.026	0.000	20.1	2	1
03/26/06	7:22 p	-18.7	-18.7	-18.7	---	---	20.0	E	0.33	21.7	-31.9	---	---	720.3	0.026	0.000	20.1	2	1
03/26/06	7:23 p	-18.7	-18.7	-18.7	---	---	19.1	E	0.32	21.7	-31.7	---	---	720.3	0.026	0.000	20.1	2	1
03/26/06	7:24 p	-18.7	-18.7	-18.7	---	---	19.1	E	0.32	22.6	-31.7	---	---	720.3	0.026	0.000	20.1	1	1
03/26/06	7:25 p	-18.7	-18.7	-18.7	---	---	17.4	E	0.29	20.9	-31.2	---	---	720.2	0.026	0.000	20.1	2	1
03/26/06	7:26 p	-18.7	-18.7	-18.7	---	---	17.4	E	0.29	21.7	-31.1	---	---	720.3	0.026	0.000	20.1	2	1
03/26/06	7:27 p	-18.7	-18.7	-18.7	---	---	19.1	E	0.32	23.5	-31.6	---	---	720.3	0.026	0.000	20.1	2	1
03/26/06	7:28 p	-18.7	-18.7	-18.7	---	---	20.9	E	0.35	23.5	-32.1	---	---	720.2	0.026	0.000	20.1	2	1
03/26/06	7:29 p	-18.7	-18.6	-18.7	---	---	22.6	E	0.38	26.1	-32.5	---	---	720.1	0.026	0.000	20.1	2	1
03/26/06	7:30 p	-18.6	-18.6	-18.6	---	---	18.3	E	0.30	21.7	-31.3	---	---	720.3	0.026	0.000	20.1	2	1
03/26/06	7:31 p	-18.6	-18.6	-18.6	---	---	18.3	E	0.30	23.5	-31.3	---	---	720.2	0.026	0.000	20.1	2	1
03/26/06	7:32 p	-18.6	-18.6	-18.6	---	---	20.9	E	0.35	23.5	-32.0	---	---	720.3	0.026	0.000	20.1	2	1
03/26/06	7:33 p	-18.6	-18.6	-18.6	---	---	20.0	E	0.33	22.6	-31.8	---	---	720.3	0.026	0.000	20.1	2	1
03/26/06	7:34 p	-18.6	-18.6	-18.6	---	---	19.1	E	0.32	22.6	-31.4	---	---	720.3	0.026	0.000	20.1	2	1
03/26/06	7:35 p	-18.6	-18.6	-18.6	---	---	20.0	E	0.33	22.6	-31.7	---	---	720.3	0.026	0.000	20.1	1	1
03/26/06	7:36 p	-18.6	-18.5	-18.6	---	---	20.0	E	0.33	23.5	-31.7	---	---	720.3	0.026	0.000	20.1	1	1
03/26/06	7:37 p	-18.5	-18.5	-18.6	---	---	17.4	E	0.29	20.0	-30.9	---	---	720.3	0.026	0.000	20.1	2	1
03/26/06	7:38 p	-18.5	-18.5	-18.5	---	---	17.4	E	0.29	20.0	-30.9	---	---	720.3	0.026	0.000	20.1	2	1
03/26/06	7:39 p	-18.5	-18.5	-18.5	---	---	18.3	E	0.30	22.6	-31.2	---	---	720.4	0.026	0.000	20.1	2	1
03/26/06	7:40 p	-18.5	-18.5	-18.5	---	---	17.4	E	0.29	21.7	-30.9	---	---	720.3	0.026	0.000	20.1	2	1
03/26/06	7:41 p	-18.5	-18.4	-18.5	---	---	19.1	E	0.32	21.7	-31.4	---	---	720.3	0.026	0.000	20.1	2	1
03/26/06	7:42 p	-18.4	-18.4	-18.4	---	---	19.1	E	0.32	23.5	-31.3	---	---	720.3	0.026	0.000	20.1	1	1
03/26/06	7:43 p	-18.4	-18.4	-18.4	---	---	18.3	E	0.30	21.7	-31.1	---	---	720.3	0.026	0.000	20.1	2	1
03/26/06	7:44 p	-18.4	-18.4	-18.4	---	---	19.1	E	0.32	23.5	-31.3	---	---	720.3	0.026	0.000	20.1	2	1
03/26/06	7:45 p	-18.4	-18.4	-18.4	---	---	19.1	E	0.32	22.6	-31.3	---	---	720.3	0.026	0.000	20.1	2	1
03/26/06	7:46 p	-18.4	-18.4	-18.4	---	---	17.4	E	0.29	20.0	-30.7	---	---	720.3	0.026	0.000	20.1	1	1
03/26/06	7:47 p	-18.4	-18.4	-18.4	---	---	16.5	E	0.28	19.1	-30.5	---	---	720.3	0.026	0.000	20.1	2	1
03/26/06	7:48 p	-18.3	-18.3	-18.4	---	---	15.7	E	0.26	19.1	-30.1	---	---	720.4	0.025	0.000	20.1	2	1
03/26/06	7:49 p	-18.3	-18.3	-18.4	---	---	13.9	E	0.23	16.5	-29.6	---	---	720.3	0.025	0.000	20.1	2	1
03/26/06	7:50 p	-18.3	-18.3	-18.3	---	---	17.4	E	0.29	21.7	-30.7	---	---	720.2	0.025	0.000	20.1	2	1
03/26/06	7:51 p	-18.3	-18.3	-18.3	---	---	18.3	E	0.30	22.6	-30.9	---	---	720.3	0.025	0.000	20.1	2	1
03/26/06	7:52 p	-18.3	-18.3	-18.3	---	---	16.5	E	0.28	20.9	-30.3	---	---	720.3	0.025	0.000	20.1	2	1
03/26/06	7:53 p	-18.3	-18.3	-18.3	---	---	19.1	E	0.32	21.7	-31.1	---	---	720.3	0.025	0.000	20.1	2	1
03/26/06	7:54 p	-18.3	-18.3	-18.3	---	---	19.1	E	0.32	20.9	-31.1	---	---	720.2	0.025	0.000	20.1	2	1
03/26/06	7:55 p	-18.3	-18.3	-18.3	---	---	16.5	E	0.28	20.9	-30.3	---	---	720.4	0.025	0.000	20.0	2	1
03/26/06	7:56 p	-18.3	-18.2	-18.3	---	---	17.4	E	0.29	20.0	-30.6	---	---	720.3	0.025	0.000	20.0	2	1
03/26/06	7:57 p	-18.2	-18.2	-18.3	---	---	17.4	E	0.29	20.0	-30.5	---	---	720.4	0.025	0.000	20.0	2	1
03/26/06	7:58 p	-18.2	-18.2	-18.2	---	---	14.8	E	0.25	17.4	-29.7	---	---	720.4	0.025	0.000	20.0	1	1
03/26/06	7:59 p	-18.2	-18.2	-18.2	---	---	17.4	E	0.29	20.9	-30.5	---	---	720.2	0.025	0.000	20.0	2	1
03/26/06	8:00 p	-18.2	-18.2	-18.2	---	---	20.0	E	0.33	24.3	-31.2	---	---	720.3	0.025	0.000	20.0	1	1
03/26/06	8:01 p	-18.2	-18.2	-18.2	---	---	17.4	E	0.29	19.1	-30.4	---	---	720.3	0.025	0.000	20.0	2	1
03/26/06	8:02 p	-18.2	-18.1	-18.2	---	---	17.4	E	0.29	21.7	-30.4	---	---	720.2	0.025	0.000	20.0	1	1
03/26/06	8:03 p	-18.2	-18.1	-18.2	---	---	18.3	E	0.30	21.7	-30.7	---	---	720.3	0.025	0.000	20.0	2	1
03/26/06	8:04 p	-18.1	-18.1	-18.1	---	---	19.1	E	0.32	21.7	-30.9	---	---	720.2	0.025	0.000	20.0	2	1
03/26/06	8:05 p	-18.1	-18.1	-18.1	---	---	18.3	E	0.30	20.9	-30.6	---	---	720.2	0.025	0.000	20.0	1	1
03/26/06	8:06 p	-18.1	-18.1	-18.1	---	---	17.4	E	0.29	20.9	-30.4	---	---	720.3	0.025	0.000	20.0	1	1
03/26/06	8:07 p	-18.1	-18.1	-18.1	---	---	18.3	E	0.30	22.6	-30.6	---	---	720.3	0.025	0.000	20.0	2	1
03/26/06	8:08 p	-18.1	-18.1	-18.1	---	---	20.0	ENE	0.33	21.7	-31.1	---	---	720.3	0.025	0.000	20.0	2	1
03/26/06	8:09 p	-18.1	-18.0	-18.1	---	---	20.9	E	0.35	23.5	-31.3	---	---	720.3	0.025	0.000	20.0	2	1
03/26/06	8:10 p	-18.0	-18.0	-18.0	---	---	19.1	E	0.32	20.9	-30.7	---	---	720.3	0.025	0.000	20.0	2	1
03/26/06	8:11 p	-18.0	-18.0	-18.0	---	---	18.3	E	0.30	22.6	-30.5	---	---	720.3	0.025	0.000	20.1	1	1
03/26/06	8:12 p	-18.0	-17.9	-18.0	---	---	18.3	E	0.30	20.9	-30.5	---	---	720.3	0.025	0.000	20.1	1	1
03/26/06	8:13 p	-18.0	-17.9	-18.0	---	---	16.5	E	0.28	20.0	-29.9	---	---	720.3	0.025	0.000	20.1	2	1
03/26/06	8:14 p	-17.9	-17.9	-18.0	---	---	14.8	E	0.25	16.5	-29.3	---	---	720.3	0.025	0.000	20.1	1	1
03/26/06	8:15 p	-17.9	-17.9	-17.9	---	---	14.8	E	0.25	18.3	-29.3	---	---	720.3	0.025	0.000	20.1	2	1
03/26/06	8:16 p	-17.9	-17.9	-17.9	---	---	19.1	E	0.32	20.9	-30.7	---	---	720.1	0.025	0.000	20.1	2	1
03/26/06	8:17 p	-17.9	-17.9	-17.9	---	---	18.3	E	0.30	20.9	-30.4	---	---	720.2	0.025	0.000	20.1	2	1
03/26/06	8:18 p	-17.9	-17.9	-17.9	---	---	17.4	E	0.29	19.1	-30.2	---	---	720.2	0.025	0.000	20.1	1	1
03/26/06	8:19 p	-17.9	-17.9	-17.9	---	---	17.4	E	0.29	20.0	-30.2	---	---	720.2	0.025	0.000	20.1	1	1
03/26/06	8:20 p	-17.9	-17.9	-17.9	---	---	16.5	E	0.28	20.0	-29.8	---	---	720.2	0.025	0.000	20.1	2	1
03/26/06	8:21 p	-17.9	-17.9	-17.9	---	---	15.7	E	0.26	17.4	-29.6	---	---	720.3	0.025	0.000	20.1	2	1
03/26/06	8:22 p	-17.9	-17.9	-17.9	---	---	14.8	E	0.25	17.4	-29.3	---	---	720.4	0.025	0.000	20.1	1	1
03/26/06	8:23 p	-17.9	-17.9	-17.9	---	---	17.4	E	0.29	20.0	-30.1	---	---	720.3	0.025	0.000	20.1	2	1
03/26/06	8:24 p	-17.9	-17.8	-17.9	---	---	19.1	ENE	0.32	21.7	-30.6	---	---	720.2	0.025	0.000	20.1	2	1
03/26/06	8:25 p	-17.8	-17.8	-17.8	---	---	14.8	E	0.25	18.3	-29.2	---	---	720.3	0.025	0.000	20.1	2	1
03/26/06	8:26 p	-17.8	-17.8	-17.8	---	---	14.8	E	0.25	20.9	-29.2	---	---	720.3	0.025	0.000	20.1	2	1
03/26/06	8:27 p	-17.8	-17.8	-17.8	---	---	21.7	ENE	0.36	23.5	-31.2	---	---	720.1	0.025	0.000	20.1	1	1
03/26/06	8:28 p	-17.8	-17.8	-17.8	---	---	20.0	ENE	0.33	22.6	-30.7	---	---	720.3	0.025	0.000	20.1	1	1
03/26/06	8:29 p	-17.8	-17.8	-17.8	---	---	19.1	ENE	0.32	21.7	-30.5	---	---	720.2	0.025	0.000	20.1	2	1
03/26/06	8:30 p	-17.8	-17.8	-17.8	---	---	14.8	E	0.25	19.1	-29.1	---	---	720.3	0.025	0.000	20.1	2	1
03/26/06	8:31 p	-17.8	-17.8	-17.8	---	---	14.8	E	0.25	16.5	-29.1	---	---	720.3	0.025	0.000	20.1	2	1
03/26/06	8:32 p	-17.8	-17.8	-17.8	---	---	14.8	ESE	0.25	16.5	-29.1	---	---	720.4	0.025	0.000	20.1	2	1
03/26/06	8:33 p	-17.8	-17.8	-17.8	---	---	15.7	E	0.26	18.3	-29.4	---	---	720.3	0.025	0.000	20.0	2	1
03/26/06	8:34 p	-17.8	-17.8	-17.8	---	---	12.2	E	0.20	14.8	-28.2	---	---	720.4	0.025	0.000	20.0	1	1
03/26/06	8:35 p	-17.8	-17.8	-17.8	---	---	13.0	E	0.22	15.7	-28.5	---	---	720.3	0.025	0.000	20.0	2	1
03/26/06	8:36 p	-17.8	-17.7	-17.8	---	---	14.8	E	0.25	17.4	-29.1	---	---	720.3	0.025	0.000	20.0	2	1
03/26/06	8:37 p	-17.7	-17.7	-17.7	---	---	13.0	E	0.22	15.7	-28.4	---	---	720.4	0.025	0.000	20.0	2	1
03/26/06	8:38 p	-17.7	-17.7	-17.7	---	---	18.3	E	0.30	25.2	-30.1	---	---	720.3	0.025	0.000	20.0	2	1
03/26/06	8:39 p	-17.7	-17.7	-17.7	---	---	17.4	ENE	0.29	23.5	-29.9	---	---	720.3	0.025	0.000	20.0	2	1
03/26/06	8:40 p	-17.7	-17.7	-17.7	---	---	13.0	ENE	0.22	20.0	-28.4	---	---	720.3	0.025	0.000	20.0	1	1
03/26/06	8:41 p	-17.7	-17.7	-17.7	---	---	12.2	ESE	0.20	17.4	-28.0	---	---	720.4	0.025	0.000	20.0	2	1
03/26/06	8:42 p	-17.7	-17.7	-17.7	---	---	17.4	ENE	0.29	20.0	-29.8	---	---	720.2	0.025	0.000	20.0	2	1
03/26/06	8:43 p	-17.7	-17.7	-17.7	---	---	14.8	ENE	0.25	18.3	-29.0	---	---	720.3	0.025	0.000	20.0	2	1
03/26/06	8:44 p	-17.7	-17.6	-17.7	---	---	17.4	ENE	0.29	20.0	-29.8	---	---	720.2	0.025	0.000	20.0	1	1
03/26/06	8:45 p	-17.6	-17.6	-17.7	---	---	17.4	ENE	0.29	20.0	-29.7	---	---	720.3	0.025	0.000	20.0	2	1
03/26/06	8:46 p	-17.6	-17.6	-17.6	---	---	18.3	E	0.30	22.6	-30.0	---	---	720.1	0.025	0.000	20.0	2	1
03/26/06	8:47 p	-17.6	-17.6	-17.6	---	---	16.5	E	0.28	20.9	-29.4	---	---	720.2	0.025	0.000	20.0	2	1
03/26/06	8:48 p	-17.6	-17.6	-17.6	---	---	17.4	E	0.29	20.9	-29.7	---	---	720.3	0.025	0.000	20.0	1	1
03/26/06	8:49 p	-17.6	-17.6	-17.6	---	---	19.1	E	0.32	20.9	-30.2	---	---	720.2	0.025	0.000	20.0	1	1
03/26/06	8:50 p	-17.6	-17.6	-17.6	---	---	17.4	E	0.29	18.3	-29.7	---	---	720.2	0.025	0.000	20.0	2	1
03/26/06	8:51 p	-17.6	-17.5	-17.6	---	---	15.7	E	0.26	19.1	-29.1	---	---	720.3	0.025	0.000	20.0	1	1
03/26/06	8:52 p	-17.5	-17.5	-17.6	---	---	15.7	E	0.26	18.3	-29.1	---	---	720.1	0.025	0.000	20.0	2	1
03/26/06	8:53 p	-17.5	-17.5	-17.6	---	---	15.7	E	0.26	19.1	-29.1	---	---	720.3	0.025	0.000	20.0	1	1
03/26/06	8:54 p	-17.5	-17.5	-17.5	---	---	17.4	E	0.29	20.0	-29.6	---	---	720.4	0.025	0.000	20.0	1	1
03/26/06	8:55 p	-17.5	-17.5	-17.5	---	---	13.0	E	0.22	16.5	-28.2	---	---	720.3	0.025	0.000	20.0	2	1
03/26/06	8:56 p	-17.4	-17.4	-17.5	---	---	15.7	E	0.26	21.7	-28.9	---	---	720.2	0.025	0.000	20.0	2	1
03/26/06	8:57 p	-17.4	-17.4	-17.4	---	---	19.1	ENE	0.32	20.9	-30.0	---	---	720.3	0.025	0.000	20.0	2	1
03/26/06	8:58 p	-17.4	-17.4	-17.4	---	---	17.4	E	0.29	20.0	-29.5	---	---	720.3	0.025	0.000	20.1	2	1
03/26/06	8:59 p	-17.4	-17.4	-17.4	---	---	18.3	ENE	0.30	20.9	-29.7	---	---	720.3	0.025	0.000	20.1	2	1
03/26/06	9:00 p	-17.4	-17.3	-17.4	---	---	19.1	ENE	0.32	20.9	-29.9	---	---	720.5	0.025	0.000	20.1	2	1
03/26/06	9:01 p	-17.3	-17.3	-17.3	---	---	18.3	E	0.30	20.0	-29.6	---	---	720.4	0.025	0.000	20.1	2	1
03/26/06	9:02 p	-17.3	-17.3	-17.3	---	---	18.3	ENE	0.30	20.0	-29.6	---	---	720.4	0.025	0.000	20.1	2	1
03/26/06	9:03 p	-17.3	-17.3	-17.3	---	---	17.4	E	0.29	19.1	-29.3	---	---	720.4	0.025	0.000	20.1	2	1
03/26/06	9:04 p	-17.3	-17.3	-17.3	---	---	16.5	E	0.28	19.1	-29.0	---	---	720.3	0.025	0.000	20.2	2	1
03/26/06	9:05 p	-17.3	-17.3	-17.3	---	---	18.3	E	0.30	20.9	-29.6	---	---	720.3	0.025	0.000	20.2	2	1
03/26/06	9:06 p	-17.3	-17.3	-17.3	---	---	20.0	E	0.33	22.6	-30.0	---	---	720.2	0.025	0.000	20.2	2	1
03/26/06	9:07 p	-17.3	-17.2	-17.3	---	---	19.1	E	0.32	20.9	-29.8	---	---	720.2	0.025	0.000	20.2	2	1
03/26/06	9:08 p	-17.2	-17.2	-17.2	---	---	17.4	E	0.29	20.9	-29.2	---	---	720.3	0.025	0.000	20.3	2	1
03/26/06	9:09 p	-17.2	-17.2	-17.2	---	---	16.5	E	0.28	17.4	-28.9	---	---	720.3	0.025	0.000	20.3	2	1
03/26/06	9:10 p	-17.2	-17.2	-17.2	---	---	16.5	E	0.28	20.0	-28.9	---	---	720.2	0.025	0.000	20.3	2	1
03/26/06	9:11 p	-17.2	-17.2	-17.2	---	---	16.5	E	0.28	19.1	-28.9	---	---	720.2	0.025	0.000	20.3	2	1
03/26/06	9:12 p	-17.2	-17.2	-17.2	---	---	15.7	E	0.26	18.3	-28.6	---	---	720.2	0.025	0.000	20.3	2	1
03/26/06	9:13 p	-17.2	-17.1	-17.2	---	---	16.5	E	0.28	20.0	-28.9	---	---	720.2	0.025	0.000	20.3	2	1
03/26/06	9:14 p	-17.1	-17.1	-17.2	---	---	15.7	E	0.26	18.3	-28.6	---	---	720.2	0.025	0.000	20.3	2	1
03/26/06	9:15 p	-17.2	-17.1	-17.2	---	---	17.4	E	0.29	20.0	-29.2	---	---	720.1	0.025	0.000	20.3	2	1
03/26/06	9:16 p	-17.1	-17.1	-17.1	---	---	16.5	E	0.28	20.9	-28.8	---	---	720.1	0.025	0.000	20.4	2	1
03/26/06	9:17 p	-17.1	-17.1	-17.1	---	---	17.4	E	0.29	19.1	-29.1	---	---	720.2	0.025	0.000	20.4	2	1
03/26/06	9:18 p	-17.1	-17.1	-17.1	---	---	18.3	E	0.30	20.9	-29.2	---	---	720.0	0.025	0.000	20.4	2	1
03/26/06	9:19 p	-17.1	-17.1	-17.1	---	---	17.4	E	0.29	20.0	-29.0	---	---	720.1	0.025	0.000	20.4	2	1
03/26/06	9:20 p	-17.0	-17.0	-17.1	---	---	17.4	E	0.29	20.9	-28.9	---	---	720.1	0.025	0.000	20.4	2	1
03/26/06	9:21 p	-17.1	-17.0	-17.1	---	---	16.5	E	0.28	18.3	-28.7	---	---	720.0	0.025	0.000	20.4	2	1
03/26/06	9:22 p	-17.0	-17.0	-17.1	---	---	18.3	E	0.30	21.7	-29.2	---	---	720.1	0.025	0.000	20.4	2	1
03/26/06	9:23 p	-17.0	-17.0	-17.0	---	---	16.5	E	0.28	18.3	-28.7	---	---	720.1	0.025	0.000	20.4	2	1
03/26/06	9:24 p	-17.0	-17.0	-17.0	---	---	17.4	E	0.29	20.9	-28.9	---	---	720.0	0.025	0.000	20.4	2	1
03/26/06	9:25 p	-17.0	-16.9	-17.0	---	---	18.3	E	0.30	20.9	-29.2	---	---	720.0	0.025	0.000	20.4	2	1
03/26/06	9:26 p	-16.9	-16.9	-16.9	---	---	17.4	E	0.29	21.7	-28.8	---	---	720.0	0.024	0.000	20.3	2	1
03/26/06	9:27 p	-16.9	-16.9	-16.9	---	---	18.3	E	0.30	20.9	-29.1	---	---	720.0	0.024	0.000	20.3	2	1
03/26/06	9:28 p	-16.9	-16.9	-16.9	---	---	18.3	E	0.30	20.0	-29.0	---	---	720.1	0.024	0.000	20.3	2	1
03/26/06	9:29 p	-16.9	-16.9	-16.9	---	---	16.5	E	0.28	21.7	-28.5	---	---	720.1	0.024	0.000	20.3	2	1
03/26/06	9:30 p	-16.9	-16.9	-16.9	---	---	17.4	E	0.29	22.6	-28.8	---	---	720.1	0.024	0.000	20.3	2	1
03/26/06	9:31 p	-16.9	-16.9	-16.9	---	---	15.7	E	0.26	19.1	-28.2	---	---	720.1	0.024	0.000	20.3	2	1
03/26/06	9:32 p	-16.8	-16.8	-16.8	---	---	17.4	E	0.29	19.1	-28.7	---	---	720.0	0.024	0.000	20.3	2	1
03/26/06	9:33 p	-16.8	-16.8	-16.9	---	---	16.5	E	0.28	19.1	-28.4	---	---	720.1	0.024	0.000	20.3	2	1
03/26/06	9:34 p	-16.8	-16.8	-16.8	---	---	17.4	E	0.29	20.9	-28.7	---	---	720.1	0.024	0.000	20.3	2	1
03/26/06	9:35 p	-16.8	-16.8	-16.8	---	---	17.4	E	0.29	20.0	-28.7	---	---	720.0	0.024	0.000	20.4	2	1
03/26/06	9:36 p	-16.8	-16.8	-16.8	---	---	20.0	E	0.33	26.1	-29.3	---	---	719.9	0.024	0.000	20.4	3	1
03/26/06	9:37 p	-16.8	-16.8	-16.8	---	---	20.9	E	0.35	26.1	-29.6	---	---	719.9	0.024	0.000	20.4	2	1
03/26/06	9:38 p	-16.8	-16.8	-16.8	---	---	17.4	E	0.29	20.0	-28.6	---	---	720.0	0.024	0.000	20.4	2	1
03/26/06	9:39 p	-16.8	-16.7	-16.8	---	---	18.3	E	0.30	23.5	-28.9	---	---	720.0	0.024	0.000	20.4	2	1
03/26/06	9:40 p	-16.7	-16.7	-16.7	---	---	20.9	ESE	0.35	23.5	-29.5	---	---	720.0	0.024	0.000	20.4	2	1
03/26/06	9:41 p	-16.7	-16.7	-16.7	---	---	23.5	ESE	0.39	25.2	-30.1	---	---	719.9	0.024	0.000	20.4	2	1
03/26/06	9:42 p	-16.7	-16.7	-16.7	---	---	22.6	ESE	0.38	26.1	-29.9	---	---	719.9	0.024	0.000	20.4	2	1
03/26/06	9:43 p	-16.7	-16.7	-16.7	---	---	18.3	E	0.30	23.5	-28.7	---	---	720.0	0.024	0.000	20.4	2	1
03/26/06	9:44 p	-16.7	-16.7	-16.7	---	---	21.7	ESE	0.36	24.3	-29.6	---	---	719.9	0.024	0.000	20.4	2	1
03/26/06	9:45 p	-16.7	-16.7	-16.7	---	---	22.6	ESE	0.38	26.1	-29.8	---	---	720.0	0.024	0.000	20.4	2	1
03/26/06	9:46 p	-16.7	-16.7	-16.7	---	---	23.5	ESE	0.39	25.2	-30.0	---	---	720.0	0.024	0.000	20.4	3	1
03/26/06	9:47 p	-16.7	-16.6	-16.7	---	---	24.3	ESE	0.41	27.8	-30.2	---	---	719.9	0.024	0.000	20.4	2	1
03/26/06	9:48 p	-16.7	-16.6	-16.7	---	---	24.3	ESE	0.41	26.1	-30.2	---	---	719.9	0.024	0.000	20.5	3	1
03/26/06	9:49 p	-16.6	-16.6	-16.7	---	---	25.2	ESE	0.42	27.8	-30.3	---	---	719.9	0.024	0.000	20.5	3	1
03/26/06	9:50 p	-16.6	-16.6	-16.6	---	---	26.1	ESE	0.43	27.8	-30.5	---	---	719.8	0.024	0.000	20.5	2	1
03/26/06	9:51 p	-16.6	-16.6	-16.6	---	---	25.2	ESE	0.42	29.6	-30.3	---	---	719.9	0.024	0.000	20.5	3	1
03/26/06	9:52 p	-16.6	-16.6	-16.6	---	---	24.3	ESE	0.41	27.8	-30.1	---	---	719.9	0.024	0.000	20.5	3	1
03/26/06	9:53 p	-16.6	-16.6	-16.6	---	---	22.6	ESE	0.38	26.1	-29.7	---	---	719.9	0.024	0.000	20.5	3	1
03/26/06	9:54 p	-16.6	-16.6	-16.6	---	---	23.5	ESE	0.39	26.1	-29.9	---	---	719.9	0.024	0.000	20.5	3	1
03/26/06	9:55 p	-16.6	-16.6	-16.6	---	---	21.7	ESE	0.36	27.0	-29.5	---	---	719.9	0.024	0.000	20.5	3	1
03/26/06	9:56 p	-16.6	-16.6	-16.6	---	---	23.5	ESE	0.39	27.8	-29.9	---	---	720.0	0.024	0.000	20.6	3	1
03/26/06	9:57 p	-16.6	-16.5	-16.6	---	---	23.5	ESE	0.39	27.0	-29.9	---	---	720.0	0.024	0.000	20.5	3	1
03/26/06	9:58 p	-16.5	-16.5	-16.6	---	---	23.5	ESE	0.39	26.1	-29.8	---	---	720.0	0.024	0.000	20.6	3	1
03/26/06	9:59 p	-16.5	-16.5	-16.6	---	---	24.3	ESE	0.41	27.0	-30.0	---	---	720.0	0.024	0.000	20.5	3	1
03/26/06	10:00 p	-16.5	-16.5	-16.5	---	---	22.6	ESE	0.38	24.3	-29.6	---	---	719.9	0.024	0.000	20.5	3	1
03/26/06	10:01 p	-16.5	-16.4	-16.5	---	---	25.2	ESE	0.42	28.7	-30.2	---	---	719.9	0.024	0.000	20.5	3	1
03/26/06	10:02 p	-16.4	-16.4	-16.5	---	---	25.2	E	0.42	27.0	-30.1	---	---	719.9	0.024	0.000	20.5	3	1
03/26/06	10:03 p	-16.4	-16.4	-16.5	---	---	24.3	E	0.41	27.0	-29.9	---	---	719.9	0.024	0.000	20.5	3	1
03/26/06	10:04 p	-16.4	-16.4	-16.4	---	---	25.2	ESE	0.42	27.0	-30.1	---	---	719.9	0.024	0.000	20.5	3	1
03/26/06	10:05 p	-16.4	-16.4	-16.4	---	---	25.2	E	0.42	26.1	-30.1	---	---	719.9	0.024	0.000	20.5	3	1
03/26/06	10:06 p	-16.4	-16.4	-16.4	---	---	25.2	ESE	0.42	26.1	-30.1	---	---	719.9	0.024	0.000	20.5	3	1
03/26/06	10:07 p	-16.4	-16.4	-16.4	---	---	25.2	ESE	0.42	27.8	-30.1	---	---	719.9	0.024	0.000	20.5	3	1
03/26/06	10:08 p	-16.4	-16.4	-16.4	---	---	26.1	ESE	0.43	28.7	-30.3	---	---	719.9	0.024	0.000	20.6	3	1
03/26/06	10:09 p	-16.4	-16.4	-16.4	---	---	26.1	ESE	0.43	29.6	-30.3	---	---	719.9	0.024	0.000	20.5	3	1
03/26/06	10:10 p	-16.4	-16.4	-16.4	---	---	26.1	ESE	0.43	28.7	-30.3	---	---	719.9	0.024	0.000	20.6	3	1
03/26/06	10:11 p	-16.4	-16.4	-16.4	---	---	26.1	ESE	0.43	27.8	-30.2	---	---	719.9	0.024	0.000	20.5	3	1
03/26/06	10:12 p	-16.4	-16.4	-16.4	---	---	26.1	ESE	0.43	27.8	-30.2	---	---	719.8	0.024	0.000	20.5	3	1
03/26/06	10:13 p	-16.4	-16.4	-16.4	---	---	27.8	ESE	0.46	30.4	-30.6	---	---	719.9	0.024	0.000	20.5	3	1
03/26/06	10:14 p	-16.4	-16.4	-16.4	---	---	26.1	ESE	0.43	28.7	-30.2	---	---	719.9	0.024	0.000	20.5	3	1
03/26/06	10:15 p	-16.4	-16.4	-16.4	---	---	27.8	ESE	0.46	30.4	-30.6	---	---	719.8	0.024	0.000	20.4	3	1
03/26/06	10:16 p	-16.4	-16.4	-16.4	---	---	28.7	ESE	0.48	31.3	-30.7	---	---	719.9	0.024	0.000	20.4	3	1
03/26/06	10:17 p	-16.4	-16.4	-16.4	---	---	27.8	ESE	0.46	30.4	-30.6	---	---	719.9	0.024	0.000	20.4	3	1
03/26/06	10:18 p	-16.4	-16.4	-16.4	---	---	26.1	ESE	0.43	29.6	-30.2	---	---	719.9	0.024	0.000	20.4	3	1
03/26/06	10:19 p	-16.4	-16.3	-16.4	---	---	26.1	ESE	0.43	27.8	-30.2	---	---	719.9	0.024	0.000	20.4	3	1
03/26/06	10:20 p	-16.3	-16.3	-16.3	---	---	27.0	ESE	0.45	33.9	-30.3	---	---	719.8	0.024	0.000	20.4	3	1
03/26/06	10:21 p	-16.3	-16.3	-16.4	---	---	27.8	ESE	0.46	30.4	-30.5	---	---	719.8	0.024	0.000	20.3	3	1
03/26/06	10:22 p	-16.4	-16.3	-16.4	---	---	27.8	ESE	0.46	30.4	-30.6	---	---	719.9	0.024	0.000	20.3	3	1
03/26/06	10:23 p	-16.3	-16.3	-16.4	---	---	27.0	ESE	0.45	29.6	-30.3	---	---	719.8	0.024	0.000	20.3	3	1
03/26/06	10:24 p	-16.3	-16.3	-16.3	---	---	27.0	ESE	0.45	29.6	-30.3	---	---	719.8	0.024	0.000	20.3	3	1
03/26/06	10:25 p	-16.3	-16.3	-16.3	---	---	26.1	ESE	0.43	27.8	-30.1	---	---	719.9	0.024	0.000	20.3	3	1
03/26/06	10:26 p	-16.3	-16.3	-16.3	---	---	23.5	ESE	0.39	25.2	-29.6	---	---	720.0	0.024	0.000	20.3	3	1
03/26/06	10:27 p	-16.3	-16.3	-16.3	---	---	24.3	ESE	0.41	27.0	-29.8	---	---	720.0	0.024	0.000	20.3	3	1
03/26/06	10:28 p	-16.3	-16.3	-16.3	---	---	25.2	ESE	0.42	27.8	-29.9	---	---	720.0	0.024	0.000	20.3	3	1
03/26/06	10:29 p	-16.3	-16.3	-16.3	---	---	25.2	ESE	0.42	27.8	-29.9	---	---	720.0	0.024	0.000	20.3	3	1
03/26/06	10:30 p	-16.3	-16.3	-16.3	---	---	25.2	ESE	0.42	27.0	-29.9	---	---	720.0	0.024	0.000	20.3	3	1
03/26/06	10:31 p	-16.3	-16.3	-16.3	---	---	25.2	ESE	0.42	27.8	-29.9	---	---	720.0	0.024	0.000	20.2	3	1
03/26/06	10:32 p	-16.3	-16.3	-16.3	---	---	25.2	ESE	0.42	27.8	-29.9	---	---	720.0	0.024	0.000	20.2	3	1
03/26/06	10:33 p	-16.3	-16.3	-16.3	---	---	25.2	ESE	0.42	27.8	-29.9	---	---	719.9	0.024	0.000	20.2	3	1
03/26/06	10:34 p	-16.3	-16.3	-16.3	---	---	23.5	E	0.39	27.8	-29.5	---	---	720.0	0.024	0.000	20.2	3	1
03/26/06	10:35 p	-16.3	-16.3	-16.3	---	---	25.2	ESE	0.42	27.0	-29.9	---	---	720.1	0.024	0.000	20.2	3	1
03/26/06	10:36 p	-16.3	-16.3	-16.3	---	---	22.6	ESE	0.38	24.3	-29.3	---	---	720.1	0.024	0.000	20.2	3	1
03/26/06	10:37 p	-16.3	-16.3	-16.3	---	---	22.6	ESE	0.38	24.3	-29.3	---	---	720.1	0.024	0.000	20.2	3	1
03/26/06	10:38 p	-16.2	-16.2	-16.3	---	---	23.5	ESE	0.39	26.1	-29.4	---	---	720.0	0.024	0.000	20.2	3	1
03/26/06	10:39 p	-16.3	-16.3	-16.3	---	---	20.9	E	0.35	24.3	-28.9	---	---	720.1	0.024	0.000	20.2	3	1
03/26/06	10:40 p	-16.3	-16.3	-16.3	---	---	20.9	E	0.35	23.5	-28.9	---	---	720.1	0.024	0.000	20.2	3	1
03/26/06	10:41 p	-16.3	-16.3	-16.3	---	---	20.9	ESE	0.35	22.6	-28.9	---	---	720.1	0.024	0.000	20.2	3	1
03/26/06	10:42 p	-16.2	-16.2	-16.3	---	---	21.7	ESE	0.36	22.6	-29.1	---	---	720.1	0.024	0.000	20.2	3	1
03/26/06	10:43 p	-16.2	-16.2	-16.2	---	---	20.9	ESE	0.35	23.5	-28.8	---	---	720.0	0.024	0.000	20.2	3	1
03/26/06	10:44 p	-16.3	-16.2	-16.3	---	---	20.9	ESE	0.35	22.6	-28.9	---	---	720.1	0.024	0.000	20.2	3	1
03/26/06	10:45 p	-16.2	-16.2	-16.2	---	---	19.1	ESE	0.32	20.9	-28.4	---	---	720.1	0.024	0.000	20.2	3	1
03/26/06	10:46 p	-16.2	-16.2	-16.2	---	---	20.0	ESE	0.33	20.9	-28.6	---	---	720.0	0.024	0.000	20.2	3	1
03/26/06	10:47 p	-16.2	-16.2	-16.2	---	---	20.0	ESE	0.33	22.6	-28.6	---	---	720.1	0.024	0.000	20.2	3	1
03/26/06	10:48 p	-16.2	-16.2	-16.2	---	---	19.1	ESE	0.32	20.0	-28.4	---	---	720.1	0.024	0.000	20.2	3	1
03/26/06	10:49 p	-16.2	-16.2	-16.2	---	---	19.1	ESE	0.32	20.0	-28.4	---	---	720.0	0.024	0.000	20.2	2	1
03/26/06	10:50 p	-16.2	-16.2	-16.2	---	---	19.1	ESE	0.32	20.0	-28.3	---	---	720.0	0.024	0.000	20.2	3	1
03/26/06	10:51 p	-16.2	-16.2	-16.2	---	---	20.0	ESE	0.33	21.7	-28.6	---	---	720.0	0.024	0.000	20.2	3	1
03/26/06	10:52 p	-16.2	-16.2	-16.2	---	---	20.0	E	0.33	21.7	-28.6	---	---	719.9	0.024	0.000	20.2	2	1
03/26/06	10:53 p	-16.2	-16.2	-16.2	---	---	18.3	E	0.30	20.0	-28.1	---	---	719.9	0.024	0.000	20.2	3	1
03/26/06	10:54 p	-16.2	-16.2	-16.2	---	---	19.1	E	0.32	22.6	-28.3	---	---	720.0	0.024	0.000	20.2	3	1
03/26/06	10:55 p	-16.2	-16.2	-16.2	---	---	19.1	E	0.32	21.7	-28.3	---	---	719.9	0.024	0.000	20.2	3	1
03/26/06	10:56 p	-16.2	-16.2	-16.2	---	---	19.1	E	0.32	20.9	-28.3	---	---	720.0	0.024	0.000	20.1	3	1
03/26/06	10:57 p	-16.2	-16.2	-16.2	---	---	19.1	E	0.32	21.7	-28.3	---	---	719.9	0.024	0.000	20.2	3	1
03/26/06	10:58 p	-16.2	-16.2	-16.2	---	---	18.3	E	0.30	20.0	-28.1	---	---	719.8	0.024	0.000	20.2	3	1
03/26/06	10:59 p	-16.2	-16.2	-16.2	---	---	18.3	E	0.30	20.9	-28.1	---	---	719.8	0.024	0.000	20.2	3	1
03/26/06	11:00 p	-16.2	-16.2	-16.2	---	---	19.1	E	0.32	22.6	-28.3	---	---	719.8	0.024	0.000	20.2	3	1
03/26/06	11:01 p	-16.2	-16.2	-16.2	---	---	20.0	E	0.33	22.6	-28.6	---	---	719.8	0.024	0.000	20.2	2	1
03/26/06	11:02 p	-16.2	-16.2	-16.2	---	---	19.1	E	0.32	22.6	-28.3	---	---	719.8	0.024	0.000	20.2	3	1
03/26/06	11:03 p	-16.1	-16.1	-16.2	---	---	19.1	E	0.32	21.7	-28.2	---	---	719.7	0.024	0.000	20.2	2	1
03/26/06	11:04 p	-16.2	-16.1	-16.2	---	---	19.1	E	0.32	22.6	-28.3	---	---	719.6	0.024	0.000	20.2	2	1
03/26/06	11:05 p	-16.1	-16.1	-16.2	---	---	20.9	E	0.35	23.5	-28.7	---	---	719.7	0.024	0.000	20.2	2	1
03/26/06	11:06 p	-16.2	-16.1	-16.2	---	---	21.7	E	0.36	23.5	-28.9	---	---	719.7	0.024	0.000	20.1	2	1
03/26/06	11:07 p	-16.2	-16.1	-16.2	---	---	20.0	E	0.33	22.6	-28.6	---	---	719.6	0.024	0.000	20.1	3	1
03/26/06	11:08 p	-16.1	-16.1	-16.2	---	---	20.0	E	0.33	23.5	-28.4	---	---	719.7	0.024	0.000	20.1	2	1
03/26/06	11:09 p	-16.1	-16.1	-16.1	---	---	20.9	E	0.35	23.5	-28.7	---	---	719.6	0.024	0.000	20.1	2	1
03/26/06	11:10 p	-16.1	-16.1	-16.1	---	---	23.5	E	0.39	26.1	-29.3	---	---	719.7	0.024	0.000	20.1	2	1
03/26/06	11:11 p	-16.1	-16.1	-16.2	---	---	23.5	E	0.39	25.2	-29.3	---	---	719.7	0.024	0.000	20.1	2	1
03/26/06	11:12 p	-16.1	-16.1	-16.1	---	---	22.6	E	0.38	25.2	-29.1	---	---	719.7	0.024	0.000	20.1	2	1
03/26/06	11:13 p	-16.1	-16.1	-16.1	---	---	20.9	E	0.35	25.2	-28.7	---	---	719.6	0.024	0.000	20.1	2	1
03/26/06	11:14 p	-16.1	-16.1	-16.1	---	---	23.5	E	0.39	27.0	-29.3	---	---	719.7	0.024	0.000	20.1	2	1
03/26/06	11:15 p	-16.1	-16.1	-16.1	---	---	21.7	E	0.36	26.1	-28.8	---	---	719.7	0.024	0.000	20.1	2	1
03/26/06	11:16 p	-16.1	-16.1	-16.1	---	---	23.5	E	0.39	27.8	-29.3	---	---	719.7	0.024	0.000	20.1	2	1
03/26/06	11:17 p	-16.1	-16.1	-16.1	---	---	21.7	E	0.36	24.3	-28.9	---	---	719.7	0.024	0.000	20.1	2	1
03/26/06	11:18 p	-16.1	-16.1	-16.1	---	---	22.6	E	0.38	27.8	-29.1	---	---	719.6	0.024	0.000	20.1	2	1
03/26/06	11:19 p	-16.1	-16.1	-16.1	---	---	26.1	ESE	0.43	30.4	-29.8	---	---	719.5	0.024	0.000	20.1	2	1
03/26/06	11:20 p	-16.1	-16.1	-16.1	---	---	25.2	E	0.42	29.6	-29.7	---	---	719.5	0.024	0.000	20.1	2	1
03/26/06	11:21 p	-16.1	-16.1	-16.1	---	---	26.1	E	0.43	31.3	-29.8	---	---	719.4	0.024	0.000	20.1	2	1
03/26/06	11:22 p	-16.1	-16.1	-16.1	---	---	24.3	ESE	0.41	27.0	-29.4	---	---	719.6	0.024	0.000	20.1	2	1
03/26/06	11:23 p	-16.1	-16.1	-16.1	---	---	25.2	E	0.42	27.8	-29.6	---	---	719.6	0.024	0.000	20.1	2	1
03/26/06	11:24 p	-16.1	-16.1	-16.1	---	---	21.7	E	0.36	26.1	-28.8	---	---	719.5	0.024	0.000	20.1	2	1
03/26/06	11:25 p	-16.1	-16.1	-16.1	---	---	21.7	E	0.36	24.3	-28.8	---	---	719.5	0.024	0.000	20.1	2	1
03/26/06	11:26 p	-16.1	-16.1	-16.1	---	---	22.6	E	0.38	29.6	-29.0	---	---	719.5	0.024	0.000	20.1	2	1
03/26/06	11:27 p	-16.1	-16.1	-16.1	---	---	24.3	E	0.41	31.3	-29.4	---	---	719.5	0.024	0.000	20.1	2	1
03/26/06	11:28 p	-16.1	-16.1	-16.1	---	---	23.5	E	0.39	26.1	-29.2	---	---	719.6	0.024	0.000	20.1	2	1
03/26/06	11:29 p	-16.1	-16.0	-16.1	---	---	24.3	E	0.41	29.6	-29.4	---	---	719.6	0.024	0.000	20.1	2	1
03/26/06	11:30 p	-16.1	-16.1	-16.1	---	---	24.3	E	0.41	27.8	-29.4	---	---	719.7	0.024	0.000	20.1	2	1
03/26/06	11:31 p	-16.0	-16.0	-16.1	---	---	22.6	E	0.38	27.0	-28.9	---	---	719.6	0.024	0.000	20.1	2	1
03/26/06	11:32 p	-16.0	-16.0	-16.1	---	---	23.5	E	0.39	27.0	-29.1	---	---	719.6	0.024	0.000	20.1	2	1
03/26/06	11:33 p	-16.0	-16.0	-16.1	---	---	22.6	E	0.38	26.1	-28.9	---	---	719.6	0.024	0.000	20.1	3	1
03/26/06	11:34 p	-16.0	-16.0	-16.0	---	---	21.7	E	0.36	27.0	-28.7	---	---	719.6	0.024	0.000	20.1	3	1
03/26/06	11:35 p	-16.0	-16.0	-16.0	---	---	22.6	E	0.38	26.1	-28.9	---	---	719.6	0.024	0.000	20.1	2	1
03/26/06	11:36 p	-16.0	-16.0	-16.0	---	---	22.6	E	0.38	25.2	-28.9	---	---	719.6	0.024	0.000	20.1	2	1
03/26/06	11:37 p	-15.9	-15.9	-16.0	---	---	21.7	E	0.36	26.1	-28.7	---	---	719.6	0.024	0.000	20.1	2	1
03/26/06	11:38 p	-15.9	-15.9	-16.0	---	---	19.1	E	0.32	21.7	-28.0	---	---	719.6	0.024	0.000	20.1	2	1
03/26/06	11:39 p	-15.9	-15.9	-16.0	---	---	20.9	E	0.35	24.3	-28.4	---	---	719.8	0.024	0.000	20.1	2	1
03/26/06	11:40 p	-15.9	-15.9	-15.9	---	---	22.6	E	0.38	27.0	-28.8	---	---	719.6	0.024	0.000	20.1	2	1
03/26/06	11:41 p	-15.9	-15.9	-15.9	---	---	22.6	E	0.38	26.1	-28.8	---	---	719.7	0.024	0.000	20.1	2	1
03/26/06	11:42 p	-15.9	-15.9	-15.9	---	---	22.6	E	0.38	27.0	-28.8	---	---	719.7	0.024	0.000	20.1	2	1
03/26/06	11:43 p	-15.9	-15.9	-15.9	---	---	21.7	E	0.36	27.0	-28.7	---	---	719.8	0.024	0.000	20.1	2	1
03/26/06	11:44 p	-15.9	-15.9	-15.9	---	---	20.0	E	0.33	22.6	-28.2	---	---	719.7	0.024	0.000	20.1	2	1
03/26/06	11:45 p	-15.9	-15.9	-15.9	---	---	23.5	E	0.39	26.1	-29.0	---	---	719.8	0.024	0.000	20.1	2	1
03/26/06	11:46 p	-15.9	-15.9	-15.9	---	---	22.6	ESE	0.38	27.0	-28.8	---	---	719.8	0.024	0.000	20.1	2	1
03/26/06	11:47 p	-15.9	-15.9	-15.9	---	---	21.7	E	0.36	23.5	-28.6	---	---	719.9	0.024	0.000	20.1	2	1
03/26/06	11:48 p	-15.9	-15.9	-15.9	---	---	18.3	E	0.30	22.6	-27.7	---	---	719.8	0.024	0.000	20.1	2	1
03/26/06	11:49 p	-15.9	-15.9	-15.9	---	---	20.0	E	0.33	22.6	-28.2	---	---	719.9	0.024	0.000	20.1	2	1
03/26/06	11:50 p	-15.9	-15.9	-15.9	---	---	20.9	E	0.35	24.3	-28.4	---	---	719.8	0.024	0.000	20.1	2	1
03/26/06	11:51 p	-15.9	-15.8	-15.9	---	---	21.7	E	0.36	23.5	-28.6	---	---	719.9	0.024	0.000	20.1	2	1
03/26/06	11:52 p	-15.8	-15.8	-15.9	---	---	19.1	E	0.32	21.7	-27.9	---	---	720.0	0.024	0.000	20.1	2	1
03/26/06	11:53 p	-15.8	-15.8	-15.8	---	---	19.1	E	0.32	22.6	-27.9	---	---	719.7	0.024	0.000	20.1	2	1
03/26/06	11:54 p	-15.8	-15.8	-15.8	---	---	20.9	E	0.35	26.1	-28.3	---	---	719.8	0.024	0.000	20.1	2	1
03/26/06	11:55 p	-15.8	-15.8	-15.8	---	---	21.7	E	0.36	24.3	-28.5	---	---	719.8	0.024	0.000	20.0	2	1
03/26/06	11:56 p	-15.8	-15.8	-15.8	---	---	19.1	E	0.32	21.7	-27.9	---	---	719.8	0.024	0.000	20.0	2	1
03/26/06	11:57 p	-15.8	-15.8	-15.8	---	---	18.3	E	0.30	20.9	-27.6	---	---	719.9	0.024	0.000	20.0	2	1
03/26/06	11:58 p	-15.8	-15.8	-15.8	---	---	20.0	E	0.33	24.3	-28.1	---	---	719.8	0.024	0.000	20.0	2	1
03/26/06	11:59 p	-15.8	-15.8	-15.8	---	---	21.7	ESE	0.36	29.6	-28.5	---	---	719.8	0.024	0.000	20.0	2	1
03/27/06	12:00 a	-15.8	-15.8	-15.8	---	---	20.0	E	0.33	24.3	-28.0	---	---	719.8	0.024	0.000	20.0	2	1
03/27/06	12:01 a	-15.8	-15.8	-15.8	---	---	19.1	ESE	0.32	21.7	-27.8	---	---	719.9	0.024	0.000	20.0	2	1
03/27/06	12:02 a	-15.8	-15.8	-15.8	---	---	20.9	ESE	0.35	25.2	-28.2	---	---	719.9	0.024	0.000	20.0	2	1
03/27/06	12:03 a	-15.8	-15.8	-15.8	---	---	20.9	ESE	0.35	23.5	-28.2	---	---	719.9	0.024	0.000	20.0	2	1
03/27/06	12:04 a	-15.8	-15.7	-15.8	---	---	20.9	ESE	0.35	24.3	-28.2	---	---	719.8	0.024	0.000	20.0	2	1
03/27/06	12:05 a	-15.7	-15.7	-15.8	---	---	22.6	ESE	0.38	25.2	-28.6	---	---	719.8	0.024	0.000	20.0	2	1
03/27/06	12:06 a	-15.7	-15.7	-15.7	---	---	20.0	ESE	0.33	23.5	-27.9	---	---	720.0	0.024	0.000	20.0	2	1
03/27/06	12:07 a	-15.7	-15.7	-15.7	---	---	20.0	E	0.33	22.6	-27.9	---	---	719.9	0.024	0.000	19.9	2	1
03/27/06	12:08 a	-15.7	-15.7	-15.7	---	---	20.0	ESE	0.33	20.9	-27.9	---	---	720.0	0.024	0.000	19.9	2	1
03/27/06	12:09 a	-15.7	-15.7	-15.7	---	---	20.0	ESE	0.33	22.6	-27.9	---	---	720.0	0.024	0.000	19.9	2	1
03/27/06	12:10 a	-15.7	-15.7	-15.7	---	---	18.3	ESE	0.30	22.6	-27.4	---	---	720.0	0.024	0.000	19.9	2	1
03/27/06	12:11 a	-15.7	-15.7	-15.7	---	---	18.3	E	0.30	20.0	-27.4	---	---	720.0	0.024	0.000	19.9	2	1
03/27/06	12:12 a	-15.7	-15.7	-15.7	---	---	18.3	ESE	0.30	20.0	-27.4	---	---	720.0	0.024	0.000	19.9	2	1
03/27/06	12:13 a	-15.7	-15.7	-15.7	---	---	17.4	ESE	0.29	20.9	-27.2	---	---	720.0	0.024	0.000	19.9	2	1
03/27/06	12:14 a	-15.7	-15.7	-15.7	---	---	18.3	E	0.30	20.9	-27.4	---	---	719.8	0.024	0.000	20.0	2	1
03/27/06	12:15 a	-15.7	-15.7	-15.7	---	---	18.3	ESE	0.30	20.9	-27.4	---	---	720.0	0.024	0.000	20.0	2	1
03/27/06	12:16 a	-15.7	-15.7	-15.7	---	---	18.3	E	0.30	20.9	-27.4	---	---	720.0	0.024	0.000	20.0	2	1
03/27/06	12:17 a	-15.7	-15.7	-15.7	---	---	18.3	ESE	0.30	20.0	-27.4	---	---	720.0	0.024	0.000	20.0	2	1
03/27/06	12:18 a	-15.6	-15.6	-15.7	---	---	19.1	ESE	0.32	21.7	-27.6	---	---	719.9	0.024	0.000	20.0	2	1
03/27/06	12:19 a	-15.6	-15.6	-15.6	---	---	16.5	E	0.28	20.0	-26.8	---	---	719.9	0.024	0.000	20.0	2	1
03/27/06	12:20 a	-15.6	-15.6	-15.6	---	---	19.1	ESE	0.32	20.9	-27.6	---	---	719.9	0.024	0.000	20.0	2	1
03/27/06	12:21 a	-15.6	-15.6	-15.6	---	---	18.3	ESE	0.30	20.9	-27.3	---	---	720.0	0.024	0.000	20.0	2	1
03/27/06	12:22 a	-15.6	-15.6	-15.6	---	---	18.3	ESE	0.30	20.0	-27.3	---	---	719.9	0.024	0.000	20.1	2	1
03/27/06	12:23 a	-15.6	-15.6	-15.6	---	---	18.3	ESE	0.30	19.1	-27.3	---	---	719.9	0.024	0.000	20.1	2	1
03/27/06	12:24 a	-15.6	-15.6	-15.6	---	---	17.4	ESE	0.29	20.0	-27.0	---	---	719.9	0.024	0.000	20.1	2	1
03/27/06	12:25 a	-15.6	-15.6	-15.6	---	---	17.4	E	0.29	19.1	-27.0	---	---	719.9	0.024	0.000	20.1	2	1
03/27/06	12:26 a	-15.6	-15.6	-15.6	---	---	17.4	E	0.29	20.0	-27.0	---	---	719.9	0.024	0.000	20.1	2	1
03/27/06	12:27 a	-15.6	-15.6	-15.6	---	---	18.3	E	0.30	21.7	-27.3	---	---	719.8	0.024	0.000	20.1	2	1
03/27/06	12:28 a	-15.6	-15.5	-15.6	---	---	16.5	E	0.28	22.6	-26.8	---	---	719.8	0.024	0.000	20.1	2	1
03/27/06	12:29 a	-15.5	-15.5	-15.6	---	---	15.7	E	0.26	18.3	-26.4	---	---	719.9	0.023	0.000	20.1	2	1
03/27/06	12:30 a	-15.5	-15.5	-15.5	---	---	17.4	E	0.29	20.0	-26.9	---	---	719.7	0.023	0.000	20.0	2	1
03/27/06	12:31 a	-15.5	-15.5	-15.5	---	---	19.1	E	0.32	20.9	-27.4	---	---	719.7	0.023	0.000	20.0	2	1
03/27/06	12:32 a	-15.5	-15.5	-15.5	---	---	17.4	E	0.29	19.1	-26.9	---	---	719.7	0.023	0.000	20.0	2	1
03/27/06	12:33 a	-15.4	-15.4	-15.5	---	---	17.4	E	0.29	20.9	-26.9	---	---	719.7	0.023	0.000	20.0	2	1
03/27/06	12:34 a	-15.4	-15.4	-15.4	---	---	18.3	ESE	0.30	20.0	-27.1	---	---	719.8	0.023	0.000	20.0	2	1
03/27/06	12:35 a	-15.4	-15.4	-15.4	---	---	20.0	ESE	0.33	24.3	-27.6	---	---	719.8	0.023	0.000	20.0	2	1
03/27/06	12:36 a	-15.4	-15.4	-15.4	---	---	20.9	ESE	0.35	21.7	-27.8	---	---	719.7	0.023	0.000	20.0	2	1
03/27/06	12:37 a	-15.4	-15.4	-15.4	---	---	19.1	E	0.32	22.6	-27.3	---	---	719.6	0.023	0.000	20.0	2	1
03/27/06	12:38 a	-15.4	-15.4	-15.4	---	---	20.0	E	0.33	21.7	-27.6	---	---	719.7	0.023	0.000	20.0	2	1
03/27/06	12:39 a	-15.4	-15.4	-15.4	---	---	17.4	E	0.29	21.7	-26.9	---	---	719.7	0.023	0.000	20.0	2	1
03/27/06	12:40 a	-15.4	-15.4	-15.4	---	---	18.3	ESE	0.30	22.6	-27.1	---	---	719.7	0.023	0.000	20.0	2	1
03/27/06	12:41 a	-15.4	-15.4	-15.4	---	---	20.9	ESE	0.35	22.6	-27.8	---	---	719.7	0.023	0.000	19.9	2	1
03/27/06	12:42 a	-15.4	-15.4	-15.4	---	---	17.4	E	0.29	20.9	-26.8	---	---	719.6	0.023	0.000	19.9	2	1
03/27/06	12:43 a	-15.4	-15.4	-15.4	---	---	21.7	ESE	0.36	25.2	-28.0	---	---	719.5	0.023	0.000	19.9	2	1
03/27/06	12:44 a	-15.4	-15.4	-15.4	---	---	20.9	ESE	0.35	23.5	-27.7	---	---	719.5	0.023	0.000	19.9	2	1
03/27/06	12:45 a	-15.4	-15.4	-15.4	---	---	19.1	ESE	0.32	20.9	-27.3	---	---	719.6	0.023	0.000	19.9	2	1
03/27/06	12:46 a	-15.4	-15.4	-15.4	---	---	18.3	E	0.30	20.9	-27.1	---	---	719.6	0.023	0.000	19.9	2	1
03/27/06	12:47 a	-15.4	-15.4	-15.4	---	---	17.4	E	0.29	22.6	-26.8	---	---	719.5	0.023	0.000	19.9	2	1
03/27/06	12:48 a	-15.4	-15.4	-15.4	---	---	18.3	E	0.30	23.5	-27.1	---	---	719.6	0.023	0.000	19.9	2	1
03/27/06	12:49 a	-15.4	-15.4	-15.4	---	---	17.4	E	0.29	20.0	-26.8	---	---	719.6	0.023	0.000	19.9	2	1
03/27/06	12:50 a	-15.4	-15.4	-15.4	---	---	18.3	E	0.30	22.6	-27.1	---	---	719.5	0.023	0.000	19.9	2	1
03/27/06	12:51 a	-15.4	-15.4	-15.4	---	---	18.3	E	0.30	24.3	-27.1	---	---	719.5	0.023	0.000	19.9	2	1
03/27/06	12:52 a	-15.4	-15.4	-15.4	---	---	17.4	E	0.29	20.0	-26.8	---	---	719.5	0.023	0.000	19.9	2	1
03/27/06	12:53 a	-15.4	-15.4	-15.4	---	---	15.7	E	0.26	20.0	-26.3	---	---	719.4	0.023	0.000	19.9	2	1
03/27/06	12:54 a	-15.4	-15.4	-15.4	---	---	18.3	E	0.30	20.9	-27.1	---	---	719.5	0.023	0.000	19.9	2	1
03/27/06	12:55 a	-15.4	-15.3	-15.4	---	---	15.7	E	0.26	19.1	-26.3	---	---	719.5	0.023	0.000	19.9	2	1
03/27/06	12:56 a	-15.4	-15.4	-15.4	---	---	18.3	E	0.30	20.9	-27.1	---	---	719.5	0.023	0.000	19.9	2	1
03/27/06	12:57 a	-15.4	-15.4	-15.4	---	---	19.1	ESE	0.32	22.6	-27.3	---	---	719.5	0.023	0.000	19.9	2	1
03/27/06	12:58 a	-15.4	-15.4	-15.4	---	---	19.1	E	0.32	22.6	-27.3	---	---	719.3	0.023	0.000	19.9	2	1
03/27/06	12:59 a	-15.4	-15.3	-15.4	---	---	21.7	ESE	0.36	24.3	-27.9	---	---	719.4	0.023	0.000	19.9	2	1
03/27/06	1:00 a	-15.3	-15.3	-15.3	---	---	20.9	ESE	0.35	28.7	-27.6	---	---	719.3	0.023	0.000	19.9	2	1
03/27/06	1:01 a	-15.3	-15.3	-15.4	---	---	20.0	E	0.33	23.5	-27.4	---	---	719.3	0.023	0.000	19.9	2	1
03/27/06	1:02 a	-15.3	-15.3	-15.3	---	---	22.6	ESE	0.38	28.7	-28.1	---	---	719.1	0.023	0.000	19.9	2	1
03/27/06	1:03 a	-15.3	-15.3	-15.3	---	---	27.8	SE	0.46	30.4	-29.1	---	---	719.3	0.023	0.000	19.9	2	1
03/27/06	1:04 a	-15.3	-15.3	-15.3	---	---	21.7	ESE	0.36	27.0	-27.8	---	---	719.3	0.023	0.000	19.9	2	1
03/27/06	1:05 a	-15.3	-15.3	-15.3	---	---	24.3	SE	0.41	26.1	-28.4	---	---	719.3	0.023	0.000	19.9	2	1
03/27/06	1:06 a	-15.3	-15.3	-15.3	---	---	25.2	SE	0.42	29.6	-28.6	---	---	719.3	0.023	0.000	19.9	2	1
03/27/06	1:07 a	-15.3	-15.3	-15.3	---	---	22.6	ESE	0.38	26.1	-28.1	---	---	719.2	0.023	0.000	19.9	2	1
03/27/06	1:08 a	-15.3	-15.3	-15.3	---	---	22.6	SE	0.38	26.1	-28.1	---	---	719.4	0.023	0.000	19.9	2	1
03/27/06	1:09 a	-15.3	-15.3	-15.3	---	---	23.5	SE	0.39	25.2	-28.2	---	---	719.3	0.023	0.000	19.9	2	1
03/27/06	1:10 a	-15.3	-15.3	-15.3	---	---	24.3	ESE	0.41	27.0	-28.4	---	---	719.2	0.023	0.000	19.9	2	1
03/27/06	1:11 a	-15.3	-15.3	-15.3	---	---	25.2	SE	0.42	28.7	-28.6	---	---	719.2	0.023	0.000	19.9	2	1
03/27/06	1:12 a	-15.3	-15.3	-15.3	---	---	26.1	ESE	0.43	27.0	-28.7	---	---	719.2	0.023	0.000	20.0	2	1
03/27/06	1:13 a	-15.3	-15.3	-15.3	---	---	26.1	ESE	0.43	30.4	-28.7	---	---	719.2	0.023	0.000	20.0	2	1
03/27/06	1:14 a	-15.3	-15.3	-15.3	---	---	21.7	SE	0.36	25.2	-27.8	---	---	719.2	0.023	0.000	20.0	2	1
03/27/06	1:15 a	-15.3	-15.3	-15.3	---	---	25.2	ESE	0.42	27.0	-28.5	---	---	719.3	0.023	0.000	20.0	2	1
03/27/06	1:16 a	-15.2	-15.2	-15.3	---	---	26.1	ESE	0.43	29.6	-28.6	---	---	719.1	0.023	0.000	20.0	2	1
03/27/06	1:17 a	-15.2	-15.2	-15.2	---	---	25.2	ESE	0.42	28.7	-28.4	---	---	719.2	0.023	0.000	19.9	2	1
03/27/06	1:18 a	-15.2	-15.2	-15.2	---	---	25.2	ESE	0.42	28.7	-28.4	---	---	719.3	0.023	0.000	19.9	2	1
03/27/06	1:19 a	-15.2	-15.2	-15.3	---	---	25.2	ESE	0.42	27.8	-28.4	---	---	719.3	0.023	0.000	19.9	2	1
03/27/06	1:20 a	-15.2	-15.2	-15.2	---	---	22.6	ESE	0.38	24.3	-27.9	---	---	719.3	0.023	0.000	19.9	2	1
03/27/06	1:21 a	-15.2	-15.2	-15.2	---	---	21.7	ESE	0.36	25.2	-27.7	---	---	719.3	0.023	0.000	19.9	2	1
03/27/06	1:22 a	-15.2	-15.2	-15.2	---	---	23.5	ESE	0.39	24.3	-28.1	---	---	719.4	0.023	0.000	19.9	2	1
03/27/06	1:23 a	-15.2	-15.2	-15.2	---	---	24.3	ESE	0.41	27.8	-28.3	---	---	719.3	0.023	0.000	19.9	2	1
03/27/06	1:24 a	-15.2	-15.2	-15.2	---	---	24.3	ESE	0.41	28.7	-28.2	---	---	719.3	0.023	0.000	19.9	2	1
03/27/06	1:25 a	-15.2	-15.2	-15.2	---	---	23.5	ESE	0.39	27.0	-28.1	---	---	719.3	0.023	0.000	19.9	2	1
03/27/06	1:26 a	-15.2	-15.2	-15.2	---	---	22.6	ESE	0.38	26.1	-27.8	---	---	719.5	0.023	0.000	19.9	2	1
03/27/06	1:27 a	-15.2	-15.2	-15.2	---	---	25.2	ESE	0.42	27.8	-28.4	---	---	719.3	0.023	0.000	19.9	2	1
03/27/06	1:28 a	-15.2	-15.2	-15.2	---	---	25.2	ESE	0.42	29.6	-28.4	---	---	719.3	0.023	0.000	19.9	2	1
03/27/06	1:29 a	-15.2	-15.2	-15.2	---	---	24.3	SE	0.41	27.0	-28.2	---	---	719.2	0.023	0.000	19.9	2	1
03/27/06	1:30 a	-15.2	-15.2	-15.2	---	---	25.2	ESE	0.42	27.8	-28.4	---	---	719.2	0.023	0.000	19.9	2	1
03/27/06	1:31 a	-15.2	-15.2	-15.2	---	---	27.8	SE	0.46	33.0	-28.9	---	---	719.1	0.023	0.000	19.9	2	1
03/27/06	1:32 a	-15.2	-15.2	-15.2	---	---	28.7	SE	0.48	31.3	-29.1	---	---	719.0	0.023	0.000	19.9	2	1
03/27/06	1:33 a	-15.2	-15.2	-15.2	---	---	28.7	SE	0.48	32.2	-29.1	---	---	719.2	0.023	0.000	19.9	2	1
03/27/06	1:34 a	-15.2	-15.1	-15.2	---	---	28.7	SE	0.48	29.6	-29.1	---	---	719.1	0.023	0.000	19.9	2	1
03/27/06	1:35 a	-15.2	-15.1	-15.2	---	---	28.7	SE	0.48	30.4	-29.1	---	---	719.1	0.023	0.000	19.9	2	1
03/27/06	1:36 a	-15.2	-15.1	-15.2	---	---	26.1	SE	0.43	28.7	-28.6	---	---	719.2	0.023	0.000	19.8	2	1
03/27/06	1:37 a	-15.1	-15.1	-15.1	---	---	28.7	SE	0.48	30.4	-28.9	---	---	719.1	0.023	0.000	19.9	2	1
03/27/06	1:38 a	-15.1	-15.1	-15.1	---	---	27.0	SE	0.45	27.8	-28.7	---	---	719.1	0.023	0.000	19.9	2	1
03/27/06	1:39 a	-15.1	-15.1	-15.1	---	---	27.8	SE	0.46	29.6	-28.8	---	---	719.2	0.023	0.000	19.9	2	1
03/27/06	1:40 a	-15.1	-15.1	-15.1	---	---	26.1	SE	0.43	32.2	-28.4	---	---	719.3	0.023	0.000	19.8	2	1
03/27/06	1:41 a	-15.1	-15.1	-15.1	---	---	29.6	SSE	0.49	34.8	-29.1	---	---	719.2	0.023	0.000	19.8	2	1
03/27/06	1:42 a	-15.1	-15.1	-15.1	---	---	31.3	SSE	0.52	37.4	-29.4	---	---	719.2	0.023	0.000	19.8	2	1
03/27/06	1:43 a	-15.1	-15.1	-15.1	---	---	30.4	SSE	0.51	35.7	-29.3	---	---	719.3	0.023	0.000	19.8	2	1
03/27/06	1:44 a	-15.1	-15.1	-15.1	---	---	30.4	SSE	0.51	35.7	-29.2	---	---	719.3	0.023	0.000	19.8	2	1
03/27/06	1:45 a	-15.1	-15.1	-15.1	---	---	30.4	SSE	0.51	36.5	-29.2	---	---	719.3	0.023	0.000	19.8	2	1
03/27/06	1:46 a	-15.1	-15.1	-15.1	---	---	32.2	SSE	0.54	34.8	-29.5	---	---	719.3	0.023	0.000	19.8	2	1
03/27/06	1:47 a	-15.1	-15.1	-15.1	---	---	30.4	SSE	0.51	33.0	-29.2	---	---	719.3	0.023	0.000	19.8	2	1
03/27/06	1:48 a	-15.1	-15.0	-15.1	---	---	28.7	SSE	0.48	30.4	-28.9	---	---	719.3	0.023	0.000	19.8	2	1
03/27/06	1:49 a	-15.0	-15.0	-15.1	---	---	29.6	SSE	0.49	35.7	-28.9	---	---	719.3	0.023	0.000	19.8	2	1
03/27/06	1:50 a	-15.0	-15.0	-15.0	---	---	33.9	SSE	0.57	37.4	-29.7	---	---	719.3	0.023	0.000	19.8	2	1
03/27/06	1:51 a	-15.0	-15.0	-15.0	---	---	32.2	SSE	0.54	35.7	-29.4	---	---	719.4	0.023	0.000	19.9	2	1
03/27/06	1:52 a	-15.0	-15.0	-15.0	---	---	32.2	SSE	0.54	36.5	-29.4	---	---	719.3	0.023	0.000	19.9	2	1
03/27/06	1:53 a	-14.9	-14.9	-15.0	---	---	30.4	SSE	0.51	33.0	-29.1	---	---	719.3	0.023	0.000	19.9	2	1
03/27/06	1:54 a	-14.9	-14.9	-14.9	---	---	31.3	SSE	0.52	38.3	-29.2	---	---	719.4	0.023	0.000	19.9	2	1
03/27/06	1:55 a	-14.9	-14.9	-14.9	---	---	35.7	SSE	0.59	42.6	-29.8	---	---	719.2	0.023	0.000	19.9	2	1
03/27/06	1:56 a	-14.9	-14.9	-14.9	---	---	30.4	SSE	0.51	34.8	-28.9	---	---	719.4	0.023	0.000	19.9	2	1
03/27/06	1:57 a	-14.9	-14.9	-14.9	---	---	30.4	SSE	0.51	37.4	-28.9	---	---	719.4	0.023	0.000	19.9	2	1
03/27/06	1:58 a	-14.9	-14.8	-14.9	---	---	33.9	SSE	0.57	37.4	-29.6	---	---	719.4	0.023	0.000	19.9	2	1
03/27/06	1:59 a	-14.8	-14.8	-14.8	---	---	33.9	SSE	0.57	38.3	-29.4	---	---	719.4	0.023	0.000	19.9	2	1
03/27/06	2:00 a	-14.8	-14.8	-14.8	---	---	34.8	SSE	0.58	39.1	-29.6	---	---	719.3	0.023	0.000	19.9	2	1
03/27/06	2:01 a	-14.8	-14.8	-14.8	---	---	33.0	SSE	0.55	38.3	-29.3	---	---	719.5	0.023	0.000	19.9	2	1
03/27/06	2:02 a	-14.8	-14.8	-14.8	---	---	33.0	SSE	0.55	37.4	-29.3	---	---	719.5	0.023	0.000	19.9	2	1
03/27/06	2:03 a	-14.8	-14.8	-14.8	---	---	31.3	S	0.52	44.3	-28.9	---	---	719.6	0.023	0.000	19.9	2	1
03/27/06	2:04 a	-14.8	-14.7	-14.8	---	---	31.3	S	0.52	36.5	-28.9	---	---	719.7	0.023	0.000	19.9	2	1
03/27/06	2:05 a	-14.7	-14.7	-14.8	---	---	33.9	S	0.57	45.2	-29.3	---	---	719.7	0.023	0.000	19.9	2	1
03/27/06	2:06 a	-14.7	-14.7	-14.7	---	---	33.0	S	0.55	37.4	-29.1	---	---	719.7	0.023	0.000	19.9	2	1
03/27/06	2:07 a	-14.7	-14.7	-14.7	---	---	33.0	S	0.55	39.1	-29.1	---	---	719.6	0.023	0.000	19.9	2	1
03/27/06	2:08 a	-14.7	-14.7	-14.7	---	---	29.6	S	0.49	34.8	-28.5	---	---	719.6	0.023	0.000	19.9	2	1
03/27/06	2:09 a	-14.7	-14.7	-14.7	---	---	33.0	S	0.55	37.4	-29.1	---	---	719.6	0.023	0.000	19.9	2	1
03/27/06	2:10 a	-14.7	-14.7	-14.7	---	---	35.7	S	0.59	40.9	-29.5	---	---	719.5	0.023	0.000	19.9	2	1
03/27/06	2:11 a	-14.7	-14.7	-14.7	---	---	32.2	S	0.54	38.3	-28.9	---	---	719.6	0.023	0.000	19.9	2	1
03/27/06	2:12 a	-14.7	-14.6	-14.7	---	---	34.8	S	0.58	37.4	-29.4	---	---	719.5	0.023	0.000	19.9	2	1
03/27/06	2:13 a	-14.7	-14.7	-14.7	---	---	35.7	S	0.59	40.0	-29.5	---	---	719.5	0.023	0.000	19.9	2	1
03/27/06	2:14 a	-14.6	-14.6	-14.7	---	---	36.5	S	0.61	46.1	-29.6	---	---	719.5	0.023	0.000	19.9	2	1
03/27/06	2:15 a	-14.6	-14.6	-14.7	---	---	34.8	S	0.58	39.1	-29.3	---	---	719.4	0.023	0.000	19.9	2	1
03/27/06	2:16 a	-14.6	-14.6	-14.6	---	---	36.5	S	0.61	40.0	-29.6	---	---	719.5	0.023	0.000	19.9	2	1
03/27/06	2:17 a	-14.6	-14.6	-14.7	---	---	35.7	S	0.59	39.1	-29.4	---	---	719.6	0.023	0.000	19.9	2	1
03/27/06	2:18 a	-14.7	-14.6	-14.7	---	---	32.2	SSE	0.54	36.5	-28.9	---	---	719.5	0.023	0.000	19.9	2	1
03/27/06	2:19 a	-14.7	-14.7	-14.7	---	---	34.8	S	0.58	38.3	-29.4	---	---	719.5	0.023	0.000	19.9	2	1
03/27/06	2:20 a	-14.7	-14.7	-14.7	---	---	32.2	S	0.54	37.4	-28.9	---	---	719.6	0.023	0.000	19.9	2	1
03/27/06	2:21 a	-14.7	-14.7	-14.7	---	---	29.6	S	0.49	33.0	-28.5	---	---	719.7	0.023	0.000	19.9	2	1
03/27/06	2:22 a	-14.7	-14.7	-14.7	---	---	31.3	S	0.52	36.5	-28.8	---	---	719.8	0.023	0.000	19.9	2	1
03/27/06	2:23 a	-14.7	-14.7	-14.7	---	---	27.8	S	0.46	33.0	-28.2	---	---	719.8	0.023	0.000	19.9	2	1
03/27/06	2:24 a	-14.7	-14.7	-14.7	---	---	27.8	S	0.46	38.3	-28.3	---	---	719.8	0.023	0.000	19.9	2	1
03/27/06	2:25 a	-14.7	-14.7	-14.7	---	---	32.2	S	0.54	40.0	-28.9	---	---	719.7	0.023	0.000	19.9	2	1
03/27/06	2:26 a	-14.7	-14.7	-14.7	---	---	30.4	S	0.51	35.7	-28.7	---	---	720.0	0.023	0.000	19.9	2	1
03/27/06	2:27 a	-14.7	-14.7	-14.7	---	---	29.6	S	0.49	34.8	-28.5	---	---	719.8	0.023	0.000	19.9	2	1
03/27/06	2:28 a	-14.7	-14.7	-14.7	---	---	31.3	S	0.52	37.4	-28.9	---	---	719.9	0.023	0.000	19.9	2	1
03/27/06	2:29 a	-14.7	-14.7	-14.7	---	---	27.0	S	0.45	29.6	-28.1	---	---	720.1	0.023	0.000	19.9	2	1
03/27/06	2:30 a	-14.7	-14.7	-14.7	---	---	27.8	S	0.46	33.0	-28.3	---	---	719.9	0.023	0.000	19.9	2	1
03/27/06	2:31 a	-14.7	-14.7	-14.7	---	---	24.3	S	0.41	27.8	-27.6	---	---	720.0	0.023	0.000	19.9	2	1
03/27/06	2:32 a	-14.7	-14.7	-14.7	---	---	26.1	S	0.43	32.2	-27.9	---	---	719.9	0.023	0.000	19.9	2	1
03/27/06	2:33 a	-14.7	-14.7	-14.7	---	---	24.3	S	0.41	27.8	-27.6	---	---	720.1	0.023	0.000	19.9	2	1
03/27/06	2:34 a	-14.7	-14.7	-14.7	---	---	22.6	S	0.38	27.8	-27.2	---	---	720.1	0.023	0.000	19.9	2	1
03/27/06	2:35 a	-14.7	-14.7	-14.7	---	---	26.1	S	0.43	28.7	-27.9	---	---	720.1	0.023	0.000	19.9	2	1
03/27/06	2:36 a	-14.7	-14.7	-14.7	---	---	26.1	S	0.43	31.3	-27.9	---	---	720.1	0.023	0.000	19.9	2	1
03/27/06	2:37 a	-14.7	-14.7	-14.7	---	---	23.5	S	0.39	26.1	-27.4	---	---	720.0	0.023	0.000	19.9	2	1
03/27/06	2:38 a	-14.7	-14.7	-14.8	---	---	22.6	S	0.38	26.1	-27.2	---	---	720.1	0.023	0.000	19.9	2	1
03/27/06	2:39 a	-14.7	-14.7	-14.8	---	---	23.5	S	0.39	26.1	-27.4	---	---	720.1	0.023	0.000	19.9	2	1
03/27/06	2:40 a	-14.7	-14.7	-14.7	---	---	20.9	S	0.35	23.5	-26.8	---	---	720.1	0.023	0.000	19.9	2	1
03/27/06	2:41 a	-14.7	-14.7	-14.8	---	---	20.9	S	0.35	23.5	-26.8	---	---	720.0	0.023	0.000	19.9	2	1
03/27/06	2:42 a	-14.7	-14.7	-14.7	---	---	20.0	S	0.33	22.6	-26.6	---	---	720.1	0.023	0.000	19.9	2	1
03/27/06	2:43 a	-14.7	-14.7	-14.7	---	---	22.6	S	0.38	26.1	-27.2	---	---	720.0	0.023	0.000	20.0	2	1
03/27/06	2:44 a	-14.7	-14.7	-14.7	---	---	19.1	S	0.32	21.7	-26.4	---	---	720.1	0.023	0.000	20.0	2	1
03/27/06	2:45 a	-14.7	-14.7	-14.7	---	---	19.1	SSE	0.32	22.6	-26.4	---	---	720.1	0.023	0.000	20.0	2	1
03/27/06	2:46 a	-14.7	-14.7	-14.7	---	---	23.5	S	0.39	26.1	-27.4	---	---	720.0	0.023	0.000	20.0	2	1
03/27/06	2:47 a	-14.7	-14.7	-14.7	---	---	20.0	SSE	0.33	21.7	-26.6	---	---	720.0	0.023	0.000	20.0	2	1
03/27/06	2:48 a	-14.7	-14.7	-14.8	---	---	20.0	SSE	0.33	22.6	-26.6	---	---	720.0	0.023	0.000	20.0	2	1
03/27/06	2:49 a	-14.7	-14.7	-14.8	---	---	20.9	SSE	0.35	23.5	-26.8	---	---	720.0	0.023	0.000	20.0	2	1
03/27/06	2:50 a	-14.7	-14.7	-14.8	---	---	18.3	SSE	0.30	20.9	-26.2	---	---	720.1	0.023	0.000	20.0	2	1
03/27/06	2:51 a	-14.7	-14.7	-14.7	---	---	20.0	SSE	0.33	21.7	-26.6	---	---	720.1	0.023	0.000	20.0	2	1
03/27/06	2:52 a	-14.7	-14.7	-14.8	---	---	20.9	SSE	0.35	27.0	-26.8	---	---	720.0	0.023	0.000	20.0	2	1
03/27/06	2:53 a	-14.8	-14.7	-14.8	---	---	23.5	SSE	0.39	27.8	-27.5	---	---	720.0	0.023	0.000	20.0	2	1
03/27/06	2:54 a	-14.7	-14.7	-14.7	---	---	24.3	SSE	0.41	28.7	-27.6	---	---	719.9	0.023	0.000	20.0	2	1
03/27/06	2:55 a	-14.8	-14.7	-14.8	---	---	22.6	SSE	0.38	27.0	-27.3	---	---	720.0	0.023	0.000	20.0	2	1
03/27/06	2:56 a	-14.8	-14.7	-14.8	---	---	20.0	SSE	0.33	23.5	-26.7	---	---	720.0	0.023	0.000	20.0	2	1
03/27/06	2:57 a	-14.8	-14.8	-14.8	---	---	24.3	SSE	0.41	28.7	-27.7	---	---	719.8	0.023	0.000	20.0	2	1
03/27/06	2:58 a	-14.8	-14.8	-14.8	---	---	25.2	SSE	0.42	27.8	-27.8	---	---	720.0	0.023	0.000	20.0	2	1
03/27/06	2:59 a	-14.8	-14.8	-14.8	---	---	24.3	SSE	0.41	27.0	-27.7	---	---	719.7	0.023	0.000	20.0	2	1
03/27/06	3:00 a	-14.8	-14.8	-14.8	---	---	26.1	SSE	0.43	27.8	-28.0	---	---	719.6	0.023	0.000	20.0	2	1
03/27/06	3:01 a	-14.8	-14.8	-14.8	---	---	27.0	SE	0.45	29.6	-28.2	---	---	719.7	0.023	0.000	20.0	2	1
03/27/06	3:02 a	-14.8	-14.8	-14.8	---	---	25.2	SE	0.42	27.0	-27.8	---	---	719.7	0.023	0.000	20.0	2	1
03/27/06	3:03 a	-14.8	-14.8	-14.8	---	---	27.0	SE	0.45	29.6	-28.3	---	---	719.6	0.023	0.000	20.0	2	1
03/27/06	3:04 a	-14.8	-14.8	-14.8	---	---	25.2	SE	0.42	27.0	-27.9	---	---	719.7	0.023	0.000	20.0	2	1
03/27/06	3:05 a	-14.8	-14.8	-14.8	---	---	25.2	SE	0.42	27.8	-27.9	---	---	719.7	0.023	0.000	19.9	2	1
03/27/06	3:06 a	-14.8	-14.8	-14.8	---	---	27.8	SE	0.46	31.3	-28.4	---	---	719.5	0.023	0.000	19.9	2	1
03/27/06	3:07 a	-14.8	-14.8	-14.8	---	---	25.2	SE	0.42	28.7	-27.9	---	---	719.5	0.023	0.000	19.9	2	1
03/27/06	3:08 a	-14.8	-14.8	-14.8	---	---	26.1	SE	0.43	28.7	-28.1	---	---	719.5	0.023	0.000	19.9	2	1
03/27/06	3:09 a	-14.8	-14.8	-14.8	---	---	27.0	SE	0.45	27.8	-28.3	---	---	719.5	0.023	0.000	19.9	2	1
03/27/06	3:10 a	-14.9	-14.9	-14.9	---	---	27.0	SE	0.45	28.7	-28.3	---	---	719.4	0.023	0.000	19.9	2	1
03/27/06	3:11 a	-14.9	-14.9	-14.9	---	---	26.1	SE	0.43	28.7	-28.2	---	---	719.5	0.023	0.000	19.9	2	1
03/27/06	3:12 a	-14.9	-14.9	-14.9	---	---	27.8	SE	0.46	30.4	-28.5	---	---	719.5	0.023	0.000	19.9	2	1
03/27/06	3:13 a	-14.9	-14.9	-14.9	---	---	28.7	SE	0.48	30.4	-28.7	---	---	719.4	0.023	0.000	19.9	2	1
03/27/06	3:14 a	-14.9	-14.9	-14.9	---	---	28.7	SE	0.48	31.3	-28.7	---	---	719.4	0.023	0.000	19.9	2	1
03/27/06	3:15 a	-14.9	-14.9	-14.9	---	---	28.7	SE	0.48	32.2	-28.7	---	---	719.4	0.023	0.000	19.9	2	1
03/27/06	3:16 a	-14.9	-14.9	-14.9	---	---	29.6	SE	0.49	33.9	-28.9	---	---	719.3	0.023	0.000	19.9	2	1
03/27/06	3:17 a	-14.9	-14.9	-14.9	---	---	30.4	SE	0.51	32.2	-29.1	---	---	719.3	0.023	0.000	19.9	2	1
03/27/06	3:18 a	-14.9	-14.9	-14.9	---	---	30.4	SE	0.51	33.9	-29.1	---	---	719.2	0.023	0.000	19.9	2	1
03/27/06	3:19 a	-14.9	-14.9	-15.0	---	---	31.3	SE	0.52	33.9	-29.2	---	---	719.3	0.023	0.000	19.9	2	1
03/27/06	3:20 a	-14.9	-14.9	-15.0	---	---	31.3	SE	0.52	34.8	-29.2	---	---	719.2	0.023	0.000	19.9	2	1
03/27/06	3:21 a	-15.0	-15.0	-15.0	---	---	32.2	SE	0.54	35.7	-29.4	---	---	719.1	0.023	0.000	19.9	2	1
03/27/06	3:22 a	-15.0	-15.0	-15.0	---	---	32.2	SE	0.54	34.8	-29.4	---	---	719.3	0.023	0.000	19.9	2	1
03/27/06	3:23 a	-15.0	-15.0	-15.0	---	---	31.3	SE	0.52	33.9	-29.3	---	---	719.2	0.023	0.000	19.9	2	1
03/27/06	3:24 a	-15.0	-15.0	-15.1	---	---	30.4	SE	0.51	33.9	-29.1	---	---	719.3	0.023	0.000	19.9	2	1
03/27/06	3:25 a	-15.1	-15.0	-15.1	---	---	31.3	SE	0.52	35.7	-29.3	---	---	719.4	0.023	0.000	19.9	2	1
03/27/06	3:26 a	-15.1	-15.1	-15.1	---	---	27.8	SE	0.46	30.4	-28.7	---	---	719.4	0.023	0.000	19.9	2	1
03/27/06	3:27 a	-15.1	-15.1	-15.1	---	---	30.4	SE	0.51	31.3	-29.2	---	---	719.4	0.023	0.000	19.9	2	1
03/27/06	3:28 a	-15.1	-15.1	-15.1	---	---	31.3	SE	0.52	34.8	-29.3	---	---	719.4	0.023	0.000	19.9	2	1
03/27/06	3:29 a	-15.1	-15.1	-15.1	---	---	28.7	SE	0.48	32.2	-28.9	---	---	719.4	0.023	0.000	19.9	2	1
03/27/06	3:30 a	-15.1	-15.1	-15.1	---	---	28.7	SE	0.48	32.2	-28.9	---	---	719.5	0.023	0.000	19.9	2	1
03/27/06	3:31 a	-15.1	-15.1	-15.1	---	---	28.7	SE	0.48	31.3	-28.9	---	---	719.4	0.023	0.000	19.9	2	1
03/27/06	3:32 a	-15.1	-15.1	-15.2	---	---	29.6	SE	0.49	33.0	-29.1	---	---	719.4	0.023	0.000	19.9	2	1
03/27/06	3:33 a	-15.2	-15.2	-15.2	---	---	30.4	SE	0.51	33.9	-29.3	---	---	719.5	0.023	0.000	19.9	2	1
03/27/06	3:34 a	-15.2	-15.2	-15.2	---	---	31.3	SE	0.52	37.4	-29.5	---	---	719.2	0.023	0.000	19.9	2	1
03/27/06	3:35 a	-15.2	-15.2	-15.2	---	---	32.2	ESE	0.54	36.5	-29.7	---	---	719.3	0.023	0.000	19.9	2	1
03/27/06	3:36 a	-15.2	-15.2	-15.2	---	---	31.3	SE	0.52	34.8	-29.6	---	---	719.3	0.023	0.000	19.9	2	1
03/27/06	3:37 a	-15.2	-15.2	-15.2	---	---	31.3	ESE	0.52	35.7	-29.6	---	---	719.4	0.023	0.000	19.9	2	1
03/27/06	3:38 a	-15.2	-15.2	-15.3	---	---	31.3	SE	0.52	34.8	-29.6	---	---	719.2	0.023	0.000	19.9	2	1
03/27/06	3:39 a	-15.3	-15.3	-15.3	---	---	32.2	ESE	0.54	36.5	-29.8	---	---	719.3	0.023	0.000	19.9	2	1
03/27/06	3:40 a	-15.3	-15.3	-15.3	---	---	32.2	ESE	0.54	34.8	-29.8	---	---	719.4	0.023	0.000	19.9	2	1
03/27/06	3:41 a	-15.3	-15.3	-15.3	---	---	30.4	SE	0.51	36.5	-29.5	---	---	719.3	0.023	0.000	19.9	2	1
03/27/06	3:42 a	-15.3	-15.3	-15.3	---	---	32.2	ESE	0.54	37.4	-29.8	---	---	719.1	0.023	0.000	19.9	2	1
03/27/06	3:43 a	-15.3	-15.3	-15.3	---	---	31.3	SE	0.52	35.7	-29.7	---	---	719.3	0.023	0.000	19.8	2	1
03/27/06	3:44 a	-15.3	-15.3	-15.3	---	---	27.0	ESE	0.45	30.4	-28.9	---	---	719.4	0.023	0.000	19.8	2	1
03/27/06	3:45 a	-15.3	-15.3	-15.3	---	---	29.6	ESE	0.49	34.8	-29.4	---	---	719.5	0.023	0.000	19.8	2	1
03/27/06	3:46 a	-15.3	-15.3	-15.4	---	---	30.4	ESE	0.51	35.7	-29.6	---	---	719.4	0.023	0.000	19.8	2	1
03/27/06	3:47 a	-15.4	-15.4	-15.4	---	---	27.8	ESE	0.46	31.3	-29.2	---	---	719.5	0.023	0.000	19.8	2	1
03/27/06	3:48 a	-15.4	-15.4	-15.4	---	---	28.7	ESE	0.48	30.4	-29.3	---	---	719.3	0.023	0.000	19.8	2	1
03/27/06	3:49 a	-15.4	-15.4	-15.4	---	---	29.6	ESE	0.49	31.3	-29.5	---	---	719.3	0.023	0.000	19.8	2	1
03/27/06	3:50 a	-15.4	-15.4	-15.4	---	---	28.7	ESE	0.48	31.3	-29.4	---	---	719.3	0.023	0.000	19.8	2	1
03/27/06	3:51 a	-15.4	-15.4	-15.4	---	---	29.6	ESE	0.49	32.2	-29.6	---	---	719.4	0.023	0.000	19.8	2	1
03/27/06	3:52 a	-15.4	-15.4	-15.5	---	---	28.7	ESE	0.48	33.0	-29.4	---	---	719.3	0.023	0.000	19.8	2	1
03/27/06	3:53 a	-15.4	-15.4	-15.5	---	---	28.7	ESE	0.48	33.9	-29.4	---	---	719.4	0.023	0.000	19.8	2	1
03/27/06	3:54 a	-15.5	-15.5	-15.5	---	---	29.6	ESE	0.49	33.0	-29.7	---	---	719.4	0.023	0.000	19.8	2	1
03/27/06	3:55 a	-15.5	-15.5	-15.6	---	---	29.6	ESE	0.49	35.7	-29.7	---	---	719.3	0.023	0.000	19.8	2	1
03/27/06	3:56 a	-15.6	-15.5	-15.6	---	---	30.4	ESE	0.51	32.2	-29.9	---	---	719.4	0.024	0.000	19.8	2	1
03/27/06	3:57 a	-15.6	-15.5	-15.6	---	---	30.4	ESE	0.51	33.9	-29.9	---	---	719.4	0.024	0.000	19.8	2	1
03/27/06	3:58 a	-15.6	-15.6	-15.6	---	---	30.4	ESE	0.51	33.0	-29.9	---	---	719.4	0.024	0.000	19.7	2	1
03/27/06	3:59 a	-15.6	-15.6	-15.6	---	---	30.4	ESE	0.51	33.0	-29.9	---	---	719.4	0.024	0.000	19.7	2	1
03/27/06	4:00 a	-15.6	-15.6	-15.6	---	---	29.6	ESE	0.49	33.0	-29.8	---	---	719.4	0.024	0.000	19.7	2	1
03/27/06	4:01 a	-15.6	-15.6	-15.7	---	---	29.6	ESE	0.49	32.2	-29.8	---	---	719.3	0.024	0.000	19.7	2	1
03/27/06	4:02 a	-15.7	-15.7	-15.7	---	---	29.6	ESE	0.49	32.2	-29.9	---	---	719.4	0.024	0.000	19.7	2	1
03/27/06	4:03 a	-15.7	-15.7	-15.7	---	---	29.6	ESE	0.49	31.3	-29.9	---	---	719.4	0.024	0.000	19.7	2	1
03/27/06	4:04 a	-15.7	-15.7	-15.7	---	---	29.6	E	0.49	33.0	-29.9	---	---	719.5	0.024	0.000	19.7	2	1
03/27/06	4:05 a	-15.7	-15.7	-15.7	---	---	27.8	E	0.46	31.3	-29.6	---	---	719.6	0.024	0.000	19.7	2	1
03/27/06	4:06 a	-15.7	-15.7	-15.7	---	---	27.8	E	0.46	30.4	-29.7	---	---	719.6	0.024	0.000	19.7	2	1
03/27/06	4:07 a	-15.7	-15.7	-15.8	---	---	26.1	E	0.43	29.6	-29.3	---	---	719.7	0.024	0.000	19.7	2	1
03/27/06	4:08 a	-15.8	-15.8	-15.8	---	---	26.1	E	0.43	28.7	-29.4	---	---	719.6	0.024	0.000	19.7	2	1
03/27/06	4:09 a	-15.8	-15.8	-15.8	---	---	27.0	E	0.45	29.6	-29.6	---	---	719.7	0.024	0.000	19.7	2	1
03/27/06	4:10 a	-15.8	-15.8	-15.8	---	---	25.2	E	0.42	29.6	-29.2	---	---	719.7	0.024	0.000	19.7	2	1
03/27/06	4:11 a	-15.8	-15.8	-15.8	---	---	25.2	E	0.42	29.6	-29.2	---	---	719.7	0.024	0.000	19.7	2	1
03/27/06	4:12 a	-15.8	-15.8	-15.8	---	---	23.5	E	0.39	28.7	-28.9	---	---	719.7	0.024	0.000	19.7	2	1
03/27/06	4:13 a	-15.8	-15.8	-15.8	---	---	22.6	E	0.38	27.0	-28.7	---	---	719.7	0.024	0.000	19.7	2	1
03/27/06	4:14 a	-15.9	-15.8	-15.9	---	---	22.6	ESE	0.38	27.0	-28.8	---	---	719.8	0.024	0.000	19.7	2	1
03/27/06	4:15 a	-15.9	-15.9	-15.9	---	---	22.6	E	0.38	26.1	-28.8	---	---	719.7	0.024	0.000	19.7	2	1
03/27/06	4:16 a	-15.9	-15.9	-15.9	---	---	20.9	E	0.35	24.3	-28.4	---	---	719.7	0.024	0.000	19.8	2	1
03/27/06	4:17 a	-15.9	-15.9	-15.9	---	---	20.9	E	0.35	25.2	-28.4	---	---	719.8	0.024	0.000	19.8	2	1
03/27/06	4:18 a	-15.9	-15.9	-15.9	---	---	20.9	E	0.35	25.2	-28.4	---	---	719.9	0.024	0.000	19.8	2	1
03/27/06	4:19 a	-15.9	-15.9	-15.9	---	---	21.7	E	0.36	23.5	-28.7	---	---	719.7	0.024	0.000	19.8	2	1
03/27/06	4:20 a	-16.0	-15.9	-16.0	---	---	21.7	E	0.36	24.3	-28.7	---	---	719.7	0.024	0.000	19.8	2	1
03/27/06	4:21 a	-16.0	-16.0	-16.0	---	---	20.9	E	0.35	24.3	-28.5	---	---	719.7	0.024	0.000	19.8	2	1
03/27/06	4:22 a	-16.0	-16.0	-16.0	---	---	20.9	E	0.35	23.5	-28.5	---	---	719.8	0.024	0.000	19.8	2	1
03/27/06	4:23 a	-16.1	-16.1	-16.1	---	---	20.9	E	0.35	23.5	-28.6	---	---	719.8	0.024	0.000	19.8	2	1
03/27/06	4:24 a	-16.1	-16.1	-16.1	---	---	20.9	E	0.35	24.3	-28.6	---	---	719.7	0.024	0.000	19.8	2	1
03/27/06	4:25 a	-16.1	-16.1	-16.1	---	---	22.6	E	0.38	25.2	-29.0	---	---	719.7	0.024	0.000	19.8	2	1
03/27/06	4:26 a	-16.1	-16.1	-16.1	---	---	20.9	E	0.35	26.1	-28.7	---	---	719.7	0.024	0.000	19.8	2	1
03/27/06	4:27 a	-16.1	-16.1	-16.1	---	---	21.7	E	0.36	25.2	-28.9	---	---	719.7	0.024	0.000	19.8	2	1
03/27/06	4:28 a	-16.1	-16.1	-16.2	---	---	22.6	E	0.38	26.1	-29.1	---	---	719.8	0.024	0.000	19.8	2	1
03/27/06	4:29 a	-16.2	-16.1	-16.2	---	---	20.9	E	0.35	22.6	-28.7	---	---	719.6	0.024	0.000	19.8	2	1
03/27/06	4:30 a	-16.2	-16.2	-16.2	---	---	21.7	E	0.36	24.3	-28.9	---	---	719.7	0.024	0.000	19.8	2	1
03/27/06	4:31 a	-16.2	-16.2	-16.2	---	---	19.1	E	0.32	23.5	-28.3	---	---	719.8	0.024	0.000	19.8	2	1
03/27/06	4:32 a	-16.2	-16.2	-16.2	---	---	19.1	E	0.32	24.3	-28.3	---	---	719.8	0.024	0.000	19.8	2	1
03/27/06	4:33 a	-16.2	-16.2	-16.2	---	---	20.9	E	0.35	23.5	-28.8	---	---	719.7	0.024	0.000	19.8	2	1
03/27/06	4:34 a	-16.2	-16.2	-16.2	---	---	21.7	E	0.36	25.2	-29.1	---	---	719.7	0.024	0.000	19.8	2	1
03/27/06	4:35 a	-16.3	-16.2	-16.3	---	---	20.0	E	0.33	23.5	-28.7	---	---	719.6	0.024	0.000	19.8	2	1
03/27/06	4:36 a	-16.3	-16.3	-16.3	---	---	21.7	E	0.36	25.2	-29.1	---	---	719.7	0.024	0.000	19.8	2	1
03/27/06	4:37 a	-16.3	-16.3	-16.3	---	---	21.7	E	0.36	26.1	-29.1	---	---	719.6	0.024	0.000	19.8	2	1
03/27/06	4:38 a	-16.3	-16.3	-16.3	---	---	24.3	E	0.41	27.8	-29.7	---	---	719.6	0.024	0.000	19.8	2	1
03/27/06	4:39 a	-16.3	-16.3	-16.3	---	---	25.2	E	0.42	28.7	-29.9	---	---	719.6	0.024	0.000	19.8	2	1
03/27/06	4:40 a	-16.3	-16.3	-16.3	---	---	23.5	E	0.39	27.0	-29.5	---	---	719.6	0.024	0.000	19.8	2	1
03/27/06	4:41 a	-16.3	-16.3	-16.3	---	---	23.5	ESE	0.39	26.1	-29.5	---	---	719.6	0.024	0.000	19.8	2	1
03/27/06	4:42 a	-16.3	-16.3	-16.3	---	---	23.5	E	0.39	28.7	-29.6	---	---	719.5	0.024	0.000	19.8	2	1
03/27/06	4:43 a	-16.3	-16.3	-16.3	---	---	22.6	ESE	0.38	27.8	-29.4	---	---	719.6	0.024	0.000	19.8	2	1
03/27/06	4:44 a	-16.3	-16.3	-16.3	---	---	23.5	E	0.39	27.8	-29.6	---	---	719.5	0.024	0.000	19.8	2	1
03/27/06	4:45 a	-16.3	-16.3	-16.3	---	---	24.3	E	0.41	27.0	-29.8	---	---	719.5	0.024	0.000	19.8	2	1
03/27/06	4:46 a	-16.3	-16.3	-16.3	---	---	24.3	E	0.41	28.7	-29.8	---	---	719.6	0.024	0.000	19.8	2	1
03/27/06	4:47 a	-16.3	-16.3	-16.3	---	---	25.2	ESE	0.42	27.0	-29.9	---	---	719.6	0.024	0.000	19.8	2	1
03/27/06	4:48 a	-16.3	-16.3	-16.4	---	---	24.3	E	0.41	27.8	-29.8	---	---	719.5	0.024	0.000	19.8	2	1
03/27/06	4:49 a	-16.4	-16.3	-16.4	---	---	26.1	ESE	0.43	29.6	-30.2	---	---	719.5	0.024	0.000	19.8	2	1
03/27/06	4:50 a	-16.4	-16.3	-16.4	---	---	25.2	ESE	0.42	27.8	-30.0	---	---	719.4	0.024	0.000	19.8	2	1
03/27/06	4:51 a	-16.4	-16.4	-16.4	---	---	24.3	E	0.41	27.0	-29.8	---	---	719.5	0.024	0.000	19.8	2	1
03/27/06	4:52 a	-16.4	-16.4	-16.4	---	---	26.1	ESE	0.43	27.8	-30.2	---	---	719.6	0.024	0.000	19.8	2	1
03/27/06	4:53 a	-16.4	-16.3	-16.4	---	---	26.1	ESE	0.43	31.3	-30.2	---	---	719.7	0.024	0.000	19.8	2	1
03/27/06	4:54 a	-16.4	-16.4	-16.4	---	---	24.3	E	0.41	27.8	-29.8	---	---	719.6	0.024	0.000	19.8	2	1
03/27/06	4:55 a	-16.4	-16.4	-16.4	---	---	25.2	ESE	0.42	27.8	-30.0	---	---	719.6	0.024	0.000	19.8	2	1
03/27/06	4:56 a	-16.4	-16.4	-16.4	---	---	25.2	ESE	0.42	28.7	-30.0	---	---	719.5	0.024	0.000	19.8	2	1
03/27/06	4:57 a	-16.4	-16.4	-16.4	---	---	27.0	ESE	0.45	28.7	-30.4	---	---	719.5	0.024	0.000	19.7	2	1
03/27/06	4:58 a	-16.4	-16.4	-16.4	---	---	30.4	ESE	0.51	41.7	-31.1	---	---	718.9	0.024	0.000	19.7	2	1
03/27/06	4:59 a	-16.4	-16.4	-16.4	---	---	25.2	ESE	0.42	32.2	-30.0	---	---	719.2	0.024	0.000	19.7	2	1
03/27/06	5:00 a	-16.4	-16.4	-16.4	---	---	35.7	ESE	0.59	45.2	-31.9	---	---	719.0	0.024	0.000	19.7	2	1
03/27/06	5:01 a	-16.4	-16.4	-16.4	---	---	30.4	SE	0.51	34.8	-31.1	---	---	719.4	0.024	0.000	19.7	2	1
03/27/06	5:02 a	-16.4	-16.4	-16.4	---	---	27.8	ESE	0.46	36.5	-30.6	---	---	719.3	0.024	0.000	19.7	2	1
03/27/06	5:03 a	-16.4	-16.4	-16.4	---	---	29.6	ESE	0.49	35.7	-30.9	---	---	719.4	0.024	0.000	19.7	2	1
03/27/06	5:04 a	-16.4	-16.4	-16.4	---	---	25.2	E	0.42	32.2	-30.0	---	---	719.3	0.024	0.000	19.7	2	1
03/27/06	5:05 a	-16.4	-16.4	-16.4	---	---	32.2	E	0.54	44.3	-31.3	---	---	718.9	0.024	0.000	19.7	2	1
03/27/06	5:06 a	-16.4	-16.3	-16.4	---	---	27.8	ESE	0.46	33.9	-30.6	---	---	719.4	0.024	0.000	19.7	2	1
03/27/06	5:07 a	-16.3	-16.3	-16.4	---	---	24.3	ESE	0.41	29.6	-29.8	---	---	719.3	0.024	0.000	19.7	2	1
03/27/06	5:08 a	-16.3	-16.3	-16.3	---	---	26.1	ESE	0.43	33.0	-30.1	---	---	719.4	0.024	0.000	19.7	2	1
03/27/06	5:09 a	-16.3	-16.3	-16.4	---	---	27.0	E	0.45	30.4	-30.3	---	---	719.2	0.024	0.000	19.7	2	1
03/27/06	5:10 a	-16.3	-16.3	-16.4	---	---	32.2	ESE	0.54	38.3	-31.3	---	---	719.0	0.024	0.000	19.8	2	1
03/27/06	5:11 a	-16.3	-16.3	-16.3	---	---	27.0	ESE	0.45	33.0	-30.3	---	---	719.2	0.024	0.000	19.8	2	1
03/27/06	5:12 a	-16.3	-16.3	-16.3	---	---	26.1	ESE	0.43	32.2	-30.1	---	---	719.2	0.024	0.000	19.7	2	1
03/27/06	5:13 a	-16.3	-16.3	-16.3	---	---	25.2	E	0.42	30.4	-29.9	---	---	719.3	0.024	0.000	19.8	2	1
03/27/06	5:14 a	-16.3	-16.3	-16.3	---	---	23.5	ESE	0.39	26.1	-29.6	---	---	719.4	0.024	0.000	19.8	2	1
03/27/06	5:15 a	-16.3	-16.3	-16.3	---	---	22.6	E	0.38	27.8	-29.4	---	---	719.2	0.024	0.000	19.8	2	1
03/27/06	5:16 a	-16.3	-16.3	-16.3	---	---	22.6	ESE	0.38	27.0	-29.3	---	---	719.4	0.024	0.000	19.8	2	1
03/27/06	5:17 a	-16.3	-16.3	-16.3	---	---	24.3	ESE	0.41	29.6	-29.7	---	---	719.3	0.024	0.000	19.8	2	1
03/27/06	5:18 a	-16.3	-16.3	-16.3	---	---	27.0	SE	0.45	30.4	-30.2	---	---	719.3	0.024	0.000	19.8	2	1
03/27/06	5:19 a	-16.3	-16.3	-16.3	---	---	27.0	ESE	0.45	30.4	-30.2	---	---	719.4	0.024	0.000	19.8	2	1
03/27/06	5:20 a	-16.3	-16.3	-16.3	---	---	25.2	ESE	0.42	27.8	-29.9	---	---	719.4	0.024	0.000	19.8	2	1
03/27/06	5:21 a	-16.3	-16.3	-16.3	---	---	27.0	SE	0.45	33.0	-30.2	---	---	719.4	0.024	0.000	19.8	2	1
03/27/06	5:22 a	-16.3	-16.3	-16.3	---	---	27.8	ESE	0.46	34.8	-30.4	---	---	719.0	0.024	0.000	19.8	2	1
03/27/06	5:23 a	-16.3	-16.3	-16.3	---	---	26.1	ESE	0.43	29.6	-30.1	---	---	719.5	0.024	0.000	19.8	2	1
03/27/06	5:24 a	-16.2	-16.2	-16.3	---	---	29.6	ESE	0.49	33.0	-30.7	---	---	719.3	0.024	0.000	19.7	2	1
03/27/06	5:25 a	-16.2	-16.2	-16.3	---	---	26.1	ESE	0.43	29.6	-30.0	---	---	719.3	0.024	0.000	19.7	2	1
03/27/06	5:26 a	-16.2	-16.2	-16.3	---	---	27.8	ESE	0.46	30.4	-30.3	---	---	719.3	0.024	0.000	19.7	2	1
03/27/06	5:27 a	-16.2	-16.2	-16.2	---	---	27.8	ESE	0.46	30.4	-30.3	---	---	719.3	0.024	0.000	19.7	2	1
03/27/06	5:28 a	-16.2	-16.2	-16.2	---	---	27.0	E	0.45	31.3	-30.2	---	---	719.5	0.024	0.000	19.7	2	1
03/27/06	5:29 a	-16.2	-16.2	-16.2	---	---	22.6	ESE	0.38	26.1	-29.2	---	---	719.5	0.024	0.000	19.7	2	1
03/27/06	5:30 a	-16.2	-16.2	-16.2	---	---	27.0	ESE	0.45	30.4	-30.2	---	---	719.5	0.024	0.000	19.7	2	1
03/27/06	5:31 a	-16.2	-16.2	-16.2	---	---	28.7	ESE	0.48	33.0	-30.5	---	---	719.5	0.024	0.000	19.7	2	1
03/27/06	5:32 a	-16.2	-16.2	-16.2	---	---	27.0	ESE	0.45	33.0	-30.2	---	---	719.3	0.024	0.000	19.7	2	1
03/27/06	5:33 a	-16.2	-16.2	-16.2	---	---	27.0	ESE	0.45	31.3	-30.1	---	---	719.4	0.024	0.000	19.7	2	1
03/27/06	5:34 a	-16.2	-16.2	-16.2	---	---	27.0	ESE	0.45	30.4	-30.1	---	---	719.4	0.024	0.000	19.7	2	1
03/27/06	5:35 a	-16.2	-16.2	-16.2	---	---	27.8	ESE	0.46	30.4	-30.2	---	---	719.4	0.024	0.000	19.7	2	1
03/27/06	5:36 a	-16.2	-16.2	-16.2	---	---	25.2	ESE	0.42	28.7	-29.7	---	---	719.5	0.024	0.000	19.7	2	1
03/27/06	5:37 a	-16.2	-16.2	-16.2	---	---	24.3	ESE	0.41	29.6	-29.6	---	---	719.4	0.024	0.000	19.7	2	1
03/27/06	5:38 a	-16.2	-16.1	-16.2	---	---	22.6	ESE	0.38	25.2	-29.2	---	---	719.6	0.024	0.000	19.7	2	1
03/27/06	5:39 a	-16.1	-16.1	-16.2	---	---	26.1	ESE	0.43	30.4	-29.8	---	---	719.6	0.024	0.000	19.7	2	1
03/27/06	5:40 a	-16.1	-16.1	-16.2	---	---	25.2	E	0.42	27.0	-29.7	---	---	719.6	0.024	0.000	19.7	2	1
03/27/06	5:41 a	-16.1	-16.1	-16.1	---	---	22.6	ESE	0.38	27.0	-29.1	---	---	719.6	0.024	0.000	19.7	2	1
03/27/06	5:42 a	-16.1	-16.1	-16.1	---	---	22.6	ESE	0.38	27.0	-29.1	---	---	719.5	0.024	0.000	19.7	2	1
03/27/06	5:43 a	-16.1	-16.1	-16.1	---	---	25.2	ESE	0.42	27.0	-29.7	---	---	719.6	0.024	0.000	19.6	2	1
03/27/06	5:44 a	-16.1	-16.1	-16.1	---	---	22.6	ESE	0.38	24.3	-29.1	---	---	719.7	0.024	0.000	19.6	2	1
03/27/06	5:45 a	-16.1	-16.1	-16.1	---	---	23.5	ESE	0.39	26.1	-29.3	---	---	719.7	0.024	0.000	19.6	2	1
03/27/06	5:46 a	-16.1	-16.1	-16.1	---	---	24.3	ESE	0.41	25.2	-29.4	---	---	719.7	0.024	0.000	19.6	2	1
03/27/06	5:47 a	-16.1	-16.1	-16.1	---	---	21.7	E	0.36	25.2	-28.9	---	---	719.6	0.024	0.000	19.6	2	1
03/27/06	5:48 a	-16.1	-16.1	-16.1	---	---	23.5	E	0.39	26.1	-29.2	---	---	719.5	0.024	0.000	19.6	2	1
03/27/06	5:49 a	-16.1	-16.1	-16.1	---	---	24.3	E	0.41	27.0	-29.4	---	---	719.5	0.024	0.000	19.6	2	1
03/27/06	5:50 a	-16.1	-16.1	-16.1	---	---	20.9	E	0.35	24.3	-28.7	---	---	719.6	0.024	0.000	19.6	2	1
03/27/06	5:51 a	-16.1	-16.1	-16.1	---	---	20.9	E	0.35	25.2	-28.6	---	---	719.6	0.024	0.000	19.7	2	1
03/27/06	5:52 a	-16.1	-16.1	-16.1	---	---	17.4	E	0.29	21.7	-27.7	---	---	719.6	0.024	0.000	19.7	2	1
03/27/06	5:53 a	-16.1	-16.1	-16.1	---	---	21.7	ESE	0.36	24.3	-28.8	---	---	719.7	0.024	0.000	19.7	2	1
03/27/06	5:54 a	-16.1	-16.1	-16.1	---	---	20.0	ESE	0.33	22.6	-28.4	---	---	719.7	0.024	0.000	19.7	2	1
03/27/06	5:55 a	-16.1	-16.1	-16.1	---	---	18.3	E	0.30	22.6	-27.9	---	---	719.6	0.024	0.000	19.7	2	1
03/27/06	5:56 a	-16.1	-16.1	-16.1	---	---	19.1	E	0.32	24.3	-28.2	---	---	719.6	0.024	0.000	19.7	2	1
03/27/06	5:57 a	-16.1	-16.1	-16.1	---	---	20.9	ESE	0.35	23.5	-28.6	---	---	719.7	0.024	0.000	19.7	2	1
03/27/06	5:58 a	-16.1	-16.1	-16.1	---	---	20.0	ESE	0.33	21.7	-28.4	---	---	719.7	0.024	0.000	19.7	2	1
03/27/06	5:59 a	-16.1	-16.1	-16.1	---	---	20.0	E	0.33	22.6	-28.4	---	---	719.7	0.024	0.000	19.7	2	1
03/27/06	6:00 a	-16.1	-16.1	-16.1	---	---	18.3	E	0.30	20.0	-27.9	---	---	719.7	0.024	0.000	19.7	2	1
03/27/06	6:01 a	-16.1	-16.1	-16.1	---	---	17.4	E	0.29	20.0	-27.7	---	---	719.5	0.024	0.000	19.7	2	1
03/27/06	6:02 a	-16.1	-16.1	-16.1	---	---	20.0	E	0.33	22.6	-28.4	---	---	719.6	0.024	0.000	19.7	2	1
03/27/06	6:03 a	-16.1	-16.1	-16.1	---	---	19.1	E	0.32	21.7	-28.2	---	---	719.7	0.024	0.000	19.7	2	1
03/27/06	6:04 a	-16.1	-16.1	-16.1	---	---	20.0	ESE	0.33	21.7	-28.4	---	---	719.7	0.024	0.000	19.7	2	1
03/27/06	6:05 a	-16.1	-16.1	-16.1	---	---	19.1	E	0.32	20.9	-28.2	---	---	719.6	0.024	0.000	19.7	2	1
03/27/06	6:06 a	-16.1	-16.1	-16.1	---	---	19.1	E	0.32	24.3	-28.2	---	---	719.6	0.024	0.000	19.7	2	1
03/27/06	6:07 a	-16.1	-16.1	-16.1	---	---	20.0	E	0.33	22.6	-28.4	---	---	719.6	0.024	0.000	19.7	2	1
03/27/06	6:08 a	-16.1	-16.1	-16.1	---	---	20.9	E	0.35	23.5	-28.6	---	---	719.6	0.024	0.000	19.7	2	1
03/27/06	6:09 a	-16.1	-16.1	-16.1	---	---	20.9	ESE	0.35	23.5	-28.6	---	---	719.6	0.024	0.000	19.7	2	1
03/27/06	6:10 a	-16.1	-16.1	-16.1	---	---	20.9	ESE	0.35	22.6	-28.6	---	---	719.6	0.024	0.000	19.7	2	1
03/27/06	6:11 a	-16.1	-16.1	-16.1	---	---	20.9	E	0.35	23.5	-28.6	---	---	719.5	0.024	0.000	19.7	2	1
03/27/06	6:12 a	-16.1	-16.1	-16.1	---	---	20.9	E	0.35	22.6	-28.6	---	---	719.7	0.024	0.000	19.7	2	1
03/27/06	6:13 a	-16.1	-16.1	-16.1	---	---	20.9	E	0.35	23.5	-28.6	---	---	719.6	0.024	0.000	19.7	2	1
03/27/06	6:14 a	-16.1	-16.1	-16.1	---	---	20.9	E	0.35	23.5	-28.6	---	---	719.5	0.024	0.000	19.7	2	1
03/27/06	6:15 a	-16.1	-16.1	-16.1	---	---	21.7	E	0.36	24.3	-28.8	---	---	719.6	0.024	0.000	19.7	2	1
03/27/06	6:16 a	-16.1	-16.1	-16.1	---	---	22.6	ESE	0.38	26.1	-29.0	---	---	719.5	0.024	0.000	19.7	2	1
03/27/06	6:17 a	-16.1	-16.1	-16.1	---	---	24.3	ESE	0.41	26.1	-29.4	---	---	719.5	0.024	0.000	19.7	2	1
03/27/06	6:18 a	-16.1	-16.1	-16.1	---	---	21.7	E	0.36	25.2	-28.8	---	---	719.5	0.024	0.000	19.7	2	1
03/27/06	6:19 a	-16.1	-16.1	-16.1	---	---	23.5	ESE	0.39	25.2	-29.2	---	---	719.5	0.024	0.000	19.7	2	1
03/27/06	6:20 a	-16.1	-16.1	-16.1	---	---	23.5	ESE	0.39	24.3	-29.2	---	---	719.4	0.024	0.000	19.7	2	1
03/27/06	6:21 a	-16.1	-16.1	-16.1	---	---	24.3	ESE	0.41	26.1	-29.4	---	---	719.4	0.024	0.000	19.7	2	1
03/27/06	6:22 a	-16.1	-16.1	-16.1	---	---	22.6	ESE	0.38	24.3	-29.0	---	---	719.4	0.024	0.000	19.7	2	1
03/27/06	6:23 a	-16.1	-16.1	-16.1	---	---	25.2	ESE	0.42	28.7	-29.6	---	---	719.3	0.024	0.000	19.7	2	1
03/27/06	6:24 a	-16.1	-16.1	-16.1	---	---	23.5	ESE	0.39	25.2	-29.2	---	---	719.4	0.024	0.000	19.7	2	1
03/27/06	6:25 a	-16.1	-16.1	-16.1	---	---	24.3	ESE	0.41	27.8	-29.4	---	---	719.3	0.024	0.000	19.6	2	1
03/27/06	6:26 a	-16.1	-16.1	-16.1	---	---	25.2	ESE	0.42	28.7	-29.6	---	---	719.3	0.024	0.000	19.6	2	1
03/27/06	6:27 a	-16.1	-16.1	-16.1	---	---	25.2	ESE	0.42	27.8	-29.6	---	---	719.4	0.024	0.000	19.6	2	1
03/27/06	6:28 a	-16.1	-16.1	-16.1	---	---	24.3	ESE	0.41	27.8	-29.4	---	---	719.2	0.024	0.000	19.6	2	1
03/27/06	6:29 a	-16.1	-16.1	-16.1	---	---	26.1	ESE	0.43	29.6	-29.8	---	---	719.2	0.024	0.000	19.6	2	1
03/27/06	6:30 a	-16.1	-16.1	-16.1	---	---	26.1	ESE	0.43	27.8	-29.8	---	---	719.2	0.024	0.000	19.6	2	1
03/27/06	6:31 a	-16.1	-16.1	-16.1	---	---	26.1	ESE	0.43	29.6	-29.8	---	---	719.0	0.024	0.000	19.6	2	1
03/27/06	6:32 a	-16.1	-16.1	-16.1	---	---	27.0	ESE	0.45	29.6	-29.9	---	---	719.1	0.024	0.000	19.6	2	1
03/27/06	6:33 a	-16.1	-16.1	-16.1	---	---	28.7	ESE	0.48	33.0	-30.3	---	---	719.2	0.024	0.000	19.6	2	1
03/27/06	6:34 a	-16.1	-16.1	-16.1	---	---	27.0	ESE	0.45	29.6	-29.9	---	---	719.1	0.024	0.000	19.6	2	1
03/27/06	6:35 a	-16.1	-16.1	-16.1	---	---	27.8	ESE	0.46	32.2	-30.1	---	---	719.2	0.024	0.000	19.6	2	1
03/27/06	6:36 a	-16.1	-16.1	-16.1	---	---	27.8	E	0.46	33.9	-30.1	---	---	719.0	0.024	0.000	19.6	2	1
03/27/06	6:37 a	-16.1	-16.1	-16.1	---	---	28.7	ESE	0.48	31.3	-30.3	---	---	719.1	0.024	0.000	19.6	2	1
03/27/06	6:38 a	-16.1	-16.1	-16.1	---	---	27.0	ESE	0.45	30.4	-29.9	---	---	719.2	0.024	0.000	19.6	2	1
03/27/06	6:39 a	-16.1	-16.1	-16.1	---	---	27.0	E	0.45	30.4	-29.9	---	---	719.1	0.024	0.000	19.6	2	1
03/27/06	6:40 a	-16.1	-16.1	-16.1	---	---	27.8	ESE	0.46	34.8	-30.1	---	---	719.0	0.024	0.000	19.6	2	1
03/27/06	6:41 a	-16.1	-16.1	-16.1	---	---	27.8	ESE	0.46	33.9	-30.1	---	---	719.1	0.024	0.000	19.6	2	1
03/27/06	6:42 a	-16.1	-16.1	-16.1	---	---	25.2	E	0.42	27.8	-29.6	---	---	719.2	0.024	0.000	19.6	2	1
03/27/06	6:43 a	-16.1	-16.1	-16.1	---	---	26.1	E	0.43	29.6	-29.8	---	---	719.1	0.024	0.000	19.6	2	1
03/27/06	6:44 a	-16.0	-16.0	-16.1	---	---	23.5	E	0.39	27.8	-29.1	---	---	719.1	0.024	0.000	19.6	2	1
03/27/06	6:45 a	-16.0	-16.0	-16.1	---	---	27.8	ESE	0.46	33.0	-30.0	---	---	719.1	0.024	0.000	19.6	2	1
03/27/06	6:46 a	-16.1	-16.0	-16.1	---	---	25.2	ESE	0.42	27.8	-29.6	---	---	719.3	0.024	0.000	19.6	2	1
03/27/06	6:47 a	-16.0	-16.0	-16.1	---	---	24.3	E	0.41	27.8	-29.3	---	---	719.2	0.024	0.000	19.6	2	1
03/27/06	6:48 a	-16.1	-16.0	-16.1	---	---	25.2	ESE	0.42	27.8	-29.6	---	---	719.1	0.024	0.000	19.6	2	1
03/27/06	6:49 a	-16.1	-16.0	-16.1	---	---	27.0	ESE	0.45	29.6	-29.9	---	---	719.0	0.024	0.000	19.6	2	1
03/27/06	6:50 a	-16.1	-16.1	-16.1	---	---	26.1	E	0.43	28.7	-29.8	---	---	719.0	0.024	0.000	19.6	2	1
03/27/06	6:51 a	-16.1	-16.1	-16.1	---	---	27.0	E	0.45	30.4	-29.9	---	---	719.2	0.024	0.000	19.6	2	1
03/27/06	6:52 a	-16.1	-16.0	-16.1	---	---	25.2	ESE	0.42	31.3	-29.6	---	---	719.1	0.024	0.000	19.6	2	1
03/27/06	6:53 a	-16.0	-16.0	-16.1	---	---	24.3	ESE	0.41	31.3	-29.3	---	---	719.3	0.024	0.000	19.6	2	1
03/27/06	6:54 a	-16.0	-16.0	-16.1	---	---	26.1	ESE	0.43	29.6	-29.7	---	---	719.3	0.024	0.000	19.6	2	1
03/27/06	6:55 a	-16.0	-16.0	-16.0	---	---	24.3	E	0.41	27.8	-29.3	---	---	719.2	0.024	0.000	19.6	2	1
03/27/06	6:56 a	-16.0	-16.0	-16.1	---	---	25.2	ESE	0.42	29.6	-29.5	---	---	719.2	0.024	0.000	19.6	2	1
03/27/06	6:57 a	-16.1	-16.0	-16.1	---	---	26.1	ESE	0.43	35.7	-29.8	---	---	719.2	0.024	0.000	19.6	2	1
03/27/06	6:58 a	-16.0	-16.0	-16.1	---	---	27.8	ESE	0.46	30.4	-30.0	---	---	719.3	0.024	0.000	19.6	2	1
03/27/06	6:59 a	-16.0	-16.0	-16.1	---	---	27.0	ESE	0.45	30.4	-29.8	---	---	719.3	0.024	0.000	19.6	2	1
03/27/06	7:00 a	-16.1	-16.0	-16.1	---	---	22.6	ESE	0.38	28.7	-29.0	---	---	719.3	0.024	0.000	19.6	2	1
03/27/06	7:01 a	-16.0	-16.0	-16.0	---	---	23.5	ESE	0.39	26.1	-29.1	---	---	719.4	0.024	0.000	19.6	2	1
03/27/06	7:02 a	-16.1	-16.0	-16.1	---	---	24.3	ESE	0.41	28.7	-29.4	---	---	719.5	0.024	0.000	19.6	2	1
03/27/06	7:03 a	-16.0	-16.0	-16.0	---	---	22.6	ESE	0.38	25.2	-28.9	---	---	719.5	0.024	0.000	19.6	2	1
03/27/06	7:04 a	-16.0	-16.0	-16.1	---	---	24.3	ESE	0.41	27.0	-29.3	---	---	719.7	0.024	0.000	19.6	2	1
03/27/06	7:05 a	-16.0	-16.0	-16.1	---	---	24.3	SE	0.41	27.0	-29.3	---	---	719.6	0.024	0.000	19.6	2	1
03/27/06	7:06 a	-16.0	-16.0	-16.1	---	---	22.6	ESE	0.38	26.1	-28.9	---	---	719.7	0.024	0.000	19.6	2	1
03/27/06	7:07 a	-16.0	-16.0	-16.0	---	---	22.6	ESE	0.38	24.3	-28.9	---	---	719.7	0.024	0.000	19.6	2	1
03/27/06	7:08 a	-16.1	-16.0	-16.1	---	---	22.6	ESE	0.38	25.2	-29.0	---	---	719.7	0.024	0.000	19.6	2	1
03/27/06	7:09 a	-16.0	-16.0	-16.1	---	---	24.3	ESE	0.41	27.8	-29.3	---	---	719.6	0.024	0.000	19.6	2	1
03/27/06	7:10 a	-16.0	-16.0	-16.1	---	---	22.6	ESE	0.38	24.3	-28.9	---	---	719.6	0.024	0.000	19.6	2	1
03/27/06	7:11 a	-16.0	-16.0	-16.0	---	---	24.3	ESE	0.41	27.8	-29.3	---	---	719.6	0.024	0.000	19.6	2	1
03/27/06	7:12 a	-16.0	-16.0	-16.0	---	---	21.7	ESE	0.36	25.2	-28.7	---	---	719.7	0.024	0.000	19.6	2	1
03/27/06	7:13 a	-16.0	-16.0	-16.0	---	---	25.2	ESE	0.42	27.0	-29.5	---	---	719.6	0.024	0.000	19.6	2	1
03/27/06	7:14 a	-16.0	-16.0	-16.0	---	---	24.3	ESE	0.41	27.0	-29.3	---	---	719.7	0.024	0.000	19.6	2	1
03/27/06	7:15 a	-16.0	-16.0	-16.0	---	---	20.9	ESE	0.35	25.2	-28.5	---	---	719.7	0.024	0.000	19.6	2	1
03/27/06	7:16 a	-16.0	-16.0	-16.0	---	---	23.5	ESE	0.39	27.0	-29.1	---	---	719.7	0.024	0.000	19.6	2	1
03/27/06	7:17 a	-16.0	-16.0	-16.0	---	---	25.2	SE	0.42	29.6	-29.5	---	---	719.7	0.024	0.000	19.6	2	1
03/27/06	7:18 a	-16.0	-16.0	-16.0	---	---	25.2	SE	0.42	33.0	-29.5	---	---	719.6	0.024	0.000	19.6	2	1
03/27/06	7:19 a	-16.0	-16.0	-16.0	---	---	22.6	SE	0.38	26.1	-28.9	---	---	719.8	0.024	0.000	19.6	2	1
03/27/06	7:20 a	-16.0	-16.0	-16.0	---	---	23.5	ESE	0.39	26.1	-29.1	---	---	719.7	0.024	0.000	19.5	2	1
03/27/06	7:21 a	-16.0	-16.0	-16.0	---	---	23.5	SE	0.39	30.4	-29.1	---	---	719.8	0.024	0.000	19.5	2	1
03/27/06	7:22 a	-16.0	-16.0	-16.0	---	---	25.2	ESE	0.42	28.7	-29.5	---	---	719.7	0.024	0.000	19.5	2	1
03/27/06	7:23 a	-16.0	-16.0	-16.0	---	---	23.5	SE	0.39	26.1	-29.1	---	---	719.8	0.024	0.000	19.5	2	1
03/27/06	7:24 a	-16.0	-16.0	-16.1	---	---	23.5	SE	0.39	27.8	-29.1	---	---	719.7	0.024	0.000	19.5	2	1
03/27/06	7:25 a	-16.0	-16.0	-16.0	---	---	24.3	SE	0.41	26.1	-29.3	---	---	719.8	0.024	0.000	19.5	2	1
03/27/06	7:26 a	-16.0	-16.0	-16.1	---	---	24.3	SE	0.41	27.8	-29.3	---	---	719.7	0.024	0.000	19.5	2	1
03/27/06	7:27 a	-16.1	-16.0	-16.1	---	---	25.2	SE	0.42	27.8	-29.6	---	---	719.7	0.024	0.000	19.5	2	1
03/27/06	7:28 a	-16.0	-16.0	-16.0	---	---	23.5	ESE	0.39	25.2	-29.1	---	---	719.8	0.024	0.000	19.5	2	1
03/27/06	7:29 a	-16.1	-16.1	-16.1	---	---	21.7	ESE	0.36	23.5	-28.8	---	---	719.9	0.024	0.000	19.5	2	1
03/27/06	7:30 a	-16.1	-16.1	-16.1	---	---	24.3	ESE	0.41	26.1	-29.4	---	---	719.6	0.024	0.000	19.5	2	1
03/27/06	7:31 a	-16.1	-16.1	-16.1	---	---	24.3	ESE	0.41	28.7	-29.4	---	---	719.7	0.024	0.000	19.5	2	1
03/27/06	7:32 a	-16.1	-16.1	-16.1	---	---	24.3	ESE	0.41	27.8	-29.4	---	---	719.6	0.024	0.000	19.5	2	1
03/27/06	7:33 a	-16.1	-16.1	-16.1	---	---	23.5	ESE	0.39	24.3	-29.2	---	---	719.8	0.024	0.000	19.5	2	1
03/27/06	7:34 a	-16.1	-16.1	-16.1	---	---	21.7	ESE	0.36	23.5	-28.8	---	---	719.7	0.024	0.000	19.5	2	1
03/27/06	7:35 a	-16.1	-16.1	-16.1	---	---	20.9	ESE	0.35	22.6	-28.6	---	---	719.7	0.024	0.000	19.5	2	1
03/27/06	7:36 a	-16.1	-16.1	-16.1	---	---	21.7	ESE	0.36	24.3	-28.8	---	---	719.7	0.024	0.000	19.5	2	1
03/27/06	7:37 a	-16.1	-16.1	-16.1	---	---	21.7	SE	0.36	25.2	-28.8	---	---	719.6	0.024	0.000	19.5	2	1
03/27/06	7:38 a	-16.1	-16.1	-16.1	---	---	24.3	SE	0.41	30.4	-29.4	---	---	719.7	0.024	0.000	19.6	2	1
03/27/06	7:39 a	-16.1	-16.1	-16.1	---	---	23.5	SE	0.39	30.4	-29.2	---	---	719.7	0.024	0.000	19.6	2	1
03/27/06	7:40 a	-16.1	-16.1	-16.1	---	---	23.5	SE	0.39	27.0	-29.3	---	---	719.7	0.024	0.000	19.6	2	1
03/27/06	7:41 a	-16.1	-16.1	-16.1	---	---	20.9	SE	0.35	25.2	-28.6	---	---	719.8	0.024	0.000	19.6	2	1
03/27/06	7:42 a	-16.1	-16.1	-16.1	---	---	20.0	SE	0.33	23.5	-28.4	---	---	719.8	0.024	0.000	19.6	2	1
03/27/06	7:43 a	-16.1	-16.1	-16.1	---	---	21.7	SE	0.36	24.3	-28.8	---	---	719.6	0.024	0.000	19.6	2	1
03/27/06	7:44 a	-16.1	-16.1	-16.1	---	---	22.6	SE	0.38	25.2	-29.1	---	---	719.7	0.024	0.000	19.6	2	1
03/27/06	7:45 a	-16.1	-16.1	-16.1	---	---	21.7	ESE	0.36	24.3	-28.9	---	---	719.7	0.024	0.000	19.6	2	1
03/27/06	7:46 a	-16.1	-16.1	-16.1	---	---	22.6	ESE	0.38	27.8	-29.1	---	---	719.7	0.024	0.000	19.6	2	1
03/27/06	7:47 a	-16.1	-16.1	-16.1	---	---	21.7	ESE	0.36	24.3	-28.9	---	---	719.7	0.024	0.000	19.6	2	1
03/27/06	7:48 a	-16.1	-16.1	-16.1	---	---	22.6	ESE	0.38	27.8	-29.1	---	---	719.7	0.024	0.000	19.6	2	1
03/27/06	7:49 a	-16.1	-16.1	-16.1	---	---	20.9	ESE	0.35	26.1	-28.7	---	---	719.8	0.024	0.000	19.6	2	1
03/27/06	7:50 a	-16.1	-16.1	-16.2	---	---	19.1	ESE	0.32	21.7	-28.2	---	---	719.7	0.024	0.000	19.6	2	1
03/27/06	7:51 a	-16.2	-16.1	-16.2	---	---	20.0	ESE	0.33	21.7	-28.6	---	---	719.8	0.024	0.000	19.6	2	1
03/27/06	7:52 a	-16.2	-16.2	-16.2	---	---	20.9	ESE	0.35	21.7	-28.7	---	---	719.8	0.024	0.000	19.6	2	1
03/27/06	7:53 a	-16.2	-16.1	-16.2	---	---	22.6	ESE	0.38	24.3	-29.2	---	---	719.6	0.024	0.000	19.6	2	1
03/27/06	7:54 a	-16.2	-16.2	-16.2	---	---	22.6	ESE	0.38	24.3	-29.2	---	---	719.7	0.024	0.000	19.6	2	1
03/27/06	7:55 a	-16.2	-16.2	-16.2	---	---	22.6	ESE	0.38	26.1	-29.2	---	---	719.7	0.024	0.000	19.6	2	1
03/27/06	7:56 a	-16.2	-16.2	-16.2	---	---	20.9	ESE	0.35	22.6	-28.7	---	---	719.7	0.024	0.000	19.6	2	1
03/27/06	7:57 a	-16.2	-16.2	-16.2	---	---	24.3	ESE	0.41	27.0	-29.6	---	---	719.6	0.024	0.000	19.6	2	1
03/27/06	7:58 a	-16.2	-16.2	-16.2	---	---	24.3	ESE	0.41	27.0	-29.6	---	---	719.6	0.024	0.000	19.6	2	1
03/27/06	7:59 a	-16.2	-16.2	-16.2	---	---	24.3	ESE	0.41	26.1	-29.6	---	---	719.6	0.024	0.000	19.6	2	1
03/27/06	8:00 a	-16.2	-16.2	-16.2	---	---	23.5	ESE	0.39	26.1	-29.3	---	---	719.7	0.024	0.000	19.6	2	1
03/27/06	8:01 a	-16.2	-16.2	-16.2	---	---	22.6	ESE	0.38	26.1	-29.2	---	---	719.8	0.024	0.000	19.6	2	1
03/27/06	8:02 a	-16.2	-16.2	-16.2	---	---	23.5	ESE	0.39	27.0	-29.4	---	---	719.8	0.024	0.000	19.6	2	1
03/27/06	8:03 a	-16.2	-16.2	-16.2	---	---	21.7	ESE	0.36	24.3	-29.1	---	---	719.8	0.024	0.000	19.6	2	1
03/27/06	8:04 a	-16.3	-16.2	-16.3	---	---	24.3	ESE	0.41	27.8	-29.7	---	---	719.6	0.024	0.000	19.5	2	1
03/27/06	8:05 a	-16.2	-16.2	-16.3	---	---	20.9	E	0.35	26.1	-28.8	---	---	719.8	0.024	0.000	19.5	2	1
03/27/06	8:06 a	-16.3	-16.2	-16.3	---	---	23.5	E	0.39	32.2	-29.5	---	---	719.6	0.024	0.000	19.5	2	1
03/27/06	8:07 a	-16.3	-16.2	-16.3	---	---	21.7	E	0.36	24.3	-29.1	---	---	719.8	0.024	0.000	19.5	2	1
03/27/06	8:08 a	-16.2	-16.2	-16.3	---	---	20.9	ESE	0.35	25.2	-28.8	---	---	719.7	0.024	0.000	19.5	2	1
03/27/06	8:09 a	-16.2	-16.2	-16.3	---	---	19.1	ESE	0.32	22.6	-28.4	---	---	719.8	0.024	0.000	19.5	2	1
03/27/06	8:10 a	-16.3	-16.3	-16.3	---	---	22.6	ESE	0.38	27.0	-29.3	---	---	719.6	0.024	0.000	19.5	2	1
03/27/06	8:11 a	-16.3	-16.3	-16.3	---	---	23.5	ENE	0.39	30.4	-29.5	---	---	719.6	0.024	0.000	19.5	2	1
03/27/06	8:12 a	-16.3	-16.3	-16.3	---	---	22.6	ESE	0.38	24.3	-29.3	---	---	719.9	0.024	0.000	19.5	2	1
03/27/06	8:13 a	-16.3	-16.3	-16.3	---	---	24.3	ESE	0.41	31.3	-29.7	---	---	719.5	0.024	0.000	19.5	2	1
03/27/06	8:14 a	-16.3	-16.3	-16.3	---	---	20.9	E	0.35	26.1	-28.9	---	---	719.8	0.024	0.000	19.5	2	1
03/27/06	8:15 a	-16.3	-16.3	-16.3	---	---	20.0	ESE	0.33	27.0	-28.7	---	---	720.0	0.024	0.000	19.5	2	1
03/27/06	8:16 a	-16.3	-16.3	-16.3	---	---	20.0	ESE	0.33	25.2	-28.7	---	---	719.8	0.024	0.000	19.5	2	1
03/27/06	8:17 a	-16.3	-16.3	-16.3	---	---	21.7	E	0.36	27.0	-29.1	---	---	719.8	0.024	0.000	19.5	2	1
03/27/06	8:18 a	-16.3	-16.3	-16.3	---	---	20.9	E	0.35	26.1	-28.9	---	---	719.8	0.024	0.000	19.5	2	1
03/27/06	8:19 a	-16.3	-16.3	-16.3	---	---	22.6	E	0.38	25.2	-29.3	---	---	719.9	0.024	0.000	19.5	2	1
03/27/06	8:20 a	-16.3	-16.3	-16.3	---	---	17.4	E	0.29	20.0	-28.1	---	---	719.9	0.024	0.000	19.5	2	1
03/27/06	8:21 a	-16.3	-16.3	-16.3	---	---	17.4	E	0.29	23.5	-28.1	---	---	719.9	0.024	0.000	19.5	2	1
03/27/06	8:22 a	-16.3	-16.3	-16.4	---	---	21.7	E	0.36	26.1	-29.2	---	---	719.9	0.024	0.000	19.5	2	1
03/27/06	8:23 a	-16.4	-16.4	-16.4	---	---	22.6	ESE	0.38	25.2	-29.4	---	---	719.8	0.024	0.000	19.5	2	1
03/27/06	8:24 a	-16.4	-16.4	-16.4	---	---	23.5	E	0.39	27.8	-29.7	---	---	719.6	0.024	0.000	19.6	2	1
03/27/06	8:25 a	-16.4	-16.4	-16.4	---	---	20.9	E	0.35	27.8	-29.1	---	---	719.8	0.024	0.000	19.6	2	1
03/27/06	8:26 a	-16.4	-16.4	-16.4	---	---	20.9	E	0.35	25.2	-29.1	---	---	719.7	0.024	0.000	19.6	2	1
03/27/06	8:27 a	-16.5	-16.4	-16.5	---	---	22.6	E	0.38	27.8	-29.6	---	---	719.7	0.024	0.000	19.6	2	1
03/27/06	8:28 a	-16.6	-16.5	-16.6	---	---	21.7	E	0.36	27.0	-29.5	---	---	719.6	0.024	0.000	19.6	2	1
03/27/06	8:29 a	-16.6	-16.6	-16.6	---	---	21.7	E	0.36	27.0	-29.5	---	---	719.7	0.024	0.000	19.6	2	1
03/27/06	8:30 a	-16.6	-16.6	-16.7	---	---	23.5	E	0.39	28.7	-29.9	---	---	719.7	0.024	0.000	19.6	2	1
03/27/06	8:31 a	-16.7	-16.7	-16.7	---	---	22.6	E	0.38	26.1	-29.8	---	---	719.6	0.024	0.000	19.6	2	1
03/27/06	8:32 a	-16.7	-16.7	-16.7	---	---	25.2	E	0.42	30.4	-30.5	---	---	719.5	0.024	0.000	19.6	2	1
03/27/06	8:33 a	-16.7	-16.7	-16.8	---	---	23.5	E	0.39	27.8	-30.1	---	---	719.6	0.024	0.000	19.6	2	1
03/27/06	8:34 a	-16.8	-16.8	-16.8	---	---	22.6	E	0.38	27.8	-30.0	---	---	719.6	0.024	0.000	19.6	2	1
03/27/06	8:35 a	-16.8	-16.8	-16.8	---	---	22.6	E	0.38	25.2	-30.1	---	---	719.6	0.024	0.000	19.6	2	1
03/27/06	8:36 a	-16.9	-16.9	-16.9	---	---	20.9	E	0.35	23.5	-29.7	---	---	719.8	0.024	0.000	19.6	2	1
03/27/06	8:37 a	-16.9	-16.9	-16.9	---	---	20.0	E	0.33	23.5	-29.6	---	---	719.9	0.024	0.000	19.6	2	1
03/27/06	8:38 a	-17.0	-16.9	-17.0	---	---	21.7	E	0.36	23.5	-30.1	---	---	719.8	0.025	0.000	19.7	2	1
03/27/06	8:39 a	-17.1	-17.0	-17.1	---	---	20.0	E	0.33	23.5	-29.7	---	---	719.8	0.025	0.000	19.6	2	1
03/27/06	8:40 a	-17.1	-17.1	-17.1	---	---	17.4	E	0.29	20.0	-29.0	---	---	719.9	0.025	0.000	19.6	2	1
03/27/06	8:41 a	-17.1	-17.1	-17.2	---	---	20.0	E	0.33	21.7	-29.8	---	---	719.9	0.025	0.000	19.6	2	1
03/27/06	8:42 a	-17.2	-17.2	-17.2	---	---	20.9	E	0.35	24.3	-30.1	---	---	719.7	0.025	0.000	19.6	2	1
03/27/06	8:43 a	-17.2	-17.2	-17.3	---	---	21.7	E	0.36	25.2	-30.4	---	---	719.9	0.025	0.000	19.6	2	1
03/27/06	8:44 a	-17.3	-17.3	-17.3	---	---	20.0	ESE	0.33	24.3	-30.0	---	---	719.9	0.025	0.000	19.6	2	1
03/27/06	8:45 a	-17.3	-17.3	-17.3	---	---	17.4	E	0.29	23.5	-29.3	---	---	720.0	0.025	0.000	19.6	2	1
03/27/06	8:46 a	-17.3	-17.3	-17.4	---	---	20.0	E	0.33	24.3	-30.1	---	---	720.0	0.025	0.000	19.6	2	1
03/27/06	8:47 a	-17.4	-17.4	-17.4	---	---	20.0	E	0.33	22.6	-30.2	---	---	719.9	0.025	0.000	19.6	2	1
03/27/06	8:48 a	-17.4	-17.4	-17.4	---	---	18.3	E	0.30	20.9	-29.8	---	---	720.0	0.025	0.000	19.6	2	1
03/27/06	8:49 a	-17.4	-17.4	-17.5	---	---	19.1	ESE	0.32	20.9	-30.0	---	---	720.1	0.025	0.000	19.6	2	1
03/27/06	8:50 a	-17.5	-17.5	-17.5	---	---	20.0	E	0.33	27.0	-30.3	---	---	719.8	0.025	0.000	19.6	2	1
03/27/06	8:51 a	-17.6	-17.5	-17.6	---	---	20.0	E	0.33	24.3	-30.4	---	---	720.0	0.025	0.000	19.6	2	1
03/27/06	8:52 a	-17.6	-17.6	-17.6	---	---	19.1	E	0.32	21.7	-30.2	---	---	720.0	0.025	0.000	19.6	2	1
03/27/06	8:53 a	-17.6	-17.6	-17.6	---	---	18.3	E	0.30	20.9	-30.0	---	---	720.0	0.025	0.000	19.6	2	1
03/27/06	8:54 a	-17.7	-17.6	-17.7	---	---	19.1	E	0.32	23.5	-30.3	---	---	720.0	0.025	0.000	19.6	2	1
03/27/06	8:55 a	-17.7	-17.7	-17.7	---	---	21.7	E	0.36	27.8	-30.9	---	---	720.1	0.025	0.000	19.6	2	1
03/27/06	8:56 a	-17.7	-17.7	-17.8	---	---	17.4	E	0.29	22.6	-29.9	---	---	720.1	0.025	0.000	19.6	2	1
03/27/06	8:57 a	-17.8	-17.7	-17.8	---	---	15.7	E	0.26	22.6	-29.4	---	---	720.0	0.025	0.000	19.6	2	1
03/27/06	8:58 a	-17.8	-17.8	-17.8	---	---	20.0	E	0.33	23.5	-30.7	---	---	720.2	0.025	0.000	19.6	2	1
03/27/06	8:59 a	-17.8	-17.8	-17.8	---	---	22.6	E	0.38	25.2	-31.4	---	---	720.2	0.025	0.000	19.6	2	1
03/27/06	9:00 a	-17.8	-17.8	-17.9	---	---	18.3	E	0.30	22.6	-30.3	---	---	720.2	0.025	0.000	19.6	2	1
03/27/06	9:01 a	-17.9	-17.9	-17.9	---	---	20.0	E	0.33	23.5	-30.8	---	---	720.1	0.025	0.000	19.6	2	1
03/27/06	9:02 a	-17.9	-17.9	-17.9	---	---	20.9	E	0.35	24.3	-31.1	---	---	720.2	0.025	0.000	19.6	2	1
03/27/06	9:03 a	-17.9	-17.9	-18.0	---	---	21.7	E	0.36	24.3	-31.3	---	---	720.3	0.025	0.000	19.6	2	1
03/27/06	9:04 a	-18.1	-18.0	-18.1	---	---	20.9	E	0.35	25.2	-31.3	---	---	720.2	0.025	0.000	19.6	2	1
03/27/06	9:05 a	-18.1	-18.1	-18.1	---	---	20.9	E	0.35	25.2	-31.3	---	---	720.2	0.025	0.000	19.6	2	1
03/27/06	9:06 a	-18.1	-18.1	-18.2	---	---	23.5	E	0.39	27.8	-31.9	---	---	720.2	0.025	0.000	19.6	2	1
03/27/06	9:07 a	-18.2	-18.2	-18.2	---	---	23.5	E	0.39	27.0	-32.1	---	---	720.2	0.025	0.000	19.6	2	1
03/27/06	9:08 a	-18.2	-18.2	-18.3	---	---	22.6	E	0.38	27.8	-31.9	---	---	720.2	0.025	0.000	19.6	2	1
03/27/06	9:09 a	-18.3	-18.3	-18.3	---	---	22.6	E	0.38	27.0	-32.0	---	---	720.1	0.025	0.000	19.6	2	1
03/27/06	9:10 a	-18.3	-18.3	-18.3	---	---	22.6	E	0.38	27.0	-32.0	---	---	720.3	0.025	0.000	19.6	2	1
03/27/06	9:11 a	-18.4	-18.3	-18.4	---	---	24.3	E	0.41	29.6	-32.6	---	---	720.2	0.026	0.000	19.6	2	1
03/27/06	9:12 a	-18.4	-18.4	-18.4	---	---	23.5	E	0.39	27.0	-32.4	---	---	720.2	0.026	0.000	19.6	2	1
03/27/06	9:13 a	-18.5	-18.4	-18.5	---	---	24.3	E	0.41	27.8	-32.7	---	---	720.1	0.026	0.000	19.6	2	1
03/27/06	9:14 a	-18.5	-18.5	-18.6	---	---	23.5	E	0.39	27.8	-32.5	---	---	720.2	0.026	0.000	19.6	2	1
03/27/06	9:15 a	-18.6	-18.6	-18.6	---	---	21.7	E	0.36	25.2	-32.2	---	---	720.2	0.026	0.000	19.6	2	1
03/27/06	9:16 a	-18.6	-18.6	-18.7	---	---	26.1	E	0.43	28.7	-33.2	---	---	720.1	0.026	0.000	19.6	2	1
03/27/06	9:17 a	-18.7	-18.7	-18.7	---	---	27.8	E	0.46	30.4	-33.7	---	---	720.1	0.026	0.000	19.7	2	1
03/27/06	9:18 a	-18.7	-18.7	-18.7	---	---	29.6	E	0.49	33.9	-34.1	---	---	720.0	0.026	0.000	19.7	2	1
03/27/06	9:19 a	-18.8	-18.7	-18.8	---	---	27.0	E	0.45	31.3	-33.6	---	---	720.0	0.026	0.000	19.7	2	1
03/27/06	9:20 a	-18.8	-18.8	-18.9	---	---	26.1	E	0.43	28.7	-33.5	---	---	720.1	0.026	0.000	19.7	2	1
03/27/06	9:21 a	-18.9	-18.9	-18.9	---	---	26.1	E	0.43	28.7	-33.7	---	---	720.0	0.026	0.000	19.7	2	1
03/27/06	9:22 a	-19.0	-18.9	-19.0	---	---	24.3	E	0.41	27.0	-33.4	---	---	720.1	0.026	0.000	19.7	2	1
03/27/06	9:23 a	-19.0	-19.0	-19.1	---	---	23.5	E	0.39	26.1	-33.2	---	---	720.0	0.026	0.000	19.7	2	1
03/27/06	9:24 a	-19.1	-19.1	-19.1	---	---	23.5	E	0.39	27.8	-33.2	---	---	720.0	0.026	0.000	19.7	2	1
03/27/06	9:25 a	-19.1	-19.1	-19.2	---	---	26.1	E	0.43	30.4	-33.9	---	---	720.0	0.026	0.000	19.7	2	1
03/27/06	9:26 a	-19.2	-19.2	-19.2	---	---	26.1	E	0.43	28.7	-34.1	---	---	720.0	0.026	0.000	19.7	2	1
03/27/06	9:27 a	-19.3	-19.2	-19.3	---	---	25.2	E	0.42	31.3	-33.9	---	---	720.0	0.026	0.000	19.7	2	1
03/27/06	9:28 a	-19.3	-19.3	-19.3	---	---	26.1	E	0.43	28.7	-34.2	---	---	720.0	0.026	0.000	19.7	2	1
03/27/06	9:29 a	-19.3	-19.3	-19.4	---	---	24.3	E	0.41	28.7	-33.8	---	---	720.1	0.026	0.000	19.7	2	1
03/27/06	9:30 a	-19.4	-19.4	-19.4	---	---	26.1	E	0.43	31.3	-34.3	---	---	720.1	0.026	0.000	19.7	2	1
03/27/06	9:31 a	-19.4	-19.4	-19.5	---	---	27.0	E	0.45	31.3	-34.6	---	---	720.1	0.026	0.000	19.7	2	1
03/27/06	9:32 a	-19.5	-19.5	-19.6	---	---	27.8	E	0.46	31.3	-34.8	---	---	720.0	0.026	0.000	19.6	2	1
03/27/06	9:33 a	-19.6	-19.6	-19.6	---	---	27.0	E	0.45	30.4	-34.7	---	---	720.1	0.026	0.000	19.6	2	1
03/27/06	9:34 a	-19.6	-19.6	-19.7	---	---	27.8	E	0.46	32.2	-34.9	---	---	720.0	0.026	0.000	19.6	2	1
03/27/06	9:35 a	-19.7	-19.7	-19.7	---	---	25.2	E	0.42	29.6	-34.4	---	---	720.1	0.026	0.000	19.6	2	1
03/27/06	9:36 a	-19.7	-19.7	-19.7	---	---	24.3	E	0.41	27.0	-34.3	---	---	720.1	0.026	0.000	19.6	2	1
03/27/06	9:37 a	-19.8	-19.7	-19.8	---	---	27.0	E	0.45	32.2	-35.0	---	---	719.9	0.026	0.000	19.6	2	1
03/27/06	9:38 a	-19.8	-19.8	-19.9	---	---	26.1	E	0.43	30.4	-34.9	---	---	720.0	0.027	0.000	19.6	2	1
03/27/06	9:39 a	-19.9	-19.9	-19.9	---	---	24.3	E	0.41	27.8	-34.6	---	---	720.2	0.027	0.000	19.6	2	1
03/27/06	9:40 a	-19.9	-19.9	-20.0	---	---	24.3	E	0.41	27.0	-34.7	---	---	720.0	0.027	0.000	19.6	2	1
03/27/06	9:41 a	-20.0	-20.0	-20.0	---	---	23.5	E	0.39	28.7	-34.5	---	---	720.1	0.027	0.000	19.6	2	1
03/27/06	9:42 a	-20.1	-20.0	-20.1	---	---	23.5	E	0.39	27.8	-34.6	---	---	720.0	0.027	0.000	19.6	2	1
03/27/06	9:43 a	-20.1	-20.1	-20.1	---	---	27.8	E	0.46	33.0	-35.6	---	---	720.1	0.027	0.000	19.6	2	1
03/27/06	9:44 a	-20.2	-20.2	-20.2	---	---	24.3	E	0.41	29.6	-34.9	---	---	719.9	0.027	0.000	19.5	2	1
03/27/06	9:45 a	-20.2	-20.2	-20.2	---	---	28.7	E	0.48	35.7	-35.9	---	---	720.1	0.027	0.000	19.5	2	1
03/27/06	9:46 a	-20.3	-20.3	-20.3	---	---	23.5	E	0.39	27.8	-34.9	---	---	720.2	0.027	0.000	19.5	2	1
03/27/06	9:47 a	-20.3	-20.3	-20.4	---	---	27.8	E	0.46	33.9	-35.9	---	---	720.1	0.027	0.000	19.5	2	1
03/27/06	9:48 a	-20.4	-20.3	-20.4	---	---	24.3	E	0.41	30.4	-35.2	---	---	720.2	0.027	0.000	19.5	2	1
03/27/06	9:49 a	-20.4	-20.4	-20.4	---	---	27.0	E	0.45	31.3	-35.9	---	---	720.1	0.027	0.000	19.5	2	1
03/27/06	9:50 a	-20.4	-20.4	-20.5	---	---	26.1	E	0.43	30.4	-35.7	---	---	720.0	0.027	0.000	19.5	2	1
03/27/06	9:51 a	-20.6	-20.5	-20.6	---	---	31.3	E	0.52	36.5	-36.9	---	---	720.1	0.027	0.000	19.5	2	1
03/27/06	9:52 a	-20.6	-20.6	-20.6	---	---	31.3	E	0.52	35.7	-37.0	---	---	720.0	0.027	0.000	19.5	2	1
03/27/06	9:53 a	-20.6	-20.6	-20.7	---	---	27.8	E	0.46	32.2	-36.3	---	---	719.8	0.027	0.000	19.5	2	1
03/27/06	9:54 a	-20.7	-20.7	-20.7	---	---	25.2	E	0.42	30.4	-35.8	---	---	719.8	0.027	0.000	19.5	2	1
03/27/06	9:55 a	-20.7	-20.7	-20.8	---	---	27.0	E	0.45	33.0	-36.3	---	---	719.9	0.027	0.000	19.5	2	1
03/27/06	9:56 a	-20.8	-20.8	-20.8	---	---	25.2	E	0.42	31.3	-35.9	---	---	719.9	0.027	0.000	19.5	2	1
03/27/06	9:57 a	-20.8	-20.8	-20.8	---	---	28.7	E	0.48	33.0	-36.8	---	---	719.7	0.027	0.000	19.5	2	1
03/27/06	9:58 a	-20.9	-20.8	-20.9	---	---	29.6	E	0.49	33.0	-37.1	---	---	719.7	0.027	0.000	19.5	2	1
03/27/06	9:59 a	-20.9	-20.9	-20.9	---	---	27.8	E	0.46	33.9	-36.7	---	---	719.8	0.027	0.000	19.5	2	1
03/27/06	10:00 a	-20.9	-20.9	-20.9	---	---	28.7	E	0.48	38.3	-36.9	---	---	719.6	0.027	0.000	19.5	2	1
03/27/06	10:01 a	-21.0	-20.9	-21.0	---	---	27.0	E	0.45	43.5	-36.7	---	---	719.8	0.027	0.000	19.5	2	1
03/27/06	10:02 a	-21.1	-21.0	-21.1	---	---	28.7	E	0.48	34.8	-37.1	---	---	719.6	0.027	0.000	19.5	2	1
03/27/06	10:03 a	-21.1	-21.1	-21.1	---	---	28.7	E	0.48	36.5	-37.1	---	---	719.8	0.027	0.000	19.5	2	1
03/27/06	10:04 a	-21.1	-21.1	-21.2	---	---	26.1	E	0.43	33.0	-36.6	---	---	719.7	0.027	0.000	19.5	2	1
03/27/06	10:05 a	-21.2	-21.2	-21.2	---	---	27.0	E	0.45	34.8	-36.9	---	---	719.9	0.027	0.000	19.5	2	1
03/27/06	10:06 a	-21.2	-21.2	-21.2	---	---	24.3	E	0.41	28.7	-36.4	---	---	719.8	0.027	0.000	19.5	2	1
03/27/06	10:07 a	-21.3	-21.2	-21.3	---	---	27.8	E	0.46	31.3	-37.2	---	---	719.9	0.028	0.000	19.5	2	1
03/27/06	10:08 a	-21.3	-21.3	-21.3	---	---	27.8	E	0.46	29.6	-37.2	---	---	719.9	0.028	0.000	19.6	2	1
03/27/06	10:09 a	-21.3	-21.3	-21.4	---	---	27.8	E	0.46	31.3	-37.3	---	---	720.0	0.028	0.000	19.6	2	1
03/27/06	10:10 a	-21.4	-21.4	-21.4	---	---	25.2	E	0.42	30.4	-36.8	---	---	720.0	0.028	0.000	19.6	2	1
03/27/06	10:11 a	-21.4	-21.4	-21.4	---	---	28.7	E	0.48	40.0	-37.7	---	---	720.1	0.028	0.000	19.6	2	1
03/27/06	10:12 a	-21.4	-21.4	-21.4	---	---	25.2	E	0.42	28.7	-36.9	---	---	719.9	0.028	0.000	19.6	2	1
03/27/06	10:13 a	-21.5	-21.4	-21.5	---	---	27.8	E	0.46	33.0	-37.6	---	---	719.9	0.028	0.000	19.6	2	1
03/27/06	10:14 a	-21.5	-21.5	-21.6	---	---	26.1	E	0.43	33.0	-37.2	---	---	720.0	0.028	0.000	19.6	2	1
03/27/06	10:15 a	-21.6	-21.6	-21.6	---	---	25.2	E	0.42	28.7	-37.0	---	---	720.0	0.028	0.000	19.6	2	1
03/27/06	10:16 a	-21.6	-21.6	-21.6	---	---	30.4	E	0.51	34.8	-38.2	---	---	719.8	0.028	0.000	19.6	2	1
03/27/06	10:17 a	-21.7	-21.6	-21.7	---	---	28.7	E	0.48	34.8	-37.9	---	---	719.8	0.028	0.000	19.6	2	1
03/27/06	10:18 a	-21.7	-21.7	-21.7	---	---	26.1	E	0.43	32.2	-37.4	---	---	719.8	0.028	0.000	19.6	2	1
03/27/06	10:19 a	-21.7	-21.7	-21.7	---	---	27.0	E	0.45	31.3	-37.7	---	---	719.9	0.028	0.000	19.6	2	1
03/27/06	10:20 a	-21.7	-21.7	-21.7	---	---	30.4	E	0.51	37.4	-38.4	---	---	720.0	0.028	0.000	19.6	2	1
03/27/06	10:21 a	-21.7	-21.7	-21.8	---	---	29.6	E	0.49	34.8	-38.2	---	---	719.8	0.028	0.000	19.6	2	1
03/27/06	10:22 a	-21.8	-21.8	-21.8	---	---	28.7	E	0.48	33.9	-38.2	---	---	719.9	0.028	0.000	19.5	2	1
03/27/06	10:23 a	-21.8	-21.8	-21.8	---	---	30.4	E	0.51	35.7	-38.6	---	---	719.8	0.028	0.000	19.5	2	1
03/27/06	10:24 a	-21.9	-21.8	-21.9	---	---	27.0	E	0.45	31.3	-37.9	---	---	719.8	0.028	0.000	19.5	2	1
03/27/06	10:25 a	-21.9	-21.9	-21.9	---	---	31.3	E	0.52	39.1	-38.8	---	---	719.6	0.028	0.000	19.5	2	1
03/27/06	10:26 a	-21.9	-21.9	-21.9	---	---	27.8	E	0.46	29.6	-38.1	---	---	719.9	0.028	0.000	19.5	2	1
03/27/06	10:27 a	-21.9	-21.9	-22.0	---	---	27.8	E	0.46	33.0	-38.1	---	---	719.9	0.028	0.000	19.5	2	1
03/27/06	10:28 a	-22.0	-22.0	-22.1	---	---	30.4	E	0.51	36.5	-38.8	---	---	720.0	0.028	0.000	19.5	2	1
03/27/06	10:29 a	-22.0	-22.0	-22.1	---	---	27.8	E	0.46	34.8	-38.2	---	---	720.0	0.028	0.000	19.5	2	1
03/27/06	10:30 a	-22.1	-22.1	-22.1	---	---	27.8	E	0.46	35.7	-38.3	---	---	720.0	0.028	0.000	19.4	2	1
03/27/06	10:31 a	-22.1	-22.1	-22.1	---	---	29.6	E	0.49	34.8	-38.7	---	---	720.2	0.028	0.000	19.4	2	1
03/27/06	10:32 a	-22.1	-22.1	-22.1	---	---	26.1	E	0.43	31.3	-38.0	---	---	720.0	0.028	0.000	19.4	2	1
03/27/06	10:33 a	-22.2	-22.1	-22.2	---	---	27.8	E	0.46	31.3	-38.4	---	---	720.1	0.028	0.000	19.4	2	1
03/27/06	10:34 a	-22.2	-22.2	-22.2	---	---	27.8	E	0.46	32.2	-38.5	---	---	720.0	0.028	0.000	19.4	2	1
03/27/06	10:35 a	-22.2	-22.2	-22.3	---	---	28.7	E	0.48	33.0	-38.7	---	---	720.0	0.028	0.000	19.4	2	1
03/27/06	10:36 a	-22.3	-22.3	-22.3	---	---	31.3	E	0.52	34.8	-39.3	---	---	719.9	0.028	0.000	19.4	2	1
03/27/06	10:37 a	-22.3	-22.3	-22.3	---	---	30.4	E	0.51	33.9	-39.2	---	---	720.1	0.028	0.000	19.4	2	1
03/27/06	10:38 a	-22.3	-22.3	-22.3	---	---	28.7	E	0.48	33.9	-38.8	---	---	720.2	0.028	0.000	19.4	2	1
03/27/06	10:39 a	-22.3	-22.3	-22.4	---	---	27.0	E	0.45	31.3	-38.5	---	---	720.3	0.028	0.000	19.4	2	1
03/27/06	10:40 a	-22.4	-22.4	-22.4	---	---	28.7	E	0.48	32.2	-38.9	---	---	720.1	0.028	0.000	19.4	2	1
03/27/06	10:41 a	-22.4	-22.4	-22.4	---	---	29.6	E	0.49	34.8	-39.1	---	---	720.3	0.028	0.000	19.4	2	1
03/27/06	10:42 a	-22.5	-22.4	-22.5	---	---	28.7	E	0.48	31.3	-39.1	---	---	720.1	0.028	0.000	19.4	2	1
03/27/06	10:43 a	-22.5	-22.5	-22.6	---	---	29.6	E	0.49	33.9	-39.3	---	---	719.9	0.028	0.000	19.4	2	1
03/27/06	10:44 a	-22.6	-22.6	-22.6	---	---	30.4	E	0.51	33.9	-39.5	---	---	719.9	0.028	0.000	19.4	2	1
03/27/06	10:45 a	-22.6	-22.6	-22.6	---	---	28.7	E	0.48	34.8	-39.2	---	---	720.0	0.028	0.000	19.4	2	1
03/27/06	10:46 a	-22.6	-22.6	-22.6	---	---	30.4	E	0.51	34.8	-39.6	---	---	719.9	0.028	0.000	19.4	2	1
03/27/06	10:47 a	-22.7	-22.7	-22.7	---	---	31.3	E	0.52	34.8	-39.8	---	---	720.0	0.028	0.000	19.4	2	1
03/27/06	10:48 a	-22.7	-22.7	-22.7	---	---	29.6	E	0.49	33.0	-39.5	---	---	719.9	0.028	0.000	19.4	2	1
03/27/06	10:49 a	-22.7	-22.7	-22.7	---	---	32.2	E	0.54	39.1	-40.0	---	---	720.0	0.028	0.000	19.4	2	1
03/27/06	10:50 a	-22.7	-22.7	-22.8	---	---	32.2	E	0.54	35.7	-40.1	---	---	719.9	0.029	0.000	19.4	2	1
03/27/06	10:51 a	-22.8	-22.8	-22.8	---	---	34.8	E	0.58	38.3	-40.7	---	---	719.9	0.029	0.000	19.4	2	1
03/27/06	10:52 a	-22.8	-22.8	-22.8	---	---	33.0	E	0.55	36.5	-40.3	---	---	719.9	0.029	0.000	19.4	2	1
03/27/06	10:53 a	-22.8	-22.8	-22.8	---	---	33.9	E	0.57	37.4	-40.6	---	---	719.9	0.029	0.000	19.4	2	1
03/27/06	10:54 a	-22.8	-22.8	-22.8	---	---	37.4	E	0.62	39.1	-41.2	---	---	719.9	0.029	0.000	19.4	2	1
03/27/06	10:55 a	-22.9	-22.9	-22.9	---	---	36.5	E	0.61	39.1	-41.1	---	---	720.0	0.029	0.000	19.4	2	1
03/27/06	10:56 a	-22.9	-22.9	-22.9	---	---	38.3	ESE	0.64	41.7	-41.4	---	---	719.9	0.029	0.000	19.4	2	1
03/27/06	10:57 a	-22.9	-22.9	-22.9	---	---	33.9	E	0.57	39.1	-40.7	---	---	719.9	0.029	0.000	19.4	2	1
03/27/06	10:58 a	-22.9	-22.9	-22.9	---	---	33.9	E	0.57	40.0	-40.7	---	---	719.8	0.029	0.000	19.4	2	1
03/27/06	10:59 a	-23.0	-23.0	-23.0	---	---	33.9	E	0.57	38.3	-40.8	---	---	719.8	0.029	0.000	19.4	2	1
03/27/06	11:00 a	-23.1	-23.0	-23.1	---	---	33.0	E	0.55	37.4	-40.7	---	---	720.0	0.029	0.000	19.4	2	1
03/27/06	11:01 a	-23.1	-23.1	-23.1	---	---	33.0	E	0.55	39.1	-40.7	---	---	720.0	0.029	0.000	19.4	2	1
03/27/06	11:02 a	-23.1	-23.1	-23.1	---	---	32.2	E	0.54	40.9	-40.6	---	---	719.7	0.029	0.000	19.4	2	1
03/27/06	11:03 a	-23.1	-23.1	-23.1	---	---	35.7	E	0.59	43.5	-41.3	---	---	719.9	0.029	0.000	19.4	2	1
03/27/06	11:04 a	-23.2	-23.1	-23.2	---	---	33.9	E	0.57	39.1	-41.1	---	---	720.0	0.029	0.000	19.4	2	1
03/27/06	11:05 a	-23.2	-23.2	-23.2	---	---	30.4	E	0.51	33.9	-40.4	---	---	720.1	0.029	0.000	19.4	2	1
03/27/06	11:06 a	-23.2	-23.2	-23.2	---	---	30.4	E	0.51	36.5	-40.4	---	---	719.9	0.029	0.000	19.4	2	1
03/27/06	11:07 a	-23.2	-23.2	-23.2	---	---	30.4	E	0.51	37.4	-40.4	---	---	719.9	0.029	0.000	19.4	2	1
03/27/06	11:08 a	-23.2	-23.2	-23.2	---	---	32.2	E	0.54	36.5	-40.8	---	---	719.9	0.029	0.000	19.4	2	1
03/27/06	11:09 a	-23.3	-23.2	-23.3	---	---	32.2	E	0.54	37.4	-40.9	---	---	719.8	0.029	0.000	19.4	2	1
03/27/06	11:10 a	-23.3	-23.3	-23.3	---	---	32.2	E	0.54	39.1	-40.9	---	---	719.8	0.029	0.000	19.4	2	1
03/27/06	11:11 a	-23.3	-23.3	-23.3	---	---	34.8	E	0.58	47.0	-41.4	---	---	719.8	0.029	0.000	19.4	2	1
03/27/06	11:12 a	-23.3	-23.3	-23.3	---	---	32.2	E	0.54	39.1	-40.9	---	---	719.8	0.029	0.000	19.4	2	1
03/27/06	11:13 a	-23.3	-23.3	-23.3	---	---	31.3	E	0.52	38.3	-40.8	---	---	719.8	0.029	0.000	19.4	2	1
03/27/06	11:14 a	-23.3	-23.3	-23.4	---	---	35.7	E	0.59	40.0	-41.6	---	---	719.6	0.029	0.000	19.4	2	1
03/27/06	11:15 a	-23.4	-23.4	-23.4	---	---	30.4	E	0.51	38.3	-40.7	---	---	719.7	0.029	0.000	19.4	2	1
03/27/06	11:16 a	-23.4	-23.4	-23.4	---	---	31.3	E	0.52	37.4	-40.9	---	---	719.7	0.029	0.000	19.3	2	1
03/27/06	11:17 a	-23.4	-23.4	-23.4	---	---	31.3	E	0.52	38.3	-40.9	---	---	719.6	0.029	0.000	19.3	2	1
03/27/06	11:18 a	-23.4	-23.4	-23.4	---	---	33.0	E	0.55	36.5	-41.3	---	---	719.6	0.029	0.000	19.3	2	1
03/27/06	11:19 a	-23.4	-23.4	-23.5	---	---	31.3	E	0.52	39.1	-40.9	---	---	719.7	0.029	0.000	19.3	2	1
03/27/06	11:20 a	-23.5	-23.5	-23.5	---	---	31.3	E	0.52	38.3	-41.0	---	---	719.6	0.029	0.000	19.3	2	1
03/27/06	11:21 a	-23.5	-23.5	-23.6	---	---	30.4	E	0.51	35.7	-40.8	---	---	719.8	0.029	0.000	19.3	2	1
03/27/06	11:22 a	-23.6	-23.5	-23.6	---	---	34.8	E	0.58	41.7	-41.8	---	---	719.6	0.029	0.000	19.3	2	1
03/27/06	11:23 a	-23.6	-23.6	-23.6	---	---	33.0	E	0.55	39.1	-41.4	---	---	719.6	0.029	0.000	19.3	2	1
03/27/06	11:24 a	-23.6	-23.6	-23.6	---	---	30.4	E	0.51	36.5	-40.9	---	---	719.7	0.029	0.000	19.3	2	1
03/27/06	11:25 a	-23.6	-23.6	-23.6	---	---	36.5	E	0.61	52.2	-42.1	---	---	719.2	0.029	0.000	19.3	2	1
03/27/06	11:26 a	-23.6	-23.6	-23.6	---	---	33.0	E	0.55	38.3	-41.5	---	---	719.5	0.029	0.000	19.3	2	1
03/27/06	11:27 a	-23.6	-23.6	-23.6	---	---	30.4	E	0.51	34.8	-40.9	---	---	719.7	0.029	0.000	19.3	2	1
03/27/06	11:28 a	-23.6	-23.6	-23.6	---	---	31.3	E	0.52	38.3	-41.2	---	---	719.7	0.029	0.000	19.3	2	1
03/27/06	11:29 a	-23.6	-23.6	-23.6	---	---	30.4	E	0.51	39.1	-41.0	---	---	719.6	0.029	0.000	19.3	2	1
03/27/06	11:30 a	-23.6	-23.6	-23.6	---	---	36.5	E	0.61	41.7	-42.2	---	---	719.4	0.029	0.000	19.3	2	1
03/27/06	11:31 a	-23.6	-23.6	-23.6	---	---	31.3	E	0.52	37.4	-41.2	---	---	719.7	0.029	0.000	19.3	2	1
03/27/06	11:32 a	-23.6	-23.6	-23.6	---	---	33.9	E	0.57	45.2	-41.7	---	---	719.5	0.029	0.000	19.3	2	1
03/27/06	11:33 a	-23.6	-23.6	-23.6	---	---	30.4	E	0.51	40.9	-41.0	---	---	720.0	0.029	0.000	19.3	2	1
03/27/06	11:34 a	-23.6	-23.6	-23.6	---	---	30.4	E	0.51	36.5	-41.0	---	---	719.9	0.029	0.000	19.3	2	1
03/27/06	11:35 a	-23.6	-23.6	-23.6	---	---	30.4	E	0.51	40.0	-40.9	---	---	719.9	0.029	0.000	19.3	2	1
03/27/06	11:36 a	-23.6	-23.5	-23.6	---	---	30.4	E	0.51	36.5	-40.9	---	---	719.8	0.029	0.000	19.2	2	1
03/27/06	11:37 a	-23.6	-23.5	-23.6	---	---	32.2	E	0.54	40.9	-41.3	---	---	719.8	0.029	0.000	19.2	2	1
03/27/06	11:38 a	-23.5	-23.5	-23.5	---	---	30.4	E	0.51	35.7	-40.8	---	---	719.8	0.029	0.000	19.2	2	1
03/27/06	11:39 a	-23.5	-23.4	-23.5	---	---	28.7	E	0.48	40.9	-40.4	---	---	719.7	0.029	0.000	19.2	2	1
03/27/06	11:40 a	-23.4	-23.4	-23.4	---	---	33.9	E	0.57	39.1	-41.4	---	---	719.9	0.029	0.000	19.2	2	1
03/27/06	11:41 a	-23.4	-23.4	-23.4	---	---	31.3	ESE	0.52	39.1	-40.9	---	---	720.0	0.029	0.000	19.2	2	1
03/27/06	11:42 a	-23.4	-23.4	-23.4	---	---	30.4	E	0.51	39.1	-40.7	---	---	720.1	0.029	0.000	19.2	1	1
03/27/06	11:43 a	-23.4	-23.4	-23.4	---	---	33.9	ESE	0.57	42.6	-41.3	---	---	720.1	0.029	0.000	19.2	2	1
03/27/06	11:44 a	-23.4	-23.4	-23.4	---	---	31.3	E	0.52	38.3	-40.8	---	---	719.9	0.029	0.000	19.2	2	1
03/27/06	11:45 a	-23.3	-23.3	-23.4	---	---	31.3	E	0.52	35.7	-40.8	---	---	720.1	0.029	0.000	19.2	1	1
03/27/06	11:46 a	-23.3	-23.3	-23.3	---	---	33.0	E	0.55	38.3	-41.1	---	---	719.9	0.029	0.000	19.2	2	1
03/27/06	11:47 a	-23.3	-23.3	-23.3	---	---	33.9	E	0.57	40.0	-41.2	---	---	719.8	0.029	0.000	19.2	2	1
03/27/06	11:48 a	-23.3	-23.3	-23.3	---	---	35.7	E	0.59	44.3	-41.5	---	---	719.7	0.029	0.000	19.2	1	1
03/27/06	11:49 a	-23.3	-23.2	-23.3	---	---	35.7	E	0.59	41.7	-41.5	---	---	719.8	0.029	0.000	19.2	1	1
03/27/06	11:50 a	-23.3	-23.2	-23.3	---	---	34.8	E	0.58	45.2	-41.4	---	---	719.8	0.029	0.000	19.2	1	1
03/27/06	11:51 a	-23.2	-23.2	-23.3	---	---	33.9	E	0.57	40.9	-41.1	---	---	719.9	0.029	0.000	19.2	1	1
03/27/06	11:52 a	-23.2	-23.2	-23.2	---	---	31.3	E	0.52	39.1	-40.6	---	---	719.7	0.029	0.000	19.3	1	1
03/27/06	11:53 a	-23.2	-23.2	-23.2	---	---	32.2	E	0.54	41.7	-40.8	---	---	720.0	0.029	0.000	19.2	1	1
03/27/06	11:54 a	-23.2	-23.2	-23.2	---	---	31.3	E	0.52	37.4	-40.6	---	---	719.5	0.029	0.000	19.2	1	1
03/27/06	11:55 a	-23.2	-23.2	-23.2	---	---	34.8	ESE	0.58	47.0	-41.2	---	---	719.6	0.029	0.000	19.2	1	1
03/27/06	11:56 a	-23.2	-23.2	-23.2	---	---	35.7	E	0.59	44.3	-41.4	---	---	719.0	0.029	0.000	19.2	1	1
03/27/06	11:57 a	-23.2	-23.1	-23.2	---	---	37.4	E	0.62	43.5	-41.7	---	---	719.3	0.029	0.000	19.2	1	1
03/27/06	11:58 a	-23.2	-23.1	-23.2	---	---	39.1	E	0.65	47.8	-41.9	---	---	719.4	0.029	0.000	19.2	1	1
03/27/06	11:59 a	-23.2	-23.1	-23.2	---	---	38.3	E	0.64	48.7	-41.8	---	---	719.4	0.029	0.000	19.2	1	1
03/27/06	12:00 p	-23.1	-23.1	-23.2	---	---	37.4	E	0.62	43.5	-41.6	---	---	719.4	0.029	0.000	19.2	1	1
03/27/06	12:01 p	-23.1	-23.1	-23.1	---	---	35.7	E	0.59	43.5	-41.3	---	---	719.6	0.029	0.000	19.2	1	1
03/27/06	12:02 p	-23.1	-23.1	-23.1	---	---	33.9	E	0.57	41.7	-40.9	---	---	719.6	0.029	0.000	19.2	1	1
03/27/06	12:03 p	-23.1	-23.1	-23.1	---	---	34.8	E	0.58	39.1	-41.1	---	---	719.6	0.029	0.000	19.2	2	1
03/27/06	12:04 p	-23.1	-23.1	-23.1	---	---	33.0	E	0.55	37.4	-40.8	---	---	719.6	0.029	0.000	19.2	1	1
03/27/06	12:05 p	-23.1	-23.1	-23.1	---	---	33.9	E	0.57	39.1	-40.9	---	---	719.5	0.029	0.000	19.2	1	1
03/27/06	12:06 p	-23.1	-23.1	-23.1	---	---	35.7	E	0.59	42.6	-41.3	---	---	719.7	0.029	0.000	19.2	2	1
03/27/06	12:07 p	-23.1	-23.1	-23.2	---	---	34.8	E	0.58	43.5	-41.1	---	---	719.8	0.029	0.000	19.2	1	1
03/27/06	12:08 p	-23.2	-23.1	-23.2	---	---	33.0	E	0.55	39.1	-40.9	---	---	719.9	0.029	0.000	19.2	1	1
03/27/06	12:09 p	-23.1	-23.1	-23.2	---	---	32.2	E	0.54	41.7	-40.6	---	---	720.0	0.029	0.000	19.2	1	1
03/27/06	12:10 p	-23.2	-23.2	-23.2	---	---	33.0	E	0.55	35.7	-40.9	---	---	719.8	0.029	0.000	19.2	1	1
03/27/06	12:11 p	-23.2	-23.2	-23.2	---	---	33.0	E	0.55	40.0	-40.9	---	---	719.9	0.029	0.000	19.2	1	1
03/27/06	12:12 p	-23.2	-23.2	-23.2	---	---	30.4	E	0.51	34.8	-40.4	---	---	719.9	0.029	0.000	19.2	1	1
03/27/06	12:13 p	-23.2	-23.2	-23.2	---	---	34.8	E	0.58	40.9	-41.3	---	---	719.9	0.029	0.000	19.2	1	1
03/27/06	12:14 p	-23.2	-23.2	-23.2	---	---	32.2	E	0.54	38.3	-40.7	---	---	719.8	0.029	0.000	19.2	1	1
03/27/06	12:15 p	-23.2	-23.2	-23.2	---	---	34.8	E	0.58	40.0	-41.3	---	---	719.7	0.029	0.000	19.2	1	1
03/27/06	12:16 p	-23.2	-23.2	-23.2	---	---	33.9	E	0.57	40.9	-41.1	---	---	719.9	0.029	0.000	19.1	1	1
03/27/06	12:17 p	-23.2	-23.2	-23.2	---	---	33.0	E	0.55	42.6	-40.9	---	---	720.0	0.029	0.000	19.1	1	1
03/27/06	12:18 p	-23.2	-23.2	-23.2	---	---	33.9	E	0.57	38.3	-41.1	---	---	720.1	0.029	0.000	19.1	1	1
03/27/06	12:19 p	-23.2	-23.2	-23.2	---	---	33.9	E	0.57	40.9	-41.1	---	---	720.1	0.029	0.000	19.1	1	1
03/27/06	12:20 p	-23.2	-23.2	-23.2	---	---	33.0	E	0.55	41.7	-40.9	---	---	720.0	0.029	0.000	19.1	1	1
03/27/06	12:21 p	-23.2	-23.2	-23.2	---	---	33.0	E	0.55	40.0	-40.9	---	---	719.9	0.029	0.000	19.1	1	1
03/27/06	12:22 p	-23.2	-23.2	-23.2	---	---	33.0	E	0.55	38.3	-40.9	---	---	720.1	0.029	0.000	19.1	1	1
03/27/06	12:23 p	-23.2	-23.2	-23.2	---	---	33.0	E	0.55	40.0	-40.9	---	---	720.1	0.029	0.000	19.1	1	1
03/27/06	12:24 p	-23.2	-23.2	-23.2	---	---	33.9	E	0.57	42.6	-41.1	---	---	719.9	0.029	0.000	19.1	1	1
03/27/06	12:25 p	-23.2	-23.2	-23.2	---	---	34.8	ESE	0.58	40.0	-41.3	---	---	720.1	0.029	0.000	19.1	1	1
03/27/06	12:26 p	-23.2	-23.2	-23.2	---	---	30.4	E	0.51	39.1	-40.4	---	---	719.8	0.029	0.000	19.0	1	1
03/27/06	12:27 p	-23.2	-23.2	-23.2	---	---	33.0	E	0.55	40.0	-40.9	---	---	719.7	0.029	0.000	19.0	1	1
03/27/06	12:28 p	-23.2	-23.2	-23.2	---	---	33.0	E	0.55	39.1	-40.9	---	---	719.9	0.029	0.000	19.0	1	1
03/27/06	12:29 p	-23.2	-23.2	-23.2	---	---	33.9	ESE	0.57	39.1	-41.1	---	---	719.8	0.029	0.000	19.0	1	1
03/27/06	12:30 p	-23.2	-23.2	-23.2	---	---	36.5	E	0.61	41.7	-41.5	---	---	719.8	0.029	0.000	19.0	1	1
03/27/06	12:31 p	-23.2	-23.1	-23.2	---	---	34.8	E	0.58	39.1	-41.2	---	---	719.8	0.029	0.000	19.0	1	1
03/27/06	12:32 p	-23.1	-23.1	-23.1	---	---	33.0	E	0.55	38.3	-40.8	---	---	719.8	0.029	0.000	19.0	1	1
03/27/06	12:33 p	-23.1	-23.1	-23.1	---	---	35.7	E	0.59	41.7	-41.3	---	---	719.9	0.029	0.000	18.9	1	1
03/27/06	12:34 p	-23.1	-23.1	-23.1	---	---	32.2	ESE	0.54	41.7	-40.6	---	---	720.0	0.029	0.000	18.9	1	1
03/27/06	12:35 p	-23.1	-23.1	-23.1	---	---	34.8	E	0.58	44.3	-41.1	---	---	719.7	0.029	0.000	18.9	1	1
03/27/06	12:36 p	-23.0	-23.0	-23.0	---	---	33.9	E	0.57	40.9	-40.8	---	---	720.0	0.029	0.000	18.9	1	1
03/27/06	12:37 p	-23.0	-23.0	-23.0	---	---	31.3	E	0.52	35.7	-40.3	---	---	720.0	0.029	0.000	18.9	1	1
03/27/06	12:38 p	-22.9	-22.9	-23.0	---	---	35.7	E	0.59	42.6	-41.1	---	---	720.0	0.029	0.000	18.9	1	1
03/27/06	12:39 p	-22.9	-22.9	-22.9	---	---	33.9	E	0.57	40.9	-40.7	---	---	720.0	0.029	0.000	18.9	1	1
03/27/06	12:40 p	-22.9	-22.9	-22.9	---	---	32.2	E	0.54	37.4	-40.3	---	---	720.1	0.029	0.000	18.9	1	1
03/27/06	12:41 p	-22.9	-22.8	-22.9	---	---	35.7	E	0.59	43.5	-41.0	---	---	720.0	0.029	0.000	18.9	1	1
03/27/06	12:42 p	-22.8	-22.8	-22.8	---	---	33.0	E	0.55	38.3	-40.4	---	---	720.0	0.029	0.000	18.9	1	1
03/27/06	12:43 p	-22.8	-22.8	-22.8	---	---	33.0	E	0.55	36.5	-40.3	---	---	720.0	0.029	0.000	18.9	1	1
03/27/06	12:44 p	-22.8	-22.7	-22.8	---	---	34.8	E	0.58	41.7	-40.7	---	---	720.0	0.029	0.000	18.9	1	1
03/27/06	12:45 p	-22.7	-22.7	-22.7	---	---	35.7	E	0.59	40.0	-40.7	---	---	720.0	0.029	0.000	18.9	1	1
03/27/06	12:46 p	-22.7	-22.7	-22.7	---	---	33.9	E	0.57	39.1	-40.3	---	---	720.0	0.028	0.000	18.9	1	1
03/27/06	12:47 p	-22.7	-22.7	-22.7	---	---	36.5	ESE	0.61	43.5	-40.8	---	---	719.9	0.028	0.000	18.9	1	1
03/27/06	12:48 p	-22.6	-22.6	-22.7	---	---	38.3	E	0.64	44.3	-41.1	---	---	719.8	0.028	0.000	18.9	1	1
03/27/06	12:49 p	-22.6	-22.6	-22.6	---	---	31.3	E	0.52	40.9	-39.8	---	---	720.2	0.028	0.000	18.9	1	1
03/27/06	12:50 p	-22.6	-22.6	-22.6	---	---	33.9	ESE	0.57	39.1	-40.2	---	---	720.0	0.028	0.000	18.9	1	1
03/27/06	12:51 p	-22.5	-22.5	-22.6	---	---	33.9	ESE	0.57	36.5	-40.1	---	---	720.1	0.028	0.000	18.9	1	1
03/27/06	12:52 p	-22.5	-22.5	-22.5	---	---	34.8	SE	0.58	40.0	-40.3	---	---	720.2	0.028	0.000	18.9	1	1
03/27/06	12:53 p	-22.5	-22.4	-22.5	---	---	33.0	E	0.55	40.9	-39.9	---	---	719.9	0.028	0.000	18.9	1	1
03/27/06	12:54 p	-22.4	-22.4	-22.4	---	---	36.5	E	0.61	42.6	-40.5	---	---	719.8	0.028	0.000	18.9	1	1
03/27/06	12:55 p	-22.4	-22.4	-22.4	---	---	42.6	ESE	0.71	46.1	-41.5	---	---	719.8	0.028	0.000	18.9	1	1
03/27/06	12:56 p	-22.4	-22.4	-22.4	---	---	37.4	ESE	0.62	48.7	-40.7	---	---	719.8	0.028	0.000	18.8	1	1
03/27/06	12:57 p	-22.3	-22.3	-22.4	---	---	37.4	ESE	0.62	44.3	-40.5	---	---	720.0	0.028	0.000	18.9	1	1
03/27/06	12:58 p	-22.3	-22.3	-22.3	---	---	33.9	E	0.57	44.3	-39.9	---	---	719.8	0.028	0.000	18.8	1	1
03/27/06	12:59 p	-22.3	-22.3	-22.3	---	---	39.1	ESE	0.65	49.6	-40.8	---	---	719.9	0.028	0.000	18.8	1	1
03/27/06	1:00 p	-22.3	-22.3	-22.3	---	---	38.3	ESE	0.64	42.6	-40.7	---	---	720.2	0.028	0.000	18.8	1	1
03/27/06	1:01 p	-22.3	-22.3	-22.3	---	---	34.8	ESE	0.58	40.0	-39.9	---	---	719.9	0.028	0.000	18.8	1	1
03/27/06	1:02 p	-22.2	-22.2	-22.2	---	---	34.8	E	0.58	41.7	-39.9	---	---	720.0	0.028	0.000	18.8	1	1
03/27/06	1:03 p	-22.2	-22.2	-22.3	---	---	38.3	E	0.64	43.5	-40.5	---	---	719.9	0.028	0.000	18.8	1	1
03/27/06	1:04 p	-22.2	-22.2	-22.2	---	---	39.1	ESE	0.65	43.5	-40.7	---	---	719.8	0.028	0.000	18.8	1	1
03/27/06	1:05 p	-22.2	-22.2	-22.2	---	---	35.7	ESE	0.59	39.1	-40.0	---	---	720.1	0.028	0.000	18.8	1	1
03/27/06	1:06 p	-22.2	-22.2	-22.2	---	---	33.9	E	0.57	42.6	-39.7	---	---	720.0	0.028	0.000	18.8	1	1
03/27/06	1:07 p	-22.2	-22.2	-22.2	---	---	33.0	E	0.55	37.4	-39.5	---	---	720.1	0.028	0.000	18.8	1	1
03/27/06	1:08 p	-22.2	-22.1	-22.2	---	---	37.4	ESE	0.62	42.6	-40.3	---	---	720.0	0.028	0.000	18.8	1	1
03/27/06	1:09 p	-22.1	-22.1	-22.1	---	---	36.5	ESE	0.61	40.0	-40.1	---	---	720.1	0.028	0.000	18.8	1	1
03/27/06	1:10 p	-22.1	-22.1	-22.1	---	---	40.0	ESE	0.67	50.4	-40.6	---	---	719.9	0.028	0.000	18.8	1	1
03/27/06	1:11 p	-22.1	-22.1	-22.1	---	---	37.4	ESE	0.62	43.5	-40.1	---	---	720.0	0.028	0.000	18.8	1	1
03/27/06	1:12 p	-22.1	-22.1	-22.1	---	---	35.7	ESE	0.59	40.0	-39.8	---	---	720.0	0.028	0.000	18.8	1	1
03/27/06	1:13 p	-22.1	-22.0	-22.1	---	---	34.8	ESE	0.58	39.1	-39.7	---	---	720.0	0.028	0.000	18.8	1	1
03/27/06	1:14 p	-22.1	-22.1	-22.1	---	---	39.1	ESE	0.65	47.8	-40.4	---	---	719.7	0.028	0.000	18.8	1	1
03/27/06	1:15 p	-22.0	-21.9	-22.0	---	---	35.7	E	0.59	41.7	-39.7	---	---	719.8	0.028	0.000	18.8	1	1
03/27/06	1:16 p	-21.9	-21.9	-22.0	---	---	38.3	ESE	0.64	40.9	-40.1	---	---	719.9	0.028	0.000	18.8	1	1
03/27/06	1:17 p	-21.9	-21.9	-21.9	---	---	39.1	ESE	0.65	43.5	-40.3	---	---	719.7	0.028	0.000	18.8	1	1
03/27/06	1:18 p	-21.9	-21.9	-21.9	---	---	34.8	ESE	0.58	40.0	-39.5	---	---	719.7	0.028	0.000	18.8	1	1
03/27/06	1:19 p	-21.9	-21.9	-21.9	---	---	37.4	ESE	0.62	43.5	-39.9	---	---	719.7	0.028	0.000	18.8	1	1
03/27/06	1:20 p	-21.9	-21.9	-21.9	---	---	38.3	ESE	0.64	41.7	-40.1	---	---	719.9	0.028	0.000	18.7	1	1
03/27/06	1:21 p	-21.9	-21.9	-21.9	---	---	38.3	ESE	0.64	46.1	-40.1	---	---	719.6	0.028	0.000	18.7	1	1
03/27/06	1:22 p	-21.9	-21.9	-21.9	---	---	37.4	ESE	0.62	43.5	-39.9	---	---	719.8	0.028	0.000	18.7	1	1
03/27/06	1:23 p	-21.9	-21.9	-21.9	---	---	40.9	ESE	0.68	44.3	-40.4	---	---	719.6	0.028	0.000	18.7	1	1
03/27/06	1:24 p	-21.8	-21.8	-21.9	---	---	39.1	ESE	0.65	42.6	-40.1	---	---	719.8	0.028	0.000	18.7	1	1
03/27/06	1:25 p	-21.9	-21.8	-21.9	---	---	39.1	ESE	0.65	44.3	-40.2	---	---	719.4	0.028	0.000	18.7	1	1
03/27/06	1:26 p	-21.9	-21.9	-21.9	---	---	39.1	E	0.65	43.5	-40.2	---	---	719.4	0.028	0.000	18.7	1	1
03/27/06	1:27 p	-21.9	-21.8	-21.9	---	---	42.6	ESE	0.71	48.7	-40.7	---	---	719.2	0.028	0.000	18.7	1	1
03/27/06	1:28 p	-21.9	-21.8	-21.9	---	---	40.0	ESE	0.67	45.2	-40.3	---	---	719.8	0.028	0.000	18.7	1	1
03/27/06	1:29 p	-21.9	-21.8	-21.9	---	---	40.9	ESE	0.68	43.5	-40.4	---	---	719.7	0.028	0.000	18.7	1	1
03/27/06	1:30 p	-21.9	-21.9	-21.9	---	---	41.7	ESE	0.70	45.2	-40.6	---	---	719.7	0.028	0.000	18.6	1	1
03/27/06	1:31 p	-21.9	-21.9	-21.9	---	---	37.4	E	0.62	60.0	-39.9	---	---	719.8	0.028	0.000	18.6	1	1
03/27/06	1:32 p	-21.9	-21.8	-21.9	---	---	37.4	ESE	0.62	43.5	-39.9	---	---	719.8	0.028	0.000	18.6	1	1
03/27/06	1:33 p	-21.9	-21.9	-21.9	---	---	38.3	ESE	0.64	42.6	-40.1	---	---	719.9	0.028	0.000	18.6	1	1
03/27/06	1:34 p	-21.9	-21.9	-21.9	---	---	38.3	E	0.64	40.0	-40.1	---	---	719.8	0.028	0.000	18.6	1	1
03/27/06	1:35 p	-21.9	-21.9	-21.9	---	---	40.0	E	0.67	43.5	-40.4	---	---	719.8	0.028	0.000	18.6	1	1
03/27/06	1:36 p	-21.9	-21.9	-21.9	---	---	36.5	ESE	0.61	41.7	-39.8	---	---	719.8	0.028	0.000	18.6	1	1
03/27/06	1:37 p	-21.9	-21.9	-21.9	---	---	37.4	ESE	0.62	42.6	-39.9	---	---	719.8	0.028	0.000	18.6	1	1
03/27/06	1:38 p	-21.9	-21.9	-22.0	---	---	33.9	E	0.57	39.1	-39.3	---	---	719.9	0.028	0.000	18.6	1	1
03/27/06	1:39 p	-22.0	-21.9	-22.0	---	---	32.2	E	0.54	36.5	-39.1	---	---	719.9	0.028	0.000	18.6	1	1
03/27/06	1:40 p	-22.0	-22.0	-22.0	---	---	36.5	E	0.61	43.5	-39.9	---	---	719.9	0.028	0.000	18.6	1	1
03/27/06	1:41 p	-22.1	-22.0	-22.1	---	---	38.3	E	0.64	41.7	-40.3	---	---	720.1	0.028	0.000	18.6	1	1
03/27/06	1:42 p	-22.1	-22.1	-22.1	---	---	35.7	E	0.59	41.7	-39.8	---	---	720.1	0.028	0.000	18.6	1	1
03/27/06	1:43 p	-22.1	-22.1	-22.1	---	---	36.5	E	0.61	40.0	-39.9	---	---	719.9	0.028	0.000	18.6	1	1
03/27/06	1:44 p	-22.1	-22.1	-22.1	---	---	37.4	ESE	0.62	40.9	-40.2	---	---	720.0	0.028	0.000	18.6	1	1
03/27/06	1:45 p	-22.1	-22.1	-22.1	---	---	36.5	ESE	0.61	40.9	-40.1	---	---	720.1	0.028	0.000	18.6	1	1
03/27/06	1:46 p	-22.1	-22.1	-22.2	---	---	36.5	ESE	0.61	40.9	-40.1	---	---	719.9	0.028	0.000	18.6	1	1
03/27/06	1:47 p	-22.1	-22.1	-22.2	---	---	38.3	ESE	0.64	42.6	-40.3	---	---	720.0	0.028	0.000	18.5	1	1
03/27/06	1:48 p	-22.2	-22.2	-22.2	---	---	39.1	ESE	0.65	42.6	-40.6	---	---	719.9	0.028	0.000	18.5	1	1
03/27/06	1:49 p	-22.2	-22.2	-22.2	---	---	38.3	ESE	0.64	40.9	-40.4	---	---	720.0	0.028	0.000	18.5	1	1
03/27/06	1:50 p	-22.2	-22.2	-22.2	---	---	38.3	ESE	0.64	41.7	-40.4	---	---	719.9	0.028	0.000	18.5	1	1
03/27/06	1:51 p	-22.2	-22.2	-22.3	---	---	39.1	ESE	0.65	46.1	-40.7	---	---	719.8	0.028	0.000	18.4	1	1
03/27/06	1:52 p	-22.2	-22.2	-22.3	---	---	37.4	ESE	0.62	41.7	-40.3	---	---	719.9	0.028	0.000	18.4	1	1
03/27/06	1:53 p	-22.2	-22.2	-22.3	---	---	36.5	ESE	0.61	40.9	-40.2	---	---	720.2	0.028	0.000	18.4	1	1
03/27/06	1:54 p	-22.3	-22.3	-22.3	---	---	36.5	ESE	0.61	42.6	-40.3	---	---	720.0	0.028	0.000	18.4	1	1
03/27/06	1:55 p	-22.3	-22.3	-22.3	---	---	36.5	ESE	0.61	40.9	-40.3	---	---	720.1	0.028	0.000	18.4	1	1
03/27/06	1:56 p	-22.3	-22.3	-22.3	---	---	34.8	E	0.58	40.9	-40.1	---	---	720.1	0.028	0.000	18.4	1	1
03/27/06	1:57 p	-22.3	-22.3	-22.3	---	---	35.7	ESE	0.59	40.9	-40.2	---	---	720.1	0.028	0.000	18.4	1	1
03/27/06	1:58 p	-22.3	-22.3	-22.3	---	---	40.0	ESE	0.67	49.6	-40.9	---	---	719.6	0.028	0.000	18.4	1	1
03/27/06	1:59 p	-22.3	-22.3	-22.4	---	---	38.3	E	0.64	45.2	-40.7	---	---	720.0	0.028	0.000	18.4	1	1
03/27/06	2:00 p	-22.3	-22.3	-22.4	---	---	33.9	E	0.57	39.1	-39.9	---	---	720.0	0.028	0.000	18.4	1	1
03/27/06	2:01 p	-22.4	-22.3	-22.4	---	---	40.0	ESE	0.67	50.4	-41.0	---	---	719.9	0.028	0.000	18.4	1	1
03/27/06	2:02 p	-22.4	-22.4	-22.4	---	---	36.5	ESE	0.61	40.0	-40.4	---	---	720.0	0.028	0.000	18.4	1	1
03/27/06	2:03 p	-22.4	-22.4	-22.4	---	---	39.1	ESE	0.65	41.7	-40.9	---	---	720.1	0.028	0.000	18.4	1	1
03/27/06	2:04 p	-22.4	-22.4	-22.4	---	---	37.4	ESE	0.62	42.6	-40.6	---	---	719.8	0.028	0.000	18.4	1	1
03/27/06	2:05 p	-22.4	-22.4	-22.4	---	---	39.1	ESE	0.65	43.5	-40.9	---	---	720.0	0.028	0.000	18.4	1	1
03/27/06	2:06 p	-22.4	-22.4	-22.4	---	---	34.8	ESE	0.58	42.6	-40.1	---	---	720.0	0.028	0.000	18.4	1	1
03/27/06	2:07 p	-22.4	-22.4	-22.4	---	---	37.4	ESE	0.62	42.6	-40.7	---	---	720.2	0.028	0.000	18.4	1	1
03/27/06	2:08 p	-22.4	-22.4	-22.4	---	---	35.7	ESE	0.59	40.9	-40.3	---	---	720.1	0.028	0.000	18.3	1	1
03/27/06	2:09 p	-22.4	-22.4	-22.4	---	---	36.5	ESE	0.61	40.0	-40.4	---	---	720.0	0.028	0.000	18.3	1	1
03/27/06	2:10 p	-22.4	-22.4	-22.4	---	---	40.9	ESE	0.68	47.8	-41.2	---	---	719.9	0.028	0.000	18.3	1	1
03/27/06	2:11 p	-22.4	-22.4	-22.4	---	---	33.0	ESE	0.55	38.3	-39.9	---	---	720.2	0.028	0.000	18.3	1	1
03/27/06	2:12 p	-22.4	-22.4	-22.4	---	---	38.3	ESE	0.64	42.6	-40.8	---	---	720.1	0.028	0.000	18.3	1	1
03/27/06	2:13 p	-22.4	-22.4	-22.4	---	---	34.8	ESE	0.58	39.1	-40.1	---	---	720.1	0.028	0.000	18.3	1	1
03/27/06	2:14 p	-22.4	-22.4	-22.4	---	---	35.7	ESE	0.59	42.6	-40.3	---	---	720.1	0.028	0.000	18.3	1	1
03/27/06	2:15 p	-22.4	-22.4	-22.4	---	---	39.1	ESE	0.65	44.3	-40.9	---	---	719.9	0.028	0.000	18.3	1	1
03/27/06	2:16 p	-22.4	-22.4	-22.4	---	---	36.5	ESE	0.61	40.0	-40.4	---	---	720.1	0.028	0.000	18.3	1	1
03/27/06	2:17 p	-22.4	-22.3	-22.4	---	---	38.3	ESE	0.64	43.5	-40.7	---	---	719.9	0.028	0.000	18.3	1	1
03/27/06	2:18 p	-22.4	-22.3	-22.4	---	---	35.7	ESE	0.59	40.9	-40.3	---	---	720.1	0.028	0.000	18.3	1	1
03/27/06	2:19 p	-22.3	-22.3	-22.4	---	---	37.4	ESE	0.62	40.0	-40.5	---	---	720.0	0.028	0.000	18.3	1	1
03/27/06	2:20 p	-22.4	-22.4	-22.4	---	---	38.3	ESE	0.64	46.1	-40.7	---	---	720.0	0.028	0.000	18.3	1	1
03/27/06	2:21 p	-22.3	-22.3	-22.4	---	---	40.9	ESE	0.68	53.0	-41.1	---	---	719.9	0.028	0.000	18.3	1	1
03/27/06	2:22 p	-22.3	-22.3	-22.3	---	---	39.1	ESE	0.65	42.6	-40.8	---	---	720.0	0.028	0.000	18.3	1	1
03/27/06	2:23 p	-22.3	-22.3	-22.3	---	---	38.3	ESE	0.64	44.3	-40.7	---	---	720.0	0.028	0.000	18.2	1	1
03/27/06	2:24 p	-22.3	-22.3	-22.3	---	---	38.3	ESE	0.64	42.6	-40.7	---	---	720.0	0.028	0.000	18.2	1	1
03/27/06	2:25 p	-22.3	-22.3	-22.3	---	---	37.4	E	0.62	41.7	-40.5	---	---	720.0	0.028	0.000	18.2	1	1
03/27/06	2:26 p	-22.3	-22.3	-22.3	---	---	39.1	E	0.65	42.6	-40.8	---	---	719.8	0.028	0.000	18.2	1	1
03/27/06	2:27 p	-22.3	-22.3	-22.3	---	---	38.3	ESE	0.64	40.9	-40.7	---	---	720.0	0.028	0.000	18.2	1	1
03/27/06	2:28 p	-22.3	-22.3	-22.3	---	---	36.5	ESE	0.61	39.1	-40.3	---	---	720.1	0.028	0.000	18.2	1	1
03/27/06	2:29 p	-22.4	-22.3	-22.4	---	---	35.7	E	0.59	40.9	-40.3	---	---	720.0	0.028	0.000	18.2	1	1
03/27/06	2:30 p	-22.4	-22.3	-22.4	---	---	38.3	ESE	0.64	42.6	-40.7	---	---	720.1	0.028	0.000	18.2	1	1
03/27/06	2:31 p	-22.4	-22.3	-22.4	---	---	38.3	ESE	0.64	42.6	-40.7	---	---	720.2	0.028	0.000	18.2	1	1
03/27/06	2:32 p	-22.4	-22.3	-22.4	---	---	35.7	ESE	0.59	38.3	-40.3	---	---	720.4	0.028	0.000	18.2	1	1
03/27/06	2:33 p	-22.4	-22.4	-22.4	---	---	33.0	E	0.55	38.3	-39.8	---	---	720.1	0.028	0.000	18.2	1	1
03/27/06	2:34 p	-22.4	-22.4	-22.4	---	---	33.0	E	0.55	38.3	-39.9	---	---	720.3	0.028	0.000	18.2	1	1
03/27/06	2:35 p	-22.4	-22.4	-22.4	---	---	39.1	ESE	0.65	49.6	-40.9	---	---	720.3	0.028	0.000	18.2	1	1
03/27/06	2:36 p	-22.4	-22.4	-22.5	---	---	33.9	E	0.57	38.3	-40.1	---	---	720.2	0.028	0.000	18.2	1	1
03/27/06	2:37 p	-22.5	-22.5	-22.5	---	---	32.2	E	0.54	40.9	-39.8	---	---	720.4	0.028	0.000	18.2	1	1
03/27/06	2:38 p	-22.5	-22.5	-22.5	---	---	33.9	E	0.57	38.3	-40.1	---	---	720.4	0.028	0.000	18.2	1	1
03/27/06	2:39 p	-22.5	-22.5	-22.6	---	---	29.6	E	0.49	34.8	-39.3	---	---	720.3	0.028	0.000	18.2	1	1
03/27/06	2:40 p	-22.6	-22.6	-22.6	---	---	29.6	E	0.49	32.2	-39.3	---	---	720.6	0.028	0.000	18.2	1	1
03/27/06	2:41 p	-22.6	-22.6	-22.6	---	---	30.4	E	0.51	36.5	-39.5	---	---	720.6	0.028	0.000	18.2	1	1
03/27/06	2:42 p	-22.6	-22.6	-22.6	---	---	30.4	E	0.51	38.3	-39.6	---	---	720.5	0.028	0.000	18.2	1	1
03/27/06	2:43 p	-22.6	-22.6	-22.7	---	---	31.3	E	0.52	40.9	-39.8	---	---	720.5	0.028	0.000	18.2	1	1
03/27/06	2:44 p	-22.7	-22.7	-22.7	---	---	33.9	ESE	0.57	39.1	-40.3	---	---	720.6	0.028	0.000	18.2	1	1
03/27/06	2:45 p	-22.7	-22.7	-22.7	---	---	33.9	ESE	0.57	40.0	-40.3	---	---	720.4	0.028	0.000	18.2	1	1
03/27/06	2:46 p	-22.7	-22.7	-22.7	---	---	33.0	ESE	0.55	41.7	-40.2	---	---	720.6	0.028	0.000	18.2	1	1
03/27/06	2:47 p	-22.7	-22.7	-22.7	---	---	31.3	E	0.52	36.5	-39.9	---	---	720.5	0.029	0.000	18.2	1	1
03/27/06	2:48 p	-22.7	-22.7	-22.7	---	---	37.4	ESE	0.62	45.2	-41.1	---	---	720.3	0.029	0.000	18.2	1	1
03/27/06	2:49 p	-22.7	-22.7	-22.8	---	---	36.5	ESE	0.61	42.6	-40.9	---	---	720.2	0.029	0.000	18.2	1	1
03/27/06	2:50 p	-22.7	-22.7	-22.7	---	---	37.4	E	0.62	46.1	-41.1	---	---	720.4	0.029	0.000	18.2	1	1
03/27/06	2:51 p	-22.7	-22.7	-22.7	---	---	34.8	ESE	0.58	40.9	-40.6	---	---	720.1	0.029	0.000	18.2	1	1
03/27/06	2:52 p	-22.7	-22.7	-22.8	---	---	37.4	ESE	0.62	43.5	-41.1	---	---	720.0	0.029	0.000	18.2	1	1
03/27/06	2:53 p	-22.8	-22.7	-22.8	---	---	38.3	ESE	0.64	40.9	-41.3	---	---	720.1	0.029	0.000	18.2	1	1
03/27/06	2:54 p	-22.7	-22.7	-22.7	---	---	39.1	ESE	0.65	43.5	-41.3	---	---	720.0	0.029	0.000	18.2	1	1
03/27/06	2:55 p	-22.8	-22.7	-22.8	---	---	40.0	ESE	0.67	44.3	-41.6	---	---	719.7	0.029	0.000	18.1	1	1
03/27/06	2:56 p	-22.7	-22.7	-22.8	---	---	39.1	ESE	0.65	50.4	-41.3	---	---	719.8	0.029	0.000	18.1	1	1
03/27/06	2:57 p	-22.8	-22.7	-22.8	---	---	39.1	ESE	0.65	41.7	-41.4	---	---	720.0	0.029	0.000	18.1	1	1
03/27/06	2:58 p	-22.7	-22.7	-22.7	---	---	39.1	ESE	0.65	43.5	-41.3	---	---	720.0	0.029	0.000	18.1	1	1
03/27/06	2:59 p	-22.7	-22.7	-22.8	---	---	39.1	ESE	0.65	43.5	-41.3	---	---	720.1	0.029	0.000	18.1	1	1
03/27/06	3:00 p	-22.7	-22.7	-22.7	---	---	37.4	ESE	0.62	40.0	-41.1	---	---	720.1	0.029	0.000	18.1	1	1
03/27/06	3:01 p	-22.7	-22.7	-22.7	---	---	37.4	ESE	0.62	40.9	-41.1	---	---	720.2	0.029	0.000	18.1	1	1
03/27/06	3:02 p	-22.7	-22.7	-22.7	---	---	37.4	ESE	0.62	42.6	-41.1	---	---	720.2	0.029	0.000	18.1	1	1
03/27/06	3:03 p	-22.7	-22.7	-22.7	---	---	34.8	ESE	0.58	38.3	-40.6	---	---	720.4	0.029	0.000	18.1	1	1
03/27/06	3:04 p	-22.8	-22.7	-22.8	---	---	34.8	ESE	0.58	39.1	-40.7	---	---	720.3	0.029	0.000	18.1	1	1
03/27/06	3:05 p	-22.7	-22.7	-22.8	---	---	30.4	ESE	0.51	35.7	-39.8	---	---	720.5	0.029	0.000	18.1	1	1
03/27/06	3:06 p	-22.7	-22.7	-22.7	---	---	31.3	E	0.52	36.5	-39.9	---	---	720.5	0.029	0.000	18.1	1	1
03/27/06	3:07 p	-22.7	-22.7	-22.8	---	---	29.6	E	0.49	35.7	-39.6	---	---	720.5	0.029	0.000	18.0	1	1
03/27/06	3:08 p	-22.8	-22.8	-22.8	---	---	28.7	E	0.48	33.0	-39.4	---	---	720.4	0.029	0.000	18.0	1	1
03/27/06	3:09 p	-22.8	-22.8	-22.8	---	---	28.7	E	0.48	33.0	-39.4	---	---	720.3	0.029	0.000	18.0	1	1
03/27/06	3:10 p	-22.8	-22.8	-22.8	---	---	29.6	E	0.49	36.5	-39.7	---	---	720.3	0.029	0.000	18.0	1	1
03/27/06	3:11 p	-22.8	-22.8	-22.8	---	---	30.4	E	0.51	36.5	-39.9	---	---	720.3	0.029	0.000	18.0	1	1
03/27/06	3:12 p	-22.8	-22.8	-22.9	---	---	28.7	E	0.48	31.3	-39.6	---	---	720.3	0.029	0.000	18.0	1	1
03/27/06	3:13 p	-22.9	-22.9	-22.9	---	---	30.4	E	0.51	34.8	-40.0	---	---	720.3	0.029	0.000	18.0	1	1
03/27/06	3:14 p	-22.9	-22.9	-22.9	---	---	31.3	E	0.52	34.8	-40.2	---	---	720.3	0.029	0.000	18.0	1	1
03/27/06	3:15 p	-22.9	-22.9	-22.9	---	---	31.3	E	0.52	34.8	-40.2	---	---	720.3	0.029	0.000	18.0	1	1
03/27/06	3:16 p	-23.0	-23.0	-23.1	---	---	30.4	E	0.51	36.5	-40.1	---	---	720.1	0.029	0.000	18.0	1	1
03/27/06	3:17 p	-23.1	-23.0	-23.1	---	---	32.2	E	0.54	38.3	-40.6	---	---	719.9	0.029	0.000	18.0	1	1
03/27/06	3:18 p	-23.1	-23.1	-23.1	---	---	32.2	E	0.54	36.5	-40.6	---	---	720.0	0.029	0.000	18.0	1	1
03/27/06	3:19 p	-23.1	-23.1	-23.2	---	---	32.2	E	0.54	36.5	-40.6	---	---	720.1	0.029	0.000	18.0	1	1
03/27/06	3:20 p	-23.2	-23.2	-23.2	---	---	33.0	E	0.55	37.4	-40.9	---	---	719.9	0.029	0.000	18.0	1	1
03/27/06	3:21 p	-23.2	-23.2	-23.2	---	---	32.2	E	0.54	37.4	-40.8	---	---	720.1	0.029	0.000	18.0	1	1
03/27/06	3:22 p	-23.3	-23.2	-23.3	---	---	30.4	E	0.51	33.9	-40.5	---	---	720.2	0.029	0.000	18.0	1	1
03/27/06	3:23 p	-23.3	-23.3	-23.3	---	---	30.4	E	0.51	33.9	-40.5	---	---	720.1	0.029	0.000	18.0	1	1
03/27/06	3:24 p	-23.3	-23.3	-23.4	---	---	30.4	E	0.51	34.8	-40.6	---	---	720.2	0.029	0.000	18.0	1	1
03/27/06	3:25 p	-23.4	-23.3	-23.4	---	---	31.3	E	0.52	34.8	-40.8	---	---	720.2	0.029	0.000	18.0	1	1
03/27/06	3:26 p	-23.4	-23.4	-23.4	---	---	32.2	E	0.54	38.3	-41.1	---	---	720.0	0.029	0.000	18.0	1	1
03/27/06	3:27 p	-23.5	-23.5	-23.5	---	---	30.4	E	0.51	36.5	-40.8	---	---	720.3	0.029	0.000	18.0	1	1
03/27/06	3:28 p	-23.5	-23.5	-23.5	---	---	28.7	E	0.48	32.2	-40.4	---	---	720.4	0.029	0.000	18.0	1	1
03/27/06	3:29 p	-23.6	-23.6	-23.6	---	---	30.4	E	0.51	33.0	-40.9	---	---	720.5	0.029	0.000	18.0	1	1
03/27/06	3:30 p	-23.6	-23.6	-23.6	---	---	27.0	E	0.45	30.4	-40.2	---	---	720.4	0.029	0.000	18.0	1	1
03/27/06	3:31 p	-23.6	-23.6	-23.6	---	---	27.0	E	0.45	29.6	-40.2	---	---	720.5	0.029	0.000	18.0	1	1
03/27/06	3:32 p	-23.7	-23.6	-23.7	---	---	29.6	E	0.49	34.8	-40.9	---	---	720.2	0.029	0.000	18.0	1	1
03/27/06	3:33 p	-23.7	-23.7	-23.7	---	---	27.8	E	0.46	32.2	-40.5	---	---	720.5	0.029	0.000	18.0	1	1
03/27/06	3:34 p	-23.7	-23.7	-23.7	---	---	28.7	E	0.48	33.9	-40.8	---	---	720.3	0.029	0.000	18.0	1	1
03/27/06	3:35 p	-23.7	-23.7	-23.8	---	---	27.0	E	0.45	33.0	-40.4	---	---	720.3	0.029	0.000	18.0	1	1
03/27/06	3:36 p	-23.8	-23.7	-23.8	---	---	27.0	E	0.45	30.4	-40.4	---	---	720.4	0.029	0.000	18.0	1	1
03/27/06	3:37 p	-23.8	-23.8	-23.8	---	---	27.0	E	0.45	33.9	-40.4	---	---	720.3	0.029	0.000	18.0	1	1
03/27/06	3:38 p	-23.8	-23.8	-23.8	---	---	27.0	E	0.45	32.2	-40.4	---	---	720.4	0.029	0.000	18.0	1	1
03/27/06	3:39 p	-23.8	-23.8	-23.8	---	---	29.6	E	0.49	33.9	-41.1	---	---	720.3	0.029	0.000	18.0	1	1
03/27/06	3:40 p	-23.8	-23.8	-23.8	---	---	29.6	E	0.49	34.8	-41.1	---	---	720.3	0.029	0.000	18.0	1	1
03/27/06	3:41 p	-23.9	-23.8	-23.9	---	---	27.0	E	0.45	29.6	-40.6	---	---	720.4	0.029	0.000	18.0	1	1
03/27/06	3:42 p	-23.9	-23.9	-23.9	---	---	26.1	E	0.43	30.4	-40.4	---	---	720.3	0.029	0.000	18.0	1	1
03/27/06	3:43 p	-23.9	-23.9	-23.9	---	---	26.1	E	0.43	31.3	-40.4	---	---	720.4	0.029	0.000	18.0	1	1
03/27/06	3:44 p	-23.9	-23.9	-23.9	---	---	25.2	E	0.42	28.7	-40.2	---	---	720.4	0.029	0.000	18.0	1	1
03/27/06	3:45 p	-23.9	-23.9	-23.9	---	---	27.8	E	0.46	34.8	-40.9	---	---	720.5	0.029	0.000	18.0	1	1
03/27/06	3:46 p	-23.9	-23.9	-23.9	---	---	27.0	E	0.45	31.3	-40.7	---	---	720.5	0.029	0.000	18.0	1	1
03/27/06	3:47 p	-24.0	-23.9	-24.0	---	---	27.8	E	0.46	33.9	-40.9	---	---	720.5	0.029	0.000	18.0	1	1
03/27/06	3:48 p	-24.0	-24.0	-24.0	---	---	27.8	E	0.46	31.3	-40.9	---	---	720.4	0.029	0.000	18.0	1	1
03/27/06	3:49 p	-24.0	-24.0	-24.0	---	---	27.8	E	0.46	32.2	-40.9	---	---	720.5	0.029	0.000	18.0	1	1
03/27/06	3:50 p	-24.0	-24.0	-24.0	---	---	27.8	E	0.46	32.2	-40.9	---	---	720.5	0.029	0.000	18.0	1	1
03/27/06	3:51 p	-24.0	-24.0	-24.1	---	---	27.8	E	0.46	31.3	-40.9	---	---	720.3	0.029	0.000	18.0	1	1
03/27/06	3:52 p	-24.1	-24.0	-24.1	---	---	28.7	E	0.48	32.2	-41.2	---	---	720.4	0.029	0.000	18.0	1	1
03/27/06	3:53 p	-24.0	-24.0	-24.1	---	---	27.8	E	0.46	31.3	-40.9	---	---	720.4	0.029	0.000	18.0	1	1
03/27/06	3:54 p	-24.0	-24.0	-24.0	---	---	27.8	E	0.46	31.3	-40.9	---	---	720.4	0.029	0.000	18.0	1	1
03/27/06	3:55 p	-24.0	-24.0	-24.1	---	---	27.8	E	0.46	35.7	-40.9	---	---	720.4	0.029	0.000	18.0	1	1
03/27/06	3:56 p	-24.1	-24.0	-24.1	---	---	27.8	E	0.46	32.2	-41.0	---	---	720.4	0.029	0.000	18.0	1	1
03/27/06	3:57 p	-24.0	-24.0	-24.0	---	---	27.0	E	0.45	32.2	-40.7	---	---	720.3	0.029	0.000	18.0	1	1
03/27/06	3:58 p	-24.1	-24.0	-24.1	---	---	27.8	E	0.46	30.4	-41.0	---	---	720.4	0.029	0.000	18.0	1	1
03/27/06	3:59 p	-24.0	-24.0	-24.1	---	---	27.8	E	0.46	33.9	-40.9	---	---	720.4	0.029	0.000	18.0	1	1
03/27/06	4:00 p	-24.0	-24.0	-24.0	---	---	28.7	E	0.48	33.0	-41.1	---	---	720.4	0.029	0.000	18.0	1	1
03/27/06	4:01 p	-24.0	-24.0	-24.0	---	---	29.6	E	0.49	34.8	-41.3	---	---	720.4	0.029	0.000	18.0	1	1
03/27/06	4:02 p	-23.9	-23.9	-24.0	---	---	28.7	E	0.48	33.9	-41.1	---	---	720.5	0.029	0.000	18.0	1	1
03/27/06	4:03 p	-23.9	-23.9	-24.0	---	---	31.3	E	0.52	36.5	-41.6	---	---	720.4	0.029	0.000	18.0	1	1
03/27/06	4:04 p	-23.9	-23.9	-24.0	---	---	30.4	E	0.51	34.8	-41.4	---	---	720.6	0.029	0.000	18.0	1	1
03/27/06	4:05 p	-23.9	-23.9	-24.0	---	---	27.0	E	0.45	30.4	-40.7	---	---	720.7	0.029	0.000	18.0	1	1
03/27/06	4:06 p	-23.9	-23.9	-23.9	---	---	29.6	E	0.49	37.4	-41.3	---	---	720.6	0.029	0.000	18.0	1	1
03/27/06	4:07 p	-23.9	-23.9	-23.9	---	---	26.1	E	0.43	29.6	-40.4	---	---	720.6	0.029	0.000	18.0	1	1
03/27/06	4:08 p	-23.9	-23.9	-23.9	---	---	26.1	E	0.43	30.4	-40.4	---	---	720.7	0.029	0.000	18.0	1	1
03/27/06	4:09 p	-23.9	-23.9	-23.9	---	---	29.6	E	0.49	32.2	-41.2	---	---	720.7	0.029	0.000	18.0	1	1
03/27/06	4:10 p	-23.9	-23.9	-23.9	---	---	32.2	E	0.54	36.5	-41.7	---	---	720.9	0.029	0.000	18.0	1	1
03/27/06	4:11 p	-23.9	-23.9	-23.9	---	---	25.2	E	0.42	31.3	-40.2	---	---	720.9	0.029	0.000	18.0	1	1
03/27/06	4:12 p	-23.8	-23.8	-23.8	---	---	23.5	ENE	0.39	28.7	-39.7	---	---	721.0	0.029	0.000	18.0	1	1
03/27/06	4:13 p	-23.9	-23.8	-23.9	---	---	22.6	E	0.38	26.1	-39.5	---	---	721.0	0.029	0.000	18.0	1	1
03/27/06	4:14 p	-23.8	-23.8	-23.9	---	---	26.1	E	0.43	29.6	-40.3	---	---	721.0	0.029	0.000	18.0	1	1
03/27/06	4:15 p	-23.8	-23.8	-23.8	---	---	24.3	E	0.41	31.3	-39.9	---	---	721.0	0.029	0.000	18.0	1	1
03/27/06	4:16 p	-23.8	-23.8	-23.8	---	---	24.3	E	0.41	27.8	-39.9	---	---	720.9	0.029	0.000	18.0	1	1
03/27/06	4:17 p	-23.8	-23.8	-23.8	---	---	27.8	E	0.46	31.3	-40.7	---	---	721.0	0.029	0.000	18.0	1	1
03/27/06	4:18 p	-23.8	-23.8	-23.8	---	---	27.8	E	0.46	32.2	-40.7	---	---	720.9	0.029	0.000	18.0	1	1
03/27/06	4:19 p	-23.8	-23.8	-23.8	---	---	26.1	E	0.43	30.4	-40.2	---	---	720.9	0.029	0.000	18.0	1	1
03/27/06	4:20 p	-23.8	-23.8	-23.8	---	---	24.3	E	0.41	28.7	-39.8	---	---	720.9	0.029	0.000	18.0	1	1
03/27/06	4:21 p	-23.8	-23.8	-23.8	---	---	26.1	E	0.43	29.6	-40.2	---	---	720.9	0.029	0.000	18.0	1	1
03/27/06	4:22 p	-23.8	-23.8	-23.8	---	---	25.2	E	0.42	28.7	-40.1	---	---	720.7	0.029	0.000	18.0	1	1
03/27/06	4:23 p	-23.8	-23.7	-23.8	---	---	27.0	E	0.45	31.3	-40.4	---	---	720.8	0.029	0.000	18.0	1	1
03/27/06	4:24 p	-23.8	-23.7	-23.8	---	---	27.8	E	0.46	32.2	-40.7	---	---	720.8	0.029	0.000	18.0	1	1
03/27/06	4:25 p	-23.7	-23.7	-23.8	---	---	27.0	E	0.45	30.4	-40.4	---	---	720.7	0.029	0.000	18.0	1	1
03/27/06	4:26 p	-23.7	-23.7	-23.7	---	---	27.0	E	0.45	30.4	-40.4	---	---	720.9	0.029	0.000	18.0	1	1
03/27/06	4:27 p	-23.7	-23.7	-23.7	---	---	23.5	E	0.39	31.3	-39.5	---	---	720.9	0.029	0.000	18.0	1	1
03/27/06	4:28 p	-23.7	-23.7	-23.7	---	---	24.3	E	0.41	27.8	-39.7	---	---	721.0	0.029	0.000	18.0	1	1
03/27/06	4:29 p	-23.7	-23.7	-23.7	---	---	26.1	E	0.43	30.4	-40.1	---	---	721.0	0.029	0.000	18.0	1	1
03/27/06	4:30 p	-23.7	-23.7	-23.7	---	---	27.8	E	0.46	31.3	-40.5	---	---	720.9	0.029	0.000	18.0	1	1
03/27/06	4:31 p	-23.7	-23.7	-23.7	---	---	27.0	E	0.45	30.4	-40.3	---	---	720.9	0.029	0.000	18.0	1	1
03/27/06	4:32 p	-23.7	-23.7	-23.7	---	---	28.7	ENE	0.48	30.4	-40.7	---	---	720.9	0.029	0.000	18.0	1	1
03/27/06	4:33 p	-23.6	-23.6	-23.6	---	---	29.6	ENE	0.49	33.9	-40.8	---	---	720.9	0.029	0.000	18.0	1	1
03/27/06	4:34 p	-23.6	-23.6	-23.6	---	---	27.8	ENE	0.46	30.4	-40.4	---	---	721.0	0.029	0.000	18.0	1	1
03/27/06	4:35 p	-23.6	-23.6	-23.6	---	---	21.7	E	0.36	26.1	-38.9	---	---	721.1	0.029	0.000	18.0	1	1
03/27/06	4:36 p	-23.6	-23.6	-23.6	---	---	24.3	E	0.41	28.7	-39.5	---	---	721.1	0.029	0.000	18.0	1	1
03/27/06	4:37 p	-23.6	-23.6	-23.6	---	---	27.0	ENE	0.45	30.4	-40.2	---	---	720.9	0.029	0.000	18.0	1	1
03/27/06	4:38 p	-23.6	-23.6	-23.6	---	---	26.1	E	0.43	28.7	-39.9	---	---	721.1	0.029	0.000	18.0	1	1
03/27/06	4:39 p	-23.6	-23.6	-23.6	---	---	20.0	E	0.33	25.2	-38.3	---	---	721.2	0.029	0.000	18.0	1	1
03/27/06	4:40 p	-23.6	-23.6	-23.6	---	---	23.5	E	0.39	27.8	-39.3	---	---	721.1	0.029	0.000	18.0	1	1
03/27/06	4:41 p	-23.6	-23.6	-23.6	---	---	23.5	E	0.39	27.8	-39.3	---	---	721.1	0.029	0.000	18.0	1	1
03/27/06	4:42 p	-23.6	-23.6	-23.6	---	---	19.1	E	0.32	24.3	-38.1	---	---	721.0	0.029	0.000	18.0	1	1
03/27/06	4:43 p	-23.6	-23.5	-23.6	---	---	23.5	E	0.39	32.2	-39.3	---	---	720.9	0.029	0.000	18.0	1	1
03/27/06	4:44 p	-23.6	-23.5	-23.6	---	---	26.1	E	0.43	35.7	-39.9	---	---	721.2	0.029	0.000	18.0	1	1
03/27/06	4:45 p	-23.5	-23.5	-23.5	---	---	17.4	E	0.29	24.3	-37.4	---	---	721.2	0.029	0.000	18.0	1	1
03/27/06	4:46 p	-23.5	-23.5	-23.5	---	---	22.6	E	0.38	31.3	-39.0	---	---	721.2	0.029	0.000	18.0	1	1
03/27/06	4:47 p	-23.4	-23.4	-23.5	---	---	22.6	E	0.38	29.6	-38.9	---	---	721.1	0.029	0.000	18.0	1	1
03/27/06	4:48 p	-23.4	-23.4	-23.4	---	---	20.9	E	0.35	24.3	-38.4	---	---	721.2	0.029	0.000	18.0	1	1
03/27/06	4:49 p	-23.4	-23.4	-23.4	---	---	20.0	ESE	0.33	23.5	-38.2	---	---	721.2	0.029	0.000	18.0	1	1
03/27/06	4:50 p	-23.4	-23.4	-23.4	---	---	21.7	E	0.36	26.1	-38.7	---	---	721.2	0.029	0.000	18.0	1	1
03/27/06	4:51 p	-23.4	-23.4	-23.4	---	---	23.5	E	0.39	27.0	-39.1	---	---	721.1	0.029	0.000	18.0	1	1
03/27/06	4:52 p	-23.4	-23.4	-23.4	---	---	22.6	E	0.38	29.6	-38.8	---	---	721.1	0.029	0.000	18.0	1	1
03/27/06	4:53 p	-23.3	-23.3	-23.4	---	---	24.3	E	0.41	28.7	-39.2	---	---	721.0	0.029	0.000	18.0	1	1
03/27/06	4:54 p	-23.3	-23.3	-23.3	---	---	26.1	E	0.43	31.3	-39.6	---	---	720.9	0.029	0.000	18.0	1	1
03/27/06	4:55 p	-23.3	-23.2	-23.3	---	---	21.7	E	0.36	26.1	-38.4	---	---	721.0	0.029	0.000	18.1	1	1
03/27/06	4:56 p	-23.3	-23.2	-23.3	---	---	22.6	E	0.38	27.0	-38.7	---	---	721.0	0.029	0.000	18.1	1	1
03/27/06	4:57 p	-23.2	-23.2	-23.2	---	---	20.9	E	0.35	27.0	-38.2	---	---	720.9	0.029	0.000	18.2	1	1
03/27/06	4:58 p	-23.2	-23.2	-23.2	---	---	22.6	E	0.38	27.0	-38.6	---	---	721.0	0.029	0.000	18.2	1	1
03/27/06	4:59 p	-23.2	-23.2	-23.2	---	---	23.5	E	0.39	26.1	-38.8	---	---	721.0	0.029	0.000	18.2	1	1
03/27/06	5:00 p	-23.1	-23.1	-23.2	---	---	24.3	E	0.41	26.1	-38.9	---	---	721.0	0.029	0.000	18.3	1	1
03/27/06	5:01 p	-23.1	-23.1	-23.1	---	---	24.3	ENE	0.41	27.8	-38.9	---	---	721.1	0.029	0.000	18.3	1	1
03/27/06	5:02 p	-23.1	-23.1	-23.1	---	---	22.6	E	0.38	27.0	-38.4	---	---	721.0	0.029	0.000	18.3	1	1
03/27/06	5:03 p	-23.0	-23.0	-23.1	---	---	22.6	E	0.38	26.1	-38.3	---	---	720.9	0.029	0.000	18.3	1	1
03/27/06	5:04 p	-23.0	-23.0	-23.0	---	---	22.6	E	0.38	26.1	-38.3	---	---	720.9	0.029	0.000	18.3	1	1
03/27/06	5:05 p	-23.0	-22.9	-23.0	---	---	23.5	E	0.39	27.0	-38.6	---	---	720.9	0.029	0.000	18.3	1	1
03/27/06	5:06 p	-22.9	-22.9	-22.9	---	---	21.7	E	0.36	27.8	-38.0	---	---	721.0	0.029	0.000	18.2	1	1
03/27/06	5:07 p	-22.9	-22.9	-22.9	---	---	22.6	E	0.38	24.3	-38.2	---	---	721.0	0.029	0.000	18.2	1	1
03/27/06	5:08 p	-22.9	-22.8	-22.9	---	---	24.3	E	0.41	28.7	-38.6	---	---	721.1	0.029	0.000	18.2	1	1
03/27/06	5:09 p	-22.8	-22.8	-22.8	---	---	23.5	E	0.39	27.0	-38.3	---	---	721.1	0.029	0.000	18.2	1	1
03/27/06	5:10 p	-22.8	-22.8	-22.8	---	---	22.6	E	0.38	27.8	-38.1	---	---	721.0	0.029	0.000	18.2	1	1
03/27/06	5:11 p	-22.8	-22.8	-22.8	---	---	26.1	E	0.43	30.4	-38.9	---	---	721.0	0.029	0.000	18.2	1	1
03/27/06	5:12 p	-22.8	-22.7	-22.8	---	---	23.5	E	0.39	27.8	-38.2	---	---	721.0	0.029	0.000	18.2	1	1
03/27/06	5:13 p	-22.7	-22.7	-22.8	---	---	21.7	E	0.36	26.1	-37.7	---	---	721.1	0.029	0.000	18.2	1	1
03/27/06	5:14 p	-22.7	-22.7	-22.7	---	---	21.7	E	0.36	29.6	-37.7	---	---	721.1	0.029	0.000	18.2	1	1
03/27/06	5:15 p	-22.7	-22.7	-22.7	---	---	25.2	E	0.42	27.8	-38.5	---	---	721.0	0.028	0.000	18.2	1	1
03/27/06	5:16 p	-22.7	-22.7	-22.7	---	---	24.3	E	0.41	27.0	-38.3	---	---	721.2	0.028	0.000	18.2	1	1
03/27/06	5:17 p	-22.6	-22.6	-22.6	---	---	25.2	E	0.42	28.7	-38.4	---	---	721.0	0.028	0.000	18.2	1	1
03/27/06	5:18 p	-22.6	-22.6	-22.7	---	---	25.2	E	0.42	30.4	-38.4	---	---	721.0	0.028	0.000	18.2	1	1
03/27/06	5:19 p	-22.6	-22.6	-22.6	---	---	27.0	ENE	0.45	29.6	-38.8	---	---	721.0	0.028	0.000	18.2	1	1
03/27/06	5:20 p	-22.6	-22.6	-22.6	---	---	25.2	E	0.42	29.6	-38.4	---	---	721.1	0.028	0.000	18.2	1	1
03/27/06	5:21 p	-22.6	-22.6	-22.6	---	---	20.9	E	0.35	25.2	-37.3	---	---	721.1	0.028	0.000	18.2	1	1
03/27/06	5:22 p	-22.6	-22.6	-22.6	---	---	24.3	E	0.41	29.6	-38.2	---	---	721.2	0.028	0.000	18.2	1	1
03/27/06	5:23 p	-22.6	-22.6	-22.6	---	---	21.7	E	0.36	25.2	-37.5	---	---	721.2	0.028	0.000	18.2	1	1
03/27/06	5:24 p	-22.6	-22.6	-22.6	---	---	23.5	E	0.39	27.0	-37.9	---	---	721.1	0.028	0.000	18.2	1	1
03/27/06	5:25 p	-22.5	-22.5	-22.6	---	---	22.6	E	0.38	26.1	-37.7	---	---	721.0	0.028	0.000	18.2	1	1
03/27/06	5:26 p	-22.5	-22.5	-22.5	---	---	23.5	E	0.39	27.8	-37.9	---	---	720.9	0.028	0.000	18.2	1	1
03/27/06	5:27 p	-22.6	-22.5	-22.6	---	---	24.3	E	0.41	27.8	-38.2	---	---	721.0	0.028	0.000	18.2	1	1
03/27/06	5:28 p	-22.5	-22.5	-22.5	---	---	22.6	E	0.38	27.0	-37.7	---	---	721.1	0.028	0.000	18.2	1	1
03/27/06	5:29 p	-22.5	-22.5	-22.5	---	---	23.5	E	0.39	27.8	-37.9	---	---	721.0	0.028	0.000	18.2	1	1
03/27/06	5:30 p	-22.5	-22.4	-22.5	---	---	24.3	E	0.41	27.8	-38.1	---	---	721.0	0.028	0.000	18.2	1	1
03/27/06	5:31 p	-22.4	-22.4	-22.4	---	---	25.2	E	0.42	32.2	-38.2	---	---	721.0	0.028	0.000	18.2	1	1
03/27/06	5:32 p	-22.4	-22.4	-22.5	---	---	23.5	E	0.39	26.1	-37.8	---	---	721.1	0.028	0.000	18.2	1	1
03/27/06	5:33 p	-22.4	-22.4	-22.5	---	---	25.2	ESE	0.42	28.7	-38.2	---	---	721.0	0.028	0.000	18.2	1	1
03/27/06	5:34 p	-22.4	-22.4	-22.4	---	---	25.2	E	0.42	29.6	-38.2	---	---	721.1	0.028	0.000	18.2	1	1
03/27/06	5:35 p	-22.4	-22.4	-22.4	---	---	24.3	E	0.41	27.8	-38.0	---	---	721.1	0.028	0.000	18.2	1	1
03/27/06	5:36 p	-22.4	-22.4	-22.5	---	---	25.2	E	0.42	27.8	-38.2	---	---	721.0	0.028	0.000	18.1	1	1
03/27/06	5:37 p	-22.4	-22.4	-22.4	---	---	23.5	E	0.39	27.8	-37.8	---	---	721.0	0.028	0.000	18.2	1	1
03/27/06	5:38 p	-22.4	-22.4	-22.4	---	---	26.1	E	0.43	29.6	-38.4	---	---	721.0	0.028	0.000	18.2	1	1
03/27/06	5:39 p	-22.4	-22.4	-22.4	---	---	27.8	E	0.46	31.3	-38.8	---	---	720.9	0.028	0.000	18.2	1	1
03/27/06	5:40 p	-22.4	-22.4	-22.4	---	---	29.6	E	0.49	33.0	-39.2	---	---	721.0	0.028	0.000	18.2	1	1
03/27/06	5:41 p	-22.4	-22.4	-22.4	---	---	29.6	E	0.49	33.0	-39.2	---	---	720.9	0.028	0.000	18.1	1	1
03/27/06	5:42 p	-22.4	-22.4	-22.4	---	---	31.3	E	0.52	34.8	-39.6	---	---	720.8	0.028	0.000	18.1	1	1
03/27/06	5:43 p	-22.4	-22.4	-22.4	---	---	28.7	E	0.48	32.2	-39.0	---	---	721.0	0.028	0.000	18.1	1	1
03/27/06	5:44 p	-22.4	-22.4	-22.4	---	---	32.2	ESE	0.54	38.3	-39.7	---	---	720.9	0.028	0.000	18.1	1	1
03/27/06	5:45 p	-22.4	-22.4	-22.4	---	---	31.3	E	0.52	36.5	-39.6	---	---	720.9	0.028	0.000	18.1	1	1
03/27/06	5:46 p	-22.4	-22.4	-22.5	---	---	31.3	ESE	0.52	34.8	-39.6	---	---	720.9	0.028	0.000	18.1	1	1
03/27/06	5:47 p	-22.4	-22.4	-22.4	---	---	27.0	E	0.45	33.0	-38.6	---	---	721.0	0.028	0.000	18.1	1	1
03/27/06	5:48 p	-22.4	-22.4	-22.5	---	---	24.3	E	0.41	27.0	-38.0	---	---	721.2	0.028	0.000	18.1	1	1
03/27/06	5:49 p	-22.5	-22.4	-22.5	---	---	25.2	E	0.42	28.7	-38.3	---	---	721.2	0.028	0.000	18.1	1	1
03/27/06	5:50 p	-22.5	-22.4	-22.5	---	---	23.5	E	0.39	27.0	-37.9	---	---	721.2	0.028	0.000	18.1	1	1
03/27/06	5:51 p	-22.5	-22.5	-22.5	---	---	22.6	E	0.38	25.2	-37.7	---	---	721.3	0.028	0.000	18.1	1	1
03/27/06	5:52 p	-22.5	-22.5	-22.5	---	---	22.6	E	0.38	26.1	-37.7	---	---	721.2	0.028	0.000	18.1	1	1
03/27/06	5:53 p	-22.6	-22.5	-22.6	---	---	24.3	E	0.41	28.7	-38.2	---	---	721.2	0.028	0.000	18.0	1	1
03/27/06	5:54 p	-22.6	-22.6	-22.6	---	---	23.5	E	0.39	27.0	-37.9	---	---	721.3	0.028	0.000	18.0	1	1
03/27/06	5:55 p	-22.6	-22.6	-22.6	---	---	22.6	E	0.38	25.2	-37.7	---	---	721.2	0.028	0.000	18.0	1	1
03/27/06	5:56 p	-22.6	-22.6	-22.6	---	---	23.5	E	0.39	27.0	-38.0	---	---	721.3	0.028	0.000	18.1	1	1
03/27/06	5:57 p	-22.6	-22.6	-22.6	---	---	23.5	E	0.39	27.0	-38.0	---	---	721.4	0.028	0.000	18.1	1	1
03/27/06	5:58 p	-22.6	-22.6	-22.6	---	---	22.6	E	0.38	26.1	-37.8	---	---	721.3	0.028	0.000	18.1	1	1
03/27/06	5:59 p	-22.6	-22.6	-22.7	---	---	22.6	E	0.38	26.1	-37.8	---	---	721.3	0.028	0.000	18.1	1	1
03/27/06	6:00 p	-22.7	-22.7	-22.7	---	---	25.2	E	0.42	27.8	-38.5	---	---	721.3	0.028	0.000	18.1	1	1
03/27/06	6:01 p	-22.7	-22.7	-22.7	---	---	24.3	E	0.41	27.0	-38.3	---	---	721.3	0.028	0.000	18.2	1	1
03/27/06	6:02 p	-22.7	-22.7	-22.7	---	---	23.5	E	0.39	26.1	-38.1	---	---	721.5	0.028	0.000	18.2	1	1
03/27/06	6:03 p	-22.7	-22.7	-22.7	---	---	23.5	E	0.39	28.7	-38.2	---	---	721.4	0.029	0.000	18.2	1	1
03/27/06	6:04 p	-22.8	-22.7	-22.8	---	---	22.6	E	0.38	27.0	-38.0	---	---	721.4	0.029	0.000	18.3	1	1
03/27/06	6:05 p	-22.8	-22.7	-22.8	---	---	22.6	E	0.38	27.0	-38.0	---	---	721.4	0.029	0.000	18.3	1	1
03/27/06	6:06 p	-22.8	-22.8	-22.8	---	---	24.3	E	0.41	27.8	-38.4	---	---	721.4	0.029	0.000	18.3	1	1
03/27/06	6:07 p	-22.8	-22.8	-22.8	---	---	23.5	E	0.39	27.0	-38.3	---	---	721.4	0.029	0.000	18.3	1	1
03/27/06	6:08 p	-22.8	-22.8	-22.8	---	---	23.5	E	0.39	26.1	-38.3	---	---	721.6	0.029	0.000	18.3	1	1
03/27/06	6:09 p	-22.8	-22.8	-22.9	---	---	21.7	E	0.36	24.3	-37.9	---	---	721.4	0.029	0.000	18.3	1	1
03/27/06	6:10 p	-22.9	-22.9	-22.9	---	---	20.0	E	0.33	23.5	-37.4	---	---	721.6	0.029	0.000	18.3	1	1
03/27/06	6:11 p	-22.9	-22.9	-22.9	---	---	20.0	E	0.33	24.3	-37.4	---	---	721.4	0.029	0.000	18.3	1	1
03/27/06	6:12 p	-22.9	-22.9	-22.9	---	---	20.9	E	0.35	23.5	-37.8	---	---	721.5	0.029	0.000	18.3	1	1
03/27/06	6:13 p	-23.0	-22.9	-23.0	---	---	21.7	E	0.36	27.0	-38.1	---	---	721.6	0.029	0.000	18.3	1	1
03/27/06	6:14 p	-23.0	-23.0	-23.0	---	---	22.6	E	0.38	25.2	-38.3	---	---	721.4	0.029	0.000	18.2	1	1
03/27/06	6:15 p	-23.0	-23.0	-23.0	---	---	22.6	E	0.38	25.2	-38.3	---	---	721.5	0.029	0.000	18.2	1	1
03/27/06	6:16 p	-23.0	-23.0	-23.1	---	---	23.5	E	0.39	27.0	-38.6	---	---	721.5	0.029	0.000	18.2	1	1
03/27/06	6:17 p	-23.1	-23.1	-23.1	---	---	24.3	E	0.41	28.7	-38.8	---	---	721.5	0.029	0.000	18.2	1	1
03/27/06	6:18 p	-23.1	-23.1	-23.1	---	---	21.7	E	0.36	25.2	-38.2	---	---	721.5	0.029	0.000	18.2	1	1
03/27/06	6:19 p	-23.1	-23.1	-23.2	---	---	23.5	E	0.39	30.4	-38.7	---	---	721.4	0.029	0.000	18.2	1	1
03/27/06	6:20 p	-23.2	-23.2	-23.2	---	---	22.6	E	0.38	25.2	-38.6	---	---	721.5	0.029	0.000	18.2	1	1
03/27/06	6:21 p	-23.2	-23.2	-23.2	---	---	23.5	E	0.39	25.2	-38.8	---	---	721.5	0.029	0.000	18.2	1	1
03/27/06	6:22 p	-23.2	-23.2	-23.2	---	---	24.3	E	0.41	29.6	-39.0	---	---	721.4	0.029	0.000	18.2	1	1
03/27/06	6:23 p	-23.2	-23.2	-23.2	---	---	25.2	E	0.42	27.8	-39.3	---	---	721.5	0.029	0.000	18.2	1	1
03/27/06	6:24 p	-23.2	-23.2	-23.2	---	---	27.8	ESE	0.46	31.3	-39.9	---	---	721.4	0.029	0.000	18.2	1	1
03/27/06	6:25 p	-23.2	-23.2	-23.2	---	---	27.8	E	0.46	31.3	-39.9	---	---	721.4	0.029	0.000	18.2	1	1
03/27/06	6:26 p	-23.2	-23.2	-23.3	---	---	27.0	E	0.45	31.3	-39.7	---	---	721.4	0.029	0.000	18.2	1	1
03/27/06	6:27 p	-23.3	-23.3	-23.3	---	---	26.1	E	0.43	29.6	-39.6	---	---	721.3	0.029	0.000	18.2	1	1
03/27/06	6:28 p	-23.3	-23.3	-23.3	---	---	25.2	E	0.42	30.4	-39.3	---	---	721.4	0.029	0.000	18.2	1	1
03/27/06	6:29 p	-23.3	-23.3	-23.3	---	---	27.8	ESE	0.46	30.4	-39.9	---	---	721.4	0.029	0.000	18.2	1	1
03/27/06	6:30 p	-23.3	-23.3	-23.3	---	---	27.8	E	0.46	32.2	-39.9	---	---	721.3	0.029	0.000	18.2	1	1
03/27/06	6:31 p	-23.3	-23.3	-23.3	---	---	27.0	ESE	0.45	29.6	-39.8	---	---	721.5	0.029	0.000	18.2	1	1
03/27/06	6:32 p	-23.3	-23.3	-23.3	---	---	29.6	ESE	0.49	38.3	-40.4	---	---	721.4	0.029	0.000	18.2	1	1
03/27/06	6:33 p	-23.3	-23.3	-23.3	---	---	27.8	ESE	0.46	30.4	-39.9	---	---	721.4	0.029	0.000	18.2	1	1
03/27/06	6:34 p	-23.3	-23.3	-23.3	---	---	27.8	ESE	0.46	33.9	-40.1	---	---	721.4	0.029	0.000	18.1	1	1
03/27/06	6:35 p	-23.3	-23.3	-23.3	---	---	26.1	E	0.43	30.4	-39.6	---	---	721.4	0.029	0.000	18.1	1	1
03/27/06	6:36 p	-23.3	-23.3	-23.3	---	---	27.8	E	0.46	31.3	-40.1	---	---	721.4	0.029	0.000	18.1	1	1
03/27/06	6:37 p	-23.3	-23.3	-23.3	---	---	27.0	ESE	0.45	28.7	-39.8	---	---	721.6	0.029	0.000	18.0	1	1
03/27/06	6:38 p	-23.3	-23.3	-23.3	---	---	27.0	E	0.45	33.0	-39.8	---	---	721.5	0.029	0.000	18.0	1	1
03/27/06	6:39 p	-23.3	-23.3	-23.3	---	---	27.8	E	0.46	30.4	-40.1	---	---	721.5	0.029	0.000	18.0	1	1
03/27/06	6:40 p	-23.3	-23.3	-23.3	---	---	26.1	E	0.43	29.6	-39.6	---	---	721.5	0.029	0.000	18.0	1	1
03/27/06	6:41 p	-23.3	-23.3	-23.3	---	---	28.7	E	0.48	33.0	-40.2	---	---	721.4	0.029	0.000	18.0	1	1
03/27/06	6:42 p	-23.4	-23.3	-23.4	---	---	29.6	ESE	0.49	34.8	-40.5	---	---	721.4	0.029	0.000	18.0	1	1
03/27/06	6:43 p	-23.3	-23.3	-23.3	---	---	31.3	ESE	0.52	38.3	-40.8	---	---	721.5	0.029	0.000	18.0	1	1
03/27/06	6:44 p	-23.3	-23.3	-23.3	---	---	29.6	ESE	0.49	35.7	-40.4	---	---	721.5	0.029	0.000	18.0	1	1
03/27/06	6:45 p	-23.3	-23.3	-23.3	---	---	30.4	ESE	0.51	33.0	-40.6	---	---	721.6	0.029	0.000	18.0	1	1
03/27/06	6:46 p	-23.3	-23.3	-23.3	---	---	29.6	ESE	0.49	33.0	-40.4	---	---	721.5	0.029	0.000	18.0	1	1
03/27/06	6:47 p	-23.3	-23.3	-23.3	---	---	31.3	ESE	0.52	34.8	-40.7	---	---	721.5	0.029	0.000	18.0	1	1
03/27/06	6:48 p	-23.3	-23.3	-23.3	---	---	28.7	ESE	0.48	33.9	-40.2	---	---	721.6	0.029	0.000	18.0	1	1
03/27/06	6:49 p	-23.3	-23.3	-23.3	---	---	28.7	ESE	0.48	31.3	-40.2	---	---	721.6	0.029	0.000	18.0	1	1
03/27/06	6:50 p	-23.3	-23.2	-23.3	---	---	29.6	ESE	0.49	33.0	-40.3	---	---	721.7	0.029	0.000	18.0	1	1
03/27/06	6:51 p	-23.3	-23.2	-23.3	---	---	27.8	ESE	0.46	30.4	-39.9	---	---	721.8	0.029	0.000	18.0	1	1
03/27/06	6:52 p	-23.2	-23.2	-23.2	---	---	28.7	ESE	0.48	31.3	-40.1	---	---	721.6	0.029	0.000	18.0	1	1
03/27/06	6:53 p	-23.2	-23.2	-23.2	---	---	29.6	ESE	0.49	32.2	-40.3	---	---	721.7	0.029	0.000	18.1	1	1
03/27/06	6:54 p	-23.2	-23.2	-23.2	---	---	28.7	ESE	0.48	36.5	-40.1	---	---	721.6	0.029	0.000	18.1	1	1
03/27/06	6:55 p	-23.2	-23.2	-23.2	---	---	27.8	ESE	0.46	29.6	-39.9	---	---	721.7	0.029	0.000	18.1	1	1
03/27/06	6:56 p	-23.2	-23.2	-23.2	---	---	27.0	ESE	0.45	28.7	-39.7	---	---	721.8	0.029	0.000	18.2	1	1
03/27/06	6:57 p	-23.2	-23.2	-23.2	---	---	27.0	ESE	0.45	29.6	-39.7	---	---	721.8	0.029	0.000	18.2	1	1
03/27/06	6:58 p	-23.2	-23.2	-23.2	---	---	26.1	ESE	0.43	28.7	-39.4	---	---	721.7	0.029	0.000	18.2	1	1
03/27/06	6:59 p	-23.2	-23.2	-23.2	---	---	29.6	ESE	0.49	33.9	-40.2	---	---	721.7	0.029	0.000	18.2	1	1
03/27/06	7:00 p	-23.1	-23.1	-23.2	---	---	28.7	ESE	0.48	32.2	-39.9	---	---	721.8	0.029	0.000	18.2	1	1
03/27/06	7:01 p	-23.1	-23.1	-23.2	---	---	29.6	ESE	0.49	32.2	-40.1	---	---	721.8	0.029	0.000	18.2	1	1
03/27/06	7:02 p	-23.1	-23.1	-23.1	---	---	29.6	ESE	0.49	33.9	-40.1	---	---	721.9	0.029	0.000	18.2	1	1
03/27/06	7:03 p	-23.1	-23.1	-23.1	---	---	28.7	ESE	0.48	32.2	-39.9	---	---	721.9	0.029	0.000	18.2	1	1
03/27/06	7:04 p	-23.1	-23.1	-23.1	---	---	27.8	SE	0.46	31.3	-39.7	---	---	721.9	0.029	0.000	18.1	1	1
03/27/06	7:05 p	-23.1	-23.1	-23.1	---	---	28.7	SE	0.48	32.2	-39.8	---	---	721.9	0.029	0.000	18.1	1	1
03/27/06	7:06 p	-23.1	-23.1	-23.1	---	---	28.7	SE	0.48	32.2	-39.8	---	---	721.9	0.029	0.000	18.1	1	1
03/27/06	7:07 p	-23.1	-23.0	-23.1	---	---	27.8	SE	0.46	33.0	-39.7	---	---	722.0	0.029	0.000	18.1	1	1
03/27/06	7:08 p	-23.0	-23.0	-23.0	---	---	29.6	ESE	0.49	33.0	-39.9	---	---	721.9	0.029	0.000	18.1	1	1
03/27/06	7:09 p	-23.0	-23.0	-23.0	---	---	27.8	SE	0.46	32.2	-39.6	---	---	722.1	0.029	0.000	18.1	1	1
03/27/06	7:10 p	-23.0	-23.0	-23.0	---	---	28.7	SE	0.48	33.9	-39.8	---	---	722.0	0.029	0.000	18.1	1	1
03/27/06	7:11 p	-22.9	-22.9	-23.0	---	---	27.0	SE	0.45	31.3	-39.3	---	---	722.0	0.029	0.000	18.1	1	1
03/27/06	7:12 p	-22.9	-22.9	-22.9	---	---	31.3	SE	0.52	36.5	-40.2	---	---	721.8	0.029	0.000	18.1	1	1
03/27/06	7:13 p	-22.9	-22.9	-22.9	---	---	30.4	SE	0.51	32.2	-40.1	---	---	721.9	0.029	0.000	18.1	1	1
03/27/06	7:14 p	-22.9	-22.9	-22.9	---	---	33.0	SE	0.55	34.8	-40.6	---	---	721.9	0.029	0.000	18.1	1	1
03/27/06	7:15 p	-22.9	-22.9	-22.9	---	---	31.3	SE	0.52	33.0	-40.2	---	---	721.9	0.029	0.000	18.0	1	1
03/27/06	7:16 p	-22.9	-22.8	-22.9	---	---	30.4	SE	0.51	33.9	-40.0	---	---	722.0	0.029	0.000	18.0	1	1
03/27/06	7:17 p	-22.8	-22.8	-22.9	---	---	29.6	SE	0.49	32.2	-39.7	---	---	722.0	0.029	0.000	18.0	1	1
03/27/06	7:18 p	-22.8	-22.8	-22.9	---	---	30.4	SE	0.51	32.2	-39.9	---	---	721.9	0.029	0.000	18.0	1	1
03/27/06	7:19 p	-22.8	-22.8	-22.8	---	---	31.3	SE	0.52	33.9	-40.0	---	---	721.9	0.029	0.000	18.0	1	1
03/27/06	7:20 p	-22.8	-22.8	-22.8	---	---	32.2	SE	0.54	37.4	-40.2	---	---	722.0	0.029	0.000	18.0	1	1
03/27/06	7:21 p	-22.8	-22.8	-22.8	---	---	31.3	SE	0.52	34.8	-40.0	---	---	722.0	0.029	0.000	18.0	1	1
03/27/06	7:22 p	-22.8	-22.8	-22.8	---	---	30.4	SE	0.51	34.8	-39.8	---	---	721.9	0.029	0.000	18.0	1	1
03/27/06	7:23 p	-22.7	-22.7	-22.7	---	---	33.9	SE	0.57	37.4	-40.4	---	---	721.8	0.029	0.000	18.0	1	1
03/27/06	7:24 p	-22.7	-22.7	-22.7	---	---	33.9	SSE	0.57	39.1	-40.4	---	---	721.9	0.029	0.000	18.0	1	1
03/27/06	7:25 p	-22.7	-22.7	-22.7	---	---	36.5	SSE	0.61	40.9	-40.8	---	---	721.8	0.028	0.000	18.0	1	1
03/27/06	7:26 p	-22.7	-22.7	-22.7	---	---	36.5	SSE	0.61	42.6	-40.8	---	---	721.8	0.028	0.000	18.0	1	1
03/27/06	7:27 p	-22.7	-22.6	-22.7	---	---	33.9	SSE	0.57	37.4	-40.3	---	---	722.0	0.028	0.000	18.0	1	1
03/27/06	7:28 p	-22.6	-22.6	-22.6	---	---	34.8	SSE	0.58	36.5	-40.4	---	---	721.8	0.028	0.000	18.0	1	1
03/27/06	7:29 p	-22.6	-22.6	-22.6	---	---	33.9	SSE	0.57	38.3	-40.2	---	---	721.9	0.028	0.000	18.0	1	1
03/27/06	7:30 p	-22.6	-22.6	-22.6	---	---	35.7	SSE	0.59	43.5	-40.5	---	---	721.9	0.028	0.000	18.0	1	1
03/27/06	7:31 p	-22.6	-22.5	-22.6	---	---	39.1	SSE	0.65	46.1	-41.1	---	---	721.9	0.028	0.000	18.0	1	1
03/27/06	7:32 p	-22.4	-22.4	-22.5	---	---	38.3	SSE	0.64	40.9	-40.8	---	---	721.8	0.028	0.000	18.0	1	1
03/27/06	7:33 p	-22.4	-22.4	-22.4	---	---	37.4	SSE	0.62	47.8	-40.7	---	---	721.8	0.028	0.000	17.9	1	1
03/27/06	7:34 p	-22.4	-22.3	-22.4	---	---	38.3	SSE	0.64	43.5	-40.7	---	---	721.9	0.028	0.000	17.9	1	1
03/27/06	7:35 p	-22.3	-22.3	-22.4	---	---	35.7	SSE	0.59	46.1	-40.2	---	---	722.1	0.028	0.000	17.9	1	1
03/27/06	7:36 p	-22.3	-22.3	-22.3	---	---	36.5	SSE	0.61	40.9	-40.3	---	---	721.9	0.028	0.000	17.9	1	1
03/27/06	7:37 p	-22.3	-22.2	-22.3	---	---	34.8	SSE	0.58	40.0	-39.9	---	---	722.1	0.028	0.000	17.9	1	1
03/27/06	7:38 p	-22.2	-22.2	-22.2	---	---	33.9	SSE	0.57	35.7	-39.7	---	---	722.1	0.028	0.000	17.9	1	1
03/27/06	7:39 p	-22.2	-22.1	-22.2	---	---	34.8	SSE	0.58	37.4	-39.8	---	---	722.1	0.028	0.000	17.9	1	1
03/27/06	7:40 p	-22.1	-22.1	-22.1	---	---	33.0	SSE	0.55	35.7	-39.4	---	---	722.0	0.028	0.000	17.9	1	1
03/27/06	7:41 p	-22.1	-22.0	-22.1	---	---	32.2	SSE	0.54	35.7	-39.2	---	---	722.0	0.028	0.000	17.9	1	1
03/27/06	7:42 p	-22.0	-21.9	-22.0	---	---	29.6	SSE	0.49	33.0	-38.6	---	---	722.1	0.028	0.000	18.0	1	1
03/27/06	7:43 p	-21.9	-21.9	-22.0	---	---	30.4	SSE	0.51	33.9	-38.7	---	---	722.0	0.028	0.000	18.0	1	1
03/27/06	7:44 p	-21.9	-21.9	-21.9	---	---	31.3	SSE	0.52	37.4	-38.8	---	---	722.1	0.028	0.000	18.1	1	1
03/27/06	7:45 p	-21.9	-21.8	-21.9	---	---	31.3	SSE	0.52	35.7	-38.8	---	---	722.0	0.028	0.000	18.1	1	1
03/27/06	7:46 p	-21.8	-21.8	-21.9	---	---	33.0	SSE	0.55	35.7	-39.1	---	---	722.0	0.028	0.000	18.2	1	1
03/27/06	7:47 p	-21.8	-21.8	-21.9	---	---	33.9	SSE	0.57	38.3	-39.2	---	---	722.1	0.028	0.000	18.2	1	1
03/27/06	7:48 p	-21.8	-21.8	-21.8	---	---	33.9	SSE	0.57	39.1	-39.2	---	---	722.1	0.028	0.000	18.2	1	1
03/27/06	7:49 p	-21.8	-21.8	-21.8	---	---	32.2	SSE	0.54	38.3	-38.8	---	---	722.1	0.028	0.000	18.2	1	1
03/27/06	7:50 p	-21.8	-21.8	-21.8	---	---	33.0	SSE	0.55	37.4	-38.9	---	---	722.0	0.028	0.000	18.2	1	1
03/27/06	7:51 p	-21.8	-21.8	-21.8	---	---	33.9	SSE	0.57	39.1	-39.1	---	---	722.1	0.028	0.000	18.2	1	1
03/27/06	7:52 p	-21.8	-21.8	-21.8	---	---	33.9	SSE	0.57	37.4	-39.1	---	---	722.1	0.028	0.000	18.2	1	1
03/27/06	7:53 p	-21.8	-21.7	-21.8	---	---	33.9	SSE	0.57	38.3	-39.1	---	---	722.1	0.028	0.000	18.2	1	1
03/27/06	7:54 p	-21.8	-21.7	-21.8	---	---	34.8	SSE	0.58	37.4	-39.3	---	---	722.2	0.028	0.000	18.2	1	1
03/27/06	7:55 p	-21.7	-21.7	-21.7	---	---	32.2	SSE	0.54	37.4	-38.7	---	---	722.1	0.028	0.000	18.2	1	1
03/27/06	7:56 p	-21.7	-21.7	-21.7	---	---	32.2	SSE	0.54	36.5	-38.7	---	---	722.2	0.028	0.000	18.2	1	1
03/27/06	7:57 p	-21.7	-21.7	-21.7	---	---	32.2	SSE	0.54	35.7	-38.7	---	---	722.1	0.028	0.000	18.2	1	1
03/27/06	7:58 p	-21.7	-21.7	-21.7	---	---	33.0	SSE	0.55	38.3	-38.9	---	---	722.2	0.028	0.000	18.2	1	1
03/27/06	7:59 p	-21.7	-21.7	-21.7	---	---	33.0	SSE	0.55	37.4	-38.9	---	---	722.2	0.028	0.000	18.1	1	1
03/27/06	8:00 p	-21.7	-21.7	-21.7	---	---	31.3	SSE	0.52	35.7	-38.6	---	---	722.2	0.028	0.000	18.1	1	1
03/27/06	8:01 p	-21.7	-21.7	-21.7	---	---	32.2	SSE	0.54	40.0	-38.7	---	---	722.4	0.028	0.000	18.1	1	1
03/27/06	8:02 p	-21.8	-21.7	-21.8	---	---	32.2	SSE	0.54	34.8	-38.8	---	---	722.2	0.028	0.000	18.1	1	1
03/27/06	8:03 p	-21.7	-21.7	-21.7	---	---	33.0	SSE	0.55	36.5	-38.9	---	---	722.4	0.028	0.000	18.1	1	1
03/27/06	8:04 p	-21.7	-21.7	-21.8	---	---	30.4	SE	0.51	33.0	-38.4	---	---	722.4	0.028	0.000	18.1	1	1
03/27/06	8:05 p	-21.7	-21.7	-21.8	---	---	30.4	SE	0.51	33.9	-38.4	---	---	722.3	0.028	0.000	18.1	1	1
03/27/06	8:06 p	-21.8	-21.8	-21.8	---	---	30.4	SE	0.51	33.0	-38.4	---	---	722.3	0.028	0.000	18.1	1	1
03/27/06	8:07 p	-21.8	-21.8	-21.8	---	---	29.6	SSE	0.49	33.9	-38.3	---	---	722.4	0.028	0.000	18.1	1	1
03/27/06	8:08 p	-21.8	-21.8	-21.8	---	---	31.3	SSE	0.52	33.0	-38.6	---	---	722.4	0.028	0.000	18.1	1	1
03/27/06	8:09 p	-21.8	-21.8	-21.8	---	---	27.8	SSE	0.46	30.4	-38.0	---	---	722.5	0.028	0.000	18.1	1	1
03/27/06	8:10 p	-21.8	-21.8	-21.8	---	---	27.8	SSE	0.46	32.2	-38.0	---	---	722.4	0.028	0.000	18.1	1	1
03/27/06	8:11 p	-21.9	-21.8	-21.9	---	---	28.7	SSE	0.48	31.3	-38.2	---	---	722.4	0.028	0.000	18.1	1	1
03/27/06	8:12 p	-21.9	-21.8	-21.9	---	---	30.4	SSE	0.51	33.9	-38.6	---	---	722.5	0.028	0.000	18.1	1	1
03/27/06	8:13 p	-21.9	-21.9	-21.9	---	---	33.0	SSE	0.55	35.7	-39.1	---	---	722.5	0.028	0.000	18.1	1	1
03/27/06	8:14 p	-21.9	-21.9	-21.9	---	---	31.3	SSE	0.52	36.5	-38.8	---	---	722.5	0.028	0.000	18.1	1	1
03/27/06	8:15 p	-21.9	-21.9	-21.9	---	---	31.3	SSE	0.52	38.3	-38.8	---	---	722.4	0.028	0.000	18.1	1	1
03/27/06	8:16 p	-21.9	-21.9	-21.9	---	---	33.0	SSE	0.55	37.4	-39.1	---	---	722.2	0.028	0.000	18.1	1	1
03/27/06	8:17 p	-21.9	-21.9	-22.0	---	---	32.2	SSE	0.54	36.5	-39.0	---	---	722.3	0.028	0.000	18.1	1	1
03/27/06	8:18 p	-22.0	-22.0	-22.0	---	---	34.8	SSE	0.58	39.1	-39.6	---	---	722.2	0.028	0.000	18.1	1	1
03/27/06	8:19 p	-22.0	-22.0	-22.0	---	---	34.8	SSE	0.58	38.3	-39.6	---	---	722.2	0.028	0.000	18.1	1	1
03/27/06	8:20 p	-22.1	-22.1	-22.1	---	---	35.7	SSE	0.59	41.7	-39.8	---	---	722.2	0.028	0.000	18.1	1	1
03/27/06	8:21 p	-22.1	-22.1	-22.1	---	---	37.4	SSE	0.62	42.6	-40.1	---	---	722.1	0.028	0.000	18.1	1	1
03/27/06	8:22 p	-22.1	-22.1	-22.1	---	---	32.2	SSE	0.54	35.7	-39.3	---	---	722.3	0.028	0.000	18.1	1	1
03/27/06	8:23 p	-22.1	-22.1	-22.1	---	---	30.4	SSE	0.51	33.9	-38.9	---	---	722.4	0.028	0.000	18.1	1	1
03/27/06	8:24 p	-22.1	-22.1	-22.1	---	---	33.0	SSE	0.55	38.3	-39.4	---	---	722.4	0.028	0.000	18.1	1	1
03/27/06	8:25 p	-22.1	-22.1	-22.2	---	---	31.3	SSE	0.52	38.3	-39.1	---	---	722.5	0.028	0.000	18.1	1	1
03/27/06	8:26 p	-22.2	-22.2	-22.2	---	---	31.3	SSE	0.52	34.8	-39.2	---	---	722.5	0.028	0.000	18.0	1	1
03/27/06	8:27 p	-22.2	-22.2	-22.2	---	---	31.3	SSE	0.52	36.5	-39.2	---	---	722.6	0.028	0.000	18.0	1	1
03/27/06	8:28 p	-22.2	-22.2	-22.2	---	---	31.3	SSE	0.52	37.4	-39.2	---	---	722.4	0.028	0.000	18.0	1	1
03/27/06	8:29 p	-22.3	-22.2	-22.3	---	---	30.4	SSE	0.51	34.8	-39.2	---	---	722.5	0.028	0.000	18.0	1	1
03/27/06	8:30 p	-22.3	-22.2	-22.3	---	---	30.4	SSE	0.51	32.2	-39.2	---	---	722.5	0.028	0.000	18.0	1	1
03/27/06	8:31 p	-22.3	-22.3	-22.3	---	---	29.6	SSE	0.49	33.9	-39.1	---	---	722.7	0.028	0.000	18.0	1	1
03/27/06	8:32 p	-22.3	-22.3	-22.3	---	---	27.8	SSE	0.46	30.4	-38.7	---	---	722.6	0.028	0.000	18.0	1	1
03/27/06	8:33 p	-22.3	-22.3	-22.3	---	---	30.4	SSE	0.51	34.8	-39.2	---	---	722.6	0.028	0.000	18.0	1	1
03/27/06	8:34 p	-22.3	-22.3	-22.4	---	---	31.3	SSE	0.52	34.8	-39.4	---	---	722.7	0.028	0.000	18.0	1	1
03/27/06	8:35 p	-22.4	-22.4	-22.4	---	---	28.7	SSE	0.48	31.3	-38.9	---	---	722.6	0.028	0.000	18.0	1	1
03/27/06	8:36 p	-22.4	-22.4	-22.4	---	---	26.1	SE	0.43	28.7	-38.4	---	---	722.6	0.028	0.000	18.0	1	1
03/27/06	8:37 p	-22.4	-22.4	-22.4	---	---	27.8	SSE	0.46	31.3	-38.8	---	---	722.6	0.028	0.000	18.0	1	1
03/27/06	8:38 p	-22.4	-22.4	-22.5	---	---	25.2	SSE	0.42	27.8	-38.2	---	---	722.8	0.028	0.000	18.0	1	1
03/27/06	8:39 p	-22.4	-22.4	-22.5	---	---	26.1	SSE	0.43	27.8	-38.4	---	---	722.8	0.028	0.000	18.0	1	1
03/27/06	8:40 p	-22.5	-22.5	-22.5	---	---	26.1	SSE	0.43	29.6	-38.5	---	---	722.8	0.028	0.000	18.0	1	1
03/27/06	8:41 p	-22.5	-22.5	-22.6	---	---	23.5	SE	0.39	27.0	-37.9	---	---	722.7	0.028	0.000	18.0	1	1
03/27/06	8:42 p	-22.5	-22.5	-22.6	---	---	23.5	SSE	0.39	28.7	-37.9	---	---	722.8	0.028	0.000	18.1	1	1
03/27/06	8:43 p	-22.6	-22.6	-22.6	---	---	25.2	SSE	0.42	29.6	-38.4	---	---	722.8	0.028	0.000	18.1	1	1
03/27/06	8:44 p	-22.6	-22.6	-22.6	---	---	22.6	SE	0.38	25.2	-37.7	---	---	722.7	0.028	0.000	18.2	1	1
03/27/06	8:45 p	-22.6	-22.6	-22.6	---	---	21.7	SSE	0.36	23.5	-37.6	---	---	722.8	0.028	0.000	18.2	1	1
03/27/06	8:46 p	-22.6	-22.6	-22.6	---	---	20.9	SE	0.35	23.5	-37.3	---	---	722.8	0.028	0.000	18.2	1	1
03/27/06	8:47 p	-22.6	-22.6	-22.7	---	---	21.7	SE	0.36	23.5	-37.6	---	---	722.8	0.028	0.000	18.3	1	1
03/27/06	8:48 p	-22.7	-22.7	-22.7	---	---	20.0	SE	0.33	21.7	-37.2	---	---	722.8	0.028	0.000	18.3	1	1
03/27/06	8:49 p	-22.7	-22.7	-22.7	---	---	21.7	SE	0.36	22.6	-37.7	---	---	722.7	0.028	0.000	18.3	1	1
03/27/06	8:50 p	-22.7	-22.7	-22.7	---	---	21.7	SE	0.36	25.2	-37.7	---	---	722.6	0.028	0.000	18.3	1	1
03/27/06	8:51 p	-22.7	-22.7	-22.7	---	---	26.1	SE	0.43	27.8	-38.7	---	---	722.6	0.028	0.000	18.3	1	1
03/27/06	8:52 p	-22.7	-22.7	-22.7	---	---	27.0	ESE	0.45	28.7	-39.0	---	---	722.5	0.029	0.000	18.3	1	1
03/27/06	8:53 p	-22.7	-22.7	-22.7	---	---	27.8	ESE	0.46	29.6	-39.2	---	---	722.5	0.029	0.000	18.3	1	1
03/27/06	8:54 p	-22.7	-22.7	-22.7	---	---	27.0	ESE	0.45	27.8	-39.0	---	---	722.6	0.029	0.000	18.2	1	1
03/27/06	8:55 p	-22.7	-22.7	-22.7	---	---	27.0	ESE	0.45	27.8	-39.0	---	---	722.6	0.029	0.000	18.2	1	1
03/27/06	8:56 p	-22.7	-22.7	-22.7	---	---	27.0	ESE	0.45	27.8	-39.0	---	---	722.5	0.029	0.000	18.2	1	1
03/27/06	8:57 p	-22.7	-22.7	-22.8	---	---	27.0	ESE	0.45	27.8	-39.0	---	---	722.6	0.029	0.000	18.2	1	1
03/27/06	8:58 p	-22.7	-22.7	-22.8	---	---	27.0	ESE	0.45	28.7	-39.0	---	---	722.5	0.029	0.000	18.2	1	1
03/27/06	8:59 p	-22.8	-22.7	-22.8	---	---	27.8	ESE	0.46	28.7	-39.3	---	---	722.6	0.029	0.000	18.2	1	1
03/27/06	9:00 p	-22.8	-22.7	-22.8	---	---	27.8	ESE	0.46	29.6	-39.3	---	---	722.6	0.029	0.000	18.2	1	1
03/27/06	9:01 p	-22.8	-22.8	-22.8	---	---	27.8	ESE	0.46	29.6	-39.3	---	---	722.6	0.029	0.000	18.2	1	1
03/27/06	9:02 p	-22.8	-22.8	-22.8	---	---	27.8	ESE	0.46	30.4	-39.3	---	---	722.5	0.029	0.000	18.2	1	1
03/27/06	9:03 p	-22.7	-22.7	-22.7	---	---	30.4	ESE	0.51	33.0	-39.8	---	---	722.7	0.029	0.000	18.2	1	1
03/27/06	9:04 p	-22.7	-22.7	-22.8	---	---	29.6	ESE	0.49	30.4	-39.6	---	---	722.8	0.029	0.000	18.2	1	1
03/27/06	9:05 p	-22.8	-22.8	-22.8	---	---	27.8	ESE	0.46	29.6	-39.3	---	---	722.7	0.029	0.000	18.1	1	1
03/27/06	9:06 p	-22.8	-22.8	-22.8	---	---	27.0	E	0.45	28.7	-39.1	---	---	722.8	0.029	0.000	18.1	1	1
03/27/06	9:07 p	-22.8	-22.8	-22.8	---	---	26.1	E	0.43	27.0	-38.9	---	---	722.8	0.029	0.000	18.1	1	1
03/27/06	9:08 p	-22.8	-22.8	-22.8	---	---	25.2	E	0.42	27.8	-38.7	---	---	722.9	0.029	0.000	18.1	1	1
03/27/06	9:09 p	-22.8	-22.8	-22.8	---	---	23.5	E	0.39	26.1	-38.3	---	---	722.9	0.029	0.000	18.1	1	1
03/27/06	9:10 p	-22.8	-22.8	-22.8	---	---	23.5	E	0.39	26.1	-38.3	---	---	722.9	0.029	0.000	18.1	1	1
03/27/06	9:11 p	-22.8	-22.8	-22.8	---	---	23.5	E	0.39	25.2	-38.3	---	---	722.9	0.029	0.000	18.1	1	1
03/27/06	9:12 p	-22.9	-22.8	-22.9	---	---	23.5	E	0.39	26.1	-38.4	---	---	722.9	0.029	0.000	18.1	1	1
03/27/06	9:13 p	-22.8	-22.8	-22.9	---	---	23.5	E	0.39	25.2	-38.3	---	---	722.9	0.029	0.000	18.1	1	1
03/27/06	9:14 p	-22.9	-22.8	-22.9	---	---	22.6	E	0.38	25.2	-38.2	---	---	723.0	0.029	0.000	18.1	1	1
03/27/06	9:15 p	-22.9	-22.9	-22.9	---	---	24.3	E	0.41	27.8	-38.6	---	---	722.8	0.029	0.000	18.1	1	1
03/27/06	9:16 p	-22.9	-22.9	-22.9	---	---	22.6	E	0.38	25.2	-38.2	---	---	722.9	0.029	0.000	18.1	1	1
03/27/06	9:17 p	-22.9	-22.9	-22.9	---	---	23.5	E	0.39	26.1	-38.4	---	---	722.8	0.029	0.000	18.1	1	1
03/27/06	9:18 p	-22.9	-22.9	-22.9	---	---	25.2	E	0.42	27.8	-38.9	---	---	722.9	0.029	0.000	18.1	1	1
03/27/06	9:19 p	-22.9	-22.9	-22.9	---	---	25.2	E	0.42	27.8	-38.9	---	---	722.8	0.029	0.000	18.1	1	1
03/27/06	9:20 p	-22.9	-22.9	-23.0	---	---	27.8	E	0.46	33.0	-39.5	---	---	722.8	0.029	0.000	18.1	1	1
03/27/06	9:21 p	-23.0	-23.0	-23.0	---	---	27.0	E	0.45	29.6	-39.4	---	---	722.9	0.029	0.000	18.1	1	1
03/27/06	9:22 p	-23.0	-23.0	-23.0	---	---	28.7	E	0.48	33.0	-39.8	---	---	722.9	0.029	0.000	18.1	1	1
03/27/06	9:23 p	-23.1	-23.0	-23.1	---	---	27.0	E	0.45	31.3	-39.4	---	---	722.8	0.029	0.000	18.1	1	1
03/27/06	9:24 p	-23.1	-23.0	-23.1	---	---	27.8	E	0.46	31.3	-39.7	---	---	722.8	0.029	0.000	18.1	1	1
03/27/06	9:25 p	-23.1	-23.1	-23.1	---	---	28.7	E	0.48	31.3	-39.8	---	---	722.8	0.029	0.000	18.1	1	1
03/27/06	9:26 p	-23.1	-23.1	-23.1	---	---	27.0	E	0.45	33.0	-39.6	---	---	722.8	0.029	0.000	18.1	1	1
03/27/06	9:27 p	-23.1	-23.1	-23.2	---	---	28.7	E	0.48	33.0	-39.9	---	---	722.8	0.029	0.000	18.1	1	1
03/27/06	9:28 p	-23.2	-23.2	-23.2	---	---	28.7	E	0.48	32.2	-40.0	---	---	722.9	0.029	0.000	18.1	1	1
03/27/06	9:29 p	-23.2	-23.2	-23.2	---	---	30.4	E	0.51	33.9	-40.4	---	---	722.8	0.029	0.000	18.1	1	1
03/27/06	9:30 p	-23.2	-23.2	-23.2	---	---	30.4	E	0.51	33.9	-40.4	---	---	722.9	0.029	0.000	18.1	1	1
03/27/06	9:31 p	-23.2	-23.2	-23.2	---	---	26.1	E	0.43	29.6	-39.5	---	---	722.9	0.029	0.000	18.1	1	1
03/27/06	9:32 p	-23.3	-23.3	-23.3	---	---	28.7	E	0.48	31.3	-40.2	---	---	722.8	0.029	0.000	18.1	1	1
03/27/06	9:33 p	-23.3	-23.3	-23.3	---	---	28.7	E	0.48	32.2	-40.2	---	---	722.9	0.029	0.000	18.1	1	1
03/27/06	9:34 p	-23.3	-23.3	-23.3	---	---	27.0	E	0.45	31.3	-39.8	---	---	723.0	0.029	0.000	18.1	1	1
03/27/06	9:35 p	-23.3	-23.3	-23.3	---	---	25.2	E	0.42	27.8	-39.3	---	---	723.0	0.029	0.000	18.1	1	1
03/27/06	9:36 p	-23.3	-23.3	-23.3	---	---	27.0	E	0.45	30.4	-39.8	---	---	722.8	0.029	0.000	18.1	1	1
03/27/06	9:37 p	-23.4	-23.3	-23.4	---	---	28.7	ENE	0.48	31.3	-40.3	---	---	722.9	0.029	0.000	18.1	1	1
03/27/06	9:38 p	-23.4	-23.4	-23.4	---	---	27.0	E	0.45	29.6	-39.9	---	---	722.9	0.029	0.000	18.1	1	1
03/27/06	9:39 p	-23.4	-23.4	-23.4	---	---	26.1	E	0.43	28.7	-39.8	---	---	723.0	0.029	0.000	18.1	1	1
03/27/06	9:40 p	-23.4	-23.4	-23.4	---	---	25.2	E	0.42	28.7	-39.6	---	---	722.9	0.029	0.000	18.1	1	1
03/27/06	9:41 p	-23.4	-23.4	-23.4	---	---	24.3	E	0.41	27.8	-39.3	---	---	722.9	0.029	0.000	18.1	1	1
03/27/06	9:42 p	-23.4	-23.4	-23.4	---	---	24.3	E	0.41	28.7	-39.3	---	---	722.9	0.029	0.000	18.1	1	1
03/27/06	9:43 p	-23.4	-23.4	-23.4	---	---	25.2	E	0.42	29.6	-39.6	---	---	722.9	0.029	0.000	18.1	1	1
03/27/06	9:44 p	-23.4	-23.4	-23.4	---	---	29.6	E	0.49	33.0	-40.6	---	---	723.0	0.029	0.000	18.1	1	1
03/27/06	9:45 p	-23.4	-23.4	-23.4	---	---	26.1	E	0.43	30.4	-39.8	---	---	723.0	0.029	0.000	18.1	1	1
03/27/06	9:46 p	-23.4	-23.4	-23.4	---	---	28.7	E	0.48	33.9	-40.3	---	---	722.9	0.029	0.000	18.1	1	1
03/27/06	9:47 p	-23.4	-23.4	-23.4	---	---	28.7	E	0.48	33.0	-40.3	---	---	723.0	0.029	0.000	18.1	1	1
03/27/06	9:48 p	-23.3	-23.3	-23.4	---	---	27.8	E	0.46	31.3	-40.1	---	---	723.0	0.029	0.000	18.1	1	1
03/27/06	9:49 p	-23.3	-23.3	-23.3	---	---	27.8	E	0.46	32.2	-40.1	---	---	723.0	0.029	0.000	18.1	1	1
03/27/06	9:50 p	-23.3	-23.3	-23.3	---	---	28.7	E	0.48	33.0	-40.2	---	---	723.1	0.029	0.000	18.1	1	1
03/27/06	9:51 p	-23.3	-23.3	-23.3	---	---	28.7	ENE	0.48	31.3	-40.2	---	---	723.1	0.029	0.000	18.1	1	1
03/27/06	9:52 p	-23.3	-23.3	-23.3	---	---	29.6	E	0.49	32.2	-40.3	---	---	723.0	0.029	0.000	18.2	1	1
03/27/06	9:54 p	-23.2	-23.2	-23.2	---	---	28.7	ENE	0.48	33.9	-40.1	---	---	722.9	0.029	0.000	18.2	1	1
03/27/06	9:55 p	-23.2	-23.2	-23.2	---	---	29.6	ENE	0.49	33.0	-40.3	---	---	723.0	0.029	0.000	18.2	1	1
03/27/06	9:56 p	-23.2	-23.2	-23.2	---	---	27.8	ENE	0.46	32.2	-39.8	---	---	723.0	0.029	0.000	18.3	1	1
03/27/06	9:57 p	-23.2	-23.1	-23.2	---	---	28.7	ENE	0.48	31.3	-40.0	---	---	722.9	0.029	0.000	18.3	1	1
03/27/06	9:58 p	-23.1	-23.1	-23.1	---	---	30.4	ENE	0.51	33.0	-40.3	---	---	723.0	0.029	0.000	18.3	1	1
03/27/06	9:59 p	-23.1	-23.1	-23.1	---	---	29.6	E	0.49	32.2	-40.1	---	---	723.0	0.029	0.000	18.3	1	1
03/27/06	10:00 p	-23.1	-23.0	-23.1	---	---	28.7	E	0.48	30.4	-39.8	---	---	723.0	0.029	0.000	18.3	1	1
03/27/06	10:01 p	-23.0	-23.0	-23.0	---	---	29.6	ENE	0.49	32.2	-39.9	---	---	723.1	0.029	0.000	18.3	1	1
03/27/06	10:02 p	-23.0	-22.9	-23.0	---	---	28.7	ENE	0.48	32.2	-39.8	---	---	723.0	0.029	0.000	18.3	1	1
03/27/06	10:03 p	-22.9	-22.9	-22.9	---	---	29.6	E	0.49	33.0	-39.9	---	---	723.0	0.029	0.000	18.3	1	1
03/27/06	10:04 p	-22.9	-22.9	-22.9	---	---	29.6	E	0.49	33.0	-39.8	---	---	723.0	0.029	0.000	18.3	1	1
03/27/06	10:05 p	-22.9	-22.9	-22.9	---	---	28.7	ENE	0.48	33.0	-39.6	---	---	723.0	0.029	0.000	18.3	1	1
03/27/06	10:06 p	-22.8	-22.8	-22.9	---	---	29.6	E	0.49	33.0	-39.7	---	---	723.0	0.029	0.000	18.3	1	1
03/27/06	10:07 p	-22.8	-22.8	-22.8	---	---	28.7	E	0.48	33.0	-39.6	---	---	723.0	0.029	0.000	18.3	1	1
03/27/06	10:08 p	-22.8	-22.8	-22.8	---	---	27.8	E	0.46	33.0	-39.3	---	---	723.0	0.029	0.000	18.3	1	1
03/27/06	10:09 p	-22.8	-22.8	-22.8	---	---	27.8	E	0.46	32.2	-39.3	---	---	723.0	0.029	0.000	18.3	1	1
03/27/06	10:10 p	-22.7	-22.7	-22.7	---	---	28.7	E	0.48	33.0	-39.4	---	---	723.0	0.029	0.000	18.3	1	1
03/27/06	10:11 p	-22.7	-22.7	-22.7	---	---	28.7	E	0.48	33.0	-39.4	---	---	722.9	0.029	0.000	18.3	1	1
03/27/06	10:12 p	-22.7	-22.6	-22.7	---	---	29.6	E	0.49	34.8	-39.5	---	---	722.8	0.028	0.000	18.3	1	1
03/27/06	10:13 p	-22.6	-22.6	-22.6	---	---	28.7	E	0.48	32.2	-39.2	---	---	722.8	0.028	0.000	18.3	1	1
03/27/06	10:14 p	-22.6	-22.6	-22.6	---	---	27.8	E	0.46	34.8	-39.0	---	---	722.7	0.028	0.000	18.3	1	1
03/27/06	10:15 p	-22.6	-22.6	-22.6	---	---	32.2	E	0.54	35.7	-39.9	---	---	722.7	0.028	0.000	18.3	1	1
03/27/06	10:16 p	-22.5	-22.5	-22.6	---	---	30.4	E	0.51	35.7	-39.4	---	---	722.7	0.028	0.000	18.3	1	1
03/27/06	10:17 p	-22.5	-22.5	-22.5	---	---	31.3	E	0.52	34.8	-39.6	---	---	722.7	0.028	0.000	18.3	1	1
03/27/06	10:18 p	-22.4	-22.4	-22.4	---	---	30.4	E	0.51	37.4	-39.4	---	---	722.5	0.028	0.000	18.3	1	1
03/27/06	10:19 p	-22.4	-22.4	-22.4	---	---	32.2	E	0.54	38.3	-39.7	---	---	722.4	0.028	0.000	18.3	1	1
03/27/06	10:20 p	-22.4	-22.3	-22.4	---	---	32.2	E	0.54	35.7	-39.6	---	---	722.5	0.028	0.000	18.3	1	1
03/27/06	10:21 p	-22.3	-22.3	-22.3	---	---	31.3	E	0.52	34.8	-39.4	---	---	722.6	0.028	0.000	18.3	1	1
03/27/06	10:22 p	-22.3	-22.3	-22.3	---	---	32.2	E	0.54	36.5	-39.5	---	---	722.5	0.028	0.000	18.2	1	1
03/27/06	10:23 p	-22.3	-22.2	-22.3	---	---	29.6	E	0.49	33.9	-38.9	---	---	722.4	0.028	0.000	18.2	1	1
03/27/06	10:24 p	-22.2	-22.2	-22.2	---	---	30.4	E	0.51	36.5	-39.1	---	---	722.5	0.028	0.000	18.3	1	1
03/27/06	10:25 p	-22.2	-22.2	-22.2	---	---	32.2	E	0.54	38.3	-39.3	---	---	722.4	0.028	0.000	18.2	1	1
03/27/06	10:26 p	-22.1	-22.1	-22.1	---	---	30.4	E	0.51	34.8	-38.9	---	---	722.5	0.028	0.000	18.3	1	1
03/27/06	10:27 p	-22.1	-22.1	-22.1	---	---	27.8	E	0.46	33.0	-38.4	---	---	722.5	0.028	0.000	18.3	1	1
03/27/06	10:28 p	-22.1	-22.0	-22.1	---	---	32.2	E	0.54	37.4	-39.2	---	---	722.5	0.028	0.000	18.2	1	1
03/27/06	10:29 p	-22.0	-21.9	-22.0	---	---	27.8	E	0.46	32.2	-38.2	---	---	722.7	0.028	0.000	18.2	1	1
03/27/06	10:30 p	-21.9	-21.9	-22.0	---	---	27.8	E	0.46	30.4	-38.1	---	---	722.6	0.028	0.000	18.2	1	1
03/27/06	10:31 p	-21.9	-21.9	-21.9	---	---	29.6	E	0.49	33.0	-38.5	---	---	722.6	0.028	0.000	18.2	1	1
03/27/06	10:32 p	-21.9	-21.9	-21.9	---	---	29.6	E	0.49	33.0	-38.4	---	---	722.7	0.028	0.000	18.2	1	1
03/27/06	10:33 p	-21.8	-21.8	-21.8	---	---	29.6	E	0.49	33.9	-38.3	---	---	722.7	0.028	0.000	18.2	1	1
03/27/06	10:34 p	-21.8	-21.8	-21.8	---	---	30.4	E	0.51	34.8	-38.6	---	---	722.5	0.028	0.000	18.2	1	1
03/27/06	10:35 p	-21.8	-21.7	-21.8	---	---	32.2	E	0.54	38.3	-38.8	---	---	722.6	0.028	0.000	18.2	1	1
03/27/06	10:36 p	-21.7	-21.7	-21.7	---	---	27.8	E	0.46	33.9	-37.8	---	---	722.7	0.028	0.000	18.2	1	1
03/27/06	10:37 p	-21.7	-21.7	-21.7	---	---	28.7	E	0.48	33.9	-37.9	---	---	722.6	0.028	0.000	18.2	1	1
03/27/06	10:38 p	-21.7	-21.7	-21.7	---	---	29.6	E	0.49	35.7	-38.1	---	---	722.5	0.028	0.000	18.2	1	1
03/27/06	10:39 p	-21.7	-21.6	-21.7	---	---	28.7	E	0.48	32.2	-37.9	---	---	722.7	0.028	0.000	18.2	1	1
03/27/06	10:40 p	-21.6	-21.6	-21.6	---	---	25.2	E	0.42	33.0	-37.1	---	---	722.7	0.028	0.000	18.2	1	1
03/27/06	10:41 p	-21.6	-21.6	-21.6	---	---	27.8	E	0.46	33.0	-37.7	---	---	722.8	0.028	0.000	18.2	1	1
03/27/06	10:42 p	-21.6	-21.6	-21.6	---	---	29.6	E	0.49	33.9	-37.9	---	---	722.7	0.028	0.000	18.2	1	1
03/27/06	10:43 p	-21.6	-21.5	-21.6	---	---	29.6	E	0.49	33.9	-37.9	---	---	722.7	0.028	0.000	18.2	1	1
03/27/06	10:44 p	-21.5	-21.5	-21.5	---	---	27.0	E	0.45	32.2	-37.3	---	---	722.6	0.028	0.000	18.2	1	1
03/27/06	10:45 p	-21.5	-21.4	-21.5	---	---	29.6	E	0.49	33.0	-37.9	---	---	722.6	0.028	0.000	18.2	1	1
03/27/06	10:46 p	-21.4	-21.4	-21.4	---	---	29.6	E	0.49	33.0	-37.8	---	---	722.6	0.028	0.000	18.2	1	1
03/27/06	10:47 p	-21.4	-21.4	-21.4	---	---	27.0	E	0.45	33.0	-37.3	---	---	722.6	0.028	0.000	18.2	1	1
03/27/06	10:48 p	-21.4	-21.4	-21.4	---	---	30.4	E	0.51	37.4	-38.0	---	---	722.6	0.028	0.000	18.2	1	1
03/27/06	10:49 p	-21.4	-21.4	-21.4	---	---	27.8	E	0.46	31.3	-37.4	---	---	722.7	0.028	0.000	18.2	1	1
03/27/06	10:50 p	-21.4	-21.4	-21.4	---	---	27.8	E	0.46	33.0	-37.4	---	---	722.5	0.028	0.000	18.2	1	1
03/27/06	10:51 p	-21.4	-21.4	-21.4	---	---	28.7	E	0.48	32.2	-37.6	---	---	722.5	0.028	0.000	18.2	1	1
03/27/06	10:52 p	-21.4	-21.4	-21.4	---	---	27.8	E	0.46	32.2	-37.4	---	---	722.4	0.028	0.000	18.2	1	1
03/27/06	10:53 p	-21.4	-21.3	-21.4	---	---	30.4	E	0.51	36.5	-37.9	---	---	722.4	0.028	0.000	18.2	1	1
03/27/06	10:54 p	-21.4	-21.3	-21.4	---	---	30.4	E	0.51	37.4	-37.9	---	---	722.4	0.028	0.000	18.2	1	1
03/27/06	10:55 p	-21.3	-21.3	-21.4	---	---	29.6	E	0.49	36.5	-37.7	---	---	722.5	0.028	0.000	18.2	1	1
03/27/06	10:56 p	-21.3	-21.3	-21.3	---	---	28.7	E	0.48	32.2	-37.5	---	---	722.4	0.028	0.000	18.2	1	1
03/27/06	10:57 p	-21.3	-21.3	-21.3	---	---	29.6	E	0.49	34.8	-37.7	---	---	722.4	0.028	0.000	18.2	1	1
03/27/06	10:58 p	-21.3	-21.3	-21.3	---	---	28.7	E	0.48	33.0	-37.5	---	---	722.4	0.028	0.000	18.2	1	1
03/27/06	10:59 p	-21.3	-21.3	-21.3	---	---	29.6	E	0.49	33.0	-37.6	---	---	722.5	0.028	0.000	18.2	1	1
03/27/06	11:00 p	-21.3	-21.3	-21.3	---	---	30.4	E	0.51	33.9	-37.8	---	---	722.4	0.028	0.000	18.2	1	1
03/27/06	11:01 p	-21.3	-21.3	-21.3	---	---	29.6	E	0.49	33.9	-37.6	---	---	722.4	0.028	0.000	18.2	1	1
03/27/06	11:02 p	-21.3	-21.3	-21.3	---	---	29.6	E	0.49	33.0	-37.6	---	---	722.4	0.028	0.000	18.2	1	1
03/27/06	11:03 p	-21.3	-21.2	-21.3	---	---	28.7	E	0.48	33.0	-37.4	---	---	722.4	0.028	0.000	18.2	1	1
03/27/06	11:04 p	-21.3	-21.3	-21.3	---	---	27.8	E	0.46	33.9	-37.2	---	---	722.5	0.028	0.000	18.2	1	1
03/27/06	11:05 p	-21.3	-21.3	-21.3	---	---	27.8	E	0.46	33.9	-37.2	---	---	722.5	0.028	0.000	18.2	1	1
03/27/06	11:06 p	-21.3	-21.3	-21.3	---	---	29.6	E	0.49	33.0	-37.6	---	---	722.5	0.028	0.000	18.2	1	1
03/27/06	11:07 p	-21.3	-21.2	-21.3	---	---	27.8	E	0.46	31.3	-37.2	---	---	722.5	0.028	0.000	18.3	1	1
03/27/06	11:08 p	-21.2	-21.2	-21.2	---	---	27.0	E	0.45	31.3	-36.9	---	---	722.5	0.027	0.000	18.3	1	1
03/27/06	11:09 p	-21.2	-21.2	-21.2	---	---	27.0	E	0.45	28.7	-36.9	---	---	722.5	0.027	0.000	18.3	1	1
03/27/06	11:10 p	-21.2	-21.2	-21.2	---	---	27.0	E	0.45	33.0	-36.9	---	---	722.6	0.027	0.000	18.4	1	1
03/27/06	11:11 p	-21.2	-21.2	-21.2	---	---	26.1	E	0.43	29.6	-36.8	---	---	722.5	0.027	0.000	18.4	1	1
03/27/06	11:12 p	-21.2	-21.2	-21.2	---	---	28.7	E	0.48	33.0	-37.3	---	---	722.6	0.027	0.000	18.4	1	1
03/27/06	11:13 p	-21.2	-21.2	-21.2	---	---	29.6	E	0.49	33.0	-37.4	---	---	722.5	0.027	0.000	18.5	1	1
03/27/06	11:14 p	-21.2	-21.2	-21.2	---	---	27.8	E	0.46	35.7	-37.1	---	---	722.5	0.027	0.000	18.5	1	1
03/27/06	11:15 p	-21.2	-21.1	-21.2	---	---	28.7	E	0.48	32.2	-37.3	---	---	722.5	0.027	0.000	18.6	1	1
03/27/06	11:16 p	-21.2	-21.1	-21.2	---	---	24.3	E	0.41	30.4	-36.3	---	---	722.6	0.027	0.000	18.6	1	1
03/27/06	11:17 p	-21.1	-21.1	-21.1	---	---	26.1	E	0.43	30.4	-36.6	---	---	722.7	0.027	0.000	18.6	1	1
03/27/06	11:18 p	-21.1	-21.1	-21.1	---	---	27.8	E	0.46	34.8	-36.9	---	---	722.6	0.027	0.000	18.6	1	1
03/27/06	11:19 p	-21.1	-21.0	-21.1	---	---	30.4	E	0.51	34.8	-37.4	---	---	722.5	0.027	0.000	18.7	1	1
03/27/06	11:20 p	-21.0	-21.0	-21.1	---	---	28.7	E	0.48	33.9	-37.1	---	---	722.7	0.027	0.000	18.7	1	1
03/27/06	11:21 p	-21.0	-21.0	-21.1	---	---	27.0	E	0.45	30.4	-36.7	---	---	722.7	0.027	0.000	18.7	1	1
03/27/06	11:22 p	-21.0	-21.0	-21.0	---	---	27.0	E	0.45	32.2	-36.7	---	---	722.8	0.027	0.000	18.8	1	1
03/27/06	11:23 p	-21.0	-21.0	-21.1	---	---	26.1	E	0.43	28.7	-36.4	---	---	722.6	0.027	0.000	18.8	1	1
03/27/06	11:24 p	-21.1	-21.0	-21.1	---	---	27.0	E	0.45	32.2	-36.7	---	---	722.8	0.027	0.000	18.8	1	1
03/27/06	11:25 p	-21.1	-21.1	-21.1	---	---	27.0	E	0.45	31.3	-36.7	---	---	722.8	0.027	0.000	18.7	1	1
03/27/06	11:26 p	-21.1	-21.0	-21.1	---	---	26.1	E	0.43	32.2	-36.6	---	---	722.7	0.027	0.000	18.7	1	1
03/27/06	11:27 p	-21.1	-21.0	-21.1	---	---	27.0	E	0.45	31.3	-36.7	---	---	722.7	0.027	0.000	18.7	1	1
03/27/06	11:28 p	-21.1	-21.1	-21.1	---	---	26.1	E	0.43	28.7	-36.6	---	---	722.6	0.027	0.000	18.7	1	1
03/27/06	11:29 p	-21.1	-21.1	-21.1	---	---	26.1	ESE	0.43	28.7	-36.6	---	---	722.7	0.027	0.000	18.7	1	1
03/27/06	11:30 p	-21.1	-21.1	-21.1	---	---	26.1	E	0.43	30.4	-36.6	---	---	722.7	0.027	0.000	18.7	1	1
03/27/06	11:31 p	-21.1	-21.1	-21.1	---	---	27.0	E	0.45	28.7	-36.7	---	---	722.7	0.027	0.000	18.7	1	1
03/27/06	11:32 p	-21.1	-21.1	-21.1	---	---	24.3	E	0.41	27.8	-36.2	---	---	722.8	0.027	0.000	18.7	1	1
03/27/06	11:33 p	-21.1	-21.1	-21.1	---	---	27.0	E	0.45	30.4	-36.8	---	---	722.8	0.027	0.000	18.7	1	1
03/27/06	11:34 p	-21.1	-21.1	-21.1	---	---	27.0	E	0.45	31.3	-36.8	---	---	722.8	0.027	0.000	18.7	1	1
03/27/06	11:35 p	-21.1	-21.1	-21.1	---	---	26.1	E	0.43	30.4	-36.6	---	---	722.8	0.027	0.000	18.7	1	1
03/27/06	11:36 p	-21.1	-21.1	-21.1	---	---	26.1	E	0.43	28.7	-36.6	---	---	722.8	0.027	0.000	18.6	1	1
03/27/06	11:37 p	-21.1	-21.1	-21.2	---	---	25.2	E	0.42	28.7	-36.4	---	---	722.8	0.027	0.000	18.6	1	1
03/27/06	11:38 p	-21.2	-21.2	-21.2	---	---	25.2	E	0.42	28.7	-36.5	---	---	722.8	0.027	0.000	18.6	1	1
03/27/06	11:39 p	-21.2	-21.1	-21.2	---	---	25.2	E	0.42	28.7	-36.5	---	---	722.7	0.027	0.000	18.6	1	1
03/27/06	11:40 p	-21.2	-21.1	-21.2	---	---	26.1	E	0.43	28.7	-36.7	---	---	722.8	0.027	0.000	18.5	1	1
03/27/06	11:41 p	-21.2	-21.1	-21.2	---	---	27.0	E	0.45	30.4	-36.9	---	---	722.7	0.027	0.000	18.5	1	1
03/27/06	11:42 p	-21.1	-21.1	-21.2	---	---	27.0	E	0.45	31.3	-36.8	---	---	722.7	0.027	0.000	18.5	1	1
03/27/06	11:43 p	-21.1	-21.1	-21.1	---	---	27.0	E	0.45	31.3	-36.8	---	---	722.7	0.027	0.000	18.5	1	1
03/27/06	11:44 p	-21.1	-21.1	-21.1	---	---	26.1	E	0.43	29.6	-36.6	---	---	722.7	0.027	0.000	18.4	1	1
03/27/06	11:45 p	-21.1	-21.1	-21.1	---	---	27.0	E	0.45	30.4	-36.8	---	---	722.6	0.027	0.000	18.4	1	1
03/27/06	11:46 p	-21.1	-21.1	-21.1	---	---	27.0	E	0.45	30.4	-36.7	---	---	722.8	0.027	0.000	18.4	1	1
03/27/06	11:47 p	-21.1	-21.1	-21.1	---	---	27.8	E	0.46	30.4	-36.9	---	---	722.7	0.027	0.000	18.4	1	1
03/27/06	11:48 p	-21.1	-21.1	-21.1	---	---	26.1	E	0.43	29.6	-36.6	---	---	722.7	0.027	0.000	18.4	1	1
03/27/06	11:49 p	-21.1	-21.1	-21.1	---	---	27.8	E	0.46	30.4	-37.0	---	---	722.7	0.027	0.000	18.4	1	1
03/27/06	11:50 p	-21.1	-21.1	-21.1	---	---	27.8	E	0.46	31.3	-36.9	---	---	722.6	0.027	0.000	18.4	1	1
03/27/06	11:51 p	-21.1	-21.1	-21.1	---	---	27.8	E	0.46	31.3	-36.9	---	---	722.7	0.027	0.000	18.4	1	1
03/27/06	11:52 p	-21.1	-21.1	-21.1	---	---	27.0	E	0.45	29.6	-36.8	---	---	722.6	0.027	0.000	18.4	1	1
03/27/06	11:53 p	-21.1	-21.1	-21.2	---	---	27.8	E	0.46	33.0	-37.0	---	---	722.7	0.027	0.000	18.4	1	1
03/27/06	11:54 p	-21.1	-21.1	-21.2	---	---	27.8	E	0.46	31.3	-37.0	---	---	722.7	0.027	0.000	18.4	1	1
03/27/06	11:55 p	-21.2	-21.1	-21.2	---	---	27.8	E	0.46	31.3	-37.1	---	---	722.6	0.027	0.000	18.4	1	1
03/27/06	11:56 p	-21.1	-21.1	-21.2	---	---	27.8	E	0.46	30.4	-37.0	---	---	722.7	0.027	0.000	18.4	1	1
03/27/06	11:57 p	-21.1	-21.1	-21.1	---	---	28.7	E	0.48	32.2	-37.2	---	---	722.6	0.027	0.000	18.4	1	1
03/27/06	11:58 p	-21.1	-21.1	-21.2	---	---	27.8	E	0.46	32.2	-37.0	---	---	722.6	0.027	0.000	18.4	1	1
03/27/06	11:59 p	-21.1	-21.1	-21.2	---	---	28.7	E	0.48	32.2	-37.2	---	---	722.6	0.027	0.000	18.3	1	1
03/28/06	12:00 a	-21.1	-21.1	-21.2	---	---	28.7	E	0.48	33.0	-37.2	---	---	722.6	0.027	0.000	18.3	1	1
03/28/06	12:01 a	-21.1	-21.1	-21.1	---	---	27.8	E	0.46	31.3	-37.0	---	---	722.7	0.027	0.000	18.3	1	1
03/28/06	12:02 a	-21.1	-21.1	-21.1	---	---	27.8	E	0.46	32.2	-37.0	---	---	722.6	0.027	0.000	18.3	1	1
03/28/06	12:03 a	-21.1	-21.1	-21.1	---	---	27.8	E	0.46	30.4	-37.0	---	---	722.7	0.027	0.000	18.3	1	1
03/28/06	12:04 a	-21.1	-21.1	-21.1	---	---	27.8	E	0.46	31.3	-37.0	---	---	722.7	0.027	0.000	18.3	1	1
03/28/06	12:05 a	-21.1	-21.1	-21.1	---	---	28.7	E	0.48	32.2	-37.1	---	---	722.7	0.027	0.000	18.3	1	1
03/28/06	12:06 a	-21.1	-21.1	-21.1	---	---	28.7	E	0.48	33.0	-37.1	---	---	722.5	0.027	0.000	18.3	1	1
03/28/06	12:07 a	-21.1	-21.1	-21.1	---	---	31.3	E	0.52	34.8	-37.6	---	---	722.6	0.027	0.000	18.3	1	1
03/28/06	12:08 a	-21.1	-21.1	-21.1	---	---	31.3	E	0.52	33.0	-37.6	---	---	722.6	0.027	0.000	18.3	1	1
03/28/06	12:09 a	-21.1	-21.1	-21.1	---	---	29.6	E	0.49	32.2	-37.3	---	---	722.5	0.027	0.000	18.3	1	1
03/28/06	12:10 a	-21.1	-21.1	-21.1	---	---	30.4	E	0.51	34.8	-37.4	---	---	722.5	0.027	0.000	18.2	1	1
03/28/06	12:11 a	-21.1	-21.1	-21.1	---	---	29.6	E	0.49	34.8	-37.3	---	---	722.5	0.027	0.000	18.2	1	1
03/28/06	12:12 a	-21.1	-21.0	-21.1	---	---	30.4	E	0.51	33.9	-37.4	---	---	722.5	0.027	0.000	18.2	1	1
03/28/06	12:13 a	-21.1	-21.0	-21.1	---	---	30.4	E	0.51	32.2	-37.4	---	---	722.5	0.027	0.000	18.2	1	1
03/28/06	12:14 a	-21.0	-21.0	-21.1	---	---	29.6	E	0.49	32.2	-37.2	---	---	722.5	0.027	0.000	18.2	1	1
03/28/06	12:15 a	-21.1	-21.0	-21.1	---	---	29.6	E	0.49	31.3	-37.3	---	---	722.5	0.027	0.000	18.2	1	1
03/28/06	12:16 a	-21.0	-21.0	-21.0	---	---	27.8	E	0.46	30.4	-36.8	---	---	722.5	0.027	0.000	18.2	1	1
03/28/06	12:17 a	-20.9	-20.9	-21.0	---	---	27.8	E	0.46	33.9	-36.8	---	---	722.5	0.027	0.000	18.2	1	1
03/28/06	12:18 a	-20.9	-20.9	-20.9	---	---	28.7	E	0.48	31.3	-36.9	---	---	722.5	0.027	0.000	18.2	1	1
03/28/06	12:19 a	-20.9	-20.8	-20.9	---	---	29.6	E	0.49	33.9	-37.1	---	---	722.5	0.027	0.000	18.2	1	1
03/28/06	12:20 a	-20.8	-20.8	-20.8	---	---	29.6	E	0.49	33.9	-37.0	---	---	722.4	0.027	0.000	18.2	1	1
03/28/06	12:21 a	-20.8	-20.8	-20.8	---	---	29.6	E	0.49	31.3	-37.0	---	---	722.5	0.027	0.000	18.2	1	1
03/28/06	12:22 a	-20.8	-20.8	-20.8	---	---	28.7	E	0.48	31.3	-36.7	---	---	722.4	0.027	0.000	18.2	1	1
03/28/06	12:23 a	-20.8	-20.7	-20.8	---	---	29.6	E	0.49	32.2	-36.9	---	---	722.4	0.027	0.000	18.2	1	1
03/28/06	12:24 a	-20.7	-20.7	-20.7	---	---	28.7	E	0.48	32.2	-36.7	---	---	722.4	0.027	0.000	18.2	1	1
03/28/06	12:25 a	-20.7	-20.7	-20.8	---	---	28.7	E	0.48	33.0	-36.7	---	---	722.4	0.027	0.000	18.2	1	1
03/28/06	12:26 a	-20.7	-20.7	-20.8	---	---	28.7	E	0.48	32.2	-36.7	---	---	722.5	0.027	0.000	18.2	1	1
03/28/06	12:27 a	-20.7	-20.7	-20.7	---	---	27.8	E	0.46	31.3	-36.4	---	---	722.5	0.027	0.000	18.2	1	1
03/28/06	12:28 a	-20.7	-20.6	-20.7	---	---	27.8	E	0.46	30.4	-36.4	---	---	722.6	0.027	0.000	18.1	1	1
03/28/06	12:29 a	-20.7	-20.6	-20.7	---	---	27.0	E	0.45	32.2	-36.2	---	---	722.4	0.027	0.000	18.1	1	1
03/28/06	12:30 a	-20.6	-20.6	-20.7	---	---	28.7	E	0.48	31.3	-36.5	---	---	722.3	0.027	0.000	18.1	1	1
03/28/06	12:31 a	-20.6	-20.6	-20.6	---	---	29.6	E	0.49	33.0	-36.7	---	---	722.4	0.027	0.000	18.1	1	1
03/28/06	12:32 a	-20.6	-20.6	-20.6	---	---	27.8	E	0.46	33.9	-36.3	---	---	722.4	0.027	0.000	18.1	1	1
03/28/06	12:33 a	-20.6	-20.6	-20.6	---	---	28.7	E	0.48	33.0	-36.5	---	---	722.3	0.027	0.000	18.1	1	1
03/28/06	12:34 a	-20.7	-20.6	-20.7	---	---	29.6	E	0.49	31.3	-36.8	---	---	722.4	0.027	0.000	18.1	1	1
03/28/06	12:35 a	-20.7	-20.7	-20.7	---	---	28.7	E	0.48	32.2	-36.6	---	---	722.4	0.027	0.000	18.1	1	1
03/28/06	12:36 a	-20.7	-20.7	-20.7	---	---	29.6	E	0.49	33.0	-36.8	---	---	722.4	0.027	0.000	18.1	1	1
03/28/06	12:37 a	-20.6	-20.6	-20.7	---	---	29.6	E	0.49	32.2	-36.7	---	---	722.4	0.027	0.000	18.1	1	1
03/28/06	12:38 a	-20.6	-20.6	-20.6	---	---	28.7	E	0.48	33.0	-36.5	---	---	722.4	0.027	0.000	18.1	1	1
03/28/06	12:39 a	-20.6	-20.6	-20.6	---	---	28.7	E	0.48	31.3	-36.5	---	---	722.5	0.027	0.000	18.1	1	1
03/28/06	12:40 a	-20.6	-20.6	-20.6	---	---	28.7	E	0.48	33.0	-36.4	---	---	722.4	0.027	0.000	18.1	1	1
03/28/06	12:41 a	-20.6	-20.5	-20.6	---	---	28.7	E	0.48	33.0	-36.4	---	---	722.5	0.027	0.000	18.1	1	1
03/28/06	12:42 a	-20.5	-20.4	-20.5	---	---	27.0	E	0.45	29.6	-36.0	---	---	722.6	0.027	0.000	18.1	1	1
03/28/06	12:43 a	-20.4	-20.4	-20.4	---	---	27.0	E	0.45	30.4	-35.9	---	---	722.5	0.027	0.000	18.1	1	1
03/28/06	12:44 a	-20.4	-20.4	-20.4	---	---	27.8	E	0.46	30.4	-36.1	---	---	722.5	0.027	0.000	18.1	1	1
03/28/06	12:45 a	-20.4	-20.4	-20.4	---	---	29.6	E	0.49	31.3	-36.4	---	---	722.6	0.027	0.000	18.2	1	1
03/28/06	12:46 a	-20.5	-20.5	-20.5	---	---	28.7	E	0.48	32.2	-36.3	---	---	722.5	0.027	0.000	18.2	1	1
03/28/06	12:47 a	-20.5	-20.5	-20.5	---	---	28.7	E	0.48	33.0	-36.3	---	---	722.4	0.027	0.000	18.2	1	1
03/28/06	12:48 a	-20.5	-20.5	-20.5	---	---	28.7	E	0.48	31.3	-36.3	---	---	722.7	0.027	0.000	18.2	1	1
03/28/06	12:49 a	-20.5	-20.5	-20.5	---	---	28.7	E	0.48	32.2	-36.3	---	---	722.5	0.027	0.000	18.3	1	1
03/28/06	12:50 a	-20.6	-20.5	-20.6	---	---	27.8	E	0.46	31.3	-36.2	---	---	722.4	0.027	0.000	18.3	1	1
03/28/06	12:51 a	-20.6	-20.6	-20.6	---	---	28.7	ESE	0.48	30.4	-36.4	---	---	722.5	0.027	0.000	18.3	1	1
03/28/06	12:52 a	-20.6	-20.6	-20.6	---	---	27.0	E	0.45	30.4	-36.1	---	---	722.4	0.027	0.000	18.3	1	1
03/28/06	12:53 a	-20.6	-20.6	-20.6	---	---	27.0	E	0.45	29.6	-36.1	---	---	722.5	0.027	0.000	18.3	1	1
03/28/06	12:54 a	-20.6	-20.6	-20.6	---	---	27.0	E	0.45	31.3	-36.1	---	---	722.5	0.027	0.000	18.3	1	1
03/28/06	12:55 a	-20.6	-20.5	-20.6	---	---	27.0	E	0.45	29.6	-36.1	---	---	722.5	0.027	0.000	18.3	1	1
03/28/06	12:56 a	-20.5	-20.5	-20.5	---	---	26.1	E	0.43	31.3	-35.8	---	---	722.5	0.027	0.000	18.3	1	1
03/28/06	12:57 a	-20.5	-20.4	-20.5	---	---	27.0	E	0.45	29.6	-36.0	---	---	722.5	0.027	0.000	18.2	1	1
03/28/06	12:58 a	-20.4	-20.4	-20.4	---	---	27.0	E	0.45	32.2	-35.9	---	---	722.6	0.027	0.000	18.2	1	1
03/28/06	12:59 a	-20.4	-20.4	-20.4	---	---	26.1	E	0.43	28.7	-35.7	---	---	722.8	0.027	0.000	18.2	1	1
03/28/06	1:00 a	-20.4	-20.3	-20.4	---	---	26.1	E	0.43	29.6	-35.6	---	---	722.8	0.027	0.000	18.2	1	1
03/28/06	1:01 a	-20.3	-20.3	-20.3	---	---	26.1	E	0.43	29.6	-35.6	---	---	722.7	0.027	0.000	18.2	1	1
03/28/06	1:02 a	-20.3	-20.3	-20.3	---	---	26.1	E	0.43	29.6	-35.5	---	---	722.7	0.027	0.000	18.2	1	1
03/28/06	1:03 a	-20.2	-20.2	-20.2	---	---	26.1	E	0.43	28.7	-35.4	---	---	722.6	0.027	0.000	18.2	1	1
03/28/06	1:04 a	-20.2	-20.2	-20.2	---	---	23.5	E	0.39	27.8	-34.8	---	---	722.7	0.027	0.000	18.2	1	1
03/28/06	1:05 a	-20.2	-20.2	-20.2	---	---	23.5	E	0.39	27.0	-34.7	---	---	722.7	0.027	0.000	18.2	1	1
03/28/06	1:06 a	-20.1	-20.1	-20.2	---	---	24.3	E	0.41	27.0	-34.9	---	---	722.8	0.027	0.000	18.2	1	1
03/28/06	1:07 a	-20.1	-20.0	-20.1	---	---	23.5	E	0.39	27.0	-34.6	---	---	722.8	0.027	0.000	18.2	1	1
03/28/06	1:08 a	-20.0	-19.9	-20.0	---	---	23.5	E	0.39	27.0	-34.5	---	---	722.8	0.027	0.000	18.2	1	1
03/28/06	1:09 a	-19.9	-19.9	-20.0	---	---	23.5	E	0.39	27.0	-34.4	---	---	722.9	0.027	0.000	18.2	1	1
03/28/06	1:10 a	-19.9	-19.8	-19.9	---	---	21.7	E	0.36	25.2	-33.9	---	---	722.9	0.027	0.000	18.2	1	1
03/28/06	1:11 a	-19.8	-19.8	-19.8	---	---	22.6	E	0.38	26.1	-34.1	---	---	722.8	0.027	0.000	18.2	1	1
03/28/06	1:12 a	-19.7	-19.7	-19.8	---	---	22.6	E	0.38	26.1	-33.9	---	---	723.0	0.026	0.000	18.2	1	1
03/28/06	1:13 a	-19.7	-19.7	-19.7	---	---	20.9	E	0.35	24.3	-33.4	---	---	723.0	0.026	0.000	18.2	1	1
03/28/06	1:14 a	-19.6	-19.6	-19.7	---	---	21.7	E	0.36	24.3	-33.6	---	---	723.1	0.026	0.000	18.2	1	1
03/28/06	1:15 a	-19.6	-19.5	-19.6	---	---	21.7	E	0.36	26.1	-33.5	---	---	723.0	0.026	0.000	18.2	1	1
03/28/06	1:16 a	-19.5	-19.4	-19.5	---	---	21.7	E	0.36	23.5	-33.4	---	---	723.1	0.026	0.000	18.2	1	1
03/28/06	1:17 a	-19.4	-19.4	-19.4	---	---	19.1	E	0.32	23.5	-32.6	---	---	723.1	0.026	0.000	18.2	1	1
03/28/06	1:18 a	-19.4	-19.3	-19.4	---	---	17.4	E	0.29	21.7	-32.1	---	---	723.2	0.026	0.000	18.2	1	1
03/28/06	1:19 a	-19.3	-19.3	-19.3	---	---	20.0	E	0.33	21.7	-32.7	---	---	723.2	0.026	0.000	18.2	1	1
03/28/06	1:20 a	-19.3	-19.2	-19.3	---	---	19.1	E	0.32	22.6	-32.4	---	---	723.3	0.026	0.000	18.2	2	1
03/28/06	1:21 a	-19.2	-19.1	-19.2	---	---	20.0	E	0.33	22.6	-32.5	---	---	723.3	0.026	0.000	18.2	1	1
03/28/06	1:22 a	-19.1	-19.1	-19.2	---	---	17.4	E	0.29	20.0	-31.7	---	---	723.3	0.026	0.000	18.2	1	1
03/28/06	1:23 a	-19.1	-19.0	-19.1	---	---	17.4	E	0.29	19.1	-31.6	---	---	723.4	0.026	0.000	18.3	2	1
03/28/06	1:24 a	-18.9	-18.9	-19.0	---	---	16.5	E	0.28	20.9	-31.2	---	---	723.4	0.026	0.000	18.3	2	1
03/28/06	1:25 a	-18.9	-18.9	-18.9	---	---	17.4	E	0.29	19.1	-31.4	---	---	723.5	0.026	0.000	18.3	2	1
03/28/06	1:26 a	-18.8	-18.8	-18.9	---	---	17.4	E	0.29	20.0	-31.3	---	---	723.5	0.026	0.000	18.3	2	1
03/28/06	1:27 a	-18.8	-18.8	-18.8	---	---	16.5	E	0.28	19.1	-31.0	---	---	723.4	0.026	0.000	18.3	2	1
03/28/06	1:28 a	-18.7	-18.7	-18.8	---	---	15.7	E	0.26	18.3	-30.6	---	---	723.5	0.026	0.000	18.3	2	1
03/28/06	1:29 a	-18.7	-18.6	-18.7	---	---	14.8	E	0.25	19.1	-30.3	---	---	723.6	0.026	0.000	18.3	2	1
03/28/06	1:30 a	-18.6	-18.6	-18.6	---	---	15.7	E	0.26	20.0	-30.5	---	---	723.6	0.026	0.000	18.3	2	1
03/28/06	1:31 a	-18.6	-18.6	-18.6	---	---	16.5	E	0.28	19.1	-30.7	---	---	723.5	0.026	0.000	18.3	2	1
03/28/06	1:32 a	-18.5	-18.4	-18.5	---	---	13.9	E	0.23	17.4	-29.7	---	---	723.6	0.026	0.000	18.2	2	1
03/28/06	1:33 a	-18.4	-18.4	-18.4	---	---	14.8	E	0.25	17.4	-29.9	---	---	723.6	0.026	0.000	18.2	2	1
03/28/06	1:34 a	-18.3	-18.3	-18.4	---	---	16.5	E	0.28	17.4	-30.4	---	---	723.6	0.025	0.000	18.2	2	1
03/28/06	1:35 a	-18.3	-18.3	-18.3	---	---	16.5	E	0.28	18.3	-30.4	---	---	723.6	0.025	0.000	18.2	2	1
03/28/06	1:36 a	-18.3	-18.2	-18.3	---	---	13.9	E	0.23	16.5	-29.4	---	---	723.6	0.025	0.000	18.2	2	1
03/28/06	1:37 a	-18.2	-18.1	-18.2	---	---	13.0	E	0.22	15.7	-29.0	---	---	723.6	0.025	0.000	18.2	2	1
03/28/06	1:38 a	-18.1	-18.1	-18.1	---	---	16.5	E	0.28	18.3	-30.1	---	---	723.6	0.025	0.000	18.2	2	1
03/28/06	1:39 a	-18.1	-18.0	-18.1	---	---	15.7	E	0.26	18.3	-29.8	---	---	723.6	0.025	0.000	18.2	2	1
03/28/06	1:40 a	-18.0	-17.9	-18.0	---	---	15.7	ENE	0.26	17.4	-29.7	---	---	723.7	0.025	0.000	18.2	2	1
03/28/06	1:41 a	-17.9	-17.9	-17.9	---	---	15.7	ENE	0.26	17.4	-29.6	---	---	723.6	0.025	0.000	18.2	2	1
03/28/06	1:42 a	-17.9	-17.8	-17.9	---	---	13.0	E	0.22	14.8	-28.7	---	---	723.6	0.025	0.000	18.3	2	1
03/28/06	1:43 a	-17.8	-17.8	-17.8	---	---	13.9	ENE	0.23	16.5	-28.8	---	---	723.7	0.025	0.000	18.2	2	1
03/28/06	1:44 a	-17.7	-17.7	-17.8	---	---	14.8	ENE	0.25	16.5	-29.1	---	---	723.8	0.025	0.000	18.2	2	1
03/28/06	1:45 a	-17.7	-17.7	-17.7	---	---	14.8	ENE	0.25	17.4	-29.0	---	---	723.7	0.025	0.000	18.2	2	1
03/28/06	1:46 a	-17.6	-17.6	-17.6	---	---	16.5	ENE	0.28	18.3	-29.4	---	---	723.6	0.025	0.000	18.2	2	1
03/28/06	1:47 a	-17.6	-17.5	-17.6	---	---	15.7	ENE	0.26	18.3	-29.1	---	---	723.7	0.025	0.000	18.2	2	1
03/28/06	1:48 a	-17.5	-17.4	-17.5	---	---	13.9	ENE	0.23	16.5	-28.4	---	---	723.7	0.025	0.000	18.2	2	1
03/28/06	1:49 a	-17.4	-17.4	-17.4	---	---	16.5	ENE	0.28	17.4	-29.2	---	---	723.6	0.025	0.000	18.2	2	1
03/28/06	1:50 a	-17.4	-17.3	-17.4	---	---	15.7	ENE	0.26	17.4	-28.9	---	---	723.8	0.025	0.000	18.2	2	1
03/28/06	1:51 a	-17.3	-17.3	-17.3	---	---	14.8	ENE	0.25	16.5	-28.4	---	---	723.8	0.025	0.000	18.2	2	1
03/28/06	1:52 a	-17.2	-17.2	-17.3	---	---	13.0	E	0.22	14.8	-27.8	---	---	723.8	0.025	0.000	18.2	2	1
03/28/06	1:53 a	-17.2	-17.2	-17.2	---	---	15.7	ENE	0.26	16.5	-28.6	---	---	723.7	0.025	0.000	18.2	2	1
03/28/06	1:54 a	-17.1	-17.1	-17.2	---	---	15.7	ENE	0.26	17.4	-28.6	---	---	723.7	0.025	0.000	18.2	2	1
03/28/06	1:55 a	-17.1	-17.1	-17.1	---	---	14.8	ENE	0.25	15.7	-28.2	---	---	723.7	0.025	0.000	18.2	2	1
03/28/06	1:56 a	-17.1	-17.0	-17.1	---	---	14.8	ENE	0.25	16.5	-28.2	---	---	723.7	0.025	0.000	18.2	2	1
03/28/06	1:57 a	-17.0	-16.9	-17.0	---	---	14.8	ENE	0.25	16.5	-28.1	---	---	723.7	0.025	0.000	18.2	2	1
03/28/06	1:58 a	-16.9	-16.9	-16.9	---	---	14.8	ENE	0.25	16.5	-28.1	---	---	723.7	0.024	0.000	18.2	2	1
03/28/06	1:59 a	-16.9	-16.9	-16.9	---	---	13.9	ENE	0.23	15.7	-27.7	---	---	723.6	0.024	0.000	18.2	2	1
03/28/06	2:00 a	-16.8	-16.8	-16.9	---	---	14.8	ENE	0.25	17.4	-27.9	---	---	723.7	0.024	0.000	18.2	2	1
03/28/06	2:01 a	-16.8	-16.8	-16.8	---	---	14.8	ENE	0.25	15.7	-27.8	---	---	723.7	0.024	0.000	18.2	2	1
03/28/06	2:02 a	-16.7	-16.7	-16.7	---	---	13.9	ENE	0.23	15.7	-27.4	---	---	723.7	0.024	0.000	18.2	2	1
03/28/06	2:03 a	-16.7	-16.7	-16.7	---	---	13.0	ENE	0.22	13.9	-27.1	---	---	723.7	0.024	0.000	18.2	2	1
03/28/06	2:04 a	-16.7	-16.7	-16.7	---	---	13.0	ENE	0.22	16.5	-27.1	---	---	723.7	0.024	0.000	18.2	2	1
03/28/06	2:05 a	-16.7	-16.7	-16.7	---	---	13.9	ENE	0.23	15.7	-27.4	---	---	723.8	0.024	0.000	18.2	2	1
03/28/06	2:06 a	-16.7	-16.7	-16.7	---	---	13.9	ENE	0.23	16.5	-27.4	---	---	723.7	0.024	0.000	18.2	3	1
03/28/06	2:07 a	-16.7	-16.7	-16.7	---	---	14.8	ENE	0.25	16.5	-27.7	---	---	723.8	0.024	0.000	18.2	3	1
03/28/06	2:08 a	-16.7	-16.7	-16.7	---	---	14.8	ENE	0.25	17.4	-27.7	---	---	723.7	0.024	0.000	18.2	3	1
03/28/06	2:09 a	-16.6	-16.6	-16.7	---	---	14.8	ENE	0.25	16.5	-27.6	---	---	723.7	0.024	0.000	18.2	2	1
03/28/06	2:10 a	-16.6	-16.6	-16.6	---	---	14.8	ENE	0.25	15.7	-27.6	---	---	723.7	0.024	0.000	18.2	3	1
03/28/06	2:11 a	-16.5	-16.5	-16.6	---	---	15.7	ENE	0.26	17.4	-27.7	---	---	723.7	0.024	0.000	18.2	3	1
03/28/06	2:12 a	-16.4	-16.4	-16.4	---	---	12.2	E	0.20	13.9	-26.4	---	---	723.7	0.024	0.000	18.2	3	1
03/28/06	2:13 a	-16.4	-16.4	-16.4	---	---	13.0	ENE	0.22	13.9	-26.7	---	---	723.7	0.024	0.000	18.2	3	1
03/28/06	2:14 a	-16.3	-16.3	-16.4	---	---	12.2	E	0.20	13.9	-26.3	---	---	723.7	0.024	0.000	18.2	3	1
03/28/06	2:15 a	-16.3	-16.3	-16.3	---	---	12.2	ENE	0.20	13.0	-26.3	---	---	723.7	0.024	0.000	18.2	2	1
03/28/06	2:16 a	-16.3	-16.3	-16.3	---	---	13.9	E	0.23	16.5	-26.9	---	---	723.6	0.024	0.000	18.2	3	1
03/28/06	2:17 a	-16.2	-16.2	-16.3	---	---	14.8	ENE	0.25	16.5	-27.1	---	---	723.7	0.024	0.000	18.2	2	1
03/28/06	2:18 a	-16.2	-16.2	-16.2	---	---	13.9	ENE	0.23	15.7	-26.8	---	---	723.7	0.024	0.000	18.2	3	1
03/28/06	2:19 a	-16.2	-16.2	-16.2	---	---	13.9	ENE	0.23	15.7	-26.7	---	---	723.7	0.024	0.000	18.2	3	1
03/28/06	2:20 a	-16.1	-16.1	-16.1	---	---	13.0	ENE	0.22	13.9	-26.4	---	---	723.7	0.024	0.000	18.2	2	1
03/28/06	2:21 a	-16.1	-16.1	-16.1	---	---	11.3	E	0.19	13.0	-25.6	---	---	723.8	0.024	0.000	18.2	3	1
03/28/06	2:22 a	-16.1	-16.0	-16.1	---	---	11.3	E	0.19	13.9	-25.6	---	---	723.8	0.024	0.000	18.2	2	1
03/28/06	2:23 a	-15.9	-15.9	-15.9	---	---	10.4	E	0.17	13.0	-25.1	---	---	723.8	0.024	0.000	18.2	3	1
03/28/06	2:24 a	-15.9	-15.9	-15.9	---	---	11.3	E	0.19	12.2	-25.4	---	---	723.8	0.024	0.000	18.2	3	1
03/28/06	2:25 a	-15.8	-15.8	-15.9	---	---	12.2	E	0.20	13.0	-25.7	---	---	723.8	0.024	0.000	18.2	3	1
03/28/06	2:26 a	-15.8	-15.8	-15.8	---	---	11.3	E	0.19	13.0	-25.3	---	---	723.7	0.024	0.000	18.3	3	1
03/28/06	2:27 a	-15.7	-15.7	-15.8	---	---	11.3	E	0.19	15.7	-25.2	---	---	723.8	0.024	0.000	18.3	3	1
03/28/06	2:28 a	-15.7	-15.7	-15.7	---	---	11.3	E	0.19	14.8	-25.1	---	---	723.8	0.024	0.000	18.3	3	1
03/28/06	2:29 a	-15.6	-15.6	-15.7	---	---	12.2	E	0.20	14.8	-25.4	---	---	723.9	0.024	0.000	18.3	3	1
03/28/06	2:30 a	-15.6	-15.6	-15.6	---	---	12.2	ENE	0.20	13.9	-25.3	---	---	723.8	0.024	0.000	18.3	3	1
03/28/06	2:31 a	-15.4	-15.4	-15.5	---	---	10.4	ENE	0.17	11.3	-24.5	---	---	723.9	0.023	0.000	18.3	3	1
03/28/06	2:32 a	-15.4	-15.4	-15.4	---	---	10.4	E	0.17	12.2	-24.4	---	---	723.9	0.023	0.000	18.3	3	1
03/28/06	2:33 a	-15.3	-15.3	-15.4	---	---	10.4	E	0.17	12.2	-24.3	---	---	723.8	0.023	0.000	18.3	3	1
03/28/06	2:34 a	-15.3	-15.2	-15.3	---	---	8.7	E	0.14	10.4	-23.5	---	---	723.8	0.023	0.000	18.3	3	1
03/28/06	2:35 a	-15.2	-15.1	-15.2	---	---	9.6	E	0.16	11.3	-23.8	---	---	723.8	0.023	0.000	18.3	3	1
03/28/06	2:36 a	-15.1	-15.0	-15.1	---	---	11.3	ENE	0.19	12.2	-24.3	---	---	723.8	0.023	0.000	18.3	3	1
03/28/06	2:37 a	-15.0	-14.9	-15.0	---	---	11.3	ENE	0.19	13.0	-24.3	---	---	723.9	0.023	0.000	18.3	3	1
03/28/06	2:38 a	-14.9	-14.9	-14.9	---	---	10.4	ENE	0.17	11.3	-23.8	---	---	723.9	0.023	0.000	18.3	3	1
03/28/06	2:39 a	-14.8	-14.8	-14.9	---	---	9.6	ENE	0.16	11.3	-23.3	---	---	723.8	0.023	0.000	18.3	3	1
03/28/06	2:40 a	-14.7	-14.7	-14.8	---	---	11.3	ENE	0.19	12.2	-23.9	---	---	723.8	0.023	0.000	18.3	3	1
03/28/06	2:41 a	-14.7	-14.6	-14.7	---	---	12.2	ENE	0.20	13.0	-24.2	---	---	723.8	0.023	0.000	18.3	3	1
03/28/06	2:42 a	-14.6	-14.6	-14.6	---	---	10.4	ENE	0.17	11.3	-23.4	---	---	723.8	0.023	0.000	18.3	3	1
03/28/06	2:43 a	-14.5	-14.5	-14.6	---	---	11.3	ENE	0.19	12.2	-23.7	---	---	723.8	0.023	0.000	18.3	3	1
03/28/06	2:44 a	-14.4	-14.4	-14.5	---	---	10.4	ENE	0.17	11.3	-23.2	---	---	723.9	0.023	0.000	18.3	3	1
03/28/06	2:45 a	-14.4	-14.4	-14.4	---	---	8.7	ENE	0.14	10.4	-22.4	---	---	723.9	0.023	0.000	18.3	3	1
03/28/06	2:46 a	-14.4	-14.4	-14.4	---	---	8.7	ENE	0.14	10.4	-22.4	---	---	724.0	0.023	0.000	18.3	3	1
03/28/06	2:47 a	-14.4	-14.4	-14.4	---	---	8.7	ENE	0.14	9.6	-22.4	---	---	724.0	0.023	0.000	18.3	3	1
03/28/06	2:48 a	-14.4	-14.3	-14.4	---	---	9.6	ENE	0.16	10.4	-22.8	---	---	723.9	0.023	0.000	18.3	3	1
03/28/06	2:49 a	-14.3	-14.3	-14.3	---	---	9.6	ENE	0.16	11.3	-22.7	---	---	724.0	0.023	0.000	18.3	3	1
03/28/06	2:50 a	-14.3	-14.3	-14.3	---	---	11.3	ENE	0.19	12.2	-23.4	---	---	724.0	0.023	0.000	18.3	3	1
03/28/06	2:51 a	-14.3	-14.3	-14.3	---	---	12.2	ENE	0.20	13.0	-23.8	---	---	723.9	0.023	0.000	18.3	3	1
03/28/06	2:52 a	-14.3	-14.3	-14.3	---	---	10.4	ENE	0.17	11.3	-23.1	---	---	724.0	0.023	0.000	18.3	3	1
03/28/06	2:53 a	-14.3	-14.3	-14.3	---	---	7.0	ENE	0.12	8.7	-21.4	---	---	723.9	0.023	0.000	18.3	3	1
03/28/06	2:54 a	-14.3	-14.3	-14.3	---	---	8.7	ENE	0.14	10.4	-22.2	---	---	724.0	0.023	0.000	18.3	3	1
03/28/06	2:55 a	-14.3	-14.2	-14.3	---	---	8.7	ENE	0.14	10.4	-22.2	---	---	724.0	0.023	0.000	18.3	3	1
03/28/06	2:56 a	-14.2	-14.2	-14.3	---	---	9.6	ENE	0.16	10.4	-22.6	---	---	724.0	0.023	0.000	18.3	3	1
03/28/06	2:57 a	-14.2	-14.2	-14.3	---	---	10.4	ENE	0.17	11.3	-22.9	---	---	724.0	0.023	0.000	18.3	3	1
03/28/06	2:58 a	-14.3	-14.2	-14.3	---	---	8.7	ENE	0.14	9.6	-22.2	---	---	724.0	0.023	0.000	18.3	3	1
03/28/06	2:59 a	-14.3	-14.3	-14.3	---	---	7.0	ENE	0.12	7.8	-21.3	---	---	724.1	0.023	0.000	18.3	3	1
03/28/06	3:00 a	-14.3	-14.3	-14.3	---	---	6.1	ENE	0.10	7.0	-20.8	---	---	724.0	0.023	0.000	18.3	3	1
03/28/06	3:01 a	-14.3	-14.3	-14.4	---	---	6.1	ENE	0.10	7.0	-20.8	---	---	724.1	0.023	0.000	18.4	3	1
03/28/06	3:02 a	-14.4	-14.4	-14.4	---	---	7.0	ENE	0.12	7.8	-21.4	---	---	724.1	0.023	0.000	18.4	3	1
03/28/06	3:03 a	-14.4	-14.4	-14.5	---	---	7.0	ENE	0.12	7.8	-21.5	---	---	724.0	0.023	0.000	18.4	3	1
03/28/06	3:04 a	-14.5	-14.4	-14.5	---	---	7.8	E	0.13	8.7	-22.1	---	---	724.0	0.023	0.000	18.4	3	1
03/28/06	3:05 a	-14.6	-14.5	-14.6	---	---	7.8	E	0.13	8.7	-22.1	---	---	724.1	0.023	0.000	18.4	3	1
03/28/06	3:06 a	-14.6	-14.6	-14.6	---	---	9.6	E	0.16	10.4	-23.1	---	---	724.0	0.023	0.000	18.3	3	1
03/28/06	3:07 a	-14.7	-14.7	-14.7	---	---	7.8	E	0.13	9.6	-22.3	---	---	724.0	0.023	0.000	18.3	3	1
03/28/06	3:08 a	-14.7	-14.7	-14.8	---	---	7.8	E	0.13	8.7	-22.3	---	---	724.0	0.023	0.000	18.4	3	1
03/28/06	3:09 a	-14.8	-14.8	-14.8	---	---	8.7	E	0.14	8.7	-22.8	---	---	724.0	0.023	0.000	18.4	3	1
03/28/06	3:10 a	-14.8	-14.8	-14.9	---	---	7.8	E	0.13	9.6	-22.5	---	---	724.0	0.023	0.000	18.4	3	1
03/28/06	3:11 a	-14.9	-14.9	-14.9	---	---	7.0	E	0.12	8.7	-22.1	---	---	724.1	0.023	0.000	18.4	3	1
03/28/06	3:12 a	-14.9	-14.9	-15.0	---	---	7.0	E	0.12	7.8	-22.1	---	---	724.1	0.023	0.000	18.4	3	1
03/28/06	3:13 a	-15.1	-15.0	-15.1	---	---	6.1	E	0.10	7.8	-21.7	---	---	724.0	0.023	0.000	18.4	3	1
03/28/06	3:14 a	-15.1	-15.1	-15.1	---	---	6.1	E	0.10	7.0	-21.7	---	---	724.1	0.023	0.000	18.4	3	1
03/28/06	3:15 a	-15.1	-15.1	-15.2	---	---	7.0	E	0.12	8.7	-22.3	---	---	724.0	0.023	0.000	18.4	4	1
03/28/06	3:16 a	-15.2	-15.2	-15.2	---	---	12.2	SE	0.20	13.9	-24.9	---	---	724.0	0.023	0.000	18.4	3	1
03/28/06	3:17 a	-15.3	-15.3	-15.3	---	---	7.8	SE	0.13	11.3	-23.0	---	---	724.2	0.023	0.000	18.4	4	1
03/28/06	3:18 a	-15.3	-15.3	-15.3	---	---	3.5	SSE	0.06	5.2	-19.8	---	---	724.0	0.023	0.000	18.4	4	1
03/28/06	3:19 a	-15.3	-15.3	-15.4	---	---	5.2	ESE	0.09	7.0	-21.4	---	---	724.1	0.023	0.000	18.4	4	1
03/28/06	3:20 a	-15.4	-15.4	-15.4	---	---	5.2	SE	0.09	7.8	-21.5	---	---	724.1	0.023	0.000	18.4	4	1
03/28/06	3:21 a	-15.5	-15.4	-15.5	---	---	3.5	SE	0.06	4.3	-20.1	---	---	724.2	0.023	0.000	18.4	4	1
03/28/06	3:22 a	-15.5	-15.5	-15.6	---	---	3.5	SE	0.06	4.3	-20.1	---	---	724.1	0.023	0.000	18.4	4	1
03/28/06	3:23 a	-15.6	-15.6	-15.6	---	---	2.6	SE	0.04	3.5	-19.1	---	---	724.1	0.024	0.000	18.4	4	1
03/28/06	3:24 a	-15.6	-15.6	-15.6	---	---	2.6	SE	0.04	3.5	-19.1	---	---	724.2	0.024	0.000	18.4	4	1
03/28/06	3:25 a	-15.6	-15.6	-15.7	---	---	2.6	SE	0.04	3.5	-19.1	---	---	724.1	0.024	0.000	18.4	4	1
03/28/06	3:26 a	-15.7	-15.7	-15.7	---	---	3.5	SE	0.06	4.3	-20.2	---	---	724.1	0.024	0.000	18.4	4	1
03/28/06	3:27 a	-15.7	-15.7	-15.8	---	---	2.6	SE	0.04	3.5	-19.2	---	---	724.0	0.024	0.000	18.3	4	1
03/28/06	3:28 a	-15.8	-15.8	-15.8	---	---	3.5	SE	0.06	3.5	-20.3	---	---	724.1	0.024	0.000	18.3	4	1
03/28/06	3:29 a	-15.8	-15.8	-15.8	---	---	2.6	SE	0.04	4.3	-19.3	---	---	724.2	0.024	0.000	18.3	4	1
03/28/06	3:30 a	-15.8	-15.8	-15.9	---	---	2.6	SE	0.04	3.5	-19.3	---	---	724.2	0.024	0.000	18.3	4	1
03/28/06	3:31 a	-15.9	-15.9	-15.9	---	---	2.6	SE	0.04	3.5	-19.4	---	---	724.1	0.024	0.000	18.3	4	1
03/28/06	3:32 a	-15.9	-15.9	-15.9	---	---	2.6	SE	0.04	3.5	-19.4	---	---	724.2	0.024	0.000	18.3	4	1
03/28/06	3:33 a	-15.9	-15.9	-16.0	---	---	1.7	SE	0.03	2.6	-18.1	---	---	724.3	0.024	0.000	18.3	4	1
03/28/06	3:34 a	-16.0	-16.0	-16.1	---	---	0.9	SE	0.01	1.7	-16.0	---	---	724.2	0.024	0.000	18.3	4	1
03/28/06	3:35 a	-16.1	-16.1	-16.1	---	---	0.9	SE	0.01	1.7	-16.1	---	---	724.2	0.024	0.000	18.3	4	1
03/28/06	3:36 a	-16.1	-16.1	-16.1	---	---	0.0	SE	0.00	0.9	-16.1	---	---	724.2	0.024	0.000	18.3	4	1
03/28/06	3:37 a	-16.1	-16.1	-16.1	---	---	0.0	SE	0.00	0.9	-16.1	---	---	724.2	0.024	0.000	18.3	4	1
03/28/06	3:38 a	-16.1	-16.1	-16.2	---	---	0.0	SE	0.00	0.9	-16.1	---	---	724.2	0.024	0.000	18.3	4	1
03/28/06	3:39 a	-16.2	-16.1	-16.2	---	---	0.0	SE	0.00	0.9	-16.2	---	---	724.2	0.024	0.000	18.3	4	1
03/28/06	3:40 a	-16.2	-16.2	-16.2	---	---	0.9	SE	0.01	0.9	-16.2	---	---	724.2	0.024	0.000	18.3	4	1
03/28/06	3:41 a	-16.2	-16.2	-16.2	---	---	0.9	SE	0.01	1.7	-16.2	---	---	724.3	0.024	0.000	18.3	4	1
03/28/06	3:42 a	-16.2	-16.2	-16.2	---	---	0.9	SE	0.01	1.7	-16.2	---	---	724.2	0.024	0.000	18.3	4	1
03/28/06	3:43 a	-16.3	-16.3	-16.3	---	---	0.9	SE	0.01	0.9	-16.3	---	---	724.2	0.024	0.000	18.3	4	1
03/28/06	3:44 a	-16.3	-16.3	-16.3	---	---	0.9	SE	0.01	1.7	-16.3	---	---	724.3	0.024	0.000	18.3	4	1
03/28/06	3:45 a	-16.3	-16.3	-16.3	---	---	0.9	SE	0.01	1.7	-16.3	---	---	724.3	0.024	0.000	18.3	4	1
03/28/06	3:46 a	-16.3	-16.3	-16.3	---	---	0.9	SE	0.01	1.7	-16.3	---	---	724.2	0.024	0.000	18.3	4	1
03/28/06	3:47 a	-16.3	-16.3	-16.4	---	---	0.0	SE	0.00	0.9	-16.3	---	---	724.2	0.024	0.000	18.3	3	1
03/28/06	3:48 a	-16.4	-16.4	-16.4	---	---	0.9	SE	0.01	0.9	-16.4	---	---	724.4	0.024	0.000	18.3	4	1
03/28/06	3:49 a	-16.4	-16.4	-16.4	---	---	0.9	SE	0.01	1.7	-16.4	---	---	724.2	0.024	0.000	18.3	3	1
03/28/06	3:50 a	-16.4	-16.4	-16.4	---	---	1.7	SE	0.03	1.7	-18.6	---	---	724.3	0.024	0.000	18.3	3	1
03/28/06	3:51 a	-16.4	-16.4	-16.4	---	---	1.7	SE	0.03	1.7	-18.6	---	---	724.3	0.024	0.000	18.3	3	1
03/28/06	3:52 a	-16.4	-16.4	-16.5	---	---	1.7	SE	0.03	1.7	-18.6	---	---	724.3	0.024	0.000	18.3	3	1
03/28/06	3:53 a	-16.5	-16.5	-16.5	---	---	0.9	SE	0.01	1.7	-16.5	---	---	724.3	0.024	0.000	18.3	3	1
03/28/06	3:54 a	-16.6	-16.5	-16.6	---	---	0.9	SE	0.01	0.9	-16.6	---	---	724.2	0.024	0.000	18.3	3	1
03/28/06	3:55 a	-16.6	-16.6	-16.6	---	---	0.9	SE	0.01	0.9	-16.6	---	---	724.2	0.024	0.000	18.3	3	1
03/28/06	3:56 a	-16.6	-16.6	-16.6	---	---	0.9	SE	0.01	0.9	-16.6	---	---	724.2	0.024	0.000	18.3	3	1
03/28/06	3:57 a	-16.6	-16.6	-16.6	---	---	0.9	SE	0.01	0.9	-16.6	---	---	724.2	0.024	0.000	18.3	3	1
03/28/06	3:58 a	-16.6	-16.6	-16.7	---	---	0.9	SE	0.01	0.9	-16.6	---	---	724.2	0.024	0.000	18.3	3	1
03/28/06	3:59 a	-16.7	-16.7	-16.7	---	---	0.0	SE	0.00	0.9	-16.7	---	---	724.2	0.024	0.000	18.3	3	1
03/28/06	4:00 a	-16.7	-16.7	-16.7	---	---	0.9	SE	0.01	1.7	-16.7	---	---	724.3	0.024	0.000	18.3	3	1
03/28/06	4:01 a	-16.7	-16.7	-16.7	---	---	0.9	SE	0.01	0.9	-16.7	---	---	724.3	0.024	0.000	18.3	3	1
03/28/06	4:02 a	-16.7	-16.7	-16.7	---	---	0.9	SE	0.01	1.7	-16.7	---	---	724.2	0.024	0.000	18.3	3	1
03/28/06	4:03 a	-16.7	-16.7	-16.8	---	---	0.9	SE	0.01	1.7	-16.7	---	---	724.2	0.024	0.000	18.3	3	1
03/28/06	4:04 a	-16.8	-16.8	-16.8	---	---	0.0	SE	0.00	0.9	-16.8	---	---	724.3	0.024	0.000	18.3	3	1
03/28/06	4:05 a	-16.8	-16.8	-16.8	---	---	0.9	SE	0.01	1.7	-16.8	---	---	724.2	0.024	0.000	18.3	3	1
03/28/06	4:06 a	-16.8	-16.8	-16.9	---	---	0.9	SE	0.01	2.6	-16.8	---	---	724.2	0.024	0.000	18.3	3	1
03/28/06	4:07 a	-16.8	-16.8	-16.9	---	---	1.7	SE	0.03	2.6	-19.0	---	---	724.2	0.024	0.000	18.3	3	1
03/28/06	4:08 a	-16.9	-16.8	-16.9	---	---	2.6	SE	0.04	3.5	-20.6	---	---	724.2	0.024	0.000	18.3	3	1
03/28/06	4:09 a	-16.9	-16.9	-16.9	---	---	2.6	SE	0.04	3.5	-20.6	---	---	724.3	0.024	0.000	18.3	3	1
03/28/06	4:10 a	-16.9	-16.9	-16.9	---	---	1.7	SE	0.03	2.6	-19.2	---	---	724.3	0.024	0.000	18.3	3	1
03/28/06	4:11 a	-16.9	-16.9	-17.0	---	---	1.7	SE	0.03	2.6	-19.2	---	---	724.3	0.024	0.000	18.3	3	1
03/28/06	4:12 a	-17.0	-16.9	-17.0	---	---	1.7	SE	0.03	2.6	-19.2	---	---	724.3	0.025	0.000	18.3	3	1
03/28/06	4:13 a	-17.0	-17.0	-17.1	---	---	2.6	SE	0.04	3.5	-20.7	---	---	724.3	0.025	0.000	18.3	3	1
03/28/06	4:14 a	-17.1	-17.1	-17.1	---	---	2.6	SE	0.04	3.5	-20.7	---	---	724.4	0.025	0.000	18.3	3	1
03/28/06	4:15 a	-17.1	-17.1	-17.1	---	---	2.6	SE	0.04	2.6	-20.8	---	---	724.3	0.025	0.000	18.3	3	1
03/28/06	4:16 a	-17.1	-17.1	-17.1	---	---	2.6	SE	0.04	3.5	-20.8	---	---	724.3	0.025	0.000	18.3	3	1
03/28/06	4:17 a	-17.2	-17.1	-17.2	---	---	1.7	SE	0.03	2.6	-19.4	---	---	724.3	0.025	0.000	18.3	3	1
03/28/06	4:18 a	-17.2	-17.2	-17.2	---	---	1.7	SE	0.03	2.6	-19.4	---	---	724.3	0.025	0.000	18.3	3	1
03/28/06	4:19 a	-17.2	-17.2	-17.2	---	---	1.7	SE	0.03	2.6	-19.4	---	---	724.3	0.025	0.000	18.3	3	1
03/28/06	4:20 a	-17.2	-17.2	-17.3	---	---	2.6	SE	0.04	2.6	-20.9	---	---	724.3	0.025	0.000	18.3	3	1
03/28/06	4:21 a	-17.3	-17.3	-17.3	---	---	2.6	SE	0.04	3.5	-21.0	---	---	724.4	0.025	0.000	18.3	3	1
03/28/06	4:22 a	-17.3	-17.3	-17.3	---	---	2.6	SE	0.04	3.5	-21.0	---	---	724.4	0.025	0.000	18.3	3	1
03/28/06	4:23 a	-17.3	-17.3	-17.4	---	---	2.6	SE	0.04	3.5	-21.1	---	---	724.3	0.025	0.000	18.3	3	1
03/28/06	4:24 a	-17.4	-17.4	-17.4	---	---	2.6	SE	0.04	2.6	-21.1	---	---	724.4	0.025	0.000	18.2	3	1
03/28/06	4:25 a	-17.4	-17.4	-17.4	---	---	2.6	SE	0.04	2.6	-21.1	---	---	724.5	0.025	0.000	18.2	3	1
03/28/06	4:26 a	-17.4	-17.4	-17.5	---	---	2.6	SE	0.04	2.6	-21.2	---	---	724.4	0.025	0.000	18.3	3	1
03/28/06	4:27 a	-17.5	-17.4	-17.5	---	---	2.6	SE	0.04	2.6	-21.2	---	---	724.5	0.025	0.000	18.3	3	1
03/28/06	4:28 a	-17.5	-17.5	-17.6	---	---	1.7	SE	0.03	2.6	-19.8	---	---	724.5	0.025	0.000	18.2	3	1
03/28/06	4:29 a	-17.6	-17.6	-17.6	---	---	1.7	SE	0.03	2.6	-19.8	---	---	724.5	0.025	0.000	18.2	3	1
03/28/06	4:30 a	-17.6	-17.6	-17.7	---	---	1.7	SE	0.03	2.6	-19.9	---	---	724.5	0.025	0.000	18.2	3	1
03/28/06	4:31 a	-17.6	-17.6	-17.7	---	---	2.6	SE	0.04	3.5	-21.3	---	---	724.6	0.025	0.000	18.2	3	1
03/28/06	4:32 a	-17.7	-17.6	-17.7	---	---	2.6	SE	0.04	3.5	-21.4	---	---	724.4	0.025	0.000	18.3	3	1
03/28/06	4:33 a	-17.7	-17.7	-17.7	---	---	2.6	SE	0.04	3.5	-21.5	---	---	724.5	0.025	0.000	18.3	3	1
03/28/06	4:34 a	-17.7	-17.7	-17.8	---	---	5.2	SE	0.09	7.8	-24.3	---	---	724.5	0.025	0.000	18.3	3	1
03/28/06	4:35 a	-17.8	-17.8	-17.8	---	---	7.0	SSE	0.12	7.8	-25.6	---	---	724.5	0.025	0.000	18.3	3	1
03/28/06	4:36 a	-17.8	-17.8	-17.8	---	---	7.8	SE	0.13	8.7	-26.2	---	---	724.5	0.025	0.000	18.3	3	1
03/28/06	4:37 a	-17.9	-17.8	-17.9	---	---	10.4	SE	0.17	13.9	-27.6	---	---	724.5	0.025	0.000	18.3	3	1
03/28/06	4:38 a	-17.9	-17.9	-17.9	---	---	16.5	SE	0.28	17.4	-29.9	---	---	724.5	0.025	0.000	18.3	3	1
03/28/06	4:39 a	-17.9	-17.9	-18.0	---	---	18.3	SE	0.30	20.0	-30.4	---	---	724.3	0.025	0.000	18.3	3	1
03/28/06	4:40 a	-18.1	-18.1	-18.1	---	---	18.3	SE	0.30	19.1	-30.6	---	---	724.4	0.025	0.000	18.3	3	1
03/28/06	4:41 a	-18.2	-18.1	-18.2	---	---	18.3	SE	0.30	20.0	-30.7	---	---	724.4	0.025	0.000	18.3	3	1
03/28/06	4:42 a	-18.2	-18.2	-18.3	---	---	19.1	SE	0.32	20.9	-31.0	---	---	724.4	0.025	0.000	18.2	3	1
03/28/06	4:43 a	-18.3	-18.3	-18.3	---	---	17.4	SE	0.29	18.3	-30.7	---	---	724.4	0.025	0.000	18.3	3	1
03/28/06	4:44 a	-18.4	-18.3	-18.4	---	---	18.3	SE	0.30	20.0	-31.0	---	---	724.5	0.026	0.000	18.3	3	1
03/28/06	4:45 a	-18.4	-18.4	-18.5	---	---	17.4	SE	0.29	18.3	-30.8	---	---	724.4	0.026	0.000	18.3	3	1
03/28/06	4:46 a	-18.5	-18.5	-18.6	---	---	17.4	SE	0.29	18.3	-30.9	---	---	724.4	0.026	0.000	18.3	3	1
03/28/06	4:47 a	-18.6	-18.6	-18.7	---	---	17.4	SE	0.29	19.1	-31.1	---	---	724.4	0.026	0.000	18.3	3	1
03/28/06	4:48 a	-18.7	-18.7	-18.7	---	---	18.3	SE	0.30	20.0	-31.4	---	---	724.4	0.026	0.000	18.3	3	1
03/28/06	4:49 a	-18.8	-18.7	-18.8	---	---	19.1	SE	0.32	20.9	-31.8	---	---	724.5	0.026	0.000	18.3	3	1
03/28/06	4:50 a	-18.8	-18.8	-18.9	---	---	19.1	SE	0.32	20.9	-31.8	---	---	724.3	0.026	0.000	18.3	3	1
03/28/06	4:51 a	-18.9	-18.9	-19.0	---	---	18.3	SE	0.30	20.0	-31.7	---	---	724.3	0.026	0.000	18.3	3	1
03/28/06	4:52 a	-19.0	-19.0	-19.1	---	---	18.3	SE	0.30	20.0	-31.8	---	---	724.5	0.026	0.000	18.3	3	1
03/28/06	4:53 a	-19.1	-19.1	-19.1	---	---	17.4	SE	0.29	20.0	-31.7	---	---	724.4	0.026	0.000	18.3	3	1
03/28/06	4:54 a	-19.2	-19.2	-19.2	---	---	17.4	SE	0.29	18.3	-31.8	---	---	724.5	0.026	0.000	18.3	3	1
03/28/06	4:55 a	-19.3	-19.3	-19.4	---	---	17.4	SE	0.29	19.1	-32.0	---	---	724.4	0.026	0.000	18.3	3	1
03/28/06	4:56 a	-19.4	-19.3	-19.4	---	---	17.4	SE	0.29	19.1	-32.1	---	---	724.4	0.026	0.000	18.3	3	1
03/28/06	4:57 a	-19.5	-19.4	-19.5	---	---	18.3	SE	0.30	19.1	-32.4	---	---	724.3	0.026	0.000	18.3	2	1
03/28/06	4:58 a	-19.6	-19.5	-19.6	---	---	17.4	SE	0.29	18.3	-32.3	---	---	724.4	0.026	0.000	18.3	3	1
03/28/06	4:59 a	-19.6	-19.6	-19.7	---	---	17.4	SE	0.29	19.1	-32.3	---	---	724.4	0.026	0.000	18.3	3	1
03/28/06	5:00 a	-19.7	-19.7	-19.8	---	---	18.3	SE	0.30	20.0	-32.8	---	---	724.4	0.026	0.000	18.3	3	1
03/28/06	5:01 a	-19.8	-19.8	-19.8	---	---	20.0	SE	0.33	21.7	-33.3	---	---	724.2	0.026	0.000	18.3	2	1
03/28/06	5:02 a	-19.9	-19.9	-19.9	---	---	20.0	SE	0.33	21.7	-33.4	---	---	724.3	0.027	0.000	18.3	2	1
03/28/06	5:03 a	-19.9	-19.9	-20.0	---	---	20.9	SE	0.35	22.6	-33.8	---	---	724.2	0.027	0.000	18.3	3	1
03/28/06	5:04 a	-20.1	-20.0	-20.1	---	---	20.9	SE	0.35	21.7	-33.9	---	---	724.2	0.027	0.000	18.3	2	1
03/28/06	5:05 a	-20.1	-20.1	-20.2	---	---	19.1	SE	0.32	21.7	-33.5	---	---	724.2	0.027	0.000	18.3	3	1
03/28/06	5:06 a	-20.2	-20.2	-20.2	---	---	20.0	SE	0.33	22.6	-33.9	---	---	724.2	0.027	0.000	18.3	3	1
03/28/06	5:07 a	-20.3	-20.2	-20.3	---	---	19.1	SE	0.32	21.7	-33.7	---	---	724.2	0.027	0.000	18.3	2	1
03/28/06	5:08 a	-20.3	-20.3	-20.4	---	---	20.9	SE	0.35	24.3	-34.3	---	---	724.3	0.027	0.000	18.3	2	1
03/28/06	5:09 a	-20.4	-20.4	-20.4	---	---	20.0	SE	0.33	21.7	-34.2	---	---	724.2	0.027	0.000	18.3	2	1
03/28/06	5:10 a	-20.5	-20.4	-20.6	---	---	20.0	SE	0.33	20.9	-34.3	---	---	724.2	0.027	0.000	18.3	2	1
03/28/06	5:11 a	-20.6	-20.6	-20.6	---	---	20.0	SE	0.33	21.7	-34.3	---	---	724.2	0.027	0.000	18.3	2	1
03/28/06	5:12 a	-20.6	-20.6	-20.7	---	---	21.7	SE	0.36	23.5	-34.9	---	---	724.2	0.027	0.000	18.3	2	1
03/28/06	5:13 a	-20.7	-20.7	-20.7	---	---	20.9	SE	0.35	22.6	-34.7	---	---	724.2	0.027	0.000	18.3	2	1
03/28/06	5:14 a	-20.7	-20.7	-20.8	---	---	21.7	SE	0.36	22.6	-35.1	---	---	724.2	0.027	0.000	18.3	2	1
03/28/06	5:15 a	-20.8	-20.8	-20.8	---	---	21.7	SE	0.36	23.5	-35.1	---	---	724.1	0.027	0.000	18.3	2	1
03/28/06	5:16 a	-20.8	-20.8	-20.9	---	---	20.9	SE	0.35	23.5	-34.9	---	---	724.1	0.027	0.000	18.3	2	1
03/28/06	5:17 a	-20.9	-20.8	-20.9	---	---	21.7	SE	0.36	24.3	-35.3	---	---	724.1	0.027	0.000	18.3	2	1
03/28/06	5:18 a	-20.9	-20.9	-20.9	---	---	21.7	SE	0.36	24.3	-35.3	---	---	724.2	0.027	0.000	18.3	2	1
03/28/06	5:19 a	-21.0	-21.0	-21.0	---	---	20.9	SE	0.35	23.5	-35.2	---	---	724.1	0.027	0.000	18.3	2	1
03/28/06	5:20 a	-21.1	-21.0	-21.1	---	---	20.0	SE	0.33	21.7	-35.0	---	---	724.2	0.027	0.000	18.3	2	1
03/28/06	5:21 a	-21.1	-21.1	-21.1	---	---	20.0	ESE	0.33	20.9	-35.0	---	---	724.2	0.027	0.000	18.3	2	1
03/28/06	5:22 a	-21.1	-21.1	-21.2	---	---	20.0	SE	0.33	22.6	-35.1	---	---	724.1	0.027	0.000	18.3	2	1
03/28/06	5:23 a	-21.2	-21.1	-21.2	---	---	21.7	SE	0.36	24.3	-35.6	---	---	724.1	0.027	0.000	18.3	2	1
03/28/06	5:24 a	-21.2	-21.2	-21.2	---	---	21.7	SE	0.36	23.5	-35.7	---	---	724.2	0.027	0.000	18.3	2	1
03/28/06	5:25 a	-21.2	-21.2	-21.3	---	---	20.9	SE	0.35	22.6	-35.5	---	---	724.2	0.027	0.000	18.3	2	1
03/28/06	5:26 a	-21.3	-21.3	-21.3	---	---	21.7	SE	0.36	25.2	-35.8	---	---	724.1	0.028	0.000	18.3	2	1
03/28/06	5:27 a	-21.3	-21.3	-21.3	---	---	21.7	SE	0.36	22.6	-35.8	---	---	724.1	0.028	0.000	18.3	2	1
03/28/06	5:28 a	-21.3	-21.3	-21.3	---	---	20.9	SE	0.35	22.6	-35.6	---	---	724.1	0.028	0.000	18.3	2	1
03/28/06	5:29 a	-21.3	-21.3	-21.3	---	---	20.0	SE	0.33	22.6	-35.4	---	---	724.2	0.028	0.000	18.3	2	1
03/28/06	5:30 a	-21.4	-21.3	-21.4	---	---	20.9	SE	0.35	22.6	-35.7	---	---	724.2	0.028	0.000	18.3	2	1
03/28/06	5:31 a	-21.4	-21.4	-21.4	---	---	20.0	SE	0.33	22.6	-35.4	---	---	724.1	0.028	0.000	18.3	2	1
03/28/06	5:32 a	-21.4	-21.4	-21.4	---	---	20.0	SE	0.33	22.6	-35.4	---	---	724.2	0.028	0.000	18.3	2	1
03/28/06	5:33 a	-21.4	-21.4	-21.4	---	---	20.9	ESE	0.35	21.7	-35.7	---	---	724.1	0.028	0.000	18.3	2	1
03/28/06	5:34 a	-21.4	-21.4	-21.4	---	---	20.0	SE	0.33	21.7	-35.6	---	---	724.2	0.028	0.000	18.3	2	1
03/28/06	5:35 a	-21.4	-21.4	-21.5	---	---	20.9	SE	0.35	22.6	-35.8	---	---	724.0	0.028	0.000	18.3	2	1
03/28/06	5:36 a	-21.5	-21.4	-21.5	---	---	20.9	SE	0.35	22.6	-35.8	---	---	724.1	0.028	0.000	18.3	2	1
03/28/06	5:37 a	-21.4	-21.4	-21.5	---	---	20.9	SE	0.35	22.6	-35.8	---	---	724.0	0.028	0.000	18.3	2	1
03/28/06	5:38 a	-21.5	-21.4	-21.6	---	---	20.0	SE	0.33	20.9	-35.6	---	---	724.0	0.028	0.000	18.3	2	1
03/28/06	5:39 a	-21.5	-21.4	-21.6	---	---	20.0	SE	0.33	22.6	-35.6	---	---	723.9	0.028	0.000	18.3	2	1
03/28/06	5:40 a	-21.6	-21.5	-21.6	---	---	21.7	SE	0.36	22.6	-36.2	---	---	724.0	0.028	0.000	18.2	2	1
03/28/06	5:41 a	-21.5	-21.5	-21.6	---	---	21.7	SE	0.36	23.5	-36.1	---	---	724.0	0.028	0.000	18.3	2	1
03/28/06	5:42 a	-21.6	-21.6	-21.6	---	---	21.7	SE	0.36	23.5	-36.2	---	---	724.1	0.028	0.000	18.2	2	1
03/28/06	5:43 a	-21.6	-21.6	-21.6	---	---	21.7	SE	0.36	24.3	-36.2	---	---	724.0	0.028	0.000	18.2	2	1
03/28/06	5:44 a	-21.6	-21.6	-21.6	---	---	20.9	SE	0.35	23.5	-36.0	---	---	724.0	0.028	0.000	18.2	2	1
03/28/06	5:45 a	-21.6	-21.6	-21.7	---	---	22.6	SE	0.38	25.2	-36.4	---	---	723.9	0.028	0.000	18.2	2	1
03/28/06	5:46 a	-21.6	-21.6	-21.6	---	---	21.7	SE	0.36	24.3	-36.2	---	---	724.1	0.028	0.000	18.2	2	1
03/28/06	5:47 a	-21.7	-21.6	-21.7	---	---	21.7	SE	0.36	24.3	-36.3	---	---	724.0	0.028	0.000	18.2	2	1
03/28/06	5:48 a	-21.7	-21.7	-21.7	---	---	23.5	SE	0.39	25.2	-36.8	---	---	723.9	0.028	0.000	18.2	2	1
03/28/06	5:49 a	-21.7	-21.7	-21.7	---	---	22.6	SE	0.38	24.3	-36.6	---	---	724.0	0.028	0.000	18.2	2	1
03/28/06	5:50 a	-21.7	-21.6	-21.7	---	---	22.6	SE	0.38	24.3	-36.6	---	---	724.0	0.028	0.000	18.2	2	1
03/28/06	5:51 a	-21.7	-21.7	-21.7	---	---	20.9	SE	0.35	21.7	-36.1	---	---	724.1	0.028	0.000	18.2	2	1
03/28/06	5:52 a	-21.7	-21.7	-21.7	---	---	20.9	SE	0.35	23.5	-36.1	---	---	724.1	0.028	0.000	18.2	2	1
03/28/06	5:53 a	-21.7	-21.7	-21.7	---	---	20.0	SE	0.33	22.6	-35.8	---	---	724.2	0.028	0.000	18.2	2	1
03/28/06	5:54 a	-21.7	-21.7	-21.7	---	---	20.9	ESE	0.35	21.7	-36.2	---	---	724.1	0.028	0.000	18.2	2	1
03/28/06	5:55 a	-21.7	-21.7	-21.8	---	---	20.9	ESE	0.35	23.5	-36.2	---	---	724.1	0.028	0.000	18.2	2	1
03/28/06	5:56 a	-21.8	-21.8	-21.8	---	---	21.7	ESE	0.36	23.5	-36.4	---	---	724.0	0.028	0.000	18.2	2	1
03/28/06	5:57 a	-21.8	-21.7	-21.8	---	---	21.7	ESE	0.36	23.5	-36.4	---	---	723.9	0.028	0.000	18.2	2	1
03/28/06	5:58 a	-21.8	-21.7	-21.8	---	---	20.9	ESE	0.35	21.7	-36.2	---	---	724.1	0.028	0.000	18.2	2	1
03/28/06	5:59 a	-21.8	-21.8	-21.8	---	---	20.0	ESE	0.33	21.7	-36.1	---	---	724.1	0.028	0.000	18.2	2	1
03/28/06	6:00 a	-21.8	-21.8	-21.9	---	---	20.0	ESE	0.33	22.6	-36.1	---	---	724.1	0.028	0.000	18.2	2	1
03/28/06	6:01 a	-21.8	-21.8	-21.9	---	---	19.1	ESE	0.32	20.0	-35.8	---	---	724.1	0.028	0.000	18.2	2	1
03/28/06	6:02 a	-21.9	-21.9	-21.9	---	---	19.1	ESE	0.32	20.0	-35.9	---	---	724.1	0.028	0.000	18.2	2	1
03/28/06	6:03 a	-21.9	-21.8	-21.9	---	---	20.0	ESE	0.33	21.7	-36.1	---	---	724.2	0.028	0.000	18.2	2	1
03/28/06	6:04 a	-21.9	-21.8	-21.9	---	---	20.0	E	0.33	20.9	-36.1	---	---	724.2	0.028	0.000	18.2	2	1
03/28/06	6:05 a	-21.9	-21.9	-21.9	---	---	19.1	ESE	0.32	21.7	-35.9	---	---	724.2	0.028	0.000	18.2	2	1
03/28/06	6:06 a	-21.9	-21.9	-22.0	---	---	19.1	ESE	0.32	20.9	-35.9	---	---	724.2	0.028	0.000	18.2	2	1
03/28/06	6:07 a	-21.9	-21.9	-22.0	---	---	18.3	ESE	0.30	19.1	-35.7	---	---	724.2	0.028	0.000	18.2	2	1
03/28/06	6:08 a	-22.0	-21.9	-22.1	---	---	18.3	ESE	0.30	20.0	-35.8	---	---	724.2	0.028	0.000	18.2	2	1
03/28/06	6:09 a	-22.1	-22.1	-22.1	---	---	21.7	ESE	0.36	24.3	-36.8	---	---	724.0	0.028	0.000	18.2	2	1
03/28/06	6:10 a	-22.1	-22.1	-22.1	---	---	20.0	ESE	0.33	22.6	-36.3	---	---	724.2	0.028	0.000	18.2	2	1
03/28/06	6:11 a	-22.1	-22.1	-22.1	---	---	20.0	ESE	0.33	20.9	-36.3	---	---	724.1	0.028	0.000	18.2	2	1
03/28/06	6:12 a	-22.1	-22.1	-22.1	---	---	20.9	ESE	0.35	23.5	-36.7	---	---	724.2	0.028	0.000	18.2	2	1
03/28/06	6:13 a	-22.1	-22.1	-22.1	---	---	20.9	ESE	0.35	21.7	-36.6	---	---	724.1	0.028	0.000	18.2	2	1
03/28/06	6:14 a	-22.1	-22.1	-22.2	---	---	19.1	ESE	0.32	21.7	-36.2	---	---	724.2	0.028	0.000	18.2	2	1
03/28/06	6:15 a	-22.2	-22.1	-22.2	---	---	18.3	ESE	0.30	20.0	-36.0	---	---	724.2	0.028	0.000	18.2	2	1
03/28/06	6:16 a	-22.2	-22.1	-22.2	---	---	17.4	ESE	0.29	18.3	-35.7	---	---	724.3	0.028	0.000	18.2	2	1
03/28/06	6:17 a	-22.2	-22.1	-22.2	---	---	18.3	SE	0.30	20.9	-36.0	---	---	724.2	0.028	0.000	18.2	2	1
03/28/06	6:18 a	-22.2	-22.2	-22.2	---	---	19.1	SE	0.32	24.3	-36.3	---	---	724.2	0.028	0.000	18.2	2	1
03/28/06	6:19 a	-22.2	-22.2	-22.2	---	---	20.0	SE	0.33	23.5	-36.5	---	---	724.2	0.028	0.000	18.2	2	1
03/28/06	6:20 a	-22.3	-22.2	-22.3	---	---	20.9	SE	0.35	23.5	-36.9	---	---	724.1	0.028	0.000	18.2	2	1
03/28/06	6:21 a	-22.3	-22.2	-22.3	---	---	20.0	ESE	0.33	22.6	-36.7	---	---	724.3	0.028	0.000	18.2	2	1
03/28/06	6:22 a	-22.3	-22.3	-22.3	---	---	20.0	SE	0.33	22.6	-36.7	---	---	724.2	0.028	0.000	18.2	2	1
03/28/06	6:23 a	-22.3	-22.3	-22.3	---	---	19.1	ESE	0.32	20.9	-36.4	---	---	724.4	0.028	0.000	18.2	2	1
03/28/06	6:24 a	-22.3	-22.3	-22.3	---	---	16.5	SE	0.28	18.3	-35.6	---	---	724.3	0.028	0.000	18.2	2	1
03/28/06	6:25 a	-22.3	-22.3	-22.4	---	---	18.3	SE	0.30	21.7	-36.2	---	---	724.3	0.028	0.000	18.2	2	1
03/28/06	6:26 a	-22.3	-22.3	-22.4	---	---	17.4	ESE	0.29	19.1	-35.9	---	---	724.2	0.028	0.000	18.2	2	1
03/28/06	6:27 a	-22.3	-22.3	-22.4	---	---	19.1	SE	0.32	21.7	-36.4	---	---	724.2	0.028	0.000	18.2	2	1
03/28/06	6:28 a	-22.4	-22.3	-22.4	---	---	18.3	SE	0.30	20.9	-36.3	---	---	724.3	0.028	0.000	18.2	2	1
03/28/06	6:29 a	-22.4	-22.3	-22.4	---	---	16.5	SE	0.28	17.4	-35.7	---	---	724.4	0.028	0.000	18.2	2	1
03/28/06	6:30 a	-22.4	-22.4	-22.4	---	---	16.5	SE	0.28	18.3	-35.7	---	---	724.4	0.028	0.000	18.2	2	1
03/28/06	6:31 a	-22.4	-22.4	-22.4	---	---	15.7	SE	0.26	17.4	-35.4	---	---	724.4	0.028	0.000	18.2	2	1
03/28/06	6:32 a	-22.4	-22.4	-22.5	---	---	17.4	SE	0.29	19.1	-36.1	---	---	724.3	0.028	0.000	18.2	2	1
03/28/06	6:33 a	-22.4	-22.4	-22.5	---	---	16.5	SE	0.28	18.3	-35.8	---	---	724.3	0.028	0.000	18.2	2	1
03/28/06	6:34 a	-22.4	-22.4	-22.5	---	---	15.7	SE	0.26	17.4	-35.5	---	---	724.4	0.028	0.000	18.2	2	1
03/28/06	6:35 a	-22.5	-22.4	-22.6	---	---	16.5	ESE	0.28	18.3	-35.8	---	---	724.3	0.028	0.000	18.2	2	1
03/28/06	6:36 a	-22.6	-22.6	-22.6	---	---	15.7	ESE	0.26	17.4	-35.6	---	---	724.3	0.028	0.000	18.2	2	1
03/28/06	6:37 a	-22.6	-22.6	-22.6	---	---	15.7	ESE	0.26	18.3	-35.6	---	---	724.3	0.028	0.000	18.2	2	1
03/28/06	6:38 a	-22.6	-22.6	-22.6	---	---	15.7	ESE	0.26	17.4	-35.6	---	---	724.4	0.028	0.000	18.2	2	1
03/28/06	6:39 a	-22.6	-22.6	-22.6	---	---	16.5	ESE	0.28	19.1	-35.9	---	---	724.3	0.028	0.000	18.2	2	1
03/28/06	6:40 a	-22.6	-22.6	-22.6	---	---	15.7	ESE	0.26	18.3	-35.7	---	---	724.2	0.028	0.000	18.2	2	1
03/28/06	6:41 a	-22.6	-22.6	-22.6	---	---	17.4	ESE	0.29	19.1	-36.3	---	---	724.3	0.028	0.000	18.2	2	1
03/28/06	6:42 a	-22.6	-22.6	-22.6	---	---	16.5	ESE	0.28	18.3	-36.0	---	---	724.2	0.028	0.000	18.2	2	1
03/28/06	6:43 a	-22.6	-22.6	-22.6	---	---	16.5	ESE	0.28	18.3	-36.0	---	---	724.4	0.028	0.000	18.2	2	1
03/28/06	6:44 a	-22.6	-22.6	-22.7	---	---	17.4	ESE	0.29	19.1	-36.3	---	---	724.3	0.028	0.000	18.2	2	1
03/28/06	6:45 a	-22.6	-22.6	-22.7	---	---	14.8	ESE	0.25	17.4	-35.4	---	---	724.4	0.028	0.000	18.2	2	1
03/28/06	6:46 a	-22.7	-22.6	-22.7	---	---	15.7	ESE	0.26	18.3	-35.8	---	---	724.4	0.028	0.000	18.2	2	1
03/28/06	6:47 a	-22.7	-22.6	-22.7	---	---	15.7	ESE	0.26	16.5	-35.8	---	---	724.4	0.028	0.000	18.2	2	1
03/28/06	6:48 a	-22.7	-22.6	-22.7	---	---	14.8	ESE	0.25	16.5	-35.4	---	---	724.4	0.028	0.000	18.2	2	1
03/28/06	6:49 a	-22.7	-22.7	-22.7	---	---	14.8	ESE	0.25	15.7	-35.4	---	---	724.4	0.028	0.000	18.2	2	1
03/28/06	6:50 a	-22.7	-22.6	-22.7	---	---	15.7	ESE	0.26	17.4	-35.8	---	---	724.5	0.028	0.000	18.2	2	1
03/28/06	6:51 a	-22.7	-22.7	-22.7	---	---	13.9	ESE	0.23	14.8	-35.2	---	---	724.4	0.029	0.000	18.2	2	1
03/28/06	6:52 a	-22.7	-22.7	-22.7	---	---	14.8	ESE	0.25	16.5	-35.5	---	---	724.4	0.029	0.000	18.2	2	1
03/28/06	6:53 a	-22.7	-22.7	-22.7	---	---	15.7	ESE	0.26	17.4	-35.8	---	---	724.3	0.029	0.000	18.2	2	1
03/28/06	6:54 a	-22.7	-22.7	-22.7	---	---	15.7	ESE	0.26	17.4	-35.8	---	---	724.4	0.029	0.000	18.2	2	1
03/28/06	6:55 a	-22.7	-22.7	-22.8	---	---	13.0	E	0.22	15.7	-34.8	---	---	724.4	0.029	0.000	18.2	2	1
03/28/06	6:56 a	-22.8	-22.8	-22.8	---	---	14.8	E	0.25	18.3	-35.6	---	---	724.4	0.029	0.000	18.2	2	1
03/28/06	6:57 a	-22.8	-22.7	-22.8	---	---	13.9	E	0.23	16.5	-35.3	---	---	724.3	0.029	0.000	18.2	2	1
03/28/06	6:58 a	-22.8	-22.8	-22.8	---	---	14.8	E	0.25	17.4	-35.6	---	---	724.3	0.029	0.000	18.2	2	1
03/28/06	6:59 a	-22.8	-22.8	-22.8	---	---	13.9	E	0.23	15.7	-35.3	---	---	724.4	0.029	0.000	18.2	2	1
03/28/06	7:00 a	-22.8	-22.8	-22.8	---	---	13.9	E	0.23	15.7	-35.3	---	---	724.4	0.029	0.000	18.2	1	1
03/28/06	7:01 a	-22.8	-22.8	-22.8	---	---	13.9	ESE	0.23	16.5	-35.3	---	---	724.4	0.029	0.000	18.2	2	1
03/28/06	7:02 a	-22.8	-22.8	-22.9	---	---	16.5	ESE	0.28	18.3	-36.3	---	---	724.3	0.029	0.000	18.2	2	1
03/28/06	7:03 a	-22.9	-22.9	-22.9	---	---	17.4	ESE	0.29	19.1	-36.7	---	---	724.3	0.029	0.000	18.2	2	1
03/28/06	7:04 a	-22.9	-22.9	-22.9	---	---	17.4	ESE	0.29	20.0	-36.7	---	---	724.3	0.029	0.000	18.2	1	1
03/28/06	7:05 a	-22.9	-22.9	-22.9	---	---	17.4	ESE	0.29	20.0	-36.7	---	---	724.4	0.029	0.000	18.2	2	1
03/28/06	7:06 a	-22.9	-22.9	-22.9	---	---	16.5	ESE	0.28	18.3	-36.3	---	---	724.4	0.029	0.000	18.2	2	1
03/28/06	7:07 a	-22.9	-22.9	-22.9	---	---	19.1	ESE	0.32	20.0	-37.3	---	---	724.4	0.029	0.000	18.2	1	1
03/28/06	7:08 a	-22.9	-22.9	-22.9	---	---	16.5	ESE	0.28	18.3	-36.4	---	---	724.4	0.029	0.000	18.2	2	1
03/28/06	7:09 a	-22.9	-22.9	-22.9	---	---	15.7	ESE	0.26	17.4	-36.1	---	---	724.4	0.029	0.000	18.2	1	1
03/28/06	7:10 a	-22.9	-22.9	-23.0	---	---	17.4	ESE	0.29	19.1	-36.7	---	---	724.5	0.029	0.000	18.2	1	1
03/28/06	7:11 a	-22.9	-22.9	-23.0	---	---	17.4	ESE	0.29	18.3	-36.7	---	---	724.4	0.029	0.000	18.2	1	1
03/28/06	7:12 a	-23.0	-22.9	-23.0	---	---	15.7	ESE	0.26	17.4	-36.2	---	---	724.5	0.029	0.000	18.2	1	1
03/28/06	7:13 a	-23.0	-23.0	-23.0	---	---	16.5	ESE	0.28	17.4	-36.5	---	---	724.5	0.029	0.000	18.2	1	1
03/28/06	7:14 a	-23.0	-22.9	-23.0	---	---	15.7	ESE	0.26	17.4	-36.2	---	---	724.5	0.029	0.000	18.2	1	1
03/28/06	7:15 a	-23.0	-23.0	-23.0	---	---	17.4	ESE	0.29	19.1	-36.8	---	---	724.5	0.029	0.000	18.2	1	1
03/28/06	7:16 a	-23.0	-23.0	-23.0	---	---	17.4	ESE	0.29	18.3	-36.8	---	---	724.5	0.029	0.000	18.2	1	1
03/28/06	7:17 a	-23.1	-23.0	-23.1	---	---	14.8	ESE	0.25	17.4	-35.9	---	---	724.6	0.029	0.000	18.2	2	1
03/28/06	7:18 a	-23.0	-23.0	-23.1	---	---	13.9	ESE	0.23	17.4	-35.6	---	---	724.5	0.029	0.000	18.2	2	1
03/28/06	7:19 a	-23.0	-23.0	-23.1	---	---	14.8	ESE	0.25	16.5	-35.9	---	---	724.6	0.029	0.000	18.2	1	1
03/28/06	7:20 a	-23.1	-23.1	-23.1	---	---	15.7	ESE	0.26	18.3	-36.3	---	---	724.5	0.029	0.000	18.2	1	1
03/28/06	7:21 a	-23.1	-23.0	-23.1	---	---	16.5	SE	0.28	19.1	-36.6	---	---	724.4	0.029	0.000	18.2	1	1
03/28/06	7:22 a	-23.1	-23.0	-23.1	---	---	16.5	ESE	0.28	17.4	-36.6	---	---	724.5	0.029	0.000	18.2	1	1
03/28/06	7:23 a	-23.1	-23.0	-23.1	---	---	17.4	ESE	0.29	18.3	-36.9	---	---	724.4	0.029	0.000	18.2	2	1
03/28/06	7:24 a	-23.1	-23.0	-23.1	---	---	18.3	ESE	0.30	20.0	-37.2	---	---	724.4	0.029	0.000	18.2	1	1
03/28/06	7:25 a	-23.1	-23.0	-23.1	---	---	18.3	ESE	0.30	20.0	-37.2	---	---	724.5	0.029	0.000	18.2	1	1
03/28/06	7:26 a	-23.1	-23.1	-23.1	---	---	16.5	ESE	0.28	18.3	-36.6	---	---	724.5	0.029	0.000	18.2	1	1
03/28/06	7:27 a	-23.1	-23.1	-23.1	---	---	16.5	SE	0.28	18.3	-36.7	---	---	724.4	0.029	0.000	18.2	1	1
03/28/06	7:28 a	-23.1	-23.1	-23.1	---	---	16.5	ESE	0.28	19.1	-36.6	---	---	724.5	0.029	0.000	18.2	1	1
03/28/06	7:29 a	-23.1	-23.1	-23.1	---	---	16.5	SE	0.28	18.3	-36.6	---	---	724.6	0.029	0.000	18.2	1	1
03/28/06	7:30 a	-23.1	-23.1	-23.1	---	---	15.7	SE	0.26	18.3	-36.3	---	---	724.5	0.029	0.000	18.2	1	1
03/28/06	7:31 a	-23.1	-23.1	-23.1	---	---	15.7	SE	0.26	18.3	-36.3	---	---	724.4	0.029	0.000	18.2	1	1
03/28/06	7:32 a	-23.1	-23.1	-23.1	---	---	15.7	SE	0.26	18.3	-36.3	---	---	724.4	0.029	0.000	18.2	1	1
03/28/06	7:33 a	-23.1	-23.1	-23.1	---	---	16.5	ESE	0.28	18.3	-36.7	---	---	724.5	0.029	0.000	18.2	1	1
03/28/06	7:34 a	-23.1	-23.1	-23.1	---	---	16.5	ESE	0.28	17.4	-36.6	---	---	724.5	0.029	0.000	18.2	1	1
03/28/06	7:35 a	-23.1	-23.1	-23.1	---	---	15.7	ESE	0.26	17.4	-36.3	---	---	724.4	0.029	0.000	18.2	1	1
03/28/06	7:36 a	-23.1	-23.1	-23.1	---	---	17.4	ESE	0.29	19.1	-36.9	---	---	724.4	0.029	0.000	18.2	1	1
03/28/06	7:37 a	-23.1	-23.1	-23.1	---	---	16.5	ESE	0.28	18.3	-36.7	---	---	724.5	0.029	0.000	18.2	1	1
03/28/06	7:38 a	-23.1	-23.1	-23.2	---	---	17.4	ESE	0.29	19.1	-36.9	---	---	724.5	0.029	0.000	18.2	1	1
03/28/06	7:39 a	-23.2	-23.1	-23.2	---	---	18.3	ESE	0.30	20.0	-37.3	---	---	724.5	0.029	0.000	18.2	1	1
03/28/06	7:40 a	-23.2	-23.1	-23.2	---	---	18.3	ESE	0.30	20.0	-37.3	---	---	724.3	0.029	0.000	18.2	1	1
03/28/06	7:41 a	-23.2	-23.1	-23.2	---	---	18.3	ESE	0.30	19.1	-37.3	---	---	724.5	0.029	0.000	18.2	1	1
03/28/06	7:42 a	-23.1	-23.1	-23.1	---	---	19.1	ESE	0.32	20.0	-37.5	---	---	724.5	0.029	0.000	18.2	1	1
03/28/06	7:43 a	-23.1	-23.1	-23.1	---	---	20.0	ESE	0.33	21.7	-37.7	---	---	724.4	0.029	0.000	18.2	1	1
03/28/06	7:44 a	-23.2	-23.1	-23.2	---	---	18.3	ESE	0.30	20.9	-37.3	---	---	724.4	0.029	0.000	18.2	1	1
03/28/06	7:45 a	-23.1	-23.1	-23.1	---	---	19.1	ESE	0.32	20.9	-37.5	---	---	724.4	0.029	0.000	18.2	1	1
03/28/06	7:46 a	-23.2	-23.2	-23.2	---	---	18.3	ESE	0.30	20.0	-37.3	---	---	724.3	0.029	0.000	18.2	1	1
03/28/06	7:47 a	-23.1	-23.1	-23.2	---	---	19.1	ESE	0.32	20.9	-37.5	---	---	724.5	0.029	0.000	18.2	1	1
03/28/06	7:48 a	-23.2	-23.2	-23.2	---	---	19.1	ESE	0.32	20.9	-37.6	---	---	724.4	0.029	0.000	18.2	1	1
03/28/06	7:49 a	-23.2	-23.2	-23.2	---	---	19.1	ESE	0.32	20.9	-37.6	---	---	724.3	0.029	0.000	18.2	1	1
03/28/06	7:50 a	-23.2	-23.2	-23.2	---	---	18.3	E	0.30	20.0	-37.3	---	---	724.3	0.029	0.000	18.2	1	1
03/28/06	7:51 a	-23.2	-23.2	-23.2	---	---	19.1	ESE	0.32	20.9	-37.6	---	---	724.4	0.029	0.000	18.2	1	1
03/28/06	7:52 a	-23.2	-23.2	-23.2	---	---	17.4	E	0.29	19.1	-37.1	---	---	724.4	0.029	0.000	18.2	1	1
03/28/06	7:53 a	-23.2	-23.2	-23.2	---	---	18.3	E	0.30	20.0	-37.4	---	---	724.3	0.029	0.000	18.2	1	1
03/28/06	7:54 a	-23.2	-23.2	-23.3	---	---	17.4	ESE	0.29	19.1	-37.1	---	---	724.4	0.029	0.000	18.2	1	1
03/28/06	7:55 a	-23.2	-23.2	-23.2	---	---	18.3	E	0.30	20.0	-37.4	---	---	724.3	0.029	0.000	18.2	1	1
03/28/06	7:56 a	-23.2	-23.2	-23.2	---	---	17.4	ESE	0.29	20.0	-37.1	---	---	724.3	0.029	0.000	18.2	1	1
03/28/06	7:57 a	-23.2	-23.2	-23.3	---	---	18.3	E	0.30	20.0	-37.4	---	---	724.3	0.029	0.000	18.2	1	1
03/28/06	7:58 a	-23.3	-23.2	-23.3	---	---	17.4	E	0.29	20.9	-37.2	---	---	724.4	0.029	0.000	18.2	1	1
03/28/06	7:59 a	-23.3	-23.3	-23.3	---	---	17.4	E	0.29	19.1	-37.2	---	---	724.3	0.029	0.000	18.2	1	1
03/28/06	8:00 a	-23.3	-23.3	-23.3	---	---	17.4	E	0.29	20.0	-37.2	---	---	724.3	0.029	0.000	18.2	1	1
03/28/06	8:01 a	-23.3	-23.3	-23.3	---	---	18.3	ESE	0.30	20.0	-37.4	---	---	724.3	0.029	0.000	18.2	1	1
03/28/06	8:02 a	-23.3	-23.3	-23.3	---	---	18.3	ESE	0.30	20.0	-37.5	---	---	724.3	0.029	0.000	18.2	1	1
03/28/06	8:03 a	-23.3	-23.3	-23.3	---	---	19.1	ESE	0.32	20.0	-37.8	---	---	724.3	0.029	0.000	18.2	1	1
03/28/06	8:04 a	-23.3	-23.3	-23.4	---	---	19.1	ESE	0.32	22.6	-37.8	---	---	724.3	0.029	0.000	18.2	1	1
03/28/06	8:05 a	-23.3	-23.3	-23.4	---	---	20.0	ESE	0.33	21.7	-38.1	---	---	724.3	0.029	0.000	18.2	1	1
03/28/06	8:06 a	-23.4	-23.3	-23.4	---	---	18.3	ESE	0.30	21.7	-37.6	---	---	724.3	0.029	0.000	18.2	1	1
03/28/06	8:07 a	-23.4	-23.4	-23.4	---	---	18.3	ESE	0.30	20.9	-37.6	---	---	724.2	0.029	0.000	18.2	1	1
03/28/06	8:08 a	-23.4	-23.3	-23.4	---	---	18.3	ESE	0.30	20.9	-37.6	---	---	724.3	0.029	0.000	18.2	1	1
03/28/06	8:09 a	-23.4	-23.3	-23.4	---	---	17.4	ESE	0.29	20.0	-37.3	---	---	724.3	0.029	0.000	18.2	1	1
03/28/06	8:10 a	-23.4	-23.3	-23.4	---	---	17.4	ESE	0.29	20.0	-37.3	---	---	724.4	0.029	0.000	18.2	1	1
03/28/06	8:11 a	-23.4	-23.3	-23.4	---	---	17.4	ESE	0.29	20.9	-37.3	---	---	724.2	0.029	0.000	18.2	1	1
03/28/06	8:12 a	-23.4	-23.4	-23.4	---	---	17.4	ESE	0.29	19.1	-37.3	---	---	724.3	0.029	0.000	18.2	1	1
03/28/06	8:13 a	-23.4	-23.4	-23.4	---	---	16.5	E	0.28	19.1	-37.0	---	---	724.3	0.029	0.000	18.2	1	1
03/28/06	8:14 a	-23.4	-23.4	-23.4	---	---	17.4	ESE	0.29	19.1	-37.3	---	---	724.3	0.029	0.000	18.2	1	1
03/28/06	8:15 a	-23.4	-23.4	-23.4	---	---	18.3	ESE	0.30	20.9	-37.6	---	---	724.4	0.029	0.000	18.2	1	1
03/28/06	8:16 a	-23.4	-23.4	-23.4	---	---	18.3	ESE	0.30	19.1	-37.6	---	---	724.3	0.029	0.000	18.2	1	1
03/28/06	8:17 a	-23.4	-23.4	-23.4	---	---	18.3	ESE	0.30	20.9	-37.7	---	---	724.3	0.029	0.000	18.2	1	1
03/28/06	8:18 a	-23.4	-23.4	-23.5	---	---	17.4	ESE	0.29	20.0	-37.4	---	---	724.2	0.029	0.000	18.2	1	1
03/28/06	8:19 a	-23.4	-23.4	-23.4	---	---	18.3	ESE	0.30	20.9	-37.7	---	---	724.4	0.029	0.000	18.2	1	1
03/28/06	8:20 a	-23.5	-23.4	-23.5	---	---	17.4	ESE	0.29	18.3	-37.4	---	---	724.3	0.029	0.000	18.2	1	1
03/28/06	8:21 a	-23.4	-23.4	-23.5	---	---	17.4	ESE	0.29	20.0	-37.4	---	---	724.3	0.029	0.000	18.2	1	1
03/28/06	8:22 a	-23.4	-23.4	-23.4	---	---	17.4	ESE	0.29	19.1	-37.4	---	---	724.2	0.029	0.000	18.2	1	1
03/28/06	8:23 a	-23.5	-23.4	-23.5	---	---	18.3	ESE	0.30	20.0	-37.7	---	---	724.2	0.029	0.000	18.2	1	1
03/28/06	8:24 a	-23.5	-23.5	-23.5	---	---	17.4	ESE	0.29	20.0	-37.4	---	---	724.3	0.029	0.000	18.2	1	1
03/28/06	8:25 a	-23.5	-23.4	-23.5	---	---	16.5	ESE	0.28	18.3	-37.2	---	---	724.3	0.029	0.000	18.2	1	1
03/28/06	8:26 a	-23.5	-23.4	-23.5	---	---	17.4	ESE	0.29	18.3	-37.4	---	---	724.2	0.029	0.000	18.2	1	1
03/28/06	8:27 a	-23.4	-23.4	-23.5	---	---	17.4	ESE	0.29	19.1	-37.4	---	---	724.3	0.029	0.000	18.2	1	1
03/28/06	8:28 a	-23.4	-23.4	-23.4	---	---	18.3	ESE	0.30	19.1	-37.7	---	---	724.2	0.029	0.000	18.2	1	1
03/28/06	8:29 a	-23.5	-23.4	-23.5	---	---	17.4	ESE	0.29	20.0	-37.4	---	---	724.4	0.029	0.000	18.2	1	1
03/28/06	8:30 a	-23.4	-23.4	-23.4	---	---	17.4	ESE	0.29	19.1	-37.4	---	---	724.4	0.029	0.000	18.2	1	1
03/28/06	8:31 a	-23.4	-23.4	-23.4	---	---	16.5	ESE	0.28	18.3	-37.1	---	---	724.4	0.029	0.000	18.2	1	1
03/28/06	8:32 a	-23.4	-23.4	-23.4	---	---	16.5	E	0.28	19.1	-37.1	---	---	724.3	0.029	0.000	18.2	1	1
03/28/06	8:33 a	-23.4	-23.4	-23.4	---	---	17.4	ESE	0.29	19.1	-37.4	---	---	724.4	0.029	0.000	18.2	1	1
03/28/06	8:34 a	-23.4	-23.4	-23.5	---	---	15.7	ESE	0.26	16.5	-36.8	---	---	724.4	0.029	0.000	18.2	1	1
03/28/06	8:35 a	-23.5	-23.4	-23.5	---	---	15.7	ESE	0.26	18.3	-36.8	---	---	724.4	0.029	0.000	18.1	1	1
03/28/06	8:36 a	-23.5	-23.4	-23.5	---	---	16.5	E	0.28	18.3	-37.2	---	---	724.4	0.029	0.000	18.1	1	1
03/28/06	8:37 a	-23.4	-23.4	-23.5	---	---	14.8	E	0.25	16.5	-36.4	---	---	724.4	0.029	0.000	18.1	1	1
03/28/06	8:38 a	-23.5	-23.4	-23.5	---	---	15.7	E	0.26	17.4	-36.8	---	---	724.5	0.029	0.000	18.1	1	1
03/28/06	8:39 a	-23.4	-23.4	-23.5	---	---	16.5	E	0.28	18.3	-37.1	---	---	724.4	0.029	0.000	18.1	1	1
03/28/06	8:40 a	-23.4	-23.4	-23.4	---	---	15.7	ESE	0.26	17.4	-36.8	---	---	724.4	0.029	0.000	18.1	1	1
03/28/06	8:41 a	-23.5	-23.4	-23.5	---	---	14.8	E	0.25	16.5	-36.5	---	---	724.3	0.029	0.000	18.1	1	1
03/28/06	8:42 a	-23.4	-23.4	-23.5	---	---	13.0	E	0.22	15.7	-35.8	---	---	724.4	0.029	0.000	18.1	1	1
03/28/06	8:43 a	-23.5	-23.4	-23.6	---	---	13.9	E	0.23	16.5	-36.2	---	---	724.3	0.029	0.000	18.1	1	1
03/28/06	8:44 a	-23.5	-23.4	-23.5	---	---	14.8	E	0.25	15.7	-36.5	---	---	724.4	0.029	0.000	18.1	1	1
03/28/06	8:45 a	-23.5	-23.4	-23.5	---	---	13.9	E	0.23	15.7	-36.2	---	---	724.4	0.029	0.000	18.1	1	1
03/28/06	8:46 a	-23.5	-23.5	-23.6	---	---	12.2	E	0.20	13.9	-35.4	---	---	724.4	0.029	0.000	18.1	1	1
03/28/06	8:47 a	-23.5	-23.5	-23.5	---	---	13.9	E	0.23	15.7	-36.2	---	---	724.4	0.029	0.000	18.2	1	1
03/28/06	8:48 a	-23.5	-23.5	-23.5	---	---	14.8	E	0.25	17.4	-36.5	---	---	724.4	0.029	0.000	18.2	1	1
03/28/06	8:49 a	-23.5	-23.5	-23.5	---	---	12.2	E	0.20	14.8	-35.4	---	---	724.5	0.029	0.000	18.2	1	1
03/28/06	8:50 a	-23.5	-23.5	-23.5	---	---	13.9	E	0.23	16.5	-36.2	---	---	724.5	0.029	0.000	18.2	1	1
03/28/06	8:51 a	-23.5	-23.5	-23.5	---	---	14.8	E	0.25	16.5	-36.5	---	---	724.5	0.029	0.000	18.2	1	1
03/28/06	8:52 a	-23.5	-23.5	-23.5	---	---	14.8	E	0.25	16.5	-36.5	---	---	724.4	0.029	0.000	18.2	1	1
03/28/06	8:53 a	-23.6	-23.5	-23.6	---	---	15.7	E	0.26	18.3	-36.9	---	---	724.4	0.029	0.000	18.2	1	1
03/28/06	8:54 a	-23.5	-23.5	-23.5	---	---	15.7	ESE	0.26	18.3	-36.8	---	---	724.4	0.029	0.000	18.2	1	1
03/28/06	8:55 a	-23.5	-23.5	-23.6	---	---	15.7	E	0.26	17.4	-36.8	---	---	724.4	0.029	0.000	18.2	1	1
03/28/06	8:56 a	-23.5	-23.5	-23.5	---	---	13.0	E	0.22	14.8	-35.8	---	---	724.4	0.029	0.000	18.2	1	1
03/28/06	8:57 a	-23.5	-23.5	-23.6	---	---	13.9	E	0.23	17.4	-36.2	---	---	724.5	0.029	0.000	18.2	1	1
03/28/06	8:58 a	-23.5	-23.5	-23.6	---	---	14.8	ESE	0.25	16.5	-36.5	---	---	724.4	0.029	0.000	18.2	1	1
03/28/06	8:59 a	-23.5	-23.5	-23.5	---	---	13.0	E	0.22	16.5	-35.8	---	---	724.5	0.029	0.000	18.2	1	1
03/28/06	9:00 a	-23.6	-23.5	-23.6	---	---	12.2	E	0.20	14.8	-35.5	---	---	724.5	0.029	0.000	18.2	1	1
03/28/06	9:01 a	-23.5	-23.5	-23.6	---	---	13.0	E	0.22	17.4	-35.8	---	---	724.5	0.029	0.000	18.2	1	1
03/28/06	9:02 a	-23.5	-23.5	-23.6	---	---	15.7	ESE	0.26	16.5	-36.8	---	---	724.4	0.029	0.000	18.2	1	1
03/28/06	9:03 a	-23.6	-23.5	-23.6	---	---	13.9	ESE	0.23	16.5	-36.3	---	---	724.4	0.029	0.000	18.2	1	1
03/28/06	9:04 a	-23.6	-23.5	-23.6	---	---	13.9	ESE	0.23	15.7	-36.3	---	---	724.4	0.029	0.000	18.2	1	1
03/28/06	9:05 a	-23.5	-23.5	-23.6	---	---	14.8	ESE	0.25	16.5	-36.5	---	---	724.4	0.029	0.000	18.2	1	1
03/28/06	9:06 a	-23.5	-23.5	-23.6	---	---	13.9	ESE	0.23	15.7	-36.2	---	---	724.4	0.029	0.000	18.2	1	1
03/28/06	9:07 a	-23.5	-23.5	-23.5	---	---	13.9	E	0.23	16.5	-36.2	---	---	724.5	0.029	0.000	18.2	1	1
03/28/06	9:08 a	-23.6	-23.5	-23.6	---	---	13.0	E	0.22	15.7	-35.9	---	---	724.4	0.029	0.000	18.2	1	1
03/28/06	9:09 a	-23.6	-23.5	-23.6	---	---	11.3	E	0.19	14.8	-35.1	---	---	724.5	0.029	0.000	18.2	1	1
03/28/06	9:10 a	-23.5	-23.5	-23.6	---	---	13.0	E	0.22	16.5	-35.8	---	---	724.4	0.029	0.000	18.2	1	1
03/28/06	9:11 a	-23.6	-23.5	-23.6	---	---	11.3	E	0.19	13.0	-35.1	---	---	724.3	0.029	0.000	18.2	1	1
03/28/06	9:12 a	-23.5	-23.5	-23.6	---	---	11.3	E	0.19	14.8	-35.1	---	---	724.4	0.029	0.000	18.2	1	1
03/28/06	9:13 a	-23.5	-23.5	-23.6	---	---	10.4	E	0.17	13.0	-34.6	---	---	724.5	0.029	0.000	18.2	1	1
03/28/06	9:14 a	-23.6	-23.6	-23.6	---	---	11.3	E	0.19	12.2	-35.1	---	---	724.4	0.029	0.000	18.2	1	1
03/28/06	9:15 a	-23.6	-23.5	-23.6	---	---	11.3	E	0.19	12.2	-35.1	---	---	724.5	0.029	0.000	18.2	1	1
03/28/06	9:16 a	-23.6	-23.5	-23.6	---	---	12.2	E	0.20	13.9	-35.5	---	---	724.4	0.029	0.000	18.2	1	1
03/28/06	9:17 a	-23.6	-23.6	-23.6	---	---	12.2	E	0.20	13.9	-35.5	---	---	724.4	0.029	0.000	18.2	1	1
03/28/06	9:18 a	-23.6	-23.5	-23.6	---	---	13.0	E	0.22	15.7	-35.9	---	---	724.4	0.029	0.000	18.2	1	1
03/28/06	9:19 a	-23.6	-23.5	-23.6	---	---	13.0	E	0.22	14.8	-35.9	---	---	724.4	0.029	0.000	18.2	1	1
03/28/06	9:20 a	-23.6	-23.5	-23.6	---	---	13.9	E	0.23	16.5	-36.3	---	---	724.5	0.029	0.000	18.2	1	1
03/28/06	9:21 a	-23.6	-23.6	-23.6	---	---	13.9	E	0.23	14.8	-36.3	---	---	724.3	0.029	0.000	18.2	1	1
03/28/06	9:22 a	-23.6	-23.5	-23.6	---	---	13.9	ENE	0.23	14.8	-36.3	---	---	724.4	0.029	0.000	18.2	1	1
03/28/06	9:23 a	-23.6	-23.6	-23.6	---	---	12.2	ENE	0.20	13.9	-35.5	---	---	724.5	0.029	0.000	18.2	1	1
03/28/06	9:24 a	-23.6	-23.6	-23.6	---	---	13.0	ENE	0.22	14.8	-35.9	---	---	724.4	0.029	0.000	18.2	1	1
03/28/06	9:25 a	-23.6	-23.6	-23.6	---	---	13.0	ENE	0.22	13.9	-35.9	---	---	724.5	0.029	0.000	18.2	1	1
03/28/06	9:26 a	-23.6	-23.6	-23.6	---	---	12.2	ENE	0.20	13.9	-35.5	---	---	724.5	0.029	0.000	18.2	1	1
03/28/06	9:27 a	-23.6	-23.6	-23.6	---	---	13.0	ENE	0.22	13.9	-35.9	---	---	724.5	0.029	0.000	18.2	1	1
03/28/06	9:28 a	-23.6	-23.6	-23.6	---	---	12.2	ENE	0.20	13.0	-35.6	---	---	724.5	0.029	0.000	18.2	1	1
03/28/06	9:29 a	-23.6	-23.6	-23.6	---	---	11.3	ENE	0.19	12.2	-35.1	---	---	724.6	0.029	0.000	18.2	1	1
03/28/06	9:30 a	-23.6	-23.6	-23.6	---	---	12.2	ENE	0.20	13.0	-35.5	---	---	724.5	0.029	0.000	18.2	1	1
03/28/06	9:31 a	-23.6	-23.6	-23.6	---	---	13.0	ENE	0.22	13.9	-35.9	---	---	724.6	0.029	0.000	18.3	1	1
03/28/06	9:32 a	-23.6	-23.6	-23.6	---	---	13.0	ENE	0.22	13.9	-35.9	---	---	724.6	0.029	0.000	18.3	1	1
03/28/06	9:33 a	-23.6	-23.6	-23.6	---	---	13.0	ENE	0.22	13.9	-35.9	---	---	724.5	0.029	0.000	18.2	1	1
03/28/06	9:34 a	-23.6	-23.5	-23.6	---	---	13.0	ENE	0.22	13.9	-35.9	---	---	724.5	0.029	0.000	18.3	1	1
03/28/06	9:35 a	-23.6	-23.5	-23.6	---	---	13.0	ENE	0.22	13.9	-35.9	---	---	724.5	0.029	0.000	18.2	1	1
03/28/06	9:36 a	-23.6	-23.6	-23.6	---	---	13.0	ENE	0.22	13.0	-35.9	---	---	724.5	0.029	0.000	18.2	1	1
03/28/06	9:37 a	-23.5	-23.5	-23.6	---	---	12.2	ENE	0.20	13.0	-35.4	---	---	724.5	0.029	0.000	18.3	1	1
03/28/06	9:38 a	-23.6	-23.5	-23.6	---	---	11.3	ENE	0.19	13.0	-35.1	---	---	724.6	0.029	0.000	18.3	1	1
03/28/06	9:39 a	-23.5	-23.5	-23.6	---	---	12.2	ENE	0.20	13.0	-35.4	---	---	724.6	0.029	0.000	18.3	1	1
03/28/06	9:40 a	-23.6	-23.5	-23.6	---	---	12.2	ENE	0.20	13.0	-35.5	---	---	724.6	0.029	0.000	18.3	1	1
03/28/06	9:41 a	-23.5	-23.5	-23.6	---	---	11.3	ENE	0.19	13.0	-35.1	---	---	724.6	0.029	0.000	18.3	1	1
03/28/06	9:42 a	-23.5	-23.4	-23.5	---	---	10.4	ENE	0.17	12.2	-34.6	---	---	724.6	0.029	0.000	18.3	1	1
03/28/06	9:43 a	-23.5	-23.4	-23.5	---	---	11.3	ENE	0.19	12.2	-35.1	---	---	724.7	0.029	0.000	18.3	1	1
03/28/06	9:44 a	-23.5	-23.4	-23.5	---	---	9.6	ENE	0.16	10.4	-34.2	---	---	724.7	0.029	0.000	18.3	1	1
03/28/06	9:45 a	-23.4	-23.4	-23.5	---	---	10.4	ENE	0.17	11.3	-34.6	---	---	724.7	0.029	0.000	18.3	1	1
03/28/06	9:46 a	-23.4	-23.4	-23.4	---	---	10.4	ENE	0.17	12.2	-34.6	---	---	724.6	0.029	0.000	18.3	1	1
03/28/06	9:47 a	-23.4	-23.4	-23.4	---	---	10.4	ENE	0.17	12.2	-34.6	---	---	724.6	0.029	0.000	18.3	1	1
03/28/06	9:48 a	-23.4	-23.4	-23.4	---	---	10.4	ENE	0.17	11.3	-34.6	---	---	724.7	0.029	0.000	18.3	1	1
03/28/06	9:49 a	-23.4	-23.4	-23.4	---	---	10.4	ENE	0.17	12.2	-34.6	---	---	724.5	0.029	0.000	18.3	1	1
03/28/06	9:50 a	-23.4	-23.4	-23.4	---	---	11.3	ENE	0.19	12.2	-34.9	---	---	724.6	0.029	0.000	18.3	1	1
03/28/06	9:51 a	-23.4	-23.4	-23.4	---	---	11.3	ENE	0.19	13.0	-34.9	---	---	724.6	0.029	0.000	18.3	1	1
03/28/06	9:52 a	-23.4	-23.4	-23.4	---	---	10.4	ENE	0.17	12.2	-34.5	---	---	724.7	0.029	0.000	18.3	1	1
03/28/06	9:53 a	-23.4	-23.3	-23.4	---	---	11.3	ENE	0.19	13.0	-34.9	---	---	724.6	0.029	0.000	18.3	1	1
03/28/06	9:54 a	-23.3	-23.3	-23.4	---	---	11.3	ENE	0.19	13.0	-34.8	---	---	724.6	0.029	0.000	18.3	1	1
03/28/06	9:55 a	-23.4	-23.3	-23.4	---	---	10.4	ENE	0.17	12.2	-34.5	---	---	724.6	0.029	0.000	18.3	1	1
03/28/06	9:56 a	-23.3	-23.3	-23.4	---	---	10.4	ENE	0.17	12.2	-34.4	---	---	724.6	0.029	0.000	18.3	1	1
03/28/06	9:57 a	-23.3	-23.3	-23.4	---	---	10.4	ENE	0.17	11.3	-34.4	---	---	724.6	0.029	0.000	18.3	1	1
03/28/06	9:58 a	-23.3	-23.3	-23.3	---	---	10.4	ENE	0.17	11.3	-34.4	---	---	724.5	0.029	0.000	18.3	1	1
03/28/06	9:59 a	-23.3	-23.3	-23.3	---	---	11.3	ENE	0.19	12.2	-34.8	---	---	724.6	0.029	0.000	18.3	1	1
03/28/06	10:00 a	-23.3	-23.3	-23.3	---	---	9.6	ENE	0.16	11.3	-33.9	---	---	724.6	0.029	0.000	18.3	1	1
03/28/06	10:01 a	-23.3	-23.3	-23.3	---	---	9.6	ENE	0.16	10.4	-33.9	---	---	724.6	0.029	0.000	18.3	1	1
03/28/06	10:02 a	-23.3	-23.2	-23.3	---	---	9.6	ENE	0.16	10.4	-33.9	---	---	724.6	0.029	0.000	18.3	1	1
03/28/06	10:03 a	-23.2	-23.2	-23.3	---	---	10.4	ENE	0.17	11.3	-34.3	---	---	724.6	0.029	0.000	18.3	1	1
03/28/06	10:04 a	-23.2	-23.2	-23.2	---	---	10.4	ENE	0.17	11.3	-34.3	---	---	724.6	0.029	0.000	18.2	1	1
03/28/06	10:05 a	-23.2	-23.2	-23.3	---	---	8.7	E	0.14	10.4	-33.3	---	---	724.7	0.029	0.000	18.2	1	1
03/28/06	10:06 a	-23.2	-23.2	-23.3	---	---	8.7	E	0.14	10.4	-33.3	---	---	724.5	0.029	0.000	18.2	1	1
03/28/06	10:07 a	-23.2	-23.2	-23.2	---	---	9.6	E	0.16	11.3	-33.8	---	---	724.5	0.029	0.000	18.2	1	1
03/28/06	10:08 a	-23.2	-23.2	-23.3	---	---	7.8	E	0.13	9.6	-32.8	---	---	724.5	0.029	0.000	18.2	1	1
03/28/06	10:09 a	-23.2	-23.2	-23.2	---	---	7.8	E	0.13	9.6	-32.8	---	---	724.6	0.029	0.000	18.2	1	1
03/28/06	10:10 a	-23.2	-23.2	-23.2	---	---	7.8	E	0.13	11.3	-32.8	---	---	724.5	0.029	0.000	18.2	1	1
03/28/06	10:11 a	-23.2	-23.2	-23.2	---	---	9.6	E	0.16	11.3	-33.8	---	---	724.6	0.029	0.000	18.2	1	1
03/28/06	10:12 a	-23.2	-23.2	-23.2	---	---	10.4	E	0.17	11.3	-34.3	---	---	724.5	0.029	0.000	18.2	1	1
03/28/06	10:13 a	-23.2	-23.2	-23.2	---	---	9.6	E	0.16	11.3	-33.8	---	---	724.6	0.029	0.000	18.2	1	1
03/28/06	10:14 a	-23.2	-23.2	-23.2	---	---	10.4	E	0.17	11.3	-34.3	---	---	724.5	0.029	0.000	18.2	1	1
03/28/06	10:15 a	-23.2	-23.2	-23.2	---	---	7.0	E	0.12	9.6	-32.2	---	---	724.6	0.029	0.000	18.2	1	1
03/28/06	10:16 a	-23.2	-23.2	-23.3	---	---	7.8	E	0.13	10.4	-32.8	---	---	724.5	0.029	0.000	18.2	1	1
03/28/06	10:17 a	-23.2	-23.2	-23.2	---	---	10.4	E	0.17	11.3	-34.3	---	---	724.5	0.029	0.000	18.3	1	1
03/28/06	10:18 a	-23.2	-23.2	-23.2	---	---	8.7	E	0.14	10.4	-33.3	---	---	724.6	0.029	0.000	18.3	1	1
03/28/06	10:19 a	-23.2	-23.2	-23.3	---	---	9.6	E	0.16	12.2	-33.8	---	---	724.4	0.029	0.000	18.3	1	1
03/28/06	10:20 a	-23.2	-23.2	-23.3	---	---	7.8	E	0.13	9.6	-32.8	---	---	724.6	0.029	0.000	18.3	1	1
03/28/06	10:21 a	-23.2	-23.2	-23.2	---	---	7.8	E	0.13	10.4	-32.8	---	---	724.4	0.029	0.000	18.3	1	1
03/28/06	10:22 a	-23.2	-23.2	-23.3	---	---	7.8	E	0.13	10.4	-32.8	---	---	724.5	0.029	0.000	18.3	1	1
03/28/06	10:23 a	-23.3	-23.2	-23.3	---	---	8.7	E	0.14	9.6	-33.4	---	---	724.6	0.029	0.000	18.3	1	1
03/28/06	10:24 a	-23.3	-23.2	-23.3	---	---	7.8	E	0.13	9.6	-32.8	---	---	724.6	0.029	0.000	18.3	1	1
03/28/06	10:25 a	-23.3	-23.2	-23.3	---	---	8.7	E	0.14	10.4	-33.4	---	---	724.5	0.029	0.000	18.3	1	1
03/28/06	10:26 a	-23.3	-23.3	-23.3	---	---	8.7	E	0.14	10.4	-33.4	---	---	724.5	0.029	0.000	18.3	1	1
03/28/06	10:27 a	-23.3	-23.2	-23.3	---	---	9.6	ENE	0.16	11.3	-33.9	---	---	724.5	0.029	0.000	18.3	1	1
03/28/06	10:28 a	-23.3	-23.3	-23.3	---	---	9.6	ENE	0.16	10.4	-33.9	---	---	724.5	0.029	0.000	18.3	1	1
03/28/06	10:29 a	-23.3	-23.3	-23.3	---	---	10.4	ENE	0.17	12.2	-34.3	---	---	724.5	0.029	0.000	18.3	1	1
03/28/06	10:30 a	-23.3	-23.3	-23.3	---	---	9.6	ENE	0.16	11.3	-33.9	---	---	724.5	0.029	0.000	18.3	1	1
03/28/06	10:31 a	-23.3	-23.3	-23.3	---	---	9.6	ENE	0.16	10.4	-33.9	---	---	724.5	0.029	0.000	18.3	1	1
03/28/06	10:32 a	-23.3	-23.3	-23.3	---	---	7.8	ENE	0.13	9.6	-32.9	---	---	724.5	0.029	0.000	18.3	1	1
03/28/06	10:33 a	-23.3	-23.3	-23.4	---	---	8.7	ENE	0.14	10.4	-33.4	---	---	724.5	0.029	0.000	18.3	1	1
03/28/06	10:34 a	-23.3	-23.3	-23.4	---	---	9.6	ENE	0.16	10.4	-33.9	---	---	724.6	0.029	0.000	18.3	1	1
03/28/06	10:35 a	-23.4	-23.3	-23.4	---	---	10.4	ENE	0.17	11.3	-34.5	---	---	724.5	0.029	0.000	18.3	1	1
03/28/06	10:36 a	-23.3	-23.3	-23.4	---	---	9.6	ENE	0.16	10.4	-33.9	---	---	724.6	0.029	0.000	18.3	1	1
03/28/06	10:37 a	-23.4	-23.4	-23.4	---	---	9.6	ENE	0.16	10.4	-34.0	---	---	724.5	0.029	0.000	18.3	1	1
03/28/06	10:38 a	-23.4	-23.4	-23.4	---	---	9.6	ENE	0.16	11.3	-34.0	---	---	724.5	0.029	0.000	18.3	1	1
03/28/06	10:39 a	-23.4	-23.4	-23.4	---	---	9.6	E	0.16	10.4	-34.0	---	---	724.5	0.029	0.000	18.3	1	1
03/28/06	10:40 a	-23.4	-23.4	-23.4	---	---	9.6	E	0.16	11.3	-34.0	---	---	724.4	0.029	0.000	18.3	1	1
03/28/06	10:41 a	-23.4	-23.4	-23.4	---	---	9.6	E	0.16	10.4	-34.0	---	---	724.5	0.029	0.000	18.3	1	1
03/28/06	10:42 a	-23.4	-23.4	-23.4	---	---	8.7	E	0.14	9.6	-33.6	---	---	724.5	0.029	0.000	18.3	1	1
03/28/06	10:43 a	-23.4	-23.4	-23.4	---	---	8.7	E	0.14	10.4	-33.6	---	---	724.6	0.029	0.000	18.3	1	1
03/28/06	10:44 a	-23.4	-23.4	-23.5	---	---	8.7	E	0.14	10.4	-33.6	---	---	724.5	0.029	0.000	18.3	1	1
03/28/06	10:45 a	-23.4	-23.4	-23.4	---	---	7.8	E	0.13	9.6	-33.1	---	---	724.5	0.029	0.000	18.3	1	1
03/28/06	10:46 a	-23.4	-23.4	-23.5	---	---	8.7	E	0.14	10.4	-33.6	---	---	724.4	0.029	0.000	18.3	1	1
03/28/06	10:47 a	-23.5	-23.5	-23.5	---	---	8.7	E	0.14	11.3	-33.7	---	---	724.5	0.029	0.000	18.3	1	1
03/28/06	10:48 a	-23.5	-23.5	-23.6	---	---	8.7	E	0.14	10.4	-33.7	---	---	724.5	0.029	0.000	18.3	1	1
03/28/06	10:49 a	-23.5	-23.5	-23.5	---	---	9.6	E	0.16	10.4	-34.2	---	---	724.5	0.029	0.000	18.3	1	1
03/28/06	10:50 a	-23.5	-23.5	-23.5	---	---	8.7	E	0.14	11.3	-33.7	---	---	724.5	0.029	0.000	18.3	1	1
03/28/06	10:51 a	-23.5	-23.5	-23.6	---	---	8.7	E	0.14	11.3	-33.7	---	---	724.4	0.029	0.000	18.3	1	1
03/28/06	10:52 a	-23.5	-23.5	-23.6	---	---	9.6	E	0.16	11.3	-34.2	---	---	724.4	0.029	0.000	18.3	1	1
03/28/06	10:53 a	-23.6	-23.6	-23.6	---	---	9.6	E	0.16	10.4	-34.2	---	---	724.4	0.029	0.000	18.3	1	1
03/28/06	10:54 a	-23.6	-23.6	-23.6	---	---	8.7	E	0.14	10.4	-33.7	---	---	724.4	0.029	0.000	18.3	1	1
03/28/06	10:55 a	-23.6	-23.6	-23.6	---	---	8.7	E	0.14	10.4	-33.7	---	---	724.5	0.029	0.000	18.3	1	1
03/28/06	10:56 a	-23.6	-23.6	-23.6	---	---	9.6	E	0.16	10.4	-34.2	---	---	724.4	0.029	0.000	18.3	1	1
03/28/06	10:57 a	-23.6	-23.6	-23.6	---	---	9.6	E	0.16	10.4	-34.2	---	---	724.5	0.029	0.000	18.4	1	1
03/28/06	10:58 a	-23.6	-23.6	-23.6	---	---	9.6	E	0.16	10.4	-34.2	---	---	724.4	0.029	0.000	18.4	1	1
03/28/06	10:59 a	-23.6	-23.6	-23.6	---	---	9.6	E	0.16	10.4	-34.3	---	---	724.5	0.029	0.000	18.4	1	1
03/28/06	11:00 a	-23.6	-23.6	-23.6	---	---	8.7	E	0.14	10.4	-33.8	---	---	724.5	0.029	0.000	18.4	1	1
03/28/06	11:01 a	-23.6	-23.6	-23.6	---	---	8.7	E	0.14	10.4	-33.8	---	---	724.5	0.029	0.000	18.4	1	1
03/28/06	11:02 a	-23.6	-23.6	-23.7	---	---	8.7	E	0.14	10.4	-33.8	---	---	724.5	0.029	0.000	18.4	1	1
03/28/06	11:03 a	-23.6	-23.6	-23.7	---	---	9.6	E	0.16	11.3	-34.3	---	---	724.4	0.029	0.000	18.4	1	1
03/28/06	11:04 a	-23.7	-23.6	-23.7	---	---	10.4	E	0.17	12.2	-34.8	---	---	724.4	0.029	0.000	18.4	1	1
03/28/06	11:05 a	-23.7	-23.6	-23.7	---	---	10.4	E	0.17	12.2	-34.8	---	---	724.6	0.029	0.000	18.4	1	1
03/28/06	11:06 a	-23.7	-23.6	-23.7	---	---	10.4	E	0.17	12.2	-34.8	---	---	724.6	0.029	0.000	18.4	1	1
03/28/06	11:07 a	-23.7	-23.6	-23.7	---	---	10.4	E	0.17	11.3	-34.8	---	---	724.5	0.029	0.000	18.4	1	1
03/28/06	11:08 a	-23.7	-23.6	-23.7	---	---	9.6	E	0.16	11.3	-34.4	---	---	724.5	0.029	0.000	18.4	1	1
03/28/06	11:09 a	-23.7	-23.7	-23.7	---	---	10.4	E	0.17	11.3	-34.8	---	---	724.6	0.029	0.000	18.4	1	1
03/28/06	11:10 a	-23.7	-23.7	-23.7	---	---	10.4	E	0.17	12.2	-34.8	---	---	724.5	0.029	0.000	18.4	1	1
03/28/06	11:11 a	-23.7	-23.7	-23.7	---	---	10.4	E	0.17	12.2	-34.8	---	---	724.6	0.029	0.000	18.4	1	1
03/28/06	11:12 a	-23.7	-23.7	-23.7	---	---	11.3	E	0.19	12.2	-35.3	---	---	724.4	0.029	0.000	18.4	1	1
03/28/06	11:13 a	-23.7	-23.7	-23.7	---	---	11.3	E	0.19	12.2	-35.3	---	---	724.5	0.029	0.000	18.4	1	1
03/28/06	11:14 a	-23.7	-23.7	-23.7	---	---	11.3	E	0.19	13.9	-35.3	---	---	724.4	0.029	0.000	18.4	1	1
03/28/06	11:15 a	-23.7	-23.7	-23.7	---	---	12.2	E	0.20	14.8	-35.7	---	---	724.5	0.029	0.000	18.3	1	1
03/28/06	11:16 a	-23.7	-23.7	-23.7	---	---	10.4	E	0.17	13.0	-34.9	---	---	724.5	0.029	0.000	18.3	1	1
03/28/06	11:17 a	-23.7	-23.7	-23.7	---	---	10.4	E	0.17	12.2	-34.9	---	---	724.4	0.029	0.000	18.3	1	1
03/28/06	11:18 a	-23.7	-23.7	-23.7	---	---	10.4	E	0.17	12.2	-34.9	---	---	724.6	0.029	0.000	18.3	1	1
03/28/06	11:19 a	-23.7	-23.7	-23.7	---	---	9.6	E	0.16	11.3	-34.4	---	---	724.5	0.029	0.000	18.3	1	1
03/28/06	11:20 a	-23.7	-23.7	-23.7	---	---	8.7	E	0.14	10.4	-33.9	---	---	724.5	0.029	0.000	18.3	1	1
03/28/06	11:21 a	-23.7	-23.7	-23.8	---	---	9.6	E	0.16	10.4	-34.4	---	---	724.5	0.029	0.000	18.3	1	1
03/28/06	11:22 a	-23.7	-23.7	-23.8	---	---	10.4	E	0.17	12.2	-34.9	---	---	724.4	0.029	0.000	18.3	1	1
03/28/06	11:23 a	-23.8	-23.7	-23.8	---	---	10.4	E	0.17	11.3	-34.9	---	---	724.5	0.029	0.000	18.3	1	1
03/28/06	11:24 a	-23.8	-23.7	-23.8	---	---	9.6	E	0.16	11.3	-34.5	---	---	724.5	0.029	0.000	18.3	1	1
03/28/06	11:25 a	-23.8	-23.8	-23.8	---	---	10.4	E	0.17	12.2	-34.9	---	---	724.4	0.029	0.000	18.3	1	1
03/28/06	11:26 a	-23.8	-23.8	-23.8	---	---	10.4	E	0.17	12.2	-34.9	---	---	724.5	0.029	0.000	18.3	1	1
03/28/06	11:27 a	-23.8	-23.8	-23.8	---	---	10.4	E	0.17	11.3	-34.9	---	---	724.5	0.029	0.000	18.3	1	1
03/28/06	11:28 a	-23.8	-23.7	-23.8	---	---	11.3	E	0.19	12.2	-35.4	---	---	724.4	0.029	0.000	18.3	1	1
03/28/06	11:29 a	-23.8	-23.8	-23.8	---	---	11.3	E	0.19	12.2	-35.4	---	---	724.4	0.029	0.000	18.3	1	1
03/28/06	11:30 a	-23.8	-23.8	-23.8	---	---	11.3	E	0.19	13.0	-35.4	---	---	724.4	0.029	0.000	18.3	1	1
03/28/06	11:31 a	-23.8	-23.7	-23.8	---	---	11.3	E	0.19	12.2	-35.4	---	---	724.4	0.029	0.000	18.3	1	1
03/28/06	11:32 a	-23.8	-23.7	-23.8	---	---	10.4	E	0.17	12.2	-34.9	---	---	724.5	0.029	0.000	18.3	1	1
03/28/06	11:33 a	-23.7	-23.7	-23.8	---	---	11.3	E	0.19	13.0	-35.3	---	---	724.4	0.029	0.000	18.3	1	1
03/28/06	11:34 a	-23.8	-23.7	-23.8	---	---	10.4	E	0.17	11.3	-34.9	---	---	724.5	0.029	0.000	18.3	1	1
03/28/06	11:35 a	-23.7	-23.7	-23.7	---	---	9.6	E	0.16	11.3	-34.4	---	---	724.5	0.029	0.000	18.3	1	1
03/28/06	11:36 a	-23.7	-23.7	-23.7	---	---	10.4	E	0.17	12.2	-34.9	---	---	724.4	0.029	0.000	18.3	1	1
03/28/06	11:37 a	-23.7	-23.7	-23.7	---	---	10.4	E	0.17	11.3	-34.9	---	---	724.5	0.029	0.000	18.3	1	1
03/28/06	11:38 a	-23.7	-23.7	-23.7	---	---	10.4	E	0.17	11.3	-34.9	---	---	724.6	0.029	0.000	18.3	1	1
03/28/06	11:39 a	-23.7	-23.7	-23.7	---	---	10.4	E	0.17	11.3	-34.9	---	---	724.5	0.029	0.000	18.3	1	1
03/28/06	11:40 a	-23.7	-23.7	-23.7	---	---	10.4	E	0.17	11.3	-34.9	---	---	724.5	0.029	0.000	18.3	1	1
03/28/06	11:41 a	-23.7	-23.7	-23.7	---	---	10.4	E	0.17	11.3	-34.8	---	---	724.5	0.029	0.000	18.3	1	1
03/28/06	11:42 a	-23.7	-23.7	-23.7	---	---	10.4	E	0.17	11.3	-34.8	---	---	724.5	0.029	0.000	18.3	1	1
03/28/06	11:43 a	-23.7	-23.7	-23.7	---	---	10.4	E	0.17	11.3	-34.8	---	---	724.5	0.029	0.000	18.3	1	1
03/28/06	11:44 a	-23.7	-23.7	-23.7	---	---	10.4	E	0.17	11.3	-34.8	---	---	724.5	0.029	0.000	18.3	1	1
03/28/06	11:45 a	-23.7	-23.6	-23.7	---	---	10.4	E	0.17	11.3	-34.8	---	---	724.5	0.029	0.000	18.3	1	1
03/28/06	11:46 a	-23.6	-23.6	-23.7	---	---	10.4	E	0.17	11.3	-34.8	---	---	724.4	0.029	0.000	18.3	1	1
03/28/06	11:47 a	-23.6	-23.6	-23.6	---	---	9.6	E	0.16	11.3	-34.3	---	---	724.4	0.029	0.000	18.3	1	1
03/28/06	11:48 a	-23.6	-23.6	-23.6	---	---	9.6	E	0.16	10.4	-34.3	---	---	724.5	0.029	0.000	18.3	1	1
03/28/06	11:49 a	-23.6	-23.6	-23.6	---	---	8.7	E	0.14	10.4	-33.7	---	---	724.4	0.029	0.000	18.3	1	1
03/28/06	11:50 a	-23.6	-23.5	-23.6	---	---	7.8	E	0.13	9.6	-33.2	---	---	724.5	0.029	0.000	18.3	1	1
03/28/06	11:51 a	-23.6	-23.6	-23.6	---	---	8.7	E	0.14	10.4	-33.7	---	---	724.5	0.029	0.000	18.3	1	1
03/28/06	11:52 a	-23.6	-23.5	-23.6	---	---	7.8	E	0.13	9.6	-33.2	---	---	724.4	0.029	0.000	18.3	1	1
03/28/06	11:53 a	-23.5	-23.5	-23.6	---	---	8.7	ESE	0.14	10.4	-33.7	---	---	724.4	0.029	0.000	18.3	1	1
03/28/06	11:54 a	-23.5	-23.4	-23.6	---	---	7.8	ESE	0.13	8.7	-33.1	---	---	724.4	0.029	0.000	18.3	1	1
03/28/06	11:55 a	-23.5	-23.4	-23.6	---	---	9.6	ESE	0.16	11.3	-34.2	---	---	724.4	0.029	0.000	18.3	1	1
03/28/06	11:56 a	-23.5	-23.4	-23.5	---	---	10.4	ESE	0.17	11.3	-34.6	---	---	724.3	0.029	0.000	18.3	1	1
03/28/06	11:57 a	-23.5	-23.4	-23.5	---	---	9.6	ESE	0.16	10.4	-34.2	---	---	724.4	0.029	0.000	18.3	1	1
03/28/06	11:58 a	-23.5	-23.4	-23.5	---	---	8.7	ESE	0.14	10.4	-33.7	---	---	724.4	0.029	0.000	18.3	1	1
03/28/06	11:59 a	-23.4	-23.4	-23.4	---	---	7.8	ESE	0.13	9.6	-33.0	---	---	724.4	0.029	0.000	18.3	1	1
03/28/06	12:00 p	-23.4	-23.4	-23.4	---	---	7.8	ESE	0.13	9.6	-33.0	---	---	724.4	0.029	0.000	18.4	1	1
03/28/06	12:01 p	-23.4	-23.4	-23.4	---	---	10.4	ESE	0.17	11.3	-34.6	---	---	724.4	0.029	0.000	18.3	1	1
03/28/06	12:02 p	-23.4	-23.4	-23.4	---	---	9.6	E	0.16	10.4	-34.0	---	---	724.4	0.029	0.000	18.3	1	1
03/28/06	12:03 p	-23.3	-23.3	-23.4	---	---	8.7	E	0.14	9.6	-33.4	---	---	724.4	0.029	0.000	18.4	1	1
03/28/06	12:04 p	-23.4	-23.3	-23.4	---	---	8.7	E	0.14	11.3	-33.6	---	---	724.3	0.029	0.000	18.4	1	1
03/28/06	12:05 p	-23.3	-23.3	-23.4	---	---	11.3	E	0.19	13.0	-34.8	---	---	724.4	0.029	0.000	18.4	1	1
03/28/06	12:06 p	-23.3	-23.3	-23.3	---	---	13.0	ESE	0.22	13.9	-35.6	---	---	724.4	0.029	0.000	18.4	1	1
03/28/06	12:07 p	-23.3	-23.3	-23.3	---	---	12.2	ESE	0.20	12.2	-35.2	---	---	724.4	0.029	0.000	18.4	1	1
03/28/06	12:08 p	-23.3	-23.3	-23.3	---	---	11.3	ESE	0.19	13.0	-34.8	---	---	724.4	0.029	0.000	18.3	1	1
03/28/06	12:09 p	-23.3	-23.3	-23.3	---	---	12.2	ESE	0.20	13.0	-35.2	---	---	724.4	0.029	0.000	18.4	1	1
03/28/06	12:10 p	-23.2	-23.2	-23.3	---	---	11.3	E	0.19	13.9	-34.7	---	---	724.4	0.029	0.000	18.4	1	1
03/28/06	12:11 p	-23.2	-23.2	-23.2	---	---	11.3	ESE	0.19	12.2	-34.7	---	---	724.4	0.029	0.000	18.4	1	1
03/28/06	12:12 p	-23.2	-23.2	-23.2	---	---	11.3	ESE	0.19	12.2	-34.7	---	---	724.5	0.029	0.000	18.4	1	1
03/28/06	12:13 p	-23.2	-23.2	-23.2	---	---	11.3	E	0.19	13.0	-34.6	---	---	724.4	0.029	0.000	18.4	1	1
03/28/06	12:14 p	-23.1	-23.1	-23.2	---	---	12.2	ESE	0.20	13.0	-34.9	---	---	724.4	0.029	0.000	18.4	1	1
03/28/06	12:15 p	-23.1	-23.1	-23.2	---	---	10.4	ESE	0.17	12.2	-34.1	---	---	724.4	0.029	0.000	18.4	1	1
03/28/06	12:16 p	-23.1	-23.1	-23.1	---	---	12.2	ESE	0.20	13.9	-34.9	---	---	724.4	0.029	0.000	18.4	1	1
03/28/06	12:17 p	-23.1	-23.1	-23.1	---	---	11.3	ESE	0.19	12.2	-34.5	---	---	724.4	0.029	0.000	18.4	1	1
03/28/06	12:18 p	-23.1	-23.0	-23.1	---	---	11.3	ESE	0.19	12.2	-34.6	---	---	724.4	0.029	0.000	18.4	1	1
03/28/06	12:19 p	-23.1	-23.0	-23.1	---	---	11.3	ESE	0.19	12.2	-34.5	---	---	724.4	0.029	0.000	18.4	1	1
03/28/06	12:20 p	-23.0	-23.0	-23.1	---	---	10.4	SE	0.17	11.3	-34.0	---	---	724.5	0.029	0.000	18.4	1	1
03/28/06	12:21 p	-23.0	-23.0	-23.1	---	---	12.2	SE	0.20	13.0	-34.8	---	---	724.4	0.029	0.000	18.4	1	1
03/28/06	12:22 p	-23.0	-22.9	-23.0	---	---	11.3	SE	0.19	12.2	-34.4	---	---	724.5	0.029	0.000	18.4	1	1
03/28/06	12:23 p	-22.9	-22.9	-22.9	---	---	11.3	SE	0.19	13.0	-34.3	---	---	724.5	0.029	0.000	18.4	1	1
03/28/06	12:24 p	-22.9	-22.9	-22.9	---	---	11.3	SE	0.19	13.0	-34.3	---	---	724.4	0.029	0.000	18.4	1	1
03/28/06	12:25 p	-22.9	-22.9	-22.9	---	---	12.2	SE	0.20	13.0	-34.7	---	---	724.4	0.029	0.000	18.4	1	1
03/28/06	12:26 p	-22.9	-22.8	-22.9	---	---	12.2	SE	0.20	13.0	-34.7	---	---	724.4	0.029	0.000	18.4	1	1
03/28/06	12:27 p	-22.8	-22.8	-22.9	---	---	12.2	SE	0.20	13.9	-34.6	---	---	724.4	0.029	0.000	18.4	1	1
03/28/06	12:28 p	-22.8	-22.8	-22.8	---	---	12.2	SE	0.20	13.9	-34.6	---	---	724.4	0.029	0.000	18.4	1	1
03/28/06	12:29 p	-22.8	-22.8	-22.8	---	---	13.0	SE	0.22	13.9	-34.9	---	---	724.4	0.029	0.000	18.4	1	1
03/28/06	12:30 p	-22.8	-22.8	-22.8	---	---	13.9	SE	0.23	14.8	-35.3	---	---	724.5	0.029	0.000	18.4	1	1
03/28/06	12:31 p	-22.7	-22.7	-22.8	---	---	13.9	SE	0.23	14.8	-35.2	---	---	724.3	0.029	0.000	18.4	1	1
03/28/06	12:32 p	-22.7	-22.7	-22.7	---	---	13.0	SE	0.22	14.8	-34.8	---	---	724.4	0.029	0.000	18.4	1	1
03/28/06	12:33 p	-22.7	-22.6	-22.7	---	---	12.2	SE	0.20	13.9	-34.4	---	---	724.4	0.028	0.000	18.4	1	1
03/28/06	12:34 p	-22.7	-22.6	-22.7	---	---	12.2	ESE	0.20	13.9	-34.4	---	---	724.4	0.028	0.000	18.4	1	1
03/28/06	12:35 p	-22.7	-22.6	-22.7	---	---	11.3	ESE	0.19	12.2	-34.0	---	---	724.4	0.028	0.000	18.4	1	1
03/28/06	12:36 p	-22.6	-22.6	-22.6	---	---	11.3	ESE	0.19	12.2	-33.9	---	---	724.4	0.028	0.000	18.4	1	1
03/28/06	12:37 p	-22.6	-22.6	-22.6	---	---	11.3	ESE	0.19	13.0	-33.8	---	---	724.5	0.028	0.000	18.4	1	1
03/28/06	12:38 p	-22.6	-22.5	-22.6	---	---	11.3	ESE	0.19	13.0	-33.8	---	---	724.4	0.028	0.000	18.4	1	1
03/28/06	12:39 p	-22.6	-22.6	-22.6	---	---	12.2	ESE	0.20	13.0	-34.2	---	---	724.4	0.028	0.000	18.4	1	1
03/28/06	12:40 p	-22.5	-22.5	-22.6	---	---	12.2	ESE	0.20	13.9	-34.2	---	---	724.4	0.028	0.000	18.4	1	1
03/28/06	12:41 p	-22.5	-22.4	-22.5	---	---	13.0	ESE	0.22	13.9	-34.6	---	---	724.4	0.028	0.000	18.4	1	1
03/28/06	12:42 p	-22.4	-22.4	-22.5	---	---	12.2	ESE	0.20	13.9	-34.1	---	---	724.4	0.028	0.000	18.3	1	1
03/28/06	12:43 p	-22.4	-22.4	-22.4	---	---	11.3	ESE	0.19	12.2	-33.7	---	---	724.5	0.028	0.000	18.3	1	1
03/28/06	12:44 p	-22.3	-22.3	-22.4	---	---	12.2	ESE	0.20	13.9	-33.9	---	---	724.5	0.028	0.000	18.4	1	1
03/28/06	12:45 p	-22.3	-22.3	-22.3	---	---	13.0	ESE	0.22	13.9	-34.3	---	---	724.4	0.028	0.000	18.4	1	1
03/28/06	12:46 p	-22.3	-22.3	-22.3	---	---	12.2	ESE	0.20	13.0	-33.9	---	---	724.4	0.028	0.000	18.4	1	1
03/28/06	12:47 p	-22.3	-22.3	-22.3	---	---	12.2	ESE	0.20	13.9	-33.9	---	---	724.4	0.028	0.000	18.3	1	1
03/28/06	12:48 p	-22.3	-22.3	-22.3	---	---	12.2	ESE	0.20	13.9	-33.9	---	---	724.4	0.028	0.000	18.3	1	1
03/28/06	12:49 p	-22.3	-22.3	-22.3	---	---	13.0	ESE	0.22	13.0	-34.3	---	---	724.4	0.028	0.000	18.3	1	1
03/28/06	12:50 p	-22.3	-22.3	-22.3	---	---	12.2	ESE	0.20	13.9	-33.9	---	---	724.5	0.028	0.000	18.3	1	1
03/28/06	12:51 p	-22.2	-22.2	-22.2	---	---	11.3	ESE	0.19	13.0	-33.4	---	---	724.5	0.028	0.000	18.3	1	1
03/28/06	12:52 p	-22.2	-22.2	-22.2	---	---	12.2	ESE	0.20	13.9	-33.8	---	---	724.4	0.028	0.000	18.3	1	1
03/28/06	12:53 p	-22.2	-22.2	-22.3	---	---	11.3	ESE	0.19	13.0	-33.4	---	---	724.5	0.028	0.000	18.3	1	1
03/28/06	12:54 p	-22.2	-22.2	-22.2	---	---	12.2	ESE	0.20	13.0	-33.8	---	---	724.5	0.028	0.000	18.3	1	1
03/28/06	12:55 p	-22.2	-22.1	-22.2	---	---	12.2	ESE	0.20	13.9	-33.8	---	---	724.5	0.028	0.000	18.3	1	1
03/28/06	12:56 p	-22.2	-22.1	-22.2	---	---	12.2	ESE	0.20	13.9	-33.8	---	---	724.3	0.028	0.000	18.3	1	1
03/28/06	12:57 p	-22.1	-22.1	-22.1	---	---	12.2	ESE	0.20	13.9	-33.7	---	---	724.4	0.028	0.000	18.3	1	1
03/28/06	12:58 p	-22.1	-22.1	-22.1	---	---	12.2	ESE	0.20	13.0	-33.7	---	---	724.4	0.028	0.000	18.3	1	1
03/28/06	12:59 p	-22.1	-22.1	-22.1	---	---	12.2	ESE	0.20	13.9	-33.7	---	---	724.5	0.028	0.000	18.3	1	1
03/28/06	1:00 p	-22.1	-22.1	-22.1	---	---	12.2	ESE	0.20	13.0	-33.6	---	---	724.4	0.028	0.000	18.3	1	1
03/28/06	1:01 p	-22.1	-22.1	-22.1	---	---	12.2	ESE	0.20	13.0	-33.6	---	---	724.5	0.028	0.000	18.3	1	1
03/28/06	1:02 p	-22.1	-22.1	-22.1	---	---	10.4	ESE	0.17	11.3	-32.8	---	---	724.4	0.028	0.000	18.3	1	1
03/28/06	1:03 p	-22.1	-22.0	-22.1	---	---	11.3	ESE	0.19	13.0	-33.2	---	---	724.5	0.028	0.000	18.3	1	1
03/28/06	1:04 p	-22.1	-22.0	-22.1	---	---	11.3	ESE	0.19	13.9	-33.2	---	---	724.5	0.028	0.000	18.3	1	1
03/28/06	1:05 p	-22.1	-21.9	-22.1	---	---	11.3	ESE	0.19	13.0	-33.2	---	---	724.5	0.028	0.000	18.3	1	1
03/28/06	1:06 p	-22.0	-21.9	-22.1	---	---	11.3	ESE	0.19	12.2	-33.2	---	---	724.4	0.028	0.000	18.4	1	1
03/28/06	1:07 p	-21.9	-21.9	-22.0	---	---	11.3	SE	0.19	12.2	-33.1	---	---	724.4	0.028	0.000	18.4	1	1
03/28/06	1:08 p	-21.9	-21.9	-22.0	---	---	11.3	SE	0.19	13.0	-33.1	---	---	724.5	0.028	0.000	18.4	1	1
03/28/06	1:09 p	-21.9	-21.9	-21.9	---	---	12.2	SE	0.20	13.0	-33.4	---	---	724.5	0.028	0.000	18.4	1	1
03/28/06	1:10 p	-21.9	-21.9	-21.9	---	---	12.2	SE	0.20	13.9	-33.4	---	---	724.5	0.028	0.000	18.4	1	1
03/28/06	1:11 p	-21.9	-21.9	-21.9	---	---	12.2	SE	0.20	13.0	-33.4	---	---	724.5	0.028	0.000	18.4	1	1
03/28/06	1:12 p	-21.9	-21.9	-21.9	---	---	11.3	SE	0.19	13.0	-33.0	---	---	724.5	0.028	0.000	18.4	1	1
03/28/06	1:13 p	-21.9	-21.9	-21.9	---	---	11.3	SE	0.19	13.0	-33.0	---	---	724.5	0.028	0.000	18.4	1	1
03/28/06	1:14 p	-21.9	-21.8	-21.9	---	---	11.3	SE	0.19	12.2	-33.0	---	---	724.4	0.028	0.000	18.4	1	1
03/28/06	1:15 p	-21.9	-21.8	-21.9	---	---	11.3	SE	0.19	13.0	-33.0	---	---	724.5	0.028	0.000	18.4	1	1
03/28/06	1:16 p	-21.8	-21.8	-21.9	---	---	11.3	SE	0.19	12.2	-32.9	---	---	724.4	0.028	0.000	18.4	1	1
03/28/06	1:17 p	-21.8	-21.8	-21.8	---	---	11.3	SE	0.19	12.2	-32.9	---	---	724.4	0.028	0.000	18.4	1	1
03/28/06	1:18 p	-21.8	-21.8	-21.8	---	---	11.3	SE	0.19	13.9	-32.9	---	---	724.5	0.028	0.000	18.4	1	1
03/28/06	1:19 p	-21.8	-21.8	-21.8	---	---	12.2	SE	0.20	13.9	-33.3	---	---	724.5	0.028	0.000	18.5	1	1
03/28/06	1:20 p	-21.8	-21.8	-21.8	---	---	10.4	SE	0.17	12.2	-32.4	---	---	724.4	0.028	0.000	18.5	1	1
03/28/06	1:21 p	-21.7	-21.7	-21.7	---	---	11.3	SE	0.19	13.0	-32.8	---	---	724.4	0.028	0.000	18.5	1	1
03/28/06	1:22 p	-21.7	-21.7	-21.7	---	---	10.4	SSE	0.17	12.2	-32.4	---	---	724.5	0.028	0.000	18.5	1	1
03/28/06	1:23 p	-21.7	-21.7	-21.7	---	---	11.3	SE	0.19	13.0	-32.8	---	---	724.4	0.028	0.000	18.5	1	1
03/28/06	1:24 p	-21.7	-21.7	-21.7	---	---	13.0	SE	0.22	13.9	-33.5	---	---	724.4	0.028	0.000	18.5	1	1
03/28/06	1:25 p	-21.7	-21.7	-21.7	---	---	12.2	SE	0.20	13.0	-33.1	---	---	724.5	0.028	0.000	18.5	1	1
03/28/06	1:26 p	-21.7	-21.7	-21.7	---	---	11.3	SE	0.19	13.0	-32.7	---	---	724.5	0.028	0.000	18.6	1	1
03/28/06	1:27 p	-21.7	-21.7	-21.7	---	---	11.3	SE	0.19	12.2	-32.7	---	---	724.4	0.028	0.000	18.5	1	1
03/28/06	1:28 p	-21.6	-21.6	-21.7	---	---	12.2	SE	0.20	14.8	-33.1	---	---	724.5	0.028	0.000	18.5	1	1
03/28/06	1:29 p	-21.7	-21.6	-21.7	---	---	13.0	SSE	0.22	15.7	-33.5	---	---	724.4	0.028	0.000	18.5	1	1
03/28/06	1:30 p	-21.6	-21.6	-21.7	---	---	12.2	SSE	0.20	13.9	-33.1	---	---	724.5	0.028	0.000	18.5	1	1
03/28/06	1:31 p	-21.6	-21.6	-21.6	---	---	12.2	SSE	0.20	13.0	-33.1	---	---	724.5	0.028	0.000	18.5	1	1
03/28/06	1:32 p	-21.6	-21.6	-21.6	---	---	11.3	SSE	0.19	13.0	-32.7	---	---	724.4	0.028	0.000	18.5	1	1
03/28/06	1:33 p	-21.6	-21.6	-21.6	---	---	12.2	SSE	0.20	13.9	-33.0	---	---	724.5	0.028	0.000	18.6	1	1
03/28/06	1:34 p	-21.6	-21.5	-21.6	---	---	12.2	SSE	0.20	14.8	-33.0	---	---	724.5	0.028	0.000	18.6	1	1
03/28/06	1:35 p	-21.5	-21.5	-21.6	---	---	12.2	SSE	0.20	13.9	-32.9	---	---	724.6	0.028	0.000	18.6	1	1
03/28/06	1:36 p	-21.5	-21.5	-21.5	---	---	11.3	SSE	0.19	13.0	-32.5	---	---	724.5	0.028	0.000	18.6	1	1
03/28/06	1:37 p	-21.5	-21.4	-21.5	---	---	11.3	SSE	0.19	13.0	-32.5	---	---	724.5	0.028	0.000	18.6	1	1
03/28/06	1:38 p	-21.5	-21.4	-21.5	---	---	10.4	SSE	0.17	11.3	-32.1	---	---	724.5	0.028	0.000	18.6	1	1
03/28/06	1:39 p	-21.4	-21.4	-21.4	---	---	9.6	SSE	0.16	10.4	-31.6	---	---	724.5	0.028	0.000	18.6	1	1
03/28/06	1:40 p	-21.4	-21.4	-21.4	---	---	10.4	SSE	0.17	12.2	-32.1	---	---	724.5	0.028	0.000	18.6	1	1
03/28/06	1:41 p	-21.4	-21.4	-21.4	---	---	11.3	SSE	0.19	13.0	-32.4	---	---	724.5	0.028	0.000	18.6	1	1
03/28/06	1:42 p	-21.4	-21.4	-21.4	---	---	10.4	SSE	0.17	10.4	-32.1	---	---	724.6	0.028	0.000	18.6	1	1
03/28/06	1:43 p	-21.4	-21.4	-21.4	---	---	10.4	SSE	0.17	12.2	-31.9	---	---	724.5	0.028	0.000	18.6	1	1
03/28/06	1:44 p	-21.4	-21.4	-21.4	---	---	10.4	SSE	0.17	11.3	-31.9	---	---	724.5	0.028	0.000	18.6	1	1
03/28/06	1:45 p	-21.3	-21.3	-21.4	---	---	10.4	SSE	0.17	11.3	-31.9	---	---	724.5	0.028	0.000	18.6	1	1
03/28/06	1:46 p	-21.3	-21.3	-21.3	---	---	10.4	SSE	0.17	11.3	-31.9	---	---	724.6	0.028	0.000	18.6	1	1
03/28/06	1:47 p	-21.3	-21.3	-21.3	---	---	10.4	SSE	0.17	11.3	-31.9	---	---	724.5	0.028	0.000	18.6	1	1
03/28/06	1:48 p	-21.3	-21.3	-21.4	---	---	10.4	SSE	0.17	10.4	-31.9	---	---	724.5	0.028	0.000	18.6	1	1
03/28/06	1:49 p	-21.3	-21.3	-21.3	---	---	9.6	SSE	0.16	11.3	-31.4	---	---	724.5	0.028	0.000	18.6	1	1
03/28/06	1:50 p	-21.3	-21.3	-21.3	---	---	9.6	SSE	0.16	11.3	-31.4	---	---	724.6	0.028	0.000	18.5	1	1
03/28/06	1:51 p	-21.3	-21.3	-21.3	---	---	9.6	SSE	0.16	11.3	-31.4	---	---	724.5	0.028	0.000	18.5	1	1
03/28/06	1:52 p	-21.3	-21.3	-21.3	---	---	11.3	SSE	0.19	13.0	-32.2	---	---	724.6	0.028	0.000	18.5	1	1
03/28/06	1:53 p	-21.3	-21.3	-21.3	---	---	10.4	SSE	0.17	12.2	-31.8	---	---	724.6	0.028	0.000	18.5	1	1
03/28/06	1:54 p	-21.3	-21.2	-21.3	---	---	9.6	SSE	0.16	10.4	-31.4	---	---	724.5	0.028	0.000	18.5	1	1
03/28/06	1:55 p	-21.3	-21.2	-21.3	---	---	9.6	SSE	0.16	11.3	-31.4	---	---	724.5	0.028	0.000	18.5	1	1
03/28/06	1:56 p	-21.2	-21.2	-21.3	---	---	9.6	SSE	0.16	10.4	-31.3	---	---	724.5	0.027	0.000	18.5	1	1
03/28/06	1:57 p	-21.2	-21.2	-21.2	---	---	9.6	SSE	0.16	10.4	-31.3	---	---	724.5	0.027	0.000	18.5	1	1
03/28/06	1:58 p	-21.2	-21.2	-21.2	---	---	10.4	SSE	0.17	11.3	-31.8	---	---	724.4	0.027	0.000	18.5	1	1
03/28/06	1:59 p	-21.2	-21.2	-21.2	---	---	10.4	SSE	0.17	11.3	-31.8	---	---	724.4	0.027	0.000	18.5	1	1
03/28/06	2:00 p	-21.2	-21.2	-21.2	---	---	9.6	SSE	0.16	11.3	-31.3	---	---	724.5	0.027	0.000	18.5	1	1
03/28/06	2:01 p	-21.2	-21.2	-21.2	---	---	9.6	SSE	0.16	11.3	-31.3	---	---	724.5	0.027	0.000	18.5	1	1
03/28/06	2:02 p	-21.2	-21.2	-21.2	---	---	11.3	SSE	0.19	12.2	-32.1	---	---	724.4	0.027	0.000	18.5	1	1
03/28/06	2:03 p	-21.2	-21.2	-21.2	---	---	9.6	SSE	0.16	11.3	-31.3	---	---	724.4	0.027	0.000	18.5	1	1
03/28/06	2:04 p	-21.2	-21.2	-21.2	---	---	9.6	SSE	0.16	11.3	-31.2	---	---	724.5	0.027	0.000	18.5	1	1
03/28/06	2:05 p	-21.2	-21.1	-21.2	---	---	9.6	SSE	0.16	11.3	-31.2	---	---	724.4	0.027	0.000	18.5	1	1
03/28/06	2:06 p	-21.2	-21.1	-21.2	---	---	11.3	SSE	0.19	12.2	-32.1	---	---	724.5	0.027	0.000	18.5	1	1
03/28/06	2:07 p	-21.1	-21.1	-21.1	---	---	11.3	SSE	0.19	13.0	-32.0	---	---	724.4	0.027	0.000	18.5	1	1
03/28/06	2:08 p	-21.1	-21.1	-21.1	---	---	9.6	SSE	0.16	11.3	-31.2	---	---	724.5	0.027	0.000	18.5	1	1
03/28/06	2:09 p	-21.1	-21.1	-21.1	---	---	10.4	SSE	0.17	12.2	-31.6	---	---	724.5	0.027	0.000	18.5	1	1
03/28/06	2:10 p	-21.1	-21.1	-21.1	---	---	11.3	SSE	0.19	12.2	-32.0	---	---	724.5	0.027	0.000	18.5	1	1
03/28/06	2:11 p	-21.1	-21.1	-21.1	---	---	10.4	SSE	0.17	13.0	-31.6	---	---	724.5	0.027	0.000	18.5	1	1
03/28/06	2:12 p	-21.1	-21.1	-21.1	---	---	11.3	SSE	0.19	13.0	-31.9	---	---	724.5	0.027	0.000	18.5	1	1
03/28/06	2:13 p	-21.1	-21.1	-21.1	---	---	11.3	SSE	0.19	13.0	-32.0	---	---	724.5	0.027	0.000	18.5	1	1
03/28/06	2:14 p	-21.1	-21.1	-21.1	---	---	10.4	SSE	0.17	12.2	-31.6	---	---	724.4	0.027	0.000	18.5	1	1
03/28/06	2:15 p	-21.1	-21.1	-21.1	---	---	9.6	SSE	0.16	11.3	-31.1	---	---	724.4	0.027	0.000	18.5	1	1
03/28/06	2:16 p	-21.1	-21.1	-21.1	---	---	9.6	SSE	0.16	10.4	-31.1	---	---	724.4	0.027	0.000	18.5	1	1
03/28/06	2:17 p	-21.1	-21.1	-21.1	---	---	10.4	SSE	0.17	11.3	-31.6	---	---	724.4	0.027	0.000	18.5	1	1
03/28/06	2:18 p	-21.1	-21.1	-21.1	---	---	11.3	SSE	0.19	12.2	-31.9	---	---	724.5	0.027	0.000	18.5	1	1
03/28/06	2:19 p	-21.1	-21.1	-21.1	---	---	10.4	SSE	0.17	12.2	-31.6	---	---	724.4	0.027	0.000	18.6	1	1
03/28/06	2:20 p	-21.1	-21.1	-21.1	---	---	11.3	SSE	0.19	12.2	-31.9	---	---	724.4	0.027	0.000	18.6	1	1
03/28/06	2:21 p	-21.1	-21.1	-21.1	---	---	9.6	SSE	0.16	10.4	-31.1	---	---	724.4	0.027	0.000	18.6	1	1
03/28/06	2:22 p	-21.1	-21.0	-21.1	---	---	9.6	SSE	0.16	11.3	-31.1	---	---	724.4	0.027	0.000	18.5	1	1
03/28/06	2:23 p	-21.0	-21.0	-21.1	---	---	10.4	SSE	0.17	12.2	-31.5	---	---	724.4	0.027	0.000	18.6	1	1
03/28/06	2:24 p	-21.1	-21.0	-21.1	---	---	8.7	SSE	0.14	10.4	-30.6	---	---	724.4	0.027	0.000	18.6	1	1
03/28/06	2:25 p	-21.0	-21.0	-21.1	---	---	9.6	SSE	0.16	10.4	-31.1	---	---	724.4	0.027	0.000	18.6	1	1
03/28/06	2:26 p	-21.1	-21.1	-21.1	---	---	9.6	SSE	0.16	10.4	-31.1	---	---	724.3	0.027	0.000	18.6	1	1
03/28/06	2:27 p	-21.1	-21.0	-21.1	---	---	9.6	SSE	0.16	10.4	-31.1	---	---	724.5	0.027	0.000	18.6	1	1
03/28/06	2:28 p	-21.1	-21.0	-21.1	---	---	9.6	SSE	0.16	10.4	-31.1	---	---	724.4	0.027	0.000	18.6	1	1
03/28/06	2:29 p	-21.1	-21.0	-21.1	---	---	10.4	SE	0.17	10.4	-31.6	---	---	724.4	0.027	0.000	18.6	1	1
03/28/06	2:30 p	-21.1	-21.0	-21.1	---	---	9.6	SE	0.16	10.4	-31.1	---	---	724.4	0.027	0.000	18.6	1	1
03/28/06	2:31 p	-21.1	-21.0	-21.1	---	---	9.6	SE	0.16	9.6	-31.1	---	---	724.3	0.027	0.000	18.6	1	1
03/28/06	2:32 p	-21.0	-21.0	-21.1	---	---	8.7	SE	0.14	9.6	-30.6	---	---	724.3	0.027	0.000	18.6	1	1
03/28/06	2:33 p	-21.1	-21.0	-21.1	---	---	7.8	SE	0.13	9.6	-30.1	---	---	724.4	0.027	0.000	18.6	1	1
03/28/06	2:34 p	-21.1	-21.0	-21.1	---	---	7.8	SE	0.13	9.6	-30.1	---	---	724.4	0.027	0.000	18.6	1	1
03/28/06	2:35 p	-21.1	-21.0	-21.1	---	---	7.8	SE	0.13	7.8	-30.1	---	---	724.4	0.027	0.000	18.6	1	1
03/28/06	2:36 p	-21.1	-21.0	-21.1	---	---	6.1	SE	0.10	7.0	-28.9	---	---	724.3	0.027	0.000	18.6	1	1
03/28/06	2:37 p	-21.1	-21.0	-21.1	---	---	6.1	SSE	0.10	6.1	-28.9	---	---	724.4	0.027	0.000	18.6	1	1
03/28/06	2:38 p	-21.0	-21.0	-21.1	---	---	5.2	SSE	0.09	5.2	-28.2	---	---	724.4	0.027	0.000	18.6	1	1
03/28/06	2:39 p	-21.0	-21.0	-21.1	---	---	6.1	SSE	0.10	7.0	-28.9	---	---	724.3	0.027	0.000	18.6	1	1
03/28/06	2:40 p	-21.1	-21.1	-21.1	---	---	5.2	SE	0.09	7.0	-28.2	---	---	724.4	0.027	0.000	18.6	1	1
03/28/06	2:41 p	-21.1	-21.0	-21.1	---	---	6.1	SE	0.10	11.3	-28.9	---	---	724.3	0.027	0.000	18.6	1	1
03/28/06	2:42 p	-21.1	-21.0	-21.1	---	---	11.3	SE	0.19	13.9	-31.9	---	---	724.4	0.027	0.000	18.6	1	1
03/28/06	2:43 p	-21.1	-21.0	-21.1	---	---	10.4	S	0.17	13.0	-31.6	---	---	724.4	0.027	0.000	18.6	1	1
03/28/06	2:44 p	-21.1	-21.0	-21.1	---	---	10.4	SSE	0.17	12.2	-31.6	---	---	724.3	0.027	0.000	18.6	1	1
03/28/06	2:45 p	-21.1	-21.1	-21.1	---	---	10.4	SSE	0.17	12.2	-31.6	---	---	724.4	0.027	0.000	18.6	1	1
03/28/06	2:46 p	-21.1	-21.0	-21.1	---	---	10.4	SE	0.17	12.2	-31.6	---	---	724.3	0.027	0.000	18.6	1	1
03/28/06	2:47 p	-21.1	-21.0	-21.1	---	---	12.2	ESE	0.20	13.0	-32.3	---	---	724.2	0.027	0.000	18.6	1	1
03/28/06	2:48 p	-21.1	-21.0	-21.1	---	---	13.0	ESE	0.22	13.9	-32.7	---	---	724.3	0.027	0.000	18.6	1	1
03/28/06	2:49 p	-21.1	-21.0	-21.1	---	---	13.0	ESE	0.22	13.9	-32.7	---	---	724.3	0.027	0.000	18.6	1	1
03/28/06	2:50 p	-21.1	-21.1	-21.1	---	---	13.0	ESE	0.22	13.9	-32.7	---	---	724.3	0.027	0.000	18.6	1	1
03/28/06	2:51 p	-21.1	-21.1	-21.1	---	---	13.0	E	0.22	13.9	-32.7	---	---	724.3	0.027	0.000	18.6	1	1
03/28/06	2:52 p	-21.1	-21.0	-21.1	---	---	13.0	E	0.22	13.9	-32.7	---	---	724.3	0.027	0.000	18.6	1	1
03/28/06	2:53 p	-21.1	-21.0	-21.1	---	---	12.2	ESE	0.20	13.0	-32.3	---	---	724.3	0.027	0.000	18.6	1	1
03/28/06	2:54 p	-21.1	-21.0	-21.1	---	---	12.2	E	0.20	12.2	-32.3	---	---	724.3	0.027	0.000	18.6	1	1
03/28/06	2:55 p	-21.1	-21.0	-21.1	---	---	11.3	E	0.19	13.0	-31.9	---	---	724.3	0.027	0.000	18.6	1	1
03/28/06	2:56 p	-21.1	-21.0	-21.1	---	---	13.0	ESE	0.22	13.9	-32.7	---	---	724.3	0.027	0.000	18.6	1	1
03/28/06	2:57 p	-21.1	-21.1	-21.1	---	---	12.2	ESE	0.20	13.9	-32.3	---	---	724.4	0.027	0.000	18.6	1	1
03/28/06	2:58 p	-21.1	-21.0	-21.1	---	---	12.2	ESE	0.20	14.8	-32.3	---	---	724.4	0.027	0.000	18.6	1	1
03/28/06	2:59 p	-21.1	-21.1	-21.1	---	---	11.3	ESE	0.19	13.9	-31.9	---	---	724.3	0.027	0.000	18.6	1	1
03/28/06	3:00 p	-21.1	-21.1	-21.1	---	---	11.3	E	0.19	12.2	-31.9	---	---	724.4	0.027	0.000	18.6	1	1
03/28/06	3:01 p	-21.1	-21.1	-21.1	---	---	11.3	ESE	0.19	12.2	-31.9	---	---	724.3	0.027	0.000	18.6	1	1
03/28/06	3:02 p	-21.1	-21.0	-21.1	---	---	11.3	ESE	0.19	12.2	-31.9	---	---	724.3	0.027	0.000	18.6	1	1
03/28/06	3:03 p	-21.1	-21.1	-21.1	---	---	12.2	ESE	0.20	13.9	-32.3	---	---	724.3	0.027	0.000	18.6	1	1
03/28/06	3:04 p	-21.1	-21.0	-21.1	---	---	11.3	ESE	0.19	13.0	-31.9	---	---	724.3	0.027	0.000	18.6	1	1
03/28/06	3:05 p	-21.0	-21.0	-21.1	---	---	11.3	ESE	0.19	12.2	-31.9	---	---	724.4	0.027	0.000	18.6	1	1
03/28/06	3:06 p	-21.0	-21.0	-21.1	---	---	10.4	ESE	0.17	12.2	-31.5	---	---	724.4	0.027	0.000	18.6	1	1
03/28/06	3:07 p	-21.1	-21.0	-21.1	---	---	10.4	E	0.17	11.3	-31.6	---	---	724.4	0.027	0.000	18.6	1	1
03/28/06	3:08 p	-21.0	-21.0	-21.0	---	---	10.4	E	0.17	12.2	-31.5	---	---	724.4	0.027	0.000	18.6	1	1
03/28/06	3:09 p	-21.1	-21.0	-21.1	---	---	9.6	E	0.16	12.2	-31.1	---	---	724.4	0.027	0.000	18.6	1	1
03/28/06	3:10 p	-21.0	-21.0	-21.0	---	---	9.6	E	0.16	10.4	-31.1	---	---	724.3	0.027	0.000	18.6	1	1
03/28/06	3:11 p	-21.0	-21.0	-21.1	---	---	9.6	E	0.16	11.3	-31.1	---	---	724.4	0.027	0.000	18.6	1	1
03/28/06	3:12 p	-21.0	-21.0	-21.1	---	---	9.6	E	0.16	11.3	-31.1	---	---	724.4	0.027	0.000	18.6	1	1
03/28/06	3:13 p	-21.0	-21.0	-21.0	---	---	10.4	ESE	0.17	11.3	-31.5	---	---	724.4	0.027	0.000	18.6	1	1
03/28/06	3:14 p	-21.0	-21.0	-21.0	---	---	10.4	E	0.17	12.2	-31.5	---	---	724.3	0.027	0.000	18.6	1	1
03/28/06	3:15 p	-21.0	-21.0	-21.0	---	---	9.6	E	0.16	11.3	-31.1	---	---	724.4	0.027	0.000	18.6	1	1
03/28/06	3:16 p	-21.1	-21.0	-21.1	---	---	10.4	E	0.17	11.3	-31.6	---	---	724.3	0.027	0.000	18.6	1	1
03/28/06	3:17 p	-21.0	-21.0	-21.1	---	---	10.4	E	0.17	11.3	-31.5	---	---	724.4	0.027	0.000	18.6	1	1
03/28/06	3:18 p	-21.0	-21.0	-21.0	---	---	10.4	E	0.17	11.3	-31.5	---	---	724.4	0.027	0.000	18.6	1	1
03/28/06	3:19 p	-21.0	-21.0	-21.0	---	---	9.6	E	0.16	11.3	-31.1	---	---	724.4	0.027	0.000	18.6	1	1
03/28/06	3:20 p	-21.0	-21.0	-21.0	---	---	11.3	E	0.19	12.2	-31.9	---	---	724.4	0.027	0.000	18.6	1	1
03/28/06	3:21 p	-21.0	-21.0	-21.1	---	---	9.6	E	0.16	11.3	-31.1	---	---	724.3	0.027	0.000	18.6	1	1
03/28/06	3:22 p	-21.0	-20.9	-21.0	---	---	9.6	E	0.16	10.4	-31.1	---	---	724.3	0.027	0.000	18.6	1	1
03/28/06	3:23 p	-21.0	-21.0	-21.0	---	---	9.6	E	0.16	11.3	-31.1	---	---	724.4	0.027	0.000	18.6	1	1
03/28/06	3:24 p	-21.0	-21.0	-21.0	---	---	9.6	E	0.16	10.4	-31.1	---	---	724.4	0.027	0.000	18.6	1	1
03/28/06	3:25 p	-21.0	-21.0	-21.0	---	---	10.4	E	0.17	12.2	-31.5	---	---	724.3	0.027	0.000	18.6	1	1
03/28/06	3:26 p	-21.0	-21.0	-21.0	---	---	9.6	E	0.16	11.3	-31.1	---	---	724.4	0.027	0.000	18.6	1	1
03/28/06	3:27 p	-21.0	-21.0	-21.0	---	---	10.4	ESE	0.17	11.3	-31.5	---	---	724.3	0.027	0.000	18.6	1	1
03/28/06	3:28 p	-21.0	-21.0	-21.0	---	---	10.4	ESE	0.17	11.3	-31.5	---	---	724.3	0.027	0.000	18.6	1	1
03/28/06	3:29 p	-21.0	-21.0	-21.0	---	---	10.4	ESE	0.17	12.2	-31.5	---	---	724.3	0.027	0.000	18.6	1	1
03/28/06	3:30 p	-21.0	-20.9	-21.0	---	---	10.4	ESE	0.17	11.3	-31.5	---	---	724.4	0.027	0.000	18.6	1	1
03/28/06	3:31 p	-21.0	-21.0	-21.0	---	---	11.3	ESE	0.19	13.0	-31.9	---	---	724.3	0.027	0.000	18.6	1	1
03/28/06	3:32 p	-21.0	-20.9	-21.0	---	---	11.3	ESE	0.19	12.2	-31.9	---	---	724.4	0.027	0.000	18.6	1	1
03/28/06	3:33 p	-20.9	-20.9	-21.0	---	---	11.3	ESE	0.19	12.2	-31.8	---	---	724.3	0.027	0.000	18.6	1	1
03/28/06	3:34 p	-21.0	-20.9	-21.0	---	---	12.2	ESE	0.20	13.9	-32.3	---	---	724.4	0.027	0.000	18.6	1	1
03/28/06	3:35 p	-20.9	-20.9	-21.0	---	---	12.2	ESE	0.20	13.0	-32.2	---	---	724.4	0.027	0.000	18.6	1	1
03/28/06	3:36 p	-21.0	-20.9	-21.0	---	---	13.0	ESE	0.22	13.9	-32.6	---	---	724.4	0.027	0.000	18.6	1	1
03/28/06	3:37 p	-21.0	-21.0	-21.0	---	---	13.0	ESE	0.22	13.9	-32.6	---	---	724.4	0.027	0.000	18.6	1	1
03/28/06	3:38 p	-20.9	-20.9	-21.0	---	---	12.2	ESE	0.20	13.9	-32.2	---	---	724.4	0.027	0.000	18.6	1	1
03/28/06	3:39 p	-20.9	-20.9	-21.0	---	---	12.2	ESE	0.20	13.0	-32.2	---	---	724.4	0.027	0.000	18.6	1	1
03/28/06	3:40 p	-20.9	-20.9	-21.0	---	---	12.2	ESE	0.20	13.9	-32.2	---	---	724.4	0.027	0.000	18.6	1	1
03/28/06	3:41 p	-20.9	-20.9	-21.0	---	---	13.0	ESE	0.22	14.8	-32.6	---	---	724.4	0.027	0.000	18.6	1	1
03/28/06	3:42 p	-20.9	-20.9	-20.9	---	---	13.0	ESE	0.22	13.9	-32.6	---	---	724.4	0.027	0.000	18.6	1	1
03/28/06	3:43 p	-20.9	-20.9	-20.9	---	---	12.2	ESE	0.20	13.0	-32.2	---	---	724.4	0.027	0.000	18.6	1	1
03/28/06	3:44 p	-20.9	-20.9	-20.9	---	---	11.3	ESE	0.19	13.0	-31.8	---	---	724.4	0.027	0.000	18.6	1	1
03/28/06	3:45 p	-20.9	-20.9	-20.9	---	---	11.3	ESE	0.19	13.0	-31.8	---	---	724.4	0.027	0.000	18.6	1	1
03/28/06	3:46 p	-20.9	-20.9	-20.9	---	---	12.2	ESE	0.20	13.0	-32.1	---	---	724.4	0.027	0.000	18.6	1	1
03/28/06	3:47 p	-20.9	-20.9	-20.9	---	---	12.2	ESE	0.20	13.0	-32.1	---	---	724.4	0.027	0.000	18.6	1	1
03/28/06	3:48 p	-20.9	-20.9	-20.9	---	---	12.2	ESE	0.20	13.0	-32.1	---	---	724.4	0.027	0.000	18.6	1	1
03/28/06	3:49 p	-20.9	-20.9	-20.9	---	---	12.2	ESE	0.20	13.9	-32.1	---	---	724.4	0.027	0.000	18.6	1	1
03/28/06	3:50 p	-20.9	-20.9	-20.9	---	---	13.0	ESE	0.22	13.9	-32.5	---	---	724.3	0.027	0.000	18.6	1	1
03/28/06	3:51 p	-20.9	-20.9	-20.9	---	---	13.0	ESE	0.22	14.8	-32.5	---	---	724.4	0.027	0.000	18.6	1	1
03/28/06	3:52 p	-20.9	-20.9	-20.9	---	---	13.0	ESE	0.22	13.9	-32.5	---	---	724.3	0.027	0.000	18.6	1	1
03/28/06	3:53 p	-20.9	-20.9	-20.9	---	---	13.9	ESE	0.23	14.8	-32.8	---	---	724.4	0.027	0.000	18.6	1	1
03/28/06	3:54 p	-20.9	-20.9	-20.9	---	---	13.9	ESE	0.23	14.8	-32.8	---	---	724.3	0.027	0.000	18.6	1	1
03/28/06	3:55 p	-20.9	-20.9	-20.9	---	---	13.0	ESE	0.22	13.9	-32.5	---	---	724.3	0.027	0.000	18.6	1	1
03/28/06	3:56 p	-20.9	-20.9	-20.9	---	---	13.0	ESE	0.22	13.9	-32.5	---	---	724.4	0.027	0.000	18.6	1	1
03/28/06	3:57 p	-20.9	-20.9	-20.9	---	---	13.9	ESE	0.23	14.8	-32.8	---	---	724.3	0.027	0.000	18.6	1	1
03/28/06	3:58 p	-20.9	-20.9	-20.9	---	---	13.0	ESE	0.22	13.9	-32.5	---	---	724.4	0.027	0.000	18.6	1	1
03/28/06	3:59 p	-20.8	-20.8	-20.9	---	---	13.0	ESE	0.22	13.9	-32.4	---	---	724.4	0.027	0.000	18.6	1	1
03/28/06	4:00 p	-20.8	-20.8	-20.9	---	---	13.0	ESE	0.22	13.9	-32.4	---	---	724.3	0.027	0.000	18.6	1	1
03/28/06	4:01 p	-20.8	-20.8	-20.9	---	---	13.0	ESE	0.22	13.9	-32.4	---	---	724.3	0.027	0.000	18.6	1	1
03/28/06	4:02 p	-20.8	-20.8	-20.8	---	---	13.9	ESE	0.23	15.7	-32.8	---	---	724.3	0.027	0.000	18.7	1	1
03/28/06	4:03 p	-20.8	-20.8	-20.8	---	---	13.0	ESE	0.22	13.9	-32.4	---	---	724.4	0.027	0.000	18.7	1	1
03/28/06	4:04 p	-20.8	-20.8	-20.8	---	---	13.9	ESE	0.23	14.8	-32.8	---	---	724.3	0.027	0.000	18.6	1	1
03/28/06	4:05 p	-20.8	-20.8	-20.8	---	---	13.9	ESE	0.23	14.8	-32.8	---	---	724.3	0.027	0.000	18.6	1	1
03/28/06	4:06 p	-20.8	-20.8	-20.8	---	---	13.0	ESE	0.22	14.8	-32.4	---	---	724.3	0.027	0.000	18.6	1	1
03/28/06	4:07 p	-20.8	-20.8	-20.8	---	---	13.0	ESE	0.22	13.9	-32.4	---	---	724.4	0.027	0.000	18.6	1	1
03/28/06	4:08 p	-20.8	-20.8	-20.8	---	---	13.0	ESE	0.22	13.9	-32.4	---	---	724.3	0.027	0.000	18.6	1	1
03/28/06	4:09 p	-20.8	-20.8	-20.8	---	---	13.9	ESE	0.23	15.7	-32.8	---	---	724.3	0.027	0.000	18.6	1	1
03/28/06	4:10 p	-20.8	-20.8	-20.8	---	---	12.2	E	0.20	14.8	-32.1	---	---	724.4	0.027	0.000	18.6	1	1
03/28/06	4:11 p	-20.8	-20.8	-20.8	---	---	13.0	ESE	0.22	14.8	-32.4	---	---	724.4	0.027	0.000	18.6	1	1
03/28/06	4:12 p	-20.8	-20.8	-20.8	---	---	13.0	ESE	0.22	13.9	-32.4	---	---	724.4	0.027	0.000	18.6	1	1
03/28/06	4:13 p	-20.8	-20.8	-20.8	---	---	13.0	ESE	0.22	14.8	-32.4	---	---	724.4	0.027	0.000	18.6	1	1
03/28/06	4:14 p	-20.8	-20.8	-20.8	---	---	13.9	ESE	0.23	15.7	-32.8	---	---	724.3	0.027	0.000	18.6	1	1
03/28/06	4:15 p	-20.8	-20.8	-20.8	---	---	14.8	ESE	0.25	15.7	-33.0	---	---	724.3	0.027	0.000	18.6	1	1
03/28/06	4:16 p	-20.8	-20.8	-20.8	---	---	13.9	ESE	0.23	15.7	-32.8	---	---	724.3	0.027	0.000	18.6	1	1
03/28/06	4:17 p	-20.8	-20.8	-20.8	---	---	13.9	E	0.23	15.7	-32.7	---	---	724.3	0.027	0.000	18.6	1	1
03/28/06	4:18 p	-20.8	-20.8	-20.8	---	---	13.9	ESE	0.23	15.7	-32.7	---	---	724.3	0.027	0.000	18.6	1	1
03/28/06	4:19 p	-20.8	-20.8	-20.8	---	---	13.9	ESE	0.23	14.8	-32.8	---	---	724.3	0.027	0.000	18.6	1	1
03/28/06	4:20 p	-20.8	-20.8	-20.8	---	---	13.0	ESE	0.22	14.8	-32.3	---	---	724.5	0.027	0.000	18.6	1	1
03/28/06	4:21 p	-20.8	-20.8	-20.8	---	---	13.9	ESE	0.23	14.8	-32.8	---	---	724.3	0.027	0.000	18.6	1	1
03/28/06	4:22 p	-20.8	-20.8	-20.8	---	---	13.9	ESE	0.23	14.8	-32.7	---	---	724.3	0.027	0.000	18.6	1	1
03/28/06	4:23 p	-20.8	-20.8	-20.8	---	---	13.0	E	0.22	14.8	-32.3	---	---	724.4	0.027	0.000	18.6	1	1
03/28/06	4:24 p	-20.8	-20.8	-20.8	---	---	13.9	ESE	0.23	14.8	-32.7	---	---	724.4	0.027	0.000	18.6	1	1
03/28/06	4:25 p	-20.8	-20.8	-20.8	---	---	13.9	ESE	0.23	14.8	-32.7	---	---	724.5	0.027	0.000	18.6	1	1
03/28/06	4:26 p	-20.8	-20.8	-20.8	---	---	13.9	ESE	0.23	14.8	-32.7	---	---	724.4	0.027	0.000	18.6	1	1
03/28/06	4:27 p	-20.8	-20.8	-20.8	---	---	13.0	ESE	0.22	14.8	-32.3	---	---	724.5	0.027	0.000	18.6	1	1
03/28/06	4:28 p	-20.8	-20.8	-20.8	---	---	13.9	ESE	0.23	15.7	-32.7	---	---	724.4	0.027	0.000	18.6	1	1
03/28/06	4:29 p	-20.7	-20.7	-20.8	---	---	13.9	ESE	0.23	15.7	-32.6	---	---	724.4	0.027	0.000	18.6	1	1
03/28/06	4:30 p	-20.8	-20.7	-20.8	---	---	14.8	ESE	0.25	16.5	-33.0	---	---	724.4	0.027	0.000	18.6	1	1
03/28/06	4:31 p	-20.8	-20.8	-20.8	---	---	14.8	ESE	0.25	15.7	-33.0	---	---	724.4	0.027	0.000	18.6	1	1
03/28/06	4:32 p	-20.8	-20.8	-20.8	---	---	13.9	ESE	0.23	14.8	-32.7	---	---	724.4	0.027	0.000	18.6	1	1
03/28/06	4:33 p	-20.8	-20.8	-20.8	---	---	14.8	ESE	0.25	16.5	-33.0	---	---	724.4	0.027	0.000	18.6	1	1
03/28/06	4:34 p	-20.8	-20.8	-20.8	---	---	16.5	ESE	0.28	18.3	-33.6	---	---	724.4	0.027	0.000	18.6	1	1
03/28/06	4:35 p	-20.8	-20.8	-20.8	---	---	15.7	ESE	0.26	17.4	-33.3	---	---	724.4	0.027	0.000	18.6	1	1
03/28/06	4:36 p	-20.8	-20.7	-20.8	---	---	15.7	ESE	0.26	16.5	-33.3	---	---	724.4	0.027	0.000	18.6	1	1
03/28/06	4:37 p	-20.8	-20.7	-20.8	---	---	14.8	ESE	0.25	16.5	-33.0	---	---	724.3	0.027	0.000	18.6	1	1
03/28/06	4:38 p	-20.8	-20.8	-20.8	---	---	14.8	ESE	0.25	17.4	-33.0	---	---	724.4	0.027	0.000	18.6	1	1
03/28/06	4:39 p	-20.8	-20.7	-20.8	---	---	15.7	ESE	0.26	16.5	-33.3	---	---	724.3	0.027	0.000	18.6	1	1
03/28/06	4:40 p	-20.7	-20.7	-20.8	---	---	15.7	ESE	0.26	17.4	-33.2	---	---	724.4	0.027	0.000	18.6	1	1
03/28/06	4:41 p	-20.8	-20.7	-20.8	---	---	15.7	ESE	0.26	17.4	-33.3	---	---	724.3	0.027	0.000	18.6	1	1
03/28/06	4:42 p	-20.8	-20.7	-20.8	---	---	15.7	ESE	0.26	17.4	-33.3	---	---	724.4	0.027	0.000	18.6	1	1
03/28/06	4:43 p	-20.8	-20.7	-20.8	---	---	14.8	ESE	0.25	15.7	-33.0	---	---	724.4	0.027	0.000	18.6	1	1
03/28/06	4:44 p	-20.8	-20.7	-20.8	---	---	14.8	ESE	0.25	16.5	-33.0	---	---	724.4	0.027	0.000	18.6	1	1
03/28/06	4:45 p	-20.8	-20.7	-20.8	---	---	15.7	ESE	0.26	16.5	-33.3	---	---	724.3	0.027	0.000	18.6	1	1
03/28/06	4:46 p	-20.8	-20.8	-20.8	---	---	15.7	ESE	0.26	17.4	-33.3	---	---	724.3	0.027	0.000	18.6	1	1
03/28/06	4:47 p	-20.8	-20.8	-20.8	---	---	15.7	ESE	0.26	16.5	-33.3	---	---	724.4	0.027	0.000	18.6	1	1
03/28/06	4:48 p	-20.8	-20.7	-20.8	---	---	14.8	E	0.25	15.7	-33.0	---	---	724.3	0.027	0.000	18.6	1	1
03/28/06	4:49 p	-20.8	-20.7	-20.8	---	---	15.7	ESE	0.26	16.5	-33.3	---	---	724.4	0.027	0.000	18.6	1	1
03/28/06	4:50 p	-20.7	-20.7	-20.8	---	---	15.7	ESE	0.26	16.5	-33.2	---	---	724.3	0.027	0.000	18.6	1	1
03/28/06	4:51 p	-20.8	-20.7	-20.8	---	---	15.7	ESE	0.26	15.7	-33.3	---	---	724.4	0.027	0.000	18.6	1	1
03/28/06	4:52 p	-20.8	-20.8	-20.8	---	---	14.8	ESE	0.25	15.7	-33.0	---	---	724.3	0.027	0.000	18.6	1	1
03/28/06	4:53 p	-20.8	-20.7	-20.8	---	---	14.8	ESE	0.25	16.5	-33.0	---	---	724.3	0.027	0.000	18.6	1	1
03/28/06	4:54 p	-20.8	-20.7	-20.8	---	---	14.8	ESE	0.25	15.7	-33.0	---	---	724.4	0.027	0.000	18.6	1	1
03/28/06	4:55 p	-20.8	-20.8	-20.8	---	---	14.8	ESE	0.25	16.5	-33.0	---	---	724.4	0.027	0.000	18.6	1	1
03/28/06	4:56 p	-20.7	-20.7	-20.8	---	---	15.7	ESE	0.26	16.5	-33.2	---	---	724.4	0.027	0.000	18.6	1	1
03/28/06	4:57 p	-20.8	-20.7	-20.8	---	---	15.7	ESE	0.26	16.5	-33.3	---	---	724.4	0.027	0.000	18.6	1	1
03/28/06	4:58 p	-20.7	-20.7	-20.8	---	---	14.8	ESE	0.25	16.5	-32.9	---	---	724.4	0.027	0.000	18.6	1	1
03/28/06	4:59 p	-20.7	-20.7	-20.8	---	---	13.9	ESE	0.23	14.8	-32.6	---	---	724.4	0.027	0.000	18.6	1	1
03/28/06	5:00 p	-20.8	-20.8	-20.8	---	---	14.8	ESE	0.25	15.7	-33.0	---	---	724.4	0.027	0.000	18.6	1	1
03/28/06	5:01 p	-20.8	-20.8	-20.8	---	---	13.9	ESE	0.23	15.7	-32.7	---	---	724.4	0.027	0.000	18.6	1	1
03/28/06	5:02 p	-20.8	-20.8	-20.8	---	---	13.9	ESE	0.23	15.7	-32.7	---	---	724.4	0.027	0.000	18.6	1	1
03/28/06	5:03 p	-20.8	-20.8	-20.8	---	---	13.9	ESE	0.23	13.9	-32.7	---	---	724.3	0.027	0.000	18.6	1	1
03/28/06	5:04 p	-20.8	-20.7	-20.8	---	---	13.0	ESE	0.22	13.9	-32.3	---	---	724.5	0.027	0.000	18.7	1	1
03/28/06	5:05 p	-20.8	-20.8	-20.8	---	---	13.0	ESE	0.22	13.9	-32.3	---	---	724.4	0.027	0.000	18.6	1	1
03/28/06	5:06 p	-20.8	-20.8	-20.8	---	---	13.9	ESE	0.23	14.8	-32.7	---	---	724.5	0.027	0.000	18.6	1	1
03/28/06	5:07 p	-20.8	-20.8	-20.8	---	---	13.9	ESE	0.23	14.8	-32.7	---	---	724.4	0.027	0.000	18.6	1	1
03/28/06	5:08 p	-20.8	-20.8	-20.8	---	---	13.0	ESE	0.22	14.8	-32.3	---	---	724.5	0.027	0.000	18.6	1	1
03/28/06	5:09 p	-20.8	-20.8	-20.8	---	---	13.9	ESE	0.23	15.7	-32.7	---	---	724.5	0.027	0.000	18.6	1	1
03/28/06	5:10 p	-20.8	-20.8	-20.8	---	---	13.9	ESE	0.23	14.8	-32.7	---	---	724.4	0.027	0.000	18.6	1	1
03/28/06	5:11 p	-20.8	-20.8	-20.8	---	---	13.9	ESE	0.23	14.8	-32.7	---	---	724.4	0.027	0.000	18.6	1	1
03/28/06	5:12 p	-20.8	-20.8	-20.8	---	---	13.9	ESE	0.23	14.8	-32.7	---	---	724.5	0.027	0.000	18.6	1	1
03/28/06	5:13 p	-20.8	-20.8	-20.8	---	---	14.8	ESE	0.25	14.8	-33.0	---	---	724.4	0.027	0.000	18.6	1	1
03/28/06	5:14 p	-20.8	-20.8	-20.8	---	---	13.9	ESE	0.23	15.7	-32.7	---	---	724.4	0.027	0.000	18.6	1	1
03/28/06	5:15 p	-20.8	-20.8	-20.8	---	---	14.8	ESE	0.25	15.7	-33.0	---	---	724.4	0.027	0.000	18.6	1	1
03/28/06	5:16 p	-20.8	-20.8	-20.8	---	---	14.8	ESE	0.25	15.7	-33.0	---	---	724.4	0.027	0.000	18.6	1	1
03/28/06	5:17 p	-20.8	-20.8	-20.8	---	---	14.8	ESE	0.25	15.7	-33.0	---	---	724.5	0.027	0.000	18.6	1	1
03/28/06	5:18 p	-20.8	-20.8	-20.8	---	---	14.8	ESE	0.25	15.7	-33.0	---	---	724.3	0.027	0.000	18.6	1	1
03/28/06	5:19 p	-20.8	-20.8	-20.8	---	---	14.8	ESE	0.25	14.8	-33.1	---	---	724.4	0.027	0.000	18.6	1	1
03/28/06	5:20 p	-20.8	-20.8	-20.8	---	---	13.9	ESE	0.23	14.8	-32.8	---	---	724.4	0.027	0.000	18.6	1	1
03/28/06	5:21 p	-20.8	-20.8	-20.8	---	---	14.8	ESE	0.25	15.7	-33.1	---	---	724.4	0.027	0.000	18.6	1	1
03/28/06	5:22 p	-20.8	-20.8	-20.8	---	---	13.9	ESE	0.23	14.8	-32.8	---	---	724.5	0.027	0.000	18.6	1	1
03/28/06	5:23 p	-20.8	-20.8	-20.8	---	---	14.8	ESE	0.25	15.7	-33.1	---	---	724.4	0.027	0.000	18.6	1	1
03/28/06	5:24 p	-20.8	-20.8	-20.8	---	---	14.8	ESE	0.25	14.8	-33.1	---	---	724.5	0.027	0.000	18.6	1	1
03/28/06	5:25 p	-20.8	-20.8	-20.8	---	---	13.9	ESE	0.23	14.8	-32.8	---	---	724.5	0.027	0.000	18.6	1	1
03/28/06	5:26 p	-20.8	-20.8	-20.8	---	---	14.8	ESE	0.25	14.8	-33.1	---	---	724.5	0.027	0.000	18.6	1	1
03/28/06	5:27 p	-20.8	-20.8	-20.8	---	---	14.8	ESE	0.25	14.8	-33.1	---	---	724.5	0.027	0.000	18.6	1	1
03/28/06	5:28 p	-20.8	-20.8	-20.9	---	---	14.8	ESE	0.25	14.8	-33.1	---	---	724.4	0.027	0.000	18.6	1	1
03/28/06	5:29 p	-20.8	-20.8	-20.9	---	---	14.8	ESE	0.25	14.8	-33.1	---	---	724.5	0.027	0.000	18.6	1	1
03/28/06	5:30 p	-20.9	-20.8	-20.9	---	---	14.8	ESE	0.25	14.8	-33.2	---	---	724.4	0.027	0.000	18.6	1	1
03/28/06	5:31 p	-20.9	-20.8	-20.9	---	---	14.8	ESE	0.25	15.7	-33.2	---	---	724.5	0.027	0.000	18.6	1	1
03/28/06	5:32 p	-20.9	-20.9	-20.9	---	---	14.8	ESE	0.25	15.7	-33.2	---	---	724.5	0.027	0.000	18.6	1	1
03/28/06	5:33 p	-20.9	-20.9	-20.9	---	---	14.8	ESE	0.25	15.7	-33.2	---	---	724.5	0.027	0.000	18.6	1	1
03/28/06	5:34 p	-20.9	-20.9	-20.9	---	---	14.8	ESE	0.25	15.7	-33.2	---	---	724.5	0.027	0.000	18.6	1	1
03/28/06	5:35 p	-20.9	-20.9	-20.9	---	---	14.8	SE	0.25	15.7	-33.2	---	---	724.5	0.027	0.000	18.6	1	1
03/28/06	5:36 p	-20.9	-20.9	-20.9	---	---	13.9	SE	0.23	14.8	-32.8	---	---	724.6	0.027	0.000	18.6	1	1
03/28/06	5:37 p	-20.9	-20.9	-20.9	---	---	14.8	ESE	0.25	15.7	-33.2	---	---	724.5	0.027	0.000	18.6	1	1
03/28/06	5:38 p	-20.9	-20.9	-20.9	---	---	14.8	SE	0.25	14.8	-33.2	---	---	724.5	0.027	0.000	18.6	1	1
03/28/06	5:39 p	-20.9	-20.9	-20.9	---	---	13.0	ESE	0.22	14.8	-32.6	---	---	724.5	0.027	0.000	18.6	1	1
03/28/06	5:40 p	-20.9	-20.9	-20.9	---	---	13.9	ESE	0.23	13.9	-32.9	---	---	724.6	0.027	0.000	18.6	1	1
03/28/06	5:41 p	-20.9	-20.9	-21.0	---	---	13.9	ESE	0.23	14.8	-32.9	---	---	724.5	0.027	0.000	18.6	1	1
03/28/06	5:42 p	-20.9	-20.9	-21.0	---	---	13.0	ESE	0.22	13.9	-32.6	---	---	724.6	0.027	0.000	18.6	1	1
03/28/06	5:43 p	-21.0	-21.0	-21.0	---	---	13.0	ESE	0.22	13.9	-32.6	---	---	724.6	0.027	0.000	18.6	1	1
03/28/06	5:44 p	-21.0	-21.0	-21.0	---	---	13.0	ESE	0.22	13.9	-32.6	---	---	724.6	0.027	0.000	18.6	1	1
03/28/06	5:45 p	-21.0	-20.9	-21.0	---	---	13.0	ESE	0.22	15.7	-32.6	---	---	724.6	0.027	0.000	18.6	1	1
03/28/06	5:46 p	-21.0	-20.9	-21.0	---	---	13.0	SE	0.22	13.9	-32.6	---	---	724.7	0.027	0.000	18.6	1	1
03/28/06	5:47 p	-21.0	-20.9	-21.0	---	---	13.0	ESE	0.22	14.8	-32.6	---	---	724.6	0.027	0.000	18.6	1	1
03/28/06	5:48 p	-21.0	-21.0	-21.1	---	---	12.2	ESE	0.20	13.9	-32.3	---	---	724.5	0.027	0.000	18.6	1	1
03/28/06	5:49 p	-21.0	-20.9	-21.1	---	---	13.0	ESE	0.22	15.7	-32.6	---	---	724.6	0.027	0.000	18.6	1	1
03/28/06	5:50 p	-21.0	-20.9	-21.1	---	---	12.2	ESE	0.20	13.0	-32.3	---	---	724.5	0.027	0.000	18.6	1	1
03/28/06	5:51 p	-21.0	-21.0	-21.1	---	---	13.0	ESE	0.22	13.9	-32.6	---	---	724.6	0.027	0.000	18.6	1	1
03/28/06	5:52 p	-21.1	-21.0	-21.1	---	---	12.2	ESE	0.20	13.9	-32.3	---	---	724.7	0.027	0.000	18.6	1	1
03/28/06	5:53 p	-21.1	-21.0	-21.1	---	---	12.2	SE	0.20	13.9	-32.3	---	---	724.7	0.027	0.000	18.6	1	1
03/28/06	5:54 p	-21.1	-21.1	-21.1	---	---	13.9	SE	0.23	15.7	-33.1	---	---	724.6	0.027	0.000	18.6	1	1
03/28/06	5:55 p	-21.1	-21.0	-21.1	---	---	12.2	SE	0.20	13.9	-32.3	---	---	724.6	0.027	0.000	18.6	1	1
03/28/06	5:56 p	-21.1	-21.0	-21.1	---	---	13.9	SE	0.23	14.8	-33.1	---	---	724.7	0.027	0.000	18.7	1	1
03/28/06	5:57 p	-21.1	-21.1	-21.1	---	---	13.0	SE	0.22	13.9	-32.7	---	---	724.6	0.027	0.000	18.7	1	1
03/28/06	5:58 p	-21.1	-21.1	-21.1	---	---	13.0	SE	0.22	13.9	-32.7	---	---	724.6	0.027	0.000	18.7	1	1
03/28/06	5:59 p	-21.1	-21.1	-21.1	---	---	13.9	SE	0.23	14.8	-33.1	---	---	724.6	0.027	0.000	18.7	1	1
03/28/06	6:00 p	-21.1	-21.1	-21.1	---	---	13.9	SE	0.23	14.8	-33.1	---	---	724.6	0.027	0.000	18.7	1	1
03/28/06	6:01 p	-21.1	-21.1	-21.1	---	---	13.0	SE	0.22	13.9	-32.7	---	---	724.6	0.027	0.000	18.7	1	1
03/28/06	6:02 p	-21.1	-21.1	-21.1	---	---	13.0	SE	0.22	13.9	-32.7	---	---	724.7	0.027	0.000	18.7	1	1
03/28/06	6:03 p	-21.1	-21.1	-21.1	---	---	13.0	SE	0.22	13.9	-32.7	---	---	724.6	0.027	0.000	18.7	1	1
03/28/06	6:04 p	-21.1	-21.1	-21.1	---	---	12.2	SE	0.20	13.9	-32.4	---	---	724.6	0.027	0.000	18.7	1	1
03/28/06	6:05 p	-21.1	-21.1	-21.1	---	---	11.3	SE	0.19	12.2	-31.9	---	---	724.6	0.027	0.000	18.7	1	1
03/28/06	6:06 p	-21.1	-21.1	-21.1	---	---	12.2	SE	0.20	13.0	-32.3	---	---	724.7	0.027	0.000	18.7	1	1
03/28/06	6:07 p	-21.1	-21.1	-21.1	---	---	11.3	SE	0.19	13.0	-31.9	---	---	724.6	0.027	0.000	18.7	1	1
03/28/06	6:08 p	-21.1	-21.1	-21.1	---	---	11.3	SE	0.19	13.0	-31.9	---	---	724.7	0.027	0.000	18.7	1	1
03/28/06	6:09 p	-21.1	-21.1	-21.2	---	---	11.3	SE	0.19	13.0	-32.0	---	---	724.6	0.027	0.000	18.7	1	1
03/28/06	6:10 p	-21.1	-21.1	-21.1	---	---	11.3	ESE	0.19	12.2	-32.0	---	---	724.7	0.027	0.000	18.7	1	1
03/28/06	6:11 p	-21.1	-21.1	-21.1	---	---	11.3	SE	0.19	12.2	-31.9	---	---	724.7	0.027	0.000	18.7	1	1
03/28/06	6:12 p	-21.1	-21.1	-21.1	---	---	10.4	SE	0.17	12.2	-31.6	---	---	724.7	0.027	0.000	18.7	1	1
03/28/06	6:13 p	-21.1	-21.1	-21.1	---	---	11.3	SE	0.19	12.2	-32.0	---	---	724.8	0.027	0.000	18.7	1	1
03/28/06	6:14 p	-21.1	-21.1	-21.1	---	---	11.3	SE	0.19	12.2	-32.0	---	---	724.7	0.027	0.000	18.7	1	1
03/28/06	6:15 p	-21.1	-21.1	-21.2	---	---	11.3	SE	0.19	12.2	-32.0	---	---	724.7	0.027	0.000	18.7	1	1
03/28/06	6:16 p	-21.2	-21.2	-21.2	---	---	10.4	SE	0.17	12.2	-31.7	---	---	724.8	0.027	0.000	18.7	1	1
03/28/06	6:17 p	-21.2	-21.2	-21.2	---	---	10.4	SE	0.17	12.2	-31.7	---	---	724.7	0.027	0.000	18.7	1	1
03/28/06	6:18 p	-21.2	-21.1	-21.2	---	---	11.3	SE	0.19	11.3	-32.1	---	---	724.7	0.027	0.000	18.7	1	1
03/28/06	6:19 p	-21.2	-21.2	-21.2	---	---	11.3	SE	0.19	11.3	-32.1	---	---	724.8	0.027	0.000	18.7	1	1
03/28/06	6:20 p	-21.2	-21.2	-21.2	---	---	10.4	SE	0.17	12.2	-31.8	---	---	724.7	0.027	0.000	18.7	1	1
03/28/06	6:21 p	-21.2	-21.2	-21.2	---	---	11.3	SE	0.19	12.2	-32.1	---	---	724.7	0.027	0.000	18.7	1	1
03/28/06	6:22 p	-21.2	-21.2	-21.2	---	---	10.4	SE	0.17	11.3	-31.8	---	---	724.7	0.027	0.000	18.7	1	1
03/28/06	6:23 p	-21.2	-21.2	-21.3	---	---	10.4	SE	0.17	11.3	-31.8	---	---	724.7	0.027	0.000	18.7	1	1
03/28/06	6:24 p	-21.2	-21.2	-21.2	---	---	10.4	SE	0.17	12.2	-31.8	---	---	724.7	0.027	0.000	18.7	1	1
03/28/06	6:25 p	-21.2	-21.2	-21.3	---	---	10.4	SE	0.17	11.3	-31.8	---	---	724.7	0.027	0.000	18.7	1	1
03/28/06	6:26 p	-21.3	-21.2	-21.3	---	---	10.4	SE	0.17	11.3	-31.8	---	---	724.8	0.028	0.000	18.7	1	1
03/28/06	6:27 p	-21.3	-21.2	-21.3	---	---	10.4	SE	0.17	11.3	-31.8	---	---	724.8	0.028	0.000	18.7	1	1
03/28/06	6:28 p	-21.3	-21.2	-21.3	---	---	10.4	SE	0.17	11.3	-31.8	---	---	724.9	0.028	0.000	18.7	1	1
03/28/06	6:29 p	-21.3	-21.3	-21.3	---	---	10.4	SE	0.17	11.3	-31.8	---	---	724.8	0.028	0.000	18.7	1	1
03/28/06	6:30 p	-21.3	-21.3	-21.3	---	---	10.4	SE	0.17	11.3	-31.8	---	---	724.7	0.028	0.000	18.7	1	1
03/28/06	6:31 p	-21.3	-21.2	-21.3	---	---	11.3	SE	0.19	12.2	-32.2	---	---	724.8	0.028	0.000	18.7	1	1
03/28/06	6:32 p	-21.3	-21.3	-21.3	---	---	11.3	SE	0.19	12.2	-32.3	---	---	724.7	0.028	0.000	18.7	1	1
03/28/06	6:33 p	-21.3	-21.3	-21.4	---	---	11.3	SE	0.19	12.2	-32.3	---	---	724.8	0.028	0.000	18.7	1	1
03/28/06	6:34 p	-21.3	-21.3	-21.3	---	---	11.3	SE	0.19	12.2	-32.3	---	---	724.7	0.028	0.000	18.7	1	1
03/28/06	6:35 p	-21.3	-21.3	-21.3	---	---	12.2	SE	0.20	13.0	-32.7	---	---	724.8	0.028	0.000	18.7	1	1
03/28/06	6:36 p	-21.3	-21.3	-21.3	---	---	11.3	SE	0.19	12.2	-32.3	---	---	724.8	0.028	0.000	18.7	1	1
03/28/06	6:37 p	-21.3	-21.3	-21.3	---	---	12.2	SE	0.20	13.0	-32.7	---	---	724.8	0.028	0.000	18.7	1	1
03/28/06	6:38 p	-21.3	-21.3	-21.4	---	---	12.2	SE	0.20	13.0	-32.7	---	---	724.7	0.028	0.000	18.7	1	1
03/28/06	6:39 p	-21.4	-21.3	-21.4	---	---	12.2	SE	0.20	13.9	-32.8	---	---	724.7	0.028	0.000	18.7	1	1
03/28/06	6:40 p	-21.4	-21.4	-21.4	---	---	12.2	SE	0.20	13.0	-32.8	---	---	724.8	0.028	0.000	18.7	1	1
03/28/06	6:41 p	-21.4	-21.4	-21.4	---	---	13.0	SE	0.22	13.9	-33.1	---	---	724.7	0.028	0.000	18.7	1	1
03/28/06	6:42 p	-21.4	-21.4	-21.4	---	---	13.0	SE	0.22	13.9	-33.1	---	---	724.6	0.028	0.000	18.7	1	1
03/28/06	6:43 p	-21.4	-21.4	-21.4	---	---	13.0	SE	0.22	13.9	-33.1	---	---	724.7	0.028	0.000	18.7	1	1
03/28/06	6:44 p	-21.4	-21.4	-21.4	---	---	13.0	SE	0.22	14.8	-33.1	---	---	724.7	0.028	0.000	18.7	1	1
03/28/06	6:45 p	-21.4	-21.4	-21.4	---	---	13.9	SE	0.23	14.8	-33.6	---	---	724.7	0.028	0.000	18.7	1	1
03/28/06	6:46 p	-21.4	-21.4	-21.4	---	---	13.9	SE	0.23	14.8	-33.6	---	---	724.7	0.028	0.000	18.7	1	1
03/28/06	6:47 p	-21.4	-21.4	-21.4	---	---	13.9	SE	0.23	14.8	-33.6	---	---	724.7	0.028	0.000	18.7	1	1
03/28/06	6:48 p	-21.4	-21.4	-21.4	---	---	13.9	SE	0.23	14.8	-33.6	---	---	724.7	0.028	0.000	18.7	1	1
03/28/06	6:49 p	-21.4	-21.4	-21.4	---	---	13.9	SE	0.23	15.7	-33.6	---	---	724.7	0.028	0.000	18.7	1	1
03/28/06	6:50 p	-21.4	-21.4	-21.4	---	---	13.9	SE	0.23	15.7	-33.6	---	---	724.7	0.028	0.000	18.7	1	1
03/28/06	6:51 p	-21.4	-21.4	-21.4	---	---	13.9	SE	0.23	15.7	-33.6	---	---	724.7	0.028	0.000	18.7	1	1
03/28/06	6:52 p	-21.4	-21.4	-21.4	---	---	13.9	SE	0.23	15.7	-33.6	---	---	724.6	0.028	0.000	18.7	1	1
03/28/06	6:53 p	-21.4	-21.4	-21.4	---	---	13.9	SE	0.23	14.8	-33.6	---	---	724.7	0.028	0.000	18.7	1	1
03/28/06	6:54 p	-21.4	-21.4	-21.4	---	---	13.9	SE	0.23	14.8	-33.6	---	---	724.6	0.028	0.000	18.7	1	1
03/28/06	6:55 p	-21.4	-21.4	-21.4	---	---	13.0	SE	0.22	13.9	-33.2	---	---	724.6	0.028	0.000	18.7	1	1
03/28/06	6:56 p	-21.4	-21.4	-21.4	---	---	13.9	SE	0.23	15.7	-33.6	---	---	724.7	0.028	0.000	18.7	1	1
03/28/06	6:57 p	-21.4	-21.4	-21.4	---	---	14.8	SE	0.25	15.7	-33.9	---	---	724.7	0.028	0.000	18.7	1	1
03/28/06	6:58 p	-21.4	-21.4	-21.4	---	---	13.9	SE	0.23	16.5	-33.6	---	---	724.6	0.028	0.000	18.7	1	1
03/28/06	6:59 p	-21.4	-21.4	-21.4	---	---	13.9	SE	0.23	15.7	-33.6	---	---	724.7	0.028	0.000	18.7	1	1
03/28/06	7:00 p	-21.4	-21.4	-21.4	---	---	13.9	SE	0.23	15.7	-33.6	---	---	724.7	0.028	0.000	18.7	1	1
03/28/06	7:01 p	-21.4	-21.4	-21.4	---	---	14.8	SE	0.25	15.7	-33.9	---	---	724.6	0.028	0.000	18.7	1	1
03/28/06	7:02 p	-21.4	-21.4	-21.4	---	---	13.9	SE	0.23	14.8	-33.6	---	---	724.7	0.028	0.000	18.7	1	1
03/28/06	7:03 p	-21.4	-21.4	-21.4	---	---	13.9	SE	0.23	14.8	-33.6	---	---	724.7	0.028	0.000	18.7	1	1
03/28/06	7:04 p	-21.4	-21.4	-21.4	---	---	13.0	SE	0.22	14.8	-33.2	---	---	724.7	0.028	0.000	18.7	1	1
03/28/06	7:05 p	-21.4	-21.4	-21.4	---	---	11.3	SE	0.19	13.0	-32.4	---	---	724.7	0.028	0.000	18.7	1	1
03/28/06	7:06 p	-21.4	-21.4	-21.4	---	---	13.0	SE	0.22	14.8	-33.2	---	---	724.7	0.028	0.000	18.7	1	1
03/28/06	7:07 p	-21.4	-21.4	-21.4	---	---	13.0	SE	0.22	14.8	-33.1	---	---	724.7	0.028	0.000	18.7	1	1
03/28/06	7:08 p	-21.4	-21.4	-21.4	---	---	13.0	SE	0.22	13.9	-33.2	---	---	724.7	0.028	0.000	18.7	1	1
03/28/06	7:09 p	-21.4	-21.4	-21.4	---	---	13.0	SE	0.22	13.9	-33.2	---	---	724.7	0.028	0.000	18.7	1	1
03/28/06	7:10 p	-21.4	-21.4	-21.4	---	---	12.2	ESE	0.20	13.9	-32.8	---	---	724.7	0.028	0.000	18.7	1	1
03/28/06	7:11 p	-21.4	-21.4	-21.4	---	---	12.2	SE	0.20	13.0	-32.8	---	---	724.7	0.028	0.000	18.7	1	1
03/28/06	7:12 p	-21.4	-21.4	-21.4	---	---	12.2	SE	0.20	13.0	-32.8	---	---	724.7	0.028	0.000	18.7	1	1
03/28/06	7:13 p	-21.4	-21.4	-21.4	---	---	12.2	SE	0.20	13.0	-32.8	---	---	724.7	0.028	0.000	18.8	1	1
03/28/06	7:14 p	-21.4	-21.4	-21.4	---	---	13.0	SE	0.22	13.9	-33.2	---	---	724.7	0.028	0.000	18.8	1	1
03/28/06	7:15 p	-21.4	-21.4	-21.4	---	---	12.2	SE	0.20	13.9	-32.8	---	---	724.8	0.028	0.000	18.8	1	1
03/28/06	7:16 p	-21.4	-21.4	-21.4	---	---	12.2	ESE	0.20	13.0	-32.8	---	---	724.8	0.028	0.000	18.8	1	1
03/28/06	7:17 p	-21.4	-21.4	-21.4	---	---	12.2	ESE	0.20	13.0	-32.8	---	---	724.7	0.028	0.000	18.8	1	1
03/28/06	7:18 p	-21.4	-21.4	-21.4	---	---	13.0	ESE	0.22	13.9	-33.1	---	---	724.7	0.028	0.000	18.8	1	1
03/28/06	7:19 p	-21.4	-21.4	-21.4	---	---	13.0	ESE	0.22	14.8	-33.2	---	---	724.7	0.028	0.000	18.8	1	1
03/28/06	7:20 p	-21.4	-21.4	-21.4	---	---	13.9	ESE	0.23	15.7	-33.6	---	---	724.7	0.028	0.000	18.8	1	1
03/28/06	7:21 p	-21.4	-21.4	-21.4	---	---	13.0	ESE	0.22	14.8	-33.2	---	---	724.7	0.028	0.000	18.8	1	1
03/28/06	7:22 p	-21.4	-21.4	-21.4	---	---	13.9	ESE	0.23	14.8	-33.6	---	---	724.6	0.028	0.000	18.8	1	1
03/28/06	7:23 p	-21.4	-21.4	-21.4	---	---	13.9	ESE	0.23	14.8	-33.6	---	---	724.7	0.028	0.000	18.8	1	1
03/28/06	7:24 p	-21.4	-21.4	-21.4	---	---	13.9	ESE	0.23	15.7	-33.6	---	---	724.7	0.028	0.000	18.8	1	1
03/28/06	7:25 p	-21.4	-21.4	-21.5	---	---	13.9	ESE	0.23	15.7	-33.6	---	---	724.7	0.028	0.000	18.8	1	1
03/28/06	7:26 p	-21.4	-21.4	-21.5	---	---	13.9	ESE	0.23	13.9	-33.6	---	---	724.7	0.028	0.000	18.7	1	1
03/28/06	7:27 p	-21.4	-21.4	-21.5	---	---	13.9	ESE	0.23	15.7	-33.6	---	---	724.8	0.028	0.000	18.7	1	1
03/28/06	7:28 p	-21.5	-21.5	-21.5	---	---	13.9	ESE	0.23	17.4	-33.6	---	---	724.8	0.028	0.000	18.7	1	1
03/28/06	7:29 p	-21.5	-21.5	-21.5	---	---	14.8	ESE	0.25	14.8	-33.9	---	---	724.8	0.028	0.000	18.7	1	1
03/28/06	7:30 p	-21.5	-21.5	-21.5	---	---	13.9	ESE	0.23	14.8	-33.6	---	---	724.8	0.028	0.000	18.7	1	1
03/28/06	7:31 p	-21.5	-21.5	-21.5	---	---	13.0	ESE	0.22	14.8	-33.3	---	---	724.8	0.028	0.000	18.7	1	1
03/28/06	7:32 p	-21.5	-21.5	-21.6	---	---	13.0	SE	0.22	14.8	-33.3	---	---	724.8	0.028	0.000	18.7	1	1
03/28/06	7:33 p	-21.5	-21.5	-21.6	---	---	13.0	SE	0.22	14.8	-33.3	---	---	724.8	0.028	0.000	18.7	1	1
03/28/06	7:34 p	-21.6	-21.6	-21.6	---	---	13.9	SE	0.23	16.5	-33.7	---	---	724.8	0.028	0.000	18.7	1	1
03/28/06	7:35 p	-21.6	-21.6	-21.6	---	---	13.0	SE	0.22	14.8	-33.3	---	---	724.8	0.028	0.000	18.7	1	1
03/28/06	7:36 p	-21.6	-21.6	-21.6	---	---	13.9	SE	0.23	14.8	-33.7	---	---	724.9	0.028	0.000	18.7	1	1
03/28/06	7:37 p	-21.6	-21.6	-21.6	---	---	13.9	SE	0.23	15.7	-33.7	---	---	724.8	0.028	0.000	18.7	1	1
03/28/06	7:38 p	-21.6	-21.6	-21.6	---	---	13.9	SE	0.23	15.7	-33.8	---	---	724.8	0.028	0.000	18.7	1	1
03/28/06	7:39 p	-21.6	-21.6	-21.6	---	---	14.8	SE	0.25	16.5	-34.1	---	---	724.8	0.028	0.000	18.7	1	1
03/28/06	7:40 p	-21.6	-21.6	-21.6	---	---	13.0	SE	0.22	16.5	-33.4	---	---	724.8	0.028	0.000	18.7	1	1
03/28/06	7:41 p	-21.7	-21.6	-21.7	---	---	13.0	SE	0.22	14.8	-33.5	---	---	724.9	0.028	0.000	18.7	1	1
03/28/06	7:42 p	-21.6	-21.6	-21.6	---	---	13.9	SE	0.23	15.7	-33.8	---	---	724.8	0.028	0.000	18.7	1	1
03/28/06	7:43 p	-21.6	-21.6	-21.7	---	---	13.0	SE	0.22	15.7	-33.4	---	---	724.9	0.028	0.000	18.7	1	1
03/28/06	7:44 p	-21.6	-21.6	-21.7	---	---	13.0	SE	0.22	13.9	-33.4	---	---	724.8	0.028	0.000	18.7	1	1
03/28/06	7:45 p	-21.7	-21.6	-21.7	---	---	13.0	SE	0.22	14.8	-33.5	---	---	724.8	0.028	0.000	18.7	1	1
03/28/06	7:46 p	-21.6	-21.6	-21.7	---	---	12.2	SE	0.20	13.0	-33.1	---	---	724.9	0.028	0.000	18.7	1	1
03/28/06	7:47 p	-21.6	-21.6	-21.7	---	---	13.0	SE	0.22	14.8	-33.4	---	---	724.8	0.028	0.000	18.7	1	1
03/28/06	7:48 p	-21.6	-21.6	-21.7	---	---	13.9	SE	0.23	14.8	-33.8	---	---	724.9	0.028	0.000	18.7	1	1
03/28/06	7:49 p	-21.6	-21.6	-21.7	---	---	13.0	SE	0.22	14.8	-33.4	---	---	724.9	0.028	0.000	18.7	1	1
03/28/06	7:50 p	-21.6	-21.6	-21.7	---	---	13.0	SE	0.22	15.7	-33.4	---	---	724.9	0.028	0.000	18.7	1	1
03/28/06	7:51 p	-21.6	-21.6	-21.7	---	---	13.0	SE	0.22	13.9	-33.4	---	---	724.9	0.028	0.000	18.8	1	1
03/28/06	7:52 p	-21.6	-21.6	-21.7	---	---	13.0	SE	0.22	13.9	-33.4	---	---	724.8	0.028	0.000	18.8	1	1
03/28/06	7:53 p	-21.7	-21.6	-21.7	---	---	13.9	SE	0.23	14.8	-33.8	---	---	724.9	0.028	0.000	18.8	1	1
03/28/06	7:54 p	-21.6	-21.6	-21.6	---	---	13.9	SE	0.23	15.7	-33.8	---	---	724.9	0.028	0.000	18.8	1	1
03/28/06	7:55 p	-21.6	-21.6	-21.6	---	---	13.0	SE	0.22	14.8	-33.3	---	---	724.9	0.028	0.000	18.9	1	1
03/28/06	7:56 p	-21.6	-21.6	-21.6	---	---	13.0	SE	0.22	13.9	-33.4	---	---	724.8	0.028	0.000	18.9	1	1
03/28/06	7:57 p	-21.6	-21.6	-21.6	---	---	13.0	SE	0.22	13.9	-33.4	---	---	724.8	0.028	0.000	19.0	1	1
03/28/06	7:58 p	-21.6	-21.6	-21.7	---	---	13.0	SE	0.22	14.8	-33.4	---	---	724.8	0.028	0.000	19.0	1	1
03/28/06	7:59 p	-21.6	-21.6	-21.6	---	---	13.9	SE	0.23	14.8	-33.8	---	---	724.9	0.028	0.000	19.0	1	1
03/28/06	8:00 p	-21.6	-21.6	-21.6	---	---	13.0	SE	0.22	14.8	-33.4	---	---	724.9	0.028	0.000	19.0	1	1
03/28/06	8:01 p	-21.6	-21.6	-21.6	---	---	13.0	SE	0.22	13.9	-33.3	---	---	725.0	0.028	0.000	19.0	1	1
03/28/06	8:02 p	-21.6	-21.6	-21.6	---	---	12.2	SE	0.20	13.9	-33.0	---	---	724.9	0.028	0.000	18.9	1	1
03/28/06	8:03 p	-21.6	-21.6	-21.6	---	---	13.0	SE	0.22	13.9	-33.3	---	---	724.9	0.028	0.000	18.9	1	1
03/28/06	8:04 p	-21.6	-21.6	-21.6	---	---	12.2	SE	0.20	13.9	-33.0	---	---	724.9	0.028	0.000	18.9	1	1
03/28/06	8:05 p	-21.6	-21.5	-21.6	---	---	12.2	SE	0.20	13.9	-33.0	---	---	724.9	0.028	0.000	18.9	1	1
03/28/06	8:06 p	-21.6	-21.5	-21.6	---	---	12.2	SE	0.20	13.0	-33.0	---	---	724.9	0.028	0.000	18.9	1	1
03/28/06	8:07 p	-21.6	-21.6	-21.6	---	---	12.2	SE	0.20	13.0	-33.0	---	---	724.9	0.028	0.000	18.9	1	1
03/28/06	8:08 p	-21.6	-21.5	-21.6	---	---	12.2	SE	0.20	13.0	-33.0	---	---	724.9	0.028	0.000	18.8	1	1
03/28/06	8:09 p	-21.6	-21.5	-21.6	---	---	12.2	SE	0.20	13.0	-33.0	---	---	724.9	0.028	0.000	18.8	1	1
03/28/06	8:10 p	-21.6	-21.5	-21.6	---	---	12.2	SE	0.20	13.9	-33.0	---	---	724.9	0.028	0.000	18.8	1	1
03/28/06	8:11 p	-21.5	-21.5	-21.6	---	---	12.2	SE	0.20	13.9	-32.9	---	---	725.0	0.028	0.000	18.8	1	1
03/28/06	8:12 p	-21.6	-21.6	-21.6	---	---	13.0	SE	0.22	13.9	-33.3	---	---	724.9	0.028	0.000	18.8	1	1
03/28/06	8:13 p	-21.6	-21.5	-21.6	---	---	13.0	SE	0.22	14.8	-33.3	---	---	724.9	0.028	0.000	18.8	1	1
03/28/06	8:14 p	-21.6	-21.6	-21.6	---	---	13.0	SE	0.22	14.8	-33.3	---	---	724.9	0.028	0.000	18.8	1	1
03/28/06	8:15 p	-21.6	-21.6	-21.6	---	---	13.9	SE	0.23	14.8	-33.7	---	---	724.9	0.028	0.000	18.8	1	1
03/28/06	8:16 p	-21.6	-21.6	-21.6	---	---	13.9	SE	0.23	14.8	-33.7	---	---	724.9	0.028	0.000	18.8	1	1
03/28/06	8:17 p	-21.6	-21.5	-21.6	---	---	13.9	SE	0.23	13.9	-33.7	---	---	724.9	0.028	0.000	18.8	1	1
03/28/06	8:18 p	-21.6	-21.6	-21.6	---	---	13.9	SE	0.23	14.8	-33.7	---	---	724.9	0.028	0.000	18.8	1	1
03/28/06	8:19 p	-21.6	-21.6	-21.6	---	---	13.9	SE	0.23	14.8	-33.7	---	---	724.9	0.028	0.000	18.8	1	1
03/28/06	8:20 p	-21.6	-21.6	-21.6	---	---	13.0	SE	0.22	13.9	-33.3	---	---	724.9	0.028	0.000	18.8	1	1
03/28/06	8:21 p	-21.6	-21.6	-21.6	---	---	13.9	SE	0.23	14.8	-33.7	---	---	725.0	0.028	0.000	18.8	1	1
03/28/06	8:22 p	-21.6	-21.6	-21.6	---	---	13.9	SE	0.23	14.8	-33.7	---	---	724.9	0.028	0.000	18.8	1	1
03/28/06	8:23 p	-21.6	-21.6	-21.6	---	---	13.9	SE	0.23	14.8	-33.8	---	---	724.9	0.028	0.000	18.8	1	1
03/28/06	8:24 p	-21.6	-21.6	-21.6	---	---	14.8	SE	0.25	15.7	-34.1	---	---	725.0	0.028	0.000	18.8	1	1
03/28/06	8:25 p	-21.6	-21.6	-21.6	---	---	13.9	SE	0.23	14.8	-33.8	---	---	724.9	0.028	0.000	18.8	1	1
03/28/06	8:26 p	-21.6	-21.6	-21.6	---	---	13.9	SE	0.23	15.7	-33.8	---	---	725.0	0.028	0.000	18.8	1	1
03/28/06	8:27 p	-21.6	-21.6	-21.6	---	---	13.0	SE	0.22	14.8	-33.4	---	---	724.9	0.028	0.000	18.8	1	1
03/28/06	8:28 p	-21.6	-21.6	-21.7	---	---	13.9	SE	0.23	14.8	-33.8	---	---	724.9	0.028	0.000	18.8	1	1
03/28/06	8:29 p	-21.7	-21.6	-21.7	---	---	14.8	SE	0.25	15.7	-34.2	---	---	725.0	0.028	0.000	18.8	1	1
03/28/06	8:30 p	-21.6	-21.6	-21.7	---	---	13.9	SE	0.23	14.8	-33.8	---	---	724.9	0.028	0.000	18.8	1	1
03/28/06	8:31 p	-21.7	-21.6	-21.7	---	---	13.0	SE	0.22	14.8	-33.5	---	---	724.9	0.028	0.000	18.8	1	1
03/28/06	8:32 p	-21.7	-21.6	-21.7	---	---	13.0	SE	0.22	13.9	-33.5	---	---	724.9	0.028	0.000	18.8	1	1
03/28/06	8:33 p	-21.6	-21.6	-21.7	---	---	13.0	SE	0.22	14.8	-33.4	---	---	724.9	0.028	0.000	18.8	1	1
03/28/06	8:34 p	-21.7	-21.6	-21.7	---	---	13.0	SE	0.22	14.8	-33.5	---	---	725.0	0.028	0.000	18.7	1	1
03/28/06	8:35 p	-21.6	-21.6	-21.7	---	---	13.0	SE	0.22	13.9	-33.4	---	---	724.9	0.028	0.000	18.8	1	1
03/28/06	8:36 p	-21.7	-21.6	-21.7	---	---	13.9	SE	0.23	14.8	-33.8	---	---	725.0	0.028	0.000	18.8	1	1
03/28/06	8:37 p	-21.7	-21.7	-21.7	---	---	13.9	SE	0.23	13.9	-33.8	---	---	725.0	0.028	0.000	18.8	1	1
03/28/06	8:38 p	-21.7	-21.7	-21.7	---	---	13.9	SE	0.23	14.8	-33.8	---	---	725.0	0.028	0.000	18.8	1	1
03/28/06	8:39 p	-21.7	-21.7	-21.7	---	---	13.0	SE	0.22	14.8	-33.5	---	---	725.0	0.028	0.000	18.8	1	1
03/28/06	8:40 p	-21.7	-21.7	-21.7	---	---	13.9	SE	0.23	13.9	-33.8	---	---	725.0	0.028	0.000	18.7	1	1
03/28/06	8:41 p	-21.7	-21.7	-21.7	---	---	13.9	SE	0.23	14.8	-33.8	---	---	725.0	0.028	0.000	18.7	1	1
03/28/06	8:42 p	-21.7	-21.6	-21.7	---	---	13.0	ESE	0.22	13.9	-33.5	---	---	725.0	0.028	0.000	18.7	1	1
03/28/06	8:43 p	-21.7	-21.7	-21.7	---	---	12.2	ESE	0.20	13.0	-33.1	---	---	725.0	0.028	0.000	18.7	1	1
03/28/06	8:44 p	-21.7	-21.7	-21.7	---	---	13.0	ESE	0.22	13.9	-33.5	---	---	725.0	0.028	0.000	18.7	1	1
03/28/06	8:45 p	-21.7	-21.7	-21.7	---	---	13.0	ESE	0.22	13.9	-33.5	---	---	724.9	0.028	0.000	18.7	1	1
03/28/06	8:46 p	-21.7	-21.7	-21.7	---	---	13.0	ESE	0.22	13.9	-33.5	---	---	725.0	0.028	0.000	18.7	1	1
03/28/06	8:47 p	-21.7	-21.7	-21.7	---	---	13.0	ESE	0.22	13.9	-33.5	---	---	725.0	0.028	0.000	18.7	1	1
03/28/06	8:48 p	-21.7	-21.7	-21.7	---	---	13.0	SE	0.22	14.8	-33.5	---	---	724.9	0.028	0.000	18.7	1	1
03/28/06	8:49 p	-21.7	-21.7	-21.7	---	---	12.2	SE	0.20	13.0	-33.1	---	---	725.0	0.028	0.000	18.7	1	1
03/28/06	8:50 p	-21.7	-21.7	-21.7	---	---	12.2	SE	0.20	13.9	-33.2	---	---	724.9	0.028	0.000	18.7	1	1
03/28/06	8:51 p	-21.7	-21.7	-21.7	---	---	12.2	SE	0.20	13.9	-33.1	---	---	725.0	0.028	0.000	18.7	1	1
03/28/06	8:52 p	-21.7	-21.7	-21.7	---	---	13.0	SE	0.22	13.9	-33.6	---	---	725.1	0.028	0.000	18.8	1	1
03/28/06	8:53 p	-21.7	-21.7	-21.7	---	---	12.2	SE	0.20	13.0	-33.2	---	---	725.0	0.028	0.000	18.8	1	1
03/28/06	8:54 p	-21.7	-21.7	-21.7	---	---	12.2	SE	0.20	13.0	-33.2	---	---	725.0	0.028	0.000	18.8	1	1
03/28/06	8:55 p	-21.7	-21.7	-21.7	---	---	12.2	SE	0.20	13.0	-33.2	---	---	725.0	0.028	0.000	18.8	1	1
03/28/06	8:56 p	-21.7	-21.7	-21.7	---	---	12.2	SE	0.20	13.9	-33.2	---	---	724.9	0.028	0.000	18.8	1	1
03/28/06	8:57 p	-21.7	-21.7	-21.7	---	---	12.2	SE	0.20	13.9	-33.2	---	---	725.0	0.028	0.000	18.8	1	1
03/28/06	8:58 p	-21.7	-21.7	-21.7	---	---	13.0	SE	0.22	13.9	-33.6	---	---	725.0	0.028	0.000	18.8	1	1
03/28/06	8:59 p	-21.7	-21.7	-21.8	---	---	12.2	SE	0.20	13.0	-33.2	---	---	725.0	0.028	0.000	18.8	1	1
03/28/06	9:00 p	-21.7	-21.7	-21.7	---	---	13.0	SE	0.22	13.9	-33.6	---	---	725.0	0.028	0.000	18.8	1	1
03/28/06	9:01 p	-21.7	-21.7	-21.7	---	---	12.2	SE	0.20	13.0	-33.2	---	---	725.0	0.028	0.000	18.8	1	1
03/28/06	9:02 p	-21.7	-21.7	-21.7	---	---	12.2	SE	0.20	13.0	-33.2	---	---	725.0	0.028	0.000	18.8	1	1
03/28/06	9:03 p	-21.7	-21.7	-21.8	---	---	12.2	SE	0.20	13.0	-33.2	---	---	725.0	0.028	0.000	18.8	1	1
03/28/06	9:04 p	-21.7	-21.7	-21.8	---	---	12.2	SE	0.20	13.0	-33.2	---	---	725.0	0.028	0.000	18.8	1	1
03/28/06	9:05 p	-21.7	-21.7	-21.7	---	---	11.3	SE	0.19	12.2	-32.8	---	---	725.0	0.028	0.000	18.8	1	1
03/28/06	9:06 p	-21.8	-21.7	-21.8	---	---	11.3	SE	0.19	12.2	-32.9	---	---	725.0	0.028	0.000	18.8	1	1
03/28/06	9:07 p	-21.7	-21.7	-21.8	---	---	12.2	SE	0.20	13.0	-33.2	---	---	725.0	0.028	0.000	18.8	1	1
03/28/06	9:08 p	-21.8	-21.8	-21.8	---	---	13.0	SE	0.22	13.0	-33.6	---	---	725.1	0.028	0.000	18.8	1	1
03/28/06	9:09 p	-21.8	-21.7	-21.8	---	---	13.0	SE	0.22	13.9	-33.6	---	---	725.1	0.028	0.000	18.8	1	1
03/28/06	9:10 p	-21.8	-21.8	-21.8	---	---	13.0	SE	0.22	13.0	-33.6	---	---	725.1	0.028	0.000	18.8	1	1
03/28/06	9:11 p	-21.8	-21.8	-21.8	---	---	13.0	SE	0.22	13.9	-33.6	---	---	725.0	0.028	0.000	18.8	1	1
03/28/06	9:12 p	-21.8	-21.8	-21.8	---	---	13.0	SE	0.22	13.9	-33.6	---	---	725.1	0.028	0.000	18.8	1	1
03/28/06	9:13 p	-21.8	-21.8	-21.8	---	---	13.0	SE	0.22	13.9	-33.6	---	---	725.0	0.028	0.000	18.8	1	1
03/28/06	9:14 p	-21.8	-21.8	-21.8	---	---	13.0	SE	0.22	13.9	-33.6	---	---	725.1	0.028	0.000	18.8	1	1
03/28/06	9:15 p	-21.8	-21.8	-21.8	---	---	13.0	SE	0.22	13.9	-33.6	---	---	725.0	0.028	0.000	18.8	1	1
03/28/06	9:16 p	-21.8	-21.8	-21.8	---	---	13.0	SE	0.22	13.9	-33.6	---	---	725.1	0.028	0.000	18.8	1	1
03/28/06	9:17 p	-21.8	-21.8	-21.8	---	---	13.0	SE	0.22	13.9	-33.6	---	---	724.9	0.028	0.000	18.8	1	1
03/28/06	9:18 p	-21.8	-21.8	-21.8	---	---	13.0	SE	0.22	13.0	-33.7	---	---	725.0	0.028	0.000	18.8	1	1
03/28/06	9:19 p	-21.8	-21.8	-21.8	---	---	13.0	SE	0.22	13.0	-33.7	---	---	725.1	0.028	0.000	18.8	1	1
03/28/06	9:20 p	-21.8	-21.8	-21.8	---	---	13.0	SE	0.22	13.0	-33.6	---	---	725.0	0.028	0.000	18.8	1	1
03/28/06	9:21 p	-21.8	-21.8	-21.8	---	---	13.0	SE	0.22	13.0	-33.7	---	---	725.0	0.028	0.000	18.8	1	1
03/28/06	9:22 p	-21.8	-21.8	-21.8	---	---	12.2	SE	0.20	13.0	-33.3	---	---	725.1	0.028	0.000	18.8	1	1
03/28/06	9:23 p	-21.8	-21.8	-21.8	---	---	13.0	SE	0.22	13.0	-33.7	---	---	725.0	0.028	0.000	18.8	1	1
03/28/06	9:24 p	-21.8	-21.8	-21.9	---	---	13.0	SE	0.22	13.0	-33.7	---	---	725.0	0.028	0.000	18.8	1	1
03/28/06	9:25 p	-21.9	-21.8	-21.9	---	---	13.0	SE	0.22	13.0	-33.8	---	---	725.0	0.028	0.000	18.8	1	1
03/28/06	9:26 p	-21.8	-21.8	-21.9	---	---	13.0	SE	0.22	13.9	-33.7	---	---	725.0	0.028	0.000	18.8	1	1
03/28/06	9:27 p	-21.8	-21.8	-21.8	---	---	13.0	SE	0.22	13.9	-33.7	---	---	725.0	0.028	0.000	18.8	1	1
03/28/06	9:28 p	-21.8	-21.8	-21.9	---	---	13.0	SE	0.22	13.9	-33.7	---	---	725.1	0.028	0.000	18.8	1	1
03/28/06	9:29 p	-21.8	-21.8	-21.9	---	---	13.0	SE	0.22	13.0	-33.7	---	---	725.1	0.028	0.000	18.8	1	1
03/28/06	9:30 p	-21.8	-21.8	-21.8	---	---	12.2	SE	0.20	13.0	-33.3	---	---	725.0	0.028	0.000	18.8	1	1
03/28/06	9:31 p	-21.8	-21.8	-21.9	---	---	12.2	SE	0.20	13.0	-33.3	---	---	725.0	0.028	0.000	18.8	1	1
03/28/06	9:32 p	-21.8	-21.8	-21.9	---	---	12.2	SE	0.20	13.0	-33.3	---	---	725.1	0.028	0.000	18.8	1	1
03/28/06	9:33 p	-21.8	-21.8	-21.8	---	---	12.2	SE	0.20	13.0	-33.3	---	---	725.0	0.028	0.000	18.8	1	1
03/28/06	9:34 p	-21.8	-21.8	-21.9	---	---	12.2	SE	0.20	13.0	-33.3	---	---	725.1	0.028	0.000	18.8	1	1
03/28/06	9:35 p	-21.8	-21.8	-21.8	---	---	12.2	SE	0.20	13.0	-33.3	---	---	725.1	0.028	0.000	18.8	1	1
03/28/06	9:36 p	-21.8	-21.8	-21.9	---	---	12.2	SE	0.20	13.0	-33.3	---	---	725.1	0.028	0.000	18.8	1	1
03/28/06	9:37 p	-21.8	-21.8	-21.9	---	---	12.2	SE	0.20	13.0	-33.3	---	---	725.2	0.028	0.000	18.8	1	1
03/28/06	9:38 p	-21.8	-21.8	-21.9	---	---	12.2	SE	0.20	13.0	-33.3	---	---	725.2	0.028	0.000	18.8	1	1
03/28/06	9:39 p	-21.8	-21.8	-21.8	---	---	12.2	SE	0.20	12.2	-33.3	---	---	725.1	0.028	0.000	18.8	1	1
03/28/06	9:40 p	-21.8	-21.8	-21.9	---	---	11.3	SE	0.19	12.2	-32.9	---	---	725.0	0.028	0.000	18.8	1	1
03/28/06	9:41 p	-21.8	-21.8	-21.9	---	---	11.3	SE	0.19	11.3	-32.9	---	---	725.1	0.028	0.000	18.8	1	1
03/28/06	9:42 p	-21.8	-21.8	-21.8	---	---	11.3	SE	0.19	12.2	-32.9	---	---	725.0	0.028	0.000	18.8	1	1
03/28/06	9:43 p	-21.8	-21.8	-21.9	---	---	12.2	SE	0.20	12.2	-33.3	---	---	725.1	0.028	0.000	18.8	1	1
03/28/06	9:44 p	-21.9	-21.8	-21.9	---	---	12.2	SE	0.20	12.2	-33.4	---	---	725.2	0.028	0.000	18.8	1	1
03/28/06	9:45 p	-21.8	-21.8	-21.8	---	---	11.3	SE	0.19	12.2	-32.9	---	---	725.1	0.028	0.000	18.8	1	1
03/28/06	9:46 p	-21.8	-21.8	-21.8	---	---	11.3	SE	0.19	12.2	-32.9	---	---	725.1	0.028	0.000	18.8	1	1
03/28/06	9:47 p	-21.9	-21.8	-21.9	---	---	11.3	SE	0.19	12.2	-33.0	---	---	725.2	0.028	0.000	18.8	1	1
03/28/06	9:48 p	-21.8	-21.8	-21.9	---	---	11.3	SE	0.19	12.2	-32.9	---	---	725.1	0.028	0.000	18.8	1	1
03/28/06	9:49 p	-21.8	-21.8	-21.9	---	---	11.3	SE	0.19	12.2	-32.9	---	---	725.2	0.028	0.000	18.8	1	1
03/28/06	9:50 p	-21.8	-21.8	-21.8	---	---	11.3	SE	0.19	12.2	-32.9	---	---	725.2	0.028	0.000	18.8	1	1
03/28/06	9:51 p	-21.8	-21.8	-21.8	---	---	11.3	SE	0.19	12.2	-32.9	---	---	725.1	0.028	0.000	18.8	1	1
03/28/06	9:52 p	-21.8	-21.8	-21.9	---	---	11.3	SE	0.19	12.2	-32.9	---	---	725.1	0.028	0.000	18.8	1	1
03/28/06	9:53 p	-21.8	-21.8	-21.8	---	---	10.4	SE	0.17	11.3	-32.5	---	---	725.2	0.028	0.000	18.8	1	1
03/28/06	9:54 p	-21.8	-21.8	-21.8	---	---	11.3	SE	0.19	12.2	-32.9	---	---	725.2	0.028	0.000	18.8	1	1
03/28/06	9:55 p	-21.8	-21.8	-21.8	---	---	10.4	SE	0.17	12.2	-32.5	---	---	725.2	0.028	0.000	18.8	1	1
03/28/06	9:56 p	-21.8	-21.8	-21.8	---	---	11.3	SE	0.19	12.2	-32.9	---	---	725.2	0.028	0.000	18.8	1	1
03/28/06	9:57 p	-21.8	-21.8	-21.8	---	---	11.3	SE	0.19	12.2	-32.9	---	---	725.2	0.028	0.000	18.8	1	1
03/28/06	9:58 p	-21.8	-21.8	-21.8	---	---	11.3	SE	0.19	12.2	-32.9	---	---	725.2	0.028	0.000	18.8	1	1
03/28/06	9:59 p	-21.8	-21.8	-21.8	---	---	11.3	SE	0.19	12.2	-32.9	---	---	725.2	0.028	0.000	18.8	1	1
03/28/06	10:00 p	-21.8	-21.8	-21.8	---	---	11.3	SE	0.19	12.2	-32.9	---	---	725.2	0.028	0.000	18.8	1	1
03/28/06	10:01 p	-21.8	-21.8	-21.8	---	---	11.3	SE	0.19	11.3	-32.9	---	---	725.3	0.028	0.000	18.8	1	1
03/28/06	10:02 p	-21.8	-21.8	-21.8	---	---	11.3	SE	0.19	12.2	-32.9	---	---	725.2	0.028	0.000	18.8	1	1
03/28/06	10:03 p	-21.8	-21.8	-21.8	---	---	10.4	SE	0.17	11.3	-32.4	---	---	725.2	0.028	0.000	18.8	1	1
03/28/06	10:04 p	-21.8	-21.7	-21.8	---	---	10.4	SE	0.17	11.3	-32.4	---	---	725.3	0.028	0.000	18.8	1	1
03/28/06	10:05 p	-21.8	-21.7	-21.8	---	---	11.3	SE	0.19	11.3	-32.9	---	---	725.3	0.028	0.000	18.8	1	1
03/28/06	10:06 p	-21.7	-21.7	-21.7	---	---	9.6	ESE	0.16	10.4	-31.9	---	---	725.3	0.028	0.000	18.8	1	1
03/28/06	10:07 p	-21.7	-21.7	-21.7	---	---	10.4	ESE	0.17	11.3	-32.4	---	---	725.3	0.028	0.000	18.8	1	1
03/28/06	10:08 p	-21.7	-21.7	-21.7	---	---	10.4	ESE	0.17	10.4	-32.4	---	---	725.4	0.028	0.000	18.8	1	1
03/28/06	10:09 p	-21.7	-21.7	-21.8	---	---	10.4	ESE	0.17	11.3	-32.4	---	---	725.3	0.028	0.000	18.8	1	1
03/28/06	10:10 p	-21.7	-21.7	-21.7	---	---	10.4	ESE	0.17	11.3	-32.4	---	---	725.3	0.028	0.000	18.8	1	1
03/28/06	10:11 p	-21.7	-21.7	-21.7	---	---	9.6	ESE	0.16	10.4	-31.9	---	---	725.3	0.028	0.000	18.8	1	1
03/28/06	10:12 p	-21.7	-21.7	-21.8	---	---	10.4	ESE	0.17	10.4	-32.4	---	---	725.3	0.028	0.000	18.8	1	1
03/28/06	10:13 p	-21.7	-21.7	-21.7	---	---	10.4	ESE	0.17	11.3	-32.4	---	---	725.3	0.028	0.000	18.8	1	1
03/28/06	10:14 p	-21.7	-21.7	-21.7	---	---	10.4	ESE	0.17	11.3	-32.4	---	---	725.3	0.028	0.000	18.8	1	1
03/28/06	10:15 p	-21.7	-21.7	-21.7	---	---	10.4	ESE	0.17	12.2	-32.4	---	---	725.3	0.028	0.000	18.8	1	1
03/28/06	10:16 p	-21.7	-21.7	-21.7	---	---	9.6	ESE	0.16	10.4	-31.9	---	---	725.4	0.028	0.000	18.8	1	1
03/28/06	10:17 p	-21.7	-21.7	-21.7	---	---	9.6	ESE	0.16	10.4	-31.9	---	---	725.3	0.028	0.000	18.8	1	1
03/28/06	10:18 p	-21.7	-21.7	-21.7	---	---	9.6	ESE	0.16	10.4	-31.9	---	---	725.2	0.028	0.000	18.9	1	1
03/28/06	10:19 p	-21.7	-21.7	-21.7	---	---	10.4	ESE	0.17	10.4	-32.4	---	---	725.3	0.028	0.000	18.9	1	1
03/28/06	10:20 p	-21.7	-21.7	-21.7	---	---	9.6	ESE	0.16	10.4	-31.9	---	---	725.3	0.028	0.000	18.9	1	1
03/28/06	10:21 p	-21.7	-21.7	-21.7	---	---	10.4	ESE	0.17	11.3	-32.4	---	---	725.3	0.028	0.000	18.9	1	1
03/28/06	10:22 p	-21.7	-21.7	-21.7	---	---	10.4	ESE	0.17	11.3	-32.4	---	---	725.2	0.028	0.000	18.9	1	1
03/28/06	10:23 p	-21.7	-21.7	-21.7	---	---	9.6	ESE	0.16	10.4	-31.9	---	---	725.3	0.028	0.000	18.9	1	1
03/28/06	10:24 p	-21.7	-21.7	-21.7	---	---	10.4	ESE	0.17	10.4	-32.4	---	---	725.2	0.028	0.000	18.9	1	1
03/28/06	10:25 p	-21.7	-21.7	-21.7	---	---	9.6	ESE	0.16	10.4	-31.9	---	---	725.2	0.028	0.000	18.9	1	1
03/28/06	10:26 p	-21.7	-21.7	-21.7	---	---	9.6	ESE	0.16	9.6	-31.9	---	---	725.3	0.028	0.000	18.9	1	1
03/28/06	10:27 p	-21.7	-21.7	-21.7	---	---	9.6	ESE	0.16	10.4	-31.9	---	---	725.3	0.028	0.000	18.9	1	1
03/28/06	10:28 p	-21.7	-21.7	-21.7	---	---	8.7	ESE	0.14	9.6	-31.4	---	---	725.3	0.028	0.000	18.9	1	1
03/28/06	10:29 p	-21.7	-21.7	-21.7	---	---	8.7	ESE	0.14	9.6	-31.4	---	---	725.3	0.028	0.000	18.9	1	1
03/28/06	10:30 p	-21.7	-21.7	-21.7	---	---	8.7	ESE	0.14	9.6	-31.4	---	---	725.3	0.028	0.000	18.9	1	1
03/28/06	10:31 p	-21.7	-21.7	-21.7	---	---	8.7	ESE	0.14	10.4	-31.4	---	---	725.3	0.028	0.000	18.9	1	1
03/28/06	10:32 p	-21.7	-21.7	-21.7	---	---	8.7	ESE	0.14	9.6	-31.4	---	---	725.3	0.028	0.000	18.8	1	1
03/28/06	10:33 p	-21.7	-21.7	-21.7	---	---	8.7	ESE	0.14	9.6	-31.4	---	---	725.3	0.028	0.000	18.8	1	1
03/28/06	10:34 p	-21.7	-21.7	-21.7	---	---	8.7	ESE	0.14	9.6	-31.4	---	---	725.3	0.028	0.000	18.8	1	1
03/28/06	10:35 p	-21.7	-21.7	-21.7	---	---	7.8	ESE	0.13	8.7	-30.9	---	---	725.4	0.028	0.000	18.8	1	1
03/28/06	10:36 p	-21.7	-21.7	-21.7	---	---	7.8	ESE	0.13	8.7	-30.9	---	---	725.4	0.028	0.000	18.8	1	1
03/28/06	10:37 p	-21.7	-21.7	-21.7	---	---	7.8	ESE	0.13	8.7	-30.9	---	---	725.4	0.028	0.000	18.8	1	1
03/28/06	10:38 p	-21.7	-21.7	-21.7	---	---	7.8	ESE	0.13	8.7	-30.9	---	---	725.4	0.028	0.000	18.8	1	1
03/28/06	10:39 p	-21.7	-21.7	-21.7	---	---	7.8	E	0.13	8.7	-30.9	---	---	725.3	0.028	0.000	18.8	1	1
03/28/06	10:40 p	-21.7	-21.7	-21.7	---	---	7.8	E	0.13	9.6	-30.9	---	---	725.3	0.028	0.000	18.8	1	1
03/28/06	10:41 p	-21.7	-21.7	-21.7	---	---	8.7	ESE	0.14	9.6	-31.4	---	---	725.3	0.028	0.000	18.8	1	1
03/28/06	10:42 p	-21.7	-21.7	-21.7	---	---	8.7	ESE	0.14	9.6	-31.4	---	---	725.3	0.028	0.000	18.8	1	1
03/28/06	10:43 p	-21.7	-21.7	-21.7	---	---	8.7	ESE	0.14	9.6	-31.4	---	---	725.4	0.028	0.000	18.8	1	1
03/28/06	10:44 p	-21.7	-21.6	-21.7	---	---	8.7	ESE	0.14	9.6	-31.4	---	---	725.3	0.028	0.000	18.8	1	1
03/28/06	10:45 p	-21.6	-21.6	-21.7	---	---	8.7	ESE	0.14	9.6	-31.3	---	---	725.4	0.028	0.000	18.8	1	1
03/28/06	10:46 p	-21.6	-21.5	-21.6	---	---	8.7	ESE	0.14	9.6	-31.3	---	---	725.3	0.028	0.000	18.8	1	1
03/28/06	10:47 p	-21.5	-21.4	-21.5	---	---	7.8	E	0.13	8.7	-30.7	---	---	725.3	0.028	0.000	18.8	1	1
03/28/06	10:48 p	-21.4	-21.4	-21.5	---	---	7.0	E	0.12	8.7	-30.1	---	---	725.3	0.028	0.000	18.8	1	1
03/28/06	10:49 p	-21.4	-21.4	-21.4	---	---	6.1	E	0.10	8.7	-29.3	---	---	725.3	0.028	0.000	18.8	1	1
03/28/06	10:50 p	-21.4	-21.4	-21.4	---	---	7.0	E	0.12	7.8	-29.9	---	---	725.3	0.028	0.000	18.8	1	1
03/28/06	10:51 p	-21.3	-21.3	-21.3	---	---	7.0	E	0.12	8.7	-29.9	---	---	725.3	0.028	0.000	18.8	1	1
03/28/06	10:52 p	-21.3	-21.3	-21.3	---	---	7.0	E	0.12	7.8	-29.9	---	---	725.3	0.028	0.000	18.8	1	1
03/28/06	10:53 p	-21.3	-21.3	-21.3	---	---	6.1	E	0.10	7.8	-29.3	---	---	725.3	0.028	0.000	18.8	1	1
03/28/06	10:54 p	-21.3	-21.3	-21.3	---	---	6.1	E	0.10	7.8	-29.2	---	---	725.3	0.028	0.000	18.8	1	1
03/28/06	10:55 p	-21.2	-21.2	-21.3	---	---	5.2	E	0.09	7.0	-28.4	---	---	725.3	0.027	0.000	18.8	1	1
03/28/06	10:56 p	-21.2	-21.2	-21.2	---	---	5.2	E	0.09	7.0	-28.3	---	---	725.4	0.027	0.000	18.8	1	1
03/28/06	10:57 p	-21.1	-21.1	-21.2	---	---	5.2	E	0.09	7.0	-28.3	---	---	725.4	0.027	0.000	18.8	1	1
03/28/06	10:58 p	-21.1	-21.1	-21.1	---	---	5.2	E	0.09	6.1	-28.2	---	---	725.4	0.027	0.000	18.8	1	1
03/28/06	10:59 p	-21.1	-21.0	-21.1	---	---	5.2	E	0.09	7.0	-28.2	---	---	725.4	0.027	0.000	18.8	1	1
03/28/06	11:00 p	-21.0	-20.9	-21.0	---	---	5.2	E	0.09	6.1	-28.2	---	---	725.5	0.027	0.000	18.8	1	1
03/28/06	11:01 p	-20.9	-20.9	-20.9	---	---	4.3	E	0.07	5.2	-27.3	---	---	725.4	0.027	0.000	18.9	1	1
03/28/06	11:02 p	-20.9	-20.8	-20.9	---	---	4.3	E	0.07	5.2	-27.2	---	---	725.5	0.027	0.000	18.8	1	1
03/28/06	11:03 p	-20.8	-20.7	-20.8	---	---	3.5	E	0.06	5.2	-26.1	---	---	725.6	0.027	0.000	18.8	1	1
03/28/06	11:04 p	-20.7	-20.7	-20.8	---	---	5.2	E	0.09	6.1	-27.8	---	---	725.5	0.027	0.000	18.8	1	1
03/28/06	11:05 p	-20.7	-20.6	-20.7	---	---	5.2	E	0.09	6.1	-27.8	---	---	725.5	0.027	0.000	18.9	1	1
03/28/06	11:06 p	-20.6	-20.6	-20.6	---	---	5.2	E	0.09	7.0	-27.7	---	---	725.4	0.027	0.000	18.9	1	1
03/28/06	11:07 p	-20.6	-20.4	-20.6	---	---	4.3	E	0.07	6.1	-26.8	---	---	725.4	0.027	0.000	18.8	1	1
03/28/06	11:08 p	-20.4	-20.4	-20.4	---	---	3.5	E	0.06	5.2	-25.7	---	---	725.4	0.027	0.000	18.9	1	1
03/28/06	11:09 p	-20.4	-20.4	-20.4	---	---	4.3	E	0.07	5.2	-26.6	---	---	725.4	0.027	0.000	18.9	1	1
03/28/06	11:10 p	-20.3	-20.3	-20.4	---	---	4.3	E	0.07	6.1	-26.6	---	---	725.4	0.027	0.000	18.9	1	1
03/28/06	11:11 p	-20.3	-20.2	-20.3	---	---	5.2	E	0.09	6.1	-27.3	---	---	725.5	0.027	0.000	18.9	1	1
03/28/06	11:12 p	-20.2	-20.2	-20.2	---	---	4.3	E	0.07	6.1	-26.4	---	---	725.4	0.027	0.000	18.9	1	1
03/28/06	11:13 p	-20.1	-20.1	-20.1	---	---	4.3	E	0.07	5.2	-26.3	---	---	725.3	0.027	0.000	18.9	1	1
03/28/06	11:14 p	-20.1	-20.0	-20.1	---	---	4.3	E	0.07	5.2	-26.2	---	---	725.4	0.027	0.000	18.9	1	1
03/28/06	11:15 p	-20.0	-19.9	-20.0	---	---	4.3	E	0.07	5.2	-26.2	---	---	725.4	0.027	0.000	18.9	1	1
03/28/06	11:16 p	-19.9	-19.9	-19.9	---	---	4.3	E	0.07	5.2	-26.1	---	---	725.4	0.027	0.000	18.9	1	1
03/28/06	11:17 p	-19.8	-19.8	-19.8	---	---	4.3	E	0.07	5.2	-26.0	---	---	725.4	0.027	0.000	18.9	1	1
03/28/06	11:18 p	-19.7	-19.7	-19.8	---	---	4.3	E	0.07	5.2	-25.8	---	---	725.4	0.026	0.000	18.9	1	1
03/28/06	11:19 p	-19.6	-19.6	-19.7	---	---	4.3	E	0.07	5.2	-25.7	---	---	725.4	0.026	0.000	18.9	1	1
03/28/06	11:20 p	-19.6	-19.5	-19.6	---	---	4.3	E	0.07	5.2	-25.7	---	---	725.4	0.026	0.000	18.9	1	1
03/28/06	11:21 p	-19.5	-19.4	-19.5	---	---	4.3	E	0.07	5.2	-25.6	---	---	725.4	0.026	0.000	18.9	1	1
03/28/06	11:22 p	-19.4	-19.4	-19.4	---	---	4.3	E	0.07	5.2	-25.5	---	---	725.4	0.026	0.000	18.9	1	1
03/28/06	11:23 p	-19.3	-19.3	-19.4	---	---	5.2	E	0.09	6.1	-26.2	---	---	725.4	0.026	0.000	18.9	1	1
03/28/06	11:24 p	-19.3	-19.2	-19.3	---	---	5.2	E	0.09	6.1	-26.1	---	---	725.4	0.026	0.000	18.9	1	1
03/28/06	11:25 p	-19.2	-19.1	-19.2	---	---	5.2	E	0.09	6.1	-26.0	---	---	725.5	0.026	0.000	18.9	1	1
03/28/06	11:26 p	-19.1	-19.1	-19.1	---	---	5.2	E	0.09	6.1	-25.9	---	---	725.5	0.026	0.000	18.9	1	1
03/28/06	11:27 p	-19.0	-19.0	-19.1	---	---	5.2	E	0.09	6.1	-25.8	---	---	725.4	0.026	0.000	18.9	1	1
03/28/06	11:28 p	-18.9	-18.9	-19.0	---	---	5.2	E	0.09	6.1	-25.7	---	---	725.5	0.026	0.000	18.9	1	1
03/28/06	11:29 p	-18.9	-18.9	-18.9	---	---	6.1	E	0.10	6.1	-26.3	---	---	725.5	0.026	0.000	18.9	1	1
03/28/06	11:30 p	-18.8	-18.8	-18.9	---	---	6.1	E	0.10	7.0	-26.3	---	---	725.5	0.026	0.000	18.9	1	1
03/28/06	11:31 p	-18.8	-18.7	-18.8	---	---	5.2	E	0.09	6.1	-25.5	---	---	725.4	0.026	0.000	18.9	1	1
03/28/06	11:32 p	-18.7	-18.6	-18.7	---	---	6.1	E	0.10	7.0	-26.1	---	---	725.5	0.026	0.000	18.9	1	1
03/28/06	11:33 p	-18.6	-18.6	-18.7	---	---	6.1	E	0.10	7.0	-26.0	---	---	725.5	0.026	0.000	18.9	1	1
03/28/06	11:34 p	-18.6	-18.5	-18.6	---	---	5.2	E	0.09	6.1	-25.2	---	---	725.6	0.026	0.000	18.9	1	1
03/28/06	11:35 p	-18.5	-18.4	-18.5	---	---	5.2	E	0.09	7.0	-25.2	---	---	725.5	0.026	0.000	18.9	1	1
03/28/06	11:36 p	-18.4	-18.4	-18.4	---	---	6.1	E	0.10	7.0	-25.8	---	---	725.4	0.026	0.000	18.9	1	1
03/28/06	11:37 p	-18.3	-18.3	-18.3	---	---	5.2	E	0.09	7.0	-25.0	---	---	725.5	0.025	0.000	18.9	1	1
03/28/06	11:38 p	-18.3	-18.3	-18.3	---	---	6.1	E	0.10	7.0	-25.6	---	---	725.4	0.025	0.000	18.9	1	1
03/28/06	11:39 p	-18.2	-18.2	-18.3	---	---	5.2	E	0.09	7.0	-24.8	---	---	725.5	0.025	0.000	18.9	1	1
03/28/06	11:40 p	-18.2	-18.2	-18.2	---	---	6.1	E	0.10	6.1	-25.4	---	---	725.5	0.025	0.000	18.9	1	1
03/28/06	11:41 p	-18.1	-18.1	-18.2	---	---	5.2	E	0.09	7.0	-24.7	---	---	725.4	0.025	0.000	18.9	1	1
03/28/06	11:42 p	-18.1	-18.0	-18.1	---	---	6.1	E	0.10	7.0	-25.3	---	---	725.5	0.025	0.000	18.9	1	1
03/28/06	11:43 p	-17.9	-17.9	-18.0	---	---	6.1	E	0.10	7.0	-25.2	---	---	725.4	0.025	0.000	18.9	1	1
03/28/06	11:44 p	-17.9	-17.9	-17.9	---	---	5.2	E	0.09	6.1	-24.4	---	---	725.5	0.025	0.000	18.9	1	1
03/28/06	11:45 p	-17.8	-17.8	-17.8	---	---	5.2	E	0.09	6.1	-24.4	---	---	725.6	0.025	0.000	18.9	1	1
03/28/06	11:46 p	-17.8	-17.7	-17.8	---	---	5.2	E	0.09	7.0	-24.3	---	---	725.5	0.025	0.000	18.9	1	1
03/28/06	11:47 p	-17.7	-17.6	-17.7	---	---	6.1	E	0.10	7.0	-24.8	---	---	725.5	0.025	0.000	18.9	1	1
03/28/06	11:48 p	-17.6	-17.6	-17.6	---	---	6.1	E	0.10	7.0	-24.7	---	---	725.4	0.025	0.000	18.9	1	1
03/28/06	11:49 p	-17.5	-17.5	-17.6	---	---	6.1	E	0.10	7.0	-24.7	---	---	725.5	0.025	0.000	18.9	1	1
03/28/06	11:50 p	-17.4	-17.4	-17.5	---	---	5.2	ESE	0.09	6.1	-23.9	---	---	725.5	0.025	0.000	18.9	1	1
03/28/06	11:51 p	-17.4	-17.4	-17.4	---	---	5.2	E	0.09	6.1	-23.8	---	---	725.5	0.025	0.000	18.9	1	1
03/28/06	11:52 p	-17.3	-17.3	-17.3	---	---	4.3	E	0.07	6.1	-23.1	---	---	725.4	0.025	0.000	18.9	1	1
03/28/06	11:53 p	-17.3	-17.2	-17.3	---	---	5.2	E	0.09	6.1	-23.7	---	---	725.4	0.025	0.000	18.9	1	1
03/28/06	11:54 p	-17.2	-17.2	-17.2	---	---	5.2	E	0.09	6.1	-23.6	---	---	725.4	0.025	0.000	18.9	1	1
03/28/06	11:55 p	-17.2	-17.1	-17.2	---	---	4.3	E	0.07	6.1	-22.8	---	---	725.5	0.025	0.000	18.9	1	1
03/28/06	11:56 p	-17.1	-17.1	-17.1	---	---	4.3	E	0.07	6.1	-22.7	---	---	725.5	0.025	0.000	18.9	1	1
03/28/06	11:57 p	-17.0	-17.0	-17.0	---	---	4.3	E	0.07	5.2	-22.7	---	---	725.4	0.025	0.000	18.9	1	1
03/28/06	11:58 p	-16.9	-16.9	-16.9	---	---	5.2	E	0.09	6.1	-23.3	---	---	725.4	0.024	0.000	18.9	1	1
03/28/06	11:59 p	-16.9	-16.8	-16.9	---	---	5.2	E	0.09	6.1	-23.3	---	---	725.6	0.024	0.000	18.9	1	1
03/29/06	12:00 a	-16.8	-16.8	-16.8	---	---	5.2	E	0.09	6.1	-23.2	---	---	725.5	0.024	0.000	18.9	1	1
03/29/06	12:01 a	-16.8	-16.7	-16.8	---	---	5.2	E	0.09	6.1	-23.1	---	---	725.5	0.024	0.000	18.9	1	1
03/29/06	12:02 a	-16.7	-16.7	-16.7	---	---	6.1	E	0.10	7.0	-23.7	---	---	725.6	0.024	0.000	18.9	1	1
03/29/06	12:03 a	-16.7	-16.6	-16.7	---	---	5.2	E	0.09	6.1	-23.0	---	---	725.5	0.024	0.000	18.9	1	1
03/29/06	12:04 a	-16.6	-16.6	-16.6	---	---	5.2	E	0.09	6.1	-22.9	---	---	725.4	0.024	0.000	18.9	1	1
03/29/06	12:05 a	-16.6	-16.6	-16.6	---	---	5.2	E	0.09	7.0	-22.9	---	---	725.5	0.024	0.000	18.9	1	1
03/29/06	12:06 a	-16.5	-16.5	-16.6	---	---	5.2	E	0.09	7.0	-22.8	---	---	725.5	0.024	0.000	18.9	1	1
03/29/06	12:07 a	-16.4	-16.4	-16.4	---	---	7.0	E	0.12	7.0	-23.9	---	---	725.5	0.024	0.000	18.9	1	1
03/29/06	12:08 a	-16.4	-16.4	-16.4	---	---	6.1	E	0.10	7.0	-23.3	---	---	725.5	0.024	0.000	18.9	1	1
03/29/06	12:09 a	-16.4	-16.3	-16.4	---	---	5.2	E	0.09	7.0	-22.7	---	---	725.5	0.024	0.000	18.9	1	1
03/29/06	12:10 a	-16.3	-16.3	-16.3	---	---	4.3	E	0.07	6.1	-21.9	---	---	725.5	0.024	0.000	19.0	1	1
03/29/06	12:11 a	-16.3	-16.3	-16.3	---	---	5.2	E	0.09	7.0	-22.6	---	---	725.5	0.024	0.000	19.0	1	1
03/29/06	12:12 a	-16.3	-16.2	-16.3	---	---	5.2	E	0.09	7.0	-22.6	---	---	725.5	0.024	0.000	19.0	1	1
03/29/06	12:13 a	-16.2	-16.2	-16.2	---	---	6.1	E	0.10	7.0	-23.1	---	---	725.4	0.024	0.000	18.9	1	1
03/29/06	12:14 a	-16.1	-16.1	-16.2	---	---	6.1	E	0.10	7.0	-23.0	---	---	725.5	0.024	0.000	19.0	1	1
03/29/06	12:15 a	-16.1	-16.1	-16.1	---	---	5.2	E	0.09	6.1	-22.3	---	---	725.5	0.024	0.000	19.0	1	1
03/29/06	12:16 a	-16.1	-16.0	-16.1	---	---	5.2	E	0.09	6.1	-22.3	---	---	725.5	0.024	0.000	19.0	1	1
03/29/06	12:17 a	-16.0	-15.9	-16.0	---	---	6.1	ENE	0.10	7.0	-22.8	---	---	725.5	0.024	0.000	19.0	1	1
03/29/06	12:18 a	-15.9	-15.9	-15.9	---	---	6.1	ENE	0.10	6.1	-22.8	---	---	725.5	0.024	0.000	19.0	1	1
03/29/06	12:19 a	-15.8	-15.8	-15.9	---	---	5.2	ENE	0.09	6.1	-22.0	---	---	725.5	0.024	0.000	19.0	1	1
03/29/06	12:20 a	-15.8	-15.8	-15.8	---	---	5.2	ENE	0.09	6.1	-22.0	---	---	725.5	0.024	0.000	19.0	1	1
03/29/06	12:21 a	-15.8	-15.7	-15.8	---	---	5.2	ENE	0.09	6.1	-21.9	---	---	725.5	0.024	0.000	19.0	1	1
03/29/06	12:22 a	-15.7	-15.7	-15.7	---	---	5.2	ENE	0.09	6.1	-21.8	---	---	725.5	0.024	0.000	19.0	1	1
03/29/06	12:23 a	-15.6	-15.6	-15.7	---	---	5.2	ENE	0.09	6.1	-21.7	---	---	725.5	0.024	0.000	19.0	1	1
03/29/06	12:24 a	-15.6	-15.6	-15.6	---	---	5.2	ENE	0.09	6.1	-21.7	---	---	725.5	0.024	0.000	19.1	1	1
03/29/06	12:25 a	-15.6	-15.6	-15.6	---	---	5.2	ENE	0.09	6.1	-21.7	---	---	725.5	0.024	0.000	19.0	1	1
03/29/06	12:26 a	-15.5	-15.5	-15.5	---	---	5.2	ENE	0.09	5.2	-21.6	---	---	725.4	0.023	0.000	19.0	1	1
03/29/06	12:27 a	-15.5	-15.4	-15.5	---	---	5.2	ENE	0.09	5.2	-21.6	---	---	725.4	0.023	0.000	19.1	1	1
03/29/06	12:28 a	-15.4	-15.4	-15.4	---	---	4.3	ENE	0.07	5.2	-20.8	---	---	725.4	0.023	0.000	19.1	1	1
03/29/06	12:29 a	-15.4	-15.4	-15.4	---	---	4.3	ENE	0.07	6.1	-20.8	---	---	725.5	0.023	0.000	19.1	1	1
03/29/06	12:30 a	-15.3	-15.3	-15.3	---	---	4.3	ENE	0.07	5.2	-20.7	---	---	725.5	0.023	0.000	19.1	1	1
03/29/06	12:31 a	-15.3	-15.3	-15.3	---	---	5.2	ENE	0.09	6.1	-21.4	---	---	725.5	0.023	0.000	19.1	1	1
03/29/06	12:32 a	-15.3	-15.3	-15.3	---	---	4.3	ENE	0.07	5.2	-20.6	---	---	725.4	0.023	0.000	19.1	1	1
03/29/06	12:33 a	-15.2	-15.2	-15.3	---	---	4.3	ENE	0.07	5.2	-20.6	---	---	725.4	0.023	0.000	19.0	1	1
03/29/06	12:34 a	-15.2	-15.2	-15.2	---	---	5.2	ENE	0.09	6.1	-21.3	---	---	725.5	0.023	0.000	19.0	1	1
03/29/06	12:35 a	-15.2	-15.1	-15.2	---	---	4.3	ENE	0.07	5.2	-20.5	---	---	725.6	0.023	0.000	19.0	1	1
03/29/06	12:36 a	-15.1	-15.1	-15.1	---	---	4.3	ENE	0.07	5.2	-20.4	---	---	725.6	0.023	0.000	19.1	1	1
03/29/06	12:37 a	-15.1	-15.1	-15.1	---	---	4.3	ENE	0.07	5.2	-20.4	---	---	725.5	0.023	0.000	19.0	1	1
03/29/06	12:38 a	-15.0	-15.0	-15.0	---	---	4.3	ENE	0.07	4.3	-20.3	---	---	725.5	0.023	0.000	19.0	1	1
03/29/06	12:39 a	-14.9	-14.9	-14.9	---	---	4.3	ENE	0.07	4.3	-20.2	---	---	725.5	0.023	0.000	19.0	1	1
03/29/06	12:40 a	-14.9	-14.9	-14.9	---	---	4.3	ENE	0.07	4.3	-20.2	---	---	725.5	0.023	0.000	19.0	1	1
03/29/06	12:41 a	-14.9	-14.8	-14.9	---	---	4.3	ENE	0.07	4.3	-20.2	---	---	725.5	0.023	0.000	19.0	1	1
03/29/06	12:42 a	-14.8	-14.8	-14.8	---	---	3.5	ENE	0.06	4.3	-19.3	---	---	725.5	0.023	0.000	19.0	1	1
03/29/06	12:43 a	-14.8	-14.7	-14.8	---	---	4.3	ENE	0.07	5.2	-20.1	---	---	725.5	0.023	0.000	19.0	1	1
03/29/06	12:44 a	-14.7	-14.7	-14.7	---	---	4.3	ENE	0.07	5.2	-19.9	---	---	725.5	0.023	0.000	19.0	1	1
03/29/06	12:45 a	-14.7	-14.7	-14.7	---	---	5.2	ENE	0.09	6.1	-20.6	---	---	725.5	0.023	0.000	19.0	1	1
03/29/06	12:46 a	-14.6	-14.6	-14.7	---	---	5.2	ENE	0.09	5.2	-20.6	---	---	725.5	0.023	0.000	19.0	1	1
03/29/06	12:47 a	-14.6	-14.6	-14.6	---	---	5.2	ENE	0.09	5.2	-20.6	---	---	725.5	0.023	0.000	19.0	1	1
03/29/06	12:48 a	-14.6	-14.6	-14.6	---	---	5.2	ENE	0.09	5.2	-20.5	---	---	725.5	0.023	0.000	19.0	1	1
03/29/06	12:49 a	-14.6	-14.6	-14.6	---	---	5.2	ENE	0.09	6.1	-20.5	---	---	725.4	0.023	0.000	19.1	1	1
03/29/06	12:50 a	-14.5	-14.5	-14.6	---	---	5.2	ENE	0.09	6.1	-20.4	---	---	725.5	0.023	0.000	19.1	1	1
03/29/06	12:51 a	-14.5	-14.5	-14.5	---	---	5.2	ENE	0.09	6.1	-20.4	---	---	725.5	0.023	0.000	19.1	1	1
03/29/06	12:52 a	-14.5	-14.5	-14.5	---	---	5.2	ENE	0.09	6.1	-20.4	---	---	725.5	0.023	0.000	19.1	1	1
03/29/06	12:53 a	-14.4	-14.4	-14.4	---	---	6.1	ENE	0.10	7.0	-20.9	---	---	725.4	0.023	0.000	19.1	1	1
03/29/06	12:54 a	-14.4	-14.4	-14.4	---	---	6.1	ENE	0.10	7.0	-20.9	---	---	725.5	0.023	0.000	19.1	1	1
03/29/06	12:55 a	-14.4	-14.4	-14.4	---	---	6.1	ENE	0.10	7.0	-20.9	---	---	725.4	0.023	0.000	19.1	1	1
03/29/06	12:56 a	-14.4	-14.3	-14.4	---	---	6.1	ENE	0.10	7.0	-20.9	---	---	725.4	0.023	0.000	19.1	1	1
03/29/06	12:57 a	-14.3	-14.3	-14.3	---	---	6.1	ENE	0.10	7.0	-20.8	---	---	725.5	0.023	0.000	19.1	1	1
03/29/06	12:58 a	-14.3	-14.3	-14.3	---	---	6.1	ENE	0.10	7.0	-20.8	---	---	725.5	0.023	0.000	19.1	1	1
03/29/06	12:59 a	-14.2	-14.2	-14.3	---	---	6.1	ENE	0.10	7.0	-20.7	---	---	725.5	0.023	0.000	19.1	1	1
03/29/06	1:00 a	-14.2	-14.2	-14.2	---	---	6.1	ENE	0.10	7.0	-20.7	---	---	725.4	0.023	0.000	19.1	1	1
03/29/06	1:01 a	-14.2	-14.2	-14.2	---	---	6.1	ENE	0.10	7.0	-20.6	---	---	725.4	0.023	0.000	19.1	1	1
03/29/06	1:02 a	-14.2	-14.1	-14.2	---	---	6.1	ENE	0.10	7.0	-20.6	---	---	725.4	0.023	0.000	19.1	1	1
03/29/06	1:03 a	-14.1	-14.1	-14.1	---	---	6.1	ENE	0.10	7.0	-20.6	---	---	725.4	0.023	0.000	19.1	1	1
03/29/06	1:04 a	-14.1	-14.1	-14.1	---	---	6.1	ENE	0.10	7.0	-20.5	---	---	725.4	0.022	0.000	19.1	1	1
03/29/06	1:05 a	-14.1	-14.1	-14.1	---	---	6.1	ENE	0.10	6.1	-20.5	---	---	725.4	0.022	0.000	19.1	1	1
03/29/06	1:06 a	-14.0	-14.0	-14.0	---	---	5.2	ENE	0.09	6.1	-19.8	---	---	725.4	0.022	0.000	19.1	1	1
03/29/06	1:07 a	-14.0	-13.9	-14.0	---	---	6.1	ENE	0.10	6.1	-20.4	---	---	725.5	0.022	0.000	19.1	1	1
03/29/06	1:08 a	-13.9	-13.9	-13.9	---	---	5.2	ENE	0.09	6.1	-19.8	---	---	725.4	0.022	0.000	19.1	1	1
03/29/06	1:09 a	-13.9	-13.9	-13.9	---	---	5.2	ENE	0.09	6.1	-19.7	---	---	725.4	0.022	0.000	19.1	1	1
03/29/06	1:10 a	-13.8	-13.8	-13.9	---	---	5.2	ENE	0.09	6.1	-19.6	---	---	725.5	0.022	0.000	19.1	1	1
03/29/06	1:11 a	-13.8	-13.8	-13.8	---	---	5.2	ENE	0.09	5.2	-19.6	---	---	725.4	0.022	0.000	19.2	1	1
03/29/06	1:12 a	-13.8	-13.7	-13.8	---	---	4.3	ENE	0.07	5.2	-18.9	---	---	725.4	0.022	0.000	19.2	1	1
03/29/06	1:13 a	-13.7	-13.7	-13.7	---	---	4.3	NE	0.07	5.2	-18.8	---	---	725.5	0.022	0.000	19.2	1	1
03/29/06	1:14 a	-13.7	-13.6	-13.7	---	---	4.3	NE	0.07	5.2	-18.7	---	---	725.4	0.022	0.000	19.2	1	1
03/29/06	1:15 a	-13.6	-13.6	-13.6	---	---	4.3	NE	0.07	5.2	-18.7	---	---	725.6	0.022	0.000	19.2	1	1
03/29/06	1:16 a	-13.5	-13.4	-13.6	---	---	4.3	NE	0.07	4.3	-18.6	---	---	725.4	0.022	0.000	19.2	1	1
03/29/06	1:17 a	-13.4	-13.4	-13.4	---	---	4.3	NE	0.07	4.3	-18.4	---	---	725.4	0.022	0.000	19.2	1	1
03/29/06	1:18 a	-13.4	-13.3	-13.4	---	---	4.3	NE	0.07	4.3	-18.4	---	---	725.5	0.022	0.000	19.2	1	1
03/29/06	1:19 a	-13.3	-13.3	-13.3	---	---	3.5	NE	0.06	4.3	-17.6	---	---	725.4	0.022	0.000	19.2	1	1
03/29/06	1:20 a	-13.3	-13.2	-13.3	---	---	3.5	NE	0.06	4.3	-17.5	---	---	725.4	0.022	0.000	19.2	1	1
03/29/06	1:21 a	-13.2	-13.2	-13.2	---	---	3.5	NE	0.06	4.3	-17.4	---	---	725.5	0.022	0.000	19.2	1	1
03/29/06	1:22 a	-13.2	-13.2	-13.2	---	---	3.5	NE	0.06	3.5	-17.4	---	---	725.5	0.022	0.000	19.1	1	1
03/29/06	1:23 a	-13.1	-13.1	-13.2	---	---	2.6	NE	0.04	3.5	-16.3	---	---	725.5	0.022	0.000	19.2	1	1
03/29/06	1:24 a	-13.0	-12.9	-13.1	---	---	2.6	NE	0.04	3.5	-16.2	---	---	725.5	0.022	0.000	19.2	1	1
03/29/06	1:25 a	-12.9	-12.9	-12.9	---	---	3.5	NE	0.06	3.5	-17.1	---	---	725.4	0.022	0.000	19.2	1	1
03/29/06	1:26 a	-12.8	-12.8	-12.9	---	---	3.5	NE	0.06	3.5	-17.0	---	---	725.6	0.022	0.000	19.2	1	1
03/29/06	1:27 a	-12.8	-12.8	-12.8	---	---	3.5	NE	0.06	4.3	-17.0	---	---	725.5	0.022	0.000	19.2	1	1
03/29/06	1:28 a	-12.7	-12.7	-12.8	---	---	4.3	NE	0.07	4.3	-17.7	---	---	725.6	0.022	0.000	19.2	1	1
03/29/06	1:29 a	-12.7	-12.7	-12.7	---	---	4.3	NE	0.07	4.3	-17.6	---	---	725.5	0.022	0.000	19.2	1	1
03/29/06	1:30 a	-12.6	-12.6	-12.7	---	---	4.3	NE	0.07	4.3	-17.6	---	---	725.6	0.021	0.000	19.2	1	1
03/29/06	1:31 a	-12.6	-12.6	-12.6	---	---	4.3	NE	0.07	4.3	-17.5	---	---	725.5	0.021	0.000	19.2	1	1
03/29/06	1:32 a	-12.5	-12.5	-12.5	---	---	4.3	NE	0.07	4.3	-17.4	---	---	725.5	0.021	0.000	19.2	1	1
03/29/06	1:33 a	-12.4	-12.4	-12.4	---	---	4.3	NE	0.07	4.3	-17.3	---	---	725.6	0.021	0.000	19.2	1	1
03/29/06	1:34 a	-12.4	-12.3	-12.4	---	---	3.5	NE	0.06	4.3	-16.5	---	---	725.6	0.021	0.000	19.2	1	1
03/29/06	1:35 a	-12.3	-12.3	-12.3	---	---	3.5	NE	0.06	3.5	-16.4	---	---	725.6	0.021	0.000	19.2	1	1
03/29/06	1:36 a	-12.3	-12.2	-12.3	---	---	3.5	NE	0.06	3.5	-16.4	---	---	725.5	0.021	0.000	19.2	1	1
03/29/06	1:37 a	-12.2	-12.2	-12.2	---	---	3.5	NE	0.06	4.3	-16.3	---	---	725.6	0.021	0.000	19.2	1	1
03/29/06	1:38 a	-12.2	-12.1	-12.2	---	---	2.6	NE	0.04	3.5	-15.3	---	---	725.6	0.021	0.000	19.2	1	1
03/29/06	1:39 a	-12.1	-12.1	-12.1	---	---	2.6	NE	0.04	3.5	-15.2	---	---	725.7	0.021	0.000	19.2	1	1
03/29/06	1:40 a	-12.1	-12.1	-12.1	---	---	2.6	NE	0.04	2.6	-15.1	---	---	725.6	0.021	0.000	19.2	1	1
03/29/06	1:41 a	-12.1	-12.1	-12.1	---	---	2.6	NE	0.04	2.6	-15.1	---	---	725.6	0.021	0.000	19.2	1	1
03/29/06	1:42 a	-12.1	-12.0	-12.1	---	---	2.6	NE	0.04	3.5	-15.1	---	---	725.6	0.021	0.000	19.2	1	1
03/29/06	1:43 a	-12.0	-12.0	-12.0	---	---	3.5	NE	0.06	3.5	-16.1	---	---	725.5	0.021	0.000	19.2	1	1
03/29/06	1:44 a	-12.0	-11.9	-12.0	---	---	2.6	NE	0.04	3.5	-15.1	---	---	725.5	0.021	0.000	19.2	1	1
03/29/06	1:45 a	-11.9	-11.9	-11.9	---	---	3.5	NE	0.06	3.5	-16.0	---	---	725.5	0.021	0.000	19.2	1	1
03/29/06	1:46 a	-11.9	-11.9	-11.9	---	---	3.5	NE	0.06	3.5	-16.0	---	---	725.5	0.021	0.000	19.2	1	1
03/29/06	1:47 a	-11.9	-11.9	-11.9	---	---	3.5	NE	0.06	3.5	-15.9	---	---	725.5	0.021	0.000	19.2	1	1
03/29/06	1:48 a	-11.9	-11.8	-11.9	---	---	3.5	NE	0.06	3.5	-15.9	---	---	725.6	0.021	0.000	19.2	1	1
03/29/06	1:49 a	-11.9	-11.8	-11.9	---	---	2.6	NE	0.04	3.5	-14.9	---	---	725.6	0.021	0.000	19.2	1	1
03/29/06	1:50 a	-11.8	-11.8	-11.8	---	---	4.3	NE	0.07	5.2	-16.6	---	---	725.5	0.021	0.000	19.2	1	1
03/29/06	1:51 a	-11.8	-11.8	-11.8	---	---	4.3	NE	0.07	5.2	-16.6	---	---	725.6	0.021	0.000	19.2	1	1
03/29/06	1:52 a	-11.8	-11.8	-11.8	---	---	4.3	NE	0.07	5.2	-16.6	---	---	725.5	0.021	0.000	19.2	1	1
03/29/06	1:53 a	-11.8	-11.8	-11.8	---	---	2.6	NE	0.04	4.3	-14.8	---	---	725.6	0.021	0.000	19.3	1	1
03/29/06	1:54 a	-11.8	-11.8	-11.8	---	---	1.7	NE	0.03	3.5	-13.5	---	---	725.6	0.021	0.000	19.3	1	1
03/29/06	1:55 a	-11.8	-11.8	-11.8	---	---	1.7	NE	0.03	3.5	-13.6	---	---	725.6	0.021	0.000	19.2	1	1
03/29/06	1:56 a	-11.8	-11.8	-11.9	---	---	0.9	NE	0.01	1.7	-11.8	---	---	725.6	0.021	0.000	19.3	1	1
03/29/06	1:57 a	-11.8	-11.8	-11.8	---	---	0.0	---	0.00	0.0	-11.8	---	---	725.6	0.021	0.000	19.3	1	1
03/29/06	1:58 a	-11.8	-11.8	-11.8	---	---	0.0	NE	0.00	0.9	-11.8	---	---	725.6	0.021	0.000	19.3	1	1
03/29/06	1:59 a	-11.8	-11.8	-11.8	---	---	0.0	---	0.00	0.0	-11.8	---	---	725.6	0.021	0.000	19.3	1	1
03/29/06	2:00 a	-11.8	-11.8	-11.8	---	---	0.0	---	0.00	0.0	-11.8	---	---	725.5	0.021	0.000	19.3	1	1
03/29/06	2:01 a	-11.8	-11.8	-11.8	---	---	0.0	NE	0.00	0.9	-11.8	---	---	725.6	0.021	0.000	19.3	1	1
03/29/06	2:02 a	-11.8	-11.8	-11.8	---	---	0.0	---	0.00	0.0	-11.8	---	---	725.6	0.021	0.000	19.3	1	1
03/29/06	2:03 a	-11.8	-11.8	-11.8	---	---	0.0	---	0.00	0.0	-11.8	---	---	725.6	0.021	0.000	19.3	1	1
03/29/06	2:04 a	-11.8	-11.7	-11.8	---	---	0.0	NE	0.00	0.9	-11.8	---	---	725.5	0.021	0.000	19.3	1	1
03/29/06	2:05 a	-11.7	-11.7	-11.8	---	---	0.0	---	0.00	0.0	-11.7	---	---	725.6	0.021	0.000	19.3	1	1
03/29/06	2:06 a	-11.7	-11.7	-11.7	---	---	0.0	NE	0.00	1.7	-11.7	---	---	725.6	0.021	0.000	19.3	1	1
03/29/06	2:07 a	-11.7	-11.7	-11.7	---	---	0.0	---	0.00	0.0	-11.7	---	---	725.6	0.021	0.000	19.3	1	1
03/29/06	2:08 a	-11.7	-11.6	-11.7	---	---	0.9	NE	0.01	2.6	-11.7	---	---	725.6	0.021	0.000	19.3	1	1
03/29/06	2:09 a	-11.7	-11.6	-11.7	---	---	1.7	NE	0.03	3.5	-13.4	---	---	725.6	0.021	0.000	19.3	1	1
03/29/06	2:10 a	-11.6	-11.6	-11.7	---	---	2.6	NE	0.04	2.6	-14.6	---	---	725.5	0.021	0.000	19.3	1	1
03/29/06	2:11 a	-11.6	-11.6	-11.6	---	---	2.6	ESE	0.04	3.5	-14.6	---	---	725.5	0.021	0.000	19.3	1	1
03/29/06	2:12 a	-11.6	-11.6	-11.6	---	---	1.7	ESE	0.03	2.6	-13.3	---	---	725.5	0.021	0.000	19.3	1	1
03/29/06	2:13 a	-11.6	-11.6	-11.6	---	---	0.9	ESE	0.01	1.7	-11.6	---	---	725.6	0.021	0.000	19.3	1	1
03/29/06	2:14 a	-11.6	-11.6	-11.6	---	---	0.9	ESE	0.01	1.7	-11.6	---	---	725.5	0.021	0.000	19.3	1	1
03/29/06	2:15 a	-11.5	-11.5	-11.6	---	---	2.6	NE	0.04	3.5	-14.5	---	---	725.5	0.021	0.000	19.3	1	1
03/29/06	2:16 a	-11.5	-11.4	-11.5	---	---	4.3	NE	0.07	5.2	-16.2	---	---	725.5	0.021	0.000	19.3	1	1
03/29/06	2:17 a	-11.4	-11.4	-11.4	---	---	4.3	NE	0.07	5.2	-16.2	---	---	725.6	0.021	0.000	19.3	1	1
03/29/06	2:18 a	-11.4	-11.4	-11.4	---	---	6.1	NE	0.10	7.0	-17.3	---	---	725.6	0.021	0.000	19.3	1	1
03/29/06	2:19 a	-11.3	-11.3	-11.4	---	---	7.0	NE	0.12	7.8	-17.8	---	---	725.6	0.021	0.000	19.3	1	1
03/29/06	2:20 a	-11.3	-11.3	-11.3	---	---	6.1	NE	0.10	7.0	-17.3	---	---	725.5	0.021	0.000	19.3	1	1
03/29/06	2:21 a	-11.3	-11.3	-11.3	---	---	7.0	NE	0.12	7.8	-17.7	---	---	725.6	0.021	0.000	19.3	1	1
03/29/06	2:22 a	-11.3	-11.2	-11.3	---	---	7.0	NE	0.12	7.8	-17.7	---	---	725.5	0.021	0.000	19.3	1	1
03/29/06	2:23 a	-11.2	-11.2	-11.2	---	---	6.1	NE	0.10	7.0	-17.1	---	---	725.5	0.021	0.000	19.3	1	1
03/29/06	2:24 a	-11.2	-11.2	-11.2	---	---	5.2	NE	0.09	7.0	-16.5	---	---	725.6	0.020	0.000	19.3	1	1
03/29/06	2:25 a	-11.2	-11.1	-11.2	---	---	6.1	NE	0.10	7.0	-17.1	---	---	725.6	0.020	0.000	19.3	1	1
03/29/06	2:26 a	-11.1	-11.1	-11.2	---	---	6.1	NE	0.10	7.0	-17.0	---	---	725.5	0.020	0.000	19.3	1	1
03/29/06	2:27 a	-11.1	-11.1	-11.1	---	---	6.1	NE	0.10	7.0	-17.0	---	---	725.5	0.020	0.000	19.3	1	1
03/29/06	2:28 a	-11.1	-11.1	-11.1	---	---	7.0	NE	0.12	7.0	-17.4	---	---	725.4	0.020	0.000	19.3	1	1
03/29/06	2:29 a	-11.1	-11.0	-11.1	---	---	7.0	NE	0.12	7.0	-17.4	---	---	725.4	0.020	0.000	19.3	1	1
03/29/06	2:30 a	-11.0	-11.0	-11.1	---	---	7.0	NE	0.12	7.8	-17.4	---	---	725.5	0.020	0.000	19.3	1	1
03/29/06	2:31 a	-11.0	-11.0	-11.0	---	---	7.0	NE	0.12	7.8	-17.4	---	---	725.5	0.020	0.000	19.3	1	1
03/29/06	2:32 a	-11.0	-10.9	-11.0	---	---	7.0	NE	0.12	7.8	-17.4	---	---	725.5	0.020	0.000	19.3	1	1
03/29/06	2:33 a	-10.9	-10.9	-10.9	---	---	7.8	NE	0.13	7.8	-17.8	---	---	725.6	0.020	0.000	19.3	1	1
03/29/06	2:34 a	-10.9	-10.9	-10.9	---	---	7.0	NE	0.12	7.8	-17.3	---	---	725.5	0.020	0.000	19.3	1	1
03/29/06	2:35 a	-10.9	-10.9	-10.9	---	---	7.0	NE	0.12	7.8	-17.3	---	---	725.5	0.020	0.000	19.3	1	1
03/29/06	2:36 a	-10.9	-10.9	-10.9	---	---	7.0	NE	0.12	7.8	-17.2	---	---	725.6	0.020	0.000	19.3	1	1
03/29/06	2:37 a	-10.9	-10.9	-10.9	---	---	7.0	NE	0.12	7.8	-17.2	---	---	725.5	0.020	0.000	19.3	1	1
03/29/06	2:38 a	-10.9	-10.9	-10.9	---	---	6.1	NE	0.10	7.0	-16.7	---	---	725.5	0.020	0.000	19.3	1	1
03/29/06	2:39 a	-10.9	-10.8	-10.9	---	---	5.2	NE	0.09	6.1	-16.2	---	---	725.5	0.020	0.000	19.3	1	1
03/29/06	2:40 a	-10.8	-10.8	-10.9	---	---	7.0	NE	0.12	7.8	-17.2	---	---	725.5	0.020	0.000	19.3	1	1
03/29/06	2:41 a	-10.8	-10.8	-10.9	---	---	5.2	NE	0.09	6.1	-16.1	---	---	725.6	0.020	0.000	19.3	1	1
03/29/06	2:42 a	-10.8	-10.8	-10.9	---	---	5.2	NE	0.09	6.1	-16.1	---	---	725.6	0.020	0.000	19.3	1	1
03/29/06	2:43 a	-10.8	-10.8	-10.8	---	---	5.2	NE	0.09	6.1	-16.1	---	---	725.5	0.020	0.000	19.4	1	1
03/29/06	2:44 a	-10.8	-10.8	-10.8	---	---	6.1	NE	0.10	7.0	-16.6	---	---	725.6	0.020	0.000	19.3	1	1
03/29/06	2:45 a	-10.8	-10.8	-10.8	---	---	6.1	NE	0.10	7.0	-16.6	---	---	725.5	0.020	0.000	19.4	1	1
03/29/06	2:46 a	-10.8	-10.8	-10.8	---	---	5.2	NE	0.09	6.1	-16.1	---	---	725.6	0.020	0.000	19.4	1	1
03/29/06	2:47 a	-10.8	-10.8	-10.8	---	---	3.5	NE	0.06	5.2	-14.6	---	---	725.6	0.020	0.000	19.4	1	1
03/29/06	2:48 a	-10.8	-10.8	-10.8	---	---	5.2	NE	0.09	6.1	-16.1	---	---	725.6	0.020	0.000	19.4	1	1
03/29/06	2:49 a	-10.8	-10.8	-10.8	---	---	6.1	NE	0.10	7.8	-16.6	---	---	725.6	0.020	0.000	19.4	1	1
03/29/06	2:50 a	-10.8	-10.7	-10.8	---	---	7.0	NE	0.12	7.8	-17.1	---	---	725.7	0.020	0.000	19.4	1	1
03/29/06	2:51 a	-10.8	-10.7	-10.8	---	---	6.1	NE	0.10	7.0	-16.6	---	---	725.6	0.020	0.000	19.4	1	1
03/29/06	2:52 a	-10.7	-10.7	-10.7	---	---	6.1	NE	0.10	7.0	-16.6	---	---	725.6	0.020	0.000	19.4	1	1
03/29/06	2:53 a	-10.7	-10.7	-10.7	---	---	5.2	NE	0.09	7.8	-16.0	---	---	725.6	0.020	0.000	19.4	2	1
03/29/06	2:54 a	-10.7	-10.7	-10.7	---	---	7.0	NE	0.12	7.8	-17.1	---	---	725.5	0.020	0.000	19.4	1	1
03/29/06	2:55 a	-10.7	-10.7	-10.8	---	---	7.0	NE	0.12	8.7	-17.1	---	---	725.6	0.020	0.000	19.4	1	1
03/29/06	2:56 a	-10.7	-10.7	-10.7	---	---	4.3	NE	0.07	6.1	-15.3	---	---	725.6	0.020	0.000	19.4	1	1
03/29/06	2:57 a	-10.7	-10.7	-10.7	---	---	6.1	NE	0.10	7.0	-16.6	---	---	725.6	0.020	0.000	19.4	1	1
03/29/06	2:58 a	-10.7	-10.7	-10.7	---	---	6.1	NE	0.10	7.8	-16.6	---	---	725.7	0.020	0.000	19.4	1	1
03/29/06	2:59 a	-10.7	-10.7	-10.7	---	---	5.2	NE	0.09	7.0	-16.0	---	---	725.6	0.020	0.000	19.4	1	1
03/29/06	3:00 a	-10.7	-10.7	-10.7	---	---	5.2	NE	0.09	7.0	-16.0	---	---	725.7	0.020	0.000	19.4	1	1
03/29/06	3:01 a	-10.7	-10.7	-10.7	---	---	4.3	NE	0.07	6.1	-15.3	---	---	725.7	0.020	0.000	19.4	1	1
03/29/06	3:02 a	-10.7	-10.7	-10.7	---	---	5.2	NE	0.09	7.0	-15.9	---	---	725.6	0.020	0.000	19.4	1	1
03/29/06	3:03 a	-10.7	-10.7	-10.7	---	---	5.2	NE	0.09	6.1	-15.9	---	---	725.6	0.020	0.000	19.4	1	1
03/29/06	3:04 a	-10.7	-10.7	-10.7	---	---	6.1	NE	0.10	7.0	-16.4	---	---	725.7	0.020	0.000	19.4	2	1
03/29/06	3:05 a	-10.6	-10.6	-10.7	---	---	6.1	NE	0.10	7.0	-16.4	---	---	725.7	0.020	0.000	19.4	2	1
03/29/06	3:06 a	-10.7	-10.7	-10.7	---	---	6.1	NE	0.10	7.0	-16.4	---	---	725.6	0.020	0.000	19.4	2	1
03/29/06	3:07 a	-10.6	-10.6	-10.7	---	---	5.2	NE	0.09	6.1	-15.8	---	---	725.6	0.020	0.000	19.4	1	1
03/29/06	3:08 a	-10.6	-10.6	-10.6	---	---	6.1	NE	0.10	6.1	-16.4	---	---	725.7	0.020	0.000	19.4	1	1
03/29/06	3:09 a	-10.6	-10.6	-10.7	---	---	5.2	NE	0.09	6.1	-15.8	---	---	725.7	0.020	0.000	19.4	1	1
03/29/06	3:10 a	-10.7	-10.6	-10.7	---	---	6.1	NE	0.10	7.0	-16.4	---	---	725.6	0.020	0.000	19.4	1	1
03/29/06	3:11 a	-10.7	-10.6	-10.7	---	---	5.2	NE	0.09	6.1	-15.9	---	---	725.7	0.020	0.000	19.4	2	1
03/29/06	3:12 a	-10.7	-10.6	-10.7	---	---	5.2	NE	0.09	6.1	-15.9	---	---	725.6	0.020	0.000	19.4	2	1
03/29/06	3:13 a	-10.6	-10.6	-10.7	---	---	4.3	NE	0.07	5.2	-15.2	---	---	725.7	0.020	0.000	19.4	1	1
03/29/06	3:14 a	-10.6	-10.6	-10.7	---	---	3.5	ENE	0.06	4.3	-14.4	---	---	725.5	0.020	0.000	19.4	2	1
03/29/06	3:15 a	-10.6	-10.6	-10.6	---	---	5.2	ENE	0.09	7.8	-15.8	---	---	725.6	0.020	0.000	19.4	2	1
03/29/06	3:16 a	-10.6	-10.6	-10.6	---	---	5.2	ENE	0.09	7.0	-15.8	---	---	725.7	0.020	0.000	19.4	1	1
03/29/06	3:17 a	-10.6	-10.6	-10.6	---	---	6.1	ENE	0.10	7.0	-16.4	---	---	725.7	0.020	0.000	19.4	1	1
03/29/06	3:18 a	-10.6	-10.6	-10.6	---	---	6.1	ENE	0.10	7.0	-16.4	---	---	725.6	0.020	0.000	19.4	1	1
03/29/06	3:19 a	-10.6	-10.6	-10.6	---	---	7.0	ENE	0.12	7.0	-16.9	---	---	725.6	0.020	0.000	19.4	1	1
03/29/06	3:20 a	-10.6	-10.6	-10.6	---	---	6.1	ENE	0.10	7.0	-16.4	---	---	725.6	0.020	0.000	19.4	1	1
03/29/06	3:21 a	-10.6	-10.6	-10.6	---	---	4.3	ENE	0.07	6.1	-15.2	---	---	725.6	0.020	0.000	19.4	1	1
03/29/06	3:22 a	-10.6	-10.6	-10.7	---	---	4.3	ENE	0.07	5.2	-15.2	---	---	725.6	0.020	0.000	19.4	1	1
03/29/06	3:23 a	-10.6	-10.6	-10.7	---	---	5.2	ENE	0.09	5.2	-15.8	---	---	725.6	0.020	0.000	19.4	1	1
03/29/06	3:24 a	-10.6	-10.6	-10.7	---	---	5.2	ENE	0.09	5.2	-15.8	---	---	725.6	0.020	0.000	19.4	1	1
03/29/06	3:25 a	-10.6	-10.6	-10.7	---	---	3.5	ENE	0.06	5.2	-14.4	---	---	725.6	0.020	0.000	19.4	1	1
03/29/06	3:26 a	-10.6	-10.6	-10.7	---	---	5.2	ENE	0.09	5.2	-15.8	---	---	725.6	0.020	0.000	19.4	1	1
03/29/06	3:27 a	-10.6	-10.6	-10.6	---	---	5.2	ENE	0.09	5.2	-15.8	---	---	725.6	0.020	0.000	19.4	1	1
03/29/06	3:28 a	-10.6	-10.6	-10.6	---	---	5.2	ENE	0.09	5.2	-15.8	---	---	725.5	0.020	0.000	19.4	1	1
03/29/06	3:29 a	-10.6	-10.6	-10.6	---	---	4.3	ENE	0.07	5.2	-15.1	---	---	725.5	0.020	0.000	19.4	1	1
03/29/06	3:30 a	-10.6	-10.6	-10.6	---	---	4.3	ENE	0.07	5.2	-15.1	---	---	725.5	0.020	0.000	19.4	1	1
03/29/06	3:31 a	-10.6	-10.6	-10.6	---	---	4.3	ENE	0.07	5.2	-15.1	---	---	725.6	0.020	0.000	19.4	1	1
03/29/06	3:32 a	-10.6	-10.5	-10.6	---	---	4.3	ENE	0.07	4.3	-15.1	---	---	725.5	0.020	0.000	19.4	1	1
03/29/06	3:33 a	-10.5	-10.5	-10.5	---	---	4.3	ENE	0.07	4.3	-15.1	---	---	725.5	0.020	0.000	19.4	1	1
03/29/06	3:34 a	-10.5	-10.4	-10.5	---	---	4.3	ENE	0.07	5.2	-15.1	---	---	725.5	0.020	0.000	19.5	1	1
03/29/06	3:35 a	-10.4	-10.4	-10.4	---	---	3.5	ENE	0.06	4.3	-14.2	---	---	725.5	0.020	0.000	19.5	1	1
03/29/06	3:36 a	-10.4	-10.4	-10.4	---	---	4.3	ENE	0.07	4.3	-15.0	---	---	725.5	0.020	0.000	19.5	2	1
03/29/06	3:37 a	-10.4	-10.4	-10.4	---	---	4.3	ENE	0.07	5.2	-14.9	---	---	725.6	0.020	0.000	19.5	1	1
03/29/06	3:38 a	-10.4	-10.3	-10.4	---	---	4.3	ENE	0.07	4.3	-14.9	---	---	725.6	0.020	0.000	19.5	2	1
03/29/06	3:39 a	-10.3	-10.3	-10.3	---	---	4.3	ENE	0.07	5.2	-14.9	---	---	725.5	0.020	0.000	19.5	2	1
03/29/06	3:40 a	-10.3	-10.3	-10.3	---	---	6.1	ENE	0.10	7.0	-16.1	---	---	725.6	0.020	0.000	19.5	1	1
03/29/06	3:41 a	-10.3	-10.3	-10.3	---	---	6.1	ENE	0.10	7.0	-16.1	---	---	725.5	0.020	0.000	19.5	2	1
03/29/06	3:42 a	-10.3	-10.3	-10.3	---	---	5.2	ENE	0.09	6.1	-15.4	---	---	725.5	0.020	0.000	19.6	2	1
03/29/06	3:43 a	-10.3	-10.2	-10.3	---	---	5.2	NE	0.09	6.1	-15.4	---	---	725.6	0.020	0.000	19.6	2	1
03/29/06	3:44 a	-10.2	-10.2	-10.3	---	---	4.3	NE	0.07	5.2	-14.7	---	---	725.6	0.020	0.000	19.6	2	1
03/29/06	3:45 a	-10.2	-10.2	-10.2	---	---	5.2	NE	0.09	5.2	-15.4	---	---	725.5	0.020	0.000	19.6	1	1
03/29/06	3:46 a	-10.2	-10.2	-10.2	---	---	5.2	NE	0.09	6.1	-15.3	---	---	725.5	0.020	0.000	19.6	1	1
03/29/06	3:47 a	-10.2	-10.2	-10.2	---	---	4.3	NE	0.07	6.1	-14.7	---	---	725.6	0.020	0.000	19.6	2	1
03/29/06	3:48 a	-10.2	-10.1	-10.2	---	---	6.1	NE	0.10	7.0	-15.9	---	---	725.5	0.020	0.000	19.6	2	1
03/29/06	3:49 a	-10.1	-10.1	-10.2	---	---	5.2	NE	0.09	6.1	-15.2	---	---	725.5	0.020	0.000	19.6	2	1
03/29/06	3:50 a	-10.1	-10.1	-10.1	---	---	5.2	NE	0.09	6.1	-15.2	---	---	725.6	0.020	0.000	19.6	2	1
03/29/06	3:51 a	-10.1	-10.1	-10.1	---	---	6.1	NE	0.10	6.1	-15.8	---	---	725.5	0.020	0.000	19.6	2	1
03/29/06	3:52 a	-10.1	-10.1	-10.1	---	---	5.2	NE	0.09	6.1	-15.2	---	---	725.5	0.020	0.000	19.6	2	1
03/29/06	3:53 a	-10.1	-10.1	-10.1	---	---	5.2	NE	0.09	6.1	-15.2	---	---	725.5	0.020	0.000	19.6	2	1
03/29/06	3:54 a	-10.1	-10.1	-10.1	---	---	5.2	NE	0.09	6.1	-15.2	---	---	725.6	0.020	0.000	19.6	2	1
03/29/06	3:55 a	-10.1	-10.0	-10.1	---	---	5.2	NE	0.09	5.2	-15.2	---	---	725.5	0.020	0.000	19.6	2	1
03/29/06	3:56 a	-10.0	-10.0	-10.1	---	---	4.3	NE	0.07	5.2	-14.5	---	---	725.4	0.020	0.000	19.6	1	1
03/29/06	3:57 a	-10.0	-10.0	-10.0	---	---	5.2	NE	0.09	5.2	-15.1	---	---	725.6	0.020	0.000	19.6	2	1
03/29/06	3:58 a	-10.0	-10.0	-10.0	---	---	4.3	NE	0.07	5.2	-14.5	---	---	725.6	0.020	0.000	19.6	2	1
03/29/06	3:59 a	-10.0	-10.0	-10.0	---	---	4.3	NE	0.07	5.2	-14.5	---	---	725.6	0.020	0.000	19.6	2	1
03/29/06	4:00 a	-10.0	-10.0	-10.0	---	---	3.5	NE	0.06	4.3	-13.7	---	---	725.6	0.020	0.000	19.6	1	1
03/29/06	4:01 a	-10.0	-9.9	-10.0	---	---	4.3	NE	0.07	5.2	-14.5	---	---	725.6	0.020	0.000	19.6	2	1
03/29/06	4:02 a	-10.0	-9.9	-10.0	---	---	4.3	NE	0.07	5.2	-14.5	---	---	725.7	0.020	0.000	19.6	1	1
03/29/06	4:03 a	-9.9	-9.9	-10.0	---	---	3.5	NE	0.06	4.3	-13.7	---	---	725.6	0.020	0.000	19.6	2	1
03/29/06	4:04 a	-9.9	-9.9	-9.9	---	---	3.5	NE	0.06	4.3	-13.7	---	---	725.6	0.020	0.000	19.6	1	1
03/29/06	4:05 a	-9.9	-9.9	-9.9	---	---	4.3	NE	0.07	5.2	-14.4	---	---	725.6	0.020	0.000	19.6	2	1
03/29/06	4:06 a	-9.9	-9.9	-9.9	---	---	4.3	NE	0.07	5.2	-14.4	---	---	725.5	0.020	0.000	19.6	2	1
03/29/06	4:07 a	-9.9	-9.9	-9.9	---	---	4.3	NE	0.07	5.2	-14.4	---	---	725.6	0.020	0.000	19.6	2	1
03/29/06	4:08 a	-9.9	-9.9	-9.9	---	---	4.3	NE	0.07	5.2	-14.4	---	---	725.5	0.020	0.000	19.6	2	1
03/29/06	4:09 a	-9.9	-9.9	-9.9	---	---	3.5	NE	0.06	4.3	-13.7	---	---	725.5	0.020	0.000	19.6	1	1
03/29/06	4:10 a	-9.9	-9.9	-9.9	---	---	3.5	NE	0.06	4.3	-13.7	---	---	725.6	0.020	0.000	19.6	1	1
03/29/06	4:11 a	-9.9	-9.9	-9.9	---	---	3.5	NE	0.06	3.5	-13.7	---	---	725.6	0.020	0.000	19.6	2	1
03/29/06	4:12 a	-9.9	-9.9	-9.9	---	---	3.5	NE	0.06	3.5	-13.7	---	---	725.6	0.020	0.000	19.6	2	1
03/29/06	4:13 a	-9.9	-9.9	-9.9	---	---	3.5	NE	0.06	3.5	-13.7	---	---	725.6	0.020	0.000	19.6	2	1
03/29/06	4:14 a	-9.9	-9.9	-9.9	---	---	3.5	NE	0.06	3.5	-13.7	---	---	725.6	0.020	0.000	19.6	2	1
03/29/06	4:15 a	-9.9	-9.9	-9.9	---	---	3.5	NE	0.06	3.5	-13.7	---	---	725.6	0.020	0.000	19.6	1	1
03/29/06	4:16 a	-9.9	-9.9	-9.9	---	---	1.7	NE	0.03	2.6	-11.5	---	---	725.5	0.020	0.000	19.6	2	1
03/29/06	4:17 a	-9.9	-9.9	-9.9	---	---	0.0	NE	0.00	0.9	-9.9	---	---	725.6	0.020	0.000	19.6	2	1
03/29/06	4:18 a	-9.9	-9.9	-9.9	---	---	0.0	NE	0.00	0.9	-9.9	---	---	725.6	0.020	0.000	19.6	2	1
03/29/06	4:19 a	-9.9	-9.9	-9.9	---	---	0.0	NE	0.00	0.9	-9.9	---	---	725.6	0.020	0.000	19.6	2	1
03/29/06	4:20 a	-9.9	-9.9	-9.9	---	---	0.9	NE	0.01	1.7	-9.9	---	---	725.6	0.020	0.000	19.6	2	1
03/29/06	4:21 a	-9.9	-9.9	-9.9	---	---	0.9	NE	0.01	1.7	-9.9	---	---	725.6	0.020	0.000	19.6	2	1
03/29/06	4:22 a	-9.9	-9.9	-9.9	---	---	1.7	NE	0.03	1.7	-11.5	---	---	725.5	0.020	0.000	19.6	2	1
03/29/06	4:23 a	-9.9	-9.9	-10.0	---	---	1.7	NE	0.03	1.7	-11.5	---	---	725.6	0.020	0.000	19.6	1	1
03/29/06	4:24 a	-10.0	-9.9	-10.1	---	---	0.9	NE	0.01	1.7	-10.0	---	---	725.6	0.020	0.000	19.6	2	1
03/29/06	4:25 a	-10.0	-10.0	-10.1	---	---	0.9	NE	0.01	1.7	-10.0	---	---	725.6	0.020	0.000	19.6	1	1
03/29/06	4:26 a	-10.1	-10.1	-10.1	---	---	0.9	NE	0.01	1.7	-10.1	---	---	725.6	0.020	0.000	19.6	2	1
03/29/06	4:27 a	-10.1	-10.1	-10.1	---	---	0.0	NE	0.00	0.9	-10.1	---	---	725.6	0.020	0.000	19.6	2	1
03/29/06	4:28 a	-10.1	-10.1	-10.1	---	---	0.0	NE	0.00	0.9	-10.1	---	---	725.6	0.020	0.000	19.6	2	1
03/29/06	4:29 a	-10.1	-10.1	-10.1	---	---	0.0	NE	0.00	0.9	-10.1	---	---	725.6	0.020	0.000	19.6	2	1
03/29/06	4:30 a	-10.1	-10.1	-10.2	---	---	0.0	NE	0.00	0.9	-10.1	---	---	725.6	0.020	0.000	19.6	2	1
03/29/06	4:31 a	-10.2	-10.1	-10.2	---	---	0.0	NE	0.00	0.9	-10.2	---	---	725.6	0.020	0.000	19.6	2	1
03/29/06	4:32 a	-10.2	-10.2	-10.2	---	---	0.9	NE	0.01	0.9	-10.2	---	---	725.6	0.020	0.000	19.6	2	1
03/29/06	4:33 a	-10.2	-10.2	-10.2	---	---	0.9	NE	0.01	0.9	-10.2	---	---	725.6	0.020	0.000	19.7	2	1
03/29/06	4:34 a	-10.2	-10.2	-10.2	---	---	0.9	NE	0.01	1.7	-10.2	---	---	725.6	0.020	0.000	19.7	1	1
03/29/06	4:35 a	-10.2	-10.2	-10.3	---	---	0.9	NE	0.01	1.7	-10.2	---	---	725.6	0.020	0.000	19.7	2	1
03/29/06	4:36 a	-10.3	-10.2	-10.3	---	---	0.9	NE	0.01	0.9	-10.3	---	---	725.7	0.020	0.000	19.7	2	1
03/29/06	4:37 a	-10.3	-10.3	-10.3	---	---	0.9	NE	0.01	1.7	-10.3	---	---	725.6	0.020	0.000	19.7	2	1
03/29/06	4:38 a	-10.3	-10.3	-10.3	---	---	0.9	NE	0.01	1.7	-10.3	---	---	725.6	0.020	0.000	19.7	2	1
03/29/06	4:39 a	-10.3	-10.3	-10.3	---	---	0.9	NE	0.01	0.9	-10.3	---	---	725.7	0.020	0.000	19.7	2	1
03/29/06	4:40 a	-10.3	-10.3	-10.3	---	---	0.0	NE	0.00	0.9	-10.3	---	---	725.7	0.020	0.000	19.7	2	1
03/29/06	4:41 a	-10.3	-10.3	-10.3	---	---	0.0	NE	0.00	0.9	-10.3	---	---	725.6	0.020	0.000	19.7	2	1
03/29/06	4:42 a	-10.3	-10.3	-10.3	---	---	0.9	NE	0.01	0.9	-10.3	---	---	725.6	0.020	0.000	19.7	2	1
03/29/06	4:43 a	-10.3	-10.3	-10.3	---	---	0.0	NE	0.00	0.9	-10.3	---	---	725.6	0.020	0.000	19.7	2	1
03/29/06	4:44 a	-10.3	-10.3	-10.3	---	---	0.9	NE	0.01	0.9	-10.3	---	---	725.7	0.020	0.000	19.7	2	1
03/29/06	4:45 a	-10.3	-10.2	-10.3	---	---	0.9	NE	0.01	1.7	-10.3	---	---	725.7	0.020	0.000	19.7	2	1
03/29/06	4:46 a	-10.2	-10.2	-10.2	---	---	0.9	NE	0.01	1.7	-10.2	---	---	725.7	0.020	0.000	19.7	2	1
03/29/06	4:47 a	-10.2	-10.2	-10.2	---	---	0.9	NE	0.01	1.7	-10.2	---	---	725.7	0.020	0.000	19.7	2	1
03/29/06	4:48 a	-10.2	-10.2	-10.2	---	---	0.9	NE	0.01	1.7	-10.2	---	---	725.7	0.020	0.000	19.7	2	1
03/29/06	4:49 a	-10.2	-10.2	-10.2	---	---	0.9	NE	0.01	0.9	-10.2	---	---	725.7	0.020	0.000	19.7	2	1
03/29/06	4:50 a	-10.2	-10.2	-10.2	---	---	0.9	NE	0.01	1.7	-10.2	---	---	725.7	0.020	0.000	19.7	2	1
03/29/06	4:51 a	-10.2	-10.2	-10.3	---	---	0.9	NE	0.01	0.9	-10.2	---	---	725.7	0.020	0.000	19.7	2	1
03/29/06	4:52 a	-10.2	-10.2	-10.3	---	---	0.9	NE	0.01	0.9	-10.2	---	---	725.7	0.020	0.000	19.7	1	1
03/29/06	4:53 a	-10.2	-10.2	-10.2	---	---	0.9	NE	0.01	1.7	-10.2	---	---	725.7	0.020	0.000	19.7	2	1
03/29/06	4:54 a	-10.2	-10.2	-10.2	---	---	0.9	NE	0.01	1.7	-10.2	---	---	725.7	0.020	0.000	19.7	2	1
03/29/06	4:55 a	-10.3	-10.2	-10.3	---	---	0.9	NE	0.01	1.7	-10.3	---	---	725.7	0.020	0.000	19.7	2	1
03/29/06	4:56 a	-10.3	-10.2	-10.3	---	---	0.9	NE	0.01	1.7	-10.3	---	---	725.7	0.020	0.000	19.7	2	1
03/29/06	4:57 a	-10.3	-10.3	-10.3	---	---	0.9	NE	0.01	1.7	-10.3	---	---	725.7	0.020	0.000	19.7	2	1
03/29/06	4:58 a	-10.3	-10.3	-10.3	---	---	0.9	NE	0.01	1.7	-10.3	---	---	725.6	0.020	0.000	19.7	2	1
03/29/06	4:59 a	-10.3	-10.3	-10.3	---	---	0.9	NE	0.01	1.7	-10.3	---	---	725.6	0.020	0.000	19.7	2	1
03/29/06	5:00 a	-10.3	-10.3	-10.3	---	---	0.9	NE	0.01	0.9	-10.3	---	---	725.7	0.020	0.000	19.7	2	1
03/29/06	5:01 a	-10.3	-10.3	-10.4	---	---	0.9	NE	0.01	0.9	-10.3	---	---	725.7	0.020	0.000	19.7	2	1
03/29/06	5:02 a	-10.3	-10.3	-10.4	---	---	0.0	NE	0.00	0.9	-10.3	---	---	725.7	0.020	0.000	19.7	2	1
03/29/06	5:03 a	-10.3	-10.3	-10.4	---	---	0.0	NE	0.00	0.9	-10.3	---	---	725.6	0.020	0.000	19.7	2	1
03/29/06	5:04 a	-10.4	-10.3	-10.4	---	---	0.9	NE	0.01	0.9	-10.4	---	---	725.7	0.020	0.000	19.7	2	1
03/29/06	5:05 a	-10.4	-10.4	-10.4	---	---	0.9	NE	0.01	0.9	-10.4	---	---	725.7	0.020	0.000	19.7	2	1
03/29/06	5:06 a	-10.4	-10.4	-10.4	---	---	0.9	NE	0.01	0.9	-10.4	---	---	725.7	0.020	0.000	19.7	2	1
03/29/06	5:07 a	-10.4	-10.4	-10.4	---	---	0.9	NE	0.01	1.7	-10.4	---	---	725.6	0.020	0.000	19.7	2	1
03/29/06	5:08 a	-10.4	-10.4	-10.5	---	---	0.9	NE	0.01	1.7	-10.4	---	---	725.7	0.020	0.000	19.7	2	1
03/29/06	5:09 a	-10.5	-10.5	-10.6	---	---	0.9	NE	0.01	1.7	-10.5	---	---	725.6	0.020	0.000	19.7	2	1
03/29/06	5:10 a	-10.6	-10.6	-10.6	---	---	0.9	NE	0.01	1.7	-10.6	---	---	725.6	0.020	0.000	19.7	2	1
03/29/06	5:11 a	-10.6	-10.6	-10.7	---	---	1.7	NE	0.03	1.7	-12.2	---	---	725.6	0.020	0.000	19.7	2	1
03/29/06	5:12 a	-10.7	-10.6	-10.7	---	---	0.9	NE	0.01	1.7	-10.7	---	---	725.6	0.020	0.000	19.7	2	1
03/29/06	5:13 a	-10.7	-10.7	-10.7	---	---	0.9	NE	0.01	1.7	-10.7	---	---	725.6	0.020	0.000	19.7	2	1
03/29/06	5:14 a	-10.7	-10.7	-10.8	---	---	1.7	NE	0.03	1.7	-12.3	---	---	725.7	0.020	0.000	19.7	2	1
03/29/06	5:15 a	-10.8	-10.8	-10.8	---	---	0.9	NE	0.01	1.7	-10.8	---	---	725.7	0.020	0.000	19.7	2	1
03/29/06	5:16 a	-10.8	-10.8	-10.9	---	---	1.7	NE	0.03	1.7	-12.5	---	---	725.7	0.020	0.000	19.7	2	1
03/29/06	5:17 a	-10.9	-10.9	-10.9	---	---	1.7	NE	0.03	2.6	-12.6	---	---	725.7	0.020	0.000	19.7	2	1
03/29/06	5:18 a	-11.0	-10.9	-11.0	---	---	1.7	NE	0.03	1.7	-12.7	---	---	725.8	0.020	0.000	19.7	2	1
03/29/06	5:19 a	-11.0	-11.0	-11.1	---	---	1.7	NE	0.03	1.7	-12.7	---	---	725.7	0.020	0.000	19.7	2	1
03/29/06	5:20 a	-11.1	-11.1	-11.1	---	---	1.7	NE	0.03	1.7	-12.8	---	---	725.8	0.020	0.000	19.6	2	1
03/29/06	5:21 a	-11.2	-11.1	-11.2	---	---	1.7	NE	0.03	1.7	-12.8	---	---	725.7	0.020	0.000	19.6	2	1
03/29/06	5:22 a	-11.2	-11.2	-11.3	---	---	1.7	NE	0.03	2.6	-12.9	---	---	725.7	0.021	0.000	19.6	2	1
03/29/06	5:23 a	-11.3	-11.3	-11.3	---	---	1.7	NE	0.03	2.6	-13.1	---	---	725.7	0.021	0.000	19.6	2	1
03/29/06	5:24 a	-11.4	-11.3	-11.4	---	---	1.7	NE	0.03	2.6	-13.1	---	---	725.7	0.021	0.000	19.6	2	1
03/29/06	5:25 a	-11.5	-11.4	-11.5	---	---	1.7	NE	0.03	2.6	-13.2	---	---	725.7	0.021	0.000	19.6	2	1
03/29/06	5:26 a	-11.6	-11.6	-11.6	---	---	2.6	NE	0.04	2.6	-14.6	---	---	725.8	0.021	0.000	19.6	2	1
03/29/06	5:27 a	-11.7	-11.6	-11.7	---	---	2.6	NE	0.04	2.6	-14.7	---	---	725.7	0.021	0.000	19.6	1	1
03/29/06	5:28 a	-11.7	-11.7	-11.8	---	---	2.6	NE	0.04	2.6	-14.8	---	---	725.6	0.021	0.000	19.6	2	1
03/29/06	5:29 a	-11.8	-11.8	-11.9	---	---	2.6	NE	0.04	2.6	-14.9	---	---	725.7	0.021	0.000	19.6	2	1
03/29/06	5:30 a	-11.9	-11.9	-12.0	---	---	2.6	NE	0.04	3.5	-15.0	---	---	725.6	0.021	0.000	19.6	2	1
03/29/06	5:31 a	-12.1	-12.0	-12.1	---	---	2.6	NE	0.04	3.5	-15.1	---	---	725.7	0.021	0.000	19.6	2	1
03/29/06	5:32 a	-12.2	-12.1	-12.2	---	---	2.6	NE	0.04	2.6	-15.3	---	---	725.6	0.021	0.000	19.6	2	1
03/29/06	5:33 a	-12.2	-12.2	-12.3	---	---	2.6	NE	0.04	2.6	-15.3	---	---	725.6	0.021	0.000	19.6	2	1
03/29/06	5:34 a	-12.4	-12.3	-12.4	---	---	2.6	NE	0.04	2.6	-15.5	---	---	725.7	0.021	0.000	19.6	2	1
03/29/06	5:35 a	-12.5	-12.4	-12.6	---	---	2.6	NE	0.04	3.5	-15.6	---	---	725.7	0.021	0.000	19.6	2	1
03/29/06	5:36 a	-12.6	-12.6	-12.7	---	---	2.6	NE	0.04	3.5	-15.8	---	---	725.7	0.021	0.000	19.6	1	1
03/29/06	5:37 a	-12.7	-12.7	-12.8	---	---	2.6	NE	0.04	2.6	-15.9	---	---	725.7	0.022	0.000	19.6	2	1
03/29/06	5:38 a	-12.8	-12.8	-12.9	---	---	2.6	NE	0.04	3.5	-16.0	---	---	725.7	0.022	0.000	19.6	2	1
03/29/06	5:39 a	-13.0	-12.9	-13.1	---	---	2.6	NE	0.04	3.5	-16.2	---	---	725.8	0.022	0.000	19.6	2	1
03/29/06	5:40 a	-13.1	-13.1	-13.2	---	---	2.6	NE	0.04	2.6	-16.3	---	---	725.7	0.022	0.000	19.6	2	1
03/29/06	5:41 a	-13.3	-13.2	-13.3	---	---	1.7	NE	0.03	2.6	-15.2	---	---	725.7	0.022	0.000	19.6	2	1
03/29/06	5:42 a	-13.4	-13.3	-13.4	---	---	1.7	NE	0.03	2.6	-15.3	---	---	725.7	0.022	0.000	19.6	2	1
03/29/06	5:43 a	-13.5	-13.5	-13.6	---	---	1.7	NE	0.03	2.6	-15.4	---	---	725.8	0.022	0.000	19.6	2	1
03/29/06	5:44 a	-13.6	-13.6	-13.7	---	---	1.7	NE	0.03	1.7	-15.6	---	---	725.8	0.022	0.000	19.6	2	1
03/29/06	5:45 a	-13.7	-13.7	-13.8	---	---	1.7	NE	0.03	1.7	-15.7	---	---	725.8	0.022	0.000	19.6	1	1
03/29/06	5:46 a	-13.8	-13.8	-13.9	---	---	0.9	NE	0.01	1.7	-13.8	---	---	725.8	0.022	0.000	19.6	2	1
03/29/06	5:47 a	-13.9	-13.9	-14.0	---	---	0.9	NE	0.01	1.7	-13.9	---	---	725.8	0.022	0.000	19.6	2	1
03/29/06	5:48 a	-14.1	-14.0	-14.1	---	---	0.9	NE	0.01	1.7	-14.1	---	---	725.7	0.022	0.000	19.6	2	1
03/29/06	5:49 a	-14.1	-14.1	-14.2	---	---	1.7	NE	0.03	2.6	-16.1	---	---	725.7	0.023	0.000	19.6	2	1
03/29/06	5:50 a	-14.2	-14.2	-14.3	---	---	1.7	NE	0.03	2.6	-16.2	---	---	725.8	0.023	0.000	19.6	2	1
03/29/06	5:51 a	-14.3	-14.3	-14.3	---	---	1.7	NE	0.03	2.6	-16.3	---	---	725.8	0.023	0.000	19.6	2	1
03/29/06	5:52 a	-14.4	-14.3	-14.4	---	---	2.6	NE	0.04	2.6	-17.8	---	---	725.7	0.023	0.000	19.6	2	1
03/29/06	5:53 a	-14.5	-14.4	-14.5	---	---	1.7	NE	0.03	2.6	-16.5	---	---	725.8	0.023	0.000	19.6	2	1
03/29/06	5:54 a	-14.6	-14.6	-14.6	---	---	3.5	NW	0.06	5.2	-18.9	---	---	725.8	0.023	0.000	19.6	2	1
03/29/06	5:55 a	-14.6	-14.6	-14.7	---	---	2.6	NW	0.04	3.5	-17.9	---	---	725.9	0.023	0.000	19.6	2	1
03/29/06	5:56 a	-14.7	-14.7	-14.8	---	---	3.5	NW	0.06	3.5	-19.1	---	---	725.8	0.023	0.000	19.6	2	1
03/29/06	5:57 a	-14.8	-14.8	-14.9	---	---	2.6	NW	0.04	3.5	-18.2	---	---	725.8	0.023	0.000	19.6	2	1
03/29/06	5:58 a	-14.9	-14.9	-15.0	---	---	3.5	NW	0.06	3.5	-19.4	---	---	725.8	0.023	0.000	19.6	2	1
03/29/06	5:59 a	-15.1	-15.0	-15.2	---	---	2.6	NW	0.04	3.5	-18.4	---	---	725.8	0.023	0.000	19.5	2	1
03/29/06	6:00 a	-15.2	-15.2	-15.3	---	---	3.5	NW	0.06	3.5	-19.7	---	---	725.8	0.023	0.000	19.5	2	1
03/29/06	6:01 a	-15.3	-15.3	-15.4	---	---	3.5	NW	0.06	3.5	-19.8	---	---	725.9	0.023	0.000	19.5	1	1
03/29/06	6:02 a	-15.4	-15.4	-15.6	---	---	3.5	NW	0.06	3.5	-19.9	---	---	725.8	0.023	0.000	19.5	2	1
03/29/06	6:03 a	-15.6	-15.6	-15.7	---	---	2.6	NW	0.04	3.5	-19.1	---	---	725.9	0.024	0.000	19.5	1	1
03/29/06	6:04 a	-15.7	-15.7	-15.8	---	---	3.5	NW	0.06	4.3	-20.3	---	---	725.9	0.024	0.000	19.5	2	1
03/29/06	6:05 a	-15.9	-15.8	-15.9	---	---	3.5	NW	0.06	4.3	-20.5	---	---	725.9	0.024	0.000	19.5	2	1
03/29/06	6:06 a	-16.0	-15.9	-16.1	---	---	3.5	NW	0.06	4.3	-20.6	---	---	725.8	0.024	0.000	19.5	2	1
03/29/06	6:07 a	-16.2	-16.1	-16.2	---	---	3.5	NW	0.06	4.3	-20.8	---	---	725.8	0.024	0.000	19.5	1	1
03/29/06	6:08 a	-16.3	-16.2	-16.3	---	---	3.5	NW	0.06	4.3	-20.9	---	---	725.8	0.024	0.000	19.5	2	1
03/29/06	6:09 a	-16.4	-16.3	-16.5	---	---	3.5	NW	0.06	4.3	-21.1	---	---	725.8	0.024	0.000	19.5	2	1
03/29/06	6:10 a	-16.6	-16.5	-16.6	---	---	3.5	NW	0.06	4.3	-21.2	---	---	725.8	0.024	0.000	19.5	1	1
03/29/06	6:11 a	-16.7	-16.7	-16.8	---	---	3.5	NW	0.06	4.3	-21.4	---	---	725.8	0.024	0.000	19.4	2	1
03/29/06	6:12 a	-16.8	-16.8	-16.9	---	---	3.5	NW	0.06	4.3	-21.6	---	---	725.8	0.024	0.000	19.4	2	1
03/29/06	6:13 a	-16.9	-16.9	-17.1	---	---	3.5	NW	0.06	4.3	-21.7	---	---	725.8	0.024	0.000	19.4	2	1
03/29/06	6:14 a	-17.1	-17.1	-17.2	---	---	4.3	NW	0.07	5.2	-22.8	---	---	725.8	0.025	0.000	19.4	2	1
03/29/06	6:15 a	-17.2	-17.2	-17.3	---	---	4.3	NW	0.07	5.2	-22.9	---	---	725.9	0.025	0.000	19.4	2	1
03/29/06	6:16 a	-17.4	-17.3	-17.4	---	---	4.3	NW	0.07	5.2	-23.1	---	---	725.9	0.025	0.000	19.4	1	1
03/29/06	6:17 a	-17.5	-17.5	-17.6	---	---	4.3	NW	0.07	5.2	-23.2	---	---	725.8	0.025	0.000	19.4	2	1
03/29/06	6:18 a	-17.7	-17.6	-17.7	---	---	3.5	NW	0.06	4.3	-22.6	---	---	725.7	0.025	0.000	19.4	2	1
03/29/06	6:19 a	-17.8	-17.8	-17.9	---	---	4.3	NW	0.07	4.3	-23.6	---	---	725.8	0.025	0.000	19.4	2	1
03/29/06	6:20 a	-17.9	-17.9	-18.0	---	---	4.3	NW	0.07	4.3	-23.8	---	---	725.8	0.025	0.000	19.4	2	1
03/29/06	6:21 a	-18.1	-18.1	-18.1	---	---	4.3	NW	0.07	5.2	-23.9	---	---	725.9	0.025	0.000	19.4	2	1
03/29/06	6:22 a	-18.2	-18.2	-18.3	---	---	4.3	NW	0.07	4.3	-24.1	---	---	725.9	0.025	0.000	19.4	2	1
03/29/06	6:23 a	-18.3	-18.3	-18.4	---	---	3.5	NW	0.06	5.2	-23.3	---	---	725.9	0.025	0.000	19.4	2	1
03/29/06	6:24 a	-18.4	-18.4	-18.5	---	---	4.3	NW	0.07	5.2	-24.3	---	---	725.9	0.026	0.000	19.4	1	1
03/29/06	6:25 a	-18.6	-18.5	-18.6	---	---	4.3	NW	0.07	5.2	-24.5	---	---	725.8	0.026	0.000	19.4	1	1
03/29/06	6:26 a	-18.7	-18.6	-18.7	---	---	4.3	NW	0.07	5.2	-24.6	---	---	725.9	0.026	0.000	19.4	2	1
03/29/06	6:27 a	-18.8	-18.7	-18.8	---	---	4.3	NW	0.07	5.2	-24.7	---	---	725.9	0.026	0.000	19.4	1	1
03/29/06	6:28 a	-18.9	-18.8	-18.9	---	---	3.5	NW	0.06	5.2	-23.9	---	---	725.9	0.026	0.000	19.4	2	1
03/29/06	6:29 a	-18.9	-18.9	-19.0	---	---	3.5	NW	0.06	4.3	-24.0	---	---	725.9	0.026	0.000	19.5	1	1
03/29/06	6:30 a	-19.1	-19.0	-19.1	---	---	4.3	NW	0.07	4.3	-25.1	---	---	725.9	0.026	0.000	19.5	2	1
03/29/06	6:31 a	-19.1	-19.1	-19.2	---	---	3.5	NW	0.06	4.3	-24.2	---	---	725.8	0.026	0.000	19.4	2	1
03/29/06	6:32 a	-19.2	-19.2	-19.2	---	---	3.5	NW	0.06	4.3	-24.3	---	---	725.8	0.026	0.000	19.4	1	1
03/29/06	6:33 a	-19.3	-19.3	-19.3	---	---	3.5	NW	0.06	4.3	-24.4	---	---	725.9	0.026	0.000	19.4	2	1
03/29/06	6:34 a	-19.3	-19.3	-19.4	---	---	3.5	NW	0.06	5.2	-24.4	---	---	725.9	0.026	0.000	19.4	2	1
03/29/06	6:35 a	-19.4	-19.4	-19.4	---	---	3.5	NW	0.06	4.3	-24.5	---	---	725.9	0.026	0.000	19.4	2	1
03/29/06	6:36 a	-19.5	-19.4	-19.5	---	---	3.5	NW	0.06	4.3	-24.7	---	---	725.9	0.026	0.000	19.4	2	1
03/29/06	6:37 a	-19.5	-19.5	-19.6	---	---	3.5	NW	0.06	4.3	-24.7	---	---	725.8	0.026	0.000	19.4	2	1
03/29/06	6:38 a	-19.6	-19.6	-19.6	---	---	3.5	NW	0.06	4.3	-24.7	---	---	725.8	0.026	0.000	19.4	2	1
03/29/06	6:39 a	-19.6	-19.6	-19.7	---	---	4.3	NW	0.07	5.2	-25.7	---	---	725.8	0.026	0.000	19.4	1	1
03/29/06	6:40 a	-19.7	-19.7	-19.7	---	---	4.3	NW	0.07	5.2	-25.8	---	---	725.9	0.026	0.000	19.4	2	1
03/29/06	6:41 a	-19.7	-19.7	-19.8	---	---	4.3	NW	0.07	5.2	-25.8	---	---	725.9	0.026	0.000	19.4	2	1
03/29/06	6:42 a	-19.8	-19.8	-19.8	---	---	4.3	NW	0.07	5.2	-25.9	---	---	725.8	0.026	0.000	19.4	1	1
03/29/06	6:43 a	-19.8	-19.8	-19.9	---	---	4.3	NW	0.07	4.3	-26.0	---	---	725.9	0.027	0.000	19.4	2	1
03/29/06	6:44 a	-19.9	-19.9	-19.9	---	---	4.3	NW	0.07	5.2	-26.1	---	---	725.8	0.027	0.000	19.4	2	1
03/29/06	6:45 a	-19.9	-19.9	-19.9	---	---	4.3	NW	0.07	5.2	-26.1	---	---	725.9	0.027	0.000	19.4	1	1
03/29/06	6:46 a	-20.0	-19.9	-20.1	---	---	4.3	NW	0.07	5.2	-26.2	---	---	725.8	0.027	0.000	19.4	2	1
03/29/06	6:47 a	-20.1	-20.0	-20.1	---	---	3.5	NW	0.06	4.3	-25.3	---	---	725.9	0.027	0.000	19.4	2	1
03/29/06	6:48 a	-20.1	-20.1	-20.1	---	---	3.5	NW	0.06	4.3	-25.3	---	---	725.9	0.027	0.000	19.4	1	1
03/29/06	6:49 a	-20.1	-20.1	-20.2	---	---	4.3	NW	0.07	4.3	-26.3	---	---	725.9	0.027	0.000	19.4	1	1
03/29/06	6:50 a	-20.2	-20.2	-20.2	---	---	3.5	NW	0.06	4.3	-25.5	---	---	725.9	0.027	0.000	19.4	1	1
03/29/06	6:51 a	-20.2	-20.2	-20.3	---	---	5.2	NW	0.09	6.1	-27.2	---	---	725.8	0.027	0.000	19.4	1	1
03/29/06	6:52 a	-20.2	-20.2	-20.3	---	---	4.3	NW	0.07	5.2	-26.4	---	---	725.9	0.027	0.000	19.4	2	1
03/29/06	6:53 a	-20.3	-20.2	-20.3	---	---	5.2	NW	0.09	6.1	-27.3	---	---	725.9	0.027	0.000	19.4	2	1
03/29/06	6:54 a	-20.3	-20.3	-20.3	---	---	5.2	NW	0.09	5.2	-27.4	---	---	725.9	0.027	0.000	19.4	1	1
03/29/06	6:55 a	-20.3	-20.3	-20.4	---	---	5.2	NW	0.09	5.2	-27.4	---	---	725.9	0.027	0.000	19.4	2	1
03/29/06	6:56 a	-20.4	-20.4	-20.4	---	---	4.3	NW	0.07	5.2	-26.6	---	---	725.9	0.027	0.000	19.4	2	1
03/29/06	6:57 a	-20.4	-20.4	-20.4	---	---	3.5	NW	0.06	5.2	-25.7	---	---	725.9	0.027	0.000	19.4	1	1
03/29/06	6:58 a	-20.4	-20.4	-20.4	---	---	4.3	NW	0.07	5.2	-26.7	---	---	725.9	0.027	0.000	19.4	1	1
03/29/06	6:59 a	-20.4	-20.4	-20.4	---	---	5.2	NW	0.09	6.1	-27.5	---	---	725.9	0.027	0.000	19.4	2	1
03/29/06	7:00 a	-20.4	-20.4	-20.5	---	---	4.3	NW	0.07	5.2	-26.7	---	---	725.9	0.027	0.000	19.4	1	1
03/29/06	7:01 a	-20.5	-20.4	-20.6	---	---	5.2	NW	0.09	6.1	-27.6	---	---	725.9	0.027	0.000	19.4	1	1
03/29/06	7:02 a	-20.6	-20.5	-20.6	---	---	5.2	NW	0.09	5.2	-27.6	---	---	725.9	0.027	0.000	19.4	2	1
03/29/06	7:03 a	-20.6	-20.6	-20.6	---	---	4.3	NW	0.07	5.2	-26.8	---	---	725.9	0.027	0.000	19.4	1	1
03/29/06	7:04 a	-20.6	-20.6	-20.6	---	---	5.2	NW	0.09	6.1	-27.7	---	---	725.9	0.027	0.000	19.4	2	1
03/29/06	7:05 a	-20.6	-20.6	-20.7	---	---	4.3	NW	0.07	5.2	-26.9	---	---	725.9	0.027	0.000	19.4	1	1
03/29/06	7:06 a	-20.7	-20.6	-20.7	---	---	4.3	NW	0.07	5.2	-26.9	---	---	725.9	0.027	0.000	19.4	1	1
03/29/06	7:07 a	-20.7	-20.7	-20.7	---	---	4.3	NW	0.07	5.2	-26.9	---	---	725.9	0.027	0.000	19.4	1	1
03/29/06	7:08 a	-20.7	-20.7	-20.7	---	---	4.3	NW	0.07	5.2	-26.9	---	---	725.9	0.027	0.000	19.4	1	1
03/29/06	7:09 a	-20.7	-20.7	-20.7	---	---	4.3	NW	0.07	5.2	-26.9	---	---	726.0	0.027	0.000	19.4	2	1
03/29/06	7:10 a	-20.7	-20.7	-20.7	---	---	3.5	NW	0.06	5.2	-26.1	---	---	725.9	0.027	0.000	19.4	1	1
03/29/06	7:11 a	-20.7	-20.7	-20.7	---	---	2.6	NW	0.04	3.5	-24.9	---	---	726.0	0.027	0.000	19.4	1	1
03/29/06	7:12 a	-20.8	-20.7	-20.8	---	---	3.5	NW	0.06	4.3	-26.1	---	---	726.0	0.027	0.000	19.4	1	1
03/29/06	7:13 a	-20.8	-20.8	-20.8	---	---	3.5	NW	0.06	4.3	-26.1	---	---	726.0	0.027	0.000	19.4	2	1
03/29/06	7:14 a	-20.8	-20.8	-20.8	---	---	4.3	NW	0.07	4.3	-27.2	---	---	726.0	0.027	0.000	19.4	1	1
03/29/06	7:15 a	-20.8	-20.8	-20.8	---	---	5.2	NW	0.09	6.1	-27.9	---	---	726.0	0.027	0.000	19.4	1	1
03/29/06	7:16 a	-20.8	-20.8	-20.9	---	---	4.3	NW	0.07	5.2	-27.2	---	---	726.0	0.027	0.000	19.4	1	1
03/29/06	7:17 a	-20.9	-20.8	-20.9	---	---	3.5	NW	0.06	4.3	-26.3	---	---	726.0	0.027	0.000	19.4	1	1
03/29/06	7:18 a	-20.8	-20.8	-20.9	---	---	4.3	NW	0.07	5.2	-27.2	---	---	726.0	0.027	0.000	19.4	1	1
03/29/06	7:19 a	-20.9	-20.9	-20.9	---	---	4.3	NW	0.07	5.2	-27.2	---	---	726.0	0.027	0.000	19.4	2	1
03/29/06	7:20 a	-20.9	-20.9	-20.9	---	---	4.3	NW	0.07	5.2	-27.2	---	---	726.0	0.027	0.000	19.4	1	1
03/29/06	7:21 a	-20.9	-20.9	-20.9	---	---	6.1	NW	0.10	7.0	-28.8	---	---	726.0	0.027	0.000	19.4	1	1
03/29/06	7:22 a	-20.9	-20.9	-20.9	---	---	4.3	NW	0.07	5.2	-27.3	---	---	726.0	0.027	0.000	19.4	2	1
03/29/06	7:23 a	-20.9	-20.9	-20.9	---	---	3.5	NW	0.06	4.3	-26.3	---	---	726.1	0.027	0.000	19.4	2	1
03/29/06	7:24 a	-20.9	-20.9	-21.0	---	---	2.6	NW	0.04	3.5	-25.1	---	---	726.1	0.027	0.000	19.4	1	1
03/29/06	7:25 a	-21.0	-20.9	-21.0	---	---	3.5	NW	0.06	4.3	-26.4	---	---	726.1	0.027	0.000	19.4	2	1
03/29/06	7:26 a	-20.9	-20.9	-21.0	---	---	4.3	NW	0.07	5.2	-27.3	---	---	726.1	0.027	0.000	19.4	2	1
03/29/06	7:27 a	-21.0	-20.9	-21.0	---	---	5.2	NW	0.09	6.1	-28.2	---	---	726.0	0.027	0.000	19.4	1	1
03/29/06	7:28 a	-21.0	-21.0	-21.0	---	---	4.3	NW	0.07	5.2	-27.3	---	---	726.1	0.027	0.000	19.4	2	1
03/29/06	7:29 a	-21.0	-21.0	-21.1	---	---	3.5	NW	0.06	5.2	-26.4	---	---	726.0	0.027	0.000	19.4	2	1
03/29/06	7:30 a	-21.0	-21.0	-21.0	---	---	4.3	NW	0.07	4.3	-27.3	---	---	726.1	0.027	0.000	19.4	2	1
03/29/06	7:31 a	-21.0	-21.0	-21.1	---	---	4.3	NW	0.07	5.2	-27.3	---	---	726.1	0.027	0.000	19.4	1	1
03/29/06	7:32 a	-21.1	-21.0	-21.1	---	---	3.5	NW	0.06	5.2	-26.4	---	---	726.0	0.027	0.000	19.4	2	1
03/29/06	7:33 a	-21.1	-21.1	-21.1	---	---	4.3	NW	0.07	6.1	-27.4	---	---	726.0	0.027	0.000	19.4	1	1
03/29/06	7:34 a	-21.1	-21.1	-21.1	---	---	4.3	NW	0.07	6.1	-27.4	---	---	726.1	0.027	0.000	19.4	1	1
03/29/06	7:35 a	-21.1	-21.1	-21.1	---	---	4.3	NW	0.07	5.2	-27.4	---	---	726.1	0.027	0.000	19.4	2	1
03/29/06	7:36 a	-21.1	-21.1	-21.1	---	---	4.3	NW	0.07	5.2	-27.5	---	---	726.0	0.027	0.000	19.3	2	1
03/29/06	7:37 a	-21.1	-21.1	-21.1	---	---	4.3	NW	0.07	5.2	-27.5	---	---	726.1	0.027	0.000	19.3	1	1
03/29/06	7:38 a	-21.1	-21.1	-21.1	---	---	4.3	NW	0.07	5.2	-27.4	---	---	726.0	0.027	0.000	19.3	1	1
03/29/06	7:39 a	-21.1	-21.1	-21.1	---	---	5.2	NW	0.09	6.1	-28.3	---	---	726.0	0.027	0.000	19.3	1	1
03/29/06	7:40 a	-21.1	-21.1	-21.2	---	---	4.3	NW	0.07	5.2	-27.5	---	---	725.9	0.027	0.000	19.3	1	1
03/29/06	7:41 a	-21.2	-21.1	-21.2	---	---	4.3	NW	0.07	5.2	-27.6	---	---	725.9	0.027	0.000	19.3	1	1
03/29/06	7:42 a	-21.2	-21.1	-21.2	---	---	4.3	NW	0.07	5.2	-27.6	---	---	725.9	0.027	0.000	19.3	1	1
03/29/06	7:43 a	-21.1	-21.1	-21.2	---	---	5.2	NW	0.09	6.1	-28.3	---	---	725.9	0.027	0.000	19.3	2	1
03/29/06	7:44 a	-21.2	-21.2	-21.2	---	---	5.2	NW	0.09	6.1	-28.3	---	---	726.0	0.027	0.000	19.3	1	1
03/29/06	7:45 a	-21.2	-21.2	-21.2	---	---	5.2	NW	0.09	6.1	-28.3	---	---	725.9	0.027	0.000	19.3	1	1
03/29/06	7:46 a	-21.2	-21.2	-21.2	---	---	4.3	NW	0.07	5.2	-27.6	---	---	725.9	0.027	0.000	19.3	2	1
03/29/06	7:47 a	-21.2	-21.2	-21.2	---	---	5.2	NW	0.09	6.1	-28.3	---	---	725.9	0.027	0.000	19.3	1	1
03/29/06	7:48 a	-21.2	-21.2	-21.2	---	---	6.1	NW	0.10	7.0	-29.1	---	---	725.9	0.027	0.000	19.3	1	1
03/29/06	7:49 a	-21.2	-21.2	-21.2	---	---	6.1	NW	0.10	6.1	-29.1	---	---	725.9	0.027	0.000	19.3	1	1
03/29/06	7:50 a	-21.2	-21.2	-21.2	---	---	6.1	NW	0.10	7.0	-29.1	---	---	726.0	0.027	0.000	19.3	1	1
03/29/06	7:51 a	-21.2	-21.2	-21.2	---	---	5.2	NW	0.09	6.1	-28.3	---	---	725.9	0.027	0.000	19.3	1	1
03/29/06	7:52 a	-21.2	-21.2	-21.2	---	---	5.2	NW	0.09	6.1	-28.4	---	---	725.9	0.027	0.000	19.3	1	1
03/29/06	7:53 a	-21.2	-21.2	-21.2	---	---	6.1	NW	0.10	6.1	-29.1	---	---	725.9	0.027	0.000	19.3	1	1
03/29/06	7:54 a	-21.2	-21.2	-21.2	---	---	6.1	NW	0.10	7.0	-29.1	---	---	725.9	0.027	0.000	19.3	1	1
03/29/06	7:55 a	-21.2	-21.2	-21.2	---	---	6.1	NW	0.10	7.0	-29.1	---	---	725.9	0.027	0.000	19.3	1	1
03/29/06	7:56 a	-21.2	-21.2	-21.2	---	---	6.1	NW	0.10	7.0	-29.1	---	---	725.8	0.027	0.000	19.3	1	1
03/29/06	7:57 a	-21.2	-21.2	-21.2	---	---	6.1	NW	0.10	7.8	-29.1	---	---	725.9	0.027	0.000	19.3	1	1
03/29/06	7:58 a	-21.2	-21.2	-21.2	---	---	6.1	NW	0.10	7.0	-29.1	---	---	725.9	0.027	0.000	19.3	1	1
03/29/06	7:59 a	-21.2	-21.2	-21.2	---	---	6.1	NW	0.10	7.8	-29.1	---	---	725.9	0.027	0.000	19.3	1	1
03/29/06	8:00 a	-21.2	-21.2	-21.2	---	---	6.1	NW	0.10	7.8	-29.1	---	---	725.9	0.027	0.000	19.3	1	1
03/29/06	8:01 a	-21.2	-21.1	-21.2	---	---	7.0	NW	0.12	7.8	-29.7	---	---	725.8	0.027	0.000	19.3	1	1
03/29/06	8:02 a	-21.2	-21.1	-21.2	---	---	7.8	NW	0.13	8.7	-30.3	---	---	725.9	0.027	0.000	19.3	1	1
03/29/06	8:03 a	-21.2	-21.1	-21.2	---	---	7.0	NW	0.12	7.8	-29.7	---	---	725.8	0.027	0.000	19.3	1	1
03/29/06	8:04 a	-21.1	-21.1	-21.1	---	---	7.8	NW	0.13	8.7	-30.2	---	---	725.8	0.027	0.000	19.3	1	1
03/29/06	8:05 a	-21.1	-21.1	-21.1	---	---	7.8	NW	0.13	8.7	-30.2	---	---	725.8	0.027	0.000	19.3	1	1
03/29/06	8:06 a	-21.1	-21.1	-21.1	---	---	8.7	NW	0.14	9.6	-30.7	---	---	725.9	0.027	0.000	19.3	1	1
03/29/06	8:07 a	-21.1	-21.1	-21.1	---	---	7.8	NW	0.13	8.7	-30.1	---	---	725.8	0.027	0.000	19.3	1	1
03/29/06	8:08 a	-21.1	-21.1	-21.1	---	---	7.8	NW	0.13	8.7	-30.1	---	---	725.8	0.027	0.000	19.3	1	1
03/29/06	8:09 a	-21.0	-21.0	-21.1	---	---	7.8	NNW	0.13	8.7	-30.1	---	---	725.8	0.027	0.000	19.3	1	1
03/29/06	8:10 a	-21.0	-21.0	-21.1	---	---	7.8	NNW	0.13	8.7	-30.1	---	---	725.8	0.027	0.000	19.3	1	1
03/29/06	8:11 a	-20.9	-20.9	-21.0	---	---	7.8	NNW	0.13	8.7	-30.0	---	---	725.8	0.027	0.000	19.3	1	1
03/29/06	8:12 a	-20.9	-20.9	-21.0	---	---	7.8	NNW	0.13	10.4	-30.0	---	---	725.9	0.027	0.000	19.3	1	1
03/29/06	8:13 a	-20.9	-20.9	-20.9	---	---	7.8	NW	0.13	8.7	-30.0	---	---	725.9	0.027	0.000	19.3	1	1
03/29/06	8:14 a	-20.8	-20.8	-20.9	---	---	7.8	NW	0.13	10.4	-29.8	---	---	725.9	0.027	0.000	19.3	1	1
03/29/06	8:15 a	-20.8	-20.8	-20.8	---	---	8.7	NNW	0.14	9.6	-30.4	---	---	725.8	0.027	0.000	19.3	1	1
03/29/06	8:16 a	-20.8	-20.8	-20.8	---	---	8.7	NNW	0.14	9.6	-30.4	---	---	725.8	0.027	0.000	19.2	1	1
03/29/06	8:17 a	-20.8	-20.8	-20.8	---	---	8.7	NW	0.14	9.6	-30.3	---	---	725.8	0.027	0.000	19.2	1	1
03/29/06	8:18 a	-20.7	-20.7	-20.7	---	---	9.6	NNW	0.16	10.4	-30.7	---	---	725.8	0.027	0.000	19.2	1	1
03/29/06	8:19 a	-20.7	-20.6	-20.7	---	---	8.7	NNW	0.14	9.6	-30.2	---	---	725.8	0.027	0.000	19.2	1	1
03/29/06	8:20 a	-20.6	-20.6	-20.7	---	---	8.7	NW	0.14	9.6	-30.1	---	---	725.8	0.027	0.000	19.2	1	1
03/29/06	8:21 a	-20.6	-20.6	-20.6	---	---	8.7	NW	0.14	9.6	-30.1	---	---	725.9	0.027	0.000	19.2	1	1
03/29/06	8:22 a	-20.6	-20.6	-20.6	---	---	7.8	NW	0.13	9.6	-29.5	---	---	725.9	0.027	0.000	19.2	1	1
03/29/06	8:23 a	-20.6	-20.5	-20.6	---	---	8.7	NW	0.14	9.6	-30.0	---	---	725.8	0.027	0.000	19.2	1	1
03/29/06	8:24 a	-20.5	-20.4	-20.6	---	---	7.8	NW	0.13	9.6	-29.4	---	---	725.8	0.027	0.000	19.2	1	1
03/29/06	8:25 a	-20.4	-20.4	-20.4	---	---	8.7	NW	0.14	9.6	-29.9	---	---	725.9	0.027	0.000	19.2	1	1
03/29/06	8:26 a	-20.4	-20.4	-20.4	---	---	7.8	NW	0.13	10.4	-29.4	---	---	725.8	0.027	0.000	19.2	1	1
03/29/06	8:27 a	-20.4	-20.4	-20.4	---	---	7.8	NW	0.13	7.8	-29.3	---	---	726.0	0.027	0.000	19.2	1	1
03/29/06	8:28 a	-20.4	-20.4	-20.4	---	---	7.8	NW	0.13	8.7	-29.3	---	---	725.8	0.027	0.000	19.2	1	1
03/29/06	8:29 a	-20.4	-20.4	-20.4	---	---	7.0	NW	0.12	8.7	-28.7	---	---	725.9	0.027	0.000	19.2	1	1
03/29/06	8:30 a	-20.4	-20.4	-20.4	---	---	7.8	NW	0.13	8.7	-29.3	---	---	725.9	0.027	0.000	19.2	1	1
03/29/06	8:31 a	-20.3	-20.3	-20.4	---	---	7.8	NW	0.13	8.7	-29.2	---	---	725.8	0.027	0.000	19.2	1	1
03/29/06	8:32 a	-20.4	-20.3	-20.4	---	---	9.6	NW	0.16	11.3	-30.3	---	---	725.9	0.027	0.000	19.1	1	1
03/29/06	8:33 a	-20.3	-20.3	-20.4	---	---	9.6	NW	0.16	10.4	-30.2	---	---	725.9	0.027	0.000	19.1	1	1
03/29/06	8:34 a	-20.3	-20.3	-20.3	---	---	8.7	NW	0.14	9.6	-29.7	---	---	725.8	0.027	0.000	19.2	1	1
03/29/06	8:35 a	-20.3	-20.3	-20.3	---	---	8.7	NW	0.14	10.4	-29.7	---	---	725.9	0.027	0.000	19.2	1	1
03/29/06	8:36 a	-20.3	-20.3	-20.3	---	---	9.6	NW	0.16	10.4	-30.2	---	---	725.8	0.027	0.000	19.1	1	1
03/29/06	8:37 a	-20.3	-20.2	-20.3	---	---	10.4	NW	0.17	11.3	-30.6	---	---	725.8	0.027	0.000	19.1	1	1
03/29/06	8:38 a	-20.3	-20.3	-20.3	---	---	10.4	NW	0.17	11.3	-30.6	---	---	725.9	0.027	0.000	19.1	1	1
03/29/06	8:39 a	-20.3	-20.2	-20.3	---	---	9.6	NNW	0.16	10.4	-30.1	---	---	725.9	0.027	0.000	19.1	1	1
03/29/06	8:40 a	-20.2	-20.2	-20.3	---	---	8.7	NNW	0.14	10.4	-29.6	---	---	725.8	0.027	0.000	19.1	1	1
03/29/06	8:41 a	-20.2	-20.2	-20.2	---	---	9.6	NW	0.16	11.3	-30.1	---	---	725.8	0.027	0.000	19.1	1	1
03/29/06	8:42 a	-20.2	-20.2	-20.2	---	---	9.6	NNW	0.16	11.3	-30.1	---	---	725.9	0.027	0.000	19.1	1	1
03/29/06	8:43 a	-20.2	-20.2	-20.2	---	---	9.6	NNW	0.16	11.3	-30.0	---	---	725.9	0.027	0.000	19.1	1	1
03/29/06	8:44 a	-20.2	-20.1	-20.2	---	---	8.7	NW	0.14	9.6	-29.6	---	---	725.8	0.027	0.000	19.1	1	1
03/29/06	8:45 a	-20.1	-20.1	-20.1	---	---	9.6	NW	0.16	10.4	-29.8	---	---	725.9	0.027	0.000	19.1	1	1
03/29/06	8:46 a	-20.1	-20.1	-20.1	---	---	9.6	NW	0.16	10.4	-29.8	---	---	725.8	0.027	0.000	19.1	1	1
03/29/06	8:47 a	-20.1	-20.0	-20.1	---	---	8.7	NW	0.14	10.4	-29.4	---	---	725.9	0.027	0.000	19.1	1	1
03/29/06	8:48 a	-20.1	-20.0	-20.1	---	---	8.7	NW	0.14	9.6	-29.4	---	---	725.8	0.027	0.000	19.1	1	1
03/29/06	8:49 a	-20.1	-20.0	-20.1	---	---	9.6	NNW	0.16	11.3	-29.8	---	---	725.8	0.027	0.000	19.1	1	1
03/29/06	8:50 a	-20.0	-20.0	-20.1	---	---	8.7	NNW	0.14	9.6	-29.3	---	---	725.9	0.027	0.000	19.1	1	1
03/29/06	8:51 a	-20.0	-20.0	-20.1	---	---	8.7	NNW	0.14	10.4	-29.3	---	---	725.8	0.027	0.000	19.1	1	1
03/29/06	8:52 a	-20.1	-20.0	-20.1	---	---	8.7	NW	0.14	9.6	-29.4	---	---	725.9	0.027	0.000	19.1	1	1
03/29/06	8:53 a	-20.0	-20.0	-20.1	---	---	7.8	NW	0.13	8.7	-28.8	---	---	725.8	0.027	0.000	19.1	1	1
03/29/06	8:54 a	-20.1	-20.0	-20.1	---	---	7.8	NW	0.13	7.8	-28.9	---	---	726.0	0.027	0.000	19.1	1	1
03/29/06	8:55 a	-20.1	-20.1	-20.1	---	---	7.8	NW	0.13	9.6	-28.9	---	---	725.9	0.027	0.000	19.1	1	1
03/29/06	8:56 a	-20.1	-20.1	-20.1	---	---	7.8	NW	0.13	9.6	-28.9	---	---	725.9	0.027	0.000	19.1	1	1
03/29/06	8:57 a	-20.1	-20.1	-20.1	---	---	8.7	NW	0.14	9.6	-29.4	---	---	725.9	0.027	0.000	19.1	1	1
03/29/06	8:58 a	-20.1	-20.1	-20.1	---	---	8.7	NW	0.14	10.4	-29.4	---	---	725.8	0.027	0.000	19.1	1	1
03/29/06	8:59 a	-20.1	-20.1	-20.2	---	---	9.6	NW	0.16	9.6	-29.9	---	---	725.8	0.027	0.000	19.1	1	1
03/29/06	9:00 a	-20.2	-20.2	-20.2	---	---	9.6	NNW	0.16	10.4	-30.0	---	---	725.8	0.027	0.000	19.1	1	1
03/29/06	9:01 a	-20.2	-20.2	-20.2	---	---	8.7	NNW	0.14	10.4	-29.6	---	---	725.8	0.027	0.000	19.1	1	1
03/29/06	9:02 a	-20.2	-20.2	-20.2	---	---	8.7	NNW	0.14	10.4	-29.6	---	---	725.8	0.027	0.000	19.1	1	1
03/29/06	9:03 a	-20.2	-20.2	-20.2	---	---	8.7	NNW	0.14	9.6	-29.6	---	---	725.8	0.027	0.000	19.1	1	1
03/29/06	9:04 a	-20.2	-20.2	-20.3	---	---	10.4	NNW	0.17	12.2	-30.5	---	---	725.8	0.027	0.000	19.1	1	1
03/29/06	9:05 a	-20.2	-20.2	-20.3	---	---	10.4	NW	0.17	11.3	-30.5	---	---	725.7	0.027	0.000	19.1	1	1
03/29/06	9:06 a	-20.3	-20.2	-20.3	---	---	9.6	NNW	0.16	10.4	-30.1	---	---	725.8	0.027	0.000	19.1	1	1
03/29/06	9:07 a	-20.2	-20.2	-20.3	---	---	8.7	NNW	0.14	10.4	-29.6	---	---	725.8	0.027	0.000	19.1	1	1
03/29/06	9:08 a	-20.2	-20.2	-20.2	---	---	10.4	NNW	0.17	11.3	-30.5	---	---	725.8	0.027	0.000	19.1	1	1
03/29/06	9:09 a	-20.2	-20.2	-20.2	---	---	9.6	NNW	0.16	11.3	-30.1	---	---	725.9	0.027	0.000	19.1	1	1
03/29/06	9:10 a	-20.2	-20.2	-20.2	---	---	9.6	NNW	0.16	12.2	-30.1	---	---	725.8	0.027	0.000	19.1	1	1
03/29/06	9:11 a	-20.2	-20.2	-20.2	---	---	9.6	NNW	0.16	10.4	-30.0	---	---	725.7	0.027	0.000	19.1	1	1
03/29/06	9:12 a	-20.2	-20.2	-20.2	---	---	9.6	NNW	0.16	12.2	-30.0	---	---	725.7	0.027	0.000	19.0	1	1
03/29/06	9:13 a	-20.2	-20.2	-20.2	---	---	10.4	NNW	0.17	10.4	-30.4	---	---	725.8	0.027	0.000	19.0	1	1
03/29/06	9:14 a	-20.2	-20.2	-20.2	---	---	10.4	NNW	0.17	11.3	-30.4	---	---	725.8	0.027	0.000	19.0	1	1
03/29/06	9:15 a	-20.2	-20.2	-20.2	---	---	10.4	NNW	0.17	12.2	-30.4	---	---	725.7	0.027	0.000	19.0	1	1
03/29/06	9:16 a	-20.2	-20.1	-20.2	---	---	9.6	NNW	0.16	11.3	-30.0	---	---	725.8	0.027	0.000	19.0	1	1
03/29/06	9:17 a	-20.1	-20.1	-20.2	---	---	9.6	NNW	0.16	11.3	-29.9	---	---	725.6	0.027	0.000	19.0	1	1
03/29/06	9:18 a	-20.1	-20.1	-20.1	---	---	10.4	NNW	0.17	12.2	-30.3	---	---	725.6	0.027	0.000	18.9	1	1
03/29/06	9:19 a	-20.1	-20.1	-20.2	---	---	10.4	NW	0.17	12.2	-30.3	---	---	725.7	0.027	0.000	18.9	1	1
03/29/06	9:20 a	-20.1	-20.1	-20.1	---	---	11.3	NNW	0.19	13.0	-30.8	---	---	725.7	0.027	0.000	18.9	1	1
03/29/06	9:21 a	-20.1	-20.1	-20.1	---	---	10.4	NW	0.17	13.0	-30.3	---	---	725.6	0.027	0.000	18.9	1	1
03/29/06	9:22 a	-20.1	-20.1	-20.1	---	---	11.3	NNW	0.19	13.0	-30.7	---	---	725.7	0.027	0.000	18.9	1	1
03/29/06	9:23 a	-20.1	-20.1	-20.1	---	---	10.4	NW	0.17	13.0	-30.3	---	---	725.6	0.027	0.000	18.9	1	1
03/29/06	9:24 a	-20.1	-20.1	-20.1	---	---	10.4	NW	0.17	13.0	-30.3	---	---	725.7	0.027	0.000	18.9	1	1
03/29/06	9:25 a	-20.1	-20.1	-20.1	---	---	9.6	NNW	0.16	10.4	-29.8	---	---	725.6	0.027	0.000	18.9	1	1
03/29/06	9:26 a	-20.1	-20.0	-20.1	---	---	10.4	NW	0.17	13.0	-30.3	---	---	725.7	0.027	0.000	18.9	1	1
03/29/06	9:27 a	-20.0	-20.0	-20.1	---	---	11.3	NW	0.19	13.9	-30.6	---	---	725.7	0.027	0.000	18.9	1	1
03/29/06	9:28 a	-20.1	-20.0	-20.1	---	---	9.6	NW	0.16	11.3	-29.8	---	---	725.8	0.027	0.000	18.9	1	1
03/29/06	9:29 a	-20.0	-20.0	-20.0	---	---	10.4	NNW	0.17	13.0	-30.2	---	---	725.7	0.027	0.000	18.9	1	1
03/29/06	9:30 a	-20.0	-20.0	-20.1	---	---	8.7	NNW	0.14	10.4	-29.3	---	---	725.7	0.027	0.000	18.9	1	1
03/29/06	9:31 a	-20.0	-20.0	-20.0	---	---	8.7	NW	0.14	11.3	-29.3	---	---	725.6	0.027	0.000	18.9	1	1
03/29/06	9:32 a	-20.0	-20.0	-20.0	---	---	8.7	NW	0.14	9.6	-29.3	---	---	725.6	0.027	0.000	18.9	1	1
03/29/06	9:33 a	-19.9	-19.9	-20.0	---	---	10.4	NW	0.17	12.2	-30.2	---	---	725.7	0.027	0.000	18.9	1	1
03/29/06	9:34 a	-20.0	-19.9	-20.0	---	---	9.6	NNW	0.16	10.4	-29.8	---	---	725.7	0.027	0.000	18.9	1	1
03/29/06	9:35 a	-20.0	-19.9	-20.0	---	---	10.4	NNW	0.17	12.2	-30.2	---	---	725.6	0.027	0.000	18.9	1	1
03/29/06	9:36 a	-19.9	-19.9	-19.9	---	---	11.3	NNW	0.19	12.2	-30.6	---	---	725.6	0.027	0.000	18.9	1	1
03/29/06	9:37 a	-19.9	-19.9	-19.9	---	---	10.4	NNW	0.17	12.2	-30.2	---	---	725.7	0.027	0.000	18.9	1	1
03/29/06	9:38 a	-19.9	-19.9	-19.9	---	---	9.6	NNW	0.16	11.3	-29.7	---	---	725.6	0.027	0.000	18.9	1	1
03/29/06	9:39 a	-19.9	-19.9	-19.9	---	---	7.8	NNW	0.13	10.4	-28.8	---	---	725.7	0.027	0.000	18.9	1	1
03/29/06	9:40 a	-19.9	-19.9	-19.9	---	---	8.7	NNW	0.14	9.6	-29.2	---	---	725.6	0.027	0.000	18.9	1	1
03/29/06	9:41 a	-19.9	-19.9	-19.9	---	---	8.7	NNW	0.14	10.4	-29.3	---	---	725.7	0.027	0.000	18.9	1	1
03/29/06	9:42 a	-19.9	-19.9	-19.9	---	---	7.8	NNW	0.13	9.6	-28.7	---	---	725.6	0.027	0.000	18.9	1	1
03/29/06	9:43 a	-19.9	-19.9	-19.9	---	---	8.7	NNW	0.14	10.4	-29.2	---	---	725.6	0.027	0.000	18.9	1	1
03/29/06	9:44 a	-19.9	-19.8	-19.9	---	---	9.6	NW	0.16	10.4	-29.7	---	---	725.7	0.027	0.000	18.9	1	1
03/29/06	9:45 a	-19.9	-19.8	-19.9	---	---	9.6	NNW	0.16	11.3	-29.7	---	---	725.6	0.027	0.000	18.9	1	1
03/29/06	9:46 a	-19.9	-19.9	-19.9	---	---	8.7	NNW	0.14	9.6	-29.2	---	---	725.6	0.027	0.000	18.9	1	1
03/29/06	9:47 a	-19.8	-19.8	-19.9	---	---	8.7	NW	0.14	10.4	-29.1	---	---	725.6	0.027	0.000	18.9	1	1
03/29/06	9:48 a	-19.9	-19.8	-19.9	---	---	11.3	NW	0.19	13.0	-30.5	---	---	725.5	0.027	0.000	18.9	1	1
03/29/06	9:49 a	-19.9	-19.8	-19.9	---	---	11.3	NW	0.19	13.0	-30.5	---	---	725.6	0.027	0.000	18.9	1	1
03/29/06	9:50 a	-19.9	-19.8	-19.9	---	---	12.2	NNW	0.20	14.8	-30.8	---	---	725.6	0.027	0.000	18.9	1	1
03/29/06	9:51 a	-19.8	-19.8	-19.8	---	---	9.6	NW	0.16	12.2	-29.6	---	---	725.6	0.027	0.000	18.9	1	1
03/29/06	9:52 a	-19.8	-19.8	-19.9	---	---	9.6	NW	0.16	12.2	-29.6	---	---	725.6	0.027	0.000	18.9	1	1
03/29/06	9:53 a	-19.8	-19.8	-19.8	---	---	7.8	NW	0.13	9.6	-28.6	---	---	725.6	0.027	0.000	18.9	1	1
03/29/06	9:54 a	-19.8	-19.8	-19.8	---	---	7.8	NNW	0.13	9.6	-28.6	---	---	725.6	0.027	0.000	18.9	1	1
03/29/06	9:55 a	-19.8	-19.8	-19.8	---	---	8.7	NNW	0.14	9.6	-29.1	---	---	725.6	0.027	0.000	18.9	1	1
03/29/06	9:56 a	-19.8	-19.8	-19.8	---	---	9.6	NW	0.16	11.3	-29.6	---	---	725.6	0.027	0.000	18.9	1	1
03/29/06	9:57 a	-19.8	-19.8	-19.8	---	---	12.2	NW	0.20	13.0	-30.8	---	---	725.5	0.027	0.000	18.9	1	1
03/29/06	9:58 a	-19.8	-19.8	-19.9	---	---	11.3	NW	0.19	13.0	-30.4	---	---	725.6	0.027	0.000	18.9	1	1
03/29/06	9:59 a	-19.8	-19.8	-19.8	---	---	10.4	NNW	0.17	11.3	-30.0	---	---	725.6	0.027	0.000	18.9	1	1
03/29/06	10:00 a	-19.9	-19.8	-19.9	---	---	9.6	NW	0.16	11.3	-29.7	---	---	725.6	0.027	0.000	18.9	1	1
03/29/06	10:01 a	-19.9	-19.8	-19.9	---	---	9.6	NW	0.16	10.4	-29.7	---	---	725.6	0.027	0.000	18.9	1	1
03/29/06	10:02 a	-19.8	-19.8	-19.9	---	---	11.3	NW	0.19	12.2	-30.4	---	---	725.6	0.027	0.000	18.9	1	1
03/29/06	10:03 a	-19.9	-19.8	-19.9	---	---	13.0	NW	0.22	15.7	-31.2	---	---	725.6	0.027	0.000	18.9	1	1
03/29/06	10:04 a	-19.9	-19.9	-19.9	---	---	13.0	NW	0.22	14.8	-31.2	---	---	725.4	0.027	0.000	18.8	1	1
03/29/06	10:05 a	-19.9	-19.9	-19.9	---	---	9.6	NNW	0.16	12.2	-29.7	---	---	725.6	0.027	0.000	18.8	1	1
03/29/06	10:06 a	-19.9	-19.9	-19.9	---	---	9.6	NNW	0.16	11.3	-29.7	---	---	725.5	0.027	0.000	18.8	1	1
03/29/06	10:07 a	-19.9	-19.9	-19.9	---	---	9.6	NNW	0.16	10.4	-29.7	---	---	725.6	0.027	0.000	18.8	1	1
03/29/06	10:08 a	-19.9	-19.9	-19.9	---	---	9.6	NNW	0.16	12.2	-29.7	---	---	725.5	0.027	0.000	18.8	1	1
03/29/06	10:09 a	-19.9	-19.9	-19.9	---	---	11.3	NNW	0.19	12.2	-30.5	---	---	725.5	0.027	0.000	18.8	1	1
03/29/06	10:10 a	-19.9	-19.9	-19.9	---	---	9.6	NW	0.16	10.4	-29.7	---	---	725.6	0.027	0.000	18.8	1	1
03/29/06	10:11 a	-19.9	-19.8	-19.9	---	---	8.7	NW	0.14	10.4	-29.2	---	---	725.5	0.027	0.000	18.8	1	1
03/29/06	10:12 a	-19.9	-19.9	-19.9	---	---	12.2	NW	0.20	13.9	-30.8	---	---	725.6	0.027	0.000	18.8	1	1
03/29/06	10:13 a	-19.8	-19.8	-19.9	---	---	8.7	NW	0.14	11.3	-29.1	---	---	725.5	0.027	0.000	18.8	1	1
03/29/06	10:14 a	-19.9	-19.8	-19.9	---	---	7.8	NNW	0.13	9.6	-28.7	---	---	725.6	0.027	0.000	18.8	1	1
03/29/06	10:15 a	-19.9	-19.8	-19.9	---	---	8.7	NW	0.14	9.6	-29.2	---	---	725.6	0.027	0.000	18.8	1	1
03/29/06	10:16 a	-19.8	-19.8	-19.8	---	---	7.8	NNW	0.13	9.6	-28.6	---	---	725.5	0.027	0.000	18.8	1	1
03/29/06	10:17 a	-19.8	-19.8	-19.8	---	---	7.8	NW	0.13	9.6	-28.6	---	---	725.7	0.027	0.000	18.8	1	1
03/29/06	10:18 a	-19.8	-19.8	-19.8	---	---	9.6	NNW	0.16	11.3	-29.6	---	---	725.6	0.027	0.000	18.8	1	1
03/29/06	10:19 a	-19.8	-19.8	-19.8	---	---	8.7	NW	0.14	10.4	-29.1	---	---	725.6	0.027	0.000	18.8	1	1
03/29/06	10:20 a	-19.8	-19.8	-19.8	---	---	9.6	NW	0.16	10.4	-29.6	---	---	725.5	0.027	0.000	18.8	1	1
03/29/06	10:21 a	-19.8	-19.8	-19.8	---	---	9.6	NW	0.16	10.4	-29.6	---	---	725.6	0.027	0.000	18.8	1	1
03/29/06	10:22 a	-19.8	-19.8	-19.8	---	---	10.4	NW	0.17	12.2	-30.0	---	---	725.6	0.027	0.000	18.8	1	1
03/29/06	10:23 a	-19.8	-19.8	-19.8	---	---	8.7	NW	0.14	12.2	-29.1	---	---	725.6	0.027	0.000	18.8	1	1
03/29/06	10:24 a	-19.8	-19.8	-19.8	---	---	8.7	NW	0.14	9.6	-29.1	---	---	725.6	0.026	0.000	18.8	1	1
03/29/06	10:25 a	-19.8	-19.7	-19.8	---	---	7.8	NNW	0.13	9.6	-28.6	---	---	725.6	0.026	0.000	18.8	1	1
03/29/06	10:26 a	-19.8	-19.8	-19.8	---	---	7.0	NNW	0.12	7.8	-28.0	---	---	725.6	0.026	0.000	18.8	1	1
03/29/06	10:27 a	-19.7	-19.7	-19.8	---	---	7.8	NNW	0.13	9.6	-28.5	---	---	725.5	0.026	0.000	18.8	1	1
03/29/06	10:28 a	-19.7	-19.7	-19.7	---	---	7.8	NNW	0.13	8.7	-28.5	---	---	725.6	0.026	0.000	18.8	1	1
03/29/06	10:29 a	-19.7	-19.7	-19.7	---	---	8.7	NNW	0.14	9.6	-29.0	---	---	725.6	0.026	0.000	18.8	1	1
03/29/06	10:30 a	-19.7	-19.7	-19.7	---	---	8.7	NW	0.14	10.4	-29.0	---	---	725.5	0.026	0.000	18.8	1	1
03/29/06	10:31 a	-19.7	-19.7	-19.7	---	---	7.8	NNW	0.13	9.6	-28.5	---	---	725.5	0.026	0.000	18.8	1	1
03/29/06	10:32 a	-19.7	-19.7	-19.7	---	---	8.7	NNW	0.14	9.6	-28.9	---	---	725.5	0.026	0.000	18.8	1	1
03/29/06	10:33 a	-19.7	-19.7	-19.7	---	---	8.7	NNW	0.14	9.6	-28.9	---	---	725.5	0.026	0.000	18.8	1	1
03/29/06	10:34 a	-19.7	-19.6	-19.7	---	---	7.8	NNW	0.13	8.7	-28.4	---	---	725.5	0.026	0.000	18.8	1	1
03/29/06	10:35 a	-19.7	-19.6	-19.7	---	---	7.8	NNW	0.13	8.7	-28.4	---	---	725.6	0.026	0.000	18.8	1	1
03/29/06	10:36 a	-19.6	-19.6	-19.6	---	---	7.8	NNW	0.13	10.4	-28.3	---	---	725.6	0.026	0.000	18.8	1	1
03/29/06	10:37 a	-19.6	-19.6	-19.7	---	---	8.7	NNW	0.14	9.6	-28.8	---	---	725.6	0.026	0.000	18.8	1	1
03/29/06	10:38 a	-19.6	-19.6	-19.7	---	---	7.0	NNW	0.12	8.7	-27.8	---	---	725.5	0.026	0.000	18.8	1	1
03/29/06	10:39 a	-19.6	-19.6	-19.6	---	---	8.7	NNW	0.14	10.4	-28.8	---	---	725.5	0.026	0.000	18.8	1	1
03/29/06	10:40 a	-19.6	-19.6	-19.6	---	---	7.8	NNW	0.13	9.6	-28.3	---	---	725.5	0.026	0.000	18.8	1	1
03/29/06	10:41 a	-19.6	-19.6	-19.6	---	---	9.6	NNW	0.16	11.3	-29.2	---	---	725.5	0.026	0.000	18.8	1	1
03/29/06	10:42 a	-19.6	-19.6	-19.6	---	---	8.7	NNW	0.14	11.3	-28.8	---	---	725.5	0.026	0.000	18.8	1	1
03/29/06	10:43 a	-19.6	-19.5	-19.6	---	---	7.8	NW	0.13	10.4	-28.3	---	---	725.4	0.026	0.000	18.8	1	1
03/29/06	10:44 a	-19.6	-19.5	-19.6	---	---	8.7	NNW	0.14	9.6	-28.8	---	---	725.6	0.026	0.000	18.8	1	1
03/29/06	10:45 a	-19.5	-19.5	-19.6	---	---	7.8	NW	0.13	9.6	-28.2	---	---	725.5	0.026	0.000	18.8	1	1
03/29/06	10:46 a	-19.5	-19.5	-19.5	---	---	8.7	NNW	0.14	10.4	-28.7	---	---	725.4	0.026	0.000	18.8	1	1
03/29/06	10:47 a	-19.5	-19.5	-19.5	---	---	8.7	NNW	0.14	9.6	-28.7	---	---	725.4	0.026	0.000	18.8	1	1
03/29/06	10:48 a	-19.5	-19.5	-19.5	---	---	8.7	NNW	0.14	9.6	-28.7	---	---	725.4	0.026	0.000	18.8	1	1
03/29/06	10:49 a	-19.5	-19.5	-19.5	---	---	8.7	NNW	0.14	9.6	-28.7	---	---	725.5	0.026	0.000	18.8	1	1
03/29/06	10:50 a	-19.5	-19.5	-19.5	---	---	7.0	NW	0.12	7.8	-27.7	---	---	725.5	0.026	0.000	18.8	1	1
03/29/06	10:51 a	-19.5	-19.5	-19.5	---	---	7.0	NNW	0.12	7.8	-27.7	---	---	725.6	0.026	0.000	18.8	1	1
03/29/06	10:52 a	-19.5	-19.5	-19.5	---	---	6.1	NNW	0.10	7.8	-27.1	---	---	725.5	0.026	0.000	18.8	1	1
03/29/06	10:53 a	-19.5	-19.5	-19.5	---	---	6.1	NNW	0.10	7.8	-27.1	---	---	725.5	0.026	0.000	18.8	1	1
03/29/06	10:54 a	-19.5	-19.5	-19.5	---	---	7.0	NNW	0.12	7.8	-27.7	---	---	725.5	0.026	0.000	18.8	1	1
03/29/06	10:55 a	-19.5	-19.5	-19.6	---	---	7.0	NW	0.12	7.8	-27.7	---	---	725.5	0.026	0.000	18.8	1	1
03/29/06	10:56 a	-19.6	-19.6	-19.6	---	---	7.8	NNW	0.13	9.6	-28.3	---	---	725.5	0.026	0.000	18.8	1	1
03/29/06	10:57 a	-19.6	-19.6	-19.6	---	---	7.8	NW	0.13	10.4	-28.3	---	---	725.5	0.026	0.000	18.8	1	1
03/29/06	10:58 a	-19.6	-19.6	-19.6	---	---	7.0	NW	0.12	7.8	-27.7	---	---	725.5	0.026	0.000	18.8	1	1
03/29/06	10:59 a	-19.6	-19.6	-19.6	---	---	7.8	NW	0.13	9.6	-28.3	---	---	725.4	0.026	0.000	18.8	1	1
03/29/06	11:00 a	-19.6	-19.6	-19.6	---	---	7.8	NNW	0.13	8.7	-28.3	---	---	725.5	0.026	0.000	18.8	1	1
03/29/06	11:01 a	-19.6	-19.6	-19.6	---	---	7.0	NW	0.12	8.7	-27.7	---	---	725.4	0.026	0.000	18.8	1	1
03/29/06	11:02 a	-19.6	-19.6	-19.6	---	---	7.0	NW	0.12	8.7	-27.8	---	---	725.5	0.026	0.000	18.8	1	1
03/29/06	11:03 a	-19.6	-19.6	-19.6	---	---	7.0	NNW	0.12	8.7	-27.8	---	---	725.5	0.026	0.000	18.8	1	1
03/29/06	11:04 a	-19.6	-19.6	-19.6	---	---	6.1	NNW	0.10	7.0	-27.2	---	---	725.5	0.026	0.000	18.8	1	1
03/29/06	11:05 a	-19.6	-19.6	-19.6	---	---	7.0	NNW	0.12	7.8	-27.8	---	---	725.4	0.026	0.000	18.8	1	1
03/29/06	11:06 a	-19.6	-19.6	-19.6	---	---	7.0	NNW	0.12	8.7	-27.8	---	---	725.4	0.026	0.000	18.8	1	1
03/29/06	11:07 a	-19.6	-19.6	-19.6	---	---	7.0	NNW	0.12	7.8	-27.8	---	---	725.4	0.026	0.000	18.8	1	1
03/29/06	11:08 a	-19.6	-19.6	-19.6	---	---	7.8	NW	0.13	8.7	-28.3	---	---	725.5	0.026	0.000	18.8	1	1
03/29/06	11:09 a	-19.6	-19.6	-19.6	---	---	6.1	NW	0.10	7.8	-27.2	---	---	725.4	0.026	0.000	18.8	1	1
03/29/06	11:10 a	-19.6	-19.6	-19.7	---	---	7.0	NW	0.12	7.8	-27.8	---	---	725.4	0.026	0.000	18.8	1	1
03/29/06	11:11 a	-19.6	-19.6	-19.6	---	---	7.0	NW	0.12	8.7	-27.8	---	---	725.4	0.026	0.000	18.8	1	1
03/29/06	11:12 a	-19.6	-19.6	-19.6	---	---	6.1	NW	0.10	7.0	-27.2	---	---	725.4	0.026	0.000	18.8	1	1
03/29/06	11:13 a	-19.6	-19.6	-19.6	---	---	7.0	NW	0.12	8.7	-27.8	---	---	725.5	0.026	0.000	18.8	1	1
03/29/06	11:14 a	-19.6	-19.6	-19.7	---	---	7.8	NNW	0.13	8.7	-28.3	---	---	725.5	0.026	0.000	18.8	1	1
03/29/06	11:15 a	-19.6	-19.6	-19.7	---	---	6.1	NW	0.10	7.8	-27.2	---	---	725.5	0.026	0.000	18.8	1	1
03/29/06	11:16 a	-19.7	-19.6	-19.7	---	---	6.1	NW	0.10	7.0	-27.3	---	---	725.5	0.026	0.000	18.8	1	1
03/29/06	11:17 a	-19.6	-19.6	-19.7	---	---	7.0	NW	0.12	7.8	-27.8	---	---	725.5	0.026	0.000	18.8	1	1
03/29/06	11:18 a	-19.7	-19.6	-19.7	---	---	6.1	NNW	0.10	7.0	-27.3	---	---	725.5	0.026	0.000	18.8	1	1
03/29/06	11:19 a	-19.7	-19.6	-19.7	---	---	7.0	NNW	0.12	8.7	-27.9	---	---	725.4	0.026	0.000	18.8	1	1
03/29/06	11:20 a	-19.7	-19.7	-19.7	---	---	7.0	NNW	0.12	8.7	-27.9	---	---	725.4	0.026	0.000	18.7	1	1
03/29/06	11:21 a	-19.7	-19.7	-19.7	---	---	7.8	NNW	0.13	9.6	-28.4	---	---	725.4	0.026	0.000	18.8	1	1
03/29/06	11:22 a	-19.7	-19.7	-19.7	---	---	9.6	NW	0.16	10.4	-29.4	---	---	725.4	0.026	0.000	18.7	1	1
03/29/06	11:23 a	-19.7	-19.6	-19.7	---	---	7.8	NW	0.13	10.4	-28.4	---	---	725.4	0.026	0.000	18.7	1	1
03/29/06	11:24 a	-19.7	-19.6	-19.7	---	---	7.8	NW	0.13	10.4	-28.4	---	---	725.4	0.026	0.000	18.7	1	1
03/29/06	11:25 a	-19.7	-19.7	-19.7	---	---	9.6	NW	0.16	11.3	-29.4	---	---	725.3	0.026	0.000	18.7	1	1
03/29/06	11:26 a	-19.7	-19.7	-19.7	---	---	7.8	NNW	0.13	10.4	-28.4	---	---	725.4	0.026	0.000	18.7	1	1
03/29/06	11:27 a	-19.6	-19.6	-19.6	---	---	6.1	NNW	0.10	8.7	-27.2	---	---	725.4	0.026	0.000	18.7	1	1
03/29/06	11:28 a	-19.6	-19.6	-19.6	---	---	7.0	NNW	0.12	8.7	-27.8	---	---	725.3	0.026	0.000	18.7	1	1
03/29/06	11:29 a	-19.6	-19.6	-19.6	---	---	10.4	NW	0.17	13.0	-29.7	---	---	725.4	0.026	0.000	18.7	1	1
03/29/06	11:30 a	-19.6	-19.6	-19.6	---	---	7.8	NW	0.13	9.6	-28.3	---	---	725.3	0.026	0.000	18.7	1	1
03/29/06	11:31 a	-19.6	-19.6	-19.6	---	---	7.8	NW	0.13	9.6	-28.3	---	---	725.4	0.026	0.000	18.7	1	1
03/29/06	11:32 a	-19.6	-19.6	-19.6	---	---	7.8	NNW	0.13	9.6	-28.3	---	---	725.4	0.026	0.000	18.7	1	1
03/29/06	11:33 a	-19.6	-19.6	-19.6	---	---	8.7	NW	0.14	11.3	-28.8	---	---	725.3	0.026	0.000	18.8	1	1
03/29/06	11:34 a	-19.6	-19.6	-19.6	---	---	9.6	NW	0.16	13.0	-29.2	---	---	725.2	0.026	0.000	18.8	1	1
03/29/06	11:35 a	-19.6	-19.6	-19.6	---	---	9.6	NNW	0.16	12.2	-29.2	---	---	725.3	0.026	0.000	18.8	1	1
03/29/06	11:36 a	-19.6	-19.6	-19.6	---	---	7.8	NNW	0.13	9.6	-28.3	---	---	725.3	0.026	0.000	18.8	1	1
03/29/06	11:37 a	-19.6	-19.6	-19.6	---	---	10.4	NNW	0.17	13.0	-29.7	---	---	725.2	0.026	0.000	18.8	1	1
03/29/06	11:38 a	-19.6	-19.6	-19.6	---	---	10.4	NNW	0.17	11.3	-29.7	---	---	725.2	0.026	0.000	18.8	1	1
03/29/06	11:39 a	-19.6	-19.6	-19.6	---	---	10.4	NW	0.17	13.0	-29.7	---	---	725.3	0.026	0.000	18.8	1	1
03/29/06	11:40 a	-19.6	-19.6	-19.6	---	---	9.6	NW	0.16	12.2	-29.3	---	---	725.2	0.026	0.000	18.8	1	1
03/29/06	11:41 a	-19.6	-19.6	-19.6	---	---	10.4	NNW	0.17	13.0	-29.7	---	---	725.2	0.026	0.000	18.8	1	1
03/29/06	11:42 a	-19.6	-19.6	-19.7	---	---	10.4	NNW	0.17	11.3	-29.7	---	---	725.2	0.026	0.000	18.8	1	1
03/29/06	11:43 a	-19.6	-19.6	-19.6	---	---	9.6	NNW	0.16	11.3	-29.3	---	---	725.2	0.026	0.000	18.8	1	1
03/29/06	11:44 a	-19.6	-19.6	-19.7	---	---	7.8	NNW	0.13	9.6	-28.3	---	---	725.2	0.026	0.000	18.8	1	1
03/29/06	11:45 a	-19.6	-19.6	-19.6	---	---	9.6	NNW	0.16	11.3	-29.3	---	---	725.1	0.026	0.000	18.8	1	1
03/29/06	11:46 a	-19.6	-19.6	-19.7	---	---	8.7	NNW	0.14	12.2	-28.8	---	---	725.1	0.026	0.000	18.8	1	1
03/29/06	11:47 a	-19.6	-19.6	-19.7	---	---	8.7	NNW	0.14	10.4	-28.8	---	---	725.1	0.026	0.000	18.8	1	1
03/29/06	11:48 a	-19.6	-19.6	-19.7	---	---	8.7	NNW	0.14	13.9	-28.8	---	---	725.1	0.026	0.000	18.8	1	1
03/29/06	11:49 a	-19.7	-19.6	-19.7	---	---	13.0	NNW	0.22	16.5	-30.9	---	---	725.1	0.026	0.000	18.8	1	1
03/29/06	11:50 a	-19.6	-19.6	-19.6	---	---	12.2	NNW	0.20	14.8	-30.5	---	---	725.1	0.026	0.000	18.8	1	1
03/29/06	11:51 a	-19.6	-19.6	-19.6	---	---	10.4	NNW	0.17	11.3	-29.7	---	---	725.1	0.026	0.000	18.8	1	1
03/29/06	11:52 a	-19.6	-19.6	-19.6	---	---	10.4	NNW	0.17	11.3	-29.7	---	---	725.1	0.026	0.000	18.8	1	1
03/29/06	11:53 a	-19.6	-19.6	-19.6	---	---	9.6	NNW	0.16	11.3	-29.2	---	---	725.1	0.026	0.000	18.8	1	1
03/29/06	11:54 a	-19.6	-19.6	-19.6	---	---	11.3	NNW	0.19	13.0	-30.1	---	---	725.0	0.026	0.000	18.8	1	1
03/29/06	11:55 a	-19.6	-19.6	-19.6	---	---	9.6	NNW	0.16	12.2	-29.2	---	---	725.1	0.026	0.000	18.8	1	1
03/29/06	11:56 a	-19.6	-19.6	-19.6	---	---	10.4	NNW	0.17	12.2	-29.7	---	---	725.1	0.026	0.000	18.8	1	1
03/29/06	11:57 a	-19.6	-19.5	-19.6	---	---	12.2	NNW	0.20	13.9	-30.4	---	---	725.1	0.026	0.000	18.8	1	1
03/29/06	11:58 a	-19.6	-19.6	-19.6	---	---	10.4	NNW	0.17	13.0	-29.7	---	---	725.1	0.026	0.000	18.8	1	1
03/29/06	11:59 a	-19.6	-19.6	-19.6	---	---	9.6	NNW	0.16	12.2	-29.2	---	---	725.0	0.026	0.000	18.8	1	1
03/29/06	12:00 p	-19.6	-19.6	-19.6	---	---	9.6	NNW	0.16	11.3	-29.2	---	---	725.0	0.026	0.000	18.8	1	1
03/29/06	12:01 p	-19.6	-19.6	-19.6	---	---	9.6	NNW	0.16	11.3	-29.3	---	---	725.1	0.026	0.000	18.8	1	1
03/29/06	12:02 p	-19.6	-19.6	-19.6	---	---	8.7	NNW	0.14	11.3	-28.8	---	---	725.0	0.026	0.000	18.7	1	1
03/29/06	12:03 p	-19.6	-19.6	-19.6	---	---	9.6	NNW	0.16	13.0	-29.3	---	---	725.0	0.026	0.000	18.8	1	1
03/29/06	12:04 p	-19.6	-19.6	-19.6	---	---	12.2	NNW	0.20	13.9	-30.5	---	---	724.9	0.026	0.000	18.7	1	1
03/29/06	12:05 p	-19.6	-19.6	-19.7	---	---	9.6	NNW	0.16	10.4	-29.3	---	---	725.0	0.026	0.000	18.7	1	1
03/29/06	12:06 p	-19.6	-19.6	-19.7	---	---	10.4	NNW	0.17	13.0	-29.7	---	---	724.9	0.026	0.000	18.7	1	1
03/29/06	12:07 p	-19.6	-19.6	-19.7	---	---	10.4	NNW	0.17	12.2	-29.7	---	---	725.0	0.026	0.000	18.7	1	1
03/29/06	12:08 p	-19.6	-19.6	-19.7	---	---	8.7	NNW	0.14	11.3	-28.8	---	---	725.0	0.026	0.000	18.7	1	1
03/29/06	12:09 p	-19.7	-19.6	-19.7	---	---	8.7	NNW	0.14	9.6	-28.9	---	---	725.0	0.026	0.000	18.7	1	1
03/29/06	12:10 p	-19.6	-19.6	-19.7	---	---	7.8	NNW	0.13	9.6	-28.3	---	---	725.0	0.026	0.000	18.7	1	1
03/29/06	12:11 p	-19.7	-19.6	-19.7	---	---	8.7	NNW	0.14	10.4	-28.9	---	---	725.0	0.026	0.000	18.7	1	1
03/29/06	12:12 p	-19.7	-19.7	-19.7	---	---	9.6	NNW	0.16	10.4	-29.4	---	---	725.1	0.026	0.000	18.7	1	1
03/29/06	12:13 p	-19.7	-19.7	-19.7	---	---	8.7	NNW	0.14	10.4	-28.9	---	---	724.9	0.026	0.000	18.7	1	1
03/29/06	12:14 p	-19.7	-19.7	-19.7	---	---	9.6	NNW	0.16	11.3	-29.4	---	---	725.0	0.026	0.000	18.7	1	1
03/29/06	12:15 p	-19.7	-19.7	-19.7	---	---	8.7	NNW	0.14	9.6	-29.0	---	---	725.0	0.026	0.000	18.7	1	1
03/29/06	12:16 p	-19.7	-19.7	-19.8	---	---	9.6	NNW	0.16	12.2	-29.4	---	---	724.9	0.026	0.000	18.7	1	1
03/29/06	12:17 p	-19.8	-19.7	-19.8	---	---	11.3	NNW	0.19	13.9	-30.3	---	---	724.9	0.026	0.000	18.7	1	1
03/29/06	12:18 p	-19.7	-19.7	-19.8	---	---	11.3	NNW	0.19	13.9	-30.3	---	---	724.9	0.026	0.000	18.7	1	1
03/29/06	12:19 p	-19.8	-19.8	-19.8	---	---	11.3	NNW	0.19	12.2	-30.3	---	---	725.0	0.026	0.000	18.7	1	1
03/29/06	12:20 p	-19.7	-19.7	-19.8	---	---	12.2	NW	0.20	13.9	-30.7	---	---	724.9	0.026	0.000	18.7	1	1
03/29/06	12:21 p	-19.7	-19.7	-19.7	---	---	9.6	NW	0.16	10.4	-29.4	---	---	724.9	0.026	0.000	18.7	1	1
03/29/06	12:22 p	-19.7	-19.7	-19.7	---	---	9.6	NW	0.16	11.3	-29.4	---	---	725.0	0.026	0.000	18.7	1	1
03/29/06	12:23 p	-19.7	-19.7	-19.7	---	---	8.7	NW	0.14	10.4	-28.9	---	---	724.9	0.026	0.000	18.7	1	1
03/29/06	12:24 p	-19.7	-19.7	-19.7	---	---	9.6	NW	0.16	10.4	-29.4	---	---	724.9	0.026	0.000	18.6	1	1
03/29/06	12:25 p	-19.7	-19.7	-19.7	---	---	9.6	NW	0.16	10.4	-29.4	---	---	724.9	0.026	0.000	18.6	1	1
03/29/06	12:26 p	-19.7	-19.6	-19.7	---	---	9.6	NNW	0.16	12.2	-29.4	---	---	724.9	0.026	0.000	18.6	1	1
03/29/06	12:27 p	-19.7	-19.6	-19.7	---	---	11.3	NW	0.19	14.8	-30.2	---	---	724.9	0.026	0.000	18.6	1	1
03/29/06	12:28 p	-19.7	-19.6	-19.7	---	---	10.4	NW	0.17	11.3	-29.8	---	---	724.9	0.026	0.000	18.6	1	1
03/29/06	12:29 p	-19.6	-19.6	-19.7	---	---	7.8	NW	0.13	9.6	-28.3	---	---	725.0	0.026	0.000	18.6	1	1
03/29/06	12:30 p	-19.7	-19.6	-19.7	---	---	8.7	NNW	0.14	9.6	-28.9	---	---	725.0	0.026	0.000	18.6	1	1
03/29/06	12:31 p	-19.6	-19.6	-19.6	---	---	7.0	NNW	0.12	7.8	-27.8	---	---	725.0	0.026	0.000	18.6	1	1
03/29/06	12:32 p	-19.6	-19.6	-19.6	---	---	7.8	NNW	0.13	7.8	-28.3	---	---	724.9	0.026	0.000	18.6	1	1
03/29/06	12:33 p	-19.6	-19.6	-19.7	---	---	7.8	NNW	0.13	8.7	-28.3	---	---	724.9	0.026	0.000	18.6	1	1
03/29/06	12:34 p	-19.6	-19.6	-19.7	---	---	7.8	NNW	0.13	8.7	-28.3	---	---	725.0	0.026	0.000	18.7	1	1
03/29/06	12:35 p	-19.6	-19.6	-19.6	---	---	8.7	NNW	0.14	10.4	-28.8	---	---	724.9	0.026	0.000	18.7	1	1
03/29/06	12:36 p	-19.6	-19.6	-19.7	---	---	7.8	NNW	0.13	9.6	-28.3	---	---	724.9	0.026	0.000	18.7	1	1
03/29/06	12:37 p	-19.6	-19.6	-19.7	---	---	7.0	NNW	0.12	8.7	-27.8	---	---	725.0	0.026	0.000	18.7	1	1
03/29/06	12:38 p	-19.7	-19.6	-19.7	---	---	9.6	NNW	0.16	11.3	-29.4	---	---	725.0	0.026	0.000	18.7	1	1
03/29/06	12:39 p	-19.7	-19.7	-19.7	---	---	8.7	NNW	0.14	10.4	-28.9	---	---	725.0	0.026	0.000	18.7	1	1
03/29/06	12:40 p	-19.7	-19.7	-19.7	---	---	9.6	NNW	0.16	11.3	-29.4	---	---	724.9	0.026	0.000	18.7	1	1
03/29/06	12:41 p	-19.7	-19.7	-19.7	---	---	7.8	NNW	0.13	8.7	-28.4	---	---	725.0	0.026	0.000	18.7	1	1
03/29/06	12:42 p	-19.7	-19.7	-19.7	---	---	7.8	NNW	0.13	9.6	-28.5	---	---	725.0	0.026	0.000	18.7	1	1
03/29/06	12:43 p	-19.7	-19.7	-19.7	---	---	7.8	NNW	0.13	9.6	-28.5	---	---	725.1	0.026	0.000	18.7	1	1
03/29/06	12:44 p	-19.7	-19.7	-19.7	---	---	7.8	NNW	0.13	9.6	-28.5	---	---	725.0	0.026	0.000	18.7	1	1
03/29/06	12:45 p	-19.7	-19.7	-19.8	---	---	7.0	NNW	0.12	7.8	-27.9	---	---	725.0	0.026	0.000	18.7	1	1
03/29/06	12:46 p	-19.8	-19.7	-19.8	---	---	7.0	NNW	0.12	7.8	-28.0	---	---	725.0	0.026	0.000	18.7	1	1
03/29/06	12:47 p	-19.8	-19.8	-19.8	---	---	7.8	NNW	0.13	9.6	-28.6	---	---	725.0	0.026	0.000	18.7	1	1
03/29/06	12:48 p	-19.8	-19.8	-19.8	---	---	7.8	NNW	0.13	8.7	-28.6	---	---	724.9	0.026	0.000	18.7	1	1
03/29/06	12:49 p	-19.8	-19.8	-19.8	---	---	7.0	NNW	0.12	7.8	-28.0	---	---	725.0	0.026	0.000	18.7	1	1
03/29/06	12:50 p	-19.8	-19.8	-19.8	---	---	7.8	NNW	0.13	8.7	-28.6	---	---	725.0	0.027	0.000	18.7	1	1
03/29/06	12:51 p	-19.8	-19.8	-19.8	---	---	7.0	NNW	0.12	7.8	-28.0	---	---	725.0	0.026	0.000	18.7	1	1
03/29/06	12:52 p	-19.8	-19.8	-19.8	---	---	7.0	NNW	0.12	7.0	-28.0	---	---	725.0	0.026	0.000	18.7	1	1
03/29/06	12:53 p	-19.8	-19.8	-19.8	---	---	7.0	NNW	0.12	7.8	-28.0	---	---	724.9	0.026	0.000	18.7	1	1
03/29/06	12:54 p	-19.8	-19.8	-19.8	---	---	7.0	NNW	0.12	7.0	-28.0	---	---	724.9	0.026	0.000	18.7	1	1
03/29/06	12:55 p	-19.8	-19.8	-19.8	---	---	7.0	NNW	0.12	7.8	-28.0	---	---	724.9	0.026	0.000	18.7	1	1
03/29/06	12:56 p	-19.8	-19.8	-19.8	---	---	7.0	NNW	0.12	7.0	-28.0	---	---	724.9	0.026	0.000	18.7	1	1
03/29/06	12:57 p	-19.8	-19.8	-19.8	---	---	6.1	NNW	0.10	7.8	-27.4	---	---	724.9	0.026	0.000	18.7	1	1
03/29/06	12:58 p	-19.8	-19.8	-19.8	---	---	5.2	NNW	0.09	7.0	-26.7	---	---	724.9	0.026	0.000	18.7	1	1
03/29/06	12:59 p	-19.8	-19.8	-19.8	---	---	6.1	NNW	0.10	7.0	-27.4	---	---	724.8	0.026	0.000	18.7	1	1
03/29/06	1:00 p	-19.8	-19.8	-19.8	---	---	5.2	NNW	0.09	7.0	-26.7	---	---	724.8	0.026	0.000	18.7	1	1
03/29/06	1:01 p	-19.8	-19.8	-19.8	---	---	6.1	N	0.10	6.1	-27.4	---	---	724.7	0.026	0.000	18.7	1	1
03/29/06	1:02 p	-19.8	-19.8	-19.8	---	---	5.2	N	0.09	6.1	-26.7	---	---	724.7	0.026	0.000	18.7	1	1
03/29/06	1:03 p	-19.8	-19.8	-19.8	---	---	6.1	N	0.10	6.1	-27.4	---	---	724.7	0.026	0.000	18.7	1	1
03/29/06	1:04 p	-19.8	-19.8	-19.9	---	---	6.1	N	0.10	7.0	-27.4	---	---	724.7	0.027	0.000	18.7	1	1
03/29/06	1:05 p	-19.8	-19.8	-19.8	---	---	7.0	N	0.12	7.8	-28.1	---	---	724.6	0.027	0.000	18.7	1	1
03/29/06	1:06 p	-19.9	-19.8	-19.9	---	---	7.0	NNW	0.12	8.7	-28.1	---	---	724.6	0.027	0.000	18.7	1	1
03/29/06	1:07 p	-19.9	-19.8	-19.9	---	---	8.7	NNW	0.14	10.4	-29.2	---	---	724.7	0.027	0.000	18.7	1	1
03/29/06	1:08 p	-19.8	-19.8	-19.8	---	---	8.7	NNW	0.14	10.4	-29.1	---	---	724.7	0.027	0.000	18.7	1	1
03/29/06	1:09 p	-19.8	-19.8	-19.8	---	---	7.8	NNW	0.13	9.6	-28.6	---	---	724.7	0.027	0.000	18.7	1	1
03/29/06	1:10 p	-19.8	-19.8	-19.8	---	---	7.8	NNW	0.13	9.6	-28.6	---	---	724.6	0.027	0.000	18.7	1	1
03/29/06	1:11 p	-19.8	-19.8	-19.8	---	---	7.8	NNW	0.13	9.6	-28.6	---	---	724.6	0.026	0.000	18.7	1	1
03/29/06	1:12 p	-19.7	-19.7	-19.8	---	---	7.8	N	0.13	9.6	-28.5	---	---	724.7	0.026	0.000	18.7	1	1
03/29/06	1:13 p	-19.7	-19.7	-19.7	---	---	7.0	N	0.12	8.7	-27.9	---	---	724.6	0.026	0.000	18.7	1	1
03/29/06	1:14 p	-19.7	-19.7	-19.7	---	---	7.8	N	0.13	10.4	-28.4	---	---	724.6	0.026	0.000	18.7	1	1
03/29/06	1:15 p	-19.7	-19.6	-19.7	---	---	7.8	N	0.13	9.6	-28.4	---	---	724.6	0.026	0.000	18.7	1	1
03/29/06	1:16 p	-19.6	-19.6	-19.6	---	---	7.8	N	0.13	7.8	-28.3	---	---	724.6	0.026	0.000	18.7	1	1
03/29/06	1:17 p	-19.6	-19.6	-19.6	---	---	7.8	N	0.13	9.6	-28.3	---	---	724.5	0.026	0.000	18.7	1	1
03/29/06	1:18 p	-19.6	-19.5	-19.6	---	---	7.8	N	0.13	9.6	-28.3	---	---	724.6	0.026	0.000	18.7	1	1
03/29/06	1:19 p	-19.5	-19.5	-19.6	---	---	7.8	N	0.13	9.6	-28.2	---	---	724.6	0.026	0.000	18.7	1	1
03/29/06	1:20 p	-19.5	-19.5	-19.5	---	---	7.8	N	0.13	10.4	-28.2	---	---	724.5	0.026	0.000	18.7	1	1
03/29/06	1:21 p	-19.5	-19.5	-19.5	---	---	7.8	N	0.13	9.6	-28.2	---	---	724.5	0.026	0.000	18.7	1	1
03/29/06	1:22 p	-19.5	-19.5	-19.5	---	---	8.7	N	0.14	9.6	-28.7	---	---	724.5	0.026	0.000	18.7	1	1
03/29/06	1:23 p	-19.5	-19.4	-19.5	---	---	8.7	N	0.14	11.3	-28.7	---	---	724.4	0.026	0.000	18.7	1	1
03/29/06	1:24 p	-19.4	-19.4	-19.4	---	---	10.4	N	0.17	13.0	-29.5	---	---	724.3	0.026	0.000	18.7	1	1
03/29/06	1:25 p	-19.4	-19.4	-19.4	---	---	9.6	NNW	0.16	12.2	-29.1	---	---	724.3	0.026	0.000	18.7	1	1
03/29/06	1:26 p	-19.4	-19.4	-19.4	---	---	8.7	N	0.14	11.3	-28.6	---	---	724.4	0.026	0.000	18.7	1	1
03/29/06	1:27 p	-19.3	-19.3	-19.3	---	---	10.4	NNW	0.17	13.0	-29.4	---	---	724.3	0.026	0.000	18.7	1	1
03/29/06	1:28 p	-19.3	-19.3	-19.3	---	---	13.0	NNW	0.22	14.8	-30.5	---	---	724.4	0.026	0.000	18.7	1	1
03/29/06	1:29 p	-19.3	-19.2	-19.3	---	---	12.2	NNW	0.20	13.9	-30.1	---	---	724.4	0.026	0.000	18.7	1	1
03/29/06	1:30 p	-19.2	-19.2	-19.2	---	---	11.3	NNW	0.19	13.9	-29.6	---	---	724.4	0.026	0.000	18.7	1	1
03/29/06	1:31 p	-19.1	-19.1	-19.2	---	---	13.0	NNW	0.22	15.7	-30.2	---	---	724.4	0.026	0.000	18.7	1	1
03/29/06	1:32 p	-19.1	-19.1	-19.1	---	---	13.9	NNW	0.23	15.7	-30.4	---	---	724.4	0.026	0.000	18.7	1	1
03/29/06	1:33 p	-19.1	-19.0	-19.1	---	---	13.0	NNW	0.22	15.7	-30.1	---	---	724.4	0.026	0.000	18.7	1	1
03/29/06	1:34 p	-19.0	-18.9	-19.0	---	---	13.0	NNW	0.22	17.4	-30.1	---	---	724.4	0.026	0.000	18.7	1	1
03/29/06	1:35 p	-18.9	-18.9	-18.9	---	---	13.9	NNW	0.23	17.4	-30.3	---	---	724.4	0.026	0.000	18.7	1	1
03/29/06	1:36 p	-18.9	-18.9	-18.9	---	---	12.2	NNW	0.20	15.7	-29.7	---	---	724.4	0.026	0.000	18.7	1	1
03/29/06	1:37 p	-18.9	-18.9	-18.9	---	---	13.0	NNW	0.22	14.8	-29.9	---	---	724.4	0.026	0.000	18.7	1	1
03/29/06	1:38 p	-18.9	-18.8	-18.9	---	---	11.3	NNW	0.19	12.2	-29.2	---	---	724.4	0.026	0.000	18.7	1	1
03/29/06	1:39 p	-18.9	-18.8	-18.9	---	---	11.3	NNW	0.19	14.8	-29.2	---	---	724.6	0.026	0.000	18.7	1	1
03/29/06	1:40 p	-18.8	-18.8	-18.8	---	---	13.9	NNW	0.23	15.7	-30.2	---	---	724.6	0.026	0.000	18.7	1	1
03/29/06	1:41 p	-18.8	-18.8	-18.8	---	---	12.2	NNW	0.20	15.7	-29.5	---	---	724.5	0.026	0.000	18.7	1	1
03/29/06	1:42 p	-18.8	-18.8	-18.8	---	---	12.2	NNW	0.20	13.0	-29.5	---	---	724.5	0.026	0.000	18.7	1	1
03/29/06	1:43 p	-18.8	-18.8	-18.9	---	---	8.7	NW	0.14	11.3	-27.9	---	---	724.6	0.026	0.000	18.7	1	1
03/29/06	1:44 p	-18.8	-18.8	-18.8	---	---	12.2	NNW	0.20	13.0	-29.5	---	---	724.6	0.026	0.000	18.7	1	1
03/29/06	1:45 p	-18.9	-18.8	-18.9	---	---	10.4	NNW	0.17	12.2	-28.8	---	---	724.6	0.026	0.000	18.7	1	1
03/29/06	1:46 p	-18.8	-18.8	-18.9	---	---	9.6	NNW	0.16	10.4	-28.3	---	---	724.6	0.026	0.000	18.7	1	1
03/29/06	1:47 p	-18.9	-18.8	-18.9	---	---	9.6	NNW	0.16	11.3	-28.4	---	---	724.7	0.026	0.000	18.7	1	1
03/29/06	1:48 p	-18.9	-18.9	-18.9	---	---	7.0	NW	0.12	8.7	-26.9	---	---	724.7	0.026	0.000	18.7	1	1
03/29/06	1:49 p	-18.9	-18.9	-18.9	---	---	7.0	NNW	0.12	8.7	-26.9	---	---	724.8	0.026	0.000	18.7	1	1
03/29/06	1:50 p	-18.9	-18.9	-18.9	---	---	6.1	NW	0.10	7.0	-26.4	---	---	724.7	0.026	0.000	18.7	1	1
03/29/06	1:51 p	-18.9	-18.9	-18.9	---	---	7.0	NNW	0.12	8.7	-27.0	---	---	724.7	0.026	0.000	18.7	1	1
03/29/06	1:52 p	-18.9	-18.9	-18.9	---	---	6.1	NW	0.10	7.0	-26.4	---	---	724.7	0.026	0.000	18.7	1	1
03/29/06	1:53 p	-18.9	-18.9	-19.0	---	---	7.0	NW	0.12	9.6	-27.0	---	---	724.7	0.026	0.000	18.7	1	1
03/29/06	1:54 p	-19.0	-18.9	-19.0	---	---	7.8	NW	0.13	8.7	-27.6	---	---	724.7	0.026	0.000	18.7	1	1
03/29/06	1:55 p	-19.0	-19.0	-19.0	---	---	7.8	NNW	0.13	9.6	-27.6	---	---	724.7	0.026	0.000	18.7	1	1
03/29/06	1:56 p	-19.0	-19.0	-19.0	---	---	7.8	NNW	0.13	8.7	-27.6	---	---	724.7	0.026	0.000	18.7	1	1
03/29/06	1:57 p	-19.1	-19.0	-19.1	---	---	7.0	NNW	0.12	7.8	-27.1	---	---	724.6	0.026	0.000	18.7	1	1
03/29/06	1:58 p	-19.1	-19.1	-19.1	---	---	7.8	NNW	0.13	8.7	-27.7	---	---	724.6	0.026	0.000	18.7	1	1
03/29/06	1:59 p	-19.1	-19.1	-19.1	---	---	7.0	NNW	0.12	8.7	-27.2	---	---	724.6	0.026	0.000	18.7	1	1
03/29/06	2:00 p	-19.1	-19.1	-19.1	---	---	6.1	NNW	0.10	7.8	-26.6	---	---	724.6	0.026	0.000	18.7	1	1
03/29/06	2:01 p	-19.1	-19.1	-19.2	---	---	7.8	NNW	0.13	10.4	-27.7	---	---	724.6	0.026	0.000	18.7	1	1
03/29/06	2:02 p	-19.1	-19.1	-19.2	---	---	9.6	NNW	0.16	10.4	-28.7	---	---	724.6	0.026	0.000	18.7	1	1
03/29/06	2:03 p	-19.2	-19.2	-19.2	---	---	8.7	NNW	0.14	10.4	-28.3	---	---	724.6	0.026	0.000	18.7	1	1
03/29/06	2:04 p	-19.2	-19.1	-19.2	---	---	9.6	NNW	0.16	11.3	-28.8	---	---	724.7	0.026	0.000	18.8	1	1
03/29/06	2:05 p	-19.2	-19.2	-19.2	---	---	10.4	NNW	0.17	11.3	-29.2	---	---	724.5	0.026	0.000	18.8	1	1
03/29/06	2:06 p	-19.1	-19.1	-19.2	---	---	9.6	NNW	0.16	11.3	-28.7	---	---	724.6	0.026	0.000	18.8	1	1
03/29/06	2:07 p	-19.1	-19.1	-19.1	---	---	9.6	NNW	0.16	11.3	-28.7	---	---	724.5	0.026	0.000	18.7	1	1
03/29/06	2:08 p	-19.1	-19.1	-19.1	---	---	10.4	NNW	0.17	11.3	-29.1	---	---	724.5	0.026	0.000	18.7	1	1
03/29/06	2:09 p	-19.1	-19.1	-19.1	---	---	10.4	NNW	0.17	12.2	-29.1	---	---	724.6	0.026	0.000	18.7	1	1
03/29/06	2:10 p	-19.1	-19.1	-19.1	---	---	11.3	NNW	0.19	13.0	-29.5	---	---	724.6	0.026	0.000	18.7	1	1
03/29/06	2:11 p	-19.1	-19.1	-19.1	---	---	11.3	NNW	0.19	12.2	-29.4	---	---	724.5	0.026	0.000	18.7	1	1
03/29/06	2:12 p	-19.1	-19.1	-19.1	---	---	12.2	NNW	0.20	14.8	-29.8	---	---	724.5	0.026	0.000	18.7	1	1
03/29/06	2:13 p	-19.1	-19.1	-19.1	---	---	12.2	NNW	0.20	13.9	-29.8	---	---	724.5	0.026	0.000	18.7	1	1
03/29/06	2:14 p	-19.1	-19.1	-19.1	---	---	11.3	NNW	0.19	11.3	-29.4	---	---	724.6	0.026	0.000	18.7	1	1
03/29/06	2:15 p	-19.1	-19.0	-19.1	---	---	11.3	NNW	0.19	12.2	-29.4	---	---	724.6	0.026	0.000	18.7	1	1
03/29/06	2:16 p	-19.0	-19.0	-19.1	---	---	12.2	NNW	0.20	14.8	-29.7	---	---	724.5	0.026	0.000	18.7	1	1
03/29/06	2:17 p	-19.0	-19.0	-19.1	---	---	10.4	NNW	0.17	12.2	-28.9	---	---	724.5	0.026	0.000	18.7	1	1
03/29/06	2:18 p	-19.0	-19.0	-19.0	---	---	12.2	NNW	0.20	13.0	-29.7	---	---	724.6	0.026	0.000	18.7	1	1
03/29/06	2:19 p	-18.9	-18.9	-18.9	---	---	11.3	NNW	0.19	13.0	-29.3	---	---	724.6	0.026	0.000	18.7	1	1
03/29/06	2:20 p	-18.9	-18.9	-18.9	---	---	10.4	NNW	0.17	12.2	-28.9	---	---	724.6	0.026	0.000	18.7	1	1
03/29/06	2:21 p	-18.9	-18.9	-18.9	---	---	11.3	NNW	0.19	13.0	-29.3	---	---	724.5	0.026	0.000	18.6	1	1
03/29/06	2:22 p	-18.9	-18.9	-18.9	---	---	12.2	NNW	0.20	13.9	-29.7	---	---	724.5	0.026	0.000	18.6	1	1
03/29/06	2:23 p	-18.9	-18.9	-18.9	---	---	12.2	NNW	0.20	13.9	-29.7	---	---	724.6	0.026	0.000	18.6	1	1
03/29/06	2:24 p	-18.9	-18.9	-18.9	---	---	13.0	NNW	0.22	13.9	-29.9	---	---	724.5	0.026	0.000	18.6	1	1
03/29/06	2:25 p	-18.9	-18.9	-18.9	---	---	12.2	NW	0.20	13.9	-29.6	---	---	724.7	0.026	0.000	18.6	1	1
03/29/06	2:26 p	-18.9	-18.8	-18.9	---	---	11.3	NNW	0.19	12.2	-29.2	---	---	724.8	0.026	0.000	18.6	1	1
03/29/06	2:27 p	-18.9	-18.8	-18.9	---	---	11.3	NNW	0.19	13.0	-29.2	---	---	724.7	0.026	0.000	18.6	1	1
03/29/06	2:28 p	-18.8	-18.8	-18.9	---	---	10.4	NNW	0.17	12.2	-28.8	---	---	724.6	0.026	0.000	18.6	1	1
03/29/06	2:29 p	-18.8	-18.8	-18.8	---	---	10.4	NNW	0.17	12.2	-28.8	---	---	724.6	0.026	0.000	18.6	1	1
03/29/06	2:30 p	-18.8	-18.8	-18.8	---	---	10.4	NNW	0.17	12.2	-28.8	---	---	724.7	0.026	0.000	18.6	1	1
03/29/06	2:31 p	-18.8	-18.8	-18.8	---	---	11.3	NNW	0.19	12.2	-29.1	---	---	724.6	0.026	0.000	18.6	1	1
03/29/06	2:32 p	-18.8	-18.7	-18.8	---	---	12.2	NNW	0.20	13.0	-29.4	---	---	724.7	0.026	0.000	18.6	1	1
03/29/06	2:33 p	-18.7	-18.7	-18.7	---	---	12.2	NNW	0.20	13.9	-29.4	---	---	724.7	0.026	0.000	18.6	1	1
03/29/06	2:34 p	-18.7	-18.7	-18.7	---	---	13.0	NNW	0.22	13.9	-29.7	---	---	724.6	0.026	0.000	18.6	1	1
03/29/06	2:35 p	-18.7	-18.7	-18.7	---	---	11.3	NNW	0.19	13.0	-29.0	---	---	724.7	0.026	0.000	18.6	1	1
03/29/06	2:36 p	-18.7	-18.7	-18.7	---	---	11.3	NNW	0.19	13.0	-29.0	---	---	724.7	0.026	0.000	18.6	1	1
03/29/06	2:37 p	-18.7	-18.7	-18.7	---	---	10.4	NNW	0.17	12.2	-28.6	---	---	724.7	0.026	0.000	18.6	1	1
03/29/06	2:38 p	-18.7	-18.7	-18.7	---	---	9.6	NNW	0.16	10.4	-28.1	---	---	724.8	0.026	0.000	18.6	1	1
03/29/06	2:39 p	-18.7	-18.7	-18.7	---	---	8.7	NNW	0.14	11.3	-27.7	---	---	724.8	0.026	0.000	18.6	1	1
03/29/06	2:40 p	-18.7	-18.7	-18.7	---	---	8.7	NNW	0.14	11.3	-27.7	---	---	724.8	0.026	0.000	18.6	1	1
03/29/06	2:41 p	-18.7	-18.7	-18.7	---	---	7.0	NW	0.12	9.6	-26.7	---	---	724.9	0.026	0.000	18.6	1	1
03/29/06	2:42 p	-18.7	-18.7	-18.7	---	---	7.0	NNW	0.12	7.8	-26.7	---	---	724.8	0.026	0.000	18.6	1	1
03/29/06	2:43 p	-18.7	-18.6	-18.7	---	---	6.1	NW	0.10	7.8	-26.1	---	---	724.9	0.026	0.000	18.6	1	1
03/29/06	2:44 p	-18.7	-18.6	-18.7	---	---	2.6	NW	0.04	4.3	-22.6	---	---	724.9	0.026	0.000	18.6	1	1
03/29/06	2:45 p	-18.7	-18.6	-18.7	---	---	4.3	NW	0.07	6.1	-24.6	---	---	724.9	0.026	0.000	18.6	1	1
03/29/06	2:46 p	-18.7	-18.7	-18.7	---	---	3.5	NW	0.06	5.2	-23.7	---	---	724.9	0.026	0.000	18.6	1	1
03/29/06	2:47 p	-18.7	-18.7	-18.7	---	---	2.6	NW	0.04	2.6	-22.6	---	---	724.9	0.026	0.000	18.6	1	1
03/29/06	2:48 p	-18.7	-18.7	-18.7	---	---	5.2	NW	0.09	6.1	-25.4	---	---	725.0	0.026	0.000	18.6	1	1
03/29/06	2:49 p	-18.7	-18.7	-18.7	---	---	5.2	NW	0.09	7.0	-25.4	---	---	725.0	0.026	0.000	18.6	1	1
03/29/06	2:50 p	-18.7	-18.7	-18.7	---	---	2.6	NW	0.04	4.3	-22.6	---	---	725.0	0.026	0.000	18.6	1	1
03/29/06	2:51 p	-18.7	-18.7	-18.7	---	---	2.6	NW	0.04	3.5	-22.6	---	---	724.9	0.026	0.000	18.7	1	1
03/29/06	2:52 p	-18.7	-18.7	-18.7	---	---	2.6	NW	0.04	7.0	-22.6	---	---	725.0	0.026	0.000	18.7	1	1
03/29/06	2:53 p	-18.7	-18.7	-18.8	---	---	5.2	NW	0.09	7.0	-25.4	---	---	724.9	0.026	0.000	18.7	1	1
03/29/06	2:54 p	-18.7	-18.7	-18.8	---	---	4.3	NW	0.07	5.2	-24.7	---	---	724.9	0.026	0.000	18.7	1	1
03/29/06	2:55 p	-18.8	-18.8	-18.8	---	---	4.3	NNW	0.07	5.2	-24.7	---	---	724.9	0.026	0.000	18.7	1	1
03/29/06	2:56 p	-18.8	-18.8	-18.8	---	---	4.3	NNW	0.07	5.2	-24.7	---	---	724.9	0.026	0.000	18.7	1	1
03/29/06	2:57 p	-18.8	-18.8	-18.8	---	---	4.3	NNW	0.07	6.1	-24.7	---	---	725.0	0.026	0.000	18.7	1	1
03/29/06	2:58 p	-18.8	-18.8	-18.8	---	---	5.2	NNW	0.09	6.1	-25.5	---	---	724.9	0.026	0.000	18.7	1	1
03/29/06	2:59 p	-18.9	-18.8	-18.9	---	---	5.2	NW	0.09	6.1	-25.7	---	---	724.9	0.026	0.000	18.7	1	1
03/29/06	3:00 p	-18.9	-18.8	-18.9	---	---	6.1	NNW	0.10	7.8	-26.3	---	---	724.8	0.026	0.000	18.7	1	1
03/29/06	3:01 p	-18.9	-18.9	-18.9	---	---	7.0	NNW	0.12	9.6	-26.9	---	---	724.8	0.026	0.000	18.7	1	1
03/29/06	3:02 p	-18.9	-18.9	-18.9	---	---	7.8	NNW	0.13	9.6	-27.4	---	---	724.8	0.026	0.000	18.7	1	1
03/29/06	3:03 p	-18.9	-18.9	-18.9	---	---	8.7	NNW	0.14	10.4	-27.9	---	---	724.8	0.026	0.000	18.7	1	1
03/29/06	3:04 p	-18.9	-18.9	-18.9	---	---	8.7	NNW	0.14	10.4	-28.0	---	---	724.8	0.026	0.000	18.7	1	1
03/29/06	3:05 p	-18.9	-18.9	-18.9	---	---	9.6	NNW	0.16	10.4	-28.4	---	---	724.8	0.026	0.000	18.7	1	1
03/29/06	3:06 p	-18.9	-18.9	-18.9	---	---	8.7	NNW	0.14	9.6	-28.0	---	---	724.8	0.026	0.000	18.7	1	1
03/29/06	3:07 p	-18.9	-18.8	-18.9	---	---	7.8	NNW	0.13	8.7	-27.4	---	---	724.8	0.026	0.000	18.7	1	1
03/29/06	3:08 p	-18.9	-18.8	-18.9	---	---	9.6	NNW	0.16	12.2	-28.4	---	---	724.7	0.026	0.000	18.7	1	1
03/29/06	3:09 p	-18.9	-18.8	-18.9	---	---	10.4	NNW	0.17	11.3	-28.8	---	---	724.9	0.026	0.000	18.7	1	1
03/29/06	3:10 p	-18.8	-18.8	-18.8	---	---	8.7	NNW	0.14	11.3	-27.9	---	---	724.9	0.026	0.000	18.7	1	1
03/29/06	3:11 p	-18.8	-18.8	-18.8	---	---	7.8	NNW	0.13	8.7	-27.3	---	---	724.9	0.026	0.000	18.7	1	1
03/29/06	3:12 p	-18.8	-18.7	-18.8	---	---	7.8	NNW	0.13	10.4	-27.3	---	---	724.9	0.026	0.000	18.7	1	1
03/29/06	3:13 p	-18.7	-18.7	-18.8	---	---	9.6	NNW	0.16	11.3	-28.2	---	---	724.9	0.026	0.000	18.7	1	1
03/29/06	3:14 p	-18.7	-18.7	-18.7	---	---	9.6	NW	0.16	10.4	-28.2	---	---	724.8	0.026	0.000	18.7	1	1
03/29/06	3:15 p	-18.7	-18.7	-18.7	---	---	8.7	NW	0.14	10.4	-27.7	---	---	725.0	0.026	0.000	18.7	1	1
03/29/06	3:16 p	-18.7	-18.7	-18.7	---	---	7.0	NW	0.12	7.8	-26.7	---	---	725.0	0.026	0.000	18.7	1	1
03/29/06	3:17 p	-18.7	-18.7	-18.7	---	---	6.1	NW	0.10	7.8	-26.1	---	---	725.0	0.026	0.000	18.7	1	1
03/29/06	3:18 p	-18.6	-18.6	-18.7	---	---	6.1	NW	0.10	7.0	-26.0	---	---	725.0	0.026	0.000	18.7	1	1
03/29/06	3:19 p	-18.6	-18.6	-18.7	---	---	4.3	SW	0.07	6.1	-24.6	---	---	725.0	0.026	0.000	18.7	1	1
03/29/06	3:20 p	-18.6	-18.6	-18.7	---	---	3.5	WSW	0.06	4.3	-23.6	---	---	725.1	0.026	0.000	18.7	1	1
03/29/06	3:21 p	-18.7	-18.6	-18.7	---	---	5.2	SSW	0.09	7.0	-25.4	---	---	725.1	0.026	0.000	18.7	1	1
03/29/06	3:22 p	-18.7	-18.7	-18.7	---	---	6.1	SSW	0.10	7.0	-26.1	---	---	725.2	0.026	0.000	18.7	1	1
03/29/06	3:23 p	-18.7	-18.7	-18.7	---	---	3.5	SSW	0.06	6.1	-23.7	---	---	725.1	0.026	0.000	18.7	1	1
03/29/06	3:24 p	-18.7	-18.7	-18.7	---	---	0.9	SSW	0.01	2.6	-18.7	---	---	725.0	0.026	0.000	18.7	1	1
03/29/06	3:25 p	-18.7	-18.7	-18.7	---	---	0.9	SSW	0.01	1.7	-18.7	---	---	725.1	0.026	0.000	18.7	1	1
03/29/06	3:26 p	-18.8	-18.7	-18.8	---	---	1.7	SSW	0.03	2.6	-21.2	---	---	725.0	0.026	0.000	18.7	1	1
03/29/06	3:27 p	-18.8	-18.8	-18.8	---	---	1.7	SSW	0.03	1.7	-21.2	---	---	725.0	0.026	0.000	18.7	1	1
03/29/06	3:28 p	-18.8	-18.8	-18.9	---	---	2.6	SSW	0.04	2.6	-22.7	---	---	725.0	0.026	0.000	18.7	1	1
03/29/06	3:29 p	-18.9	-18.8	-18.9	---	---	2.6	S	0.04	3.5	-22.8	---	---	725.1	0.026	0.000	18.7	1	1
03/29/06	3:30 p	-18.9	-18.9	-18.9	---	---	1.7	S	0.03	2.6	-21.3	---	---	725.0	0.026	0.000	18.7	1	1
03/29/06	3:31 p	-18.9	-18.9	-18.9	---	---	2.6	S	0.04	3.5	-22.9	---	---	725.1	0.026	0.000	18.7	1	1
03/29/06	3:32 p	-18.9	-18.9	-18.9	---	---	3.5	NW	0.06	5.2	-24.0	---	---	725.0	0.026	0.000	18.7	1	1
03/29/06	3:33 p	-19.0	-18.9	-19.1	---	---	2.6	NW	0.04	4.3	-22.9	---	---	725.0	0.026	0.000	18.7	1	1
03/29/06	3:34 p	-18.9	-18.9	-19.0	---	---	1.7	NW	0.03	2.6	-21.3	---	---	725.0	0.026	0.000	18.7	1	1
03/29/06	3:35 p	-19.0	-19.0	-19.0	---	---	2.6	NW	0.04	3.5	-22.9	---	---	725.0	0.026	0.000	18.7	1	1
03/29/06	3:36 p	-19.1	-19.1	-19.1	---	---	2.6	NW	0.04	3.5	-23.0	---	---	725.0	0.026	0.000	18.7	1	1
03/29/06	3:37 p	-19.1	-19.1	-19.1	---	---	3.5	NW	0.06	4.3	-24.1	---	---	725.0	0.026	0.000	18.7	1	1
03/29/06	3:38 p	-19.1	-19.1	-19.1	---	---	2.6	NW	0.04	4.3	-23.1	---	---	725.0	0.026	0.000	18.7	1	1
03/29/06	3:39 p	-19.1	-19.1	-19.2	---	---	3.5	NW	0.06	4.3	-24.2	---	---	725.0	0.026	0.000	18.7	1	1
03/29/06	3:40 p	-19.2	-19.2	-19.2	---	---	4.3	NW	0.07	5.2	-25.2	---	---	724.9	0.026	0.000	18.7	1	1
03/29/06	3:41 p	-19.2	-19.2	-19.2	---	---	6.1	NNW	0.10	7.8	-26.7	---	---	725.0	0.026	0.000	18.7	1	1
03/29/06	3:42 p	-19.2	-19.2	-19.2	---	---	5.2	NNW	0.09	7.0	-26.0	---	---	725.0	0.026	0.000	18.7	1	1
03/29/06	3:43 p	-19.2	-19.2	-19.2	---	---	6.1	NNW	0.10	7.0	-26.7	---	---	725.0	0.026	0.000	18.7	1	1
03/29/06	3:44 p	-19.1	-19.1	-19.2	---	---	6.1	NNW	0.10	7.0	-26.6	---	---	725.0	0.026	0.000	18.8	1	1
03/29/06	3:45 p	-19.1	-19.1	-19.1	---	---	6.1	NNW	0.10	8.7	-26.6	---	---	724.9	0.026	0.000	18.8	1	1
03/29/06	3:46 p	-19.1	-19.1	-19.1	---	---	5.2	NNW	0.09	6.1	-25.8	---	---	725.0	0.026	0.000	18.8	1	1
03/29/06	3:47 p	-19.0	-18.9	-19.1	---	---	7.0	NNW	0.12	9.6	-27.1	---	---	725.0	0.026	0.000	18.8	1	1
03/29/06	3:48 p	-18.9	-18.9	-18.9	---	---	6.1	NNW	0.10	7.8	-26.4	---	---	724.9	0.026	0.000	18.8	1	1
03/29/06	3:49 p	-18.9	-18.9	-18.9	---	---	7.0	NNW	0.12	7.8	-26.9	---	---	724.9	0.026	0.000	18.8	1	1
03/29/06	3:50 p	-18.8	-18.8	-18.9	---	---	7.0	NW	0.12	8.7	-26.8	---	---	725.1	0.026	0.000	18.8	1	1
03/29/06	3:51 p	-18.8	-18.8	-18.8	---	---	6.1	NW	0.10	7.0	-26.2	---	---	725.0	0.026	0.000	18.8	1	1
03/29/06	3:52 p	-18.7	-18.7	-18.7	---	---	6.1	NW	0.10	7.0	-26.1	---	---	725.0	0.026	0.000	18.8	1	1
03/29/06	3:53 p	-18.7	-18.7	-18.7	---	---	5.2	NW	0.09	7.0	-25.4	---	---	725.0	0.026	0.000	18.8	1	1
03/29/06	3:54 p	-18.7	-18.6	-18.7	---	---	5.2	NW	0.09	6.1	-25.4	---	---	725.1	0.026	0.000	18.8	1	1
03/29/06	3:55 p	-18.7	-18.6	-18.7	---	---	4.3	NW	0.07	6.1	-24.6	---	---	725.0	0.026	0.000	18.8	1	1
03/29/06	3:56 p	-18.7	-18.6	-18.7	---	---	4.3	NW	0.07	5.2	-24.6	---	---	725.0	0.026	0.000	18.8	1	1
03/29/06	3:57 p	-18.6	-18.6	-18.7	---	---	3.5	NW	0.06	5.2	-23.6	---	---	725.1	0.026	0.000	18.8	1	1
03/29/06	3:58 p	-18.7	-18.7	-18.7	---	---	2.6	NW	0.04	4.3	-22.6	---	---	725.0	0.026	0.000	18.8	1	1
03/29/06	3:59 p	-18.7	-18.6	-18.7	---	---	3.5	NW	0.06	5.2	-23.7	---	---	725.0	0.026	0.000	18.8	1	1
03/29/06	4:00 p	-18.7	-18.6	-18.7	---	---	7.0	NW	0.12	8.7	-26.7	---	---	725.0	0.026	0.000	18.8	1	1
03/29/06	4:01 p	-18.7	-18.6	-18.7	---	---	8.7	NNW	0.14	8.7	-27.7	---	---	725.0	0.026	0.000	18.8	1	1
03/29/06	4:02 p	-18.6	-18.6	-18.7	---	---	5.2	NNW	0.09	7.0	-25.3	---	---	725.0	0.026	0.000	18.8	1	1
03/29/06	4:03 p	-18.7	-18.6	-18.7	---	---	1.7	NNW	0.03	2.6	-21.1	---	---	725.0	0.026	0.000	18.8	1	1
03/29/06	4:04 p	-18.6	-18.6	-18.7	---	---	0.9	NNW	0.01	1.7	-18.6	---	---	725.0	0.026	0.000	18.8	1	1
03/29/06	4:05 p	-18.6	-18.6	-18.6	---	---	0.9	NNW	0.01	0.9	-18.6	---	---	724.9	0.026	0.000	18.8	1	1
03/29/06	4:06 p	-18.6	-18.6	-18.7	---	---	0.9	NNW	0.01	2.6	-18.6	---	---	725.1	0.026	0.000	18.8	1	1
03/29/06	4:07 p	-18.6	-18.6	-18.7	---	---	4.3	SSE	0.07	6.1	-24.6	---	---	725.0	0.026	0.000	18.8	1	1
03/29/06	4:08 p	-18.6	-18.6	-18.6	---	---	4.3	S	0.07	6.1	-24.6	---	---	725.1	0.026	0.000	18.8	1	1
03/29/06	4:09 p	-18.7	-18.6	-18.7	---	---	1.7	S	0.03	3.5	-21.1	---	---	725.0	0.026	0.000	18.8	1	1
03/29/06	4:10 p	-18.6	-18.6	-18.7	---	---	0.9	S	0.01	3.5	-18.6	---	---	725.1	0.026	0.000	18.8	1	1
03/29/06	4:11 p	-18.7	-18.7	-18.7	---	---	2.6	WNW	0.04	3.5	-22.6	---	---	725.0	0.026	0.000	18.8	1	1
03/29/06	4:12 p	-18.7	-18.6	-18.7	---	---	1.7	WNW	0.03	2.6	-21.1	---	---	725.0	0.026	0.000	18.8	1	1
03/29/06	4:13 p	-18.7	-18.6	-18.7	---	---	0.9	WNW	0.01	1.7	-18.7	---	---	725.0	0.026	0.000	18.9	1	1
03/29/06	4:14 p	-18.7	-18.6	-18.7	---	---	0.9	WNW	0.01	1.7	-18.7	---	---	725.0	0.026	0.000	18.9	1	1
03/29/06	4:15 p	-18.7	-18.7	-18.7	---	---	0.9	WNW	0.01	0.9	-18.7	---	---	725.1	0.026	0.000	18.9	1	1
03/29/06	4:16 p	-18.7	-18.7	-18.7	---	---	0.0	---	0.00	0.0	-18.6	---	---	725.0	0.026	0.000	18.9	1	1
03/29/06	4:17 p	-18.7	-18.7	-18.7	---	---	0.0	WNW	0.00	0.9	-18.6	---	---	725.1	0.026	0.000	18.8	1	1
03/29/06	4:18 p	-18.7	-18.7	-18.7	---	---	0.9	WNW	0.01	1.7	-18.7	---	---	725.1	0.026	0.000	18.8	1	1
03/29/06	4:19 p	-18.7	-18.7	-18.7	---	---	2.6	WNW	0.04	3.5	-22.6	---	---	725.0	0.026	0.000	18.8	1	1
03/29/06	4:20 p	-18.7	-18.7	-18.7	---	---	2.6	NNE	0.04	3.5	-22.6	---	---	725.0	0.026	0.000	18.8	1	1
03/29/06	4:21 p	-18.7	-18.7	-18.7	---	---	0.9	NNE	0.01	2.6	-18.7	---	---	725.0	0.026	0.000	18.8	1	1
03/29/06	4:22 p	-18.7	-18.7	-18.7	---	---	3.5	ESE	0.06	4.3	-23.7	---	---	725.0	0.026	0.000	18.8	1	1
03/29/06	4:23 p	-18.7	-18.7	-18.7	---	---	1.7	ESE	0.03	3.5	-21.1	---	---	725.0	0.026	0.000	18.8	1	1
03/29/06	4:24 p	-18.7	-18.7	-18.7	---	---	2.6	ESE	0.04	4.3	-22.6	---	---	725.0	0.026	0.000	18.8	1	1
03/29/06	4:25 p	-18.7	-18.7	-18.8	---	---	3.5	SE	0.06	5.2	-23.8	---	---	725.1	0.026	0.000	18.8	1	1
03/29/06	4:26 p	-18.8	-18.8	-18.8	---	---	3.5	SE	0.06	4.3	-23.8	---	---	725.1	0.026	0.000	18.8	1	1
03/29/06	4:27 p	-18.8	-18.8	-18.8	---	---	2.6	SE	0.04	3.5	-22.7	---	---	725.1	0.026	0.000	18.9	1	1
03/29/06	4:28 p	-18.8	-18.8	-18.8	---	---	3.5	SE	0.06	3.5	-23.8	---	---	725.0	0.026	0.000	18.9	1	1
03/29/06	4:29 p	-18.8	-18.8	-18.8	---	---	3.5	SE	0.06	4.3	-23.9	---	---	725.0	0.026	0.000	18.8	1	1
03/29/06	4:30 p	-18.9	-18.9	-18.9	---	---	3.5	SSE	0.06	5.2	-23.9	---	---	725.0	0.026	0.000	18.8	1	1
03/29/06	4:31 p	-18.9	-18.9	-18.9	---	---	5.2	SSE	0.09	7.0	-25.7	---	---	725.0	0.026	0.000	18.8	1	1
03/29/06	4:32 p	-18.9	-18.9	-18.9	---	---	3.5	SSE	0.06	7.0	-23.9	---	---	725.0	0.026	0.000	18.8	1	1
03/29/06	4:33 p	-18.9	-18.9	-18.9	---	---	5.2	S	0.09	6.1	-25.7	---	---	725.0	0.026	0.000	18.9	1	1
03/29/06	4:34 p	-19.0	-18.9	-19.0	---	---	6.1	SW	0.10	7.8	-26.4	---	---	725.0	0.026	0.000	18.8	1	1
03/29/06	4:35 p	-18.9	-18.9	-19.0	---	---	5.2	S	0.09	7.0	-25.7	---	---	725.1	0.026	0.000	18.9	1	1
03/29/06	4:36 p	-18.9	-18.9	-19.0	---	---	3.5	S	0.06	4.3	-24.0	---	---	725.0	0.026	0.000	18.9	1	1
03/29/06	4:37 p	-19.0	-19.0	-19.0	---	---	2.6	S	0.04	3.5	-22.9	---	---	725.0	0.026	0.000	18.9	1	1
03/29/06	4:38 p	-19.0	-19.0	-19.1	---	---	2.6	S	0.04	3.5	-22.9	---	---	725.1	0.026	0.000	18.9	1	1
03/29/06	4:39 p	-19.1	-19.1	-19.1	---	---	2.6	S	0.04	4.3	-23.0	---	---	724.9	0.026	0.000	18.9	1	1
03/29/06	4:40 p	-19.1	-19.1	-19.1	---	---	3.5	S	0.06	6.1	-24.1	---	---	725.0	0.026	0.000	18.9	1	1
03/29/06	4:41 p	-19.1	-19.1	-19.1	---	---	4.3	SSW	0.07	5.2	-25.1	---	---	725.0	0.026	0.000	18.9	1	1
03/29/06	4:42 p	-19.1	-19.1	-19.1	---	---	4.3	SSW	0.07	4.3	-25.1	---	---	725.0	0.026	0.000	18.9	1	1
03/29/06	4:43 p	-19.2	-19.2	-19.2	---	---	3.5	SSW	0.06	4.3	-24.3	---	---	724.9	0.026	0.000	18.9	1	1
03/29/06	4:44 p	-19.2	-19.2	-19.2	---	---	3.5	SSW	0.06	4.3	-24.3	---	---	724.9	0.026	0.000	18.9	1	1
03/29/06	4:45 p	-19.2	-19.2	-19.3	---	---	3.5	SSW	0.06	4.3	-24.3	---	---	724.9	0.026	0.000	18.9	1	1
03/29/06	4:46 p	-19.2	-19.2	-19.3	---	---	3.5	SSW	0.06	4.3	-24.3	---	---	725.0	0.026	0.000	18.9	1	1
03/29/06	4:47 p	-19.2	-19.2	-19.2	---	---	3.5	SSW	0.06	3.5	-24.3	---	---	725.0	0.026	0.000	18.9	1	1
03/29/06	4:48 p	-19.3	-19.2	-19.3	---	---	2.6	SSW	0.04	3.5	-23.2	---	---	724.9	0.026	0.000	18.9	1	1
03/29/06	4:49 p	-19.3	-19.3	-19.3	---	---	1.7	SSW	0.03	2.6	-21.7	---	---	724.9	0.026	0.000	18.9	1	1
03/29/06	4:50 p	-19.3	-19.3	-19.4	---	---	0.9	SSW	0.01	1.7	-19.3	---	---	724.8	0.026	0.000	18.9	1	1
03/29/06	4:51 p	-19.3	-19.3	-19.4	---	---	0.0	---	0.00	0.0	-19.3	---	---	724.9	0.026	0.000	18.9	1	1
03/29/06	4:52 p	-19.4	-19.4	-19.4	---	---	0.0	---	0.00	0.0	-19.3	---	---	724.8	0.026	0.000	18.9	1	1
03/29/06	4:53 p	-19.4	-19.4	-19.4	---	---	0.0	---	0.00	0.0	-19.3	---	---	724.8	0.026	0.000	18.9	1	1
03/29/06	4:54 p	-19.4	-19.4	-19.4	---	---	0.0	---	0.00	0.0	-19.4	---	---	724.9	0.026	0.000	19.0	1	1
03/29/06	4:55 p	-19.4	-19.4	-19.4	---	---	0.0	---	0.00	0.0	-19.4	---	---	724.8	0.026	0.000	19.0	1	1
03/29/06	4:56 p	-19.5	-19.4	-19.5	---	---	0.0	SSW	0.00	0.9	-19.4	---	---	724.9	0.026	0.000	19.0	1	1
03/29/06	4:57 p	-19.4	-19.4	-19.5	---	---	0.9	SSW	0.01	0.9	-19.5	---	---	724.9	0.026	0.000	19.0	1	1
03/29/06	4:58 p	-19.5	-19.5	-19.5	---	---	0.0	SSW	0.00	0.9	-19.4	---	---	724.9	0.026	0.000	19.0	1	1
03/29/06	4:59 p	-19.5	-19.5	-19.5	---	---	1.7	SSW	0.03	2.6	-21.9	---	---	724.9	0.026	0.000	19.0	1	1
03/29/06	5:00 p	-19.5	-19.5	-19.6	---	---	0.9	SSW	0.01	1.7	-19.6	---	---	724.9	0.026	0.000	19.0	1	1
03/29/06	5:01 p	-19.5	-19.5	-19.6	---	---	0.9	SSW	0.01	0.9	-19.6	---	---	724.8	0.026	0.000	19.1	1	1
03/29/06	5:02 p	-19.6	-19.5	-19.6	---	---	0.0	SSW	0.00	0.9	-19.5	---	---	724.9	0.026	0.000	19.0	1	1
03/29/06	5:03 p	-19.6	-19.6	-19.6	---	---	0.0	---	0.00	0.0	-19.5	---	---	724.9	0.026	0.000	19.0	1	1
03/29/06	5:04 p	-19.6	-19.6	-19.6	---	---	0.9	SSW	0.01	0.9	-19.6	---	---	724.9	0.026	0.000	19.1	1	1
03/29/06	5:05 p	-19.6	-19.6	-19.6	---	---	0.9	SSW	0.01	1.7	-19.7	---	---	724.9	0.026	0.000	19.1	1	1
03/29/06	5:06 p	-19.6	-19.6	-19.6	---	---	0.9	SSW	0.01	0.9	-19.7	---	---	724.9	0.026	0.000	19.1	1	1
03/29/06	5:07 p	-19.6	-19.6	-19.7	---	---	0.9	SSW	0.01	1.7	-19.7	---	---	724.9	0.026	0.000	19.1	1	1
03/29/06	5:08 p	-19.7	-19.6	-19.7	---	---	0.9	SSW	0.01	0.9	-19.7	---	---	724.9	0.026	0.000	19.1	1	1
03/29/06	5:09 p	-19.7	-19.7	-19.7	---	---	0.0	SSW	0.00	0.9	-19.6	---	---	724.9	0.026	0.000	19.1	1	1
03/29/06	5:10 p	-19.7	-19.7	-19.7	---	---	0.0	SSW	0.00	0.9	-19.6	---	---	724.8	0.026	0.000	19.1	1	1
03/29/06	5:11 p	-19.7	-19.7	-19.7	---	---	0.0	---	0.00	0.0	-19.7	---	---	724.8	0.026	0.000	19.0	1	1
03/29/06	5:12 p	-19.7	-19.7	-19.8	---	---	0.0	---	0.00	0.0	-19.7	---	---	724.9	0.026	0.000	19.0	1	1
03/29/06	5:13 p	-19.8	-19.7	-19.8	---	---	0.0	---	0.00	0.0	-19.7	---	---	724.8	0.026	0.000	19.0	1	1
03/29/06	5:14 p	-19.8	-19.8	-19.8	---	---	0.0	---	0.00	0.0	-19.7	---	---	724.8	0.026	0.000	19.0	1	1
03/29/06	5:15 p	-19.8	-19.8	-19.8	---	---	0.0	---	0.00	0.0	-19.8	---	---	724.8	0.027	0.000	19.0	1	1
03/29/06	5:16 p	-19.8	-19.8	-19.8	---	---	0.0	---	0.00	0.0	-19.8	---	---	724.8	0.027	0.000	19.0	1	1
03/29/06	5:17 p	-19.8	-19.8	-19.9	---	---	0.0	---	0.00	0.0	-19.8	---	---	724.8	0.027	0.000	19.0	1	1
03/29/06	5:18 p	-19.9	-19.9	-19.9	---	---	0.0	---	0.00	0.0	-19.8	---	---	724.8	0.027	0.000	19.0	1	1
03/29/06	5:19 p	-19.8	-19.8	-19.9	---	---	0.0	---	0.00	0.0	-19.8	---	---	724.7	0.027	0.000	19.0	1	1
03/29/06	5:20 p	-19.9	-19.9	-19.9	---	---	0.0	---	0.00	0.0	-19.8	---	---	724.8	0.027	0.000	19.0	1	1
03/29/06	5:21 p	-19.9	-19.9	-19.9	---	---	0.0	SSW	0.00	0.9	-19.9	---	---	724.9	0.027	0.000	19.0	1	1
03/29/06	5:22 p	-19.9	-19.9	-19.9	---	---	0.9	SSW	0.01	3.5	-20.0	---	---	724.8	0.027	0.000	19.1	1	1
03/29/06	5:23 p	-19.9	-19.9	-20.0	---	---	4.3	E	0.07	5.2	-26.1	---	---	724.7	0.027	0.000	19.0	1	1
03/29/06	5:24 p	-20.0	-20.0	-20.0	---	---	4.3	ENE	0.07	6.1	-26.2	---	---	724.8	0.027	0.000	19.0	1	1
03/29/06	5:25 p	-20.1	-20.1	-20.1	---	---	4.3	ENE	0.07	5.2	-26.2	---	---	724.8	0.027	0.000	19.0	1	1
03/29/06	5:26 p	-20.1	-20.1	-20.1	---	---	4.3	ENE	0.07	4.3	-26.2	---	---	724.7	0.027	0.000	19.0	1	1
03/29/06	5:27 p	-20.1	-20.1	-20.1	---	---	3.5	ENE	0.06	4.3	-25.3	---	---	724.8	0.027	0.000	19.0	1	1
03/29/06	5:28 p	-20.1	-20.1	-20.1	---	---	4.3	ENE	0.07	4.3	-26.2	---	---	724.8	0.027	0.000	19.1	1	1
03/29/06	5:29 p	-20.1	-20.1	-20.1	---	---	3.5	ENE	0.06	4.3	-25.3	---	---	724.7	0.027	0.000	19.1	1	1
03/29/06	5:30 p	-20.2	-20.1	-20.2	---	---	3.5	ENE	0.06	4.3	-25.4	---	---	724.7	0.027	0.000	19.1	1	1
03/29/06	5:31 p	-20.2	-20.2	-20.2	---	---	3.5	ENE	0.06	3.5	-25.4	---	---	724.7	0.027	0.000	19.1	1	1
03/29/06	5:32 p	-20.2	-20.2	-20.2	---	---	2.6	ENE	0.04	3.5	-24.2	---	---	724.8	0.027	0.000	19.1	1	1
03/29/06	5:33 p	-20.2	-20.2	-20.2	---	---	2.6	ENE	0.04	3.5	-24.2	---	---	724.7	0.027	0.000	19.1	1	1
03/29/06	5:34 p	-20.2	-20.2	-20.2	---	---	1.7	ENE	0.03	2.6	-22.7	---	---	724.8	0.027	0.000	19.1	1	1
03/29/06	5:35 p	-20.2	-20.2	-20.2	---	---	1.7	ENE	0.03	2.6	-22.7	---	---	724.7	0.027	0.000	19.1	1	1
03/29/06	5:36 p	-20.2	-20.2	-20.2	---	---	1.7	ENE	0.03	2.6	-22.7	---	---	724.8	0.027	0.000	19.1	1	1
03/29/06	5:37 p	-20.2	-20.2	-20.3	---	---	1.7	ENE	0.03	1.7	-22.7	---	---	724.8	0.027	0.000	19.1	1	1
03/29/06	5:38 p	-20.3	-20.2	-20.3	---	---	1.7	ENE	0.03	2.6	-22.8	---	---	724.8	0.027	0.000	19.1	1	1
03/29/06	5:39 p	-20.3	-20.2	-20.3	---	---	1.7	ENE	0.03	2.6	-22.8	---	---	724.8	0.027	0.000	19.1	1	1
03/29/06	5:40 p	-20.2	-20.2	-20.3	---	---	2.6	ENE	0.04	2.6	-24.3	---	---	724.7	0.027	0.000	19.1	1	1
03/29/06	5:41 p	-20.3	-20.2	-20.3	---	---	1.7	ENE	0.03	2.6	-22.8	---	---	724.7	0.027	0.000	19.1	1	1
03/29/06	5:42 p	-20.3	-20.3	-20.3	---	---	2.6	ENE	0.04	2.6	-24.4	---	---	724.8	0.027	0.000	19.1	1	1
03/29/06	5:43 p	-20.3	-20.2	-20.3	---	---	2.6	ENE	0.04	3.5	-24.4	---	---	724.7	0.027	0.000	19.1	1	1
03/29/06	5:44 p	-20.3	-20.3	-20.3	---	---	2.6	ENE	0.04	3.5	-24.4	---	---	724.7	0.027	0.000	19.1	1	1
03/29/06	5:45 p	-20.3	-20.3	-20.3	---	---	2.6	ENE	0.04	3.5	-24.4	---	---	724.7	0.027	0.000	19.1	1	1
03/29/06	5:46 p	-20.3	-20.3	-20.3	---	---	2.6	ENE	0.04	3.5	-24.4	---	---	724.7	0.027	0.000	19.1	1	1
03/29/06	5:47 p	-20.3	-20.2	-20.3	---	---	1.7	ENE	0.03	2.6	-22.8	---	---	724.8	0.027	0.000	19.1	1	1
03/29/06	5:48 p	-20.2	-20.2	-20.3	---	---	0.9	ENE	0.01	2.6	-20.3	---	---	724.6	0.027	0.000	19.1	1	1
03/29/06	5:49 p	-20.3	-20.2	-20.3	---	---	0.0	---	0.00	0.0	-20.2	---	---	724.7	0.027	0.000	19.1	1	1
03/29/06	5:50 p	-20.2	-20.2	-20.2	---	---	0.0	ENE	0.00	0.9	-20.2	---	---	724.6	0.027	0.000	19.1	1	1
03/29/06	5:51 p	-20.2	-20.2	-20.2	---	---	0.0	ENE	0.00	0.9	-20.2	---	---	724.7	0.027	0.000	19.1	1	1
03/29/06	5:52 p	-20.2	-20.2	-20.2	---	---	0.9	ENE	0.01	1.7	-20.3	---	---	724.7	0.027	0.000	19.1	1	1
03/29/06	5:53 p	-20.2	-20.2	-20.2	---	---	0.9	ENE	0.01	1.7	-20.3	---	---	724.7	0.027	0.000	19.1	1	1
03/29/06	5:54 p	-20.2	-20.2	-20.2	---	---	0.9	ENE	0.01	0.9	-20.3	---	---	724.7	0.027	0.000	19.1	1	1
03/29/06	5:55 p	-20.2	-20.2	-20.2	---	---	1.7	ENE	0.03	2.6	-22.7	---	---	724.6	0.027	0.000	19.1	1	1
03/29/06	5:56 p	-20.2	-20.2	-20.2	---	---	1.7	ENE	0.03	2.6	-22.7	---	---	724.6	0.027	0.000	19.1	1	1
03/29/06	5:57 p	-20.2	-20.1	-20.2	---	---	1.7	ENE	0.03	2.6	-22.7	---	---	724.6	0.027	0.000	19.1	1	1
03/29/06	5:58 p	-20.2	-20.1	-20.2	---	---	1.7	ENE	0.03	2.6	-22.7	---	---	724.6	0.027	0.000	19.1	1	1
03/29/06	5:59 p	-20.1	-20.1	-20.1	---	---	1.7	ENE	0.03	1.7	-22.6	---	---	724.6	0.027	0.000	19.1	1	1
03/29/06	6:00 p	-20.1	-20.1	-20.1	---	---	0.9	ENE	0.01	1.7	-20.1	---	---	724.6	0.027	0.000	19.1	1	1
03/29/06	6:01 p	-20.1	-20.1	-20.1	---	---	0.9	ENE	0.01	1.7	-20.1	---	---	724.7	0.027	0.000	19.1	1	1
03/29/06	6:02 p	-20.1	-20.1	-20.1	---	---	1.7	ENE	0.03	1.7	-22.6	---	---	724.6	0.027	0.000	19.1	1	1
03/29/06	6:03 p	-20.0	-20.0	-20.1	---	---	0.9	ENE	0.01	1.7	-20.1	---	---	724.6	0.027	0.000	19.1	1	1
03/29/06	6:04 p	-20.0	-20.0	-20.0	---	---	0.9	ENE	0.01	1.7	-20.1	---	---	724.5	0.027	0.000	19.1	1	1
03/29/06	6:05 p	-20.0	-19.9	-20.0	---	---	0.9	ENE	0.01	1.7	-20.1	---	---	724.6	0.027	0.000	19.1	1	1
03/29/06	6:06 p	-19.9	-19.9	-19.9	---	---	0.0	ENE	0.00	0.9	-19.9	---	---	724.5	0.027	0.000	19.1	1	1
03/29/06	6:07 p	-19.9	-19.9	-19.9	---	---	0.0	ENE	0.00	0.9	-19.8	---	---	724.6	0.027	0.000	19.1	1	1
03/29/06	6:08 p	-19.9	-19.9	-19.9	---	---	0.9	ENE	0.01	0.9	-19.9	---	---	724.6	0.027	0.000	19.1	1	1
03/29/06	6:09 p	-19.9	-19.8	-19.9	---	---	0.9	ENE	0.01	0.9	-19.9	---	---	724.6	0.027	0.000	19.1	1	1
03/29/06	6:10 p	-19.8	-19.8	-19.8	---	---	0.0	---	0.00	0.0	-19.8	---	---	724.6	0.027	0.000	19.1	1	1
03/29/06	6:11 p	-19.8	-19.8	-19.8	---	---	0.0	ENE	0.00	0.9	-19.8	---	---	724.6	0.027	0.000	19.1	1	1
03/29/06	6:12 p	-19.8	-19.8	-19.8	---	---	0.0	---	0.00	0.0	-19.8	---	---	724.6	0.027	0.000	19.1	1	1
03/29/06	6:13 p	-19.8	-19.8	-19.8	---	---	0.0	---	0.00	0.0	-19.7	---	---	724.6	0.026	0.000	19.1	1	1
03/29/06	6:14 p	-19.8	-19.7	-19.8	---	---	0.9	ENE	0.01	0.9	-19.8	---	---	724.7	0.026	0.000	19.1	1	1
03/29/06	6:15 p	-19.8	-19.7	-19.8	---	---	0.9	ENE	0.01	0.9	-19.8	---	---	724.6	0.026	0.000	19.1	1	1
03/29/06	6:16 p	-19.7	-19.7	-19.7	---	---	0.9	ENE	0.01	0.9	-19.8	---	---	724.6	0.026	0.000	19.1	1	1
03/29/06	6:17 p	-19.7	-19.7	-19.7	---	---	0.9	ENE	0.01	1.7	-19.8	---	---	724.6	0.026	0.000	19.1	1	1
03/29/06	6:18 p	-19.7	-19.7	-19.7	---	---	1.7	ENE	0.03	1.7	-22.1	---	---	724.6	0.026	0.000	19.1	1	1
03/29/06	6:19 p	-19.7	-19.7	-19.7	---	---	1.7	ENE	0.03	2.6	-22.1	---	---	724.6	0.026	0.000	19.1	1	1
03/29/06	6:20 p	-19.7	-19.7	-19.7	---	---	2.6	ENE	0.04	2.6	-23.7	---	---	724.6	0.026	0.000	19.1	1	1
03/29/06	6:21 p	-19.6	-19.6	-19.7	---	---	2.6	ENE	0.04	3.5	-23.6	---	---	724.5	0.026	0.000	19.1	1	1
03/29/06	6:22 p	-19.6	-19.6	-19.7	---	---	2.6	ENE	0.04	3.5	-23.6	---	---	724.5	0.026	0.000	19.1	1	1
03/29/06	6:23 p	-19.6	-19.6	-19.6	---	---	2.6	ENE	0.04	3.5	-23.6	---	---	724.5	0.026	0.000	19.1	1	1
03/29/06	6:24 p	-19.6	-19.6	-19.6	---	---	2.6	ENE	0.04	2.6	-23.6	---	---	724.5	0.026	0.000	19.1	1	1
03/29/06	6:25 p	-19.6	-19.6	-19.6	---	---	2.6	ENE	0.04	3.5	-23.6	---	---	724.5	0.026	0.000	19.1	1	1
03/29/06	6:26 p	-19.6	-19.6	-19.6	---	---	2.6	ENE	0.04	3.5	-23.6	---	---	724.5	0.026	0.000	19.1	1	1
03/29/06	6:27 p	-19.6	-19.5	-19.6	---	---	3.5	ENE	0.06	3.5	-24.7	---	---	724.5	0.026	0.000	19.1	1	1
03/29/06	6:28 p	-19.6	-19.5	-19.6	---	---	3.5	ENE	0.06	4.3	-24.7	---	---	724.5	0.026	0.000	19.1	1	1
03/29/06	6:29 p	-19.6	-19.5	-19.6	---	---	3.5	NE	0.06	4.3	-24.7	---	---	724.5	0.026	0.000	19.1	1	1
03/29/06	6:30 p	-19.5	-19.5	-19.5	---	---	2.6	NE	0.04	3.5	-23.5	---	---	724.5	0.026	0.000	19.1	1	1
03/29/06	6:31 p	-19.5	-19.5	-19.6	---	---	3.5	NE	0.06	6.1	-24.7	---	---	724.4	0.026	0.000	19.1	1	1
03/29/06	6:32 p	-19.5	-19.5	-19.6	---	---	3.5	NW	0.06	4.3	-24.7	---	---	724.5	0.026	0.000	19.1	1	1
03/29/06	6:33 p	-19.5	-19.5	-19.5	---	---	3.5	NW	0.06	4.3	-24.7	---	---	724.5	0.026	0.000	19.1	1	1
03/29/06	6:34 p	-19.5	-19.5	-19.6	---	---	3.5	NW	0.06	4.3	-24.7	---	---	724.5	0.026	0.000	19.1	1	1
03/29/06	6:35 p	-19.6	-19.5	-19.6	---	---	3.5	NW	0.06	4.3	-24.7	---	---	724.5	0.026	0.000	19.1	1	1
03/29/06	6:36 p	-19.6	-19.5	-19.6	---	---	2.6	NW	0.04	3.5	-23.6	---	---	724.5	0.026	0.000	19.2	1	1
03/29/06	6:37 p	-19.6	-19.6	-19.6	---	---	3.5	NW	0.06	4.3	-24.7	---	---	724.5	0.026	0.000	19.2	1	1
03/29/06	6:38 p	-19.6	-19.6	-19.6	---	---	3.5	NW	0.06	3.5	-24.7	---	---	724.5	0.026	0.000	19.2	1	1
03/29/06	6:39 p	-19.6	-19.6	-19.6	---	---	2.6	NW	0.04	3.5	-23.6	---	---	724.5	0.026	0.000	19.2	1	1
03/29/06	6:40 p	-19.6	-19.6	-19.6	---	---	2.6	NW	0.04	3.5	-23.6	---	---	724.5	0.026	0.000	19.2	1	1
03/29/06	6:41 p	-19.6	-19.6	-19.7	---	---	2.6	NW	0.04	3.5	-23.6	---	---	724.5	0.026	0.000	19.2	1	1
03/29/06	6:42 p	-19.7	-19.6	-19.7	---	---	2.6	NNW	0.04	3.5	-23.7	---	---	724.4	0.026	0.000	19.2	1	1
03/29/06	6:43 p	-19.6	-19.6	-19.7	---	---	3.5	NNW	0.06	5.2	-24.8	---	---	724.4	0.026	0.000	19.2	1	1
03/29/06	6:44 p	-19.7	-19.7	-19.7	---	---	4.3	NNW	0.07	5.2	-25.8	---	---	724.4	0.026	0.000	19.2	1	1
03/29/06	6:45 p	-19.7	-19.6	-19.7	---	---	4.3	NNW	0.07	4.3	-25.8	---	---	724.4	0.026	0.000	19.2	1	1
03/29/06	6:46 p	-19.7	-19.7	-19.7	---	---	4.3	N	0.07	5.2	-25.8	---	---	724.4	0.026	0.000	19.2	1	1
03/29/06	6:47 p	-19.7	-19.6	-19.7	---	---	4.3	N	0.07	6.1	-25.8	---	---	724.4	0.026	0.000	19.2	1	1
03/29/06	6:48 p	-19.6	-19.6	-19.6	---	---	4.3	N	0.07	6.1	-25.7	---	---	724.4	0.026	0.000	19.2	1	1
03/29/06	6:49 p	-19.6	-19.6	-19.7	---	---	5.2	N	0.09	7.0	-26.5	---	---	724.4	0.026	0.000	19.2	1	1
03/29/06	6:50 p	-19.6	-19.6	-19.7	---	---	6.1	N	0.10	7.8	-27.2	---	---	724.4	0.026	0.000	19.2	1	1
03/29/06	6:51 p	-19.6	-19.6	-19.6	---	---	5.2	NNW	0.09	6.1	-26.4	---	---	724.4	0.026	0.000	19.2	1	1
03/29/06	6:52 p	-19.6	-19.5	-19.6	---	---	5.2	NNW	0.09	7.0	-26.4	---	---	724.3	0.026	0.000	19.1	1	1
03/29/06	6:53 p	-19.5	-19.5	-19.6	---	---	6.1	NNW	0.10	7.8	-27.1	---	---	724.3	0.026	0.000	19.1	1	1
03/29/06	6:54 p	-19.5	-19.4	-19.5	---	---	6.1	NNW	0.10	7.0	-27.1	---	---	724.3	0.026	0.000	19.1	1	1
03/29/06	6:55 p	-19.4	-19.4	-19.5	---	---	6.1	NNW	0.10	7.0	-27.0	---	---	724.3	0.026	0.000	19.1	1	1
03/29/06	6:56 p	-19.4	-19.4	-19.4	---	---	6.1	NNW	0.10	7.0	-27.0	---	---	724.3	0.026	0.000	19.1	1	1
03/29/06	6:57 p	-19.4	-19.4	-19.4	---	---	6.1	NNW	0.10	7.8	-26.9	---	---	724.3	0.026	0.000	19.1	1	1
03/29/06	6:58 p	-19.4	-19.3	-19.4	---	---	7.0	NNW	0.12	7.8	-27.6	---	---	724.3	0.026	0.000	19.1	1	1
03/29/06	6:59 p	-19.4	-19.3	-19.4	---	---	7.0	NNW	0.12	7.8	-27.6	---	---	724.2	0.026	0.000	19.1	1	1
03/29/06	7:00 p	-19.3	-19.3	-19.4	---	---	7.0	NNW	0.12	7.8	-27.4	---	---	724.3	0.026	0.000	19.1	1	1
03/29/06	7:01 p	-19.4	-19.3	-19.4	---	---	6.1	NNW	0.10	7.8	-26.9	---	---	724.2	0.026	0.000	19.1	1	1
03/29/06	7:02 p	-19.3	-19.3	-19.4	---	---	6.1	NNW	0.10	7.0	-26.8	---	---	724.3	0.026	0.000	19.1	1	1
03/29/06	7:03 p	-19.3	-19.3	-19.3	---	---	6.1	NNW	0.10	7.0	-26.8	---	---	724.2	0.026	0.000	19.1	1	1
03/29/06	7:04 p	-19.3	-19.3	-19.3	---	---	6.1	NNW	0.10	7.0	-26.8	---	---	724.2	0.026	0.000	19.1	1	1
03/29/06	7:05 p	-19.3	-19.3	-19.3	---	---	5.2	NNW	0.09	6.1	-26.2	---	---	724.2	0.026	0.000	19.1	1	1
03/29/06	7:06 p	-19.3	-19.3	-19.3	---	---	6.1	NNW	0.10	7.0	-26.8	---	---	724.2	0.026	0.000	19.1	1	1
03/29/06	7:07 p	-19.3	-19.3	-19.4	---	---	6.1	N	0.10	7.0	-26.8	---	---	724.2	0.026	0.000	19.1	1	1
03/29/06	7:08 p	-19.3	-19.3	-19.3	---	---	6.1	N	0.10	7.0	-26.8	---	---	724.2	0.026	0.000	19.1	1	1
03/29/06	7:09 p	-19.3	-19.3	-19.3	---	---	7.0	N	0.12	7.8	-27.4	---	---	724.2	0.026	0.000	19.1	1	1
03/29/06	7:10 p	-19.3	-19.3	-19.3	---	---	7.0	NNW	0.12	7.8	-27.4	---	---	724.1	0.026	0.000	19.1	1	1
03/29/06	7:11 p	-19.3	-19.3	-19.3	---	---	7.8	NNW	0.13	8.7	-28.0	---	---	724.1	0.026	0.000	19.1	1	1
03/29/06	7:12 p	-19.3	-19.3	-19.3	---	---	7.0	NNW	0.12	7.8	-27.4	---	---	724.2	0.026	0.000	19.1	1	1
03/29/06	7:13 p	-19.3	-19.3	-19.3	---	---	7.8	NNW	0.13	8.7	-27.9	---	---	724.3	0.026	0.000	19.1	1	1
03/29/06	7:14 p	-19.3	-19.3	-19.3	---	---	7.8	NNW	0.13	8.7	-28.0	---	---	724.2	0.026	0.000	19.1	1	1
03/29/06	7:15 p	-19.3	-19.3	-19.3	---	---	6.1	NNW	0.10	7.0	-26.8	---	---	724.2	0.026	0.000	19.1	1	1
03/29/06	7:16 p	-19.3	-19.3	-19.3	---	---	6.1	NNW	0.10	7.0	-26.8	---	---	724.1	0.026	0.000	19.1	1	1
03/29/06	7:17 p	-19.3	-19.3	-19.3	---	---	5.2	NNW	0.09	6.1	-26.2	---	---	724.2	0.026	0.000	19.0	1	1
03/29/06	7:18 p	-19.4	-19.3	-19.4	---	---	5.2	NNW	0.09	6.1	-26.2	---	---	724.2	0.026	0.000	19.0	1	1
03/29/06	7:19 p	-19.3	-19.3	-19.3	---	---	6.1	NNW	0.10	6.1	-26.8	---	---	724.2	0.026	0.000	19.1	1	1
03/29/06	7:20 p	-19.4	-19.4	-19.4	---	---	5.2	NNW	0.09	6.1	-26.2	---	---	724.3	0.026	0.000	19.0	1	1
03/29/06	7:21 p	-19.4	-19.4	-19.4	---	---	5.2	NNW	0.09	6.1	-26.3	---	---	724.2	0.026	0.000	19.1	1	1
03/29/06	7:22 p	-19.4	-19.4	-19.4	---	---	5.2	N	0.09	6.1	-26.3	---	---	724.2	0.026	0.000	19.1	1	1
03/29/06	7:23 p	-19.5	-19.5	-19.5	---	---	6.1	N	0.10	7.8	-27.1	---	---	724.2	0.026	0.000	19.1	1	1
03/29/06	7:24 p	-19.5	-19.5	-19.5	---	---	6.1	N	0.10	7.8	-27.1	---	---	724.2	0.026	0.000	19.1	1	1
03/29/06	7:25 p	-19.5	-19.4	-19.5	---	---	6.1	N	0.10	7.0	-27.1	---	---	724.2	0.026	0.000	19.1	1	1
03/29/06	7:26 p	-19.5	-19.4	-19.5	---	---	6.1	N	0.10	7.0	-27.1	---	---	724.1	0.026	0.000	19.1	1	1
03/29/06	7:27 p	-19.4	-19.4	-19.4	---	---	6.1	N	0.10	7.0	-27.0	---	---	724.1	0.026	0.000	19.1	1	1
03/29/06	7:28 p	-19.4	-19.3	-19.4	---	---	6.1	N	0.10	7.0	-26.9	---	---	724.1	0.026	0.000	19.1	1	1
03/29/06	7:29 p	-19.3	-19.3	-19.3	---	---	6.1	N	0.10	7.0	-26.8	---	---	724.2	0.026	0.000	19.1	1	1
03/29/06	7:30 p	-19.3	-19.2	-19.3	---	---	6.1	N	0.10	7.0	-26.8	---	---	724.2	0.026	0.000	19.1	1	1
03/29/06	7:31 p	-19.2	-19.2	-19.2	---	---	6.1	N	0.10	7.0	-26.7	---	---	724.2	0.026	0.000	19.1	1	1
03/29/06	7:32 p	-19.2	-19.1	-19.2	---	---	7.0	N	0.12	7.8	-27.3	---	---	724.1	0.026	0.000	19.1	1	1
03/29/06	7:33 p	-19.1	-19.1	-19.1	---	---	6.1	N	0.10	7.8	-26.6	---	---	724.2	0.026	0.000	19.1	1	1
03/29/06	7:34 p	-19.1	-19.1	-19.1	---	---	7.0	N	0.12	7.8	-27.1	---	---	724.2	0.026	0.000	19.1	1	1
03/29/06	7:35 p	-19.1	-19.1	-19.1	---	---	7.0	N	0.12	7.0	-27.1	---	---	724.1	0.026	0.000	19.1	1	1
03/29/06	7:36 p	-19.0	-19.0	-19.0	---	---	7.0	N	0.12	7.8	-27.1	---	---	724.1	0.026	0.000	19.1	1	1
03/29/06	7:37 p	-19.0	-18.9	-19.0	---	---	7.0	N	0.12	7.8	-27.1	---	---	724.0	0.026	0.000	19.1	1	1
03/29/06	7:38 p	-18.9	-18.9	-19.0	---	---	7.0	N	0.12	7.8	-27.0	---	---	724.1	0.026	0.000	19.1	1	1
03/29/06	7:39 p	-18.9	-18.9	-19.0	---	---	7.0	N	0.12	7.8	-27.0	---	---	724.1	0.026	0.000	19.1	1	1
03/29/06	7:40 p	-18.9	-18.9	-18.9	---	---	7.0	N	0.12	7.8	-26.9	---	---	724.1	0.026	0.000	19.1	1	1
03/29/06	7:41 p	-18.9	-18.9	-18.9	---	---	7.0	N	0.12	7.8	-26.9	---	---	724.1	0.026	0.000	19.1	1	1
03/29/06	7:42 p	-18.9	-18.8	-18.9	---	---	7.0	N	0.12	7.0	-26.9	---	---	724.1	0.026	0.000	19.1	1	1
03/29/06	7:43 p	-18.9	-18.8	-18.9	---	---	6.1	N	0.10	7.8	-26.3	---	---	724.1	0.026	0.000	19.1	1	1
03/29/06	7:44 p	-18.8	-18.8	-18.9	---	---	6.1	N	0.10	7.0	-26.3	---	---	724.2	0.026	0.000	19.1	1	1
03/29/06	7:45 p	-18.8	-18.8	-18.8	---	---	7.0	N	0.12	7.8	-26.8	---	---	724.1	0.026	0.000	19.1	1	1
03/29/06	7:46 p	-18.8	-18.8	-18.9	---	---	7.0	N	0.12	7.8	-26.8	---	---	724.1	0.026	0.000	19.1	1	1
03/29/06	7:47 p	-18.8	-18.8	-18.8	---	---	7.0	N	0.12	7.8	-26.8	---	---	724.1	0.026	0.000	19.1	1	1
03/29/06	7:48 p	-18.9	-18.8	-18.9	---	---	6.1	N	0.10	7.0	-26.3	---	---	724.2	0.026	0.000	19.1	1	1
03/29/06	7:49 p	-18.8	-18.8	-18.8	---	---	7.0	N	0.12	7.8	-26.8	---	---	724.1	0.026	0.000	19.1	1	1
03/29/06	7:50 p	-18.8	-18.8	-18.9	---	---	7.0	N	0.12	8.7	-26.8	---	---	724.1	0.026	0.000	19.1	1	1
03/29/06	7:51 p	-18.8	-18.8	-18.8	---	---	7.8	NNW	0.13	8.7	-27.4	---	---	724.1	0.026	0.000	19.0	1	1
03/29/06	7:52 p	-18.9	-18.8	-18.9	---	---	7.0	NNW	0.12	7.8	-26.9	---	---	724.2	0.026	0.000	19.0	1	1
03/29/06	7:53 p	-18.9	-18.9	-18.9	---	---	7.8	NNW	0.13	8.7	-27.4	---	---	724.1	0.026	0.000	19.1	1	1
03/29/06	7:54 p	-18.9	-18.9	-18.9	---	---	8.7	NNW	0.14	9.6	-28.0	---	---	724.2	0.026	0.000	19.0	1	1
03/29/06	7:55 p	-19.0	-19.0	-19.1	---	---	10.4	NNW	0.17	11.3	-28.9	---	---	724.2	0.026	0.000	19.0	1	1
03/29/06	7:56 p	-19.1	-19.1	-19.2	---	---	9.6	NNW	0.16	11.3	-28.7	---	---	724.1	0.026	0.000	19.0	1	1
03/29/06	7:57 p	-19.2	-19.2	-19.3	---	---	8.7	NNW	0.14	9.6	-28.4	---	---	724.0	0.026	0.000	19.0	1	1
03/29/06	7:58 p	-19.4	-19.3	-19.4	---	---	8.7	NNW	0.14	9.6	-28.6	---	---	724.1	0.026	0.000	19.0	1	1
03/29/06	7:59 p	-19.4	-19.4	-19.5	---	---	7.8	N	0.13	8.7	-28.2	---	---	724.1	0.026	0.000	18.9	1	1
03/29/06	8:00 p	-19.6	-19.5	-19.6	---	---	7.0	N	0.12	7.8	-27.7	---	---	724.0	0.026	0.000	18.9	1	1
03/29/06	8:01 p	-19.6	-19.6	-19.6	---	---	7.8	N	0.13	9.6	-28.3	---	---	724.0	0.026	0.000	18.9	1	1
03/29/06	8:02 p	-19.7	-19.6	-19.7	---	---	8.7	N	0.14	9.6	-28.9	---	---	724.1	0.026	0.000	18.9	1	1
03/29/06	8:03 p	-19.7	-19.7	-19.8	---	---	7.8	N	0.13	8.7	-28.5	---	---	724.1	0.026	0.000	18.9	1	1
03/29/06	8:04 p	-19.8	-19.8	-19.8	---	---	7.0	N	0.12	7.8	-28.0	---	---	724.1	0.026	0.000	18.9	1	1
03/29/06	8:05 p	-19.8	-19.8	-19.9	---	---	7.8	N	0.13	10.4	-28.6	---	---	724.1	0.027	0.000	18.9	1	1
03/29/06	8:06 p	-19.9	-19.8	-19.9	---	---	9.6	N	0.16	10.4	-29.7	---	---	724.0	0.027	0.000	18.9	1	1
03/29/06	8:07 p	-19.9	-19.9	-19.9	---	---	10.4	N	0.17	12.2	-30.1	---	---	724.0	0.027	0.000	18.9	1	1
03/29/06	8:08 p	-19.8	-19.8	-19.8	---	---	9.6	N	0.16	11.3	-29.6	---	---	723.9	0.027	0.000	18.9	1	1
03/29/06	8:09 p	-19.8	-19.7	-19.8	---	---	8.7	N	0.14	10.4	-29.1	---	---	724.1	0.026	0.000	18.9	1	1
03/29/06	8:10 p	-19.7	-19.6	-19.7	---	---	10.4	N	0.17	12.2	-29.8	---	---	724.0	0.026	0.000	18.9	1	1
03/29/06	8:11 p	-19.6	-19.6	-19.6	---	---	10.4	NNW	0.17	12.2	-29.7	---	---	724.0	0.026	0.000	18.9	1	1
03/29/06	8:12 p	-19.5	-19.4	-19.5	---	---	9.6	N	0.16	10.4	-29.2	---	---	724.0	0.026	0.000	18.9	1	1
03/29/06	8:13 p	-19.4	-19.3	-19.4	---	---	8.7	N	0.14	10.4	-28.6	---	---	724.1	0.026	0.000	18.9	1	1
03/29/06	8:14 p	-19.3	-19.3	-19.4	---	---	9.6	N	0.16	11.3	-28.9	---	---	724.1	0.026	0.000	18.9	1	1
03/29/06	8:15 p	-19.3	-19.2	-19.3	---	---	8.7	N	0.14	9.6	-28.4	---	---	723.9	0.026	0.000	18.9	1	1
03/29/06	8:16 p	-19.3	-19.2	-19.3	---	---	9.6	NNW	0.16	12.2	-28.9	---	---	724.0	0.026	0.000	18.9	1	1
03/29/06	8:17 p	-19.2	-19.2	-19.2	---	---	9.6	N	0.16	11.3	-28.8	---	---	724.0	0.026	0.000	18.9	1	1
03/29/06	8:18 p	-19.1	-19.1	-19.2	---	---	11.3	NNW	0.19	13.0	-29.5	---	---	724.0	0.026	0.000	18.9	1	1
03/29/06	8:19 p	-19.1	-19.1	-19.1	---	---	12.2	NNW	0.20	13.9	-29.8	---	---	724.0	0.026	0.000	18.9	1	1
03/29/06	8:20 p	-19.1	-19.0	-19.1	---	---	12.2	NNW	0.20	15.7	-29.8	---	---	724.0	0.026	0.000	18.9	1	1
03/29/06	8:21 p	-19.0	-18.9	-19.0	---	---	12.2	NNW	0.20	14.8	-29.7	---	---	724.0	0.026	0.000	18.9	1	1
03/29/06	8:22 p	-18.9	-18.9	-18.9	---	---	12.2	NNW	0.20	14.8	-29.7	---	---	724.0	0.026	0.000	18.9	1	1
03/29/06	8:23 p	-18.9	-18.9	-18.9	---	---	10.4	NNW	0.17	14.8	-28.8	---	---	724.0	0.026	0.000	18.9	1	1
03/29/06	8:24 p	-18.8	-18.8	-18.9	---	---	13.0	NNW	0.22	14.8	-29.8	---	---	723.8	0.026	0.000	18.9	1	1
03/29/06	8:25 p	-18.8	-18.7	-18.8	---	---	11.3	NNW	0.19	13.9	-29.1	---	---	724.0	0.026	0.000	18.9	1	1
03/29/06	8:26 p	-18.7	-18.7	-18.7	---	---	11.3	NNW	0.19	13.9	-29.0	---	---	724.0	0.026	0.000	18.9	1	1
03/29/06	8:27 p	-18.7	-18.7	-18.7	---	---	14.8	NNW	0.25	16.5	-30.3	---	---	723.9	0.026	0.000	18.9	1	1
03/29/06	8:28 p	-18.6	-18.6	-18.6	---	---	13.0	NNW	0.22	14.8	-29.6	---	---	724.0	0.026	0.000	18.9	1	1
03/29/06	8:29 p	-18.6	-18.6	-18.6	---	---	9.6	NNW	0.16	13.0	-28.0	---	---	723.8	0.026	0.000	18.9	1	1
03/29/06	8:30 p	-18.6	-18.6	-18.6	---	---	13.0	NNW	0.22	15.7	-29.5	---	---	723.9	0.026	0.000	18.9	1	1
03/29/06	8:31 p	-18.6	-18.6	-18.6	---	---	10.4	NNW	0.17	13.0	-28.4	---	---	723.8	0.026	0.000	18.9	1	1
03/29/06	8:32 p	-18.6	-18.6	-18.6	---	---	9.6	N	0.16	11.3	-28.0	---	---	723.8	0.026	0.000	18.9	1	1
03/29/06	8:33 p	-18.6	-18.5	-18.6	---	---	13.0	NNW	0.22	15.7	-29.5	---	---	723.8	0.026	0.000	18.9	1	1
03/29/06	8:34 p	-18.5	-18.5	-18.6	---	---	13.0	NNW	0.22	15.7	-29.4	---	---	723.9	0.026	0.000	18.9	1	1
03/29/06	8:35 p	-18.5	-18.5	-18.5	---	---	11.3	NNW	0.19	13.0	-28.7	---	---	723.8	0.026	0.000	18.9	1	1
03/29/06	8:36 p	-18.5	-18.4	-18.5	---	---	12.2	NNW	0.20	14.8	-29.1	---	---	723.7	0.026	0.000	18.9	1	1
03/29/06	8:37 p	-18.4	-18.4	-18.4	---	---	15.7	NNW	0.26	17.4	-30.3	---	---	723.7	0.026	0.000	18.9	1	1
03/29/06	8:38 p	-18.4	-18.4	-18.4	---	---	15.7	NNW	0.26	18.3	-30.3	---	---	723.7	0.026	0.000	18.9	1	1
03/29/06	8:39 p	-18.4	-18.4	-18.4	---	---	14.8	NNW	0.25	15.7	-30.0	---	---	723.7	0.026	0.000	18.9	1	1
03/29/06	8:40 p	-18.4	-18.4	-18.4	---	---	10.4	N	0.17	14.8	-28.2	---	---	723.7	0.026	0.000	18.9	1	1
03/29/06	8:41 p	-18.4	-18.4	-18.4	---	---	11.3	NNW	0.19	13.9	-28.6	---	---	723.8	0.026	0.000	18.9	1	1
03/29/06	8:42 p	-18.4	-18.3	-18.4	---	---	11.3	NNW	0.19	14.8	-28.6	---	---	723.7	0.026	0.000	18.9	1	1
03/29/06	8:43 p	-18.4	-18.4	-18.4	---	---	12.2	NNW	0.20	13.9	-28.9	---	---	723.7	0.026	0.000	18.9	1	1
03/29/06	8:44 p	-18.4	-18.4	-18.4	---	---	10.4	N	0.17	13.0	-28.2	---	---	723.7	0.026	0.000	18.9	1	1
03/29/06	8:45 p	-18.4	-18.4	-18.5	---	---	11.3	N	0.19	14.8	-28.7	---	---	723.7	0.026	0.000	18.8	1	1
03/29/06	8:46 p	-18.4	-18.4	-18.5	---	---	11.3	NNW	0.19	14.8	-28.7	---	---	723.7	0.026	0.000	18.8	1	1
03/29/06	8:47 p	-18.4	-18.4	-18.4	---	---	9.6	N	0.16	12.2	-27.8	---	---	723.7	0.026	0.000	18.8	1	1
03/29/06	8:48 p	-18.4	-18.4	-18.4	---	---	12.2	NNW	0.20	15.7	-29.0	---	---	723.7	0.026	0.000	18.8	1	1
03/29/06	8:49 p	-18.4	-18.4	-18.4	---	---	9.6	NNW	0.16	12.2	-27.8	---	---	723.7	0.026	0.000	18.8	1	1
03/29/06	8:50 p	-18.4	-18.4	-18.4	---	---	11.3	NNW	0.19	13.0	-28.7	---	---	723.7	0.026	0.000	18.8	1	1
03/29/06	8:51 p	-18.4	-18.4	-18.4	---	---	10.4	NNW	0.17	13.0	-28.3	---	---	723.7	0.026	0.000	18.8	1	1
03/29/06	8:52 p	-18.4	-18.4	-18.4	---	---	12.2	NNW	0.20	15.7	-29.0	---	---	723.7	0.026	0.000	18.8	1	1
03/29/06	8:53 p	-18.4	-18.4	-18.4	---	---	13.9	NNW	0.23	16.5	-29.6	---	---	723.7	0.026	0.000	18.8	1	1
03/29/06	8:54 p	-18.4	-18.3	-18.4	---	---	11.3	NNW	0.19	12.2	-28.6	---	---	723.8	0.026	0.000	18.8	1	1
03/29/06	8:55 p	-18.3	-18.3	-18.3	---	---	12.2	NNW	0.20	13.9	-28.9	---	---	723.8	0.025	0.000	18.8	1	1
03/29/06	8:56 p	-18.3	-18.3	-18.3	---	---	11.3	NNW	0.19	13.0	-28.4	---	---	723.8	0.025	0.000	18.8	1	1
03/29/06	8:57 p	-18.3	-18.3	-18.3	---	---	11.3	NNW	0.19	13.0	-28.4	---	---	723.8	0.025	0.000	18.8	1	1
03/29/06	8:58 p	-18.3	-18.3	-18.3	---	---	12.2	NNW	0.20	13.0	-28.8	---	---	723.8	0.025	0.000	18.8	1	1
03/29/06	8:59 p	-18.3	-18.3	-18.3	---	---	12.2	NNW	0.20	13.9	-28.8	---	---	723.9	0.025	0.000	18.7	1	1
03/29/06	9:00 p	-18.3	-18.3	-18.3	---	---	10.4	NNW	0.17	12.2	-28.1	---	---	723.8	0.025	0.000	18.7	1	1
03/29/06	9:01 p	-18.3	-18.3	-18.3	---	---	9.6	NNW	0.16	11.3	-27.7	---	---	723.8	0.025	0.000	18.7	1	1
03/29/06	9:02 p	-18.3	-18.3	-18.4	---	---	10.4	NNW	0.17	11.3	-28.1	---	---	723.7	0.025	0.000	18.7	1	1
03/29/06	9:03 p	-18.4	-18.4	-18.4	---	---	13.0	NNW	0.22	13.9	-29.3	---	---	723.8	0.026	0.000	18.7	1	1
03/29/06	9:04 p	-18.4	-18.4	-18.4	---	---	13.0	NNW	0.22	13.9	-29.3	---	---	723.8	0.026	0.000	18.7	1	1
03/29/06	9:05 p	-18.4	-18.4	-18.4	---	---	12.2	NNW	0.20	13.9	-29.0	---	---	723.8	0.026	0.000	18.7	1	1
03/29/06	9:06 p	-18.4	-18.4	-18.4	---	---	11.3	NNW	0.19	13.0	-28.7	---	---	723.8	0.026	0.000	18.7	1	1
03/29/06	9:07 p	-18.4	-18.4	-18.5	---	---	12.2	NNW	0.20	13.0	-29.0	---	---	723.8	0.026	0.000	18.7	1	1
03/29/06	9:08 p	-18.5	-18.4	-18.5	---	---	11.3	NNW	0.19	13.0	-28.7	---	---	723.9	0.026	0.000	18.7	1	1
03/29/06	9:09 p	-18.5	-18.4	-18.5	---	---	10.4	NNW	0.17	11.3	-28.3	---	---	723.9	0.026	0.000	18.7	1	1
03/29/06	9:10 p	-18.5	-18.5	-18.6	---	---	10.4	NNW	0.17	11.3	-28.3	---	---	723.8	0.026	0.000	18.7	1	1
03/29/06	9:11 p	-18.6	-18.5	-18.6	---	---	11.3	NNW	0.19	13.9	-28.8	---	---	723.7	0.026	0.000	18.7	1	1
03/29/06	9:12 p	-18.6	-18.6	-18.6	---	---	11.3	NNW	0.19	12.2	-28.8	---	---	723.7	0.026	0.000	18.7	1	1
03/29/06	9:13 p	-18.6	-18.5	-18.6	---	---	11.3	NNW	0.19	15.7	-28.8	---	---	723.7	0.026	0.000	18.7	1	1
03/29/06	9:14 p	-18.5	-18.5	-18.6	---	---	12.2	NNW	0.20	13.0	-29.1	---	---	723.6	0.026	0.000	18.7	1	1
03/29/06	9:15 p	-18.5	-18.4	-18.5	---	---	11.3	NNW	0.19	13.0	-28.7	---	---	723.7	0.026	0.000	18.7	1	1
03/29/06	9:16 p	-18.4	-18.4	-18.5	---	---	12.2	NNW	0.20	13.9	-29.0	---	---	723.7	0.026	0.000	18.7	1	1
03/29/06	9:17 p	-18.5	-18.5	-18.6	---	---	13.0	NNW	0.22	14.8	-29.4	---	---	723.7	0.026	0.000	18.7	1	1
03/29/06	9:18 p	-18.5	-18.5	-18.6	---	---	10.4	NNW	0.17	11.3	-28.3	---	---	723.7	0.026	0.000	18.7	1	1
03/29/06	9:19 p	-18.6	-18.5	-18.6	---	---	10.4	NNW	0.17	13.9	-28.4	---	---	723.7	0.026	0.000	18.7	1	1
03/29/06	9:20 p	-18.6	-18.6	-18.6	---	---	10.4	NW	0.17	11.3	-28.4	---	---	723.7	0.026	0.000	18.7	1	1
03/29/06	9:21 p	-18.6	-18.6	-18.7	---	---	10.4	NNW	0.17	13.0	-28.5	---	---	723.7	0.026	0.000	18.7	1	1
03/29/06	9:22 p	-18.7	-18.6	-18.7	---	---	11.3	NNW	0.19	13.9	-28.9	---	---	723.7	0.026	0.000	18.7	1	1
03/29/06	9:23 p	-18.7	-18.7	-18.7	---	---	11.3	NNW	0.19	13.0	-29.0	---	---	723.6	0.026	0.000	18.7	1	1
03/29/06	9:24 p	-18.7	-18.7	-18.7	---	---	11.3	NNW	0.19	13.0	-29.0	---	---	723.7	0.026	0.000	18.7	1	1
03/29/06	9:25 p	-18.8	-18.7	-18.8	---	---	10.4	NNW	0.17	12.2	-28.7	---	---	723.6	0.026	0.000	18.7	1	1
03/29/06	9:26 p	-18.8	-18.8	-18.8	---	---	11.3	NNW	0.19	13.0	-29.1	---	---	723.6	0.026	0.000	18.7	1	1
03/29/06	9:27 p	-18.9	-18.9	-18.9	---	---	11.3	NNW	0.19	13.0	-29.2	---	---	723.6	0.026	0.000	18.7	1	1
03/29/06	9:28 p	-18.9	-18.9	-18.9	---	---	11.3	NNW	0.19	12.2	-29.2	---	---	723.5	0.026	0.000	18.7	1	1
03/29/06	9:29 p	-18.9	-18.9	-19.0	---	---	10.4	NNW	0.17	11.3	-28.9	---	---	723.6	0.026	0.000	18.7	1	1
03/29/06	9:30 p	-19.0	-19.0	-19.1	---	---	8.7	NNW	0.14	10.4	-28.1	---	---	723.6	0.026	0.000	18.7	1	1
03/29/06	9:31 p	-19.1	-19.1	-19.1	---	---	8.7	NNW	0.14	11.3	-28.2	---	---	723.6	0.026	0.000	18.7	1	1
03/29/06	9:32 p	-19.1	-19.0	-19.1	---	---	9.6	NNW	0.16	11.3	-28.6	---	---	723.6	0.026	0.000	18.7	1	1
03/29/06	9:33 p	-19.1	-19.1	-19.1	---	---	11.3	NNW	0.19	13.0	-29.4	---	---	723.6	0.026	0.000	18.7	1	1
03/29/06	9:34 p	-19.1	-19.1	-19.1	---	---	11.3	NNW	0.19	12.2	-29.4	---	---	723.6	0.026	0.000	18.7	1	1
03/29/06	9:35 p	-19.1	-19.0	-19.1	---	---	10.4	NNW	0.17	11.3	-29.1	---	---	723.6	0.026	0.000	18.7	1	1
03/29/06	9:36 p	-19.0	-19.0	-19.1	---	---	11.3	NNW	0.19	13.0	-29.3	---	---	723.7	0.026	0.000	18.7	1	1
03/29/06	9:37 p	-19.0	-18.9	-19.0	---	---	12.2	NNW	0.20	14.8	-29.7	---	---	723.7	0.026	0.000	18.7	1	1
03/29/06	9:38 p	-18.9	-18.9	-19.0	---	---	11.3	NNW	0.19	12.2	-29.3	---	---	723.6	0.026	0.000	18.7	1	1
03/29/06	9:39 p	-18.9	-18.9	-18.9	---	---	11.3	NNW	0.19	13.0	-29.3	---	---	723.6	0.026	0.000	18.7	1	1
03/29/06	9:40 p	-18.9	-18.9	-18.9	---	---	11.3	NW	0.19	13.0	-29.3	---	---	723.7	0.026	0.000	18.7	1	1
03/29/06	9:41 p	-18.9	-18.9	-18.9	---	---	9.6	NNW	0.16	10.4	-28.4	---	---	723.6	0.026	0.000	18.7	1	1
03/29/06	9:42 p	-18.9	-18.9	-18.9	---	---	10.4	NNW	0.17	12.2	-28.9	---	---	723.7	0.026	0.000	18.7	1	1
03/29/06	9:43 p	-18.9	-18.9	-18.9	---	---	10.4	NNW	0.17	12.2	-28.8	---	---	723.7	0.026	0.000	18.7	1	1
03/29/06	9:44 p	-18.8	-18.8	-18.9	---	---	10.4	NNW	0.17	12.2	-28.8	---	---	723.7	0.026	0.000	18.7	1	1
03/29/06	9:45 p	-18.8	-18.8	-18.9	---	---	11.3	NNW	0.19	13.0	-29.2	---	---	723.7	0.026	0.000	18.7	1	1
03/29/06	9:46 p	-18.8	-18.8	-18.8	---	---	12.2	NNW	0.20	13.9	-29.5	---	---	723.7	0.026	0.000	18.7	1	1
03/29/06	9:47 p	-18.8	-18.8	-18.9	---	---	12.2	NW	0.20	13.0	-29.5	---	---	723.7	0.026	0.000	18.7	1	1
03/29/06	9:48 p	-18.8	-18.8	-18.8	---	---	11.3	NW	0.19	14.8	-29.2	---	---	723.6	0.026	0.000	18.7	1	1
03/29/06	9:49 p	-18.8	-18.8	-18.9	---	---	11.3	NW	0.19	13.0	-29.2	---	---	723.7	0.026	0.000	18.7	1	1
03/29/06	9:50 p	-18.9	-18.8	-18.9	---	---	11.3	NW	0.19	12.2	-29.2	---	---	723.6	0.026	0.000	18.7	1	1
03/29/06	9:51 p	-18.9	-18.8	-18.9	---	---	12.2	NW	0.20	13.9	-29.6	---	---	723.7	0.026	0.000	18.7	1	1
03/29/06	9:52 p	-18.9	-18.9	-18.9	---	---	10.4	NW	0.17	12.2	-28.8	---	---	723.8	0.026	0.000	18.7	1	1
03/29/06	9:53 p	-18.9	-18.9	-18.9	---	---	7.8	NW	0.13	10.4	-27.4	---	---	723.8	0.026	0.000	18.7	1	1
03/29/06	9:54 p	-18.9	-18.9	-18.9	---	---	10.4	NW	0.17	12.2	-28.8	---	---	723.8	0.026	0.000	18.7	1	1
03/29/06	9:55 p	-18.9	-18.9	-18.9	---	---	10.4	NW	0.17	12.2	-28.9	---	---	723.8	0.026	0.000	18.7	1	1
03/29/06	9:56 p	-18.9	-18.9	-18.9	---	---	9.6	NW	0.16	11.3	-28.4	---	---	723.8	0.026	0.000	18.7	1	1
03/29/06	9:57 p	-18.9	-18.9	-18.9	---	---	10.4	NW	0.17	12.2	-28.9	---	---	723.7	0.026	0.000	18.7	1	1
03/29/06	9:58 p	-18.9	-18.9	-18.9	---	---	10.4	NW	0.17	12.2	-28.9	---	---	723.7	0.026	0.000	18.7	1	1
03/29/06	9:59 p	-18.9	-18.9	-18.9	---	---	12.2	NW	0.20	13.0	-29.7	---	---	723.7	0.026	0.000	18.7	1	1
03/29/06	10:00 p	-18.9	-18.9	-19.0	---	---	9.6	NW	0.16	12.2	-28.5	---	---	723.7	0.026	0.000	18.7	2	1
03/29/06	10:01 p	-19.0	-19.0	-19.0	---	---	8.7	NW	0.14	10.4	-28.1	---	---	723.7	0.026	0.000	18.7	2	1
03/29/06	10:02 p	-19.0	-19.0	-19.0	---	---	7.8	NNW	0.13	9.6	-27.6	---	---	723.7	0.026	0.000	18.7	2	1
03/29/06	10:03 p	-19.0	-19.0	-19.0	---	---	7.8	NNW	0.13	9.6	-27.6	---	---	723.8	0.026	0.000	18.7	2	1
03/29/06	10:04 p	-19.0	-19.0	-19.0	---	---	7.0	NNW	0.12	7.8	-27.1	---	---	723.8	0.026	0.000	18.7	1	1
03/29/06	10:05 p	-19.0	-19.0	-19.0	---	---	8.7	NNW	0.14	10.4	-28.1	---	---	723.8	0.026	0.000	18.7	2	1
03/29/06	10:06 p	-19.0	-19.0	-19.1	---	---	9.6	NNW	0.16	11.3	-28.6	---	---	723.7	0.026	0.000	18.7	2	1
03/29/06	10:07 p	-19.1	-19.1	-19.1	---	---	10.4	NW	0.17	12.2	-29.1	---	---	723.7	0.026	0.000	18.7	2	1
03/29/06	10:08 p	-19.1	-19.0	-19.1	---	---	9.6	NW	0.16	11.3	-28.6	---	---	723.7	0.026	0.000	18.7	2	1
03/29/06	10:09 p	-19.1	-19.1	-19.1	---	---	9.6	NW	0.16	10.4	-28.6	---	---	723.7	0.026	0.000	18.7	2	1
03/29/06	10:10 p	-19.1	-19.1	-19.1	---	---	8.7	NNW	0.14	10.4	-28.2	---	---	723.7	0.026	0.000	18.7	2	1
03/29/06	10:11 p	-19.1	-19.1	-19.1	---	---	9.6	NNW	0.16	10.4	-28.6	---	---	723.7	0.026	0.000	18.7	2	1
03/29/06	10:12 p	-19.1	-19.1	-19.1	---	---	7.8	NNW	0.13	8.7	-27.7	---	---	723.8	0.026	0.000	18.7	2	1
03/29/06	10:13 p	-19.1	-19.1	-19.1	---	---	8.7	NNW	0.14	10.4	-28.2	---	---	723.7	0.026	0.000	18.7	2	1
03/29/06	10:14 p	-19.1	-19.1	-19.1	---	---	7.8	NNW	0.13	7.8	-27.7	---	---	723.7	0.026	0.000	18.7	2	1
03/29/06	10:15 p	-19.1	-19.1	-19.1	---	---	7.8	NW	0.13	9.6	-27.7	---	---	723.7	0.026	0.000	18.7	2	1
03/29/06	10:16 p	-19.1	-19.1	-19.1	---	---	7.8	NW	0.13	8.7	-27.7	---	---	723.7	0.026	0.000	18.7	2	1
03/29/06	10:17 p	-19.1	-19.1	-19.1	---	---	6.1	NW	0.10	7.0	-26.5	---	---	723.7	0.026	0.000	18.7	2	1
03/29/06	10:18 p	-19.1	-19.1	-19.1	---	---	7.0	NW	0.12	8.7	-27.2	---	---	723.8	0.026	0.000	18.7	2	1
03/29/06	10:19 p	-19.1	-19.1	-19.1	---	---	7.0	NW	0.12	7.8	-27.2	---	---	723.8	0.026	0.000	18.7	2	1
03/29/06	10:20 p	-19.1	-19.1	-19.1	---	---	7.8	NW	0.13	8.7	-27.7	---	---	723.8	0.026	0.000	18.7	2	1
03/29/06	10:21 p	-19.2	-19.1	-19.2	---	---	7.8	NW	0.13	7.8	-27.8	---	---	723.8	0.026	0.000	18.8	2	1
03/29/06	10:22 p	-19.2	-19.1	-19.2	---	---	6.1	NW	0.10	7.8	-26.7	---	---	723.9	0.026	0.000	18.8	2	1
03/29/06	10:23 p	-19.2	-19.1	-19.2	---	---	7.8	NW	0.13	9.6	-27.8	---	---	723.7	0.026	0.000	18.8	2	1
03/29/06	10:24 p	-19.2	-19.2	-19.2	---	---	7.8	NW	0.13	10.4	-27.8	---	---	723.8	0.026	0.000	18.8	2	1
03/29/06	10:25 p	-19.2	-19.2	-19.2	---	---	7.0	NW	0.12	7.8	-27.3	---	---	723.8	0.026	0.000	18.8	2	1
03/29/06	10:26 p	-19.2	-19.2	-19.2	---	---	8.7	NW	0.14	10.4	-28.3	---	---	723.7	0.026	0.000	18.8	2	1
03/29/06	10:27 p	-19.2	-19.2	-19.2	---	---	10.4	NW	0.17	11.3	-29.2	---	---	723.7	0.026	0.000	18.8	2	1
03/29/06	10:28 p	-19.2	-19.2	-19.2	---	---	8.7	NNW	0.14	10.4	-28.4	---	---	723.8	0.026	0.000	18.8	2	1
03/29/06	10:29 p	-19.2	-19.2	-19.2	---	---	7.8	NNW	0.13	9.6	-27.8	---	---	723.6	0.026	0.000	18.8	2	1
03/29/06	10:30 p	-19.2	-19.1	-19.2	---	---	9.6	NNW	0.16	11.3	-28.8	---	---	723.8	0.026	0.000	18.8	2	1
03/29/06	10:31 p	-19.1	-19.1	-19.1	---	---	9.6	NNW	0.16	10.4	-28.7	---	---	723.7	0.026	0.000	18.8	2	1
03/29/06	10:32 p	-19.1	-19.1	-19.1	---	---	8.7	NNW	0.14	9.6	-28.2	---	---	723.7	0.026	0.000	18.8	2	1
03/29/06	10:33 p	-19.1	-19.1	-19.1	---	---	7.8	NNW	0.13	8.7	-27.7	---	---	723.7	0.026	0.000	18.8	2	1
03/29/06	10:34 p	-19.1	-19.1	-19.1	---	---	8.7	NNW	0.14	9.6	-28.2	---	---	723.7	0.026	0.000	18.8	2	1
03/29/06	10:35 p	-19.1	-19.1	-19.1	---	---	8.7	NW	0.14	10.4	-28.2	---	---	723.8	0.026	0.000	18.8	2	1
03/29/06	10:36 p	-19.1	-19.1	-19.1	---	---	8.7	NNW	0.14	9.6	-28.2	---	---	723.8	0.026	0.000	18.8	2	1
03/29/06	10:37 p	-19.1	-19.1	-19.1	---	---	8.7	NNW	0.14	8.7	-28.2	---	---	723.7	0.026	0.000	18.8	2	1
03/29/06	10:38 p	-19.1	-19.1	-19.1	---	---	8.7	NNW	0.14	10.4	-28.2	---	---	723.7	0.026	0.000	18.8	2	1
03/29/06	10:39 p	-19.1	-19.1	-19.1	---	---	9.6	NNW	0.16	11.3	-28.7	---	---	723.7	0.026	0.000	18.8	2	1
03/29/06	10:40 p	-19.1	-19.1	-19.1	---	---	10.4	NNW	0.17	13.0	-29.1	---	---	723.7	0.026	0.000	18.8	2	1
03/29/06	10:41 p	-19.1	-19.1	-19.1	---	---	10.4	NW	0.17	12.2	-29.1	---	---	723.8	0.026	0.000	18.8	2	1
03/29/06	10:42 p	-19.1	-19.1	-19.1	---	---	8.7	NNW	0.14	10.4	-28.2	---	---	723.8	0.026	0.000	18.8	2	1
03/29/06	10:43 p	-19.1	-19.1	-19.1	---	---	10.4	NNW	0.17	11.3	-29.1	---	---	723.6	0.026	0.000	18.8	2	1
03/29/06	10:44 p	-19.1	-19.0	-19.1	---	---	10.4	NNW	0.17	11.3	-29.1	---	---	723.7	0.026	0.000	18.8	2	1
03/29/06	10:45 p	-19.0	-19.0	-19.1	---	---	9.6	NNW	0.16	10.4	-28.6	---	---	723.7	0.026	0.000	18.8	2	1
03/29/06	10:46 p	-19.0	-19.0	-19.0	---	---	10.4	NNW	0.17	11.3	-28.9	---	---	723.7	0.026	0.000	18.8	2	1
03/29/06	10:47 p	-19.0	-18.9	-19.0	---	---	8.7	NNW	0.14	10.4	-28.1	---	---	723.7	0.026	0.000	18.8	2	1
03/29/06	10:48 p	-18.9	-18.9	-19.0	---	---	8.7	NNW	0.14	10.4	-28.0	---	---	723.7	0.026	0.000	18.8	2	1
03/29/06	10:49 p	-18.9	-18.9	-18.9	---	---	9.6	NNW	0.16	10.4	-28.5	---	---	723.7	0.026	0.000	18.8	2	1
03/29/06	10:50 p	-18.9	-18.9	-18.9	---	---	7.8	NNW	0.13	9.6	-27.4	---	---	723.7	0.026	0.000	18.8	2	1
03/29/06	10:51 p	-18.9	-18.8	-18.9	---	---	7.0	NNW	0.12	8.7	-26.9	---	---	723.8	0.026	0.000	18.8	2	1
03/29/06	10:52 p	-18.8	-18.8	-18.8	---	---	7.8	NW	0.13	9.6	-27.4	---	---	723.8	0.026	0.000	18.8	2	1
03/29/06	10:53 p	-18.8	-18.8	-18.8	---	---	8.7	NNW	0.14	9.6	-27.8	---	---	723.7	0.026	0.000	18.8	2	1
03/29/06	10:54 p	-18.7	-18.7	-18.8	---	---	7.0	NNW	0.12	9.6	-26.7	---	---	723.8	0.026	0.000	18.8	2	1
03/29/06	10:55 p	-18.7	-18.7	-18.7	---	---	9.6	NNW	0.16	11.3	-28.2	---	---	723.7	0.026	0.000	18.8	2	1
03/29/06	10:56 p	-18.7	-18.7	-18.7	---	---	9.6	NNW	0.16	10.4	-28.1	---	---	723.8	0.026	0.000	18.8	2	1
03/29/06	10:57 p	-18.7	-18.7	-18.7	---	---	8.7	NNW	0.14	9.6	-27.7	---	---	723.7	0.026	0.000	18.8	2	1
03/29/06	10:58 p	-18.7	-18.6	-18.7	---	---	9.6	NNW	0.16	11.3	-28.1	---	---	723.7	0.026	0.000	18.8	2	1
03/29/06	10:59 p	-18.7	-18.6	-18.7	---	---	10.4	NNW	0.17	12.2	-28.6	---	---	723.6	0.026	0.000	18.8	2	1
03/29/06	11:00 p	-18.6	-18.6	-18.7	---	---	10.4	NNW	0.17	13.0	-28.5	---	---	723.6	0.026	0.000	18.8	2	1
03/29/06	11:01 p	-18.6	-18.6	-18.6	---	---	10.4	NNW	0.17	12.2	-28.5	---	---	723.6	0.026	0.000	18.8	2	1
03/29/06	11:02 p	-18.6	-18.6	-18.6	---	---	11.3	NNW	0.19	13.0	-28.8	---	---	723.6	0.026	0.000	18.9	2	1
03/29/06	11:03 p	-18.6	-18.6	-18.6	---	---	10.4	NNW	0.17	12.2	-28.5	---	---	723.6	0.026	0.000	18.8	2	1
03/29/06	11:04 p	-18.6	-18.6	-18.6	---	---	10.4	NNW	0.17	13.0	-28.4	---	---	723.6	0.026	0.000	18.9	2	1
03/29/06	11:05 p	-18.6	-18.6	-18.6	---	---	11.3	NNW	0.19	12.2	-28.8	---	---	723.7	0.026	0.000	18.9	2	1
03/29/06	11:06 p	-18.6	-18.6	-18.6	---	---	10.4	NNW	0.17	12.2	-28.5	---	---	723.7	0.026	0.000	18.9	2	1
03/29/06	11:07 p	-18.6	-18.6	-18.6	---	---	11.3	NNW	0.19	13.9	-28.8	---	---	723.7	0.026	0.000	18.8	2	1
03/29/06	11:08 p	-18.6	-18.6	-18.6	---	---	10.4	NNW	0.17	11.3	-28.5	---	---	723.6	0.026	0.000	18.8	2	1
03/29/06	11:09 p	-18.6	-18.6	-18.6	---	---	9.6	NNW	0.16	11.3	-28.1	---	---	723.6	0.026	0.000	18.8	2	1
03/29/06	11:10 p	-18.6	-18.6	-18.6	---	---	9.6	NNW	0.16	12.2	-28.1	---	---	723.6	0.026	0.000	18.8	2	1
03/29/06	11:11 p	-18.6	-18.6	-18.6	---	---	9.6	NNW	0.16	10.4	-28.0	---	---	723.6	0.026	0.000	18.9	2	1
03/29/06	11:12 p	-18.6	-18.6	-18.6	---	---	10.4	NNW	0.17	11.3	-28.4	---	---	723.6	0.026	0.000	18.9	2	1
03/29/06	11:13 p	-18.6	-18.6	-18.6	---	---	9.6	NNW	0.16	11.3	-28.1	---	---	723.7	0.026	0.000	18.9	2	1
03/29/06	11:14 p	-18.6	-18.6	-18.6	---	---	10.4	NNW	0.17	11.3	-28.4	---	---	723.7	0.026	0.000	18.9	2	1
03/29/06	11:15 p	-18.6	-18.6	-18.6	---	---	8.7	NNW	0.14	10.4	-27.6	---	---	723.6	0.026	0.000	18.9	2	1
03/29/06	11:16 p	-18.6	-18.6	-18.6	---	---	7.0	N	0.12	7.8	-26.5	---	---	723.6	0.026	0.000	18.9	2	1
03/29/06	11:17 p	-18.6	-18.6	-18.6	---	---	7.8	N	0.13	9.6	-27.1	---	---	723.6	0.026	0.000	18.9	2	1
03/29/06	11:18 p	-18.5	-18.5	-18.6	---	---	7.8	N	0.13	9.6	-27.0	---	---	723.6	0.026	0.000	18.9	2	1
03/29/06	11:19 p	-18.4	-18.4	-18.4	---	---	9.6	NNW	0.16	13.9	-27.8	---	---	723.5	0.026	0.000	18.9	2	1
03/29/06	11:20 p	-18.4	-18.4	-18.5	---	---	8.7	NNW	0.14	10.4	-27.4	---	---	723.6	0.026	0.000	18.9	2	1
03/29/06	11:21 p	-18.4	-18.4	-18.4	---	---	10.4	NNW	0.17	12.2	-28.3	---	---	723.6	0.026	0.000	18.9	2	1
03/29/06	11:22 p	-18.4	-18.3	-18.4	---	---	8.7	NNW	0.14	10.4	-27.3	---	---	723.7	0.026	0.000	18.9	2	1
03/29/06	11:23 p	-18.3	-18.3	-18.4	---	---	9.6	NNW	0.16	10.4	-27.7	---	---	723.6	0.025	0.000	18.9	2	1
03/29/06	11:24 p	-18.3	-18.3	-18.3	---	---	9.6	NNW	0.16	12.2	-27.7	---	---	723.6	0.025	0.000	18.9	2	1
03/29/06	11:25 p	-18.3	-18.3	-18.3	---	---	7.8	N	0.13	9.6	-26.7	---	---	723.6	0.025	0.000	18.9	2	1
03/29/06	11:26 p	-18.3	-18.2	-18.3	---	---	7.8	N	0.13	9.6	-26.7	---	---	723.6	0.025	0.000	18.9	2	1
03/29/06	11:27 p	-18.2	-18.2	-18.3	---	---	8.7	N	0.14	10.4	-27.1	---	---	723.7	0.025	0.000	18.9	2	1
03/29/06	11:28 p	-18.2	-18.2	-18.3	---	---	8.7	N	0.14	9.6	-27.1	---	---	723.6	0.025	0.000	18.9	2	1
03/29/06	11:29 p	-18.3	-18.2	-18.3	---	---	7.0	N	0.12	8.7	-26.2	---	---	723.6	0.025	0.000	18.9	2	1
03/29/06	11:30 p	-18.3	-18.3	-18.3	---	---	7.8	N	0.13	8.7	-26.8	---	---	723.5	0.025	0.000	18.9	2	1
03/29/06	11:31 p	-18.4	-18.4	-18.4	---	---	7.8	N	0.13	9.6	-26.8	---	---	723.6	0.026	0.000	18.9	2	1
03/29/06	11:32 p	-18.4	-18.4	-18.4	---	---	7.8	N	0.13	8.7	-26.8	---	---	723.6	0.026	0.000	18.9	2	1
03/29/06	11:33 p	-18.4	-18.4	-18.4	---	---	7.8	N	0.13	9.6	-26.8	---	---	723.5	0.026	0.000	18.9	2	1
03/29/06	11:34 p	-18.4	-18.4	-18.4	---	---	10.4	N	0.17	13.0	-28.2	---	---	723.5	0.026	0.000	18.9	2	1
03/29/06	11:35 p	-18.4	-18.4	-18.4	---	---	12.2	N	0.20	14.8	-28.9	---	---	723.6	0.026	0.000	18.9	2	1
03/29/06	11:36 p	-18.3	-18.3	-18.4	---	---	9.6	N	0.16	11.3	-27.7	---	---	723.5	0.025	0.000	18.9	2	1
03/29/06	11:37 p	-18.3	-18.3	-18.4	---	---	7.8	N	0.13	9.6	-26.8	---	---	723.5	0.025	0.000	18.9	2	1
03/29/06	11:38 p	-18.3	-18.3	-18.4	---	---	7.8	N	0.13	9.6	-26.8	---	---	723.6	0.025	0.000	18.9	2	1
03/29/06	11:39 p	-18.3	-18.3	-18.4	---	---	9.6	NNW	0.16	11.3	-27.7	---	---	723.5	0.025	0.000	18.9	2	1
03/29/06	11:40 p	-18.3	-18.3	-18.3	---	---	8.7	N	0.14	9.6	-27.3	---	---	723.5	0.025	0.000	18.9	2	1
03/29/06	11:41 p	-18.3	-18.3	-18.3	---	---	7.8	N	0.13	8.7	-26.7	---	---	723.4	0.025	0.000	18.9	2	1
03/29/06	11:42 p	-18.2	-18.2	-18.2	---	---	7.0	N	0.12	7.8	-26.1	---	---	723.5	0.025	0.000	18.9	2	1
03/29/06	11:43 p	-18.2	-18.2	-18.2	---	---	7.0	N	0.12	8.7	-26.1	---	---	723.5	0.025	0.000	18.9	2	1
03/29/06	11:44 p	-18.2	-18.2	-18.2	---	---	8.7	NNW	0.14	10.4	-27.1	---	---	723.4	0.025	0.000	18.9	2	1
03/29/06	11:45 p	-18.1	-18.1	-18.2	---	---	8.7	NNW	0.14	9.6	-27.0	---	---	723.5	0.025	0.000	18.9	2	1
03/29/06	11:46 p	-18.1	-18.0	-18.1	---	---	7.8	NNW	0.13	9.6	-26.5	---	---	723.4	0.025	0.000	18.9	2	1
03/29/06	11:47 p	-18.0	-18.0	-18.1	---	---	7.8	N	0.13	8.7	-26.4	---	---	723.4	0.025	0.000	18.9	2	1
03/29/06	11:48 p	-17.9	-17.9	-18.0	---	---	7.8	N	0.13	8.7	-26.3	---	---	723.5	0.025	0.000	18.9	2	1
03/29/06	11:49 p	-17.9	-17.8	-17.9	---	---	7.8	N	0.13	8.7	-26.2	---	---	723.5	0.025	0.000	18.9	2	1
03/29/06	11:50 p	-17.8	-17.8	-17.8	---	---	7.8	N	0.13	9.6	-26.2	---	---	723.4	0.025	0.000	18.9	2	1
03/29/06	11:51 p	-17.8	-17.8	-17.8	---	---	7.8	N	0.13	9.6	-26.1	---	---	723.5	0.025	0.000	18.9	2	1
03/29/06	11:52 p	-17.7	-17.7	-17.8	---	---	7.8	N	0.13	9.6	-26.0	---	---	723.4	0.025	0.000	18.8	2	1
03/29/06	11:53 p	-17.7	-17.7	-17.7	---	---	7.0	N	0.12	8.7	-25.4	---	---	723.4	0.025	0.000	18.8	2	1
03/29/06	11:54 p	-17.7	-17.6	-17.7	---	---	7.8	N	0.13	11.3	-25.9	---	---	723.4	0.025	0.000	18.8	2	1
03/29/06	11:55 p	-17.6	-17.6	-17.7	---	---	8.7	N	0.14	11.3	-26.4	---	---	723.4	0.025	0.000	18.9	2	1
03/29/06	11:56 p	-17.6	-17.6	-17.6	---	---	8.7	N	0.14	11.3	-26.3	---	---	723.4	0.025	0.000	18.9	2	1
03/29/06	11:57 p	-17.6	-17.5	-17.6	---	---	7.8	N	0.13	8.7	-25.8	---	---	723.4	0.025	0.000	18.9	2	1
03/29/06	11:58 p	-17.5	-17.5	-17.5	---	---	7.8	N	0.13	8.7	-25.8	---	---	723.4	0.025	0.000	18.9	2	1
03/29/06	11:59 p	-17.4	-17.4	-17.5	---	---	10.4	N	0.17	13.0	-27.0	---	---	723.4	0.025	0.000	18.9	2	1
03/30/06	12:00 a	-17.4	-17.4	-17.4	---	---	9.6	N	0.16	12.2	-26.6	---	---	723.3	0.025	0.000	18.9	2	1
03/30/06	12:01 a	-17.4	-17.3	-17.4	---	---	9.6	N	0.16	11.3	-26.6	---	---	723.3	0.025	0.000	18.9	2	1
03/30/06	12:02 a	-17.3	-17.3	-17.3	---	---	8.7	N	0.14	10.4	-26.0	---	---	723.3	0.025	0.000	18.9	2	1
03/30/06	12:03 a	-17.3	-17.3	-17.3	---	---	9.6	N	0.16	12.2	-26.4	---	---	723.3	0.025	0.000	18.9	2	1
03/30/06	12:04 a	-17.3	-17.3	-17.3	---	---	9.6	N	0.16	13.0	-26.4	---	---	723.3	0.025	0.000	18.9	2	1
03/30/06	12:05 a	-17.3	-17.3	-17.3	---	---	10.4	N	0.17	13.9	-26.8	---	---	723.4	0.025	0.000	18.9	2	1
03/30/06	12:06 a	-17.3	-17.3	-17.3	---	---	13.9	N	0.23	14.8	-28.2	---	---	723.3	0.025	0.000	18.9	2	1
03/30/06	12:07 a	-17.3	-17.3	-17.3	---	---	12.2	N	0.20	13.9	-27.5	---	---	723.3	0.025	0.000	18.9	2	1
03/30/06	12:08 a	-17.3	-17.3	-17.3	---	---	9.6	N	0.16	12.2	-26.4	---	---	723.5	0.025	0.000	18.9	2	1
03/30/06	12:09 a	-17.3	-17.3	-17.3	---	---	11.3	N	0.19	12.2	-27.2	---	---	723.3	0.025	0.000	18.9	2	1
03/30/06	12:10 a	-17.3	-17.3	-17.3	---	---	13.0	N	0.22	15.7	-27.8	---	---	723.3	0.025	0.000	18.9	2	1
03/30/06	12:11 a	-17.3	-17.3	-17.3	---	---	11.3	N	0.19	14.8	-27.2	---	---	723.3	0.025	0.000	18.9	2	1
03/30/06	12:12 a	-17.3	-17.3	-17.3	---	---	12.2	N	0.20	14.8	-27.6	---	---	723.3	0.025	0.000	18.9	2	1
03/30/06	12:13 a	-17.3	-17.3	-17.3	---	---	13.0	N	0.22	14.8	-27.8	---	---	723.3	0.025	0.000	18.9	2	1
03/30/06	12:14 a	-17.3	-17.3	-17.3	---	---	13.0	N	0.22	13.9	-27.8	---	---	723.3	0.025	0.000	18.9	2	1
03/30/06	12:15 a	-17.3	-17.3	-17.3	---	---	13.9	N	0.23	15.7	-28.2	---	---	723.3	0.025	0.000	18.9	2	1
03/30/06	12:16 a	-17.3	-17.2	-17.3	---	---	12.2	N	0.20	13.9	-27.5	---	---	723.3	0.025	0.000	19.0	2	1
03/30/06	12:17 a	-17.2	-17.2	-17.2	---	---	12.2	N	0.20	14.8	-27.4	---	---	723.3	0.025	0.000	19.0	2	1
03/30/06	12:18 a	-17.2	-17.2	-17.2	---	---	13.0	N	0.22	14.8	-27.8	---	---	723.4	0.025	0.000	19.0	2	1
03/30/06	12:19 a	-17.2	-17.2	-17.2	---	---	11.3	N	0.19	14.8	-27.1	---	---	723.3	0.025	0.000	19.0	2	1
03/30/06	12:20 a	-17.2	-17.2	-17.2	---	---	9.6	N	0.16	13.0	-26.3	---	---	723.3	0.025	0.000	19.0	2	1
03/30/06	12:21 a	-17.2	-17.2	-17.2	---	---	12.2	N	0.20	13.9	-27.4	---	---	723.4	0.025	0.000	19.0	2	1
03/30/06	12:22 a	-17.2	-17.2	-17.2	---	---	11.3	N	0.19	14.8	-27.1	---	---	723.3	0.025	0.000	19.0	2	1
03/30/06	12:23 a	-17.2	-17.2	-17.2	---	---	10.4	N	0.17	13.9	-26.7	---	---	723.3	0.025	0.000	19.0	2	1
03/30/06	12:24 a	-17.2	-17.2	-17.2	---	---	7.8	N	0.13	9.6	-25.3	---	---	723.3	0.025	0.000	19.0	2	1
03/30/06	12:25 a	-17.2	-17.2	-17.2	---	---	8.7	N	0.14	10.4	-25.8	---	---	723.3	0.025	0.000	19.0	2	1
03/30/06	12:26 a	-17.2	-17.2	-17.2	---	---	9.6	N	0.16	12.2	-26.3	---	---	723.4	0.025	0.000	19.0	2	1
03/30/06	12:27 a	-17.2	-17.2	-17.3	---	---	9.6	N	0.16	11.3	-26.3	---	---	723.4	0.025	0.000	19.0	2	1
03/30/06	12:28 a	-17.3	-17.2	-17.3	---	---	9.6	N	0.16	12.2	-26.4	---	---	723.4	0.025	0.000	19.1	2	1
03/30/06	12:29 a	-17.3	-17.3	-17.3	---	---	8.7	N	0.14	11.3	-25.9	---	---	723.3	0.025	0.000	19.1	2	1
03/30/06	12:30 a	-17.3	-17.3	-17.3	---	---	7.0	N	0.12	9.6	-24.9	---	---	723.4	0.025	0.000	19.1	2	1
03/30/06	12:31 a	-17.3	-17.3	-17.3	---	---	8.7	N	0.14	11.3	-25.9	---	---	723.3	0.025	0.000	19.1	2	1
03/30/06	12:32 a	-17.3	-17.3	-17.3	---	---	8.7	N	0.14	10.4	-25.9	---	---	723.2	0.025	0.000	19.1	2	1
03/30/06	12:33 a	-17.3	-17.3	-17.3	---	---	8.7	N	0.14	11.3	-25.9	---	---	723.3	0.025	0.000	19.0	2	1
03/30/06	12:34 a	-17.3	-17.3	-17.3	---	---	9.6	N	0.16	12.2	-26.4	---	---	723.4	0.025	0.000	19.1	2	1
03/30/06	12:35 a	-17.3	-17.3	-17.3	---	---	9.6	N	0.16	12.2	-26.4	---	---	723.4	0.025	0.000	19.0	2	1
03/30/06	12:36 a	-17.3	-17.3	-17.3	---	---	7.8	N	0.13	11.3	-25.5	---	---	723.3	0.025	0.000	19.0	2	1
03/30/06	12:37 a	-17.3	-17.3	-17.4	---	---	9.6	N	0.16	12.2	-26.4	---	---	723.3	0.025	0.000	19.1	2	1
03/30/06	12:38 a	-17.3	-17.3	-17.3	---	---	7.8	N	0.13	12.2	-25.6	---	---	723.3	0.025	0.000	19.0	2	1
03/30/06	12:39 a	-17.3	-17.3	-17.4	---	---	9.6	N	0.16	12.2	-26.4	---	---	723.3	0.025	0.000	19.0	2	1
03/30/06	12:40 a	-17.4	-17.3	-17.4	---	---	9.6	N	0.16	12.2	-26.6	---	---	723.3	0.025	0.000	19.0	2	1
03/30/06	12:41 a	-17.4	-17.4	-17.4	---	---	9.6	N	0.16	11.3	-26.6	---	---	723.3	0.025	0.000	19.0	2	1
03/30/06	12:42 a	-17.4	-17.4	-17.4	---	---	8.7	N	0.14	9.6	-26.1	---	---	723.3	0.025	0.000	19.0	2	1
03/30/06	12:43 a	-17.4	-17.4	-17.4	---	---	8.7	N	0.14	11.3	-26.1	---	---	723.3	0.025	0.000	19.0	2	1
03/30/06	12:44 a	-17.4	-17.4	-17.4	---	---	8.7	N	0.14	11.3	-26.1	---	---	723.3	0.025	0.000	19.0	2	1
03/30/06	12:45 a	-17.4	-17.4	-17.4	---	---	8.7	N	0.14	10.4	-26.1	---	---	723.3	0.025	0.000	19.0	2	1
03/30/06	12:46 a	-17.3	-17.3	-17.4	---	---	7.8	N	0.13	9.6	-25.6	---	---	723.2	0.025	0.000	19.0	2	1
03/30/06	12:47 a	-17.3	-17.3	-17.3	---	---	9.6	N	0.16	11.3	-26.4	---	---	723.2	0.025	0.000	19.0	2	1
03/30/06	12:48 a	-17.3	-17.3	-17.3	---	---	7.8	N	0.13	8.7	-25.6	---	---	723.1	0.025	0.000	19.0	2	1
03/30/06	12:49 a	-17.3	-17.3	-17.3	---	---	8.7	N	0.14	10.4	-26.0	---	---	723.2	0.025	0.000	19.0	2	1
03/30/06	12:50 a	-17.3	-17.3	-17.3	---	---	7.8	N	0.13	10.4	-25.6	---	---	723.2	0.025	0.000	19.0	2	1
03/30/06	12:51 a	-17.3	-17.3	-17.3	---	---	8.7	N	0.14	11.3	-25.9	---	---	723.2	0.025	0.000	19.0	2	1
03/30/06	12:52 a	-17.3	-17.3	-17.3	---	---	8.7	N	0.14	13.9	-25.9	---	---	723.2	0.025	0.000	18.9	2	1
03/30/06	12:53 a	-17.2	-17.2	-17.3	---	---	7.8	N	0.13	9.6	-25.4	---	---	723.3	0.025	0.000	18.9	2	1
03/30/06	12:54 a	-17.2	-17.2	-17.2	---	---	8.7	N	0.14	10.4	-25.9	---	---	723.2	0.025	0.000	18.9	2	1
03/30/06	12:55 a	-17.2	-17.2	-17.2	---	---	8.7	N	0.14	11.3	-25.9	---	---	723.2	0.025	0.000	18.9	2	1
03/30/06	12:56 a	-17.2	-17.2	-17.2	---	---	7.8	N	0.13	10.4	-25.4	---	---	723.2	0.025	0.000	18.9	2	1
03/30/06	12:57 a	-17.2	-17.2	-17.2	---	---	7.8	N	0.13	10.4	-25.4	---	---	723.2	0.025	0.000	18.9	2	1
03/30/06	12:58 a	-17.2	-17.2	-17.2	---	---	7.0	N	0.12	8.7	-24.9	---	---	723.2	0.025	0.000	18.9	2	1
03/30/06	12:59 a	-17.2	-17.2	-17.3	---	---	7.8	N	0.13	11.3	-25.4	---	---	723.2	0.025	0.000	19.0	2	1
03/30/06	1:00 a	-17.3	-17.3	-17.3	---	---	7.8	N	0.13	8.7	-25.5	---	---	723.1	0.025	0.000	19.0	2	1
03/30/06	1:01 a	-17.3	-17.3	-17.3	---	---	7.8	N	0.13	9.6	-25.5	---	---	723.3	0.025	0.000	19.0	2	1
03/30/06	1:02 a	-17.3	-17.3	-17.3	---	---	7.8	N	0.13	10.4	-25.6	---	---	723.2	0.025	0.000	19.0	2	1
03/30/06	1:03 a	-17.3	-17.3	-17.3	---	---	7.0	N	0.12	8.7	-25.0	---	---	723.2	0.025	0.000	19.0	2	1
03/30/06	1:04 a	-17.3	-17.3	-17.4	---	---	7.0	N	0.12	7.8	-25.0	---	---	723.2	0.025	0.000	19.0	2	1
03/30/06	1:05 a	-17.4	-17.4	-17.4	---	---	7.8	N	0.13	8.7	-25.6	---	---	723.2	0.025	0.000	19.0	2	1
03/30/06	1:06 a	-17.4	-17.4	-17.4	---	---	6.1	N	0.10	7.8	-24.5	---	---	723.1	0.025	0.000	19.0	2	1
03/30/06	1:07 a	-17.4	-17.4	-17.4	---	---	7.0	N	0.12	8.7	-25.2	---	---	723.2	0.025	0.000	19.0	2	1
03/30/06	1:08 a	-17.4	-17.4	-17.4	---	---	7.0	N	0.12	8.7	-25.2	---	---	723.1	0.025	0.000	19.0	2	1
03/30/06	1:09 a	-17.4	-17.4	-17.4	---	---	7.0	N	0.12	8.7	-25.2	---	---	723.2	0.025	0.000	19.0	2	1
03/30/06	1:10 a	-17.4	-17.4	-17.4	---	---	8.7	NNW	0.14	10.4	-26.1	---	---	723.2	0.025	0.000	19.1	2	1
03/30/06	1:11 a	-17.4	-17.4	-17.4	---	---	7.0	N	0.12	7.8	-25.2	---	---	723.2	0.025	0.000	19.0	2	1
03/30/06	1:12 a	-17.4	-17.4	-17.4	---	---	7.0	NNW	0.12	8.7	-25.1	---	---	723.1	0.025	0.000	19.1	2	1
03/30/06	1:13 a	-17.4	-17.4	-17.4	---	---	6.1	N	0.10	7.0	-24.6	---	---	723.1	0.025	0.000	19.1	2	1
03/30/06	1:14 a	-17.4	-17.4	-17.4	---	---	6.1	N	0.10	7.8	-24.6	---	---	723.1	0.025	0.000	19.1	2	1
03/30/06	1:15 a	-17.4	-17.4	-17.4	---	---	6.1	N	0.10	7.0	-24.6	---	---	723.1	0.025	0.000	19.1	2	1
03/30/06	1:16 a	-17.5	-17.4	-17.5	---	---	6.1	N	0.10	7.0	-24.7	---	---	723.1	0.025	0.000	19.1	2	1
03/30/06	1:17 a	-17.4	-17.4	-17.5	---	---	6.1	N	0.10	7.0	-24.6	---	---	723.1	0.025	0.000	19.1	2	1
03/30/06	1:18 a	-17.5	-17.5	-17.5	---	---	6.1	N	0.10	9.6	-24.7	---	---	723.1	0.025	0.000	19.1	2	1
03/30/06	1:19 a	-17.6	-17.5	-17.6	---	---	7.0	N	0.12	8.7	-25.3	---	---	723.1	0.025	0.000	19.1	2	1
03/30/06	1:20 a	-17.6	-17.5	-17.6	---	---	7.0	N	0.12	8.7	-25.3	---	---	723.1	0.025	0.000	19.1	2	1
03/30/06	1:21 a	-17.6	-17.6	-17.6	---	---	7.0	N	0.12	8.7	-25.3	---	---	723.1	0.025	0.000	19.1	2	1
03/30/06	1:22 a	-17.6	-17.6	-17.6	---	---	7.0	N	0.12	8.7	-25.3	---	---	723.1	0.025	0.000	19.1	2	1
03/30/06	1:23 a	-17.6	-17.6	-17.6	---	---	6.1	N	0.10	7.8	-24.7	---	---	723.1	0.025	0.000	19.1	2	1
03/30/06	1:24 a	-17.6	-17.6	-17.6	---	---	7.0	N	0.12	7.8	-25.3	---	---	723.1	0.025	0.000	19.1	2	1
03/30/06	1:25 a	-17.6	-17.6	-17.6	---	---	7.0	N	0.12	7.8	-25.3	---	---	723.0	0.025	0.000	19.1	2	1
03/30/06	1:26 a	-17.6	-17.6	-17.6	---	---	7.8	N	0.13	9.6	-25.8	---	---	723.1	0.025	0.000	19.1	2	1
03/30/06	1:27 a	-17.6	-17.6	-17.6	---	---	7.8	N	0.13	9.6	-25.8	---	---	723.1	0.025	0.000	19.1	2	1
03/30/06	1:28 a	-17.5	-17.5	-17.6	---	---	7.0	N	0.12	9.6	-25.2	---	---	723.1	0.025	0.000	19.1	2	1
03/30/06	1:29 a	-17.5	-17.5	-17.5	---	---	7.0	N	0.12	8.7	-25.2	---	---	723.0	0.025	0.000	19.1	2	1
03/30/06	1:30 a	-17.5	-17.5	-17.5	---	---	7.0	N	0.12	8.7	-25.2	---	---	723.1	0.025	0.000	19.1	2	1
03/30/06	1:31 a	-17.5	-17.4	-17.5	---	---	7.0	N	0.12	7.8	-25.2	---	---	723.0	0.025	0.000	19.1	2	1
03/30/06	1:32 a	-17.4	-17.4	-17.5	---	---	7.0	N	0.12	7.8	-25.2	---	---	723.0	0.025	0.000	19.1	2	1
03/30/06	1:33 a	-17.4	-17.4	-17.5	---	---	6.1	N	0.10	7.8	-24.6	---	---	723.1	0.025	0.000	19.1	2	1
03/30/06	1:34 a	-17.4	-17.4	-17.4	---	---	7.0	N	0.12	7.8	-25.2	---	---	723.2	0.025	0.000	19.1	2	1
03/30/06	1:35 a	-17.4	-17.4	-17.4	---	---	8.7	NNW	0.14	10.4	-26.2	---	---	723.2	0.025	0.000	19.1	2	1
03/30/06	1:36 a	-17.4	-17.4	-17.4	---	---	6.1	N	0.10	8.7	-24.6	---	---	723.1	0.025	0.000	19.0	2	1
03/30/06	1:37 a	-17.4	-17.4	-17.4	---	---	7.0	N	0.12	9.6	-25.2	---	---	723.1	0.025	0.000	19.0	2	1
03/30/06	1:38 a	-17.4	-17.4	-17.4	---	---	7.0	N	0.12	7.8	-25.1	---	---	723.0	0.025	0.000	19.0	2	1
03/30/06	1:39 a	-17.4	-17.4	-17.4	---	---	7.8	N	0.13	9.6	-25.6	---	---	723.1	0.025	0.000	19.0	2	1
03/30/06	1:40 a	-17.3	-17.3	-17.4	---	---	9.6	NNW	0.16	10.4	-26.4	---	---	723.1	0.025	0.000	19.0	2	1
03/30/06	1:41 a	-17.3	-17.3	-17.4	---	---	8.7	NNW	0.14	10.4	-26.0	---	---	723.1	0.025	0.000	19.0	2	1
03/30/06	1:42 a	-17.3	-17.3	-17.3	---	---	7.8	NNW	0.13	10.4	-25.6	---	---	723.0	0.025	0.000	19.0	2	1
03/30/06	1:43 a	-17.3	-17.3	-17.3	---	---	7.0	NNW	0.12	8.7	-25.0	---	---	723.0	0.025	0.000	19.0	2	1
03/30/06	1:44 a	-17.3	-17.3	-17.3	---	---	6.1	N	0.10	7.8	-24.4	---	---	723.0	0.025	0.000	19.0	2	1
03/30/06	1:45 a	-17.3	-17.3	-17.3	---	---	7.8	NNW	0.13	10.4	-25.6	---	---	723.1	0.025	0.000	19.0	2	1
03/30/06	1:46 a	-17.3	-17.3	-17.3	---	---	7.8	NNW	0.13	9.6	-25.6	---	---	723.1	0.025	0.000	19.0	2	1
03/30/06	1:47 a	-17.3	-17.3	-17.3	---	---	8.7	NNW	0.14	9.6	-25.9	---	---	723.0	0.025	0.000	19.0	2	1
03/30/06	1:48 a	-17.3	-17.3	-17.3	---	---	7.8	NNW	0.13	9.6	-25.5	---	---	723.0	0.025	0.000	19.0	2	1
03/30/06	1:49 a	-17.3	-17.3	-17.3	---	---	7.0	NNW	0.12	7.8	-24.9	---	---	723.0	0.025	0.000	19.0	2	1
03/30/06	1:50 a	-17.3	-17.3	-17.3	---	---	6.1	NNW	0.10	7.0	-24.4	---	---	723.0	0.025	0.000	19.0	2	1
03/30/06	1:51 a	-17.3	-17.3	-17.3	---	---	7.0	NNW	0.12	7.8	-24.9	---	---	723.0	0.025	0.000	19.0	2	1
03/30/06	1:52 a	-17.3	-17.2	-17.3	---	---	7.0	NNW	0.12	7.8	-24.9	---	---	723.1	0.025	0.000	19.0	2	1
03/30/06	1:53 a	-17.3	-17.3	-17.3	---	---	6.1	NNW	0.10	7.8	-24.4	---	---	723.0	0.025	0.000	19.0	2	1
03/30/06	1:54 a	-17.3	-17.2	-17.3	---	---	7.8	NNW	0.13	9.6	-25.5	---	---	723.0	0.025	0.000	19.0	2	1
03/30/06	1:55 a	-17.3	-17.2	-17.3	---	---	7.8	NNW	0.13	9.6	-25.5	---	---	723.0	0.025	0.000	19.1	2	1
03/30/06	1:56 a	-17.2	-17.2	-17.3	---	---	8.7	NNW	0.14	9.6	-25.9	---	---	723.1	0.025	0.000	19.1	2	1
03/30/06	1:57 a	-17.2	-17.2	-17.2	---	---	7.8	NNW	0.13	8.7	-25.4	---	---	723.0	0.025	0.000	19.1	2	1
03/30/06	1:58 a	-17.3	-17.2	-17.3	---	---	7.8	NNW	0.13	9.6	-25.5	---	---	723.0	0.025	0.000	19.1	2	1
03/30/06	1:59 a	-17.3	-17.2	-17.3	---	---	7.8	NNW	0.13	10.4	-25.5	---	---	723.0	0.025	0.000	19.1	2	1
03/30/06	2:00 a	-17.2	-17.2	-17.3	---	---	7.8	NNW	0.13	9.6	-25.4	---	---	723.0	0.025	0.000	19.1	2	1
03/30/06	2:01 a	-17.2	-17.2	-17.2	---	---	7.8	NNW	0.13	8.7	-25.4	---	---	723.0	0.025	0.000	19.1	2	1
03/30/06	2:02 a	-17.2	-17.2	-17.2	---	---	7.0	NNW	0.12	8.7	-24.9	---	---	723.1	0.025	0.000	19.1	2	1
03/30/06	2:03 a	-17.2	-17.2	-17.2	---	---	7.0	N	0.12	10.4	-24.9	---	---	723.0	0.025	0.000	19.1	2	1
03/30/06	2:04 a	-17.2	-17.2	-17.2	---	---	7.8	NNW	0.13	8.7	-25.4	---	---	723.0	0.025	0.000	19.1	2	1
03/30/06	2:05 a	-17.2	-17.2	-17.2	---	---	7.0	NNW	0.12	7.8	-24.9	---	---	723.1	0.025	0.000	19.1	2	1
03/30/06	2:06 a	-17.2	-17.2	-17.2	---	---	8.7	NNW	0.14	10.4	-25.9	---	---	723.1	0.025	0.000	19.1	2	1
03/30/06	2:07 a	-17.2	-17.2	-17.2	---	---	7.8	NNW	0.13	9.6	-25.4	---	---	723.0	0.025	0.000	19.1	2	1
03/30/06	2:08 a	-17.2	-17.2	-17.2	---	---	8.7	NNW	0.14	10.4	-25.9	---	---	722.9	0.025	0.000	19.1	2	1
03/30/06	2:09 a	-17.2	-17.2	-17.2	---	---	9.6	NNW	0.16	10.4	-26.3	---	---	723.0	0.025	0.000	19.1	2	1
03/30/06	2:10 a	-17.2	-17.2	-17.2	---	---	7.8	NNW	0.13	9.6	-25.3	---	---	723.0	0.025	0.000	19.1	2	1
03/30/06	2:11 a	-17.2	-17.2	-17.2	---	---	8.7	NNW	0.14	9.6	-25.8	---	---	722.9	0.025	0.000	19.1	2	1
03/30/06	2:12 a	-17.2	-17.2	-17.2	---	---	8.7	NNW	0.14	10.4	-25.8	---	---	722.9	0.025	0.000	19.1	2	1
03/30/06	2:13 a	-17.2	-17.2	-17.2	---	---	7.8	NNW	0.13	9.6	-25.3	---	---	723.0	0.025	0.000	19.1	2	1
03/30/06	2:14 a	-17.2	-17.2	-17.2	---	---	7.0	NNW	0.12	8.7	-24.8	---	---	722.9	0.025	0.000	19.1	2	1
03/30/06	2:15 a	-17.1	-17.1	-17.2	---	---	6.1	NNW	0.10	7.8	-24.2	---	---	723.0	0.025	0.000	19.1	2	1
03/30/06	2:16 a	-17.1	-17.1	-17.1	---	---	6.1	NNW	0.10	7.0	-24.2	---	---	723.0	0.025	0.000	19.1	2	1
03/30/06	2:17 a	-17.1	-17.1	-17.1	---	---	7.0	NNW	0.12	9.6	-24.8	---	---	723.0	0.025	0.000	19.1	2	1
03/30/06	2:18 a	-17.1	-17.1	-17.1	---	---	6.1	NNW	0.10	7.8	-24.2	---	---	722.9	0.025	0.000	19.1	2	1
03/30/06	2:19 a	-17.1	-17.1	-17.1	---	---	7.0	NNW	0.12	8.7	-24.8	---	---	723.0	0.025	0.000	19.1	2	1
03/30/06	2:20 a	-17.1	-17.1	-17.1	---	---	7.8	NNW	0.13	8.7	-25.3	---	---	723.0	0.025	0.000	19.1	2	1
03/30/06	2:21 a	-17.1	-17.1	-17.1	---	---	5.2	N	0.09	6.1	-23.5	---	---	722.9	0.025	0.000	19.1	2	1
03/30/06	2:22 a	-17.1	-17.1	-17.2	---	---	6.1	N	0.10	7.8	-24.2	---	---	723.0	0.025	0.000	19.1	2	1
03/30/06	2:23 a	-17.1	-17.1	-17.2	---	---	7.0	NNW	0.12	8.7	-24.8	---	---	722.9	0.025	0.000	19.1	2	1
03/30/06	2:24 a	-17.1	-17.1	-17.2	---	---	7.0	NNW	0.12	8.7	-24.8	---	---	722.9	0.025	0.000	19.1	2	1
03/30/06	2:25 a	-17.1	-17.1	-17.2	---	---	6.1	NNW	0.10	7.0	-24.2	---	---	722.9	0.025	0.000	19.1	2	1
03/30/06	2:26 a	-17.1	-17.1	-17.2	---	---	7.0	NNW	0.12	7.8	-24.8	---	---	722.9	0.025	0.000	19.1	2	1
03/30/06	2:27 a	-17.1	-17.1	-17.2	---	---	6.1	NNW	0.10	7.0	-24.2	---	---	723.0	0.025	0.000	19.1	2	1
03/30/06	2:28 a	-17.1	-17.1	-17.2	---	---	7.8	NNW	0.13	9.6	-25.3	---	---	723.0	0.025	0.000	19.1	2	1
03/30/06	2:29 a	-17.1	-17.1	-17.2	---	---	7.0	NW	0.12	8.7	-24.8	---	---	723.0	0.025	0.000	19.1	2	1
03/30/06	2:30 a	-17.1	-17.1	-17.2	---	---	6.1	NNW	0.10	7.0	-24.2	---	---	723.0	0.025	0.000	19.1	2	1
03/30/06	2:31 a	-17.1	-17.1	-17.2	---	---	5.2	NW	0.09	6.1	-23.5	---	---	723.0	0.025	0.000	19.1	2	1
03/30/06	2:32 a	-17.1	-17.1	-17.1	---	---	7.0	NNW	0.12	7.8	-24.8	---	---	723.0	0.025	0.000	19.1	2	1
03/30/06	2:33 a	-17.1	-17.1	-17.1	---	---	6.1	NNW	0.10	7.8	-24.2	---	---	722.9	0.025	0.000	19.1	2	1
03/30/06	2:34 a	-17.1	-17.1	-17.1	---	---	6.1	NNW	0.10	7.0	-24.2	---	---	722.9	0.025	0.000	19.1	2	1
03/30/06	2:35 a	-17.1	-17.1	-17.1	---	---	7.0	NNW	0.12	8.7	-24.7	---	---	722.8	0.025	0.000	19.1	2	1
03/30/06	2:36 a	-17.1	-17.1	-17.1	---	---	7.8	NW	0.13	8.7	-25.2	---	---	722.9	0.025	0.000	19.1	2	1
03/30/06	2:37 a	-17.1	-17.1	-17.1	---	---	7.0	NW	0.12	7.8	-24.7	---	---	723.0	0.025	0.000	19.1	2	1
03/30/06	2:38 a	-17.1	-17.1	-17.1	---	---	7.8	NW	0.13	8.7	-25.2	---	---	722.9	0.025	0.000	19.1	2	1
03/30/06	2:39 a	-17.1	-17.0	-17.1	---	---	6.1	NW	0.10	7.8	-24.1	---	---	722.9	0.025	0.000	19.1	2	1
03/30/06	2:40 a	-17.0	-17.0	-17.1	---	---	7.0	NNW	0.12	7.8	-24.6	---	---	722.9	0.025	0.000	19.1	2	1
03/30/06	2:41 a	-17.0	-17.0	-17.1	---	---	7.0	NW	0.12	8.7	-24.6	---	---	722.9	0.025	0.000	19.1	2	1
03/30/06	2:42 a	-17.0	-17.0	-17.0	---	---	6.1	NNW	0.10	7.8	-24.1	---	---	722.8	0.025	0.000	19.1	2	1
03/30/06	2:43 a	-17.0	-16.9	-17.0	---	---	7.0	NW	0.12	9.6	-24.6	---	---	722.9	0.025	0.000	19.1	2	1
03/30/06	2:44 a	-16.9	-16.9	-16.9	---	---	6.1	NNW	0.10	7.0	-24.0	---	---	722.9	0.024	0.000	19.1	2	1
03/30/06	2:45 a	-16.9	-16.9	-16.9	---	---	6.1	NNW	0.10	7.8	-24.0	---	---	722.9	0.024	0.000	19.1	2	1
03/30/06	2:46 a	-16.9	-16.9	-16.9	---	---	6.1	NNW	0.10	7.0	-23.9	---	---	722.9	0.024	0.000	19.1	2	1
03/30/06	2:47 a	-16.9	-16.9	-16.9	---	---	6.1	NNW	0.10	7.0	-23.9	---	---	722.8	0.024	0.000	19.1	2	1
03/30/06	2:48 a	-16.9	-16.8	-16.9	---	---	6.1	NNW	0.10	7.0	-23.9	---	---	722.8	0.024	0.000	19.1	2	1
03/30/06	2:49 a	-16.8	-16.8	-16.9	---	---	6.1	NNW	0.10	7.0	-23.8	---	---	722.8	0.024	0.000	19.1	2	1
03/30/06	2:50 a	-16.8	-16.8	-16.9	---	---	7.0	NNW	0.12	7.8	-24.4	---	---	722.9	0.024	0.000	19.1	2	1
03/30/06	2:51 a	-16.8	-16.8	-16.8	---	---	6.1	NNW	0.10	7.0	-23.8	---	---	722.8	0.024	0.000	19.1	2	1
03/30/06	2:52 a	-16.8	-16.8	-16.8	---	---	6.1	NNW	0.10	7.0	-23.8	---	---	722.9	0.024	0.000	19.1	2	1
03/30/06	2:53 a	-16.8	-16.8	-16.8	---	---	6.1	NNW	0.10	7.0	-23.8	---	---	722.9	0.024	0.000	19.1	2	1
03/30/06	2:54 a	-16.8	-16.8	-16.8	---	---	5.2	NNW	0.09	6.1	-23.1	---	---	722.9	0.024	0.000	19.1	2	1
03/30/06	2:55 a	-16.7	-16.7	-16.8	---	---	4.3	NNW	0.07	5.2	-22.3	---	---	722.9	0.024	0.000	19.1	2	1
03/30/06	2:56 a	-16.7	-16.7	-16.7	---	---	5.2	NNW	0.09	6.1	-23.1	---	---	723.0	0.024	0.000	19.1	2	1
03/30/06	2:57 a	-16.7	-16.7	-16.7	---	---	5.2	NNW	0.09	6.1	-23.0	---	---	722.9	0.024	0.000	19.2	2	1
03/30/06	2:58 a	-16.7	-16.7	-16.7	---	---	5.2	NNW	0.09	6.1	-23.0	---	---	722.9	0.024	0.000	19.2	2	1
03/30/06	2:59 a	-16.7	-16.7	-16.7	---	---	5.2	NNW	0.09	6.1	-23.0	---	---	722.8	0.024	0.000	19.2	2	1
03/30/06	3:00 a	-16.7	-16.6	-16.7	---	---	5.2	NNW	0.09	6.1	-23.0	---	---	722.9	0.024	0.000	19.2	2	1
03/30/06	3:01 a	-16.6	-16.6	-16.6	---	---	6.1	NW	0.10	7.0	-23.6	---	---	722.9	0.024	0.000	19.2	2	1
03/30/06	3:02 a	-16.6	-16.6	-16.6	---	---	5.2	NW	0.09	6.1	-22.9	---	---	722.9	0.024	0.000	19.2	2	1
03/30/06	3:03 a	-16.6	-16.6	-16.6	---	---	5.2	NNW	0.09	6.1	-22.9	---	---	722.8	0.024	0.000	19.2	2	1
03/30/06	3:04 a	-16.6	-16.6	-16.7	---	---	6.1	NNW	0.10	7.0	-23.6	---	---	722.8	0.024	0.000	19.2	2	1
03/30/06	3:05 a	-16.6	-16.6	-16.6	---	---	6.1	NNW	0.10	7.0	-23.6	---	---	722.8	0.024	0.000	19.2	2	1
03/30/06	3:06 a	-16.6	-16.6	-16.7	---	---	6.1	NNW	0.10	7.0	-23.6	---	---	722.8	0.024	0.000	19.2	2	1
03/30/06	3:07 a	-16.7	-16.6	-16.7	---	---	5.2	NNW	0.09	6.1	-23.0	---	---	722.8	0.024	0.000	19.2	2	1
03/30/06	3:08 a	-16.7	-16.7	-16.7	---	---	6.1	NNW	0.10	7.0	-23.7	---	---	722.9	0.024	0.000	19.2	2	1
03/30/06	3:09 a	-16.7	-16.7	-16.8	---	---	4.3	NW	0.07	6.1	-22.3	---	---	722.9	0.024	0.000	19.2	2	1
03/30/06	3:10 a	-16.8	-16.7	-16.8	---	---	4.3	NW	0.07	6.1	-22.4	---	---	722.9	0.024	0.000	19.2	2	1
03/30/06	3:11 a	-16.8	-16.8	-16.8	---	---	5.2	NW	0.09	5.2	-23.1	---	---	722.9	0.024	0.000	19.2	2	1
03/30/06	3:12 a	-16.8	-16.8	-16.9	---	---	4.3	NW	0.07	5.2	-22.4	---	---	722.8	0.024	0.000	19.2	2	1
03/30/06	3:13 a	-16.9	-16.9	-16.9	---	---	5.2	NW	0.09	5.2	-23.3	---	---	722.9	0.024	0.000	19.2	2	1
03/30/06	3:14 a	-16.9	-16.9	-16.9	---	---	4.3	NW	0.07	5.2	-22.5	---	---	722.9	0.024	0.000	19.2	2	1
03/30/06	3:15 a	-16.9	-16.9	-16.9	---	---	4.3	NW	0.07	4.3	-22.5	---	---	722.8	0.024	0.000	19.2	2	1
03/30/06	3:16 a	-16.9	-16.9	-16.9	---	---	4.3	NW	0.07	4.3	-22.6	---	---	722.8	0.024	0.000	19.2	2	1
03/30/06	3:17 a	-17.0	-16.9	-17.0	---	---	4.3	NW	0.07	4.3	-22.7	---	---	722.8	0.025	0.000	19.2	2	1
03/30/06	3:18 a	-17.0	-17.0	-17.0	---	---	3.5	NW	0.06	4.3	-21.8	---	---	722.8	0.025	0.000	19.2	2	1
03/30/06	3:19 a	-17.0	-17.0	-17.0	---	---	3.5	NW	0.06	3.5	-21.8	---	---	722.8	0.025	0.000	19.2	2	1
03/30/06	3:20 a	-17.0	-17.0	-17.0	---	---	2.6	NW	0.04	3.5	-20.7	---	---	722.8	0.025	0.000	19.2	2	1
03/30/06	3:21 a	-17.0	-17.0	-17.0	---	---	3.5	NW	0.06	4.3	-21.8	---	---	722.8	0.025	0.000	19.2	2	1
03/30/06	3:22 a	-17.0	-17.0	-17.0	---	---	4.3	NW	0.07	4.3	-22.7	---	---	722.8	0.025	0.000	19.2	2	1
03/30/06	3:23 a	-17.0	-17.0	-17.1	---	---	4.3	NW	0.07	4.3	-22.7	---	---	722.8	0.025	0.000	19.2	2	1
03/30/06	3:24 a	-17.1	-17.1	-17.1	---	---	4.3	NW	0.07	5.2	-22.7	---	---	722.8	0.025	0.000	19.2	2	1
03/30/06	3:25 a	-17.1	-17.1	-17.1	---	---	4.3	NW	0.07	5.2	-22.7	---	---	722.7	0.025	0.000	19.2	2	1
03/30/06	3:26 a	-17.1	-17.1	-17.1	---	---	4.3	NW	0.07	5.2	-22.8	---	---	722.8	0.025	0.000	19.2	2	1
03/30/06	3:27 a	-17.2	-17.2	-17.2	---	---	4.3	NW	0.07	5.2	-22.8	---	---	722.7	0.025	0.000	19.2	2	1
03/30/06	3:28 a	-17.2	-17.2	-17.2	---	---	4.3	NW	0.07	5.2	-22.8	---	---	722.7	0.025	0.000	19.2	2	1
03/30/06	3:29 a	-17.2	-17.2	-17.2	---	---	5.2	NW	0.09	6.1	-23.7	---	---	722.7	0.025	0.000	19.2	2	1
03/30/06	3:30 a	-17.2	-17.2	-17.3	---	---	6.1	NNW	0.10	7.8	-24.3	---	---	722.7	0.025	0.000	19.2	2	1
03/30/06	3:31 a	-17.3	-17.3	-17.3	---	---	7.0	NNW	0.12	7.8	-24.9	---	---	722.7	0.025	0.000	19.2	2	1
03/30/06	3:32 a	-17.3	-17.3	-17.4	---	---	7.0	NNW	0.12	7.8	-25.0	---	---	722.7	0.025	0.000	19.2	2	1
03/30/06	3:33 a	-17.4	-17.4	-17.4	---	---	7.8	NNW	0.13	7.8	-25.6	---	---	722.7	0.025	0.000	19.2	2	1
03/30/06	3:34 a	-17.4	-17.4	-17.4	---	---	7.0	NNW	0.12	8.7	-25.2	---	---	722.8	0.025	0.000	19.2	2	1
03/30/06	3:35 a	-17.4	-17.4	-17.4	---	---	7.0	NNW	0.12	8.7	-25.2	---	---	722.7	0.025	0.000	19.2	2	1
03/30/06	3:36 a	-17.4	-17.4	-17.5	---	---	7.0	NNW	0.12	7.8	-25.2	---	---	722.7	0.025	0.000	19.2	2	1
03/30/06	3:37 a	-17.5	-17.5	-17.5	---	---	7.0	NNW	0.12	7.8	-25.2	---	---	722.7	0.025	0.000	19.2	2	1
03/30/06	3:38 a	-17.5	-17.5	-17.6	---	---	7.0	NNW	0.12	7.8	-25.2	---	---	722.7	0.025	0.000	19.2	2	1
03/30/06	3:39 a	-17.5	-17.5	-17.6	---	---	7.0	NNW	0.12	8.7	-25.2	---	---	722.7	0.025	0.000	19.2	2	1
03/30/06	3:40 a	-17.5	-17.5	-17.6	---	---	7.0	NNW	0.12	8.7	-25.2	---	---	722.8	0.025	0.000	19.2	2	1
03/30/06	3:41 a	-17.5	-17.5	-17.5	---	---	7.0	NNW	0.12	7.8	-25.2	---	---	722.7	0.025	0.000	19.2	2	1
03/30/06	3:42 a	-17.5	-17.5	-17.5	---	---	7.0	NNW	0.12	8.7	-25.2	---	---	722.7	0.025	0.000	19.2	2	1
03/30/06	3:43 a	-17.5	-17.5	-17.5	---	---	6.1	NW	0.10	7.8	-24.7	---	---	722.7	0.025	0.000	19.2	2	1
03/30/06	3:44 a	-17.5	-17.5	-17.5	---	---	6.1	NNW	0.10	7.8	-24.7	---	---	722.7	0.025	0.000	19.2	2	1
03/30/06	3:45 a	-17.5	-17.5	-17.5	---	---	6.1	NW	0.10	7.0	-24.7	---	---	722.7	0.025	0.000	19.2	2	1
03/30/06	3:46 a	-17.5	-17.5	-17.5	---	---	7.0	NNW	0.12	7.0	-25.2	---	---	722.7	0.025	0.000	19.2	2	1
03/30/06	3:47 a	-17.5	-17.5	-17.5	---	---	7.8	NW	0.13	8.7	-25.8	---	---	722.7	0.025	0.000	19.2	2	1
03/30/06	3:48 a	-17.5	-17.5	-17.5	---	---	7.0	NW	0.12	7.8	-25.2	---	---	722.6	0.025	0.000	19.2	2	1
03/30/06	3:49 a	-17.5	-17.5	-17.5	---	---	7.8	NNW	0.13	9.6	-25.8	---	---	722.6	0.025	0.000	19.2	2	1
03/30/06	3:50 a	-17.5	-17.4	-17.5	---	---	7.0	NNW	0.12	8.7	-25.2	---	---	722.6	0.025	0.000	19.2	2	1
03/30/06	3:51 a	-17.4	-17.4	-17.4	---	---	7.0	NNW	0.12	8.7	-25.2	---	---	722.6	0.025	0.000	19.2	2	1
03/30/06	3:52 a	-17.4	-17.4	-17.4	---	---	6.1	NNW	0.10	7.8	-24.5	---	---	722.6	0.025	0.000	19.2	2	1
03/30/06	3:53 a	-17.3	-17.3	-17.4	---	---	7.0	NNW	0.12	7.8	-25.0	---	---	722.7	0.025	0.000	19.2	2	1
03/30/06	3:54 a	-17.3	-17.3	-17.3	---	---	7.0	NNW	0.12	7.8	-25.0	---	---	722.6	0.025	0.000	19.2	2	1
03/30/06	3:55 a	-17.3	-17.3	-17.3	---	---	7.0	NNW	0.12	7.8	-25.0	---	---	722.5	0.025	0.000	19.2	2	1
03/30/06	3:56 a	-17.3	-17.3	-17.3	---	---	6.1	NNW	0.10	7.0	-24.4	---	---	722.6	0.025	0.000	19.2	2	1
03/30/06	3:57 a	-17.3	-17.3	-17.3	---	---	7.0	NNW	0.12	7.8	-24.9	---	---	722.5	0.025	0.000	19.3	2	1
03/30/06	3:58 a	-17.2	-17.2	-17.3	---	---	7.0	NNW	0.12	7.8	-24.9	---	---	722.5	0.025	0.000	19.3	2	1
03/30/06	3:59 a	-17.2	-17.2	-17.2	---	---	7.0	NNW	0.12	7.0	-24.9	---	---	722.6	0.025	0.000	19.3	2	1
03/30/06	4:00 a	-17.2	-17.2	-17.2	---	---	7.0	NNW	0.12	7.8	-24.9	---	---	722.5	0.025	0.000	19.3	2	1
03/30/06	4:01 a	-17.2	-17.2	-17.2	---	---	7.0	NNW	0.12	7.8	-24.8	---	---	722.6	0.025	0.000	19.3	2	1
03/30/06	4:02 a	-17.2	-17.2	-17.2	---	---	7.0	NNW	0.12	7.8	-24.8	---	---	722.5	0.025	0.000	19.3	2	1
03/30/06	4:03 a	-17.2	-17.2	-17.2	---	---	7.8	NNW	0.13	8.7	-25.3	---	---	722.4	0.025	0.000	19.3	2	1
03/30/06	4:04 a	-17.2	-17.1	-17.2	---	---	7.0	NNW	0.12	7.8	-24.8	---	---	722.6	0.025	0.000	19.3	2	1
03/30/06	4:05 a	-17.1	-17.1	-17.2	---	---	7.0	NNW	0.12	7.8	-24.8	---	---	722.5	0.025	0.000	19.3	2	1
03/30/06	4:06 a	-17.1	-17.1	-17.2	---	---	7.8	NNW	0.13	8.7	-25.3	---	---	722.5	0.025	0.000	19.2	2	1
03/30/06	4:07 a	-17.1	-17.1	-17.2	---	---	7.8	NNW	0.13	8.7	-25.3	---	---	722.4	0.025	0.000	19.2	2	1
03/30/06	4:08 a	-17.1	-17.1	-17.1	---	---	7.0	NNW	0.12	7.8	-24.8	---	---	722.4	0.025	0.000	19.2	3	1
03/30/06	4:09 a	-17.1	-17.1	-17.1	---	---	7.0	NNW	0.12	8.7	-24.8	---	---	722.5	0.025	0.000	19.2	2	1
03/30/06	4:10 a	-17.1	-17.1	-17.1	---	---	7.0	NNW	0.12	7.8	-24.8	---	---	722.5	0.025	0.000	19.2	2	1
03/30/06	4:11 a	-17.1	-17.1	-17.1	---	---	6.1	NNW	0.10	7.8	-24.1	---	---	722.5	0.025	0.000	19.2	2	1
03/30/06	4:12 a	-17.1	-17.1	-17.1	---	---	7.0	NNW	0.12	7.8	-24.7	---	---	722.4	0.025	0.000	19.2	2	1
03/30/06	4:13 a	-17.1	-17.0	-17.1	---	---	7.0	NNW	0.12	8.7	-24.7	---	---	722.5	0.025	0.000	19.2	3	1
03/30/06	4:14 a	-17.0	-17.0	-17.1	---	---	7.8	NNW	0.13	8.7	-25.1	---	---	722.5	0.025	0.000	19.2	2	1
03/30/06	4:15 a	-17.0	-17.0	-17.1	---	---	7.8	NNW	0.13	8.7	-25.1	---	---	722.5	0.025	0.000	19.2	2	1
03/30/06	4:16 a	-17.1	-17.0	-17.1	---	---	7.8	NNW	0.13	8.7	-25.2	---	---	722.5	0.025	0.000	19.2	2	1
03/30/06	4:17 a	-17.0	-17.0	-17.1	---	---	7.8	NNW	0.13	8.7	-25.1	---	---	722.5	0.025	0.000	19.2	2	1
03/30/06	4:18 a	-17.0	-17.0	-17.0	---	---	7.8	NNW	0.13	8.7	-25.1	---	---	722.4	0.025	0.000	19.2	2	1
03/30/06	4:19 a	-17.0	-17.0	-17.1	---	---	7.0	NNW	0.12	7.8	-24.6	---	---	722.4	0.025	0.000	19.2	2	1
03/30/06	4:20 a	-17.0	-17.0	-17.1	---	---	7.0	NNW	0.12	8.7	-24.6	---	---	722.5	0.025	0.000	19.2	2	1
03/30/06	4:21 a	-17.0	-17.0	-17.1	---	---	7.8	NNW	0.13	8.7	-25.1	---	---	722.5	0.025	0.000	19.2	2	1
03/30/06	4:22 a	-17.0	-17.0	-17.1	---	---	8.7	NNW	0.14	9.6	-25.6	---	---	722.5	0.025	0.000	19.2	2	1
03/30/06	4:23 a	-17.0	-17.0	-17.0	---	---	7.0	NNW	0.12	7.8	-24.6	---	---	722.4	0.025	0.000	19.2	3	1
03/30/06	4:24 a	-17.0	-17.0	-17.0	---	---	7.0	NNW	0.12	7.8	-24.6	---	---	722.4	0.025	0.000	19.2	2	1
03/30/06	4:25 a	-17.0	-17.0	-17.0	---	---	7.0	NNW	0.12	8.7	-24.6	---	---	722.5	0.025	0.000	19.2	2	1
03/30/06	4:26 a	-17.0	-16.9	-17.0	---	---	7.0	NNW	0.12	7.8	-24.6	---	---	722.5	0.025	0.000	19.2	2	1
03/30/06	4:27 a	-17.0	-17.0	-17.0	---	---	7.8	NNW	0.13	8.7	-25.1	---	---	722.4	0.025	0.000	19.2	3	1
03/30/06	4:28 a	-17.0	-17.0	-17.0	---	---	7.0	NNW	0.12	7.8	-24.6	---	---	722.4	0.025	0.000	19.2	2	1
03/30/06	4:29 a	-16.9	-16.9	-17.0	---	---	6.1	NNW	0.10	7.8	-24.0	---	---	722.4	0.024	0.000	19.2	2	1
03/30/06	4:30 a	-17.0	-16.9	-17.0	---	---	7.8	NNW	0.13	8.7	-25.1	---	---	722.4	0.025	0.000	19.2	2	1
03/30/06	4:31 a	-17.0	-16.9	-17.0	---	---	7.0	NNW	0.12	7.8	-24.6	---	---	722.4	0.025	0.000	19.2	3	1
03/30/06	4:32 a	-16.9	-16.9	-16.9	---	---	6.1	NNW	0.10	7.8	-24.0	---	---	722.4	0.024	0.000	19.2	3	1
03/30/06	4:33 a	-17.0	-17.0	-17.0	---	---	6.1	NNW	0.10	7.8	-24.1	---	---	722.4	0.025	0.000	19.2	3	1
03/30/06	4:34 a	-17.0	-17.0	-17.0	---	---	6.1	NNW	0.10	7.8	-24.1	---	---	722.4	0.025	0.000	19.2	3	1
03/30/06	4:35 a	-16.9	-16.9	-17.0	---	---	6.1	NNW	0.10	7.8	-24.0	---	---	722.4	0.024	0.000	19.3	2	1
03/30/06	4:36 a	-17.0	-17.0	-17.0	---	---	6.1	NNW	0.10	7.0	-24.1	---	---	722.4	0.025	0.000	19.3	2	1
03/30/06	4:37 a	-17.0	-17.0	-17.0	---	---	7.0	NNW	0.12	7.8	-24.6	---	---	722.4	0.025	0.000	19.3	2	1
03/30/06	4:38 a	-17.0	-17.0	-17.1	---	---	7.0	NNW	0.12	7.8	-24.6	---	---	722.4	0.025	0.000	19.3	2	1
03/30/06	4:39 a	-17.1	-17.0	-17.1	---	---	6.1	NNW	0.10	7.8	-24.1	---	---	722.3	0.025	0.000	19.3	3	1
03/30/06	4:40 a	-17.1	-17.1	-17.1	---	---	6.1	NNW	0.10	7.0	-24.1	---	---	722.4	0.025	0.000	19.3	2	1
03/30/06	4:41 a	-17.1	-17.1	-17.1	---	---	6.1	NNW	0.10	7.8	-24.1	---	---	722.3	0.025	0.000	19.3	3	1
03/30/06	4:42 a	-17.1	-17.1	-17.1	---	---	7.8	NNW	0.13	8.7	-25.2	---	---	722.3	0.025	0.000	19.3	2	1
03/30/06	4:43 a	-17.1	-17.1	-17.1	---	---	7.0	NNW	0.12	7.8	-24.7	---	---	722.3	0.025	0.000	19.3	2	1
03/30/06	4:44 a	-17.1	-17.1	-17.1	---	---	7.8	NNW	0.13	8.7	-25.2	---	---	722.3	0.025	0.000	19.3	3	1
03/30/06	4:45 a	-17.1	-17.1	-17.1	---	---	7.0	NNW	0.12	7.8	-24.7	---	---	722.3	0.025	0.000	19.2	3	1
03/30/06	4:46 a	-17.1	-17.1	-17.1	---	---	7.0	NNW	0.12	7.8	-24.8	---	---	722.4	0.025	0.000	19.2	2	1
03/30/06	4:47 a	-17.1	-17.1	-17.1	---	---	6.1	NNW	0.10	7.8	-24.2	---	---	722.3	0.025	0.000	19.2	3	1
03/30/06	4:48 a	-17.1	-17.1	-17.1	---	---	7.0	NNW	0.12	7.0	-24.8	---	---	722.3	0.025	0.000	19.2	2	1
03/30/06	4:49 a	-17.1	-17.1	-17.1	---	---	7.0	NNW	0.12	7.8	-24.8	---	---	722.4	0.025	0.000	19.2	2	1
03/30/06	4:50 a	-17.1	-17.1	-17.2	---	---	7.0	NNW	0.12	7.8	-24.8	---	---	722.3	0.025	0.000	19.2	2	1
03/30/06	4:51 a	-17.2	-17.1	-17.2	---	---	5.2	NNW	0.09	7.0	-23.6	---	---	722.3	0.025	0.000	19.2	2	1
03/30/06	4:52 a	-17.2	-17.2	-17.2	---	---	6.1	NNW	0.10	7.8	-24.2	---	---	722.4	0.025	0.000	19.2	3	1
03/30/06	4:53 a	-17.2	-17.2	-17.2	---	---	6.1	NNW	0.10	7.0	-24.2	---	---	722.3	0.025	0.000	19.2	2	1
03/30/06	4:54 a	-17.2	-17.2	-17.2	---	---	6.1	NNW	0.10	7.0	-24.2	---	---	722.2	0.025	0.000	19.2	3	1
03/30/06	4:55 a	-17.2	-17.2	-17.2	---	---	7.0	NNW	0.12	7.8	-24.9	---	---	722.3	0.025	0.000	19.2	2	1
03/30/06	4:56 a	-17.2	-17.2	-17.2	---	---	6.1	NNW	0.10	7.0	-24.3	---	---	722.3	0.025	0.000	19.2	2	1
03/30/06	4:57 a	-17.3	-17.2	-17.3	---	---	7.0	NNW	0.12	7.8	-24.9	---	---	722.3	0.025	0.000	19.2	3	1
03/30/06	4:58 a	-17.3	-17.2	-17.3	---	---	7.0	NNW	0.12	7.8	-24.9	---	---	722.3	0.025	0.000	19.2	2	1
03/30/06	4:59 a	-17.3	-17.3	-17.3	---	---	7.0	NNW	0.12	7.8	-24.9	---	---	722.3	0.025	0.000	19.2	2	1
03/30/06	5:00 a	-17.3	-17.3	-17.3	---	---	6.1	NNW	0.10	7.0	-24.4	---	---	722.3	0.025	0.000	19.2	2	1
03/30/06	5:01 a	-17.3	-17.3	-17.3	---	---	7.0	NNW	0.12	8.7	-25.0	---	---	722.3	0.025	0.000	19.2	2	1
03/30/06	5:02 a	-17.4	-17.3	-17.4	---	---	6.1	NNW	0.10	7.0	-24.5	---	---	722.3	0.025	0.000	19.2	2	1
03/30/06	5:03 a	-17.4	-17.4	-17.4	---	---	6.1	NNW	0.10	7.0	-24.5	---	---	722.2	0.025	0.000	19.2	3	1
03/30/06	5:04 a	-17.4	-17.4	-17.4	---	---	6.1	NNW	0.10	7.8	-24.6	---	---	722.3	0.025	0.000	19.2	3	1
03/30/06	5:05 a	-17.4	-17.4	-17.5	---	---	6.1	NNW	0.10	7.0	-24.6	---	---	722.3	0.025	0.000	19.2	2	1
03/30/06	5:06 a	-17.5	-17.4	-17.5	---	---	5.2	NNW	0.09	6.1	-24.0	---	---	722.2	0.025	0.000	19.2	3	1
03/30/06	5:07 a	-17.5	-17.5	-17.5	---	---	6.1	NNW	0.10	7.0	-24.7	---	---	722.2	0.025	0.000	19.2	2	1
03/30/06	5:08 a	-17.6	-17.6	-17.6	---	---	6.1	NNW	0.10	7.0	-24.7	---	---	722.3	0.025	0.000	19.2	3	1
03/30/06	5:09 a	-17.6	-17.6	-17.6	---	---	6.1	NNW	0.10	7.0	-24.7	---	---	722.3	0.025	0.000	19.2	3	1
03/30/06	5:10 a	-17.6	-17.6	-17.6	---	---	6.1	NNW	0.10	7.0	-24.8	---	---	722.3	0.025	0.000	19.2	3	1
03/30/06	5:11 a	-17.6	-17.6	-17.7	---	---	7.0	NNW	0.12	7.8	-25.4	---	---	722.2	0.025	0.000	19.2	2	1
03/30/06	5:12 a	-17.7	-17.7	-17.7	---	---	6.1	NNW	0.10	7.0	-24.8	---	---	722.2	0.025	0.000	19.2	3	1
03/30/06	5:13 a	-17.7	-17.7	-17.7	---	---	6.1	NNW	0.10	7.8	-24.8	---	---	722.2	0.025	0.000	19.2	3	1
03/30/06	5:14 a	-17.7	-17.7	-17.7	---	---	6.1	NNW	0.10	7.8	-24.8	---	---	722.1	0.025	0.000	19.2	3	1
03/30/06	5:15 a	-17.7	-17.7	-17.7	---	---	6.1	NNW	0.10	7.8	-24.9	---	---	722.2	0.025	0.000	19.2	3	1
03/30/06	5:16 a	-17.7	-17.7	-17.8	---	---	6.1	NNW	0.10	8.7	-24.9	---	---	722.2	0.025	0.000	19.2	2	1
03/30/06	5:17 a	-17.8	-17.8	-17.8	---	---	6.1	NNW	0.10	7.0	-25.0	---	---	722.2	0.025	0.000	19.2	3	1
03/30/06	5:18 a	-17.8	-17.8	-17.8	---	---	6.1	NNW	0.10	7.0	-25.0	---	---	722.2	0.025	0.000	19.2	3	1
03/30/06	5:19 a	-17.8	-17.8	-17.8	---	---	6.1	NNW	0.10	7.0	-25.0	---	---	722.1	0.025	0.000	19.2	3	1
03/30/06	5:20 a	-17.8	-17.8	-17.8	---	---	6.1	NNW	0.10	7.0	-25.1	---	---	722.2	0.025	0.000	19.2	3	1
03/30/06	5:21 a	-17.8	-17.8	-17.8	---	---	6.1	NNW	0.10	7.0	-25.1	---	---	722.1	0.025	0.000	19.2	2	1
03/30/06	5:22 a	-17.9	-17.8	-17.9	---	---	6.1	NNW	0.10	7.0	-25.1	---	---	722.2	0.025	0.000	19.2	3	1
03/30/06	5:23 a	-17.9	-17.9	-17.9	---	---	5.2	NNW	0.09	6.1	-24.4	---	---	722.1	0.025	0.000	19.2	3	1
03/30/06	5:24 a	-17.9	-17.9	-17.9	---	---	6.1	NNW	0.10	7.8	-25.1	---	---	722.1	0.025	0.000	19.2	3	1
03/30/06	5:25 a	-17.9	-17.9	-17.9	---	---	6.1	N	0.10	7.0	-25.1	---	---	722.1	0.025	0.000	19.2	2	1
03/30/06	5:26 a	-17.9	-17.9	-17.9	---	---	6.1	NNW	0.10	7.8	-25.2	---	---	722.1	0.025	0.000	19.2	2	1
03/30/06	5:27 a	-17.9	-17.9	-17.9	---	---	7.0	NNW	0.12	7.8	-25.8	---	---	722.1	0.025	0.000	19.2	3	1
03/30/06	5:28 a	-17.9	-17.9	-17.9	---	---	7.0	NNW	0.12	7.8	-25.8	---	---	722.1	0.025	0.000	19.2	3	1
03/30/06	5:29 a	-17.9	-17.9	-17.9	---	---	7.0	NNW	0.12	7.8	-25.8	---	---	722.1	0.025	0.000	19.2	3	1
03/30/06	5:30 a	-17.9	-17.9	-17.9	---	---	7.0	NNW	0.12	7.8	-25.8	---	---	722.1	0.025	0.000	19.2	2	1
03/30/06	5:31 a	-17.9	-17.9	-17.9	---	---	7.0	NNW	0.12	8.7	-25.8	---	---	722.0	0.025	0.000	19.2	3	1
03/30/06	5:32 a	-17.9	-17.9	-18.0	---	---	6.1	NNW	0.10	7.0	-25.2	---	---	722.1	0.025	0.000	19.2	3	1
03/30/06	5:33 a	-18.0	-17.9	-18.0	---	---	5.2	NNW	0.09	7.0	-24.6	---	---	722.1	0.025	0.000	19.2	2	1
03/30/06	5:34 a	-18.0	-18.0	-18.0	---	---	5.2	NNW	0.09	7.0	-24.6	---	---	722.0	0.025	0.000	19.1	2	1
03/30/06	5:35 a	-18.0	-18.0	-18.0	---	---	5.2	N	0.09	7.0	-24.6	---	---	722.0	0.025	0.000	19.2	3	1
03/30/06	5:36 a	-18.0	-17.9	-18.0	---	---	5.2	N	0.09	7.8	-24.6	---	---	722.1	0.025	0.000	19.2	3	1
03/30/06	5:37 a	-18.0	-17.9	-18.0	---	---	6.1	NNW	0.10	7.0	-25.3	---	---	722.1	0.025	0.000	19.2	3	1
03/30/06	5:38 a	-18.0	-17.9	-18.0	---	---	7.8	NNW	0.13	8.7	-26.4	---	---	722.1	0.025	0.000	19.2	3	1
03/30/06	5:39 a	-18.0	-17.9	-18.0	---	---	7.0	NNW	0.12	7.8	-25.8	---	---	722.1	0.025	0.000	19.2	3	1
03/30/06	5:40 a	-17.9	-17.9	-18.0	---	---	7.0	NNW	0.12	7.8	-25.8	---	---	722.0	0.025	0.000	19.2	3	1
03/30/06	5:41 a	-18.0	-17.9	-18.0	---	---	7.0	NNW	0.12	7.8	-25.8	---	---	722.1	0.025	0.000	19.2	3	1
03/30/06	5:42 a	-18.0	-17.9	-18.0	---	---	7.0	NNW	0.12	8.7	-25.8	---	---	721.9	0.025	0.000	19.2	3	1
03/30/06	5:43 a	-18.0	-18.0	-18.1	---	---	7.0	NNW	0.12	8.7	-25.8	---	---	722.0	0.025	0.000	19.2	3	1
03/30/06	5:44 a	-18.0	-18.0	-18.1	---	---	6.1	NNW	0.10	7.0	-25.3	---	---	722.0	0.025	0.000	19.2	3	1
03/30/06	5:45 a	-18.1	-18.0	-18.1	---	---	6.1	NNW	0.10	7.0	-25.3	---	---	722.0	0.025	0.000	19.2	3	1
03/30/06	5:46 a	-18.1	-18.0	-18.1	---	---	5.2	NNW	0.09	7.0	-24.7	---	---	722.0	0.025	0.000	19.2	3	1
03/30/06	5:47 a	-18.1	-18.1	-18.1	---	---	7.0	NNW	0.12	8.7	-25.9	---	---	722.0	0.025	0.000	19.2	3	1
03/30/06	5:48 a	-18.1	-18.1	-18.1	---	---	6.1	NNW	0.10	7.8	-25.3	---	---	722.0	0.025	0.000	19.2	3	1
03/30/06	5:49 a	-18.1	-18.1	-18.1	---	---	6.1	NNW	0.10	7.0	-25.3	---	---	722.1	0.025	0.000	19.2	3	1
03/30/06	5:50 a	-18.1	-18.1	-18.1	---	---	6.1	NNW	0.10	7.0	-25.3	---	---	722.0	0.025	0.000	19.2	3	1
03/30/06	5:51 a	-18.1	-18.1	-18.1	---	---	6.1	NNW	0.10	7.0	-25.3	---	---	721.9	0.025	0.000	19.2	3	1
03/30/06	5:52 a	-18.1	-18.1	-18.1	---	---	6.1	NNW	0.10	7.0	-25.3	---	---	722.0	0.025	0.000	19.2	3	1
03/30/06	5:53 a	-18.1	-18.1	-18.1	---	---	6.1	NNW	0.10	7.0	-25.4	---	---	722.0	0.025	0.000	19.2	3	1
03/30/06	5:54 a	-18.1	-18.1	-18.1	---	---	6.1	NNW	0.10	7.0	-25.4	---	---	722.0	0.025	0.000	19.2	3	1
03/30/06	5:55 a	-18.1	-18.1	-18.1	---	---	6.1	NNW	0.10	7.0	-25.4	---	---	722.0	0.025	0.000	19.2	3	1
03/30/06	5:56 a	-18.1	-18.1	-18.2	---	---	6.1	NNW	0.10	7.0	-25.4	---	---	722.0	0.025	0.000	19.2	2	1
03/30/06	5:57 a	-18.1	-18.1	-18.1	---	---	6.1	NNW	0.10	7.0	-25.4	---	---	722.0	0.025	0.000	19.2	3	1
03/30/06	5:58 a	-18.1	-18.1	-18.2	---	---	5.2	NNW	0.09	6.1	-24.7	---	---	722.0	0.025	0.000	19.2	3	1
03/30/06	5:59 a	-18.1	-18.1	-18.2	---	---	5.2	NNW	0.09	6.1	-24.7	---	---	722.0	0.025	0.000	19.2	3	1
03/30/06	6:00 a	-18.1	-18.1	-18.1	---	---	5.2	NNW	0.09	7.0	-24.7	---	---	722.0	0.025	0.000	19.2	3	1
03/30/06	6:01 a	-18.1	-18.1	-18.1	---	---	5.2	NNW	0.09	6.1	-24.7	---	---	722.0	0.025	0.000	19.2	3	1
03/30/06	6:02 a	-18.1	-18.1	-18.1	---	---	4.3	NNW	0.07	5.2	-23.9	---	---	721.9	0.025	0.000	19.2	3	1
03/30/06	6:03 a	-18.1	-18.1	-18.1	---	---	4.3	NNW	0.07	6.1	-23.9	---	---	721.9	0.025	0.000	19.2	3	1
03/30/06	6:04 a	-18.1	-18.1	-18.1	---	---	4.3	NNW	0.07	5.2	-23.9	---	---	722.0	0.025	0.000	19.2	3	1
03/30/06	6:05 a	-18.1	-18.1	-18.1	---	---	3.5	NNW	0.06	4.3	-23.1	---	---	721.9	0.025	0.000	19.2	3	1
03/30/06	6:06 a	-18.1	-18.1	-18.1	---	---	5.2	NNW	0.09	6.1	-24.7	---	---	722.0	0.025	0.000	19.2	3	1
03/30/06	6:07 a	-18.1	-18.1	-18.1	---	---	3.5	NNW	0.06	5.2	-23.1	---	---	721.9	0.025	0.000	19.2	3	1
03/30/06	6:08 a	-18.1	-18.1	-18.1	---	---	4.3	NNW	0.07	5.2	-23.9	---	---	722.0	0.025	0.000	19.2	3	1
03/30/06	6:09 a	-18.1	-18.1	-18.1	---	---	3.5	NNW	0.06	4.3	-23.1	---	---	721.9	0.025	0.000	19.2	3	1
03/30/06	6:10 a	-18.1	-18.1	-18.1	---	---	4.3	NNW	0.07	5.2	-23.9	---	---	722.0	0.025	0.000	19.2	3	1
03/30/06	6:11 a	-18.1	-18.1	-18.1	---	---	4.3	NNW	0.07	5.2	-23.9	---	---	722.0	0.025	0.000	19.2	2	1
03/30/06	6:12 a	-18.1	-18.1	-18.1	---	---	4.3	NNW	0.07	5.2	-23.9	---	---	722.0	0.025	0.000	19.2	3	1
03/30/06	6:13 a	-18.1	-18.1	-18.1	---	---	3.5	NNW	0.06	4.3	-23.1	---	---	721.9	0.025	0.000	19.2	3	1
03/30/06	6:14 a	-18.1	-18.1	-18.1	---	---	3.5	NNW	0.06	4.3	-23.1	---	---	722.0	0.025	0.000	19.2	3	1
03/30/06	6:15 a	-18.1	-18.1	-18.1	---	---	3.5	NNW	0.06	4.3	-23.1	---	---	721.9	0.025	0.000	19.2	3	1
03/30/06	6:16 a	-18.1	-18.1	-18.1	---	---	3.5	NNW	0.06	4.3	-23.1	---	---	721.9	0.025	0.000	19.2	3	1
03/30/06	6:17 a	-18.1	-18.1	-18.1	---	---	4.3	NNW	0.07	5.2	-23.9	---	---	721.9	0.025	0.000	19.2	3	1
03/30/06	6:18 a	-18.1	-18.1	-18.1	---	---	3.5	NNW	0.06	4.3	-23.1	---	---	722.0	0.025	0.000	19.2	3	1
03/30/06	6:19 a	-18.1	-18.1	-18.2	---	---	3.5	NNW	0.06	4.3	-23.1	---	---	721.9	0.025	0.000	19.2	3	1
03/30/06	6:20 a	-18.1	-18.1	-18.1	---	---	2.6	NNW	0.04	3.5	-21.9	---	---	722.0	0.025	0.000	19.2	3	1
03/30/06	6:21 a	-18.1	-18.1	-18.1	---	---	2.6	NNW	0.04	2.6	-21.9	---	---	722.0	0.025	0.000	19.2	3	1
03/30/06	6:22 a	-18.2	-18.2	-18.2	---	---	2.6	NNW	0.04	2.6	-22.0	---	---	721.9	0.025	0.000	19.2	3	1
03/30/06	6:23 a	-18.2	-18.2	-18.2	---	---	2.6	NNW	0.04	3.5	-22.0	---	---	722.0	0.025	0.000	19.2	3	1
03/30/06	6:24 a	-18.2	-18.2	-18.2	---	---	2.6	NNW	0.04	3.5	-22.0	---	---	721.9	0.025	0.000	19.2	3	1
03/30/06	6:25 a	-18.2	-18.2	-18.2	---	---	3.5	NNW	0.06	3.5	-23.1	---	---	721.9	0.025	0.000	19.2	3	1
03/30/06	6:26 a	-18.2	-18.2	-18.2	---	---	3.5	NNW	0.06	4.3	-23.2	---	---	722.0	0.025	0.000	19.2	3	1
03/30/06	6:27 a	-18.2	-18.2	-18.2	---	---	3.5	NNW	0.06	3.5	-23.2	---	---	721.9	0.025	0.000	19.2	3	1
03/30/06	6:28 a	-18.2	-18.2	-18.2	---	---	3.5	NNW	0.06	4.3	-23.2	---	---	722.0	0.025	0.000	19.2	3	1
03/30/06	6:29 a	-18.2	-18.2	-18.2	---	---	4.3	NNW	0.07	4.3	-24.1	---	---	722.0	0.025	0.000	19.2	3	1
03/30/06	6:30 a	-18.3	-18.3	-18.3	---	---	4.3	NNW	0.07	4.3	-24.2	---	---	722.0	0.025	0.000	19.2	3	1
03/30/06	6:31 a	-18.3	-18.3	-18.3	---	---	3.5	NNW	0.06	4.3	-23.2	---	---	722.0	0.025	0.000	19.3	3	1
03/30/06	6:32 a	-18.3	-18.3	-18.3	---	---	3.5	NNW	0.06	3.5	-23.2	---	---	722.0	0.025	0.000	19.3	2	1
03/30/06	6:33 a	-18.3	-18.3	-18.3	---	---	2.6	NNW	0.04	3.5	-22.1	---	---	722.0	0.025	0.000	19.3	3	1
03/30/06	6:34 a	-18.3	-18.3	-18.3	---	---	2.6	NNW	0.04	3.5	-22.1	---	---	722.0	0.025	0.000	19.3	3	1
03/30/06	6:35 a	-18.3	-18.3	-18.3	---	---	3.5	NNW	0.06	3.5	-23.2	---	---	721.8	0.025	0.000	19.3	3	1
03/30/06	6:36 a	-18.3	-18.3	-18.3	---	---	3.5	NNW	0.06	3.5	-23.2	---	---	721.9	0.025	0.000	19.3	3	1
03/30/06	6:37 a	-18.3	-18.3	-18.3	---	---	3.5	NNW	0.06	4.3	-23.2	---	---	721.9	0.025	0.000	19.3	3	1
03/30/06	6:38 a	-18.3	-18.3	-18.3	---	---	2.6	NNW	0.04	3.5	-22.1	---	---	721.9	0.025	0.000	19.3	3	1
03/30/06	6:39 a	-18.2	-18.2	-18.3	---	---	3.5	NNW	0.06	4.3	-23.2	---	---	721.8	0.025	0.000	19.3	3	1
03/30/06	6:40 a	-18.2	-18.2	-18.2	---	---	3.5	NNW	0.06	4.3	-23.2	---	---	721.8	0.025	0.000	19.3	3	1
03/30/06	6:41 a	-18.2	-18.2	-18.3	---	---	3.5	NNW	0.06	4.3	-23.2	---	---	721.8	0.025	0.000	19.3	3	1
03/30/06	6:42 a	-18.2	-18.2	-18.3	---	---	3.5	NNW	0.06	4.3	-23.2	---	---	721.8	0.025	0.000	19.3	3	1
03/30/06	6:43 a	-18.2	-18.2	-18.2	---	---	3.5	NNW	0.06	4.3	-23.2	---	---	721.8	0.025	0.000	19.3	3	1
03/30/06	6:44 a	-18.2	-18.2	-18.2	---	---	3.5	NNW	0.06	4.3	-23.2	---	---	721.8	0.025	0.000	19.3	3	1
03/30/06	6:45 a	-18.2	-18.2	-18.2	---	---	3.5	NNW	0.06	4.3	-23.1	---	---	721.8	0.025	0.000	19.3	3	1
03/30/06	6:46 a	-18.2	-18.2	-18.2	---	---	2.6	NNW	0.04	3.5	-22.0	---	---	721.8	0.025	0.000	19.3	3	1
03/30/06	6:47 a	-18.2	-18.2	-18.2	---	---	2.6	NNW	0.04	3.5	-22.0	---	---	721.8	0.025	0.000	19.3	3	1
03/30/06	6:48 a	-18.2	-18.2	-18.2	---	---	2.6	NNW	0.04	3.5	-22.0	---	---	721.8	0.025	0.000	19.3	3	1
03/30/06	6:49 a	-18.2	-18.2	-18.2	---	---	3.5	NNW	0.06	4.3	-23.1	---	---	721.8	0.025	0.000	19.3	3	1
03/30/06	6:50 a	-18.2	-18.2	-18.2	---	---	3.5	NNW	0.06	4.3	-23.1	---	---	721.7	0.025	0.000	19.3	3	1
03/30/06	6:51 a	-18.2	-18.2	-18.2	---	---	3.5	NNW	0.06	4.3	-23.1	---	---	721.8	0.025	0.000	19.3	3	1
03/30/06	6:52 a	-18.2	-18.2	-18.2	---	---	4.3	NNW	0.07	4.3	-24.0	---	---	721.9	0.025	0.000	19.3	3	1
03/30/06	6:53 a	-18.2	-18.2	-18.2	---	---	3.5	NNW	0.06	4.3	-23.1	---	---	721.7	0.025	0.000	19.3	3	1
03/30/06	6:54 a	-18.2	-18.2	-18.2	---	---	2.6	NNW	0.04	3.5	-22.0	---	---	721.7	0.025	0.000	19.3	3	1
03/30/06	6:55 a	-18.2	-18.2	-18.2	---	---	3.5	NNW	0.06	3.5	-23.1	---	---	721.7	0.025	0.000	19.3	3	1
03/30/06	6:56 a	-18.2	-18.2	-18.2	---	---	3.5	NNW	0.06	3.5	-23.1	---	---	721.7	0.025	0.000	19.3	3	1
03/30/06	6:57 a	-18.2	-18.2	-18.2	---	---	3.5	NNW	0.06	4.3	-23.1	---	---	721.7	0.025	0.000	19.3	3	1
03/30/06	6:58 a	-18.2	-18.2	-18.2	---	---	3.5	NNW	0.06	4.3	-23.1	---	---	721.6	0.025	0.000	19.3	3	1
03/30/06	6:59 a	-18.2	-18.2	-18.2	---	---	4.3	NNW	0.07	5.2	-24.0	---	---	721.6	0.025	0.000	19.3	3	1
03/30/06	7:00 a	-18.2	-18.2	-18.2	---	---	3.5	NNW	0.06	4.3	-23.2	---	---	721.7	0.025	0.000	19.3	3	1
03/30/06	7:01 a	-18.2	-18.2	-18.2	---	---	3.5	NNW	0.06	3.5	-23.2	---	---	721.6	0.025	0.000	19.3	3	1
03/30/06	7:02 a	-18.2	-18.2	-18.2	---	---	3.5	NNW	0.06	3.5	-23.2	---	---	721.7	0.025	0.000	19.3	3	1
03/30/06	7:03 a	-18.2	-18.2	-18.2	---	---	3.5	NNW	0.06	4.3	-23.2	---	---	721.6	0.025	0.000	19.3	3	1
03/30/06	7:04 a	-18.2	-18.2	-18.2	---	---	2.6	NNW	0.04	3.5	-22.1	---	---	721.8	0.025	0.000	19.3	3	1
03/30/06	7:05 a	-18.2	-18.2	-18.2	---	---	2.6	NNW	0.04	3.5	-22.1	---	---	721.6	0.025	0.000	19.3	3	1
03/30/06	7:06 a	-18.2	-18.2	-18.2	---	---	2.6	NNW	0.04	3.5	-22.1	---	---	721.6	0.025	0.000	19.3	3	1
03/30/06	7:07 a	-18.2	-18.2	-18.3	---	---	2.6	NNW	0.04	3.5	-22.1	---	---	721.7	0.025	0.000	19.3	3	1
03/30/06	7:08 a	-18.2	-18.2	-18.3	---	---	2.6	NNW	0.04	3.5	-22.1	---	---	721.7	0.025	0.000	19.3	3	1
03/30/06	7:09 a	-18.2	-18.2	-18.2	---	---	2.6	NNW	0.04	4.3	-22.1	---	---	721.8	0.025	0.000	19.3	3	1
03/30/06	7:10 a	-18.2	-18.2	-18.2	---	---	3.5	NNW	0.06	3.5	-23.2	---	---	721.7	0.025	0.000	19.3	3	1
03/30/06	7:11 a	-18.2	-18.2	-18.2	---	---	3.5	NNW	0.06	4.3	-23.2	---	---	721.7	0.025	0.000	19.3	3	1
03/30/06	7:12 a	-18.2	-18.2	-18.2	---	---	3.5	NNW	0.06	4.3	-23.1	---	---	721.7	0.025	0.000	19.3	3	1
03/30/06	7:13 a	-18.2	-18.2	-18.2	---	---	2.6	NNW	0.04	3.5	-22.1	---	---	721.6	0.025	0.000	19.3	3	1
03/30/06	7:14 a	-18.2	-18.2	-18.2	---	---	2.6	NNW	0.04	3.5	-22.1	---	---	721.7	0.025	0.000	19.3	3	1
03/30/06	7:15 a	-18.2	-18.2	-18.2	---	---	2.6	NNW	0.04	3.5	-22.1	---	---	721.6	0.025	0.000	19.3	3	1
03/30/06	7:16 a	-18.2	-18.2	-18.2	---	---	2.6	NNW	0.04	3.5	-22.1	---	---	721.7	0.025	0.000	19.3	3	1
03/30/06	7:17 a	-18.2	-18.2	-18.2	---	---	2.6	NNW	0.04	3.5	-22.1	---	---	721.6	0.025	0.000	19.3	3	1
03/30/06	7:18 a	-18.2	-18.2	-18.2	---	---	2.6	NNW	0.04	2.6	-22.1	---	---	721.6	0.025	0.000	19.3	3	1
03/30/06	7:19 a	-18.2	-18.2	-18.2	---	---	2.6	NNW	0.04	3.5	-22.1	---	---	721.6	0.025	0.000	19.3	3	1
03/30/06	7:20 a	-18.2	-18.2	-18.2	---	---	2.6	NNW	0.04	3.5	-22.1	---	---	721.6	0.025	0.000	19.4	3	1
03/30/06	7:21 a	-18.2	-18.2	-18.2	---	---	2.6	NNW	0.04	3.5	-22.1	---	---	721.6	0.025	0.000	19.4	3	1
03/30/06	7:22 a	-18.2	-18.2	-18.2	---	---	2.6	NNW	0.04	3.5	-22.1	---	---	721.6	0.025	0.000	19.4	3	1
03/30/06	7:23 a	-18.2	-18.2	-18.2	---	---	3.5	NNW	0.06	4.3	-23.2	---	---	721.5	0.025	0.000	19.4	3	1
03/30/06	7:24 a	-18.2	-18.2	-18.2	---	---	3.5	NNW	0.06	4.3	-23.2	---	---	721.6	0.025	0.000	19.4	3	1
03/30/06	7:25 a	-18.3	-18.2	-18.3	---	---	3.5	NNW	0.06	5.2	-23.2	---	---	721.6	0.025	0.000	19.4	3	1
03/30/06	7:26 a	-18.3	-18.3	-18.3	---	---	3.5	NNW	0.06	4.3	-23.2	---	---	721.6	0.025	0.000	19.4	3	1
03/30/06	7:27 a	-18.3	-18.3	-18.3	---	---	3.5	NNW	0.06	5.2	-23.2	---	---	721.7	0.025	0.000	19.4	3	1
03/30/06	7:28 a	-18.3	-18.3	-18.3	---	---	4.3	NNW	0.07	5.2	-24.2	---	---	721.7	0.025	0.000	19.4	3	1
03/30/06	7:29 a	-18.3	-18.3	-18.3	---	---	3.5	NNW	0.06	5.2	-23.2	---	---	721.6	0.025	0.000	19.4	3	1
03/30/06	7:30 a	-18.3	-18.3	-18.3	---	---	3.5	NNW	0.06	4.3	-23.3	---	---	721.7	0.025	0.000	19.4	3	1
03/30/06	7:31 a	-18.3	-18.3	-18.3	---	---	3.5	NNW	0.06	5.2	-23.3	---	---	721.7	0.025	0.000	19.4	3	1
03/30/06	7:32 a	-18.3	-18.3	-18.4	---	---	4.3	N	0.07	5.2	-24.2	---	---	721.6	0.025	0.000	19.4	3	1
03/30/06	7:33 a	-18.4	-18.3	-18.4	---	---	3.5	N	0.06	4.3	-23.4	---	---	721.6	0.026	0.000	19.4	3	1
03/30/06	7:34 a	-18.4	-18.4	-18.4	---	---	3.5	N	0.06	5.2	-23.4	---	---	721.6	0.026	0.000	19.4	3	1
03/30/06	7:35 a	-18.4	-18.4	-18.4	---	---	3.5	N	0.06	5.2	-23.4	---	---	721.5	0.026	0.000	19.4	3	1
03/30/06	7:36 a	-18.4	-18.4	-18.4	---	---	3.5	N	0.06	5.2	-23.4	---	---	721.5	0.026	0.000	19.4	3	1
03/30/06	7:37 a	-18.4	-18.4	-18.4	---	---	3.5	N	0.06	4.3	-23.4	---	---	721.6	0.026	0.000	19.4	3	1
03/30/06	7:38 a	-18.4	-18.4	-18.4	---	---	3.5	N	0.06	4.3	-23.4	---	---	721.6	0.026	0.000	19.4	3	1
03/30/06	7:39 a	-18.4	-18.4	-18.4	---	---	3.5	N	0.06	4.3	-23.4	---	---	721.5	0.026	0.000	19.4	3	1
03/30/06	7:40 a	-18.4	-18.3	-18.4	---	---	3.5	N	0.06	4.3	-23.4	---	---	721.5	0.026	0.000	19.4	3	1
03/30/06	7:41 a	-18.3	-18.3	-18.3	---	---	4.3	N	0.07	5.2	-24.2	---	---	721.5	0.025	0.000	19.4	3	1
03/30/06	7:42 a	-18.3	-18.3	-18.3	---	---	3.5	N	0.06	5.2	-23.3	---	---	721.5	0.025	0.000	19.4	3	1
03/30/06	7:43 a	-18.3	-18.3	-18.3	---	---	4.3	N	0.07	6.1	-24.2	---	---	721.6	0.025	0.000	19.4	3	1
03/30/06	7:44 a	-18.3	-18.3	-18.3	---	---	3.5	N	0.06	4.3	-23.3	---	---	721.6	0.025	0.000	19.4	3	1
03/30/06	7:45 a	-18.3	-18.3	-18.3	---	---	3.5	N	0.06	5.2	-23.3	---	---	721.5	0.025	0.000	19.4	3	1
03/30/06	7:46 a	-18.3	-18.3	-18.3	---	---	4.3	N	0.07	6.1	-24.2	---	---	721.6	0.025	0.000	19.4	3	1
03/30/06	7:47 a	-18.3	-18.3	-18.3	---	---	3.5	N	0.06	4.3	-23.2	---	---	721.5	0.025	0.000	19.4	3	1
03/30/06	7:48 a	-18.3	-18.3	-18.3	---	---	4.3	NNW	0.07	5.2	-24.2	---	---	721.5	0.025	0.000	19.4	3	1
03/30/06	7:49 a	-18.3	-18.3	-18.3	---	---	4.3	NNW	0.07	6.1	-24.2	---	---	721.6	0.025	0.000	19.4	3	1
03/30/06	7:50 a	-18.3	-18.3	-18.3	---	---	4.3	NNW	0.07	6.1	-24.2	---	---	721.6	0.025	0.000	19.4	3	1
03/30/06	7:51 a	-18.3	-18.3	-18.3	---	---	3.5	NNW	0.06	5.2	-23.3	---	---	721.5	0.025	0.000	19.4	3	1
03/30/06	7:52 a	-18.3	-18.3	-18.3	---	---	4.3	NNW	0.07	5.2	-24.2	---	---	721.6	0.025	0.000	19.4	3	1
03/30/06	7:53 a	-18.3	-18.3	-18.3	---	---	3.5	NNW	0.06	4.3	-23.3	---	---	721.5	0.025	0.000	19.4	3	1
03/30/06	7:54 a	-18.3	-18.3	-18.4	---	---	3.5	NNW	0.06	5.2	-23.3	---	---	721.6	0.025	0.000	19.4	3	1
03/30/06	7:55 a	-18.4	-18.3	-18.4	---	---	3.5	NNW	0.06	5.2	-23.4	---	---	721.6	0.026	0.000	19.4	3	1
03/30/06	7:56 a	-18.4	-18.4	-18.4	---	---	3.5	NNW	0.06	5.2	-23.4	---	---	721.5	0.026	0.000	19.4	3	1
03/30/06	7:57 a	-18.4	-18.4	-18.4	---	---	3.5	NNW	0.06	4.3	-23.4	---	---	721.5	0.026	0.000	19.4	3	1
03/30/06	7:58 a	-18.4	-18.4	-18.4	---	---	3.5	NNW	0.06	4.3	-23.4	---	---	721.5	0.026	0.000	19.4	3	1
03/30/06	7:59 a	-18.4	-18.4	-18.4	---	---	3.5	NNW	0.06	5.2	-23.4	---	---	721.5	0.026	0.000	19.4	3	1
03/30/06	8:00 a	-18.4	-18.4	-18.4	---	---	4.3	NNW	0.07	5.2	-24.3	---	---	721.5	0.026	0.000	19.4	3	1
03/30/06	8:01 a	-18.4	-18.4	-18.4	---	---	4.3	NNW	0.07	5.2	-24.3	---	---	721.5	0.026	0.000	19.4	3	1
03/30/06	8:02 a	-18.4	-18.4	-18.4	---	---	4.3	NNW	0.07	5.2	-24.3	---	---	721.4	0.026	0.000	19.4	3	1
03/30/06	8:03 a	-18.4	-18.4	-18.4	---	---	3.5	NNW	0.06	4.3	-23.4	---	---	721.5	0.026	0.000	19.4	3	1
03/30/06	8:04 a	-18.4	-18.4	-18.4	---	---	3.5	NNW	0.06	4.3	-23.4	---	---	721.5	0.026	0.000	19.4	3	1
03/30/06	8:05 a	-18.4	-18.4	-18.4	---	---	3.5	NNW	0.06	4.3	-23.4	---	---	721.5	0.026	0.000	19.4	3	1
03/30/06	8:06 a	-18.4	-18.4	-18.4	---	---	3.5	NNW	0.06	5.2	-23.4	---	---	721.6	0.026	0.000	19.4	3	1
03/30/06	8:07 a	-18.4	-18.4	-18.4	---	---	3.5	NNW	0.06	4.3	-23.4	---	---	721.5	0.026	0.000	19.4	3	1
03/30/06	8:08 a	-18.4	-18.4	-18.4	---	---	4.3	NNW	0.07	5.2	-24.3	---	---	721.5	0.026	0.000	19.4	3	1
03/30/06	8:09 a	-18.4	-18.4	-18.4	---	---	4.3	NNW	0.07	5.2	-24.3	---	---	721.6	0.026	0.000	19.4	3	1
03/30/06	8:10 a	-18.4	-18.4	-18.4	---	---	4.3	NNW	0.07	5.2	-24.3	---	---	721.5	0.026	0.000	19.4	3	1
03/30/06	8:11 a	-18.4	-18.4	-18.4	---	---	4.3	NNW	0.07	5.2	-24.3	---	---	721.4	0.026	0.000	19.4	3	1
03/30/06	8:12 a	-18.4	-18.4	-18.4	---	---	4.3	NNW	0.07	5.2	-24.3	---	---	721.5	0.026	0.000	19.4	3	1
03/30/06	8:13 a	-18.4	-18.4	-18.4	---	---	4.3	NNW	0.07	5.2	-24.3	---	---	721.4	0.026	0.000	19.4	3	1
03/30/06	8:14 a	-18.4	-18.4	-18.4	---	---	4.3	NNW	0.07	5.2	-24.3	---	---	721.5	0.026	0.000	19.4	3	1
03/30/06	8:15 a	-18.4	-18.4	-18.4	---	---	4.3	NNW	0.07	5.2	-24.3	---	---	721.5	0.026	0.000	19.4	3	1
03/30/06	8:16 a	-18.4	-18.4	-18.4	---	---	3.5	NNW	0.06	4.3	-23.4	---	---	721.5	0.026	0.000	19.4	3	1
03/30/06	8:17 a	-18.4	-18.4	-18.4	---	---	4.3	NNW	0.07	4.3	-24.3	---	---	721.4	0.026	0.000	19.4	3	1
03/30/06	8:18 a	-18.4	-18.4	-18.4	---	---	4.3	NNW	0.07	4.3	-24.3	---	---	721.4	0.026	0.000	19.4	3	1
03/30/06	8:19 a	-18.4	-18.3	-18.4	---	---	3.5	NNW	0.06	4.3	-23.4	---	---	721.5	0.026	0.000	19.4	3	1
03/30/06	8:20 a	-18.4	-18.4	-18.4	---	---	3.5	NNW	0.06	4.3	-23.4	---	---	721.4	0.026	0.000	19.4	3	1
03/30/06	8:21 a	-18.3	-18.3	-18.3	---	---	3.5	NNW	0.06	4.3	-23.3	---	---	721.4	0.025	0.000	19.4	3	1
03/30/06	8:22 a	-18.3	-18.3	-18.3	---	---	2.6	NNW	0.04	3.5	-22.2	---	---	721.4	0.025	0.000	19.4	3	1
03/30/06	8:23 a	-18.3	-18.3	-18.3	---	---	3.5	N	0.06	4.3	-23.3	---	---	721.4	0.025	0.000	19.4	3	1
03/30/06	8:24 a	-18.3	-18.3	-18.3	---	---	3.5	N	0.06	5.2	-23.2	---	---	721.5	0.025	0.000	19.5	3	1
03/30/06	8:25 a	-18.3	-18.2	-18.3	---	---	3.5	N	0.06	4.3	-23.2	---	---	721.4	0.025	0.000	19.5	3	1
03/30/06	8:26 a	-18.2	-18.2	-18.2	---	---	4.3	N	0.07	5.2	-24.1	---	---	721.4	0.025	0.000	19.5	3	1
03/30/06	8:27 a	-18.2	-18.2	-18.3	---	---	4.3	N	0.07	5.2	-24.1	---	---	721.3	0.025	0.000	19.5	3	1
03/30/06	8:28 a	-18.2	-18.2	-18.2	---	---	4.3	N	0.07	5.2	-24.1	---	---	721.5	0.025	0.000	19.4	3	1
03/30/06	8:29 a	-18.2	-18.2	-18.2	---	---	4.3	N	0.07	5.2	-24.1	---	---	721.4	0.025	0.000	19.4	3	1
03/30/06	8:30 a	-18.2	-18.2	-18.2	---	---	4.3	N	0.07	7.0	-24.1	---	---	721.5	0.025	0.000	19.4	3	1
03/30/06	8:31 a	-18.2	-18.2	-18.2	---	---	5.2	NNW	0.09	5.2	-24.8	---	---	721.4	0.025	0.000	19.5	3	1
03/30/06	8:32 a	-18.2	-18.2	-18.3	---	---	3.5	N	0.06	6.1	-23.2	---	---	721.4	0.025	0.000	19.4	3	1
03/30/06	8:33 a	-18.3	-18.2	-18.3	---	---	5.2	N	0.09	7.0	-24.9	---	---	721.5	0.025	0.000	19.4	3	1
03/30/06	8:34 a	-18.2	-18.2	-18.3	---	---	3.5	N	0.06	4.3	-23.2	---	---	721.5	0.025	0.000	19.4	3	1
03/30/06	8:35 a	-18.2	-18.2	-18.3	---	---	4.3	N	0.07	6.1	-24.1	---	---	721.4	0.025	0.000	19.4	3	1
03/30/06	8:36 a	-18.2	-18.2	-18.2	---	---	4.3	N	0.07	6.1	-24.1	---	---	721.5	0.025	0.000	19.4	3	1
03/30/06	8:37 a	-18.2	-18.2	-18.2	---	---	3.5	N	0.06	5.2	-23.1	---	---	721.5	0.025	0.000	19.4	3	1
03/30/06	8:38 a	-18.2	-18.2	-18.2	---	---	3.5	N	0.06	4.3	-23.1	---	---	721.5	0.025	0.000	19.4	3	1
03/30/06	8:39 a	-18.1	-18.1	-18.2	---	---	3.5	N	0.06	4.3	-23.1	---	---	721.5	0.025	0.000	19.4	3	1
03/30/06	8:40 a	-18.2	-18.1	-18.2	---	---	4.3	N	0.07	5.2	-24.0	---	---	721.5	0.025	0.000	19.4	3	1
03/30/06	8:41 a	-18.1	-18.1	-18.2	---	---	4.3	N	0.07	6.1	-23.9	---	---	721.4	0.025	0.000	19.4	3	1
03/30/06	8:42 a	-18.1	-18.1	-18.2	---	---	4.3	N	0.07	5.2	-23.9	---	---	721.6	0.025	0.000	19.4	3	1
03/30/06	8:43 a	-18.1	-18.1	-18.1	---	---	4.3	N	0.07	5.2	-23.9	---	---	721.5	0.025	0.000	19.4	3	1
03/30/06	8:44 a	-18.1	-18.1	-18.1	---	---	4.3	N	0.07	6.1	-23.9	---	---	721.5	0.025	0.000	19.4	3	1
03/30/06	8:45 a	-18.1	-18.1	-18.1	---	---	4.3	N	0.07	6.1	-23.9	---	---	721.5	0.025	0.000	19.4	3	1
03/30/06	8:46 a	-18.1	-18.1	-18.1	---	---	4.3	N	0.07	5.2	-23.9	---	---	721.5	0.025	0.000	19.4	3	1
03/30/06	8:47 a	-18.1	-18.1	-18.1	---	---	4.3	N	0.07	6.1	-23.9	---	---	721.5	0.025	0.000	19.4	3	1
03/30/06	8:48 a	-18.1	-18.1	-18.1	---	---	4.3	N	0.07	5.2	-23.9	---	---	721.5	0.025	0.000	19.4	3	1
03/30/06	8:49 a	-18.1	-18.1	-18.1	---	---	4.3	N	0.07	5.2	-23.9	---	---	721.5	0.025	0.000	19.4	3	1
03/30/06	8:50 a	-18.1	-18.1	-18.1	---	---	5.2	N	0.09	6.1	-24.7	---	---	721.5	0.025	0.000	19.4	3	1
03/30/06	8:51 a	-18.1	-18.1	-18.1	---	---	5.2	N	0.09	6.1	-24.7	---	---	721.4	0.025	0.000	19.4	3	1
03/30/06	8:52 a	-18.1	-18.1	-18.1	---	---	5.2	NNW	0.09	6.1	-24.7	---	---	721.5	0.025	0.000	19.4	3	1
03/30/06	8:53 a	-18.1	-18.1	-18.1	---	---	4.3	N	0.07	5.2	-23.9	---	---	721.4	0.025	0.000	19.4	3	1
03/30/06	8:54 a	-18.1	-18.1	-18.1	---	---	4.3	N	0.07	5.2	-23.9	---	---	721.4	0.025	0.000	19.4	3	1
03/30/06	8:55 a	-18.1	-18.1	-18.1	---	---	4.3	N	0.07	6.1	-23.9	---	---	721.4	0.025	0.000	19.4	3	1
03/30/06	8:56 a	-18.1	-18.1	-18.1	---	---	4.3	N	0.07	5.2	-23.9	---	---	721.5	0.025	0.000	19.4	3	1
03/30/06	8:57 a	-18.1	-18.1	-18.2	---	---	4.3	N	0.07	6.1	-23.9	---	---	721.5	0.025	0.000	19.4	3	1
03/30/06	8:58 a	-18.2	-18.1	-18.2	---	---	4.3	N	0.07	5.2	-24.0	---	---	721.4	0.025	0.000	19.4	3	1
03/30/06	8:59 a	-18.2	-18.2	-18.2	---	---	5.2	N	0.09	6.1	-24.8	---	---	721.4	0.025	0.000	19.4	3	1
03/30/06	9:00 a	-18.2	-18.1	-18.2	---	---	4.3	N	0.07	5.2	-24.0	---	---	721.5	0.025	0.000	19.4	3	1
03/30/06	9:01 a	-18.2	-18.2	-18.2	---	---	5.2	N	0.09	6.1	-24.8	---	---	721.4	0.025	0.000	19.4	3	1
03/30/06	9:02 a	-18.2	-18.2	-18.2	---	---	4.3	N	0.07	5.2	-24.0	---	---	721.4	0.025	0.000	19.4	3	1
03/30/06	9:03 a	-18.1	-18.1	-18.2	---	---	4.3	N	0.07	4.3	-23.9	---	---	721.4	0.025	0.000	19.4	3	1
03/30/06	9:04 a	-18.1	-18.1	-18.2	---	---	4.3	N	0.07	5.2	-23.9	---	---	721.5	0.025	0.000	19.4	3	1
03/30/06	9:05 a	-18.1	-18.1	-18.1	---	---	4.3	N	0.07	5.2	-23.9	---	---	721.5	0.025	0.000	19.4	3	1
03/30/06	9:06 a	-18.1	-18.1	-18.1	---	---	4.3	N	0.07	5.2	-23.9	---	---	721.5	0.025	0.000	19.4	3	1
03/30/06	9:07 a	-18.1	-18.1	-18.1	---	---	4.3	N	0.07	5.2	-23.9	---	---	721.4	0.025	0.000	19.4	3	1
03/30/06	9:08 a	-18.1	-18.1	-18.1	---	---	4.3	N	0.07	5.2	-23.9	---	---	721.4	0.025	0.000	19.5	3	1
03/30/06	9:09 a	-18.1	-18.1	-18.1	---	---	4.3	N	0.07	5.2	-23.9	---	---	721.4	0.025	0.000	19.4	3	1
03/30/06	9:10 a	-18.1	-18.1	-18.2	---	---	4.3	N	0.07	4.3	-23.9	---	---	721.4	0.025	0.000	19.4	3	1
03/30/06	9:11 a	-18.2	-18.1	-18.2	---	---	4.3	N	0.07	5.2	-24.0	---	---	721.5	0.025	0.000	19.4	3	1
03/30/06	9:12 a	-18.2	-18.2	-18.2	---	---	4.3	N	0.07	5.2	-24.0	---	---	721.4	0.025	0.000	19.4	3	1
03/30/06	9:13 a	-18.2	-18.2	-18.2	---	---	4.3	N	0.07	4.3	-24.0	---	---	721.4	0.025	0.000	19.4	3	1
03/30/06	9:14 a	-18.2	-18.2	-18.2	---	---	4.3	N	0.07	5.2	-24.1	---	---	721.5	0.025	0.000	19.4	3	1
03/30/06	9:15 a	-18.2	-18.2	-18.2	---	---	4.3	N	0.07	6.1	-24.0	---	---	721.3	0.025	0.000	19.4	3	1
03/30/06	9:16 a	-18.2	-18.2	-18.2	---	---	5.2	N	0.09	6.1	-24.8	---	---	721.4	0.025	0.000	19.4	3	1
03/30/06	9:17 a	-18.2	-18.2	-18.2	---	---	6.1	N	0.10	6.1	-25.4	---	---	721.5	0.025	0.000	19.4	3	1
03/30/06	9:18 a	-18.1	-18.1	-18.2	---	---	5.2	N	0.09	6.1	-24.7	---	---	721.4	0.025	0.000	19.4	3	1
03/30/06	9:19 a	-18.1	-18.1	-18.2	---	---	6.1	N	0.10	6.1	-25.4	---	---	721.4	0.025	0.000	19.4	3	1
03/30/06	9:20 a	-18.1	-18.1	-18.2	---	---	4.3	N	0.07	6.1	-23.9	---	---	721.4	0.025	0.000	19.4	3	1
03/30/06	9:21 a	-18.2	-18.1	-18.2	---	---	5.2	N	0.09	6.1	-24.8	---	---	721.4	0.025	0.000	19.4	3	1
03/30/06	9:22 a	-18.1	-18.1	-18.2	---	---	5.2	N	0.09	6.1	-24.7	---	---	721.4	0.025	0.000	19.4	3	1
03/30/06	9:23 a	-18.2	-18.2	-18.2	---	---	5.2	N	0.09	6.1	-24.8	---	---	721.3	0.025	0.000	19.4	3	1
03/30/06	9:24 a	-18.2	-18.2	-18.2	---	---	5.2	N	0.09	6.1	-24.8	---	---	721.3	0.025	0.000	19.4	3	1
03/30/06	9:25 a	-18.2	-18.2	-18.2	---	---	6.1	N	0.10	6.1	-25.4	---	---	721.3	0.025	0.000	19.4	3	1
03/30/06	9:26 a	-18.2	-18.2	-18.2	---	---	6.1	N	0.10	7.0	-25.4	---	---	721.3	0.025	0.000	19.4	3	1
03/30/06	9:27 a	-18.2	-18.2	-18.2	---	---	6.1	N	0.10	7.0	-25.5	---	---	721.3	0.025	0.000	19.4	3	1
03/30/06	9:28 a	-18.2	-18.2	-18.2	---	---	6.1	N	0.10	7.0	-25.5	---	---	721.3	0.025	0.000	19.4	3	1
03/30/06	9:29 a	-18.2	-18.2	-18.2	---	---	6.1	N	0.10	7.0	-25.5	---	---	721.4	0.025	0.000	19.4	3	1
03/30/06	9:30 a	-18.2	-18.2	-18.2	---	---	6.1	N	0.10	7.0	-25.5	---	---	721.3	0.025	0.000	19.4	3	1
03/30/06	9:31 a	-18.2	-18.2	-18.2	---	---	6.1	N	0.10	6.1	-25.4	---	---	721.3	0.025	0.000	19.4	3	1
03/30/06	9:32 a	-18.2	-18.2	-18.2	---	---	6.1	N	0.10	7.0	-25.4	---	---	721.3	0.025	0.000	19.4	3	1
03/30/06	9:33 a	-18.2	-18.1	-18.2	---	---	6.1	N	0.10	6.1	-25.4	---	---	721.3	0.025	0.000	19.4	3	1
03/30/06	9:34 a	-18.1	-18.1	-18.1	---	---	6.1	N	0.10	7.0	-25.4	---	---	721.4	0.025	0.000	19.4	3	1
03/30/06	9:35 a	-18.1	-18.1	-18.1	---	---	5.2	N	0.09	6.1	-24.7	---	---	721.4	0.025	0.000	19.4	3	1
03/30/06	9:36 a	-18.1	-18.1	-18.1	---	---	6.1	N	0.10	6.1	-25.3	---	---	721.4	0.025	0.000	19.4	3	1
03/30/06	9:37 a	-18.0	-18.0	-18.1	---	---	6.1	N	0.10	6.1	-25.3	---	---	721.3	0.025	0.000	19.4	3	1
03/30/06	9:38 a	-18.0	-18.0	-18.1	---	---	5.2	N	0.09	6.1	-24.6	---	---	721.4	0.025	0.000	19.4	3	1
03/30/06	9:39 a	-18.0	-17.9	-18.0	---	---	6.1	N	0.10	7.0	-25.3	---	---	721.4	0.025	0.000	19.4	3	1
03/30/06	9:40 a	-17.9	-17.9	-18.0	---	---	5.2	N	0.09	7.0	-24.5	---	---	721.3	0.025	0.000	19.4	3	1
03/30/06	9:41 a	-18.0	-18.0	-18.0	---	---	6.1	N	0.10	7.0	-25.3	---	---	721.3	0.025	0.000	19.4	3	1
03/30/06	9:42 a	-18.0	-17.9	-18.0	---	---	6.1	N	0.10	7.0	-25.3	---	---	721.3	0.025	0.000	19.4	3	1
03/30/06	9:43 a	-17.9	-17.9	-18.0	---	---	5.2	N	0.09	6.1	-24.5	---	---	721.2	0.025	0.000	19.4	3	1
03/30/06	9:44 a	-17.9	-17.9	-17.9	---	---	6.1	N	0.10	7.0	-25.2	---	---	721.4	0.025	0.000	19.4	3	1
03/30/06	9:45 a	-17.9	-17.9	-17.9	---	---	6.1	N	0.10	7.0	-25.2	---	---	721.2	0.025	0.000	19.5	3	1
03/30/06	9:46 a	-17.9	-17.9	-17.9	---	---	6.1	N	0.10	6.1	-25.2	---	---	721.3	0.025	0.000	19.5	3	1
03/30/06	9:47 a	-17.9	-17.9	-17.9	---	---	5.2	N	0.09	6.1	-24.4	---	---	721.3	0.025	0.000	19.5	3	1
03/30/06	9:48 a	-17.9	-17.8	-17.9	---	---	5.2	N	0.09	6.1	-24.4	---	---	721.3	0.025	0.000	19.5	3	1
03/30/06	9:49 a	-17.8	-17.8	-17.8	---	---	5.2	N	0.09	6.1	-24.4	---	---	721.3	0.025	0.000	19.5	3	1
03/30/06	9:50 a	-17.8	-17.8	-17.8	---	---	6.1	N	0.10	6.1	-25.0	---	---	721.3	0.025	0.000	19.5	3	1
03/30/06	9:51 a	-17.7	-17.7	-17.8	---	---	5.2	N	0.09	6.1	-24.3	---	---	721.3	0.025	0.000	19.5	3	1
03/30/06	9:52 a	-17.7	-17.7	-17.7	---	---	5.2	N	0.09	6.1	-24.3	---	---	721.3	0.025	0.000	19.5	3	1
03/30/06	9:53 a	-17.7	-17.7	-17.7	---	---	6.1	N	0.10	7.0	-24.8	---	---	721.3	0.025	0.000	19.5	3	1
03/30/06	9:54 a	-17.7	-17.7	-17.7	---	---	6.1	N	0.10	7.0	-24.8	---	---	721.3	0.025	0.000	19.5	3	1
03/30/06	9:55 a	-17.7	-17.7	-17.7	---	---	7.0	N	0.12	7.0	-25.4	---	---	721.3	0.025	0.000	19.5	3	1
03/30/06	9:56 a	-17.7	-17.7	-17.7	---	---	6.1	N	0.10	7.0	-24.8	---	---	721.3	0.025	0.000	19.5	3	1
03/30/06	9:57 a	-17.7	-17.7	-17.7	---	---	7.0	N	0.12	7.0	-25.5	---	---	721.3	0.025	0.000	19.5	3	1
03/30/06	9:58 a	-17.7	-17.7	-17.7	---	---	7.0	N	0.12	7.0	-25.5	---	---	721.3	0.025	0.000	19.5	3	1
03/30/06	9:59 a	-17.7	-17.7	-17.7	---	---	7.0	N	0.12	7.0	-25.5	---	---	721.3	0.025	0.000	19.5	3	1
03/30/06	10:00 a	-17.7	-17.7	-17.8	---	---	7.0	N	0.12	7.0	-25.5	---	---	721.3	0.025	0.000	19.5	3	1
03/30/06	10:01 a	-17.7	-17.7	-17.8	---	---	7.0	N	0.12	7.8	-25.5	---	---	721.2	0.025	0.000	19.5	3	1
03/30/06	10:02 a	-17.7	-17.7	-17.8	---	---	7.0	N	0.12	7.8	-25.5	---	---	721.3	0.025	0.000	19.5	3	1
03/30/06	10:03 a	-17.7	-17.7	-17.7	---	---	7.0	N	0.12	7.8	-25.5	---	---	721.3	0.025	0.000	19.5	3	1
03/30/06	10:04 a	-17.7	-17.7	-17.7	---	---	7.0	N	0.12	7.8	-25.5	---	---	721.3	0.025	0.000	19.5	3	1
03/30/06	10:05 a	-17.7	-17.7	-17.7	---	---	7.0	N	0.12	7.8	-25.5	---	---	721.3	0.025	0.000	19.5	3	1
03/30/06	10:06 a	-17.7	-17.7	-17.7	---	---	7.0	N	0.12	7.8	-25.4	---	---	721.3	0.025	0.000	19.5	3	1
03/30/06	10:07 a	-17.7	-17.7	-17.7	---	---	6.1	N	0.10	7.0	-24.8	---	---	721.3	0.025	0.000	19.5	3	1
03/30/06	10:08 a	-17.6	-17.6	-17.7	---	---	6.1	N	0.10	7.8	-24.8	---	---	721.3	0.025	0.000	19.5	3	1
03/30/06	10:09 a	-17.6	-17.6	-17.6	---	---	6.1	N	0.10	7.8	-24.8	---	---	721.3	0.025	0.000	19.5	3	1
03/30/06	10:10 a	-17.6	-17.6	-17.6	---	---	5.2	N	0.09	6.1	-24.1	---	---	721.4	0.025	0.000	19.5	3	1
03/30/06	10:11 a	-17.6	-17.6	-17.6	---	---	6.1	N	0.10	7.0	-24.7	---	---	721.3	0.025	0.000	19.5	3	1
03/30/06	10:12 a	-17.6	-17.6	-17.6	---	---	6.1	N	0.10	6.1	-24.7	---	---	721.2	0.025	0.000	19.5	3	1
03/30/06	10:13 a	-17.6	-17.6	-17.6	---	---	5.2	N	0.09	6.1	-24.1	---	---	721.3	0.025	0.000	19.5	3	1
03/30/06	10:14 a	-17.6	-17.6	-17.6	---	---	6.1	N	0.10	7.0	-24.7	---	---	721.2	0.025	0.000	19.5	3	1
03/30/06	10:15 a	-17.6	-17.6	-17.6	---	---	5.2	N	0.09	6.1	-24.1	---	---	721.3	0.025	0.000	19.5	3	1
03/30/06	10:16 a	-17.5	-17.5	-17.6	---	---	6.1	N	0.10	6.1	-24.7	---	---	721.3	0.025	0.000	19.5	3	1
03/30/06	10:17 a	-17.5	-17.5	-17.6	---	---	5.2	N	0.09	6.1	-24.0	---	---	721.2	0.025	0.000	19.5	3	1
03/30/06	10:18 a	-17.5	-17.5	-17.5	---	---	6.1	N	0.10	6.1	-24.7	---	---	721.3	0.025	0.000	19.5	3	1
03/30/06	10:19 a	-17.5	-17.4	-17.5	---	---	5.2	N	0.09	6.1	-24.0	---	---	721.2	0.025	0.000	19.5	3	1
03/30/06	10:20 a	-17.4	-17.4	-17.5	---	---	5.2	N	0.09	6.1	-23.9	---	---	721.3	0.025	0.000	19.5	3	1
03/30/06	10:21 a	-17.4	-17.4	-17.4	---	---	5.2	N	0.09	6.1	-23.8	---	---	721.2	0.025	0.000	19.5	3	1
03/30/06	10:22 a	-17.4	-17.4	-17.4	---	---	5.2	N	0.09	6.1	-23.8	---	---	721.2	0.025	0.000	19.5	3	1
03/30/06	10:23 a	-17.4	-17.3	-17.4	---	---	5.2	N	0.09	6.1	-23.8	---	---	721.2	0.025	0.000	19.5	3	1
03/30/06	10:24 a	-17.3	-17.3	-17.3	---	---	5.2	N	0.09	6.1	-23.8	---	---	721.1	0.025	0.000	19.5	3	1
03/30/06	10:25 a	-17.3	-17.3	-17.3	---	---	5.2	N	0.09	6.1	-23.7	---	---	721.2	0.025	0.000	19.5	3	1
03/30/06	10:26 a	-17.3	-17.3	-17.3	---	---	5.2	N	0.09	6.1	-23.7	---	---	721.1	0.025	0.000	19.5	3	1
03/30/06	10:27 a	-17.3	-17.2	-17.3	---	---	5.2	N	0.09	6.1	-23.7	---	---	721.2	0.025	0.000	19.5	3	1
03/30/06	10:28 a	-17.2	-17.2	-17.2	---	---	5.2	N	0.09	5.2	-23.7	---	---	721.2	0.025	0.000	19.5	3	1
03/30/06	10:29 a	-17.2	-17.2	-17.2	---	---	5.2	N	0.09	6.1	-23.7	---	---	721.2	0.025	0.000	19.6	3	1
03/30/06	10:30 a	-17.3	-17.3	-17.3	---	---	5.2	N	0.09	6.1	-23.8	---	---	721.2	0.025	0.000	19.5	3	1
03/30/06	10:31 a	-17.4	-17.4	-17.4	---	---	5.2	N	0.09	6.1	-23.8	---	---	721.1	0.025	0.000	19.6	3	1
03/30/06	10:32 a	-17.5	-17.4	-17.6	---	---	5.2	N	0.09	5.2	-24.0	---	---	721.1	0.025	0.000	19.6	3	1
03/30/06	10:33 a	-17.6	-17.5	-17.6	---	---	4.3	N	0.07	5.2	-23.3	---	---	721.2	0.025	0.000	19.5	3	1
03/30/06	10:34 a	-17.6	-17.6	-17.6	---	---	4.3	N	0.07	5.2	-23.3	---	---	721.1	0.025	0.000	19.5	3	1
03/30/06	10:35 a	-17.6	-17.6	-17.7	---	---	5.2	N	0.09	6.1	-24.1	---	---	721.1	0.025	0.000	19.6	3	1
03/30/06	10:36 a	-17.7	-17.7	-17.7	---	---	5.2	N	0.09	6.1	-24.3	---	---	721.1	0.025	0.000	19.6	3	1
03/30/06	10:37 a	-17.8	-17.7	-17.8	---	---	6.1	N	0.10	7.0	-25.0	---	---	721.2	0.025	0.000	19.6	3	1
03/30/06	10:38 a	-17.9	-17.8	-17.9	---	---	6.1	N	0.10	7.0	-25.1	---	---	721.1	0.025	0.000	19.6	3	1
03/30/06	10:39 a	-17.9	-17.9	-17.9	---	---	6.1	N	0.10	7.0	-25.2	---	---	721.1	0.025	0.000	19.6	3	1
03/30/06	10:40 a	-18.0	-17.9	-18.1	---	---	6.1	N	0.10	7.0	-25.3	---	---	721.2	0.025	0.000	19.6	3	1
03/30/06	10:41 a	-18.1	-18.1	-18.1	---	---	7.0	N	0.12	7.0	-25.9	---	---	721.1	0.025	0.000	19.6	3	1
03/30/06	10:42 a	-18.1	-18.1	-18.2	---	---	6.1	N	0.10	7.0	-25.4	---	---	721.1	0.025	0.000	19.6	3	1
03/30/06	10:43 a	-18.2	-18.2	-18.2	---	---	6.1	N	0.10	7.0	-25.5	---	---	721.1	0.025	0.000	19.6	3	1
03/30/06	10:44 a	-18.2	-18.2	-18.3	---	---	5.2	N	0.09	6.1	-24.8	---	---	721.1	0.025	0.000	19.6	3	1
03/30/06	10:45 a	-18.3	-18.3	-18.3	---	---	6.1	N	0.10	7.0	-25.6	---	---	721.1	0.025	0.000	19.6	3	1
03/30/06	10:46 a	-18.3	-18.3	-18.4	---	---	6.1	N	0.10	7.0	-25.7	---	---	721.1	0.025	0.000	19.6	3	1
03/30/06	10:47 a	-18.4	-18.4	-18.4	---	---	6.1	N	0.10	7.0	-25.7	---	---	721.1	0.026	0.000	19.6	3	1
03/30/06	10:48 a	-18.4	-18.4	-18.4	---	---	6.1	N	0.10	7.0	-25.8	---	---	721.1	0.026	0.000	19.6	3	1
03/30/06	10:49 a	-18.4	-18.4	-18.4	---	---	7.0	N	0.12	7.8	-26.4	---	---	721.1	0.026	0.000	19.6	3	1
03/30/06	10:50 a	-18.4	-18.4	-18.4	---	---	7.8	N	0.13	7.8	-26.9	---	---	721.2	0.026	0.000	19.6	3	1
03/30/06	10:51 a	-18.4	-18.4	-18.5	---	---	7.0	N	0.12	7.8	-26.4	---	---	721.1	0.026	0.000	19.6	3	1
03/30/06	10:52 a	-18.5	-18.5	-18.5	---	---	7.0	N	0.12	7.8	-26.4	---	---	721.1	0.026	0.000	19.6	3	1
03/30/06	10:53 a	-18.5	-18.5	-18.5	---	---	7.0	N	0.12	7.8	-26.4	---	---	721.1	0.026	0.000	19.6	3	1
03/30/06	10:54 a	-18.5	-18.5	-18.5	---	---	7.0	N	0.12	7.8	-26.4	---	---	721.0	0.026	0.000	19.6	3	1
03/30/06	10:55 a	-18.5	-18.5	-18.5	---	---	7.0	N	0.12	7.0	-26.4	---	---	721.1	0.026	0.000	19.6	3	1
03/30/06	10:56 a	-18.5	-18.4	-18.5	---	---	7.0	N	0.12	7.8	-26.4	---	---	721.0	0.026	0.000	19.6	3	1
03/30/06	10:57 a	-18.5	-18.4	-18.5	---	---	7.0	N	0.12	7.8	-26.4	---	---	721.0	0.026	0.000	19.6	3	1
03/30/06	10:58 a	-18.5	-18.4	-18.5	---	---	7.0	N	0.12	7.0	-26.4	---	---	721.0	0.026	0.000	19.6	3	1
03/30/06	10:59 a	-18.4	-18.4	-18.5	---	---	7.0	N	0.12	7.0	-26.4	---	---	721.0	0.026	0.000	19.6	3	1
03/30/06	11:00 a	-18.4	-18.4	-18.4	---	---	7.0	N	0.12	7.8	-26.4	---	---	721.0	0.026	0.000	19.6	3	1
03/30/06	11:01 a	-18.4	-18.4	-18.4	---	---	7.0	N	0.12	7.8	-26.4	---	---	721.0	0.026	0.000	19.6	3	1
03/30/06	11:02 a	-18.4	-18.4	-18.4	---	---	7.0	N	0.12	7.0	-26.4	---	---	721.0	0.026	0.000	19.6	3	1
03/30/06	11:03 a	-18.4	-18.4	-18.4	---	---	7.0	N	0.12	7.0	-26.4	---	---	720.9	0.026	0.000	19.6	3	1
03/30/06	11:04 a	-18.4	-18.4	-18.4	---	---	6.1	N	0.10	7.0	-25.8	---	---	721.0	0.026	0.000	19.6	3	1
03/30/06	11:05 a	-18.4	-18.4	-18.5	---	---	4.3	N	0.07	5.2	-24.3	---	---	721.0	0.026	0.000	19.5	3	1
03/30/06	11:06 a	-18.4	-18.4	-18.4	---	---	4.3	N	0.07	5.2	-24.3	---	---	721.0	0.026	0.000	19.5	3	1
03/30/06	11:07 a	-18.4	-18.4	-18.5	---	---	4.3	N	0.07	5.2	-24.3	---	---	721.1	0.026	0.000	19.6	3	1
03/30/06	11:08 a	-18.4	-18.4	-18.5	---	---	4.3	N	0.07	5.2	-24.3	---	---	721.0	0.026	0.000	19.5	3	1
03/30/06	11:09 a	-18.4	-18.4	-18.4	---	---	4.3	N	0.07	5.2	-24.3	---	---	721.0	0.026	0.000	19.5	3	1
03/30/06	11:10 a	-18.4	-18.4	-18.4	---	---	4.3	N	0.07	5.2	-24.3	---	---	720.9	0.026	0.000	19.5	3	1
03/30/06	11:11 a	-18.4	-18.4	-18.4	---	---	4.3	N	0.07	5.2	-24.3	---	---	721.0	0.026	0.000	19.5	3	1
03/30/06	11:12 a	-18.4	-18.4	-18.4	---	---	4.3	N	0.07	5.2	-24.3	---	---	720.9	0.026	0.000	19.6	3	1
03/30/06	11:13 a	-18.4	-18.4	-18.4	---	---	4.3	N	0.07	4.3	-24.3	---	---	721.0	0.026	0.000	19.5	3	1
03/30/06	11:14 a	-18.4	-18.4	-18.4	---	---	4.3	N	0.07	5.2	-24.3	---	---	721.0	0.026	0.000	19.6	3	1
03/30/06	11:15 a	-18.4	-18.4	-18.4	---	---	5.2	N	0.09	5.2	-25.1	---	---	720.9	0.026	0.000	19.6	3	1
03/30/06	11:16 a	-18.4	-18.4	-18.4	---	---	5.2	N	0.09	5.2	-25.1	---	---	720.9	0.026	0.000	19.6	3	1
03/30/06	11:17 a	-18.3	-18.3	-18.4	---	---	4.3	N	0.07	5.2	-24.2	---	---	721.0	0.025	0.000	19.6	3	1
03/30/06	11:18 a	-18.3	-18.3	-18.3	---	---	4.3	N	0.07	5.2	-24.2	---	---	721.0	0.025	0.000	19.6	3	1
03/30/06	11:19 a	-18.3	-18.3	-18.3	---	---	4.3	N	0.07	5.2	-24.2	---	---	720.9	0.025	0.000	19.6	3	1
03/30/06	11:20 a	-18.3	-18.3	-18.3	---	---	5.2	N	0.09	6.1	-24.9	---	---	720.9	0.025	0.000	19.6	3	1
03/30/06	11:21 a	-18.3	-18.3	-18.3	---	---	5.2	N	0.09	6.1	-24.9	---	---	720.9	0.025	0.000	19.6	3	1
03/30/06	11:22 a	-18.3	-18.2	-18.3	---	---	5.2	N	0.09	6.1	-24.9	---	---	720.9	0.025	0.000	19.6	3	1
03/30/06	11:23 a	-18.2	-18.2	-18.2	---	---	5.2	N	0.09	6.1	-24.8	---	---	720.9	0.025	0.000	19.6	3	1
03/30/06	11:24 a	-18.2	-18.2	-18.2	---	---	5.2	N	0.09	6.1	-24.8	---	---	720.8	0.025	0.000	19.6	3	1
03/30/06	11:25 a	-18.1	-18.1	-18.2	---	---	4.3	N	0.07	5.2	-23.9	---	---	720.9	0.025	0.000	19.6	3	1
03/30/06	11:26 a	-18.1	-18.1	-18.2	---	---	4.3	N	0.07	5.2	-23.9	---	---	720.8	0.025	0.000	19.6	3	1
03/30/06	11:27 a	-18.1	-18.1	-18.1	---	---	4.3	N	0.07	5.2	-23.9	---	---	720.8	0.025	0.000	19.6	3	1
03/30/06	11:28 a	-18.1	-18.1	-18.1	---	---	4.3	N	0.07	5.2	-23.9	---	---	720.9	0.025	0.000	19.6	3	1
03/30/06	11:29 a	-18.1	-18.1	-18.1	---	---	5.2	N	0.09	5.2	-24.7	---	---	720.9	0.025	0.000	19.6	3	1
03/30/06	11:30 a	-18.1	-18.1	-18.1	---	---	4.3	N	0.07	5.2	-23.9	---	---	720.8	0.025	0.000	19.6	3	1
03/30/06	11:31 a	-18.1	-18.1	-18.1	---	---	4.3	N	0.07	5.2	-23.9	---	---	721.0	0.025	0.000	19.6	3	1
03/30/06	11:32 a	-18.1	-18.1	-18.1	---	---	4.3	N	0.07	5.2	-23.9	---	---	720.9	0.025	0.000	19.6	3	1
03/30/06	11:33 a	-18.1	-18.1	-18.1	---	---	3.5	N	0.06	4.3	-23.1	---	---	720.9	0.025	0.000	19.6	3	1
03/30/06	11:34 a	-18.1	-18.1	-18.1	---	---	3.5	N	0.06	4.3	-23.1	---	---	720.9	0.025	0.000	19.6	3	1
03/30/06	11:35 a	-18.1	-18.1	-18.1	---	---	3.5	N	0.06	4.3	-23.1	---	---	720.8	0.025	0.000	19.6	3	1
03/30/06	11:36 a	-18.1	-18.1	-18.1	---	---	4.3	N	0.07	5.2	-23.9	---	---	720.8	0.025	0.000	19.6	3	1
03/30/06	11:37 a	-18.1	-18.1	-18.1	---	---	4.3	N	0.07	5.2	-23.9	---	---	720.8	0.025	0.000	19.6	3	1
03/30/06	11:38 a	-18.1	-18.1	-18.1	---	---	4.3	N	0.07	5.2	-23.9	---	---	720.8	0.025	0.000	19.6	3	1
03/30/06	11:39 a	-18.1	-18.1	-18.1	---	---	4.3	N	0.07	4.3	-23.9	---	---	720.9	0.025	0.000	19.6	3	1
03/30/06	11:40 a	-18.1	-18.1	-18.1	---	---	4.3	N	0.07	4.3	-23.9	---	---	720.8	0.025	0.000	19.6	3	1
03/30/06	11:41 a	-18.1	-18.0	-18.1	---	---	4.3	N	0.07	4.3	-23.9	---	---	720.9	0.025	0.000	19.6	3	1
03/30/06	11:42 a	-18.0	-18.0	-18.1	---	---	4.3	N	0.07	4.3	-23.8	---	---	720.9	0.025	0.000	19.6	3	1
03/30/06	11:43 a	-18.0	-18.0	-18.0	---	---	3.5	N	0.06	4.3	-22.9	---	---	720.8	0.025	0.000	19.6	3	1
03/30/06	11:44 a	-18.0	-18.0	-18.0	---	---	3.5	N	0.06	4.3	-22.9	---	---	720.8	0.025	0.000	19.6	3	1
03/30/06	11:45 a	-18.0	-17.9	-18.0	---	---	3.5	N	0.06	4.3	-22.9	---	---	720.8	0.025	0.000	19.6	3	1
03/30/06	11:46 a	-17.9	-17.9	-18.0	---	---	3.5	N	0.06	4.3	-22.8	---	---	720.9	0.025	0.000	19.6	3	1
03/30/06	11:47 a	-17.9	-17.9	-17.9	---	---	2.6	N	0.04	3.5	-21.7	---	---	720.9	0.025	0.000	19.6	3	1
03/30/06	11:48 a	-17.9	-17.9	-17.9	---	---	2.6	N	0.04	3.5	-21.7	---	---	720.8	0.025	0.000	19.6	3	1
03/30/06	11:49 a	-17.9	-17.9	-17.9	---	---	2.6	N	0.04	3.5	-21.7	---	---	720.8	0.025	0.000	19.6	3	1
03/30/06	11:50 a	-17.9	-17.8	-17.9	---	---	2.6	N	0.04	3.5	-21.7	---	---	720.8	0.025	0.000	19.6	3	1
03/30/06	11:51 a	-17.8	-17.8	-17.9	---	---	2.6	N	0.04	3.5	-21.6	---	---	720.8	0.025	0.000	19.6	3	1
03/30/06	11:52 a	-17.8	-17.8	-17.8	---	---	2.6	N	0.04	3.5	-21.6	---	---	720.8	0.025	0.000	19.6	3	1
03/30/06	11:53 a	-17.8	-17.8	-17.8	---	---	3.5	N	0.06	3.5	-22.7	---	---	720.8	0.025	0.000	19.6	3	1
03/30/06	11:54 a	-17.8	-17.8	-17.8	---	---	3.5	N	0.06	4.3	-22.7	---	---	720.7	0.025	0.000	19.6	3	1
03/30/06	11:55 a	-17.8	-17.8	-17.8	---	---	3.5	N	0.06	5.2	-22.7	---	---	720.9	0.025	0.000	19.6	3	1
03/30/06	11:56 a	-17.8	-17.8	-17.8	---	---	3.5	N	0.06	4.3	-22.7	---	---	720.8	0.025	0.000	19.6	3	1
03/30/06	11:57 a	-17.8	-17.8	-17.8	---	---	3.5	N	0.06	4.3	-22.7	---	---	720.8	0.025	0.000	19.6	3	1
03/30/06	11:58 a	-17.8	-17.8	-17.9	---	---	3.5	N	0.06	4.3	-22.7	---	---	720.8	0.025	0.000	19.6	3	1
03/30/06	11:59 a	-17.8	-17.8	-17.8	---	---	2.6	N	0.04	3.5	-21.6	---	---	720.7	0.025	0.000	19.6	3	1
03/30/06	12:00 p	-17.8	-17.8	-17.9	---	---	3.5	N	0.06	4.3	-22.7	---	---	720.7	0.025	0.000	19.6	3	1
03/30/06	12:01 p	-17.9	-17.9	-17.9	---	---	3.5	N	0.06	3.5	-22.8	---	---	720.6	0.025	0.000	19.6	3	1
03/30/06	12:02 p	-17.9	-17.8	-17.9	---	---	3.5	N	0.06	3.5	-22.8	---	---	720.7	0.025	0.000	19.6	3	1
03/30/06	12:03 p	-17.9	-17.9	-17.9	---	---	2.6	N	0.04	3.5	-21.7	---	---	720.8	0.025	0.000	19.6	3	1
03/30/06	12:04 p	-17.9	-17.9	-17.9	---	---	3.5	N	0.06	3.5	-22.8	---	---	720.7	0.025	0.000	19.6	3	1
03/30/06	12:05 p	-17.9	-17.8	-17.9	---	---	2.6	N	0.04	3.5	-21.7	---	---	720.8	0.025	0.000	19.6	3	1
03/30/06	12:06 p	-17.9	-17.8	-17.9	---	---	3.5	N	0.06	4.3	-22.8	---	---	720.7	0.025	0.000	19.6	3	1
03/30/06	12:07 p	-17.8	-17.8	-17.8	---	---	3.5	N	0.06	4.3	-22.7	---	---	720.8	0.025	0.000	19.6	3	1
03/30/06	12:08 p	-17.8	-17.8	-17.8	---	---	3.5	N	0.06	4.3	-22.7	---	---	720.7	0.025	0.000	19.6	3	1
03/30/06	12:09 p	-17.8	-17.8	-17.9	---	---	3.5	N	0.06	4.3	-22.7	---	---	720.8	0.025	0.000	19.6	3	1
03/30/06	12:10 p	-17.8	-17.8	-17.8	---	---	3.5	N	0.06	4.3	-22.7	---	---	720.8	0.025	0.000	19.6	3	1
03/30/06	12:11 p	-17.8	-17.8	-17.8	---	---	3.5	N	0.06	4.3	-22.7	---	---	720.8	0.025	0.000	19.6	3	1
03/30/06	12:12 p	-17.8	-17.8	-17.8	---	---	3.5	N	0.06	4.3	-22.7	---	---	720.8	0.025	0.000	19.6	3	1
03/30/06	12:13 p	-17.8	-17.8	-17.8	---	---	3.5	N	0.06	4.3	-22.7	---	---	720.8	0.025	0.000	19.6	3	1
03/30/06	12:14 p	-17.8	-17.8	-17.8	---	---	4.3	N	0.07	5.2	-23.6	---	---	720.7	0.025	0.000	19.6	3	1
03/30/06	12:15 p	-17.8	-17.8	-17.9	---	---	4.3	N	0.07	5.2	-23.6	---	---	720.8	0.025	0.000	19.6	3	1
03/30/06	12:16 p	-17.9	-17.8	-17.9	---	---	4.3	N	0.07	5.2	-23.7	---	---	720.8	0.025	0.000	19.6	3	1
03/30/06	12:17 p	-17.9	-17.8	-17.9	---	---	4.3	N	0.07	5.2	-23.7	---	---	720.8	0.025	0.000	19.6	3	1
03/30/06	12:18 p	-17.9	-17.9	-17.9	---	---	4.3	N	0.07	5.2	-23.7	---	---	720.8	0.025	0.000	19.6	3	1
03/30/06	12:19 p	-17.9	-17.9	-17.9	---	---	4.3	N	0.07	6.1	-23.7	---	---	720.8	0.025	0.000	19.6	3	1
03/30/06	12:20 p	-17.9	-17.9	-17.9	---	---	5.2	NNW	0.09	6.1	-24.5	---	---	720.7	0.025	0.000	19.6	3	1
03/30/06	12:21 p	-17.9	-17.9	-17.9	---	---	5.2	NNW	0.09	6.1	-24.4	---	---	720.8	0.025	0.000	19.6	3	1
03/30/06	12:22 p	-17.9	-17.9	-17.9	---	---	5.2	NNW	0.09	6.1	-24.4	---	---	720.8	0.025	0.000	19.6	3	1
03/30/06	12:23 p	-17.9	-17.9	-17.9	---	---	4.3	N	0.07	6.1	-23.7	---	---	720.8	0.025	0.000	19.6	3	1
03/30/06	12:24 p	-17.9	-17.9	-17.9	---	---	5.2	NNW	0.09	6.1	-24.4	---	---	720.8	0.025	0.000	19.6	3	1
03/30/06	12:25 p	-17.9	-17.8	-17.9	---	---	4.3	NNW	0.07	5.2	-23.7	---	---	720.8	0.025	0.000	19.6	3	1
03/30/06	12:26 p	-17.8	-17.8	-17.9	---	---	5.2	NNW	0.09	7.8	-24.4	---	---	720.8	0.025	0.000	19.6	3	1
03/30/06	12:27 p	-17.8	-17.8	-17.8	---	---	5.2	NNW	0.09	6.1	-24.4	---	---	720.6	0.025	0.000	19.6	3	1
03/30/06	12:28 p	-17.8	-17.8	-17.8	---	---	5.2	NNW	0.09	7.0	-24.3	---	---	720.7	0.025	0.000	19.6	3	1
03/30/06	12:29 p	-17.8	-17.8	-17.8	---	---	6.1	NNW	0.10	7.0	-25.0	---	---	720.6	0.025	0.000	19.6	3	1
03/30/06	12:30 p	-17.7	-17.7	-17.8	---	---	7.0	NNW	0.12	8.7	-25.5	---	---	720.6	0.025	0.000	19.6	3	1
03/30/06	12:31 p	-17.7	-17.7	-17.8	---	---	6.1	NNW	0.10	7.0	-24.9	---	---	720.6	0.025	0.000	19.6	3	1
03/30/06	12:32 p	-17.7	-17.7	-17.7	---	---	7.0	NNW	0.12	7.8	-25.5	---	---	720.7	0.025	0.000	19.6	3	1
03/30/06	12:33 p	-17.7	-17.7	-17.7	---	---	6.1	NNW	0.10	7.8	-24.9	---	---	720.6	0.025	0.000	19.6	3	1
03/30/06	12:34 p	-17.7	-17.7	-17.7	---	---	6.1	NNW	0.10	7.8	-24.9	---	---	720.6	0.025	0.000	19.6	3	1
03/30/06	12:35 p	-17.8	-17.7	-17.8	---	---	7.0	NNW	0.12	7.8	-25.6	---	---	720.8	0.025	0.000	19.6	3	1
03/30/06	12:36 p	-17.8	-17.8	-17.8	---	---	6.1	NNW	0.10	7.0	-25.0	---	---	720.6	0.025	0.000	19.6	3	1
03/30/06	12:37 p	-17.8	-17.8	-17.8	---	---	5.2	NNW	0.09	7.0	-24.3	---	---	720.6	0.025	0.000	19.6	3	1
03/30/06	12:38 p	-17.8	-17.8	-17.8	---	---	5.2	N	0.09	6.1	-24.3	---	---	720.6	0.025	0.000	19.6	3	1
03/30/06	12:39 p	-17.8	-17.8	-17.8	---	---	7.0	NNW	0.12	9.6	-25.6	---	---	720.6	0.025	0.000	19.6	3	1
03/30/06	12:40 p	-17.8	-17.8	-17.8	---	---	6.1	NNW	0.10	7.0	-25.1	---	---	720.6	0.025	0.000	19.6	3	1
03/30/06	12:41 p	-17.8	-17.8	-17.8	---	---	6.1	NNW	0.10	7.8	-25.1	---	---	720.7	0.025	0.000	19.6	3	1
03/30/06	12:42 p	-17.8	-17.8	-17.8	---	---	7.8	NNW	0.13	8.7	-26.2	---	---	720.7	0.025	0.000	19.6	3	1
03/30/06	12:43 p	-17.8	-17.8	-17.8	---	---	7.0	NNW	0.12	8.7	-25.6	---	---	720.6	0.025	0.000	19.6	3	1
03/30/06	12:44 p	-17.8	-17.8	-17.8	---	---	5.2	NNW	0.09	7.0	-24.4	---	---	720.6	0.025	0.000	19.6	3	1
03/30/06	12:45 p	-17.8	-17.8	-17.8	---	---	5.2	N	0.09	6.1	-24.4	---	---	720.7	0.025	0.000	19.6	3	1
03/30/06	12:46 p	-17.8	-17.8	-17.8	---	---	5.2	N	0.09	6.1	-24.4	---	---	720.6	0.025	0.000	19.6	3	1
03/30/06	12:47 p	-17.9	-17.9	-17.9	---	---	5.2	N	0.09	6.1	-24.4	---	---	720.7	0.025	0.000	19.6	3	1
03/30/06	12:48 p	-17.9	-17.9	-17.9	---	---	5.2	N	0.09	7.0	-24.5	---	---	720.6	0.025	0.000	19.6	3	1
03/30/06	12:49 p	-17.9	-17.9	-17.9	---	---	6.1	N	0.10	7.0	-25.2	---	---	720.6	0.025	0.000	19.6	3	1
03/30/06	12:50 p	-17.9	-17.9	-17.9	---	---	5.2	N	0.09	7.8	-24.5	---	---	720.6	0.025	0.000	19.6	3	1
03/30/06	12:51 p	-17.9	-17.9	-17.9	---	---	6.1	N	0.10	8.7	-25.2	---	---	720.6	0.025	0.000	19.6	3	1
03/30/06	12:52 p	-17.9	-17.9	-17.9	---	---	5.2	N	0.09	6.1	-24.5	---	---	720.7	0.025	0.000	19.6	3	1
03/30/06	12:53 p	-17.9	-17.9	-18.0	---	---	5.2	N	0.09	6.1	-24.5	---	---	720.6	0.025	0.000	19.6	3	1
03/30/06	12:54 p	-18.0	-18.0	-18.0	---	---	6.1	N	0.10	7.8	-25.3	---	---	720.6	0.025	0.000	19.6	3	1
03/30/06	12:55 p	-18.0	-18.0	-18.0	---	---	7.0	NNW	0.12	7.8	-25.8	---	---	720.7	0.025	0.000	19.6	3	1
03/30/06	12:56 p	-18.1	-18.1	-18.1	---	---	7.0	NNW	0.12	8.7	-25.9	---	---	720.7	0.025	0.000	19.6	3	1
03/30/06	12:57 p	-18.1	-18.1	-18.1	---	---	5.2	N	0.09	7.0	-24.7	---	---	720.6	0.025	0.000	19.6	3	1
03/30/06	12:58 p	-18.1	-18.1	-18.1	---	---	6.1	NNW	0.10	7.8	-25.3	---	---	720.7	0.025	0.000	19.6	3	1
03/30/06	12:59 p	-18.1	-18.0	-18.1	---	---	6.1	NNW	0.10	7.0	-25.3	---	---	720.7	0.025	0.000	19.6	3	1
03/30/06	1:00 p	-18.1	-18.1	-18.1	---	---	6.1	N	0.10	7.8	-25.3	---	---	720.7	0.025	0.000	19.6	3	1
03/30/06	1:01 p	-18.1	-18.0	-18.1	---	---	7.0	NNW	0.12	7.8	-25.9	---	---	720.7	0.025	0.000	19.6	3	1
03/30/06	1:02 p	-18.1	-18.0	-18.1	---	---	7.0	NNW	0.12	8.7	-25.9	---	---	720.7	0.025	0.000	19.6	3	1
03/30/06	1:03 p	-18.0	-18.0	-18.1	---	---	7.0	NNW	0.12	9.6	-25.8	---	---	720.7	0.025	0.000	19.6	3	1
03/30/06	1:04 p	-18.0	-17.9	-18.0	---	---	7.0	NNW	0.12	7.8	-25.8	---	---	720.6	0.025	0.000	19.6	3	1
03/30/06	1:05 p	-18.0	-17.9	-18.0	---	---	7.0	NNW	0.12	8.7	-25.8	---	---	720.7	0.025	0.000	19.6	3	1
03/30/06	1:06 p	-17.9	-17.9	-17.9	---	---	6.1	N	0.10	7.0	-25.2	---	---	720.6	0.025	0.000	19.6	3	1
03/30/06	1:07 p	-17.9	-17.9	-17.9	---	---	7.0	N	0.12	7.8	-25.8	---	---	720.6	0.025	0.000	19.6	3	1
03/30/06	1:08 p	-17.9	-17.9	-17.9	---	---	6.1	N	0.10	8.7	-25.2	---	---	720.6	0.025	0.000	19.6	3	1
03/30/06	1:09 p	-17.9	-17.9	-17.9	---	---	7.0	NNW	0.12	8.7	-25.8	---	---	720.7	0.025	0.000	19.6	3	1
03/30/06	1:10 p	-17.9	-17.9	-18.0	---	---	6.1	NNW	0.10	7.8	-25.2	---	---	720.7	0.025	0.000	19.6	3	1
03/30/06	1:11 p	-18.0	-18.0	-18.0	---	---	6.1	NNW	0.10	7.8	-25.3	---	---	720.6	0.025	0.000	19.6	3	1
03/30/06	1:12 p	-18.0	-18.0	-18.1	---	---	7.8	NNW	0.13	9.6	-26.4	---	---	720.7	0.025	0.000	19.6	3	1
03/30/06	1:13 p	-18.1	-18.1	-18.1	---	---	7.8	NNW	0.13	9.6	-26.4	---	---	720.6	0.025	0.000	19.6	3	1
03/30/06	1:14 p	-18.1	-18.1	-18.1	---	---	7.0	NNW	0.12	8.7	-25.9	---	---	720.8	0.025	0.000	19.6	3	1
03/30/06	1:15 p	-18.1	-18.1	-18.1	---	---	7.0	NNW	0.12	8.7	-25.9	---	---	720.6	0.025	0.000	19.6	3	1
03/30/06	1:16 p	-18.1	-18.1	-18.1	---	---	7.8	NNW	0.13	8.7	-26.5	---	---	720.6	0.025	0.000	19.6	3	1
03/30/06	1:17 p	-18.1	-18.1	-18.1	---	---	7.8	NNW	0.13	9.6	-26.4	---	---	720.6	0.025	0.000	19.6	3	1
03/30/06	1:18 p	-18.1	-18.1	-18.1	---	---	7.0	NNW	0.12	7.8	-25.9	---	---	720.6	0.025	0.000	19.6	3	1
03/30/06	1:19 p	-18.1	-18.1	-18.1	---	---	7.0	NNW	0.12	7.8	-25.9	---	---	720.5	0.025	0.000	19.6	3	1
03/30/06	1:20 p	-18.1	-18.1	-18.1	---	---	7.8	NNW	0.13	10.4	-26.4	---	---	720.7	0.025	0.000	19.6	3	1
03/30/06	1:21 p	-18.1	-18.1	-18.1	---	---	7.8	NNW	0.13	8.7	-26.4	---	---	720.6	0.025	0.000	19.6	3	1
03/30/06	1:22 p	-18.1	-18.1	-18.1	---	---	8.7	NNW	0.14	10.4	-26.9	---	---	720.6	0.025	0.000	19.6	3	1
03/30/06	1:23 p	-18.1	-18.0	-18.1	---	---	9.6	NNW	0.16	10.4	-27.4	---	---	720.6	0.025	0.000	19.6	3	1
03/30/06	1:24 p	-18.0	-18.0	-18.0	---	---	7.8	NNW	0.13	9.6	-26.4	---	---	720.6	0.025	0.000	19.6	3	1
03/30/06	1:25 p	-18.0	-18.0	-18.0	---	---	9.6	NNW	0.16	11.3	-27.3	---	---	720.6	0.025	0.000	19.6	3	1
03/30/06	1:26 p	-17.9	-17.9	-18.0	---	---	10.4	NNW	0.17	12.2	-27.6	---	---	720.6	0.025	0.000	19.6	3	1
03/30/06	1:27 p	-17.9	-17.9	-17.9	---	---	9.6	NNW	0.16	11.3	-27.2	---	---	720.6	0.025	0.000	19.6	3	1
03/30/06	1:28 p	-17.9	-17.9	-17.9	---	---	7.0	NW	0.12	8.7	-25.7	---	---	720.7	0.025	0.000	19.6	3	1
03/30/06	1:29 p	-17.9	-17.9	-17.9	---	---	8.7	NNW	0.14	10.4	-26.7	---	---	720.6	0.025	0.000	19.6	3	1
03/30/06	1:30 p	-17.9	-17.9	-17.9	---	---	9.6	NNW	0.16	11.3	-27.2	---	---	720.5	0.025	0.000	19.6	3	1
03/30/06	1:31 p	-17.9	-17.9	-17.9	---	---	8.7	NNW	0.14	10.4	-26.7	---	---	720.7	0.025	0.000	19.6	3	1
03/30/06	1:32 p	-17.9	-17.9	-17.9	---	---	9.6	NNW	0.16	10.4	-27.2	---	---	720.5	0.025	0.000	19.6	3	1
03/30/06	1:33 p	-17.9	-17.9	-17.9	---	---	9.6	NNW	0.16	12.2	-27.2	---	---	720.5	0.025	0.000	19.6	3	1
03/30/06	1:34 p	-17.9	-17.9	-17.9	---	---	7.8	NNW	0.13	10.4	-26.3	---	---	720.5	0.025	0.000	19.6	3	1
03/30/06	1:35 p	-17.9	-17.9	-17.9	---	---	9.6	NNW	0.16	11.3	-27.2	---	---	720.6	0.025	0.000	19.6	3	1
03/30/06	1:36 p	-17.9	-17.9	-17.9	---	---	10.4	NNW	0.17	11.3	-27.6	---	---	720.6	0.025	0.000	19.6	3	1
03/30/06	1:37 p	-18.0	-17.9	-18.0	---	---	9.6	NNW	0.16	11.3	-27.3	---	---	720.5	0.025	0.000	19.6	3	1
03/30/06	1:38 p	-18.0	-17.9	-18.1	---	---	8.7	NNW	0.14	10.4	-26.8	---	---	720.6	0.025	0.000	19.6	3	1
03/30/06	1:39 p	-18.0	-18.0	-18.1	---	---	8.7	NNW	0.14	9.6	-26.8	---	---	720.5	0.025	0.000	19.6	3	1
03/30/06	1:40 p	-18.1	-18.0	-18.1	---	---	8.7	NNW	0.14	11.3	-26.9	---	---	720.6	0.025	0.000	19.6	3	1
03/30/06	1:41 p	-18.1	-18.0	-18.1	---	---	8.7	NNW	0.14	9.6	-26.9	---	---	720.5	0.025	0.000	19.6	3	1
03/30/06	1:42 p	-18.1	-18.1	-18.1	---	---	8.7	NNW	0.14	10.4	-27.0	---	---	720.5	0.025	0.000	19.6	3	1
03/30/06	1:43 p	-18.1	-18.1	-18.2	---	---	7.8	NNW	0.13	9.6	-26.5	---	---	720.6	0.025	0.000	19.6	3	1
03/30/06	1:44 p	-18.2	-18.2	-18.2	---	---	8.7	NNW	0.14	9.6	-27.1	---	---	720.5	0.025	0.000	19.6	3	1
03/30/06	1:45 p	-18.2	-18.2	-18.3	---	---	7.0	NNW	0.12	7.8	-26.1	---	---	720.5	0.025	0.000	19.6	3	1
03/30/06	1:46 p	-18.3	-18.3	-18.3	---	---	7.0	NNW	0.12	8.7	-26.2	---	---	720.5	0.025	0.000	19.6	3	1
03/30/06	1:47 p	-18.3	-18.3	-18.4	---	---	7.8	NNW	0.13	8.7	-26.8	---	---	720.5	0.025	0.000	19.6	3	1
03/30/06	1:48 p	-18.4	-18.4	-18.4	---	---	7.8	NNW	0.13	8.7	-26.8	---	---	720.5	0.026	0.000	19.6	3	1
03/30/06	1:49 p	-18.4	-18.4	-18.5	---	---	8.7	NNW	0.14	10.4	-27.4	---	---	720.5	0.026	0.000	19.6	3	1
03/30/06	1:50 p	-18.5	-18.5	-18.6	---	---	7.8	NNW	0.13	8.7	-27.0	---	---	720.4	0.026	0.000	19.5	3	1
03/30/06	1:51 p	-18.6	-18.6	-18.6	---	---	7.0	NNW	0.12	9.6	-26.5	---	---	720.4	0.026	0.000	19.5	3	1
03/30/06	1:52 p	-18.6	-18.6	-18.6	---	---	7.8	NNW	0.13	10.4	-27.1	---	---	720.5	0.026	0.000	19.5	3	1
03/30/06	1:53 p	-18.6	-18.6	-18.6	---	---	7.8	NNW	0.13	9.6	-27.1	---	---	720.5	0.026	0.000	19.5	3	1
03/30/06	1:54 p	-18.6	-18.6	-18.6	---	---	7.8	NNW	0.13	8.7	-27.1	---	---	720.5	0.026	0.000	19.5	3	1
03/30/06	1:55 p	-18.6	-18.6	-18.6	---	---	7.8	N	0.13	9.6	-27.1	---	---	720.5	0.026	0.000	19.5	3	1
03/30/06	1:56 p	-18.6	-18.6	-18.6	---	---	7.0	N	0.12	7.8	-26.6	---	---	720.5	0.026	0.000	19.5	3	1
03/30/06	1:57 p	-18.6	-18.6	-18.6	---	---	7.0	N	0.12	8.7	-26.6	---	---	720.5	0.026	0.000	19.5	3	1
03/30/06	1:58 p	-18.6	-18.6	-18.6	---	---	7.0	N	0.12	7.8	-26.6	---	---	720.5	0.026	0.000	19.5	3	1
03/30/06	1:59 p	-18.6	-18.6	-18.6	---	---	7.0	N	0.12	7.8	-26.6	---	---	720.5	0.026	0.000	19.5	3	1
03/30/06	2:00 p	-18.6	-18.6	-18.7	---	---	7.0	N	0.12	8.7	-26.6	---	---	720.5	0.026	0.000	19.5	3	1
03/30/06	2:01 p	-18.6	-18.6	-18.6	---	---	7.8	NNW	0.13	10.4	-27.1	---	---	720.5	0.026	0.000	19.5	3	1
03/30/06	2:02 p	-18.6	-18.6	-18.7	---	---	7.0	NNW	0.12	8.7	-26.6	---	---	720.5	0.026	0.000	19.5	3	1
03/30/06	2:03 p	-18.7	-18.6	-18.7	---	---	8.7	NNW	0.14	9.6	-27.7	---	---	720.5	0.026	0.000	19.4	3	1
03/30/06	2:04 p	-18.7	-18.6	-18.7	---	---	7.0	NNW	0.12	9.6	-26.7	---	---	720.5	0.026	0.000	19.4	3	1
03/30/06	2:05 p	-18.7	-18.7	-18.7	---	---	7.8	NNW	0.13	10.4	-27.2	---	---	720.5	0.026	0.000	19.4	3	1
03/30/06	2:06 p	-18.7	-18.7	-18.7	---	---	7.8	NNW	0.13	8.7	-27.3	---	---	720.5	0.026	0.000	19.4	3	1
03/30/06	2:07 p	-18.7	-18.7	-18.7	---	---	7.8	NNW	0.13	9.6	-27.3	---	---	720.5	0.026	0.000	19.4	3	1
03/30/06	2:08 p	-18.7	-18.7	-18.7	---	---	7.8	NNW	0.13	9.6	-27.3	---	---	720.4	0.026	0.000	19.4	3	1
03/30/06	2:09 p	-18.7	-18.7	-18.7	---	---	8.7	NNW	0.14	9.6	-27.7	---	---	720.5	0.026	0.000	19.4	3	1
03/30/06	2:10 p	-18.7	-18.6	-18.7	---	---	7.8	NNW	0.13	8.7	-27.2	---	---	720.5	0.026	0.000	19.4	3	1
03/30/06	2:11 p	-18.7	-18.6	-18.7	---	---	8.7	NNW	0.14	10.4	-27.7	---	---	720.5	0.026	0.000	19.4	3	1
03/30/06	2:12 p	-18.6	-18.6	-18.7	---	---	7.0	NNW	0.12	7.8	-26.6	---	---	720.5	0.026	0.000	19.4	3	1
03/30/06	2:13 p	-18.6	-18.6	-18.6	---	---	7.8	NNW	0.13	9.6	-27.1	---	---	720.4	0.026	0.000	19.4	3	1
03/30/06	2:14 p	-18.6	-18.6	-18.6	---	---	8.7	NNW	0.14	10.4	-27.6	---	---	720.5	0.026	0.000	19.4	3	1
03/30/06	2:15 p	-18.6	-18.6	-18.6	---	---	7.8	NW	0.13	8.7	-27.1	---	---	720.5	0.026	0.000	19.4	3	1
03/30/06	2:16 p	-18.6	-18.5	-18.6	---	---	6.1	NNW	0.10	7.0	-25.9	---	---	720.5	0.026	0.000	19.4	3	1
03/30/06	2:17 p	-18.6	-18.5	-18.6	---	---	7.0	NNW	0.12	8.7	-26.5	---	---	720.4	0.026	0.000	19.4	3	1
03/30/06	2:18 p	-18.6	-18.5	-18.6	---	---	8.7	NNW	0.14	10.4	-27.6	---	---	720.4	0.026	0.000	19.4	3	1
03/30/06	2:19 p	-18.5	-18.4	-18.6	---	---	8.7	NNW	0.14	12.2	-27.4	---	---	720.4	0.026	0.000	19.4	3	1
03/30/06	2:20 p	-18.4	-18.4	-18.4	---	---	7.8	NW	0.13	8.7	-26.8	---	---	720.5	0.026	0.000	19.4	3	1
03/30/06	2:21 p	-18.4	-18.3	-18.4	---	---	7.0	NNW	0.12	7.8	-26.3	---	---	720.4	0.026	0.000	19.4	3	1
03/30/06	2:22 p	-18.3	-18.3	-18.4	---	---	7.8	NW	0.13	8.7	-26.8	---	---	720.4	0.025	0.000	19.4	3	1
03/30/06	2:23 p	-18.3	-18.3	-18.3	---	---	7.8	NNW	0.13	8.7	-26.8	---	---	720.5	0.025	0.000	19.4	3	1
03/30/06	2:24 p	-18.3	-18.3	-18.3	---	---	7.8	NW	0.13	10.4	-26.8	---	---	720.5	0.025	0.000	19.4	3	1
03/30/06	2:25 p	-18.3	-18.3	-18.3	---	---	8.7	NW	0.14	9.6	-27.2	---	---	720.5	0.025	0.000	19.4	3	1
03/30/06	2:26 p	-18.3	-18.3	-18.3	---	---	7.0	NNW	0.12	8.7	-26.2	---	---	720.4	0.025	0.000	19.4	3	1
03/30/06	2:27 p	-18.2	-18.2	-18.3	---	---	8.7	NNW	0.14	10.4	-27.1	---	---	720.5	0.025	0.000	19.4	3	1
03/30/06	2:28 p	-18.2	-18.2	-18.2	---	---	7.8	NNW	0.13	9.6	-26.6	---	---	720.5	0.025	0.000	19.4	3	1
03/30/06	2:29 p	-18.1	-18.1	-18.2	---	---	7.8	NNW	0.13	10.4	-26.5	---	---	720.5	0.025	0.000	19.4	3	1
03/30/06	2:30 p	-18.1	-18.1	-18.1	---	---	7.8	NW	0.13	9.6	-26.5	---	---	720.5	0.025	0.000	19.4	3	1
03/30/06	2:31 p	-18.1	-18.1	-18.1	---	---	8.7	NW	0.14	9.6	-26.9	---	---	720.4	0.025	0.000	19.4	3	1
03/30/06	2:32 p	-18.1	-18.1	-18.1	---	---	7.0	NNW	0.12	8.7	-25.9	---	---	720.5	0.025	0.000	19.4	3	1
03/30/06	2:33 p	-18.1	-18.1	-18.1	---	---	7.8	NNW	0.13	9.6	-26.4	---	---	720.4	0.025	0.000	19.4	3	1
03/30/06	2:34 p	-18.1	-18.1	-18.1	---	---	8.7	NW	0.14	9.6	-26.9	---	---	720.4	0.025	0.000	19.4	3	1
03/30/06	2:35 p	-18.1	-18.1	-18.1	---	---	7.8	NNW	0.13	8.7	-26.4	---	---	720.4	0.025	0.000	19.4	3	1
03/30/06	2:36 p	-18.1	-18.1	-18.1	---	---	7.0	NNW	0.12	7.8	-25.9	---	---	720.4	0.025	0.000	19.4	3	1
03/30/06	2:37 p	-18.1	-18.1	-18.1	---	---	7.0	NNW	0.12	7.8	-25.9	---	---	720.4	0.025	0.000	19.4	3	1
03/30/06	2:38 p	-18.1	-18.1	-18.1	---	---	7.8	NNW	0.13	8.7	-26.4	---	---	720.4	0.025	0.000	19.4	3	1
03/30/06	2:39 p	-18.1	-18.1	-18.1	---	---	7.8	NW	0.13	8.7	-26.5	---	---	720.5	0.025	0.000	19.4	3	1
03/30/06	2:40 p	-18.1	-18.1	-18.2	---	---	7.8	NW	0.13	9.6	-26.5	---	---	720.5	0.025	0.000	19.4	3	1
03/30/06	2:41 p	-18.2	-18.1	-18.2	---	---	7.8	NNW	0.13	7.8	-26.6	---	---	720.4	0.025	0.000	19.4	3	1
03/30/06	2:42 p	-18.2	-18.2	-18.2	---	---	7.8	NW	0.13	7.8	-26.6	---	---	720.4	0.025	0.000	19.4	3	1
03/30/06	2:43 p	-18.2	-18.2	-18.2	---	---	7.8	NW	0.13	8.7	-26.6	---	---	720.4	0.025	0.000	19.4	3	1
03/30/06	2:44 p	-18.2	-18.2	-18.2	---	---	7.0	NW	0.12	7.8	-26.1	---	---	720.5	0.025	0.000	19.4	3	1
03/30/06	2:45 p	-18.2	-18.2	-18.2	---	---	7.8	NW	0.13	8.7	-26.7	---	---	720.5	0.025	0.000	19.4	3	1
03/30/06	2:46 p	-18.3	-18.3	-18.3	---	---	7.8	NW	0.13	8.7	-26.7	---	---	720.5	0.025	0.000	19.4	3	1
03/30/06	2:47 p	-18.3	-18.3	-18.3	---	---	7.8	NW	0.13	8.7	-26.7	---	---	720.4	0.025	0.000	19.4	3	1
03/30/06	2:48 p	-18.3	-18.3	-18.3	---	---	7.0	NW	0.12	7.8	-26.2	---	---	720.4	0.025	0.000	19.4	3	1
03/30/06	2:49 p	-18.3	-18.3	-18.3	---	---	7.8	NNW	0.13	9.6	-26.8	---	---	720.4	0.025	0.000	19.4	3	1
03/30/06	2:50 p	-18.3	-18.3	-18.3	---	---	7.0	NW	0.12	7.8	-26.2	---	---	720.5	0.025	0.000	19.4	3	1
03/30/06	2:51 p	-18.3	-18.3	-18.3	---	---	7.0	NW	0.12	7.8	-26.2	---	---	720.5	0.025	0.000	19.4	3	1
03/30/06	2:52 p	-18.3	-18.3	-18.3	---	---	7.0	NW	0.12	7.8	-26.2	---	---	720.4	0.025	0.000	19.4	3	1
03/30/06	2:53 p	-18.4	-18.3	-18.4	---	---	7.0	NW	0.12	7.0	-26.3	---	---	720.5	0.026	0.000	19.3	3	1
03/30/06	2:54 p	-18.4	-18.3	-18.4	---	---	7.0	NW	0.12	7.8	-26.3	---	---	720.5	0.026	0.000	19.3	3	1
03/30/06	2:55 p	-18.4	-18.4	-18.4	---	---	7.0	NW	0.12	7.8	-26.3	---	---	720.5	0.026	0.000	19.3	3	1
03/30/06	2:56 p	-18.4	-18.4	-18.4	---	---	7.0	NW	0.12	7.8	-26.3	---	---	720.4	0.026	0.000	19.3	3	1
03/30/06	2:57 p	-18.4	-18.4	-18.4	---	---	6.1	NW	0.10	7.0	-25.7	---	---	720.4	0.026	0.000	19.3	3	1
03/30/06	2:58 p	-18.4	-18.4	-18.4	---	---	7.0	NW	0.12	7.8	-26.3	---	---	720.4	0.026	0.000	19.3	3	1
03/30/06	2:59 p	-18.4	-18.4	-18.4	---	---	7.0	NNW	0.12	7.8	-26.3	---	---	720.4	0.026	0.000	19.3	3	1
03/30/06	3:00 p	-18.4	-18.4	-18.4	---	---	6.1	NW	0.10	7.8	-25.7	---	---	720.4	0.026	0.000	19.3	3	1
03/30/06	3:01 p	-18.4	-18.4	-18.4	---	---	7.0	NW	0.12	7.8	-26.3	---	---	720.5	0.026	0.000	19.3	3	1
03/30/06	3:02 p	-18.4	-18.4	-18.4	---	---	6.1	NW	0.10	7.0	-25.7	---	---	720.4	0.026	0.000	19.3	3	1
03/30/06	3:03 p	-18.4	-18.4	-18.4	---	---	6.1	NW	0.10	7.0	-25.8	---	---	720.4	0.026	0.000	19.3	3	1
03/30/06	3:04 p	-18.4	-18.4	-18.5	---	---	6.1	NW	0.10	7.0	-25.8	---	---	720.4	0.026	0.000	19.3	3	1
03/30/06	3:05 p	-18.5	-18.4	-18.6	---	---	6.1	NW	0.10	7.0	-25.8	---	---	720.4	0.026	0.000	19.3	3	1
03/30/06	3:06 p	-18.5	-18.5	-18.6	---	---	7.0	NW	0.12	7.8	-26.4	---	---	720.3	0.026	0.000	19.3	3	1
03/30/06	3:07 p	-18.5	-18.5	-18.5	---	---	7.8	NW	0.13	8.7	-27.0	---	---	720.4	0.026	0.000	19.3	3	1
03/30/06	3:08 p	-18.5	-18.5	-18.5	---	---	7.0	NW	0.12	7.8	-26.4	---	---	720.5	0.026	0.000	19.3	3	1
03/30/06	3:09 p	-18.5	-18.5	-18.5	---	---	6.1	NW	0.10	7.0	-25.8	---	---	720.4	0.026	0.000	19.3	3	1
03/30/06	3:10 p	-18.5	-18.5	-18.5	---	---	7.0	NNW	0.12	7.8	-26.4	---	---	720.4	0.026	0.000	19.3	3	1
03/30/06	3:11 p	-18.5	-18.5	-18.6	---	---	7.0	NW	0.12	7.8	-26.4	---	---	720.3	0.026	0.000	19.3	3	1
03/30/06	3:12 p	-18.5	-18.5	-18.5	---	---	7.0	NW	0.12	7.8	-26.4	---	---	720.4	0.026	0.000	19.3	3	1
03/30/06	3:13 p	-18.5	-18.4	-18.5	---	---	7.0	NW	0.12	7.8	-26.4	---	---	720.4	0.026	0.000	19.3	3	1
03/30/06	3:14 p	-18.4	-18.4	-18.4	---	---	6.1	NW	0.10	7.8	-25.8	---	---	720.4	0.026	0.000	19.3	3	1
03/30/06	3:15 p	-18.4	-18.4	-18.5	---	---	6.1	NW	0.10	7.0	-25.8	---	---	720.3	0.026	0.000	19.3	3	1
03/30/06	3:16 p	-18.4	-18.4	-18.5	---	---	6.1	NW	0.10	7.0	-25.8	---	---	720.4	0.026	0.000	19.3	3	1
03/30/06	3:17 p	-18.4	-18.4	-18.4	---	---	6.1	NW	0.10	7.0	-25.8	---	---	720.4	0.026	0.000	19.3	3	1
03/30/06	3:18 p	-18.4	-18.4	-18.4	---	---	6.1	NW	0.10	7.0	-25.8	---	---	720.4	0.026	0.000	19.3	3	1
03/30/06	3:19 p	-18.4	-18.4	-18.4	---	---	6.1	NW	0.10	7.0	-25.8	---	---	720.4	0.026	0.000	19.3	3	1
03/30/06	3:20 p	-18.4	-18.4	-18.4	---	---	5.2	NW	0.09	6.1	-25.1	---	---	720.4	0.026	0.000	19.3	3	1
03/30/06	3:21 p	-18.4	-18.4	-18.4	---	---	6.1	NNW	0.10	7.0	-25.8	---	---	720.4	0.026	0.000	19.3	3	1
03/30/06	3:22 p	-18.4	-18.4	-18.4	---	---	6.1	NNW	0.10	7.0	-25.8	---	---	720.4	0.026	0.000	19.3	3	1
03/30/06	3:23 p	-18.4	-18.4	-18.4	---	---	5.2	NNW	0.09	6.1	-25.1	---	---	720.4	0.026	0.000	19.3	3	1
03/30/06	3:24 p	-18.4	-18.4	-18.4	---	---	4.3	NNW	0.07	5.2	-24.3	---	---	720.5	0.026	0.000	19.3	3	1
03/30/06	3:25 p	-18.4	-18.4	-18.4	---	---	4.3	NNW	0.07	5.2	-24.3	---	---	720.5	0.026	0.000	19.4	3	1
03/30/06	3:26 p	-18.4	-18.4	-18.4	---	---	5.2	NNW	0.09	6.1	-25.1	---	---	720.4	0.026	0.000	19.4	3	1
03/30/06	3:27 p	-18.4	-18.4	-18.4	---	---	4.3	NNW	0.07	5.2	-24.3	---	---	720.5	0.026	0.000	19.4	3	1
03/30/06	3:28 p	-18.4	-18.4	-18.4	---	---	4.3	NNW	0.07	5.2	-24.3	---	---	720.5	0.026	0.000	19.4	3	1
03/30/06	3:29 p	-18.5	-18.4	-18.5	---	---	3.5	NNW	0.06	4.3	-23.5	---	---	720.5	0.026	0.000	19.4	3	1
03/30/06	3:30 p	-18.5	-18.4	-18.5	---	---	3.5	NNW	0.06	4.3	-23.5	---	---	720.4	0.026	0.000	19.4	3	1
03/30/06	3:31 p	-18.5	-18.5	-18.5	---	---	3.5	NNW	0.06	4.3	-23.5	---	---	720.5	0.026	0.000	19.4	3	1
03/30/06	3:32 p	-18.5	-18.5	-18.5	---	---	3.5	NNW	0.06	4.3	-23.5	---	---	720.4	0.026	0.000	19.4	3	1
03/30/06	3:33 p	-18.5	-18.5	-18.5	---	---	3.5	NNW	0.06	4.3	-23.5	---	---	720.5	0.026	0.000	19.4	3	1
03/30/06	3:34 p	-18.5	-18.5	-18.5	---	---	3.5	NNW	0.06	4.3	-23.5	---	---	720.4	0.026	0.000	19.4	3	1
03/30/06	3:35 p	-18.6	-18.5	-18.6	---	---	4.3	NNW	0.07	4.3	-24.5	---	---	720.4	0.026	0.000	19.4	3	1
03/30/06	3:36 p	-18.6	-18.6	-18.6	---	---	4.3	NNW	0.07	5.2	-24.5	---	---	720.4	0.026	0.000	19.4	3	1
03/30/06	3:37 p	-18.6	-18.6	-18.6	---	---	3.5	NNW	0.06	4.3	-23.6	---	---	720.4	0.026	0.000	19.4	3	1
03/30/06	3:38 p	-18.6	-18.6	-18.6	---	---	3.5	NNW	0.06	5.2	-23.6	---	---	720.5	0.026	0.000	19.4	3	1
03/30/06	3:39 p	-18.6	-18.6	-18.6	---	---	3.5	NNW	0.06	4.3	-23.6	---	---	720.3	0.026	0.000	19.4	3	1
03/30/06	3:40 p	-18.6	-18.6	-18.6	---	---	3.5	NNW	0.06	3.5	-23.6	---	---	720.4	0.026	0.000	19.4	3	1
03/30/06	3:41 p	-18.6	-18.6	-18.6	---	---	3.5	NNW	0.06	5.2	-23.6	---	---	720.4	0.026	0.000	19.4	3	1
03/30/06	3:42 p	-18.6	-18.6	-18.6	---	---	4.3	NNW	0.07	5.2	-24.6	---	---	720.4	0.026	0.000	19.4	3	1
03/30/06	3:43 p	-18.6	-18.6	-18.7	---	---	4.3	NNW	0.07	6.1	-24.6	---	---	720.4	0.026	0.000	19.4	3	1
03/30/06	3:44 p	-18.7	-18.6	-18.7	---	---	5.2	NW	0.09	6.1	-25.4	---	---	720.4	0.026	0.000	19.4	3	1
03/30/06	3:45 p	-18.7	-18.6	-18.7	---	---	4.3	NW	0.07	6.1	-24.6	---	---	720.4	0.026	0.000	19.4	3	1
03/30/06	3:46 p	-18.7	-18.6	-18.7	---	---	3.5	NW	0.06	4.3	-23.7	---	---	720.4	0.026	0.000	19.4	3	1
03/30/06	3:47 p	-18.6	-18.6	-18.7	---	---	3.5	NW	0.06	4.3	-23.6	---	---	720.4	0.026	0.000	19.4	3	1
03/30/06	3:48 p	-18.7	-18.6	-18.7	---	---	3.5	NW	0.06	4.3	-23.7	---	---	720.4	0.026	0.000	19.4	3	1
03/30/06	3:49 p	-18.6	-18.6	-18.7	---	---	2.6	NW	0.04	4.3	-22.5	---	---	720.4	0.026	0.000	19.4	3	1
03/30/06	3:50 p	-18.7	-18.6	-18.7	---	---	2.6	NW	0.04	3.5	-22.6	---	---	720.4	0.026	0.000	19.4	3	1
03/30/06	3:51 p	-18.7	-18.6	-18.7	---	---	4.3	NW	0.07	5.2	-24.6	---	---	720.3	0.026	0.000	19.4	3	1
03/30/06	3:52 p	-18.7	-18.7	-18.7	---	---	4.3	NW	0.07	5.2	-24.6	---	---	720.4	0.026	0.000	19.4	3	1
03/30/06	3:53 p	-18.7	-18.7	-18.7	---	---	5.2	NW	0.09	7.0	-25.4	---	---	720.4	0.026	0.000	19.4	3	1
03/30/06	3:54 p	-18.7	-18.7	-18.7	---	---	5.2	NW	0.09	5.2	-25.4	---	---	720.4	0.026	0.000	19.4	3	1
03/30/06	3:55 p	-18.7	-18.7	-18.7	---	---	3.5	NW	0.06	4.3	-23.7	---	---	720.3	0.026	0.000	19.4	3	1
03/30/06	3:56 p	-18.7	-18.7	-18.7	---	---	2.6	NW	0.04	3.5	-22.6	---	---	720.3	0.026	0.000	19.4	3	1
03/30/06	3:57 p	-18.7	-18.7	-18.7	---	---	5.2	NNW	0.09	7.0	-25.4	---	---	720.4	0.026	0.000	19.4	3	1
03/30/06	3:58 p	-18.7	-18.7	-18.7	---	---	5.2	NNW	0.09	6.1	-25.4	---	---	720.5	0.026	0.000	19.4	3	1
03/30/06	3:59 p	-18.7	-18.7	-18.7	---	---	5.2	NW	0.09	6.1	-25.4	---	---	720.4	0.026	0.000	19.4	3	1
03/30/06	4:00 p	-18.7	-18.7	-18.7	---	---	3.5	NW	0.06	4.3	-23.7	---	---	720.4	0.026	0.000	19.4	3	1
03/30/06	4:01 p	-18.7	-18.7	-18.7	---	---	3.5	NNW	0.06	5.2	-23.7	---	---	720.3	0.026	0.000	19.4	3	1
03/30/06	4:02 p	-18.7	-18.6	-18.7	---	---	4.3	NNW	0.07	6.1	-24.6	---	---	720.4	0.026	0.000	19.4	3	1
03/30/06	4:03 p	-18.7	-18.6	-18.7	---	---	4.3	NNW	0.07	5.2	-24.6	---	---	720.4	0.026	0.000	19.4	3	1
03/30/06	4:04 p	-18.6	-18.6	-18.6	---	---	5.2	NNW	0.09	6.1	-25.3	---	---	720.3	0.026	0.000	19.4	3	1
03/30/06	4:05 p	-18.6	-18.6	-18.7	---	---	4.3	NNW	0.07	6.1	-24.6	---	---	720.2	0.026	0.000	19.4	3	1
03/30/06	4:06 p	-18.6	-18.6	-18.6	---	---	4.3	NNW	0.07	6.1	-24.5	---	---	720.4	0.026	0.000	19.4	3	1
03/30/06	4:07 p	-18.6	-18.6	-18.6	---	---	4.3	NNW	0.07	6.1	-24.5	---	---	720.4	0.026	0.000	19.4	3	1
03/30/06	4:08 p	-18.5	-18.5	-18.5	---	---	4.3	NNW	0.07	7.0	-24.4	---	---	720.3	0.026	0.000	19.4	3	1
03/30/06	4:09 p	-18.5	-18.5	-18.5	---	---	6.1	NNW	0.10	7.0	-25.8	---	---	720.3	0.026	0.000	19.4	3	1
03/30/06	4:10 p	-18.5	-18.4	-18.6	---	---	6.1	NNW	0.10	7.0	-25.8	---	---	720.4	0.026	0.000	19.4	3	1
03/30/06	4:11 p	-18.4	-18.4	-18.4	---	---	5.2	NNW	0.09	5.2	-25.1	---	---	720.4	0.026	0.000	19.4	3	1
03/30/06	4:12 p	-18.4	-18.4	-18.4	---	---	5.2	NNW	0.09	7.8	-25.1	---	---	720.3	0.026	0.000	19.4	3	1
03/30/06	4:13 p	-18.4	-18.4	-18.4	---	---	6.1	NNW	0.10	7.8	-25.8	---	---	720.3	0.026	0.000	19.4	3	1
03/30/06	4:14 p	-18.4	-18.4	-18.4	---	---	6.1	NW	0.10	7.0	-25.7	---	---	720.5	0.026	0.000	19.4	3	1
03/30/06	4:15 p	-18.4	-18.4	-18.4	---	---	5.2	NW	0.09	6.1	-25.1	---	---	720.4	0.026	0.000	19.4	3	1
03/30/06	4:16 p	-18.4	-18.4	-18.4	---	---	5.2	NNW	0.09	6.1	-25.1	---	---	720.3	0.026	0.000	19.4	3	1
03/30/06	4:17 p	-18.4	-18.4	-18.4	---	---	7.0	NW	0.12	7.8	-26.4	---	---	720.3	0.026	0.000	19.4	3	1
03/30/06	4:18 p	-18.4	-18.4	-18.4	---	---	7.0	NNW	0.12	7.8	-26.4	---	---	720.3	0.026	0.000	19.4	3	1
03/30/06	4:19 p	-18.4	-18.4	-18.4	---	---	7.8	NNW	0.13	8.7	-26.9	---	---	720.4	0.026	0.000	19.4	3	1
03/30/06	4:20 p	-18.4	-18.4	-18.4	---	---	7.0	NW	0.12	7.8	-26.4	---	---	720.2	0.026	0.000	19.4	3	1
03/30/06	4:21 p	-18.4	-18.4	-18.4	---	---	6.1	NW	0.10	7.8	-25.8	---	---	720.3	0.026	0.000	19.4	3	1
03/30/06	4:22 p	-18.4	-18.4	-18.5	---	---	6.1	NNW	0.10	7.8	-25.8	---	---	720.3	0.026	0.000	19.4	3	1
03/30/06	4:23 p	-18.4	-18.4	-18.5	---	---	6.1	NNW	0.10	7.0	-25.8	---	---	720.3	0.026	0.000	19.4	3	1
03/30/06	4:24 p	-18.4	-18.4	-18.5	---	---	6.1	NNW	0.10	7.0	-25.8	---	---	720.3	0.026	0.000	19.4	3	1
03/30/06	4:25 p	-18.4	-18.4	-18.5	---	---	7.0	NNW	0.12	7.8	-26.4	---	---	720.2	0.026	0.000	19.4	3	1
03/30/06	4:26 p	-18.5	-18.5	-18.5	---	---	8.7	NNW	0.14	9.6	-27.4	---	---	720.3	0.026	0.000	19.4	3	1
03/30/06	4:27 p	-18.6	-18.5	-18.6	---	---	9.6	NW	0.16	11.3	-28.0	---	---	720.3	0.026	0.000	19.4	3	1
03/30/06	4:28 p	-18.6	-18.5	-18.6	---	---	6.1	NW	0.10	7.8	-25.9	---	---	720.3	0.026	0.000	19.4	3	1
03/30/06	4:29 p	-18.5	-18.5	-18.6	---	---	7.0	NNW	0.12	8.7	-26.4	---	---	720.3	0.026	0.000	19.4	3	1
03/30/06	4:30 p	-18.5	-18.5	-18.5	---	---	7.0	NW	0.12	8.7	-26.4	---	---	720.3	0.026	0.000	19.4	3	1
03/30/06	4:31 p	-18.6	-18.5	-18.6	---	---	7.0	NNW	0.12	8.7	-26.5	---	---	720.2	0.026	0.000	19.4	3	1
03/30/06	4:32 p	-18.6	-18.6	-18.6	---	---	8.7	NNW	0.14	10.4	-27.6	---	---	720.3	0.026	0.000	19.4	3	1
03/30/06	4:33 p	-18.6	-18.6	-18.6	---	---	7.8	NNW	0.13	9.6	-27.1	---	---	720.3	0.026	0.000	19.4	3	1
03/30/06	4:34 p	-18.6	-18.5	-18.6	---	---	8.7	NNW	0.14	8.7	-27.6	---	---	720.3	0.026	0.000	19.3	3	1
03/30/06	4:35 p	-18.5	-18.5	-18.6	---	---	9.6	NNW	0.16	12.2	-27.9	---	---	720.3	0.026	0.000	19.4	3	1
03/30/06	4:36 p	-18.5	-18.4	-18.5	---	---	7.8	NNW	0.13	9.6	-27.0	---	---	720.3	0.026	0.000	19.4	3	1
03/30/06	4:37 p	-18.4	-18.4	-18.4	---	---	7.8	NW	0.13	9.6	-26.9	---	---	720.3	0.026	0.000	19.3	3	1
03/30/06	4:38 p	-18.4	-18.4	-18.5	---	---	8.7	NNW	0.14	11.3	-27.4	---	---	720.2	0.026	0.000	19.3	3	1
03/30/06	4:39 p	-18.4	-18.4	-18.4	---	---	9.6	NW	0.16	11.3	-27.8	---	---	720.2	0.026	0.000	19.3	3	1
03/30/06	4:40 p	-18.4	-18.4	-18.4	---	---	8.7	NNW	0.14	9.6	-27.3	---	---	720.3	0.026	0.000	19.3	3	1
03/30/06	4:41 p	-18.4	-18.4	-18.4	---	---	7.8	NNW	0.13	9.6	-26.8	---	---	720.3	0.026	0.000	19.3	3	1
03/30/06	4:42 p	-18.4	-18.4	-18.4	---	---	8.7	NNW	0.14	12.2	-27.3	---	---	720.2	0.026	0.000	19.3	3	1
03/30/06	4:43 p	-18.4	-18.4	-18.4	---	---	9.6	NNW	0.16	11.3	-27.8	---	---	720.3	0.026	0.000	19.3	3	1
03/30/06	4:44 p	-18.4	-18.4	-18.4	---	---	7.8	NNW	0.13	9.6	-26.8	---	---	720.3	0.026	0.000	19.3	3	1
03/30/06	4:45 p	-18.3	-18.3	-18.4	---	---	10.4	NNW	0.17	12.2	-28.1	---	---	720.3	0.025	0.000	19.3	3	1
03/30/06	4:46 p	-18.3	-18.3	-18.4	---	---	8.7	NNW	0.14	10.4	-27.3	---	---	720.3	0.025	0.000	19.3	3	1
03/30/06	4:47 p	-18.3	-18.3	-18.3	---	---	9.6	NNW	0.16	11.3	-27.7	---	---	720.2	0.025	0.000	19.3	3	1
03/30/06	4:48 p	-18.3	-18.3	-18.3	---	---	9.6	NNW	0.16	11.3	-27.7	---	---	720.3	0.025	0.000	19.3	3	1
03/30/06	4:49 p	-18.3	-18.3	-18.3	---	---	7.8	NNW	0.13	8.7	-26.7	---	---	720.3	0.025	0.000	19.3	3	1
03/30/06	4:50 p	-18.3	-18.3	-18.3	---	---	8.7	NNW	0.14	9.6	-27.2	---	---	720.3	0.025	0.000	19.3	3	1
03/30/06	4:51 p	-18.3	-18.3	-18.3	---	---	8.7	NNW	0.14	10.4	-27.2	---	---	720.3	0.025	0.000	19.3	3	1
03/30/06	4:52 p	-18.3	-18.3	-18.3	---	---	8.7	NNW	0.14	10.4	-27.2	---	---	720.3	0.025	0.000	19.3	3	1
03/30/06	4:53 p	-18.3	-18.3	-18.3	---	---	9.6	NNW	0.16	11.3	-27.7	---	---	720.3	0.025	0.000	19.3	3	1
03/30/06	4:54 p	-18.3	-18.3	-18.3	---	---	8.7	NNW	0.14	10.4	-27.2	---	---	720.3	0.025	0.000	19.3	3	1
03/30/06	4:55 p	-18.3	-18.3	-18.3	---	---	7.0	NNW	0.12	8.7	-26.2	---	---	720.4	0.025	0.000	19.3	3	1
03/30/06	4:56 p	-18.3	-18.3	-18.3	---	---	7.0	NNW	0.12	10.4	-26.2	---	---	720.4	0.025	0.000	19.3	3	1
03/30/06	4:57 p	-18.3	-18.3	-18.3	---	---	7.8	NNW	0.13	9.6	-26.7	---	---	720.4	0.025	0.000	19.3	3	1
03/30/06	4:58 p	-18.3	-18.3	-18.3	---	---	9.6	NNW	0.16	11.3	-27.7	---	---	720.3	0.025	0.000	19.3	3	1
03/30/06	4:59 p	-18.3	-18.3	-18.3	---	---	8.7	NNW	0.14	11.3	-27.3	---	---	720.3	0.025	0.000	19.3	3	1
03/30/06	5:00 p	-18.3	-18.3	-18.3	---	---	10.4	NNW	0.17	12.2	-28.1	---	---	720.4	0.025	0.000	19.3	3	1
03/30/06	5:01 p	-18.3	-18.2	-18.3	---	---	10.4	NNW	0.17	13.9	-28.1	---	---	720.4	0.025	0.000	19.3	3	1
03/30/06	5:02 p	-18.2	-18.2	-18.2	---	---	7.0	NW	0.12	8.7	-26.1	---	---	720.4	0.025	0.000	19.3	3	1
03/30/06	5:03 p	-18.2	-18.2	-18.2	---	---	7.8	NNW	0.13	10.4	-26.6	---	---	720.2	0.025	0.000	19.3	3	1
03/30/06	5:04 p	-18.2	-18.2	-18.2	---	---	7.8	NNW	0.13	10.4	-26.6	---	---	720.2	0.025	0.000	19.3	3	1
03/30/06	5:05 p	-18.2	-18.2	-18.2	---	---	10.4	NNW	0.17	11.3	-28.0	---	---	720.2	0.025	0.000	19.3	3	1
03/30/06	5:06 p	-18.2	-18.2	-18.2	---	---	7.8	NNW	0.13	9.6	-26.7	---	---	720.3	0.025	0.000	19.3	3	1
03/30/06	5:07 p	-18.2	-18.2	-18.2	---	---	8.7	NNW	0.14	11.3	-27.1	---	---	720.3	0.025	0.000	19.3	3	1
03/30/06	5:08 p	-18.2	-18.2	-18.2	---	---	8.7	NNW	0.14	10.4	-27.1	---	---	720.2	0.025	0.000	19.3	3	1
03/30/06	5:09 p	-18.2	-18.2	-18.2	---	---	7.8	NNW	0.13	10.4	-26.7	---	---	720.3	0.025	0.000	19.3	3	1
03/30/06	5:10 p	-18.2	-18.2	-18.2	---	---	6.1	NNW	0.10	7.8	-25.5	---	---	720.3	0.025	0.000	19.3	3	1
03/30/06	5:11 p	-18.2	-18.2	-18.3	---	---	7.8	NNW	0.13	11.3	-26.7	---	---	720.3	0.025	0.000	19.3	3	1
03/30/06	5:12 p	-18.3	-18.3	-18.3	---	---	9.6	NW	0.16	11.3	-27.7	---	---	720.3	0.025	0.000	19.3	3	1
03/30/06	5:13 p	-18.3	-18.3	-18.3	---	---	7.0	NNW	0.12	7.8	-26.2	---	---	720.3	0.025	0.000	19.3	3	1
03/30/06	5:14 p	-18.3	-18.3	-18.3	---	---	7.0	NNW	0.12	8.7	-26.2	---	---	720.3	0.025	0.000	19.3	3	1
03/30/06	5:15 p	-18.3	-18.3	-18.3	---	---	7.8	NNW	0.13	9.6	-26.8	---	---	720.3	0.025	0.000	19.3	3	1
03/30/06	5:16 p	-18.3	-18.3	-18.3	---	---	9.6	NNW	0.16	11.3	-27.7	---	---	720.3	0.025	0.000	19.3	3	1
03/30/06	5:17 p	-18.3	-18.3	-18.3	---	---	7.0	NNW	0.12	8.7	-26.2	---	---	720.4	0.025	0.000	19.3	3	1
03/30/06	5:18 p	-18.3	-18.3	-18.3	---	---	7.0	NNW	0.12	7.8	-26.2	---	---	720.4	0.025	0.000	19.3	3	1
03/30/06	5:19 p	-18.4	-18.3	-18.4	---	---	6.1	NNW	0.10	7.0	-25.7	---	---	720.4	0.026	0.000	19.3	3	1
03/30/06	5:20 p	-18.4	-18.4	-18.4	---	---	5.2	NNW	0.09	7.0	-25.1	---	---	720.4	0.026	0.000	19.3	3	1
03/30/06	5:21 p	-18.4	-18.4	-18.4	---	---	7.0	NNW	0.12	7.8	-26.3	---	---	720.4	0.026	0.000	19.3	3	1
03/30/06	5:22 p	-18.4	-18.4	-18.4	---	---	5.2	NNW	0.09	7.0	-25.1	---	---	720.3	0.026	0.000	19.3	3	1
03/30/06	5:23 p	-18.4	-18.4	-18.4	---	---	4.3	N	0.07	6.1	-24.3	---	---	720.4	0.026	0.000	19.3	3	1
03/30/06	5:24 p	-18.4	-18.4	-18.4	---	---	5.2	N	0.09	7.0	-25.1	---	---	720.3	0.026	0.000	19.3	3	1
03/30/06	5:25 p	-18.4	-18.4	-18.5	---	---	5.2	N	0.09	7.0	-25.1	---	---	720.4	0.026	0.000	19.3	3	1
03/30/06	5:26 p	-18.5	-18.4	-18.5	---	---	5.2	N	0.09	6.1	-25.2	---	---	720.3	0.026	0.000	19.3	3	1
03/30/06	5:27 p	-18.5	-18.5	-18.5	---	---	5.2	N	0.09	7.8	-25.2	---	---	720.3	0.026	0.000	19.3	3	1
03/30/06	5:28 p	-18.5	-18.5	-18.5	---	---	4.3	N	0.07	7.0	-24.4	---	---	720.4	0.026	0.000	19.3	3	1
03/30/06	5:29 p	-18.5	-18.5	-18.5	---	---	4.3	N	0.07	5.2	-24.4	---	---	720.4	0.026	0.000	19.3	3	1
03/30/06	5:30 p	-18.5	-18.5	-18.5	---	---	4.3	N	0.07	7.0	-24.4	---	---	720.4	0.026	0.000	19.3	3	1
03/30/06	5:31 p	-18.5	-18.5	-18.6	---	---	5.2	N	0.09	6.1	-25.2	---	---	720.3	0.026	0.000	19.3	3	1
03/30/06	5:32 p	-18.6	-18.6	-18.6	---	---	4.3	N	0.07	5.2	-24.5	---	---	720.3	0.026	0.000	19.3	3	1
03/30/06	5:33 p	-18.6	-18.6	-18.6	---	---	5.2	N	0.09	7.0	-25.2	---	---	720.3	0.026	0.000	19.3	3	1
03/30/06	5:34 p	-18.6	-18.6	-18.6	---	---	5.2	N	0.09	7.8	-25.3	---	---	720.3	0.026	0.000	19.3	3	1
03/30/06	5:35 p	-18.6	-18.6	-18.6	---	---	5.2	N	0.09	7.0	-25.2	---	---	720.3	0.026	0.000	19.3	3	1
03/30/06	5:36 p	-18.6	-18.6	-18.6	---	---	4.3	N	0.07	5.2	-24.5	---	---	720.4	0.026	0.000	19.3	3	1
03/30/06	5:37 p	-18.6	-18.6	-18.6	---	---	5.2	N	0.09	6.1	-25.2	---	---	720.3	0.026	0.000	19.3	3	1
03/30/06	5:38 p	-18.6	-18.6	-18.6	---	---	4.3	N	0.07	5.2	-24.6	---	---	720.3	0.026	0.000	19.3	3	1
03/30/06	5:39 p	-18.6	-18.6	-18.7	---	---	3.5	N	0.06	4.3	-23.6	---	---	720.3	0.026	0.000	19.3	3	1
03/30/06	5:40 p	-18.7	-18.6	-18.7	---	---	4.3	N	0.07	6.1	-24.6	---	---	720.3	0.026	0.000	19.3	3	1
03/30/06	5:41 p	-18.7	-18.7	-18.7	---	---	3.5	N	0.06	5.2	-23.7	---	---	720.4	0.026	0.000	19.3	3	1
03/30/06	5:42 p	-18.7	-18.7	-18.7	---	---	4.3	N	0.07	5.2	-24.7	---	---	720.3	0.026	0.000	19.3	3	1
03/30/06	5:43 p	-18.7	-18.7	-18.7	---	---	5.2	N	0.09	7.0	-25.4	---	---	720.3	0.026	0.000	19.3	3	1
03/30/06	5:44 p	-18.7	-18.7	-18.7	---	---	3.5	N	0.06	4.3	-23.8	---	---	720.3	0.026	0.000	19.3	3	1
03/30/06	5:45 p	-18.7	-18.7	-18.7	---	---	4.3	N	0.07	5.2	-24.7	---	---	720.4	0.026	0.000	19.3	3	1
03/30/06	5:46 p	-18.7	-18.7	-18.7	---	---	3.5	N	0.06	4.3	-23.8	---	---	720.4	0.026	0.000	19.3	3	1
03/30/06	5:47 p	-18.7	-18.7	-18.8	---	---	3.5	N	0.06	4.3	-23.8	---	---	720.3	0.026	0.000	19.3	3	1
03/30/06	5:48 p	-18.8	-18.8	-18.8	---	---	4.3	N	0.07	5.2	-24.7	---	---	720.3	0.026	0.000	19.3	3	1
03/30/06	5:49 p	-18.8	-18.8	-18.8	---	---	4.3	N	0.07	6.1	-24.7	---	---	720.4	0.026	0.000	19.3	3	1
03/30/06	5:50 p	-18.8	-18.8	-18.8	---	---	4.3	NNW	0.07	5.2	-24.7	---	---	720.4	0.026	0.000	19.3	3	1
03/30/06	5:51 p	-18.8	-18.8	-18.8	---	---	3.5	N	0.06	4.3	-23.8	---	---	720.3	0.026	0.000	19.3	3	1
03/30/06	5:52 p	-18.8	-18.8	-18.8	---	---	3.5	N	0.06	4.3	-23.8	---	---	720.3	0.026	0.000	19.3	3	1
03/30/06	5:53 p	-18.8	-18.8	-18.8	---	---	3.5	N	0.06	5.2	-23.9	---	---	720.3	0.026	0.000	19.3	3	1
03/30/06	5:54 p	-18.8	-18.8	-18.9	---	---	4.3	N	0.07	6.1	-24.8	---	---	720.3	0.026	0.000	19.3	3	1
03/30/06	5:55 p	-18.8	-18.8	-18.8	---	---	4.3	N	0.07	5.2	-24.8	---	---	720.3	0.026	0.000	19.4	3	1
03/30/06	5:56 p	-18.9	-18.9	-18.9	---	---	2.6	N	0.04	4.3	-22.8	---	---	720.4	0.026	0.000	19.4	3	1
03/30/06	5:57 p	-18.9	-18.9	-18.9	---	---	4.3	N	0.07	5.2	-24.9	---	---	720.3	0.026	0.000	19.4	3	1
03/30/06	5:58 p	-18.9	-18.9	-18.9	---	---	4.3	N	0.07	5.2	-24.9	---	---	720.3	0.026	0.000	19.4	3	1
03/30/06	5:59 p	-18.9	-18.9	-19.0	---	---	2.6	N	0.04	3.5	-22.9	---	---	720.4	0.026	0.000	19.4	3	1
03/30/06	6:00 p	-19.0	-19.0	-19.1	---	---	2.6	N	0.04	3.5	-22.9	---	---	720.4	0.026	0.000	19.4	3	1
03/30/06	6:01 p	-19.1	-19.1	-19.1	---	---	3.5	NNE	0.06	6.1	-24.1	---	---	720.4	0.026	0.000	19.4	3	1
03/30/06	6:02 p	-19.1	-19.1	-19.1	---	---	4.3	NE	0.07	6.1	-25.1	---	---	720.3	0.026	0.000	19.4	3	1
03/30/06	6:03 p	-19.2	-19.1	-19.2	---	---	4.3	NE	0.07	5.2	-25.2	---	---	720.3	0.026	0.000	19.4	3	1
03/30/06	6:04 p	-19.2	-19.2	-19.2	---	---	4.3	NE	0.07	7.0	-25.2	---	---	720.3	0.026	0.000	19.4	3	1
03/30/06	6:05 p	-19.3	-19.2	-19.3	---	---	7.0	NE	0.12	7.8	-27.4	---	---	720.4	0.026	0.000	19.4	3	1
03/30/06	6:06 p	-19.3	-19.3	-19.3	---	---	7.0	NE	0.12	7.8	-27.4	---	---	720.3	0.026	0.000	19.4	3	1
03/30/06	6:07 p	-19.4	-19.3	-19.4	---	---	6.1	NE	0.10	7.0	-26.9	---	---	720.3	0.026	0.000	19.4	3	1
03/30/06	6:08 p	-19.4	-19.4	-19.4	---	---	6.1	NE	0.10	7.0	-26.9	---	---	720.3	0.026	0.000	19.4	3	1
03/30/06	6:09 p	-19.4	-19.4	-19.5	---	---	7.0	NE	0.12	7.8	-27.6	---	---	720.3	0.026	0.000	19.4	3	1
03/30/06	6:10 p	-19.5	-19.5	-19.6	---	---	7.8	NE	0.13	8.7	-28.2	---	---	720.4	0.026	0.000	19.4	3	1
03/30/06	6:11 p	-19.6	-19.6	-19.6	---	---	8.7	NE	0.14	9.6	-28.8	---	---	720.4	0.026	0.000	19.4	3	1
03/30/06	6:12 p	-19.6	-19.6	-19.7	---	---	9.6	NE	0.16	11.3	-29.3	---	---	720.3	0.026	0.000	19.4	3	1
03/30/06	6:13 p	-19.7	-19.7	-19.7	---	---	11.3	NE	0.19	12.2	-30.3	---	---	720.3	0.026	0.000	19.4	3	1
03/30/06	6:14 p	-19.8	-19.7	-19.8	---	---	11.3	NE	0.19	13.0	-30.3	---	---	720.3	0.026	0.000	19.4	3	1
03/30/06	6:15 p	-19.9	-19.8	-19.9	---	---	11.3	NE	0.19	13.0	-30.5	---	---	720.2	0.027	0.000	19.4	3	1
03/30/06	6:16 p	-20.0	-19.9	-20.1	---	---	12.2	NE	0.20	13.0	-31.0	---	---	720.2	0.027	0.000	19.4	3	1
03/30/06	6:17 p	-20.1	-20.1	-20.1	---	---	11.3	NE	0.19	13.0	-30.7	---	---	720.2	0.027	0.000	19.4	3	1
03/30/06	6:18 p	-20.2	-20.2	-20.3	---	---	11.3	NE	0.19	13.9	-30.9	---	---	720.3	0.027	0.000	19.4	3	1
03/30/06	6:19 p	-20.3	-20.3	-20.3	---	---	12.2	NE	0.20	13.9	-31.4	---	---	720.2	0.027	0.000	19.4	3	1
03/30/06	6:20 p	-20.4	-20.4	-20.5	---	---	11.3	NE	0.19	13.0	-31.2	---	---	720.4	0.027	0.000	19.4	3	1
03/30/06	6:21 p	-20.6	-20.5	-20.6	---	---	11.3	NE	0.19	13.0	-31.3	---	---	720.3	0.027	0.000	19.4	3	1
03/30/06	6:22 p	-20.7	-20.6	-20.7	---	---	12.2	NE	0.20	13.9	-31.8	---	---	720.4	0.027	0.000	19.4	3	1
03/30/06	6:23 p	-20.8	-20.8	-20.8	---	---	11.3	NE	0.19	13.0	-31.6	---	---	720.3	0.027	0.000	19.4	3	1
03/30/06	6:24 p	-20.9	-20.8	-21.0	---	---	11.3	NE	0.19	13.0	-31.7	---	---	720.4	0.027	0.000	19.4	3	1
03/30/06	6:25 p	-21.1	-21.0	-21.1	---	---	12.2	NE	0.20	14.8	-32.3	---	---	720.3	0.027	0.000	19.4	3	1
03/30/06	6:26 p	-21.2	-21.1	-21.2	---	---	13.0	NE	0.22	15.7	-32.8	---	---	720.4	0.027	0.000	19.4	3	1
03/30/06	6:27 p	-21.3	-21.2	-21.3	---	---	12.2	NE	0.20	13.9	-32.6	---	---	720.4	0.028	0.000	19.4	3	1
03/30/06	6:28 p	-21.4	-21.3	-21.4	---	---	12.2	NE	0.20	13.0	-32.8	---	---	720.4	0.028	0.000	19.4	3	1
03/30/06	6:29 p	-21.5	-21.5	-21.6	---	---	11.3	NE	0.19	13.0	-32.5	---	---	720.3	0.028	0.000	19.4	3	1
03/30/06	6:30 p	-21.7	-21.6	-21.7	---	---	12.2	NE	0.20	13.9	-33.1	---	---	720.3	0.028	0.000	19.4	4	1
03/30/06	6:31 p	-21.8	-21.7	-21.8	---	---	13.9	NE	0.23	14.8	-33.9	---	---	720.4	0.028	0.000	19.4	3	1
03/30/06	6:32 p	-21.9	-21.8	-21.9	---	---	12.2	NE	0.20	13.9	-33.4	---	---	720.4	0.028	0.000	19.4	3	1
03/30/06	6:33 p	-22.0	-21.9	-22.1	---	---	12.2	NE	0.20	13.9	-33.6	---	---	720.3	0.028	0.000	19.4	3	1
03/30/06	6:34 p	-22.1	-22.1	-22.2	---	---	12.2	NE	0.20	13.9	-33.7	---	---	720.4	0.028	0.000	19.4	3	1
03/30/06	6:35 p	-22.2	-22.2	-22.3	---	---	12.2	NE	0.20	14.8	-33.8	---	---	720.3	0.028	0.000	19.4	3	1
03/30/06	6:36 p	-22.3	-22.3	-22.4	---	---	13.0	NE	0.22	13.9	-34.3	---	---	720.3	0.028	0.000	19.5	3	1
03/30/06	6:37 p	-22.4	-22.4	-22.5	---	---	12.2	NE	0.20	13.9	-34.1	---	---	720.4	0.028	0.000	19.5	3	1
03/30/06	6:38 p	-22.5	-22.4	-22.6	---	---	12.2	NE	0.20	13.0	-34.2	---	---	720.5	0.028	0.000	19.5	3	1
03/30/06	6:39 p	-22.6	-22.6	-22.7	---	---	11.3	NE	0.19	13.0	-33.9	---	---	720.3	0.028	0.000	19.5	3	1
03/30/06	6:40 p	-22.7	-22.7	-22.8	---	---	13.0	NE	0.22	13.9	-34.8	---	---	720.3	0.029	0.000	19.5	3	1
03/30/06	6:41 p	-22.8	-22.8	-22.8	---	---	12.2	NE	0.20	13.9	-34.6	---	---	720.3	0.029	0.000	19.5	3	1
03/30/06	6:42 p	-22.9	-22.8	-22.9	---	---	11.3	NE	0.19	13.0	-34.3	---	---	720.3	0.029	0.000	19.5	3	1
03/30/06	6:43 p	-22.9	-22.9	-22.9	---	---	12.2	NE	0.20	13.0	-34.7	---	---	720.4	0.029	0.000	19.5	4	1
03/30/06	6:44 p	-23.0	-23.0	-23.1	---	---	13.0	NE	0.22	14.8	-35.2	---	---	720.4	0.029	0.000	19.5	4	1
03/30/06	6:45 p	-23.1	-23.1	-23.1	---	---	13.0	NE	0.22	14.8	-35.3	---	---	720.3	0.029	0.000	19.5	3	1
03/30/06	6:46 p	-23.1	-23.1	-23.1	---	---	12.2	NE	0.20	13.9	-34.9	---	---	720.3	0.029	0.000	19.5	3	1
03/30/06	6:47 p	-23.2	-23.1	-23.2	---	---	13.0	NE	0.22	14.8	-35.4	---	---	720.3	0.029	0.000	19.5	3	1
03/30/06	6:48 p	-23.2	-23.2	-23.2	---	---	12.2	NE	0.20	13.9	-35.1	---	---	720.3	0.029	0.000	19.5	3	1
03/30/06	6:49 p	-23.3	-23.2	-23.3	---	---	13.0	NE	0.22	14.8	-35.6	---	---	720.3	0.029	0.000	19.5	4	1
03/30/06	6:50 p	-23.3	-23.3	-23.3	---	---	12.2	NE	0.20	14.8	-35.2	---	---	720.4	0.029	0.000	19.5	3	1
03/30/06	6:51 p	-23.3	-23.3	-23.3	---	---	11.3	NE	0.19	13.0	-34.8	---	---	720.4	0.029	0.000	19.5	4	1
03/30/06	6:52 p	-23.4	-23.3	-23.4	---	---	12.2	NE	0.20	13.9	-35.3	---	---	720.3	0.029	0.000	19.6	4	1
03/30/06	6:53 p	-23.4	-23.4	-23.4	---	---	13.0	NE	0.22	14.8	-35.8	---	---	720.4	0.029	0.000	19.5	4	1
03/30/06	6:54 p	-23.4	-23.4	-23.5	---	---	11.3	NE	0.19	13.9	-35.0	---	---	720.4	0.029	0.000	19.5	4	1
03/30/06	6:55 p	-23.5	-23.4	-23.5	---	---	11.3	NE	0.19	12.2	-35.1	---	---	720.3	0.029	0.000	19.5	3	1
03/30/06	6:56 p	-23.5	-23.5	-23.6	---	---	12.2	NE	0.20	13.9	-35.4	---	---	720.4	0.029	0.000	19.5	4	1
03/30/06	6:57 p	-23.5	-23.5	-23.6	---	---	12.2	NE	0.20	13.0	-35.4	---	---	720.4	0.029	0.000	19.6	3	1
03/30/06	6:58 p	-23.6	-23.5	-23.6	---	---	13.0	NE	0.22	14.8	-35.9	---	---	720.4	0.029	0.000	19.6	4	1
03/30/06	6:59 p	-23.6	-23.6	-23.6	---	---	13.0	NE	0.22	13.9	-35.9	---	---	720.3	0.029	0.000	19.6	4	1
03/30/06	7:00 p	-23.6	-23.6	-23.6	---	---	11.3	NE	0.19	13.9	-35.2	---	---	720.5	0.029	0.000	19.6	3	1
03/30/06	7:01 p	-23.6	-23.6	-23.6	---	---	11.3	NE	0.19	13.0	-35.2	---	---	720.4	0.029	0.000	19.6	4	1
03/30/06	7:02 p	-23.7	-23.6	-23.7	---	---	12.2	NE	0.20	13.9	-35.7	---	---	720.4	0.029	0.000	19.5	4	1
03/30/06	7:03 p	-23.7	-23.7	-23.7	---	---	12.2	NE	0.20	13.9	-35.7	---	---	720.3	0.029	0.000	19.5	3	1
03/30/06	7:04 p	-23.7	-23.7	-23.8	---	---	8.7	NNE	0.14	10.4	-33.9	---	---	720.4	0.029	0.000	19.5	3	1
03/30/06	7:05 p	-23.8	-23.7	-23.8	---	---	11.3	NE	0.19	13.0	-35.4	---	---	720.3	0.029	0.000	19.5	4	1
03/30/06	7:06 p	-23.8	-23.8	-23.9	---	---	12.2	NE	0.20	13.0	-35.9	---	---	720.4	0.029	0.000	19.5	4	1
03/30/06	7:07 p	-23.9	-23.8	-23.9	---	---	12.2	NE	0.20	14.8	-35.9	---	---	720.4	0.029	0.000	19.5	4	1
03/30/06	7:08 p	-23.9	-23.8	-23.9	---	---	11.3	NE	0.19	14.8	-35.6	---	---	720.4	0.029	0.000	19.5	3	1
03/30/06	7:09 p	-23.9	-23.9	-23.9	---	---	11.3	NE	0.19	14.8	-35.6	---	---	720.4	0.029	0.000	19.5	4	1
03/30/06	7:10 p	-23.9	-23.9	-23.9	---	---	11.3	NE	0.19	13.0	-35.6	---	---	720.3	0.029	0.000	19.5	3	1
03/30/06	7:11 p	-23.9	-23.9	-23.9	---	---	12.2	NNE	0.20	13.0	-36.0	---	---	720.4	0.029	0.000	19.5	4	1
03/30/06	7:12 p	-23.9	-23.9	-24.0	---	---	13.0	NE	0.22	13.9	-36.4	---	---	720.4	0.029	0.000	19.5	3	1
03/30/06	7:13 p	-24.0	-24.0	-24.0	---	---	12.2	NE	0.20	13.9	-36.1	---	---	720.4	0.029	0.000	19.5	4	1
03/30/06	7:14 p	-24.0	-24.0	-24.1	---	---	10.4	NNE	0.17	13.0	-35.3	---	---	720.4	0.029	0.000	19.5	4	1
03/30/06	7:15 p	-24.1	-24.0	-24.1	---	---	13.9	NNE	0.23	16.5	-36.9	---	---	720.4	0.029	0.000	19.5	4	1
03/30/06	7:16 p	-24.0	-24.0	-24.1	---	---	13.9	NE	0.23	17.4	-36.8	---	---	720.3	0.029	0.000	19.5	3	1
03/30/06	7:17 p	-24.0	-24.0	-24.1	---	---	11.3	NE	0.19	17.4	-35.7	---	---	720.6	0.029	0.000	19.5	4	1
03/30/06	7:18 p	-24.1	-24.0	-24.1	---	---	8.7	NE	0.14	11.3	-34.3	---	---	720.4	0.029	0.000	19.6	3	1
03/30/06	7:19 p	-24.1	-24.1	-24.1	---	---	10.4	NE	0.17	13.9	-35.3	---	---	720.4	0.029	0.000	19.5	4	1
03/30/06	7:20 p	-24.1	-24.0	-24.1	---	---	13.0	NE	0.22	14.8	-36.6	---	---	720.4	0.029	0.000	19.6	4	1
03/30/06	7:21 p	-24.1	-24.1	-24.1	---	---	13.0	NE	0.22	14.8	-36.6	---	---	720.4	0.029	0.000	19.6	4	1
03/30/06	7:22 p	-24.1	-24.1	-24.1	---	---	13.9	NE	0.23	14.8	-36.9	---	---	720.4	0.029	0.000	19.6	4	1
03/30/06	7:23 p	-24.1	-24.0	-24.1	---	---	13.0	NE	0.22	14.8	-36.6	---	---	720.4	0.029	0.000	19.6	4	1
03/30/06	7:24 p	-24.1	-24.1	-24.1	---	---	13.0	NE	0.22	14.8	-36.6	---	---	720.5	0.029	0.000	19.6	3	1
03/30/06	7:25 p	-24.1	-24.1	-24.1	---	---	11.3	NE	0.19	13.9	-35.8	---	---	720.4	0.029	0.000	19.6	3	1
03/30/06	7:26 p	-24.1	-24.1	-24.1	---	---	11.3	NE	0.19	12.2	-35.8	---	---	720.5	0.029	0.000	19.6	4	1
03/30/06	7:27 p	-24.1	-24.1	-24.1	---	---	12.2	NNE	0.20	13.9	-36.2	---	---	720.4	0.029	0.000	19.6	3	1
03/30/06	7:28 p	-24.2	-24.1	-24.2	---	---	14.8	NE	0.25	16.5	-37.4	---	---	720.4	0.030	0.000	19.6	4	1
03/30/06	7:29 p	-24.2	-24.2	-24.2	---	---	13.0	NE	0.22	14.8	-36.8	---	---	720.4	0.030	0.000	19.6	4	1
03/30/06	7:30 p	-24.2	-24.2	-24.3	---	---	13.0	NE	0.22	14.8	-36.8	---	---	720.4	0.030	0.000	19.6	3	1
03/30/06	7:31 p	-24.3	-24.3	-24.3	---	---	12.2	NNE	0.20	13.9	-36.4	---	---	720.4	0.030	0.000	19.6	3	1
03/30/06	7:32 p	-24.3	-24.3	-24.3	---	---	11.3	NNE	0.19	13.9	-36.1	---	---	720.4	0.030	0.000	19.6	4	1
03/30/06	7:33 p	-24.3	-24.3	-24.4	---	---	11.3	NNE	0.19	13.0	-36.1	---	---	720.4	0.030	0.000	19.6	3	1
03/30/06	7:34 p	-24.3	-24.3	-24.3	---	---	13.0	NE	0.22	14.8	-36.9	---	---	720.4	0.030	0.000	19.6	4	1
03/30/06	7:35 p	-24.4	-24.3	-24.4	---	---	13.0	NE	0.22	15.7	-36.9	---	---	720.4	0.030	0.000	19.6	4	1
03/30/06	7:36 p	-24.4	-24.3	-24.4	---	---	13.9	NE	0.23	15.7	-37.3	---	---	720.4	0.030	0.000	19.6	3	1
03/30/06	7:37 p	-24.4	-24.4	-24.4	---	---	12.2	NE	0.20	13.9	-36.6	---	---	720.5	0.030	0.000	19.6	3	1
03/30/06	7:38 p	-24.4	-24.4	-24.4	---	---	11.3	NE	0.19	12.2	-36.2	---	---	720.4	0.030	0.000	19.6	4	1
03/30/06	7:39 p	-24.4	-24.4	-24.4	---	---	10.4	NE	0.17	13.0	-35.8	---	---	720.3	0.030	0.000	19.6	4	1
03/30/06	7:40 p	-24.4	-24.4	-24.5	---	---	10.4	NNE	0.17	13.9	-35.8	---	---	720.4	0.030	0.000	19.6	3	1
03/30/06	7:41 p	-24.4	-24.4	-24.5	---	---	13.0	NE	0.22	14.8	-37.1	---	---	720.3	0.030	0.000	19.6	4	1
03/30/06	7:42 p	-24.5	-24.4	-24.5	---	---	10.4	NE	0.17	12.2	-35.9	---	---	720.4	0.030	0.000	19.6	4	1
03/30/06	7:43 p	-24.5	-24.5	-24.5	---	---	11.3	NE	0.19	14.8	-36.3	---	---	720.4	0.030	0.000	19.6	4	1
03/30/06	7:44 p	-24.5	-24.5	-24.6	---	---	11.3	NE	0.19	13.0	-36.3	---	---	720.4	0.030	0.000	19.6	3	1
03/30/06	7:45 p	-24.6	-24.5	-24.6	---	---	13.9	NE	0.23	16.5	-37.6	---	---	720.4	0.030	0.000	19.6	4	1
03/30/06	7:46 p	-24.6	-24.6	-24.6	---	---	13.9	NE	0.23	15.7	-37.6	---	---	720.4	0.030	0.000	19.6	4	1
03/30/06	7:47 p	-24.6	-24.6	-24.6	---	---	14.8	NE	0.25	16.5	-37.9	---	---	720.4	0.030	0.000	19.6	3	1
03/30/06	7:48 p	-24.6	-24.6	-24.6	---	---	13.9	NE	0.23	16.5	-37.6	---	---	720.3	0.030	0.000	19.6	3	1
03/30/06	7:49 p	-24.6	-24.6	-24.6	---	---	12.2	NE	0.20	14.8	-36.9	---	---	720.5	0.030	0.000	19.6	3	1
03/30/06	7:50 p	-24.6	-24.6	-24.6	---	---	13.0	NE	0.22	13.9	-37.3	---	---	720.4	0.030	0.000	19.6	3	1
03/30/06	7:51 p	-24.6	-24.6	-24.7	---	---	13.9	NNE	0.23	15.7	-37.6	---	---	720.5	0.030	0.000	19.6	3	1
03/30/06	7:52 p	-24.7	-24.6	-24.7	---	---	13.0	NE	0.22	15.7	-37.3	---	---	720.5	0.030	0.000	19.6	4	1
03/30/06	7:53 p	-24.7	-24.6	-24.7	---	---	10.4	NNE	0.17	12.2	-36.1	---	---	720.4	0.030	0.000	19.6	4	1
03/30/06	7:54 p	-24.7	-24.7	-24.7	---	---	13.0	NE	0.22	16.5	-37.3	---	---	720.4	0.030	0.000	19.6	3	1
03/30/06	7:55 p	-24.7	-24.7	-24.7	---	---	15.7	NE	0.26	18.3	-38.4	---	---	720.3	0.030	0.000	19.6	4	1
03/30/06	7:56 p	-24.7	-24.7	-24.7	---	---	14.8	NE	0.25	17.4	-38.1	---	---	720.3	0.030	0.000	19.6	4	1
03/30/06	7:57 p	-24.7	-24.7	-24.7	---	---	15.7	NE	0.26	16.5	-38.4	---	---	720.4	0.030	0.000	19.6	3	1
03/30/06	7:58 p	-24.7	-24.7	-24.7	---	---	16.5	NE	0.28	17.4	-38.8	---	---	720.5	0.030	0.000	19.6	4	1
03/30/06	7:59 p	-24.7	-24.7	-24.7	---	---	15.7	NE	0.26	17.4	-38.4	---	---	720.3	0.030	0.000	19.6	3	1
03/30/06	8:00 p	-24.8	-24.7	-24.8	---	---	16.5	NE	0.28	18.3	-38.8	---	---	720.4	0.030	0.000	19.6	4	1
03/30/06	8:01 p	-24.7	-24.7	-24.8	---	---	14.8	NE	0.25	16.5	-38.1	---	---	720.4	0.030	0.000	19.6	4	1
03/30/06	8:02 p	-24.8	-24.7	-24.8	---	---	13.9	NE	0.23	16.5	-37.8	---	---	720.4	0.030	0.000	19.6	3	1
03/30/06	8:03 p	-24.7	-24.7	-24.8	---	---	13.0	NE	0.22	14.8	-37.4	---	---	720.4	0.030	0.000	19.6	4	1
03/30/06	8:04 p	-24.8	-24.7	-24.8	---	---	14.8	NE	0.25	17.4	-38.2	---	---	720.4	0.030	0.000	19.6	3	1
03/30/06	8:05 p	-24.8	-24.7	-24.8	---	---	14.8	NE	0.25	16.5	-38.2	---	---	720.5	0.030	0.000	19.6	4	1
03/30/06	8:06 p	-24.7	-24.7	-24.8	---	---	14.8	NE	0.25	16.5	-38.1	---	---	720.4	0.030	0.000	19.6	4	1
03/30/06	8:07 p	-24.7	-24.7	-24.8	---	---	14.8	NE	0.25	15.7	-38.1	---	---	720.4	0.030	0.000	19.6	3	1
03/30/06	8:08 p	-24.7	-24.7	-24.8	---	---	14.8	NE	0.25	16.5	-38.1	---	---	720.5	0.030	0.000	19.6	3	1
03/30/06	8:09 p	-24.8	-24.7	-24.8	---	---	13.9	NE	0.23	16.5	-37.8	---	---	720.4	0.030	0.000	19.6	3	1
03/30/06	8:10 p	-24.8	-24.8	-24.8	---	---	15.7	NE	0.26	16.5	-38.5	---	---	720.4	0.030	0.000	19.6	3	1
03/30/06	8:11 p	-24.8	-24.8	-24.8	---	---	14.8	NE	0.25	16.5	-38.2	---	---	720.4	0.030	0.000	19.6	3	1
03/30/06	8:12 p	-24.8	-24.7	-24.8	---	---	14.8	NE	0.25	17.4	-38.2	---	---	720.4	0.030	0.000	19.6	3	1
03/30/06	8:13 p	-24.8	-24.7	-24.8	---	---	13.0	NE	0.22	15.7	-37.4	---	---	720.4	0.030	0.000	19.6	3	1
03/30/06	8:14 p	-24.8	-24.8	-24.8	---	---	13.0	NE	0.22	14.8	-37.4	---	---	720.4	0.030	0.000	19.6	3	1
03/30/06	8:15 p	-24.8	-24.8	-24.8	---	---	11.3	NE	0.19	13.9	-36.7	---	---	720.4	0.030	0.000	19.6	4	1
03/30/06	8:16 p	-24.8	-24.7	-24.8	---	---	13.0	NE	0.22	13.9	-37.4	---	---	720.4	0.030	0.000	19.6	3	1
03/30/06	8:17 p	-24.8	-24.7	-24.8	---	---	12.2	NE	0.20	13.9	-37.1	---	---	720.5	0.030	0.000	19.6	3	1
03/30/06	8:18 p	-24.8	-24.7	-24.8	---	---	13.0	NE	0.22	14.8	-37.4	---	---	720.5	0.030	0.000	19.6	3	1
03/30/06	8:19 p	-24.8	-24.7	-24.8	---	---	12.2	NE	0.20	13.9	-37.1	---	---	720.5	0.030	0.000	19.6	3	1
03/30/06	8:20 p	-24.8	-24.7	-24.8	---	---	14.8	NE	0.25	15.7	-38.2	---	---	720.4	0.030	0.000	19.6	3	1
03/30/06	8:21 p	-24.8	-24.8	-24.8	---	---	13.0	NE	0.22	13.9	-37.4	---	---	720.5	0.030	0.000	19.6	4	1
03/30/06	8:22 p	-24.8	-24.8	-24.8	---	---	13.9	NE	0.23	15.7	-37.8	---	---	720.5	0.030	0.000	19.6	3	1
03/30/06	8:23 p	-24.8	-24.8	-24.8	---	---	12.2	NE	0.20	13.9	-37.1	---	---	720.5	0.030	0.000	19.6	4	1
03/30/06	8:24 p	-24.8	-24.8	-24.8	---	---	13.9	NE	0.23	14.8	-37.8	---	---	720.5	0.030	0.000	19.6	4	1
03/30/06	8:25 p	-24.8	-24.8	-24.8	---	---	13.9	NE	0.23	16.5	-37.9	---	---	720.5	0.030	0.000	19.6	3	1
03/30/06	8:26 p	-24.8	-24.8	-24.8	---	---	12.2	NE	0.20	14.8	-37.2	---	---	720.4	0.030	0.000	19.6	3	1
03/30/06	8:27 p	-24.8	-24.8	-24.8	---	---	14.8	NE	0.25	17.4	-38.2	---	---	720.4	0.030	0.000	19.6	3	1
03/30/06	8:28 p	-24.8	-24.8	-24.8	---	---	14.8	NE	0.25	16.5	-38.2	---	---	720.4	0.030	0.000	19.6	3	1
03/30/06	8:29 p	-24.8	-24.8	-24.9	---	---	13.9	NE	0.23	16.5	-37.9	---	---	720.4	0.030	0.000	19.6	3	1
03/30/06	8:30 p	-24.8	-24.8	-24.9	---	---	15.7	NE	0.26	16.5	-38.6	---	---	720.4	0.030	0.000	19.6	3	1
03/30/06	8:31 p	-24.8	-24.8	-24.9	---	---	14.8	NE	0.25	16.5	-38.2	---	---	720.4	0.030	0.000	19.6	3	1
03/30/06	8:32 p	-24.9	-24.8	-24.9	---	---	15.7	NE	0.26	17.4	-38.7	---	---	720.5	0.030	0.000	19.6	3	1
03/30/06	8:33 p	-24.8	-24.8	-24.9	---	---	14.8	NE	0.25	16.5	-38.2	---	---	720.5	0.030	0.000	19.6	4	1
03/30/06	8:34 p	-24.9	-24.8	-24.9	---	---	13.9	NE	0.23	17.4	-38.0	---	---	720.4	0.030	0.000	19.6	3	1
03/30/06	8:35 p	-24.9	-24.8	-24.9	---	---	13.9	NE	0.23	16.5	-38.0	---	---	720.4	0.030	0.000	19.6	4	1
03/30/06	8:36 p	-24.9	-24.8	-24.9	---	---	13.0	NE	0.22	14.8	-37.6	---	---	720.4	0.030	0.000	19.6	3	1
03/30/06	8:37 p	-24.9	-24.9	-24.9	---	---	14.8	NE	0.25	16.5	-38.3	---	---	720.4	0.030	0.000	19.5	3	1
03/30/06	8:38 p	-24.9	-24.9	-24.9	---	---	13.9	NE	0.23	16.5	-38.0	---	---	720.4	0.030	0.000	19.5	3	1
03/30/06	8:39 p	-24.9	-24.9	-24.9	---	---	13.9	NE	0.23	15.7	-38.0	---	---	720.3	0.030	0.000	19.6	3	1
03/30/06	8:40 p	-24.9	-24.9	-24.9	---	---	14.8	NE	0.25	17.4	-38.3	---	---	720.5	0.030	0.000	19.6	3	1
03/30/06	8:41 p	-24.9	-24.9	-24.9	---	---	14.8	NE	0.25	16.5	-38.3	---	---	720.4	0.030	0.000	19.6	3	1
03/30/06	8:42 p	-24.9	-24.9	-24.9	---	---	13.0	NE	0.22	15.7	-37.7	---	---	720.4	0.030	0.000	19.6	3	1
03/30/06	8:43 p	-24.9	-24.9	-24.9	---	---	13.9	NE	0.23	16.5	-38.1	---	---	720.5	0.030	0.000	19.5	3	1
03/30/06	8:44 p	-24.9	-24.9	-25.0	---	---	13.0	NE	0.22	14.8	-37.7	---	---	720.4	0.030	0.000	19.5	3	1
03/30/06	8:45 p	-24.9	-24.9	-25.0	---	---	13.0	NE	0.22	15.7	-37.7	---	---	720.4	0.030	0.000	19.5	3	1
03/30/06	8:46 p	-25.0	-24.9	-25.0	---	---	13.9	NE	0.23	15.7	-38.1	---	---	720.4	0.030	0.000	19.5	3	1
03/30/06	8:47 p	-24.9	-24.9	-25.0	---	---	14.8	NE	0.25	16.5	-38.4	---	---	720.4	0.030	0.000	19.5	3	1
03/30/06	8:48 p	-25.0	-25.0	-25.0	---	---	13.9	NE	0.23	15.7	-38.1	---	---	720.4	0.030	0.000	19.5	3	1
03/30/06	8:49 p	-25.0	-25.0	-25.1	---	---	14.8	NE	0.25	17.4	-38.4	---	---	720.4	0.030	0.000	19.5	3	1
03/30/06	8:50 p	-25.0	-25.0	-25.0	---	---	12.2	NE	0.20	14.8	-37.3	---	---	720.4	0.030	0.000	19.5	3	1
03/30/06	8:51 p	-25.0	-25.0	-25.1	---	---	13.9	NE	0.23	16.5	-38.1	---	---	720.5	0.030	0.000	19.5	3	1
03/30/06	8:52 p	-25.1	-25.0	-25.1	---	---	13.9	NE	0.23	15.7	-38.2	---	---	720.5	0.030	0.000	19.5	3	1
03/30/06	8:53 p	-25.1	-25.0	-25.1	---	---	13.0	NE	0.22	16.5	-37.8	---	---	720.5	0.030	0.000	19.5	3	1
03/30/06	8:54 p	-25.1	-25.1	-25.1	---	---	13.9	NE	0.23	16.5	-38.2	---	---	720.5	0.030	0.000	19.5	3	1
03/30/06	8:55 p	-25.1	-25.1	-25.1	---	---	12.2	NE	0.20	14.8	-37.4	---	---	720.5	0.030	0.000	19.5	3	1
03/30/06	8:56 p	-25.1	-25.1	-25.1	---	---	12.2	NE	0.20	14.8	-37.5	---	---	720.4	0.030	0.000	19.5	3	1
03/30/06	8:57 p	-25.1	-25.1	-25.1	---	---	13.0	NE	0.22	14.8	-37.9	---	---	720.5	0.030	0.000	19.5	3	1
03/30/06	8:58 p	-25.1	-25.1	-25.1	---	---	13.0	NE	0.22	17.4	-37.8	---	---	720.5	0.030	0.000	19.5	3	1
03/30/06	8:59 p	-25.1	-25.1	-25.1	---	---	13.0	NE	0.22	16.5	-37.9	---	---	720.5	0.030	0.000	19.5	3	1
03/30/06	9:00 p	-25.1	-25.1	-25.1	---	---	15.7	NE	0.26	18.3	-38.9	---	---	720.4	0.030	0.000	19.5	3	1
03/30/06	9:01 p	-25.1	-25.1	-25.1	---	---	15.7	NE	0.26	17.4	-38.9	---	---	720.5	0.030	0.000	19.5	3	1
03/30/06	9:02 p	-25.1	-25.1	-25.1	---	---	13.0	NE	0.22	15.7	-37.8	---	---	720.6	0.030	0.000	19.5	3	1
03/30/06	9:03 p	-25.1	-25.1	-25.1	---	---	13.9	NE	0.23	15.7	-38.2	---	---	720.5	0.030	0.000	19.5	3	1
03/30/06	9:04 p	-25.1	-25.0	-25.1	---	---	16.5	NE	0.28	18.3	-39.2	---	---	720.5	0.030	0.000	19.5	3	1
03/30/06	9:05 p	-25.0	-25.0	-25.1	---	---	13.9	NE	0.23	15.7	-38.1	---	---	720.5	0.030	0.000	19.5	3	1
03/30/06	9:06 p	-25.0	-25.0	-25.1	---	---	14.8	NE	0.25	17.4	-38.4	---	---	720.5	0.030	0.000	19.5	3	1
03/30/06	9:07 p	-25.1	-25.0	-25.1	---	---	15.7	NE	0.26	16.5	-38.9	---	---	720.4	0.030	0.000	19.5	3	1
03/30/06	9:08 p	-25.0	-25.0	-25.0	---	---	15.7	NE	0.26	16.5	-38.8	---	---	720.5	0.030	0.000	19.5	3	1
03/30/06	9:09 p	-25.0	-24.9	-25.0	---	---	13.9	NE	0.23	15.7	-38.1	---	---	720.6	0.030	0.000	19.5	3	1
03/30/06	9:10 p	-24.9	-24.9	-25.0	---	---	13.9	NE	0.23	16.5	-38.1	---	---	720.6	0.030	0.000	19.6	3	1
03/30/06	9:11 p	-25.0	-24.9	-25.0	---	---	14.8	NE	0.25	16.5	-38.4	---	---	720.5	0.030	0.000	19.6	3	1
03/30/06	9:12 p	-24.9	-24.9	-25.0	---	---	13.0	NE	0.22	16.5	-37.7	---	---	720.5	0.030	0.000	19.6	3	1
03/30/06	9:13 p	-24.9	-24.9	-24.9	---	---	13.9	NE	0.23	15.7	-38.1	---	---	720.5	0.030	0.000	19.6	3	1
03/30/06	9:14 p	-24.9	-24.9	-24.9	---	---	13.0	NE	0.22	15.7	-37.7	---	---	720.5	0.030	0.000	19.5	3	1
03/30/06	9:15 p	-24.9	-24.9	-24.9	---	---	13.0	NE	0.22	15.7	-37.7	---	---	720.5	0.030	0.000	19.6	3	1
03/30/06	9:16 p	-24.9	-24.9	-24.9	---	---	13.9	NE	0.23	15.7	-38.1	---	---	720.5	0.030	0.000	19.5	3	1
03/30/06	9:17 p	-24.9	-24.9	-24.9	---	---	13.9	NE	0.23	18.3	-38.1	---	---	720.6	0.030	0.000	19.5	3	1
03/30/06	9:18 p	-24.9	-24.9	-24.9	---	---	13.9	NE	0.23	14.8	-38.1	---	---	720.5	0.030	0.000	19.5	3	1
03/30/06	9:19 p	-24.9	-24.9	-24.9	---	---	14.8	NE	0.25	15.7	-38.4	---	---	720.4	0.030	0.000	19.5	3	1
03/30/06	9:20 p	-24.9	-24.9	-24.9	---	---	13.0	NE	0.22	15.7	-37.7	---	---	720.6	0.030	0.000	19.5	3	1
03/30/06	9:21 p	-24.9	-24.9	-24.9	---	---	14.8	NE	0.25	15.7	-38.4	---	---	720.4	0.030	0.000	19.5	3	1
03/30/06	9:22 p	-24.9	-24.9	-24.9	---	---	12.2	NE	0.20	14.8	-37.3	---	---	720.5	0.030	0.000	19.5	3	1
03/30/06	9:23 p	-24.9	-24.9	-24.9	---	---	13.9	NE	0.23	14.8	-38.1	---	---	720.5	0.030	0.000	19.5	3	1
03/30/06	9:24 p	-24.9	-24.9	-24.9	---	---	13.9	NE	0.23	15.7	-38.1	---	---	720.4	0.030	0.000	19.5	3	1
03/30/06	9:25 p	-24.9	-24.9	-24.9	---	---	13.9	NE	0.23	14.8	-38.1	---	---	720.5	0.030	0.000	19.5	3	1
03/30/06	9:26 p	-24.9	-24.9	-24.9	---	---	14.8	NE	0.25	16.5	-38.3	---	---	720.5	0.030	0.000	19.5	3	1
03/30/06	9:27 p	-24.9	-24.8	-24.9	---	---	13.9	NE	0.23	16.5	-38.0	---	---	720.6	0.030	0.000	19.5	3	1
03/30/06	9:28 p	-24.9	-24.8	-24.9	---	---	14.8	NE	0.25	16.5	-38.3	---	---	720.5	0.030	0.000	19.5	3	1
03/30/06	9:29 p	-24.9	-24.8	-24.9	---	---	13.0	NE	0.22	16.5	-37.6	---	---	720.7	0.030	0.000	19.5	3	1
03/30/06	9:30 p	-24.8	-24.8	-24.9	---	---	13.9	NE	0.23	17.4	-37.9	---	---	720.5	0.030	0.000	19.4	3	1
03/30/06	9:31 p	-24.8	-24.8	-24.9	---	---	14.8	NE	0.25	16.5	-38.2	---	---	720.5	0.030	0.000	19.4	3	1
03/30/06	9:32 p	-24.8	-24.8	-24.9	---	---	14.8	NE	0.25	17.4	-38.2	---	---	720.5	0.030	0.000	19.4	3	1
03/30/06	9:33 p	-24.8	-24.8	-24.8	---	---	13.9	NE	0.23	14.8	-37.9	---	---	720.7	0.030	0.000	19.4	3	1
03/30/06	9:34 p	-24.8	-24.8	-24.8	---	---	14.8	NE	0.25	17.4	-38.2	---	---	720.6	0.030	0.000	19.4	3	1
03/30/06	9:35 p	-24.8	-24.8	-24.8	---	---	13.9	NE	0.23	16.5	-37.8	---	---	720.6	0.030	0.000	19.4	3	1
03/30/06	9:36 p	-24.8	-24.7	-24.8	---	---	13.9	NE	0.23	16.5	-37.8	---	---	720.7	0.030	0.000	19.5	3	1
03/30/06	9:37 p	-24.8	-24.7	-24.8	---	---	13.0	NE	0.22	14.8	-37.4	---	---	720.6	0.030	0.000	19.4	3	1
03/30/06	9:38 p	-24.7	-24.7	-24.7	---	---	13.9	NE	0.23	16.5	-37.8	---	---	720.6	0.030	0.000	19.4	3	1
03/30/06	9:39 p	-24.7	-24.7	-24.7	---	---	13.9	NE	0.23	15.7	-37.7	---	---	720.7	0.030	0.000	19.4	3	1
03/30/06	9:40 p	-24.7	-24.7	-24.7	---	---	13.0	NE	0.22	14.8	-37.4	---	---	720.6	0.030	0.000	19.5	3	1
03/30/06	9:41 p	-24.7	-24.7	-24.7	---	---	13.9	NE	0.23	14.8	-37.7	---	---	720.7	0.030	0.000	19.5	3	1
03/30/06	9:42 p	-24.7	-24.7	-24.7	---	---	15.7	NE	0.26	16.5	-38.4	---	---	720.8	0.030	0.000	19.4	3	1
03/30/06	9:43 p	-24.7	-24.7	-24.7	---	---	13.0	NE	0.22	15.7	-37.3	---	---	720.6	0.030	0.000	19.4	3	1
03/30/06	9:44 p	-24.7	-24.7	-24.7	---	---	13.9	NE	0.23	15.7	-37.7	---	---	720.7	0.030	0.000	19.4	3	1
03/30/06	9:45 p	-24.7	-24.7	-24.7	---	---	13.9	NE	0.23	16.5	-37.7	---	---	720.6	0.030	0.000	19.4	3	1
03/30/06	9:46 p	-24.7	-24.7	-24.7	---	---	13.9	NE	0.23	15.7	-37.7	---	---	720.6	0.030	0.000	19.4	3	1
03/30/06	9:47 p	-24.7	-24.6	-24.7	---	---	13.9	NE	0.23	15.7	-37.7	---	---	720.6	0.030	0.000	19.4	3	1
03/30/06	9:48 p	-24.7	-24.6	-24.7	---	---	13.9	NE	0.23	15.7	-37.7	---	---	720.6	0.030	0.000	19.4	3	1
03/30/06	9:49 p	-24.7	-24.7	-24.7	---	---	13.0	NE	0.22	14.8	-37.3	---	---	720.8	0.030	0.000	19.4	3	1
03/30/06	9:50 p	-24.7	-24.7	-24.7	---	---	13.0	NE	0.22	14.8	-37.3	---	---	720.6	0.030	0.000	19.4	3	1
03/30/06	9:51 p	-24.7	-24.6	-24.7	---	---	13.9	NE	0.23	15.7	-37.7	---	---	720.7	0.030	0.000	19.5	3	1
03/30/06	9:52 p	-24.7	-24.6	-24.7	---	---	13.0	NE	0.22	14.8	-37.3	---	---	720.7	0.030	0.000	19.4	3	1
03/30/06	9:53 p	-24.7	-24.6	-24.7	---	---	13.9	NE	0.23	16.5	-37.7	---	---	720.6	0.030	0.000	19.5	3	1
03/30/06	9:54 p	-24.7	-24.6	-24.7	---	---	13.0	NE	0.22	15.7	-37.3	---	---	720.6	0.030	0.000	19.5	3	1
03/30/06	9:55 p	-24.6	-24.6	-24.7	---	---	13.9	NE	0.23	15.7	-37.6	---	---	720.7	0.030	0.000	19.5	3	1
03/30/06	9:56 p	-24.6	-24.6	-24.6	---	---	13.9	NE	0.23	14.8	-37.6	---	---	720.7	0.030	0.000	19.5	3	1
03/30/06	9:57 p	-24.6	-24.6	-24.7	---	---	13.0	NE	0.22	13.9	-37.3	---	---	720.8	0.030	0.000	19.5	3	1
03/30/06	9:58 p	-24.6	-24.6	-24.7	---	---	12.2	NE	0.20	13.9	-36.9	---	---	720.7	0.030	0.000	19.5	3	1
03/30/06	9:59 p	-24.6	-24.6	-24.7	---	---	13.0	NE	0.22	14.8	-37.3	---	---	720.7	0.030	0.000	19.5	3	1
03/30/06	10:00 p	-24.7	-24.6	-24.7	---	---	13.0	NE	0.22	15.7	-37.3	---	---	720.8	0.030	0.000	19.5	3	1
03/30/06	10:01 p	-24.6	-24.6	-24.7	---	---	13.0	NE	0.22	14.8	-37.3	---	---	720.7	0.030	0.000	19.5	3	1
03/30/06	10:02 p	-24.7	-24.6	-24.7	---	---	13.0	NE	0.22	14.8	-37.3	---	---	720.8	0.030	0.000	19.4	3	1
03/30/06	10:03 p	-24.7	-24.7	-24.7	---	---	13.9	NE	0.23	15.7	-37.7	---	---	720.7	0.030	0.000	19.4	3	1
03/30/06	10:04 p	-24.7	-24.6	-24.7	---	---	13.9	NE	0.23	18.3	-37.7	---	---	720.6	0.030	0.000	19.4	3	1
03/30/06	10:05 p	-24.7	-24.6	-24.7	---	---	14.8	NE	0.25	16.5	-38.1	---	---	720.8	0.030	0.000	19.4	3	1
03/30/06	10:06 p	-24.7	-24.6	-24.7	---	---	13.9	NE	0.23	19.1	-37.7	---	---	720.7	0.030	0.000	19.4	3	1
03/30/06	10:07 p	-24.7	-24.6	-24.7	---	---	15.7	NE	0.26	17.4	-38.4	---	---	720.8	0.030	0.000	19.4	3	1
03/30/06	10:08 p	-24.7	-24.6	-24.7	---	---	14.8	NE	0.25	18.3	-38.1	---	---	720.6	0.030	0.000	19.4	3	1
03/30/06	10:09 p	-24.7	-24.6	-24.7	---	---	15.7	NE	0.26	18.3	-38.4	---	---	720.7	0.030	0.000	19.4	3	1
03/30/06	10:10 p	-24.7	-24.7	-24.7	---	---	15.7	NE	0.26	18.3	-38.4	---	---	720.7	0.030	0.000	19.4	3	1
03/30/06	10:11 p	-24.7	-24.7	-24.7	---	---	14.8	NE	0.25	19.1	-38.1	---	---	720.6	0.030	0.000	19.4	3	1
03/30/06	10:12 p	-24.7	-24.7	-24.7	---	---	14.8	NE	0.25	17.4	-38.1	---	---	720.7	0.030	0.000	19.4	3	1
03/30/06	10:13 p	-24.7	-24.7	-24.7	---	---	13.9	NE	0.23	17.4	-37.7	---	---	720.7	0.030	0.000	19.4	3	1
03/30/06	10:14 p	-24.7	-24.6	-24.7	---	---	14.8	NE	0.25	17.4	-38.1	---	---	720.8	0.030	0.000	19.4	3	1
03/30/06	10:15 p	-24.7	-24.6	-24.7	---	---	16.5	NE	0.28	18.3	-38.7	---	---	720.8	0.030	0.000	19.4	3	1
03/30/06	10:16 p	-24.7	-24.6	-24.7	---	---	15.7	NE	0.26	17.4	-38.4	---	---	720.7	0.030	0.000	19.4	3	1
03/30/06	10:17 p	-24.7	-24.7	-24.7	---	---	15.7	NE	0.26	18.3	-38.4	---	---	720.7	0.030	0.000	19.4	3	1
03/30/06	10:18 p	-24.7	-24.6	-24.7	---	---	14.8	NE	0.25	18.3	-38.1	---	---	720.8	0.030	0.000	19.4	3	1
03/30/06	10:19 p	-24.6	-24.6	-24.7	---	---	17.4	NE	0.29	18.3	-38.9	---	---	720.6	0.030	0.000	19.4	3	1
03/30/06	10:20 p	-24.7	-24.6	-24.7	---	---	14.8	NE	0.25	19.1	-38.1	---	---	720.7	0.030	0.000	19.4	3	1
03/30/06	10:21 p	-24.7	-24.6	-24.7	---	---	16.5	NE	0.28	18.3	-38.7	---	---	720.7	0.030	0.000	19.4	3	1
03/30/06	10:22 p	-24.7	-24.6	-24.7	---	---	14.8	NE	0.25	18.3	-38.1	---	---	720.6	0.030	0.000	19.4	3	1
03/30/06	10:23 p	-24.7	-24.6	-24.7	---	---	14.8	NE	0.25	18.3	-38.1	---	---	720.7	0.030	0.000	19.4	3	1
03/30/06	10:24 p	-24.6	-24.6	-24.7	---	---	15.7	NE	0.26	18.3	-38.3	---	---	720.6	0.030	0.000	19.4	3	1
03/30/06	10:25 p	-24.7	-24.6	-24.7	---	---	15.7	NE	0.26	18.3	-38.4	---	---	720.6	0.030	0.000	19.4	3	1
03/30/06	10:26 p	-24.6	-24.6	-24.7	---	---	16.5	NE	0.28	21.7	-38.6	---	---	720.6	0.030	0.000	19.4	3	1
03/30/06	10:27 p	-24.6	-24.6	-24.6	---	---	18.3	NE	0.30	20.9	-39.2	---	---	720.7	0.030	0.000	19.4	3	1
03/30/06	10:28 p	-24.6	-24.6	-24.6	---	---	11.3	NE	0.19	15.7	-36.4	---	---	720.6	0.030	0.000	19.4	3	1
03/30/06	10:29 p	-24.6	-24.6	-24.6	---	---	14.8	NE	0.25	20.0	-37.9	---	---	720.6	0.030	0.000	19.4	3	1
03/30/06	10:30 p	-24.6	-24.6	-24.6	---	---	13.9	NE	0.23	19.1	-37.6	---	---	720.7	0.030	0.000	19.4	3	1
03/30/06	10:31 p	-24.6	-24.6	-24.6	---	---	14.8	NE	0.25	19.1	-37.9	---	---	720.5	0.030	0.000	19.4	3	1
03/30/06	10:32 p	-24.6	-24.6	-24.6	---	---	13.9	NE	0.23	19.1	-37.6	---	---	720.6	0.030	0.000	19.4	3	1
03/30/06	10:33 p	-24.6	-24.6	-24.6	---	---	13.9	NE	0.23	15.7	-37.6	---	---	720.6	0.030	0.000	19.4	3	1
03/30/06	10:34 p	-24.7	-24.6	-24.7	---	---	15.7	NE	0.26	17.4	-38.4	---	---	720.6	0.030	0.000	19.4	3	1
03/30/06	10:35 p	-24.6	-24.6	-24.6	---	---	13.0	NE	0.22	14.8	-37.3	---	---	720.5	0.030	0.000	19.4	3	1
03/30/06	10:36 p	-24.6	-24.6	-24.6	---	---	15.7	NE	0.26	17.4	-38.3	---	---	720.6	0.030	0.000	19.4	3	1
03/30/06	10:37 p	-24.6	-24.6	-24.6	---	---	12.2	NE	0.20	14.8	-36.8	---	---	720.6	0.030	0.000	19.4	3	1
03/30/06	10:38 p	-24.6	-24.6	-24.6	---	---	15.7	NE	0.26	19.1	-38.2	---	---	720.6	0.030	0.000	19.4	3	1
03/30/06	10:39 p	-24.6	-24.6	-24.6	---	---	10.4	NE	0.17	17.4	-35.9	---	---	720.7	0.030	0.000	19.4	3	1
03/30/06	10:40 p	-24.6	-24.6	-24.6	---	---	13.0	NE	0.22	15.7	-37.2	---	---	720.6	0.030	0.000	19.4	3	1
03/30/06	10:41 p	-24.6	-24.5	-24.6	---	---	13.9	NE	0.23	17.4	-37.6	---	---	720.6	0.030	0.000	19.4	3	1
03/30/06	10:42 p	-24.5	-24.5	-24.6	---	---	13.9	NE	0.23	17.4	-37.5	---	---	720.7	0.030	0.000	19.4	3	1
03/30/06	10:43 p	-24.5	-24.5	-24.6	---	---	11.3	NE	0.19	15.7	-36.3	---	---	720.6	0.030	0.000	19.4	3	1
03/30/06	10:44 p	-24.5	-24.5	-24.5	---	---	15.7	NE	0.26	17.4	-38.2	---	---	720.6	0.030	0.000	19.4	3	1
03/30/06	10:45 p	-24.5	-24.5	-24.5	---	---	12.2	NE	0.20	15.7	-36.7	---	---	720.6	0.030	0.000	19.4	3	1
03/30/06	10:46 p	-24.5	-24.4	-24.5	---	---	13.9	NE	0.23	17.4	-37.5	---	---	720.5	0.030	0.000	19.4	3	1
03/30/06	10:47 p	-24.4	-24.4	-24.4	---	---	15.7	NE	0.26	18.3	-38.1	---	---	720.5	0.030	0.000	19.4	3	1
03/30/06	10:48 p	-24.4	-24.4	-24.4	---	---	14.8	NE	0.25	17.4	-37.7	---	---	720.6	0.030	0.000	19.4	3	1
03/30/06	10:49 p	-24.4	-24.4	-24.4	---	---	15.7	NE	0.26	17.4	-38.0	---	---	720.6	0.030	0.000	19.4	3	1
03/30/06	10:50 p	-24.4	-24.4	-24.4	---	---	14.8	NE	0.25	16.5	-37.7	---	---	720.6	0.030	0.000	19.4	3	1
03/30/06	10:51 p	-24.4	-24.3	-24.4	---	---	14.8	NE	0.25	19.1	-37.7	---	---	720.6	0.030	0.000	19.4	3	1
03/30/06	10:52 p	-24.3	-24.3	-24.3	---	---	13.0	NE	0.22	18.3	-36.9	---	---	720.6	0.030	0.000	19.4	3	1
03/30/06	10:53 p	-24.3	-24.3	-24.3	---	---	16.5	NE	0.28	18.3	-38.2	---	---	720.6	0.030	0.000	19.4	3	1
03/30/06	10:54 p	-24.3	-24.3	-24.3	---	---	13.9	NE	0.23	17.4	-37.2	---	---	720.7	0.030	0.000	19.4	3	1
03/30/06	10:55 p	-24.3	-24.3	-24.3	---	---	14.8	NE	0.25	16.5	-37.6	---	---	720.5	0.030	0.000	19.4	3	1
03/30/06	10:56 p	-24.3	-24.2	-24.3	---	---	13.0	NE	0.22	18.3	-36.8	---	---	720.6	0.030	0.000	19.4	3	1
03/30/06	10:57 p	-24.3	-24.2	-24.3	---	---	14.8	NE	0.25	18.3	-37.6	---	---	720.7	0.030	0.000	19.4	3	1
03/30/06	10:58 p	-24.2	-24.2	-24.3	---	---	12.2	NE	0.20	15.7	-36.4	---	---	720.5	0.030	0.000	19.4	3	1
03/30/06	10:59 p	-24.2	-24.2	-24.3	---	---	13.9	NE	0.23	18.3	-37.1	---	---	720.7	0.030	0.000	19.4	3	1
03/30/06	11:00 p	-24.2	-24.2	-24.2	---	---	14.8	NE	0.25	20.0	-37.4	---	---	720.6	0.030	0.000	19.4	3	1
03/30/06	11:01 p	-24.2	-24.2	-24.2	---	---	14.8	NE	0.25	17.4	-37.4	---	---	720.6	0.030	0.000	19.4	3	1
03/30/06	11:02 p	-24.2	-24.2	-24.2	---	---	12.2	NE	0.20	15.7	-36.3	---	---	720.5	0.030	0.000	19.4	3	1
03/30/06	11:03 p	-24.2	-24.2	-24.2	---	---	16.5	NE	0.28	18.3	-38.0	---	---	720.6	0.030	0.000	19.3	3	1
03/30/06	11:04 p	-24.2	-24.1	-24.2	---	---	14.8	NE	0.25	18.3	-37.4	---	---	720.6	0.030	0.000	19.3	3	1
03/30/06	11:05 p	-24.2	-24.2	-24.2	---	---	13.9	NE	0.23	18.3	-37.1	---	---	720.6	0.030	0.000	19.3	3	1
03/30/06	11:06 p	-24.1	-24.1	-24.2	---	---	13.0	NE	0.22	17.4	-36.6	---	---	720.6	0.029	0.000	19.3	3	1
03/30/06	11:07 p	-24.2	-24.1	-24.2	---	---	15.7	NE	0.26	17.4	-37.7	---	---	720.6	0.030	0.000	19.3	3	1
03/30/06	11:08 p	-24.2	-24.1	-24.2	---	---	14.8	NE	0.25	16.5	-37.4	---	---	720.6	0.030	0.000	19.3	3	1
03/30/06	11:09 p	-24.2	-24.1	-24.2	---	---	13.9	NE	0.23	17.4	-37.1	---	---	720.5	0.030	0.000	19.3	3	1
03/30/06	11:10 p	-24.2	-24.2	-24.2	---	---	15.7	NE	0.26	18.3	-37.7	---	---	720.6	0.030	0.000	19.3	3	1
03/30/06	11:11 p	-24.1	-24.1	-24.2	---	---	13.9	NE	0.23	18.3	-36.9	---	---	720.5	0.029	0.000	19.3	3	1
03/30/06	11:12 p	-24.2	-24.1	-24.2	---	---	13.9	NE	0.23	16.5	-37.1	---	---	720.6	0.030	0.000	19.3	3	1
03/30/06	11:13 p	-24.2	-24.1	-24.2	---	---	13.9	NE	0.23	16.5	-37.1	---	---	720.5	0.030	0.000	19.3	3	1
03/30/06	11:14 p	-24.2	-24.2	-24.2	---	---	15.7	NE	0.26	19.1	-37.7	---	---	720.6	0.030	0.000	19.3	3	1
03/30/06	11:15 p	-24.2	-24.2	-24.2	---	---	14.8	NE	0.25	16.5	-37.4	---	---	720.6	0.030	0.000	19.3	3	1
03/30/06	11:16 p	-24.2	-24.1	-24.2	---	---	13.9	NE	0.23	15.7	-37.1	---	---	720.7	0.030	0.000	19.3	3	1
03/30/06	11:17 p	-24.1	-24.1	-24.2	---	---	14.8	NE	0.25	18.3	-37.3	---	---	720.6	0.029	0.000	19.3	3	1
03/30/06	11:18 p	-24.1	-24.1	-24.2	---	---	13.0	NE	0.22	16.5	-36.6	---	---	720.6	0.029	0.000	19.3	3	1
03/30/06	11:19 p	-24.1	-24.1	-24.2	---	---	14.8	NE	0.25	19.1	-37.3	---	---	720.8	0.029	0.000	19.3	3	1
03/30/06	11:20 p	-24.1	-24.1	-24.1	---	---	12.2	NE	0.20	14.8	-36.2	---	---	720.6	0.029	0.000	19.3	3	1
03/30/06	11:21 p	-24.1	-24.1	-24.1	---	---	15.7	ENE	0.26	19.1	-37.7	---	---	720.6	0.029	0.000	19.3	3	1
03/30/06	11:22 p	-24.1	-24.1	-24.1	---	---	13.0	NE	0.22	16.5	-36.6	---	---	720.6	0.029	0.000	19.3	3	1
03/30/06	11:23 p	-24.1	-24.1	-24.1	---	---	16.5	NE	0.28	20.0	-37.9	---	---	720.6	0.029	0.000	19.3	3	1
03/30/06	11:24 p	-24.1	-24.1	-24.1	---	---	13.0	NE	0.22	15.7	-36.6	---	---	720.6	0.029	0.000	19.3	3	1
03/30/06	11:25 p	-24.2	-24.1	-24.2	---	---	16.5	NE	0.28	19.1	-38.0	---	---	720.5	0.030	0.000	19.3	3	1
03/30/06	11:26 p	-24.2	-24.1	-24.2	---	---	14.8	NE	0.25	20.0	-37.4	---	---	720.6	0.030	0.000	19.3	3	1
03/30/06	11:27 p	-24.2	-24.2	-24.2	---	---	19.1	NE	0.32	20.9	-38.9	---	---	720.6	0.030	0.000	19.3	3	1
03/30/06	11:28 p	-24.2	-24.2	-24.2	---	---	8.7	NE	0.14	16.5	-34.5	---	---	720.6	0.030	0.000	19.3	3	1
03/30/06	11:29 p	-24.2	-24.2	-24.2	---	---	16.5	NE	0.28	20.0	-38.1	---	---	720.6	0.030	0.000	19.3	3	1
03/30/06	11:30 p	-24.2	-24.2	-24.2	---	---	15.7	NE	0.26	17.4	-37.7	---	---	720.6	0.030	0.000	19.3	3	1
03/30/06	11:31 p	-24.2	-24.2	-24.2	---	---	18.3	ENE	0.30	20.0	-38.7	---	---	720.6	0.030	0.000	19.3	3	1
03/30/06	11:32 p	-24.2	-24.2	-24.3	---	---	13.0	NE	0.22	15.7	-36.8	---	---	720.6	0.030	0.000	19.3	3	1
03/30/06	11:33 p	-24.2	-24.2	-24.3	---	---	16.5	ENE	0.28	18.3	-38.1	---	---	720.5	0.030	0.000	19.3	3	1
03/30/06	11:34 p	-24.3	-24.2	-24.3	---	---	13.9	NE	0.23	18.3	-37.2	---	---	720.6	0.030	0.000	19.3	3	1
03/30/06	11:35 p	-24.3	-24.2	-24.3	---	---	15.7	NE	0.26	19.1	-37.8	---	---	720.6	0.030	0.000	19.3	3	1
03/30/06	11:36 p	-24.3	-24.2	-24.3	---	---	14.8	NE	0.25	16.5	-37.6	---	---	720.6	0.030	0.000	19.3	3	1
03/30/06	11:37 p	-24.3	-24.3	-24.3	---	---	15.7	ENE	0.26	18.3	-37.8	---	---	720.5	0.030	0.000	19.3	3	1
03/30/06	11:38 p	-24.3	-24.3	-24.3	---	---	14.8	NE	0.25	20.0	-37.6	---	---	720.6	0.030	0.000	19.3	3	1
03/30/06	11:39 p	-24.3	-24.3	-24.3	---	---	17.4	ENE	0.29	20.0	-38.4	---	---	720.6	0.030	0.000	19.3	3	1
03/30/06	11:40 p	-24.3	-24.2	-24.3	---	---	13.9	NE	0.23	19.1	-37.2	---	---	720.7	0.030	0.000	19.3	3	1
03/30/06	11:41 p	-24.3	-24.2	-24.3	---	---	16.5	NE	0.28	18.3	-38.2	---	---	720.7	0.030	0.000	19.3	3	1
03/30/06	11:42 p	-24.3	-24.2	-24.3	---	---	16.5	NE	0.28	19.1	-38.2	---	---	720.6	0.030	0.000	19.3	3	1
03/30/06	11:43 p	-24.3	-24.3	-24.3	---	---	15.7	NE	0.26	19.1	-37.8	---	---	720.5	0.030	0.000	19.3	3	1
03/30/06	11:44 p	-24.3	-24.3	-24.3	---	---	14.8	NE	0.25	19.1	-37.6	---	---	720.6	0.030	0.000	19.3	3	1
03/30/06	11:45 p	-24.3	-24.3	-24.3	---	---	15.7	ENE	0.26	21.7	-37.8	---	---	720.5	0.030	0.000	19.3	3	1
03/30/06	11:46 p	-24.3	-24.3	-24.3	---	---	16.5	ENE	0.28	19.1	-38.2	---	---	720.6	0.030	0.000	19.3	3	1
03/30/06	11:47 p	-24.3	-24.3	-24.3	---	---	18.3	ENE	0.30	20.9	-38.8	---	---	720.5	0.030	0.000	19.3	3	1
03/30/06	11:48 p	-24.3	-24.2	-24.3	---	---	12.2	NE	0.20	18.3	-36.4	---	---	720.6	0.030	0.000	19.3	3	1
03/30/06	11:49 p	-24.3	-24.2	-24.3	---	---	15.7	ENE	0.26	18.3	-37.8	---	---	720.5	0.030	0.000	19.3	3	1
03/30/06	11:50 p	-24.2	-24.2	-24.3	---	---	16.5	NE	0.28	19.1	-38.1	---	---	720.4	0.030	0.000	19.3	3	1
03/30/06	11:51 p	-24.2	-24.2	-24.3	---	---	16.5	ENE	0.28	18.3	-38.1	---	---	720.6	0.030	0.000	19.3	3	1
03/30/06	11:52 p	-24.2	-24.2	-24.2	---	---	14.8	ENE	0.25	17.4	-37.4	---	---	720.5	0.030	0.000	19.3	3	1
03/30/06	11:53 p	-24.2	-24.2	-24.2	---	---	18.3	ENE	0.30	20.9	-38.7	---	---	720.5	0.030	0.000	19.3	3	1
03/30/06	11:54 p	-24.2	-24.2	-24.2	---	---	17.4	ENE	0.29	19.1	-38.4	---	---	720.5	0.030	0.000	19.3	3	1
03/30/06	11:55 p	-24.2	-24.2	-24.2	---	---	15.7	NE	0.26	17.4	-37.7	---	---	720.6	0.030	0.000	19.3	3	1
03/30/06	11:56 p	-24.2	-24.1	-24.2	---	---	16.5	NE	0.28	18.3	-38.0	---	---	720.6	0.030	0.000	19.3	3	1
03/30/06	11:57 p	-24.1	-24.1	-24.1	---	---	15.7	NE	0.26	19.1	-37.7	---	---	720.5	0.029	0.000	19.3	3	1
03/30/06	11:58 p	-24.1	-24.1	-24.2	---	---	17.4	ENE	0.29	20.0	-38.3	---	---	720.5	0.029	0.000	19.3	3	1
03/30/06	11:59 p	-24.1	-24.1	-24.1	---	---	16.5	ENE	0.28	18.3	-37.9	---	---	720.6	0.029	0.000	19.3	3	1
03/31/06	12:00 a	-24.1	-24.1	-24.1	---	---	15.7	ENE	0.26	19.1	-37.7	---	---	720.6	0.029	0.000	19.3	3	1
03/31/06	12:01 a	-24.1	-24.1	-24.1	---	---	18.3	ENE	0.30	19.1	-38.6	---	---	720.5	0.029	0.000	19.3	3	1
03/31/06	12:02 a	-24.1	-24.1	-24.1	---	---	15.7	NE	0.26	18.3	-37.6	---	---	720.6	0.029	0.000	19.3	3	1
03/31/06	12:03 a	-24.1	-24.1	-24.1	---	---	13.9	NE	0.23	20.9	-36.9	---	---	720.5	0.029	0.000	19.3	3	1
03/31/06	12:04 a	-24.1	-24.1	-24.1	---	---	19.1	ENE	0.32	20.9	-38.8	---	---	720.5	0.029	0.000	19.3	3	1
03/31/06	12:05 a	-24.1	-24.0	-24.1	---	---	16.5	ENE	0.28	20.0	-37.9	---	---	720.6	0.029	0.000	19.3	3	1
03/31/06	12:06 a	-24.1	-24.0	-24.1	---	---	18.3	NE	0.30	20.0	-38.4	---	---	720.5	0.029	0.000	19.3	3	1
03/31/06	12:07 a	-24.1	-24.0	-24.1	---	---	15.7	NE	0.26	18.3	-37.6	---	---	720.5	0.029	0.000	19.3	3	1
03/31/06	12:08 a	-24.1	-24.1	-24.1	---	---	17.4	NE	0.29	19.1	-38.2	---	---	720.6	0.029	0.000	19.3	3	1
03/31/06	12:09 a	-24.1	-24.1	-24.1	---	---	18.3	ENE	0.30	22.6	-38.4	---	---	720.5	0.029	0.000	19.3	3	1
03/31/06	12:10 a	-24.1	-24.0	-24.1	---	---	13.9	NE	0.23	20.0	-36.9	---	---	720.5	0.029	0.000	19.3	3	1
03/31/06	12:11 a	-24.1	-24.1	-24.1	---	---	18.3	ENE	0.30	22.6	-38.4	---	---	720.4	0.029	0.000	19.3	3	1
03/31/06	12:12 a	-24.1	-24.0	-24.1	---	---	13.9	ENE	0.23	20.0	-36.9	---	---	720.4	0.029	0.000	19.3	3	1
03/31/06	12:13 a	-24.1	-24.0	-24.1	---	---	15.7	NE	0.26	19.1	-37.6	---	---	720.6	0.029	0.000	19.3	3	1
03/31/06	12:14 a	-24.0	-24.0	-24.1	---	---	15.7	NE	0.26	20.9	-37.5	---	---	720.5	0.029	0.000	19.3	3	1
03/31/06	12:15 a	-24.1	-24.0	-24.1	---	---	18.3	ENE	0.30	21.7	-38.4	---	---	720.6	0.029	0.000	19.3	3	1
03/31/06	12:16 a	-24.0	-24.0	-24.1	---	---	14.8	ENE	0.25	21.7	-37.2	---	---	720.4	0.029	0.000	19.3	3	1
03/31/06	12:17 a	-24.0	-24.0	-24.1	---	---	13.9	NE	0.23	20.0	-36.8	---	---	720.6	0.029	0.000	19.3	3	1
03/31/06	12:18 a	-24.0	-23.9	-24.1	---	---	15.7	NE	0.26	18.3	-37.5	---	---	720.6	0.029	0.000	19.3	3	1
03/31/06	12:19 a	-24.0	-23.9	-24.0	---	---	17.4	ENE	0.29	19.1	-38.1	---	---	720.5	0.029	0.000	19.3	3	1
03/31/06	12:20 a	-23.9	-23.9	-23.9	---	---	15.7	ENE	0.26	21.7	-37.4	---	---	720.6	0.029	0.000	19.3	3	1
03/31/06	12:21 a	-23.9	-23.9	-23.9	---	---	19.1	ENE	0.32	21.7	-38.6	---	---	720.5	0.029	0.000	19.3	3	1
03/31/06	12:22 a	-23.9	-23.9	-23.9	---	---	12.2	NE	0.20	19.1	-35.9	---	---	720.6	0.029	0.000	19.3	3	1
03/31/06	12:23 a	-23.9	-23.9	-23.9	---	---	16.5	ENE	0.28	20.0	-37.7	---	---	720.5	0.029	0.000	19.3	3	1
03/31/06	12:24 a	-23.9	-23.8	-23.9	---	---	13.0	NE	0.22	18.3	-36.3	---	---	720.6	0.029	0.000	19.3	3	1
03/31/06	12:25 a	-23.8	-23.8	-23.8	---	---	17.4	NE	0.29	19.1	-37.9	---	---	720.5	0.029	0.000	19.3	3	1
03/31/06	12:26 a	-23.8	-23.7	-23.8	---	---	16.5	ENE	0.28	20.0	-37.5	---	---	720.6	0.029	0.000	19.3	3	1
03/31/06	12:27 a	-23.7	-23.7	-23.7	---	---	15.7	NE	0.26	19.1	-37.1	---	---	720.6	0.029	0.000	19.3	3	1
03/31/06	12:28 a	-23.7	-23.7	-23.7	---	---	15.7	NE	0.26	19.1	-37.1	---	---	720.6	0.029	0.000	19.3	3	1
03/31/06	12:29 a	-23.7	-23.6	-23.7	---	---	17.4	NE	0.29	20.9	-37.7	---	---	720.6	0.029	0.000	19.3	3	1
03/31/06	12:30 a	-23.6	-23.6	-23.6	---	---	14.8	NE	0.25	20.9	-36.7	---	---	720.5	0.029	0.000	19.3	3	1
03/31/06	12:31 a	-23.6	-23.6	-23.6	---	---	19.1	ENE	0.32	21.7	-38.1	---	---	720.5	0.029	0.000	19.3	3	1
03/31/06	12:32 a	-23.6	-23.5	-23.6	---	---	13.9	NE	0.23	21.7	-36.3	---	---	720.7	0.029	0.000	19.3	3	1
03/31/06	12:33 a	-23.5	-23.5	-23.5	---	---	8.7	ENE	0.14	13.0	-33.7	---	---	720.5	0.029	0.000	19.3	3	1
03/31/06	12:34 a	-23.5	-23.5	-23.6	---	---	18.3	ENE	0.30	20.9	-37.7	---	---	720.6	0.029	0.000	19.3	3	1
03/31/06	12:35 a	-23.5	-23.4	-23.5	---	---	13.9	NE	0.23	18.3	-36.2	---	---	720.7	0.029	0.000	19.3	3	1
03/31/06	12:36 a	-23.4	-23.4	-23.4	---	---	14.8	ENE	0.25	21.7	-36.4	---	---	720.5	0.029	0.000	19.3	3	1
03/31/06	12:37 a	-23.4	-23.4	-23.4	---	---	18.3	NE	0.30	21.7	-37.7	---	---	720.7	0.029	0.000	19.3	3	1
03/31/06	12:38 a	-23.4	-23.4	-23.4	---	---	11.3	NE	0.19	14.8	-34.9	---	---	720.7	0.029	0.000	19.3	3	1
03/31/06	12:39 a	-23.4	-23.3	-23.4	---	---	16.5	NE	0.28	20.9	-37.0	---	---	720.5	0.029	0.000	19.3	3	1
03/31/06	12:40 a	-23.4	-23.3	-23.4	---	---	16.5	NE	0.28	20.0	-37.0	---	---	720.6	0.029	0.000	19.3	3	1
03/31/06	12:41 a	-23.3	-23.3	-23.4	---	---	11.3	NE	0.19	20.0	-34.8	---	---	720.5	0.029	0.000	19.3	3	1
03/31/06	12:42 a	-23.3	-23.3	-23.4	---	---	16.5	NE	0.28	20.0	-36.9	---	---	720.5	0.029	0.000	19.2	3	1
03/31/06	12:43 a	-23.3	-23.3	-23.4	---	---	15.7	NE	0.26	21.7	-36.6	---	---	720.5	0.029	0.000	19.3	3	1
03/31/06	12:44 a	-23.3	-23.3	-23.4	---	---	19.1	NE	0.32	20.9	-37.8	---	---	720.5	0.029	0.000	19.3	3	1
03/31/06	12:45 a	-23.4	-23.3	-23.4	---	---	14.8	NE	0.25	23.5	-36.4	---	---	720.7	0.029	0.000	19.3	3	1
03/31/06	12:46 a	-23.3	-23.3	-23.4	---	---	7.8	NE	0.13	10.4	-32.9	---	---	720.7	0.029	0.000	19.3	3	1
03/31/06	12:47 a	-23.4	-23.3	-23.4	---	---	15.7	ENE	0.26	19.1	-36.7	---	---	720.5	0.029	0.000	19.3	3	1
03/31/06	12:48 a	-23.3	-23.3	-23.4	---	---	17.4	ENE	0.29	20.0	-37.2	---	---	720.7	0.029	0.000	19.2	3	1
03/31/06	12:49 a	-23.3	-23.3	-23.3	---	---	10.4	NE	0.17	13.9	-34.4	---	---	720.6	0.029	0.000	19.3	3	1
03/31/06	12:50 a	-23.3	-23.3	-23.3	---	---	16.5	ENE	0.28	20.9	-36.9	---	---	720.6	0.029	0.000	19.2	3	1
03/31/06	12:51 a	-23.3	-23.2	-23.3	---	---	17.4	ENE	0.29	20.0	-37.2	---	---	720.6	0.029	0.000	19.2	3	1
03/31/06	12:52 a	-23.2	-23.2	-23.3	---	---	13.9	ENE	0.23	17.4	-35.8	---	---	720.5	0.029	0.000	19.2	3	1
03/31/06	12:53 a	-23.2	-23.2	-23.2	---	---	19.1	ENE	0.32	20.9	-37.6	---	---	720.5	0.029	0.000	19.2	3	1
03/31/06	12:54 a	-23.2	-23.1	-23.2	---	---	14.8	ENE	0.25	18.3	-36.1	---	---	720.7	0.029	0.000	19.2	3	1
03/31/06	12:55 a	-23.2	-23.1	-23.2	---	---	19.1	ENE	0.32	21.7	-37.6	---	---	720.5	0.029	0.000	19.2	3	1
03/31/06	12:56 a	-23.1	-23.1	-23.1	---	---	11.3	ENE	0.19	16.5	-34.6	---	---	720.6	0.029	0.000	19.2	3	1
03/31/06	12:57 a	-23.1	-23.1	-23.1	---	---	18.3	ENE	0.30	22.6	-37.2	---	---	720.5	0.029	0.000	19.2	3	1
03/31/06	12:58 a	-23.0	-23.0	-23.1	---	---	15.7	ENE	0.26	20.0	-36.2	---	---	720.6	0.029	0.000	19.2	3	1
03/31/06	12:59 a	-23.0	-22.9	-23.0	---	---	19.1	ENE	0.32	20.9	-37.3	---	---	720.5	0.029	0.000	19.2	3	1
03/31/06	1:00 a	-22.9	-22.9	-23.0	---	---	13.9	ENE	0.23	15.7	-35.4	---	---	720.6	0.029	0.000	19.2	3	1
03/31/06	1:01 a	-22.9	-22.9	-22.9	---	---	18.3	ENE	0.30	20.0	-36.9	---	---	720.5	0.029	0.000	19.2	3	1
03/31/06	1:02 a	-22.8	-22.8	-22.9	---	---	16.5	ENE	0.28	18.3	-36.3	---	---	720.6	0.029	0.000	19.2	3	1
03/31/06	1:03 a	-22.8	-22.8	-22.8	---	---	17.4	ENE	0.29	20.9	-36.6	---	---	720.5	0.029	0.000	19.2	3	1
03/31/06	1:04 a	-22.8	-22.7	-22.8	---	---	17.4	ENE	0.29	20.9	-36.5	---	---	720.6	0.029	0.000	19.3	3	1
03/31/06	1:05 a	-22.7	-22.7	-22.8	---	---	15.7	ENE	0.26	21.7	-35.8	---	---	720.4	0.029	0.000	19.3	3	1
03/31/06	1:06 a	-22.7	-22.7	-22.7	---	---	20.0	ENE	0.33	23.5	-37.2	---	---	720.5	0.029	0.000	19.3	3	1
03/31/06	1:07 a	-22.7	-22.6	-22.7	---	---	14.8	ENE	0.25	17.4	-35.4	---	---	720.6	0.028	0.000	19.3	3	1
03/31/06	1:08 a	-22.6	-22.6	-22.7	---	---	18.3	ENE	0.30	20.9	-36.6	---	---	720.6	0.028	0.000	19.4	3	1
03/31/06	1:09 a	-22.6	-22.6	-22.6	---	---	15.7	ENE	0.26	18.3	-35.7	---	---	720.5	0.028	0.000	19.4	3	1
03/31/06	1:10 a	-22.6	-22.6	-22.6	---	---	16.5	ENE	0.28	19.1	-35.9	---	---	720.6	0.028	0.000	19.4	3	1
03/31/06	1:11 a	-22.6	-22.6	-22.6	---	---	17.4	ENE	0.29	21.7	-36.2	---	---	720.6	0.028	0.000	19.4	3	1
03/31/06	1:12 a	-22.5	-22.5	-22.6	---	---	15.7	ENE	0.26	20.9	-35.6	---	---	720.5	0.028	0.000	19.5	3	1
03/31/06	1:13 a	-22.5	-22.4	-22.5	---	---	14.8	ENE	0.25	20.0	-35.2	---	---	720.5	0.028	0.000	19.5	3	1
03/31/06	1:14 a	-22.4	-22.4	-22.5	---	---	19.1	NE	0.32	23.5	-36.6	---	---	720.6	0.028	0.000	19.6	3	1
03/31/06	1:15 a	-22.4	-22.4	-22.5	---	---	15.7	ENE	0.26	20.0	-35.5	---	---	720.5	0.028	0.000	19.6	3	1
03/31/06	1:16 a	-22.4	-22.4	-22.4	---	---	14.8	NE	0.25	19.1	-35.1	---	---	720.6	0.028	0.000	19.6	4	1
03/31/06	1:17 a	-22.3	-22.3	-22.4	---	---	18.3	ENE	0.30	22.6	-36.2	---	---	720.6	0.028	0.000	19.6	4	1
03/31/06	1:18 a	-22.3	-22.3	-22.3	---	---	17.4	ENE	0.29	20.9	-35.9	---	---	720.5	0.028	0.000	19.6	4	1
03/31/06	1:19 a	-22.3	-22.3	-22.3	---	---	19.1	ENE	0.32	21.7	-36.4	---	---	720.6	0.028	0.000	19.6	4	1
03/31/06	1:20 a	-22.3	-22.3	-22.3	---	---	8.7	NE	0.14	13.9	-32.2	---	---	720.5	0.028	0.000	19.6	4	1
03/31/06	1:21 a	-22.3	-22.3	-22.3	---	---	18.3	ENE	0.30	23.5	-36.1	---	---	720.4	0.028	0.000	19.6	4	1
03/31/06	1:22 a	-22.3	-22.2	-22.3	---	---	13.0	NE	0.22	21.7	-34.3	---	---	720.8	0.028	0.000	19.6	4	1
03/31/06	1:23 a	-22.2	-22.2	-22.2	---	---	15.7	ENE	0.26	21.7	-35.2	---	---	720.5	0.028	0.000	19.6	4	1
03/31/06	1:24 a	-22.2	-22.2	-22.3	---	---	16.5	ENE	0.28	21.7	-35.5	---	---	720.6	0.028	0.000	19.6	4	1
03/31/06	1:25 a	-22.2	-22.2	-22.3	---	---	15.7	NE	0.26	21.7	-35.2	---	---	720.6	0.028	0.000	19.6	4	1
03/31/06	1:26 a	-22.2	-22.2	-22.2	---	---	4.3	NE	0.07	14.8	-28.8	---	---	720.7	0.028	0.000	19.6	4	1
03/31/06	1:27 a	-22.2	-22.2	-22.3	---	---	12.2	ENE	0.20	19.1	-33.8	---	---	720.4	0.028	0.000	19.6	4	1
03/31/06	1:28 a	-22.2	-22.2	-22.2	---	---	20.0	ENE	0.33	22.6	-36.6	---	---	720.4	0.028	0.000	19.6	4	1
03/31/06	1:29 a	-22.2	-22.2	-22.2	---	---	18.3	ENE	0.30	22.6	-36.1	---	---	720.7	0.028	0.000	19.6	4	1
03/31/06	1:30 a	-22.2	-22.2	-22.3	---	---	12.2	ENE	0.20	17.4	-33.8	---	---	720.6	0.028	0.000	19.6	4	1
03/31/06	1:31 a	-22.2	-22.2	-22.3	---	---	17.4	ENE	0.29	19.1	-35.8	---	---	720.5	0.028	0.000	19.6	4	1
03/31/06	1:32 a	-22.3	-22.3	-22.3	---	---	19.1	ENE	0.32	21.7	-36.4	---	---	720.5	0.028	0.000	19.6	4	1
03/31/06	1:33 a	-22.3	-22.2	-22.3	---	---	15.7	ENE	0.26	20.9	-35.3	---	---	720.5	0.028	0.000	19.6	4	1
03/31/06	1:34 a	-22.3	-22.3	-22.3	---	---	19.1	ENE	0.32	22.6	-36.4	---	---	720.5	0.028	0.000	19.6	4	1
03/31/06	1:35 a	-22.3	-22.2	-22.3	---	---	17.4	ENE	0.29	23.5	-35.8	---	---	720.4	0.028	0.000	19.6	4	1
03/31/06	1:36 a	-22.3	-22.3	-22.3	---	---	19.1	NE	0.32	22.6	-36.4	---	---	720.6	0.028	0.000	19.6	4	1
03/31/06	1:37 a	-22.3	-22.3	-22.3	---	---	11.3	NE	0.19	20.9	-33.5	---	---	720.4	0.028	0.000	19.6	4	1
03/31/06	1:38 a	-22.3	-22.3	-22.3	---	---	21.7	ENE	0.36	24.3	-37.2	---	---	720.5	0.028	0.000	19.6	4	1
03/31/06	1:39 a	-22.3	-22.3	-22.3	---	---	14.8	ENE	0.25	22.6	-35.0	---	---	720.5	0.028	0.000	19.6	4	1
03/31/06	1:40 a	-22.3	-22.3	-22.4	---	---	16.5	NE	0.28	22.6	-35.6	---	---	720.8	0.028	0.000	19.6	4	1
03/31/06	1:41 a	-22.3	-22.3	-22.3	---	---	12.2	NE	0.20	21.7	-33.9	---	---	720.5	0.028	0.000	19.6	4	1
03/31/06	1:42 a	-22.3	-22.3	-22.3	---	---	19.1	ENE	0.32	21.7	-36.4	---	---	720.6	0.028	0.000	19.6	4	1
03/31/06	1:43 a	-22.3	-22.3	-22.3	---	---	14.8	ENE	0.25	23.5	-35.0	---	---	720.4	0.028	0.000	19.6	4	1
03/31/06	1:44 a	-22.3	-22.3	-22.3	---	---	17.4	NE	0.29	23.5	-35.8	---	---	720.8	0.028	0.000	19.6	4	1
03/31/06	1:45 a	-22.3	-22.3	-22.3	---	---	15.7	ENE	0.26	23.5	-35.3	---	---	720.4	0.028	0.000	19.6	4	1
03/31/06	1:46 a	-22.3	-22.2	-22.3	---	---	19.1	ENE	0.32	24.3	-36.4	---	---	720.5	0.028	0.000	19.6	4	1
03/31/06	1:47 a	-22.3	-22.3	-22.3	---	---	19.1	ENE	0.32	21.7	-36.4	---	---	720.4	0.028	0.000	19.6	4	1
03/31/06	1:48 a	-22.3	-22.3	-22.3	---	---	13.9	NE	0.23	20.9	-34.6	---	---	720.5	0.028	0.000	19.6	4	1
03/31/06	1:49 a	-22.3	-22.3	-22.3	---	---	20.0	ENE	0.33	24.3	-36.7	---	---	720.4	0.028	0.000	19.6	4	1
03/31/06	1:50 a	-22.3	-22.3	-22.3	---	---	18.3	ENE	0.30	22.6	-36.2	---	---	720.7	0.028	0.000	19.6	4	1
03/31/06	1:51 a	-22.3	-22.3	-22.3	---	---	10.4	NNE	0.17	22.6	-33.1	---	---	720.6	0.028	0.000	19.6	4	1
03/31/06	1:52 a	-22.3	-22.3	-22.3	---	---	21.7	ENE	0.36	25.2	-37.2	---	---	720.6	0.028	0.000	19.6	4	1
03/31/06	1:53 a	-22.3	-22.3	-22.3	---	---	9.6	ENE	0.16	17.4	-32.7	---	---	720.6	0.028	0.000	19.5	4	1
03/31/06	1:54 a	-22.3	-22.3	-22.3	---	---	19.1	ENE	0.32	23.5	-36.4	---	---	720.5	0.028	0.000	19.5	4	1
03/31/06	1:55 a	-22.3	-22.2	-22.3	---	---	8.7	ENE	0.14	17.4	-32.2	---	---	720.6	0.028	0.000	19.5	4	1
03/31/06	1:56 a	-22.3	-22.3	-22.3	---	---	16.5	ENE	0.28	21.7	-35.6	---	---	720.4	0.028	0.000	19.5	4	1
03/31/06	1:57 a	-22.3	-22.2	-22.3	---	---	12.2	NE	0.20	20.0	-33.9	---	---	720.6	0.028	0.000	19.5	4	1
03/31/06	1:58 a	-22.2	-22.2	-22.2	---	---	13.9	ENE	0.23	21.7	-34.6	---	---	720.4	0.028	0.000	19.5	4	1
03/31/06	1:59 a	-22.2	-22.2	-22.2	---	---	16.5	ENE	0.28	22.6	-35.5	---	---	720.5	0.028	0.000	19.5	4	1
03/31/06	2:00 a	-22.2	-22.2	-22.2	---	---	20.9	ENE	0.35	22.6	-36.8	---	---	720.4	0.028	0.000	19.5	4	1
03/31/06	2:01 a	-22.2	-22.2	-22.2	---	---	15.7	ENE	0.26	19.1	-35.1	---	---	720.7	0.028	0.000	19.5	4	1
03/31/06	2:02 a	-22.2	-22.2	-22.2	---	---	15.7	ENE	0.26	25.2	-35.1	---	---	720.4	0.028	0.000	19.5	4	1
03/31/06	2:03 a	-22.2	-22.1	-22.2	---	---	20.9	ENE	0.35	24.3	-36.7	---	---	720.6	0.028	0.000	19.5	4	1
03/31/06	2:04 a	-22.2	-22.2	-22.2	---	---	8.7	NE	0.14	14.8	-32.0	---	---	720.5	0.028	0.000	19.5	4	1
03/31/06	2:05 a	-22.2	-22.2	-22.2	---	---	19.1	ENE	0.32	25.2	-36.2	---	---	720.4	0.028	0.000	19.5	4	1
03/31/06	2:06 a	-22.2	-22.1	-22.2	---	---	12.2	NE	0.20	19.1	-33.8	---	---	720.8	0.028	0.000	19.5	4	1
03/31/06	2:07 a	-22.2	-22.1	-22.2	---	---	8.7	N	0.14	18.3	-32.0	---	---	720.6	0.028	0.000	19.5	4	1
03/31/06	2:08 a	-22.2	-22.1	-22.2	---	---	13.9	ENE	0.23	18.3	-34.4	---	---	720.4	0.028	0.000	19.5	4	1
03/31/06	2:09 a	-22.2	-22.1	-22.2	---	---	21.7	ENE	0.36	22.6	-37.0	---	---	720.5	0.028	0.000	19.4	4	1
03/31/06	2:10 a	-22.2	-22.2	-22.2	---	---	12.2	ENE	0.20	20.0	-33.8	---	---	720.6	0.028	0.000	19.4	4	1
03/31/06	2:11 a	-22.2	-22.2	-22.3	---	---	19.1	ENE	0.32	21.7	-36.3	---	---	720.4	0.028	0.000	19.4	4	1
03/31/06	2:12 a	-22.3	-22.3	-22.3	---	---	18.3	NE	0.30	23.5	-36.1	---	---	720.6	0.028	0.000	19.4	4	1
03/31/06	2:13 a	-22.3	-22.3	-22.3	---	---	13.0	ENE	0.22	21.7	-34.3	---	---	720.4	0.028	0.000	19.4	4	1
03/31/06	2:14 a	-22.3	-22.3	-22.3	---	---	16.5	ENE	0.28	21.7	-35.6	---	---	720.5	0.028	0.000	19.4	4	1
03/31/06	2:15 a	-22.3	-22.3	-22.3	---	---	15.7	ENE	0.26	19.1	-35.3	---	---	720.6	0.028	0.000	19.4	4	1
03/31/06	2:16 a	-22.3	-22.3	-22.3	---	---	18.3	ENE	0.30	22.6	-36.1	---	---	720.6	0.028	0.000	19.4	4	1
03/31/06	2:17 a	-22.4	-22.4	-22.4	---	---	16.5	ENE	0.28	19.1	-35.7	---	---	720.5	0.028	0.000	19.4	4	1
03/31/06	2:18 a	-22.5	-22.5	-22.6	---	---	19.1	ENE	0.32	21.7	-36.7	---	---	720.5	0.028	0.000	19.4	4	1
03/31/06	2:19 a	-22.6	-22.6	-22.6	---	---	17.4	ENE	0.29	20.0	-36.2	---	---	720.6	0.028	0.000	19.4	4	1
03/31/06	2:20 a	-22.6	-22.6	-22.6	---	---	13.9	NE	0.23	19.1	-35.1	---	---	720.6	0.028	0.000	19.4	4	1
03/31/06	2:21 a	-22.6	-22.6	-22.6	---	---	18.3	ENE	0.30	20.9	-36.6	---	---	720.5	0.028	0.000	19.3	3	1
03/31/06	2:22 a	-22.6	-22.6	-22.7	---	---	17.4	NE	0.29	18.3	-36.3	---	---	720.6	0.028	0.000	19.3	4	1
03/31/06	2:23 a	-22.7	-22.7	-22.8	---	---	17.4	ENE	0.29	19.1	-36.4	---	---	720.5	0.029	0.000	19.3	4	1
03/31/06	2:24 a	-22.8	-22.8	-22.8	---	---	19.1	ENE	0.32	21.7	-37.1	---	---	720.5	0.029	0.000	19.3	3	1
03/31/06	2:25 a	-22.9	-22.9	-22.9	---	---	16.5	ENE	0.28	20.0	-36.4	---	---	720.5	0.029	0.000	19.3	4	1
03/31/06	2:26 a	-22.9	-22.9	-23.0	---	---	15.7	ENE	0.26	17.4	-36.1	---	---	720.5	0.029	0.000	19.3	4	1
03/31/06	2:27 a	-22.9	-22.9	-23.0	---	---	17.4	ENE	0.29	20.0	-36.7	---	---	720.6	0.029	0.000	19.3	3	1
03/31/06	2:28 a	-22.9	-22.9	-22.9	---	---	19.1	ENE	0.32	20.9	-37.3	---	---	720.5	0.029	0.000	19.3	3	1
03/31/06	2:29 a	-22.9	-22.9	-22.9	---	---	15.7	NE	0.26	22.6	-36.1	---	---	720.4	0.029	0.000	19.3	3	1
03/31/06	2:30 a	-22.9	-22.9	-22.9	---	---	16.5	ENE	0.28	20.0	-36.4	---	---	720.6	0.029	0.000	19.3	3	1
03/31/06	2:31 a	-22.9	-22.9	-23.0	---	---	16.5	ENE	0.28	18.3	-36.4	---	---	720.4	0.029	0.000	19.3	3	1
03/31/06	2:32 a	-22.9	-22.9	-22.9	---	---	16.5	ENE	0.28	17.4	-36.4	---	---	720.6	0.029	0.000	19.3	3	1
03/31/06	2:33 a	-23.0	-22.9	-23.0	---	---	18.3	ENE	0.30	20.9	-37.1	---	---	720.6	0.029	0.000	19.3	3	1
03/31/06	2:34 a	-23.1	-23.0	-23.1	---	---	14.8	NE	0.25	20.0	-35.9	---	---	720.6	0.029	0.000	19.3	3	1
03/31/06	2:35 a	-23.1	-23.1	-23.1	---	---	17.4	NE	0.29	20.0	-36.9	---	---	720.6	0.029	0.000	19.3	3	1
03/31/06	2:36 a	-23.1	-23.1	-23.2	---	---	16.5	ENE	0.28	19.1	-36.7	---	---	720.6	0.029	0.000	19.3	3	1
03/31/06	2:37 a	-23.2	-23.2	-23.3	---	---	19.1	ENE	0.32	22.6	-37.6	---	---	720.6	0.029	0.000	19.3	3	1
03/31/06	2:38 a	-23.2	-23.2	-23.3	---	---	13.0	NE	0.22	15.7	-35.5	---	---	720.6	0.029	0.000	19.3	3	1
03/31/06	2:39 a	-23.3	-23.2	-23.3	---	---	20.9	ENE	0.35	25.2	-38.2	---	---	720.5	0.029	0.000	19.3	3	1
03/31/06	2:40 a	-23.3	-23.3	-23.4	---	---	12.2	ENE	0.20	17.4	-35.2	---	---	720.6	0.029	0.000	19.3	3	1
03/31/06	2:41 a	-23.4	-23.3	-23.4	---	---	18.3	ENE	0.30	23.5	-37.6	---	---	720.6	0.029	0.000	19.3	3	1
03/31/06	2:42 a	-23.4	-23.3	-23.4	---	---	11.3	ENE	0.19	17.4	-34.9	---	---	720.6	0.029	0.000	19.3	3	1
03/31/06	2:43 a	-23.4	-23.4	-23.4	---	---	19.1	ENE	0.32	23.5	-37.9	---	---	720.6	0.029	0.000	19.3	3	1
03/31/06	2:44 a	-23.4	-23.4	-23.4	---	---	13.9	ENE	0.23	22.6	-36.1	---	---	720.5	0.029	0.000	19.3	3	1
03/31/06	2:45 a	-23.5	-23.5	-23.6	---	---	19.1	ENE	0.32	23.5	-38.0	---	---	720.7	0.029	0.000	19.3	3	1
03/31/06	2:46 a	-23.6	-23.6	-23.6	---	---	9.6	NE	0.16	13.0	-34.3	---	---	720.6	0.029	0.000	19.3	3	1
03/31/06	2:47 a	-23.6	-23.6	-23.7	---	---	20.9	ENE	0.35	23.5	-38.7	---	---	720.4	0.029	0.000	19.3	3	1
03/31/06	2:48 a	-23.7	-23.7	-23.7	---	---	12.2	ENE	0.20	19.1	-35.7	---	---	720.7	0.029	0.000	19.3	3	1
03/31/06	2:49 a	-23.7	-23.7	-23.7	---	---	15.7	ENE	0.26	22.6	-37.1	---	---	720.4	0.029	0.000	19.3	3	1
03/31/06	2:50 a	-23.8	-23.8	-23.8	---	---	18.3	ENE	0.30	20.9	-38.1	---	---	720.7	0.029	0.000	19.3	3	1
03/31/06	2:51 a	-23.8	-23.8	-23.8	---	---	18.3	ENE	0.30	20.0	-38.2	---	---	720.5	0.029	0.000	19.3	3	1
03/31/06	2:52 a	-23.9	-23.8	-23.9	---	---	18.3	ENE	0.30	20.0	-38.2	---	---	720.5	0.029	0.000	19.3	3	1
03/31/06	2:53 a	-23.9	-23.9	-23.9	---	---	19.1	ENE	0.32	22.6	-38.5	---	---	720.7	0.029	0.000	19.3	3	1
03/31/06	2:54 a	-23.9	-23.9	-24.0	---	---	8.7	NE	0.14	14.8	-34.2	---	---	720.5	0.029	0.000	19.3	3	1
03/31/06	2:55 a	-24.0	-23.9	-24.0	---	---	20.0	NE	0.33	23.5	-38.9	---	---	720.5	0.029	0.000	19.3	3	1
03/31/06	2:56 a	-24.0	-24.0	-24.1	---	---	12.2	NE	0.20	20.0	-36.1	---	---	720.7	0.029	0.000	19.3	3	1
03/31/06	2:57 a	-24.1	-24.0	-24.1	---	---	18.3	ENE	0.30	21.7	-38.4	---	---	720.6	0.029	0.000	19.3	3	1
03/31/06	2:58 a	-24.1	-24.1	-24.1	---	---	16.5	NE	0.28	18.3	-37.9	---	---	720.6	0.029	0.000	19.2	3	1
03/31/06	2:59 a	-24.2	-24.1	-24.2	---	---	17.4	ENE	0.29	21.7	-38.3	---	---	720.4	0.030	0.000	19.2	3	1
03/31/06	3:00 a	-24.3	-24.2	-24.3	---	---	19.1	ENE	0.32	20.9	-39.1	---	---	720.5	0.030	0.000	19.2	3	1
03/31/06	3:01 a	-24.3	-24.2	-24.3	---	---	18.3	ENE	0.30	20.0	-38.8	---	---	720.6	0.030	0.000	19.2	3	1
03/31/06	3:02 a	-24.3	-24.3	-24.3	---	---	18.3	ENE	0.30	22.6	-38.8	---	---	720.4	0.030	0.000	19.2	3	1
03/31/06	3:03 a	-24.4	-24.3	-24.4	---	---	19.1	ENE	0.32	22.6	-39.2	---	---	720.6	0.030	0.000	19.2	3	1
03/31/06	3:04 a	-24.4	-24.4	-24.4	---	---	18.3	NE	0.30	20.9	-38.9	---	---	720.6	0.030	0.000	19.2	3	1
03/31/06	3:05 a	-24.4	-24.4	-24.5	---	---	15.7	NE	0.26	18.3	-38.1	---	---	720.5	0.030	0.000	19.2	3	1
03/31/06	3:06 a	-24.5	-24.5	-24.5	---	---	19.1	ENE	0.32	20.9	-39.3	---	---	720.6	0.030	0.000	19.2	3	1
03/31/06	3:07 a	-24.6	-24.6	-24.6	---	---	19.1	ENE	0.32	20.0	-39.4	---	---	720.6	0.030	0.000	19.2	3	1
03/31/06	3:08 a	-24.6	-24.6	-24.6	---	---	16.5	ENE	0.28	19.1	-38.6	---	---	720.6	0.030	0.000	19.2	3	1
03/31/06	3:09 a	-24.6	-24.6	-24.6	---	---	20.9	ENE	0.35	22.6	-40.0	---	---	720.6	0.030	0.000	19.2	3	1
03/31/06	3:10 a	-24.7	-24.6	-24.7	---	---	18.3	ENE	0.30	20.9	-39.3	---	---	720.7	0.030	0.000	19.2	3	1
03/31/06	3:11 a	-24.7	-24.7	-24.7	---	---	19.1	ENE	0.32	22.6	-39.6	---	---	720.5	0.030	0.000	19.2	3	1
03/31/06	3:12 a	-24.7	-24.7	-24.7	---	---	18.3	ENE	0.30	21.7	-39.3	---	---	720.6	0.030	0.000	19.2	3	1
03/31/06	3:13 a	-24.7	-24.7	-24.8	---	---	16.5	ENE	0.28	19.1	-38.8	---	---	720.6	0.030	0.000	19.2	3	1
03/31/06	3:14 a	-24.8	-24.8	-24.8	---	---	17.4	ENE	0.29	19.1	-39.1	---	---	720.6	0.030	0.000	19.1	3	1
03/31/06	3:15 a	-24.8	-24.8	-24.8	---	---	17.4	ENE	0.29	19.1	-39.2	---	---	720.6	0.030	0.000	19.2	3	1
03/31/06	3:16 a	-24.8	-24.8	-24.9	---	---	16.5	ENE	0.28	19.1	-38.9	---	---	720.5	0.030	0.000	19.1	3	1
03/31/06	3:17 a	-24.9	-24.8	-24.9	---	---	20.0	ENE	0.33	22.6	-40.1	---	---	720.7	0.030	0.000	19.2	3	1
03/31/06	3:18 a	-24.9	-24.8	-24.9	---	---	16.5	ENE	0.28	18.3	-38.9	---	---	720.7	0.030	0.000	19.1	3	1
03/31/06	3:19 a	-24.9	-24.9	-24.9	---	---	18.3	ENE	0.30	20.0	-39.6	---	---	720.6	0.030	0.000	19.1	3	1
03/31/06	3:20 a	-24.9	-24.9	-24.9	---	---	15.7	ENE	0.26	19.1	-38.7	---	---	720.6	0.030	0.000	19.1	3	1
03/31/06	3:21 a	-24.9	-24.9	-24.9	---	---	19.1	NE	0.32	22.6	-39.9	---	---	720.5	0.030	0.000	19.1	3	1
03/31/06	3:22 a	-25.0	-24.9	-25.0	---	---	17.4	ENE	0.29	20.0	-39.4	---	---	720.7	0.030	0.000	19.1	3	1
03/31/06	3:23 a	-25.0	-25.0	-25.0	---	---	14.8	NE	0.25	16.5	-38.4	---	---	720.7	0.030	0.000	19.1	3	1
03/31/06	3:24 a	-25.0	-25.0	-25.0	---	---	17.4	ENE	0.29	22.6	-39.4	---	---	720.5	0.030	0.000	19.1	3	1
03/31/06	3:25 a	-25.0	-25.0	-25.1	---	---	19.1	ENE	0.32	20.9	-40.0	---	---	720.6	0.030	0.000	19.1	3	1
03/31/06	3:26 a	-25.0	-25.0	-25.1	---	---	17.4	ENE	0.29	19.1	-39.4	---	---	720.6	0.030	0.000	19.1	3	1
03/31/06	3:27 a	-25.0	-25.0	-25.1	---	---	14.8	ENE	0.25	15.7	-38.4	---	---	720.6	0.030	0.000	19.1	3	1
03/31/06	3:28 a	-25.0	-25.0	-25.0	---	---	18.3	NE	0.30	20.0	-39.7	---	---	720.7	0.030	0.000	19.1	3	1
03/31/06	3:29 a	-25.0	-25.0	-25.1	---	---	17.4	ENE	0.29	19.1	-39.4	---	---	720.5	0.030	0.000	19.1	3	1
03/31/06	3:30 a	-25.0	-24.9	-25.1	---	---	18.3	ENE	0.30	20.9	-39.7	---	---	720.7	0.030	0.000	19.1	3	1
03/31/06	3:31 a	-25.0	-25.0	-25.1	---	---	18.3	ENE	0.30	20.0	-39.7	---	---	720.6	0.030	0.000	19.1	3	1
03/31/06	3:32 a	-25.1	-25.0	-25.1	---	---	12.2	NE	0.20	19.1	-37.4	---	---	720.8	0.030	0.000	19.1	3	1
03/31/06	3:33 a	-25.1	-25.0	-25.1	---	---	19.1	NE	0.32	23.5	-40.1	---	---	720.5	0.030	0.000	19.1	3	1
03/31/06	3:34 a	-25.1	-25.0	-25.1	---	---	14.8	ENE	0.25	20.9	-38.6	---	---	720.7	0.030	0.000	19.1	3	1
03/31/06	3:35 a	-25.1	-25.1	-25.1	---	---	18.3	NE	0.30	20.0	-39.8	---	---	720.7	0.030	0.000	19.1	3	1
03/31/06	3:36 a	-25.1	-25.0	-25.1	---	---	17.4	ENE	0.29	20.0	-39.5	---	---	720.8	0.030	0.000	19.1	2	1
03/31/06	3:37 a	-25.1	-25.1	-25.1	---	---	14.8	NE	0.25	18.3	-38.6	---	---	720.7	0.030	0.000	19.1	3	1
03/31/06	3:38 a	-25.1	-25.1	-25.1	---	---	17.4	NE	0.29	23.5	-39.6	---	---	720.8	0.030	0.000	19.1	3	1
03/31/06	3:39 a	-25.1	-25.1	-25.1	---	---	10.4	NE	0.17	15.7	-36.7	---	---	720.7	0.030	0.000	19.1	3	1
03/31/06	3:40 a	-25.1	-25.1	-25.2	---	---	18.3	ENE	0.30	22.6	-39.8	---	---	720.7	0.030	0.000	19.1	3	1
03/31/06	3:41 a	-25.2	-25.2	-25.2	---	---	16.5	ENE	0.28	20.9	-39.3	---	---	720.6	0.030	0.000	19.1	3	1
03/31/06	3:42 a	-25.2	-25.1	-25.2	---	---	14.8	ENE	0.25	20.9	-38.7	---	---	720.7	0.030	0.000	19.1	2	1
03/31/06	3:43 a	-25.2	-25.2	-25.2	---	---	13.0	NE	0.22	23.5	-37.9	---	---	720.5	0.030	0.000	19.1	2	1
03/31/06	3:44 a	-25.2	-25.1	-25.2	---	---	20.9	ENE	0.35	24.3	-40.7	---	---	720.8	0.030	0.000	19.1	2	1
03/31/06	3:45 a	-25.2	-25.2	-25.2	---	---	7.8	ENE	0.13	15.7	-35.2	---	---	720.7	0.030	0.000	19.1	2	1
03/31/06	3:46 a	-25.2	-25.2	-25.2	---	---	17.4	ENE	0.29	21.7	-39.6	---	---	720.6	0.030	0.000	19.1	3	1
03/31/06	3:47 a	-25.2	-25.2	-25.2	---	---	15.7	ENE	0.26	21.7	-39.0	---	---	720.8	0.030	0.000	19.1	2	1
03/31/06	3:48 a	-25.2	-25.2	-25.2	---	---	14.8	ENE	0.25	21.7	-38.8	---	---	720.6	0.030	0.000	19.1	3	1
03/31/06	3:49 a	-25.2	-25.2	-25.2	---	---	18.3	ENE	0.30	21.7	-39.9	---	---	720.7	0.030	0.000	19.1	2	1
03/31/06	3:50 a	-25.2	-25.2	-25.2	---	---	17.4	ENE	0.29	19.1	-39.7	---	---	720.7	0.030	0.000	19.1	2	1
03/31/06	3:51 a	-25.2	-25.2	-25.2	---	---	19.1	ENE	0.32	20.9	-40.2	---	---	720.7	0.030	0.000	19.1	2	1
03/31/06	3:52 a	-25.2	-25.2	-25.2	---	---	14.8	ENE	0.25	18.3	-38.7	---	---	720.8	0.030	0.000	19.1	2	1
03/31/06	3:53 a	-25.2	-25.2	-25.2	---	---	17.4	ENE	0.29	22.6	-39.6	---	---	720.6	0.030	0.000	19.1	2	1
03/31/06	3:54 a	-25.2	-25.2	-25.2	---	---	20.0	ENE	0.33	21.7	-40.6	---	---	720.8	0.030	0.000	19.1	2	1
03/31/06	3:55 a	-25.2	-25.2	-25.3	---	---	18.3	ENE	0.30	19.1	-40.0	---	---	720.6	0.030	0.000	19.1	2	1
03/31/06	3:56 a	-25.2	-25.2	-25.2	---	---	17.4	ENE	0.29	19.1	-39.7	---	---	720.7	0.030	0.000	19.1	2	1
03/31/06	3:57 a	-25.2	-25.2	-25.2	---	---	16.5	ENE	0.28	19.1	-39.4	---	---	720.7	0.030	0.000	19.1	2	1
03/31/06	3:58 a	-25.2	-25.2	-25.2	---	---	18.3	ENE	0.30	20.0	-40.0	---	---	720.7	0.030	0.000	19.1	2	1
03/31/06	3:59 a	-25.3	-25.2	-25.3	---	---	16.5	ENE	0.28	19.1	-39.5	---	---	720.8	0.030	0.000	19.1	2	1
03/31/06	4:00 a	-25.3	-25.2	-25.3	---	---	15.7	ENE	0.26	17.4	-39.2	---	---	720.7	0.030	0.000	19.1	2	1
03/31/06	4:01 a	-25.3	-25.3	-25.3	---	---	18.3	ENE	0.30	20.9	-40.1	---	---	720.8	0.030	0.000	19.0	2	1
03/31/06	4:02 a	-25.3	-25.3	-25.3	---	---	17.4	ENE	0.29	21.7	-39.8	---	---	720.7	0.030	0.000	19.0	2	1
03/31/06	4:03 a	-25.3	-25.3	-25.3	---	---	18.3	ENE	0.30	20.0	-40.2	---	---	720.8	0.030	0.000	19.0	2	1
03/31/06	4:04 a	-25.3	-25.3	-25.3	---	---	15.7	ENE	0.26	17.4	-39.2	---	---	720.8	0.030	0.000	19.0	2	1
03/31/06	4:05 a	-25.3	-25.3	-25.3	---	---	20.0	ENE	0.33	22.6	-40.7	---	---	720.6	0.030	0.000	19.0	2	1
03/31/06	4:06 a	-25.3	-25.3	-25.3	---	---	19.1	ENE	0.32	20.9	-40.4	---	---	720.8	0.030	0.000	19.0	2	1
03/31/06	4:07 a	-25.3	-25.3	-25.3	---	---	15.7	ENE	0.26	17.4	-39.2	---	---	720.7	0.030	0.000	19.0	2	1
03/31/06	4:08 a	-25.3	-25.3	-25.4	---	---	20.0	ENE	0.33	22.6	-40.7	---	---	720.6	0.030	0.000	18.9	2	1
03/31/06	4:09 a	-25.4	-25.3	-25.4	---	---	20.0	ENE	0.33	21.7	-40.8	---	---	720.8	0.030	0.000	18.9	2	1
03/31/06	4:10 a	-25.4	-25.4	-25.4	---	---	17.4	ENE	0.29	21.7	-39.9	---	---	720.8	0.030	0.000	18.9	2	1
03/31/06	4:11 a	-25.4	-25.3	-25.4	---	---	15.7	ENE	0.26	17.4	-39.3	---	---	720.8	0.030	0.000	18.9	2	1
03/31/06	4:12 a	-25.4	-25.3	-25.4	---	---	16.5	ENE	0.28	20.0	-39.6	---	---	720.7	0.030	0.000	18.9	2	1
03/31/06	4:13 a	-25.4	-25.4	-25.4	---	---	17.4	ENE	0.29	20.0	-39.9	---	---	720.8	0.030	0.000	18.9	2	1
03/31/06	4:14 a	-25.4	-25.4	-25.4	---	---	18.3	ENE	0.30	20.0	-40.2	---	---	720.8	0.030	0.000	18.9	2	1
03/31/06	4:15 a	-25.4	-25.3	-25.4	---	---	17.4	ENE	0.29	20.0	-39.9	---	---	720.9	0.030	0.000	18.9	2	1
03/31/06	4:16 a	-25.4	-25.4	-25.4	---	---	17.4	ENE	0.29	20.0	-40.0	---	---	720.7	0.030	0.000	18.9	2	1
03/31/06	4:17 a	-25.4	-25.4	-25.4	---	---	21.7	ENE	0.36	25.2	-41.3	---	---	720.9	0.030	0.000	18.9	2	1
03/31/06	4:18 a	-25.4	-25.4	-25.5	---	---	16.5	ENE	0.28	18.3	-39.7	---	---	720.8	0.030	0.000	18.9	2	1
03/31/06	4:19 a	-25.4	-25.4	-25.5	---	---	19.1	ENE	0.32	20.0	-40.6	---	---	720.9	0.030	0.000	18.9	2	1
03/31/06	4:20 a	-25.4	-25.4	-25.4	---	---	17.4	ENE	0.29	19.1	-40.0	---	---	720.9	0.030	0.000	18.9	2	1
03/31/06	4:21 a	-25.4	-25.4	-25.4	---	---	17.4	ENE	0.29	19.1	-40.0	---	---	720.8	0.030	0.000	18.9	2	1
03/31/06	4:22 a	-25.4	-25.4	-25.4	---	---	18.3	ENE	0.30	20.9	-40.3	---	---	720.8	0.030	0.000	18.9	2	1
03/31/06	4:23 a	-25.5	-25.4	-25.5	---	---	20.0	ENE	0.33	21.7	-40.9	---	---	720.8	0.030	0.000	18.9	2	1
03/31/06	4:24 a	-25.4	-25.4	-25.5	---	---	15.7	ENE	0.26	18.3	-39.4	---	---	720.9	0.030	0.000	18.9	2	1
03/31/06	4:25 a	-25.4	-25.4	-25.4	---	---	16.5	NE	0.28	19.1	-39.7	---	---	720.9	0.030	0.000	18.9	2	1
03/31/06	4:26 a	-25.4	-25.4	-25.4	---	---	16.5	ENE	0.28	18.3	-39.7	---	---	720.8	0.030	0.000	18.9	2	1
03/31/06	4:27 a	-25.4	-25.4	-25.4	---	---	17.4	ENE	0.29	19.1	-40.0	---	---	720.8	0.030	0.000	18.9	2	1
03/31/06	4:28 a	-25.4	-25.4	-25.4	---	---	16.5	ENE	0.28	20.0	-39.7	---	---	720.9	0.030	0.000	18.9	2	1
03/31/06	4:29 a	-25.4	-25.4	-25.5	---	---	20.9	ENE	0.35	23.5	-41.1	---	---	720.9	0.030	0.000	18.9	2	1
03/31/06	4:30 a	-25.5	-25.4	-25.5	---	---	17.4	ENE	0.29	19.1	-40.1	---	---	720.8	0.030	0.000	18.9	2	1
03/31/06	4:31 a	-25.4	-25.4	-25.4	---	---	19.1	ENE	0.32	23.5	-40.6	---	---	720.7	0.030	0.000	18.9	2	1
03/31/06	4:32 a	-25.5	-25.4	-25.5	---	---	20.9	ENE	0.35	22.6	-41.2	---	---	720.8	0.030	0.000	18.9	2	1
03/31/06	4:33 a	-25.4	-25.4	-25.4	---	---	17.4	ENE	0.29	19.1	-40.0	---	---	720.9	0.030	0.000	18.9	2	1
03/31/06	4:34 a	-25.4	-25.4	-25.4	---	---	17.4	ENE	0.29	20.0	-40.0	---	---	720.8	0.030	0.000	18.9	2	1
03/31/06	4:35 a	-25.4	-25.4	-25.4	---	---	16.5	ENE	0.28	21.7	-39.7	---	---	720.8	0.030	0.000	18.9	2	1
03/31/06	4:36 a	-25.4	-25.4	-25.4	---	---	21.7	ENE	0.36	24.3	-41.3	---	---	720.8	0.030	0.000	18.9	2	1
03/31/06	4:37 a	-25.4	-25.4	-25.4	---	---	15.7	ENE	0.26	19.1	-39.4	---	---	720.9	0.030	0.000	18.9	2	1
03/31/06	4:38 a	-25.4	-25.4	-25.4	---	---	18.3	ENE	0.30	20.0	-40.2	---	---	721.0	0.030	0.000	18.9	2	1
03/31/06	4:39 a	-25.4	-25.4	-25.4	---	---	20.0	ENE	0.33	21.7	-40.8	---	---	720.7	0.030	0.000	18.9	2	1
03/31/06	4:40 a	-25.4	-25.4	-25.4	---	---	17.4	ENE	0.29	20.9	-40.0	---	---	720.8	0.030	0.000	18.9	2	1
03/31/06	4:41 a	-25.4	-25.4	-25.4	---	---	18.3	ENE	0.30	20.0	-40.3	---	---	720.9	0.030	0.000	18.9	2	1
03/31/06	4:42 a	-25.4	-25.4	-25.4	---	---	18.3	ENE	0.30	22.6	-40.2	---	---	720.9	0.030	0.000	18.8	2	1
03/31/06	4:43 a	-25.4	-25.4	-25.4	---	---	19.1	ENE	0.32	21.7	-40.6	---	---	720.9	0.030	0.000	18.8	2	1
03/31/06	4:44 a	-25.4	-25.4	-25.4	---	---	16.5	NE	0.28	18.3	-39.7	---	---	720.9	0.030	0.000	18.8	2	1
03/31/06	4:45 a	-25.4	-25.4	-25.4	---	---	20.0	ENE	0.33	22.6	-40.8	---	---	720.8	0.030	0.000	18.8	2	1
03/31/06	4:46 a	-25.4	-25.4	-25.4	---	---	17.4	ENE	0.29	20.0	-40.0	---	---	720.8	0.030	0.000	18.8	2	1
03/31/06	4:47 a	-25.4	-25.4	-25.5	---	---	18.3	ENE	0.30	21.7	-40.3	---	---	720.8	0.030	0.000	18.8	2	1
03/31/06	4:48 a	-25.4	-25.4	-25.5	---	---	18.3	ENE	0.30	20.9	-40.3	---	---	720.8	0.030	0.000	18.8	2	1
03/31/06	4:49 a	-25.4	-25.4	-25.4	---	---	18.3	ENE	0.30	21.7	-40.3	---	---	720.8	0.030	0.000	18.8	2	1
03/31/06	4:50 a	-25.4	-25.4	-25.4	---	---	17.4	NE	0.29	20.9	-39.9	---	---	720.9	0.030	0.000	18.8	2	1
03/31/06	4:51 a	-25.4	-25.4	-25.4	---	---	18.3	ENE	0.30	21.7	-40.2	---	---	720.8	0.030	0.000	18.8	2	1
03/31/06	4:52 a	-25.4	-25.4	-25.4	---	---	17.4	ENE	0.29	20.9	-39.9	---	---	720.9	0.030	0.000	18.8	2	1
03/31/06	4:53 a	-25.3	-25.3	-25.3	---	---	17.4	ENE	0.29	20.0	-39.8	---	---	720.9	0.030	0.000	18.9	2	1
03/31/06	4:54 a	-25.2	-25.2	-25.3	---	---	13.0	NE	0.22	18.3	-38.1	---	---	720.7	0.030	0.000	18.9	2	1
03/31/06	4:55 a	-25.2	-25.2	-25.2	---	---	20.9	ENE	0.35	22.6	-40.7	---	---	720.6	0.030	0.000	18.9	2	1
03/31/06	4:56 a	-25.1	-25.1	-25.2	---	---	18.3	NE	0.30	22.6	-39.8	---	---	721.0	0.030	0.000	18.9	2	1
03/31/06	4:57 a	-25.0	-24.9	-25.0	---	---	12.2	ENE	0.20	18.3	-37.3	---	---	720.7	0.030	0.000	18.9	2	1
03/31/06	4:58 a	-24.9	-24.9	-24.9	---	---	21.7	ENE	0.36	25.2	-40.7	---	---	720.7	0.030	0.000	18.9	2	1
03/31/06	4:59 a	-24.8	-24.8	-24.9	---	---	16.5	ENE	0.28	20.0	-38.9	---	---	720.9	0.030	0.000	18.9	2	1
03/31/06	5:00 a	-24.7	-24.7	-24.8	---	---	13.9	NE	0.23	18.3	-37.8	---	---	720.8	0.030	0.000	18.9	2	1
03/31/06	5:01 a	-24.7	-24.6	-24.7	---	---	20.0	ENE	0.33	20.9	-39.8	---	---	720.6	0.030	0.000	18.9	2	1
03/31/06	5:02 a	-24.6	-24.5	-24.6	---	---	18.3	ENE	0.30	21.7	-39.1	---	---	720.8	0.030	0.000	18.9	2	1
03/31/06	5:03 a	-24.4	-24.4	-24.4	---	---	17.4	ENE	0.29	21.7	-38.7	---	---	720.7	0.030	0.000	18.9	2	1
03/31/06	5:04 a	-24.4	-24.4	-24.4	---	---	20.0	ENE	0.33	21.7	-39.5	---	---	720.8	0.030	0.000	18.9	2	1
03/31/06	5:05 a	-24.3	-24.3	-24.3	---	---	18.3	ENE	0.30	19.1	-38.8	---	---	720.8	0.030	0.000	18.9	2	1
03/31/06	5:06 a	-24.3	-24.2	-24.3	---	---	19.1	ENE	0.32	21.7	-39.1	---	---	720.8	0.030	0.000	18.9	2	1
03/31/06	5:07 a	-24.2	-24.1	-24.2	---	---	17.4	ENE	0.29	20.0	-38.3	---	---	720.9	0.030	0.000	18.9	2	1
03/31/06	5:08 a	-24.1	-24.1	-24.2	---	---	17.4	ENE	0.29	19.1	-38.3	---	---	720.7	0.029	0.000	18.9	2	1
03/31/06	5:09 a	-24.1	-24.0	-24.1	---	---	19.1	ENE	0.32	21.7	-38.7	---	---	720.8	0.029	0.000	18.9	2	1
03/31/06	5:10 a	-23.9	-23.9	-24.0	---	---	18.3	ENE	0.30	20.0	-38.3	---	---	720.8	0.029	0.000	18.8	2	1
03/31/06	5:11 a	-23.9	-23.9	-23.9	---	---	19.1	ENE	0.32	20.9	-38.5	---	---	720.8	0.029	0.000	18.8	2	1
03/31/06	5:12 a	-23.8	-23.8	-23.9	---	---	16.5	ENE	0.28	20.0	-37.6	---	---	720.8	0.029	0.000	18.8	2	1
03/31/06	5:13 a	-23.8	-23.7	-23.8	---	---	20.0	ENE	0.33	23.5	-38.6	---	---	720.9	0.029	0.000	18.8	2	1
03/31/06	5:14 a	-23.7	-23.7	-23.8	---	---	17.4	ENE	0.29	20.0	-37.7	---	---	720.9	0.029	0.000	18.8	2	1
03/31/06	5:15 a	-23.7	-23.7	-23.7	---	---	19.1	ENE	0.32	20.9	-38.2	---	---	720.7	0.029	0.000	18.8	2	1
03/31/06	5:16 a	-23.7	-23.6	-23.7	---	---	20.0	ENE	0.33	21.7	-38.5	---	---	720.9	0.029	0.000	18.8	2	1
03/31/06	5:17 a	-23.6	-23.6	-23.7	---	---	15.7	ENE	0.26	20.0	-37.0	---	---	720.8	0.029	0.000	18.8	2	1
03/31/06	5:18 a	-23.6	-23.6	-23.6	---	---	20.0	ENE	0.33	21.7	-38.3	---	---	720.8	0.029	0.000	18.8	2	1
03/31/06	5:19 a	-23.6	-23.5	-23.6	---	---	19.1	ENE	0.32	22.6	-38.1	---	---	720.6	0.029	0.000	18.8	2	1
03/31/06	5:20 a	-23.6	-23.5	-23.6	---	---	15.7	ENE	0.26	19.1	-36.9	---	---	720.9	0.029	0.000	18.8	2	1
03/31/06	5:21 a	-23.5	-23.5	-23.6	---	---	20.0	ENE	0.33	22.6	-38.3	---	---	720.8	0.029	0.000	18.8	2	1
03/31/06	5:22 a	-23.5	-23.5	-23.6	---	---	12.2	NE	0.20	15.7	-35.4	---	---	721.0	0.029	0.000	18.8	2	1
03/31/06	5:23 a	-23.5	-23.5	-23.5	---	---	20.0	ENE	0.33	22.6	-38.3	---	---	720.8	0.029	0.000	18.8	2	1
03/31/06	5:24 a	-23.5	-23.5	-23.6	---	---	16.5	ENE	0.28	20.9	-37.2	---	---	720.7	0.029	0.000	18.8	2	1
03/31/06	5:25 a	-23.6	-23.5	-23.6	---	---	18.3	ENE	0.30	20.0	-37.8	---	---	720.9	0.029	0.000	18.8	2	1
03/31/06	5:26 a	-23.6	-23.6	-23.7	---	---	20.0	ENE	0.33	23.5	-38.4	---	---	720.7	0.029	0.000	18.8	2	1
03/31/06	5:27 a	-23.7	-23.6	-23.7	---	---	17.4	ENE	0.29	19.1	-37.7	---	---	720.8	0.029	0.000	18.8	2	1
03/31/06	5:28 a	-23.7	-23.7	-23.7	---	---	18.3	ENE	0.30	20.0	-38.0	---	---	720.8	0.029	0.000	18.7	2	1
03/31/06	5:29 a	-23.8	-23.7	-23.8	---	---	19.1	ENE	0.32	20.9	-38.4	---	---	720.9	0.029	0.000	18.7	2	1
03/31/06	5:30 a	-23.8	-23.8	-23.9	---	---	17.4	ENE	0.29	19.1	-37.9	---	---	720.8	0.029	0.000	18.7	2	1
03/31/06	5:31 a	-23.9	-23.9	-24.0	---	---	18.3	ENE	0.30	22.6	-38.3	---	---	720.9	0.029	0.000	18.7	2	1
03/31/06	5:32 a	-24.0	-24.0	-24.1	---	---	16.5	ENE	0.28	23.5	-37.8	---	---	720.7	0.029	0.000	18.7	2	1
03/31/06	5:33 a	-24.1	-24.1	-24.1	---	---	20.0	ENE	0.33	21.7	-39.1	---	---	721.0	0.029	0.000	18.7	2	1
03/31/06	5:34 a	-24.2	-24.1	-24.3	---	---	14.8	NE	0.25	22.6	-37.4	---	---	720.7	0.030	0.000	18.7	2	1
03/31/06	5:35 a	-24.3	-24.3	-24.3	---	---	22.6	ENE	0.38	26.1	-40.1	---	---	721.0	0.030	0.000	18.7	1	1
03/31/06	5:36 a	-24.4	-24.3	-24.4	---	---	12.2	NE	0.20	22.6	-36.6	---	---	720.8	0.030	0.000	18.7	2	1
03/31/06	5:37 a	-24.5	-24.4	-24.5	---	---	20.9	ENE	0.35	24.3	-39.8	---	---	721.0	0.030	0.000	18.7	2	1
03/31/06	5:38 a	-24.6	-24.5	-24.6	---	---	12.2	NE	0.20	21.7	-36.8	---	---	720.8	0.030	0.000	18.7	2	1
03/31/06	5:39 a	-24.6	-24.6	-24.7	---	---	17.4	NE	0.29	22.6	-38.9	---	---	721.1	0.030	0.000	18.7	1	1
03/31/06	5:40 a	-24.7	-24.7	-24.8	---	---	19.1	ENE	0.32	21.7	-39.6	---	---	721.0	0.030	0.000	18.6	1	1
03/31/06	5:41 a	-24.8	-24.8	-24.9	---	---	16.5	ENE	0.28	24.3	-38.9	---	---	720.8	0.030	0.000	18.6	2	1
03/31/06	5:42 a	-24.9	-24.9	-24.9	---	---	16.5	ENE	0.28	23.5	-38.9	---	---	720.9	0.030	0.000	18.6	2	1
03/31/06	5:43 a	-25.0	-24.9	-25.0	---	---	19.1	ENE	0.32	24.3	-40.0	---	---	721.1	0.030	0.000	18.6	1	1
03/31/06	5:44 a	-25.1	-25.1	-25.1	---	---	16.5	ENE	0.28	21.7	-39.2	---	---	720.9	0.030	0.000	18.6	2	1
03/31/06	5:45 a	-25.2	-25.2	-25.2	---	---	17.4	ENE	0.29	20.9	-39.6	---	---	720.9	0.030	0.000	18.6	1	1
03/31/06	5:46 a	-25.3	-25.2	-25.3	---	---	20.0	ENE	0.33	22.6	-40.6	---	---	720.9	0.030	0.000	18.6	1	1
03/31/06	5:47 a	-25.3	-25.3	-25.4	---	---	15.7	NE	0.26	20.9	-39.2	---	---	720.9	0.030	0.000	18.6	1	1
03/31/06	5:48 a	-25.4	-25.4	-25.4	---	---	19.1	ENE	0.32	21.7	-40.5	---	---	720.8	0.030	0.000	18.6	2	1
03/31/06	5:49 a	-25.5	-25.4	-25.6	---	---	20.0	ENE	0.33	22.6	-40.9	---	---	720.9	0.030	0.000	18.6	1	1
03/31/06	5:50 a	-25.5	-25.5	-25.6	---	---	18.3	NE	0.30	20.9	-40.4	---	---	720.8	0.030	0.000	18.6	1	1
03/31/06	5:51 a	-25.6	-25.6	-25.6	---	---	20.9	ENE	0.35	22.6	-41.3	---	---	720.8	0.031	0.000	18.6	1	1
03/31/06	5:52 a	-25.7	-25.6	-25.7	---	---	20.0	ENE	0.33	21.7	-41.2	---	---	720.9	0.031	0.000	18.6	1	1
03/31/06	5:53 a	-25.7	-25.7	-25.8	---	---	20.0	ENE	0.33	22.6	-41.2	---	---	720.8	0.031	0.000	18.6	1	1
03/31/06	5:54 a	-25.8	-25.8	-25.8	---	---	20.9	ENE	0.35	21.7	-41.6	---	---	720.8	0.031	0.000	18.6	1	1
03/31/06	5:55 a	-25.8	-25.8	-25.8	---	---	15.7	ENE	0.26	19.1	-39.9	---	---	720.8	0.031	0.000	18.6	1	1
03/31/06	5:56 a	-25.9	-25.9	-25.9	---	---	20.0	ENE	0.33	23.5	-41.4	---	---	720.9	0.031	0.000	18.6	1	1
03/31/06	5:57 a	-25.9	-25.9	-26.0	---	---	19.1	ENE	0.32	21.7	-41.2	---	---	720.8	0.031	0.000	18.6	1	1
03/31/06	5:58 a	-26.0	-26.0	-26.1	---	---	17.4	ENE	0.29	22.6	-40.7	---	---	720.8	0.031	0.000	18.6	1	1
03/31/06	5:59 a	-26.1	-26.0	-26.1	---	---	19.1	ENE	0.32	21.7	-41.4	---	---	720.9	0.031	0.000	18.6	1	1
03/31/06	6:00 a	-26.1	-26.1	-26.1	---	---	20.0	ENE	0.33	23.5	-41.7	---	---	720.9	0.031	0.000	18.6	1	1
03/31/06	6:01 a	-26.1	-26.1	-26.2	---	---	13.0	NE	0.22	20.9	-39.2	---	---	720.9	0.031	0.000	18.6	1	1
03/31/06	6:02 a	-26.2	-26.1	-26.2	---	---	20.0	NE	0.33	21.7	-41.8	---	---	720.9	0.031	0.000	18.6	1	1
03/31/06	6:03 a	-26.2	-26.2	-26.2	---	---	18.3	NE	0.30	20.9	-41.2	---	---	720.8	0.031	0.000	18.6	1	1
03/31/06	6:04 a	-26.2	-26.2	-26.2	---	---	20.0	ENE	0.33	23.5	-41.9	---	---	721.0	0.031	0.000	18.6	1	1
03/31/06	6:05 a	-26.2	-26.2	-26.3	---	---	13.0	NE	0.22	18.3	-39.3	---	---	721.0	0.031	0.000	18.6	1	1
03/31/06	6:06 a	-26.2	-26.2	-26.3	---	---	20.0	ENE	0.33	26.1	-41.9	---	---	720.6	0.031	0.000	18.6	1	1
03/31/06	6:07 a	-26.3	-26.3	-26.3	---	---	20.9	ENE	0.35	27.0	-42.2	---	---	721.0	0.031	0.000	18.5	1	1
03/31/06	6:08 a	-26.3	-26.3	-26.3	---	---	7.8	NE	0.13	13.9	-36.6	---	---	721.1	0.031	0.000	18.5	1	1
03/31/06	6:09 a	-26.3	-26.3	-26.3	---	---	20.0	ENE	0.33	22.6	-41.9	---	---	720.9	0.031	0.000	18.5	1	1
03/31/06	6:10 a	-26.3	-26.3	-26.3	---	---	19.1	NE	0.32	20.9	-41.7	---	---	720.9	0.031	0.000	18.5	1	1
03/31/06	6:11 a	-26.3	-26.3	-26.3	---	---	16.5	ENE	0.28	26.1	-40.8	---	---	720.8	0.031	0.000	18.5	1	1
03/31/06	6:12 a	-26.3	-26.3	-26.3	---	---	18.3	NE	0.30	24.3	-41.4	---	---	721.0	0.031	0.000	18.5	1	1
03/31/06	6:13 a	-26.3	-26.3	-26.4	---	---	19.1	ENE	0.32	21.7	-41.7	---	---	721.0	0.031	0.000	18.5	1	1
03/31/06	6:14 a	-26.4	-26.4	-26.4	---	---	12.2	NE	0.20	17.4	-39.1	---	---	721.0	0.031	0.000	18.5	1	1
03/31/06	6:15 a	-26.4	-26.3	-26.4	---	---	15.7	ENE	0.26	26.1	-40.6	---	---	720.8	0.031	0.000	18.5	1	1
03/31/06	6:16 a	-26.4	-26.4	-26.4	---	---	22.6	ENE	0.38	26.1	-42.9	---	---	720.9	0.031	0.000	18.5	1	1
03/31/06	6:17 a	-26.4	-26.4	-26.4	---	---	13.9	ENE	0.23	20.9	-39.9	---	---	720.9	0.031	0.000	18.5	1	1
03/31/06	6:18 a	-26.4	-26.4	-26.4	---	---	20.0	ENE	0.33	23.5	-42.1	---	---	721.0	0.031	0.000	18.5	1	1
03/31/06	6:19 a	-26.4	-26.4	-26.4	---	---	13.9	NE	0.23	20.0	-39.9	---	---	720.9	0.031	0.000	18.5	1	1
03/31/06	6:20 a	-26.4	-26.4	-26.4	---	---	21.7	ENE	0.36	24.3	-42.7	---	---	720.9	0.031	0.000	18.4	1	1
03/31/06	6:21 a	-26.4	-26.4	-26.4	---	---	19.1	ENE	0.32	22.6	-41.8	---	---	720.9	0.031	0.000	18.5	1	1
03/31/06	6:22 a	-26.4	-26.4	-26.4	---	---	15.7	ENE	0.26	19.1	-40.6	---	---	720.9	0.031	0.000	18.5	1	1
03/31/06	6:23 a	-26.4	-26.4	-26.4	---	---	19.1	ENE	0.32	22.6	-41.8	---	---	720.9	0.031	0.000	18.5	1	1
03/31/06	6:24 a	-26.4	-26.4	-26.4	---	---	20.0	ENE	0.33	21.7	-42.2	---	---	720.9	0.031	0.000	18.5	1	1
03/31/06	6:25 a	-26.4	-26.4	-26.4	---	---	15.7	ENE	0.26	20.9	-40.7	---	---	721.0	0.031	0.000	18.4	1	1
03/31/06	6:26 a	-26.4	-26.4	-26.4	---	---	17.4	ENE	0.29	21.7	-41.3	---	---	720.9	0.031	0.000	18.5	1	1
03/31/06	6:27 a	-26.4	-26.4	-26.4	---	---	19.1	ENE	0.32	21.7	-41.9	---	---	720.8	0.031	0.000	18.4	1	1
03/31/06	6:28 a	-26.4	-26.4	-26.4	---	---	15.7	ENE	0.26	20.0	-40.7	---	---	721.0	0.031	0.000	18.5	1	1
03/31/06	6:29 a	-26.4	-26.4	-26.4	---	---	19.1	ENE	0.32	21.7	-41.9	---	---	720.9	0.031	0.000	18.4	1	1
03/31/06	6:30 a	-26.4	-26.4	-26.4	---	---	18.3	ENE	0.30	22.6	-41.6	---	---	720.8	0.031	0.000	18.5	1	1
03/31/06	6:31 a	-26.4	-26.4	-26.4	---	---	17.4	ENE	0.29	20.0	-41.2	---	---	721.0	0.031	0.000	18.5	1	1
03/31/06	6:32 a	-26.4	-26.4	-26.4	---	---	15.7	ENE	0.26	20.9	-40.7	---	---	720.9	0.031	0.000	18.5	1	1
03/31/06	6:33 a	-26.4	-26.4	-26.4	---	---	19.1	NE	0.32	21.7	-41.9	---	---	721.0	0.031	0.000	18.4	1	1
03/31/06	6:34 a	-26.4	-26.4	-26.4	---	---	18.3	ENE	0.30	21.7	-41.6	---	---	720.9	0.031	0.000	18.4	1	1
03/31/06	6:35 a	-26.4	-26.4	-26.4	---	---	12.2	NE	0.20	16.5	-39.2	---	---	721.0	0.031	0.000	18.4	1	1
03/31/06	6:36 a	-26.4	-26.4	-26.4	---	---	19.1	ENE	0.32	23.5	-41.9	---	---	720.8	0.031	0.000	18.4	1	1
03/31/06	6:37 a	-26.4	-26.4	-26.4	---	---	13.0	NE	0.22	18.3	-39.6	---	---	721.0	0.031	0.000	18.4	1	1
03/31/06	6:38 a	-26.4	-26.4	-26.4	---	---	20.0	ENE	0.33	24.3	-42.1	---	---	721.0	0.031	0.000	18.4	1	1
03/31/06	6:39 a	-26.4	-26.4	-26.4	---	---	14.8	ENE	0.25	16.5	-40.3	---	---	721.0	0.031	0.000	18.4	1	1
03/31/06	6:40 a	-26.4	-26.4	-26.4	---	---	17.4	ENE	0.29	20.0	-41.2	---	---	720.9	0.031	0.000	18.4	1	1
03/31/06	6:41 a	-26.4	-26.4	-26.4	---	---	13.9	NE	0.23	19.1	-39.9	---	---	721.0	0.031	0.000	18.4	1	1
03/31/06	6:42 a	-26.4	-26.4	-26.4	---	---	19.1	ENE	0.32	26.1	-41.8	---	---	720.8	0.031	0.000	18.4	1	1
03/31/06	6:43 a	-26.4	-26.4	-26.4	---	---	17.4	ENE	0.29	19.1	-41.2	---	---	721.0	0.031	0.000	18.4	1	1
03/31/06	6:44 a	-26.4	-26.4	-26.4	---	---	13.0	NE	0.22	19.1	-39.6	---	---	720.9	0.031	0.000	18.4	1	1
03/31/06	6:45 a	-26.4	-26.3	-26.4	---	---	20.0	ENE	0.33	21.7	-42.1	---	---	720.9	0.031	0.000	18.4	1	1
03/31/06	6:46 a	-26.3	-26.3	-26.4	---	---	16.5	ENE	0.28	18.3	-40.8	---	---	720.9	0.031	0.000	18.4	1	1
03/31/06	6:47 a	-26.3	-26.3	-26.4	---	---	15.7	ENE	0.26	16.5	-40.6	---	---	720.9	0.031	0.000	18.4	1	1
03/31/06	6:48 a	-26.3	-26.3	-26.3	---	---	18.3	ENE	0.30	23.5	-41.4	---	---	720.9	0.031	0.000	18.4	1	1
03/31/06	6:49 a	-26.3	-26.3	-26.3	---	---	14.8	ENE	0.25	20.9	-40.2	---	---	721.0	0.031	0.000	18.4	1	1
03/31/06	6:50 a	-26.3	-26.3	-26.3	---	---	18.3	ENE	0.30	21.7	-41.4	---	---	720.9	0.031	0.000	18.4	1	1
03/31/06	6:51 a	-26.3	-26.3	-26.3	---	---	14.8	NE	0.25	19.1	-40.2	---	---	721.1	0.031	0.000	18.4	1	1
03/31/06	6:52 a	-26.3	-26.3	-26.3	---	---	11.3	NNE	0.19	20.9	-38.6	---	---	720.9	0.031	0.000	18.4	1	1
03/31/06	6:53 a	-26.3	-26.3	-26.3	---	---	19.1	NE	0.32	21.7	-41.7	---	---	721.0	0.031	0.000	18.4	1	1
03/31/06	6:54 a	-26.3	-26.2	-26.3	---	---	10.4	NNE	0.17	13.9	-38.1	---	---	720.9	0.031	0.000	18.4	1	1
03/31/06	6:55 a	-26.2	-26.2	-26.2	---	---	20.0	ENE	0.33	22.6	-41.9	---	---	720.9	0.031	0.000	18.4	1	1
03/31/06	6:56 a	-26.2	-26.2	-26.2	---	---	15.7	ENE	0.26	20.9	-40.4	---	---	721.1	0.031	0.000	18.4	1	1
03/31/06	6:57 a	-26.2	-26.1	-26.2	---	---	12.2	ENE	0.20	20.9	-38.8	---	---	720.9	0.031	0.000	18.4	1	1
03/31/06	6:58 a	-26.2	-26.1	-26.2	---	---	16.5	ENE	0.28	20.9	-40.6	---	---	721.0	0.031	0.000	18.4	1	1
03/31/06	6:59 a	-26.2	-26.1	-26.2	---	---	19.1	ENE	0.32	21.7	-41.6	---	---	720.9	0.031	0.000	18.4	1	1
03/31/06	7:00 a	-26.2	-26.1	-26.2	---	---	14.8	NE	0.25	20.0	-40.0	---	---	721.0	0.031	0.000	18.4	1	1
03/31/06	7:01 a	-26.1	-26.1	-26.1	---	---	9.6	NE	0.16	17.4	-37.4	---	---	721.0	0.031	0.000	18.4	1	1
03/31/06	7:02 a	-26.1	-26.1	-26.1	---	---	17.4	NE	0.29	18.3	-40.8	---	---	721.1	0.031	0.000	18.4	1	1
03/31/06	7:03 a	-26.1	-26.1	-26.1	---	---	9.6	NE	0.16	15.7	-37.4	---	---	721.1	0.031	0.000	18.4	1	1
03/31/06	7:04 a	-26.1	-26.0	-26.1	---	---	15.7	ENE	0.26	19.1	-40.2	---	---	721.0	0.031	0.000	18.4	1	1
03/31/06	7:05 a	-26.1	-26.0	-26.1	---	---	15.7	ENE	0.26	17.4	-40.2	---	---	721.0	0.031	0.000	18.4	1	1
03/31/06	7:06 a	-26.1	-26.0	-26.1	---	---	15.7	ENE	0.26	18.3	-40.2	---	---	721.0	0.031	0.000	18.4	1	1
03/31/06	7:07 a	-26.0	-26.0	-26.1	---	---	14.8	ENE	0.25	17.4	-39.8	---	---	721.0	0.031	0.000	18.4	1	1
03/31/06	7:08 a	-26.0	-26.0	-26.1	---	---	17.4	NE	0.29	19.1	-40.7	---	---	721.1	0.031	0.000	18.4	1	1
03/31/06	7:09 a	-26.0	-26.0	-26.0	---	---	15.7	NE	0.26	20.9	-40.1	---	---	721.0	0.031	0.000	18.4	1	1
03/31/06	7:10 a	-26.0	-26.0	-26.1	---	---	16.5	NE	0.28	20.9	-40.4	---	---	721.1	0.031	0.000	18.4	1	1
03/31/06	7:11 a	-26.0	-26.0	-26.1	---	---	13.9	NE	0.23	19.1	-39.4	---	---	721.0	0.031	0.000	18.4	1	1
03/31/06	7:12 a	-26.0	-26.0	-26.1	---	---	17.4	NE	0.29	20.0	-40.7	---	---	721.0	0.031	0.000	18.4	1	1
03/31/06	7:13 a	-26.0	-26.0	-26.1	---	---	13.9	NE	0.23	19.1	-39.4	---	---	720.9	0.031	0.000	18.4	1	1
03/31/06	7:14 a	-26.1	-26.0	-26.1	---	---	17.4	NE	0.29	20.0	-40.8	---	---	721.0	0.031	0.000	18.4	1	1
03/31/06	7:15 a	-26.1	-26.0	-26.1	---	---	16.5	NE	0.28	20.9	-40.5	---	---	721.1	0.031	0.000	18.4	1	1
03/31/06	7:16 a	-26.1	-26.0	-26.1	---	---	13.9	NE	0.23	20.0	-39.5	---	---	721.0	0.031	0.000	18.4	1	1
03/31/06	7:17 a	-26.0	-26.0	-26.1	---	---	15.7	NE	0.26	17.4	-40.1	---	---	721.1	0.031	0.000	18.4	1	1
03/31/06	7:18 a	-26.1	-26.0	-26.1	---	---	9.6	NE	0.16	20.0	-37.3	---	---	721.0	0.031	0.000	18.4	1	1
03/31/06	7:19 a	-26.0	-26.0	-26.1	---	---	18.3	NE	0.30	20.9	-41.0	---	---	721.0	0.031	0.000	18.4	1	1
03/31/06	7:20 a	-26.0	-26.0	-26.1	---	---	11.3	NE	0.19	19.1	-38.2	---	---	721.1	0.031	0.000	18.4	1	1
03/31/06	7:21 a	-26.0	-26.0	-26.0	---	---	5.2	WNW	0.09	7.8	-34.1	---	---	721.1	0.031	0.000	18.4	1	1
03/31/06	7:22 a	-26.0	-25.9	-26.0	---	---	14.8	NE	0.25	17.4	-39.8	---	---	721.0	0.031	0.000	18.3	1	1
03/31/06	7:23 a	-26.0	-25.9	-26.0	---	---	18.3	NE	0.30	20.0	-41.0	---	---	721.1	0.031	0.000	18.3	1	1
03/31/06	7:24 a	-25.9	-25.9	-26.0	---	---	10.4	NE	0.17	15.7	-37.7	---	---	721.0	0.031	0.000	18.3	1	1
03/31/06	7:25 a	-25.9	-25.9	-25.9	---	---	16.5	NE	0.28	20.9	-40.3	---	---	721.0	0.031	0.000	18.3	1	1
03/31/06	7:26 a	-25.9	-25.9	-25.9	---	---	17.4	NE	0.29	19.1	-40.7	---	---	721.0	0.031	0.000	18.3	1	1
03/31/06	7:27 a	-25.9	-25.9	-25.9	---	---	16.5	NE	0.28	19.1	-40.3	---	---	721.1	0.031	0.000	18.3	1	1
03/31/06	7:28 a	-25.9	-25.9	-25.9	---	---	13.9	NE	0.23	21.7	-39.3	---	---	721.0	0.031	0.000	18.3	1	1
03/31/06	7:29 a	-25.9	-25.9	-25.9	---	---	17.4	NE	0.29	20.9	-40.6	---	---	721.1	0.031	0.000	18.3	1	1
03/31/06	7:30 a	-25.9	-25.8	-25.9	---	---	13.0	NE	0.22	20.0	-38.9	---	---	721.0	0.031	0.000	18.3	1	1
03/31/06	7:31 a	-25.8	-25.8	-25.8	---	---	19.1	NE	0.32	20.0	-41.1	---	---	721.0	0.031	0.000	18.3	1	1
03/31/06	7:32 a	-25.8	-25.8	-25.9	---	---	13.0	NE	0.22	18.3	-38.8	---	---	721.1	0.031	0.000	18.3	1	1
03/31/06	7:33 a	-25.9	-25.8	-25.9	---	---	14.8	NE	0.25	16.5	-39.6	---	---	721.0	0.031	0.000	18.3	1	1
03/31/06	7:34 a	-25.9	-25.8	-25.9	---	---	17.4	NE	0.29	20.9	-40.6	---	---	721.2	0.031	0.000	18.3	1	1
03/31/06	7:35 a	-25.8	-25.8	-25.9	---	---	9.6	NE	0.16	15.7	-37.1	---	---	721.1	0.031	0.000	18.3	1	1
03/31/06	7:36 a	-25.9	-25.8	-25.9	---	---	16.5	NE	0.28	20.9	-40.3	---	---	721.1	0.031	0.000	18.3	1	1
03/31/06	7:37 a	-25.9	-25.8	-25.9	---	---	16.5	NE	0.28	17.4	-40.3	---	---	721.1	0.031	0.000	18.3	1	1
03/31/06	7:38 a	-25.9	-25.9	-25.9	---	---	9.6	NE	0.16	13.9	-37.2	---	---	721.0	0.031	0.000	18.3	1	1
03/31/06	7:39 a	-25.9	-25.9	-25.9	---	---	17.4	NE	0.29	20.0	-40.6	---	---	721.1	0.031	0.000	18.3	1	1
03/31/06	7:40 a	-25.9	-25.9	-25.9	---	---	15.7	ENE	0.26	19.1	-39.9	---	---	721.1	0.031	0.000	18.3	1	1
03/31/06	7:41 a	-25.9	-25.8	-25.9	---	---	14.8	ENE	0.25	17.4	-39.6	---	---	721.1	0.031	0.000	18.3	1	1
03/31/06	7:42 a	-25.9	-25.9	-25.9	---	---	14.8	NE	0.25	20.9	-39.6	---	---	720.9	0.031	0.000	18.3	1	1
03/31/06	7:43 a	-25.9	-25.9	-25.9	---	---	14.8	NE	0.25	20.0	-39.7	---	---	721.1	0.031	0.000	18.3	1	1
03/31/06	7:44 a	-25.9	-25.9	-25.9	---	---	13.9	NE	0.23	18.3	-39.3	---	---	721.0	0.031	0.000	18.3	1	1
03/31/06	7:45 a	-25.9	-25.9	-25.9	---	---	16.5	NE	0.28	18.3	-40.3	---	---	721.1	0.031	0.000	18.3	1	1
03/31/06	7:46 a	-25.9	-25.9	-25.9	---	---	12.2	NE	0.20	14.8	-38.6	---	---	721.0	0.031	0.000	18.3	1	1
03/31/06	7:47 a	-25.9	-25.9	-25.9	---	---	17.4	NE	0.29	19.1	-40.7	---	---	721.1	0.031	0.000	18.3	1	1
03/31/06	7:48 a	-25.9	-25.9	-25.9	---	---	14.8	NE	0.25	20.0	-39.7	---	---	721.1	0.031	0.000	18.3	1	1
03/31/06	7:49 a	-25.9	-25.9	-25.9	---	---	17.4	ENE	0.29	18.3	-40.7	---	---	721.1	0.031	0.000	18.3	1	1
03/31/06	7:50 a	-25.9	-25.9	-25.9	---	---	13.9	NE	0.23	18.3	-39.3	---	---	721.0	0.031	0.000	18.2	1	1
03/31/06	7:51 a	-25.9	-25.9	-25.9	---	---	16.5	NE	0.28	18.3	-40.3	---	---	721.1	0.031	0.000	18.2	1	1
03/31/06	7:52 a	-25.9	-25.9	-25.9	---	---	16.5	ENE	0.28	17.4	-40.3	---	---	721.2	0.031	0.000	18.2	1	1
03/31/06	7:53 a	-25.9	-25.9	-25.9	---	---	11.3	NE	0.19	14.8	-38.2	---	---	721.1	0.031	0.000	18.2	1	1
03/31/06	7:54 a	-25.9	-25.9	-25.9	---	---	9.6	NE	0.16	19.1	-37.2	---	---	721.0	0.031	0.000	18.2	1	1
03/31/06	7:55 a	-25.9	-25.9	-25.9	---	---	20.0	NE	0.33	21.7	-41.5	---	---	721.0	0.031	0.000	18.2	1	1
03/31/06	7:56 a	-25.9	-25.9	-25.9	---	---	14.8	ENE	0.25	20.9	-39.7	---	---	721.2	0.031	0.000	18.2	1	1
03/31/06	7:57 a	-25.9	-25.9	-25.9	---	---	4.3	ENE	0.07	9.6	-33.1	---	---	721.2	0.031	0.000	18.2	1	1
03/31/06	7:58 a	-25.9	-25.8	-25.9	---	---	10.4	ENE	0.17	17.4	-37.6	---	---	721.2	0.031	0.000	18.2	1	1
03/31/06	7:59 a	-25.9	-25.8	-25.9	---	---	13.9	ENE	0.23	16.5	-39.3	---	---	721.2	0.031	0.000	18.2	1	1
03/31/06	8:00 a	-25.9	-25.9	-25.9	---	---	6.1	ENE	0.10	8.7	-34.8	---	---	721.2	0.031	0.000	18.2	1	1
03/31/06	8:01 a	-25.9	-25.8	-25.9	---	---	15.7	ENE	0.26	20.0	-39.9	---	---	721.1	0.031	0.000	18.2	1	1
03/31/06	8:02 a	-25.8	-25.8	-25.9	---	---	12.2	ENE	0.20	16.5	-38.4	---	---	721.2	0.031	0.000	18.2	1	1
03/31/06	8:03 a	-25.8	-25.8	-25.9	---	---	11.3	ENE	0.19	13.9	-38.0	---	---	721.1	0.031	0.000	18.2	1	1
03/31/06	8:04 a	-25.8	-25.8	-25.9	---	---	10.4	NE	0.17	16.5	-37.6	---	---	721.0	0.031	0.000	18.2	1	1
03/31/06	8:05 a	-25.8	-25.8	-25.8	---	---	15.7	ENE	0.26	18.3	-39.9	---	---	721.2	0.031	0.000	18.2	1	1
03/31/06	8:06 a	-25.8	-25.8	-25.8	---	---	12.2	ENE	0.20	14.8	-38.4	---	---	721.2	0.031	0.000	18.2	1	1
03/31/06	8:07 a	-25.8	-25.8	-25.9	---	---	8.7	ENE	0.14	10.4	-36.6	---	---	721.1	0.031	0.000	18.2	1	1
03/31/06	8:08 a	-25.8	-25.8	-25.8	---	---	18.3	ENE	0.30	20.9	-40.8	---	---	721.0	0.031	0.000	18.2	1	1
03/31/06	8:09 a	-25.8	-25.8	-25.8	---	---	13.0	ENE	0.22	17.4	-38.8	---	---	721.2	0.031	0.000	18.2	1	1
03/31/06	8:10 a	-25.8	-25.8	-25.8	---	---	5.2	ENE	0.09	9.6	-33.9	---	---	721.1	0.031	0.000	18.2	1	1
03/31/06	8:11 a	-25.8	-25.8	-25.8	---	---	15.7	ENE	0.26	20.0	-39.9	---	---	721.1	0.031	0.000	18.2	1	1
03/31/06	8:12 a	-25.8	-25.8	-25.8	---	---	15.7	ENE	0.26	17.4	-39.8	---	---	721.1	0.031	0.000	18.2	1	1
03/31/06	8:13 a	-25.8	-25.8	-25.8	---	---	7.8	NE	0.13	13.0	-36.0	---	---	721.3	0.031	0.000	18.2	1	1
03/31/06	8:14 a	-25.8	-25.8	-25.8	---	---	4.3	NE	0.07	8.7	-32.9	---	---	721.1	0.031	0.000	18.2	1	1
03/31/06	8:15 a	-25.8	-25.8	-25.8	---	---	10.4	ENE	0.17	17.4	-37.5	---	---	721.0	0.031	0.000	18.2	1	1
03/31/06	8:16 a	-25.8	-25.8	-25.8	---	---	13.0	ENE	0.22	17.4	-38.7	---	---	721.1	0.031	0.000	18.2	1	1
03/31/06	8:17 a	-25.8	-25.7	-25.8	---	---	6.1	ENE	0.10	10.4	-34.6	---	---	721.1	0.031	0.000	18.2	1	1
03/31/06	8:18 a	-25.8	-25.8	-25.8	---	---	12.2	ENE	0.20	16.5	-38.3	---	---	721.1	0.031	0.000	18.2	1	1
03/31/06	8:19 a	-25.8	-25.8	-25.8	---	---	16.5	ENE	0.28	18.3	-40.1	---	---	721.2	0.031	0.000	18.2	1	1
03/31/06	8:20 a	-25.8	-25.8	-25.8	---	---	8.7	ENE	0.14	12.2	-36.5	---	---	721.2	0.031	0.000	18.2	1	1
03/31/06	8:21 a	-25.8	-25.7	-25.8	---	---	13.0	NE	0.22	18.3	-38.7	---	---	721.0	0.031	0.000	18.2	1	1
03/31/06	8:22 a	-25.8	-25.8	-25.8	---	---	15.7	ENE	0.26	17.4	-39.8	---	---	721.2	0.031	0.000	18.2	1	1
03/31/06	8:23 a	-25.8	-25.8	-25.8	---	---	13.0	ENE	0.22	15.7	-38.7	---	---	721.2	0.031	0.000	18.2	1	1
03/31/06	8:24 a	-25.8	-25.8	-25.8	---	---	12.2	NE	0.20	14.8	-38.3	---	---	721.1	0.031	0.000	18.2	1	1
03/31/06	8:25 a	-25.8	-25.8	-25.8	---	---	13.0	ENE	0.22	19.1	-38.7	---	---	721.1	0.031	0.000	18.2	1	1
03/31/06	8:26 a	-25.8	-25.8	-25.8	---	---	17.4	ENE	0.29	20.0	-40.4	---	---	721.0	0.031	0.000	18.2	1	1
03/31/06	8:27 a	-25.8	-25.8	-25.8	---	---	12.2	NE	0.20	18.3	-38.3	---	---	721.1	0.031	0.000	18.2	1	1
03/31/06	8:28 a	-25.8	-25.8	-25.8	---	---	19.1	ENE	0.32	20.0	-41.1	---	---	721.0	0.031	0.000	18.2	1	1
03/31/06	8:29 a	-25.8	-25.8	-25.8	---	---	12.2	NE	0.20	17.4	-38.4	---	---	721.2	0.031	0.000	18.2	1	1
03/31/06	8:30 a	-25.8	-25.8	-25.8	---	---	7.8	NE	0.13	12.2	-36.0	---	---	721.1	0.031	0.000	18.2	1	1
03/31/06	8:31 a	-25.8	-25.8	-25.8	---	---	16.5	ENE	0.28	22.6	-40.2	---	---	721.1	0.031	0.000	18.2	1	1
03/31/06	8:32 a	-25.8	-25.8	-25.8	---	---	17.4	ENE	0.29	20.0	-40.5	---	---	721.2	0.031	0.000	18.2	1	1
03/31/06	8:33 a	-25.8	-25.8	-25.8	---	---	9.6	NE	0.16	13.9	-37.1	---	---	721.1	0.031	0.000	18.2	1	1
03/31/06	8:34 a	-25.8	-25.8	-25.9	---	---	19.1	ENE	0.32	20.9	-41.1	---	---	721.1	0.031	0.000	18.2	1	1
03/31/06	8:35 a	-25.8	-25.8	-25.9	---	---	13.9	NE	0.23	16.5	-39.2	---	---	721.1	0.031	0.000	18.2	1	1
03/31/06	8:36 a	-25.9	-25.8	-25.9	---	---	16.5	ENE	0.28	21.7	-40.3	---	---	721.0	0.031	0.000	18.2	1	1
03/31/06	8:37 a	-25.9	-25.9	-25.9	---	---	15.7	ENE	0.26	18.3	-39.9	---	---	721.1	0.031	0.000	18.2	1	1
03/31/06	8:38 a	-25.9	-25.9	-25.9	---	---	16.5	ENE	0.28	20.0	-40.3	---	---	721.1	0.031	0.000	18.2	1	1
03/31/06	8:39 a	-25.9	-25.9	-25.9	---	---	17.4	ENE	0.29	19.1	-40.6	---	---	721.0	0.031	0.000	18.2	1	1
03/31/06	8:40 a	-25.9	-25.9	-25.9	---	---	15.7	NE	0.26	17.4	-39.9	---	---	721.2	0.031	0.000	18.2	1	1
03/31/06	8:41 a	-25.9	-25.9	-25.9	---	---	12.2	NE	0.20	16.5	-38.6	---	---	721.2	0.031	0.000	18.2	1	1
03/31/06	8:42 a	-25.9	-25.9	-25.9	---	---	13.0	NE	0.22	17.4	-38.9	---	---	721.1	0.031	0.000	18.2	1	1
03/31/06	8:43 a	-25.9	-25.9	-25.9	---	---	10.4	NNE	0.17	14.8	-37.7	---	---	721.2	0.031	0.000	18.2	1	1
03/31/06	8:44 a	-25.9	-25.9	-25.9	---	---	13.0	NE	0.22	19.1	-38.9	---	---	721.0	0.031	0.000	18.2	1	1
03/31/06	8:45 a	-25.9	-25.8	-25.9	---	---	15.7	ENE	0.26	17.4	-39.9	---	---	721.1	0.031	0.000	18.2	1	1
03/31/06	8:46 a	-25.8	-25.8	-25.9	---	---	14.8	NE	0.25	19.1	-39.6	---	---	721.1	0.031	0.000	18.2	1	1
03/31/06	8:47 a	-25.9	-25.8	-25.9	---	---	13.9	NE	0.23	18.3	-39.3	---	---	721.2	0.031	0.000	18.2	1	1
03/31/06	8:48 a	-25.8	-25.8	-25.9	---	---	16.5	NE	0.28	18.3	-40.2	---	---	721.2	0.031	0.000	18.2	1	1
03/31/06	8:49 a	-25.8	-25.8	-25.9	---	---	15.7	NE	0.26	18.3	-39.9	---	---	721.2	0.031	0.000	18.2	1	1
03/31/06	8:50 a	-25.9	-25.8	-25.9	---	---	16.5	NE	0.28	19.1	-40.3	---	---	721.2	0.031	0.000	18.2	1	1
03/31/06	8:51 a	-25.9	-25.9	-25.9	---	---	13.0	NE	0.22	14.8	-38.9	---	---	721.2	0.031	0.000	18.2	1	1
03/31/06	8:52 a	-25.9	-25.9	-25.9	---	---	15.7	NE	0.26	19.1	-40.0	---	---	721.1	0.031	0.000	18.2	1	1
03/31/06	8:53 a	-25.9	-25.9	-25.9	---	---	15.7	NE	0.26	18.3	-40.0	---	---	721.2	0.031	0.000	18.2	1	1
03/31/06	8:54 a	-25.9	-25.9	-25.9	---	---	14.8	NE	0.25	17.4	-39.6	---	---	721.2	0.031	0.000	18.2	1	1
03/31/06	8:55 a	-25.9	-25.9	-26.0	---	---	13.0	NE	0.22	16.5	-38.9	---	---	721.2	0.031	0.000	18.2	1	1
03/31/06	8:56 a	-25.9	-25.9	-25.9	---	---	13.0	NE	0.22	19.1	-38.9	---	---	721.2	0.031	0.000	18.2	1	1
03/31/06	8:57 a	-25.9	-25.9	-25.9	---	---	17.4	NE	0.29	19.1	-40.7	---	---	721.2	0.031	0.000	18.2	1	1
03/31/06	8:58 a	-25.9	-25.9	-25.9	---	---	14.8	NE	0.25	17.4	-39.7	---	---	721.2	0.031	0.000	18.2	1	1
03/31/06	8:59 a	-25.9	-25.9	-25.9	---	---	8.7	NE	0.14	13.0	-36.7	---	---	721.1	0.031	0.000	18.2	1	1
03/31/06	9:00 a	-25.9	-25.9	-25.9	---	---	17.4	NE	0.29	21.7	-40.7	---	---	721.1	0.031	0.000	18.2	1	1
03/31/06	9:01 a	-25.9	-25.9	-25.9	---	---	18.3	NE	0.30	20.9	-40.9	---	---	721.1	0.031	0.000	18.2	1	1
03/31/06	9:02 a	-25.9	-25.9	-25.9	---	---	9.6	NE	0.16	15.7	-37.2	---	---	721.2	0.031	0.000	18.2	1	1
03/31/06	9:03 a	-25.9	-25.9	-26.0	---	---	7.0	NE	0.12	11.3	-35.5	---	---	721.2	0.031	0.000	18.1	1	1
03/31/06	9:04 a	-25.9	-25.9	-25.9	---	---	14.8	NE	0.25	18.3	-39.7	---	---	721.1	0.031	0.000	18.2	1	1
03/31/06	9:05 a	-25.9	-25.9	-25.9	---	---	16.5	NE	0.28	19.1	-40.3	---	---	721.2	0.031	0.000	18.2	1	1
03/31/06	9:06 a	-25.9	-25.9	-25.9	---	---	13.9	NE	0.23	15.7	-39.3	---	---	721.2	0.031	0.000	18.1	1	1
03/31/06	9:07 a	-25.9	-25.9	-25.9	---	---	13.0	NE	0.22	19.1	-38.9	---	---	721.3	0.031	0.000	18.1	1	1
03/31/06	9:08 a	-25.9	-25.9	-25.9	---	---	17.4	NE	0.29	20.0	-40.7	---	---	721.1	0.031	0.000	18.1	1	1
03/31/06	9:09 a	-25.9	-25.9	-26.0	---	---	16.5	NE	0.28	18.3	-40.3	---	---	721.1	0.031	0.000	18.1	1	1
03/31/06	9:10 a	-25.9	-25.9	-25.9	---	---	13.9	NE	0.23	16.5	-39.3	---	---	721.2	0.031	0.000	18.1	1	1
03/31/06	9:11 a	-25.9	-25.9	-25.9	---	---	7.0	NNE	0.12	13.0	-35.5	---	---	721.2	0.031	0.000	18.1	1	1
03/31/06	9:12 a	-25.9	-25.9	-25.9	---	---	15.7	NE	0.26	18.3	-40.0	---	---	721.2	0.031	0.000	18.1	1	1
03/31/06	9:13 a	-25.9	-25.9	-25.9	---	---	15.7	NE	0.26	17.4	-40.0	---	---	721.1	0.031	0.000	18.1	1	1
03/31/06	9:14 a	-25.9	-25.9	-25.9	---	---	12.2	NE	0.20	16.5	-38.6	---	---	721.2	0.031	0.000	18.1	1	1
03/31/06	9:15 a	-25.9	-25.8	-25.9	---	---	12.2	NE	0.20	19.1	-38.5	---	---	721.1	0.031	0.000	18.1	1	1
03/31/06	9:16 a	-25.9	-25.8	-25.9	---	---	15.7	NE	0.26	19.1	-39.9	---	---	721.1	0.031	0.000	18.1	1	1
03/31/06	9:17 a	-25.9	-25.9	-25.9	---	---	10.4	NE	0.17	18.3	-37.6	---	---	721.2	0.031	0.000	18.1	1	1
03/31/06	9:18 a	-25.9	-25.9	-25.9	---	---	14.8	NE	0.25	18.3	-39.6	---	---	721.2	0.031	0.000	18.1	1	1
03/31/06	9:19 a	-25.9	-25.9	-25.9	---	---	7.8	NE	0.13	13.0	-36.1	---	---	721.2	0.031	0.000	18.1	1	1
03/31/06	9:20 a	-25.9	-25.9	-25.9	---	---	13.0	NE	0.22	19.1	-38.9	---	---	721.1	0.031	0.000	18.1	1	1
03/31/06	9:21 a	-25.9	-25.9	-25.9	---	---	18.3	NE	0.30	20.0	-40.9	---	---	721.1	0.031	0.000	18.1	1	1
03/31/06	9:22 a	-25.9	-25.9	-25.9	---	---	17.4	ENE	0.29	18.3	-40.6	---	---	721.1	0.031	0.000	18.1	1	1
03/31/06	9:23 a	-25.9	-25.9	-25.9	---	---	15.7	ENE	0.26	21.7	-39.9	---	---	721.2	0.031	0.000	18.1	1	1
03/31/06	9:24 a	-25.9	-25.8	-25.9	---	---	13.9	NE	0.23	19.1	-39.3	---	---	721.2	0.031	0.000	18.1	1	1
03/31/06	9:25 a	-25.9	-25.8	-25.9	---	---	9.6	NE	0.16	15.7	-37.2	---	---	721.2	0.031	0.000	18.1	1	1
03/31/06	9:26 a	-25.8	-25.8	-25.9	---	---	15.7	ENE	0.26	18.3	-39.9	---	---	721.0	0.031	0.000	18.1	1	1
03/31/06	9:27 a	-25.8	-25.8	-25.8	---	---	16.5	NE	0.28	19.1	-40.2	---	---	721.1	0.031	0.000	18.1	1	1
03/31/06	9:28 a	-25.8	-25.8	-25.8	---	---	12.2	NE	0.20	17.4	-38.4	---	---	721.2	0.031	0.000	18.1	1	1
03/31/06	9:29 a	-25.8	-25.8	-25.8	---	---	13.9	NE	0.23	17.4	-39.1	---	---	721.1	0.031	0.000	18.1	1	1
03/31/06	9:30 a	-25.8	-25.8	-25.8	---	---	14.8	ENE	0.25	17.4	-39.4	---	---	721.1	0.031	0.000	18.1	1	1
03/31/06	9:31 a	-25.8	-25.8	-25.8	---	---	13.9	NE	0.23	16.5	-39.1	---	---	721.2	0.031	0.000	18.1	1	1
03/31/06	9:32 a	-25.8	-25.7	-25.8	---	---	13.0	NE	0.22	15.7	-38.7	---	---	721.1	0.031	0.000	18.1	1	1
03/31/06	9:33 a	-25.8	-25.7	-25.8	---	---	14.8	NE	0.25	16.5	-39.4	---	---	721.2	0.031	0.000	18.1	1	1
03/31/06	9:34 a	-25.8	-25.7	-25.8	---	---	12.2	NE	0.20	13.9	-38.3	---	---	721.2	0.031	0.000	18.1	1	1
03/31/06	9:35 a	-25.8	-25.7	-25.8	---	---	14.8	NE	0.25	16.5	-39.4	---	---	721.2	0.031	0.000	18.1	1	1
03/31/06	9:36 a	-25.8	-25.7	-25.8	---	---	13.9	NE	0.23	16.5	-39.1	---	---	721.2	0.031	0.000	18.1	1	1
03/31/06	9:37 a	-25.7	-25.7	-25.8	---	---	11.3	NNE	0.19	13.9	-37.9	---	---	721.2	0.031	0.000	18.1	1	1
03/31/06	9:38 a	-25.7	-25.7	-25.7	---	---	10.4	NNE	0.17	17.4	-37.4	---	---	721.0	0.031	0.000	18.1	1	1
03/31/06	9:39 a	-25.7	-25.7	-25.7	---	---	16.5	NE	0.28	18.3	-40.1	---	---	721.1	0.031	0.000	18.1	1	1
03/31/06	9:40 a	-25.7	-25.7	-25.7	---	---	13.0	NE	0.22	15.7	-38.6	---	---	721.2	0.031	0.000	18.0	1	1
03/31/06	9:41 a	-25.7	-25.7	-25.7	---	---	14.8	NE	0.25	18.3	-39.3	---	---	721.1	0.031	0.000	18.1	1	1
03/31/06	9:42 a	-25.7	-25.7	-25.7	---	---	12.2	NE	0.20	14.8	-38.2	---	---	721.2	0.031	0.000	18.0	1	1
03/31/06	9:43 a	-25.7	-25.6	-25.7	---	---	10.4	NE	0.17	13.0	-37.3	---	---	721.1	0.031	0.000	18.1	1	1
03/31/06	9:44 a	-25.6	-25.6	-25.6	---	---	13.9	NE	0.23	18.3	-38.9	---	---	721.1	0.031	0.000	18.1	1	1
03/31/06	9:45 a	-25.6	-25.6	-25.6	---	---	15.7	NE	0.26	18.3	-39.6	---	---	721.2	0.031	0.000	18.1	1	1
03/31/06	9:46 a	-25.6	-25.6	-25.7	---	---	12.2	NE	0.20	14.8	-38.2	---	---	721.2	0.031	0.000	18.0	1	1
03/31/06	9:47 a	-25.6	-25.6	-25.6	---	---	13.9	NE	0.23	16.5	-38.9	---	---	721.1	0.031	0.000	18.0	1	1
03/31/06	9:48 a	-25.6	-25.6	-25.6	---	---	15.7	NE	0.26	17.4	-39.6	---	---	721.2	0.031	0.000	18.0	1	1
03/31/06	9:49 a	-25.6	-25.6	-25.7	---	---	13.0	NE	0.22	16.5	-38.6	---	---	721.1	0.031	0.000	18.0	1	1
03/31/06	9:50 a	-25.6	-25.5	-25.6	---	---	12.2	NNE	0.20	15.7	-38.1	---	---	721.2	0.030	0.000	18.0	1	1
03/31/06	9:51 a	-25.5	-25.4	-25.6	---	---	8.7	NNE	0.14	12.2	-36.2	---	---	721.2	0.030	0.000	18.0	1	1
03/31/06	9:52 a	-25.4	-25.4	-25.4	---	---	7.8	NE	0.13	12.2	-35.4	---	---	721.2	0.030	0.000	18.0	1	1
03/31/06	9:53 a	-25.3	-25.3	-25.4	---	---	13.9	NE	0.23	15.7	-38.6	---	---	721.1	0.030	0.000	18.0	1	1
03/31/06	9:54 a	-25.3	-25.3	-25.3	---	---	13.0	NE	0.22	15.7	-38.1	---	---	721.1	0.030	0.000	18.0	1	1
03/31/06	9:55 a	-25.3	-25.3	-25.3	---	---	15.7	NE	0.26	17.4	-39.2	---	---	721.1	0.030	0.000	18.0	1	1
03/31/06	9:56 a	-25.3	-25.3	-25.3	---	---	11.3	NE	0.19	13.0	-37.4	---	---	721.3	0.030	0.000	18.0	1	1
03/31/06	9:57 a	-25.3	-25.3	-25.3	---	---	10.4	NE	0.17	13.9	-36.8	---	---	721.2	0.030	0.000	18.0	1	1
03/31/06	9:58 a	-25.2	-25.2	-25.3	---	---	14.8	NE	0.25	15.7	-38.8	---	---	721.2	0.030	0.000	18.0	1	1
03/31/06	9:59 a	-25.3	-25.2	-25.3	---	---	11.3	NE	0.19	13.9	-37.3	---	---	721.2	0.030	0.000	18.0	1	1
03/31/06	10:00 a	-25.2	-25.2	-25.3	---	---	12.2	NE	0.20	14.8	-37.7	---	---	721.2	0.030	0.000	18.0	1	1
03/31/06	10:01 a	-25.2	-25.2	-25.3	---	---	13.0	NE	0.22	14.8	-38.1	---	---	721.2	0.030	0.000	18.0	1	1
03/31/06	10:02 a	-25.3	-25.2	-25.3	---	---	14.8	NE	0.25	16.5	-38.8	---	---	721.1	0.030	0.000	18.0	1	1
03/31/06	10:03 a	-25.3	-25.2	-25.3	---	---	13.9	NE	0.23	16.5	-38.5	---	---	721.2	0.030	0.000	18.0	1	1
03/31/06	10:04 a	-25.3	-25.2	-25.3	---	---	12.2	NE	0.20	18.3	-37.7	---	---	721.0	0.030	0.000	18.0	1	1
03/31/06	10:05 a	-25.2	-25.2	-25.3	---	---	13.9	NE	0.23	16.5	-38.4	---	---	721.2	0.030	0.000	18.0	1	1
03/31/06	10:06 a	-25.2	-25.2	-25.3	---	---	12.2	ENE	0.20	13.9	-37.7	---	---	721.2	0.030	0.000	18.0	1	1
03/31/06	10:07 a	-25.2	-25.2	-25.3	---	---	10.4	NE	0.17	13.9	-36.8	---	---	721.2	0.030	0.000	18.0	1	1
03/31/06	10:08 a	-25.2	-25.2	-25.2	---	---	13.0	NE	0.22	14.8	-38.1	---	---	721.2	0.030	0.000	18.0	1	1
03/31/06	10:09 a	-25.2	-25.2	-25.2	---	---	13.0	NE	0.22	13.9	-37.9	---	---	721.2	0.030	0.000	18.0	1	1
03/31/06	10:10 a	-25.2	-25.2	-25.2	---	---	12.2	NE	0.20	15.7	-37.6	---	---	721.2	0.030	0.000	18.0	1	1
03/31/06	10:11 a	-25.2	-25.2	-25.2	---	---	12.2	NE	0.20	13.9	-37.6	---	---	721.2	0.030	0.000	18.0	1	1
03/31/06	10:12 a	-25.2	-25.2	-25.2	---	---	11.3	NE	0.19	13.0	-37.2	---	---	721.2	0.030	0.000	18.0	1	1
03/31/06	10:13 a	-25.2	-25.1	-25.2	---	---	10.4	NE	0.17	14.8	-36.7	---	---	721.2	0.030	0.000	18.0	1	1
03/31/06	10:14 a	-25.2	-25.1	-25.2	---	---	9.6	NE	0.16	14.8	-36.2	---	---	721.2	0.030	0.000	18.0	1	1
03/31/06	10:15 a	-25.1	-25.1	-25.1	---	---	11.3	NE	0.19	13.9	-37.1	---	---	721.2	0.030	0.000	18.0	1	1
03/31/06	10:16 a	-25.1	-25.1	-25.1	---	---	12.2	NE	0.20	14.8	-37.5	---	---	721.2	0.030	0.000	18.0	1	1
03/31/06	10:17 a	-25.1	-25.1	-25.1	---	---	13.9	NE	0.23	16.5	-38.3	---	---	721.2	0.030	0.000	18.0	1	1
03/31/06	10:18 a	-25.1	-25.1	-25.2	---	---	13.0	NE	0.22	17.4	-37.9	---	---	721.2	0.030	0.000	18.0	1	1
03/31/06	10:19 a	-25.2	-25.1	-25.2	---	---	8.7	NE	0.14	10.4	-35.7	---	---	721.2	0.030	0.000	18.0	1	1
03/31/06	10:20 a	-25.2	-25.2	-25.2	---	---	13.0	NE	0.22	15.7	-37.9	---	---	721.2	0.030	0.000	18.0	1	1
03/31/06	10:21 a	-25.2	-25.1	-25.2	---	---	12.2	NE	0.20	15.7	-37.6	---	---	721.3	0.030	0.000	18.0	1	1
03/31/06	10:22 a	-25.2	-25.2	-25.2	---	---	10.4	NE	0.17	13.0	-36.7	---	---	721.2	0.030	0.000	18.0	1	1
03/31/06	10:23 a	-25.2	-25.2	-25.2	---	---	12.2	NE	0.20	13.0	-37.6	---	---	721.2	0.030	0.000	18.0	1	1
03/31/06	10:24 a	-25.2	-25.2	-25.2	---	---	11.3	NE	0.19	13.0	-37.2	---	---	721.2	0.030	0.000	18.0	1	1
03/31/06	10:25 a	-25.2	-25.2	-25.2	---	---	12.2	NE	0.20	14.8	-37.7	---	---	721.2	0.030	0.000	18.0	1	1
03/31/06	10:26 a	-25.2	-25.2	-25.2	---	---	13.0	NE	0.22	14.8	-38.1	---	---	721.2	0.030	0.000	18.0	1	1
03/31/06	10:27 a	-25.2	-25.2	-25.2	---	---	11.3	NE	0.19	13.9	-37.2	---	---	721.2	0.030	0.000	18.0	1	1
03/31/06	10:28 a	-25.2	-25.2	-25.2	---	---	11.3	NE	0.19	13.0	-37.2	---	---	721.2	0.030	0.000	18.0	1	1
03/31/06	10:29 a	-25.2	-25.2	-25.3	---	---	12.2	NE	0.20	13.9	-37.7	---	---	721.2	0.030	0.000	18.0	1	1
03/31/06	10:30 a	-25.3	-25.3	-25.3	---	---	12.2	NE	0.20	13.9	-37.7	---	---	721.2	0.030	0.000	18.0	1	1
03/31/06	10:31 a	-25.3	-25.3	-25.3	---	---	13.0	NE	0.22	14.8	-38.1	---	---	721.2	0.030	0.000	18.0	1	1
03/31/06	10:32 a	-25.3	-25.3	-25.3	---	---	12.2	NE	0.20	14.8	-37.7	---	---	721.1	0.030	0.000	18.0	1	1
03/31/06	10:33 a	-25.3	-25.3	-25.3	---	---	13.9	NE	0.23	15.7	-38.6	---	---	721.2	0.030	0.000	18.0	1	1
03/31/06	10:34 a	-25.3	-25.3	-25.3	---	---	11.3	NE	0.19	13.0	-37.3	---	---	721.2	0.030	0.000	18.0	1	1
03/31/06	10:35 a	-25.3	-25.3	-25.3	---	---	11.3	NE	0.19	13.9	-37.4	---	---	721.2	0.030	0.000	18.0	1	1
03/31/06	10:36 a	-25.3	-25.3	-25.3	---	---	13.0	NE	0.22	14.8	-38.1	---	---	721.1	0.030	0.000	18.0	1	1
03/31/06	10:37 a	-25.3	-25.3	-25.3	---	---	13.9	NE	0.23	16.5	-38.6	---	---	721.1	0.030	0.000	18.0	1	1
03/31/06	10:38 a	-25.3	-25.3	-25.3	---	---	13.0	NE	0.22	14.8	-38.2	---	---	721.2	0.030	0.000	18.0	1	1
03/31/06	10:39 a	-25.3	-25.3	-25.3	---	---	12.2	NE	0.20	14.8	-37.8	---	---	721.1	0.030	0.000	18.0	1	1
03/31/06	10:40 a	-25.3	-25.3	-25.3	---	---	11.3	NE	0.19	14.8	-37.3	---	---	721.2	0.030	0.000	18.0	1	1
03/31/06	10:41 a	-25.3	-25.2	-25.3	---	---	5.2	NE	0.09	7.8	-33.3	---	---	721.2	0.030	0.000	18.0	1	1
03/31/06	10:42 a	-25.3	-25.3	-25.3	---	---	10.4	NE	0.17	13.9	-36.9	---	---	721.2	0.030	0.000	18.0	1	1
03/31/06	10:43 a	-25.3	-25.3	-25.3	---	---	13.0	NE	0.22	15.7	-38.1	---	---	721.1	0.030	0.000	18.0	1	1
03/31/06	10:44 a	-25.3	-25.2	-25.3	---	---	10.4	NE	0.17	12.2	-36.8	---	---	721.2	0.030	0.000	18.0	1	1
03/31/06	10:45 a	-25.3	-25.2	-25.3	---	---	11.3	NE	0.19	13.9	-37.3	---	---	721.3	0.030	0.000	17.9	1	1
03/31/06	10:46 a	-25.3	-25.2	-25.3	---	---	10.4	NE	0.17	11.3	-36.8	---	---	721.3	0.030	0.000	18.0	1	1
03/31/06	10:47 a	-25.2	-25.2	-25.2	---	---	9.6	NE	0.16	12.2	-36.3	---	---	721.2	0.030	0.000	18.0	1	1
03/31/06	10:48 a	-25.2	-25.2	-25.3	---	---	9.6	NE	0.16	11.3	-36.3	---	---	721.1	0.030	0.000	18.0	1	1
03/31/06	10:49 a	-25.2	-25.2	-25.2	---	---	10.4	NE	0.17	12.2	-36.8	---	---	721.2	0.030	0.000	18.0	1	1
03/31/06	10:50 a	-25.2	-25.2	-25.2	---	---	9.6	NE	0.16	10.4	-36.2	---	---	721.3	0.030	0.000	18.0	1	1
03/31/06	10:51 a	-25.2	-25.2	-25.2	---	---	11.3	NE	0.19	13.0	-37.2	---	---	721.2	0.030	0.000	18.0	1	1
03/31/06	10:52 a	-25.2	-25.1	-25.2	---	---	11.3	NE	0.19	12.2	-37.2	---	---	721.2	0.030	0.000	18.0	1	1
03/31/06	10:53 a	-25.2	-25.2	-25.2	---	---	7.8	NE	0.13	9.6	-35.2	---	---	721.2	0.030	0.000	18.0	1	1
03/31/06	10:54 a	-25.2	-25.1	-25.2	---	---	11.3	NE	0.19	12.2	-37.2	---	---	721.2	0.030	0.000	18.0	1	1
03/31/06	10:55 a	-25.1	-25.1	-25.2	---	---	10.4	NE	0.17	12.2	-36.7	---	---	721.3	0.030	0.000	17.9	1	1
03/31/06	10:56 a	-25.1	-25.1	-25.2	---	---	10.4	NE	0.17	11.3	-36.7	---	---	721.2	0.030	0.000	18.0	1	1
03/31/06	10:57 a	-25.1	-25.1	-25.2	---	---	11.3	NE	0.19	12.2	-37.1	---	---	721.2	0.030	0.000	17.9	1	1
03/31/06	10:58 a	-25.1	-25.1	-25.1	---	---	11.3	NE	0.19	13.0	-37.1	---	---	721.2	0.030	0.000	17.9	1	1
03/31/06	10:59 a	-25.1	-25.1	-25.1	---	---	9.6	NE	0.16	12.2	-36.2	---	---	721.3	0.030	0.000	18.0	1	1
03/31/06	11:00 a	-25.1	-25.1	-25.1	---	---	8.7	NE	0.14	10.4	-35.7	---	---	721.2	0.030	0.000	18.0	1	1
03/31/06	11:01 a	-25.1	-25.1	-25.1	---	---	9.6	NE	0.16	11.3	-36.2	---	---	721.2	0.030	0.000	18.0	1	1
03/31/06	11:02 a	-25.1	-25.1	-25.1	---	---	9.6	NE	0.16	11.3	-36.2	---	---	721.2	0.030	0.000	18.0	1	1
03/31/06	11:03 a	-25.1	-25.1	-25.1	---	---	9.6	NE	0.16	11.3	-36.1	---	---	721.2	0.030	0.000	18.0	1	1
03/31/06	11:04 a	-25.1	-25.1	-25.1	---	---	9.6	NE	0.16	11.3	-36.1	---	---	721.3	0.030	0.000	18.0	1	1
03/31/06	11:05 a	-25.1	-25.1	-25.1	---	---	10.4	NE	0.17	12.2	-36.6	---	---	721.2	0.030	0.000	18.0	1	1
03/31/06	11:06 a	-25.1	-25.0	-25.1	---	---	9.6	NE	0.16	11.3	-36.1	---	---	721.2	0.030	0.000	18.0	1	1
03/31/06	11:07 a	-25.0	-25.0	-25.1	---	---	8.7	NE	0.14	10.4	-35.5	---	---	721.3	0.030	0.000	18.0	1	1
03/31/06	11:08 a	-25.0	-25.0	-25.1	---	---	7.8	NE	0.13	10.4	-34.9	---	---	721.3	0.030	0.000	18.0	1	1
03/31/06	11:09 a	-25.0	-24.9	-25.0	---	---	7.0	NE	0.12	9.6	-34.4	---	---	721.2	0.030	0.000	18.0	1	1
03/31/06	11:10 a	-24.9	-24.9	-24.9	---	---	8.7	NE	0.14	10.4	-35.4	---	---	721.2	0.030	0.000	18.0	1	1
03/31/06	11:11 a	-24.9	-24.9	-24.9	---	---	7.8	NE	0.13	9.6	-34.9	---	---	721.3	0.030	0.000	17.9	1	1
03/31/06	11:12 a	-24.9	-24.8	-24.9	---	---	6.1	NE	0.10	8.7	-33.6	---	---	721.3	0.030	0.000	18.0	1	1
03/31/06	11:13 a	-24.9	-24.8	-24.9	---	---	7.8	NE	0.13	10.4	-34.8	---	---	721.2	0.030	0.000	18.0	1	1
03/31/06	11:14 a	-24.8	-24.8	-24.8	---	---	8.7	NE	0.14	9.6	-35.3	---	---	721.2	0.030	0.000	18.0	1	1
03/31/06	11:15 a	-24.8	-24.8	-24.8	---	---	7.8	NE	0.13	10.4	-34.8	---	---	721.2	0.030	0.000	17.9	1	1
03/31/06	11:16 a	-24.8	-24.7	-24.8	---	---	8.7	NE	0.14	9.6	-35.3	---	---	721.2	0.030	0.000	18.0	1	1
03/31/06	11:17 a	-24.7	-24.7	-24.7	---	---	7.8	NE	0.13	8.7	-34.6	---	---	721.2	0.030	0.000	17.9	1	1
03/31/06	11:18 a	-24.7	-24.7	-24.7	---	---	8.7	NE	0.14	9.6	-35.2	---	---	721.3	0.030	0.000	17.9	1	1
03/31/06	11:19 a	-24.7	-24.7	-24.7	---	---	8.7	NE	0.14	9.6	-35.1	---	---	721.2	0.030	0.000	17.9	1	1
03/31/06	11:20 a	-24.7	-24.6	-24.7	---	---	7.0	NE	0.12	8.7	-33.9	---	---	721.3	0.030	0.000	17.9	1	1
03/31/06	11:21 a	-24.7	-24.6	-24.7	---	---	8.7	NE	0.14	9.6	-35.1	---	---	721.2	0.030	0.000	17.9	1	1
03/31/06	11:22 a	-24.6	-24.6	-24.7	---	---	8.7	NE	0.14	9.6	-35.1	---	---	721.2	0.030	0.000	17.9	1	1
03/31/06	11:23 a	-24.6	-24.6	-24.6	---	---	7.8	NE	0.13	8.7	-34.5	---	---	721.2	0.030	0.000	17.9	1	1
03/31/06	11:24 a	-24.6	-24.6	-24.6	---	---	7.0	NE	0.12	7.8	-33.8	---	---	721.3	0.030	0.000	17.9	1	1
03/31/06	11:25 a	-24.6	-24.6	-24.6	---	---	7.0	NE	0.12	7.8	-33.8	---	---	721.3	0.030	0.000	17.9	1	1
03/31/06	11:26 a	-24.6	-24.6	-24.6	---	---	5.2	NE	0.09	7.0	-32.4	---	---	721.2	0.030	0.000	17.9	1	1
03/31/06	11:27 a	-24.6	-24.5	-24.6	---	---	4.3	NE	0.07	5.2	-31.5	---	---	721.2	0.030	0.000	18.0	1	1
03/31/06	11:28 a	-24.5	-24.5	-24.6	---	---	3.5	NE	0.06	5.2	-30.4	---	---	721.2	0.030	0.000	17.9	1	1
03/31/06	11:29 a	-24.5	-24.4	-24.5	---	---	3.5	NE	0.06	4.3	-30.4	---	---	721.1	0.030	0.000	17.9	1	1
03/31/06	11:30 a	-24.4	-24.4	-24.5	---	---	4.3	NE	0.07	5.2	-31.4	---	---	721.2	0.030	0.000	17.9	1	1
03/31/06	11:31 a	-24.4	-24.4	-24.4	---	---	4.3	NE	0.07	5.2	-31.3	---	---	721.2	0.030	0.000	17.9	1	1
03/31/06	11:32 a	-24.4	-24.4	-24.4	---	---	4.3	NE	0.07	5.2	-31.3	---	---	721.3	0.030	0.000	18.0	1	1
03/31/06	11:33 a	-24.4	-24.4	-24.4	---	---	4.3	NE	0.07	6.1	-31.3	---	---	721.2	0.030	0.000	18.0	1	1
03/31/06	11:34 a	-24.4	-24.3	-24.4	---	---	3.5	NE	0.06	5.2	-30.3	---	---	721.3	0.030	0.000	18.0	1	1
03/31/06	11:35 a	-24.3	-24.3	-24.4	---	---	6.1	NE	0.10	7.0	-32.9	---	---	721.2	0.030	0.000	18.0	1	1
03/31/06	11:36 a	-24.3	-24.3	-24.3	---	---	7.0	NE	0.12	7.8	-33.6	---	---	721.3	0.030	0.000	18.0	1	1
03/31/06	11:37 a	-24.3	-24.3	-24.3	---	---	7.0	NE	0.12	7.8	-33.6	---	---	721.3	0.030	0.000	18.0	1	1
03/31/06	11:38 a	-24.3	-24.3	-24.3	---	---	7.8	NE	0.13	9.6	-34.2	---	---	721.3	0.030	0.000	18.0	1	1
03/31/06	11:39 a	-24.3	-24.3	-24.3	---	---	8.7	NE	0.14	8.7	-34.7	---	---	721.2	0.030	0.000	17.9	1	1
03/31/06	11:40 a	-24.3	-24.3	-24.3	---	---	7.8	NE	0.13	8.7	-34.2	---	---	721.2	0.030	0.000	17.9	1	1
03/31/06	11:41 a	-24.3	-24.3	-24.3	---	---	8.7	NE	0.14	9.6	-34.6	---	---	721.2	0.030	0.000	17.9	1	1
03/31/06	11:42 a	-24.3	-24.3	-24.3	---	---	7.8	NE	0.13	8.7	-34.1	---	---	721.2	0.030	0.000	18.0	1	1
03/31/06	11:43 a	-24.3	-24.3	-24.3	---	---	7.0	NE	0.12	7.8	-33.5	---	---	721.2	0.030	0.000	18.0	1	1
03/31/06	11:44 a	-24.3	-24.3	-24.3	---	---	7.8	NE	0.13	8.7	-34.1	---	---	721.2	0.030	0.000	18.0	1	1
03/31/06	11:45 a	-24.3	-24.3	-24.3	---	---	8.7	NE	0.14	8.7	-34.7	---	---	721.1	0.030	0.000	18.0	1	1
03/31/06	11:46 a	-24.3	-24.2	-24.3	---	---	8.7	NE	0.14	9.6	-34.6	---	---	721.2	0.030	0.000	18.0	1	1
03/31/06	11:47 a	-24.3	-24.3	-24.3	---	---	8.7	NE	0.14	9.6	-34.6	---	---	721.0	0.030	0.000	18.0	1	1
03/31/06	11:48 a	-24.3	-24.3	-24.3	---	---	7.8	NE	0.13	9.6	-34.1	---	---	721.2	0.030	0.000	17.9	1	1
03/31/06	11:49 a	-24.3	-24.3	-24.3	---	---	7.8	NE	0.13	7.8	-34.1	---	---	721.1	0.030	0.000	18.0	1	1
03/31/06	11:50 a	-24.3	-24.3	-24.3	---	---	7.8	NE	0.13	9.6	-34.1	---	---	721.1	0.030	0.000	18.0	1	1
03/31/06	11:51 a	-24.3	-24.3	-24.3	---	---	7.8	NE	0.13	8.7	-34.1	---	---	721.0	0.030	0.000	18.0	1	1
03/31/06	11:52 a	-24.3	-24.2	-24.3	---	---	7.0	NE	0.12	8.7	-33.5	---	---	721.1	0.030	0.000	18.0	1	1
03/31/06	11:53 a	-24.3	-24.2	-24.3	---	---	7.0	NE	0.12	8.7	-33.5	---	---	721.2	0.030	0.000	18.0	1	1
03/31/06	11:54 a	-24.3	-24.2	-24.3	---	---	7.8	NE	0.13	8.7	-34.1	---	---	721.2	0.030	0.000	18.0	1	1
03/31/06	11:55 a	-24.3	-24.3	-24.3	---	---	6.1	NE	0.10	7.8	-32.8	---	---	721.1	0.030	0.000	18.0	1	1
03/31/06	11:56 a	-24.3	-24.3	-24.3	---	---	6.1	NE	0.10	7.8	-32.8	---	---	721.1	0.030	0.000	18.0	1	1
03/31/06	11:57 a	-24.3	-24.3	-24.3	---	---	6.1	NE	0.10	7.0	-32.8	---	---	721.1	0.030	0.000	18.0	1	1
03/31/06	11:58 a	-24.3	-24.3	-24.3	---	---	6.1	NE	0.10	7.0	-32.8	---	---	721.1	0.030	0.000	18.0	1	1
03/31/06	11:59 a	-24.3	-24.3	-24.3	---	---	6.1	NE	0.10	7.0	-32.8	---	---	721.1	0.030	0.000	18.0	1	1
03/31/06	12:00 p	-24.3	-24.2	-24.3	---	---	6.1	NE	0.10	7.0	-32.8	---	---	721.1	0.030	0.000	18.0	1	1
03/31/06	12:01 p	-24.3	-24.3	-24.3	---	---	6.1	NE	0.10	7.0	-32.8	---	---	721.1	0.030	0.000	18.0	1	1
03/31/06	12:02 p	-24.2	-24.2	-24.3	---	---	7.0	NE	0.12	7.8	-33.4	---	---	721.1	0.030	0.000	18.0	1	1
03/31/06	12:03 p	-24.2	-24.2	-24.3	---	---	7.0	NE	0.12	7.8	-33.4	---	---	721.2	0.030	0.000	18.0	1	1
03/31/06	12:04 p	-24.3	-24.2	-24.3	---	---	7.0	NE	0.12	7.0	-33.5	---	---	721.1	0.030	0.000	18.0	1	1
03/31/06	12:05 p	-24.3	-24.3	-24.3	---	---	6.1	NE	0.10	7.0	-32.8	---	---	721.1	0.030	0.000	18.0	1	1
03/31/06	12:06 p	-24.3	-24.2	-24.3	---	---	5.2	NE	0.09	7.0	-32.1	---	---	721.1	0.030	0.000	18.0	1	1
03/31/06	12:07 p	-24.2	-24.2	-24.3	---	---	6.1	NE	0.10	7.0	-32.7	---	---	721.2	0.030	0.000	18.0	1	1
03/31/06	12:08 p	-24.3	-24.2	-24.3	---	---	6.1	NE	0.10	7.0	-32.8	---	---	721.1	0.030	0.000	18.0	1	1
03/31/06	12:09 p	-24.3	-24.2	-24.3	---	---	6.1	NE	0.10	7.0	-32.8	---	---	721.2	0.030	0.000	18.0	1	1
03/31/06	12:10 p	-24.2	-24.2	-24.2	---	---	6.1	NE	0.10	7.0	-32.7	---	---	721.2	0.030	0.000	18.0	1	1
03/31/06	12:11 p	-24.3	-24.2	-24.3	---	---	6.1	NE	0.10	6.1	-32.8	---	---	721.1	0.030	0.000	18.0	1	1
03/31/06	12:12 p	-24.2	-24.2	-24.2	---	---	6.1	NE	0.10	7.0	-32.7	---	---	721.1	0.030	0.000	18.0	1	1
03/31/06	12:13 p	-24.2	-24.2	-24.2	---	---	5.2	NE	0.09	6.1	-32.0	---	---	721.2	0.030	0.000	18.0	1	1
03/31/06	12:14 p	-24.2	-24.2	-24.2	---	---	5.2	NE	0.09	6.1	-32.0	---	---	721.1	0.030	0.000	18.0	1	1
03/31/06	12:15 p	-24.2	-24.2	-24.2	---	---	5.2	NE	0.09	5.2	-32.0	---	---	721.1	0.030	0.000	18.0	1	1
03/31/06	12:16 p	-24.2	-24.2	-24.2	---	---	4.3	NE	0.07	5.2	-31.1	---	---	721.1	0.030	0.000	18.0	1	1
03/31/06	12:17 p	-24.2	-24.2	-24.2	---	---	4.3	NE	0.07	5.2	-31.1	---	---	721.0	0.030	0.000	17.9	1	1
03/31/06	12:18 p	-24.2	-24.2	-24.2	---	---	4.3	NE	0.07	5.2	-31.1	---	---	721.1	0.030	0.000	17.9	1	1
03/31/06	12:19 p	-24.2	-24.2	-24.2	---	---	3.5	ENE	0.06	4.3	-30.1	---	---	721.1	0.030	0.000	17.9	1	1
03/31/06	12:20 p	-24.1	-24.1	-24.2	---	---	3.5	ENE	0.06	4.3	-30.0	---	---	721.0	0.029	0.000	17.9	1	1
03/31/06	12:21 p	-24.1	-24.1	-24.1	---	---	3.5	ENE	0.06	4.3	-30.0	---	---	721.0	0.029	0.000	17.9	1	1
03/31/06	12:22 p	-24.1	-24.1	-24.1	---	---	2.6	ENE	0.04	3.5	-28.7	---	---	721.1	0.029	0.000	17.9	1	1
03/31/06	12:23 p	-24.1	-24.1	-24.1	---	---	2.6	ENE	0.04	3.5	-28.7	---	---	721.1	0.029	0.000	17.9	1	1
03/31/06	12:24 p	-24.1	-24.1	-24.1	---	---	2.6	ENE	0.04	3.5	-28.7	---	---	721.1	0.029	0.000	17.9	1	1
03/31/06	12:25 p	-24.1	-24.0	-24.1	---	---	2.6	ENE	0.04	3.5	-28.7	---	---	721.0	0.029	0.000	17.9	1	1
03/31/06	12:26 p	-24.0	-24.0	-24.1	---	---	2.6	ENE	0.04	2.6	-28.6	---	---	721.0	0.029	0.000	17.9	1	1
03/31/06	12:27 p	-24.0	-24.0	-24.1	---	---	1.7	ENE	0.03	3.5	-26.9	---	---	721.0	0.029	0.000	17.9	1	1
03/31/06	12:28 p	-24.0	-24.0	-24.0	---	---	2.6	ENE	0.04	3.5	-28.6	---	---	721.1	0.029	0.000	17.9	1	1
03/31/06	12:29 p	-24.0	-23.9	-24.0	---	---	1.7	ENE	0.03	2.6	-26.9	---	---	721.1	0.029	0.000	17.9	1	1
03/31/06	12:30 p	-24.0	-23.9	-24.0	---	---	2.6	ENE	0.04	3.5	-28.6	---	---	721.0	0.029	0.000	17.9	1	1
03/31/06	12:31 p	-23.9	-23.9	-23.9	---	---	2.6	ENE	0.04	3.5	-28.5	---	---	721.0	0.029	0.000	17.9	1	1
03/31/06	12:32 p	-23.9	-23.9	-23.9	---	---	2.6	ENE	0.04	2.6	-28.4	---	---	721.0	0.029	0.000	17.9	1	1
03/31/06	12:33 p	-23.9	-23.9	-23.9	---	---	2.6	ENE	0.04	2.6	-28.4	---	---	721.0	0.029	0.000	17.9	1	1
03/31/06	12:34 p	-23.8	-23.8	-23.9	---	---	1.7	ENE	0.03	2.6	-26.7	---	---	721.0	0.029	0.000	17.9	1	1
03/31/06	12:35 p	-23.9	-23.8	-23.9	---	---	1.7	ENE	0.03	1.7	-26.8	---	---	721.0	0.029	0.000	17.9	1	1
03/31/06	12:36 p	-23.8	-23.8	-23.9	---	---	0.9	ENE	0.01	1.7	-24.1	---	---	721.0	0.029	0.000	17.9	1	1
03/31/06	12:37 p	-23.8	-23.7	-23.8	---	---	0.9	ENE	0.01	1.7	-24.0	---	---	721.1	0.029	0.000	17.9	1	1
03/31/06	12:38 p	-23.7	-23.7	-23.8	---	---	0.9	ENE	0.01	1.7	-23.9	---	---	721.1	0.029	0.000	17.9	1	1
03/31/06	12:39 p	-23.7	-23.7	-23.7	---	---	0.9	ENE	0.01	1.7	-23.9	---	---	721.1	0.029	0.000	17.9	1	1
03/31/06	12:40 p	-23.7	-23.7	-23.7	---	---	0.9	ENE	0.01	0.9	-23.9	---	---	721.0	0.029	0.000	17.9	1	1
03/31/06	12:41 p	-23.7	-23.7	-23.7	---	---	0.0	ENE	0.00	0.9	-23.6	---	---	721.0	0.029	0.000	17.9	1	1
03/31/06	12:42 p	-23.7	-23.6	-23.7	---	---	0.0	ENE	0.00	0.9	-23.6	---	---	721.0	0.029	0.000	17.9	1	1
03/31/06	12:43 p	-23.7	-23.6	-23.7	---	---	0.9	ENE	0.01	0.9	-23.9	---	---	721.0	0.029	0.000	17.9	1	1
03/31/06	12:44 p	-23.6	-23.6	-23.7	---	---	0.9	ENE	0.01	1.7	-23.8	---	---	721.0	0.029	0.000	17.9	1	1
03/31/06	12:45 p	-23.6	-23.6	-23.6	---	---	0.9	ENE	0.01	1.7	-23.8	---	---	721.0	0.029	0.000	17.9	1	1
03/31/06	12:46 p	-23.6	-23.6	-23.6	---	---	0.9	ENE	0.01	1.7	-23.8	---	---	721.0	0.029	0.000	17.9	1	1
03/31/06	12:47 p	-23.6	-23.6	-23.6	---	---	0.9	ENE	0.01	0.9	-23.8	---	---	721.0	0.029	0.000	17.9	1	1
03/31/06	12:48 p	-23.6	-23.6	-23.6	---	---	0.9	ENE	0.01	1.7	-23.8	---	---	721.0	0.029	0.000	17.9	1	1
03/31/06	12:49 p	-23.6	-23.5	-23.6	---	---	0.9	ENE	0.01	1.7	-23.8	---	---	720.9	0.029	0.000	17.9	1	1
03/31/06	12:50 p	-23.6	-23.6	-23.6	---	---	0.9	ENE	0.01	1.7	-23.8	---	---	721.1	0.029	0.000	17.9	1	1
03/31/06	12:51 p	-23.5	-23.5	-23.6	---	---	0.9	ENE	0.01	0.9	-23.7	---	---	721.1	0.029	0.000	17.9	1	1
03/31/06	12:52 p	-23.5	-23.4	-23.6	---	---	0.9	ENE	0.01	0.9	-23.7	---	---	721.1	0.029	0.000	17.9	1	1
03/31/06	12:53 p	-23.5	-23.4	-23.5	---	---	0.0	ENE	0.00	0.9	-23.4	---	---	721.0	0.029	0.000	17.9	1	1
03/31/06	12:54 p	-23.5	-23.4	-23.5	---	---	0.0	---	0.00	0.0	-23.4	---	---	721.0	0.029	0.000	17.9	1	1
03/31/06	12:55 p	-23.5	-23.5	-23.5	---	---	0.0	---	0.00	0.0	-23.4	---	---	721.0	0.029	0.000	17.9	1	1
03/31/06	12:56 p	-23.5	-23.4	-23.5	---	---	0.0	---	0.00	0.0	-23.4	---	---	721.0	0.029	0.000	17.9	1	1
03/31/06	12:57 p	-23.4	-23.4	-23.4	---	---	0.0	---	0.00	0.0	-23.4	---	---	721.0	0.029	0.000	17.9	1	1
03/31/06	12:58 p	-23.4	-23.4	-23.5	---	---	0.0	---	0.00	0.0	-23.4	---	---	721.1	0.029	0.000	17.9	1	1
03/31/06	12:59 p	-23.4	-23.4	-23.4	---	---	0.0	---	0.00	0.0	-23.4	---	---	721.0	0.029	0.000	17.9	1	1
03/31/06	1:00 p	-23.4	-23.4	-23.4	---	---	0.0	---	0.00	0.0	-23.4	---	---	721.1	0.029	0.000	17.9	1	1
03/31/06	1:01 p	-23.4	-23.4	-23.5	---	---	0.0	---	0.00	0.0	-23.4	---	---	721.0	0.029	0.000	17.9	1	1
03/31/06	1:02 p	-23.4	-23.4	-23.4	---	---	0.0	---	0.00	0.0	-23.4	---	---	721.1	0.029	0.000	17.9	1	1
03/31/06	1:03 p	-23.4	-23.4	-23.4	---	---	0.0	---	0.00	0.0	-23.4	---	---	721.0	0.029	0.000	17.9	1	1
03/31/06	1:04 p	-23.4	-23.4	-23.4	---	---	0.0	---	0.00	0.0	-23.4	---	---	721.1	0.029	0.000	17.9	1	1
03/31/06	1:05 p	-23.4	-23.4	-23.4	---	---	0.0	---	0.00	0.0	-23.4	---	---	721.0	0.029	0.000	17.9	1	1
03/31/06	1:06 p	-23.4	-23.4	-23.4	---	---	0.0	---	0.00	0.0	-23.3	---	---	721.1	0.029	0.000	17.9	1	1
03/31/06	1:07 p	-23.4	-23.4	-23.4	---	---	0.0	---	0.00	0.0	-23.4	---	---	721.0	0.029	0.000	17.9	1	1
03/31/06	1:08 p	-23.4	-23.4	-23.4	---	---	0.0	---	0.00	0.0	-23.4	---	---	721.0	0.029	0.000	17.9	1	1
03/31/06	1:09 p	-23.4	-23.4	-23.4	---	---	0.0	---	0.00	0.0	-23.4	---	---	721.0	0.029	0.000	18.0	1	1
03/31/06	1:10 p	-23.4	-23.4	-23.4	---	---	0.0	---	0.00	0.0	-23.4	---	---	721.1	0.029	0.000	18.0	1	1
03/31/06	1:11 p	-23.4	-23.4	-23.4	---	---	0.0	---	0.00	0.0	-23.4	---	---	721.1	0.029	0.000	18.0	1	1
03/31/06	1:12 p	-23.4	-23.4	-23.4	---	---	0.0	---	0.00	0.0	-23.4	---	---	721.1	0.029	0.000	18.0	1	1
03/31/06	1:13 p	-23.4	-23.4	-23.4	---	---	0.0	---	0.00	0.0	-23.4	---	---	721.1	0.029	0.000	18.0	1	1
03/31/06	1:14 p	-23.4	-23.4	-23.4	---	---	0.0	ENE	0.00	0.9	-23.4	---	---	721.0	0.029	0.000	18.0	1	1
03/31/06	1:15 p	-23.5	-23.4	-23.5	---	---	0.0	ENE	0.00	0.9	-23.4	---	---	721.1	0.029	0.000	18.1	1	1
03/31/06	1:16 p	-23.5	-23.4	-23.5	---	---	0.0	---	0.00	0.0	-23.4	---	---	721.0	0.029	0.000	18.1	1	1
03/31/06	1:17 p	-23.5	-23.4	-23.5	---	---	0.0	---	0.00	0.0	-23.4	---	---	720.9	0.029	0.000	18.1	1	1
03/31/06	1:18 p	-23.5	-23.5	-23.5	---	---	0.0	---	0.00	0.0	-23.4	---	---	721.0	0.029	0.000	18.1	1	1
03/31/06	1:19 p	-23.5	-23.5	-23.6	---	---	0.0	---	0.00	0.0	-23.4	---	---	721.0	0.029	0.000	18.1	1	1
03/31/06	1:20 p	-23.6	-23.5	-23.6	---	---	0.0	---	0.00	0.0	-23.5	---	---	721.0	0.029	0.000	18.1	1	1
03/31/06	1:21 p	-23.5	-23.5	-23.6	---	---	0.0	---	0.00	0.0	-23.4	---	---	721.0	0.029	0.000	18.1	1	1
03/31/06	1:22 p	-23.6	-23.5	-23.6	---	---	0.0	ENE	0.00	0.9	-23.5	---	---	721.0	0.029	0.000	18.1	1	1
03/31/06	1:23 p	-23.6	-23.5	-23.6	---	---	0.9	ENE	0.01	0.9	-23.8	---	---	721.1	0.029	0.000	18.1	1	1
03/31/06	1:24 p	-23.6	-23.5	-23.6	---	---	0.0	ENE	0.00	0.9	-23.5	---	---	721.0	0.029	0.000	18.1	1	1
03/31/06	1:25 p	-23.6	-23.6	-23.6	---	---	0.0	---	0.00	0.0	-23.5	---	---	721.0	0.029	0.000	18.1	1	1
03/31/06	1:26 p	-23.6	-23.6	-23.6	---	---	0.0	---	0.00	0.0	-23.5	---	---	721.0	0.029	0.000	18.1	1	1
03/31/06	1:27 p	-23.6	-23.6	-23.6	---	---	0.0	---	0.00	0.0	-23.5	---	---	721.0	0.029	0.000	18.1	1	1
03/31/06	1:28 p	-23.6	-23.6	-23.6	---	---	0.0	---	0.00	0.0	-23.6	---	---	721.0	0.029	0.000	18.1	1	1
03/31/06	1:29 p	-23.6	-23.6	-23.6	---	---	0.0	---	0.00	0.0	-23.6	---	---	721.0	0.029	0.000	18.1	1	1
03/31/06	1:30 p	-23.7	-23.6	-23.7	---	---	0.0	---	0.00	0.0	-23.6	---	---	721.0	0.029	0.000	18.1	1	1
03/31/06	1:31 p	-23.6	-23.6	-23.7	---	---	0.0	---	0.00	0.0	-23.6	---	---	721.0	0.029	0.000	18.1	1	1
03/31/06	1:32 p	-23.6	-23.6	-23.6	---	---	0.0	---	0.00	0.0	-23.6	---	---	721.0	0.029	0.000	18.1	1	1
03/31/06	1:33 p	-23.6	-23.6	-23.7	---	---	0.0	---	0.00	0.0	-23.6	---	---	721.0	0.029	0.000	18.1	1	1
03/31/06	1:34 p	-23.6	-23.6	-23.7	---	---	0.0	ENE	0.00	0.9	-23.6	---	---	721.0	0.029	0.000	18.1	1	1
03/31/06	1:35 p	-23.6	-23.6	-23.6	---	---	0.9	ENE	0.01	0.9	-23.8	---	---	721.0	0.029	0.000	18.1	1	1
03/31/06	1:36 p	-23.6	-23.5	-23.6	---	---	0.9	ENE	0.01	0.9	-23.8	---	---	721.0	0.029	0.000	18.1	1	1
03/31/06	1:37 p	-23.5	-23.4	-23.5	---	---	0.9	ENE	0.01	0.9	-23.7	---	---	721.2	0.029	0.000	18.1	1	1
03/31/06	1:38 p	-23.4	-23.4	-23.5	---	---	0.9	ENE	0.01	0.9	-23.7	---	---	721.1	0.029	0.000	18.1	1	1
03/31/06	1:39 p	-23.4	-23.4	-23.4	---	---	0.0	ENE	0.00	0.9	-23.4	---	---	721.1	0.029	0.000	18.1	1	1
03/31/06	1:40 p	-23.4	-23.4	-23.4	---	---	0.0	ENE	0.00	0.9	-23.3	---	---	721.0	0.029	0.000	18.1	1	1
03/31/06	1:41 p	-23.3	-23.3	-23.3	---	---	0.0	ENE	0.00	0.9	-23.3	---	---	720.9	0.029	0.000	18.1	1	1
03/31/06	1:42 p	-23.3	-23.2	-23.3	---	---	0.0	ENE	0.00	0.9	-23.2	---	---	721.0	0.029	0.000	18.1	1	1
03/31/06	1:43 p	-23.2	-23.1	-23.2	---	---	0.9	ENE	0.01	0.9	-23.4	---	---	721.1	0.029	0.000	18.1	1	1
03/31/06	1:44 p	-23.1	-23.0	-23.1	---	---	0.9	ENE	0.01	1.7	-23.3	---	---	721.1	0.029	0.000	18.1	1	1
03/31/06	1:45 p	-22.9	-22.9	-23.0	---	---	0.9	ENE	0.01	1.7	-23.2	---	---	721.0	0.029	0.000	18.1	1	1
03/31/06	1:46 p	-22.8	-22.8	-22.8	---	---	0.9	ENE	0.01	1.7	-23.1	---	---	721.0	0.029	0.000	18.1	1	1
03/31/06	1:47 p	-22.8	-22.7	-22.8	---	---	0.9	ENE	0.01	1.7	-23.0	---	---	721.0	0.029	0.000	18.1	1	1
03/31/06	1:48 p	-22.6	-22.6	-22.7	---	---	1.7	ENE	0.03	2.6	-25.4	---	---	721.0	0.028	0.000	18.1	1	1
03/31/06	1:49 p	-22.6	-22.5	-22.6	---	---	1.7	ENE	0.03	2.6	-25.3	---	---	721.1	0.028	0.000	18.1	1	1
03/31/06	1:50 p	-22.4	-22.4	-22.5	---	---	0.9	ENE	0.01	0.9	-22.6	---	---	721.1	0.028	0.000	18.1	1	1
03/31/06	1:51 p	-22.4	-22.3	-22.4	---	---	0.9	ENE	0.01	0.9	-22.6	---	---	721.1	0.028	0.000	18.1	1	1
03/31/06	1:52 p	-22.4	-22.3	-22.4	---	---	0.0	ENE	0.00	0.9	-22.3	---	---	721.0	0.028	0.000	18.1	1	1
03/31/06	1:53 p	-22.3	-22.3	-22.3	---	---	0.9	ENE	0.01	0.9	-22.5	---	---	721.1	0.028	0.000	18.1	1	1
03/31/06	1:54 p	-22.3	-22.3	-22.3	---	---	0.9	ENE	0.01	1.7	-22.5	---	---	721.1	0.028	0.000	18.1	1	1
03/31/06	1:55 p	-22.3	-22.3	-22.3	---	---	1.7	ENE	0.03	1.7	-25.0	---	---	721.1	0.028	0.000	18.1	1	1
03/31/06	1:56 p	-22.3	-22.2	-22.3	---	---	1.7	ENE	0.03	1.7	-25.0	---	---	721.1	0.028	0.000	18.1	1	1
03/31/06	1:57 p	-22.2	-22.2	-22.3	---	---	0.9	ENE	0.01	1.7	-22.4	---	---	721.1	0.028	0.000	18.1	1	1
03/31/06	1:58 p	-22.2	-22.2	-22.2	---	---	1.7	ENE	0.03	2.6	-24.9	---	---	721.1	0.028	0.000	18.1	1	1
03/31/06	1:59 p	-22.2	-22.2	-22.2	---	---	2.6	ENE	0.04	3.5	-26.5	---	---	721.1	0.028	0.000	18.1	1	1
03/31/06	2:00 p	-22.1	-22.1	-22.2	---	---	2.6	ENE	0.04	3.5	-26.4	---	---	721.1	0.028	0.000	18.1	1	1
03/31/06	2:01 p	-22.1	-22.1	-22.1	---	---	2.6	ENE	0.04	2.6	-26.4	---	---	721.1	0.028	0.000	18.1	1	1
03/31/06	2:02 p	-22.1	-22.1	-22.1	---	---	2.6	NE	0.04	2.6	-26.4	---	---	721.1	0.028	0.000	18.1	1	1
03/31/06	2:03 p	-22.1	-22.0	-22.1	---	---	2.6	NE	0.04	2.6	-26.4	---	---	721.1	0.028	0.000	18.1	1	1
03/31/06	2:04 p	-22.0	-21.9	-22.0	---	---	2.6	NE	0.04	3.5	-26.3	---	---	721.1	0.028	0.000	18.1	1	1
03/31/06	2:05 p	-21.9	-21.9	-21.9	---	---	2.6	NNE	0.04	3.5	-26.3	---	---	721.0	0.028	0.000	18.1	1	1
03/31/06	2:06 p	-21.9	-21.8	-21.9	---	---	2.6	NNE	0.04	2.6	-26.2	---	---	721.0	0.028	0.000	18.1	1	1
03/31/06	2:07 p	-21.8	-21.8	-21.8	---	---	2.6	NNE	0.04	3.5	-26.1	---	---	721.0	0.028	0.000	18.1	1	1
03/31/06	2:08 p	-21.8	-21.8	-21.8	---	---	3.5	NNE	0.06	4.3	-27.3	---	---	721.0	0.028	0.000	18.1	1	1
03/31/06	2:09 p	-21.8	-21.8	-21.8	---	---	2.6	NNE	0.04	3.5	-26.1	---	---	721.1	0.028	0.000	18.1	1	1
03/31/06	2:10 p	-21.8	-21.8	-21.8	---	---	2.6	NNE	0.04	3.5	-26.1	---	---	721.2	0.028	0.000	18.1	1	1
03/31/06	2:11 p	-21.8	-21.8	-21.9	---	---	2.6	NNE	0.04	3.5	-26.1	---	---	721.1	0.028	0.000	18.1	1	1
03/31/06	2:12 p	-21.9	-21.9	-21.9	---	---	2.6	NNE	0.04	3.5	-26.2	---	---	721.1	0.028	0.000	18.1	1	1
03/31/06	2:13 p	-21.9	-21.9	-21.9	---	---	2.6	NNE	0.04	2.6	-26.3	---	---	721.1	0.028	0.000	18.1	1	1
03/31/06	2:14 p	-22.0	-21.9	-22.0	---	---	2.6	NNE	0.04	2.6	-26.3	---	---	721.1	0.028	0.000	18.1	1	1
03/31/06	2:15 p	-22.0	-22.0	-22.1	---	---	2.6	NNE	0.04	3.5	-26.3	---	---	721.0	0.028	0.000	18.1	1	1
03/31/06	2:16 p	-22.0	-22.0	-22.1	---	---	2.6	NNE	0.04	3.5	-26.3	---	---	721.0	0.028	0.000	18.1	1	1
03/31/06	2:17 p	-22.0	-21.9	-22.1	---	---	2.6	NNE	0.04	3.5	-26.3	---	---	721.0	0.028	0.000	18.1	1	1
03/31/06	2:18 p	-21.9	-21.9	-21.9	---	---	2.6	NNE	0.04	3.5	-26.3	---	---	721.1	0.028	0.000	18.1	1	1
03/31/06	2:19 p	-21.9	-21.9	-21.9	---	---	2.6	NNE	0.04	3.5	-26.2	---	---	721.0	0.028	0.000	18.1	1	1
03/31/06	2:20 p	-21.9	-21.9	-21.9	---	---	2.6	NNE	0.04	3.5	-26.2	---	---	721.0	0.028	0.000	18.1	1	1
03/31/06	2:21 p	-21.9	-21.8	-21.9	---	---	2.6	NNE	0.04	3.5	-26.2	---	---	721.0	0.028	0.000	18.1	1	1
03/31/06	2:22 p	-21.8	-21.8	-21.8	---	---	2.6	N	0.04	4.3	-26.1	---	---	721.1	0.028	0.000	18.1	1	1
03/31/06	2:23 p	-21.8	-21.8	-21.8	---	---	3.5	N	0.06	4.3	-27.3	---	---	721.1	0.028	0.000	18.1	1	1
03/31/06	2:24 p	-21.7	-21.7	-21.8	---	---	2.6	N	0.04	3.5	-26.0	---	---	721.0	0.028	0.000	18.1	1	1
03/31/06	2:25 p	-21.7	-21.7	-21.7	---	---	3.5	N	0.06	4.3	-27.2	---	---	721.0	0.028	0.000	18.1	1	1
03/31/06	2:26 p	-21.7	-21.7	-21.7	---	---	2.6	N	0.04	3.5	-26.0	---	---	721.0	0.028	0.000	18.1	1	1
03/31/06	2:27 p	-21.7	-21.7	-21.7	---	---	2.6	N	0.04	3.5	-26.0	---	---	721.0	0.028	0.000	18.1	1	1
03/31/06	2:28 p	-21.7	-21.7	-21.7	---	---	2.6	N	0.04	3.5	-26.0	---	---	721.0	0.028	0.000	18.1	1	1
03/31/06	2:29 p	-21.7	-21.7	-21.7	---	---	3.5	N	0.06	4.3	-27.2	---	---	721.1	0.028	0.000	18.1	1	1
03/31/06	2:30 p	-21.7	-21.7	-21.7	---	---	2.6	N	0.04	3.5	-26.0	---	---	721.1	0.028	0.000	18.1	1	1
03/31/06	2:31 p	-21.7	-21.7	-21.7	---	---	2.6	N	0.04	3.5	-26.0	---	---	721.1	0.028	0.000	18.1	1	1
03/31/06	2:32 p	-21.7	-21.7	-21.8	---	---	2.6	N	0.04	3.5	-26.0	---	---	721.1	0.028	0.000	18.1	1	1
03/31/06	2:33 p	-21.8	-21.7	-21.8	---	---	2.6	N	0.04	3.5	-26.1	---	---	721.0	0.028	0.000	18.1	1	1
03/31/06	2:34 p	-21.8	-21.8	-21.8	---	---	2.6	N	0.04	3.5	-26.1	---	---	721.1	0.028	0.000	18.1	1	1
03/31/06	2:35 p	-21.8	-21.8	-21.8	---	---	2.6	N	0.04	2.6	-26.1	---	---	721.0	0.028	0.000	18.1	1	1
03/31/06	2:36 p	-21.8	-21.8	-21.8	---	---	2.6	N	0.04	2.6	-26.1	---	---	721.1	0.028	0.000	18.1	1	1
03/31/06	2:37 p	-21.8	-21.8	-21.8	---	---	2.6	N	0.04	2.6	-26.1	---	---	721.1	0.028	0.000	18.1	1	1
03/31/06	2:38 p	-21.8	-21.8	-21.8	---	---	1.7	N	0.03	2.6	-24.4	---	---	721.1	0.028	0.000	18.1	1	1
03/31/06	2:39 p	-21.8	-21.8	-21.8	---	---	1.7	N	0.03	2.6	-24.4	---	---	721.1	0.028	0.000	18.1	1	1
03/31/06	2:40 p	-21.8	-21.8	-21.8	---	---	2.6	N	0.04	2.6	-26.1	---	---	721.1	0.028	0.000	18.1	1	1
03/31/06	2:41 p	-21.8	-21.8	-21.8	---	---	2.6	N	0.04	3.5	-26.1	---	---	721.1	0.028	0.000	18.1	1	1
03/31/06	2:42 p	-21.7	-21.7	-21.8	---	---	2.6	N	0.04	3.5	-26.0	---	---	721.1	0.028	0.000	18.1	1	1
03/31/06	2:43 p	-21.7	-21.7	-21.7	---	---	2.6	N	0.04	3.5	-26.0	---	---	721.0	0.028	0.000	18.1	1	1
03/31/06	2:44 p	-21.7	-21.7	-21.7	---	---	2.6	N	0.04	3.5	-26.0	---	---	721.0	0.028	0.000	18.1	1	1
03/31/06	2:45 p	-21.7	-21.7	-21.7	---	---	1.7	N	0.03	3.5	-24.3	---	---	721.1	0.028	0.000	18.0	1	1
03/31/06	2:46 p	-21.7	-21.6	-21.7	---	---	1.7	N	0.03	2.6	-24.3	---	---	721.1	0.028	0.000	18.0	1	1
03/31/06	2:47 p	-21.6	-21.6	-21.7	---	---	1.7	N	0.03	2.6	-24.3	---	---	721.1	0.028	0.000	18.0	1	1
03/31/06	2:48 p	-21.6	-21.6	-21.7	---	---	2.6	N	0.04	3.5	-25.9	---	---	721.0	0.028	0.000	18.0	1	1
03/31/06	2:49 p	-21.6	-21.6	-21.6	---	---	2.6	N	0.04	3.5	-25.9	---	---	721.0	0.028	0.000	18.0	1	1
03/31/06	2:50 p	-21.6	-21.6	-21.6	---	---	2.6	N	0.04	4.3	-25.8	---	---	721.1	0.028	0.000	18.0	1	1
03/31/06	2:51 p	-21.6	-21.5	-21.6	---	---	2.6	N	0.04	3.5	-25.8	---	---	721.1	0.028	0.000	18.1	1	1
03/31/06	2:52 p	-21.6	-21.5	-21.6	---	---	2.6	N	0.04	2.6	-25.8	---	---	721.1	0.028	0.000	18.0	1	1
03/31/06	2:53 p	-21.6	-21.5	-21.6	---	---	2.6	N	0.04	3.5	-25.8	---	---	721.2	0.028	0.000	18.0	1	1
03/31/06	2:54 p	-21.5	-21.5	-21.6	---	---	2.6	N	0.04	3.5	-25.8	---	---	721.1	0.028	0.000	18.0	1	1
03/31/06	2:55 p	-21.5	-21.5	-21.5	---	---	2.6	N	0.04	2.6	-25.8	---	---	721.1	0.028	0.000	18.0	1	1
03/31/06	2:56 p	-21.5	-21.5	-21.5	---	---	2.6	N	0.04	2.6	-25.8	---	---	721.1	0.028	0.000	18.1	1	1
03/31/06	2:57 p	-21.5	-21.5	-21.5	---	---	2.6	N	0.04	2.6	-25.8	---	---	721.0	0.028	0.000	18.1	1	1
03/31/06	2:58 p	-21.5	-21.5	-21.5	---	---	2.6	N	0.04	3.5	-25.8	---	---	721.2	0.028	0.000	18.1	1	1
03/31/06	2:59 p	-21.5	-21.5	-21.5	---	---	2.6	N	0.04	2.6	-25.8	---	---	721.1	0.028	0.000	18.1	1	1
03/31/06	3:00 p	-21.5	-21.5	-21.5	---	---	2.6	N	0.04	3.5	-25.8	---	---	721.1	0.028	0.000	18.0	1	1
03/31/06	3:01 p	-21.5	-21.5	-21.6	---	---	3.5	N	0.06	4.3	-26.9	---	---	721.1	0.028	0.000	18.0	1	1
03/31/06	3:02 p	-21.6	-21.6	-21.6	---	---	3.5	N	0.06	4.3	-27.0	---	---	721.2	0.028	0.000	18.1	1	1
03/31/06	3:03 p	-21.6	-21.6	-21.6	---	---	3.5	N	0.06	4.3	-27.0	---	---	721.2	0.028	0.000	18.1	1	1
03/31/06	3:04 p	-21.6	-21.6	-21.6	---	---	4.3	N	0.07	5.2	-28.1	---	---	721.1	0.028	0.000	18.1	1	1
03/31/06	3:05 p	-21.7	-21.6	-21.7	---	---	3.5	N	0.06	4.3	-27.2	---	---	721.2	0.028	0.000	18.1	1	1
03/31/06	3:06 p	-21.7	-21.7	-21.7	---	---	3.5	N	0.06	3.5	-27.2	---	---	721.2	0.028	0.000	18.1	1	1
03/31/06	3:07 p	-21.8	-21.8	-21.8	---	---	1.7	N	0.03	2.6	-24.4	---	---	721.2	0.028	0.000	18.1	1	1
03/31/06	3:08 p	-21.9	-21.8	-21.9	---	---	1.7	N	0.03	2.6	-24.6	---	---	721.1	0.028	0.000	18.1	1	1
03/31/06	3:09 p	-21.9	-21.9	-22.0	---	---	2.6	N	0.04	3.5	-26.3	---	---	721.2	0.028	0.000	18.1	1	1
03/31/06	3:10 p	-22.1	-22.0	-22.1	---	---	2.6	N	0.04	3.5	-26.4	---	---	721.1	0.028	0.000	18.1	1	1
03/31/06	3:11 p	-22.1	-22.1	-22.1	---	---	2.6	N	0.04	3.5	-26.4	---	---	721.1	0.028	0.000	18.1	1	1
03/31/06	3:12 p	-22.1	-22.1	-22.1	---	---	2.6	N	0.04	3.5	-26.4	---	---	721.1	0.028	0.000	18.1	1	1
03/31/06	3:13 p	-22.1	-22.1	-22.1	---	---	2.6	N	0.04	3.5	-26.4	---	---	721.0	0.028	0.000	18.1	1	1
03/31/06	3:14 p	-22.1	-22.1	-22.1	---	---	3.5	N	0.06	4.3	-27.7	---	---	721.1	0.028	0.000	18.1	1	1
03/31/06	3:15 p	-22.1	-22.1	-22.1	---	---	2.6	N	0.04	3.5	-26.4	---	---	721.1	0.028	0.000	18.1	1	1
03/31/06	3:16 p	-22.1	-22.1	-22.1	---	---	2.6	N	0.04	3.5	-26.4	---	---	721.1	0.028	0.000	18.1	1	1
03/31/06	3:17 p	-22.1	-22.1	-22.1	---	---	2.6	N	0.04	3.5	-26.4	---	---	721.1	0.028	0.000	18.1	1	1
03/31/06	3:18 p	-22.1	-22.0	-22.1	---	---	2.6	N	0.04	3.5	-26.4	---	---	721.1	0.028	0.000	18.1	1	1
03/31/06	3:19 p	-22.1	-22.0	-22.1	---	---	2.6	N	0.04	4.3	-26.4	---	---	721.0	0.028	0.000	18.1	1	1
03/31/06	3:20 p	-22.1	-22.1	-22.1	---	---	3.5	N	0.06	5.2	-27.6	---	---	721.1	0.028	0.000	18.1	1	1
03/31/06	3:21 p	-22.1	-22.0	-22.1	---	---	3.5	N	0.06	5.2	-27.6	---	---	721.1	0.028	0.000	18.1	1	1
03/31/06	3:22 p	-22.1	-22.0	-22.1	---	---	2.6	N	0.04	3.5	-26.4	---	---	721.1	0.028	0.000	18.1	1	1
03/31/06	3:23 p	-22.1	-22.0	-22.1	---	---	4.3	N	0.07	5.2	-28.6	---	---	721.1	0.028	0.000	18.1	1	1
03/31/06	3:24 p	-22.1	-22.0	-22.1	---	---	4.3	N	0.07	5.2	-28.6	---	---	721.1	0.028	0.000	18.1	1	1
03/31/06	3:25 p	-22.1	-22.0	-22.1	---	---	3.5	N	0.06	4.3	-27.6	---	---	721.0	0.028	0.000	18.1	1	1
03/31/06	3:26 p	-22.0	-22.0	-22.1	---	---	3.5	N	0.06	4.3	-27.6	---	---	721.1	0.028	0.000	18.1	1	1
03/31/06	3:27 p	-22.0	-21.9	-22.0	---	---	3.5	N	0.06	5.2	-27.6	---	---	721.2	0.028	0.000	18.1	1	1
03/31/06	3:28 p	-21.9	-21.9	-21.9	---	---	3.5	NNW	0.06	4.3	-27.5	---	---	721.1	0.028	0.000	18.1	1	1
03/31/06	3:29 p	-21.9	-21.9	-22.0	---	---	2.6	NNW	0.04	3.5	-26.3	---	---	721.1	0.028	0.000	18.1	1	1
03/31/06	3:30 p	-21.9	-21.9	-21.9	---	---	3.5	NNW	0.06	4.3	-27.5	---	---	721.1	0.028	0.000	18.1	1	1
03/31/06	3:31 p	-21.9	-21.9	-21.9	---	---	4.3	NNW	0.07	5.2	-28.4	---	---	721.1	0.028	0.000	18.1	1	1
03/31/06	3:32 p	-21.9	-21.9	-22.0	---	---	4.3	NNW	0.07	5.2	-28.4	---	---	721.1	0.028	0.000	18.1	1	1
03/31/06	3:33 p	-22.0	-22.0	-22.1	---	---	2.6	NNW	0.04	4.3	-26.3	---	---	721.1	0.028	0.000	18.1	1	1
03/31/06	3:34 p	-22.1	-22.0	-22.1	---	---	2.6	NNW	0.04	4.3	-26.4	---	---	721.2	0.028	0.000	18.1	1	1
03/31/06	3:35 p	-22.1	-22.0	-22.1	---	---	3.5	NNW	0.06	5.2	-27.6	---	---	721.2	0.028	0.000	18.1	1	1
03/31/06	3:36 p	-22.1	-22.0	-22.1	---	---	2.6	NNW	0.04	3.5	-26.4	---	---	721.1	0.028	0.000	18.1	1	1
03/31/06	3:37 p	-22.1	-22.0	-22.1	---	---	3.5	NNW	0.06	4.3	-27.6	---	---	721.1	0.028	0.000	18.1	1	1
03/31/06	3:38 p	-22.1	-22.0	-22.1	---	---	2.6	NNW	0.04	4.3	-26.4	---	---	721.2	0.028	0.000	18.1	1	1
03/31/06	3:39 p	-22.0	-21.9	-22.0	---	---	1.7	NNW	0.03	2.6	-24.7	---	---	721.1	0.028	0.000	18.1	1	1
03/31/06	3:40 p	-22.0	-21.9	-22.0	---	---	2.6	NNW	0.04	3.5	-26.3	---	---	721.1	0.028	0.000	18.1	1	1
03/31/06	3:41 p	-21.9	-21.9	-21.9	---	---	2.6	NNW	0.04	3.5	-26.3	---	---	721.2	0.028	0.000	18.1	1	1
03/31/06	3:42 p	-21.9	-21.9	-21.9	---	---	3.5	NNW	0.06	4.3	-27.4	---	---	721.1	0.028	0.000	18.1	1	1
03/31/06	3:43 p	-21.8	-21.8	-21.9	---	---	2.6	NNW	0.04	2.6	-26.1	---	---	721.1	0.028	0.000	18.1	1	1
03/31/06	3:44 p	-21.8	-21.8	-21.8	---	---	3.5	NNW	0.06	4.3	-27.3	---	---	721.2	0.028	0.000	18.1	1	1
03/31/06	3:45 p	-21.8	-21.8	-21.8	---	---	4.3	NNW	0.07	4.3	-28.3	---	---	721.2	0.028	0.000	18.1	1	1
03/31/06	3:46 p	-21.8	-21.8	-21.8	---	---	3.5	NNW	0.06	4.3	-27.3	---	---	721.1	0.028	0.000	18.1	1	1
03/31/06	3:47 p	-21.8	-21.8	-21.8	---	---	3.5	NNW	0.06	4.3	-27.3	---	---	721.1	0.028	0.000	18.1	1	1
03/31/06	3:48 p	-21.7	-21.7	-21.8	---	---	3.5	NNW	0.06	3.5	-27.2	---	---	721.1	0.028	0.000	18.1	1	1
03/31/06	3:49 p	-21.7	-21.7	-21.8	---	---	2.6	NNW	0.04	3.5	-26.0	---	---	721.1	0.028	0.000	18.1	1	1
03/31/06	3:50 p	-21.7	-21.7	-21.7	---	---	2.6	NNW	0.04	4.3	-26.0	---	---	721.1	0.028	0.000	18.1	1	1
03/31/06	3:51 p	-21.7	-21.7	-21.7	---	---	2.6	NNW	0.04	3.5	-26.0	---	---	721.1	0.028	0.000	18.1	1	1
03/31/06	3:52 p	-21.7	-21.7	-21.7	---	---	2.6	NNW	0.04	3.5	-25.9	---	---	721.1	0.028	0.000	18.1	1	1
03/31/06	3:53 p	-21.7	-21.7	-21.7	---	---	2.6	NNW	0.04	3.5	-25.9	---	---	721.1	0.028	0.000	18.1	1	1
03/31/06	3:54 p	-21.7	-21.7	-21.7	---	---	2.6	NNW	0.04	3.5	-25.9	---	---	721.1	0.028	0.000	18.1	1	1
03/31/06	3:55 p	-21.7	-21.6	-21.7	---	---	1.7	NNW	0.03	2.6	-24.3	---	---	721.1	0.028	0.000	18.1	1	1
03/31/06	3:56 p	-21.6	-21.6	-21.7	---	---	2.6	NNW	0.04	3.5	-25.9	---	---	721.1	0.028	0.000	18.1	1	1
03/31/06	3:57 p	-21.6	-21.6	-21.6	---	---	2.6	NNW	0.04	3.5	-25.9	---	---	721.1	0.028	0.000	18.1	1	1
03/31/06	3:58 p	-21.6	-21.6	-21.6	---	---	2.6	NNW	0.04	3.5	-25.9	---	---	721.1	0.028	0.000	18.1	1	1
03/31/06	3:59 p	-21.6	-21.6	-21.6	---	---	2.6	NNW	0.04	3.5	-25.9	---	---	721.1	0.028	0.000	18.1	1	1
03/31/06	4:00 p	-21.6	-21.5	-21.6	---	---	3.5	NNW	0.06	4.3	-27.0	---	---	721.1	0.028	0.000	18.1	1	1
03/31/06	4:01 p	-21.5	-21.5	-21.6	---	---	2.6	NNW	0.04	3.5	-25.8	---	---	721.1	0.028	0.000	18.1	1	1
03/31/06	4:02 p	-21.5	-21.5	-21.5	---	---	2.6	NNW	0.04	4.3	-25.8	---	---	721.1	0.028	0.000	18.1	1	1
03/31/06	4:03 p	-21.5	-21.5	-21.5	---	---	2.6	NNW	0.04	3.5	-25.8	---	---	721.1	0.028	0.000	18.1	1	1
03/31/06	4:04 p	-21.5	-21.5	-21.5	---	---	2.6	NNW	0.04	3.5	-25.8	---	---	721.1	0.028	0.000	18.1	1	1
03/31/06	4:05 p	-21.5	-21.4	-21.5	---	---	3.5	NNW	0.06	5.2	-26.9	---	---	721.1	0.028	0.000	18.1	1	1
03/31/06	4:06 p	-21.5	-21.4	-21.5	---	---	4.3	N	0.07	5.2	-27.9	---	---	721.1	0.028	0.000	18.1	1	1
03/31/06	4:07 p	-21.4	-21.4	-21.5	---	---	4.3	N	0.07	4.3	-27.9	---	---	721.1	0.028	0.000	18.1	1	1
03/31/06	4:08 p	-21.5	-21.4	-21.5	---	---	3.5	N	0.06	4.3	-26.9	---	---	721.0	0.028	0.000	18.1	1	1
03/31/06	4:09 p	-21.5	-21.4	-21.5	---	---	3.5	N	0.06	3.5	-26.9	---	---	721.0	0.028	0.000	18.1	1	1
03/31/06	4:10 p	-21.5	-21.4	-21.5	---	---	3.5	N	0.06	3.5	-26.9	---	---	721.1	0.028	0.000	18.1	1	1
03/31/06	4:11 p	-21.5	-21.4	-21.5	---	---	2.6	N	0.04	3.5	-25.8	---	---	721.1	0.028	0.000	18.1	1	1
03/31/06	4:12 p	-21.5	-21.4	-21.5	---	---	2.6	N	0.04	3.5	-25.8	---	---	721.1	0.028	0.000	18.1	1	1
03/31/06	4:13 p	-21.4	-21.4	-21.5	---	---	3.5	N	0.06	3.5	-26.9	---	---	721.0	0.028	0.000	18.1	1	1
03/31/06	4:14 p	-21.4	-21.4	-21.5	---	---	3.5	N	0.06	4.3	-26.9	---	---	721.1	0.028	0.000	18.1	1	1
03/31/06	4:15 p	-21.5	-21.4	-21.5	---	---	3.5	N	0.06	4.3	-26.9	---	---	721.0	0.028	0.000	18.1	1	1
03/31/06	4:16 p	-21.5	-21.5	-21.5	---	---	3.5	N	0.06	4.3	-26.9	---	---	721.1	0.028	0.000	18.1	1	1
03/31/06	4:17 p	-21.5	-21.5	-21.5	---	---	2.6	N	0.04	3.5	-25.8	---	---	721.1	0.028	0.000	18.1	1	1
03/31/06	4:18 p	-21.6	-21.5	-21.6	---	---	4.3	N	0.07	6.1	-28.0	---	---	721.1	0.028	0.000	18.1	1	1
03/31/06	4:19 p	-21.6	-21.6	-21.6	---	---	4.3	NNW	0.07	5.2	-28.0	---	---	721.1	0.028	0.000	18.1	1	1
03/31/06	4:20 p	-21.6	-21.6	-21.6	---	---	2.6	NNW	0.04	3.5	-25.8	---	---	721.1	0.028	0.000	18.1	1	1
03/31/06	4:21 p	-21.6	-21.6	-21.6	---	---	3.5	NNW	0.06	4.3	-27.0	---	---	721.1	0.028	0.000	18.1	1	1
03/31/06	4:22 p	-21.6	-21.6	-21.6	---	---	2.6	NNW	0.04	3.5	-25.8	---	---	721.1	0.028	0.000	18.1	1	1
03/31/06	4:23 p	-21.6	-21.6	-21.6	---	---	3.5	NNW	0.06	4.3	-27.0	---	---	721.0	0.028	0.000	18.1	1	1
03/31/06	4:24 p	-21.6	-21.6	-21.6	---	---	2.6	NNW	0.04	3.5	-25.9	---	---	721.1	0.028	0.000	18.1	1	1
03/31/06	4:25 p	-21.6	-21.6	-21.6	---	---	3.5	NNW	0.06	4.3	-27.1	---	---	721.1	0.028	0.000	18.1	1	1
03/31/06	4:26 p	-21.6	-21.6	-21.6	---	---	2.6	NNW	0.04	3.5	-25.9	---	---	721.0	0.028	0.000	18.1	1	1
03/31/06	4:27 p	-21.6	-21.6	-21.6	---	---	3.5	NNW	0.06	4.3	-27.0	---	---	721.1	0.028	0.000	18.1	1	1
03/31/06	4:28 p	-21.6	-21.6	-21.6	---	---	1.7	NNW	0.03	2.6	-24.2	---	---	721.1	0.028	0.000	18.1	1	1
03/31/06	4:29 p	-21.6	-21.5	-21.6	---	---	1.7	NNW	0.03	2.6	-24.2	---	---	721.1	0.028	0.000	18.1	1	1
03/31/06	4:30 p	-21.5	-21.5	-21.6	---	---	1.7	NNW	0.03	2.6	-24.2	---	---	721.0	0.028	0.000	18.1	1	1
03/31/06	4:31 p	-21.5	-21.5	-21.5	---	---	2.6	NNW	0.04	3.5	-25.8	---	---	721.0	0.028	0.000	18.1	1	1
03/31/06	4:32 p	-21.5	-21.5	-21.5	---	---	1.7	NNW	0.03	2.6	-24.2	---	---	721.1	0.028	0.000	18.1	1	1
03/31/06	4:33 p	-21.4	-21.4	-21.5	---	---	1.7	NNW	0.03	2.6	-24.1	---	---	721.0	0.028	0.000	18.1	1	1
03/31/06	4:34 p	-21.4	-21.4	-21.4	---	---	1.7	NNW	0.03	2.6	-24.1	---	---	721.1	0.028	0.000	18.1	1	1
03/31/06	4:35 p	-21.4	-21.4	-21.4	---	---	1.7	NNW	0.03	2.6	-24.1	---	---	721.0	0.028	0.000	18.1	1	1
03/31/06	4:36 p	-21.4	-21.4	-21.4	---	---	1.7	NNW	0.03	3.5	-24.0	---	---	721.1	0.028	0.000	18.1	1	1
03/31/06	4:37 p	-21.4	-21.4	-21.4	---	---	2.6	NNW	0.04	3.5	-25.6	---	---	721.0	0.028	0.000	18.1	1	1
03/31/06	4:38 p	-21.4	-21.4	-21.4	---	---	2.6	NNW	0.04	3.5	-25.6	---	---	721.0	0.028	0.000	18.1	1	1
03/31/06	4:39 p	-21.4	-21.4	-21.4	---	---	2.6	NNW	0.04	3.5	-25.6	---	---	721.1	0.028	0.000	18.1	1	1
03/31/06	4:40 p	-21.4	-21.4	-21.4	---	---	2.6	NNW	0.04	3.5	-25.6	---	---	721.1	0.028	0.000	18.1	1	1
03/31/06	4:41 p	-21.4	-21.4	-21.4	---	---	2.6	NNW	0.04	3.5	-25.6	---	---	721.0	0.028	0.000	18.1	1	1
03/31/06	4:42 p	-21.4	-21.4	-21.4	---	---	2.6	NNW	0.04	3.5	-25.6	---	---	721.0	0.028	0.000	18.1	1	1
03/31/06	4:43 p	-21.4	-21.4	-21.4	---	---	1.7	NNW	0.03	3.5	-24.0	---	---	721.0	0.028	0.000	18.1	1	1
03/31/06	4:44 p	-21.4	-21.4	-21.4	---	---	1.7	NNW	0.03	3.5	-24.0	---	---	721.0	0.028	0.000	18.1	1	1
03/31/06	4:45 p	-21.4	-21.4	-21.4	---	---	2.6	NNW	0.04	3.5	-25.6	---	---	721.0	0.028	0.000	18.1	1	1
03/31/06	4:46 p	-21.4	-21.4	-21.4	---	---	3.5	NNW	0.06	4.3	-26.8	---	---	721.0	0.028	0.000	18.1	1	1
03/31/06	4:47 p	-21.4	-21.4	-21.4	---	---	4.3	NNW	0.07	5.2	-27.8	---	---	721.0	0.028	0.000	18.1	1	1
03/31/06	4:48 p	-21.4	-21.4	-21.4	---	---	3.5	NNW	0.06	4.3	-26.9	---	---	721.0	0.028	0.000	18.1	1	1
03/31/06	4:49 p	-21.5	-21.4	-21.5	---	---	2.6	NNW	0.04	3.5	-25.8	---	---	721.0	0.028	0.000	18.1	1	1
03/31/06	4:50 p	-21.5	-21.5	-21.6	---	---	1.7	NNW	0.03	2.6	-24.2	---	---	721.1	0.028	0.000	18.1	1	1
03/31/06	4:51 p	-21.6	-21.6	-21.6	---	---	1.7	NNW	0.03	2.6	-24.3	---	---	721.0	0.028	0.000	18.1	1	1
03/31/06	4:52 p	-21.7	-21.6	-21.7	---	---	0.9	NNW	0.01	1.7	-21.8	---	---	721.0	0.028	0.000	18.1	1	1
03/31/06	4:53 p	-21.7	-21.7	-21.7	---	---	1.7	NNW	0.03	1.7	-24.4	---	---	721.1	0.028	0.000	18.1	1	1
03/31/06	4:54 p	-21.8	-21.8	-21.8	---	---	2.6	NNW	0.04	3.5	-26.1	---	---	721.0	0.028	0.000	18.1	1	1
03/31/06	4:55 p	-21.8	-21.8	-21.9	---	---	2.6	NNW	0.04	3.5	-26.1	---	---	721.0	0.028	0.000	18.1	1	1
03/31/06	4:56 p	-21.9	-21.9	-21.9	---	---	3.5	NNW	0.06	3.5	-27.4	---	---	721.0	0.028	0.000	18.1	1	1
03/31/06	4:57 p	-21.9	-21.8	-21.9	---	---	3.5	NNW	0.06	4.3	-27.4	---	---	721.0	0.028	0.000	18.1	1	1
03/31/06	4:58 p	-21.9	-21.8	-21.9	---	---	3.5	NNW	0.06	3.5	-27.4	---	---	721.0	0.028	0.000	18.1	1	1
03/31/06	4:59 p	-21.8	-21.8	-21.8	---	---	2.6	NNW	0.04	3.5	-26.1	---	---	721.0	0.028	0.000	18.1	1	1
03/31/06	5:00 p	-21.8	-21.8	-21.8	---	---	2.6	NNW	0.04	3.5	-26.1	---	---	721.0	0.028	0.000	18.1	1	1
03/31/06	5:01 p	-21.8	-21.8	-21.8	---	---	3.5	NNW	0.06	3.5	-27.3	---	---	721.1	0.028	0.000	18.1	1	1
03/31/06	5:02 p	-21.8	-21.8	-21.8	---	---	3.5	NNW	0.06	3.5	-27.3	---	---	721.0	0.028	0.000	18.1	1	1
03/31/06	5:03 p	-21.8	-21.7	-21.8	---	---	3.5	NNW	0.06	3.5	-27.3	---	---	720.9	0.028	0.000	18.1	1	1
03/31/06	5:04 p	-21.7	-21.7	-21.8	---	---	3.5	NNW	0.06	3.5	-27.2	---	---	720.9	0.028	0.000	18.1	1	1
03/31/06	5:05 p	-21.7	-21.7	-21.7	---	---	2.6	NNW	0.04	3.5	-26.0	---	---	721.0	0.028	0.000	18.1	1	1
03/31/06	5:06 p	-21.7	-21.7	-21.7	---	---	2.6	NNW	0.04	3.5	-25.9	---	---	720.9	0.028	0.000	18.1	1	1
03/31/06	5:07 p	-21.7	-21.7	-21.7	---	---	2.6	NNW	0.04	3.5	-25.9	---	---	721.0	0.028	0.000	18.1	1	1
03/31/06	5:08 p	-21.7	-21.7	-21.7	---	---	3.5	NNW	0.06	3.5	-27.2	---	---	721.0	0.028	0.000	18.1	1	1
03/31/06	5:09 p	-21.7	-21.7	-21.7	---	---	2.6	NNW	0.04	3.5	-25.9	---	---	721.0	0.028	0.000	18.1	1	1
03/31/06	5:10 p	-21.6	-21.6	-21.7	---	---	3.5	NNW	0.06	3.5	-27.1	---	---	721.0	0.028	0.000	18.1	1	1
03/31/06	5:11 p	-21.6	-21.6	-21.7	---	---	3.5	NNW	0.06	3.5	-27.1	---	---	721.0	0.028	0.000	18.1	1	1
03/31/06	5:12 p	-21.6	-21.6	-21.6	---	---	2.6	NNW	0.04	4.3	-25.9	---	---	720.9	0.028	0.000	18.1	1	1
03/31/06	5:13 p	-21.6	-21.6	-21.7	---	---	3.5	NNW	0.06	3.5	-27.1	---	---	721.0	0.028	0.000	18.1	1	1
03/31/06	5:14 p	-21.7	-21.6	-21.7	---	---	2.6	NNW	0.04	3.5	-25.9	---	---	721.0	0.028	0.000	18.1	1	1
03/31/06	5:15 p	-21.7	-21.7	-21.7	---	---	2.6	NNW	0.04	2.6	-25.9	---	---	721.0	0.028	0.000	18.1	1	1
03/31/06	5:16 p	-21.7	-21.7	-21.7	---	---	2.6	NNW	0.04	2.6	-25.9	---	---	721.0	0.028	0.000	18.1	1	1
03/31/06	5:17 p	-21.7	-21.7	-21.7	---	---	2.6	NNW	0.04	2.6	-25.9	---	---	721.1	0.028	0.000	18.1	1	1
03/31/06	5:18 p	-21.7	-21.7	-21.7	---	---	1.7	NNW	0.03	2.6	-24.4	---	---	721.1	0.028	0.000	18.1	1	1
03/31/06	5:19 p	-21.7	-21.7	-21.7	---	---	1.7	NNW	0.03	2.6	-24.4	---	---	721.0	0.028	0.000	18.1	1	1
03/31/06	5:20 p	-21.7	-21.7	-21.7	---	---	2.6	NNW	0.04	2.6	-26.0	---	---	721.0	0.028	0.000	18.1	1	1
03/31/06	5:21 p	-21.7	-21.7	-21.7	---	---	1.7	NNW	0.03	2.6	-24.4	---	---	721.1	0.028	0.000	18.1	1	1
03/31/06	5:22 p	-21.7	-21.7	-21.7	---	---	1.7	NNW	0.03	2.6	-24.4	---	---	721.0	0.028	0.000	18.1	1	1
03/31/06	5:23 p	-21.7	-21.7	-21.7	---	---	1.7	NNW	0.03	2.6	-24.4	---	---	721.0	0.028	0.000	18.1	1	1
03/31/06	5:24 p	-21.7	-21.7	-21.7	---	---	1.7	NNW	0.03	2.6	-24.4	---	---	721.0	0.028	0.000	18.1	1	1
03/31/06	5:25 p	-21.7	-21.7	-21.7	---	---	2.6	NNW	0.04	3.5	-26.0	---	---	721.0	0.028	0.000	18.1	1	1
03/31/06	5:26 p	-21.7	-21.7	-21.7	---	---	2.6	NNW	0.04	2.6	-26.0	---	---	721.0	0.028	0.000	18.1	1	1
03/31/06	5:27 p	-21.7	-21.7	-21.7	---	---	1.7	NNW	0.03	2.6	-24.4	---	---	721.0	0.028	0.000	18.1	1	1
03/31/06	5:28 p	-21.7	-21.7	-21.7	---	---	1.7	NNW	0.03	2.6	-24.4	---	---	721.0	0.028	0.000	18.1	1	1
03/31/06	5:29 p	-21.7	-21.7	-21.7	---	---	1.7	NNW	0.03	2.6	-24.4	---	---	721.1	0.028	0.000	18.1	1	1
03/31/06	5:30 p	-21.7	-21.7	-21.7	---	---	1.7	NNW	0.03	2.6	-24.4	---	---	721.0	0.028	0.000	18.1	1	1
03/31/06	5:31 p	-21.7	-21.7	-21.7	---	---	1.7	NNW	0.03	2.6	-24.4	---	---	721.0	0.028	0.000	18.1	1	1
03/31/06	5:32 p	-21.7	-21.7	-21.7	---	---	1.7	NNW	0.03	2.6	-24.4	---	---	721.0	0.028	0.000	18.1	1	1
03/31/06	5:33 p	-21.7	-21.7	-21.7	---	---	2.6	NNW	0.04	2.6	-26.0	---	---	721.0	0.028	0.000	18.1	1	1
03/31/06	5:34 p	-21.7	-21.7	-21.7	---	---	2.6	NNW	0.04	3.5	-26.0	---	---	720.9	0.028	0.000	18.1	1	1
03/31/06	5:35 p	-21.7	-21.7	-21.7	---	---	2.6	NNW	0.04	3.5	-26.0	---	---	721.0	0.028	0.000	18.1	1	1
03/31/06	5:36 p	-21.7	-21.7	-21.7	---	---	1.7	NNW	0.03	2.6	-24.4	---	---	720.9	0.028	0.000	18.1	1	1
03/31/06	5:37 p	-21.7	-21.7	-21.7	---	---	1.7	NNW	0.03	2.6	-24.4	---	---	720.9	0.028	0.000	18.1	1	1
03/31/06	5:38 p	-21.7	-21.7	-21.7	---	---	1.7	NNW	0.03	2.6	-24.4	---	---	721.0	0.028	0.000	18.1	1	1
03/31/06	5:39 p	-21.7	-21.7	-21.7	---	---	1.7	NNW	0.03	1.7	-24.3	---	---	721.0	0.028	0.000	18.1	1	1
03/31/06	5:40 p	-21.7	-21.7	-21.7	---	---	1.7	NNW	0.03	1.7	-24.3	---	---	721.0	0.028	0.000	18.1	1	1
03/31/06	5:41 p	-21.7	-21.7	-21.7	---	---	1.7	NNW	0.03	2.6	-24.3	---	---	721.0	0.028	0.000	18.1	1	1
03/31/06	5:42 p	-21.7	-21.7	-21.7	---	---	1.7	NNW	0.03	2.6	-24.4	---	---	720.9	0.028	0.000	18.1	1	1
03/31/06	5:43 p	-21.7	-21.7	-21.7	---	---	1.7	NNW	0.03	2.6	-24.3	---	---	720.9	0.028	0.000	18.1	1	1
03/31/06	5:44 p	-21.7	-21.7	-21.7	---	---	2.6	NNW	0.04	2.6	-25.9	---	---	721.0	0.028	0.000	18.1	1	1
03/31/06	5:45 p	-21.7	-21.7	-21.7	---	---	2.6	NNW	0.04	2.6	-25.9	---	---	720.9	0.028	0.000	18.1	1	1
03/31/06	5:46 p	-21.7	-21.7	-21.7	---	---	2.6	NNW	0.04	3.5	-25.9	---	---	720.9	0.028	0.000	18.1	1	1
03/31/06	5:47 p	-21.7	-21.7	-21.7	---	---	2.6	NNW	0.04	2.6	-25.9	---	---	720.9	0.028	0.000	18.2	1	1
03/31/06	5:48 p	-21.7	-21.7	-21.7	---	---	2.6	NNW	0.04	2.6	-25.9	---	---	720.9	0.028	0.000	18.2	1	1
03/31/06	5:49 p	-21.7	-21.6	-21.7	---	---	2.6	NNW	0.04	3.5	-25.9	---	---	721.0	0.028	0.000	18.2	1	1
03/31/06	5:50 p	-21.7	-21.6	-21.7	---	---	1.7	NNW	0.03	2.6	-24.3	---	---	720.9	0.028	0.000	18.2	1	1
03/31/06	5:51 p	-21.6	-21.6	-21.6	---	---	1.7	NNW	0.03	2.6	-24.3	---	---	720.9	0.028	0.000	18.2	1	1
03/31/06	5:52 p	-21.6	-21.6	-21.7	---	---	2.6	NNW	0.04	2.6	-25.9	---	---	720.9	0.028	0.000	18.2	1	1
03/31/06	5:53 p	-21.6	-21.6	-21.7	---	---	1.7	NNW	0.03	2.6	-24.3	---	---	720.8	0.028	0.000	18.2	1	1
03/31/06	5:54 p	-21.6	-21.6	-21.6	---	---	1.7	NNW	0.03	1.7	-24.3	---	---	720.9	0.028	0.000	18.2	1	1
03/31/06	5:55 p	-21.6	-21.6	-21.6	---	---	0.9	NNW	0.01	1.7	-21.7	---	---	720.9	0.028	0.000	18.2	1	1
03/31/06	5:56 p	-21.6	-21.6	-21.7	---	---	0.9	NNW	0.01	0.9	-21.7	---	---	720.9	0.028	0.000	18.2	1	1
03/31/06	5:57 p	-21.7	-21.7	-21.7	---	---	0.9	NNW	0.01	1.7	-21.8	---	---	720.9	0.028	0.000	18.2	1	1
03/31/06	5:58 p	-21.7	-21.6	-21.7	---	---	0.9	NNW	0.01	1.7	-21.8	---	---	720.9	0.028	0.000	18.2	1	1
03/31/06	5:59 p	-21.7	-21.7	-21.7	---	---	0.9	NNW	0.01	1.7	-21.8	---	---	720.9	0.028	0.000	18.2	1	1
03/31/06	6:00 p	-21.7	-21.7	-21.7	---	---	1.7	NNW	0.03	1.7	-24.3	---	---	720.9	0.028	0.000	18.2	1	1
03/31/06	6:01 p	-21.7	-21.7	-21.7	---	---	1.7	NNW	0.03	1.7	-24.3	---	---	720.9	0.028	0.000	18.2	1	1
03/31/06	6:02 p	-21.7	-21.7	-21.7	---	---	0.9	NNW	0.01	1.7	-21.8	---	---	720.9	0.028	0.000	18.2	1	1
03/31/06	6:03 p	-21.7	-21.7	-21.7	---	---	1.7	NNW	0.03	1.7	-24.4	---	---	720.9	0.028	0.000	18.2	1	1
03/31/06	6:04 p	-21.7	-21.7	-21.7	---	---	1.7	NNW	0.03	2.6	-24.4	---	---	720.9	0.028	0.000	18.2	1	1
03/31/06	6:05 p	-21.7	-21.7	-21.7	---	---	1.7	NNW	0.03	2.6	-24.4	---	---	720.9	0.028	0.000	18.2	1	1
03/31/06	6:06 p	-21.7	-21.7	-21.7	---	---	2.6	NNW	0.04	3.5	-26.0	---	---	720.9	0.028	0.000	18.2	1	1
03/31/06	6:07 p	-21.7	-21.7	-21.7	---	---	2.6	NNW	0.04	3.5	-26.0	---	---	720.9	0.028	0.000	18.2	1	1
03/31/06	6:08 p	-21.7	-21.7	-21.7	---	---	2.6	NNW	0.04	2.6	-26.0	---	---	720.9	0.028	0.000	18.2	1	1
03/31/06	6:09 p	-21.7	-21.7	-21.7	---	---	2.6	NNW	0.04	2.6	-25.9	---	---	720.9	0.028	0.000	18.2	1	1
03/31/06	6:10 p	-21.7	-21.7	-21.7	---	---	2.6	NNW	0.04	3.5	-26.0	---	---	720.8	0.028	0.000	18.2	1	1
03/31/06	6:11 p	-21.7	-21.7	-21.7	---	---	2.6	NNW	0.04	3.5	-25.9	---	---	720.9	0.028	0.000	18.2	1	1
03/31/06	6:12 p	-21.7	-21.7	-21.7	---	---	2.6	NNW	0.04	2.6	-25.9	---	---	720.9	0.028	0.000	18.2	1	1
03/31/06	6:13 p	-21.7	-21.7	-21.7	---	---	2.6	NNW	0.04	2.6	-26.0	---	---	720.9	0.028	0.000	18.2	1	1
03/31/06	6:14 p	-21.7	-21.7	-21.7	---	---	1.7	NNW	0.03	2.6	-24.4	---	---	720.9	0.028	0.000	18.2	1	1
03/31/06	6:15 p	-21.7	-21.7	-21.7	---	---	1.7	NNW	0.03	2.6	-24.4	---	---	720.8	0.028	0.000	18.2	1	1
03/31/06	6:16 p	-21.7	-21.7	-21.7	---	---	2.6	NNW	0.04	2.6	-26.0	---	---	720.8	0.028	0.000	18.2	1	1
03/31/06	6:17 p	-21.7	-21.7	-21.8	---	---	1.7	NNW	0.03	2.6	-24.4	---	---	720.9	0.028	0.000	18.2	1	1
03/31/06	6:18 p	-21.8	-21.7	-21.8	---	---	1.7	NNW	0.03	2.6	-24.4	---	---	720.9	0.028	0.000	18.2	1	1
03/31/06	6:19 p	-21.8	-21.8	-21.8	---	---	1.7	NNW	0.03	1.7	-24.4	---	---	720.9	0.028	0.000	18.2	1	1
03/31/06	6:20 p	-21.8	-21.8	-21.8	---	---	1.7	NNW	0.03	1.7	-24.4	---	---	720.8	0.028	0.000	18.2	1	1
03/31/06	6:21 p	-21.8	-21.8	-21.8	---	---	1.7	NNW	0.03	1.7	-24.4	---	---	720.8	0.028	0.000	18.2	1	1
03/31/06	6:22 p	-21.8	-21.8	-21.8	---	---	1.7	NNW	0.03	2.6	-24.5	---	---	720.8	0.028	0.000	18.2	1	1
03/31/06	6:23 p	-21.8	-21.8	-21.8	---	---	1.7	NNW	0.03	1.7	-24.5	---	---	720.8	0.028	0.000	18.2	1	1
03/31/06	6:24 p	-21.8	-21.8	-21.8	---	---	1.7	NNW	0.03	1.7	-24.5	---	---	720.9	0.028	0.000	18.2	1	1
03/31/06	6:25 p	-21.8	-21.8	-21.8	---	---	1.7	NNW	0.03	2.6	-24.4	---	---	720.9	0.028	0.000	18.2	1	1
03/31/06	6:26 p	-21.8	-21.8	-21.8	---	---	1.7	NNW	0.03	1.7	-24.4	---	---	720.8	0.028	0.000	18.2	1	1
03/31/06	6:27 p	-21.8	-21.8	-21.8	---	---	0.9	NNW	0.01	1.7	-21.9	---	---	720.8	0.028	0.000	18.2	1	1
03/31/06	6:28 p	-21.8	-21.8	-21.8	---	---	1.7	NNW	0.03	2.6	-24.4	---	---	720.8	0.028	0.000	18.2	1	1
03/31/06	6:29 p	-21.8	-21.8	-21.8	---	---	2.6	NNW	0.04	2.6	-26.1	---	---	720.9	0.028	0.000	18.2	1	1
03/31/06	6:30 p	-21.8	-21.7	-21.8	---	---	1.7	NNW	0.03	2.6	-24.4	---	---	720.9	0.028	0.000	18.2	1	1
03/31/06	6:31 p	-21.7	-21.7	-21.8	---	---	2.6	NNW	0.04	3.5	-26.0	---	---	720.9	0.028	0.000	18.2	1	1
03/31/06	6:32 p	-21.7	-21.7	-21.8	---	---	2.6	NNW	0.04	2.6	-26.0	---	---	720.9	0.028	0.000	18.2	1	1
03/31/06	6:33 p	-21.7	-21.7	-21.8	---	---	2.6	NNW	0.04	3.5	-26.0	---	---	720.9	0.028	0.000	18.2	1	1
03/31/06	6:34 p	-21.7	-21.7	-21.7	---	---	1.7	NNW	0.03	2.6	-24.4	---	---	720.9	0.028	0.000	18.2	1	1
03/31/06	6:35 p	-21.7	-21.7	-21.7	---	---	2.6	NNW	0.04	3.5	-26.0	---	---	720.9	0.028	0.000	18.2	1	1
03/31/06	6:36 p	-21.7	-21.7	-21.7	---	---	2.6	NNW	0.04	3.5	-26.0	---	---	720.9	0.028	0.000	18.2	1	1
03/31/06	6:37 p	-21.7	-21.7	-21.7	---	---	2.6	NNW	0.04	3.5	-25.9	---	---	720.9	0.028	0.000	18.2	1	1
03/31/06	6:38 p	-21.7	-21.7	-21.7	---	---	3.5	NNW	0.06	3.5	-27.2	---	---	720.9	0.028	0.000	18.2	1	1
03/31/06	6:39 p	-21.7	-21.7	-21.7	---	---	3.5	NNW	0.06	4.3	-27.2	---	---	720.9	0.028	0.000	18.2	1	1
03/31/06	6:40 p	-21.7	-21.7	-21.7	---	---	3.5	NNW	0.06	4.3	-27.2	---	---	720.9	0.028	0.000	18.2	1	1
03/31/06	6:41 p	-21.7	-21.7	-21.7	---	---	3.5	NNW	0.06	4.3	-27.2	---	---	720.9	0.028	0.000	18.2	1	1
03/31/06	6:42 p	-21.7	-21.7	-21.7	---	---	4.3	NNW	0.07	4.3	-28.1	---	---	720.9	0.028	0.000	18.2	1	1
03/31/06	6:43 p	-21.7	-21.7	-21.7	---	---	3.5	NNW	0.06	4.3	-27.2	---	---	720.8	0.028	0.000	18.2	1	1
03/31/06	6:44 p	-21.7	-21.7	-21.7	---	---	4.3	NNW	0.07	5.2	-28.2	---	---	720.9	0.028	0.000	18.2	1	1
03/31/06	6:45 p	-21.7	-21.7	-21.7	---	---	4.3	NNW	0.07	5.2	-28.2	---	---	720.9	0.028	0.000	18.2	1	1
03/31/06	6:46 p	-21.7	-21.7	-21.7	---	---	4.3	NNW	0.07	4.3	-28.2	---	---	720.9	0.028	0.000	18.2	1	1
03/31/06	6:47 p	-21.7	-21.7	-21.7	---	---	4.3	NNW	0.07	4.3	-28.2	---	---	720.9	0.028	0.000	18.2	1	1
03/31/06	6:48 p	-21.7	-21.7	-21.8	---	---	4.3	NNW	0.07	5.2	-28.2	---	---	720.9	0.028	0.000	18.2	1	1
03/31/06	6:49 p	-21.8	-21.8	-21.8	---	---	3.5	NNW	0.06	4.3	-27.3	---	---	720.9	0.028	0.000	18.2	1	1
03/31/06	6:50 p	-21.8	-21.8	-21.8	---	---	3.5	NNW	0.06	4.3	-27.3	---	---	720.9	0.028	0.000	18.2	1	1
03/31/06	6:51 p	-21.8	-21.8	-21.8	---	---	3.5	NNW	0.06	4.3	-27.3	---	---	721.0	0.028	0.000	18.2	1	1
03/31/06	6:52 p	-21.8	-21.8	-21.8	---	---	4.3	NNW	0.07	4.3	-28.3	---	---	720.9	0.028	0.000	18.2	1	1
03/31/06	6:53 p	-21.8	-21.8	-21.8	---	---	3.5	NNW	0.06	4.3	-27.3	---	---	721.0	0.028	0.000	18.2	1	1
03/31/06	6:54 p	-21.8	-21.8	-21.8	---	---	4.3	NNW	0.07	4.3	-28.3	---	---	720.9	0.028	0.000	18.2	1	1
03/31/06	6:55 p	-21.8	-21.8	-21.8	---	---	4.3	NNW	0.07	4.3	-28.3	---	---	720.9	0.028	0.000	18.2	1	1
03/31/06	6:56 p	-21.8	-21.8	-21.8	---	---	4.3	NNW	0.07	4.3	-28.3	---	---	720.9	0.028	0.000	18.2	1	1
03/31/06	6:57 p	-21.8	-21.8	-21.8	---	---	3.5	NNW	0.06	4.3	-27.3	---	---	721.0	0.028	0.000	18.2	1	1
03/31/06	6:58 p	-21.9	-21.9	-21.9	---	---	4.3	NNW	0.07	4.3	-28.4	---	---	720.9	0.028	0.000	18.2	1	1
03/31/06	6:59 p	-21.9	-21.8	-21.9	---	---	4.3	NNW	0.07	4.3	-28.4	---	---	720.9	0.028	0.000	18.2	1	1
03/31/06	7:00 p	-21.9	-21.8	-21.9	---	---	4.3	NNW	0.07	4.3	-28.4	---	---	720.9	0.028	0.000	18.2	1	1
03/31/06	7:01 p	-21.8	-21.8	-21.9	---	---	3.5	NNW	0.06	4.3	-27.3	---	---	720.9	0.028	0.000	18.2	1	1
03/31/06	7:02 p	-21.8	-21.8	-21.9	---	---	3.5	NNW	0.06	4.3	-27.3	---	---	720.9	0.028	0.000	18.2	1	1
03/31/06	7:03 p	-21.9	-21.9	-21.9	---	---	3.5	NNW	0.06	4.3	-27.4	---	---	720.9	0.028	0.000	18.2	1	1
03/31/06	7:04 p	-21.9	-21.9	-21.9	---	---	3.5	NNW	0.06	4.3	-27.4	---	---	720.9	0.028	0.000	18.2	1	1
03/31/06	7:05 p	-21.9	-21.9	-21.9	---	---	3.5	NNW	0.06	4.3	-27.4	---	---	720.9	0.028	0.000	18.2	1	1
03/31/06	7:06 p	-21.9	-21.9	-21.9	---	---	3.5	NNW	0.06	4.3	-27.4	---	---	720.9	0.028	0.000	18.2	1	1
03/31/06	7:07 p	-21.9	-21.9	-21.9	---	---	3.5	NNW	0.06	3.5	-27.5	---	---	720.9	0.028	0.000	18.2	1	1
03/31/06	7:08 p	-21.9	-21.9	-21.9	---	---	3.5	NNW	0.06	3.5	-27.5	---	---	720.9	0.028	0.000	18.2	1	1
03/31/06	7:09 p	-21.9	-21.9	-21.9	---	---	2.6	NNW	0.04	3.5	-26.3	---	---	720.9	0.028	0.000	18.2	1	1
03/31/06	7:10 p	-21.9	-21.9	-22.0	---	---	3.5	NNW	0.06	4.3	-27.5	---	---	720.9	0.028	0.000	18.2	1	1
03/31/06	7:11 p	-22.0	-21.9	-22.0	---	---	3.5	NNW	0.06	4.3	-27.6	---	---	720.9	0.028	0.000	18.2	1	1
03/31/06	7:12 p	-22.0	-21.9	-22.0	---	---	3.5	NNW	0.06	4.3	-27.6	---	---	720.9	0.028	0.000	18.2	1	1
03/31/06	7:13 p	-21.9	-21.9	-22.0	---	---	4.3	NNW	0.07	5.2	-28.4	---	---	720.8	0.028	0.000	18.2	1	1
03/31/06	7:14 p	-21.9	-21.9	-22.0	---	---	4.3	NNW	0.07	5.2	-28.4	---	---	720.9	0.028	0.000	18.2	1	1
03/31/06	7:15 p	-22.0	-21.9	-22.0	---	---	3.5	NNW	0.06	4.3	-27.6	---	---	720.8	0.028	0.000	18.2	1	1
03/31/06	7:16 p	-21.9	-21.9	-22.0	---	---	4.3	NNW	0.07	4.3	-28.4	---	---	720.9	0.028	0.000	18.2	1	1
03/31/06	7:17 p	-22.0	-21.9	-22.0	---	---	4.3	NNW	0.07	5.2	-28.5	---	---	720.9	0.028	0.000	18.2	1	1
03/31/06	7:18 p	-22.0	-21.9	-22.0	---	---	4.3	NNW	0.07	6.1	-28.5	---	---	720.9	0.028	0.000	18.2	1	1
03/31/06	7:19 p	-22.0	-22.0	-22.0	---	---	4.3	NNW	0.07	5.2	-28.5	---	---	720.9	0.028	0.000	18.2	1	1
03/31/06	7:20 p	-22.0	-21.9	-22.0	---	---	4.3	NNW	0.07	6.1	-28.5	---	---	720.9	0.028	0.000	18.2	1	1
03/31/06	7:21 p	-21.9	-21.9	-22.0	---	---	4.3	NNW	0.07	5.2	-28.4	---	---	720.8	0.028	0.000	18.2	1	1
03/31/06	7:22 p	-21.9	-21.9	-21.9	---	---	5.2	NNW	0.09	6.1	-29.3	---	---	720.8	0.028	0.000	18.2	1	1
03/31/06	7:23 p	-21.9	-21.9	-21.9	---	---	4.3	NNW	0.07	5.2	-28.4	---	---	720.8	0.028	0.000	18.2	1	1
03/31/06	7:24 p	-21.9	-21.9	-21.9	---	---	5.2	NNW	0.09	5.2	-29.3	---	---	720.9	0.028	0.000	18.2	1	1
03/31/06	7:25 p	-21.9	-21.9	-21.9	---	---	5.2	NNW	0.09	5.2	-29.3	---	---	720.9	0.028	0.000	18.2	1	1
03/31/06	7:26 p	-21.9	-21.9	-21.9	---	---	4.3	NNW	0.07	5.2	-28.4	---	---	720.8	0.028	0.000	18.2	1	1
03/31/06	7:27 p	-21.9	-21.9	-21.9	---	---	4.3	NNW	0.07	5.2	-28.4	---	---	720.9	0.028	0.000	18.2	1	1
03/31/06	7:28 p	-21.9	-21.9	-21.9	---	---	4.3	NNW	0.07	6.1	-28.4	---	---	720.9	0.028	0.000	18.2	1	1
03/31/06	7:29 p	-21.9	-21.9	-22.0	---	---	4.3	NNW	0.07	6.1	-28.4	---	---	720.8	0.028	0.000	18.2	1	1
03/31/06	7:30 p	-21.9	-21.9	-22.0	---	---	5.2	NNW	0.09	6.1	-29.3	---	---	720.9	0.028	0.000	18.2	1	1
03/31/06	7:31 p	-22.0	-21.9	-22.0	---	---	5.2	NNW	0.09	6.1	-29.3	---	---	720.9	0.028	0.000	18.2	1	1
03/31/06	7:32 p	-21.9	-21.9	-22.0	---	---	4.3	NNW	0.07	5.2	-28.4	---	---	720.9	0.028	0.000	18.2	1	1
03/31/06	7:33 p	-22.0	-22.0	-22.0	---	---	4.3	NNW	0.07	6.1	-28.5	---	---	720.9	0.028	0.000	18.2	1	1
03/31/06	7:34 p	-22.0	-22.0	-22.1	---	---	5.2	NNW	0.09	5.2	-29.3	---	---	721.0	0.028	0.000	18.2	1	1
03/31/06	7:35 p	-22.1	-22.0	-22.1	---	---	5.2	NNW	0.09	6.1	-29.4	---	---	720.9	0.028	0.000	18.2	1	1
03/31/06	7:36 p	-22.1	-22.0	-22.1	---	---	5.2	NNW	0.09	6.1	-29.4	---	---	720.9	0.028	0.000	18.2	1	1
03/31/06	7:37 p	-22.1	-22.1	-22.1	---	---	5.2	NNW	0.09	6.1	-29.4	---	---	721.0	0.028	0.000	18.2	1	1
03/31/06	7:38 p	-22.1	-22.1	-22.1	---	---	5.2	NNW	0.09	6.1	-29.4	---	---	720.9	0.028	0.000	18.2	1	1
03/31/06	7:39 p	-22.1	-22.1	-22.1	---	---	4.3	NNW	0.07	6.1	-28.7	---	---	720.9	0.028	0.000	18.2	1	1
03/31/06	7:40 p	-22.1	-22.1	-22.1	---	---	5.2	NNW	0.09	5.2	-29.5	---	---	721.0	0.028	0.000	18.2	1	1
03/31/06	7:41 p	-22.1	-22.1	-22.2	---	---	4.3	NNW	0.07	6.1	-28.7	---	---	720.9	0.028	0.000	18.2	1	1
03/31/06	7:42 p	-22.2	-22.1	-22.2	---	---	3.5	NNW	0.06	4.3	-27.7	---	---	720.9	0.028	0.000	18.2	1	1
03/31/06	7:43 p	-22.2	-22.1	-22.2	---	---	2.6	NNW	0.04	3.5	-26.5	---	---	720.9	0.028	0.000	18.2	1	1
03/31/06	7:44 p	-22.2	-22.2	-22.2	---	---	3.5	NNW	0.06	4.3	-27.8	---	---	721.0	0.028	0.000	18.2	1	1
03/31/06	7:45 p	-22.2	-22.2	-22.3	---	---	3.5	NNW	0.06	3.5	-27.8	---	---	721.0	0.028	0.000	18.2	1	1
03/31/06	7:46 p	-22.3	-22.3	-22.3	---	---	4.3	NNW	0.07	5.2	-28.8	---	---	720.9	0.028	0.000	18.2	1	1
03/31/06	7:47 p	-22.3	-22.3	-22.3	---	---	4.3	NNW	0.07	5.2	-28.9	---	---	720.9	0.028	0.000	18.2	1	1
03/31/06	7:48 p	-22.3	-22.3	-22.3	---	---	4.3	NNW	0.07	4.3	-28.9	---	---	720.9	0.028	0.000	18.2	1	1
03/31/06	7:49 p	-22.3	-22.3	-22.3	---	---	4.3	NNW	0.07	4.3	-28.9	---	---	720.9	0.028	0.000	18.2	1	1
03/31/06	7:50 p	-22.3	-22.3	-22.3	---	---	4.3	NNW	0.07	5.2	-28.8	---	---	721.0	0.028	0.000	18.2	1	1
03/31/06	7:51 p	-22.3	-22.3	-22.3	---	---	4.3	NNW	0.07	5.2	-28.8	---	---	720.9	0.028	0.000	18.2	1	1
03/31/06	7:52 p	-22.3	-22.3	-22.3	---	---	3.5	NNW	0.06	4.3	-27.8	---	---	720.9	0.028	0.000	18.2	1	1
03/31/06	7:53 p	-22.3	-22.3	-22.3	---	---	4.3	NNW	0.07	4.3	-28.9	---	---	721.0	0.028	0.000	18.2	1	1
03/31/06	7:54 p	-22.3	-22.3	-22.3	---	---	3.5	NNW	0.06	4.3	-27.9	---	---	720.9	0.028	0.000	18.2	1	1
03/31/06	7:55 p	-22.4	-22.3	-22.4	---	---	3.5	NNW	0.06	4.3	-28.0	---	---	720.9	0.028	0.000	18.2	1	1
03/31/06	7:56 p	-22.4	-22.4	-22.4	---	---	3.5	NNW	0.06	4.3	-28.0	---	---	721.0	0.028	0.000	18.2	1	1
03/31/06	7:57 p	-22.4	-22.4	-22.4	---	---	3.5	NNW	0.06	4.3	-28.1	---	---	720.9	0.028	0.000	18.2	1	1
03/31/06	7:58 p	-22.4	-22.4	-22.5	---	---	3.5	NNW	0.06	4.3	-28.1	---	---	720.9	0.028	0.000	18.2	1	1
03/31/06	7:59 p	-22.4	-22.4	-22.5	---	---	4.3	NNW	0.07	5.2	-29.1	---	---	721.0	0.028	0.000	18.2	1	1
03/31/06	8:00 p	-22.5	-22.4	-22.5	---	---	4.3	NNW	0.07	5.2	-29.1	---	---	720.9	0.028	0.000	18.2	1	1
03/31/06	8:01 p	-22.4	-22.4	-22.4	---	---	5.2	NNW	0.09	5.2	-29.9	---	---	720.9	0.028	0.000	18.2	1	1
03/31/06	8:02 p	-22.4	-22.4	-22.4	---	---	4.3	NNW	0.07	5.2	-29.1	---	---	720.9	0.028	0.000	18.2	1	1
03/31/06	8:03 p	-22.4	-22.4	-22.4	---	---	4.3	NNW	0.07	5.2	-29.1	---	---	721.0	0.028	0.000	18.2	1	1
03/31/06	8:04 p	-22.4	-22.4	-22.4	---	---	3.5	NNW	0.06	4.3	-28.1	---	---	720.9	0.028	0.000	18.2	1	1
03/31/06	8:05 p	-22.5	-22.5	-22.6	---	---	3.5	NNW	0.06	4.3	-28.1	---	---	720.8	0.028	0.000	18.2	1	1
03/31/06	8:06 p	-22.6	-22.5	-22.6	---	---	3.5	NNW	0.06	3.5	-28.2	---	---	720.9	0.028	0.000	18.2	1	1
03/31/06	8:07 p	-22.6	-22.6	-22.6	---	---	3.5	NNW	0.06	3.5	-28.2	---	---	720.9	0.028	0.000	18.2	1	1
03/31/06	8:08 p	-22.7	-22.6	-22.7	---	---	2.6	NNW	0.04	4.3	-27.1	---	---	720.9	0.028	0.000	18.2	1	1
03/31/06	8:09 p	-22.7	-22.7	-22.8	---	---	3.5	NNW	0.06	3.5	-28.4	---	---	720.8	0.029	0.000	18.2	1	1
03/31/06	8:10 p	-22.8	-22.7	-22.8	---	---	3.5	NNW	0.06	3.5	-28.4	---	---	720.8	0.029	0.000	18.1	1	1
03/31/06	8:11 p	-22.9	-22.8	-22.9	---	---	3.5	NNW	0.06	3.5	-28.6	---	---	720.9	0.029	0.000	18.1	1	1
03/31/06	8:12 p	-22.9	-22.9	-22.9	---	---	2.6	NNW	0.04	3.5	-27.3	---	---	720.8	0.029	0.000	18.1	1	1
03/31/06	8:13 p	-22.9	-22.9	-22.9	---	---	3.5	NNW	0.06	3.5	-28.6	---	---	720.9	0.029	0.000	18.1	1	1
03/31/06	8:14 p	-22.9	-22.9	-23.0	---	---	2.6	NNW	0.04	3.5	-27.4	---	---	720.9	0.029	0.000	18.1	1	1
03/31/06	8:15 p	-23.0	-23.0	-23.0	---	---	2.6	NNW	0.04	3.5	-27.4	---	---	720.9	0.029	0.000	18.1	1	1
03/31/06	8:16 p	-23.0	-22.9	-23.0	---	---	2.6	NNW	0.04	3.5	-27.4	---	---	720.8	0.029	0.000	18.1	1	1
03/31/06	8:17 p	-22.9	-22.9	-22.9	---	---	2.6	NNW	0.04	3.5	-27.4	---	---	720.9	0.029	0.000	18.1	1	1
03/31/06	8:18 p	-22.9	-22.9	-22.9	---	---	2.6	NNW	0.04	2.6	-27.4	---	---	720.8	0.029	0.000	18.1	1	1
03/31/06	8:19 p	-22.9	-22.9	-22.9	---	---	2.6	NNW	0.04	2.6	-27.3	---	---	720.9	0.029	0.000	18.1	1	1
03/31/06	8:20 p	-22.9	-22.9	-22.9	---	---	2.6	NNW	0.04	2.6	-27.4	---	---	720.7	0.029	0.000	18.1	1	1
03/31/06	8:21 p	-22.9	-22.9	-22.9	---	---	2.6	NNW	0.04	3.5	-27.3	---	---	720.8	0.029	0.000	18.1	1	1
03/31/06	8:22 p	-22.9	-22.8	-22.9	---	---	2.6	NNW	0.04	3.5	-27.3	---	---	720.9	0.029	0.000	18.1	1	1
03/31/06	8:23 p	-22.8	-22.8	-22.8	---	---	3.5	NNW	0.06	4.3	-28.5	---	---	720.8	0.029	0.000	18.1	1	1
03/31/06	8:24 p	-22.8	-22.8	-22.8	---	---	3.5	NNW	0.06	3.5	-28.4	---	---	720.8	0.029	0.000	18.1	1	1
03/31/06	8:25 p	-22.8	-22.7	-22.8	---	---	3.5	NNW	0.06	3.5	-28.4	---	---	720.9	0.029	0.000	18.1	1	1
03/31/06	8:26 p	-22.7	-22.7	-22.7	---	---	3.5	NNW	0.06	3.5	-28.4	---	---	720.9	0.029	0.000	18.1	1	1
03/31/06	8:27 p	-22.7	-22.7	-22.7	---	---	2.6	NNW	0.04	3.5	-27.1	---	---	720.8	0.028	0.000	18.2	1	1
03/31/06	8:28 p	-22.7	-22.7	-22.7	---	---	2.6	NNW	0.04	3.5	-27.1	---	---	720.8	0.028	0.000	18.1	1	1
03/31/06	8:29 p	-22.6	-22.6	-22.7	---	---	2.6	NNW	0.04	3.5	-27.0	---	---	720.9	0.028	0.000	18.2	1	1
03/31/06	8:30 p	-22.6	-22.6	-22.6	---	---	3.5	NNW	0.06	3.5	-28.2	---	---	720.8	0.028	0.000	18.1	1	1
03/31/06	8:31 p	-22.6	-22.6	-22.7	---	---	3.5	NNW	0.06	3.5	-28.2	---	---	720.8	0.028	0.000	18.1	1	1
03/31/06	8:32 p	-22.6	-22.6	-22.7	---	---	3.5	NNW	0.06	4.3	-28.2	---	---	720.8	0.028	0.000	18.1	1	1
03/31/06	8:33 p	-22.6	-22.6	-22.6	---	---	3.5	NNW	0.06	4.3	-28.2	---	---	720.8	0.028	0.000	18.2	1	1
03/31/06	8:34 p	-22.6	-22.6	-22.6	---	---	3.5	NNW	0.06	4.3	-28.2	---	---	720.7	0.028	0.000	18.1	1	1
03/31/06	8:35 p	-22.6	-22.6	-22.6	---	---	3.5	NNW	0.06	4.3	-28.2	---	---	720.7	0.028	0.000	18.2	1	1
03/31/06	8:36 p	-22.5	-22.5	-22.6	---	---	3.5	NNW	0.06	4.3	-28.1	---	---	720.8	0.028	0.000	18.2	1	1
03/31/06	8:37 p	-22.5	-22.5	-22.5	---	---	4.3	NNW	0.07	5.2	-29.1	---	---	720.7	0.028	0.000	18.2	1	1
03/31/06	8:38 p	-22.5	-22.4	-22.5	---	---	3.5	NNW	0.06	4.3	-28.1	---	---	720.7	0.028	0.000	18.2	1	1
03/31/06	8:39 p	-22.4	-22.4	-22.4	---	---	4.3	NNW	0.07	4.3	-29.1	---	---	720.8	0.028	0.000	18.2	1	1
03/31/06	8:40 p	-22.4	-22.4	-22.4	---	---	4.3	NNW	0.07	4.3	-29.0	---	---	720.7	0.028	0.000	18.2	1	1
03/31/06	8:41 p	-22.4	-22.3	-22.4	---	---	3.5	NNW	0.06	4.3	-28.0	---	---	720.7	0.028	0.000	18.2	1	1
03/31/06	8:42 p	-22.3	-22.3	-22.4	---	---	3.5	NNW	0.06	4.3	-27.9	---	---	720.7	0.028	0.000	18.2	1	1
03/31/06	8:43 p	-22.3	-22.3	-22.3	---	---	3.5	NNW	0.06	4.3	-27.9	---	---	720.8	0.028	0.000	18.2	1	1
03/31/06	8:44 p	-22.3	-22.3	-22.3	---	---	3.5	NNW	0.06	4.3	-27.9	---	---	720.7	0.028	0.000	18.2	1	1
03/31/06	8:45 p	-22.3	-22.3	-22.3	---	---	3.5	NNW	0.06	4.3	-27.9	---	---	720.8	0.028	0.000	18.2	1	1
03/31/06	8:46 p	-22.3	-22.3	-22.3	---	---	3.5	NNW	0.06	3.5	-27.9	---	---	720.7	0.028	0.000	18.2	1	1
03/31/06	8:47 p	-22.3	-22.3	-22.3	---	---	2.6	NNW	0.04	3.5	-26.7	---	---	720.8	0.028	0.000	18.2	1	1
03/31/06	8:48 p	-22.3	-22.3	-22.3	---	---	3.5	NNW	0.06	4.3	-27.9	---	---	720.7	0.028	0.000	18.2	1	1
03/31/06	8:49 p	-22.3	-22.3	-22.3	---	---	3.5	NNW	0.06	3.5	-27.9	---	---	720.8	0.028	0.000	18.2	1	1
03/31/06	8:50 p	-22.3	-22.3	-22.3	---	---	3.5	NNW	0.06	4.3	-27.9	---	---	720.8	0.028	0.000	18.2	1	1
03/31/06	8:51 p	-22.3	-22.3	-22.3	---	---	3.5	NNW	0.06	4.3	-27.9	---	---	720.8	0.028	0.000	18.2	1	1
03/31/06	8:52 p	-22.3	-22.3	-22.3	---	---	3.5	NNW	0.06	4.3	-27.9	---	---	720.8	0.028	0.000	18.2	1	1
03/31/06	8:53 p	-22.3	-22.3	-22.3	---	---	3.5	NNW	0.06	3.5	-27.9	---	---	720.8	0.028	0.000	18.2	1	1
03/31/06	8:54 p	-22.3	-22.3	-22.3	---	---	3.5	NNW	0.06	3.5	-27.9	---	---	720.8	0.028	0.000	18.2	1	1
03/31/06	8:55 p	-22.3	-22.3	-22.3	---	---	3.5	NNW	0.06	3.5	-27.9	---	---	720.8	0.028	0.000	18.2	1	1
03/31/06	8:56 p	-22.3	-22.3	-22.3	---	---	2.6	NNW	0.04	3.5	-26.7	---	---	720.8	0.028	0.000	18.2	1	1
03/31/06	8:57 p	-22.3	-22.3	-22.3	---	---	3.5	NNW	0.06	4.3	-27.9	---	---	720.8	0.028	0.000	18.2	1	1
03/31/06	8:58 p	-22.3	-22.3	-22.4	---	---	4.3	NNW	0.07	4.3	-28.9	---	---	720.8	0.028	0.000	18.3	1	1
03/31/06	8:59 p	-22.3	-22.3	-22.3	---	---	4.3	NNW	0.07	4.3	-28.9	---	---	720.7	0.028	0.000	18.3	1	1
03/31/06	9:00 p	-22.3	-22.3	-22.4	---	---	4.3	NNW	0.07	5.2	-28.9	---	---	720.7	0.028	0.000	18.3	1	1
03/31/06	9:01 p	-22.3	-22.3	-22.4	---	---	4.3	NNW	0.07	4.3	-28.9	---	---	720.8	0.028	0.000	18.3	1	1
03/31/06	9:02 p	-22.3	-22.3	-22.3	---	---	4.3	NNW	0.07	5.2	-28.9	---	---	720.8	0.028	0.000	18.3	1	1
03/31/06	9:03 p	-22.3	-22.3	-22.3	---	---	4.3	NNW	0.07	5.2	-28.9	---	---	720.7	0.028	0.000	18.4	1	1
03/31/06	9:04 p	-22.3	-22.3	-22.3	---	---	4.3	NNW	0.07	5.2	-28.9	---	---	720.6	0.028	0.000	18.4	1	1
03/31/06	9:05 p	-22.3	-22.3	-22.3	---	---	4.3	NNW	0.07	5.2	-28.9	---	---	720.6	0.028	0.000	18.4	1	1
03/31/06	9:06 p	-22.3	-22.3	-22.3	---	---	4.3	NNW	0.07	5.2	-28.9	---	---	720.7	0.028	0.000	18.4	1	1
03/31/06	9:07 p	-22.3	-22.3	-22.3	---	---	5.2	NNW	0.09	5.2	-29.7	---	---	720.8	0.028	0.000	18.4	1	1
03/31/06	9:08 p	-22.3	-22.3	-22.3	---	---	4.3	NNW	0.07	5.2	-28.8	---	---	720.8	0.028	0.000	18.4	1	1
03/31/06	9:09 p	-22.3	-22.2	-22.3	---	---	3.5	NNW	0.06	4.3	-27.8	---	---	720.7	0.028	0.000	18.4	1	1
03/31/06	9:10 p	-22.2	-22.2	-22.2	---	---	4.3	NNW	0.07	5.2	-28.8	---	---	720.7	0.028	0.000	18.5	1	1
03/31/06	9:11 p	-22.2	-22.2	-22.2	---	---	3.5	NNW	0.06	4.3	-27.8	---	---	720.7	0.028	0.000	18.5	1	1
03/31/06	9:12 p	-22.2	-22.2	-22.2	---	---	4.3	NNW	0.07	4.3	-28.8	---	---	720.7	0.028	0.000	18.5	1	1
03/31/06	9:13 p	-22.2	-22.2	-22.2	---	---	4.3	NNW	0.07	5.2	-28.8	---	---	720.7	0.028	0.000	18.5	1	1
03/31/06	9:14 p	-22.2	-22.2	-22.2	---	---	4.3	NNW	0.07	5.2	-28.8	---	---	720.7	0.028	0.000	18.6	1	1
03/31/06	9:15 p	-22.2	-22.2	-22.2	---	---	4.3	NNW	0.07	5.2	-28.8	---	---	720.7	0.028	0.000	18.6	1	1
03/31/06	9:16 p	-22.2	-22.2	-22.2	---	---	5.2	NNW	0.09	5.2	-29.6	---	---	720.6	0.028	0.000	18.6	1	1
03/31/06	9:17 p	-22.2	-22.2	-22.2	---	---	4.3	NNW	0.07	5.2	-28.8	---	---	720.7	0.028	0.000	18.6	2	1
03/31/06	9:18 p	-22.2	-22.2	-22.2	---	---	4.3	NNW	0.07	5.2	-28.7	---	---	720.7	0.028	0.000	18.6	2	1
03/31/06	9:19 p	-22.2	-22.2	-22.2	---	---	4.3	NNW	0.07	6.1	-28.7	---	---	720.7	0.028	0.000	18.6	1	1
03/31/06	9:20 p	-22.2	-22.2	-22.2	---	---	4.3	NNW	0.07	6.1	-28.7	---	---	720.7	0.028	0.000	18.6	2	1
03/31/06	9:21 p	-22.2	-22.2	-22.2	---	---	4.3	NNW	0.07	5.2	-28.7	---	---	720.7	0.028	0.000	18.6	2	1
03/31/06	9:22 p	-22.2	-22.2	-22.2	---	---	4.3	NNW	0.07	6.1	-28.7	---	---	720.6	0.028	0.000	18.6	2	1
03/31/06	9:23 p	-22.2	-22.2	-22.2	---	---	4.3	NNW	0.07	5.2	-28.7	---	---	720.6	0.028	0.000	18.7	2	1
03/31/06	9:24 p	-22.2	-22.2	-22.2	---	---	4.3	NNW	0.07	5.2	-28.7	---	---	720.7	0.028	0.000	18.7	2	1
03/31/06	9:25 p	-22.2	-22.2	-22.2	---	---	4.3	NNW	0.07	5.2	-28.7	---	---	720.6	0.028	0.000	18.7	2	1
03/31/06	9:26 p	-22.2	-22.2	-22.2	---	---	4.3	NNW	0.07	5.2	-28.7	---	---	720.7	0.028	0.000	18.7	2	1
03/31/06	9:27 p	-22.2	-22.1	-22.2	---	---	4.3	NNW	0.07	5.2	-28.7	---	---	720.6	0.028	0.000	18.7	2	1
03/31/06	9:28 p	-22.1	-22.1	-22.1	---	---	4.3	NNW	0.07	4.3	-28.7	---	---	720.7	0.028	0.000	18.7	2	1
03/31/06	9:29 p	-22.1	-22.1	-22.1	---	---	4.3	NNW	0.07	5.2	-28.7	---	---	720.6	0.028	0.000	18.7	2	1
03/31/06	9:30 p	-22.1	-22.1	-22.1	---	---	4.3	NNW	0.07	5.2	-28.7	---	---	720.7	0.028	0.000	18.7	2	1
03/31/06	9:31 p	-22.1	-22.1	-22.1	---	---	3.5	NNW	0.06	5.2	-27.7	---	---	720.7	0.028	0.000	18.7	2	1
03/31/06	9:32 p	-22.1	-22.1	-22.1	---	---	4.3	NNW	0.07	5.2	-28.7	---	---	720.7	0.028	0.000	18.7	2	1
03/31/06	9:33 p	-22.1	-22.1	-22.1	---	---	3.5	NNW	0.06	4.3	-27.7	---	---	720.7	0.028	0.000	18.7	2	1
03/31/06	9:34 p	-22.1	-22.1	-22.1	---	---	3.5	NNW	0.06	4.3	-27.6	---	---	720.7	0.028	0.000	18.7	2	1
03/31/06	9:35 p	-22.1	-22.1	-22.1	---	---	4.3	NNW	0.07	5.2	-28.7	---	---	720.6	0.028	0.000	18.7	2	1
03/31/06	9:36 p	-22.1	-22.1	-22.1	---	---	3.5	NNW	0.06	4.3	-27.7	---	---	720.7	0.028	0.000	18.7	2	1
03/31/06	9:37 p	-22.1	-22.1	-22.1	---	---	3.5	NNW	0.06	4.3	-27.7	---	---	720.7	0.028	0.000	18.7	2	1
03/31/06	9:38 p	-22.1	-22.1	-22.1	---	---	3.5	NNW	0.06	4.3	-27.7	---	---	720.7	0.028	0.000	18.7	2	1
03/31/06	9:39 p	-22.1	-22.1	-22.1	---	---	4.3	NNW	0.07	4.3	-28.7	---	---	720.7	0.028	0.000	18.7	2	1
03/31/06	9:40 p	-22.1	-22.1	-22.1	---	---	3.5	NNW	0.06	4.3	-27.7	---	---	720.8	0.028	0.000	18.7	2	1
03/31/06	9:41 p	-22.1	-22.1	-22.2	---	---	4.3	NNW	0.07	5.2	-28.7	---	---	720.7	0.028	0.000	18.7	2	1
03/31/06	9:42 p	-22.2	-22.2	-22.2	---	---	5.2	NNW	0.09	6.1	-29.6	---	---	720.7	0.028	0.000	18.7	2	1
03/31/06	9:43 p	-22.2	-22.2	-22.2	---	---	4.3	NNW	0.07	5.2	-28.7	---	---	720.7	0.028	0.000	18.7	2	1
03/31/06	9:44 p	-22.2	-22.2	-22.2	---	---	5.2	NNW	0.09	6.1	-29.6	---	---	720.7	0.028	0.000	18.7	2	1
03/31/06	9:45 p	-22.2	-22.2	-22.2	---	---	4.3	NNW	0.07	6.1	-28.8	---	---	720.7	0.028	0.000	18.7	2	1
03/31/06	9:46 p	-22.2	-22.2	-22.3	---	---	5.2	NNW	0.09	6.1	-29.6	---	---	720.7	0.028	0.000	18.7	2	1
03/31/06	9:47 p	-22.3	-22.3	-22.3	---	---	5.2	NNW	0.09	6.1	-29.7	---	---	720.7	0.028	0.000	18.7	2	1
03/31/06	9:48 p	-22.3	-22.3	-22.3	---	---	4.3	NNW	0.07	5.2	-28.8	---	---	720.7	0.028	0.000	18.7	2	1
03/31/06	9:49 p	-22.3	-22.3	-22.3	---	---	5.2	NNW	0.09	5.2	-29.7	---	---	720.6	0.028	0.000	18.7	2	1
03/31/06	9:50 p	-22.3	-22.3	-22.3	---	---	5.2	N	0.09	6.1	-29.7	---	---	720.7	0.028	0.000	18.7	2	1
03/31/06	9:51 p	-22.3	-22.3	-22.3	---	---	4.3	N	0.07	5.2	-28.9	---	---	720.7	0.028	0.000	18.7	2	1
03/31/06	9:52 p	-22.3	-22.3	-22.3	---	---	4.3	N	0.07	5.2	-28.9	---	---	720.7	0.028	0.000	18.6	2	1
03/31/06	9:53 p	-22.3	-22.3	-22.3	---	---	4.3	N	0.07	5.2	-28.9	---	---	720.7	0.028	0.000	18.6	2	1
03/31/06	9:54 p	-22.3	-22.3	-22.3	---	---	4.3	N	0.07	5.2	-28.9	---	---	720.7	0.028	0.000	18.6	2	1
03/31/06	9:55 p	-22.3	-22.3	-22.3	---	---	4.3	N	0.07	5.2	-28.9	---	---	720.6	0.028	0.000	18.6	2	1
03/31/06	9:56 p	-22.3	-22.3	-22.4	---	---	4.3	N	0.07	5.2	-28.9	---	---	720.7	0.028	0.000	18.6	2	1
03/31/06	9:57 p	-22.3	-22.3	-22.3	---	---	5.2	N	0.09	6.1	-29.7	---	---	720.7	0.028	0.000	18.6	2	1
03/31/06	9:58 p	-22.3	-22.3	-22.3	---	---	5.2	N	0.09	5.2	-29.7	---	---	720.7	0.028	0.000	18.6	2	1
03/31/06	9:59 p	-22.3	-22.3	-22.3	---	---	4.3	N	0.07	5.2	-28.9	---	---	720.7	0.028	0.000	18.6	2	1
03/31/06	10:00 p	-22.3	-22.3	-22.3	---	---	5.2	N	0.09	6.1	-29.7	---	---	720.7	0.028	0.000	18.6	2	1
03/31/06	10:01 p	-22.3	-22.3	-22.3	---	---	5.2	N	0.09	6.1	-29.7	---	---	720.7	0.028	0.000	18.6	2	1
03/31/06	10:02 p	-22.3	-22.3	-22.3	---	---	5.2	N	0.09	6.1	-29.7	---	---	720.7	0.028	0.000	18.6	2	1
03/31/06	10:03 p	-22.3	-22.3	-22.3	---	---	5.2	N	0.09	6.1	-29.7	---	---	720.6	0.028	0.000	18.6	2	1
03/31/06	10:04 p	-22.3	-22.3	-22.3	---	---	5.2	N	0.09	6.1	-29.7	---	---	720.7	0.028	0.000	18.6	2	1
03/31/06	10:05 p	-22.3	-22.3	-22.3	---	---	5.2	N	0.09	6.1	-29.7	---	---	720.6	0.028	0.000	18.6	2	1
03/31/06	10:06 p	-22.3	-22.2	-22.3	---	---	6.1	N	0.10	6.1	-30.4	---	---	720.7	0.028	0.000	18.6	2	1
03/31/06	10:07 p	-22.2	-22.2	-22.3	---	---	5.2	N	0.09	6.1	-29.6	---	---	720.6	0.028	0.000	18.6	2	1
03/31/06	10:08 p	-22.2	-22.2	-22.3	---	---	6.1	N	0.10	7.0	-30.3	---	---	720.6	0.028	0.000	18.6	2	1
03/31/06	10:09 p	-22.3	-22.2	-22.3	---	---	5.2	N	0.09	7.0	-29.7	---	---	720.7	0.028	0.000	18.6	2	1
03/31/06	10:10 p	-22.3	-22.3	-22.3	---	---	6.1	N	0.10	6.1	-30.4	---	---	720.6	0.028	0.000	18.6	2	1
03/31/06	10:11 p	-22.3	-22.3	-22.3	---	---	6.1	N	0.10	7.0	-30.4	---	---	720.6	0.028	0.000	18.6	2	1
03/31/06	10:12 p	-22.3	-22.3	-22.3	---	---	5.2	N	0.09	7.0	-29.7	---	---	720.6	0.028	0.000	18.6	2	1
03/31/06	10:13 p	-22.3	-22.3	-22.3	---	---	5.2	N	0.09	6.1	-29.7	---	---	720.7	0.028	0.000	18.6	2	1
03/31/06	10:14 p	-22.3	-22.3	-22.3	---	---	5.2	N	0.09	6.1	-29.7	---	---	720.6	0.028	0.000	18.5	2	1
03/31/06	10:15 p	-22.3	-22.3	-22.3	---	---	6.1	N	0.10	7.0	-30.5	---	---	720.6	0.028	0.000	18.5	2	1
03/31/06	10:16 p	-22.3	-22.3	-22.3	---	---	5.2	N	0.09	6.1	-29.7	---	---	720.6	0.028	0.000	18.6	2	1
03/31/06	10:17 p	-22.3	-22.3	-22.3	---	---	5.2	N	0.09	6.1	-29.7	---	---	720.7	0.028	0.000	18.6	2	1
03/31/06	10:18 p	-22.3	-22.3	-22.3	---	---	5.2	N	0.09	6.1	-29.7	---	---	720.6	0.028	0.000	18.6	2	1
03/31/06	10:19 p	-22.3	-22.3	-22.3	---	---	5.2	N	0.09	6.1	-29.7	---	---	720.6	0.028	0.000	18.5	2	1
03/31/06	10:20 p	-22.3	-22.3	-22.3	---	---	6.1	N	0.10	7.0	-30.5	---	---	720.6	0.028	0.000	18.5	2	1
03/31/06	10:21 p	-22.3	-22.3	-22.3	---	---	6.1	N	0.10	6.1	-30.5	---	---	720.6	0.028	0.000	18.5	2	1
03/31/06	10:22 p	-22.3	-22.3	-22.3	---	---	5.2	N	0.09	6.1	-29.7	---	---	720.6	0.028	0.000	18.5	2	1
03/31/06	10:23 p	-22.3	-22.3	-22.3	---	---	5.2	N	0.09	6.1	-29.7	---	---	720.7	0.028	0.000	18.5	1	1
03/31/06	10:24 p	-22.3	-22.3	-22.3	---	---	5.2	N	0.09	6.1	-29.7	---	---	720.5	0.028	0.000	18.5	2	1
03/31/06	10:25 p	-22.3	-22.3	-22.3	---	---	5.2	N	0.09	6.1	-29.7	---	---	720.6	0.028	0.000	18.5	2	1
03/31/06	10:26 p	-22.3	-22.3	-22.4	---	---	5.2	N	0.09	6.1	-29.7	---	---	720.6	0.028	0.000	18.5	1	1
03/31/06	10:27 p	-22.4	-22.4	-22.4	---	---	5.2	N	0.09	6.1	-29.8	---	---	720.6	0.028	0.000	18.5	1	1
03/31/06	10:28 p	-22.4	-22.4	-22.4	---	---	5.2	N	0.09	6.1	-29.8	---	---	720.6	0.028	0.000	18.5	2	1
03/31/06	10:29 p	-22.4	-22.3	-22.4	---	---	5.2	N	0.09	6.1	-29.8	---	---	720.6	0.028	0.000	18.5	1	1
03/31/06	10:30 p	-22.4	-22.4	-22.4	---	---	5.2	N	0.09	6.1	-29.8	---	---	720.5	0.028	0.000	18.5	1	1
03/31/06	10:31 p	-22.4	-22.4	-22.4	---	---	5.2	N	0.09	6.1	-29.8	---	---	720.6	0.028	0.000	18.5	1	1
03/31/06	10:32 p	-22.4	-22.4	-22.4	---	---	5.2	N	0.09	6.1	-29.9	---	---	720.5	0.028	0.000	18.5	2	1
03/31/06	10:33 p	-22.4	-22.4	-22.4	---	---	5.2	N	0.09	5.2	-29.9	---	---	720.6	0.028	0.000	18.5	1	1
03/31/06	10:34 p	-22.4	-22.4	-22.4	---	---	5.2	N	0.09	6.1	-29.8	---	---	720.5	0.028	0.000	18.5	2	1
03/31/06	10:35 p	-22.4	-22.4	-22.4	---	---	5.2	N	0.09	6.1	-29.9	---	---	720.6	0.028	0.000	18.5	1	1
03/31/06	10:36 p	-22.4	-22.4	-22.4	---	---	4.3	N	0.07	5.2	-29.1	---	---	720.6	0.028	0.000	18.5	1	1
03/31/06	10:37 p	-22.4	-22.4	-22.4	---	---	4.3	N	0.07	5.2	-29.0	---	---	720.5	0.028	0.000	18.5	1	1
03/31/06	10:38 p	-22.4	-22.4	-22.4	---	---	4.3	N	0.07	4.3	-29.1	---	---	720.5	0.028	0.000	18.5	1	1
03/31/06	10:39 p	-22.5	-22.5	-22.5	---	---	3.5	N	0.06	4.3	-28.1	---	---	720.6	0.028	0.000	18.5	2	1
03/31/06	10:40 p	-22.5	-22.5	-22.5	---	---	3.5	N	0.06	4.3	-28.1	---	---	720.5	0.028	0.000	18.5	2	1
03/31/06	10:41 p	-22.5	-22.5	-22.5	---	---	3.5	N	0.06	4.3	-28.1	---	---	720.6	0.028	0.000	18.5	1	1
03/31/06	10:42 p	-22.5	-22.5	-22.6	---	---	3.5	N	0.06	4.3	-28.1	---	---	720.5	0.028	0.000	18.5	1	1
03/31/06	10:43 p	-22.6	-22.6	-22.6	---	---	4.3	N	0.07	5.2	-29.2	---	---	720.5	0.028	0.000	18.4	2	1
03/31/06	10:44 p	-22.6	-22.6	-22.6	---	---	3.5	N	0.06	4.3	-28.2	---	---	720.5	0.028	0.000	18.4	1	1
03/31/06	10:45 p	-22.6	-22.6	-22.6	---	---	3.5	N	0.06	4.3	-28.2	---	---	720.4	0.028	0.000	18.4	1	1
03/31/06	10:46 p	-22.6	-22.5	-22.6	---	---	3.5	N	0.06	4.3	-28.2	---	---	720.5	0.028	0.000	18.4	1	1
03/31/06	10:47 p	-22.6	-22.6	-22.6	---	---	3.5	N	0.06	4.3	-28.2	---	---	720.5	0.028	0.000	18.4	1	1
03/31/06	10:48 p	-22.6	-22.5	-22.6	---	---	4.3	N	0.07	4.3	-29.2	---	---	720.5	0.028	0.000	18.4	1	1
03/31/06	10:49 p	-22.6	-22.5	-22.6	---	---	4.3	N	0.07	5.2	-29.2	---	---	720.5	0.028	0.000	18.4	1	1
03/31/06	10:50 p	-22.4	-22.4	-22.5	---	---	4.3	N	0.07	5.2	-29.1	---	---	720.5	0.028	0.000	18.4	1	1
03/31/06	10:51 p	-22.4	-22.4	-22.4	---	---	4.3	N	0.07	5.2	-29.0	---	---	720.4	0.028	0.000	18.4	1	1
03/31/06	10:52 p	-22.3	-22.3	-22.4	---	---	4.3	N	0.07	5.2	-28.9	---	---	720.5	0.028	0.000	18.4	1	1
03/31/06	10:53 p	-22.2	-22.2	-22.2	---	---	4.3	N	0.07	5.2	-28.8	---	---	720.4	0.028	0.000	18.4	1	1
03/31/06	10:54 p	-22.1	-22.1	-22.2	---	---	5.2	N	0.09	6.1	-29.5	---	---	720.4	0.028	0.000	18.4	1	1
03/31/06	10:55 p	-22.0	-21.9	-22.1	---	---	5.2	N	0.09	6.1	-29.3	---	---	720.4	0.028	0.000	18.4	1	1
03/31/06	10:56 p	-21.9	-21.9	-21.9	---	---	5.2	NNW	0.09	7.0	-29.2	---	---	720.4	0.028	0.000	18.4	1	1
03/31/06	10:57 p	-21.8	-21.8	-21.8	---	---	5.2	NNW	0.09	7.0	-29.2	---	---	720.5	0.028	0.000	18.4	1	1
03/31/06	10:58 p	-21.7	-21.7	-21.7	---	---	6.1	NNW	0.10	7.0	-29.7	---	---	720.4	0.028	0.000	18.4	1	1
03/31/06	10:59 p	-21.6	-21.6	-21.7	---	---	6.1	NNW	0.10	7.0	-29.6	---	---	720.4	0.028	0.000	18.4	1	1
03/31/06	11:00 p	-21.6	-21.5	-21.6	---	---	6.1	NNW	0.10	7.0	-29.6	---	---	720.4	0.028	0.000	18.4	1	1
03/31/06	11:01 p	-21.5	-21.5	-21.5	---	---	5.2	NNW	0.09	6.1	-28.8	---	---	720.4	0.028	0.000	18.4	1	1
03/31/06	11:02 p	-21.5	-21.5	-21.5	---	---	5.2	NNW	0.09	6.1	-28.8	---	---	720.5	0.028	0.000	18.4	1	1
03/31/06	11:03 p	-21.5	-21.5	-21.5	---	---	6.1	NNW	0.10	7.0	-29.4	---	---	720.4	0.028	0.000	18.4	1	1
03/31/06	11:04 p	-21.6	-21.5	-21.6	---	---	6.1	NNW	0.10	6.1	-29.6	---	---	720.4	0.028	0.000	18.4	1	1
03/31/06	11:05 p	-21.6	-21.6	-21.6	---	---	5.2	NNW	0.09	6.1	-28.8	---	---	720.4	0.028	0.000	18.4	1	1
03/31/06	11:06 p	-21.6	-21.6	-21.6	---	---	4.3	NNW	0.07	5.2	-28.1	---	---	720.5	0.028	0.000	18.4	1	1
03/31/06	11:07 p	-21.6	-21.6	-21.6	---	---	4.3	NNW	0.07	5.2	-28.0	---	---	720.5	0.028	0.000	18.4	1	1
03/31/06	11:08 p	-21.6	-21.6	-21.6	---	---	4.3	NNW	0.07	4.3	-28.0	---	---	720.5	0.028	0.000	18.4	1	1
03/31/06	11:09 p	-21.6	-21.6	-21.6	---	---	4.3	NNW	0.07	4.3	-28.1	---	---	720.5	0.028	0.000	18.4	1	1
03/31/06	11:10 p	-21.6	-21.6	-21.6	---	---	3.5	NNW	0.06	4.3	-27.0	---	---	720.4	0.028	0.000	18.4	1	1
03/31/06	11:11 p	-21.5	-21.5	-21.6	---	---	1.7	NNW	0.03	2.6	-24.2	---	---	720.5	0.028	0.000	18.4	1	1
03/31/06	11:12 p	-21.5	-21.5	-21.5	---	---	1.7	NNW	0.03	2.6	-24.2	---	---	720.5	0.028	0.000	18.4	1	1
03/31/06	11:13 p	-21.4	-21.4	-21.5	---	---	1.7	NNW	0.03	2.6	-24.1	---	---	720.5	0.028	0.000	18.4	1	1
03/31/06	11:14 p	-21.4	-21.4	-21.4	---	---	2.6	NNW	0.04	2.6	-25.6	---	---	720.4	0.028	0.000	18.4	1	1
03/31/06	11:15 p	-21.4	-21.3	-21.4	---	---	1.7	NNW	0.03	2.6	-24.0	---	---	720.4	0.028	0.000	18.4	1	1
03/31/06	11:16 p	-21.3	-21.3	-21.3	---	---	1.7	NNW	0.03	1.7	-23.9	---	---	720.4	0.028	0.000	18.4	1	1
03/31/06	11:17 p	-21.3	-21.2	-21.3	---	---	0.9	NNW	0.01	1.7	-21.4	---	---	720.6	0.028	0.000	18.4	1	1
03/31/06	11:18 p	-21.2	-21.2	-21.2	---	---	1.7	NNW	0.03	1.7	-23.8	---	---	720.5	0.027	0.000	18.4	1	1
03/31/06	11:19 p	-21.2	-21.1	-21.2	---	---	1.7	NNW	0.03	2.6	-23.8	---	---	720.4	0.027	0.000	18.4	1	1
03/31/06	11:20 p	-21.1	-21.1	-21.1	---	---	0.9	NNW	0.01	1.7	-21.2	---	---	720.6	0.027	0.000	18.4	1	1
03/31/06	11:21 p	-21.1	-21.0	-21.1	---	---	0.9	NNW	0.01	1.7	-21.2	---	---	720.5	0.027	0.000	18.4	1	1
03/31/06	11:22 p	-20.9	-20.9	-21.0	---	---	1.7	NNW	0.03	1.7	-23.6	---	---	720.5	0.027	0.000	18.4	1	1
03/31/06	11:23 p	-20.8	-20.8	-20.8	---	---	0.9	NNW	0.01	1.7	-20.9	---	---	720.4	0.027	0.000	18.4	1	1
03/31/06	11:24 p	-20.8	-20.7	-20.8	---	---	0.9	NNW	0.01	2.6	-20.9	---	---	720.5	0.027	0.000	18.4	1	1
03/31/06	11:25 p	-20.7	-20.7	-20.7	---	---	1.7	NNW	0.03	2.6	-23.3	---	---	720.5	0.027	0.000	18.4	1	1
03/31/06	11:26 p	-20.6	-20.6	-20.7	---	---	1.7	NNW	0.03	1.7	-23.2	---	---	720.5	0.027	0.000	18.4	1	1
03/31/06	11:27 p	-20.6	-20.6	-20.6	---	---	1.7	NNW	0.03	2.6	-23.1	---	---	720.5	0.027	0.000	18.4	1	1
03/31/06	11:28 p	-20.6	-20.6	-20.6	---	---	1.7	NNW	0.03	1.7	-23.2	---	---	720.5	0.027	0.000	18.4	1	1
03/31/06	11:29 p	-20.6	-20.6	-20.6	---	---	1.7	NNW	0.03	2.6	-23.1	---	---	720.4	0.027	0.000	18.4	1	1
03/31/06	11:30 p	-20.6	-20.6	-20.6	---	---	1.7	NNW	0.03	2.6	-23.1	---	---	720.5	0.027	0.000	18.4	1	1
03/31/06	11:31 p	-20.6	-20.4	-20.6	---	---	0.9	NNW	0.01	1.7	-20.7	---	---	720.5	0.027	0.000	18.4	1	1
03/31/06	11:32 p	-20.4	-20.4	-20.4	---	---	0.9	NNW	0.01	1.7	-20.5	---	---	720.4	0.027	0.000	18.4	1	1
03/31/06	11:33 p	-20.4	-20.3	-20.4	---	---	0.9	NNW	0.01	1.7	-20.4	---	---	720.4	0.027	0.000	18.4	1	1
03/31/06	11:34 p	-20.3	-20.3	-20.3	---	---	0.9	NNW	0.01	0.9	-20.4	---	---	720.4	0.027	0.000	18.4	1	1
03/31/06	11:35 p	-20.2	-20.2	-20.3	---	---	0.9	NNW	0.01	0.9	-20.3	---	---	720.4	0.027	0.000	18.4	1	1
03/31/06	11:36 p	-20.1	-20.1	-20.2	---	---	0.9	NNW	0.01	1.7	-20.2	---	---	720.4	0.027	0.000	18.4	1	1
03/31/06	11:37 p	-20.1	-20.0	-20.1	---	---	0.0	NNW	0.00	1.7	-20.0	---	---	720.4	0.027	0.000	18.4	1	1
03/31/06	11:38 p	-19.9	-19.9	-20.0	---	---	0.9	NNW	0.01	1.7	-20.0	---	---	720.4	0.027	0.000	18.4	1	1
03/31/06	11:39 p	-19.8	-19.8	-19.9	---	---	0.9	NNW	0.01	1.7	-19.9	---	---	720.4	0.027	0.000	18.4	1	1
03/31/06	11:40 p	-19.7	-19.7	-19.8	---	---	0.9	NNW	0.01	1.7	-19.8	---	---	720.4	0.026	0.000	18.5	1	1
03/31/06	11:41 p	-19.6	-19.6	-19.7	---	---	0.9	NNW	0.01	1.7	-19.7	---	---	720.4	0.026	0.000	18.5	1	1
03/31/06	11:42 p	-19.5	-19.5	-19.6	---	---	0.9	NNW	0.01	1.7	-19.6	---	---	720.4	0.026	0.000	18.5	1	1
03/31/06	11:43 p	-19.4	-19.4	-19.5	---	---	0.9	NNW	0.01	1.7	-19.5	---	---	720.4	0.026	0.000	18.5	1	1
03/31/06	11:44 p	-19.3	-19.3	-19.4	---	---	0.9	NNW	0.01	1.7	-19.3	---	---	720.3	0.026	0.000	18.5	1	1
03/31/06	11:45 p	-19.2	-19.2	-19.3	---	---	0.9	NNW	0.01	1.7	-19.2	---	---	720.4	0.026	0.000	18.5	1	1
03/31/06	11:46 p	-19.2	-19.1	-19.2	---	---	0.9	NNW	0.01	0.9	-19.2	---	---	720.4	0.026	0.000	18.5	1	1
03/31/06	11:47 p	-19.1	-19.1	-19.1	---	---	0.9	NNW	0.01	0.9	-19.1	---	---	720.3	0.026	0.000	18.5	1	1
03/31/06	11:48 p	-18.9	-18.9	-19.0	---	---	0.0	NNW	0.00	0.9	-18.9	---	---	720.4	0.026	0.000	18.5	1	1
03/31/06	11:49 p	-18.9	-18.9	-18.9	---	---	0.0	---	0.00	0.9	-18.8	---	---	720.3	0.026	0.000	18.5	1	1
03/31/06	11:50 p	-18.8	-18.8	-18.8	---	---	0.0	---	0.00	0.0	-18.8	---	---	720.3	0.026	0.000	18.5	1	1
03/31/06	11:51 p	-18.7	-18.7	-18.7	---	---	0.0	---	0.00	0.0	-18.7	---	---	720.3	0.026	0.000	18.5	1	1
03/31/06	11:52 p	-18.6	-18.6	-18.7	---	---	0.0	---	0.00	0.0	-18.6	---	---	720.3	0.026	0.000	18.5	1	1
03/31/06	11:53 p	-18.6	-18.5	-18.6	---	---	0.0	---	0.00	0.0	-18.5	---	---	720.3	0.026	0.000	18.5	1	1
03/31/06	11:54 p	-18.4	-18.3	-18.5	---	---	0.0	---	0.00	0.0	-18.3	---	---	720.3	0.026	0.000	18.5	1	1
03/31/06	11:55 p	-18.3	-18.3	-18.3	---	---	0.0	---	0.00	0.0	-18.2	---	---	720.3	0.025	0.000	18.5	1	1
03/31/06	11:56 p	-18.2	-18.1	-18.2	---	---	0.0	---	0.00	0.0	-18.1	---	---	720.3	0.025	0.000	18.5	1	1
03/31/06	11:57 p	-18.1	-18.1	-18.1	---	---	0.0	---	0.00	0.0	-18.0	---	---	720.3	0.025	0.000	18.5	1	1
03/31/06	11:58 p	-17.9	-17.9	-18.0	---	---	0.0	---	0.00	0.0	-17.9	---	---	720.3	0.025	0.000	18.5	1	1
03/31/06	11:59 p	-17.9	-17.8	-17.9	---	---	0.0	---	0.00	0.0	-17.8	---	---	720.3	0.025	0.000	18.5	1	1
04/01/06	12:00 a	-17.8	-17.7	-17.8	---	---	0.0	---	0.00	0.0	-17.8	---	---	720.4	0.025	0.000	18.5	1	1